<?xml version="1.0" encoding="UTF-8" standalone="no" ?>
<gpx xmlns="http://www.topografix.com/GPX/1/1" xmlns:xsi="http://www.w3.org/2001/XMLSchema-instance" xsi:schemaLocation="http://www.topografix.com/GPX/1/1 http://www.topografix.com/GPX/1/1/gpx.xsd" version="1.1" creator="VisuGPX - https://www.visugpx.com">
  <metadata>
    <name>J1 Vienne - Mönichkirchen</name>
  </metadata>
  <trk>
    <name><![CDATA[J1 Vienne - Mönichkirchen]]></name>
    <trkseg>
      <trkpt lat="48.19879" lon="16.33385">
        <ele>234.081655</ele>
        <time>2026-07-07T06:57:28.000Z</time>
      </trkpt>
      <trkpt lat="48.19875" lon="16.33387">
        <ele>234.081655</ele>
        <time>2026-07-07T06:57:29.000Z</time>
      </trkpt>
      <trkpt lat="48.19871" lon="16.3339">
        <ele>234.081655</ele>
        <time>2026-07-07T06:57:30.000Z</time>
      </trkpt>
      <trkpt lat="48.19868" lon="16.33392">
        <ele>234.081655</ele>
        <time>2026-07-07T06:57:31.000Z</time>
      </trkpt>
      <trkpt lat="48.19865" lon="16.33394">
        <ele>234.081655</ele>
        <time>2026-07-07T06:57:32.000Z</time>
      </trkpt>
      <trkpt lat="48.19863" lon="16.33395">
        <ele>234.081655</ele>
        <time>2026-07-07T06:57:33.000Z</time>
      </trkpt>
      <trkpt lat="48.1986" lon="16.33396">
        <ele>234.081655</ele>
        <time>2026-07-07T06:57:34.000Z</time>
      </trkpt>
      <trkpt lat="48.19859" lon="16.33397">
        <ele>234.081655</ele>
        <time>2026-07-07T06:57:35.000Z</time>
      </trkpt>
      <trkpt lat="48.19858" lon="16.33397">
        <ele>234.081655</ele>
        <time>2026-07-07T06:57:36.000Z</time>
      </trkpt>
      <trkpt lat="48.19854" lon="16.33403">
        <ele>234.081655</ele>
        <time>2026-07-07T06:57:44.000Z</time>
      </trkpt>
      <trkpt lat="48.19854" lon="16.33407">
        <ele>234.081655</ele>
        <time>2026-07-07T06:57:45.000Z</time>
      </trkpt>
      <trkpt lat="48.19854" lon="16.33412">
        <ele>234.081655</ele>
        <time>2026-07-07T06:57:46.000Z</time>
      </trkpt>
      <trkpt lat="48.19855" lon="16.33417">
        <ele>234.081655</ele>
        <time>2026-07-07T06:57:47.000Z</time>
      </trkpt>
      <trkpt lat="48.19856" lon="16.33423">
        <ele>234.081655</ele>
        <time>2026-07-07T06:57:48.000Z</time>
      </trkpt>
      <trkpt lat="48.19858" lon="16.33429">
        <ele>234.081655</ele>
        <time>2026-07-07T06:57:49.000Z</time>
      </trkpt>
      <trkpt lat="48.1986" lon="16.33436">
        <ele>234.081655</ele>
        <time>2026-07-07T06:57:50.000Z</time>
      </trkpt>
      <trkpt lat="48.19862" lon="16.33442">
        <ele>234.081655</ele>
        <time>2026-07-07T06:57:51.000Z</time>
      </trkpt>
      <trkpt lat="48.19864" lon="16.33448">
        <ele>234.081655</ele>
        <time>2026-07-07T06:57:52.000Z</time>
      </trkpt>
      <trkpt lat="48.19865" lon="16.33455">
        <ele>234.081655</ele>
        <time>2026-07-07T06:57:53.000Z</time>
      </trkpt>
      <trkpt lat="48.19867" lon="16.33461">
        <ele>234.081655</ele>
        <time>2026-07-07T06:57:54.000Z</time>
      </trkpt>
      <trkpt lat="48.19868" lon="16.33466">
        <ele>234.081655</ele>
        <time>2026-07-07T06:57:55.000Z</time>
      </trkpt>
      <trkpt lat="48.1987" lon="16.33471">
        <ele>234.081655</ele>
        <time>2026-07-07T06:57:56.000Z</time>
      </trkpt>
      <trkpt lat="48.19872" lon="16.33476">
        <ele>234.081655</ele>
        <time>2026-07-07T06:57:57.000Z</time>
      </trkpt>
      <trkpt lat="48.19873" lon="16.33481">
        <ele>234.081655</ele>
        <time>2026-07-07T06:57:58.000Z</time>
      </trkpt>
      <trkpt lat="48.19875" lon="16.33486">
        <ele>234.081655</ele>
        <time>2026-07-07T06:57:59.000Z</time>
      </trkpt>
      <trkpt lat="48.19876" lon="16.33491">
        <ele>234.064649</ele>
        <time>2026-07-07T06:58:00.000Z</time>
      </trkpt>
      <trkpt lat="48.19877" lon="16.33496">
        <ele>234.022822</ele>
        <time>2026-07-07T06:58:01.000Z</time>
      </trkpt>
      <trkpt lat="48.19879" lon="16.335">
        <ele>233.982791</ele>
        <time>2026-07-07T06:58:02.000Z</time>
      </trkpt>
      <trkpt lat="48.1988" lon="16.33504">
        <ele>233.947156</ele>
        <time>2026-07-07T06:58:03.000Z</time>
      </trkpt>
      <trkpt lat="48.19881" lon="16.33508">
        <ele>233.914568</ele>
        <time>2026-07-07T06:58:04.000Z</time>
      </trkpt>
      <trkpt lat="48.19882" lon="16.33512">
        <ele>233.876771</ele>
        <time>2026-07-07T06:58:05.000Z</time>
      </trkpt>
      <trkpt lat="48.19883" lon="16.33517">
        <ele>233.833501</ele>
        <time>2026-07-07T06:58:06.000Z</time>
      </trkpt>
      <trkpt lat="48.19885" lon="16.33522">
        <ele>233.787726</ele>
        <time>2026-07-07T06:58:07.000Z</time>
      </trkpt>
      <trkpt lat="48.19886" lon="16.33528">
        <ele>233.739383</ele>
        <time>2026-07-07T06:58:08.000Z</time>
      </trkpt>
      <trkpt lat="48.19887" lon="16.33534">
        <ele>233.685903</ele>
        <time>2026-07-07T06:58:09.000Z</time>
      </trkpt>
      <trkpt lat="48.19888" lon="16.3354">
        <ele>233.633599</ele>
        <time>2026-07-07T06:58:10.000Z</time>
      </trkpt>
      <trkpt lat="48.1989" lon="16.33546">
        <ele>233.584618</ele>
        <time>2026-07-07T06:58:11.000Z</time>
      </trkpt>
      <trkpt lat="48.19892" lon="16.33551">
        <ele>233.536216</ele>
        <time>2026-07-07T06:58:12.000Z</time>
      </trkpt>
      <trkpt lat="48.19894" lon="16.33556">
        <ele>233.486506</ele>
        <time>2026-07-07T06:58:13.000Z</time>
      </trkpt>
      <trkpt lat="48.19896" lon="16.33562">
        <ele>233.436495</ele>
        <time>2026-07-07T06:58:14.000Z</time>
      </trkpt>
      <trkpt lat="48.19897" lon="16.33567">
        <ele>233.386484</ele>
        <time>2026-07-07T06:58:15.000Z</time>
      </trkpt>
      <trkpt lat="48.19899" lon="16.33573">
        <ele>233.336902</ele>
        <time>2026-07-07T06:58:16.000Z</time>
      </trkpt>
      <trkpt lat="48.199" lon="16.33579">
        <ele>233.28611</ele>
        <time>2026-07-07T06:58:17.000Z</time>
      </trkpt>
      <trkpt lat="48.19901" lon="16.33585">
        <ele>233.234981</ele>
        <time>2026-07-07T06:58:18.000Z</time>
      </trkpt>
      <trkpt lat="48.19903" lon="16.33591">
        <ele>233.186477</ele>
        <time>2026-07-07T06:58:19.000Z</time>
      </trkpt>
      <trkpt lat="48.19904" lon="16.33596">
        <ele>233.135508</ele>
        <time>2026-07-07T06:58:20.000Z</time>
      </trkpt>
      <trkpt lat="48.19906" lon="16.33602">
        <ele>233.084273</ele>
        <time>2026-07-07T06:58:21.000Z</time>
      </trkpt>
      <trkpt lat="48.19908" lon="16.33608">
        <ele>233.032558</ele>
        <time>2026-07-07T06:58:22.000Z</time>
      </trkpt>
      <trkpt lat="48.19909" lon="16.33613">
        <ele>232.982548</ele>
        <time>2026-07-07T06:58:23.000Z</time>
      </trkpt>
      <trkpt lat="48.19911" lon="16.33619">
        <ele>232.929065</ele>
        <time>2026-07-07T06:58:24.000Z</time>
      </trkpt>
      <trkpt lat="48.19913" lon="16.33625">
        <ele>232.875996</ele>
        <time>2026-07-07T06:58:25.000Z</time>
      </trkpt>
      <trkpt lat="48.19914" lon="16.33631">
        <ele>232.825978</ele>
        <time>2026-07-07T06:58:26.000Z</time>
      </trkpt>
      <trkpt lat="48.19916" lon="16.33637">
        <ele>232.778348</ele>
        <time>2026-07-07T06:58:27.000Z</time>
      </trkpt>
      <trkpt lat="48.19917" lon="16.33642">
        <ele>232.733018</ele>
        <time>2026-07-07T06:58:28.000Z</time>
      </trkpt>
      <trkpt lat="48.19918" lon="16.33647">
        <ele>232.688264</ele>
        <time>2026-07-07T06:58:29.000Z</time>
      </trkpt>
      <trkpt lat="48.1992" lon="16.33652">
        <ele>232.641287</ele>
        <time>2026-07-07T06:58:30.000Z</time>
      </trkpt>
      <trkpt lat="48.19922" lon="16.33657">
        <ele>232.595192</ele>
        <time>2026-07-07T06:58:31.000Z</time>
      </trkpt>
      <trkpt lat="48.19923" lon="16.33663">
        <ele>232.545624</ele>
        <time>2026-07-07T06:58:32.000Z</time>
      </trkpt>
      <trkpt lat="48.19924" lon="16.33669">
        <ele>232.492878</ele>
        <time>2026-07-07T06:58:33.000Z</time>
      </trkpt>
      <trkpt lat="48.19925" lon="16.33675">
        <ele>232.44477</ele>
        <time>2026-07-07T06:58:34.000Z</time>
      </trkpt>
      <trkpt lat="48.19926" lon="16.3368">
        <ele>232.400596</ele>
        <time>2026-07-07T06:58:35.000Z</time>
      </trkpt>
      <trkpt lat="48.19927" lon="16.33684">
        <ele>232.362249</ele>
        <time>2026-07-07T06:58:36.000Z</time>
      </trkpt>
      <trkpt lat="48.19928" lon="16.33689">
        <ele>232.32581</ele>
        <time>2026-07-07T06:58:37.000Z</time>
      </trkpt>
      <trkpt lat="48.19929" lon="16.33693">
        <ele>232.287094</ele>
        <time>2026-07-07T06:58:38.000Z</time>
      </trkpt>
      <trkpt lat="48.19931" lon="16.33698">
        <ele>232.242729</ele>
        <time>2026-07-07T06:58:39.000Z</time>
      </trkpt>
      <trkpt lat="48.19932" lon="16.33703">
        <ele>232.194225</ele>
        <time>2026-07-07T06:58:40.000Z</time>
      </trkpt>
      <trkpt lat="48.19934" lon="16.33709">
        <ele>232.141649</ele>
        <time>2026-07-07T06:58:41.000Z</time>
      </trkpt>
      <trkpt lat="48.19936" lon="16.33715">
        <ele>232.093145</ele>
        <time>2026-07-07T06:58:42.000Z</time>
      </trkpt>
      <trkpt lat="48.19937" lon="16.3372">
        <ele>232.047837</ele>
        <time>2026-07-07T06:58:43.000Z</time>
      </trkpt>
      <trkpt lat="48.19938" lon="16.33725">
        <ele>232.002923</ele>
        <time>2026-07-07T06:58:44.000Z</time>
      </trkpt>
      <trkpt lat="48.1994" lon="16.3373">
        <ele>231.956676</ele>
        <time>2026-07-07T06:58:45.000Z</time>
      </trkpt>
      <trkpt lat="48.19941" lon="16.33735">
        <ele>231.916646</ele>
        <time>2026-07-07T06:58:46.000Z</time>
      </trkpt>
      <trkpt lat="48.19943" lon="16.33739">
        <ele>231.878687</ele>
        <time>2026-07-07T06:58:47.000Z</time>
      </trkpt>
      <trkpt lat="48.19945" lon="16.33744">
        <ele>231.874185</ele>
        <time>2026-07-07T06:58:48.000Z</time>
      </trkpt>
      <trkpt lat="48.19946" lon="16.33749">
        <ele>231.870026</ele>
        <time>2026-07-07T06:58:49.000Z</time>
      </trkpt>
      <trkpt lat="48.19947" lon="16.33753">
        <ele>231.866149</ele>
        <time>2026-07-07T06:58:50.000Z</time>
      </trkpt>
      <trkpt lat="48.19948" lon="16.33758">
        <ele>231.862091</ele>
        <time>2026-07-07T06:58:51.000Z</time>
      </trkpt>
      <trkpt lat="48.19949" lon="16.33762">
        <ele>231.85798</ele>
        <time>2026-07-07T06:58:52.000Z</time>
      </trkpt>
      <trkpt lat="48.19951" lon="16.33767">
        <ele>231.853821</ele>
        <time>2026-07-07T06:58:53.000Z</time>
      </trkpt>
      <trkpt lat="48.19951" lon="16.33771">
        <ele>231.850251</ele>
        <time>2026-07-07T06:58:54.000Z</time>
      </trkpt>
      <trkpt lat="48.19952" lon="16.33776">
        <ele>231.846634</ele>
        <time>2026-07-07T06:58:55.000Z</time>
      </trkpt>
      <trkpt lat="48.19952" lon="16.33779">
        <ele>231.843587</ele>
        <time>2026-07-07T06:58:56.000Z</time>
      </trkpt>
      <trkpt lat="48.19952" lon="16.33782">
        <ele>231.841054</ele>
        <time>2026-07-07T06:58:57.000Z</time>
      </trkpt>
      <trkpt lat="48.19953" lon="16.33785">
        <ele>231.838833</ele>
        <time>2026-07-07T06:58:58.000Z</time>
      </trkpt>
      <trkpt lat="48.19953" lon="16.33787">
        <ele>231.836918</ele>
        <time>2026-07-07T06:58:59.000Z</time>
      </trkpt>
      <trkpt lat="48.19954" lon="16.33789">
        <ele>231.834875</ele>
        <time>2026-07-07T06:59:00.000Z</time>
      </trkpt>
      <trkpt lat="48.19955" lon="16.3379">
        <ele>231.83311</ele>
        <time>2026-07-07T06:59:01.000Z</time>
      </trkpt>
      <trkpt lat="48.19957" lon="16.3379">
        <ele>231.831242</ele>
        <time>2026-07-07T06:59:02.000Z</time>
      </trkpt>
      <trkpt lat="48.19958" lon="16.33792">
        <ele>231.829363</ele>
        <time>2026-07-07T06:59:03.000Z</time>
      </trkpt>
      <trkpt lat="48.19959" lon="16.33794">
        <ele>231.827164</ele>
        <time>2026-07-07T06:59:04.000Z</time>
      </trkpt>
      <trkpt lat="48.1996" lon="16.33796">
        <ele>231.824636</ele>
        <time>2026-07-07T06:59:05.000Z</time>
      </trkpt>
      <trkpt lat="48.19962" lon="16.33799">
        <ele>231.821968</ele>
        <time>2026-07-07T06:59:06.000Z</time>
      </trkpt>
      <trkpt lat="48.19962" lon="16.33802">
        <ele>231.81965</ele>
        <time>2026-07-07T06:59:07.000Z</time>
      </trkpt>
      <trkpt lat="48.19962" lon="16.33805">
        <ele>231.817186</ele>
        <time>2026-07-07T06:59:08.000Z</time>
      </trkpt>
      <trkpt lat="48.19962" lon="16.33808">
        <ele>231.81402</ele>
        <time>2026-07-07T06:59:09.000Z</time>
      </trkpt>
      <trkpt lat="48.19963" lon="16.33813">
        <ele>231.810375</ele>
        <time>2026-07-07T06:59:10.000Z</time>
      </trkpt>
      <trkpt lat="48.19964" lon="16.33817">
        <ele>231.806343</ele>
        <time>2026-07-07T06:59:11.000Z</time>
      </trkpt>
      <trkpt lat="48.19965" lon="16.33822">
        <ele>231.802167</ele>
        <time>2026-07-07T06:59:12.000Z</time>
      </trkpt>
      <trkpt lat="48.19967" lon="16.33827">
        <ele>231.797981</ele>
        <time>2026-07-07T06:59:13.000Z</time>
      </trkpt>
      <trkpt lat="48.19969" lon="16.3383">
        <ele>231.794214</ele>
        <time>2026-07-07T06:59:14.000Z</time>
      </trkpt>
      <trkpt lat="48.19971" lon="16.33833">
        <ele>231.790365</ele>
        <time>2026-07-07T06:59:15.000Z</time>
      </trkpt>
      <trkpt lat="48.19975" lon="16.33834">
        <ele>231.786182</ele>
        <time>2026-07-07T06:59:16.000Z</time>
      </trkpt>
      <trkpt lat="48.19978" lon="16.33834">
        <ele>231.782132</ele>
        <time>2026-07-07T06:59:17.000Z</time>
      </trkpt>
      <trkpt lat="48.19981" lon="16.33833">
        <ele>231.778154</ele>
        <time>2026-07-07T06:59:18.000Z</time>
      </trkpt>
      <trkpt lat="48.19984" lon="16.33832">
        <ele>231.774347</ele>
        <time>2026-07-07T06:59:19.000Z</time>
      </trkpt>
      <trkpt lat="48.19987" lon="16.33831">
        <ele>231.770579</ele>
        <time>2026-07-07T06:59:20.000Z</time>
      </trkpt>
      <trkpt lat="48.1999" lon="16.3383">
        <ele>231.76703</ele>
        <time>2026-07-07T06:59:21.000Z</time>
      </trkpt>
      <trkpt lat="48.19993" lon="16.33829">
        <ele>231.76362</ele>
        <time>2026-07-07T06:59:22.000Z</time>
      </trkpt>
      <trkpt lat="48.19995" lon="16.33828">
        <ele>231.760447</ele>
        <time>2026-07-07T06:59:23.000Z</time>
      </trkpt>
      <trkpt lat="48.19997" lon="16.33827">
        <ele>231.757511</ele>
        <time>2026-07-07T06:59:24.000Z</time>
      </trkpt>
      <trkpt lat="48.19999" lon="16.33826">
        <ele>231.755585</ele>
        <time>2026-07-07T06:59:25.000Z</time>
      </trkpt>
      <trkpt lat="48.19999" lon="16.33826">
        <ele>231.754924</ele>
        <time>2026-07-07T06:59:26.000Z</time>
      </trkpt>
      <trkpt lat="48.2" lon="16.33826">
        <ele>231.75405</ele>
        <time>2026-07-07T06:59:27.000Z</time>
      </trkpt>
      <trkpt lat="48.20001" lon="16.33826">
        <ele>231.75244</ele>
        <time>2026-07-07T06:59:39.000Z</time>
      </trkpt>
      <trkpt lat="48.20002" lon="16.33829">
        <ele>231.750498</ele>
        <time>2026-07-07T06:59:40.000Z</time>
      </trkpt>
      <trkpt lat="48.20003" lon="16.33832">
        <ele>231.747609</ele>
        <time>2026-07-07T06:59:41.000Z</time>
      </trkpt>
      <trkpt lat="48.20004" lon="16.33835">
        <ele>231.744392</ele>
        <time>2026-07-07T06:59:42.000Z</time>
      </trkpt>
      <trkpt lat="48.20006" lon="16.3384">
        <ele>231.740306</ele>
        <time>2026-07-07T06:59:43.000Z</time>
      </trkpt>
      <trkpt lat="48.20008" lon="16.33844">
        <ele>231.73568</ele>
        <time>2026-07-07T06:59:44.000Z</time>
      </trkpt>
      <trkpt lat="48.2001" lon="16.3385">
        <ele>231.730631</ele>
        <time>2026-07-07T06:59:45.000Z</time>
      </trkpt>
      <trkpt lat="48.20011" lon="16.33855">
        <ele>231.725925</ele>
        <time>2026-07-07T06:59:46.000Z</time>
      </trkpt>
      <trkpt lat="48.20012" lon="16.3386">
        <ele>231.721563</ele>
        <time>2026-07-07T06:59:47.000Z</time>
      </trkpt>
      <trkpt lat="48.20013" lon="16.33866">
        <ele>231.716882</ele>
        <time>2026-07-07T06:59:48.000Z</time>
      </trkpt>
      <trkpt lat="48.20013" lon="16.33872">
        <ele>231.711791</ele>
        <time>2026-07-07T06:59:49.000Z</time>
      </trkpt>
      <trkpt lat="48.20014" lon="16.33879">
        <ele>231.706444</ele>
        <time>2026-07-07T06:59:50.000Z</time>
      </trkpt>
      <trkpt lat="48.20014" lon="16.33885">
        <ele>231.700934</ele>
        <time>2026-07-07T06:59:51.000Z</time>
      </trkpt>
      <trkpt lat="48.20015" lon="16.33892">
        <ele>231.695505</ele>
        <time>2026-07-07T06:59:52.000Z</time>
      </trkpt>
      <trkpt lat="48.20015" lon="16.33899">
        <ele>231.689574</ele>
        <time>2026-07-07T06:59:53.000Z</time>
      </trkpt>
      <trkpt lat="48.20016" lon="16.33907">
        <ele>231.683425</ele>
        <time>2026-07-07T06:59:54.000Z</time>
      </trkpt>
      <trkpt lat="48.20016" lon="16.33914">
        <ele>231.677089</ele>
        <time>2026-07-07T06:59:55.000Z</time>
      </trkpt>
      <trkpt lat="48.20017" lon="16.33922">
        <ele>231.67094</ele>
        <time>2026-07-07T06:59:56.000Z</time>
      </trkpt>
      <trkpt lat="48.20017" lon="16.33929">
        <ele>231.664766</ele>
        <time>2026-07-07T06:59:57.000Z</time>
      </trkpt>
      <trkpt lat="48.20018" lon="16.33937">
        <ele>231.658738</ele>
        <time>2026-07-07T06:59:58.000Z</time>
      </trkpt>
      <trkpt lat="48.20019" lon="16.33944">
        <ele>231.608925</ele>
        <time>2026-07-07T06:59:59.000Z</time>
      </trkpt>
      <trkpt lat="48.2002" lon="16.33952">
        <ele>231.558865</ele>
        <time>2026-07-07T07:00:00.000Z</time>
      </trkpt>
      <trkpt lat="48.2002" lon="16.33959">
        <ele>231.507108</ele>
        <time>2026-07-07T07:00:01.000Z</time>
      </trkpt>
      <trkpt lat="48.20021" lon="16.33967">
        <ele>231.456309</ele>
        <time>2026-07-07T07:00:02.000Z</time>
      </trkpt>
      <trkpt lat="48.20022" lon="16.33974">
        <ele>231.407571</ele>
        <time>2026-07-07T07:00:03.000Z</time>
      </trkpt>
      <trkpt lat="48.20023" lon="16.33981">
        <ele>231.358074</ele>
        <time>2026-07-07T07:00:04.000Z</time>
      </trkpt>
      <trkpt lat="48.20024" lon="16.33989">
        <ele>231.308783</ele>
        <time>2026-07-07T07:00:05.000Z</time>
      </trkpt>
      <trkpt lat="48.20025" lon="16.33996">
        <ele>231.261614</ele>
        <time>2026-07-07T07:00:06.000Z</time>
      </trkpt>
      <trkpt lat="48.20026" lon="16.34003">
        <ele>231.212768</ele>
        <time>2026-07-07T07:00:07.000Z</time>
      </trkpt>
      <trkpt lat="48.20027" lon="16.3401">
        <ele>231.164571</ele>
        <time>2026-07-07T07:00:08.000Z</time>
      </trkpt>
      <trkpt lat="48.20028" lon="16.34017">
        <ele>231.116246</ele>
        <time>2026-07-07T07:00:09.000Z</time>
      </trkpt>
      <trkpt lat="48.20028" lon="16.34024">
        <ele>231.067921</ele>
        <time>2026-07-07T07:00:10.000Z</time>
      </trkpt>
      <trkpt lat="48.20029" lon="16.34031">
        <ele>231.020389</ele>
        <time>2026-07-07T07:00:11.000Z</time>
      </trkpt>
      <trkpt lat="48.2003" lon="16.34038">
        <ele>230.973041</ele>
        <time>2026-07-07T07:00:12.000Z</time>
      </trkpt>
      <trkpt lat="48.2003" lon="16.34045">
        <ele>230.930117</ele>
        <time>2026-07-07T07:00:13.000Z</time>
      </trkpt>
      <trkpt lat="48.20031" lon="16.34051">
        <ele>230.889008</ele>
        <time>2026-07-07T07:00:14.000Z</time>
      </trkpt>
      <trkpt lat="48.20032" lon="16.34057">
        <ele>230.848369</ele>
        <time>2026-07-07T07:00:15.000Z</time>
      </trkpt>
      <trkpt lat="48.20032" lon="16.34062">
        <ele>230.81216</ele>
        <time>2026-07-07T07:00:16.000Z</time>
      </trkpt>
      <trkpt lat="48.20032" lon="16.34067">
        <ele>230.781609</ele>
        <time>2026-07-07T07:00:17.000Z</time>
      </trkpt>
      <trkpt lat="48.20032" lon="16.3407">
        <ele>230.760147</ele>
        <time>2026-07-07T07:00:18.000Z</time>
      </trkpt>
      <trkpt lat="48.20032" lon="16.34073">
        <ele>230.743424</ele>
        <time>2026-07-07T07:00:19.000Z</time>
      </trkpt>
      <trkpt lat="48.20032" lon="16.34074">
        <ele>230.735392</ele>
        <time>2026-07-07T07:00:20.000Z</time>
      </trkpt>
      <trkpt lat="48.20032" lon="16.34074">
        <ele>230.732072</ele>
        <time>2026-07-07T07:00:21.000Z</time>
      </trkpt>
      <trkpt lat="48.20032" lon="16.3408">
        <ele>230.691912</ele>
        <time>2026-07-07T07:00:29.000Z</time>
      </trkpt>
      <trkpt lat="48.20033" lon="16.34085">
        <ele>230.663198</ele>
        <time>2026-07-07T07:00:30.000Z</time>
      </trkpt>
      <trkpt lat="48.20033" lon="16.3409">
        <ele>230.628604</ele>
        <time>2026-07-07T07:00:31.000Z</time>
      </trkpt>
      <trkpt lat="48.20033" lon="16.34095">
        <ele>230.594718</ele>
        <time>2026-07-07T07:00:32.000Z</time>
      </trkpt>
      <trkpt lat="48.20033" lon="16.34101">
        <ele>230.556652</ele>
        <time>2026-07-07T07:00:33.000Z</time>
      </trkpt>
      <trkpt lat="48.20034" lon="16.34106">
        <ele>230.520001</ele>
        <time>2026-07-07T07:00:34.000Z</time>
      </trkpt>
      <trkpt lat="48.20034" lon="16.34112">
        <ele>230.482092</ele>
        <time>2026-07-07T07:00:35.000Z</time>
      </trkpt>
      <trkpt lat="48.20034" lon="16.34118">
        <ele>230.44153</ele>
        <time>2026-07-07T07:00:36.000Z</time>
      </trkpt>
      <trkpt lat="48.20034" lon="16.34124">
        <ele>230.398919</ele>
        <time>2026-07-07T07:00:37.000Z</time>
      </trkpt>
      <trkpt lat="48.20034" lon="16.34131">
        <ele>230.355085</ele>
        <time>2026-07-07T07:00:38.000Z</time>
      </trkpt>
      <trkpt lat="48.20034" lon="16.34138">
        <ele>230.309086</ele>
        <time>2026-07-07T07:00:39.000Z</time>
      </trkpt>
      <trkpt lat="48.20034" lon="16.34145">
        <ele>230.262595</ele>
        <time>2026-07-07T07:00:40.000Z</time>
      </trkpt>
      <trkpt lat="48.20034" lon="16.34152">
        <ele>230.21544</ele>
        <time>2026-07-07T07:00:41.000Z</time>
      </trkpt>
      <trkpt lat="48.20034" lon="16.34159">
        <ele>230.166293</ele>
        <time>2026-07-07T07:00:42.000Z</time>
      </trkpt>
      <trkpt lat="48.20034" lon="16.34167">
        <ele>230.115808</ele>
        <time>2026-07-07T07:00:43.000Z</time>
      </trkpt>
      <trkpt lat="48.20034" lon="16.34175">
        <ele>230.064668</ele>
        <time>2026-07-07T07:00:44.000Z</time>
      </trkpt>
      <trkpt lat="48.20035" lon="16.34182">
        <ele>230.012826</ele>
        <time>2026-07-07T07:00:45.000Z</time>
      </trkpt>
      <trkpt lat="48.20035" lon="16.34191">
        <ele>229.958283</ele>
        <time>2026-07-07T07:00:46.000Z</time>
      </trkpt>
      <trkpt lat="48.20035" lon="16.34199">
        <ele>229.905142</ele>
        <time>2026-07-07T07:00:47.000Z</time>
      </trkpt>
      <trkpt lat="48.20035" lon="16.34207">
        <ele>229.83573</ele>
        <time>2026-07-07T07:00:48.000Z</time>
      </trkpt>
      <trkpt lat="48.20035" lon="16.34215">
        <ele>229.732018</ele>
        <time>2026-07-07T07:00:49.000Z</time>
      </trkpt>
      <trkpt lat="48.20035" lon="16.34223">
        <ele>229.626937</ele>
        <time>2026-07-07T07:00:50.000Z</time>
      </trkpt>
      <trkpt lat="48.20036" lon="16.34231">
        <ele>229.520187</ele>
        <time>2026-07-07T07:00:51.000Z</time>
      </trkpt>
      <trkpt lat="48.20035" lon="16.34239">
        <ele>229.418993</ele>
        <time>2026-07-07T07:00:52.000Z</time>
      </trkpt>
      <trkpt lat="48.20036" lon="16.34247">
        <ele>229.316503</ele>
        <time>2026-07-07T07:00:53.000Z</time>
      </trkpt>
      <trkpt lat="48.20036" lon="16.34255">
        <ele>229.215215</ele>
        <time>2026-07-07T07:00:54.000Z</time>
      </trkpt>
      <trkpt lat="48.20035" lon="16.34262">
        <ele>229.120079</ele>
        <time>2026-07-07T07:00:55.000Z</time>
      </trkpt>
      <trkpt lat="48.20035" lon="16.34269">
        <ele>229.022849</ele>
        <time>2026-07-07T07:00:56.000Z</time>
      </trkpt>
      <trkpt lat="48.20035" lon="16.34277">
        <ele>228.926423</ele>
        <time>2026-07-07T07:00:57.000Z</time>
      </trkpt>
      <trkpt lat="48.20035" lon="16.34284">
        <ele>228.829173</ele>
        <time>2026-07-07T07:00:58.000Z</time>
      </trkpt>
      <trkpt lat="48.20035" lon="16.34291">
        <ele>228.738404</ele>
        <time>2026-07-07T07:00:59.000Z</time>
      </trkpt>
      <trkpt lat="48.20035" lon="16.34297">
        <ele>228.663112</ele>
        <time>2026-07-07T07:01:00.000Z</time>
      </trkpt>
      <trkpt lat="48.20035" lon="16.34303">
        <ele>228.589216</ele>
        <time>2026-07-07T07:01:01.000Z</time>
      </trkpt>
      <trkpt lat="48.20035" lon="16.34308">
        <ele>228.517808</ele>
        <time>2026-07-07T07:01:02.000Z</time>
      </trkpt>
      <trkpt lat="48.20035" lon="16.34314">
        <ele>228.449071</ele>
        <time>2026-07-07T07:01:03.000Z</time>
      </trkpt>
      <trkpt lat="48.20034" lon="16.34318">
        <ele>228.387576</ele>
        <time>2026-07-07T07:01:04.000Z</time>
      </trkpt>
      <trkpt lat="48.20032" lon="16.34322">
        <ele>228.324805</ele>
        <time>2026-07-07T07:01:05.000Z</time>
      </trkpt>
      <trkpt lat="48.20029" lon="16.34324">
        <ele>228.267977</ele>
        <time>2026-07-07T07:01:06.000Z</time>
      </trkpt>
      <trkpt lat="48.20024" lon="16.34325">
        <ele>228.17051</ele>
        <time>2026-07-07T07:01:07.000Z</time>
      </trkpt>
      <trkpt lat="48.2002" lon="16.34325">
        <ele>228.082946</ele>
        <time>2026-07-07T07:01:08.000Z</time>
      </trkpt>
      <trkpt lat="48.20014" lon="16.34326">
        <ele>227.975774</ele>
        <time>2026-07-07T07:01:09.000Z</time>
      </trkpt>
      <trkpt lat="48.20009" lon="16.34326">
        <ele>227.868414</ele>
        <time>2026-07-07T07:01:10.000Z</time>
      </trkpt>
      <trkpt lat="48.20003" lon="16.34326">
        <ele>227.745872</ele>
        <time>2026-07-07T07:01:11.000Z</time>
      </trkpt>
      <trkpt lat="48.19997" lon="16.34327">
        <ele>227.634885</ele>
        <time>2026-07-07T07:01:12.000Z</time>
      </trkpt>
      <trkpt lat="48.19992" lon="16.34326">
        <ele>227.531668</ele>
        <time>2026-07-07T07:01:13.000Z</time>
      </trkpt>
      <trkpt lat="48.19986" lon="16.34326">
        <ele>227.424496</ele>
        <time>2026-07-07T07:01:14.000Z</time>
      </trkpt>
      <trkpt lat="48.1998" lon="16.34326">
        <ele>227.307767</ele>
        <time>2026-07-07T07:01:15.000Z</time>
      </trkpt>
      <trkpt lat="48.19974" lon="16.34327">
        <ele>227.186481</ele>
        <time>2026-07-07T07:01:16.000Z</time>
      </trkpt>
      <trkpt lat="48.19968" lon="16.34327">
        <ele>227.067771</ele>
        <time>2026-07-07T07:01:17.000Z</time>
      </trkpt>
      <trkpt lat="48.19961" lon="16.34328">
        <ele>226.937352</ele>
        <time>2026-07-07T07:01:18.000Z</time>
      </trkpt>
      <trkpt lat="48.19955" lon="16.34328">
        <ele>226.814816</ele>
        <time>2026-07-07T07:01:19.000Z</time>
      </trkpt>
      <trkpt lat="48.19948" lon="16.34328">
        <ele>226.688384</ele>
        <time>2026-07-07T07:01:20.000Z</time>
      </trkpt>
      <trkpt lat="48.19942" lon="16.34328">
        <ele>226.563876</ele>
        <time>2026-07-07T07:01:21.000Z</time>
      </trkpt>
      <trkpt lat="48.19936" lon="16.34328">
        <ele>226.454886</ele>
        <time>2026-07-07T07:01:22.000Z</time>
      </trkpt>
      <trkpt lat="48.19931" lon="16.34327">
        <ele>226.36494</ele>
        <time>2026-07-07T07:01:23.000Z</time>
      </trkpt>
      <trkpt lat="48.19927" lon="16.34327">
        <ele>226.333219</ele>
        <time>2026-07-07T07:01:24.000Z</time>
      </trkpt>
      <trkpt lat="48.19923" lon="16.34326">
        <ele>226.307818</ele>
        <time>2026-07-07T07:01:25.000Z</time>
      </trkpt>
      <trkpt lat="48.1992" lon="16.34326">
        <ele>226.285178</ele>
        <time>2026-07-07T07:01:26.000Z</time>
      </trkpt>
      <trkpt lat="48.19916" lon="16.34326">
        <ele>226.25979</ele>
        <time>2026-07-07T07:01:27.000Z</time>
      </trkpt>
      <trkpt lat="48.19912" lon="16.34326">
        <ele>226.233619</ele>
        <time>2026-07-07T07:01:28.000Z</time>
      </trkpt>
      <trkpt lat="48.1991" lon="16.34326">
        <ele>226.214893</ele>
        <time>2026-07-07T07:01:29.000Z</time>
      </trkpt>
      <trkpt lat="48.19907" lon="16.34327">
        <ele>226.19423</ele>
        <time>2026-07-07T07:01:30.000Z</time>
      </trkpt>
      <trkpt lat="48.19904" lon="16.34327">
        <ele>226.173466</ele>
        <time>2026-07-07T07:01:31.000Z</time>
      </trkpt>
      <trkpt lat="48.19903" lon="16.3433">
        <ele>226.161289</ele>
        <time>2026-07-07T07:01:32.000Z</time>
      </trkpt>
      <trkpt lat="48.19901" lon="16.34332">
        <ele>226.145584</ele>
        <time>2026-07-07T07:01:33.000Z</time>
      </trkpt>
      <trkpt lat="48.199" lon="16.34334">
        <ele>226.132139</ele>
        <time>2026-07-07T07:01:34.000Z</time>
      </trkpt>
      <trkpt lat="48.199" lon="16.34337">
        <ele>226.118352</ele>
        <time>2026-07-07T07:01:35.000Z</time>
      </trkpt>
      <trkpt lat="48.199" lon="16.3434">
        <ele>226.103702</ele>
        <time>2026-07-07T07:01:36.000Z</time>
      </trkpt>
      <trkpt lat="48.19901" lon="16.34344">
        <ele>226.084166</ele>
        <time>2026-07-07T07:01:37.000Z</time>
      </trkpt>
      <trkpt lat="48.19902" lon="16.34349">
        <ele>226.059366</ele>
        <time>2026-07-07T07:01:38.000Z</time>
      </trkpt>
      <trkpt lat="48.19904" lon="16.34355">
        <ele>226.030935</ele>
        <time>2026-07-07T07:01:39.000Z</time>
      </trkpt>
      <trkpt lat="48.19905" lon="16.34361">
        <ele>226.002085</ele>
        <time>2026-07-07T07:01:40.000Z</time>
      </trkpt>
      <trkpt lat="48.19908" lon="16.34367">
        <ele>225.968748</ele>
        <time>2026-07-07T07:01:41.000Z</time>
      </trkpt>
      <trkpt lat="48.19909" lon="16.34374">
        <ele>225.936561</ele>
        <time>2026-07-07T07:01:42.000Z</time>
      </trkpt>
      <trkpt lat="48.19911" lon="16.3438">
        <ele>225.905758</ele>
        <time>2026-07-07T07:01:43.000Z</time>
      </trkpt>
      <trkpt lat="48.19912" lon="16.34387">
        <ele>225.876143</ele>
        <time>2026-07-07T07:01:44.000Z</time>
      </trkpt>
      <trkpt lat="48.19913" lon="16.34393">
        <ele>225.845313</ele>
        <time>2026-07-07T07:01:45.000Z</time>
      </trkpt>
      <trkpt lat="48.19914" lon="16.34399">
        <ele>225.814808</ele>
        <time>2026-07-07T07:01:46.000Z</time>
      </trkpt>
      <trkpt lat="48.19915" lon="16.34406">
        <ele>225.78341</ele>
        <time>2026-07-07T07:01:47.000Z</time>
      </trkpt>
      <trkpt lat="48.19916" lon="16.34412">
        <ele>225.753946</ele>
        <time>2026-07-07T07:01:48.000Z</time>
      </trkpt>
      <trkpt lat="48.19917" lon="16.34419">
        <ele>225.722207</ele>
        <time>2026-07-07T07:01:49.000Z</time>
      </trkpt>
      <trkpt lat="48.19917" lon="16.34426">
        <ele>225.69084</ele>
        <time>2026-07-07T07:01:50.000Z</time>
      </trkpt>
      <trkpt lat="48.19918" lon="16.34433">
        <ele>225.658996</ele>
        <time>2026-07-07T07:01:51.000Z</time>
      </trkpt>
      <trkpt lat="48.19919" lon="16.3444">
        <ele>225.625364</ele>
        <time>2026-07-07T07:01:52.000Z</time>
      </trkpt>
      <trkpt lat="48.1992" lon="16.34447">
        <ele>225.592091</ele>
        <time>2026-07-07T07:01:53.000Z</time>
      </trkpt>
      <trkpt lat="48.19921" lon="16.34455">
        <ele>225.558365</ele>
        <time>2026-07-07T07:01:54.000Z</time>
      </trkpt>
      <trkpt lat="48.19921" lon="16.34462">
        <ele>225.525183</ele>
        <time>2026-07-07T07:01:55.000Z</time>
      </trkpt>
      <trkpt lat="48.19922" lon="16.34468">
        <ele>225.494808</ele>
        <time>2026-07-07T07:01:56.000Z</time>
      </trkpt>
      <trkpt lat="48.19922" lon="16.34474">
        <ele>225.470871</ele>
        <time>2026-07-07T07:01:57.000Z</time>
      </trkpt>
      <trkpt lat="48.19922" lon="16.34478">
        <ele>225.452579</ele>
        <time>2026-07-07T07:01:58.000Z</time>
      </trkpt>
      <trkpt lat="48.19922" lon="16.34481">
        <ele>225.437881</ele>
        <time>2026-07-07T07:01:59.000Z</time>
      </trkpt>
      <trkpt lat="48.19922" lon="16.34484">
        <ele>225.425077</ele>
        <time>2026-07-07T07:02:00.000Z</time>
      </trkpt>
      <trkpt lat="48.19922" lon="16.34487">
        <ele>225.411205</ele>
        <time>2026-07-07T07:02:01.000Z</time>
      </trkpt>
      <trkpt lat="48.19923" lon="16.3449">
        <ele>225.396175</ele>
        <time>2026-07-07T07:02:02.000Z</time>
      </trkpt>
      <trkpt lat="48.19923" lon="16.34493">
        <ele>225.379806</ele>
        <time>2026-07-07T07:02:03.000Z</time>
      </trkpt>
      <trkpt lat="48.19924" lon="16.34498">
        <ele>225.359846</ele>
        <time>2026-07-07T07:02:04.000Z</time>
      </trkpt>
      <trkpt lat="48.19924" lon="16.34502">
        <ele>225.337853</ele>
        <time>2026-07-07T07:02:05.000Z</time>
      </trkpt>
      <trkpt lat="48.19925" lon="16.34508">
        <ele>225.313593</ele>
        <time>2026-07-07T07:02:06.000Z</time>
      </trkpt>
      <trkpt lat="48.19925" lon="16.34513">
        <ele>225.288108</ele>
        <time>2026-07-07T07:02:07.000Z</time>
      </trkpt>
      <trkpt lat="48.19927" lon="16.34519">
        <ele>225.259462</ele>
        <time>2026-07-07T07:02:08.000Z</time>
      </trkpt>
      <trkpt lat="48.19928" lon="16.34525">
        <ele>225.230816</ele>
        <time>2026-07-07T07:02:09.000Z</time>
      </trkpt>
      <trkpt lat="48.19929" lon="16.34531">
        <ele>225.203862</ele>
        <time>2026-07-07T07:02:10.000Z</time>
      </trkpt>
      <trkpt lat="48.1993" lon="16.34536">
        <ele>225.177351</ele>
        <time>2026-07-07T07:02:11.000Z</time>
      </trkpt>
      <trkpt lat="48.19931" lon="16.34542">
        <ele>225.1485</ele>
        <time>2026-07-07T07:02:12.000Z</time>
      </trkpt>
      <trkpt lat="48.19932" lon="16.34548">
        <ele>225.127866</ele>
        <time>2026-07-07T07:02:13.000Z</time>
      </trkpt>
      <trkpt lat="48.19933" lon="16.34555">
        <ele>225.113861</ele>
        <time>2026-07-07T07:02:14.000Z</time>
      </trkpt>
      <trkpt lat="48.19935" lon="16.34561">
        <ele>225.100148</ele>
        <time>2026-07-07T07:02:15.000Z</time>
      </trkpt>
      <trkpt lat="48.19936" lon="16.34567">
        <ele>225.086435</ele>
        <time>2026-07-07T07:02:16.000Z</time>
      </trkpt>
      <trkpt lat="48.19938" lon="16.34574">
        <ele>225.071529</ele>
        <time>2026-07-07T07:02:17.000Z</time>
      </trkpt>
      <trkpt lat="48.19939" lon="16.34581">
        <ele>225.056315</ele>
        <time>2026-07-07T07:02:18.000Z</time>
      </trkpt>
      <trkpt lat="48.19941" lon="16.34588">
        <ele>225.04102</ele>
        <time>2026-07-07T07:02:19.000Z</time>
      </trkpt>
      <trkpt lat="48.19942" lon="16.34595">
        <ele>225.026311</ele>
        <time>2026-07-07T07:02:20.000Z</time>
      </trkpt>
      <trkpt lat="48.19944" lon="16.34602">
        <ele>225.011115</ele>
        <time>2026-07-07T07:02:21.000Z</time>
      </trkpt>
      <trkpt lat="48.19945" lon="16.34609">
        <ele>224.996161</ele>
        <time>2026-07-07T07:02:22.000Z</time>
      </trkpt>
      <trkpt lat="48.19946" lon="16.34616">
        <ele>224.980729</ele>
        <time>2026-07-07T07:02:23.000Z</time>
      </trkpt>
      <trkpt lat="48.19947" lon="16.34623">
        <ele>224.964936</ele>
        <time>2026-07-07T07:02:24.000Z</time>
      </trkpt>
      <trkpt lat="48.19949" lon="16.3463">
        <ele>224.94925</ele>
        <time>2026-07-07T07:02:25.000Z</time>
      </trkpt>
      <trkpt lat="48.1995" lon="16.34638">
        <ele>224.933367</ele>
        <time>2026-07-07T07:02:26.000Z</time>
      </trkpt>
      <trkpt lat="48.19952" lon="16.34645">
        <ele>224.917656</ele>
        <time>2026-07-07T07:02:27.000Z</time>
      </trkpt>
      <trkpt lat="48.19953" lon="16.34652">
        <ele>224.901821</ele>
        <time>2026-07-07T07:02:28.000Z</time>
      </trkpt>
      <trkpt lat="48.19954" lon="16.3466">
        <ele>224.885853</ele>
        <time>2026-07-07T07:02:29.000Z</time>
      </trkpt>
      <trkpt lat="48.19955" lon="16.34667">
        <ele>224.870367</ele>
        <time>2026-07-07T07:02:30.000Z</time>
      </trkpt>
      <trkpt lat="48.19956" lon="16.34674">
        <ele>224.855074</ele>
        <time>2026-07-07T07:02:31.000Z</time>
      </trkpt>
      <trkpt lat="48.19958" lon="16.34681">
        <ele>224.839441</ele>
        <time>2026-07-07T07:02:32.000Z</time>
      </trkpt>
      <trkpt lat="48.19959" lon="16.34689">
        <ele>224.823931</ele>
        <time>2026-07-07T07:02:33.000Z</time>
      </trkpt>
      <trkpt lat="48.1996" lon="16.34696">
        <ele>224.808735</ele>
        <time>2026-07-07T07:02:34.000Z</time>
      </trkpt>
      <trkpt lat="48.19961" lon="16.34703">
        <ele>224.793239</ele>
        <time>2026-07-07T07:02:35.000Z</time>
      </trkpt>
      <trkpt lat="48.19962" lon="16.3471">
        <ele>224.777271</ele>
        <time>2026-07-07T07:02:36.000Z</time>
      </trkpt>
      <trkpt lat="48.19963" lon="16.34718">
        <ele>224.761185</ele>
        <time>2026-07-07T07:02:37.000Z</time>
      </trkpt>
      <trkpt lat="48.19963" lon="16.34726">
        <ele>224.744892</ele>
        <time>2026-07-07T07:02:38.000Z</time>
      </trkpt>
      <trkpt lat="48.19964" lon="16.34733">
        <ele>224.729145</ele>
        <time>2026-07-07T07:02:39.000Z</time>
      </trkpt>
      <trkpt lat="48.19965" lon="16.34741">
        <ele>224.713605</ele>
        <time>2026-07-07T07:02:40.000Z</time>
      </trkpt>
      <trkpt lat="48.19966" lon="16.34748">
        <ele>224.698632</ele>
        <time>2026-07-07T07:02:41.000Z</time>
      </trkpt>
      <trkpt lat="48.19967" lon="16.34755">
        <ele>224.68334</ele>
        <time>2026-07-07T07:02:42.000Z</time>
      </trkpt>
      <trkpt lat="48.19968" lon="16.34762">
        <ele>224.668455</ele>
        <time>2026-07-07T07:02:43.000Z</time>
      </trkpt>
      <trkpt lat="48.19969" lon="16.34769">
        <ele>224.653569</ele>
        <time>2026-07-07T07:02:44.000Z</time>
      </trkpt>
      <trkpt lat="48.1997" lon="16.34776">
        <ele>224.638943</ele>
        <time>2026-07-07T07:02:45.000Z</time>
      </trkpt>
      <trkpt lat="48.19971" lon="16.34783">
        <ele>224.623651</ele>
        <time>2026-07-07T07:02:46.000Z</time>
      </trkpt>
      <trkpt lat="48.19972" lon="16.3479">
        <ele>224.608474</ele>
        <time>2026-07-07T07:02:47.000Z</time>
      </trkpt>
      <trkpt lat="48.19972" lon="16.34797">
        <ele>224.593835</ele>
        <time>2026-07-07T07:02:48.000Z</time>
      </trkpt>
      <trkpt lat="48.19973" lon="16.34804">
        <ele>224.579478</ele>
        <time>2026-07-07T07:02:49.000Z</time>
      </trkpt>
      <trkpt lat="48.19974" lon="16.34811">
        <ele>224.557317</ele>
        <time>2026-07-07T07:02:50.000Z</time>
      </trkpt>
      <trkpt lat="48.19975" lon="16.34817">
        <ele>224.528725</ele>
        <time>2026-07-07T07:02:51.000Z</time>
      </trkpt>
      <trkpt lat="48.19975" lon="16.34823">
        <ele>224.499312</ele>
        <time>2026-07-07T07:02:52.000Z</time>
      </trkpt>
      <trkpt lat="48.19976" lon="16.3483">
        <ele>224.469117</ele>
        <time>2026-07-07T07:02:53.000Z</time>
      </trkpt>
      <trkpt lat="48.19977" lon="16.34837">
        <ele>224.437483</ele>
        <time>2026-07-07T07:02:54.000Z</time>
      </trkpt>
      <trkpt lat="48.19978" lon="16.34844">
        <ele>224.404648</ele>
        <time>2026-07-07T07:02:55.000Z</time>
      </trkpt>
      <trkpt lat="48.19978" lon="16.34852">
        <ele>224.369972</ele>
        <time>2026-07-07T07:02:56.000Z</time>
      </trkpt>
      <trkpt lat="48.19979" lon="16.34859">
        <ele>224.336114</ele>
        <time>2026-07-07T07:02:57.000Z</time>
      </trkpt>
      <trkpt lat="48.1998" lon="16.34867">
        <ele>224.299631</ele>
        <time>2026-07-07T07:02:58.000Z</time>
      </trkpt>
      <trkpt lat="48.19981" lon="16.34875">
        <ele>224.262824</ele>
        <time>2026-07-07T07:02:59.000Z</time>
      </trkpt>
      <trkpt lat="48.19981" lon="16.34884">
        <ele>224.224958</ele>
        <time>2026-07-07T07:03:00.000Z</time>
      </trkpt>
      <trkpt lat="48.19982" lon="16.34892">
        <ele>224.188034</ele>
        <time>2026-07-07T07:03:01.000Z</time>
      </trkpt>
      <trkpt lat="48.19983" lon="16.349">
        <ele>224.152111</ele>
        <time>2026-07-07T07:03:02.000Z</time>
      </trkpt>
      <trkpt lat="48.19984" lon="16.34907">
        <ele>224.118253</ele>
        <time>2026-07-07T07:03:03.000Z</time>
      </trkpt>
      <trkpt lat="48.19984" lon="16.34914">
        <ele>224.087589</ele>
        <time>2026-07-07T07:03:04.000Z</time>
      </trkpt>
      <trkpt lat="48.19985" lon="16.3492">
        <ele>224.061376</ele>
        <time>2026-07-07T07:03:05.000Z</time>
      </trkpt>
      <trkpt lat="48.19986" lon="16.34925">
        <ele>224.03979</ele>
        <time>2026-07-07T07:03:06.000Z</time>
      </trkpt>
      <trkpt lat="48.19986" lon="16.3493">
        <ele>224.015572</ele>
        <time>2026-07-07T07:03:07.000Z</time>
      </trkpt>
      <trkpt lat="48.19987" lon="16.34936">
        <ele>223.989707</ele>
        <time>2026-07-07T07:03:08.000Z</time>
      </trkpt>
      <trkpt lat="48.19988" lon="16.34942">
        <ele>223.960827</ele>
        <time>2026-07-07T07:03:09.000Z</time>
      </trkpt>
      <trkpt lat="48.19989" lon="16.34948">
        <ele>223.931641</ele>
        <time>2026-07-07T07:03:10.000Z</time>
      </trkpt>
      <trkpt lat="48.1999" lon="16.34955">
        <ele>223.901656</ele>
        <time>2026-07-07T07:03:11.000Z</time>
      </trkpt>
      <trkpt lat="48.19992" lon="16.34961">
        <ele>223.87167</ele>
        <time>2026-07-07T07:03:12.000Z</time>
      </trkpt>
      <trkpt lat="48.19993" lon="16.34968">
        <ele>223.839582</ele>
        <time>2026-07-07T07:03:13.000Z</time>
      </trkpt>
      <trkpt lat="48.19993" lon="16.34975">
        <ele>223.80598</ele>
        <time>2026-07-07T07:03:14.000Z</time>
      </trkpt>
      <trkpt lat="48.19995" lon="16.34983">
        <ele>223.77228</ele>
        <time>2026-07-07T07:03:15.000Z</time>
      </trkpt>
      <trkpt lat="48.19996" lon="16.3499">
        <ele>223.73804</ele>
        <time>2026-07-07T07:03:16.000Z</time>
      </trkpt>
      <trkpt lat="48.19998" lon="16.34996">
        <ele>223.706491</ele>
        <time>2026-07-07T07:03:17.000Z</time>
      </trkpt>
      <trkpt lat="48.19999" lon="16.35004">
        <ele>223.670534</ele>
        <time>2026-07-07T07:03:18.000Z</time>
      </trkpt>
      <trkpt lat="48.20001" lon="16.35011">
        <ele>223.636297</ele>
        <time>2026-07-07T07:03:19.000Z</time>
      </trkpt>
      <trkpt lat="48.20003" lon="16.35018">
        <ele>223.60334</ele>
        <time>2026-07-07T07:03:20.000Z</time>
      </trkpt>
      <trkpt lat="48.20004" lon="16.35025">
        <ele>223.570944</ele>
        <time>2026-07-07T07:03:21.000Z</time>
      </trkpt>
      <trkpt lat="48.20005" lon="16.35033">
        <ele>223.53754</ele>
        <time>2026-07-07T07:03:22.000Z</time>
      </trkpt>
      <trkpt lat="48.20006" lon="16.3504">
        <ele>223.504371</ele>
        <time>2026-07-07T07:03:23.000Z</time>
      </trkpt>
      <trkpt lat="48.20007" lon="16.35046">
        <ele>223.475343</ele>
        <time>2026-07-07T07:03:24.000Z</time>
      </trkpt>
      <trkpt lat="48.20009" lon="16.35052">
        <ele>223.447694</ele>
        <time>2026-07-07T07:03:25.000Z</time>
      </trkpt>
      <trkpt lat="48.20009" lon="16.35058">
        <ele>223.421275</ele>
        <time>2026-07-07T07:03:26.000Z</time>
      </trkpt>
      <trkpt lat="48.20009" lon="16.35062">
        <ele>223.400166</ele>
        <time>2026-07-07T07:03:27.000Z</time>
      </trkpt>
      <trkpt lat="48.20008" lon="16.35066">
        <ele>223.380505</ele>
        <time>2026-07-07T07:03:28.000Z</time>
      </trkpt>
      <trkpt lat="48.20005" lon="16.3507">
        <ele>223.351529</ele>
        <time>2026-07-07T07:03:29.000Z</time>
      </trkpt>
      <trkpt lat="48.20002" lon="16.35072">
        <ele>223.304829</ele>
        <time>2026-07-07T07:03:30.000Z</time>
      </trkpt>
      <trkpt lat="48.19998" lon="16.35074">
        <ele>223.254405</ele>
        <time>2026-07-07T07:03:31.000Z</time>
      </trkpt>
      <trkpt lat="48.19994" lon="16.35076">
        <ele>223.199127</ele>
        <time>2026-07-07T07:03:32.000Z</time>
      </trkpt>
      <trkpt lat="48.1999" lon="16.35077">
        <ele>223.145068</ele>
        <time>2026-07-07T07:03:33.000Z</time>
      </trkpt>
      <trkpt lat="48.19985" lon="16.35079">
        <ele>223.08979</ele>
        <time>2026-07-07T07:03:34.000Z</time>
      </trkpt>
      <trkpt lat="48.19981" lon="16.3508">
        <ele>223.035097</ele>
        <time>2026-07-07T07:03:35.000Z</time>
      </trkpt>
      <trkpt lat="48.19978" lon="16.35081">
        <ele>222.990485</ele>
        <time>2026-07-07T07:03:36.000Z</time>
      </trkpt>
      <trkpt lat="48.19974" lon="16.35083">
        <ele>222.939408</ele>
        <time>2026-07-07T07:03:37.000Z</time>
      </trkpt>
      <trkpt lat="48.19969" lon="16.35084">
        <ele>222.883729</ele>
        <time>2026-07-07T07:03:38.000Z</time>
      </trkpt>
      <trkpt lat="48.19965" lon="16.35086">
        <ele>222.82472</ele>
        <time>2026-07-07T07:03:39.000Z</time>
      </trkpt>
      <trkpt lat="48.19961" lon="16.35089">
        <ele>222.777205</ele>
        <time>2026-07-07T07:03:40.000Z</time>
      </trkpt>
      <trkpt lat="48.19957" lon="16.35091">
        <ele>222.722284</ele>
        <time>2026-07-07T07:03:41.000Z</time>
      </trkpt>
      <trkpt lat="48.19952" lon="16.35094">
        <ele>222.657479</ele>
        <time>2026-07-07T07:03:42.000Z</time>
      </trkpt>
      <trkpt lat="48.1995" lon="16.35096">
        <ele>222.620505</ele>
        <time>2026-07-07T07:03:43.000Z</time>
      </trkpt>
      <trkpt lat="48.19947" lon="16.35098">
        <ele>222.577536</ele>
        <time>2026-07-07T07:03:44.000Z</time>
      </trkpt>
      <trkpt lat="48.19943" lon="16.35102">
        <ele>222.520916</ele>
        <time>2026-07-07T07:03:45.000Z</time>
      </trkpt>
      <trkpt lat="48.19939" lon="16.35106">
        <ele>222.454994</ele>
        <time>2026-07-07T07:03:46.000Z</time>
      </trkpt>
      <trkpt lat="48.19935" lon="16.35109">
        <ele>222.407107</ele>
        <time>2026-07-07T07:03:47.000Z</time>
      </trkpt>
      <trkpt lat="48.19932" lon="16.35112">
        <ele>222.357441</ele>
        <time>2026-07-07T07:03:48.000Z</time>
      </trkpt>
      <trkpt lat="48.19928" lon="16.35115">
        <ele>222.305552</ele>
        <time>2026-07-07T07:03:49.000Z</time>
      </trkpt>
      <trkpt lat="48.19924" lon="16.35117">
        <ele>222.248975</ele>
        <time>2026-07-07T07:03:50.000Z</time>
      </trkpt>
      <trkpt lat="48.1992" lon="16.35121">
        <ele>222.189909</ele>
        <time>2026-07-07T07:03:51.000Z</time>
      </trkpt>
      <trkpt lat="48.19915" lon="16.35125">
        <ele>222.124837</ele>
        <time>2026-07-07T07:03:52.000Z</time>
      </trkpt>
      <trkpt lat="48.19911" lon="16.35127">
        <ele>222.072367</ele>
        <time>2026-07-07T07:03:53.000Z</time>
      </trkpt>
      <trkpt lat="48.19907" lon="16.35131">
        <ele>222.006614</ele>
        <time>2026-07-07T07:03:54.000Z</time>
      </trkpt>
      <trkpt lat="48.19903" lon="16.35134">
        <ele>221.952112</ele>
        <time>2026-07-07T07:03:55.000Z</time>
      </trkpt>
      <trkpt lat="48.19899" lon="16.35136">
        <ele>221.902084</ele>
        <time>2026-07-07T07:03:56.000Z</time>
      </trkpt>
      <trkpt lat="48.19896" lon="16.3514">
        <ele>221.851828</ele>
        <time>2026-07-07T07:03:57.000Z</time>
      </trkpt>
      <trkpt lat="48.19892" lon="16.35143">
        <ele>221.795833</ele>
        <time>2026-07-07T07:03:58.000Z</time>
      </trkpt>
      <trkpt lat="48.1989" lon="16.35147">
        <ele>221.753337</ele>
        <time>2026-07-07T07:03:59.000Z</time>
      </trkpt>
      <trkpt lat="48.19888" lon="16.35151">
        <ele>221.706761</ele>
        <time>2026-07-07T07:04:00.000Z</time>
      </trkpt>
      <trkpt lat="48.19887" lon="16.35156">
        <ele>221.661667</ele>
        <time>2026-07-07T07:04:01.000Z</time>
      </trkpt>
      <trkpt lat="48.19887" lon="16.35162">
        <ele>221.612362</ele>
        <time>2026-07-07T07:04:02.000Z</time>
      </trkpt>
      <trkpt lat="48.19887" lon="16.35168">
        <ele>221.565624</ele>
        <time>2026-07-07T07:04:03.000Z</time>
      </trkpt>
      <trkpt lat="48.19887" lon="16.35174">
        <ele>221.516239</ele>
        <time>2026-07-07T07:04:04.000Z</time>
      </trkpt>
      <trkpt lat="48.19888" lon="16.3518">
        <ele>221.467574</ele>
        <time>2026-07-07T07:04:05.000Z</time>
      </trkpt>
      <trkpt lat="48.19889" lon="16.35185">
        <ele>221.421812</ele>
        <time>2026-07-07T07:04:06.000Z</time>
      </trkpt>
      <trkpt lat="48.19891" lon="16.35189">
        <ele>221.377566</ele>
        <time>2026-07-07T07:04:07.000Z</time>
      </trkpt>
      <trkpt lat="48.19891" lon="16.35194">
        <ele>221.339265</ele>
        <time>2026-07-07T07:04:08.000Z</time>
      </trkpt>
      <trkpt lat="48.19892" lon="16.35198">
        <ele>221.302043</ele>
        <time>2026-07-07T07:04:09.000Z</time>
      </trkpt>
      <trkpt lat="48.19893" lon="16.35202">
        <ele>221.26872</ele>
        <time>2026-07-07T07:04:10.000Z</time>
      </trkpt>
      <trkpt lat="48.19894" lon="16.35205">
        <ele>221.23617</ele>
        <time>2026-07-07T07:04:11.000Z</time>
      </trkpt>
      <trkpt lat="48.19896" lon="16.35209">
        <ele>221.200661</ele>
        <time>2026-07-07T07:04:12.000Z</time>
      </trkpt>
      <trkpt lat="48.19898" lon="16.35212">
        <ele>221.158966</ele>
        <time>2026-07-07T07:04:13.000Z</time>
      </trkpt>
      <trkpt lat="48.199" lon="16.35216">
        <ele>221.126253</ele>
        <time>2026-07-07T07:04:14.000Z</time>
      </trkpt>
      <trkpt lat="48.19901" lon="16.35219">
        <ele>221.102557</ele>
        <time>2026-07-07T07:04:15.000Z</time>
      </trkpt>
      <trkpt lat="48.19904" lon="16.35222">
        <ele>221.085467</ele>
        <time>2026-07-07T07:04:16.000Z</time>
      </trkpt>
      <trkpt lat="48.19908" lon="16.35225">
        <ele>221.063068</ele>
        <time>2026-07-07T07:04:17.000Z</time>
      </trkpt>
      <trkpt lat="48.19911" lon="16.35229">
        <ele>221.042415</ele>
        <time>2026-07-07T07:04:18.000Z</time>
      </trkpt>
      <trkpt lat="48.19913" lon="16.35234">
        <ele>221.0212</ele>
        <time>2026-07-07T07:04:19.000Z</time>
      </trkpt>
      <trkpt lat="48.19915" lon="16.3524">
        <ele>220.999952</ele>
        <time>2026-07-07T07:04:20.000Z</time>
      </trkpt>
      <trkpt lat="48.19917" lon="16.35245">
        <ele>220.977857</ele>
        <time>2026-07-07T07:04:21.000Z</time>
      </trkpt>
      <trkpt lat="48.19919" lon="16.35251">
        <ele>220.955459</ele>
        <time>2026-07-07T07:04:22.000Z</time>
      </trkpt>
      <trkpt lat="48.19921" lon="16.35257">
        <ele>220.932214</ele>
        <time>2026-07-07T07:04:23.000Z</time>
      </trkpt>
      <trkpt lat="48.19923" lon="16.35263">
        <ele>220.909852</ele>
        <time>2026-07-07T07:04:24.000Z</time>
      </trkpt>
      <trkpt lat="48.19925" lon="16.35269">
        <ele>220.885917</ele>
        <time>2026-07-07T07:04:25.000Z</time>
      </trkpt>
      <trkpt lat="48.19927" lon="16.35275">
        <ele>220.862907</ele>
        <time>2026-07-07T07:04:26.000Z</time>
      </trkpt>
      <trkpt lat="48.1993" lon="16.35281">
        <ele>220.838927</ele>
        <time>2026-07-07T07:04:27.000Z</time>
      </trkpt>
      <trkpt lat="48.19932" lon="16.35287">
        <ele>220.816657</ele>
        <time>2026-07-07T07:04:28.000Z</time>
      </trkpt>
      <trkpt lat="48.19934" lon="16.35292">
        <ele>220.793821</ele>
        <time>2026-07-07T07:04:29.000Z</time>
      </trkpt>
      <trkpt lat="48.19936" lon="16.35298">
        <ele>220.773228</ele>
        <time>2026-07-07T07:04:30.000Z</time>
      </trkpt>
      <trkpt lat="48.19939" lon="16.35303">
        <ele>220.751477</ele>
        <time>2026-07-07T07:04:31.000Z</time>
      </trkpt>
      <trkpt lat="48.19942" lon="16.35308">
        <ele>220.728868</ele>
        <time>2026-07-07T07:04:32.000Z</time>
      </trkpt>
      <trkpt lat="48.19944" lon="16.35313">
        <ele>220.706034</ele>
        <time>2026-07-07T07:04:33.000Z</time>
      </trkpt>
      <trkpt lat="48.19947" lon="16.35319">
        <ele>220.681472</ele>
        <time>2026-07-07T07:04:34.000Z</time>
      </trkpt>
      <trkpt lat="48.19949" lon="16.35326">
        <ele>220.656468</ele>
        <time>2026-07-07T07:04:35.000Z</time>
      </trkpt>
      <trkpt lat="48.19951" lon="16.35333">
        <ele>220.631073</ele>
        <time>2026-07-07T07:04:36.000Z</time>
      </trkpt>
      <trkpt lat="48.19953" lon="16.35339">
        <ele>220.605455</ele>
        <time>2026-07-07T07:04:37.000Z</time>
      </trkpt>
      <trkpt lat="48.19955" lon="16.35346">
        <ele>220.58045</ele>
        <time>2026-07-07T07:04:38.000Z</time>
      </trkpt>
      <trkpt lat="48.19957" lon="16.35352">
        <ele>220.555895</ele>
        <time>2026-07-07T07:04:39.000Z</time>
      </trkpt>
      <trkpt lat="48.19959" lon="16.35358">
        <ele>220.532577</ele>
        <time>2026-07-07T07:04:40.000Z</time>
      </trkpt>
      <trkpt lat="48.19961" lon="16.35365">
        <ele>220.507802</ele>
        <time>2026-07-07T07:04:41.000Z</time>
      </trkpt>
      <trkpt lat="48.19963" lon="16.35371">
        <ele>220.483457</ele>
        <time>2026-07-07T07:04:42.000Z</time>
      </trkpt>
      <trkpt lat="48.19965" lon="16.35378">
        <ele>220.458062</ele>
        <time>2026-07-07T07:04:43.000Z</time>
      </trkpt>
      <trkpt lat="48.19968" lon="16.35385">
        <ele>220.432444</ele>
        <time>2026-07-07T07:04:44.000Z</time>
      </trkpt>
      <trkpt lat="48.1997" lon="16.35392">
        <ele>220.406518</ele>
        <time>2026-07-07T07:04:45.000Z</time>
      </trkpt>
      <trkpt lat="48.19972" lon="16.35399">
        <ele>220.379764</ele>
        <time>2026-07-07T07:04:46.000Z</time>
      </trkpt>
      <trkpt lat="48.19974" lon="16.35406">
        <ele>220.353434</ele>
        <time>2026-07-07T07:04:47.000Z</time>
      </trkpt>
      <trkpt lat="48.19976" lon="16.35413">
        <ele>220.327311</ele>
        <time>2026-07-07T07:04:48.000Z</time>
      </trkpt>
      <trkpt lat="48.19978" lon="16.3542">
        <ele>220.300766</ele>
        <time>2026-07-07T07:04:49.000Z</time>
      </trkpt>
      <trkpt lat="48.1998" lon="16.35427">
        <ele>220.275032</ele>
        <time>2026-07-07T07:04:50.000Z</time>
      </trkpt>
      <trkpt lat="48.19982" lon="16.35434">
        <ele>220.249108</ele>
        <time>2026-07-07T07:04:51.000Z</time>
      </trkpt>
      <trkpt lat="48.19983" lon="16.35441">
        <ele>220.224373</ele>
        <time>2026-07-07T07:04:52.000Z</time>
      </trkpt>
      <trkpt lat="48.19986" lon="16.35447">
        <ele>220.197545</ele>
        <time>2026-07-07T07:04:53.000Z</time>
      </trkpt>
      <trkpt lat="48.19988" lon="16.35454">
        <ele>220.152649</ele>
        <time>2026-07-07T07:04:54.000Z</time>
      </trkpt>
      <trkpt lat="48.19991" lon="16.3546">
        <ele>220.090827</ele>
        <time>2026-07-07T07:04:55.000Z</time>
      </trkpt>
      <trkpt lat="48.19993" lon="16.35467">
        <ele>220.026748</ele>
        <time>2026-07-07T07:04:56.000Z</time>
      </trkpt>
      <trkpt lat="48.19995" lon="16.35474">
        <ele>219.964354</ele>
        <time>2026-07-07T07:04:57.000Z</time>
      </trkpt>
      <trkpt lat="48.19998" lon="16.3548">
        <ele>219.900169</ele>
        <time>2026-07-07T07:04:58.000Z</time>
      </trkpt>
      <trkpt lat="48.20001" lon="16.35487">
        <ele>219.835109</ele>
        <time>2026-07-07T07:04:59.000Z</time>
      </trkpt>
      <trkpt lat="48.20003" lon="16.35494">
        <ele>219.770478</ele>
        <time>2026-07-07T07:05:00.000Z</time>
      </trkpt>
      <trkpt lat="48.20005" lon="16.35501">
        <ele>219.703946</ele>
        <time>2026-07-07T07:05:01.000Z</time>
      </trkpt>
      <trkpt lat="48.20008" lon="16.35508">
        <ele>219.639484</ele>
        <time>2026-07-07T07:05:02.000Z</time>
      </trkpt>
      <trkpt lat="48.2001" lon="16.35515">
        <ele>219.575174</ele>
        <time>2026-07-07T07:05:03.000Z</time>
      </trkpt>
      <trkpt lat="48.20012" lon="16.35522">
        <ele>219.5075</ele>
        <time>2026-07-07T07:05:04.000Z</time>
      </trkpt>
      <trkpt lat="48.20014" lon="16.3553">
        <ele>219.438852</ele>
        <time>2026-07-07T07:05:05.000Z</time>
      </trkpt>
      <trkpt lat="48.20016" lon="16.35537">
        <ele>219.368163</ele>
        <time>2026-07-07T07:05:06.000Z</time>
      </trkpt>
      <trkpt lat="48.20019" lon="16.35545">
        <ele>219.297161</ele>
        <time>2026-07-07T07:05:07.000Z</time>
      </trkpt>
      <trkpt lat="48.20021" lon="16.35552">
        <ele>219.227658</ele>
        <time>2026-07-07T07:05:08.000Z</time>
      </trkpt>
      <trkpt lat="48.20024" lon="16.35559">
        <ele>219.160964</ele>
        <time>2026-07-07T07:05:09.000Z</time>
      </trkpt>
      <trkpt lat="48.20026" lon="16.35567">
        <ele>219.090275</ele>
        <time>2026-07-07T07:05:10.000Z</time>
      </trkpt>
      <trkpt lat="48.20029" lon="16.35574">
        <ele>219.021065</ele>
        <time>2026-07-07T07:05:11.000Z</time>
      </trkpt>
      <trkpt lat="48.20031" lon="16.35581">
        <ele>218.95599</ele>
        <time>2026-07-07T07:05:12.000Z</time>
      </trkpt>
      <trkpt lat="48.20033" lon="16.35589">
        <ele>218.885646</ele>
        <time>2026-07-07T07:05:13.000Z</time>
      </trkpt>
      <trkpt lat="48.20034" lon="16.35597">
        <ele>218.815702</ele>
        <time>2026-07-07T07:05:14.000Z</time>
      </trkpt>
      <trkpt lat="48.20036" lon="16.35605">
        <ele>218.746952</ele>
        <time>2026-07-07T07:05:15.000Z</time>
      </trkpt>
      <trkpt lat="48.20038" lon="16.35613">
        <ele>218.676608</ele>
        <time>2026-07-07T07:05:16.000Z</time>
      </trkpt>
      <trkpt lat="48.20039" lon="16.35621">
        <ele>218.608238</ele>
        <time>2026-07-07T07:05:17.000Z</time>
      </trkpt>
      <trkpt lat="48.20041" lon="16.35629">
        <ele>218.537878</ele>
        <time>2026-07-07T07:05:18.000Z</time>
      </trkpt>
      <trkpt lat="48.20043" lon="16.35637">
        <ele>218.465494</ele>
        <time>2026-07-07T07:05:19.000Z</time>
      </trkpt>
      <trkpt lat="48.20045" lon="16.35645">
        <ele>218.391973</ele>
        <time>2026-07-07T07:05:20.000Z</time>
      </trkpt>
      <trkpt lat="48.20046" lon="16.35654">
        <ele>218.317979</ele>
        <time>2026-07-07T07:05:21.000Z</time>
      </trkpt>
      <trkpt lat="48.20048" lon="16.35663">
        <ele>218.24088</ele>
        <time>2026-07-07T07:05:22.000Z</time>
      </trkpt>
      <trkpt lat="48.2005" lon="16.35672">
        <ele>218.161402</ele>
        <time>2026-07-07T07:05:23.000Z</time>
      </trkpt>
      <trkpt lat="48.20052" lon="16.35681">
        <ele>218.082312</ele>
        <time>2026-07-07T07:05:24.000Z</time>
      </trkpt>
      <trkpt lat="48.20054" lon="16.35689">
        <ele>218.005196</ele>
        <time>2026-07-07T07:05:25.000Z</time>
      </trkpt>
      <trkpt lat="48.20056" lon="16.35698">
        <ele>217.92888</ele>
        <time>2026-07-07T07:05:26.000Z</time>
      </trkpt>
      <trkpt lat="48.20058" lon="16.35707">
        <ele>217.752412</ele>
        <time>2026-07-07T07:05:27.000Z</time>
      </trkpt>
      <trkpt lat="48.20061" lon="16.35715">
        <ele>217.574558</ele>
        <time>2026-07-07T07:05:28.000Z</time>
      </trkpt>
      <trkpt lat="48.20063" lon="16.35724">
        <ele>217.391799</ele>
        <time>2026-07-07T07:05:29.000Z</time>
      </trkpt>
      <trkpt lat="48.20065" lon="16.35733">
        <ele>217.20461</ele>
        <time>2026-07-07T07:05:30.000Z</time>
      </trkpt>
      <trkpt lat="48.20067" lon="16.35742">
        <ele>217.023059</ele>
        <time>2026-07-07T07:05:31.000Z</time>
      </trkpt>
      <trkpt lat="48.20069" lon="16.35751">
        <ele>216.835831</ele>
        <time>2026-07-07T07:05:32.000Z</time>
      </trkpt>
      <trkpt lat="48.20071" lon="16.3576">
        <ele>216.651485</ele>
        <time>2026-07-07T07:05:33.000Z</time>
      </trkpt>
      <trkpt lat="48.20073" lon="16.35769">
        <ele>216.461091</ele>
        <time>2026-07-07T07:05:34.000Z</time>
      </trkpt>
      <trkpt lat="48.20075" lon="16.35778">
        <ele>216.269353</ele>
        <time>2026-07-07T07:05:35.000Z</time>
      </trkpt>
      <trkpt lat="48.20078" lon="16.35788">
        <ele>216.07097</ele>
        <time>2026-07-07T07:05:36.000Z</time>
      </trkpt>
      <trkpt lat="48.2008" lon="16.35797">
        <ele>215.875157</ele>
        <time>2026-07-07T07:05:37.000Z</time>
      </trkpt>
      <trkpt lat="48.20082" lon="16.35806">
        <ele>215.685267</ele>
        <time>2026-07-07T07:05:38.000Z</time>
      </trkpt>
      <trkpt lat="48.20084" lon="16.35815">
        <ele>215.500015</ele>
        <time>2026-07-07T07:05:39.000Z</time>
      </trkpt>
      <trkpt lat="48.20086" lon="16.35824">
        <ele>215.324952</ele>
        <time>2026-07-07T07:05:40.000Z</time>
      </trkpt>
      <trkpt lat="48.20089" lon="16.35832">
        <ele>215.148876</ele>
        <time>2026-07-07T07:05:41.000Z</time>
      </trkpt>
      <trkpt lat="48.20091" lon="16.3584">
        <ele>214.980983</ele>
        <time>2026-07-07T07:05:42.000Z</time>
      </trkpt>
      <trkpt lat="48.20093" lon="16.35847">
        <ele>214.833396</ele>
        <time>2026-07-07T07:05:43.000Z</time>
      </trkpt>
      <trkpt lat="48.20095" lon="16.35853">
        <ele>214.694147</ele>
        <time>2026-07-07T07:05:44.000Z</time>
      </trkpt>
      <trkpt lat="48.20097" lon="16.3586">
        <ele>214.547223</ele>
        <time>2026-07-07T07:05:45.000Z</time>
      </trkpt>
      <trkpt lat="48.20098" lon="16.35867">
        <ele>214.404353</ele>
        <time>2026-07-07T07:05:46.000Z</time>
      </trkpt>
      <trkpt lat="48.201" lon="16.35874">
        <ele>214.256766</ele>
        <time>2026-07-07T07:05:47.000Z</time>
      </trkpt>
      <trkpt lat="48.20102" lon="16.35881">
        <ele>214.113896</ele>
        <time>2026-07-07T07:05:48.000Z</time>
      </trkpt>
      <trkpt lat="48.20103" lon="16.35888">
        <ele>213.965182</ele>
        <time>2026-07-07T07:05:49.000Z</time>
      </trkpt>
      <trkpt lat="48.20105" lon="16.35896">
        <ele>213.801992</ele>
        <time>2026-07-07T07:05:50.000Z</time>
      </trkpt>
      <trkpt lat="48.20107" lon="16.35904">
        <ele>213.642633</ele>
        <time>2026-07-07T07:05:51.000Z</time>
      </trkpt>
      <trkpt lat="48.20109" lon="16.35912">
        <ele>213.477619</ele>
        <time>2026-07-07T07:05:52.000Z</time>
      </trkpt>
      <trkpt lat="48.20111" lon="16.3592">
        <ele>213.314429</ele>
        <time>2026-07-07T07:05:53.000Z</time>
      </trkpt>
      <trkpt lat="48.20113" lon="16.35928">
        <ele>213.138413</ele>
        <time>2026-07-07T07:05:54.000Z</time>
      </trkpt>
      <trkpt lat="48.20116" lon="16.35937">
        <ele>212.951955</ele>
        <time>2026-07-07T07:05:55.000Z</time>
      </trkpt>
      <trkpt lat="48.20118" lon="16.35945">
        <ele>212.763994</ele>
        <time>2026-07-07T07:05:56.000Z</time>
      </trkpt>
      <trkpt lat="48.20121" lon="16.35954">
        <ele>212.550642</ele>
        <time>2026-07-07T07:05:57.000Z</time>
      </trkpt>
      <trkpt lat="48.20125" lon="16.35963">
        <ele>212.299303</ele>
        <time>2026-07-07T07:05:58.000Z</time>
      </trkpt>
      <trkpt lat="48.20128" lon="16.35972">
        <ele>212.045842</ele>
        <time>2026-07-07T07:05:59.000Z</time>
      </trkpt>
      <trkpt lat="48.20132" lon="16.3598">
        <ele>211.7885</ele>
        <time>2026-07-07T07:06:00.000Z</time>
      </trkpt>
      <trkpt lat="48.20136" lon="16.35989">
        <ele>211.535355</ele>
        <time>2026-07-07T07:06:01.000Z</time>
      </trkpt>
      <trkpt lat="48.2014" lon="16.35998">
        <ele>211.273944</ele>
        <time>2026-07-07T07:06:02.000Z</time>
      </trkpt>
      <trkpt lat="48.20144" lon="16.36006">
        <ele>211.009317</ele>
        <time>2026-07-07T07:06:03.000Z</time>
      </trkpt>
      <trkpt lat="48.20149" lon="16.36014">
        <ele>210.741825</ele>
        <time>2026-07-07T07:06:04.000Z</time>
      </trkpt>
      <trkpt lat="48.20154" lon="16.36022">
        <ele>210.478063</ele>
        <time>2026-07-07T07:06:05.000Z</time>
      </trkpt>
      <trkpt lat="48.20158" lon="16.36029">
        <ele>210.232128</ele>
        <time>2026-07-07T07:06:06.000Z</time>
      </trkpt>
      <trkpt lat="48.20163" lon="16.36035">
        <ele>210.00594</ele>
        <time>2026-07-07T07:06:07.000Z</time>
      </trkpt>
      <trkpt lat="48.20167" lon="16.36041">
        <ele>209.784176</ele>
        <time>2026-07-07T07:06:08.000Z</time>
      </trkpt>
      <trkpt lat="48.20172" lon="16.36047">
        <ele>209.577304</ele>
        <time>2026-07-07T07:06:09.000Z</time>
      </trkpt>
      <trkpt lat="48.20176" lon="16.36052">
        <ele>209.370797</ele>
        <time>2026-07-07T07:06:10.000Z</time>
      </trkpt>
      <trkpt lat="48.2018" lon="16.36058">
        <ele>209.155414</ele>
        <time>2026-07-07T07:06:11.000Z</time>
      </trkpt>
      <trkpt lat="48.20185" lon="16.36063">
        <ele>208.943121</ele>
        <time>2026-07-07T07:06:12.000Z</time>
      </trkpt>
      <trkpt lat="48.2019" lon="16.36068">
        <ele>208.711223</ele>
        <time>2026-07-07T07:06:13.000Z</time>
      </trkpt>
      <trkpt lat="48.20195" lon="16.36073">
        <ele>208.482763</ele>
        <time>2026-07-07T07:06:14.000Z</time>
      </trkpt>
      <trkpt lat="48.20201" lon="16.36077">
        <ele>208.253542</ele>
        <time>2026-07-07T07:06:15.000Z</time>
      </trkpt>
      <trkpt lat="48.20206" lon="16.36082">
        <ele>208.039681</ele>
        <time>2026-07-07T07:06:16.000Z</time>
      </trkpt>
      <trkpt lat="48.2021" lon="16.36086">
        <ele>207.851172</ele>
        <time>2026-07-07T07:06:17.000Z</time>
      </trkpt>
      <trkpt lat="48.20213" lon="16.36091">
        <ele>207.679616</ele>
        <time>2026-07-07T07:06:18.000Z</time>
      </trkpt>
      <trkpt lat="48.20217" lon="16.36096">
        <ele>207.484825</ele>
        <time>2026-07-07T07:06:19.000Z</time>
      </trkpt>
      <trkpt lat="48.20221" lon="16.36101">
        <ele>207.302783</ele>
        <time>2026-07-07T07:06:20.000Z</time>
      </trkpt>
      <trkpt lat="48.20225" lon="16.36106">
        <ele>207.122881</ele>
        <time>2026-07-07T07:06:21.000Z</time>
      </trkpt>
      <trkpt lat="48.20228" lon="16.3611">
        <ele>206.950711</ele>
        <time>2026-07-07T07:06:22.000Z</time>
      </trkpt>
      <trkpt lat="48.20231" lon="16.36114">
        <ele>206.805018</ele>
        <time>2026-07-07T07:06:23.000Z</time>
      </trkpt>
      <trkpt lat="48.20234" lon="16.36117">
        <ele>206.672891</ele>
        <time>2026-07-07T07:06:24.000Z</time>
      </trkpt>
      <trkpt lat="48.20237" lon="16.3612">
        <ele>206.533374</ele>
        <time>2026-07-07T07:06:25.000Z</time>
      </trkpt>
      <trkpt lat="48.20239" lon="16.36124">
        <ele>206.423058</ele>
        <time>2026-07-07T07:06:26.000Z</time>
      </trkpt>
      <trkpt lat="48.20241" lon="16.36127">
        <ele>206.324265</ele>
        <time>2026-07-07T07:06:27.000Z</time>
      </trkpt>
      <trkpt lat="48.20242" lon="16.3613">
        <ele>206.228745</ele>
        <time>2026-07-07T07:06:28.000Z</time>
      </trkpt>
      <trkpt lat="48.20245" lon="16.36133">
        <ele>206.099615</ele>
        <time>2026-07-07T07:06:29.000Z</time>
      </trkpt>
      <trkpt lat="48.20247" lon="16.36136">
        <ele>205.980858</ele>
        <time>2026-07-07T07:06:30.000Z</time>
      </trkpt>
      <trkpt lat="48.20249" lon="16.3614">
        <ele>205.92873</ele>
        <time>2026-07-07T07:06:31.000Z</time>
      </trkpt>
      <trkpt lat="48.20252" lon="16.36144">
        <ele>205.871039</ele>
        <time>2026-07-07T07:06:32.000Z</time>
      </trkpt>
      <trkpt lat="48.20255" lon="16.36148">
        <ele>205.809843</ele>
        <time>2026-07-07T07:06:33.000Z</time>
      </trkpt>
      <trkpt lat="48.20257" lon="16.36152">
        <ele>205.757715</ele>
        <time>2026-07-07T07:06:34.000Z</time>
      </trkpt>
      <trkpt lat="48.20259" lon="16.36156">
        <ele>205.701752</ele>
        <time>2026-07-07T07:06:35.000Z</time>
      </trkpt>
      <trkpt lat="48.20261" lon="16.3616">
        <ele>205.646205</ele>
        <time>2026-07-07T07:06:36.000Z</time>
      </trkpt>
      <trkpt lat="48.20263" lon="16.36165">
        <ele>205.589558</ele>
        <time>2026-07-07T07:06:37.000Z</time>
      </trkpt>
      <trkpt lat="48.20265" lon="16.36169">
        <ele>205.526681</ele>
        <time>2026-07-07T07:06:38.000Z</time>
      </trkpt>
      <trkpt lat="48.20268" lon="16.36174">
        <ele>205.459501</ele>
        <time>2026-07-07T07:06:39.000Z</time>
      </trkpt>
      <trkpt lat="48.2027" lon="16.3618">
        <ele>205.392497</ele>
        <time>2026-07-07T07:06:40.000Z</time>
      </trkpt>
      <trkpt lat="48.20273" lon="16.36185">
        <ele>205.323714</ele>
        <time>2026-07-07T07:06:41.000Z</time>
      </trkpt>
      <trkpt lat="48.20275" lon="16.36191">
        <ele>205.251308</ele>
        <time>2026-07-07T07:06:42.000Z</time>
      </trkpt>
      <trkpt lat="48.20278" lon="16.36196">
        <ele>205.175198</ele>
        <time>2026-07-07T07:06:43.000Z</time>
      </trkpt>
      <trkpt lat="48.20281" lon="16.36202">
        <ele>205.098259</ele>
        <time>2026-07-07T07:06:44.000Z</time>
      </trkpt>
      <trkpt lat="48.20284" lon="16.36208">
        <ele>205.02092</ele>
        <time>2026-07-07T07:06:45.000Z</time>
      </trkpt>
      <trkpt lat="48.20287" lon="16.36213">
        <ele>204.94726</ele>
        <time>2026-07-07T07:06:46.000Z</time>
      </trkpt>
      <trkpt lat="48.2029" lon="16.36218">
        <ele>204.871762</ele>
        <time>2026-07-07T07:06:47.000Z</time>
      </trkpt>
      <trkpt lat="48.20293" lon="16.36224">
        <ele>204.796475</ele>
        <time>2026-07-07T07:06:48.000Z</time>
      </trkpt>
      <trkpt lat="48.20297" lon="16.36229">
        <ele>204.716228</ele>
        <time>2026-07-07T07:06:49.000Z</time>
      </trkpt>
      <trkpt lat="48.203" lon="16.36235">
        <ele>204.637834</ele>
        <time>2026-07-07T07:06:50.000Z</time>
      </trkpt>
      <trkpt lat="48.20303" lon="16.3624">
        <ele>204.559441</ele>
        <time>2026-07-07T07:06:51.000Z</time>
      </trkpt>
      <trkpt lat="48.20307" lon="16.36246">
        <ele>204.479648</ele>
        <time>2026-07-07T07:06:52.000Z</time>
      </trkpt>
      <trkpt lat="48.2031" lon="16.36251">
        <ele>204.402309</ele>
        <time>2026-07-07T07:06:53.000Z</time>
      </trkpt>
      <trkpt lat="48.20313" lon="16.36257">
        <ele>204.326552</ele>
        <time>2026-07-07T07:06:54.000Z</time>
      </trkpt>
      <trkpt lat="48.20316" lon="16.36262">
        <ele>204.251854</ele>
        <time>2026-07-07T07:06:55.000Z</time>
      </trkpt>
      <trkpt lat="48.20319" lon="16.36267">
        <ele>204.176567</ele>
        <time>2026-07-07T07:06:56.000Z</time>
      </trkpt>
      <trkpt lat="48.20322" lon="16.36273">
        <ele>204.10128</ele>
        <time>2026-07-07T07:06:57.000Z</time>
      </trkpt>
      <trkpt lat="48.20325" lon="16.36278">
        <ele>204.030797</ele>
        <time>2026-07-07T07:06:58.000Z</time>
      </trkpt>
      <trkpt lat="48.20328" lon="16.36282">
        <ele>203.968738</ele>
        <time>2026-07-07T07:06:59.000Z</time>
      </trkpt>
      <trkpt lat="48.2033" lon="16.36287">
        <ele>203.908292</ele>
        <time>2026-07-07T07:07:00.000Z</time>
      </trkpt>
      <trkpt lat="48.20333" lon="16.36291">
        <ele>203.840444</ele>
        <time>2026-07-07T07:07:01.000Z</time>
      </trkpt>
      <trkpt lat="48.20336" lon="16.36296">
        <ele>203.768104</ele>
        <time>2026-07-07T07:07:02.000Z</time>
      </trkpt>
      <trkpt lat="48.20339" lon="16.36301">
        <ele>203.697088</ele>
        <time>2026-07-07T07:07:03.000Z</time>
      </trkpt>
      <trkpt lat="48.20342" lon="16.36307">
        <ele>203.623183</ele>
        <time>2026-07-07T07:07:04.000Z</time>
      </trkpt>
      <trkpt lat="48.20345" lon="16.36312">
        <ele>203.550327</ele>
        <time>2026-07-07T07:07:05.000Z</time>
      </trkpt>
      <trkpt lat="48.20348" lon="16.36317">
        <ele>203.480114</ele>
        <time>2026-07-07T07:07:06.000Z</time>
      </trkpt>
      <trkpt lat="48.20351" lon="16.36322">
        <ele>203.410407</ele>
        <time>2026-07-07T07:07:07.000Z</time>
      </trkpt>
      <trkpt lat="48.20354" lon="16.36326">
        <ele>203.342835</ele>
        <time>2026-07-07T07:07:08.000Z</time>
      </trkpt>
      <trkpt lat="48.20357" lon="16.36331">
        <ele>203.276057</ele>
        <time>2026-07-07T07:07:09.000Z</time>
      </trkpt>
      <trkpt lat="48.2036" lon="16.36335">
        <ele>203.213475</ele>
        <time>2026-07-07T07:07:10.000Z</time>
      </trkpt>
      <trkpt lat="48.20362" lon="16.36339">
        <ele>203.157513</ele>
        <time>2026-07-07T07:07:11.000Z</time>
      </trkpt>
      <trkpt lat="48.20364" lon="16.36343">
        <ele>203.116768</ele>
        <time>2026-07-07T07:07:12.000Z</time>
      </trkpt>
      <trkpt lat="48.20366" lon="16.36346">
        <ele>203.101739</ele>
        <time>2026-07-07T07:07:13.000Z</time>
      </trkpt>
      <trkpt lat="48.20368" lon="16.36349">
        <ele>203.089224</ele>
        <time>2026-07-07T07:07:14.000Z</time>
      </trkpt>
      <trkpt lat="48.20369" lon="16.36351">
        <ele>203.080487</ele>
        <time>2026-07-07T07:07:15.000Z</time>
      </trkpt>
      <trkpt lat="48.2037" lon="16.36352">
        <ele>203.076039</ele>
        <time>2026-07-07T07:07:16.000Z</time>
      </trkpt>
      <trkpt lat="48.20371" lon="16.36355">
        <ele>203.063025</ele>
        <time>2026-07-07T07:08:02.000Z</time>
      </trkpt>
      <trkpt lat="48.20373" lon="16.36357">
        <ele>203.053368</ele>
        <time>2026-07-07T07:08:03.000Z</time>
      </trkpt>
      <trkpt lat="48.20374" lon="16.36359">
        <ele>203.042034</ele>
        <time>2026-07-07T07:08:04.000Z</time>
      </trkpt>
      <trkpt lat="48.20376" lon="16.36362">
        <ele>203.03</ele>
        <time>2026-07-07T07:08:05.000Z</time>
      </trkpt>
      <trkpt lat="48.20377" lon="16.36364">
        <ele>203.019396</ele>
        <time>2026-07-07T07:08:06.000Z</time>
      </trkpt>
      <trkpt lat="48.20378" lon="16.36366">
        <ele>203.011167</ele>
        <time>2026-07-07T07:08:07.000Z</time>
      </trkpt>
      <trkpt lat="48.20379" lon="16.36368">
        <ele>203.003313</ele>
        <time>2026-07-07T07:08:08.000Z</time>
      </trkpt>
      <trkpt lat="48.2038" lon="16.36369">
        <ele>202.997985</ele>
        <time>2026-07-07T07:08:09.000Z</time>
      </trkpt>
      <trkpt lat="48.2038" lon="16.3637">
        <ele>202.996021</ele>
        <time>2026-07-07T07:08:10.000Z</time>
      </trkpt>
      <trkpt lat="48.2038" lon="16.36369">
        <ele>202.995347</ele>
        <time>2026-07-07T07:08:11.000Z</time>
      </trkpt>
      <trkpt lat="48.20382" lon="16.36372">
        <ele>202.98271</ele>
        <time>2026-07-07T07:08:20.000Z</time>
      </trkpt>
      <trkpt lat="48.20383" lon="16.36375">
        <ele>202.970195</ele>
        <time>2026-07-07T07:08:21.000Z</time>
      </trkpt>
      <trkpt lat="48.20385" lon="16.36378">
        <ele>202.955898</ele>
        <time>2026-07-07T07:08:22.000Z</time>
      </trkpt>
      <trkpt lat="48.20387" lon="16.36381">
        <ele>202.940869</ele>
        <time>2026-07-07T07:08:23.000Z</time>
      </trkpt>
      <trkpt lat="48.20389" lon="16.36385">
        <ele>202.925335</ele>
        <time>2026-07-07T07:08:24.000Z</time>
      </trkpt>
      <trkpt lat="48.20392" lon="16.36389">
        <ele>202.907583</ele>
        <time>2026-07-07T07:08:25.000Z</time>
      </trkpt>
      <trkpt lat="48.20394" lon="16.36392">
        <ele>202.88983</ele>
        <time>2026-07-07T07:08:26.000Z</time>
      </trkpt>
      <trkpt lat="48.20397" lon="16.36396">
        <ele>202.871839</ele>
        <time>2026-07-07T07:08:27.000Z</time>
      </trkpt>
      <trkpt lat="48.20399" lon="16.364">
        <ele>202.854172</ele>
        <time>2026-07-07T07:08:28.000Z</time>
      </trkpt>
      <trkpt lat="48.20399" lon="16.36406">
        <ele>202.83639</ele>
        <time>2026-07-07T07:08:29.000Z</time>
      </trkpt>
      <trkpt lat="48.20398" lon="16.3641">
        <ele>202.818933</ele>
        <time>2026-07-07T07:08:30.000Z</time>
      </trkpt>
      <trkpt lat="48.20395" lon="16.36415">
        <ele>202.798917</ele>
        <time>2026-07-07T07:08:31.000Z</time>
      </trkpt>
      <trkpt lat="48.20392" lon="16.36418">
        <ele>202.777683</ele>
        <time>2026-07-07T07:08:32.000Z</time>
      </trkpt>
      <trkpt lat="48.20389" lon="16.36422">
        <ele>202.757057</ele>
        <time>2026-07-07T07:08:33.000Z</time>
      </trkpt>
      <trkpt lat="48.20385" lon="16.36426">
        <ele>202.73518</ele>
        <time>2026-07-07T07:08:34.000Z</time>
      </trkpt>
      <trkpt lat="48.20382" lon="16.3643">
        <ele>202.714437</ele>
        <time>2026-07-07T07:08:35.000Z</time>
      </trkpt>
      <trkpt lat="48.20379" lon="16.36435">
        <ele>202.693462</ele>
        <time>2026-07-07T07:08:36.000Z</time>
      </trkpt>
      <trkpt lat="48.20376" lon="16.36438">
        <ele>202.672831</ele>
        <time>2026-07-07T07:08:37.000Z</time>
      </trkpt>
      <trkpt lat="48.20372" lon="16.36442">
        <ele>202.649075</ele>
        <time>2026-07-07T07:08:38.000Z</time>
      </trkpt>
      <trkpt lat="48.20368" lon="16.36446">
        <ele>202.625013</ele>
        <time>2026-07-07T07:08:39.000Z</time>
      </trkpt>
      <trkpt lat="48.20365" lon="16.36452">
        <ele>202.600541</ele>
        <time>2026-07-07T07:08:40.000Z</time>
      </trkpt>
      <trkpt lat="48.20363" lon="16.36458">
        <ele>202.575836</ele>
        <time>2026-07-07T07:08:41.000Z</time>
      </trkpt>
      <trkpt lat="48.20361" lon="16.36465">
        <ele>202.552021</ele>
        <time>2026-07-07T07:08:42.000Z</time>
      </trkpt>
      <trkpt lat="48.2036" lon="16.36472">
        <ele>202.528207</ele>
        <time>2026-07-07T07:08:43.000Z</time>
      </trkpt>
      <trkpt lat="48.20358" lon="16.36479">
        <ele>202.503736</ele>
        <time>2026-07-07T07:08:44.000Z</time>
      </trkpt>
      <trkpt lat="48.20356" lon="16.36486">
        <ele>202.477826</ele>
        <time>2026-07-07T07:08:45.000Z</time>
      </trkpt>
      <trkpt lat="48.20354" lon="16.36493">
        <ele>202.45142</ele>
        <time>2026-07-07T07:08:46.000Z</time>
      </trkpt>
      <trkpt lat="48.20353" lon="16.36501">
        <ele>202.424244</ele>
        <time>2026-07-07T07:08:47.000Z</time>
      </trkpt>
      <trkpt lat="48.20351" lon="16.36509">
        <ele>202.395952</ele>
        <time>2026-07-07T07:08:48.000Z</time>
      </trkpt>
      <trkpt lat="48.2035" lon="16.36517">
        <ele>202.367625</ele>
        <time>2026-07-07T07:08:49.000Z</time>
      </trkpt>
      <trkpt lat="48.20348" lon="16.36525">
        <ele>202.339333</ele>
        <time>2026-07-07T07:08:50.000Z</time>
      </trkpt>
      <trkpt lat="48.20346" lon="16.36533">
        <ele>202.31119</ele>
        <time>2026-07-07T07:08:51.000Z</time>
      </trkpt>
      <trkpt lat="48.20345" lon="16.36541">
        <ele>202.282898</ele>
        <time>2026-07-07T07:08:52.000Z</time>
      </trkpt>
      <trkpt lat="48.20343" lon="16.36549">
        <ele>202.254448</ele>
        <time>2026-07-07T07:08:53.000Z</time>
      </trkpt>
      <trkpt lat="48.20341" lon="16.36557">
        <ele>202.224559</ele>
        <time>2026-07-07T07:08:54.000Z</time>
      </trkpt>
      <trkpt lat="48.20339" lon="16.36565">
        <ele>202.148274</ele>
        <time>2026-07-07T07:08:55.000Z</time>
      </trkpt>
      <trkpt lat="48.20337" lon="16.36574">
        <ele>202.036095</ele>
        <time>2026-07-07T07:08:56.000Z</time>
      </trkpt>
      <trkpt lat="48.20336" lon="16.36582">
        <ele>201.928708</ele>
        <time>2026-07-07T07:08:57.000Z</time>
      </trkpt>
      <trkpt lat="48.20334" lon="16.36589">
        <ele>201.825968</ele>
        <time>2026-07-07T07:08:58.000Z</time>
      </trkpt>
      <trkpt lat="48.20331" lon="16.36596">
        <ele>201.724485</ele>
        <time>2026-07-07T07:08:59.000Z</time>
      </trkpt>
      <trkpt lat="48.20328" lon="16.36603">
        <ele>201.612443</ele>
        <time>2026-07-07T07:09:00.000Z</time>
      </trkpt>
      <trkpt lat="48.20326" lon="16.36611">
        <ele>201.500232</ele>
        <time>2026-07-07T07:09:01.000Z</time>
      </trkpt>
      <trkpt lat="48.20323" lon="16.36619">
        <ele>201.386059</ele>
        <time>2026-07-07T07:09:02.000Z</time>
      </trkpt>
      <trkpt lat="48.20321" lon="16.36627">
        <ele>201.275424</ele>
        <time>2026-07-07T07:09:03.000Z</time>
      </trkpt>
      <trkpt lat="48.20319" lon="16.36635">
        <ele>201.161654</ele>
        <time>2026-07-07T07:09:04.000Z</time>
      </trkpt>
      <trkpt lat="48.20317" lon="16.36643">
        <ele>201.048823</ele>
        <time>2026-07-07T07:09:05.000Z</time>
      </trkpt>
      <trkpt lat="48.20315" lon="16.36652">
        <ele>200.929904</ele>
        <time>2026-07-07T07:09:06.000Z</time>
      </trkpt>
      <trkpt lat="48.20313" lon="16.3666">
        <ele>200.813425</ele>
        <time>2026-07-07T07:09:07.000Z</time>
      </trkpt>
      <trkpt lat="48.20311" lon="16.36669">
        <ele>200.701224</ele>
        <time>2026-07-07T07:09:08.000Z</time>
      </trkpt>
      <trkpt lat="48.20309" lon="16.36677">
        <ele>200.586505</ele>
        <time>2026-07-07T07:09:09.000Z</time>
      </trkpt>
      <trkpt lat="48.20307" lon="16.36685">
        <ele>200.476763</ele>
        <time>2026-07-07T07:09:10.000Z</time>
      </trkpt>
      <trkpt lat="48.20305" lon="16.36693">
        <ele>200.363932</ele>
        <time>2026-07-07T07:09:11.000Z</time>
      </trkpt>
      <trkpt lat="48.20304" lon="16.36701">
        <ele>200.255017</ele>
        <time>2026-07-07T07:09:12.000Z</time>
      </trkpt>
      <trkpt lat="48.20302" lon="16.36709">
        <ele>200.148356</ele>
        <time>2026-07-07T07:09:13.000Z</time>
      </trkpt>
      <trkpt lat="48.203" lon="16.36717">
        <ele>200.036176</ele>
        <time>2026-07-07T07:09:14.000Z</time>
      </trkpt>
      <trkpt lat="48.20298" lon="16.36725">
        <ele>199.928247</ele>
        <time>2026-07-07T07:09:15.000Z</time>
      </trkpt>
      <trkpt lat="48.20296" lon="16.36733">
        <ele>199.820936</ele>
        <time>2026-07-07T07:09:16.000Z</time>
      </trkpt>
      <trkpt lat="48.20295" lon="16.36741">
        <ele>199.71548</ele>
        <time>2026-07-07T07:09:17.000Z</time>
      </trkpt>
      <trkpt lat="48.20293" lon="16.36749">
        <ele>199.6033</ele>
        <time>2026-07-07T07:09:18.000Z</time>
      </trkpt>
      <trkpt lat="48.20291" lon="16.36757">
        <ele>199.498398</ele>
        <time>2026-07-07T07:09:19.000Z</time>
      </trkpt>
      <trkpt lat="48.20291" lon="16.36766">
        <ele>199.383393</ele>
        <time>2026-07-07T07:09:20.000Z</time>
      </trkpt>
      <trkpt lat="48.20292" lon="16.36773">
        <ele>199.294991</ele>
        <time>2026-07-07T07:09:21.000Z</time>
      </trkpt>
      <trkpt lat="48.20291" lon="16.36779">
        <ele>199.210197</ele>
        <time>2026-07-07T07:09:22.000Z</time>
      </trkpt>
      <trkpt lat="48.20292" lon="16.36785">
        <ele>199.128582</ele>
        <time>2026-07-07T07:09:23.000Z</time>
      </trkpt>
      <trkpt lat="48.20292" lon="16.36792">
        <ele>199.038129</ele>
        <time>2026-07-07T07:09:24.000Z</time>
      </trkpt>
      <trkpt lat="48.2029" lon="16.36799">
        <ele>198.948481</ele>
        <time>2026-07-07T07:09:25.000Z</time>
      </trkpt>
      <trkpt lat="48.20289" lon="16.36806">
        <ele>198.854582</ele>
        <time>2026-07-07T07:09:26.000Z</time>
      </trkpt>
      <trkpt lat="48.20288" lon="16.36813">
        <ele>198.7646</ele>
        <time>2026-07-07T07:09:27.000Z</time>
      </trkpt>
      <trkpt lat="48.20287" lon="16.3682">
        <ele>198.704737</ele>
        <time>2026-07-07T07:09:28.000Z</time>
      </trkpt>
      <trkpt lat="48.20285" lon="16.36826">
        <ele>198.669306</ele>
        <time>2026-07-07T07:09:29.000Z</time>
      </trkpt>
      <trkpt lat="48.20284" lon="16.36832">
        <ele>198.6338</ele>
        <time>2026-07-07T07:09:30.000Z</time>
      </trkpt>
      <trkpt lat="48.20281" lon="16.36838">
        <ele>198.597142</ele>
        <time>2026-07-07T07:09:31.000Z</time>
      </trkpt>
      <trkpt lat="48.20278" lon="16.36844">
        <ele>198.56</ele>
        <time>2026-07-07T07:09:32.000Z</time>
      </trkpt>
      <trkpt lat="48.20275" lon="16.36848">
        <ele>198.523478</ele>
        <time>2026-07-07T07:09:33.000Z</time>
      </trkpt>
      <trkpt lat="48.20272" lon="16.36854">
        <ele>198.485209</ele>
        <time>2026-07-07T07:09:34.000Z</time>
      </trkpt>
      <trkpt lat="48.20269" lon="16.3686">
        <ele>198.445982</ele>
        <time>2026-07-07T07:09:35.000Z</time>
      </trkpt>
      <trkpt lat="48.20267" lon="16.36867">
        <ele>198.405646</ele>
        <time>2026-07-07T07:09:36.000Z</time>
      </trkpt>
      <trkpt lat="48.20266" lon="16.36874">
        <ele>198.368213</ele>
        <time>2026-07-07T07:09:37.000Z</time>
      </trkpt>
      <trkpt lat="48.20264" lon="16.3688">
        <ele>198.33379</ele>
        <time>2026-07-07T07:09:38.000Z</time>
      </trkpt>
      <trkpt lat="48.20263" lon="16.36886">
        <ele>198.300105</ele>
        <time>2026-07-07T07:09:39.000Z</time>
      </trkpt>
      <trkpt lat="48.20262" lon="16.36892">
        <ele>198.265173</ele>
        <time>2026-07-07T07:09:40.000Z</time>
      </trkpt>
      <trkpt lat="48.2026" lon="16.36898">
        <ele>198.230244</ele>
        <time>2026-07-07T07:09:41.000Z</time>
      </trkpt>
      <trkpt lat="48.20259" lon="16.36905">
        <ele>198.193057</ele>
        <time>2026-07-07T07:09:42.000Z</time>
      </trkpt>
      <trkpt lat="48.20257" lon="16.36911">
        <ele>198.158124</ele>
        <time>2026-07-07T07:09:43.000Z</time>
      </trkpt>
      <trkpt lat="48.20256" lon="16.36918">
        <ele>198.122693</ele>
        <time>2026-07-07T07:09:44.000Z</time>
      </trkpt>
      <trkpt lat="48.20255" lon="16.36924">
        <ele>198.089279</ele>
        <time>2026-07-07T07:09:45.000Z</time>
      </trkpt>
      <trkpt lat="48.20253" lon="16.36929">
        <ele>198.058373</ele>
        <time>2026-07-07T07:09:46.000Z</time>
      </trkpt>
      <trkpt lat="48.20252" lon="16.36934">
        <ele>198.03349</ele>
        <time>2026-07-07T07:09:47.000Z</time>
      </trkpt>
      <trkpt lat="48.20252" lon="16.36938">
        <ele>198.011372</ele>
        <time>2026-07-07T07:09:48.000Z</time>
      </trkpt>
      <trkpt lat="48.20251" lon="16.36941">
        <ele>197.994257</ele>
        <time>2026-07-07T07:09:49.000Z</time>
      </trkpt>
      <trkpt lat="48.20251" lon="16.36942">
        <ele>197.985783</ele>
        <time>2026-07-07T07:09:50.000Z</time>
      </trkpt>
      <trkpt lat="48.20252" lon="16.36943">
        <ele>197.982594</ele>
        <time>2026-07-07T07:09:51.000Z</time>
      </trkpt>
      <trkpt lat="48.2025" lon="16.36946">
        <ele>197.961749</ele>
        <time>2026-07-07T07:10:35.000Z</time>
      </trkpt>
      <trkpt lat="48.2025" lon="16.36949">
        <ele>197.946729</ele>
        <time>2026-07-07T07:10:36.000Z</time>
      </trkpt>
      <trkpt lat="48.2025" lon="16.36953">
        <ele>197.927771</ele>
        <time>2026-07-07T07:10:37.000Z</time>
      </trkpt>
      <trkpt lat="48.20249" lon="16.36957">
        <ele>197.904328</ele>
        <time>2026-07-07T07:10:38.000Z</time>
      </trkpt>
      <trkpt lat="48.20248" lon="16.36962">
        <ele>197.878075</ele>
        <time>2026-07-07T07:10:39.000Z</time>
      </trkpt>
      <trkpt lat="48.20248" lon="16.36967">
        <ele>197.851168</ele>
        <time>2026-07-07T07:10:40.000Z</time>
      </trkpt>
      <trkpt lat="48.20247" lon="16.36972">
        <ele>197.823867</ele>
        <time>2026-07-07T07:10:41.000Z</time>
      </trkpt>
      <trkpt lat="48.20247" lon="16.36977">
        <ele>197.795223</ele>
        <time>2026-07-07T07:10:42.000Z</time>
      </trkpt>
      <trkpt lat="48.20247" lon="16.36982">
        <ele>197.768635</ele>
        <time>2026-07-07T07:10:43.000Z</time>
      </trkpt>
      <trkpt lat="48.20246" lon="16.36987">
        <ele>197.741438</ele>
        <time>2026-07-07T07:10:44.000Z</time>
      </trkpt>
      <trkpt lat="48.20246" lon="16.36993">
        <ele>197.713613</ele>
        <time>2026-07-07T07:10:45.000Z</time>
      </trkpt>
      <trkpt lat="48.20245" lon="16.36998">
        <ele>197.685663</ele>
        <time>2026-07-07T07:10:46.000Z</time>
      </trkpt>
      <trkpt lat="48.20244" lon="16.37003">
        <ele>197.657508</ele>
        <time>2026-07-07T07:10:47.000Z</time>
      </trkpt>
      <trkpt lat="48.20243" lon="16.37008">
        <ele>197.627825</ele>
        <time>2026-07-07T07:10:48.000Z</time>
      </trkpt>
      <trkpt lat="48.20242" lon="16.37014">
        <ele>197.595661</ele>
        <time>2026-07-07T07:10:49.000Z</time>
      </trkpt>
      <trkpt lat="48.20241" lon="16.3702">
        <ele>197.563497</ele>
        <time>2026-07-07T07:10:50.000Z</time>
      </trkpt>
      <trkpt lat="48.20239" lon="16.37026">
        <ele>197.529131</ele>
        <time>2026-07-07T07:10:51.000Z</time>
      </trkpt>
      <trkpt lat="48.20237" lon="16.37032">
        <ele>197.494602</ele>
        <time>2026-07-07T07:10:52.000Z</time>
      </trkpt>
      <trkpt lat="48.20236" lon="16.37038">
        <ele>197.461357</ele>
        <time>2026-07-07T07:10:53.000Z</time>
      </trkpt>
      <trkpt lat="48.20234" lon="16.37043">
        <ele>197.429248</ele>
        <time>2026-07-07T07:10:54.000Z</time>
      </trkpt>
      <trkpt lat="48.20231" lon="16.37047">
        <ele>197.398389</ele>
        <time>2026-07-07T07:10:55.000Z</time>
      </trkpt>
      <trkpt lat="48.20229" lon="16.37051">
        <ele>197.367933</ele>
        <time>2026-07-07T07:10:56.000Z</time>
      </trkpt>
      <trkpt lat="48.20227" lon="16.37056">
        <ele>197.341908</ele>
        <time>2026-07-07T07:10:57.000Z</time>
      </trkpt>
      <trkpt lat="48.20226" lon="16.3706">
        <ele>197.317382</ele>
        <time>2026-07-07T07:10:58.000Z</time>
      </trkpt>
      <trkpt lat="48.20225" lon="16.37064">
        <ele>197.293852</ele>
        <time>2026-07-07T07:10:59.000Z</time>
      </trkpt>
      <trkpt lat="48.20224" lon="16.37068">
        <ele>197.266815</ele>
        <time>2026-07-07T07:11:00.000Z</time>
      </trkpt>
      <trkpt lat="48.20222" lon="16.37076">
        <ele>197.215205</ele>
        <time>2026-07-07T07:11:02.000Z</time>
      </trkpt>
      <trkpt lat="48.2022" lon="16.37083">
        <ele>197.165914</ele>
        <time>2026-07-07T07:11:04.000Z</time>
      </trkpt>
      <trkpt lat="48.20219" lon="16.37087">
        <ele>197.141293</ele>
        <time>2026-07-07T07:11:05.000Z</time>
      </trkpt>
      <trkpt lat="48.20216" lon="16.37096">
        <ele>197.07858</ele>
        <time>2026-07-07T07:11:06.000Z</time>
      </trkpt>
      <trkpt lat="48.20215" lon="16.37102">
        <ele>197.03901</ele>
        <time>2026-07-07T07:11:08.000Z</time>
      </trkpt>
      <trkpt lat="48.20212" lon="16.37114">
        <ele>196.955165</ele>
        <time>2026-07-07T07:11:09.000Z</time>
      </trkpt>
      <trkpt lat="48.20211" lon="16.37121">
        <ele>196.909784</ele>
        <time>2026-07-07T07:11:10.000Z</time>
      </trkpt>
      <trkpt lat="48.20209" lon="16.37128">
        <ele>196.864645</ele>
        <time>2026-07-07T07:11:11.000Z</time>
      </trkpt>
      <trkpt lat="48.20208" lon="16.37135">
        <ele>196.820198</ele>
        <time>2026-07-07T07:11:12.000Z</time>
      </trkpt>
      <trkpt lat="48.20206" lon="16.37142">
        <ele>196.776592</ele>
        <time>2026-07-07T07:11:13.000Z</time>
      </trkpt>
      <trkpt lat="48.20205" lon="16.37148">
        <ele>196.731859</ele>
        <time>2026-07-07T07:11:14.000Z</time>
      </trkpt>
      <trkpt lat="48.20203" lon="16.37155">
        <ele>196.685918</ele>
        <time>2026-07-07T07:11:15.000Z</time>
      </trkpt>
      <trkpt lat="48.20201" lon="16.37162">
        <ele>196.64064</ele>
        <time>2026-07-07T07:11:16.000Z</time>
      </trkpt>
      <trkpt lat="48.20199" lon="16.37168">
        <ele>196.596496</ele>
        <time>2026-07-07T07:11:17.000Z</time>
      </trkpt>
      <trkpt lat="48.20197" lon="16.37174">
        <ele>196.557295</ele>
        <time>2026-07-07T07:11:18.000Z</time>
      </trkpt>
      <trkpt lat="48.20196" lon="16.3718">
        <ele>196.515515</ele>
        <time>2026-07-07T07:11:19.000Z</time>
      </trkpt>
      <trkpt lat="48.20194" lon="16.37187">
        <ele>196.471908</ele>
        <time>2026-07-07T07:11:20.000Z</time>
      </trkpt>
      <trkpt lat="48.20193" lon="16.37194">
        <ele>196.425989</ele>
        <time>2026-07-07T07:11:21.000Z</time>
      </trkpt>
      <trkpt lat="48.20191" lon="16.37201">
        <ele>196.379403</ele>
        <time>2026-07-07T07:11:22.000Z</time>
      </trkpt>
      <trkpt lat="48.2019" lon="16.37208">
        <ele>196.333053</ele>
        <time>2026-07-07T07:11:23.000Z</time>
      </trkpt>
      <trkpt lat="48.20189" lon="16.37215">
        <ele>196.287672</ele>
        <time>2026-07-07T07:11:24.000Z</time>
      </trkpt>
      <trkpt lat="48.20187" lon="16.37222">
        <ele>196.24203</ele>
        <time>2026-07-07T07:11:25.000Z</time>
      </trkpt>
      <trkpt lat="48.20186" lon="16.37229">
        <ele>196.197495</ele>
        <time>2026-07-07T07:11:26.000Z</time>
      </trkpt>
      <trkpt lat="48.20184" lon="16.37236">
        <ele>196.15217</ele>
        <time>2026-07-07T07:11:27.000Z</time>
      </trkpt>
      <trkpt lat="48.20182" lon="16.37243">
        <ele>196.106476</ele>
        <time>2026-07-07T07:11:28.000Z</time>
      </trkpt>
      <trkpt lat="48.2018" lon="16.37249">
        <ele>196.061766</ele>
        <time>2026-07-07T07:11:29.000Z</time>
      </trkpt>
      <trkpt lat="48.20179" lon="16.37256">
        <ele>196.017033</ele>
        <time>2026-07-07T07:11:30.000Z</time>
      </trkpt>
      <trkpt lat="48.20177" lon="16.37263">
        <ele>195.969923</ele>
        <time>2026-07-07T07:11:31.000Z</time>
      </trkpt>
      <trkpt lat="48.20176" lon="16.3727">
        <ele>195.922216</ele>
        <time>2026-07-07T07:11:32.000Z</time>
      </trkpt>
      <trkpt lat="48.20174" lon="16.37278">
        <ele>195.873314</ele>
        <time>2026-07-07T07:11:33.000Z</time>
      </trkpt>
      <trkpt lat="48.20173" lon="16.37285">
        <ele>195.827372</ele>
        <time>2026-07-07T07:11:34.000Z</time>
      </trkpt>
      <trkpt lat="48.20171" lon="16.37291">
        <ele>195.782837</ele>
        <time>2026-07-07T07:11:35.000Z</time>
      </trkpt>
      <trkpt lat="48.20169" lon="16.37298">
        <ele>195.737511</ele>
        <time>2026-07-07T07:11:36.000Z</time>
      </trkpt>
      <trkpt lat="48.20167" lon="16.37305">
        <ele>195.693186</ele>
        <time>2026-07-07T07:11:37.000Z</time>
      </trkpt>
      <trkpt lat="48.20166" lon="16.37311">
        <ele>195.649912</ele>
        <time>2026-07-07T07:11:38.000Z</time>
      </trkpt>
      <trkpt lat="48.20164" lon="16.37318">
        <ele>195.608461</ele>
        <time>2026-07-07T07:11:39.000Z</time>
      </trkpt>
      <trkpt lat="48.20162" lon="16.37324">
        <ele>195.585883</ele>
        <time>2026-07-07T07:11:40.000Z</time>
      </trkpt>
      <trkpt lat="48.20161" lon="16.3733">
        <ele>195.561935</ele>
        <time>2026-07-07T07:11:41.000Z</time>
      </trkpt>
      <trkpt lat="48.20159" lon="16.37336">
        <ele>195.538108</ele>
        <time>2026-07-07T07:11:42.000Z</time>
      </trkpt>
      <trkpt lat="48.20157" lon="16.37342">
        <ele>195.516374</ele>
        <time>2026-07-07T07:11:43.000Z</time>
      </trkpt>
      <trkpt lat="48.20157" lon="16.37348">
        <ele>195.495069</ele>
        <time>2026-07-07T07:11:44.000Z</time>
      </trkpt>
      <trkpt lat="48.20156" lon="16.37354">
        <ele>195.473064</ele>
        <time>2026-07-07T07:11:45.000Z</time>
      </trkpt>
      <trkpt lat="48.20157" lon="16.3736">
        <ele>195.453506</ele>
        <time>2026-07-07T07:11:46.000Z</time>
      </trkpt>
      <trkpt lat="48.20158" lon="16.37365">
        <ele>195.431914</ele>
        <time>2026-07-07T07:11:47.000Z</time>
      </trkpt>
      <trkpt lat="48.2016" lon="16.3737">
        <ele>195.414187</ele>
        <time>2026-07-07T07:11:48.000Z</time>
      </trkpt>
      <trkpt lat="48.20161" lon="16.37374">
        <ele>195.398015</ele>
        <time>2026-07-07T07:11:49.000Z</time>
      </trkpt>
      <trkpt lat="48.20162" lon="16.37378">
        <ele>195.381969</ele>
        <time>2026-07-07T07:11:50.000Z</time>
      </trkpt>
      <trkpt lat="48.20164" lon="16.37382">
        <ele>195.365254</ele>
        <time>2026-07-07T07:11:51.000Z</time>
      </trkpt>
      <trkpt lat="48.20165" lon="16.37386">
        <ele>195.349574</ele>
        <time>2026-07-07T07:11:52.000Z</time>
      </trkpt>
      <trkpt lat="48.20167" lon="16.3739">
        <ele>195.333029</ele>
        <time>2026-07-07T07:11:53.000Z</time>
      </trkpt>
      <trkpt lat="48.20168" lon="16.37394">
        <ele>195.318603</ele>
        <time>2026-07-07T07:11:54.000Z</time>
      </trkpt>
      <trkpt lat="48.20169" lon="16.37397">
        <ele>195.305509</ele>
        <time>2026-07-07T07:11:55.000Z</time>
      </trkpt>
      <trkpt lat="48.2017" lon="16.374">
        <ele>195.294309</ele>
        <time>2026-07-07T07:11:56.000Z</time>
      </trkpt>
      <trkpt lat="48.2017" lon="16.37402">
        <ele>195.286891</ele>
        <time>2026-07-07T07:11:57.000Z</time>
      </trkpt>
      <trkpt lat="48.2017" lon="16.37404">
        <ele>195.279766</ele>
        <time>2026-07-07T07:11:58.000Z</time>
      </trkpt>
      <trkpt lat="48.2017" lon="16.37406">
        <ele>195.274721</ele>
        <time>2026-07-07T07:11:59.000Z</time>
      </trkpt>
      <trkpt lat="48.2017" lon="16.37406">
        <ele>195.272959</ele>
        <time>2026-07-07T07:12:00.000Z</time>
      </trkpt>
      <trkpt lat="48.20172" lon="16.3741">
        <ele>195.257399</ele>
        <time>2026-07-07T07:12:10.000Z</time>
      </trkpt>
      <trkpt lat="48.20172" lon="16.37411">
        <ele>195.25211</ele>
        <time>2026-07-07T07:12:11.000Z</time>
      </trkpt>
      <trkpt lat="48.20173" lon="16.37413">
        <ele>195.246929</ele>
        <time>2026-07-07T07:12:12.000Z</time>
      </trkpt>
      <trkpt lat="48.20173" lon="16.37414">
        <ele>195.240477</ele>
        <time>2026-07-07T07:12:13.000Z</time>
      </trkpt>
      <trkpt lat="48.20174" lon="16.37416">
        <ele>195.234251</ele>
        <time>2026-07-07T07:12:14.000Z</time>
      </trkpt>
      <trkpt lat="48.20174" lon="16.37418">
        <ele>195.227473</ele>
        <time>2026-07-07T07:12:15.000Z</time>
      </trkpt>
      <trkpt lat="48.20175" lon="16.3742">
        <ele>195.219947</ele>
        <time>2026-07-07T07:12:16.000Z</time>
      </trkpt>
      <trkpt lat="48.20175" lon="16.37422">
        <ele>195.212421</ele>
        <time>2026-07-07T07:12:17.000Z</time>
      </trkpt>
      <trkpt lat="48.20176" lon="16.37424">
        <ele>195.203831</ele>
        <time>2026-07-07T07:12:18.000Z</time>
      </trkpt>
      <trkpt lat="48.20177" lon="16.37426">
        <ele>195.193558</ele>
        <time>2026-07-07T07:12:19.000Z</time>
      </trkpt>
      <trkpt lat="48.20178" lon="16.3743">
        <ele>195.180313</ele>
        <time>2026-07-07T07:12:20.000Z</time>
      </trkpt>
      <trkpt lat="48.20179" lon="16.37434">
        <ele>195.165067</ele>
        <time>2026-07-07T07:12:21.000Z</time>
      </trkpt>
      <trkpt lat="48.2018" lon="16.37438">
        <ele>195.148354</ele>
        <time>2026-07-07T07:12:22.000Z</time>
      </trkpt>
      <trkpt lat="48.20181" lon="16.37443">
        <ele>195.130635</ele>
        <time>2026-07-07T07:12:23.000Z</time>
      </trkpt>
      <trkpt lat="48.20183" lon="16.37448">
        <ele>195.111851</ele>
        <time>2026-07-07T07:12:24.000Z</time>
      </trkpt>
      <trkpt lat="48.20184" lon="16.37452">
        <ele>195.094571</ele>
        <time>2026-07-07T07:12:25.000Z</time>
      </trkpt>
      <trkpt lat="48.20185" lon="16.37457">
        <ele>195.077494</ele>
        <time>2026-07-07T07:12:26.000Z</time>
      </trkpt>
      <trkpt lat="48.20186" lon="16.37462">
        <ele>195.058942</ele>
        <time>2026-07-07T07:12:27.000Z</time>
      </trkpt>
      <trkpt lat="48.20188" lon="16.37467">
        <ele>195.040218</ele>
        <time>2026-07-07T07:12:28.000Z</time>
      </trkpt>
      <trkpt lat="48.20189" lon="16.37472">
        <ele>195.01993</ele>
        <time>2026-07-07T07:12:29.000Z</time>
      </trkpt>
      <trkpt lat="48.20191" lon="16.37477">
        <ele>194.999523</ele>
        <time>2026-07-07T07:12:30.000Z</time>
      </trkpt>
      <trkpt lat="48.20193" lon="16.37482">
        <ele>194.979578</ele>
        <time>2026-07-07T07:12:31.000Z</time>
      </trkpt>
      <trkpt lat="48.20194" lon="16.37487">
        <ele>194.959291</ele>
        <time>2026-07-07T07:12:32.000Z</time>
      </trkpt>
      <trkpt lat="48.20196" lon="16.37493">
        <ele>194.939061</ele>
        <time>2026-07-07T07:12:33.000Z</time>
      </trkpt>
      <trkpt lat="48.20198" lon="16.37497">
        <ele>194.918957</ele>
        <time>2026-07-07T07:12:34.000Z</time>
      </trkpt>
      <trkpt lat="48.20201" lon="16.37501">
        <ele>194.89774</ele>
        <time>2026-07-07T07:12:35.000Z</time>
      </trkpt>
      <trkpt lat="48.20204" lon="16.37505">
        <ele>194.875963</ele>
        <time>2026-07-07T07:12:36.000Z</time>
      </trkpt>
      <trkpt lat="48.20208" lon="16.37508">
        <ele>194.85353</ele>
        <time>2026-07-07T07:12:37.000Z</time>
      </trkpt>
      <trkpt lat="48.20212" lon="16.37512">
        <ele>194.830408</ele>
        <time>2026-07-07T07:12:38.000Z</time>
      </trkpt>
      <trkpt lat="48.20215" lon="16.37516">
        <ele>194.807774</ele>
        <time>2026-07-07T07:12:39.000Z</time>
      </trkpt>
      <trkpt lat="48.20219" lon="16.37519">
        <ele>194.785141</ele>
        <time>2026-07-07T07:12:40.000Z</time>
      </trkpt>
      <trkpt lat="48.20222" lon="16.37523">
        <ele>194.763778</ele>
        <time>2026-07-07T07:12:41.000Z</time>
      </trkpt>
      <trkpt lat="48.20225" lon="16.37526">
        <ele>194.74198</ele>
        <time>2026-07-07T07:12:42.000Z</time>
      </trkpt>
      <trkpt lat="48.20229" lon="16.3753">
        <ele>194.720617</ele>
        <time>2026-07-07T07:12:43.000Z</time>
      </trkpt>
      <trkpt lat="48.20232" lon="16.37533">
        <ele>194.699653</ele>
        <time>2026-07-07T07:12:44.000Z</time>
      </trkpt>
      <trkpt lat="48.20236" lon="16.37537">
        <ele>194.676147</ele>
        <time>2026-07-07T07:12:45.000Z</time>
      </trkpt>
      <trkpt lat="48.20239" lon="16.3754">
        <ele>194.653132</ele>
        <time>2026-07-07T07:12:46.000Z</time>
      </trkpt>
      <trkpt lat="48.20243" lon="16.37544">
        <ele>194.628526</ele>
        <time>2026-07-07T07:12:47.000Z</time>
      </trkpt>
      <trkpt lat="48.20246" lon="16.37548">
        <ele>194.602901</ele>
        <time>2026-07-07T07:12:48.000Z</time>
      </trkpt>
      <trkpt lat="48.2025" lon="16.37551">
        <ele>194.578728</ele>
        <time>2026-07-07T07:12:49.000Z</time>
      </trkpt>
      <trkpt lat="48.20254" lon="16.37555">
        <ele>194.552611</ele>
        <time>2026-07-07T07:12:50.000Z</time>
      </trkpt>
      <trkpt lat="48.20257" lon="16.37558">
        <ele>194.528005</ele>
        <time>2026-07-07T07:12:51.000Z</time>
      </trkpt>
      <trkpt lat="48.20261" lon="16.37562">
        <ele>194.50478</ele>
        <time>2026-07-07T07:12:52.000Z</time>
      </trkpt>
      <trkpt lat="48.20264" lon="16.37565">
        <ele>194.479436</ele>
        <time>2026-07-07T07:12:53.000Z</time>
      </trkpt>
      <trkpt lat="48.20268" lon="16.37569">
        <ele>194.455263</ele>
        <time>2026-07-07T07:12:54.000Z</time>
      </trkpt>
      <trkpt lat="48.20271" lon="16.37573">
        <ele>194.430185</ele>
        <time>2026-07-07T07:12:55.000Z</time>
      </trkpt>
      <trkpt lat="48.20275" lon="16.37576">
        <ele>194.404631</ele>
        <time>2026-07-07T07:12:56.000Z</time>
      </trkpt>
      <trkpt lat="48.20279" lon="16.3758">
        <ele>194.379494</ele>
        <time>2026-07-07T07:12:57.000Z</time>
      </trkpt>
      <trkpt lat="48.20282" lon="16.37583">
        <ele>194.35463</ele>
        <time>2026-07-07T07:12:58.000Z</time>
      </trkpt>
      <trkpt lat="48.20286" lon="16.37587">
        <ele>194.328644</ele>
        <time>2026-07-07T07:12:59.000Z</time>
      </trkpt>
      <trkpt lat="48.2029" lon="16.37591">
        <ele>194.3033</ele>
        <time>2026-07-07T07:13:00.000Z</time>
      </trkpt>
      <trkpt lat="48.20293" lon="16.37595">
        <ele>194.279158</ele>
        <time>2026-07-07T07:13:01.000Z</time>
      </trkpt>
      <trkpt lat="48.20296" lon="16.37599">
        <ele>194.255251</ele>
        <time>2026-07-07T07:13:02.000Z</time>
      </trkpt>
      <trkpt lat="48.203" lon="16.37602">
        <ele>194.229483</ele>
        <time>2026-07-07T07:13:03.000Z</time>
      </trkpt>
      <trkpt lat="48.20303" lon="16.37606">
        <ele>194.206477</ele>
        <time>2026-07-07T07:13:04.000Z</time>
      </trkpt>
      <trkpt lat="48.20307" lon="16.37609">
        <ele>194.183718</ele>
        <time>2026-07-07T07:13:05.000Z</time>
      </trkpt>
      <trkpt lat="48.2031" lon="16.37613">
        <ele>194.161878</ele>
        <time>2026-07-07T07:13:06.000Z</time>
      </trkpt>
      <trkpt lat="48.20312" lon="16.37616">
        <ele>194.142339</ele>
        <time>2026-07-07T07:13:07.000Z</time>
      </trkpt>
      <trkpt lat="48.20315" lon="16.37619">
        <ele>194.12349</ele>
        <time>2026-07-07T07:13:08.000Z</time>
      </trkpt>
      <trkpt lat="48.20318" lon="16.37622">
        <ele>194.103246</ele>
        <time>2026-07-07T07:13:09.000Z</time>
      </trkpt>
      <trkpt lat="48.2032" lon="16.37625">
        <ele>194.084627</ele>
        <time>2026-07-07T07:13:10.000Z</time>
      </trkpt>
      <trkpt lat="48.20323" lon="16.37628">
        <ele>194.066698</ele>
        <time>2026-07-07T07:13:11.000Z</time>
      </trkpt>
      <trkpt lat="48.20325" lon="16.3763">
        <ele>194.050332</ele>
        <time>2026-07-07T07:13:12.000Z</time>
      </trkpt>
      <trkpt lat="48.20327" lon="16.37632">
        <ele>194.035612</ele>
        <time>2026-07-07T07:13:13.000Z</time>
      </trkpt>
      <trkpt lat="48.20329" lon="16.37634">
        <ele>194.022698</ele>
        <time>2026-07-07T07:13:14.000Z</time>
      </trkpt>
      <trkpt lat="48.20331" lon="16.37636">
        <ele>194.012788</ele>
        <time>2026-07-07T07:13:15.000Z</time>
      </trkpt>
      <trkpt lat="48.20332" lon="16.37637">
        <ele>194.003303</ele>
        <time>2026-07-07T07:13:16.000Z</time>
      </trkpt>
      <trkpt lat="48.20332" lon="16.37638">
        <ele>193.999102</ele>
        <time>2026-07-07T07:13:17.000Z</time>
      </trkpt>
      <trkpt lat="48.20332" lon="16.37638">
        <ele>193.998145</ele>
        <time>2026-07-07T07:13:18.000Z</time>
      </trkpt>
      <trkpt lat="48.20333" lon="16.37643">
        <ele>193.978475</ele>
        <time>2026-07-07T07:13:56.000Z</time>
      </trkpt>
      <trkpt lat="48.20333" lon="16.37645">
        <ele>193.972477</ele>
        <time>2026-07-07T07:13:57.000Z</time>
      </trkpt>
      <trkpt lat="48.20333" lon="16.37646">
        <ele>193.966393</ele>
        <time>2026-07-07T07:13:58.000Z</time>
      </trkpt>
      <trkpt lat="48.20332" lon="16.37649">
        <ele>193.955424</ele>
        <time>2026-07-07T07:13:59.000Z</time>
      </trkpt>
      <trkpt lat="48.20331" lon="16.37651">
        <ele>193.946086</ele>
        <time>2026-07-07T07:14:00.000Z</time>
      </trkpt>
      <trkpt lat="48.20331" lon="16.37653">
        <ele>193.939662</ele>
        <time>2026-07-07T07:14:01.000Z</time>
      </trkpt>
      <trkpt lat="48.2033" lon="16.37654">
        <ele>193.932303</ele>
        <time>2026-07-07T07:14:02.000Z</time>
      </trkpt>
      <trkpt lat="48.20329" lon="16.37656">
        <ele>193.92529</ele>
        <time>2026-07-07T07:14:03.000Z</time>
      </trkpt>
      <trkpt lat="48.20328" lon="16.37657">
        <ele>193.916314</ele>
        <time>2026-07-07T07:14:04.000Z</time>
      </trkpt>
      <trkpt lat="48.20327" lon="16.37659">
        <ele>193.908187</ele>
        <time>2026-07-07T07:14:05.000Z</time>
      </trkpt>
      <trkpt lat="48.20326" lon="16.3766">
        <ele>193.898035</ele>
        <time>2026-07-07T07:14:06.000Z</time>
      </trkpt>
      <trkpt lat="48.20325" lon="16.37661">
        <ele>193.890909</ele>
        <time>2026-07-07T07:14:07.000Z</time>
      </trkpt>
      <trkpt lat="48.20324" lon="16.37662">
        <ele>193.884207</ele>
        <time>2026-07-07T07:14:08.000Z</time>
      </trkpt>
      <trkpt lat="48.20323" lon="16.37663">
        <ele>193.878653</ele>
        <time>2026-07-07T07:14:09.000Z</time>
      </trkpt>
      <trkpt lat="48.20323" lon="16.37665">
        <ele>193.872654</ele>
        <time>2026-07-07T07:14:10.000Z</time>
      </trkpt>
      <trkpt lat="48.20322" lon="16.37666">
        <ele>193.866419</ele>
        <time>2026-07-07T07:14:11.000Z</time>
      </trkpt>
      <trkpt lat="48.20322" lon="16.37667">
        <ele>193.863737</ele>
        <time>2026-07-07T07:14:12.000Z</time>
      </trkpt>
      <trkpt lat="48.20322" lon="16.37667">
        <ele>193.862588</ele>
        <time>2026-07-07T07:14:13.000Z</time>
      </trkpt>
      <trkpt lat="48.20325" lon="16.37672">
        <ele>193.839909</ele>
        <time>2026-07-07T07:14:30.000Z</time>
      </trkpt>
      <trkpt lat="48.20326" lon="16.37674">
        <ele>193.830484</ele>
        <time>2026-07-07T07:14:31.000Z</time>
      </trkpt>
      <trkpt lat="48.20328" lon="16.37675">
        <ele>193.817958</ele>
        <time>2026-07-07T07:14:32.000Z</time>
      </trkpt>
      <trkpt lat="48.2033" lon="16.37676">
        <ele>193.805843</ele>
        <time>2026-07-07T07:14:33.000Z</time>
      </trkpt>
      <trkpt lat="48.20333" lon="16.37677">
        <ele>193.790758</ele>
        <time>2026-07-07T07:14:34.000Z</time>
      </trkpt>
      <trkpt lat="48.20335" lon="16.37679">
        <ele>193.77393</ele>
        <time>2026-07-07T07:14:35.000Z</time>
      </trkpt>
      <trkpt lat="48.20338" lon="16.37681">
        <ele>193.757474</ele>
        <time>2026-07-07T07:14:36.000Z</time>
      </trkpt>
      <trkpt lat="48.20341" lon="16.37683">
        <ele>193.73963</ele>
        <time>2026-07-07T07:14:37.000Z</time>
      </trkpt>
      <trkpt lat="48.20343" lon="16.37686">
        <ele>193.721928</ele>
        <time>2026-07-07T07:14:38.000Z</time>
      </trkpt>
      <trkpt lat="48.20346" lon="16.37688">
        <ele>193.703999</ele>
        <time>2026-07-07T07:14:39.000Z</time>
      </trkpt>
      <trkpt lat="48.20348" lon="16.37691">
        <ele>193.687216</ele>
        <time>2026-07-07T07:14:40.000Z</time>
      </trkpt>
      <trkpt lat="48.2035" lon="16.37695">
        <ele>193.669925</ele>
        <time>2026-07-07T07:14:41.000Z</time>
      </trkpt>
      <trkpt lat="48.20351" lon="16.37699">
        <ele>193.652345</ele>
        <time>2026-07-07T07:14:42.000Z</time>
      </trkpt>
      <trkpt lat="48.20353" lon="16.37703">
        <ele>193.632574</ele>
        <time>2026-07-07T07:14:43.000Z</time>
      </trkpt>
      <trkpt lat="48.20356" lon="16.37707">
        <ele>193.611803</ele>
        <time>2026-07-07T07:14:44.000Z</time>
      </trkpt>
      <trkpt lat="48.20359" lon="16.37711">
        <ele>193.590202</ele>
        <time>2026-07-07T07:14:45.000Z</time>
      </trkpt>
      <trkpt lat="48.20363" lon="16.37715">
        <ele>193.56824</ele>
        <time>2026-07-07T07:14:46.000Z</time>
      </trkpt>
      <trkpt lat="48.20366" lon="16.37719">
        <ele>193.546277</ele>
        <time>2026-07-07T07:14:47.000Z</time>
      </trkpt>
      <trkpt lat="48.2037" lon="16.37723">
        <ele>193.523317</ele>
        <time>2026-07-07T07:14:48.000Z</time>
      </trkpt>
      <trkpt lat="48.20374" lon="16.37727">
        <ele>193.500552</ele>
        <time>2026-07-07T07:14:49.000Z</time>
      </trkpt>
      <trkpt lat="48.20377" lon="16.37732">
        <ele>193.477788</ele>
        <time>2026-07-07T07:14:50.000Z</time>
      </trkpt>
      <trkpt lat="48.20381" lon="16.37736">
        <ele>193.454206</ele>
        <time>2026-07-07T07:14:51.000Z</time>
      </trkpt>
      <trkpt lat="48.20385" lon="16.3774">
        <ele>193.431035</ele>
        <time>2026-07-07T07:14:52.000Z</time>
      </trkpt>
      <trkpt lat="48.20389" lon="16.37744">
        <ele>193.407475</ele>
        <time>2026-07-07T07:14:53.000Z</time>
      </trkpt>
      <trkpt lat="48.20393" lon="16.37748">
        <ele>193.383893</ele>
        <time>2026-07-07T07:14:54.000Z</time>
      </trkpt>
      <trkpt lat="48.20397" lon="16.37752">
        <ele>193.360722</ele>
        <time>2026-07-07T07:14:55.000Z</time>
      </trkpt>
      <trkpt lat="48.204" lon="16.37756">
        <ele>193.33755</ele>
        <time>2026-07-07T07:14:56.000Z</time>
      </trkpt>
      <trkpt lat="48.20404" lon="16.3776">
        <ele>193.313779</ele>
        <time>2026-07-07T07:14:57.000Z</time>
      </trkpt>
      <trkpt lat="48.20408" lon="16.37764">
        <ele>193.289367</ele>
        <time>2026-07-07T07:14:58.000Z</time>
      </trkpt>
      <trkpt lat="48.20412" lon="16.37768">
        <ele>193.265371</ele>
        <time>2026-07-07T07:14:59.000Z</time>
      </trkpt>
      <trkpt lat="48.20416" lon="16.37772">
        <ele>193.241001</ele>
        <time>2026-07-07T07:15:00.000Z</time>
      </trkpt>
      <trkpt lat="48.2042" lon="16.37776">
        <ele>193.216841</ele>
        <time>2026-07-07T07:15:01.000Z</time>
      </trkpt>
      <trkpt lat="48.20424" lon="16.37781">
        <ele>193.192471</ele>
        <time>2026-07-07T07:15:02.000Z</time>
      </trkpt>
      <trkpt lat="48.20428" lon="16.37785">
        <ele>193.169299</ele>
        <time>2026-07-07T07:15:03.000Z</time>
      </trkpt>
      <trkpt lat="48.20432" lon="16.37789">
        <ele>193.144928</ele>
        <time>2026-07-07T07:15:04.000Z</time>
      </trkpt>
      <trkpt lat="48.20436" lon="16.37793">
        <ele>193.120933</ele>
        <time>2026-07-07T07:15:05.000Z</time>
      </trkpt>
      <trkpt lat="48.2044" lon="16.37797">
        <ele>193.095921</ele>
        <time>2026-07-07T07:15:06.000Z</time>
      </trkpt>
      <trkpt lat="48.20444" lon="16.37801">
        <ele>193.07155</ele>
        <time>2026-07-07T07:15:07.000Z</time>
      </trkpt>
      <trkpt lat="48.20449" lon="16.37805">
        <ele>193.045938</ele>
        <time>2026-07-07T07:15:08.000Z</time>
      </trkpt>
      <trkpt lat="48.20453" lon="16.3781">
        <ele>193.020143</ele>
        <time>2026-07-07T07:15:09.000Z</time>
      </trkpt>
      <trkpt lat="48.20457" lon="16.37814">
        <ele>192.993148</ele>
        <time>2026-07-07T07:15:10.000Z</time>
      </trkpt>
      <trkpt lat="48.20462" lon="16.37819">
        <ele>192.966567</ele>
        <time>2026-07-07T07:15:11.000Z</time>
      </trkpt>
      <trkpt lat="48.20466" lon="16.37823">
        <ele>192.940011</ele>
        <time>2026-07-07T07:15:12.000Z</time>
      </trkpt>
      <trkpt lat="48.2047" lon="16.37828">
        <ele>192.914054</ele>
        <time>2026-07-07T07:15:13.000Z</time>
      </trkpt>
      <trkpt lat="48.20474" lon="16.37832">
        <ele>192.888696</ele>
        <time>2026-07-07T07:15:14.000Z</time>
      </trkpt>
      <trkpt lat="48.20479" lon="16.37837">
        <ele>192.862664</ele>
        <time>2026-07-07T07:15:15.000Z</time>
      </trkpt>
      <trkpt lat="48.20483" lon="16.37841">
        <ele>192.835669</ele>
        <time>2026-07-07T07:15:16.000Z</time>
      </trkpt>
      <trkpt lat="48.20488" lon="16.37846">
        <ele>192.809499</ele>
        <time>2026-07-07T07:15:17.000Z</time>
      </trkpt>
      <trkpt lat="48.20492" lon="16.3785">
        <ele>192.782505</ele>
        <time>2026-07-07T07:15:18.000Z</time>
      </trkpt>
      <trkpt lat="48.20496" lon="16.37855">
        <ele>192.756335</ele>
        <time>2026-07-07T07:15:19.000Z</time>
      </trkpt>
      <trkpt lat="48.20501" lon="16.37859">
        <ele>192.72934</ele>
        <time>2026-07-07T07:15:20.000Z</time>
      </trkpt>
      <trkpt lat="48.20505" lon="16.37864">
        <ele>192.689546</ele>
        <time>2026-07-07T07:15:21.000Z</time>
      </trkpt>
      <trkpt lat="48.2051" lon="16.37868">
        <ele>192.648284</ele>
        <time>2026-07-07T07:15:22.000Z</time>
      </trkpt>
      <trkpt lat="48.20515" lon="16.37873">
        <ele>192.606484</ele>
        <time>2026-07-07T07:15:23.000Z</time>
      </trkpt>
      <trkpt lat="48.20519" lon="16.37878">
        <ele>192.565622</ele>
        <time>2026-07-07T07:15:24.000Z</time>
      </trkpt>
      <trkpt lat="48.20524" lon="16.37882">
        <ele>192.525045</ele>
        <time>2026-07-07T07:15:25.000Z</time>
      </trkpt>
      <trkpt lat="48.20528" lon="16.37887">
        <ele>192.484184</ele>
        <time>2026-07-07T07:15:26.000Z</time>
      </trkpt>
      <trkpt lat="48.20532" lon="16.37892">
        <ele>192.445697</ele>
        <time>2026-07-07T07:15:27.000Z</time>
      </trkpt>
      <trkpt lat="48.20537" lon="16.37897">
        <ele>192.404257</ele>
        <time>2026-07-07T07:15:28.000Z</time>
      </trkpt>
      <trkpt lat="48.20541" lon="16.37902">
        <ele>192.364285</ele>
        <time>2026-07-07T07:15:29.000Z</time>
      </trkpt>
      <trkpt lat="48.20546" lon="16.37906">
        <ele>192.324913</ele>
        <time>2026-07-07T07:15:30.000Z</time>
      </trkpt>
      <trkpt lat="48.2055" lon="16.37911">
        <ele>192.286114</ele>
        <time>2026-07-07T07:15:31.000Z</time>
      </trkpt>
      <trkpt lat="48.20554" lon="16.37915">
        <ele>192.248485</ele>
        <time>2026-07-07T07:15:32.000Z</time>
      </trkpt>
      <trkpt lat="48.20558" lon="16.37919">
        <ele>192.210241</ele>
        <time>2026-07-07T07:15:33.000Z</time>
      </trkpt>
      <trkpt lat="48.20563" lon="16.37924">
        <ele>192.170491</ele>
        <time>2026-07-07T07:15:34.000Z</time>
      </trkpt>
      <trkpt lat="48.20568" lon="16.37928">
        <ele>192.129229</ele>
        <time>2026-07-07T07:15:35.000Z</time>
      </trkpt>
      <trkpt lat="48.20572" lon="16.37933">
        <ele>192.090146</ele>
        <time>2026-07-07T07:15:36.000Z</time>
      </trkpt>
      <trkpt lat="48.20576" lon="16.37938">
        <ele>192.050174</ele>
        <time>2026-07-07T07:15:37.000Z</time>
      </trkpt>
      <trkpt lat="48.2058" lon="16.37942">
        <ele>192.01258</ele>
        <time>2026-07-07T07:15:38.000Z</time>
      </trkpt>
      <trkpt lat="48.20585" lon="16.37946">
        <ele>191.97495</ele>
        <time>2026-07-07T07:15:39.000Z</time>
      </trkpt>
      <trkpt lat="48.20589" lon="16.37951">
        <ele>191.93704</ele>
        <time>2026-07-07T07:15:40.000Z</time>
      </trkpt>
      <trkpt lat="48.20593" lon="16.37955">
        <ele>191.898797</ele>
        <time>2026-07-07T07:15:41.000Z</time>
      </trkpt>
      <trkpt lat="48.20597" lon="16.37959">
        <ele>191.860554</ele>
        <time>2026-07-07T07:15:42.000Z</time>
      </trkpt>
      <trkpt lat="48.20602" lon="16.37964">
        <ele>191.821334</ele>
        <time>2026-07-07T07:15:43.000Z</time>
      </trkpt>
      <trkpt lat="48.20606" lon="16.37968">
        <ele>191.782473</ele>
        <time>2026-07-07T07:15:44.000Z</time>
      </trkpt>
      <trkpt lat="48.20611" lon="16.37972">
        <ele>191.742451</ele>
        <time>2026-07-07T07:15:45.000Z</time>
      </trkpt>
      <trkpt lat="48.20615" lon="16.37977">
        <ele>191.705146</ele>
        <time>2026-07-07T07:15:46.000Z</time>
      </trkpt>
      <trkpt lat="48.20619" lon="16.37981">
        <ele>191.669329</ele>
        <time>2026-07-07T07:15:47.000Z</time>
      </trkpt>
      <trkpt lat="48.20623" lon="16.37986">
        <ele>191.632329</ele>
        <time>2026-07-07T07:15:48.000Z</time>
      </trkpt>
      <trkpt lat="48.20627" lon="16.3799">
        <ele>191.597105</ele>
        <time>2026-07-07T07:15:49.000Z</time>
      </trkpt>
      <trkpt lat="48.2063" lon="16.37994">
        <ele>191.562177</ele>
        <time>2026-07-07T07:15:50.000Z</time>
      </trkpt>
      <trkpt lat="48.20634" lon="16.37998">
        <ele>191.526602</ele>
        <time>2026-07-07T07:15:51.000Z</time>
      </trkpt>
      <trkpt lat="48.20638" lon="16.38002">
        <ele>191.492852</ele>
        <time>2026-07-07T07:15:52.000Z</time>
      </trkpt>
      <trkpt lat="48.20642" lon="16.38006">
        <ele>191.458499</ele>
        <time>2026-07-07T07:15:53.000Z</time>
      </trkpt>
      <trkpt lat="48.20646" lon="16.3801">
        <ele>191.424085</ele>
        <time>2026-07-07T07:15:54.000Z</time>
      </trkpt>
      <trkpt lat="48.2065" lon="16.38014">
        <ele>191.393504</ele>
        <time>2026-07-07T07:15:55.000Z</time>
      </trkpt>
      <trkpt lat="48.20654" lon="16.38018">
        <ele>191.376933</ele>
        <time>2026-07-07T07:15:56.000Z</time>
      </trkpt>
      <trkpt lat="48.20658" lon="16.38022">
        <ele>191.361434</ele>
        <time>2026-07-07T07:15:57.000Z</time>
      </trkpt>
      <trkpt lat="48.20661" lon="16.38026">
        <ele>191.346086</ele>
        <time>2026-07-07T07:15:58.000Z</time>
      </trkpt>
      <trkpt lat="48.20665" lon="16.3803">
        <ele>191.331147</ele>
        <time>2026-07-07T07:15:59.000Z</time>
      </trkpt>
      <trkpt lat="48.20669" lon="16.38033">
        <ele>191.315723</ele>
        <time>2026-07-07T07:16:00.000Z</time>
      </trkpt>
      <trkpt lat="48.20672" lon="16.38037">
        <ele>191.301447</ele>
        <time>2026-07-07T07:16:01.000Z</time>
      </trkpt>
      <trkpt lat="48.20676" lon="16.3804">
        <ele>191.286915</ele>
        <time>2026-07-07T07:16:02.000Z</time>
      </trkpt>
      <trkpt lat="48.20679" lon="16.38044">
        <ele>191.272356</ele>
        <time>2026-07-07T07:16:03.000Z</time>
      </trkpt>
      <trkpt lat="48.20683" lon="16.38047">
        <ele>191.258326</ele>
        <time>2026-07-07T07:16:04.000Z</time>
      </trkpt>
      <trkpt lat="48.20686" lon="16.3805">
        <ele>191.245147</ele>
        <time>2026-07-07T07:16:05.000Z</time>
      </trkpt>
      <trkpt lat="48.20689" lon="16.38053">
        <ele>191.234134</ele>
        <time>2026-07-07T07:16:06.000Z</time>
      </trkpt>
      <trkpt lat="48.20691" lon="16.38055">
        <ele>191.225111</ele>
        <time>2026-07-07T07:16:07.000Z</time>
      </trkpt>
      <trkpt lat="48.20693" lon="16.38057">
        <ele>191.216909</ele>
        <time>2026-07-07T07:16:08.000Z</time>
      </trkpt>
      <trkpt lat="48.20695" lon="16.38058">
        <ele>191.209754</ele>
        <time>2026-07-07T07:16:09.000Z</time>
      </trkpt>
      <trkpt lat="48.20697" lon="16.38059">
        <ele>191.203069</ele>
        <time>2026-07-07T07:16:10.000Z</time>
      </trkpt>
      <trkpt lat="48.20698" lon="16.3806">
        <ele>191.198612</ele>
        <time>2026-07-07T07:16:11.000Z</time>
      </trkpt>
      <trkpt lat="48.20699" lon="16.3806">
        <ele>191.196282</ele>
        <time>2026-07-07T07:16:12.000Z</time>
      </trkpt>
      <trkpt lat="48.20699" lon="16.3806">
        <ele>191.194765</ele>
        <time>2026-07-07T07:16:13.000Z</time>
      </trkpt>
      <trkpt lat="48.20702" lon="16.38064">
        <ele>191.183646</ele>
        <time>2026-07-07T07:16:23.000Z</time>
      </trkpt>
      <trkpt lat="48.20702" lon="16.38064">
        <ele>191.182628</ele>
        <time>2026-07-07T07:16:24.000Z</time>
      </trkpt>
      <trkpt lat="48.20702" lon="16.38064">
        <ele>191.181812</ele>
        <time>2026-07-07T07:16:25.000Z</time>
      </trkpt>
      <trkpt lat="48.2071" lon="16.3807">
        <ele>191.152044</ele>
        <time>2026-07-07T07:17:04.000Z</time>
      </trkpt>
      <trkpt lat="48.20712" lon="16.38073">
        <ele>191.141563</ele>
        <time>2026-07-07T07:17:05.000Z</time>
      </trkpt>
      <trkpt lat="48.20715" lon="16.38075">
        <ele>191.130795</ele>
        <time>2026-07-07T07:17:06.000Z</time>
      </trkpt>
      <trkpt lat="48.20718" lon="16.38078">
        <ele>191.119782</ele>
        <time>2026-07-07T07:17:07.000Z</time>
      </trkpt>
      <trkpt lat="48.20721" lon="16.38081">
        <ele>191.107545</ele>
        <time>2026-07-07T07:17:08.000Z</time>
      </trkpt>
      <trkpt lat="48.20724" lon="16.38083">
        <ele>191.094577</ele>
        <time>2026-07-07T07:17:09.000Z</time>
      </trkpt>
      <trkpt lat="48.20728" lon="16.38085">
        <ele>191.080266</ele>
        <time>2026-07-07T07:17:10.000Z</time>
      </trkpt>
      <trkpt lat="48.20732" lon="16.38088">
        <ele>191.066183</ele>
        <time>2026-07-07T07:17:11.000Z</time>
      </trkpt>
      <trkpt lat="48.20736" lon="16.38091">
        <ele>191.050798</ele>
        <time>2026-07-07T07:17:12.000Z</time>
      </trkpt>
      <trkpt lat="48.2074" lon="16.38095">
        <ele>191.035422</ele>
        <time>2026-07-07T07:17:13.000Z</time>
      </trkpt>
      <trkpt lat="48.20744" lon="16.38099">
        <ele>191.019639</ele>
        <time>2026-07-07T07:17:14.000Z</time>
      </trkpt>
      <trkpt lat="48.20748" lon="16.38103">
        <ele>191.003324</ele>
        <time>2026-07-07T07:17:15.000Z</time>
      </trkpt>
      <trkpt lat="48.20752" lon="16.38106">
        <ele>190.98672</ele>
        <time>2026-07-07T07:17:16.000Z</time>
      </trkpt>
      <trkpt lat="48.20756" lon="16.3811">
        <ele>190.970116</ele>
        <time>2026-07-07T07:17:17.000Z</time>
      </trkpt>
      <trkpt lat="48.2076" lon="16.38114">
        <ele>190.954083</ele>
        <time>2026-07-07T07:17:18.000Z</time>
      </trkpt>
      <trkpt lat="48.20764" lon="16.38117">
        <ele>190.938583</ele>
        <time>2026-07-07T07:17:19.000Z</time>
      </trkpt>
      <trkpt lat="48.20767" lon="16.38121">
        <ele>190.924184</ele>
        <time>2026-07-07T07:17:20.000Z</time>
      </trkpt>
      <trkpt lat="48.20771" lon="16.38125">
        <ele>190.909653</ele>
        <time>2026-07-07T07:17:21.000Z</time>
      </trkpt>
      <trkpt lat="48.20774" lon="16.38129">
        <ele>190.896212</ele>
        <time>2026-07-07T07:17:22.000Z</time>
      </trkpt>
      <trkpt lat="48.20777" lon="16.38132">
        <ele>190.882772</ele>
        <time>2026-07-07T07:17:23.000Z</time>
      </trkpt>
      <trkpt lat="48.2078" lon="16.38136">
        <ele>190.869328</ele>
        <time>2026-07-07T07:17:24.000Z</time>
      </trkpt>
      <trkpt lat="48.20784" lon="16.38139">
        <ele>190.855052</ele>
        <time>2026-07-07T07:17:25.000Z</time>
      </trkpt>
      <trkpt lat="48.20787" lon="16.38143">
        <ele>190.840389</ele>
        <time>2026-07-07T07:17:26.000Z</time>
      </trkpt>
      <trkpt lat="48.20791" lon="16.38147">
        <ele>190.825171</ele>
        <time>2026-07-07T07:17:27.000Z</time>
      </trkpt>
      <trkpt lat="48.20795" lon="16.38151">
        <ele>190.809692</ele>
        <time>2026-07-07T07:17:28.000Z</time>
      </trkpt>
      <trkpt lat="48.20798" lon="16.38155">
        <ele>190.79476</ele>
        <time>2026-07-07T07:17:29.000Z</time>
      </trkpt>
      <trkpt lat="48.20802" lon="16.38159">
        <ele>190.779175</ele>
        <time>2026-07-07T07:17:30.000Z</time>
      </trkpt>
      <trkpt lat="48.20806" lon="16.38163">
        <ele>190.759597</ele>
        <time>2026-07-07T07:17:31.000Z</time>
      </trkpt>
      <trkpt lat="48.20811" lon="16.38167">
        <ele>190.740471</ele>
        <time>2026-07-07T07:17:32.000Z</time>
      </trkpt>
      <trkpt lat="48.20815" lon="16.38171">
        <ele>190.720576</ele>
        <time>2026-07-07T07:17:33.000Z</time>
      </trkpt>
      <trkpt lat="48.20819" lon="16.38175">
        <ele>190.701627</ele>
        <time>2026-07-07T07:17:34.000Z</time>
      </trkpt>
      <trkpt lat="48.20823" lon="16.38179">
        <ele>190.683581</ele>
        <time>2026-07-07T07:17:35.000Z</time>
      </trkpt>
      <trkpt lat="48.20827" lon="16.38183">
        <ele>190.666438</ele>
        <time>2026-07-07T07:17:36.000Z</time>
      </trkpt>
      <trkpt lat="48.20831" lon="16.38187">
        <ele>190.649431</ele>
        <time>2026-07-07T07:17:37.000Z</time>
      </trkpt>
      <trkpt lat="48.20835" lon="16.3819">
        <ele>190.633272</ele>
        <time>2026-07-07T07:17:38.000Z</time>
      </trkpt>
      <trkpt lat="48.20838" lon="16.38193">
        <ele>190.617754</ele>
        <time>2026-07-07T07:17:39.000Z</time>
      </trkpt>
      <trkpt lat="48.20842" lon="16.38197">
        <ele>190.601681</ele>
        <time>2026-07-07T07:17:40.000Z</time>
      </trkpt>
      <trkpt lat="48.20845" lon="16.38201">
        <ele>190.586065</ele>
        <time>2026-07-07T07:17:41.000Z</time>
      </trkpt>
      <trkpt lat="48.20849" lon="16.38204">
        <ele>190.569005</ele>
        <time>2026-07-07T07:17:42.000Z</time>
      </trkpt>
      <trkpt lat="48.20853" lon="16.38208">
        <ele>190.552265</ele>
        <time>2026-07-07T07:17:43.000Z</time>
      </trkpt>
      <trkpt lat="48.20857" lon="16.38212">
        <ele>190.534357</ele>
        <time>2026-07-07T07:17:44.000Z</time>
      </trkpt>
      <trkpt lat="48.2086" lon="16.38216">
        <ele>190.517524</ele>
        <time>2026-07-07T07:17:45.000Z</time>
      </trkpt>
      <trkpt lat="48.20864" lon="16.38219">
        <ele>190.501143</ele>
        <time>2026-07-07T07:17:46.000Z</time>
      </trkpt>
      <trkpt lat="48.20867" lon="16.38222">
        <ele>190.487776</ele>
        <time>2026-07-07T07:17:47.000Z</time>
      </trkpt>
      <trkpt lat="48.20869" lon="16.38225">
        <ele>190.477866</ele>
        <time>2026-07-07T07:17:48.000Z</time>
      </trkpt>
      <trkpt lat="48.20871" lon="16.38227">
        <ele>190.46911</ele>
        <time>2026-07-07T07:17:49.000Z</time>
      </trkpt>
      <trkpt lat="48.20872" lon="16.38228">
        <ele>190.464143</ele>
        <time>2026-07-07T07:17:50.000Z</time>
      </trkpt>
      <trkpt lat="48.20872" lon="16.38229">
        <ele>190.461049</ele>
        <time>2026-07-07T07:17:51.000Z</time>
      </trkpt>
      <trkpt lat="48.20872" lon="16.3823">
        <ele>190.459297</ele>
        <time>2026-07-07T07:17:52.000Z</time>
      </trkpt>
      <trkpt lat="48.20873" lon="16.38233">
        <ele>190.45004</ele>
        <time>2026-07-07T07:18:37.000Z</time>
      </trkpt>
      <trkpt lat="48.20874" lon="16.38236">
        <ele>190.441624</ele>
        <time>2026-07-07T07:18:38.000Z</time>
      </trkpt>
      <trkpt lat="48.20877" lon="16.38238">
        <ele>190.430511</ele>
        <time>2026-07-07T07:18:39.000Z</time>
      </trkpt>
      <trkpt lat="48.20879" lon="16.38241">
        <ele>190.419051</ele>
        <time>2026-07-07T07:18:40.000Z</time>
      </trkpt>
      <trkpt lat="48.20883" lon="16.38243">
        <ele>190.405507</ele>
        <time>2026-07-07T07:18:41.000Z</time>
      </trkpt>
      <trkpt lat="48.20886" lon="16.38246">
        <ele>190.391514</ele>
        <time>2026-07-07T07:18:42.000Z</time>
      </trkpt>
      <trkpt lat="48.2089" lon="16.38249">
        <ele>190.375048</ele>
        <time>2026-07-07T07:18:43.000Z</time>
      </trkpt>
      <trkpt lat="48.20894" lon="16.38251">
        <ele>190.357385</ele>
        <time>2026-07-07T07:18:44.000Z</time>
      </trkpt>
      <trkpt lat="48.20899" lon="16.38253">
        <ele>190.339538</ele>
        <time>2026-07-07T07:18:45.000Z</time>
      </trkpt>
      <trkpt lat="48.20904" lon="16.38255">
        <ele>190.320174</ele>
        <time>2026-07-07T07:18:46.000Z</time>
      </trkpt>
      <trkpt lat="48.20909" lon="16.38256">
        <ele>190.29951</ele>
        <time>2026-07-07T07:18:47.000Z</time>
      </trkpt>
      <trkpt lat="48.20915" lon="16.38258">
        <ele>190.279262</ele>
        <time>2026-07-07T07:18:48.000Z</time>
      </trkpt>
      <trkpt lat="48.2092" lon="16.38259">
        <ele>190.259014</ele>
        <time>2026-07-07T07:18:49.000Z</time>
      </trkpt>
      <trkpt lat="48.20925" lon="16.38261">
        <ele>190.239034</ele>
        <time>2026-07-07T07:18:50.000Z</time>
      </trkpt>
      <trkpt lat="48.2093" lon="16.38263">
        <ele>190.218786</ele>
        <time>2026-07-07T07:18:51.000Z</time>
      </trkpt>
      <trkpt lat="48.20935" lon="16.38264">
        <ele>190.199735</ele>
        <time>2026-07-07T07:18:52.000Z</time>
      </trkpt>
      <trkpt lat="48.20941" lon="16.38265">
        <ele>190.179856</ele>
        <time>2026-07-07T07:18:53.000Z</time>
      </trkpt>
      <trkpt lat="48.20946" lon="16.38267">
        <ele>190.158913</ele>
        <time>2026-07-07T07:18:54.000Z</time>
      </trkpt>
      <trkpt lat="48.20952" lon="16.38268">
        <ele>190.137187</ele>
        <time>2026-07-07T07:18:55.000Z</time>
      </trkpt>
      <trkpt lat="48.20957" lon="16.3827">
        <ele>190.116939</ele>
        <time>2026-07-07T07:18:56.000Z</time>
      </trkpt>
      <trkpt lat="48.20962" lon="16.38271">
        <ele>190.095773</ele>
        <time>2026-07-07T07:18:57.000Z</time>
      </trkpt>
      <trkpt lat="48.20968" lon="16.38273">
        <ele>190.072844</ele>
        <time>2026-07-07T07:18:58.000Z</time>
      </trkpt>
      <trkpt lat="48.20973" lon="16.38274">
        <ele>190.050722</ele>
        <time>2026-07-07T07:18:59.000Z</time>
      </trkpt>
      <trkpt lat="48.20978" lon="16.38276">
        <ele>190.029002</ele>
        <time>2026-07-07T07:19:00.000Z</time>
      </trkpt>
      <trkpt lat="48.20983" lon="16.38277">
        <ele>190.007686</ele>
        <time>2026-07-07T07:19:01.000Z</time>
      </trkpt>
      <trkpt lat="48.20989" lon="16.38278">
        <ele>189.986063</ele>
        <time>2026-07-07T07:19:02.000Z</time>
      </trkpt>
      <trkpt lat="48.20994" lon="16.3828">
        <ele>189.964078</ele>
        <time>2026-07-07T07:19:03.000Z</time>
      </trkpt>
      <trkpt lat="48.20999" lon="16.3828">
        <ele>189.943453</ele>
        <time>2026-07-07T07:19:04.000Z</time>
      </trkpt>
      <trkpt lat="48.21004" lon="16.38281">
        <ele>189.923169</ele>
        <time>2026-07-07T07:19:05.000Z</time>
      </trkpt>
      <trkpt lat="48.21009" lon="16.38282">
        <ele>189.901259</ele>
        <time>2026-07-07T07:19:06.000Z</time>
      </trkpt>
      <trkpt lat="48.21015" lon="16.38284">
        <ele>189.878377</ele>
        <time>2026-07-07T07:19:07.000Z</time>
      </trkpt>
      <trkpt lat="48.2102" lon="16.38285">
        <ele>189.856431</ele>
        <time>2026-07-07T07:19:08.000Z</time>
      </trkpt>
      <trkpt lat="48.21025" lon="16.38286">
        <ele>189.833549</ele>
        <time>2026-07-07T07:19:09.000Z</time>
      </trkpt>
      <trkpt lat="48.21031" lon="16.38287">
        <ele>189.811197</ele>
        <time>2026-07-07T07:19:10.000Z</time>
      </trkpt>
      <trkpt lat="48.21036" lon="16.38289">
        <ele>189.790023</ele>
        <time>2026-07-07T07:19:11.000Z</time>
      </trkpt>
      <trkpt lat="48.21041" lon="16.3829">
        <ele>189.768443</ele>
        <time>2026-07-07T07:19:12.000Z</time>
      </trkpt>
      <trkpt lat="48.21046" lon="16.38291">
        <ele>189.746903</ele>
        <time>2026-07-07T07:19:13.000Z</time>
      </trkpt>
      <trkpt lat="48.21051" lon="16.38292">
        <ele>189.726944</ele>
        <time>2026-07-07T07:19:14.000Z</time>
      </trkpt>
      <trkpt lat="48.21056" lon="16.38293">
        <ele>189.707388</ele>
        <time>2026-07-07T07:19:15.000Z</time>
      </trkpt>
      <trkpt lat="48.2106" lon="16.38295">
        <ele>189.688189</ele>
        <time>2026-07-07T07:19:16.000Z</time>
      </trkpt>
      <trkpt lat="48.21065" lon="16.38296">
        <ele>189.668359</ele>
        <time>2026-07-07T07:19:17.000Z</time>
      </trkpt>
      <trkpt lat="48.2107" lon="16.38297">
        <ele>189.64985</ele>
        <time>2026-07-07T07:19:18.000Z</time>
      </trkpt>
      <trkpt lat="48.21074" lon="16.38297">
        <ele>189.630565</ele>
        <time>2026-07-07T07:19:19.000Z</time>
      </trkpt>
      <trkpt lat="48.21079" lon="16.38296">
        <ele>189.611906</ele>
        <time>2026-07-07T07:19:20.000Z</time>
      </trkpt>
      <trkpt lat="48.21083" lon="16.38295">
        <ele>189.592988</ele>
        <time>2026-07-07T07:19:21.000Z</time>
      </trkpt>
      <trkpt lat="48.21087" lon="16.38295">
        <ele>189.576561</ele>
        <time>2026-07-07T07:19:22.000Z</time>
      </trkpt>
      <trkpt lat="48.21091" lon="16.38296">
        <ele>189.560009</ele>
        <time>2026-07-07T07:19:23.000Z</time>
      </trkpt>
      <trkpt lat="48.21095" lon="16.38297">
        <ele>189.54378</ele>
        <time>2026-07-07T07:19:24.000Z</time>
      </trkpt>
      <trkpt lat="48.21099" lon="16.38297">
        <ele>189.529297</ele>
        <time>2026-07-07T07:19:25.000Z</time>
      </trkpt>
      <trkpt lat="48.21102" lon="16.38297">
        <ele>189.516992</ele>
        <time>2026-07-07T07:19:26.000Z</time>
      </trkpt>
      <trkpt lat="48.21104" lon="16.38297">
        <ele>189.506738</ele>
        <time>2026-07-07T07:19:27.000Z</time>
      </trkpt>
      <trkpt lat="48.21106" lon="16.38297">
        <ele>189.498055</ele>
        <time>2026-07-07T07:19:28.000Z</time>
      </trkpt>
      <trkpt lat="48.21108" lon="16.38296">
        <ele>189.49095</ele>
        <time>2026-07-07T07:19:29.000Z</time>
      </trkpt>
      <trkpt lat="48.21109" lon="16.38296">
        <ele>189.48561</ele>
        <time>2026-07-07T07:19:30.000Z</time>
      </trkpt>
      <trkpt lat="48.21111" lon="16.38296">
        <ele>189.480568</ele>
        <time>2026-07-07T07:19:31.000Z</time>
      </trkpt>
      <trkpt lat="48.21112" lon="16.38296">
        <ele>189.474361</ele>
        <time>2026-07-07T07:19:32.000Z</time>
      </trkpt>
      <trkpt lat="48.21114" lon="16.38295">
        <ele>189.466853</ele>
        <time>2026-07-07T07:19:33.000Z</time>
      </trkpt>
      <trkpt lat="48.21116" lon="16.38295">
        <ele>189.457726</ele>
        <time>2026-07-07T07:19:34.000Z</time>
      </trkpt>
      <trkpt lat="48.21118" lon="16.38294">
        <ele>189.449482</ele>
        <time>2026-07-07T07:19:35.000Z</time>
      </trkpt>
      <trkpt lat="48.21119" lon="16.38294">
        <ele>189.444122</ele>
        <time>2026-07-07T07:19:36.000Z</time>
      </trkpt>
      <trkpt lat="48.2112" lon="16.38294">
        <ele>189.44043</ele>
        <time>2026-07-07T07:19:37.000Z</time>
      </trkpt>
      <trkpt lat="48.2112" lon="16.38294">
        <ele>189.439883</ele>
        <time>2026-07-07T07:19:38.000Z</time>
      </trkpt>
      <trkpt lat="48.21123" lon="16.38295">
        <ele>189.429094</ele>
        <time>2026-07-07T07:19:56.000Z</time>
      </trkpt>
      <trkpt lat="48.21124" lon="16.38295">
        <ele>189.422845</ele>
        <time>2026-07-07T07:19:57.000Z</time>
      </trkpt>
      <trkpt lat="48.21126" lon="16.38296">
        <ele>189.4146</ele>
        <time>2026-07-07T07:19:58.000Z</time>
      </trkpt>
      <trkpt lat="48.21129" lon="16.38296">
        <ele>189.405315</ele>
        <time>2026-07-07T07:19:59.000Z</time>
      </trkpt>
      <trkpt lat="48.21131" lon="16.38297">
        <ele>189.394703</ele>
        <time>2026-07-07T07:20:00.000Z</time>
      </trkpt>
      <trkpt lat="48.21134" lon="16.38299">
        <ele>189.383758</ele>
        <time>2026-07-07T07:20:01.000Z</time>
      </trkpt>
      <trkpt lat="48.21136" lon="16.383">
        <ele>189.370029</ele>
        <time>2026-07-07T07:20:02.000Z</time>
      </trkpt>
      <trkpt lat="48.21138" lon="16.38302">
        <ele>189.340756</ele>
        <time>2026-07-07T07:20:03.000Z</time>
      </trkpt>
      <trkpt lat="48.21141" lon="16.38304">
        <ele>189.312479</ele>
        <time>2026-07-07T07:20:04.000Z</time>
      </trkpt>
      <trkpt lat="48.21143" lon="16.38306">
        <ele>189.28654</ele>
        <time>2026-07-07T07:20:05.000Z</time>
      </trkpt>
      <trkpt lat="48.21145" lon="16.38308">
        <ele>189.25576</ele>
        <time>2026-07-07T07:20:06.000Z</time>
      </trkpt>
      <trkpt lat="48.21148" lon="16.3831">
        <ele>189.217743</ele>
        <time>2026-07-07T07:20:07.000Z</time>
      </trkpt>
      <trkpt lat="48.21151" lon="16.38311">
        <ele>189.178149</ele>
        <time>2026-07-07T07:20:08.000Z</time>
      </trkpt>
      <trkpt lat="48.21155" lon="16.38312">
        <ele>189.135161</ele>
        <time>2026-07-07T07:20:09.000Z</time>
      </trkpt>
      <trkpt lat="48.21159" lon="16.38312">
        <ele>189.092271</ele>
        <time>2026-07-07T07:20:10.000Z</time>
      </trkpt>
      <trkpt lat="48.21163" lon="16.38312">
        <ele>189.047107</ele>
        <time>2026-07-07T07:20:11.000Z</time>
      </trkpt>
      <trkpt lat="48.21167" lon="16.38313">
        <ele>189.002782</ele>
        <time>2026-07-07T07:20:12.000Z</time>
      </trkpt>
      <trkpt lat="48.2117" lon="16.38314">
        <ele>188.961466</ele>
        <time>2026-07-07T07:20:13.000Z</time>
      </trkpt>
      <trkpt lat="48.21174" lon="16.38315">
        <ele>188.921259</ele>
        <time>2026-07-07T07:20:14.000Z</time>
      </trkpt>
      <trkpt lat="48.21177" lon="16.38316">
        <ele>188.882161</ele>
        <time>2026-07-07T07:20:15.000Z</time>
      </trkpt>
      <trkpt lat="48.21181" lon="16.38317">
        <ele>188.844438</ele>
        <time>2026-07-07T07:20:16.000Z</time>
      </trkpt>
      <trkpt lat="48.21184" lon="16.38317">
        <ele>188.806715</ele>
        <time>2026-07-07T07:20:17.000Z</time>
      </trkpt>
      <trkpt lat="48.21187" lon="16.38318">
        <ele>188.766868</ele>
        <time>2026-07-07T07:20:18.000Z</time>
      </trkpt>
      <trkpt lat="48.21191" lon="16.38319">
        <ele>188.72777</ele>
        <time>2026-07-07T07:20:19.000Z</time>
      </trkpt>
      <trkpt lat="48.21194" lon="16.3832">
        <ele>188.690047</ele>
        <time>2026-07-07T07:20:20.000Z</time>
      </trkpt>
      <trkpt lat="48.21197" lon="16.38321">
        <ele>188.653306</ele>
        <time>2026-07-07T07:20:21.000Z</time>
      </trkpt>
      <trkpt lat="48.21201" lon="16.38321">
        <ele>188.615794</ele>
        <time>2026-07-07T07:20:22.000Z</time>
      </trkpt>
      <trkpt lat="48.21204" lon="16.38322">
        <ele>188.577943</ele>
        <time>2026-07-07T07:20:23.000Z</time>
      </trkpt>
      <trkpt lat="48.21207" lon="16.38323">
        <ele>188.539106</ele>
        <time>2026-07-07T07:20:24.000Z</time>
      </trkpt>
      <trkpt lat="48.21211" lon="16.38324">
        <ele>188.498037</ele>
        <time>2026-07-07T07:20:25.000Z</time>
      </trkpt>
      <trkpt lat="48.21215" lon="16.38325">
        <ele>188.453509</ele>
        <time>2026-07-07T07:20:26.000Z</time>
      </trkpt>
      <trkpt lat="48.21218" lon="16.38326">
        <ele>188.415517</ele>
        <time>2026-07-07T07:20:27.000Z</time>
      </trkpt>
      <trkpt lat="48.21221" lon="16.38327">
        <ele>188.378908</ele>
        <time>2026-07-07T07:20:28.000Z</time>
      </trkpt>
      <trkpt lat="48.21224" lon="16.38327">
        <ele>188.344523</ele>
        <time>2026-07-07T07:20:29.000Z</time>
      </trkpt>
      <trkpt lat="48.21227" lon="16.38328">
        <ele>188.310261</ele>
        <time>2026-07-07T07:20:30.000Z</time>
      </trkpt>
      <trkpt lat="48.2123" lon="16.38329">
        <ele>188.276</ele>
        <time>2026-07-07T07:20:31.000Z</time>
      </trkpt>
      <trkpt lat="48.21233" lon="16.38329">
        <ele>188.24207</ele>
        <time>2026-07-07T07:20:32.000Z</time>
      </trkpt>
      <trkpt lat="48.21236" lon="16.38329">
        <ele>188.208215</ele>
        <time>2026-07-07T07:20:33.000Z</time>
      </trkpt>
      <trkpt lat="48.21239" lon="16.38329">
        <ele>188.173159</ele>
        <time>2026-07-07T07:20:34.000Z</time>
      </trkpt>
      <trkpt lat="48.21243" lon="16.38328">
        <ele>188.13086</ele>
        <time>2026-07-07T07:20:35.000Z</time>
      </trkpt>
      <trkpt lat="48.21247" lon="16.38327">
        <ele>188.087323</ele>
        <time>2026-07-07T07:20:36.000Z</time>
      </trkpt>
      <trkpt lat="48.21251" lon="16.38326">
        <ele>188.039334</ele>
        <time>2026-07-07T07:20:37.000Z</time>
      </trkpt>
      <trkpt lat="48.21255" lon="16.38325">
        <ele>187.990229</ele>
        <time>2026-07-07T07:20:38.000Z</time>
      </trkpt>
      <trkpt lat="48.2126" lon="16.38324">
        <ele>187.94001</ele>
        <time>2026-07-07T07:20:39.000Z</time>
      </trkpt>
      <trkpt lat="48.21264" lon="16.38323">
        <ele>187.891275</ele>
        <time>2026-07-07T07:20:40.000Z</time>
      </trkpt>
      <trkpt lat="48.21268" lon="16.38323">
        <ele>187.84373</ele>
        <time>2026-07-07T07:20:41.000Z</time>
      </trkpt>
      <trkpt lat="48.21272" lon="16.38322">
        <ele>187.798284</ele>
        <time>2026-07-07T07:20:42.000Z</time>
      </trkpt>
      <trkpt lat="48.21276" lon="16.38322">
        <ele>187.752988</ele>
        <time>2026-07-07T07:20:43.000Z</time>
      </trkpt>
      <trkpt lat="48.2128" lon="16.38321">
        <ele>187.7123</ele>
        <time>2026-07-07T07:20:44.000Z</time>
      </trkpt>
      <trkpt lat="48.21283" lon="16.38321">
        <ele>187.676063</ele>
        <time>2026-07-07T07:20:45.000Z</time>
      </trkpt>
      <trkpt lat="48.21287" lon="16.3832">
        <ele>187.630699</ele>
        <time>2026-07-07T07:20:46.000Z</time>
      </trkpt>
      <trkpt lat="48.21292" lon="16.38319">
        <ele>187.579468</ele>
        <time>2026-07-07T07:20:47.000Z</time>
      </trkpt>
      <trkpt lat="48.21297" lon="16.38319">
        <ele>187.522723</ele>
        <time>2026-07-07T07:20:48.000Z</time>
      </trkpt>
      <trkpt lat="48.21302" lon="16.38317">
        <ele>187.465458</ele>
        <time>2026-07-07T07:20:49.000Z</time>
      </trkpt>
      <trkpt lat="48.21306" lon="16.38315">
        <ele>187.412704</ele>
        <time>2026-07-07T07:20:50.000Z</time>
      </trkpt>
      <trkpt lat="48.21311" lon="16.38313">
        <ele>187.356488</ele>
        <time>2026-07-07T07:20:51.000Z</time>
      </trkpt>
      <trkpt lat="48.21316" lon="16.38312">
        <ele>187.311774</ele>
        <time>2026-07-07T07:20:52.000Z</time>
      </trkpt>
      <trkpt lat="48.21321" lon="16.3831">
        <ele>187.274467</ele>
        <time>2026-07-07T07:20:53.000Z</time>
      </trkpt>
      <trkpt lat="48.21325" lon="16.38307">
        <ele>187.236983</ele>
        <time>2026-07-07T07:20:54.000Z</time>
      </trkpt>
      <trkpt lat="48.2133" lon="16.38305">
        <ele>187.198675</ele>
        <time>2026-07-07T07:20:55.000Z</time>
      </trkpt>
      <trkpt lat="48.21334" lon="16.38303">
        <ele>187.16119</ele>
        <time>2026-07-07T07:20:56.000Z</time>
      </trkpt>
      <trkpt lat="48.21339" lon="16.38301">
        <ele>187.121457</ele>
        <time>2026-07-07T07:20:57.000Z</time>
      </trkpt>
      <trkpt lat="48.21344" lon="16.383">
        <ele>187.086849</ele>
        <time>2026-07-07T07:20:58.000Z</time>
      </trkpt>
      <trkpt lat="48.21348" lon="16.38299">
        <ele>187.052683</ele>
        <time>2026-07-07T07:20:59.000Z</time>
      </trkpt>
      <trkpt lat="48.21352" lon="16.38297">
        <ele>187.019284</ele>
        <time>2026-07-07T07:21:00.000Z</time>
      </trkpt>
      <trkpt lat="48.21356" lon="16.38297">
        <ele>186.987929</ele>
        <time>2026-07-07T07:21:01.000Z</time>
      </trkpt>
      <trkpt lat="48.21361" lon="16.38298">
        <ele>186.952465</ele>
        <time>2026-07-07T07:21:02.000Z</time>
      </trkpt>
      <trkpt lat="48.21365" lon="16.383">
        <ele>186.91498</ele>
        <time>2026-07-07T07:21:03.000Z</time>
      </trkpt>
      <trkpt lat="48.21369" lon="16.38304">
        <ele>186.877196</ele>
        <time>2026-07-07T07:21:04.000Z</time>
      </trkpt>
      <trkpt lat="48.21373" lon="16.38308">
        <ele>186.839382</ele>
        <time>2026-07-07T07:21:05.000Z</time>
      </trkpt>
      <trkpt lat="48.21377" lon="16.38314">
        <ele>186.800909</ele>
        <time>2026-07-07T07:21:06.000Z</time>
      </trkpt>
      <trkpt lat="48.2138" lon="16.38319">
        <ele>186.76316</ele>
        <time>2026-07-07T07:21:07.000Z</time>
      </trkpt>
      <trkpt lat="48.21383" lon="16.38324">
        <ele>186.727073</ele>
        <time>2026-07-07T07:21:08.000Z</time>
      </trkpt>
      <trkpt lat="48.21387" lon="16.38329">
        <ele>186.688599</ele>
        <time>2026-07-07T07:21:09.000Z</time>
      </trkpt>
      <trkpt lat="48.2139" lon="16.38334">
        <ele>186.648468</ele>
        <time>2026-07-07T07:21:10.000Z</time>
      </trkpt>
      <trkpt lat="48.21394" lon="16.3834">
        <ele>186.607785</ele>
        <time>2026-07-07T07:21:11.000Z</time>
      </trkpt>
      <trkpt lat="48.21397" lon="16.38345">
        <ele>186.569778</ele>
        <time>2026-07-07T07:21:12.000Z</time>
      </trkpt>
      <trkpt lat="48.21401" lon="16.38351">
        <ele>186.53202</ele>
        <time>2026-07-07T07:21:13.000Z</time>
      </trkpt>
      <trkpt lat="48.21404" lon="16.38356">
        <ele>186.494013</ele>
        <time>2026-07-07T07:21:14.000Z</time>
      </trkpt>
      <trkpt lat="48.21407" lon="16.38361">
        <ele>186.456634</ele>
        <time>2026-07-07T07:21:15.000Z</time>
      </trkpt>
      <trkpt lat="48.2141" lon="16.38366">
        <ele>186.420733</ele>
        <time>2026-07-07T07:21:16.000Z</time>
      </trkpt>
      <trkpt lat="48.21414" lon="16.38371">
        <ele>186.384622</ele>
        <time>2026-07-07T07:21:17.000Z</time>
      </trkpt>
      <trkpt lat="48.21417" lon="16.38376">
        <ele>186.349827</ele>
        <time>2026-07-07T07:21:18.000Z</time>
      </trkpt>
      <trkpt lat="48.2142" lon="16.38381">
        <ele>186.312078</ele>
        <time>2026-07-07T07:21:19.000Z</time>
      </trkpt>
      <trkpt lat="48.21424" lon="16.38386">
        <ele>186.27433</ele>
        <time>2026-07-07T07:21:20.000Z</time>
      </trkpt>
      <trkpt lat="48.21428" lon="16.3839">
        <ele>186.234322</ele>
        <time>2026-07-07T07:21:21.000Z</time>
      </trkpt>
      <trkpt lat="48.21432" lon="16.38396">
        <ele>186.194723</ele>
        <time>2026-07-07T07:21:22.000Z</time>
      </trkpt>
      <trkpt lat="48.21435" lon="16.38401">
        <ele>186.155526</ele>
        <time>2026-07-07T07:21:23.000Z</time>
      </trkpt>
      <trkpt lat="48.21438" lon="16.38407">
        <ele>186.118424</ele>
        <time>2026-07-07T07:21:24.000Z</time>
      </trkpt>
      <trkpt lat="48.21441" lon="16.38412">
        <ele>186.083013</ele>
        <time>2026-07-07T07:21:25.000Z</time>
      </trkpt>
      <trkpt lat="48.21443" lon="16.38418">
        <ele>186.047915</ele>
        <time>2026-07-07T07:21:26.000Z</time>
      </trkpt>
      <trkpt lat="48.21446" lon="16.38424">
        <ele>186.011884</ele>
        <time>2026-07-07T07:21:27.000Z</time>
      </trkpt>
      <trkpt lat="48.21448" lon="16.3843">
        <ele>185.973935</ele>
        <time>2026-07-07T07:21:28.000Z</time>
      </trkpt>
      <trkpt lat="48.2145" lon="16.38436">
        <ele>185.939307</ele>
        <time>2026-07-07T07:21:29.000Z</time>
      </trkpt>
      <trkpt lat="48.21452" lon="16.38442">
        <ele>185.935896</ele>
        <time>2026-07-07T07:21:30.000Z</time>
      </trkpt>
      <trkpt lat="48.21455" lon="16.38448">
        <ele>185.932409</ele>
        <time>2026-07-07T07:21:31.000Z</time>
      </trkpt>
      <trkpt lat="48.21458" lon="16.38454">
        <ele>185.928884</ele>
        <time>2026-07-07T07:21:32.000Z</time>
      </trkpt>
      <trkpt lat="48.21461" lon="16.38458">
        <ele>185.925323</ele>
        <time>2026-07-07T07:21:33.000Z</time>
      </trkpt>
      <trkpt lat="48.21465" lon="16.38463">
        <ele>185.921566</ele>
        <time>2026-07-07T07:21:34.000Z</time>
      </trkpt>
      <trkpt lat="48.2147" lon="16.38468">
        <ele>185.917601</ele>
        <time>2026-07-07T07:21:35.000Z</time>
      </trkpt>
      <trkpt lat="48.21473" lon="16.38473">
        <ele>185.913765</ele>
        <time>2026-07-07T07:21:36.000Z</time>
      </trkpt>
      <trkpt lat="48.21477" lon="16.38479">
        <ele>185.909945</ele>
        <time>2026-07-07T07:21:37.000Z</time>
      </trkpt>
      <trkpt lat="48.21481" lon="16.38485">
        <ele>185.905807</ele>
        <time>2026-07-07T07:21:38.000Z</time>
      </trkpt>
      <trkpt lat="48.21484" lon="16.38492">
        <ele>185.901727</ele>
        <time>2026-07-07T07:21:39.000Z</time>
      </trkpt>
      <trkpt lat="48.21488" lon="16.38498">
        <ele>185.89757</ele>
        <time>2026-07-07T07:21:40.000Z</time>
      </trkpt>
      <trkpt lat="48.21491" lon="16.38505">
        <ele>185.893452</ele>
        <time>2026-07-07T07:21:41.000Z</time>
      </trkpt>
      <trkpt lat="48.21495" lon="16.38511">
        <ele>185.889239</ele>
        <time>2026-07-07T07:21:42.000Z</time>
      </trkpt>
      <trkpt lat="48.21498" lon="16.38518">
        <ele>185.885121</ele>
        <time>2026-07-07T07:21:43.000Z</time>
      </trkpt>
      <trkpt lat="48.21502" lon="16.38524">
        <ele>185.881134</ele>
        <time>2026-07-07T07:21:44.000Z</time>
      </trkpt>
      <trkpt lat="48.21505" lon="16.3853">
        <ele>185.877262</ele>
        <time>2026-07-07T07:21:45.000Z</time>
      </trkpt>
      <trkpt lat="48.21508" lon="16.38536">
        <ele>185.873418</ele>
        <time>2026-07-07T07:21:46.000Z</time>
      </trkpt>
      <trkpt lat="48.21511" lon="16.38542">
        <ele>185.869768</ele>
        <time>2026-07-07T07:21:47.000Z</time>
      </trkpt>
      <trkpt lat="48.21514" lon="16.38549">
        <ele>185.866077</ele>
        <time>2026-07-07T07:21:48.000Z</time>
      </trkpt>
      <trkpt lat="48.21517" lon="16.38554">
        <ele>185.862459</ele>
        <time>2026-07-07T07:21:49.000Z</time>
      </trkpt>
      <trkpt lat="48.2152" lon="16.3856">
        <ele>185.858762</ele>
        <time>2026-07-07T07:21:50.000Z</time>
      </trkpt>
      <trkpt lat="48.21523" lon="16.38566">
        <ele>185.855228</ele>
        <time>2026-07-07T07:21:51.000Z</time>
      </trkpt>
      <trkpt lat="48.21526" lon="16.38572">
        <ele>185.851726</ele>
        <time>2026-07-07T07:21:52.000Z</time>
      </trkpt>
      <trkpt lat="48.21529" lon="16.38577">
        <ele>185.848223</ele>
        <time>2026-07-07T07:21:53.000Z</time>
      </trkpt>
      <trkpt lat="48.21532" lon="16.38582">
        <ele>185.844796</ele>
        <time>2026-07-07T07:21:54.000Z</time>
      </trkpt>
      <trkpt lat="48.21535" lon="16.38588">
        <ele>185.841424</ele>
        <time>2026-07-07T07:21:55.000Z</time>
      </trkpt>
      <trkpt lat="48.21537" lon="16.38593">
        <ele>185.838091</ele>
        <time>2026-07-07T07:21:56.000Z</time>
      </trkpt>
      <trkpt lat="48.2154" lon="16.38598">
        <ele>185.834848</ele>
        <time>2026-07-07T07:21:57.000Z</time>
      </trkpt>
      <trkpt lat="48.21544" lon="16.38603">
        <ele>185.831467</ele>
        <time>2026-07-07T07:21:58.000Z</time>
      </trkpt>
      <trkpt lat="48.21547" lon="16.38608">
        <ele>185.828115</ele>
        <time>2026-07-07T07:21:59.000Z</time>
      </trkpt>
      <trkpt lat="48.21549" lon="16.38613">
        <ele>185.824743</ele>
        <time>2026-07-07T07:22:00.000Z</time>
      </trkpt>
      <trkpt lat="48.21552" lon="16.38618">
        <ele>185.821533</ele>
        <time>2026-07-07T07:22:01.000Z</time>
      </trkpt>
      <trkpt lat="48.21555" lon="16.38623">
        <ele>185.818427</ele>
        <time>2026-07-07T07:22:02.000Z</time>
      </trkpt>
      <trkpt lat="48.21558" lon="16.38628">
        <ele>185.815234</ele>
        <time>2026-07-07T07:22:03.000Z</time>
      </trkpt>
      <trkpt lat="48.2156" lon="16.38633">
        <ele>185.812153</ele>
        <time>2026-07-07T07:22:04.000Z</time>
      </trkpt>
      <trkpt lat="48.21563" lon="16.38638">
        <ele>185.808871</ele>
        <time>2026-07-07T07:22:05.000Z</time>
      </trkpt>
      <trkpt lat="48.21566" lon="16.38644">
        <ele>185.804979</ele>
        <time>2026-07-07T07:22:06.000Z</time>
      </trkpt>
      <trkpt lat="48.21569" lon="16.38649">
        <ele>185.799866</ele>
        <time>2026-07-07T07:22:07.000Z</time>
      </trkpt>
      <trkpt lat="48.21571" lon="16.38654">
        <ele>185.794764</ele>
        <time>2026-07-07T07:22:08.000Z</time>
      </trkpt>
      <trkpt lat="48.21574" lon="16.38659">
        <ele>185.789592</ele>
        <time>2026-07-07T07:22:09.000Z</time>
      </trkpt>
      <trkpt lat="48.21577" lon="16.38665">
        <ele>185.784216</ele>
        <time>2026-07-07T07:22:10.000Z</time>
      </trkpt>
      <trkpt lat="48.2158" lon="16.3867">
        <ele>185.779162</ele>
        <time>2026-07-07T07:22:11.000Z</time>
      </trkpt>
      <trkpt lat="48.21583" lon="16.38675">
        <ele>185.774074</ele>
        <time>2026-07-07T07:22:12.000Z</time>
      </trkpt>
      <trkpt lat="48.21586" lon="16.3868">
        <ele>185.769004</ele>
        <time>2026-07-07T07:22:13.000Z</time>
      </trkpt>
      <trkpt lat="48.21588" lon="16.38685">
        <ele>185.764154</ele>
        <time>2026-07-07T07:22:14.000Z</time>
      </trkpt>
      <trkpt lat="48.21591" lon="16.38689">
        <ele>185.759636</ele>
        <time>2026-07-07T07:22:15.000Z</time>
      </trkpt>
      <trkpt lat="48.21593" lon="16.38692">
        <ele>185.756446</ele>
        <time>2026-07-07T07:22:16.000Z</time>
      </trkpt>
      <trkpt lat="48.21594" lon="16.38694">
        <ele>185.754712</ele>
        <time>2026-07-07T07:22:17.000Z</time>
      </trkpt>
      <trkpt lat="48.21594" lon="16.38695">
        <ele>185.75363</ele>
        <time>2026-07-07T07:22:18.000Z</time>
      </trkpt>
      <trkpt lat="48.21595" lon="16.38695">
        <ele>185.753277</ele>
        <time>2026-07-07T07:22:19.000Z</time>
      </trkpt>
      <trkpt lat="48.21595" lon="16.38695">
        <ele>185.753035</ele>
        <time>2026-07-07T07:22:20.000Z</time>
      </trkpt>
      <trkpt lat="48.21596" lon="16.38698">
        <ele>185.750097</ele>
        <time>2026-07-07T07:22:25.000Z</time>
      </trkpt>
      <trkpt lat="48.21598" lon="16.38701">
        <ele>185.747296</ele>
        <time>2026-07-07T07:22:26.000Z</time>
      </trkpt>
      <trkpt lat="48.21599" lon="16.38704">
        <ele>185.744428</ele>
        <time>2026-07-07T07:22:27.000Z</time>
      </trkpt>
      <trkpt lat="48.21601" lon="16.38708">
        <ele>185.741246</ele>
        <time>2026-07-07T07:22:28.000Z</time>
      </trkpt>
      <trkpt lat="48.21603" lon="16.38712">
        <ele>185.737232</ele>
        <time>2026-07-07T07:22:29.000Z</time>
      </trkpt>
      <trkpt lat="48.21605" lon="16.38718">
        <ele>185.732457</ele>
        <time>2026-07-07T07:22:30.000Z</time>
      </trkpt>
      <trkpt lat="48.21607" lon="16.38723">
        <ele>185.727491</ele>
        <time>2026-07-07T07:22:31.000Z</time>
      </trkpt>
      <trkpt lat="48.2161" lon="16.38728">
        <ele>185.722378</ele>
        <time>2026-07-07T07:22:32.000Z</time>
      </trkpt>
      <trkpt lat="48.21613" lon="16.38734">
        <ele>185.716943</ele>
        <time>2026-07-07T07:22:33.000Z</time>
      </trkpt>
      <trkpt lat="48.21616" lon="16.38739">
        <ele>185.711771</ele>
        <time>2026-07-07T07:22:34.000Z</time>
      </trkpt>
      <trkpt lat="48.21619" lon="16.38744">
        <ele>185.706394</ele>
        <time>2026-07-07T07:22:35.000Z</time>
      </trkpt>
      <trkpt lat="48.21622" lon="16.3875">
        <ele>185.700959</ele>
        <time>2026-07-07T07:22:36.000Z</time>
      </trkpt>
      <trkpt lat="48.21625" lon="16.38755">
        <ele>185.695464</ele>
        <time>2026-07-07T07:22:37.000Z</time>
      </trkpt>
      <trkpt lat="48.21628" lon="16.38761">
        <ele>185.68991</ele>
        <time>2026-07-07T07:22:38.000Z</time>
      </trkpt>
      <trkpt lat="48.21631" lon="16.38767">
        <ele>185.684546</ele>
        <time>2026-07-07T07:22:39.000Z</time>
      </trkpt>
      <trkpt lat="48.21634" lon="16.38772">
        <ele>185.679228</ele>
        <time>2026-07-07T07:22:40.000Z</time>
      </trkpt>
      <trkpt lat="48.21636" lon="16.38777">
        <ele>185.674071</ele>
        <time>2026-07-07T07:22:41.000Z</time>
      </trkpt>
      <trkpt lat="48.21639" lon="16.38783">
        <ele>185.668768</ele>
        <time>2026-07-07T07:22:42.000Z</time>
      </trkpt>
      <trkpt lat="48.21642" lon="16.38788">
        <ele>185.663595</ele>
        <time>2026-07-07T07:22:43.000Z</time>
      </trkpt>
      <trkpt lat="48.21645" lon="16.38793">
        <ele>185.658494</ele>
        <time>2026-07-07T07:22:44.000Z</time>
      </trkpt>
      <trkpt lat="48.21647" lon="16.38799">
        <ele>185.653337</ele>
        <time>2026-07-07T07:22:45.000Z</time>
      </trkpt>
      <trkpt lat="48.2165" lon="16.38805">
        <ele>185.647864</ele>
        <time>2026-07-07T07:22:46.000Z</time>
      </trkpt>
      <trkpt lat="48.21653" lon="16.38811">
        <ele>185.642031</ele>
        <time>2026-07-07T07:22:47.000Z</time>
      </trkpt>
      <trkpt lat="48.21656" lon="16.38817">
        <ele>185.636303</ele>
        <time>2026-07-07T07:22:48.000Z</time>
      </trkpt>
      <trkpt lat="48.21659" lon="16.38823">
        <ele>185.630306</ele>
        <time>2026-07-07T07:22:49.000Z</time>
      </trkpt>
      <trkpt lat="48.21662" lon="16.38829">
        <ele>185.624317</ele>
        <time>2026-07-07T07:22:50.000Z</time>
      </trkpt>
      <trkpt lat="48.21666" lon="16.38836">
        <ele>185.618177</ele>
        <time>2026-07-07T07:22:51.000Z</time>
      </trkpt>
      <trkpt lat="48.21669" lon="16.38842">
        <ele>185.612255</ele>
        <time>2026-07-07T07:22:52.000Z</time>
      </trkpt>
      <trkpt lat="48.21672" lon="16.38848">
        <ele>185.606209</ele>
        <time>2026-07-07T07:22:53.000Z</time>
      </trkpt>
      <trkpt lat="48.21675" lon="16.38855">
        <ele>185.600036</ele>
        <time>2026-07-07T07:22:54.000Z</time>
      </trkpt>
      <trkpt lat="48.21678" lon="16.38862">
        <ele>185.592964</ele>
        <time>2026-07-07T07:22:55.000Z</time>
      </trkpt>
      <trkpt lat="48.21682" lon="16.38868">
        <ele>185.585174</ele>
        <time>2026-07-07T07:22:56.000Z</time>
      </trkpt>
      <trkpt lat="48.21685" lon="16.38874">
        <ele>185.578018</ele>
        <time>2026-07-07T07:22:57.000Z</time>
      </trkpt>
      <trkpt lat="48.21688" lon="16.38881">
        <ele>185.570492</ele>
        <time>2026-07-07T07:22:58.000Z</time>
      </trkpt>
      <trkpt lat="48.21691" lon="16.38888">
        <ele>185.563105</ele>
        <time>2026-07-07T07:22:59.000Z</time>
      </trkpt>
      <trkpt lat="48.21695" lon="16.38895">
        <ele>185.555351</ele>
        <time>2026-07-07T07:23:00.000Z</time>
      </trkpt>
      <trkpt lat="48.21698" lon="16.38902">
        <ele>185.547826</ele>
        <time>2026-07-07T07:23:01.000Z</time>
      </trkpt>
      <trkpt lat="48.21701" lon="16.38909">
        <ele>185.540078</ele>
        <time>2026-07-07T07:23:02.000Z</time>
      </trkpt>
      <trkpt lat="48.21704" lon="16.38916">
        <ele>185.532181</ele>
        <time>2026-07-07T07:23:03.000Z</time>
      </trkpt>
      <trkpt lat="48.21708" lon="16.38924">
        <ele>185.524203</ele>
        <time>2026-07-07T07:23:04.000Z</time>
      </trkpt>
      <trkpt lat="48.21711" lon="16.38931">
        <ele>185.516152</ele>
        <time>2026-07-07T07:23:05.000Z</time>
      </trkpt>
      <trkpt lat="48.21715" lon="16.38938">
        <ele>185.507983</ele>
        <time>2026-07-07T07:23:06.000Z</time>
      </trkpt>
      <trkpt lat="48.21719" lon="16.38945">
        <ele>185.50016</ele>
        <time>2026-07-07T07:23:07.000Z</time>
      </trkpt>
      <trkpt lat="48.21722" lon="16.38952">
        <ele>185.491938</ele>
        <time>2026-07-07T07:23:08.000Z</time>
      </trkpt>
      <trkpt lat="48.21726" lon="16.3896">
        <ele>185.483727</ele>
        <time>2026-07-07T07:23:09.000Z</time>
      </trkpt>
      <trkpt lat="48.2173" lon="16.38967">
        <ele>185.475434</ele>
        <time>2026-07-07T07:23:10.000Z</time>
      </trkpt>
      <trkpt lat="48.21733" lon="16.38974">
        <ele>185.467387</ele>
        <time>2026-07-07T07:23:11.000Z</time>
      </trkpt>
      <trkpt lat="48.21737" lon="16.38981">
        <ele>185.459711</ele>
        <time>2026-07-07T07:23:12.000Z</time>
      </trkpt>
      <trkpt lat="48.2174" lon="16.38988">
        <ele>185.45216</ele>
        <time>2026-07-07T07:23:13.000Z</time>
      </trkpt>
      <trkpt lat="48.21743" lon="16.38994">
        <ele>185.445139</ele>
        <time>2026-07-07T07:23:14.000Z</time>
      </trkpt>
      <trkpt lat="48.21746" lon="16.39">
        <ele>185.438566</ele>
        <time>2026-07-07T07:23:15.000Z</time>
      </trkpt>
      <trkpt lat="48.21749" lon="16.39006">
        <ele>185.432064</ele>
        <time>2026-07-07T07:23:16.000Z</time>
      </trkpt>
      <trkpt lat="48.21752" lon="16.39011">
        <ele>185.425724</ele>
        <time>2026-07-07T07:23:17.000Z</time>
      </trkpt>
      <trkpt lat="48.21754" lon="16.39017">
        <ele>185.420062</ele>
        <time>2026-07-07T07:23:18.000Z</time>
      </trkpt>
      <trkpt lat="48.21756" lon="16.39021">
        <ele>185.415778</ele>
        <time>2026-07-07T07:23:19.000Z</time>
      </trkpt>
      <trkpt lat="48.21757" lon="16.39023">
        <ele>185.413295</ele>
        <time>2026-07-07T07:23:20.000Z</time>
      </trkpt>
      <trkpt lat="48.21756" lon="16.39024">
        <ele>185.412756</ele>
        <time>2026-07-07T07:23:21.000Z</time>
      </trkpt>
      <trkpt lat="48.21756" lon="16.39024">
        <ele>185.412487</ele>
        <time>2026-07-07T07:23:22.000Z</time>
      </trkpt>
      <trkpt lat="48.21756" lon="16.3903">
        <ele>185.407109</ele>
        <time>2026-07-07T07:23:28.000Z</time>
      </trkpt>
      <trkpt lat="48.21756" lon="16.39033">
        <ele>185.404331</ele>
        <time>2026-07-07T07:23:29.000Z</time>
      </trkpt>
      <trkpt lat="48.21755" lon="16.39036">
        <ele>185.401127</ele>
        <time>2026-07-07T07:23:30.000Z</time>
      </trkpt>
      <trkpt lat="48.21755" lon="16.3904">
        <ele>185.397424</ele>
        <time>2026-07-07T07:23:31.000Z</time>
      </trkpt>
      <trkpt lat="48.21753" lon="16.39045">
        <ele>185.393168</ele>
        <time>2026-07-07T07:23:32.000Z</time>
      </trkpt>
      <trkpt lat="48.21752" lon="16.39049">
        <ele>185.388523</ele>
        <time>2026-07-07T07:23:33.000Z</time>
      </trkpt>
      <trkpt lat="48.21749" lon="16.39054">
        <ele>185.383433</ele>
        <time>2026-07-07T07:23:34.000Z</time>
      </trkpt>
      <trkpt lat="48.21747" lon="16.39058">
        <ele>185.37805</ele>
        <time>2026-07-07T07:23:35.000Z</time>
      </trkpt>
      <trkpt lat="48.21743" lon="16.39062">
        <ele>185.372462</ele>
        <time>2026-07-07T07:23:36.000Z</time>
      </trkpt>
      <trkpt lat="48.2174" lon="16.39066">
        <ele>185.366867</ele>
        <time>2026-07-07T07:23:37.000Z</time>
      </trkpt>
      <trkpt lat="48.21737" lon="16.3907">
        <ele>185.361476</ele>
        <time>2026-07-07T07:23:38.000Z</time>
      </trkpt>
      <trkpt lat="48.21734" lon="16.39074">
        <ele>185.357467</ele>
        <time>2026-07-07T07:23:39.000Z</time>
      </trkpt>
      <trkpt lat="48.21731" lon="16.39078">
        <ele>185.355396</ele>
        <time>2026-07-07T07:23:40.000Z</time>
      </trkpt>
      <trkpt lat="48.21728" lon="16.39082">
        <ele>185.353306</ele>
        <time>2026-07-07T07:23:41.000Z</time>
      </trkpt>
      <trkpt lat="48.21726" lon="16.39086">
        <ele>185.3514</ele>
        <time>2026-07-07T07:23:42.000Z</time>
      </trkpt>
      <trkpt lat="48.21723" lon="16.39089">
        <ele>185.349647</ele>
        <time>2026-07-07T07:23:43.000Z</time>
      </trkpt>
      <trkpt lat="48.2172" lon="16.39091">
        <ele>185.347998</ele>
        <time>2026-07-07T07:23:44.000Z</time>
      </trkpt>
      <trkpt lat="48.21717" lon="16.39092">
        <ele>185.346419</ele>
        <time>2026-07-07T07:23:45.000Z</time>
      </trkpt>
      <trkpt lat="48.21714" lon="16.39093">
        <ele>185.34485</ele>
        <time>2026-07-07T07:23:46.000Z</time>
      </trkpt>
      <trkpt lat="48.21712" lon="16.39096">
        <ele>185.343325</ele>
        <time>2026-07-07T07:23:47.000Z</time>
      </trkpt>
      <trkpt lat="48.21712" lon="16.39101">
        <ele>185.341808</ele>
        <time>2026-07-07T07:23:48.000Z</time>
      </trkpt>
      <trkpt lat="48.21712" lon="16.39105">
        <ele>185.340174</ele>
        <time>2026-07-07T07:23:49.000Z</time>
      </trkpt>
      <trkpt lat="48.21712" lon="16.39109">
        <ele>185.338745</ele>
        <time>2026-07-07T07:23:50.000Z</time>
      </trkpt>
      <trkpt lat="48.21712" lon="16.39112">
        <ele>185.337697</ele>
        <time>2026-07-07T07:23:51.000Z</time>
      </trkpt>
      <trkpt lat="48.21712" lon="16.39115">
        <ele>185.336932</ele>
        <time>2026-07-07T07:23:52.000Z</time>
      </trkpt>
      <trkpt lat="48.21712" lon="16.39116">
        <ele>185.336569</ele>
        <time>2026-07-07T07:23:53.000Z</time>
      </trkpt>
      <trkpt lat="48.2171" lon="16.39125">
        <ele>185.333073</ele>
        <time>2026-07-07T07:24:09.000Z</time>
      </trkpt>
      <trkpt lat="48.21709" lon="16.39128">
        <ele>185.331907</ele>
        <time>2026-07-07T07:24:10.000Z</time>
      </trkpt>
      <trkpt lat="48.21708" lon="16.39131">
        <ele>185.330624</ele>
        <time>2026-07-07T07:24:11.000Z</time>
      </trkpt>
      <trkpt lat="48.21706" lon="16.39135">
        <ele>185.329235</ele>
        <time>2026-07-07T07:24:12.000Z</time>
      </trkpt>
      <trkpt lat="48.21705" lon="16.39138">
        <ele>185.327846</ele>
        <time>2026-07-07T07:24:13.000Z</time>
      </trkpt>
      <trkpt lat="48.21703" lon="16.39141">
        <ele>185.326486</ele>
        <time>2026-07-07T07:24:14.000Z</time>
      </trkpt>
      <trkpt lat="48.21702" lon="16.39144">
        <ele>185.325057</ele>
        <time>2026-07-07T07:24:15.000Z</time>
      </trkpt>
      <trkpt lat="48.217" lon="16.39147">
        <ele>185.323766</ele>
        <time>2026-07-07T07:24:16.000Z</time>
      </trkpt>
      <trkpt lat="48.21698" lon="16.39149">
        <ele>185.322634</ele>
        <time>2026-07-07T07:24:17.000Z</time>
      </trkpt>
      <trkpt lat="48.21697" lon="16.39151">
        <ele>185.321672</ele>
        <time>2026-07-07T07:24:18.000Z</time>
      </trkpt>
      <trkpt lat="48.21696" lon="16.39152">
        <ele>185.321004</ele>
        <time>2026-07-07T07:24:19.000Z</time>
      </trkpt>
      <trkpt lat="48.21695" lon="16.39153">
        <ele>185.320628</ele>
        <time>2026-07-07T07:24:20.000Z</time>
      </trkpt>
      <trkpt lat="48.21695" lon="16.39153">
        <ele>185.320454</ele>
        <time>2026-07-07T07:24:21.000Z</time>
      </trkpt>
      <trkpt lat="48.21695" lon="16.39154">
        <ele>185.320266</ele>
        <time>2026-07-07T07:24:22.000Z</time>
      </trkpt>
      <trkpt lat="48.21693" lon="16.39157">
        <ele>185.318877</ele>
        <time>2026-07-07T07:24:27.000Z</time>
      </trkpt>
      <trkpt lat="48.21694" lon="16.39159">
        <ele>185.31797</ele>
        <time>2026-07-07T07:24:28.000Z</time>
      </trkpt>
      <trkpt lat="48.21695" lon="16.39162">
        <ele>185.316943</ele>
        <time>2026-07-07T07:24:29.000Z</time>
      </trkpt>
      <trkpt lat="48.21695" lon="16.39165">
        <ele>185.315903</ele>
        <time>2026-07-07T07:24:30.000Z</time>
      </trkpt>
      <trkpt lat="48.21696" lon="16.39168">
        <ele>185.314848</ele>
        <time>2026-07-07T07:24:32.000Z</time>
      </trkpt>
      <trkpt lat="48.21696" lon="16.3917">
        <ele>185.314047</ele>
        <time>2026-07-07T07:24:33.000Z</time>
      </trkpt>
      <trkpt lat="48.21696" lon="16.39172">
        <ele>185.313515</ele>
        <time>2026-07-07T07:24:34.000Z</time>
      </trkpt>
      <trkpt lat="48.21695" lon="16.39172">
        <ele>185.313225</ele>
        <time>2026-07-07T07:24:35.000Z</time>
      </trkpt>
      <trkpt lat="48.21695" lon="16.39172">
        <ele>185.313173</ele>
        <time>2026-07-07T07:24:36.000Z</time>
      </trkpt>
      <trkpt lat="48.21689" lon="16.39179">
        <ele>185.308872</ele>
        <time>2026-07-07T07:25:03.000Z</time>
      </trkpt>
      <trkpt lat="48.21686" lon="16.39181">
        <ele>185.307491</ele>
        <time>2026-07-07T07:25:04.000Z</time>
      </trkpt>
      <trkpt lat="48.21684" lon="16.39182">
        <ele>185.306183</ele>
        <time>2026-07-07T07:25:05.000Z</time>
      </trkpt>
      <trkpt lat="48.21682" lon="16.39185">
        <ele>185.304865</ele>
        <time>2026-07-07T07:25:06.000Z</time>
      </trkpt>
      <trkpt lat="48.21682" lon="16.39188">
        <ele>185.303535</ele>
        <time>2026-07-07T07:25:07.000Z</time>
      </trkpt>
      <trkpt lat="48.21682" lon="16.39193">
        <ele>185.301928</ele>
        <time>2026-07-07T07:25:08.000Z</time>
      </trkpt>
      <trkpt lat="48.21683" lon="16.39198">
        <ele>185.300196</ele>
        <time>2026-07-07T07:25:09.000Z</time>
      </trkpt>
      <trkpt lat="48.21683" lon="16.39203">
        <ele>185.298455</ele>
        <time>2026-07-07T07:25:10.000Z</time>
      </trkpt>
      <trkpt lat="48.21683" lon="16.39208">
        <ele>185.296682</ele>
        <time>2026-07-07T07:25:11.000Z</time>
      </trkpt>
      <trkpt lat="48.21683" lon="16.39214">
        <ele>185.294695</ele>
        <time>2026-07-07T07:25:12.000Z</time>
      </trkpt>
      <trkpt lat="48.21682" lon="16.3922">
        <ele>185.292577</ele>
        <time>2026-07-07T07:25:13.000Z</time>
      </trkpt>
      <trkpt lat="48.21682" lon="16.39226">
        <ele>185.290476</ele>
        <time>2026-07-07T07:25:14.000Z</time>
      </trkpt>
      <trkpt lat="48.21681" lon="16.39231">
        <ele>185.288488</ele>
        <time>2026-07-07T07:25:15.000Z</time>
      </trkpt>
      <trkpt lat="48.21681" lon="16.39237">
        <ele>185.286455</ele>
        <time>2026-07-07T07:25:16.000Z</time>
      </trkpt>
      <trkpt lat="48.21681" lon="16.39243">
        <ele>185.28454</ele>
        <time>2026-07-07T07:25:17.000Z</time>
      </trkpt>
      <trkpt lat="48.21681" lon="16.39248">
        <ele>185.282626</ele>
        <time>2026-07-07T07:25:18.000Z</time>
      </trkpt>
      <trkpt lat="48.21681" lon="16.39253">
        <ele>185.280765</ele>
        <time>2026-07-07T07:25:19.000Z</time>
      </trkpt>
      <trkpt lat="48.21682" lon="16.39259">
        <ele>185.27887</ele>
        <time>2026-07-07T07:25:20.000Z</time>
      </trkpt>
      <trkpt lat="48.21682" lon="16.39264">
        <ele>185.277201</ele>
        <time>2026-07-07T07:25:21.000Z</time>
      </trkpt>
      <trkpt lat="48.21681" lon="16.39268">
        <ele>185.275512</ele>
        <time>2026-07-07T07:25:22.000Z</time>
      </trkpt>
      <trkpt lat="48.2168" lon="16.39273">
        <ele>185.273828</ele>
        <time>2026-07-07T07:25:23.000Z</time>
      </trkpt>
      <trkpt lat="48.21678" lon="16.39277">
        <ele>185.272092</ele>
        <time>2026-07-07T07:25:24.000Z</time>
      </trkpt>
      <trkpt lat="48.21676" lon="16.39281">
        <ele>185.270468</ele>
        <time>2026-07-07T07:25:25.000Z</time>
      </trkpt>
      <trkpt lat="48.21675" lon="16.39284">
        <ele>185.268903</ele>
        <time>2026-07-07T07:25:26.000Z</time>
      </trkpt>
      <trkpt lat="48.21673" lon="16.39288">
        <ele>185.267394</ele>
        <time>2026-07-07T07:25:27.000Z</time>
      </trkpt>
      <trkpt lat="48.21671" lon="16.39291">
        <ele>185.266121</ele>
        <time>2026-07-07T07:25:28.000Z</time>
      </trkpt>
      <trkpt lat="48.2167" lon="16.39294">
        <ele>185.264847</ele>
        <time>2026-07-07T07:25:29.000Z</time>
      </trkpt>
      <trkpt lat="48.21669" lon="16.39297">
        <ele>185.269659</ele>
        <time>2026-07-07T07:25:30.000Z</time>
      </trkpt>
      <trkpt lat="48.21667" lon="16.393">
        <ele>185.277113</ele>
        <time>2026-07-07T07:25:31.000Z</time>
      </trkpt>
      <trkpt lat="48.21666" lon="16.39304">
        <ele>185.284889</ele>
        <time>2026-07-07T07:25:32.000Z</time>
      </trkpt>
      <trkpt lat="48.21664" lon="16.39307">
        <ele>185.293142</ele>
        <time>2026-07-07T07:25:33.000Z</time>
      </trkpt>
      <trkpt lat="48.21662" lon="16.3931">
        <ele>185.301089</ele>
        <time>2026-07-07T07:25:34.000Z</time>
      </trkpt>
      <trkpt lat="48.21661" lon="16.39314">
        <ele>185.308809</ele>
        <time>2026-07-07T07:25:35.000Z</time>
      </trkpt>
      <trkpt lat="48.2166" lon="16.39318">
        <ele>185.317215</ele>
        <time>2026-07-07T07:25:36.000Z</time>
      </trkpt>
      <trkpt lat="48.2166" lon="16.39323">
        <ele>185.325453</ele>
        <time>2026-07-07T07:25:37.000Z</time>
      </trkpt>
      <trkpt lat="48.2166" lon="16.39326">
        <ele>185.332693</ele>
        <time>2026-07-07T07:25:38.000Z</time>
      </trkpt>
      <trkpt lat="48.21661" lon="16.39331">
        <ele>185.341312</ele>
        <time>2026-07-07T07:25:39.000Z</time>
      </trkpt>
      <trkpt lat="48.21661" lon="16.39335">
        <ele>185.349124</ele>
        <time>2026-07-07T07:25:40.000Z</time>
      </trkpt>
      <trkpt lat="48.21662" lon="16.39339">
        <ele>185.356878</ele>
        <time>2026-07-07T07:25:41.000Z</time>
      </trkpt>
      <trkpt lat="48.21663" lon="16.39343">
        <ele>185.364943</ele>
        <time>2026-07-07T07:25:42.000Z</time>
      </trkpt>
      <trkpt lat="48.21663" lon="16.39347">
        <ele>185.373635</ele>
        <time>2026-07-07T07:25:43.000Z</time>
      </trkpt>
      <trkpt lat="48.21663" lon="16.39352">
        <ele>185.381764</ele>
        <time>2026-07-07T07:25:44.000Z</time>
      </trkpt>
      <trkpt lat="48.21661" lon="16.39355">
        <ele>185.389734</ele>
        <time>2026-07-07T07:25:45.000Z</time>
      </trkpt>
      <trkpt lat="48.2166" lon="16.39359">
        <ele>185.398141</ele>
        <time>2026-07-07T07:25:46.000Z</time>
      </trkpt>
      <trkpt lat="48.21658" lon="16.39363">
        <ele>185.405981</ele>
        <time>2026-07-07T07:25:47.000Z</time>
      </trkpt>
      <trkpt lat="48.21658" lon="16.39367">
        <ele>185.41403</ele>
        <time>2026-07-07T07:25:48.000Z</time>
      </trkpt>
      <trkpt lat="48.21659" lon="16.3937">
        <ele>185.419553</ele>
        <time>2026-07-07T07:25:49.000Z</time>
      </trkpt>
      <trkpt lat="48.21659" lon="16.39373">
        <ele>185.425333</ele>
        <time>2026-07-07T07:25:50.000Z</time>
      </trkpt>
      <trkpt lat="48.21659" lon="16.39376">
        <ele>185.431457</ele>
        <time>2026-07-07T07:25:51.000Z</time>
      </trkpt>
      <trkpt lat="48.21659" lon="16.39378">
        <ele>185.436443</ele>
        <time>2026-07-07T07:25:52.000Z</time>
      </trkpt>
      <trkpt lat="48.21659" lon="16.39381">
        <ele>185.441215</ele>
        <time>2026-07-07T07:25:53.000Z</time>
      </trkpt>
      <trkpt lat="48.21659" lon="16.39382">
        <ele>185.442954</ele>
        <time>2026-07-07T07:25:54.000Z</time>
      </trkpt>
      <trkpt lat="48.21659" lon="16.39382">
        <ele>185.443144</ele>
        <time>2026-07-07T07:25:55.000Z</time>
      </trkpt>
      <trkpt lat="48.21665" lon="16.39384">
        <ele>185.460604</ele>
        <time>2026-07-07T07:26:09.000Z</time>
      </trkpt>
      <trkpt lat="48.21666" lon="16.39385">
        <ele>185.465876</ele>
        <time>2026-07-07T07:26:10.000Z</time>
      </trkpt>
      <trkpt lat="48.21668" lon="16.39388">
        <ele>185.471873</ele>
        <time>2026-07-07T07:26:11.000Z</time>
      </trkpt>
      <trkpt lat="48.21669" lon="16.3939">
        <ele>185.478571</ele>
        <time>2026-07-07T07:26:12.000Z</time>
      </trkpt>
      <trkpt lat="48.21671" lon="16.39394">
        <ele>185.486347</ele>
        <time>2026-07-07T07:26:13.000Z</time>
      </trkpt>
      <trkpt lat="48.21672" lon="16.39398">
        <ele>185.495092</ele>
        <time>2026-07-07T07:26:14.000Z</time>
      </trkpt>
      <trkpt lat="48.21674" lon="16.39403">
        <ele>185.505218</ele>
        <time>2026-07-07T07:26:15.000Z</time>
      </trkpt>
      <trkpt lat="48.21674" lon="16.39408">
        <ele>185.515333</ele>
        <time>2026-07-07T07:26:16.000Z</time>
      </trkpt>
      <trkpt lat="48.21673" lon="16.39413">
        <ele>185.526011</ele>
        <time>2026-07-07T07:26:17.000Z</time>
      </trkpt>
      <trkpt lat="48.21672" lon="16.39419">
        <ele>185.536432</ele>
        <time>2026-07-07T07:26:18.000Z</time>
      </trkpt>
      <trkpt lat="48.21671" lon="16.39424">
        <ele>185.547158</ele>
        <time>2026-07-07T07:26:19.000Z</time>
      </trkpt>
      <trkpt lat="48.2167" lon="16.3943">
        <ele>185.558389</ele>
        <time>2026-07-07T07:26:20.000Z</time>
      </trkpt>
      <trkpt lat="48.21669" lon="16.39436">
        <ele>185.569674</ele>
        <time>2026-07-07T07:26:21.000Z</time>
      </trkpt>
      <trkpt lat="48.21668" lon="16.39442">
        <ele>185.581392</ele>
        <time>2026-07-07T07:26:22.000Z</time>
      </trkpt>
      <trkpt lat="48.21668" lon="16.39448">
        <ele>185.593518</ele>
        <time>2026-07-07T07:26:23.000Z</time>
      </trkpt>
      <trkpt lat="48.21667" lon="16.39454">
        <ele>185.605955</ele>
        <time>2026-07-07T07:26:24.000Z</time>
      </trkpt>
      <trkpt lat="48.21667" lon="16.39461">
        <ele>185.617768</ele>
        <time>2026-07-07T07:26:25.000Z</time>
      </trkpt>
      <trkpt lat="48.21668" lon="16.39466">
        <ele>185.628878</ele>
        <time>2026-07-07T07:26:26.000Z</time>
      </trkpt>
      <trkpt lat="48.21668" lon="16.39472">
        <ele>185.640438</ele>
        <time>2026-07-07T07:26:27.000Z</time>
      </trkpt>
      <trkpt lat="48.21669" lon="16.39478">
        <ele>185.652222</ele>
        <time>2026-07-07T07:26:28.000Z</time>
      </trkpt>
      <trkpt lat="48.21671" lon="16.39484">
        <ele>185.663249</ele>
        <time>2026-07-07T07:26:29.000Z</time>
      </trkpt>
      <trkpt lat="48.21672" lon="16.39488">
        <ele>185.672287</ele>
        <time>2026-07-07T07:26:30.000Z</time>
      </trkpt>
      <trkpt lat="48.21673" lon="16.39492">
        <ele>185.680249</ele>
        <time>2026-07-07T07:26:31.000Z</time>
      </trkpt>
      <trkpt lat="48.21673" lon="16.39495">
        <ele>185.685192</ele>
        <time>2026-07-07T07:26:32.000Z</time>
      </trkpt>
      <trkpt lat="48.21674" lon="16.39497">
        <ele>185.689423</ele>
        <time>2026-07-07T07:26:33.000Z</time>
      </trkpt>
      <trkpt lat="48.21674" lon="16.39497">
        <ele>185.690232</ele>
        <time>2026-07-07T07:26:34.000Z</time>
      </trkpt>
      <trkpt lat="48.21671" lon="16.39496">
        <ele>185.699274</ele>
        <time>2026-07-07T07:27:08.000Z</time>
      </trkpt>
      <trkpt lat="48.2167" lon="16.39492">
        <ele>185.706067</ele>
        <time>2026-07-07T07:27:09.000Z</time>
      </trkpt>
      <trkpt lat="48.2167" lon="16.39488">
        <ele>185.713548</ele>
        <time>2026-07-07T07:27:10.000Z</time>
      </trkpt>
      <trkpt lat="48.21669" lon="16.39484">
        <ele>185.72138</ele>
        <time>2026-07-07T07:27:11.000Z</time>
      </trkpt>
      <trkpt lat="48.21669" lon="16.3948">
        <ele>185.729429</ele>
        <time>2026-07-07T07:27:12.000Z</time>
      </trkpt>
      <trkpt lat="48.21669" lon="16.39476">
        <ele>185.738121</ele>
        <time>2026-07-07T07:27:13.000Z</time>
      </trkpt>
      <trkpt lat="48.21668" lon="16.3947">
        <ele>185.748066</ele>
        <time>2026-07-07T07:27:14.000Z</time>
      </trkpt>
      <trkpt lat="48.21668" lon="16.39465">
        <ele>185.758228</ele>
        <time>2026-07-07T07:27:15.000Z</time>
      </trkpt>
      <trkpt lat="48.21668" lon="16.3946">
        <ele>185.768327</ele>
        <time>2026-07-07T07:27:16.000Z</time>
      </trkpt>
      <trkpt lat="48.21668" lon="16.39454">
        <ele>185.77901</ele>
        <time>2026-07-07T07:27:17.000Z</time>
      </trkpt>
      <trkpt lat="48.21669" lon="16.39448">
        <ele>185.783583</ele>
        <time>2026-07-07T07:27:18.000Z</time>
      </trkpt>
      <trkpt lat="48.2167" lon="16.39442">
        <ele>185.788413</ele>
        <time>2026-07-07T07:27:19.000Z</time>
      </trkpt>
      <trkpt lat="48.2167" lon="16.39435">
        <ele>185.793392</ele>
        <time>2026-07-07T07:27:20.000Z</time>
      </trkpt>
      <trkpt lat="48.21671" lon="16.39429">
        <ele>185.798584</ele>
        <time>2026-07-07T07:27:21.000Z</time>
      </trkpt>
      <trkpt lat="48.21672" lon="16.39422">
        <ele>185.803776</ele>
        <time>2026-07-07T07:27:22.000Z</time>
      </trkpt>
      <trkpt lat="48.21673" lon="16.39415">
        <ele>185.808848</ele>
        <time>2026-07-07T07:27:23.000Z</time>
      </trkpt>
      <trkpt lat="48.21674" lon="16.39409">
        <ele>185.813745</ele>
        <time>2026-07-07T07:27:24.000Z</time>
      </trkpt>
      <trkpt lat="48.21674" lon="16.39403">
        <ele>185.818511</ele>
        <time>2026-07-07T07:27:25.000Z</time>
      </trkpt>
      <trkpt lat="48.21673" lon="16.39397">
        <ele>185.823357</ele>
        <time>2026-07-07T07:27:26.000Z</time>
      </trkpt>
      <trkpt lat="48.2167" lon="16.39392">
        <ele>185.828017</ele>
        <time>2026-07-07T07:27:27.000Z</time>
      </trkpt>
      <trkpt lat="48.21668" lon="16.39388">
        <ele>185.832353</ele>
        <time>2026-07-07T07:27:28.000Z</time>
      </trkpt>
      <trkpt lat="48.21665" lon="16.39385">
        <ele>185.836444</ele>
        <time>2026-07-07T07:27:29.000Z</time>
      </trkpt>
      <trkpt lat="48.21662" lon="16.39383">
        <ele>185.839845</ele>
        <time>2026-07-07T07:27:30.000Z</time>
      </trkpt>
      <trkpt lat="48.2166" lon="16.39383">
        <ele>185.842346</ele>
        <time>2026-07-07T07:27:31.000Z</time>
      </trkpt>
      <trkpt lat="48.21658" lon="16.39383">
        <ele>185.843716</ele>
        <time>2026-07-07T07:27:32.000Z</time>
      </trkpt>
      <trkpt lat="48.21658" lon="16.39383">
        <ele>185.84383</ele>
        <time>2026-07-07T07:27:33.000Z</time>
      </trkpt>
      <trkpt lat="48.21652" lon="16.39381">
        <ele>185.850695</ele>
        <time>2026-07-07T07:28:33.000Z</time>
      </trkpt>
      <trkpt lat="48.2165" lon="16.3938">
        <ele>185.853232</ele>
        <time>2026-07-07T07:28:34.000Z</time>
      </trkpt>
      <trkpt lat="48.21649" lon="16.39378">
        <ele>185.855569</ele>
        <time>2026-07-07T07:28:35.000Z</time>
      </trkpt>
      <trkpt lat="48.21646" lon="16.39377">
        <ele>185.858266</ele>
        <time>2026-07-07T07:28:36.000Z</time>
      </trkpt>
      <trkpt lat="48.21644" lon="16.39377">
        <ele>185.860792</ele>
        <time>2026-07-07T07:28:37.000Z</time>
      </trkpt>
      <trkpt lat="48.21643" lon="16.39377">
        <ele>185.862496</ele>
        <time>2026-07-07T07:28:38.000Z</time>
      </trkpt>
      <trkpt lat="48.21642" lon="16.39377">
        <ele>185.863416</ele>
        <time>2026-07-07T07:28:39.000Z</time>
      </trkpt>
      <trkpt lat="48.21641" lon="16.39377">
        <ele>185.864243</ele>
        <time>2026-07-07T07:28:40.000Z</time>
      </trkpt>
      <trkpt lat="48.2164" lon="16.39378">
        <ele>185.866025</ele>
        <time>2026-07-07T07:28:41.000Z</time>
      </trkpt>
      <trkpt lat="48.21638" lon="16.39379">
        <ele>185.868098</ele>
        <time>2026-07-07T07:28:42.000Z</time>
      </trkpt>
      <trkpt lat="48.21636" lon="16.3938">
        <ele>185.871007</ele>
        <time>2026-07-07T07:28:43.000Z</time>
      </trkpt>
      <trkpt lat="48.21633" lon="16.39382">
        <ele>185.874621</ele>
        <time>2026-07-07T07:28:44.000Z</time>
      </trkpt>
      <trkpt lat="48.2163" lon="16.39384">
        <ele>185.878479</ele>
        <time>2026-07-07T07:28:45.000Z</time>
      </trkpt>
      <trkpt lat="48.21627" lon="16.39387">
        <ele>185.882489</ele>
        <time>2026-07-07T07:28:46.000Z</time>
      </trkpt>
      <trkpt lat="48.21624" lon="16.39391">
        <ele>185.886944</ele>
        <time>2026-07-07T07:28:47.000Z</time>
      </trkpt>
      <trkpt lat="48.2162" lon="16.39395">
        <ele>185.89187</ele>
        <time>2026-07-07T07:28:48.000Z</time>
      </trkpt>
      <trkpt lat="48.21617" lon="16.394">
        <ele>185.897086</ele>
        <time>2026-07-07T07:28:49.000Z</time>
      </trkpt>
      <trkpt lat="48.21614" lon="16.39405">
        <ele>185.902174</ele>
        <time>2026-07-07T07:28:50.000Z</time>
      </trkpt>
      <trkpt lat="48.21611" lon="16.3941">
        <ele>185.90723</ele>
        <time>2026-07-07T07:28:51.000Z</time>
      </trkpt>
      <trkpt lat="48.21609" lon="16.39415">
        <ele>185.912156</ele>
        <time>2026-07-07T07:28:52.000Z</time>
      </trkpt>
      <trkpt lat="48.21606" lon="16.39421">
        <ele>185.917212</ele>
        <time>2026-07-07T07:28:53.000Z</time>
      </trkpt>
      <trkpt lat="48.21603" lon="16.39426">
        <ele>185.922079</ele>
        <time>2026-07-07T07:28:54.000Z</time>
      </trkpt>
      <trkpt lat="48.216" lon="16.39431">
        <ele>185.927194</ele>
        <time>2026-07-07T07:28:55.000Z</time>
      </trkpt>
      <trkpt lat="48.21598" lon="16.39436">
        <ele>185.932002</ele>
        <time>2026-07-07T07:28:56.000Z</time>
      </trkpt>
      <trkpt lat="48.21595" lon="16.39441">
        <ele>185.936597</ele>
        <time>2026-07-07T07:28:57.000Z</time>
      </trkpt>
      <trkpt lat="48.21593" lon="16.39445">
        <ele>185.941233</ele>
        <time>2026-07-07T07:28:58.000Z</time>
      </trkpt>
      <trkpt lat="48.2159" lon="16.3945">
        <ele>185.945663</ele>
        <time>2026-07-07T07:28:59.000Z</time>
      </trkpt>
      <trkpt lat="48.21588" lon="16.39454">
        <ele>185.950094</ele>
        <time>2026-07-07T07:29:00.000Z</time>
      </trkpt>
      <trkpt lat="48.21585" lon="16.39459">
        <ele>185.954525</ele>
        <time>2026-07-07T07:29:01.000Z</time>
      </trkpt>
      <trkpt lat="48.21583" lon="16.39464">
        <ele>185.959073</ele>
        <time>2026-07-07T07:29:02.000Z</time>
      </trkpt>
      <trkpt lat="48.2158" lon="16.39468">
        <ele>185.96368</ele>
        <time>2026-07-07T07:29:03.000Z</time>
      </trkpt>
      <trkpt lat="48.21578" lon="16.39473">
        <ele>185.96809</ele>
        <time>2026-07-07T07:29:04.000Z</time>
      </trkpt>
      <trkpt lat="48.21575" lon="16.39478">
        <ele>185.972628</ele>
        <time>2026-07-07T07:29:05.000Z</time>
      </trkpt>
      <trkpt lat="48.21573" lon="16.39483">
        <ele>185.977176</ele>
        <time>2026-07-07T07:29:06.000Z</time>
      </trkpt>
      <trkpt lat="48.2157" lon="16.39487">
        <ele>185.981724</ele>
        <time>2026-07-07T07:29:07.000Z</time>
      </trkpt>
      <trkpt lat="48.21568" lon="16.39492">
        <ele>185.976981</ele>
        <time>2026-07-07T07:29:08.000Z</time>
      </trkpt>
      <trkpt lat="48.21565" lon="16.39497">
        <ele>185.968503</ele>
        <time>2026-07-07T07:29:09.000Z</time>
      </trkpt>
      <trkpt lat="48.21563" lon="16.39502">
        <ele>185.960477</ele>
        <time>2026-07-07T07:29:10.000Z</time>
      </trkpt>
      <trkpt lat="48.2156" lon="16.39507">
        <ele>185.951793</ele>
        <time>2026-07-07T07:29:11.000Z</time>
      </trkpt>
      <trkpt lat="48.21557" lon="16.39512">
        <ele>185.943437</ele>
        <time>2026-07-07T07:29:12.000Z</time>
      </trkpt>
      <trkpt lat="48.21555" lon="16.39517">
        <ele>185.934753</ele>
        <time>2026-07-07T07:29:13.000Z</time>
      </trkpt>
      <trkpt lat="48.21552" lon="16.39522">
        <ele>185.926545</ele>
        <time>2026-07-07T07:29:14.000Z</time>
      </trkpt>
      <trkpt lat="48.21549" lon="16.39527">
        <ele>185.917507</ele>
        <time>2026-07-07T07:29:15.000Z</time>
      </trkpt>
      <trkpt lat="48.21546" lon="16.39531">
        <ele>185.909396</ele>
        <time>2026-07-07T07:29:16.000Z</time>
      </trkpt>
      <trkpt lat="48.21543" lon="16.39536">
        <ele>185.90132</ele>
        <time>2026-07-07T07:29:17.000Z</time>
      </trkpt>
      <trkpt lat="48.21541" lon="16.3954">
        <ele>185.893601</ele>
        <time>2026-07-07T07:29:18.000Z</time>
      </trkpt>
      <trkpt lat="48.21538" lon="16.39545">
        <ele>185.885426</ele>
        <time>2026-07-07T07:29:19.000Z</time>
      </trkpt>
      <trkpt lat="48.21535" lon="16.3955">
        <ele>185.877708</ele>
        <time>2026-07-07T07:29:20.000Z</time>
      </trkpt>
      <trkpt lat="48.21533" lon="16.39554">
        <ele>185.870289</ele>
        <time>2026-07-07T07:29:21.000Z</time>
      </trkpt>
      <trkpt lat="48.21531" lon="16.39558">
        <ele>185.863228</ele>
        <time>2026-07-07T07:29:22.000Z</time>
      </trkpt>
      <trkpt lat="48.21529" lon="16.39562">
        <ele>185.85664</ele>
        <time>2026-07-07T07:29:23.000Z</time>
      </trkpt>
      <trkpt lat="48.21527" lon="16.39565">
        <ele>185.850935</ele>
        <time>2026-07-07T07:29:24.000Z</time>
      </trkpt>
      <trkpt lat="48.21525" lon="16.39569">
        <ele>185.84578</ele>
        <time>2026-07-07T07:29:25.000Z</time>
      </trkpt>
      <trkpt lat="48.21524" lon="16.39571">
        <ele>185.841149</ele>
        <time>2026-07-07T07:29:26.000Z</time>
      </trkpt>
      <trkpt lat="48.21522" lon="16.39574">
        <ele>185.83629</ele>
        <time>2026-07-07T07:29:27.000Z</time>
      </trkpt>
      <trkpt lat="48.2152" lon="16.39577">
        <ele>185.830699</ele>
        <time>2026-07-07T07:29:28.000Z</time>
      </trkpt>
      <trkpt lat="48.21519" lon="16.3958">
        <ele>185.825709</ele>
        <time>2026-07-07T07:29:29.000Z</time>
      </trkpt>
      <trkpt lat="48.21517" lon="16.39583">
        <ele>185.820873</ele>
        <time>2026-07-07T07:29:30.000Z</time>
      </trkpt>
      <trkpt lat="48.21516" lon="16.39586">
        <ele>185.816159</ele>
        <time>2026-07-07T07:29:31.000Z</time>
      </trkpt>
      <trkpt lat="48.21514" lon="16.39589">
        <ele>185.811217</ele>
        <time>2026-07-07T07:29:32.000Z</time>
      </trkpt>
      <trkpt lat="48.21513" lon="16.39591">
        <ele>185.806687</ele>
        <time>2026-07-07T07:29:33.000Z</time>
      </trkpt>
      <trkpt lat="48.21511" lon="16.39594">
        <ele>185.801499</ele>
        <time>2026-07-07T07:29:34.000Z</time>
      </trkpt>
      <trkpt lat="48.2151" lon="16.39597">
        <ele>185.796868</ele>
        <time>2026-07-07T07:29:35.000Z</time>
      </trkpt>
      <trkpt lat="48.21508" lon="16.396">
        <ele>185.79269</ele>
        <time>2026-07-07T07:29:36.000Z</time>
      </trkpt>
      <trkpt lat="48.21507" lon="16.39602">
        <ele>185.788945</ele>
        <time>2026-07-07T07:29:37.000Z</time>
      </trkpt>
      <trkpt lat="48.21506" lon="16.39604">
        <ele>185.784889</ele>
        <time>2026-07-07T07:29:38.000Z</time>
      </trkpt>
      <trkpt lat="48.21504" lon="16.39606">
        <ele>185.780554</ele>
        <time>2026-07-07T07:29:39.000Z</time>
      </trkpt>
      <trkpt lat="48.21502" lon="16.39609">
        <ele>185.77487</ele>
        <time>2026-07-07T07:29:40.000Z</time>
      </trkpt>
      <trkpt lat="48.215" lon="16.39613">
        <ele>185.768835</ele>
        <time>2026-07-07T07:29:41.000Z</time>
      </trkpt>
      <trkpt lat="48.21498" lon="16.39617">
        <ele>185.762576</ele>
        <time>2026-07-07T07:29:42.000Z</time>
      </trkpt>
      <trkpt lat="48.21497" lon="16.3962">
        <ele>185.757092</ele>
        <time>2026-07-07T07:29:43.000Z</time>
      </trkpt>
      <trkpt lat="48.21495" lon="16.39624">
        <ele>185.751216</ele>
        <time>2026-07-07T07:29:44.000Z</time>
      </trkpt>
      <trkpt lat="48.21493" lon="16.39628">
        <ele>185.744744</ele>
        <time>2026-07-07T07:29:45.000Z</time>
      </trkpt>
      <trkpt lat="48.21491" lon="16.39631">
        <ele>185.73959</ele>
        <time>2026-07-07T07:29:46.000Z</time>
      </trkpt>
      <trkpt lat="48.2149" lon="16.39634">
        <ele>185.735308</ele>
        <time>2026-07-07T07:29:47.000Z</time>
      </trkpt>
      <trkpt lat="48.2149" lon="16.39636">
        <ele>185.732332</ele>
        <time>2026-07-07T07:29:48.000Z</time>
      </trkpt>
      <trkpt lat="48.21489" lon="16.39637">
        <ele>185.730122</ele>
        <time>2026-07-07T07:29:49.000Z</time>
      </trkpt>
      <trkpt lat="48.21489" lon="16.39638">
        <ele>185.729119</ele>
        <time>2026-07-07T07:29:50.000Z</time>
      </trkpt>
      <trkpt lat="48.21489" lon="16.39638">
        <ele>185.728233</ele>
        <time>2026-07-07T07:29:51.000Z</time>
      </trkpt>
      <trkpt lat="48.21489" lon="16.39638">
        <ele>185.727574</ele>
        <time>2026-07-07T07:29:52.000Z</time>
      </trkpt>
      <trkpt lat="48.21489" lon="16.39638">
        <ele>185.726915</ele>
        <time>2026-07-07T07:29:53.000Z</time>
      </trkpt>
      <trkpt lat="48.21492" lon="16.39641">
        <ele>185.71993</ele>
        <time>2026-07-07T07:29:57.000Z</time>
      </trkpt>
      <trkpt lat="48.21493" lon="16.39641">
        <ele>185.716372</ele>
        <time>2026-07-07T07:29:58.000Z</time>
      </trkpt>
      <trkpt lat="48.21495" lon="16.39641">
        <ele>185.712988</ele>
        <time>2026-07-07T07:29:59.000Z</time>
      </trkpt>
      <trkpt lat="48.21497" lon="16.39643">
        <ele>185.709627</ele>
        <time>2026-07-07T07:30:00.000Z</time>
      </trkpt>
      <trkpt lat="48.21498" lon="16.39644">
        <ele>185.706218</ele>
        <time>2026-07-07T07:30:01.000Z</time>
      </trkpt>
      <trkpt lat="48.215" lon="16.39646">
        <ele>185.702251</ele>
        <time>2026-07-07T07:30:02.000Z</time>
      </trkpt>
      <trkpt lat="48.21501" lon="16.39647">
        <ele>185.699006</ele>
        <time>2026-07-07T07:30:03.000Z</time>
      </trkpt>
      <trkpt lat="48.21503" lon="16.39647">
        <ele>185.695408</ele>
        <time>2026-07-07T07:30:04.000Z</time>
      </trkpt>
      <trkpt lat="48.21505" lon="16.39648">
        <ele>185.691427</ele>
        <time>2026-07-07T07:30:05.000Z</time>
      </trkpt>
      <trkpt lat="48.21507" lon="16.39649">
        <ele>185.687072</ele>
        <time>2026-07-07T07:30:06.000Z</time>
      </trkpt>
      <trkpt lat="48.21509" lon="16.3965">
        <ele>185.683647</ele>
        <time>2026-07-07T07:30:07.000Z</time>
      </trkpt>
      <trkpt lat="48.2151" lon="16.3965">
        <ele>185.680286</ele>
        <time>2026-07-07T07:30:08.000Z</time>
      </trkpt>
      <trkpt lat="48.21512" lon="16.39649">
        <ele>185.677055</ele>
        <time>2026-07-07T07:30:09.000Z</time>
      </trkpt>
      <trkpt lat="48.21514" lon="16.39648">
        <ele>185.673016</ele>
        <time>2026-07-07T07:30:10.000Z</time>
      </trkpt>
      <trkpt lat="48.21515" lon="16.39645">
        <ele>185.668584</ele>
        <time>2026-07-07T07:30:11.000Z</time>
      </trkpt>
      <trkpt lat="48.21517" lon="16.39642">
        <ele>185.663458</ele>
        <time>2026-07-07T07:30:12.000Z</time>
      </trkpt>
      <trkpt lat="48.21519" lon="16.39639">
        <ele>185.657401</ele>
        <time>2026-07-07T07:30:13.000Z</time>
      </trkpt>
      <trkpt lat="48.21521" lon="16.39636">
        <ele>185.651327</ele>
        <time>2026-07-07T07:30:14.000Z</time>
      </trkpt>
      <trkpt lat="48.21523" lon="16.39632">
        <ele>185.645547</ele>
        <time>2026-07-07T07:30:15.000Z</time>
      </trkpt>
      <trkpt lat="48.21525" lon="16.39629">
        <ele>185.639723</ele>
        <time>2026-07-07T07:30:16.000Z</time>
      </trkpt>
      <trkpt lat="48.21527" lon="16.39625">
        <ele>185.632926</ele>
        <time>2026-07-07T07:30:17.000Z</time>
      </trkpt>
      <trkpt lat="48.21529" lon="16.3962">
        <ele>185.630151</ele>
        <time>2026-07-07T07:30:18.000Z</time>
      </trkpt>
      <trkpt lat="48.21531" lon="16.39616">
        <ele>185.641538</ele>
        <time>2026-07-07T07:30:19.000Z</time>
      </trkpt>
      <trkpt lat="48.21534" lon="16.39612">
        <ele>185.653138</ele>
        <time>2026-07-07T07:30:20.000Z</time>
      </trkpt>
      <trkpt lat="48.21536" lon="16.39608">
        <ele>185.664263</ele>
        <time>2026-07-07T07:30:21.000Z</time>
      </trkpt>
      <trkpt lat="48.21538" lon="16.39603">
        <ele>185.676282</ele>
        <time>2026-07-07T07:30:22.000Z</time>
      </trkpt>
      <trkpt lat="48.2154" lon="16.39599">
        <ele>185.686684</ele>
        <time>2026-07-07T07:30:23.000Z</time>
      </trkpt>
      <trkpt lat="48.21542" lon="16.39597">
        <ele>185.696726</ele>
        <time>2026-07-07T07:30:24.000Z</time>
      </trkpt>
      <trkpt lat="48.21545" lon="16.39597">
        <ele>185.705782</ele>
        <time>2026-07-07T07:30:25.000Z</time>
      </trkpt>
      <trkpt lat="48.21548" lon="16.39599">
        <ele>185.715811</ele>
        <time>2026-07-07T07:30:26.000Z</time>
      </trkpt>
      <trkpt lat="48.21551" lon="16.39602">
        <ele>185.726628</ele>
        <time>2026-07-07T07:30:27.000Z</time>
      </trkpt>
      <trkpt lat="48.21554" lon="16.39604">
        <ele>185.737727</ele>
        <time>2026-07-07T07:30:28.000Z</time>
      </trkpt>
      <trkpt lat="48.21557" lon="16.39607">
        <ele>185.749109</ele>
        <time>2026-07-07T07:30:29.000Z</time>
      </trkpt>
      <trkpt lat="48.2156" lon="16.39609">
        <ele>185.760584</ele>
        <time>2026-07-07T07:30:30.000Z</time>
      </trkpt>
      <trkpt lat="48.21563" lon="16.39611">
        <ele>185.77158</ele>
        <time>2026-07-07T07:30:31.000Z</time>
      </trkpt>
      <trkpt lat="48.21566" lon="16.39614">
        <ele>185.782476</ele>
        <time>2026-07-07T07:30:32.000Z</time>
      </trkpt>
      <trkpt lat="48.21569" lon="16.39615">
        <ele>185.793832</ele>
        <time>2026-07-07T07:30:33.000Z</time>
      </trkpt>
      <trkpt lat="48.21573" lon="16.39617">
        <ele>185.8045</ele>
        <time>2026-07-07T07:30:34.000Z</time>
      </trkpt>
      <trkpt lat="48.21576" lon="16.39617">
        <ele>185.81528</ele>
        <time>2026-07-07T07:30:35.000Z</time>
      </trkpt>
      <trkpt lat="48.2158" lon="16.39618">
        <ele>185.82737</ele>
        <time>2026-07-07T07:30:36.000Z</time>
      </trkpt>
      <trkpt lat="48.21583" lon="16.39619">
        <ele>185.838821</ele>
        <time>2026-07-07T07:30:37.000Z</time>
      </trkpt>
      <trkpt lat="48.21587" lon="16.3962">
        <ele>185.850241</ele>
        <time>2026-07-07T07:30:38.000Z</time>
      </trkpt>
      <trkpt lat="48.2159" lon="16.3962">
        <ele>185.860969</ele>
        <time>2026-07-07T07:30:39.000Z</time>
      </trkpt>
      <trkpt lat="48.21593" lon="16.39621">
        <ele>185.872389</ele>
        <time>2026-07-07T07:30:40.000Z</time>
      </trkpt>
      <trkpt lat="48.21597" lon="16.39621">
        <ele>185.884404</ele>
        <time>2026-07-07T07:30:41.000Z</time>
      </trkpt>
      <trkpt lat="48.21601" lon="16.39622">
        <ele>185.895743</ele>
        <time>2026-07-07T07:30:42.000Z</time>
      </trkpt>
      <trkpt lat="48.21604" lon="16.39622">
        <ele>185.907081</ele>
        <time>2026-07-07T07:30:43.000Z</time>
      </trkpt>
      <trkpt lat="48.21607" lon="16.39622">
        <ele>185.917467</ele>
        <time>2026-07-07T07:30:44.000Z</time>
      </trkpt>
      <trkpt lat="48.2161" lon="16.39623">
        <ele>185.927551</ele>
        <time>2026-07-07T07:30:45.000Z</time>
      </trkpt>
      <trkpt lat="48.21613" lon="16.39623">
        <ele>185.937314</ele>
        <time>2026-07-07T07:30:46.000Z</time>
      </trkpt>
      <trkpt lat="48.21616" lon="16.39624">
        <ele>185.946851</ele>
        <time>2026-07-07T07:30:47.000Z</time>
      </trkpt>
      <trkpt lat="48.21619" lon="16.39625">
        <ele>185.954487</ele>
        <time>2026-07-07T07:30:48.000Z</time>
      </trkpt>
      <trkpt lat="48.21621" lon="16.39625">
        <ele>185.961938</ele>
        <time>2026-07-07T07:30:49.000Z</time>
      </trkpt>
      <trkpt lat="48.21623" lon="16.39626">
        <ele>185.968177</ele>
        <time>2026-07-07T07:30:50.000Z</time>
      </trkpt>
      <trkpt lat="48.21625" lon="16.39627">
        <ele>185.974385</ele>
        <time>2026-07-07T07:30:51.000Z</time>
      </trkpt>
      <trkpt lat="48.21627" lon="16.39627">
        <ele>185.982021</ele>
        <time>2026-07-07T07:30:52.000Z</time>
      </trkpt>
      <trkpt lat="48.21629" lon="16.39628">
        <ele>185.989929</ele>
        <time>2026-07-07T07:30:53.000Z</time>
      </trkpt>
      <trkpt lat="48.21632" lon="16.39629">
        <ele>185.999748</ele>
        <time>2026-07-07T07:30:54.000Z</time>
      </trkpt>
      <trkpt lat="48.21635" lon="16.39629">
        <ele>186.009537</ele>
        <time>2026-07-07T07:30:55.000Z</time>
      </trkpt>
      <trkpt lat="48.21638" lon="16.3963">
        <ele>186.019601</ele>
        <time>2026-07-07T07:30:56.000Z</time>
      </trkpt>
      <trkpt lat="48.21642" lon="16.3963">
        <ele>186.029953</ele>
        <time>2026-07-07T07:30:57.000Z</time>
      </trkpt>
      <trkpt lat="48.21645" lon="16.3963">
        <ele>186.04068</ele>
        <time>2026-07-07T07:30:58.000Z</time>
      </trkpt>
      <trkpt lat="48.21648" lon="16.3963">
        <ele>186.051677</ele>
        <time>2026-07-07T07:30:59.000Z</time>
      </trkpt>
      <trkpt lat="48.21651" lon="16.3963">
        <ele>186.061703</ele>
        <time>2026-07-07T07:31:00.000Z</time>
      </trkpt>
      <trkpt lat="48.21655" lon="16.3963">
        <ele>186.073024</ele>
        <time>2026-07-07T07:31:01.000Z</time>
      </trkpt>
      <trkpt lat="48.21658" lon="16.3963">
        <ele>186.084022</ele>
        <time>2026-07-07T07:31:02.000Z</time>
      </trkpt>
      <trkpt lat="48.21661" lon="16.3963">
        <ele>186.093785</ele>
        <time>2026-07-07T07:31:03.000Z</time>
      </trkpt>
      <trkpt lat="48.21664" lon="16.39629">
        <ele>186.103094</ele>
        <time>2026-07-07T07:31:04.000Z</time>
      </trkpt>
      <trkpt lat="48.21667" lon="16.39627">
        <ele>186.111724</ele>
        <time>2026-07-07T07:31:05.000Z</time>
      </trkpt>
      <trkpt lat="48.21669" lon="16.39626">
        <ele>186.120719</ele>
        <time>2026-07-07T07:31:06.000Z</time>
      </trkpt>
      <trkpt lat="48.21671" lon="16.39627">
        <ele>186.127525</ele>
        <time>2026-07-07T07:31:07.000Z</time>
      </trkpt>
      <trkpt lat="48.21673" lon="16.39628">
        <ele>186.134468</ele>
        <time>2026-07-07T07:31:08.000Z</time>
      </trkpt>
      <trkpt lat="48.21675" lon="16.3963">
        <ele>186.142618</ele>
        <time>2026-07-07T07:31:09.000Z</time>
      </trkpt>
      <trkpt lat="48.21677" lon="16.39633">
        <ele>186.150901</ele>
        <time>2026-07-07T07:31:10.000Z</time>
      </trkpt>
      <trkpt lat="48.2168" lon="16.39634">
        <ele>186.160456</ele>
        <time>2026-07-07T07:31:11.000Z</time>
      </trkpt>
      <trkpt lat="48.21683" lon="16.39635">
        <ele>186.170396</ele>
        <time>2026-07-07T07:31:12.000Z</time>
      </trkpt>
      <trkpt lat="48.21686" lon="16.39635">
        <ele>186.181071</ele>
        <time>2026-07-07T07:31:13.000Z</time>
      </trkpt>
      <trkpt lat="48.2169" lon="16.39634">
        <ele>186.192277</ele>
        <time>2026-07-07T07:31:14.000Z</time>
      </trkpt>
      <trkpt lat="48.21693" lon="16.39632">
        <ele>186.203108</ele>
        <time>2026-07-07T07:31:15.000Z</time>
      </trkpt>
      <trkpt lat="48.21696" lon="16.3963">
        <ele>186.211316</ele>
        <time>2026-07-07T07:31:16.000Z</time>
      </trkpt>
      <trkpt lat="48.21699" lon="16.39627">
        <ele>186.216724</ele>
        <time>2026-07-07T07:31:17.000Z</time>
      </trkpt>
      <trkpt lat="48.21702" lon="16.39625">
        <ele>186.221992</ele>
        <time>2026-07-07T07:31:18.000Z</time>
      </trkpt>
      <trkpt lat="48.21705" lon="16.39623">
        <ele>186.226673</ele>
        <time>2026-07-07T07:31:19.000Z</time>
      </trkpt>
      <trkpt lat="48.21708" lon="16.39622">
        <ele>186.23116</ele>
        <time>2026-07-07T07:31:20.000Z</time>
      </trkpt>
      <trkpt lat="48.21711" lon="16.39621">
        <ele>186.235609</ele>
        <time>2026-07-07T07:31:21.000Z</time>
      </trkpt>
      <trkpt lat="48.21714" lon="16.3962">
        <ele>186.240283</ele>
        <time>2026-07-07T07:31:22.000Z</time>
      </trkpt>
      <trkpt lat="48.21717" lon="16.39618">
        <ele>186.244564</ele>
        <time>2026-07-07T07:31:23.000Z</time>
      </trkpt>
      <trkpt lat="48.21718" lon="16.39614">
        <ele>186.24901</ele>
        <time>2026-07-07T07:31:24.000Z</time>
      </trkpt>
      <trkpt lat="48.21718" lon="16.39609">
        <ele>186.2537</ele>
        <time>2026-07-07T07:31:25.000Z</time>
      </trkpt>
      <trkpt lat="48.21719" lon="16.39604">
        <ele>186.25867</ele>
        <time>2026-07-07T07:31:26.000Z</time>
      </trkpt>
      <trkpt lat="48.2172" lon="16.39599">
        <ele>186.26384</ele>
        <time>2026-07-07T07:31:27.000Z</time>
      </trkpt>
      <trkpt lat="48.21722" lon="16.39594">
        <ele>186.268802</ele>
        <time>2026-07-07T07:31:28.000Z</time>
      </trkpt>
      <trkpt lat="48.21724" lon="16.39591">
        <ele>186.273626</ele>
        <time>2026-07-07T07:31:29.000Z</time>
      </trkpt>
      <trkpt lat="48.21727" lon="16.39588">
        <ele>186.278123</ele>
        <time>2026-07-07T07:31:30.000Z</time>
      </trkpt>
      <trkpt lat="48.21729" lon="16.39586">
        <ele>186.282091</ele>
        <time>2026-07-07T07:31:31.000Z</time>
      </trkpt>
      <trkpt lat="48.21732" lon="16.39586">
        <ele>186.286471</ele>
        <time>2026-07-07T07:31:32.000Z</time>
      </trkpt>
      <trkpt lat="48.21735" lon="16.39588">
        <ele>186.290785</ele>
        <time>2026-07-07T07:31:33.000Z</time>
      </trkpt>
      <trkpt lat="48.21737" lon="16.39591">
        <ele>186.295108</ele>
        <time>2026-07-07T07:31:34.000Z</time>
      </trkpt>
      <trkpt lat="48.21739" lon="16.39594">
        <ele>186.299157</ele>
        <time>2026-07-07T07:31:35.000Z</time>
      </trkpt>
      <trkpt lat="48.21739" lon="16.39599">
        <ele>186.303499</ele>
        <time>2026-07-07T07:31:36.000Z</time>
      </trkpt>
      <trkpt lat="48.21739" lon="16.39603">
        <ele>186.307983</ele>
        <time>2026-07-07T07:31:37.000Z</time>
      </trkpt>
      <trkpt lat="48.21738" lon="16.39608">
        <ele>186.312639</ele>
        <time>2026-07-07T07:31:38.000Z</time>
      </trkpt>
      <trkpt lat="48.21737" lon="16.39613">
        <ele>186.317254</ele>
        <time>2026-07-07T07:31:39.000Z</time>
      </trkpt>
      <trkpt lat="48.21736" lon="16.39617">
        <ele>186.321789</ele>
        <time>2026-07-07T07:31:40.000Z</time>
      </trkpt>
      <trkpt lat="48.21735" lon="16.39622">
        <ele>186.326508</ele>
        <time>2026-07-07T07:31:41.000Z</time>
      </trkpt>
      <trkpt lat="48.21735" lon="16.39626">
        <ele>186.331177</ele>
        <time>2026-07-07T07:31:42.000Z</time>
      </trkpt>
      <trkpt lat="48.21736" lon="16.39631">
        <ele>186.335977</ele>
        <time>2026-07-07T07:31:43.000Z</time>
      </trkpt>
      <trkpt lat="48.21738" lon="16.39635">
        <ele>186.340688</ele>
        <time>2026-07-07T07:31:44.000Z</time>
      </trkpt>
      <trkpt lat="48.21741" lon="16.39638">
        <ele>186.345476</ele>
        <time>2026-07-07T07:31:45.000Z</time>
      </trkpt>
      <trkpt lat="48.21744" lon="16.3964">
        <ele>186.350439</ele>
        <time>2026-07-07T07:31:46.000Z</time>
      </trkpt>
      <trkpt lat="48.21747" lon="16.39643">
        <ele>186.35562</ele>
        <time>2026-07-07T07:31:47.000Z</time>
      </trkpt>
      <trkpt lat="48.2175" lon="16.39645">
        <ele>186.360251</ele>
        <time>2026-07-07T07:31:48.000Z</time>
      </trkpt>
      <trkpt lat="48.21752" lon="16.39648">
        <ele>186.36504</ele>
        <time>2026-07-07T07:31:49.000Z</time>
      </trkpt>
      <trkpt lat="48.21755" lon="16.39651">
        <ele>186.370074</ele>
        <time>2026-07-07T07:31:50.000Z</time>
      </trkpt>
      <trkpt lat="48.21758" lon="16.39654">
        <ele>186.375337</ele>
        <time>2026-07-07T07:31:51.000Z</time>
      </trkpt>
      <trkpt lat="48.21761" lon="16.39657">
        <ele>186.380601</ele>
        <time>2026-07-07T07:31:52.000Z</time>
      </trkpt>
      <trkpt lat="48.21765" lon="16.39659">
        <ele>186.38626</ele>
        <time>2026-07-07T07:31:53.000Z</time>
      </trkpt>
      <trkpt lat="48.21767" lon="16.39661">
        <ele>186.390401</ele>
        <time>2026-07-07T07:31:54.000Z</time>
      </trkpt>
      <trkpt lat="48.21769" lon="16.39663">
        <ele>186.393383</ele>
        <time>2026-07-07T07:31:55.000Z</time>
      </trkpt>
      <trkpt lat="48.2177" lon="16.39664">
        <ele>186.395777</ele>
        <time>2026-07-07T07:31:56.000Z</time>
      </trkpt>
      <trkpt lat="48.21772" lon="16.39666">
        <ele>186.398181</ele>
        <time>2026-07-07T07:31:57.000Z</time>
      </trkpt>
      <trkpt lat="48.21773" lon="16.39666">
        <ele>186.400505</ele>
        <time>2026-07-07T07:31:58.000Z</time>
      </trkpt>
      <trkpt lat="48.21775" lon="16.39667">
        <ele>186.402798</ele>
        <time>2026-07-07T07:31:59.000Z</time>
      </trkpt>
      <trkpt lat="48.21776" lon="16.39668">
        <ele>186.405092</ele>
        <time>2026-07-07T07:32:00.000Z</time>
      </trkpt>
      <trkpt lat="48.21778" lon="16.39669">
        <ele>186.407143</ele>
        <time>2026-07-07T07:32:01.000Z</time>
      </trkpt>
      <trkpt lat="48.2178" lon="16.39669">
        <ele>186.410142</ele>
        <time>2026-07-07T07:32:02.000Z</time>
      </trkpt>
      <trkpt lat="48.21782" lon="16.39671">
        <ele>186.413324</ele>
        <time>2026-07-07T07:32:03.000Z</time>
      </trkpt>
      <trkpt lat="48.21783" lon="16.39673">
        <ele>186.416455</ele>
        <time>2026-07-07T07:32:04.000Z</time>
      </trkpt>
      <trkpt lat="48.21784" lon="16.39676">
        <ele>186.419612</ele>
        <time>2026-07-07T07:32:05.000Z</time>
      </trkpt>
      <trkpt lat="48.21785" lon="16.39678">
        <ele>186.422486</ele>
        <time>2026-07-07T07:32:06.000Z</time>
      </trkpt>
      <trkpt lat="48.21785" lon="16.39681">
        <ele>186.425053</ele>
        <time>2026-07-07T07:32:07.000Z</time>
      </trkpt>
      <trkpt lat="48.21784" lon="16.39684">
        <ele>186.427744</ele>
        <time>2026-07-07T07:32:08.000Z</time>
      </trkpt>
      <trkpt lat="48.21785" lon="16.39686">
        <ele>186.429775</ele>
        <time>2026-07-07T07:32:09.000Z</time>
      </trkpt>
      <trkpt lat="48.21786" lon="16.39686">
        <ele>186.431127</ele>
        <time>2026-07-07T07:32:10.000Z</time>
      </trkpt>
      <trkpt lat="48.21786" lon="16.39687">
        <ele>186.43219</ele>
        <time>2026-07-07T07:32:11.000Z</time>
      </trkpt>
      <trkpt lat="48.21786" lon="16.39687">
        <ele>186.432434</ele>
        <time>2026-07-07T07:32:12.000Z</time>
      </trkpt>
      <trkpt lat="48.21789" lon="16.39688">
        <ele>186.436882</ele>
        <time>2026-07-07T07:32:16.000Z</time>
      </trkpt>
      <trkpt lat="48.21792" lon="16.39687">
        <ele>186.440544</ele>
        <time>2026-07-07T07:32:17.000Z</time>
      </trkpt>
      <trkpt lat="48.21795" lon="16.39687">
        <ele>186.444505</ele>
        <time>2026-07-07T07:32:18.000Z</time>
      </trkpt>
      <trkpt lat="48.21797" lon="16.39687">
        <ele>186.448155</ele>
        <time>2026-07-07T07:32:19.000Z</time>
      </trkpt>
      <trkpt lat="48.21799" lon="16.39687">
        <ele>186.451548</ele>
        <time>2026-07-07T07:32:20.000Z</time>
      </trkpt>
      <trkpt lat="48.21802" lon="16.39688">
        <ele>186.455185</ele>
        <time>2026-07-07T07:32:21.000Z</time>
      </trkpt>
      <trkpt lat="48.21803" lon="16.3969">
        <ele>186.458114</ele>
        <time>2026-07-07T07:32:22.000Z</time>
      </trkpt>
      <trkpt lat="48.21804" lon="16.39693">
        <ele>186.460725</ele>
        <time>2026-07-07T07:32:23.000Z</time>
      </trkpt>
      <trkpt lat="48.21804" lon="16.39694">
        <ele>186.462063</ele>
        <time>2026-07-07T07:32:24.000Z</time>
      </trkpt>
      <trkpt lat="48.21805" lon="16.39694">
        <ele>186.462414</ele>
        <time>2026-07-07T07:32:25.000Z</time>
      </trkpt>
      <trkpt lat="48.21809" lon="16.39703">
        <ele>186.474222</ele>
        <time>2026-07-07T07:32:40.000Z</time>
      </trkpt>
      <trkpt lat="48.21811" lon="16.39706">
        <ele>186.48445</ele>
        <time>2026-07-07T07:32:41.000Z</time>
      </trkpt>
      <trkpt lat="48.21814" lon="16.39708">
        <ele>186.496085</ele>
        <time>2026-07-07T07:32:42.000Z</time>
      </trkpt>
      <trkpt lat="48.21818" lon="16.39708">
        <ele>186.507466</ele>
        <time>2026-07-07T07:32:43.000Z</time>
      </trkpt>
      <trkpt lat="48.21821" lon="16.39709">
        <ele>186.519436</ele>
        <time>2026-07-07T07:32:44.000Z</time>
      </trkpt>
      <trkpt lat="48.21825" lon="16.39709">
        <ele>186.532405</ele>
        <time>2026-07-07T07:32:45.000Z</time>
      </trkpt>
      <trkpt lat="48.21829" lon="16.3971">
        <ele>186.546721</ele>
        <time>2026-07-07T07:32:46.000Z</time>
      </trkpt>
      <trkpt lat="48.21834" lon="16.3971">
        <ele>186.562057</ele>
        <time>2026-07-07T07:32:47.000Z</time>
      </trkpt>
      <trkpt lat="48.21838" lon="16.3971">
        <ele>186.577385</ele>
        <time>2026-07-07T07:32:48.000Z</time>
      </trkpt>
      <trkpt lat="48.21843" lon="16.3971">
        <ele>186.593393</ele>
        <time>2026-07-07T07:32:49.000Z</time>
      </trkpt>
      <trkpt lat="48.21848" lon="16.3971">
        <ele>186.609737</ele>
        <time>2026-07-07T07:32:50.000Z</time>
      </trkpt>
      <trkpt lat="48.21853" lon="16.39711">
        <ele>186.626785</ele>
        <time>2026-07-07T07:32:51.000Z</time>
      </trkpt>
      <trkpt lat="48.21858" lon="16.39711">
        <ele>186.643846</ele>
        <time>2026-07-07T07:32:52.000Z</time>
      </trkpt>
      <trkpt lat="48.21863" lon="16.39712">
        <ele>186.660883</ele>
        <time>2026-07-07T07:32:53.000Z</time>
      </trkpt>
      <trkpt lat="48.21868" lon="16.39712">
        <ele>186.678587</ele>
        <time>2026-07-07T07:32:54.000Z</time>
      </trkpt>
      <trkpt lat="48.21873" lon="16.39711">
        <ele>186.695988</ele>
        <time>2026-07-07T07:32:55.000Z</time>
      </trkpt>
      <trkpt lat="48.21878" lon="16.3971">
        <ele>186.714781</ele>
        <time>2026-07-07T07:32:56.000Z</time>
      </trkpt>
      <trkpt lat="48.21884" lon="16.39709">
        <ele>186.733334</ele>
        <time>2026-07-07T07:32:57.000Z</time>
      </trkpt>
      <trkpt lat="48.21889" lon="16.39708">
        <ele>186.751697</ele>
        <time>2026-07-07T07:32:58.000Z</time>
      </trkpt>
      <trkpt lat="48.21895" lon="16.39706">
        <ele>186.770965</ele>
        <time>2026-07-07T07:32:59.000Z</time>
      </trkpt>
      <trkpt lat="48.219" lon="16.39704">
        <ele>186.790232</ele>
        <time>2026-07-07T07:33:00.000Z</time>
      </trkpt>
      <trkpt lat="48.21905" lon="16.39702">
        <ele>186.808508</ele>
        <time>2026-07-07T07:33:01.000Z</time>
      </trkpt>
      <trkpt lat="48.2191" lon="16.397">
        <ele>186.826455</ele>
        <time>2026-07-07T07:33:02.000Z</time>
      </trkpt>
      <trkpt lat="48.21916" lon="16.39698">
        <ele>186.844676</ele>
        <time>2026-07-07T07:33:03.000Z</time>
      </trkpt>
      <trkpt lat="48.21921" lon="16.39696">
        <ele>186.862294</ele>
        <time>2026-07-07T07:33:04.000Z</time>
      </trkpt>
      <trkpt lat="48.21925" lon="16.39693">
        <ele>186.879592</ele>
        <time>2026-07-07T07:33:05.000Z</time>
      </trkpt>
      <trkpt lat="48.2193" lon="16.39691">
        <ele>186.896647</ele>
        <time>2026-07-07T07:33:06.000Z</time>
      </trkpt>
      <trkpt lat="48.21935" lon="16.39688">
        <ele>186.91332</ele>
        <time>2026-07-07T07:33:07.000Z</time>
      </trkpt>
      <trkpt lat="48.21939" lon="16.39685">
        <ele>186.930853</ele>
        <time>2026-07-07T07:33:08.000Z</time>
      </trkpt>
      <trkpt lat="48.21944" lon="16.39682">
        <ele>186.94807</ele>
        <time>2026-07-07T07:33:09.000Z</time>
      </trkpt>
      <trkpt lat="48.21949" lon="16.3968">
        <ele>186.964407</ele>
        <time>2026-07-07T07:33:10.000Z</time>
      </trkpt>
      <trkpt lat="48.21953" lon="16.39677">
        <ele>186.981705</ele>
        <time>2026-07-07T07:33:11.000Z</time>
      </trkpt>
      <trkpt lat="48.21958" lon="16.39675">
        <ele>186.999119</ele>
        <time>2026-07-07T07:33:12.000Z</time>
      </trkpt>
      <trkpt lat="48.21963" lon="16.39673">
        <ele>187.016417</ele>
        <time>2026-07-07T07:33:13.000Z</time>
      </trkpt>
      <trkpt lat="48.21968" lon="16.3967">
        <ele>187.03436</ele>
        <time>2026-07-07T07:33:14.000Z</time>
      </trkpt>
      <trkpt lat="48.21973" lon="16.39668">
        <ele>187.051337</ele>
        <time>2026-07-07T07:33:15.000Z</time>
      </trkpt>
      <trkpt lat="48.21977" lon="16.39665">
        <ele>187.068154</ele>
        <time>2026-07-07T07:33:16.000Z</time>
      </trkpt>
      <trkpt lat="48.21982" lon="16.39662">
        <ele>187.084185</ele>
        <time>2026-07-07T07:33:17.000Z</time>
      </trkpt>
      <trkpt lat="48.21987" lon="16.3966">
        <ele>187.085687</ele>
        <time>2026-07-07T07:33:18.000Z</time>
      </trkpt>
      <trkpt lat="48.21991" lon="16.39657">
        <ele>187.087147</ele>
        <time>2026-07-07T07:33:19.000Z</time>
      </trkpt>
      <trkpt lat="48.21996" lon="16.39654">
        <ele>187.088649</ele>
        <time>2026-07-07T07:33:20.000Z</time>
      </trkpt>
      <trkpt lat="48.22001" lon="16.39652">
        <ele>187.090144</ele>
        <time>2026-07-07T07:33:21.000Z</time>
      </trkpt>
      <trkpt lat="48.22005" lon="16.39649">
        <ele>187.091631</ele>
        <time>2026-07-07T07:33:22.000Z</time>
      </trkpt>
      <trkpt lat="48.2201" lon="16.39645">
        <ele>187.09311</ele>
        <time>2026-07-07T07:33:23.000Z</time>
      </trkpt>
      <trkpt lat="48.22013" lon="16.39641">
        <ele>187.094507</ele>
        <time>2026-07-07T07:33:24.000Z</time>
      </trkpt>
      <trkpt lat="48.22017" lon="16.39637">
        <ele>187.095868</ele>
        <time>2026-07-07T07:33:25.000Z</time>
      </trkpt>
      <trkpt lat="48.2202" lon="16.39632">
        <ele>187.097186</ele>
        <time>2026-07-07T07:33:26.000Z</time>
      </trkpt>
      <trkpt lat="48.22024" lon="16.39629">
        <ele>187.098451</ele>
        <time>2026-07-07T07:33:27.000Z</time>
      </trkpt>
      <trkpt lat="48.22027" lon="16.39625">
        <ele>187.099646</ele>
        <time>2026-07-07T07:33:28.000Z</time>
      </trkpt>
      <trkpt lat="48.2203" lon="16.39621">
        <ele>187.100831</ele>
        <time>2026-07-07T07:33:29.000Z</time>
      </trkpt>
      <trkpt lat="48.22033" lon="16.39617">
        <ele>187.102024</ele>
        <time>2026-07-07T07:33:30.000Z</time>
      </trkpt>
      <trkpt lat="48.22036" lon="16.39614">
        <ele>187.103197</ele>
        <time>2026-07-07T07:33:31.000Z</time>
      </trkpt>
      <trkpt lat="48.2204" lon="16.39611">
        <ele>187.104452</ele>
        <time>2026-07-07T07:33:32.000Z</time>
      </trkpt>
      <trkpt lat="48.22044" lon="16.39608">
        <ele>187.105758</ele>
        <time>2026-07-07T07:33:33.000Z</time>
      </trkpt>
      <trkpt lat="48.22047" lon="16.39604">
        <ele>187.107013</ele>
        <time>2026-07-07T07:33:34.000Z</time>
      </trkpt>
      <trkpt lat="48.22051" lon="16.396">
        <ele>187.108302</ele>
        <time>2026-07-07T07:33:35.000Z</time>
      </trkpt>
      <trkpt lat="48.22054" lon="16.39597">
        <ele>187.109485</ele>
        <time>2026-07-07T07:33:36.000Z</time>
      </trkpt>
      <trkpt lat="48.22057" lon="16.39593">
        <ele>187.110595</ele>
        <time>2026-07-07T07:33:37.000Z</time>
      </trkpt>
      <trkpt lat="48.22059" lon="16.39591">
        <ele>187.111405</ele>
        <time>2026-07-07T07:33:38.000Z</time>
      </trkpt>
      <trkpt lat="48.22061" lon="16.39591">
        <ele>187.112005</ele>
        <time>2026-07-07T07:33:39.000Z</time>
      </trkpt>
      <trkpt lat="48.22063" lon="16.39591">
        <ele>187.112603</ele>
        <time>2026-07-07T07:33:40.000Z</time>
      </trkpt>
      <trkpt lat="48.22065" lon="16.39591">
        <ele>187.113142</ele>
        <time>2026-07-07T07:33:41.000Z</time>
      </trkpt>
      <trkpt lat="48.22065" lon="16.39591">
        <ele>187.113276</ele>
        <time>2026-07-07T07:33:42.000Z</time>
      </trkpt>
      <trkpt lat="48.22065" lon="16.3959">
        <ele>187.113315</ele>
        <time>2026-07-07T07:33:43.000Z</time>
      </trkpt>
      <trkpt lat="48.22068" lon="16.39586">
        <ele>187.114554</ele>
        <time>2026-07-07T07:33:57.000Z</time>
      </trkpt>
      <trkpt lat="48.2207" lon="16.39583">
        <ele>187.11537</ele>
        <time>2026-07-07T07:33:58.000Z</time>
      </trkpt>
      <trkpt lat="48.22073" lon="16.3958">
        <ele>187.116285</ele>
        <time>2026-07-07T07:33:59.000Z</time>
      </trkpt>
      <trkpt lat="48.22075" lon="16.39577">
        <ele>187.117087</ele>
        <time>2026-07-07T07:34:00.000Z</time>
      </trkpt>
      <trkpt lat="48.22076" lon="16.39575">
        <ele>187.117798</ele>
        <time>2026-07-07T07:34:01.000Z</time>
      </trkpt>
      <trkpt lat="48.22078" lon="16.39573">
        <ele>187.118478</ele>
        <time>2026-07-07T07:34:02.000Z</time>
      </trkpt>
      <trkpt lat="48.2208" lon="16.39571">
        <ele>187.119219</ele>
        <time>2026-07-07T07:34:03.000Z</time>
      </trkpt>
      <trkpt lat="48.22082" lon="16.39568">
        <ele>187.119995</ele>
        <time>2026-07-07T07:34:04.000Z</time>
      </trkpt>
      <trkpt lat="48.22084" lon="16.39566">
        <ele>187.120736</ele>
        <time>2026-07-07T07:34:05.000Z</time>
      </trkpt>
      <trkpt lat="48.22086" lon="16.39565">
        <ele>187.121386</ele>
        <time>2026-07-07T07:34:06.000Z</time>
      </trkpt>
      <trkpt lat="48.22088" lon="16.39565">
        <ele>187.122087</ele>
        <time>2026-07-07T07:34:07.000Z</time>
      </trkpt>
      <trkpt lat="48.22091" lon="16.39568">
        <ele>187.122922</ele>
        <time>2026-07-07T07:34:08.000Z</time>
      </trkpt>
      <trkpt lat="48.22093" lon="16.39572">
        <ele>187.12387</ele>
        <time>2026-07-07T07:34:09.000Z</time>
      </trkpt>
      <trkpt lat="48.22095" lon="16.39576">
        <ele>187.124902</ele>
        <time>2026-07-07T07:34:10.000Z</time>
      </trkpt>
      <trkpt lat="48.22097" lon="16.3958">
        <ele>187.125952</ele>
        <time>2026-07-07T07:34:11.000Z</time>
      </trkpt>
      <trkpt lat="48.22099" lon="16.39584">
        <ele>187.12708</ele>
        <time>2026-07-07T07:34:12.000Z</time>
      </trkpt>
      <trkpt lat="48.22102" lon="16.39589">
        <ele>187.128391</ele>
        <time>2026-07-07T07:34:13.000Z</time>
      </trkpt>
      <trkpt lat="48.22104" lon="16.39595">
        <ele>187.129683</ele>
        <time>2026-07-07T07:34:14.000Z</time>
      </trkpt>
      <trkpt lat="48.22107" lon="16.39601">
        <ele>187.131041</ele>
        <time>2026-07-07T07:34:15.000Z</time>
      </trkpt>
      <trkpt lat="48.22109" lon="16.39606">
        <ele>187.132414</ele>
        <time>2026-07-07T07:34:16.000Z</time>
      </trkpt>
      <trkpt lat="48.22112" lon="16.39612">
        <ele>187.13389</ele>
        <time>2026-07-07T07:34:17.000Z</time>
      </trkpt>
      <trkpt lat="48.22115" lon="16.39618">
        <ele>187.135338</ele>
        <time>2026-07-07T07:34:18.000Z</time>
      </trkpt>
      <trkpt lat="48.22118" lon="16.39623">
        <ele>187.136718</ele>
        <time>2026-07-07T07:34:19.000Z</time>
      </trkpt>
      <trkpt lat="48.22121" lon="16.39629">
        <ele>187.138932</ele>
        <time>2026-07-07T07:34:20.000Z</time>
      </trkpt>
      <trkpt lat="48.22124" lon="16.39634">
        <ele>187.144269</ele>
        <time>2026-07-07T07:34:21.000Z</time>
      </trkpt>
      <trkpt lat="48.22127" lon="16.39639">
        <ele>187.14962</ele>
        <time>2026-07-07T07:34:22.000Z</time>
      </trkpt>
      <trkpt lat="48.2213" lon="16.39644">
        <ele>187.15511</ele>
        <time>2026-07-07T07:34:23.000Z</time>
      </trkpt>
      <trkpt lat="48.22133" lon="16.39649">
        <ele>187.16048</ele>
        <time>2026-07-07T07:34:24.000Z</time>
      </trkpt>
      <trkpt lat="48.22136" lon="16.39654">
        <ele>187.165851</ele>
        <time>2026-07-07T07:34:25.000Z</time>
      </trkpt>
      <trkpt lat="48.22139" lon="16.39659">
        <ele>187.171103</ele>
        <time>2026-07-07T07:34:26.000Z</time>
      </trkpt>
      <trkpt lat="48.22142" lon="16.39664">
        <ele>187.176593</ele>
        <time>2026-07-07T07:34:27.000Z</time>
      </trkpt>
      <trkpt lat="48.22145" lon="16.39669">
        <ele>187.181992</ele>
        <time>2026-07-07T07:34:28.000Z</time>
      </trkpt>
      <trkpt lat="48.22148" lon="16.39675">
        <ele>187.187482</ele>
        <time>2026-07-07T07:34:29.000Z</time>
      </trkpt>
      <trkpt lat="48.22151" lon="16.3968">
        <ele>187.192972</ele>
        <time>2026-07-07T07:34:30.000Z</time>
      </trkpt>
      <trkpt lat="48.22153" lon="16.39685">
        <ele>187.198171</ele>
        <time>2026-07-07T07:34:31.000Z</time>
      </trkpt>
      <trkpt lat="48.22156" lon="16.3969">
        <ele>187.203384</ele>
        <time>2026-07-07T07:34:32.000Z</time>
      </trkpt>
      <trkpt lat="48.22159" lon="16.39695">
        <ele>187.208845</ele>
        <time>2026-07-07T07:34:33.000Z</time>
      </trkpt>
      <trkpt lat="48.22162" lon="16.397">
        <ele>187.214197</ele>
        <time>2026-07-07T07:34:34.000Z</time>
      </trkpt>
      <trkpt lat="48.22165" lon="16.39706">
        <ele>187.219658</ele>
        <time>2026-07-07T07:34:35.000Z</time>
      </trkpt>
      <trkpt lat="48.22167" lon="16.39711">
        <ele>187.224857</ele>
        <time>2026-07-07T07:34:36.000Z</time>
      </trkpt>
      <trkpt lat="48.2217" lon="16.39716">
        <ele>187.230193</ele>
        <time>2026-07-07T07:34:37.000Z</time>
      </trkpt>
      <trkpt lat="48.22173" lon="16.39721">
        <ele>187.235446</ele>
        <time>2026-07-07T07:34:38.000Z</time>
      </trkpt>
      <trkpt lat="48.22176" lon="16.39726">
        <ele>187.240399</ele>
        <time>2026-07-07T07:34:39.000Z</time>
      </trkpt>
      <trkpt lat="48.22179" lon="16.39731">
        <ele>187.245612</ele>
        <time>2026-07-07T07:34:40.000Z</time>
      </trkpt>
      <trkpt lat="48.22182" lon="16.39736">
        <ele>187.251146</ele>
        <time>2026-07-07T07:34:41.000Z</time>
      </trkpt>
      <trkpt lat="48.22185" lon="16.39741">
        <ele>187.256516</ele>
        <time>2026-07-07T07:34:42.000Z</time>
      </trkpt>
      <trkpt lat="48.22188" lon="16.39745">
        <ele>187.261548</ele>
        <time>2026-07-07T07:34:43.000Z</time>
      </trkpt>
      <trkpt lat="48.22191" lon="16.3975">
        <ele>187.266685</ele>
        <time>2026-07-07T07:34:44.000Z</time>
      </trkpt>
      <trkpt lat="48.22194" lon="16.39755">
        <ele>187.271997</ele>
        <time>2026-07-07T07:34:45.000Z</time>
      </trkpt>
      <trkpt lat="48.22197" lon="16.39759">
        <ele>187.277134</ele>
        <time>2026-07-07T07:34:46.000Z</time>
      </trkpt>
      <trkpt lat="48.22199" lon="16.39764">
        <ele>187.282048</ele>
        <time>2026-07-07T07:34:47.000Z</time>
      </trkpt>
      <trkpt lat="48.22202" lon="16.39769">
        <ele>187.287243</ele>
        <time>2026-07-07T07:34:48.000Z</time>
      </trkpt>
      <trkpt lat="48.22205" lon="16.39774">
        <ele>187.292534</ele>
        <time>2026-07-07T07:34:49.000Z</time>
      </trkpt>
      <trkpt lat="48.22208" lon="16.39779">
        <ele>187.298024</ele>
        <time>2026-07-07T07:34:50.000Z</time>
      </trkpt>
      <trkpt lat="48.22211" lon="16.39783">
        <ele>187.303246</ele>
        <time>2026-07-07T07:34:51.000Z</time>
      </trkpt>
      <trkpt lat="48.22214" lon="16.39789">
        <ele>187.308658</ele>
        <time>2026-07-07T07:34:52.000Z</time>
      </trkpt>
      <trkpt lat="48.22217" lon="16.39793">
        <ele>187.313691</ele>
        <time>2026-07-07T07:34:53.000Z</time>
      </trkpt>
      <trkpt lat="48.2222" lon="16.39798">
        <ele>187.319061</ele>
        <time>2026-07-07T07:34:54.000Z</time>
      </trkpt>
      <trkpt lat="48.22224" lon="16.39803">
        <ele>187.324849</ele>
        <time>2026-07-07T07:34:55.000Z</time>
      </trkpt>
      <trkpt lat="48.22227" lon="16.39809">
        <ele>187.330558</ele>
        <time>2026-07-07T07:34:56.000Z</time>
      </trkpt>
      <trkpt lat="48.2223" lon="16.39814">
        <ele>187.336465</ele>
        <time>2026-07-07T07:34:57.000Z</time>
      </trkpt>
      <trkpt lat="48.22233" lon="16.39819">
        <ele>187.342015</ele>
        <time>2026-07-07T07:34:58.000Z</time>
      </trkpt>
      <trkpt lat="48.22236" lon="16.39824">
        <ele>187.347228</ele>
        <time>2026-07-07T07:34:59.000Z</time>
      </trkpt>
      <trkpt lat="48.22238" lon="16.39829">
        <ele>187.352154</ele>
        <time>2026-07-07T07:35:00.000Z</time>
      </trkpt>
      <trkpt lat="48.22241" lon="16.39833">
        <ele>187.355064</ele>
        <time>2026-07-07T07:35:01.000Z</time>
      </trkpt>
      <trkpt lat="48.22242" lon="16.39837">
        <ele>187.357214</ele>
        <time>2026-07-07T07:35:02.000Z</time>
      </trkpt>
      <trkpt lat="48.22244" lon="16.39839">
        <ele>187.358884</ele>
        <time>2026-07-07T07:35:03.000Z</time>
      </trkpt>
      <trkpt lat="48.22245" lon="16.39841">
        <ele>187.36029</ele>
        <time>2026-07-07T07:35:04.000Z</time>
      </trkpt>
      <trkpt lat="48.22246" lon="16.39844">
        <ele>187.361702</ele>
        <time>2026-07-07T07:35:05.000Z</time>
      </trkpt>
      <trkpt lat="48.22247" lon="16.39846">
        <ele>187.362943</ele>
        <time>2026-07-07T07:35:06.000Z</time>
      </trkpt>
      <trkpt lat="48.22248" lon="16.39848">
        <ele>187.364184</ele>
        <time>2026-07-07T07:35:07.000Z</time>
      </trkpt>
      <trkpt lat="48.22249" lon="16.39849">
        <ele>187.36531</ele>
        <time>2026-07-07T07:35:08.000Z</time>
      </trkpt>
      <trkpt lat="48.2225" lon="16.39851">
        <ele>187.36614</ele>
        <time>2026-07-07T07:35:09.000Z</time>
      </trkpt>
      <trkpt lat="48.2225" lon="16.39851">
        <ele>187.366553</ele>
        <time>2026-07-07T07:35:10.000Z</time>
      </trkpt>
      <trkpt lat="48.22251" lon="16.39855">
        <ele>187.36842</ele>
        <time>2026-07-07T07:35:56.000Z</time>
      </trkpt>
      <trkpt lat="48.22253" lon="16.39857">
        <ele>187.370018</ele>
        <time>2026-07-07T07:35:57.000Z</time>
      </trkpt>
      <trkpt lat="48.22254" lon="16.3986">
        <ele>187.371763</ele>
        <time>2026-07-07T07:35:58.000Z</time>
      </trkpt>
      <trkpt lat="48.22256" lon="16.39862">
        <ele>187.373557</ele>
        <time>2026-07-07T07:35:59.000Z</time>
      </trkpt>
      <trkpt lat="48.22258" lon="16.39865">
        <ele>187.375595</ele>
        <time>2026-07-07T07:36:00.000Z</time>
      </trkpt>
      <trkpt lat="48.2226" lon="16.39869">
        <ele>187.377984</ele>
        <time>2026-07-07T07:36:01.000Z</time>
      </trkpt>
      <trkpt lat="48.22262" lon="16.39873">
        <ele>187.380381</ele>
        <time>2026-07-07T07:36:02.000Z</time>
      </trkpt>
      <trkpt lat="48.22264" lon="16.39877">
        <ele>187.382736</ele>
        <time>2026-07-07T07:36:03.000Z</time>
      </trkpt>
      <trkpt lat="48.22266" lon="16.39881">
        <ele>187.385299</ele>
        <time>2026-07-07T07:36:04.000Z</time>
      </trkpt>
      <trkpt lat="48.22268" lon="16.39885">
        <ele>187.387822</ele>
        <time>2026-07-07T07:36:05.000Z</time>
      </trkpt>
      <trkpt lat="48.2227" lon="16.3989">
        <ele>187.390717</ele>
        <time>2026-07-07T07:36:06.000Z</time>
      </trkpt>
      <trkpt lat="48.22273" lon="16.39894">
        <ele>187.393836</ele>
        <time>2026-07-07T07:36:07.000Z</time>
      </trkpt>
      <trkpt lat="48.22275" lon="16.399">
        <ele>187.397188</ele>
        <time>2026-07-07T07:36:08.000Z</time>
      </trkpt>
      <trkpt lat="48.22278" lon="16.39905">
        <ele>187.400455</ele>
        <time>2026-07-07T07:36:09.000Z</time>
      </trkpt>
      <trkpt lat="48.22281" lon="16.39911">
        <ele>187.403984</ele>
        <time>2026-07-07T07:36:10.000Z</time>
      </trkpt>
      <trkpt lat="48.22284" lon="16.39916">
        <ele>187.40763</ele>
        <time>2026-07-07T07:36:11.000Z</time>
      </trkpt>
      <trkpt lat="48.22287" lon="16.39922">
        <ele>187.411236</ele>
        <time>2026-07-07T07:36:12.000Z</time>
      </trkpt>
      <trkpt lat="48.22291" lon="16.39928">
        <ele>187.415117</ele>
        <time>2026-07-07T07:36:13.000Z</time>
      </trkpt>
      <trkpt lat="48.22294" lon="16.39933">
        <ele>187.418821</ele>
        <time>2026-07-07T07:36:14.000Z</time>
      </trkpt>
      <trkpt lat="48.22297" lon="16.39939">
        <ele>187.422506</ele>
        <time>2026-07-07T07:36:15.000Z</time>
      </trkpt>
      <trkpt lat="48.223" lon="16.39944">
        <ele>187.426169</ele>
        <time>2026-07-07T07:36:16.000Z</time>
      </trkpt>
      <trkpt lat="48.22303" lon="16.3995">
        <ele>187.429775</ele>
        <time>2026-07-07T07:36:17.000Z</time>
      </trkpt>
      <trkpt lat="48.22306" lon="16.39956">
        <ele>187.433382</ele>
        <time>2026-07-07T07:36:18.000Z</time>
      </trkpt>
      <trkpt lat="48.22309" lon="16.39961">
        <ele>187.436949</ele>
        <time>2026-07-07T07:36:19.000Z</time>
      </trkpt>
      <trkpt lat="48.22312" lon="16.39967">
        <ele>187.440478</ele>
        <time>2026-07-07T07:36:20.000Z</time>
      </trkpt>
      <trkpt lat="48.22315" lon="16.39972">
        <ele>187.443875</ele>
        <time>2026-07-07T07:36:21.000Z</time>
      </trkpt>
      <trkpt lat="48.22318" lon="16.39977">
        <ele>187.447118</ele>
        <time>2026-07-07T07:36:22.000Z</time>
      </trkpt>
      <trkpt lat="48.22321" lon="16.39982">
        <ele>187.450313</ele>
        <time>2026-07-07T07:36:23.000Z</time>
      </trkpt>
      <trkpt lat="48.22323" lon="16.39987">
        <ele>187.453547</ele>
        <time>2026-07-07T07:36:24.000Z</time>
      </trkpt>
      <trkpt lat="48.22326" lon="16.39992">
        <ele>187.456696</ele>
        <time>2026-07-07T07:36:25.000Z</time>
      </trkpt>
      <trkpt lat="48.22329" lon="16.39998">
        <ele>187.460063</ele>
        <time>2026-07-07T07:36:26.000Z</time>
      </trkpt>
      <trkpt lat="48.22331" lon="16.40003">
        <ele>187.463291</ele>
        <time>2026-07-07T07:36:27.000Z</time>
      </trkpt>
      <trkpt lat="48.22334" lon="16.40008">
        <ele>187.466722</ele>
        <time>2026-07-07T07:36:28.000Z</time>
      </trkpt>
      <trkpt lat="48.22337" lon="16.40014">
        <ele>187.470238</ele>
        <time>2026-07-07T07:36:29.000Z</time>
      </trkpt>
      <trkpt lat="48.22339" lon="16.40021">
        <ele>187.474015</ele>
        <time>2026-07-07T07:36:30.000Z</time>
      </trkpt>
      <trkpt lat="48.22341" lon="16.40028">
        <ele>187.477647</ele>
        <time>2026-07-07T07:36:31.000Z</time>
      </trkpt>
      <trkpt lat="48.22343" lon="16.40034">
        <ele>187.481142</ele>
        <time>2026-07-07T07:36:32.000Z</time>
      </trkpt>
      <trkpt lat="48.22345" lon="16.4004">
        <ele>187.484702</ele>
        <time>2026-07-07T07:36:33.000Z</time>
      </trkpt>
      <trkpt lat="48.22348" lon="16.40046">
        <ele>187.49141</ele>
        <time>2026-07-07T07:36:34.000Z</time>
      </trkpt>
      <trkpt lat="48.22351" lon="16.40052">
        <ele>187.507529</ele>
        <time>2026-07-07T07:36:35.000Z</time>
      </trkpt>
      <trkpt lat="48.22353" lon="16.40058">
        <ele>187.523461</ele>
        <time>2026-07-07T07:36:36.000Z</time>
      </trkpt>
      <trkpt lat="48.22356" lon="16.40063">
        <ele>187.539198</ele>
        <time>2026-07-07T07:36:37.000Z</time>
      </trkpt>
      <trkpt lat="48.22359" lon="16.40069">
        <ele>187.554822</ele>
        <time>2026-07-07T07:36:38.000Z</time>
      </trkpt>
      <trkpt lat="48.22361" lon="16.40074">
        <ele>187.569816</ele>
        <time>2026-07-07T07:36:39.000Z</time>
      </trkpt>
      <trkpt lat="48.22364" lon="16.40079">
        <ele>187.585486</ele>
        <time>2026-07-07T07:36:40.000Z</time>
      </trkpt>
      <trkpt lat="48.22367" lon="16.40086">
        <ele>187.603323</ele>
        <time>2026-07-07T07:36:41.000Z</time>
      </trkpt>
      <trkpt lat="48.2237" lon="16.40091">
        <ele>187.618887</ele>
        <time>2026-07-07T07:36:42.000Z</time>
      </trkpt>
      <trkpt lat="48.22372" lon="16.40097">
        <ele>187.635192</ele>
        <time>2026-07-07T07:36:43.000Z</time>
      </trkpt>
      <trkpt lat="48.22375" lon="16.40103">
        <ele>187.651686</ele>
        <time>2026-07-07T07:36:44.000Z</time>
      </trkpt>
      <trkpt lat="48.22378" lon="16.40109">
        <ele>187.66798</ele>
        <time>2026-07-07T07:36:45.000Z</time>
      </trkpt>
      <trkpt lat="48.22381" lon="16.40114">
        <ele>187.684392</ele>
        <time>2026-07-07T07:36:46.000Z</time>
      </trkpt>
      <trkpt lat="48.22385" lon="16.40119">
        <ele>187.70015</ele>
        <time>2026-07-07T07:36:47.000Z</time>
      </trkpt>
      <trkpt lat="48.22388" lon="16.40123">
        <ele>187.715954</ele>
        <time>2026-07-07T07:36:48.000Z</time>
      </trkpt>
      <trkpt lat="48.22391" lon="16.40128">
        <ele>187.730387</ele>
        <time>2026-07-07T07:36:49.000Z</time>
      </trkpt>
      <trkpt lat="48.22394" lon="16.40132">
        <ele>187.744525</ele>
        <time>2026-07-07T07:36:50.000Z</time>
      </trkpt>
      <trkpt lat="48.22396" lon="16.40137">
        <ele>187.758366</ele>
        <time>2026-07-07T07:36:51.000Z</time>
      </trkpt>
      <trkpt lat="48.22399" lon="16.40142">
        <ele>187.772038</ele>
        <time>2026-07-07T07:36:52.000Z</time>
      </trkpt>
      <trkpt lat="48.22401" lon="16.40147">
        <ele>187.785503</ele>
        <time>2026-07-07T07:36:53.000Z</time>
      </trkpt>
      <trkpt lat="48.22403" lon="16.40152">
        <ele>187.798207</ele>
        <time>2026-07-07T07:36:54.000Z</time>
      </trkpt>
      <trkpt lat="48.22405" lon="16.40156">
        <ele>187.809015</ele>
        <time>2026-07-07T07:36:55.000Z</time>
      </trkpt>
      <trkpt lat="48.22406" lon="16.40159">
        <ele>187.818162</ele>
        <time>2026-07-07T07:36:56.000Z</time>
      </trkpt>
      <trkpt lat="48.22408" lon="16.40161">
        <ele>187.824861</ele>
        <time>2026-07-07T07:36:57.000Z</time>
      </trkpt>
      <trkpt lat="48.22409" lon="16.40163">
        <ele>187.830662</ele>
        <time>2026-07-07T07:36:58.000Z</time>
      </trkpt>
      <trkpt lat="48.2241" lon="16.40165">
        <ele>187.836358</ele>
        <time>2026-07-07T07:36:59.000Z</time>
      </trkpt>
      <trkpt lat="48.22411" lon="16.40167">
        <ele>187.841524</ele>
        <time>2026-07-07T07:37:00.000Z</time>
      </trkpt>
      <trkpt lat="48.22411" lon="16.40168">
        <ele>187.844749</ele>
        <time>2026-07-07T07:37:01.000Z</time>
      </trkpt>
      <trkpt lat="48.22411" lon="16.40168">
        <ele>187.845432</ele>
        <time>2026-07-07T07:37:02.000Z</time>
      </trkpt>
      <trkpt lat="48.22406" lon="16.40175">
        <ele>187.868475</ele>
        <time>2026-07-07T07:37:11.000Z</time>
      </trkpt>
      <trkpt lat="48.22404" lon="16.40177">
        <ele>187.877775</ele>
        <time>2026-07-07T07:37:12.000Z</time>
      </trkpt>
      <trkpt lat="48.22402" lon="16.4018">
        <ele>187.886674</ele>
        <time>2026-07-07T07:37:13.000Z</time>
      </trkpt>
      <trkpt lat="48.224" lon="16.40182">
        <ele>187.895289</ele>
        <time>2026-07-07T07:37:14.000Z</time>
      </trkpt>
      <trkpt lat="48.22398" lon="16.40184">
        <ele>187.904457</ele>
        <time>2026-07-07T07:37:15.000Z</time>
      </trkpt>
      <trkpt lat="48.22396" lon="16.40187">
        <ele>187.913655</ele>
        <time>2026-07-07T07:37:16.000Z</time>
      </trkpt>
      <trkpt lat="48.22395" lon="16.4019">
        <ele>187.92048</ele>
        <time>2026-07-07T07:37:17.000Z</time>
      </trkpt>
      <trkpt lat="48.22394" lon="16.40192">
        <ele>187.925346</ele>
        <time>2026-07-07T07:37:18.000Z</time>
      </trkpt>
      <trkpt lat="48.22394" lon="16.40193">
        <ele>187.928164</ele>
        <time>2026-07-07T07:37:19.000Z</time>
      </trkpt>
      <trkpt lat="48.22394" lon="16.40194">
        <ele>187.930442</ele>
        <time>2026-07-07T07:37:20.000Z</time>
      </trkpt>
      <trkpt lat="48.22394" lon="16.40194">
        <ele>187.93197</ele>
        <time>2026-07-07T07:37:21.000Z</time>
      </trkpt>
      <trkpt lat="48.22394" lon="16.40195">
        <ele>187.932943</ele>
        <time>2026-07-07T07:37:22.000Z</time>
      </trkpt>
      <trkpt lat="48.22394" lon="16.40195">
        <ele>187.933171</ele>
        <time>2026-07-07T07:37:23.000Z</time>
      </trkpt>
      <trkpt lat="48.22396" lon="16.40201">
        <ele>187.949337</ele>
        <time>2026-07-07T07:38:04.000Z</time>
      </trkpt>
      <trkpt lat="48.22398" lon="16.40203">
        <ele>187.956508</ele>
        <time>2026-07-07T07:38:05.000Z</time>
      </trkpt>
      <trkpt lat="48.22399" lon="16.40205">
        <ele>187.964303</ele>
        <time>2026-07-07T07:38:06.000Z</time>
      </trkpt>
      <trkpt lat="48.22401" lon="16.40208">
        <ele>187.973971</ele>
        <time>2026-07-07T07:38:07.000Z</time>
      </trkpt>
      <trkpt lat="48.22403" lon="16.40212">
        <ele>187.984304</ele>
        <time>2026-07-07T07:38:08.000Z</time>
      </trkpt>
      <trkpt lat="48.22406" lon="16.40215">
        <ele>187.995433</ele>
        <time>2026-07-07T07:38:09.000Z</time>
      </trkpt>
      <trkpt lat="48.22408" lon="16.40219">
        <ele>188.007438</ele>
        <time>2026-07-07T07:38:10.000Z</time>
      </trkpt>
      <trkpt lat="48.22411" lon="16.40223">
        <ele>188.019474</ele>
        <time>2026-07-07T07:38:11.000Z</time>
      </trkpt>
      <trkpt lat="48.22413" lon="16.40227">
        <ele>188.032136</ele>
        <time>2026-07-07T07:38:12.000Z</time>
      </trkpt>
      <trkpt lat="48.22416" lon="16.40231">
        <ele>188.045763</ele>
        <time>2026-07-07T07:38:13.000Z</time>
      </trkpt>
      <trkpt lat="48.22419" lon="16.40235">
        <ele>188.059138</ele>
        <time>2026-07-07T07:38:14.000Z</time>
      </trkpt>
      <trkpt lat="48.22421" lon="16.40239">
        <ele>188.072355</ele>
        <time>2026-07-07T07:38:15.000Z</time>
      </trkpt>
      <trkpt lat="48.22424" lon="16.40243">
        <ele>188.085632</ele>
        <time>2026-07-07T07:38:16.000Z</time>
      </trkpt>
      <trkpt lat="48.22427" lon="16.40247">
        <ele>188.097396</ele>
        <time>2026-07-07T07:38:17.000Z</time>
      </trkpt>
      <trkpt lat="48.22429" lon="16.40251">
        <ele>188.132478</ele>
        <time>2026-07-07T07:38:18.000Z</time>
      </trkpt>
      <trkpt lat="48.22431" lon="16.40255">
        <ele>188.185556</ele>
        <time>2026-07-07T07:38:19.000Z</time>
      </trkpt>
      <trkpt lat="48.22434" lon="16.40259">
        <ele>188.236981</ele>
        <time>2026-07-07T07:38:20.000Z</time>
      </trkpt>
      <trkpt lat="48.22436" lon="16.40263">
        <ele>188.287654</ele>
        <time>2026-07-07T07:38:21.000Z</time>
      </trkpt>
      <trkpt lat="48.22438" lon="16.40268">
        <ele>188.337352</ele>
        <time>2026-07-07T07:38:22.000Z</time>
      </trkpt>
      <trkpt lat="48.22439" lon="16.40273">
        <ele>188.389014</ele>
        <time>2026-07-07T07:38:23.000Z</time>
      </trkpt>
      <trkpt lat="48.2244" lon="16.40278">
        <ele>188.440185</ele>
        <time>2026-07-07T07:38:24.000Z</time>
      </trkpt>
      <trkpt lat="48.22441" lon="16.40283">
        <ele>188.494081</ele>
        <time>2026-07-07T07:38:25.000Z</time>
      </trkpt>
      <trkpt lat="48.22442" lon="16.40289">
        <ele>188.553896</ele>
        <time>2026-07-07T07:38:26.000Z</time>
      </trkpt>
      <trkpt lat="48.22444" lon="16.40295">
        <ele>188.613529</ele>
        <time>2026-07-07T07:38:27.000Z</time>
      </trkpt>
      <trkpt lat="48.22446" lon="16.403">
        <ele>188.668802</ele>
        <time>2026-07-07T07:38:28.000Z</time>
      </trkpt>
      <trkpt lat="48.22448" lon="16.40304">
        <ele>188.724881</ele>
        <time>2026-07-07T07:38:29.000Z</time>
      </trkpt>
      <trkpt lat="48.2245" lon="16.40309">
        <ele>188.781013</ele>
        <time>2026-07-07T07:38:30.000Z</time>
      </trkpt>
      <trkpt lat="48.22453" lon="16.40314">
        <ele>188.841902</ele>
        <time>2026-07-07T07:38:31.000Z</time>
      </trkpt>
      <trkpt lat="48.22455" lon="16.4032">
        <ele>188.905989</ele>
        <time>2026-07-07T07:38:32.000Z</time>
      </trkpt>
      <trkpt lat="48.22458" lon="16.40325">
        <ele>188.973382</ele>
        <time>2026-07-07T07:38:33.000Z</time>
      </trkpt>
      <trkpt lat="48.22461" lon="16.40331">
        <ele>189.041801</ele>
        <time>2026-07-07T07:38:34.000Z</time>
      </trkpt>
      <trkpt lat="48.22464" lon="16.40337">
        <ele>189.117291</ele>
        <time>2026-07-07T07:38:35.000Z</time>
      </trkpt>
      <trkpt lat="48.22467" lon="16.40344">
        <ele>189.191795</ele>
        <time>2026-07-07T07:38:36.000Z</time>
      </trkpt>
      <trkpt lat="48.2247" lon="16.40349">
        <ele>189.255882</ele>
        <time>2026-07-07T07:38:37.000Z</time>
      </trkpt>
      <trkpt lat="48.22472" lon="16.40354">
        <ele>189.309561</ele>
        <time>2026-07-07T07:38:38.000Z</time>
      </trkpt>
      <trkpt lat="48.22473" lon="16.40358">
        <ele>189.354584</ele>
        <time>2026-07-07T07:38:39.000Z</time>
      </trkpt>
      <trkpt lat="48.22474" lon="16.4036">
        <ele>189.385109</ele>
        <time>2026-07-07T07:38:40.000Z</time>
      </trkpt>
      <trkpt lat="48.22475" lon="16.40363">
        <ele>189.414843</ele>
        <time>2026-07-07T07:38:41.000Z</time>
      </trkpt>
      <trkpt lat="48.22476" lon="16.40366">
        <ele>189.447262</ele>
        <time>2026-07-07T07:38:42.000Z</time>
      </trkpt>
      <trkpt lat="48.22478" lon="16.40369">
        <ele>189.486122</ele>
        <time>2026-07-07T07:38:43.000Z</time>
      </trkpt>
      <trkpt lat="48.22479" lon="16.40373">
        <ele>189.526992</ele>
        <time>2026-07-07T07:38:44.000Z</time>
      </trkpt>
      <trkpt lat="48.22482" lon="16.40377">
        <ele>189.583389</ele>
        <time>2026-07-07T07:38:45.000Z</time>
      </trkpt>
      <trkpt lat="48.22485" lon="16.40382">
        <ele>189.648129</ele>
        <time>2026-07-07T07:38:46.000Z</time>
      </trkpt>
      <trkpt lat="48.22488" lon="16.40386">
        <ele>189.703062</ele>
        <time>2026-07-07T07:38:47.000Z</time>
      </trkpt>
      <trkpt lat="48.22491" lon="16.40389">
        <ele>189.762087</ele>
        <time>2026-07-07T07:38:48.000Z</time>
      </trkpt>
      <trkpt lat="48.22495" lon="16.40393">
        <ele>189.8297</ele>
        <time>2026-07-07T07:38:49.000Z</time>
      </trkpt>
      <trkpt lat="48.22499" lon="16.40398">
        <ele>189.900839</ele>
        <time>2026-07-07T07:38:50.000Z</time>
      </trkpt>
      <trkpt lat="48.22502" lon="16.40403">
        <ele>189.971658</ele>
        <time>2026-07-07T07:38:51.000Z</time>
      </trkpt>
      <trkpt lat="48.22505" lon="16.40409">
        <ele>190.041577</ele>
        <time>2026-07-07T07:38:52.000Z</time>
      </trkpt>
      <trkpt lat="48.22509" lon="16.40414">
        <ele>190.107967</ele>
        <time>2026-07-07T07:38:53.000Z</time>
      </trkpt>
      <trkpt lat="48.22511" lon="16.4042">
        <ele>190.177691</ele>
        <time>2026-07-07T07:38:54.000Z</time>
      </trkpt>
      <trkpt lat="48.22514" lon="16.40425">
        <ele>190.244631</ele>
        <time>2026-07-07T07:38:55.000Z</time>
      </trkpt>
      <trkpt lat="48.22518" lon="16.4043">
        <ele>190.313478</ele>
        <time>2026-07-07T07:38:56.000Z</time>
      </trkpt>
      <trkpt lat="48.2252" lon="16.40436">
        <ele>190.383201</ele>
        <time>2026-07-07T07:38:57.000Z</time>
      </trkpt>
      <trkpt lat="48.22523" lon="16.40442">
        <ele>190.453878</ele>
        <time>2026-07-07T07:38:58.000Z</time>
      </trkpt>
      <trkpt lat="48.22526" lon="16.40448">
        <ele>190.527633</ele>
        <time>2026-07-07T07:38:59.000Z</time>
      </trkpt>
      <trkpt lat="48.2253" lon="16.40453">
        <ele>190.598108</ele>
        <time>2026-07-07T07:39:00.000Z</time>
      </trkpt>
      <trkpt lat="48.22533" lon="16.40459">
        <ele>190.669854</ele>
        <time>2026-07-07T07:39:01.000Z</time>
      </trkpt>
      <trkpt lat="48.22535" lon="16.40466">
        <ele>190.800458</ele>
        <time>2026-07-07T07:39:02.000Z</time>
      </trkpt>
      <trkpt lat="48.22538" lon="16.40472">
        <ele>190.950337</ele>
        <time>2026-07-07T07:39:03.000Z</time>
      </trkpt>
      <trkpt lat="48.22542" lon="16.40478">
        <ele>191.109506</ele>
        <time>2026-07-07T07:39:04.000Z</time>
      </trkpt>
      <trkpt lat="48.22545" lon="16.40484">
        <ele>191.268922</ele>
        <time>2026-07-07T07:39:05.000Z</time>
      </trkpt>
      <trkpt lat="48.22548" lon="16.4049">
        <ele>191.421324</ele>
        <time>2026-07-07T07:39:06.000Z</time>
      </trkpt>
      <trkpt lat="48.22552" lon="16.40494">
        <ele>191.572579</ele>
        <time>2026-07-07T07:39:07.000Z</time>
      </trkpt>
      <trkpt lat="48.22555" lon="16.405">
        <ele>191.723703</ele>
        <time>2026-07-07T07:39:08.000Z</time>
      </trkpt>
      <trkpt lat="48.22558" lon="16.40505">
        <ele>191.872509</ele>
        <time>2026-07-07T07:39:09.000Z</time>
      </trkpt>
      <trkpt lat="48.22561" lon="16.4051">
        <ele>192.02039</ele>
        <time>2026-07-07T07:39:10.000Z</time>
      </trkpt>
      <trkpt lat="48.22564" lon="16.40516">
        <ele>192.172791</ele>
        <time>2026-07-07T07:39:11.000Z</time>
      </trkpt>
      <trkpt lat="48.22567" lon="16.40522">
        <ele>192.323914</ele>
        <time>2026-07-07T07:39:12.000Z</time>
      </trkpt>
      <trkpt lat="48.22569" lon="16.40527">
        <ele>192.464636</ele>
        <time>2026-07-07T07:39:13.000Z</time>
      </trkpt>
      <trkpt lat="48.22572" lon="16.40533">
        <ele>192.599683</ele>
        <time>2026-07-07T07:39:14.000Z</time>
      </trkpt>
      <trkpt lat="48.22574" lon="16.40537">
        <ele>192.717678</ele>
        <time>2026-07-07T07:39:15.000Z</time>
      </trkpt>
      <trkpt lat="48.22576" lon="16.40541">
        <ele>192.821445</ele>
        <time>2026-07-07T07:39:16.000Z</time>
      </trkpt>
      <trkpt lat="48.22579" lon="16.40545">
        <ele>192.929356</ele>
        <time>2026-07-07T07:39:17.000Z</time>
      </trkpt>
      <trkpt lat="48.2258" lon="16.40549">
        <ele>193.03325</ele>
        <time>2026-07-07T07:39:18.000Z</time>
      </trkpt>
      <trkpt lat="48.22583" lon="16.40553">
        <ele>193.146043</ele>
        <time>2026-07-07T07:39:19.000Z</time>
      </trkpt>
      <trkpt lat="48.22585" lon="16.40558">
        <ele>193.256857</ele>
        <time>2026-07-07T07:39:20.000Z</time>
      </trkpt>
      <trkpt lat="48.22587" lon="16.40562">
        <ele>193.375589</ele>
        <time>2026-07-07T07:39:21.000Z</time>
      </trkpt>
      <trkpt lat="48.2259" lon="16.40566">
        <ele>193.497012</ele>
        <time>2026-07-07T07:39:22.000Z</time>
      </trkpt>
      <trkpt lat="48.22592" lon="16.40571">
        <ele>193.620932</ele>
        <time>2026-07-07T07:39:23.000Z</time>
      </trkpt>
      <trkpt lat="48.22595" lon="16.40576">
        <ele>193.747686</ele>
        <time>2026-07-07T07:39:24.000Z</time>
      </trkpt>
      <trkpt lat="48.22598" lon="16.4058">
        <ele>193.876796</ele>
        <time>2026-07-07T07:39:25.000Z</time>
      </trkpt>
      <trkpt lat="48.226" lon="16.40585">
        <ele>194.004338</ele>
        <time>2026-07-07T07:39:26.000Z</time>
      </trkpt>
      <trkpt lat="48.22603" lon="16.40589">
        <ele>194.126235</ele>
        <time>2026-07-07T07:39:27.000Z</time>
      </trkpt>
      <trkpt lat="48.22605" lon="16.40594">
        <ele>194.246542</ele>
        <time>2026-07-07T07:39:28.000Z</time>
      </trkpt>
      <trkpt lat="48.22608" lon="16.40598">
        <ele>194.364536</ele>
        <time>2026-07-07T07:39:29.000Z</time>
      </trkpt>
      <trkpt lat="48.2261" lon="16.40602">
        <ele>194.480165</ele>
        <time>2026-07-07T07:39:30.000Z</time>
      </trkpt>
      <trkpt lat="48.22612" lon="16.40607">
        <ele>194.593272</ele>
        <time>2026-07-07T07:39:31.000Z</time>
      </trkpt>
      <trkpt lat="48.22615" lon="16.40611">
        <ele>194.706065</ele>
        <time>2026-07-07T07:39:32.000Z</time>
      </trkpt>
      <trkpt lat="48.22617" lon="16.40615">
        <ele>194.822416</ele>
        <time>2026-07-07T07:39:33.000Z</time>
      </trkpt>
      <trkpt lat="48.22619" lon="16.4062">
        <ele>194.939117</ele>
        <time>2026-07-07T07:39:34.000Z</time>
      </trkpt>
      <trkpt lat="48.22622" lon="16.40624">
        <ele>195.056289</ele>
        <time>2026-07-07T07:39:35.000Z</time>
      </trkpt>
      <trkpt lat="48.22624" lon="16.40628">
        <ele>195.175021</ele>
        <time>2026-07-07T07:39:36.000Z</time>
      </trkpt>
      <trkpt lat="48.22627" lon="16.40632">
        <ele>195.295828</ele>
        <time>2026-07-07T07:39:37.000Z</time>
      </trkpt>
      <trkpt lat="48.22629" lon="16.40637">
        <ele>195.420949</ele>
        <time>2026-07-07T07:39:38.000Z</time>
      </trkpt>
      <trkpt lat="48.22632" lon="16.40642">
        <ele>195.544145</ele>
        <time>2026-07-07T07:39:39.000Z</time>
      </trkpt>
      <trkpt lat="48.22634" lon="16.40646">
        <ele>195.663797</ele>
        <time>2026-07-07T07:39:40.000Z</time>
      </trkpt>
      <trkpt lat="48.22636" lon="16.40651">
        <ele>195.788496</ele>
        <time>2026-07-07T07:39:41.000Z</time>
      </trkpt>
      <trkpt lat="48.22639" lon="16.40656">
        <ele>195.910393</ele>
        <time>2026-07-07T07:39:42.000Z</time>
      </trkpt>
      <trkpt lat="48.22641" lon="16.4066">
        <ele>196.027094</ele>
        <time>2026-07-07T07:39:43.000Z</time>
      </trkpt>
      <trkpt lat="48.22643" lon="16.40664">
        <ele>196.138012</ele>
        <time>2026-07-07T07:39:44.000Z</time>
      </trkpt>
      <trkpt lat="48.22645" lon="16.40669">
        <ele>196.245413</ele>
        <time>2026-07-07T07:39:45.000Z</time>
      </trkpt>
      <trkpt lat="48.22648" lon="16.40673">
        <ele>196.320295</ele>
        <time>2026-07-07T07:39:46.000Z</time>
      </trkpt>
      <trkpt lat="48.2265" lon="16.40677">
        <ele>196.328178</ele>
        <time>2026-07-07T07:39:47.000Z</time>
      </trkpt>
      <trkpt lat="48.22653" lon="16.40682">
        <ele>196.336491</ele>
        <time>2026-07-07T07:39:48.000Z</time>
      </trkpt>
      <trkpt lat="48.22655" lon="16.40687">
        <ele>196.344718</ele>
        <time>2026-07-07T07:39:49.000Z</time>
      </trkpt>
      <trkpt lat="48.22658" lon="16.40692">
        <ele>196.353553</ele>
        <time>2026-07-07T07:39:50.000Z</time>
      </trkpt>
      <trkpt lat="48.2266" lon="16.40697">
        <ele>196.362007</ele>
        <time>2026-07-07T07:39:51.000Z</time>
      </trkpt>
      <trkpt lat="48.22662" lon="16.40702">
        <ele>196.370809</ele>
        <time>2026-07-07T07:39:52.000Z</time>
      </trkpt>
      <trkpt lat="48.22665" lon="16.40707">
        <ele>196.379432</ele>
        <time>2026-07-07T07:39:53.000Z</time>
      </trkpt>
      <trkpt lat="48.22668" lon="16.40712">
        <ele>196.388087</ele>
        <time>2026-07-07T07:39:54.000Z</time>
      </trkpt>
      <trkpt lat="48.22671" lon="16.40716">
        <ele>196.39671</ele>
        <time>2026-07-07T07:39:55.000Z</time>
      </trkpt>
      <trkpt lat="48.22674" lon="16.40721">
        <ele>196.405352</ele>
        <time>2026-07-07T07:39:56.000Z</time>
      </trkpt>
      <trkpt lat="48.22676" lon="16.40725">
        <ele>196.412921</ele>
        <time>2026-07-07T07:39:57.000Z</time>
      </trkpt>
      <trkpt lat="48.22678" lon="16.40729">
        <ele>196.420255</ele>
        <time>2026-07-07T07:39:58.000Z</time>
      </trkpt>
      <trkpt lat="48.2268" lon="16.40733">
        <ele>196.427612</ele>
        <time>2026-07-07T07:39:59.000Z</time>
      </trkpt>
      <trkpt lat="48.22683" lon="16.40738">
        <ele>196.435868</ele>
        <time>2026-07-07T07:40:00.000Z</time>
      </trkpt>
      <trkpt lat="48.22685" lon="16.40743">
        <ele>196.444551</ele>
        <time>2026-07-07T07:40:01.000Z</time>
      </trkpt>
      <trkpt lat="48.22688" lon="16.40748">
        <ele>196.453043</ele>
        <time>2026-07-07T07:40:02.000Z</time>
      </trkpt>
      <trkpt lat="48.22691" lon="16.40753">
        <ele>196.461877</ele>
        <time>2026-07-07T07:40:03.000Z</time>
      </trkpt>
      <trkpt lat="48.22693" lon="16.40758">
        <ele>196.471162</ele>
        <time>2026-07-07T07:40:04.000Z</time>
      </trkpt>
      <trkpt lat="48.22696" lon="16.40764">
        <ele>196.480813</ele>
        <time>2026-07-07T07:40:05.000Z</time>
      </trkpt>
      <trkpt lat="48.22699" lon="16.40769">
        <ele>196.49057</ele>
        <time>2026-07-07T07:40:06.000Z</time>
      </trkpt>
      <trkpt lat="48.22702" lon="16.40775">
        <ele>196.50065</ele>
        <time>2026-07-07T07:40:07.000Z</time>
      </trkpt>
      <trkpt lat="48.22706" lon="16.40781">
        <ele>196.510987</ele>
        <time>2026-07-07T07:40:08.000Z</time>
      </trkpt>
      <trkpt lat="48.22709" lon="16.40786">
        <ele>196.52101</ele>
        <time>2026-07-07T07:40:09.000Z</time>
      </trkpt>
      <trkpt lat="48.22712" lon="16.40792">
        <ele>196.531324</ele>
        <time>2026-07-07T07:40:10.000Z</time>
      </trkpt>
      <trkpt lat="48.22715" lon="16.40798">
        <ele>196.542136</ele>
        <time>2026-07-07T07:40:11.000Z</time>
      </trkpt>
      <trkpt lat="48.22718" lon="16.40804">
        <ele>196.552558</ele>
        <time>2026-07-07T07:40:12.000Z</time>
      </trkpt>
      <trkpt lat="48.22722" lon="16.4081">
        <ele>196.563371</ele>
        <time>2026-07-07T07:40:13.000Z</time>
      </trkpt>
      <trkpt lat="48.22725" lon="16.40816">
        <ele>196.573633</ele>
        <time>2026-07-07T07:40:14.000Z</time>
      </trkpt>
      <trkpt lat="48.22729" lon="16.40822">
        <ele>196.584477</ele>
        <time>2026-07-07T07:40:15.000Z</time>
      </trkpt>
      <trkpt lat="48.22732" lon="16.40828">
        <ele>196.595157</ele>
        <time>2026-07-07T07:40:16.000Z</time>
      </trkpt>
      <trkpt lat="48.22735" lon="16.40834">
        <ele>196.605898</ele>
        <time>2026-07-07T07:40:17.000Z</time>
      </trkpt>
      <trkpt lat="48.22739" lon="16.4084">
        <ele>196.617053</ele>
        <time>2026-07-07T07:40:18.000Z</time>
      </trkpt>
      <trkpt lat="48.22742" lon="16.40846">
        <ele>196.627865</ele>
        <time>2026-07-07T07:40:19.000Z</time>
      </trkpt>
      <trkpt lat="48.22746" lon="16.40852">
        <ele>196.638545</ele>
        <time>2026-07-07T07:40:20.000Z</time>
      </trkpt>
      <trkpt lat="48.22749" lon="16.40858">
        <ele>196.649331</ele>
        <time>2026-07-07T07:40:21.000Z</time>
      </trkpt>
      <trkpt lat="48.22752" lon="16.40864">
        <ele>196.660097</ele>
        <time>2026-07-07T07:40:22.000Z</time>
      </trkpt>
      <trkpt lat="48.22755" lon="16.4087">
        <ele>196.670862</ele>
        <time>2026-07-07T07:40:23.000Z</time>
      </trkpt>
      <trkpt lat="48.22758" lon="16.40876">
        <ele>196.681284</ele>
        <time>2026-07-07T07:40:24.000Z</time>
      </trkpt>
      <trkpt lat="48.22762" lon="16.40882">
        <ele>196.654266</ele>
        <time>2026-07-07T07:40:25.000Z</time>
      </trkpt>
      <trkpt lat="48.22765" lon="16.40888">
        <ele>196.556287</ele>
        <time>2026-07-07T07:40:26.000Z</time>
      </trkpt>
      <trkpt lat="48.22768" lon="16.40894">
        <ele>196.464056</ele>
        <time>2026-07-07T07:40:27.000Z</time>
      </trkpt>
      <trkpt lat="48.22771" lon="16.409">
        <ele>196.373649</ele>
        <time>2026-07-07T07:40:28.000Z</time>
      </trkpt>
      <trkpt lat="48.22774" lon="16.40905">
        <ele>196.285611</ele>
        <time>2026-07-07T07:40:29.000Z</time>
      </trkpt>
      <trkpt lat="48.22776" lon="16.40911">
        <ele>196.19554</ele>
        <time>2026-07-07T07:40:30.000Z</time>
      </trkpt>
      <trkpt lat="48.22779" lon="16.40916">
        <ele>196.105329</ele>
        <time>2026-07-07T07:40:31.000Z</time>
      </trkpt>
      <trkpt lat="48.22782" lon="16.40922">
        <ele>196.011745</ele>
        <time>2026-07-07T07:40:32.000Z</time>
      </trkpt>
      <trkpt lat="48.22785" lon="16.40928">
        <ele>195.919356</ele>
        <time>2026-07-07T07:40:33.000Z</time>
      </trkpt>
      <trkpt lat="48.22788" lon="16.40933">
        <ele>195.827962</ele>
        <time>2026-07-07T07:40:34.000Z</time>
      </trkpt>
      <trkpt lat="48.22791" lon="16.40939">
        <ele>195.735573</ele>
        <time>2026-07-07T07:40:35.000Z</time>
      </trkpt>
      <trkpt lat="48.22794" lon="16.40945">
        <ele>195.645167</ele>
        <time>2026-07-07T07:40:36.000Z</time>
      </trkpt>
      <trkpt lat="48.22797" lon="16.4095">
        <ele>195.562574</ele>
        <time>2026-07-07T07:40:37.000Z</time>
      </trkpt>
      <trkpt lat="48.228" lon="16.40955">
        <ele>195.476703</ele>
        <time>2026-07-07T07:40:38.000Z</time>
      </trkpt>
      <trkpt lat="48.22802" lon="16.40961">
        <ele>195.388785</ele>
        <time>2026-07-07T07:40:39.000Z</time>
      </trkpt>
      <trkpt lat="48.22805" lon="16.40966">
        <ele>195.306095</ele>
        <time>2026-07-07T07:40:40.000Z</time>
      </trkpt>
      <trkpt lat="48.22807" lon="16.40971">
        <ele>195.226585</ele>
        <time>2026-07-07T07:40:41.000Z</time>
      </trkpt>
      <trkpt lat="48.2281" lon="16.40976">
        <ele>195.14824</ele>
        <time>2026-07-07T07:40:42.000Z</time>
      </trkpt>
      <trkpt lat="48.22812" lon="16.40981">
        <ele>195.07414</ele>
        <time>2026-07-07T07:40:43.000Z</time>
      </trkpt>
      <trkpt lat="48.22814" lon="16.40986">
        <ele>194.997648</ele>
        <time>2026-07-07T07:40:44.000Z</time>
      </trkpt>
      <trkpt lat="48.22817" lon="16.4099">
        <ele>194.922145</ele>
        <time>2026-07-07T07:40:45.000Z</time>
      </trkpt>
      <trkpt lat="48.22819" lon="16.40995">
        <ele>194.847623</ele>
        <time>2026-07-07T07:40:46.000Z</time>
      </trkpt>
      <trkpt lat="48.22822" lon="16.41">
        <ele>194.769926</ele>
        <time>2026-07-07T07:40:47.000Z</time>
      </trkpt>
      <trkpt lat="48.22824" lon="16.41005">
        <ele>194.691547</ele>
        <time>2026-07-07T07:40:48.000Z</time>
      </trkpt>
      <trkpt lat="48.22827" lon="16.41009">
        <ele>194.617691</ele>
        <time>2026-07-07T07:40:49.000Z</time>
      </trkpt>
      <trkpt lat="48.22829" lon="16.41013">
        <ele>194.547935</ele>
        <time>2026-07-07T07:40:50.000Z</time>
      </trkpt>
      <trkpt lat="48.22831" lon="16.41017">
        <ele>194.48852</ele>
        <time>2026-07-07T07:40:51.000Z</time>
      </trkpt>
      <trkpt lat="48.22832" lon="16.41021">
        <ele>194.430498</ele>
        <time>2026-07-07T07:40:52.000Z</time>
      </trkpt>
      <trkpt lat="48.22832" lon="16.41026">
        <ele>194.369421</ele>
        <time>2026-07-07T07:40:53.000Z</time>
      </trkpt>
      <trkpt lat="48.22832" lon="16.41031">
        <ele>194.309646</ele>
        <time>2026-07-07T07:40:54.000Z</time>
      </trkpt>
      <trkpt lat="48.22831" lon="16.41034">
        <ele>194.266142</ele>
        <time>2026-07-07T07:40:55.000Z</time>
      </trkpt>
      <trkpt lat="48.2283" lon="16.41036">
        <ele>194.227977</ele>
        <time>2026-07-07T07:40:56.000Z</time>
      </trkpt>
      <trkpt lat="48.22828" lon="16.41038">
        <ele>194.188039</ele>
        <time>2026-07-07T07:40:57.000Z</time>
      </trkpt>
      <trkpt lat="48.22826" lon="16.4104">
        <ele>194.132984</ele>
        <time>2026-07-07T07:40:58.000Z</time>
      </trkpt>
      <trkpt lat="48.22823" lon="16.41043">
        <ele>194.072048</ele>
        <time>2026-07-07T07:40:59.000Z</time>
      </trkpt>
      <trkpt lat="48.2282" lon="16.41046">
        <ele>193.990321</ele>
        <time>2026-07-07T07:41:00.000Z</time>
      </trkpt>
      <trkpt lat="48.22816" lon="16.4105">
        <ele>193.898562</ele>
        <time>2026-07-07T07:41:01.000Z</time>
      </trkpt>
      <trkpt lat="48.22812" lon="16.41054">
        <ele>193.806091</ele>
        <time>2026-07-07T07:41:02.000Z</time>
      </trkpt>
      <trkpt lat="48.22808" lon="16.41059">
        <ele>193.709113</ele>
        <time>2026-07-07T07:41:03.000Z</time>
      </trkpt>
      <trkpt lat="48.22804" lon="16.41064">
        <ele>193.614297</ele>
        <time>2026-07-07T07:41:04.000Z</time>
      </trkpt>
      <trkpt lat="48.228" lon="16.41068">
        <ele>193.528595</ele>
        <time>2026-07-07T07:41:05.000Z</time>
      </trkpt>
      <trkpt lat="48.22797" lon="16.41072">
        <ele>193.453768</ele>
        <time>2026-07-07T07:41:06.000Z</time>
      </trkpt>
      <trkpt lat="48.22794" lon="16.41075">
        <ele>193.38123</ele>
        <time>2026-07-07T07:41:07.000Z</time>
      </trkpt>
      <trkpt lat="48.22791" lon="16.41079">
        <ele>193.30564</ele>
        <time>2026-07-07T07:41:08.000Z</time>
      </trkpt>
      <trkpt lat="48.22788" lon="16.41083">
        <ele>193.236796</ele>
        <time>2026-07-07T07:41:09.000Z</time>
      </trkpt>
      <trkpt lat="48.22785" lon="16.41086">
        <ele>193.183863</ele>
        <time>2026-07-07T07:41:10.000Z</time>
      </trkpt>
      <trkpt lat="48.22781" lon="16.41087">
        <ele>193.127043</ele>
        <time>2026-07-07T07:41:11.000Z</time>
      </trkpt>
      <trkpt lat="48.22778" lon="16.41086">
        <ele>193.07858</ele>
        <time>2026-07-07T07:41:12.000Z</time>
      </trkpt>
      <trkpt lat="48.22775" lon="16.41083">
        <ele>193.020667</ele>
        <time>2026-07-07T07:41:13.000Z</time>
      </trkpt>
      <trkpt lat="48.22772" lon="16.41078">
        <ele>192.962542</ele>
        <time>2026-07-07T07:41:14.000Z</time>
      </trkpt>
      <trkpt lat="48.22769" lon="16.41074">
        <ele>192.903722</ele>
        <time>2026-07-07T07:41:15.000Z</time>
      </trkpt>
      <trkpt lat="48.22767" lon="16.4107">
        <ele>192.851478</ele>
        <time>2026-07-07T07:41:16.000Z</time>
      </trkpt>
      <trkpt lat="48.22763" lon="16.41067">
        <ele>192.792773</ele>
        <time>2026-07-07T07:41:17.000Z</time>
      </trkpt>
      <trkpt lat="48.22759" lon="16.41067">
        <ele>192.733744</ele>
        <time>2026-07-07T07:41:18.000Z</time>
      </trkpt>
      <trkpt lat="48.22755" lon="16.41069">
        <ele>192.672425</ele>
        <time>2026-07-07T07:41:19.000Z</time>
      </trkpt>
      <trkpt lat="48.22752" lon="16.41072">
        <ele>192.608205</ele>
        <time>2026-07-07T07:41:20.000Z</time>
      </trkpt>
      <trkpt lat="48.22748" lon="16.41076">
        <ele>192.542407</ele>
        <time>2026-07-07T07:41:21.000Z</time>
      </trkpt>
      <trkpt lat="48.22745" lon="16.4108">
        <ele>192.479504</ele>
        <time>2026-07-07T07:41:22.000Z</time>
      </trkpt>
      <trkpt lat="48.22741" lon="16.41084">
        <ele>192.413115</ele>
        <time>2026-07-07T07:41:23.000Z</time>
      </trkpt>
      <trkpt lat="48.22738" lon="16.41088">
        <ele>192.349686</ele>
        <time>2026-07-07T07:41:24.000Z</time>
      </trkpt>
      <trkpt lat="48.22734" lon="16.41092">
        <ele>192.286155</ele>
        <time>2026-07-07T07:41:25.000Z</time>
      </trkpt>
      <trkpt lat="48.22731" lon="16.41096">
        <ele>192.227234</ele>
        <time>2026-07-07T07:41:26.000Z</time>
      </trkpt>
      <trkpt lat="48.22728" lon="16.411">
        <ele>192.166086</ele>
        <time>2026-07-07T07:41:27.000Z</time>
      </trkpt>
      <trkpt lat="48.22725" lon="16.41104">
        <ele>192.103802</ele>
        <time>2026-07-07T07:41:28.000Z</time>
      </trkpt>
      <trkpt lat="48.22721" lon="16.41108">
        <ele>192.040373</ele>
        <time>2026-07-07T07:41:29.000Z</time>
      </trkpt>
      <trkpt lat="48.22718" lon="16.41112">
        <ele>191.976944</ele>
        <time>2026-07-07T07:41:30.000Z</time>
      </trkpt>
      <trkpt lat="48.22714" lon="16.41116">
        <ele>191.913511</ele>
        <time>2026-07-07T07:41:31.000Z</time>
      </trkpt>
      <trkpt lat="48.22711" lon="16.4112">
        <ele>191.856496</ele>
        <time>2026-07-07T07:41:32.000Z</time>
      </trkpt>
      <trkpt lat="48.22708" lon="16.41123">
        <ele>191.798856</ele>
        <time>2026-07-07T07:41:34.000Z</time>
      </trkpt>
      <trkpt lat="48.22705" lon="16.41127">
        <ele>191.736572</ele>
        <time>2026-07-07T07:41:35.000Z</time>
      </trkpt>
      <trkpt lat="48.22702" lon="16.41131">
        <ele>191.674288</ele>
        <time>2026-07-07T07:41:36.000Z</time>
      </trkpt>
      <trkpt lat="48.22698" lon="16.41135">
        <ele>191.610855</ele>
        <time>2026-07-07T07:41:37.000Z</time>
      </trkpt>
      <trkpt lat="48.22695" lon="16.41139">
        <ele>191.550827</ele>
        <time>2026-07-07T07:41:38.000Z</time>
      </trkpt>
      <trkpt lat="48.22692" lon="16.41143">
        <ele>191.487394</ele>
        <time>2026-07-07T07:41:39.000Z</time>
      </trkpt>
      <trkpt lat="48.22689" lon="16.41148">
        <ele>191.423863</ele>
        <time>2026-07-07T07:41:40.000Z</time>
      </trkpt>
      <trkpt lat="48.22685" lon="16.41152">
        <ele>191.361579</ele>
        <time>2026-07-07T07:41:41.000Z</time>
      </trkpt>
      <trkpt lat="48.22682" lon="16.41156">
        <ele>191.296921</ele>
        <time>2026-07-07T07:41:42.000Z</time>
      </trkpt>
      <trkpt lat="48.22679" lon="16.4116">
        <ele>191.234018</ele>
        <time>2026-07-07T07:41:43.000Z</time>
      </trkpt>
      <trkpt lat="48.22675" lon="16.41164">
        <ele>191.168219</ele>
        <time>2026-07-07T07:41:44.000Z</time>
      </trkpt>
      <trkpt lat="48.22671" lon="16.41168">
        <ele>191.099507</ele>
        <time>2026-07-07T07:41:45.000Z</time>
      </trkpt>
      <trkpt lat="48.22668" lon="16.41173">
        <ele>191.031337</ele>
        <time>2026-07-07T07:41:46.000Z</time>
      </trkpt>
      <trkpt lat="48.22664" lon="16.41177">
        <ele>190.963805</ele>
        <time>2026-07-07T07:41:47.000Z</time>
      </trkpt>
      <trkpt lat="48.2266" lon="16.41181">
        <ele>190.89451</ele>
        <time>2026-07-07T07:41:48.000Z</time>
      </trkpt>
      <trkpt lat="48.22656" lon="16.41185">
        <ele>190.826235</ele>
        <time>2026-07-07T07:41:49.000Z</time>
      </trkpt>
      <trkpt lat="48.22652" lon="16.41188">
        <ele>190.758735</ele>
        <time>2026-07-07T07:41:50.000Z</time>
      </trkpt>
      <trkpt lat="48.22648" lon="16.41191">
        <ele>190.693074</ele>
        <time>2026-07-07T07:41:51.000Z</time>
      </trkpt>
      <trkpt lat="48.22644" lon="16.41194">
        <ele>190.628091</ele>
        <time>2026-07-07T07:41:52.000Z</time>
      </trkpt>
      <trkpt lat="48.2264" lon="16.41196">
        <ele>190.609373</ele>
        <time>2026-07-07T07:41:53.000Z</time>
      </trkpt>
      <trkpt lat="48.22636" lon="16.41198">
        <ele>190.604143</ele>
        <time>2026-07-07T07:41:54.000Z</time>
      </trkpt>
      <trkpt lat="48.22631" lon="16.412">
        <ele>190.599127</ele>
        <time>2026-07-07T07:41:55.000Z</time>
      </trkpt>
      <trkpt lat="48.22627" lon="16.41203">
        <ele>190.593571</ele>
        <time>2026-07-07T07:41:56.000Z</time>
      </trkpt>
      <trkpt lat="48.22622" lon="16.41205">
        <ele>190.588275</ele>
        <time>2026-07-07T07:41:57.000Z</time>
      </trkpt>
      <trkpt lat="48.22617" lon="16.41207">
        <ele>190.582743</ele>
        <time>2026-07-07T07:41:58.000Z</time>
      </trkpt>
      <trkpt lat="48.22613" lon="16.41209">
        <ele>190.577386</ele>
        <time>2026-07-07T07:41:59.000Z</time>
      </trkpt>
      <trkpt lat="48.22608" lon="16.41212">
        <ele>190.571854</ele>
        <time>2026-07-07T07:42:00.000Z</time>
      </trkpt>
      <trkpt lat="48.22603" lon="16.41214">
        <ele>190.566027</ele>
        <time>2026-07-07T07:42:01.000Z</time>
      </trkpt>
      <trkpt lat="48.22598" lon="16.41217">
        <ele>190.559791</ele>
        <time>2026-07-07T07:42:02.000Z</time>
      </trkpt>
      <trkpt lat="48.22592" lon="16.41219">
        <ele>190.553153</ele>
        <time>2026-07-07T07:42:03.000Z</time>
      </trkpt>
      <trkpt lat="48.22586" lon="16.41222">
        <ele>190.546173</ele>
        <time>2026-07-07T07:42:04.000Z</time>
      </trkpt>
      <trkpt lat="48.2258" lon="16.41225">
        <ele>190.538915</ele>
        <time>2026-07-07T07:42:05.000Z</time>
      </trkpt>
      <trkpt lat="48.22574" lon="16.41228">
        <ele>190.53148</ele>
        <time>2026-07-07T07:42:06.000Z</time>
      </trkpt>
      <trkpt lat="48.22567" lon="16.41233">
        <ele>190.523806</ele>
        <time>2026-07-07T07:42:07.000Z</time>
      </trkpt>
      <trkpt lat="48.22562" lon="16.41239">
        <ele>190.516274</ele>
        <time>2026-07-07T07:42:08.000Z</time>
      </trkpt>
      <trkpt lat="48.22557" lon="16.41245">
        <ele>190.509233</ele>
        <time>2026-07-07T07:42:09.000Z</time>
      </trkpt>
      <trkpt lat="48.22553" lon="16.41249">
        <ele>190.503306</ele>
        <time>2026-07-07T07:42:10.000Z</time>
      </trkpt>
      <trkpt lat="48.22549" lon="16.41253">
        <ele>190.498359</ele>
        <time>2026-07-07T07:42:11.000Z</time>
      </trkpt>
      <trkpt lat="48.22545" lon="16.41258">
        <ele>190.49319</ele>
        <time>2026-07-07T07:42:12.000Z</time>
      </trkpt>
      <trkpt lat="48.22541" lon="16.41262">
        <ele>190.487484</ele>
        <time>2026-07-07T07:42:13.000Z</time>
      </trkpt>
      <trkpt lat="48.22537" lon="16.41268">
        <ele>190.481339</ele>
        <time>2026-07-07T07:42:14.000Z</time>
      </trkpt>
      <trkpt lat="48.22533" lon="16.41274">
        <ele>190.474632</ele>
        <time>2026-07-07T07:42:15.000Z</time>
      </trkpt>
      <trkpt lat="48.22528" lon="16.41281">
        <ele>190.46749</ele>
        <time>2026-07-07T07:42:16.000Z</time>
      </trkpt>
      <trkpt lat="48.22524" lon="16.41288">
        <ele>190.460216</ele>
        <time>2026-07-07T07:42:17.000Z</time>
      </trkpt>
      <trkpt lat="48.22519" lon="16.41295">
        <ele>190.452418</ele>
        <time>2026-07-07T07:42:18.000Z</time>
      </trkpt>
      <trkpt lat="48.22514" lon="16.41303">
        <ele>190.444514</ele>
        <time>2026-07-07T07:42:19.000Z</time>
      </trkpt>
      <trkpt lat="48.22508" lon="16.4131">
        <ele>190.436564</ele>
        <time>2026-07-07T07:42:20.000Z</time>
      </trkpt>
      <trkpt lat="48.22503" lon="16.41316">
        <ele>190.428677</ele>
        <time>2026-07-07T07:42:21.000Z</time>
      </trkpt>
      <trkpt lat="48.22497" lon="16.41323">
        <ele>190.420789</ele>
        <time>2026-07-07T07:42:22.000Z</time>
      </trkpt>
      <trkpt lat="48.22491" lon="16.41329">
        <ele>190.412946</ele>
        <time>2026-07-07T07:42:23.000Z</time>
      </trkpt>
      <trkpt lat="48.22486" lon="16.41335">
        <ele>190.424321</ele>
        <time>2026-07-07T07:42:24.000Z</time>
      </trkpt>
      <trkpt lat="48.22481" lon="16.41342">
        <ele>190.436047</ele>
        <time>2026-07-07T07:42:25.000Z</time>
      </trkpt>
      <trkpt lat="48.22476" lon="16.41348">
        <ele>190.446993</ele>
        <time>2026-07-07T07:42:26.000Z</time>
      </trkpt>
      <trkpt lat="48.22472" lon="16.41354">
        <ele>190.457835</ele>
        <time>2026-07-07T07:42:27.000Z</time>
      </trkpt>
      <trkpt lat="48.22467" lon="16.4136">
        <ele>190.468341</ele>
        <time>2026-07-07T07:42:28.000Z</time>
      </trkpt>
      <trkpt lat="48.22463" lon="16.41366">
        <ele>190.478514</ele>
        <time>2026-07-07T07:42:29.000Z</time>
      </trkpt>
      <trkpt lat="48.22459" lon="16.41371">
        <ele>190.487731</ele>
        <time>2026-07-07T07:42:30.000Z</time>
      </trkpt>
      <trkpt lat="48.22456" lon="16.41375">
        <ele>190.494314</ele>
        <time>2026-07-07T07:42:31.000Z</time>
      </trkpt>
      <trkpt lat="48.22453" lon="16.41377">
        <ele>190.499694</ele>
        <time>2026-07-07T07:42:32.000Z</time>
      </trkpt>
      <trkpt lat="48.22451" lon="16.41379">
        <ele>190.504131</ele>
        <time>2026-07-07T07:42:33.000Z</time>
      </trkpt>
      <trkpt lat="48.22451" lon="16.41382">
        <ele>190.507726</ele>
        <time>2026-07-07T07:42:34.000Z</time>
      </trkpt>
      <trkpt lat="48.22452" lon="16.41384">
        <ele>190.51036</ele>
        <time>2026-07-07T07:42:35.000Z</time>
      </trkpt>
      <trkpt lat="48.22454" lon="16.41382">
        <ele>190.513872</ele>
        <time>2026-07-07T07:42:36.000Z</time>
      </trkpt>
      <trkpt lat="48.22455" lon="16.41381">
        <ele>190.516021</ele>
        <time>2026-07-07T07:42:37.000Z</time>
      </trkpt>
      <trkpt lat="48.22455" lon="16.41377">
        <ele>190.520881</ele>
        <time>2026-07-07T07:42:57.000Z</time>
      </trkpt>
      <trkpt lat="48.22454" lon="16.41376">
        <ele>190.522638</ele>
        <time>2026-07-07T07:42:58.000Z</time>
      </trkpt>
      <trkpt lat="48.22453" lon="16.41377">
        <ele>190.524599</ele>
        <time>2026-07-07T07:42:59.000Z</time>
      </trkpt>
      <trkpt lat="48.22452" lon="16.41378">
        <ele>190.526747</ele>
        <time>2026-07-07T07:43:00.000Z</time>
      </trkpt>
      <trkpt lat="48.22451" lon="16.4138">
        <ele>190.530027</ele>
        <time>2026-07-07T07:43:01.000Z</time>
      </trkpt>
      <trkpt lat="48.2245" lon="16.41383">
        <ele>190.533797</ele>
        <time>2026-07-07T07:43:02.000Z</time>
      </trkpt>
      <trkpt lat="48.22449" lon="16.41386">
        <ele>190.537634</ele>
        <time>2026-07-07T07:43:03.000Z</time>
      </trkpt>
      <trkpt lat="48.22448" lon="16.41389">
        <ele>190.541964</ele>
        <time>2026-07-07T07:43:04.000Z</time>
      </trkpt>
      <trkpt lat="48.22445" lon="16.41392">
        <ele>190.547169</ele>
        <time>2026-07-07T07:43:05.000Z</time>
      </trkpt>
      <trkpt lat="48.22443" lon="16.41395">
        <ele>190.552855</ele>
        <time>2026-07-07T07:43:06.000Z</time>
      </trkpt>
      <trkpt lat="48.2244" lon="16.41399">
        <ele>190.559169</ele>
        <time>2026-07-07T07:43:07.000Z</time>
      </trkpt>
      <trkpt lat="48.22437" lon="16.41403">
        <ele>190.566277</ele>
        <time>2026-07-07T07:43:08.000Z</time>
      </trkpt>
      <trkpt lat="48.22434" lon="16.41407">
        <ele>190.573954</ele>
        <time>2026-07-07T07:43:09.000Z</time>
      </trkpt>
      <trkpt lat="48.2243" lon="16.41412">
        <ele>190.581997</ele>
        <time>2026-07-07T07:43:10.000Z</time>
      </trkpt>
      <trkpt lat="48.22427" lon="16.41417">
        <ele>190.590322</ele>
        <time>2026-07-07T07:43:11.000Z</time>
      </trkpt>
      <trkpt lat="48.22423" lon="16.41422">
        <ele>190.598871</ele>
        <time>2026-07-07T07:43:12.000Z</time>
      </trkpt>
      <trkpt lat="48.22419" lon="16.41427">
        <ele>190.607704</ele>
        <time>2026-07-07T07:43:13.000Z</time>
      </trkpt>
      <trkpt lat="48.22415" lon="16.41432">
        <ele>190.616873</ele>
        <time>2026-07-07T07:43:14.000Z</time>
      </trkpt>
      <trkpt lat="48.22411" lon="16.41437">
        <ele>190.625861</ele>
        <time>2026-07-07T07:43:15.000Z</time>
      </trkpt>
      <trkpt lat="48.22407" lon="16.41443">
        <ele>190.635182</ele>
        <time>2026-07-07T07:43:16.000Z</time>
      </trkpt>
      <trkpt lat="48.22403" lon="16.41448">
        <ele>190.644427</ele>
        <time>2026-07-07T07:43:17.000Z</time>
      </trkpt>
      <trkpt lat="48.22399" lon="16.41453">
        <ele>190.653672</ele>
        <time>2026-07-07T07:43:18.000Z</time>
      </trkpt>
      <trkpt lat="48.22395" lon="16.41459">
        <ele>190.662944</ele>
        <time>2026-07-07T07:43:19.000Z</time>
      </trkpt>
      <trkpt lat="48.22392" lon="16.41464">
        <ele>190.672011</ele>
        <time>2026-07-07T07:43:20.000Z</time>
      </trkpt>
      <trkpt lat="48.22388" lon="16.41469">
        <ele>190.680844</ele>
        <time>2026-07-07T07:43:21.000Z</time>
      </trkpt>
      <trkpt lat="48.22384" lon="16.41474">
        <ele>190.68947</ele>
        <time>2026-07-07T07:43:22.000Z</time>
      </trkpt>
      <trkpt lat="48.2238" lon="16.4148">
        <ele>190.698412</ele>
        <time>2026-07-07T07:43:23.000Z</time>
      </trkpt>
      <trkpt lat="48.22377" lon="16.41485">
        <ele>190.707027</ele>
        <time>2026-07-07T07:43:24.000Z</time>
      </trkpt>
      <trkpt lat="48.22373" lon="16.4149">
        <ele>190.715684</ele>
        <time>2026-07-07T07:43:25.000Z</time>
      </trkpt>
      <trkpt lat="48.2237" lon="16.41495">
        <ele>190.724158</ele>
        <time>2026-07-07T07:43:26.000Z</time>
      </trkpt>
      <trkpt lat="48.22366" lon="16.415">
        <ele>190.725689</ele>
        <time>2026-07-07T07:43:27.000Z</time>
      </trkpt>
      <trkpt lat="48.22362" lon="16.41504">
        <ele>190.726897</ele>
        <time>2026-07-07T07:43:28.000Z</time>
      </trkpt>
      <trkpt lat="48.22359" lon="16.41508">
        <ele>190.728051</ele>
        <time>2026-07-07T07:43:29.000Z</time>
      </trkpt>
      <trkpt lat="48.22356" lon="16.41512">
        <ele>190.729123</ele>
        <time>2026-07-07T07:43:30.000Z</time>
      </trkpt>
      <trkpt lat="48.22352" lon="16.41517">
        <ele>190.730289</ele>
        <time>2026-07-07T07:43:31.000Z</time>
      </trkpt>
      <trkpt lat="48.22349" lon="16.41521">
        <ele>190.731419</ele>
        <time>2026-07-07T07:43:32.000Z</time>
      </trkpt>
      <trkpt lat="48.22346" lon="16.41525">
        <ele>190.732585</ele>
        <time>2026-07-07T07:43:33.000Z</time>
      </trkpt>
      <trkpt lat="48.22343" lon="16.4153">
        <ele>190.733742</ele>
        <time>2026-07-07T07:43:34.000Z</time>
      </trkpt>
      <trkpt lat="48.22339" lon="16.41534">
        <ele>190.734868</ele>
        <time>2026-07-07T07:43:35.000Z</time>
      </trkpt>
      <trkpt lat="48.22336" lon="16.41539">
        <ele>190.735999</ele>
        <time>2026-07-07T07:43:36.000Z</time>
      </trkpt>
      <trkpt lat="48.22333" lon="16.41543">
        <ele>190.737114</ele>
        <time>2026-07-07T07:43:37.000Z</time>
      </trkpt>
      <trkpt lat="48.2233" lon="16.41547">
        <ele>190.738237</ele>
        <time>2026-07-07T07:43:38.000Z</time>
      </trkpt>
      <trkpt lat="48.22327" lon="16.41551">
        <ele>190.739375</ele>
        <time>2026-07-07T07:43:39.000Z</time>
      </trkpt>
      <trkpt lat="48.22323" lon="16.41556">
        <ele>190.740543</ele>
        <time>2026-07-07T07:43:40.000Z</time>
      </trkpt>
      <trkpt lat="48.2232" lon="16.4156">
        <ele>190.741693</ele>
        <time>2026-07-07T07:43:41.000Z</time>
      </trkpt>
      <trkpt lat="48.22317" lon="16.41565">
        <ele>190.742862</ele>
        <time>2026-07-07T07:43:42.000Z</time>
      </trkpt>
      <trkpt lat="48.22313" lon="16.41569">
        <ele>190.744028</ele>
        <time>2026-07-07T07:43:43.000Z</time>
      </trkpt>
      <trkpt lat="48.2231" lon="16.41573">
        <ele>190.745203</ele>
        <time>2026-07-07T07:43:44.000Z</time>
      </trkpt>
      <trkpt lat="48.22307" lon="16.41578">
        <ele>190.746348</ele>
        <time>2026-07-07T07:43:45.000Z</time>
      </trkpt>
      <trkpt lat="48.22303" lon="16.41582">
        <ele>190.747483</ele>
        <time>2026-07-07T07:43:46.000Z</time>
      </trkpt>
      <trkpt lat="48.223" lon="16.41586">
        <ele>190.748574</ele>
        <time>2026-07-07T07:43:47.000Z</time>
      </trkpt>
      <trkpt lat="48.22297" lon="16.4159">
        <ele>190.749626</ele>
        <time>2026-07-07T07:43:48.000Z</time>
      </trkpt>
      <trkpt lat="48.22294" lon="16.41594">
        <ele>190.750718</ele>
        <time>2026-07-07T07:43:49.000Z</time>
      </trkpt>
      <trkpt lat="48.22291" lon="16.41597">
        <ele>190.751725</ele>
        <time>2026-07-07T07:43:50.000Z</time>
      </trkpt>
      <trkpt lat="48.22288" lon="16.41601">
        <ele>190.752797</ele>
        <time>2026-07-07T07:43:51.000Z</time>
      </trkpt>
      <trkpt lat="48.22285" lon="16.41605">
        <ele>190.753849</ele>
        <time>2026-07-07T07:43:52.000Z</time>
      </trkpt>
      <trkpt lat="48.22282" lon="16.4161">
        <ele>190.754925</ele>
        <time>2026-07-07T07:43:53.000Z</time>
      </trkpt>
      <trkpt lat="48.22279" lon="16.41614">
        <ele>190.756039</ele>
        <time>2026-07-07T07:43:54.000Z</time>
      </trkpt>
      <trkpt lat="48.22275" lon="16.41618">
        <ele>190.757131</ele>
        <time>2026-07-07T07:43:55.000Z</time>
      </trkpt>
      <trkpt lat="48.22273" lon="16.41622">
        <ele>190.75812</ele>
        <time>2026-07-07T07:43:56.000Z</time>
      </trkpt>
      <trkpt lat="48.2227" lon="16.41626">
        <ele>190.759165</ele>
        <time>2026-07-07T07:43:57.000Z</time>
      </trkpt>
      <trkpt lat="48.22267" lon="16.41631">
        <ele>190.76024</ele>
        <time>2026-07-07T07:43:58.000Z</time>
      </trkpt>
      <trkpt lat="48.22264" lon="16.41635">
        <ele>190.761328</ele>
        <time>2026-07-07T07:43:59.000Z</time>
      </trkpt>
      <trkpt lat="48.22261" lon="16.41639">
        <ele>190.762454</ele>
        <time>2026-07-07T07:44:00.000Z</time>
      </trkpt>
      <trkpt lat="48.22258" lon="16.41644">
        <ele>190.763588</ele>
        <time>2026-07-07T07:44:01.000Z</time>
      </trkpt>
      <trkpt lat="48.22255" lon="16.41648">
        <ele>190.764703</ele>
        <time>2026-07-07T07:44:02.000Z</time>
      </trkpt>
      <trkpt lat="48.22251" lon="16.41652">
        <ele>190.765826</ele>
        <time>2026-07-07T07:44:03.000Z</time>
      </trkpt>
      <trkpt lat="48.22248" lon="16.41656">
        <ele>190.76698</ele>
        <time>2026-07-07T07:44:04.000Z</time>
      </trkpt>
      <trkpt lat="48.22244" lon="16.4166">
        <ele>190.768134</ele>
        <time>2026-07-07T07:44:05.000Z</time>
      </trkpt>
      <trkpt lat="48.22241" lon="16.41664">
        <ele>190.769268</ele>
        <time>2026-07-07T07:44:06.000Z</time>
      </trkpt>
      <trkpt lat="48.22238" lon="16.41669">
        <ele>190.770454</ele>
        <time>2026-07-07T07:44:07.000Z</time>
      </trkpt>
      <trkpt lat="48.22234" lon="16.41673">
        <ele>190.772149</ele>
        <time>2026-07-07T07:44:08.000Z</time>
      </trkpt>
      <trkpt lat="48.22231" lon="16.41678">
        <ele>190.799555</ele>
        <time>2026-07-07T07:44:09.000Z</time>
      </trkpt>
      <trkpt lat="48.22227" lon="16.41682">
        <ele>190.82645</ele>
        <time>2026-07-07T07:44:10.000Z</time>
      </trkpt>
      <trkpt lat="48.22224" lon="16.41687">
        <ele>190.8536</ele>
        <time>2026-07-07T07:44:11.000Z</time>
      </trkpt>
      <trkpt lat="48.2222" lon="16.41691">
        <ele>190.879792</ele>
        <time>2026-07-07T07:44:12.000Z</time>
      </trkpt>
      <trkpt lat="48.22217" lon="16.41695">
        <ele>190.904659</ele>
        <time>2026-07-07T07:44:13.000Z</time>
      </trkpt>
      <trkpt lat="48.22214" lon="16.41699">
        <ele>190.929192</ele>
        <time>2026-07-07T07:44:14.000Z</time>
      </trkpt>
      <trkpt lat="48.22211" lon="16.41703">
        <ele>190.953724</ele>
        <time>2026-07-07T07:44:15.000Z</time>
      </trkpt>
      <trkpt lat="48.22208" lon="16.41707">
        <ele>190.976496</ele>
        <time>2026-07-07T07:44:16.000Z</time>
      </trkpt>
      <trkpt lat="48.22205" lon="16.41711">
        <ele>191.000136</ele>
        <time>2026-07-07T07:44:17.000Z</time>
      </trkpt>
      <trkpt lat="48.22202" lon="16.41715">
        <ele>191.023517</ele>
        <time>2026-07-07T07:44:18.000Z</time>
      </trkpt>
      <trkpt lat="48.22199" lon="16.41719">
        <ele>191.046289</ele>
        <time>2026-07-07T07:44:19.000Z</time>
      </trkpt>
      <trkpt lat="48.22197" lon="16.41723">
        <ele>191.068094</ele>
        <time>2026-07-07T07:44:20.000Z</time>
      </trkpt>
      <trkpt lat="48.22194" lon="16.41727">
        <ele>191.089632</ele>
        <time>2026-07-07T07:44:21.000Z</time>
      </trkpt>
      <trkpt lat="48.22191" lon="16.4173">
        <ele>191.110207</ele>
        <time>2026-07-07T07:44:22.000Z</time>
      </trkpt>
      <trkpt lat="48.22189" lon="16.41734">
        <ele>191.131223</ele>
        <time>2026-07-07T07:44:23.000Z</time>
      </trkpt>
      <trkpt lat="48.22186" lon="16.41738">
        <ele>191.153028</ele>
        <time>2026-07-07T07:44:24.000Z</time>
      </trkpt>
      <trkpt lat="48.22181" lon="16.41745">
        <ele>191.194672</ele>
        <time>2026-07-07T07:44:26.000Z</time>
      </trkpt>
      <trkpt lat="48.22178" lon="16.41748">
        <ele>191.214285</ele>
        <time>2026-07-07T07:44:27.000Z</time>
      </trkpt>
      <trkpt lat="48.22175" lon="16.41751">
        <ele>191.234499</ele>
        <time>2026-07-07T07:44:28.000Z</time>
      </trkpt>
      <trkpt lat="48.22168" lon="16.41752">
        <ele>191.276101</ele>
        <time>2026-07-07T07:44:30.000Z</time>
      </trkpt>
      <trkpt lat="48.22161" lon="16.41753">
        <ele>191.322067</ele>
        <time>2026-07-07T07:44:32.000Z</time>
      </trkpt>
      <trkpt lat="48.22153" lon="16.41755">
        <ele>191.367086</ele>
        <time>2026-07-07T07:44:33.000Z</time>
      </trkpt>
      <trkpt lat="48.2215" lon="16.41757">
        <ele>191.389043</ele>
        <time>2026-07-07T07:44:34.000Z</time>
      </trkpt>
      <trkpt lat="48.22147" lon="16.41761">
        <ele>191.412839</ele>
        <time>2026-07-07T07:44:36.000Z</time>
      </trkpt>
      <trkpt lat="48.22144" lon="16.41766">
        <ele>191.436046</ele>
        <time>2026-07-07T07:44:37.000Z</time>
      </trkpt>
      <trkpt lat="48.22142" lon="16.41771">
        <ele>191.458638</ele>
        <time>2026-07-07T07:44:38.000Z</time>
      </trkpt>
      <trkpt lat="48.22141" lon="16.41782">
        <ele>191.502708</ele>
        <time>2026-07-07T07:44:39.000Z</time>
      </trkpt>
      <trkpt lat="48.22142" lon="16.41787">
        <ele>191.523198</ele>
        <time>2026-07-07T07:44:40.000Z</time>
      </trkpt>
      <trkpt lat="48.22144" lon="16.41791">
        <ele>191.543799</ele>
        <time>2026-07-07T07:44:41.000Z</time>
      </trkpt>
      <trkpt lat="48.22146" lon="16.41796">
        <ele>191.566199</ele>
        <time>2026-07-07T07:44:42.000Z</time>
      </trkpt>
      <trkpt lat="48.22149" lon="16.418">
        <ele>191.590557</ele>
        <time>2026-07-07T07:44:43.000Z</time>
      </trkpt>
      <trkpt lat="48.22152" lon="16.41805">
        <ele>191.614724</ele>
        <time>2026-07-07T07:44:44.000Z</time>
      </trkpt>
      <trkpt lat="48.22155" lon="16.41809">
        <ele>191.639297</ele>
        <time>2026-07-07T07:44:45.000Z</time>
      </trkpt>
      <trkpt lat="48.22157" lon="16.41814">
        <ele>191.662974</ele>
        <time>2026-07-07T07:44:46.000Z</time>
      </trkpt>
      <trkpt lat="48.2216" lon="16.41819">
        <ele>191.68751</ele>
        <time>2026-07-07T07:44:47.000Z</time>
      </trkpt>
      <trkpt lat="48.22163" lon="16.41824">
        <ele>191.713386</ele>
        <time>2026-07-07T07:44:48.000Z</time>
      </trkpt>
      <trkpt lat="48.22166" lon="16.41829">
        <ele>191.740384</ele>
        <time>2026-07-07T07:44:49.000Z</time>
      </trkpt>
      <trkpt lat="48.22169" lon="16.41834">
        <ele>191.767087</ele>
        <time>2026-07-07T07:44:50.000Z</time>
      </trkpt>
      <trkpt lat="48.22172" lon="16.41839">
        <ele>191.793497</ele>
        <time>2026-07-07T07:44:51.000Z</time>
      </trkpt>
      <trkpt lat="48.22175" lon="16.41845">
        <ele>191.820495</ele>
        <time>2026-07-07T07:44:52.000Z</time>
      </trkpt>
      <trkpt lat="48.22177" lon="16.4185">
        <ele>191.804849</ele>
        <time>2026-07-07T07:44:53.000Z</time>
      </trkpt>
      <trkpt lat="48.22179" lon="16.41855">
        <ele>191.76499</ele>
        <time>2026-07-07T07:44:54.000Z</time>
      </trkpt>
      <trkpt lat="48.2218" lon="16.4186">
        <ele>191.730386</ele>
        <time>2026-07-07T07:44:55.000Z</time>
      </trkpt>
      <trkpt lat="48.2218" lon="16.41864">
        <ele>191.70093</ele>
        <time>2026-07-07T07:44:56.000Z</time>
      </trkpt>
      <trkpt lat="48.2218" lon="16.41867">
        <ele>191.677786</ele>
        <time>2026-07-07T07:44:57.000Z</time>
      </trkpt>
      <trkpt lat="48.22181" lon="16.41869">
        <ele>191.660051</ele>
        <time>2026-07-07T07:44:58.000Z</time>
      </trkpt>
      <trkpt lat="48.22182" lon="16.41871">
        <ele>191.646574</ele>
        <time>2026-07-07T07:44:59.000Z</time>
      </trkpt>
      <trkpt lat="48.22183" lon="16.41871">
        <ele>191.633464</ele>
        <time>2026-07-07T07:45:01.000Z</time>
      </trkpt>
      <trkpt lat="48.22185" lon="16.41866">
        <ele>191.590817</ele>
        <time>2026-07-07T07:45:04.000Z</time>
      </trkpt>
      <trkpt lat="48.22185" lon="16.41863">
        <ele>191.567673</ele>
        <time>2026-07-07T07:45:05.000Z</time>
      </trkpt>
      <trkpt lat="48.22184" lon="16.41859">
        <ele>191.53967</ele>
        <time>2026-07-07T07:45:06.000Z</time>
      </trkpt>
      <trkpt lat="48.22182" lon="16.41855">
        <ele>191.506969</ele>
        <time>2026-07-07T07:45:07.000Z</time>
      </trkpt>
      <trkpt lat="48.2218" lon="16.41852">
        <ele>191.472491</ele>
        <time>2026-07-07T07:45:08.000Z</time>
      </trkpt>
      <trkpt lat="48.22178" lon="16.41848">
        <ele>191.43771</ele>
        <time>2026-07-07T07:45:09.000Z</time>
      </trkpt>
      <trkpt lat="48.22175" lon="16.41844">
        <ele>191.401332</ele>
        <time>2026-07-07T07:45:10.000Z</time>
      </trkpt>
      <trkpt lat="48.22173" lon="16.4184">
        <ele>191.364552</ele>
        <time>2026-07-07T07:45:11.000Z</time>
      </trkpt>
      <trkpt lat="48.22171" lon="16.41835">
        <ele>191.323653</ele>
        <time>2026-07-07T07:45:12.000Z</time>
      </trkpt>
      <trkpt lat="48.22169" lon="16.4183">
        <ele>191.282019</ele>
        <time>2026-07-07T07:45:13.000Z</time>
      </trkpt>
      <trkpt lat="48.22166" lon="16.41825">
        <ele>191.236209</ele>
        <time>2026-07-07T07:45:14.000Z</time>
      </trkpt>
      <trkpt lat="48.22163" lon="16.4182">
        <ele>191.188649</ele>
        <time>2026-07-07T07:45:15.000Z</time>
      </trkpt>
      <trkpt lat="48.2216" lon="16.41815">
        <ele>191.139186</ele>
        <time>2026-07-07T07:45:16.000Z</time>
      </trkpt>
      <trkpt lat="48.22157" lon="16.4181">
        <ele>191.091994</ele>
        <time>2026-07-07T07:45:17.000Z</time>
      </trkpt>
      <trkpt lat="48.22154" lon="16.41805">
        <ele>191.044803</ele>
        <time>2026-07-07T07:45:18.000Z</time>
      </trkpt>
      <trkpt lat="48.2215" lon="16.41801">
        <ele>190.999327</ele>
        <time>2026-07-07T07:45:19.000Z</time>
      </trkpt>
      <trkpt lat="48.22147" lon="16.418">
        <ele>190.958716</ele>
        <time>2026-07-07T07:45:20.000Z</time>
      </trkpt>
      <trkpt lat="48.22143" lon="16.41801">
        <ele>190.923818</ele>
        <time>2026-07-07T07:45:21.000Z</time>
      </trkpt>
      <trkpt lat="48.22141" lon="16.41803">
        <ele>190.900282</ele>
        <time>2026-07-07T07:45:22.000Z</time>
      </trkpt>
      <trkpt lat="48.2214" lon="16.41804">
        <ele>190.881309</ele>
        <time>2026-07-07T07:45:23.000Z</time>
      </trkpt>
      <trkpt lat="48.22138" lon="16.41806">
        <ele>190.857987</ele>
        <time>2026-07-07T07:45:24.000Z</time>
      </trkpt>
      <trkpt lat="48.22136" lon="16.4181">
        <ele>190.827925</ele>
        <time>2026-07-07T07:45:25.000Z</time>
      </trkpt>
      <trkpt lat="48.22134" lon="16.41813">
        <ele>190.793299</ele>
        <time>2026-07-07T07:45:26.000Z</time>
      </trkpt>
      <trkpt lat="48.22132" lon="16.41818">
        <ele>190.753798</ele>
        <time>2026-07-07T07:45:27.000Z</time>
      </trkpt>
      <trkpt lat="48.22129" lon="16.41822">
        <ele>190.710613</ele>
        <time>2026-07-07T07:45:28.000Z</time>
      </trkpt>
      <trkpt lat="48.22125" lon="16.41825">
        <ele>190.66634</ele>
        <time>2026-07-07T07:45:29.000Z</time>
      </trkpt>
      <trkpt lat="48.22122" lon="16.41829">
        <ele>190.620032</ele>
        <time>2026-07-07T07:45:30.000Z</time>
      </trkpt>
      <trkpt lat="48.22118" lon="16.41834">
        <ele>190.572419</ele>
        <time>2026-07-07T07:45:31.000Z</time>
      </trkpt>
      <trkpt lat="48.22115" lon="16.41838">
        <ele>190.526065</ele>
        <time>2026-07-07T07:45:32.000Z</time>
      </trkpt>
      <trkpt lat="48.22111" lon="16.41842">
        <ele>190.479328</ele>
        <time>2026-07-07T07:45:33.000Z</time>
      </trkpt>
      <trkpt lat="48.22108" lon="16.41846">
        <ele>190.432394</ele>
        <time>2026-07-07T07:45:34.000Z</time>
      </trkpt>
      <trkpt lat="48.22105" lon="16.41851">
        <ele>190.383881</ele>
        <time>2026-07-07T07:45:35.000Z</time>
      </trkpt>
      <trkpt lat="48.22101" lon="16.41855">
        <ele>190.335047</ele>
        <time>2026-07-07T07:45:36.000Z</time>
      </trkpt>
      <trkpt lat="48.22097" lon="16.41859">
        <ele>190.286188</ele>
        <time>2026-07-07T07:45:37.000Z</time>
      </trkpt>
      <trkpt lat="48.22093" lon="16.41863">
        <ele>190.238188</ele>
        <time>2026-07-07T07:45:38.000Z</time>
      </trkpt>
      <trkpt lat="48.2209" lon="16.41867">
        <ele>190.191016</ele>
        <time>2026-07-07T07:45:39.000Z</time>
      </trkpt>
      <trkpt lat="48.22086" lon="16.41871">
        <ele>190.145543</ele>
        <time>2026-07-07T07:45:40.000Z</time>
      </trkpt>
      <trkpt lat="48.22083" lon="16.41874">
        <ele>190.101138</ele>
        <time>2026-07-07T07:45:41.000Z</time>
      </trkpt>
      <trkpt lat="48.22079" lon="16.41878">
        <ele>190.054336</ele>
        <time>2026-07-07T07:45:42.000Z</time>
      </trkpt>
      <trkpt lat="48.22075" lon="16.41882">
        <ele>190.007403</ele>
        <time>2026-07-07T07:45:43.000Z</time>
      </trkpt>
      <trkpt lat="48.22071" lon="16.41885">
        <ele>189.956138</ele>
        <time>2026-07-07T07:45:44.000Z</time>
      </trkpt>
      <trkpt lat="48.22067" lon="16.41889">
        <ele>189.936775</ele>
        <time>2026-07-07T07:45:45.000Z</time>
      </trkpt>
      <trkpt lat="48.22063" lon="16.41893">
        <ele>189.935117</ele>
        <time>2026-07-07T07:45:46.000Z</time>
      </trkpt>
      <trkpt lat="48.22058" lon="16.41897">
        <ele>189.933475</ele>
        <time>2026-07-07T07:45:47.000Z</time>
      </trkpt>
      <trkpt lat="48.22054" lon="16.41902">
        <ele>189.931875</ele>
        <time>2026-07-07T07:45:48.000Z</time>
      </trkpt>
      <trkpt lat="48.2205" lon="16.41906">
        <ele>189.930275</ele>
        <time>2026-07-07T07:45:49.000Z</time>
      </trkpt>
      <trkpt lat="48.22047" lon="16.4191">
        <ele>189.928741</ele>
        <time>2026-07-07T07:45:50.000Z</time>
      </trkpt>
      <trkpt lat="48.22043" lon="16.41914">
        <ele>189.927232</ele>
        <time>2026-07-07T07:45:51.000Z</time>
      </trkpt>
      <trkpt lat="48.22039" lon="16.41918">
        <ele>189.925671</ele>
        <time>2026-07-07T07:45:52.000Z</time>
      </trkpt>
      <trkpt lat="48.22035" lon="16.41923">
        <ele>189.924026</ele>
        <time>2026-07-07T07:45:53.000Z</time>
      </trkpt>
      <trkpt lat="48.22032" lon="16.41929">
        <ele>189.922285</ele>
        <time>2026-07-07T07:45:54.000Z</time>
      </trkpt>
      <trkpt lat="48.22029" lon="16.41936">
        <ele>189.92054</ele>
        <time>2026-07-07T07:45:55.000Z</time>
      </trkpt>
      <trkpt lat="48.22026" lon="16.41943">
        <ele>189.918751</ele>
        <time>2026-07-07T07:45:56.000Z</time>
      </trkpt>
      <trkpt lat="48.22024" lon="16.4195">
        <ele>189.916959</ele>
        <time>2026-07-07T07:45:57.000Z</time>
      </trkpt>
      <trkpt lat="48.22022" lon="16.41958">
        <ele>189.915129</ele>
        <time>2026-07-07T07:45:58.000Z</time>
      </trkpt>
      <trkpt lat="48.2202" lon="16.41966">
        <ele>189.913304</ele>
        <time>2026-07-07T07:45:59.000Z</time>
      </trkpt>
      <trkpt lat="48.22018" lon="16.41974">
        <ele>189.911438</ele>
        <time>2026-07-07T07:46:00.000Z</time>
      </trkpt>
      <trkpt lat="48.22016" lon="16.41982">
        <ele>189.909593</ele>
        <time>2026-07-07T07:46:01.000Z</time>
      </trkpt>
      <trkpt lat="48.22013" lon="16.4199">
        <ele>189.907682</ele>
        <time>2026-07-07T07:46:02.000Z</time>
      </trkpt>
      <trkpt lat="48.22011" lon="16.41998">
        <ele>189.90578</ele>
        <time>2026-07-07T07:46:03.000Z</time>
      </trkpt>
      <trkpt lat="48.22008" lon="16.42005">
        <ele>189.903902</ele>
        <time>2026-07-07T07:46:04.000Z</time>
      </trkpt>
      <trkpt lat="48.22005" lon="16.42013">
        <ele>189.902012</ele>
        <time>2026-07-07T07:46:05.000Z</time>
      </trkpt>
      <trkpt lat="48.22002" lon="16.4202">
        <ele>189.900086</ele>
        <time>2026-07-07T07:46:06.000Z</time>
      </trkpt>
      <trkpt lat="48.21998" lon="16.42027">
        <ele>189.898105</ele>
        <time>2026-07-07T07:46:07.000Z</time>
      </trkpt>
      <trkpt lat="48.21995" lon="16.42035">
        <ele>189.89614</ele>
        <time>2026-07-07T07:46:08.000Z</time>
      </trkpt>
      <trkpt lat="48.21993" lon="16.42043">
        <ele>189.89424</ele>
        <time>2026-07-07T07:46:09.000Z</time>
      </trkpt>
      <trkpt lat="48.2199" lon="16.4205">
        <ele>189.892417</ele>
        <time>2026-07-07T07:46:10.000Z</time>
      </trkpt>
      <trkpt lat="48.21989" lon="16.42058">
        <ele>189.890674</ele>
        <time>2026-07-07T07:46:11.000Z</time>
      </trkpt>
      <trkpt lat="48.21988" lon="16.42066">
        <ele>189.889028</ele>
        <time>2026-07-07T07:46:12.000Z</time>
      </trkpt>
      <trkpt lat="48.21989" lon="16.42072">
        <ele>189.887541</ele>
        <time>2026-07-07T07:46:13.000Z</time>
      </trkpt>
      <trkpt lat="48.21989" lon="16.42079">
        <ele>189.886075</ele>
        <time>2026-07-07T07:46:14.000Z</time>
      </trkpt>
      <trkpt lat="48.21989" lon="16.42086">
        <ele>189.884584</ele>
        <time>2026-07-07T07:46:15.000Z</time>
      </trkpt>
      <trkpt lat="48.21988" lon="16.42092">
        <ele>189.883134</ele>
        <time>2026-07-07T07:46:16.000Z</time>
      </trkpt>
      <trkpt lat="48.21987" lon="16.42098">
        <ele>189.881756</ele>
        <time>2026-07-07T07:46:17.000Z</time>
      </trkpt>
      <trkpt lat="48.21985" lon="16.42104">
        <ele>189.880338</ele>
        <time>2026-07-07T07:46:18.000Z</time>
      </trkpt>
      <trkpt lat="48.21982" lon="16.42108">
        <ele>189.878948</ele>
        <time>2026-07-07T07:46:19.000Z</time>
      </trkpt>
      <trkpt lat="48.21978" lon="16.42112">
        <ele>189.890523</ele>
        <time>2026-07-07T07:46:20.000Z</time>
      </trkpt>
      <trkpt lat="48.21974" lon="16.42115">
        <ele>189.902021</ele>
        <time>2026-07-07T07:46:21.000Z</time>
      </trkpt>
      <trkpt lat="48.2197" lon="16.42119">
        <ele>189.914111</ele>
        <time>2026-07-07T07:46:22.000Z</time>
      </trkpt>
      <trkpt lat="48.21966" lon="16.42122">
        <ele>189.926523</ele>
        <time>2026-07-07T07:46:23.000Z</time>
      </trkpt>
      <trkpt lat="48.21962" lon="16.42126">
        <ele>189.939256</ele>
        <time>2026-07-07T07:46:24.000Z</time>
      </trkpt>
      <trkpt lat="48.21958" lon="16.42129">
        <ele>189.951667</ele>
        <time>2026-07-07T07:46:25.000Z</time>
      </trkpt>
      <trkpt lat="48.21954" lon="16.42133">
        <ele>189.964262</ele>
        <time>2026-07-07T07:46:26.000Z</time>
      </trkpt>
      <trkpt lat="48.2195" lon="16.42137">
        <ele>189.977408</ele>
        <time>2026-07-07T07:46:27.000Z</time>
      </trkpt>
      <trkpt lat="48.21946" lon="16.42141">
        <ele>189.990004</ele>
        <time>2026-07-07T07:46:28.000Z</time>
      </trkpt>
      <trkpt lat="48.21942" lon="16.42145">
        <ele>190.003337</ele>
        <time>2026-07-07T07:46:29.000Z</time>
      </trkpt>
      <trkpt lat="48.21938" lon="16.42149">
        <ele>190.016423</ele>
        <time>2026-07-07T07:46:30.000Z</time>
      </trkpt>
      <trkpt lat="48.21934" lon="16.42153">
        <ele>190.02963</ele>
        <time>2026-07-07T07:46:31.000Z</time>
      </trkpt>
      <trkpt lat="48.2193" lon="16.42157">
        <ele>190.04336</ele>
        <time>2026-07-07T07:46:32.000Z</time>
      </trkpt>
      <trkpt lat="48.21926" lon="16.42161">
        <ele>190.056344</ele>
        <time>2026-07-07T07:46:33.000Z</time>
      </trkpt>
      <trkpt lat="48.21922" lon="16.42165">
        <ele>190.069228</ele>
        <time>2026-07-07T07:46:34.000Z</time>
      </trkpt>
      <trkpt lat="48.21917" lon="16.42169">
        <ele>190.082467</ele>
        <time>2026-07-07T07:46:35.000Z</time>
      </trkpt>
      <trkpt lat="48.21914" lon="16.42173">
        <ele>190.094909</ele>
        <time>2026-07-07T07:46:36.000Z</time>
      </trkpt>
      <trkpt lat="48.2191" lon="16.42178">
        <ele>190.107666</ele>
        <time>2026-07-07T07:46:37.000Z</time>
      </trkpt>
      <trkpt lat="48.21906" lon="16.42181">
        <ele>190.120131</ele>
        <time>2026-07-07T07:46:38.000Z</time>
      </trkpt>
      <trkpt lat="48.21902" lon="16.42185">
        <ele>190.132917</ele>
        <time>2026-07-07T07:46:39.000Z</time>
      </trkpt>
      <trkpt lat="48.21898" lon="16.42189">
        <ele>190.145834</ele>
        <time>2026-07-07T07:46:40.000Z</time>
      </trkpt>
      <trkpt lat="48.21894" lon="16.42193">
        <ele>190.158524</ele>
        <time>2026-07-07T07:46:41.000Z</time>
      </trkpt>
      <trkpt lat="48.2189" lon="16.42197">
        <ele>190.171763</ele>
        <time>2026-07-07T07:46:42.000Z</time>
      </trkpt>
      <trkpt lat="48.21885" lon="16.42201">
        <ele>190.185097</ele>
        <time>2026-07-07T07:46:43.000Z</time>
      </trkpt>
      <trkpt lat="48.21881" lon="16.42205">
        <ele>190.198473</ele>
        <time>2026-07-07T07:46:44.000Z</time>
      </trkpt>
      <trkpt lat="48.21877" lon="16.42208">
        <ele>190.211849</ele>
        <time>2026-07-07T07:46:45.000Z</time>
      </trkpt>
      <trkpt lat="48.21872" lon="16.42212">
        <ele>190.225369</ele>
        <time>2026-07-07T07:46:46.000Z</time>
      </trkpt>
      <trkpt lat="48.21868" lon="16.42216">
        <ele>190.238482</ele>
        <time>2026-07-07T07:46:47.000Z</time>
      </trkpt>
      <trkpt lat="48.21864" lon="16.42219">
        <ele>190.251858</ele>
        <time>2026-07-07T07:46:48.000Z</time>
      </trkpt>
      <trkpt lat="48.21859" lon="16.42223">
        <ele>190.265648</ele>
        <time>2026-07-07T07:46:49.000Z</time>
      </trkpt>
      <trkpt lat="48.21855" lon="16.42227">
        <ele>190.278756</ele>
        <time>2026-07-07T07:46:50.000Z</time>
      </trkpt>
      <trkpt lat="48.21851" lon="16.42231">
        <ele>190.292546</ele>
        <time>2026-07-07T07:46:51.000Z</time>
      </trkpt>
      <trkpt lat="48.21847" lon="16.42236">
        <ele>190.305852</ele>
        <time>2026-07-07T07:46:52.000Z</time>
      </trkpt>
      <trkpt lat="48.21843" lon="16.4224">
        <ele>190.319896</ele>
        <time>2026-07-07T07:46:53.000Z</time>
      </trkpt>
      <trkpt lat="48.21838" lon="16.42245">
        <ele>190.33405</ele>
        <time>2026-07-07T07:46:54.000Z</time>
      </trkpt>
      <trkpt lat="48.21834" lon="16.4225">
        <ele>190.348094</ele>
        <time>2026-07-07T07:46:55.000Z</time>
      </trkpt>
      <trkpt lat="48.2183" lon="16.42254">
        <ele>190.359341</ele>
        <time>2026-07-07T07:46:56.000Z</time>
      </trkpt>
      <trkpt lat="48.21826" lon="16.4226">
        <ele>190.342668</ele>
        <time>2026-07-07T07:46:57.000Z</time>
      </trkpt>
      <trkpt lat="48.21822" lon="16.42265">
        <ele>190.325995</ele>
        <time>2026-07-07T07:46:58.000Z</time>
      </trkpt>
      <trkpt lat="48.21818" lon="16.4227">
        <ele>190.309459</ele>
        <time>2026-07-07T07:46:59.000Z</time>
      </trkpt>
      <trkpt lat="48.21814" lon="16.42275">
        <ele>190.292786</ele>
        <time>2026-07-07T07:47:00.000Z</time>
      </trkpt>
      <trkpt lat="48.2181" lon="16.4228">
        <ele>190.27621</ele>
        <time>2026-07-07T07:47:01.000Z</time>
      </trkpt>
      <trkpt lat="48.21806" lon="16.42286">
        <ele>190.259577</ele>
        <time>2026-07-07T07:47:02.000Z</time>
      </trkpt>
      <trkpt lat="48.21802" lon="16.42291">
        <ele>190.24317</ele>
        <time>2026-07-07T07:47:03.000Z</time>
      </trkpt>
      <trkpt lat="48.21799" lon="16.42297">
        <ele>190.226682</ele>
        <time>2026-07-07T07:47:04.000Z</time>
      </trkpt>
      <trkpt lat="48.21795" lon="16.42302">
        <ele>190.210274</ele>
        <time>2026-07-07T07:47:05.000Z</time>
      </trkpt>
      <trkpt lat="48.21791" lon="16.42308">
        <ele>190.193939</ele>
        <time>2026-07-07T07:47:06.000Z</time>
      </trkpt>
      <trkpt lat="48.21788" lon="16.42313">
        <ele>190.177531</ele>
        <time>2026-07-07T07:47:07.000Z</time>
      </trkpt>
      <trkpt lat="48.21784" lon="16.42319">
        <ele>190.160826</ele>
        <time>2026-07-07T07:47:08.000Z</time>
      </trkpt>
      <trkpt lat="48.2178" lon="16.42325">
        <ele>190.14375</ele>
        <time>2026-07-07T07:47:09.000Z</time>
      </trkpt>
      <trkpt lat="48.21776" lon="16.42331">
        <ele>190.126823</ele>
        <time>2026-07-07T07:47:10.000Z</time>
      </trkpt>
      <trkpt lat="48.21772" lon="16.42336">
        <ele>190.109444</ele>
        <time>2026-07-07T07:47:11.000Z</time>
      </trkpt>
      <trkpt lat="48.21768" lon="16.42342">
        <ele>190.091462</ele>
        <time>2026-07-07T07:47:12.000Z</time>
      </trkpt>
      <trkpt lat="48.21764" lon="16.42348">
        <ele>190.07348</ele>
        <time>2026-07-07T07:47:13.000Z</time>
      </trkpt>
      <trkpt lat="48.2176" lon="16.42354">
        <ele>190.055143</ele>
        <time>2026-07-07T07:47:14.000Z</time>
      </trkpt>
      <trkpt lat="48.21756" lon="16.4236">
        <ele>190.036582</ele>
        <time>2026-07-07T07:47:15.000Z</time>
      </trkpt>
      <trkpt lat="48.21752" lon="16.42366">
        <ele>190.018615</ele>
        <time>2026-07-07T07:47:16.000Z</time>
      </trkpt>
      <trkpt lat="48.21747" lon="16.42373">
        <ele>190.000054</ele>
        <time>2026-07-07T07:47:17.000Z</time>
      </trkpt>
      <trkpt lat="48.21743" lon="16.42379">
        <ele>189.981785</ele>
        <time>2026-07-07T07:47:18.000Z</time>
      </trkpt>
      <trkpt lat="48.21739" lon="16.42385">
        <ele>189.963364</ele>
        <time>2026-07-07T07:47:19.000Z</time>
      </trkpt>
      <trkpt lat="48.21735" lon="16.42392">
        <ele>189.944789</ele>
        <time>2026-07-07T07:47:20.000Z</time>
      </trkpt>
      <trkpt lat="48.21731" lon="16.42398">
        <ele>189.9266</ele>
        <time>2026-07-07T07:47:21.000Z</time>
      </trkpt>
      <trkpt lat="48.21727" lon="16.42404">
        <ele>189.907742</ele>
        <time>2026-07-07T07:47:22.000Z</time>
      </trkpt>
      <trkpt lat="48.21723" lon="16.4241">
        <ele>189.889924</ele>
        <time>2026-07-07T07:47:23.000Z</time>
      </trkpt>
      <trkpt lat="48.21719" lon="16.42416">
        <ele>189.872106</ele>
        <time>2026-07-07T07:47:24.000Z</time>
      </trkpt>
      <trkpt lat="48.21715" lon="16.42422">
        <ele>189.854288</ele>
        <time>2026-07-07T07:47:25.000Z</time>
      </trkpt>
      <trkpt lat="48.21711" lon="16.42428">
        <ele>189.83647</ele>
        <time>2026-07-07T07:47:26.000Z</time>
      </trkpt>
      <trkpt lat="48.21707" lon="16.42434">
        <ele>189.819092</ele>
        <time>2026-07-07T07:47:27.000Z</time>
      </trkpt>
      <trkpt lat="48.21704" lon="16.4244">
        <ele>189.802236</ele>
        <time>2026-07-07T07:47:28.000Z</time>
      </trkpt>
      <trkpt lat="48.217" lon="16.42446">
        <ele>189.80196</ele>
        <time>2026-07-07T07:47:29.000Z</time>
      </trkpt>
      <trkpt lat="48.21696" lon="16.42452">
        <ele>189.815829</ele>
        <time>2026-07-07T07:47:30.000Z</time>
      </trkpt>
      <trkpt lat="48.21693" lon="16.42457">
        <ele>189.829933</ele>
        <time>2026-07-07T07:47:31.000Z</time>
      </trkpt>
      <trkpt lat="48.21689" lon="16.42463">
        <ele>189.843911</ele>
        <time>2026-07-07T07:47:32.000Z</time>
      </trkpt>
      <trkpt lat="48.21685" lon="16.42468">
        <ele>189.857576</ele>
        <time>2026-07-07T07:47:33.000Z</time>
      </trkpt>
      <trkpt lat="48.21681" lon="16.42474">
        <ele>189.871691</ele>
        <time>2026-07-07T07:47:34.000Z</time>
      </trkpt>
      <trkpt lat="48.21678" lon="16.42479">
        <ele>189.884859</ele>
        <time>2026-07-07T07:47:35.000Z</time>
      </trkpt>
      <trkpt lat="48.21674" lon="16.42484">
        <ele>189.898712</ele>
        <time>2026-07-07T07:47:36.000Z</time>
      </trkpt>
      <trkpt lat="48.2167" lon="16.4249">
        <ele>189.913023</ele>
        <time>2026-07-07T07:47:37.000Z</time>
      </trkpt>
      <trkpt lat="48.21666" lon="16.42495">
        <ele>189.926822</ele>
        <time>2026-07-07T07:47:38.000Z</time>
      </trkpt>
      <trkpt lat="48.21662" lon="16.42501">
        <ele>189.941253</ele>
        <time>2026-07-07T07:47:39.000Z</time>
      </trkpt>
      <trkpt lat="48.21658" lon="16.42506">
        <ele>189.955446</ele>
        <time>2026-07-07T07:47:40.000Z</time>
      </trkpt>
      <trkpt lat="48.21654" lon="16.42511">
        <ele>189.969757</ele>
        <time>2026-07-07T07:47:41.000Z</time>
      </trkpt>
      <trkpt lat="48.2165" lon="16.42516">
        <ele>189.983719</ele>
        <time>2026-07-07T07:47:42.000Z</time>
      </trkpt>
      <trkpt lat="48.21646" lon="16.42522">
        <ele>189.998202</ele>
        <time>2026-07-07T07:47:43.000Z</time>
      </trkpt>
      <trkpt lat="48.21642" lon="16.42527">
        <ele>190.012632</ele>
        <time>2026-07-07T07:47:44.000Z</time>
      </trkpt>
      <trkpt lat="48.21638" lon="16.42533">
        <ele>190.027695</ele>
        <time>2026-07-07T07:47:45.000Z</time>
      </trkpt>
      <trkpt lat="48.21634" lon="16.42538">
        <ele>190.042089</ele>
        <time>2026-07-07T07:47:46.000Z</time>
      </trkpt>
      <trkpt lat="48.2163" lon="16.42543">
        <ele>190.056572</ele>
        <time>2026-07-07T07:47:47.000Z</time>
      </trkpt>
      <trkpt lat="48.21625" lon="16.42548">
        <ele>190.07115</ele>
        <time>2026-07-07T07:47:48.000Z</time>
      </trkpt>
      <trkpt lat="48.21621" lon="16.42553">
        <ele>190.085411</ele>
        <time>2026-07-07T07:47:49.000Z</time>
      </trkpt>
      <trkpt lat="48.21617" lon="16.42558">
        <ele>190.09988</ele>
        <time>2026-07-07T07:47:50.000Z</time>
      </trkpt>
      <trkpt lat="48.21613" lon="16.42563">
        <ele>190.114031</ele>
        <time>2026-07-07T07:47:51.000Z</time>
      </trkpt>
      <trkpt lat="48.21609" lon="16.42568">
        <ele>190.127654</ele>
        <time>2026-07-07T07:47:52.000Z</time>
      </trkpt>
      <trkpt lat="48.21605" lon="16.42573">
        <ele>190.141167</ele>
        <time>2026-07-07T07:47:53.000Z</time>
      </trkpt>
      <trkpt lat="48.21601" lon="16.42577">
        <ele>190.154465</ele>
        <time>2026-07-07T07:47:54.000Z</time>
      </trkpt>
      <trkpt lat="48.21596" lon="16.42582">
        <ele>190.168192</ele>
        <time>2026-07-07T07:47:55.000Z</time>
      </trkpt>
      <trkpt lat="48.21592" lon="16.42586">
        <ele>190.181497</ele>
        <time>2026-07-07T07:47:56.000Z</time>
      </trkpt>
      <trkpt lat="48.21588" lon="16.4259">
        <ele>190.194728</ele>
        <time>2026-07-07T07:47:57.000Z</time>
      </trkpt>
      <trkpt lat="48.21584" lon="16.42594">
        <ele>190.208153</ele>
        <time>2026-07-07T07:47:58.000Z</time>
      </trkpt>
      <trkpt lat="48.2158" lon="16.42599">
        <ele>190.22177</ele>
        <time>2026-07-07T07:47:59.000Z</time>
      </trkpt>
      <trkpt lat="48.21576" lon="16.42604">
        <ele>190.235647</ele>
        <time>2026-07-07T07:48:00.000Z</time>
      </trkpt>
      <trkpt lat="48.21573" lon="16.4261">
        <ele>190.249165</ele>
        <time>2026-07-07T07:48:01.000Z</time>
      </trkpt>
      <trkpt lat="48.2157" lon="16.42616">
        <ele>190.262735</ele>
        <time>2026-07-07T07:48:02.000Z</time>
      </trkpt>
      <trkpt lat="48.21567" lon="16.42623">
        <ele>190.274089</ele>
        <time>2026-07-07T07:48:03.000Z</time>
      </trkpt>
      <trkpt lat="48.21564" lon="16.42629">
        <ele>190.279089</ele>
        <time>2026-07-07T07:48:04.000Z</time>
      </trkpt>
      <trkpt lat="48.21561" lon="16.42634">
        <ele>190.283998</ele>
        <time>2026-07-07T07:48:05.000Z</time>
      </trkpt>
      <trkpt lat="48.21557" lon="16.4264">
        <ele>190.288922</ele>
        <time>2026-07-07T07:48:06.000Z</time>
      </trkpt>
      <trkpt lat="48.21554" lon="16.42646">
        <ele>190.294027</ele>
        <time>2026-07-07T07:48:07.000Z</time>
      </trkpt>
      <trkpt lat="48.2155" lon="16.42651">
        <ele>190.299174</ele>
        <time>2026-07-07T07:48:08.000Z</time>
      </trkpt>
      <trkpt lat="48.21547" lon="16.42657">
        <ele>190.304183</ele>
        <time>2026-07-07T07:48:09.000Z</time>
      </trkpt>
      <trkpt lat="48.21543" lon="16.42662">
        <ele>190.30896</ele>
        <time>2026-07-07T07:48:10.000Z</time>
      </trkpt>
      <trkpt lat="48.2154" lon="16.42667">
        <ele>190.313922</ele>
        <time>2026-07-07T07:48:11.000Z</time>
      </trkpt>
      <trkpt lat="48.21536" lon="16.42673">
        <ele>190.318836</ele>
        <time>2026-07-07T07:48:12.000Z</time>
      </trkpt>
      <trkpt lat="48.21533" lon="16.42678">
        <ele>190.323941</ele>
        <time>2026-07-07T07:48:13.000Z</time>
      </trkpt>
      <trkpt lat="48.21529" lon="16.42684">
        <ele>190.329193</ele>
        <time>2026-07-07T07:48:14.000Z</time>
      </trkpt>
      <trkpt lat="48.21526" lon="16.4269">
        <ele>190.33438</ele>
        <time>2026-07-07T07:48:15.000Z</time>
      </trkpt>
      <trkpt lat="48.21523" lon="16.42696">
        <ele>190.339403</ele>
        <time>2026-07-07T07:48:16.000Z</time>
      </trkpt>
      <trkpt lat="48.21519" lon="16.42702">
        <ele>190.344655</ele>
        <time>2026-07-07T07:48:17.000Z</time>
      </trkpt>
      <trkpt lat="48.21516" lon="16.42708">
        <ele>190.349779</ele>
        <time>2026-07-07T07:48:18.000Z</time>
      </trkpt>
      <trkpt lat="48.21512" lon="16.42714">
        <ele>190.354867</ele>
        <time>2026-07-07T07:48:19.000Z</time>
      </trkpt>
      <trkpt lat="48.21509" lon="16.4272">
        <ele>190.35994</ele>
        <time>2026-07-07T07:48:20.000Z</time>
      </trkpt>
      <trkpt lat="48.21506" lon="16.42725">
        <ele>190.364864</ele>
        <time>2026-07-07T07:48:21.000Z</time>
      </trkpt>
      <trkpt lat="48.21502" lon="16.42731">
        <ele>190.369902</ele>
        <time>2026-07-07T07:48:22.000Z</time>
      </trkpt>
      <trkpt lat="48.21499" lon="16.42737">
        <ele>190.375056</ele>
        <time>2026-07-07T07:48:23.000Z</time>
      </trkpt>
      <trkpt lat="48.21495" lon="16.42743">
        <ele>190.380161</ele>
        <time>2026-07-07T07:48:24.000Z</time>
      </trkpt>
      <trkpt lat="48.21492" lon="16.42748">
        <ele>190.385265</ele>
        <time>2026-07-07T07:48:25.000Z</time>
      </trkpt>
      <trkpt lat="48.21488" lon="16.42754">
        <ele>190.390486</ele>
        <time>2026-07-07T07:48:26.000Z</time>
      </trkpt>
      <trkpt lat="48.21485" lon="16.4276">
        <ele>190.395774</ele>
        <time>2026-07-07T07:48:27.000Z</time>
      </trkpt>
      <trkpt lat="48.21481" lon="16.42766">
        <ele>190.40111</ele>
        <time>2026-07-07T07:48:28.000Z</time>
      </trkpt>
      <trkpt lat="48.21477" lon="16.42771">
        <ele>190.406374</ele>
        <time>2026-07-07T07:48:29.000Z</time>
      </trkpt>
      <trkpt lat="48.21473" lon="16.42777">
        <ele>190.41171</ele>
        <time>2026-07-07T07:48:30.000Z</time>
      </trkpt>
      <trkpt lat="48.2147" lon="16.42783">
        <ele>190.416928</ele>
        <time>2026-07-07T07:48:31.000Z</time>
      </trkpt>
      <trkpt lat="48.21465" lon="16.42788">
        <ele>190.422352</ele>
        <time>2026-07-07T07:48:32.000Z</time>
      </trkpt>
      <trkpt lat="48.21461" lon="16.42794">
        <ele>190.427714</ele>
        <time>2026-07-07T07:48:33.000Z</time>
      </trkpt>
      <trkpt lat="48.21457" lon="16.42799">
        <ele>190.433076</ele>
        <time>2026-07-07T07:48:34.000Z</time>
      </trkpt>
      <trkpt lat="48.21453" lon="16.42804">
        <ele>190.43835</ele>
        <time>2026-07-07T07:48:35.000Z</time>
      </trkpt>
      <trkpt lat="48.21449" lon="16.4281">
        <ele>190.443656</ele>
        <time>2026-07-07T07:48:36.000Z</time>
      </trkpt>
      <trkpt lat="48.21445" lon="16.42815">
        <ele>190.449038</ele>
        <time>2026-07-07T07:48:37.000Z</time>
      </trkpt>
      <trkpt lat="48.21441" lon="16.4282">
        <ele>190.453574</ele>
        <time>2026-07-07T07:48:38.000Z</time>
      </trkpt>
      <trkpt lat="48.21437" lon="16.42825">
        <ele>190.458017</ele>
        <time>2026-07-07T07:48:39.000Z</time>
      </trkpt>
      <trkpt lat="48.21433" lon="16.4283">
        <ele>190.462432</ele>
        <time>2026-07-07T07:48:40.000Z</time>
      </trkpt>
      <trkpt lat="48.21429" lon="16.42835">
        <ele>190.466945</ele>
        <time>2026-07-07T07:48:41.000Z</time>
      </trkpt>
      <trkpt lat="48.21424" lon="16.42841">
        <ele>190.471494</ele>
        <time>2026-07-07T07:48:42.000Z</time>
      </trkpt>
      <trkpt lat="48.2142" lon="16.42846">
        <ele>190.475944</ele>
        <time>2026-07-07T07:48:43.000Z</time>
      </trkpt>
      <trkpt lat="48.21416" lon="16.42852">
        <ele>190.480529</ele>
        <time>2026-07-07T07:48:44.000Z</time>
      </trkpt>
      <trkpt lat="48.21412" lon="16.42857">
        <ele>190.484991</ele>
        <time>2026-07-07T07:48:45.000Z</time>
      </trkpt>
      <trkpt lat="48.21408" lon="16.42862">
        <ele>190.489257</ele>
        <time>2026-07-07T07:48:46.000Z</time>
      </trkpt>
      <trkpt lat="48.21404" lon="16.42868">
        <ele>190.493734</ele>
        <time>2026-07-07T07:48:47.000Z</time>
      </trkpt>
      <trkpt lat="48.21401" lon="16.42874">
        <ele>190.498076</ele>
        <time>2026-07-07T07:48:48.000Z</time>
      </trkpt>
      <trkpt lat="48.21397" lon="16.42879">
        <ele>190.502343</ele>
        <time>2026-07-07T07:48:49.000Z</time>
      </trkpt>
      <trkpt lat="48.21393" lon="16.42884">
        <ele>190.506707</ele>
        <time>2026-07-07T07:48:50.000Z</time>
      </trkpt>
      <trkpt lat="48.21389" lon="16.4289">
        <ele>190.510974</ele>
        <time>2026-07-07T07:48:51.000Z</time>
      </trkpt>
      <trkpt lat="48.21385" lon="16.42895">
        <ele>190.515435</ele>
        <time>2026-07-07T07:48:52.000Z</time>
      </trkpt>
      <trkpt lat="48.21381" lon="16.42901">
        <ele>190.519893</ele>
        <time>2026-07-07T07:48:53.000Z</time>
      </trkpt>
      <trkpt lat="48.21377" lon="16.42907">
        <ele>190.52443</ele>
        <time>2026-07-07T07:48:54.000Z</time>
      </trkpt>
      <trkpt lat="48.21373" lon="16.42912">
        <ele>190.528966</ele>
        <time>2026-07-07T07:48:55.000Z</time>
      </trkpt>
      <trkpt lat="48.21369" lon="16.42918">
        <ele>190.53366</ele>
        <time>2026-07-07T07:48:56.000Z</time>
      </trkpt>
      <trkpt lat="48.21365" lon="16.42924">
        <ele>190.538235</ele>
        <time>2026-07-07T07:48:57.000Z</time>
      </trkpt>
      <trkpt lat="48.21361" lon="16.4293">
        <ele>190.542886</ele>
        <time>2026-07-07T07:48:58.000Z</time>
      </trkpt>
      <trkpt lat="48.21357" lon="16.42936">
        <ele>190.547499</ele>
        <time>2026-07-07T07:48:59.000Z</time>
      </trkpt>
      <trkpt lat="48.21353" lon="16.42942">
        <ele>190.552073</ele>
        <time>2026-07-07T07:49:00.000Z</time>
      </trkpt>
      <trkpt lat="48.21349" lon="16.42947">
        <ele>190.55661</ele>
        <time>2026-07-07T07:49:01.000Z</time>
      </trkpt>
      <trkpt lat="48.21345" lon="16.42953">
        <ele>190.561109</ele>
        <time>2026-07-07T07:49:02.000Z</time>
      </trkpt>
      <trkpt lat="48.21341" lon="16.42959">
        <ele>190.565645</ele>
        <time>2026-07-07T07:49:03.000Z</time>
      </trkpt>
      <trkpt lat="48.21337" lon="16.42964">
        <ele>190.570103</ele>
        <time>2026-07-07T07:49:04.000Z</time>
      </trkpt>
      <trkpt lat="48.21333" lon="16.4297">
        <ele>190.57458</ele>
        <time>2026-07-07T07:49:05.000Z</time>
      </trkpt>
      <trkpt lat="48.21329" lon="16.42976">
        <ele>190.579117</ele>
        <time>2026-07-07T07:49:06.000Z</time>
      </trkpt>
      <trkpt lat="48.21325" lon="16.42981">
        <ele>190.583505</ele>
        <time>2026-07-07T07:49:07.000Z</time>
      </trkpt>
      <trkpt lat="48.21322" lon="16.42987">
        <ele>190.587847</ele>
        <time>2026-07-07T07:49:08.000Z</time>
      </trkpt>
      <trkpt lat="48.21318" lon="16.42992">
        <ele>190.592266</ele>
        <time>2026-07-07T07:49:09.000Z</time>
      </trkpt>
      <trkpt lat="48.21314" lon="16.42998">
        <ele>190.596668</ele>
        <time>2026-07-07T07:49:10.000Z</time>
      </trkpt>
      <trkpt lat="48.2131" lon="16.43003">
        <ele>190.594522</ele>
        <time>2026-07-07T07:49:11.000Z</time>
      </trkpt>
      <trkpt lat="48.21306" lon="16.43009">
        <ele>190.587694</ele>
        <time>2026-07-07T07:49:12.000Z</time>
      </trkpt>
      <trkpt lat="48.21302" lon="16.43014">
        <ele>190.580923</ele>
        <time>2026-07-07T07:49:13.000Z</time>
      </trkpt>
      <trkpt lat="48.21298" lon="16.4302">
        <ele>190.57385</ele>
        <time>2026-07-07T07:49:14.000Z</time>
      </trkpt>
      <trkpt lat="48.21294" lon="16.43025">
        <ele>190.567079</ele>
        <time>2026-07-07T07:49:15.000Z</time>
      </trkpt>
      <trkpt lat="48.2129" lon="16.4303">
        <ele>190.560157</ele>
        <time>2026-07-07T07:49:16.000Z</time>
      </trkpt>
      <trkpt lat="48.21286" lon="16.43036">
        <ele>190.553193</ele>
        <time>2026-07-07T07:49:17.000Z</time>
      </trkpt>
      <trkpt lat="48.21281" lon="16.43041">
        <ele>190.54623</ele>
        <time>2026-07-07T07:49:18.000Z</time>
      </trkpt>
      <trkpt lat="48.21277" lon="16.43046">
        <ele>190.539251</ele>
        <time>2026-07-07T07:49:19.000Z</time>
      </trkpt>
      <trkpt lat="48.21273" lon="16.43052">
        <ele>190.531985</ele>
        <time>2026-07-07T07:49:20.000Z</time>
      </trkpt>
      <trkpt lat="48.21269" lon="16.43057">
        <ele>190.524815</ele>
        <time>2026-07-07T07:49:21.000Z</time>
      </trkpt>
      <trkpt lat="48.21264" lon="16.43063">
        <ele>190.517808</ele>
        <time>2026-07-07T07:49:22.000Z</time>
      </trkpt>
      <trkpt lat="48.2126" lon="16.43068">
        <ele>190.510549</ele>
        <time>2026-07-07T07:49:23.000Z</time>
      </trkpt>
      <trkpt lat="48.21255" lon="16.43073">
        <ele>190.503342</ele>
        <time>2026-07-07T07:49:24.000Z</time>
      </trkpt>
      <trkpt lat="48.21251" lon="16.43078">
        <ele>190.496083</ele>
        <time>2026-07-07T07:49:25.000Z</time>
      </trkpt>
      <trkpt lat="48.21246" lon="16.43084">
        <ele>190.488876</ele>
        <time>2026-07-07T07:49:26.000Z</time>
      </trkpt>
      <trkpt lat="48.21242" lon="16.43089">
        <ele>190.481669</ele>
        <time>2026-07-07T07:49:27.000Z</time>
      </trkpt>
      <trkpt lat="48.21237" lon="16.43094">
        <ele>190.474509</ele>
        <time>2026-07-07T07:49:28.000Z</time>
      </trkpt>
      <trkpt lat="48.21233" lon="16.43099">
        <ele>190.467302</ele>
        <time>2026-07-07T07:49:29.000Z</time>
      </trkpt>
      <trkpt lat="48.21229" lon="16.43105">
        <ele>190.460324</ele>
        <time>2026-07-07T07:49:30.000Z</time>
      </trkpt>
      <trkpt lat="48.21225" lon="16.4311">
        <ele>190.453382</ele>
        <time>2026-07-07T07:49:31.000Z</time>
      </trkpt>
      <trkpt lat="48.21221" lon="16.43116">
        <ele>190.446498</ele>
        <time>2026-07-07T07:49:32.000Z</time>
      </trkpt>
      <trkpt lat="48.21217" lon="16.43121">
        <ele>190.439782</ele>
        <time>2026-07-07T07:49:33.000Z</time>
      </trkpt>
      <trkpt lat="48.21213" lon="16.43126">
        <ele>190.432873</ele>
        <time>2026-07-07T07:49:34.000Z</time>
      </trkpt>
      <trkpt lat="48.21208" lon="16.43132">
        <ele>190.425744</ele>
        <time>2026-07-07T07:49:35.000Z</time>
      </trkpt>
      <trkpt lat="48.21204" lon="16.43138">
        <ele>190.418651</ele>
        <time>2026-07-07T07:49:36.000Z</time>
      </trkpt>
      <trkpt lat="48.212" lon="16.43143">
        <ele>190.411409</ele>
        <time>2026-07-07T07:49:37.000Z</time>
      </trkpt>
      <trkpt lat="48.21196" lon="16.43149">
        <ele>190.404108</ele>
        <time>2026-07-07T07:49:38.000Z</time>
      </trkpt>
      <trkpt lat="48.21192" lon="16.43155">
        <ele>190.39705</ele>
        <time>2026-07-07T07:49:39.000Z</time>
      </trkpt>
      <trkpt lat="48.21188" lon="16.43161">
        <ele>190.389992</ele>
        <time>2026-07-07T07:49:40.000Z</time>
      </trkpt>
      <trkpt lat="48.21184" lon="16.43167">
        <ele>190.382992</ele>
        <time>2026-07-07T07:49:41.000Z</time>
      </trkpt>
      <trkpt lat="48.2118" lon="16.43173">
        <ele>190.375993</ele>
        <time>2026-07-07T07:49:42.000Z</time>
      </trkpt>
      <trkpt lat="48.21176" lon="16.43179">
        <ele>190.368685</ele>
        <time>2026-07-07T07:49:43.000Z</time>
      </trkpt>
      <trkpt lat="48.21173" lon="16.43185">
        <ele>190.360357</ele>
        <time>2026-07-07T07:49:44.000Z</time>
      </trkpt>
      <trkpt lat="48.21169" lon="16.43191">
        <ele>190.352053</ele>
        <time>2026-07-07T07:49:45.000Z</time>
      </trkpt>
      <trkpt lat="48.21166" lon="16.43197">
        <ele>190.343672</ele>
        <time>2026-07-07T07:49:46.000Z</time>
      </trkpt>
      <trkpt lat="48.21162" lon="16.43203">
        <ele>190.335389</ele>
        <time>2026-07-07T07:49:47.000Z</time>
      </trkpt>
      <trkpt lat="48.21159" lon="16.43209">
        <ele>190.327086</ele>
        <time>2026-07-07T07:49:48.000Z</time>
      </trkpt>
      <trkpt lat="48.21156" lon="16.43216">
        <ele>190.318901</ele>
        <time>2026-07-07T07:49:49.000Z</time>
      </trkpt>
      <trkpt lat="48.21152" lon="16.43222">
        <ele>190.310564</ele>
        <time>2026-07-07T07:49:50.000Z</time>
      </trkpt>
      <trkpt lat="48.21149" lon="16.43229">
        <ele>190.302319</ele>
        <time>2026-07-07T07:49:51.000Z</time>
      </trkpt>
      <trkpt lat="48.21146" lon="16.43235">
        <ele>190.294148</ele>
        <time>2026-07-07T07:49:52.000Z</time>
      </trkpt>
      <trkpt lat="48.21143" lon="16.43241">
        <ele>190.285719</ele>
        <time>2026-07-07T07:49:53.000Z</time>
      </trkpt>
      <trkpt lat="48.2114" lon="16.43248">
        <ele>190.277465</ele>
        <time>2026-07-07T07:49:54.000Z</time>
      </trkpt>
      <trkpt lat="48.21136" lon="16.43254">
        <ele>190.269162</ele>
        <time>2026-07-07T07:49:55.000Z</time>
      </trkpt>
      <trkpt lat="48.21132" lon="16.4326">
        <ele>190.260954</ele>
        <time>2026-07-07T07:49:56.000Z</time>
      </trkpt>
      <trkpt lat="48.21129" lon="16.43265">
        <ele>190.252883</ele>
        <time>2026-07-07T07:49:57.000Z</time>
      </trkpt>
      <trkpt lat="48.21125" lon="16.43271">
        <ele>190.244419</ele>
        <time>2026-07-07T07:49:58.000Z</time>
      </trkpt>
      <trkpt lat="48.21121" lon="16.43277">
        <ele>190.236174</ele>
        <time>2026-07-07T07:49:59.000Z</time>
      </trkpt>
      <trkpt lat="48.21117" lon="16.43283">
        <ele>190.227408</ele>
        <time>2026-07-07T07:50:00.000Z</time>
      </trkpt>
      <trkpt lat="48.21113" lon="16.43288">
        <ele>190.21878</ele>
        <time>2026-07-07T07:50:01.000Z</time>
      </trkpt>
      <trkpt lat="48.21109" lon="16.43294">
        <ele>190.21017</ele>
        <time>2026-07-07T07:50:02.000Z</time>
      </trkpt>
      <trkpt lat="48.21105" lon="16.433">
        <ele>190.201488</ele>
        <time>2026-07-07T07:50:03.000Z</time>
      </trkpt>
      <trkpt lat="48.21101" lon="16.43306">
        <ele>190.192878</ele>
        <time>2026-07-07T07:50:04.000Z</time>
      </trkpt>
      <trkpt lat="48.21097" lon="16.43311">
        <ele>190.184365</ele>
        <time>2026-07-07T07:50:05.000Z</time>
      </trkpt>
      <trkpt lat="48.21093" lon="16.43317">
        <ele>190.175826</ele>
        <time>2026-07-07T07:50:06.000Z</time>
      </trkpt>
      <trkpt lat="48.21089" lon="16.43323">
        <ele>190.167216</ele>
        <time>2026-07-07T07:50:07.000Z</time>
      </trkpt>
      <trkpt lat="48.21085" lon="16.43328">
        <ele>190.158818</ele>
        <time>2026-07-07T07:50:08.000Z</time>
      </trkpt>
      <trkpt lat="48.21081" lon="16.43334">
        <ele>190.150052</ele>
        <time>2026-07-07T07:50:09.000Z</time>
      </trkpt>
      <trkpt lat="48.21077" lon="16.43339">
        <ele>190.141808</ele>
        <time>2026-07-07T07:50:10.000Z</time>
      </trkpt>
      <trkpt lat="48.21073" lon="16.43345">
        <ele>190.133126</ele>
        <time>2026-07-07T07:50:11.000Z</time>
      </trkpt>
      <trkpt lat="48.21069" lon="16.43351">
        <ele>190.12477</ele>
        <time>2026-07-07T07:50:12.000Z</time>
      </trkpt>
      <trkpt lat="48.21065" lon="16.43356">
        <ele>190.116372</ele>
        <time>2026-07-07T07:50:13.000Z</time>
      </trkpt>
      <trkpt lat="48.21061" lon="16.43362">
        <ele>190.107928</ele>
        <time>2026-07-07T07:50:14.000Z</time>
      </trkpt>
      <trkpt lat="48.21057" lon="16.43367">
        <ele>190.099668</ele>
        <time>2026-07-07T07:50:15.000Z</time>
      </trkpt>
      <trkpt lat="48.21053" lon="16.43372">
        <ele>190.09093</ele>
        <time>2026-07-07T07:50:16.000Z</time>
      </trkpt>
      <trkpt lat="48.21048" lon="16.43378">
        <ele>190.079346</ele>
        <time>2026-07-07T07:50:17.000Z</time>
      </trkpt>
      <trkpt lat="48.21044" lon="16.43383">
        <ele>190.067925</ele>
        <time>2026-07-07T07:50:18.000Z</time>
      </trkpt>
      <trkpt lat="48.2104" lon="16.43388">
        <ele>190.056572</ele>
        <time>2026-07-07T07:50:19.000Z</time>
      </trkpt>
      <trkpt lat="48.21036" lon="16.43393">
        <ele>190.044897</ele>
        <time>2026-07-07T07:50:20.000Z</time>
      </trkpt>
      <trkpt lat="48.21032" lon="16.43399">
        <ele>190.033147</ele>
        <time>2026-07-07T07:50:21.000Z</time>
      </trkpt>
      <trkpt lat="48.21028" lon="16.43404">
        <ele>190.021741</ele>
        <time>2026-07-07T07:50:22.000Z</time>
      </trkpt>
      <trkpt lat="48.21023" lon="16.43409">
        <ele>190.010066</ele>
        <time>2026-07-07T07:50:23.000Z</time>
      </trkpt>
      <trkpt lat="48.21019" lon="16.43414">
        <ele>189.998645</ele>
        <time>2026-07-07T07:50:24.000Z</time>
      </trkpt>
      <trkpt lat="48.21015" lon="16.4342">
        <ele>189.986785</ele>
        <time>2026-07-07T07:50:25.000Z</time>
      </trkpt>
      <trkpt lat="48.21011" lon="16.43425">
        <ele>189.975201</ele>
        <time>2026-07-07T07:50:26.000Z</time>
      </trkpt>
      <trkpt lat="48.21007" lon="16.4343">
        <ele>189.963688</ele>
        <time>2026-07-07T07:50:27.000Z</time>
      </trkpt>
      <trkpt lat="48.21003" lon="16.43435">
        <ele>189.952282</ele>
        <time>2026-07-07T07:50:28.000Z</time>
      </trkpt>
      <trkpt lat="48.20998" lon="16.4344">
        <ele>189.940606</ele>
        <time>2026-07-07T07:50:29.000Z</time>
      </trkpt>
      <trkpt lat="48.20994" lon="16.43446">
        <ele>189.929185</ele>
        <time>2026-07-07T07:50:30.000Z</time>
      </trkpt>
      <trkpt lat="48.2099" lon="16.4345">
        <ele>189.918038</ele>
        <time>2026-07-07T07:50:31.000Z</time>
      </trkpt>
      <trkpt lat="48.20986" lon="16.43455">
        <ele>189.907317</ele>
        <time>2026-07-07T07:50:32.000Z</time>
      </trkpt>
      <trkpt lat="48.20982" lon="16.43459">
        <ele>189.897018</ele>
        <time>2026-07-07T07:50:33.000Z</time>
      </trkpt>
      <trkpt lat="48.20978" lon="16.43464">
        <ele>189.886209</ele>
        <time>2026-07-07T07:50:34.000Z</time>
      </trkpt>
      <trkpt lat="48.20975" lon="16.43469">
        <ele>189.875895</ele>
        <time>2026-07-07T07:50:35.000Z</time>
      </trkpt>
      <trkpt lat="48.20971" lon="16.43474">
        <ele>189.86549</ele>
        <time>2026-07-07T07:50:36.000Z</time>
      </trkpt>
      <trkpt lat="48.20967" lon="16.43479">
        <ele>189.855209</ele>
        <time>2026-07-07T07:50:37.000Z</time>
      </trkpt>
      <trkpt lat="48.20964" lon="16.43484">
        <ele>189.844456</ele>
        <time>2026-07-07T07:50:38.000Z</time>
      </trkpt>
      <trkpt lat="48.2096" lon="16.43489">
        <ele>189.833671</ele>
        <time>2026-07-07T07:50:39.000Z</time>
      </trkpt>
      <trkpt lat="48.20956" lon="16.43494">
        <ele>189.823138</ele>
        <time>2026-07-07T07:50:40.000Z</time>
      </trkpt>
      <trkpt lat="48.20953" lon="16.43499">
        <ele>189.812157</ele>
        <time>2026-07-07T07:50:41.000Z</time>
      </trkpt>
      <trkpt lat="48.20949" lon="16.43505">
        <ele>189.801873</ele>
        <time>2026-07-07T07:50:42.000Z</time>
      </trkpt>
      <trkpt lat="48.20946" lon="16.4351">
        <ele>189.791443</ele>
        <time>2026-07-07T07:50:43.000Z</time>
      </trkpt>
      <trkpt lat="48.20943" lon="16.43515">
        <ele>189.78155</ele>
        <time>2026-07-07T07:50:44.000Z</time>
      </trkpt>
      <trkpt lat="48.2094" lon="16.4352">
        <ele>189.771722</ele>
        <time>2026-07-07T07:50:45.000Z</time>
      </trkpt>
      <trkpt lat="48.20937" lon="16.43525">
        <ele>189.762183</ele>
        <time>2026-07-07T07:50:46.000Z</time>
      </trkpt>
      <trkpt lat="48.20934" lon="16.4353">
        <ele>189.752976</ele>
        <time>2026-07-07T07:50:47.000Z</time>
      </trkpt>
      <trkpt lat="48.20932" lon="16.43536">
        <ele>189.743885</ele>
        <time>2026-07-07T07:50:48.000Z</time>
      </trkpt>
      <trkpt lat="48.20929" lon="16.4354">
        <ele>189.735626</ele>
        <time>2026-07-07T07:50:49.000Z</time>
      </trkpt>
      <trkpt lat="48.20927" lon="16.43544">
        <ele>189.728735</ele>
        <time>2026-07-07T07:50:50.000Z</time>
      </trkpt>
      <trkpt lat="48.20925" lon="16.43546">
        <ele>189.723629</ele>
        <time>2026-07-07T07:50:51.000Z</time>
      </trkpt>
      <trkpt lat="48.20924" lon="16.43547">
        <ele>189.721072</ele>
        <time>2026-07-07T07:50:52.000Z</time>
      </trkpt>
      <trkpt lat="48.20924" lon="16.43547">
        <ele>189.720718</ele>
        <time>2026-07-07T07:50:53.000Z</time>
      </trkpt>
      <trkpt lat="48.20921" lon="16.43556">
        <ele>189.715743</ele>
        <time>2026-07-07T07:51:07.000Z</time>
      </trkpt>
      <trkpt lat="48.20919" lon="16.4356">
        <ele>189.726921</ele>
        <time>2026-07-07T07:51:08.000Z</time>
      </trkpt>
      <trkpt lat="48.20917" lon="16.43563">
        <ele>189.739204</ele>
        <time>2026-07-07T07:51:09.000Z</time>
      </trkpt>
      <trkpt lat="48.20914" lon="16.43567">
        <ele>189.752301</ele>
        <time>2026-07-07T07:51:10.000Z</time>
      </trkpt>
      <trkpt lat="48.20912" lon="16.4357">
        <ele>189.765683</ele>
        <time>2026-07-07T07:51:11.000Z</time>
      </trkpt>
      <trkpt lat="48.2091" lon="16.43574">
        <ele>189.778879</ele>
        <time>2026-07-07T07:51:12.000Z</time>
      </trkpt>
      <trkpt lat="48.20907" lon="16.43578">
        <ele>189.794559</ele>
        <time>2026-07-07T07:51:13.000Z</time>
      </trkpt>
      <trkpt lat="48.20904" lon="16.43583">
        <ele>189.81116</ele>
        <time>2026-07-07T07:51:14.000Z</time>
      </trkpt>
      <trkpt lat="48.20901" lon="16.43587">
        <ele>189.827761</ele>
        <time>2026-07-07T07:51:15.000Z</time>
      </trkpt>
      <trkpt lat="48.20898" lon="16.43591">
        <ele>189.844573</ele>
        <time>2026-07-07T07:51:16.000Z</time>
      </trkpt>
      <trkpt lat="48.20894" lon="16.43596">
        <ele>189.86185</ele>
        <time>2026-07-07T07:51:17.000Z</time>
      </trkpt>
      <trkpt lat="48.20891" lon="16.436">
        <ele>189.880165</ele>
        <time>2026-07-07T07:51:18.000Z</time>
      </trkpt>
      <trkpt lat="48.20887" lon="16.43604">
        <ele>189.898012</ele>
        <time>2026-07-07T07:51:19.000Z</time>
      </trkpt>
      <trkpt lat="48.20883" lon="16.43608">
        <ele>189.915544</ele>
        <time>2026-07-07T07:51:20.000Z</time>
      </trkpt>
      <trkpt lat="48.2088" lon="16.43613">
        <ele>189.933636</ele>
        <time>2026-07-07T07:51:21.000Z</time>
      </trkpt>
      <trkpt lat="48.20877" lon="16.43618">
        <ele>189.951447</ele>
        <time>2026-07-07T07:51:22.000Z</time>
      </trkpt>
      <trkpt lat="48.20874" lon="16.43623">
        <ele>189.969985</ele>
        <time>2026-07-07T07:51:23.000Z</time>
      </trkpt>
      <trkpt lat="48.20871" lon="16.43629">
        <ele>189.988522</ele>
        <time>2026-07-07T07:51:24.000Z</time>
      </trkpt>
      <trkpt lat="48.20868" lon="16.43634">
        <ele>190.007261</ele>
        <time>2026-07-07T07:51:25.000Z</time>
      </trkpt>
      <trkpt lat="48.20865" lon="16.4364">
        <ele>190.025928</ele>
        <time>2026-07-07T07:51:26.000Z</time>
      </trkpt>
      <trkpt lat="48.20862" lon="16.43646">
        <ele>190.044381</ele>
        <time>2026-07-07T07:51:27.000Z</time>
      </trkpt>
      <trkpt lat="48.2086" lon="16.43652">
        <ele>190.06306</ele>
        <time>2026-07-07T07:51:28.000Z</time>
      </trkpt>
      <trkpt lat="48.20857" lon="16.43658">
        <ele>190.082164</ele>
        <time>2026-07-07T07:51:29.000Z</time>
      </trkpt>
      <trkpt lat="48.20854" lon="16.43664">
        <ele>190.101728</ele>
        <time>2026-07-07T07:51:30.000Z</time>
      </trkpt>
      <trkpt lat="48.2085" lon="16.4367">
        <ele>190.12168</ele>
        <time>2026-07-07T07:51:31.000Z</time>
      </trkpt>
      <trkpt lat="48.20847" lon="16.43675">
        <ele>190.139877</ele>
        <time>2026-07-07T07:51:32.000Z</time>
      </trkpt>
      <trkpt lat="48.20844" lon="16.4368">
        <ele>190.159539</ele>
        <time>2026-07-07T07:51:33.000Z</time>
      </trkpt>
      <trkpt lat="48.2084" lon="16.43685">
        <ele>190.178452</ele>
        <time>2026-07-07T07:51:34.000Z</time>
      </trkpt>
      <trkpt lat="48.20836" lon="16.4369">
        <ele>190.197939</ele>
        <time>2026-07-07T07:51:35.000Z</time>
      </trkpt>
      <trkpt lat="48.20833" lon="16.43695">
        <ele>190.217719</ele>
        <time>2026-07-07T07:51:36.000Z</time>
      </trkpt>
      <trkpt lat="48.20829" lon="16.437">
        <ele>190.236632</ele>
        <time>2026-07-07T07:51:37.000Z</time>
      </trkpt>
      <trkpt lat="48.20825" lon="16.43705">
        <ele>190.256759</ele>
        <time>2026-07-07T07:51:38.000Z</time>
      </trkpt>
      <trkpt lat="48.20822" lon="16.4371">
        <ele>190.27622</ele>
        <time>2026-07-07T07:51:39.000Z</time>
      </trkpt>
      <trkpt lat="48.20818" lon="16.43716">
        <ele>190.295496</ele>
        <time>2026-07-07T07:51:40.000Z</time>
      </trkpt>
      <trkpt lat="48.20815" lon="16.43721">
        <ele>190.314409</ele>
        <time>2026-07-07T07:51:41.000Z</time>
      </trkpt>
      <trkpt lat="48.20811" lon="16.43726">
        <ele>190.333321</ele>
        <time>2026-07-07T07:51:42.000Z</time>
      </trkpt>
      <trkpt lat="48.20808" lon="16.4373">
        <ele>190.351414</ele>
        <time>2026-07-07T07:51:43.000Z</time>
      </trkpt>
      <trkpt lat="48.20805" lon="16.43735">
        <ele>190.367936</ele>
        <time>2026-07-07T07:51:44.000Z</time>
      </trkpt>
      <trkpt lat="48.20802" lon="16.43739">
        <ele>190.384235</ele>
        <time>2026-07-07T07:51:45.000Z</time>
      </trkpt>
      <trkpt lat="48.20799" lon="16.43743">
        <ele>190.399942</ele>
        <time>2026-07-07T07:51:46.000Z</time>
      </trkpt>
      <trkpt lat="48.20796" lon="16.43746">
        <ele>190.428505</ele>
        <time>2026-07-07T07:51:47.000Z</time>
      </trkpt>
      <trkpt lat="48.20793" lon="16.4375">
        <ele>190.558278</ele>
        <time>2026-07-07T07:51:48.000Z</time>
      </trkpt>
      <trkpt lat="48.2079" lon="16.43752">
        <ele>190.676793</ele>
        <time>2026-07-07T07:51:49.000Z</time>
      </trkpt>
      <trkpt lat="48.20788" lon="16.4375">
        <ele>190.780362</ele>
        <time>2026-07-07T07:51:50.000Z</time>
      </trkpt>
      <trkpt lat="48.20785" lon="16.43747">
        <ele>190.900667</ele>
        <time>2026-07-07T07:51:51.000Z</time>
      </trkpt>
      <trkpt lat="48.20783" lon="16.43743">
        <ele>191.020366</ele>
        <time>2026-07-07T07:51:52.000Z</time>
      </trkpt>
      <trkpt lat="48.20781" lon="16.43739">
        <ele>191.145782</ele>
        <time>2026-07-07T07:51:53.000Z</time>
      </trkpt>
      <trkpt lat="48.20778" lon="16.43736">
        <ele>191.275555</ele>
        <time>2026-07-07T07:51:54.000Z</time>
      </trkpt>
      <trkpt lat="48.20776" lon="16.43733">
        <ele>191.402708</ele>
        <time>2026-07-07T07:51:55.000Z</time>
      </trkpt>
      <trkpt lat="48.20773" lon="16.43731">
        <ele>191.515285</ele>
        <time>2026-07-07T07:51:56.000Z</time>
      </trkpt>
      <trkpt lat="48.2077" lon="16.43731">
        <ele>191.60781</ele>
        <time>2026-07-07T07:51:57.000Z</time>
      </trkpt>
      <trkpt lat="48.20768" lon="16.43731">
        <ele>191.707868</ele>
        <time>2026-07-07T07:51:58.000Z</time>
      </trkpt>
      <trkpt lat="48.20766" lon="16.43731">
        <ele>191.782802</ele>
        <time>2026-07-07T07:51:59.000Z</time>
      </trkpt>
      <trkpt lat="48.20764" lon="16.43732">
        <ele>191.85737</ele>
        <time>2026-07-07T07:52:00.000Z</time>
      </trkpt>
      <trkpt lat="48.20762" lon="16.43731">
        <ele>191.934537</ele>
        <time>2026-07-07T07:52:01.000Z</time>
      </trkpt>
      <trkpt lat="48.2076" lon="16.43729">
        <ele>192.011432</ele>
        <time>2026-07-07T07:52:02.000Z</time>
      </trkpt>
      <trkpt lat="48.20759" lon="16.43727">
        <ele>192.0753</ele>
        <time>2026-07-07T07:52:03.000Z</time>
      </trkpt>
      <trkpt lat="48.20758" lon="16.43725">
        <ele>192.128774</ele>
        <time>2026-07-07T07:52:04.000Z</time>
      </trkpt>
      <trkpt lat="48.20757" lon="16.43725">
        <ele>192.152147</ele>
        <time>2026-07-07T07:52:05.000Z</time>
      </trkpt>
      <trkpt lat="48.20757" lon="16.43723">
        <ele>192.194665</ele>
        <time>2026-07-07T07:52:06.000Z</time>
      </trkpt>
      <trkpt lat="48.20757" lon="16.43721">
        <ele>192.247562</ele>
        <time>2026-07-07T07:52:07.000Z</time>
      </trkpt>
      <trkpt lat="48.20759" lon="16.43719">
        <ele>192.323445</ele>
        <time>2026-07-07T07:52:08.000Z</time>
      </trkpt>
      <trkpt lat="48.20759" lon="16.43717">
        <ele>192.378799</ele>
        <time>2026-07-07T07:52:09.000Z</time>
      </trkpt>
      <trkpt lat="48.20761" lon="16.43717">
        <ele>192.449406</ele>
        <time>2026-07-07T07:52:10.000Z</time>
      </trkpt>
      <trkpt lat="48.20762" lon="16.43717">
        <ele>192.490356</ele>
        <time>2026-07-07T07:52:11.000Z</time>
      </trkpt>
      <trkpt lat="48.20764" lon="16.43718">
        <ele>192.552059</ele>
        <time>2026-07-07T07:52:12.000Z</time>
      </trkpt>
      <trkpt lat="48.20765" lon="16.43719">
        <ele>192.608235</ele>
        <time>2026-07-07T07:52:13.000Z</time>
      </trkpt>
      <trkpt lat="48.20766" lon="16.43721">
        <ele>192.674517</ele>
        <time>2026-07-07T07:52:14.000Z</time>
      </trkpt>
      <trkpt lat="48.20767" lon="16.43723">
        <ele>192.727805</ele>
        <time>2026-07-07T07:52:15.000Z</time>
      </trkpt>
      <trkpt lat="48.20767" lon="16.43725">
        <ele>192.778296</ele>
        <time>2026-07-07T07:52:16.000Z</time>
      </trkpt>
      <trkpt lat="48.20767" lon="16.43727">
        <ele>192.826327</ele>
        <time>2026-07-07T07:52:17.000Z</time>
      </trkpt>
      <trkpt lat="48.20766" lon="16.43729">
        <ele>192.885957</ele>
        <time>2026-07-07T07:52:18.000Z</time>
      </trkpt>
      <trkpt lat="48.20764" lon="16.43731">
        <ele>192.961774</ele>
        <time>2026-07-07T07:52:19.000Z</time>
      </trkpt>
      <trkpt lat="48.20762" lon="16.43732">
        <ele>193.038942</ele>
        <time>2026-07-07T07:52:20.000Z</time>
      </trkpt>
      <trkpt lat="48.2076" lon="16.43733">
        <ele>193.120366</ele>
        <time>2026-07-07T07:52:21.000Z</time>
      </trkpt>
      <trkpt lat="48.20758" lon="16.43732">
        <ele>193.1953</ele>
        <time>2026-07-07T07:52:22.000Z</time>
      </trkpt>
      <trkpt lat="48.20756" lon="16.43732">
        <ele>193.278414</ele>
        <time>2026-07-07T07:52:23.000Z</time>
      </trkpt>
      <trkpt lat="48.20754" lon="16.4373">
        <ele>193.358019</ele>
        <time>2026-07-07T07:52:24.000Z</time>
      </trkpt>
      <trkpt lat="48.20753" lon="16.43729">
        <ele>193.426035</ele>
        <time>2026-07-07T07:52:25.000Z</time>
      </trkpt>
      <trkpt lat="48.20752" lon="16.43726">
        <ele>193.504322</ele>
        <time>2026-07-07T07:52:26.000Z</time>
      </trkpt>
      <trkpt lat="48.20752" lon="16.43722">
        <ele>193.588388</ele>
        <time>2026-07-07T07:52:27.000Z</time>
      </trkpt>
      <trkpt lat="48.20753" lon="16.43719">
        <ele>193.67839</ele>
        <time>2026-07-07T07:52:28.000Z</time>
      </trkpt>
      <trkpt lat="48.20754" lon="16.43716">
        <ele>193.766526</ele>
        <time>2026-07-07T07:52:29.000Z</time>
      </trkpt>
      <trkpt lat="48.20756" lon="16.43713">
        <ele>193.857172</ele>
        <time>2026-07-07T07:52:30.000Z</time>
      </trkpt>
      <trkpt lat="48.20758" lon="16.43712">
        <ele>193.937693</ele>
        <time>2026-07-07T07:52:31.000Z</time>
      </trkpt>
      <trkpt lat="48.2076" lon="16.43711">
        <ele>194.01486</ele>
        <time>2026-07-07T07:52:32.000Z</time>
      </trkpt>
      <trkpt lat="48.20762" lon="16.43711">
        <ele>194.082109</ele>
        <time>2026-07-07T07:52:33.000Z</time>
      </trkpt>
      <trkpt lat="48.20764" lon="16.43712">
        <ele>194.158605</ele>
        <time>2026-07-07T07:52:34.000Z</time>
      </trkpt>
      <trkpt lat="48.20765" lon="16.43714">
        <ele>194.23149</ele>
        <time>2026-07-07T07:52:35.000Z</time>
      </trkpt>
      <trkpt lat="48.20767" lon="16.43716">
        <ele>194.303908</ele>
        <time>2026-07-07T07:52:36.000Z</time>
      </trkpt>
      <trkpt lat="48.20768" lon="16.43718">
        <ele>194.375722</ele>
        <time>2026-07-07T07:52:37.000Z</time>
      </trkpt>
      <trkpt lat="48.20768" lon="16.43721">
        <ele>194.447117</ele>
        <time>2026-07-07T07:52:38.000Z</time>
      </trkpt>
      <trkpt lat="48.20768" lon="16.43724">
        <ele>194.521375</ele>
        <time>2026-07-07T07:52:39.000Z</time>
      </trkpt>
      <trkpt lat="48.20767" lon="16.43727">
        <ele>194.598519</ele>
        <time>2026-07-07T07:52:40.000Z</time>
      </trkpt>
      <trkpt lat="48.20766" lon="16.4373">
        <ele>194.684734</ele>
        <time>2026-07-07T07:52:41.000Z</time>
      </trkpt>
      <trkpt lat="48.20764" lon="16.43732">
        <ele>194.766068</ele>
        <time>2026-07-07T07:52:42.000Z</time>
      </trkpt>
      <trkpt lat="48.20762" lon="16.43733">
        <ele>194.844792</ele>
        <time>2026-07-07T07:52:43.000Z</time>
      </trkpt>
      <trkpt lat="48.2076" lon="16.43734">
        <ele>194.921959</ele>
        <time>2026-07-07T07:52:44.000Z</time>
      </trkpt>
      <trkpt lat="48.20758" lon="16.43733">
        <ele>194.989208</ele>
        <time>2026-07-07T07:52:45.000Z</time>
      </trkpt>
      <trkpt lat="48.20757" lon="16.43732">
        <ele>195.056691</ele>
        <time>2026-07-07T07:52:46.000Z</time>
      </trkpt>
      <trkpt lat="48.20755" lon="16.43732">
        <ele>195.126071</ele>
        <time>2026-07-07T07:52:47.000Z</time>
      </trkpt>
      <trkpt lat="48.20753" lon="16.43731">
        <ele>195.207526</ele>
        <time>2026-07-07T07:52:48.000Z</time>
      </trkpt>
      <trkpt lat="48.2075" lon="16.43731">
        <ele>195.28976</ele>
        <time>2026-07-07T07:52:49.000Z</time>
      </trkpt>
      <trkpt lat="48.20749" lon="16.4373">
        <ele>195.35914</ele>
        <time>2026-07-07T07:52:50.000Z</time>
      </trkpt>
      <trkpt lat="48.20748" lon="16.43729">
        <ele>195.408038</ele>
        <time>2026-07-07T07:52:51.000Z</time>
      </trkpt>
      <trkpt lat="48.20746" lon="16.43727">
        <ele>195.476848</ele>
        <time>2026-07-07T07:52:52.000Z</time>
      </trkpt>
      <trkpt lat="48.20745" lon="16.43725">
        <ele>195.559814</ele>
        <time>2026-07-07T07:52:53.000Z</time>
      </trkpt>
      <trkpt lat="48.20742" lon="16.43722">
        <ele>195.669679</ele>
        <time>2026-07-07T07:52:54.000Z</time>
      </trkpt>
      <trkpt lat="48.20741" lon="16.43719">
        <ele>195.758667</ele>
        <time>2026-07-07T07:52:55.000Z</time>
      </trkpt>
      <trkpt lat="48.20739" lon="16.43717">
        <ele>195.831826</ele>
        <time>2026-07-07T07:52:56.000Z</time>
      </trkpt>
      <trkpt lat="48.20738" lon="16.43714">
        <ele>195.917196</ele>
        <time>2026-07-07T07:52:57.000Z</time>
      </trkpt>
      <trkpt lat="48.20736" lon="16.43711">
        <ele>196.019982</ele>
        <time>2026-07-07T07:52:58.000Z</time>
      </trkpt>
      <trkpt lat="48.20734" lon="16.43708">
        <ele>196.127392</ele>
        <time>2026-07-07T07:52:59.000Z</time>
      </trkpt>
      <trkpt lat="48.20732" lon="16.43705">
        <ele>196.22203</ele>
        <time>2026-07-07T07:53:00.000Z</time>
      </trkpt>
      <trkpt lat="48.2073" lon="16.43701">
        <ele>196.349767</ele>
        <time>2026-07-07T07:53:01.000Z</time>
      </trkpt>
      <trkpt lat="48.20728" lon="16.43698">
        <ele>196.459632</ele>
        <time>2026-07-07T07:53:02.000Z</time>
      </trkpt>
      <trkpt lat="48.20725" lon="16.43695">
        <ele>196.590202</ele>
        <time>2026-07-07T07:53:03.000Z</time>
      </trkpt>
      <trkpt lat="48.20723" lon="16.43691">
        <ele>196.719525</ele>
        <time>2026-07-07T07:53:04.000Z</time>
      </trkpt>
      <trkpt lat="48.2072" lon="16.43688">
        <ele>196.852561</ele>
        <time>2026-07-07T07:53:05.000Z</time>
      </trkpt>
      <trkpt lat="48.20718" lon="16.43685">
        <ele>196.964942</ele>
        <time>2026-07-07T07:53:06.000Z</time>
      </trkpt>
      <trkpt lat="48.20716" lon="16.43682">
        <ele>197.061122</ele>
        <time>2026-07-07T07:53:07.000Z</time>
      </trkpt>
      <trkpt lat="48.20714" lon="16.4368">
        <ele>197.065146</ele>
        <time>2026-07-07T07:53:08.000Z</time>
      </trkpt>
      <trkpt lat="48.20711" lon="16.43677">
        <ele>197.070692</ele>
        <time>2026-07-07T07:53:09.000Z</time>
      </trkpt>
      <trkpt lat="48.20709" lon="16.43675">
        <ele>197.075608</ele>
        <time>2026-07-07T07:53:10.000Z</time>
      </trkpt>
      <trkpt lat="48.20708" lon="16.4367">
        <ele>197.081668</ele>
        <time>2026-07-07T07:53:11.000Z</time>
      </trkpt>
      <trkpt lat="48.20706" lon="16.43665">
        <ele>197.088737</ele>
        <time>2026-07-07T07:53:12.000Z</time>
      </trkpt>
      <trkpt lat="48.20703" lon="16.43662">
        <ele>197.096047</ele>
        <time>2026-07-07T07:53:13.000Z</time>
      </trkpt>
      <trkpt lat="48.20701" lon="16.43657">
        <ele>197.102996</ele>
        <time>2026-07-07T07:53:14.000Z</time>
      </trkpt>
      <trkpt lat="48.20699" lon="16.43652">
        <ele>197.110577</ele>
        <time>2026-07-07T07:53:15.000Z</time>
      </trkpt>
      <trkpt lat="48.20697" lon="16.43647">
        <ele>197.117568</ele>
        <time>2026-07-07T07:53:16.000Z</time>
      </trkpt>
      <trkpt lat="48.20694" lon="16.43639">
        <ele>197.128533</ele>
        <time>2026-07-07T07:53:17.000Z</time>
      </trkpt>
      <trkpt lat="48.20691" lon="16.43633">
        <ele>197.13826</ele>
        <time>2026-07-07T07:53:18.000Z</time>
      </trkpt>
      <trkpt lat="48.20687" lon="16.43625">
        <ele>197.14984</ele>
        <time>2026-07-07T07:53:19.000Z</time>
      </trkpt>
      <trkpt lat="48.20684" lon="16.4362">
        <ele>197.158036</ele>
        <time>2026-07-07T07:53:20.000Z</time>
      </trkpt>
      <trkpt lat="48.20682" lon="16.43614">
        <ele>197.166742</ele>
        <time>2026-07-07T07:53:21.000Z</time>
      </trkpt>
      <trkpt lat="48.2068" lon="16.43611">
        <ele>197.172485</ele>
        <time>2026-07-07T07:53:22.000Z</time>
      </trkpt>
      <trkpt lat="48.20675" lon="16.43603">
        <ele>197.184657</ele>
        <time>2026-07-07T07:53:23.000Z</time>
      </trkpt>
      <trkpt lat="48.20671" lon="16.43597">
        <ele>197.195469</ele>
        <time>2026-07-07T07:53:24.000Z</time>
      </trkpt>
      <trkpt lat="48.20668" lon="16.43591">
        <ele>197.205522</ele>
        <time>2026-07-07T07:53:25.000Z</time>
      </trkpt>
      <trkpt lat="48.20665" lon="16.43586">
        <ele>197.213345</ele>
        <time>2026-07-07T07:53:26.000Z</time>
      </trkpt>
      <trkpt lat="48.20662" lon="16.43581">
        <ele>197.220919</ele>
        <time>2026-07-07T07:53:27.000Z</time>
      </trkpt>
      <trkpt lat="48.20659" lon="16.43576">
        <ele>197.229288</ele>
        <time>2026-07-07T07:53:28.000Z</time>
      </trkpt>
      <trkpt lat="48.20655" lon="16.43569">
        <ele>197.240396</ele>
        <time>2026-07-07T07:53:29.000Z</time>
      </trkpt>
      <trkpt lat="48.20651" lon="16.43564">
        <ele>197.250412</ele>
        <time>2026-07-07T07:53:30.000Z</time>
      </trkpt>
      <trkpt lat="48.20647" lon="16.43557">
        <ele>197.261551</ele>
        <time>2026-07-07T07:53:31.000Z</time>
      </trkpt>
      <trkpt lat="48.20643" lon="16.43552">
        <ele>197.271484</ele>
        <time>2026-07-07T07:53:32.000Z</time>
      </trkpt>
      <trkpt lat="48.20639" lon="16.43546">
        <ele>197.282277</ele>
        <time>2026-07-07T07:53:33.000Z</time>
      </trkpt>
      <trkpt lat="48.20634" lon="16.4354">
        <ele>197.293154</ele>
        <time>2026-07-07T07:53:34.000Z</time>
      </trkpt>
      <trkpt lat="48.2063" lon="16.43533">
        <ele>197.304598</ele>
        <time>2026-07-07T07:53:35.000Z</time>
      </trkpt>
      <trkpt lat="48.20625" lon="16.43528">
        <ele>197.315456</ele>
        <time>2026-07-07T07:53:36.000Z</time>
      </trkpt>
      <trkpt lat="48.20621" lon="16.43521">
        <ele>197.327681</ele>
        <time>2026-07-07T07:53:37.000Z</time>
      </trkpt>
      <trkpt lat="48.20616" lon="16.43514">
        <ele>197.33927</ele>
        <time>2026-07-07T07:53:38.000Z</time>
      </trkpt>
      <trkpt lat="48.20613" lon="16.43508">
        <ele>197.349203</ele>
        <time>2026-07-07T07:53:39.000Z</time>
      </trkpt>
      <trkpt lat="48.20609" lon="16.43502">
        <ele>197.359872</ele>
        <time>2026-07-07T07:53:40.000Z</time>
      </trkpt>
      <trkpt lat="48.20605" lon="16.43495">
        <ele>197.370757</ele>
        <time>2026-07-07T07:53:41.000Z</time>
      </trkpt>
      <trkpt lat="48.20601" lon="16.43489">
        <ele>197.381212</ele>
        <time>2026-07-07T07:53:42.000Z</time>
      </trkpt>
      <trkpt lat="48.20598" lon="16.43483">
        <ele>197.391208</ele>
        <time>2026-07-07T07:53:43.000Z</time>
      </trkpt>
      <trkpt lat="48.20594" lon="16.43478">
        <ele>197.3443</ele>
        <time>2026-07-07T07:53:44.000Z</time>
      </trkpt>
      <trkpt lat="48.20591" lon="16.43472">
        <ele>197.288598</ele>
        <time>2026-07-07T07:53:45.000Z</time>
      </trkpt>
      <trkpt lat="48.20587" lon="16.43467">
        <ele>197.234566</ele>
        <time>2026-07-07T07:53:46.000Z</time>
      </trkpt>
      <trkpt lat="48.20584" lon="16.43462">
        <ele>197.178436</ele>
        <time>2026-07-07T07:53:47.000Z</time>
      </trkpt>
      <trkpt lat="48.2058" lon="16.43456">
        <ele>197.120133</ele>
        <time>2026-07-07T07:53:48.000Z</time>
      </trkpt>
      <trkpt lat="48.20577" lon="16.43451">
        <ele>197.06856</ele>
        <time>2026-07-07T07:53:49.000Z</time>
      </trkpt>
      <trkpt lat="48.20574" lon="16.43446">
        <ele>197.018494</ele>
        <time>2026-07-07T07:53:50.000Z</time>
      </trkpt>
      <trkpt lat="48.20571" lon="16.43441">
        <ele>196.967106</ele>
        <time>2026-07-07T07:53:51.000Z</time>
      </trkpt>
      <trkpt lat="48.20568" lon="16.43436">
        <ele>196.917039</ele>
        <time>2026-07-07T07:53:52.000Z</time>
      </trkpt>
      <trkpt lat="48.20564" lon="16.43432">
        <ele>196.866448</ele>
        <time>2026-07-07T07:53:53.000Z</time>
      </trkpt>
      <trkpt lat="48.20561" lon="16.43426">
        <ele>196.81085</ele>
        <time>2026-07-07T07:53:54.000Z</time>
      </trkpt>
      <trkpt lat="48.20557" lon="16.43421">
        <ele>196.756003</ele>
        <time>2026-07-07T07:53:55.000Z</time>
      </trkpt>
      <trkpt lat="48.20553" lon="16.43416">
        <ele>196.695842</ele>
        <time>2026-07-07T07:53:56.000Z</time>
      </trkpt>
      <trkpt lat="48.2055" lon="16.43411">
        <ele>196.641809</ele>
        <time>2026-07-07T07:53:57.000Z</time>
      </trkpt>
      <trkpt lat="48.20546" lon="16.43406">
        <ele>196.584454</ele>
        <time>2026-07-07T07:53:58.000Z</time>
      </trkpt>
      <trkpt lat="48.20541" lon="16.43401">
        <ele>196.521847</ele>
        <time>2026-07-07T07:53:59.000Z</time>
      </trkpt>
      <trkpt lat="48.20538" lon="16.43397">
        <ele>196.469947</ele>
        <time>2026-07-07T07:54:00.000Z</time>
      </trkpt>
      <trkpt lat="48.20534" lon="16.43392">
        <ele>196.418413</ele>
        <time>2026-07-07T07:54:01.000Z</time>
      </trkpt>
      <trkpt lat="48.20529" lon="16.4339">
        <ele>196.363582</ele>
        <time>2026-07-07T07:54:02.000Z</time>
      </trkpt>
      <trkpt lat="48.20525" lon="16.43387">
        <ele>196.31191</ele>
        <time>2026-07-07T07:54:03.000Z</time>
      </trkpt>
      <trkpt lat="48.20521" lon="16.43384">
        <ele>196.262559</ele>
        <time>2026-07-07T07:54:04.000Z</time>
      </trkpt>
      <trkpt lat="48.20518" lon="16.4338">
        <ele>196.213319</ele>
        <time>2026-07-07T07:54:05.000Z</time>
      </trkpt>
      <trkpt lat="48.20515" lon="16.43376">
        <ele>196.167258</ele>
        <time>2026-07-07T07:54:06.000Z</time>
      </trkpt>
      <trkpt lat="48.20512" lon="16.43373">
        <ele>196.130996</ele>
        <time>2026-07-07T07:54:07.000Z</time>
      </trkpt>
      <trkpt lat="48.20509" lon="16.43369">
        <ele>196.083564</ele>
        <time>2026-07-07T07:54:08.000Z</time>
      </trkpt>
      <trkpt lat="48.20505" lon="16.43365">
        <ele>196.033363</ele>
        <time>2026-07-07T07:54:09.000Z</time>
      </trkpt>
      <trkpt lat="48.20502" lon="16.43361">
        <ele>195.986976</ele>
        <time>2026-07-07T07:54:10.000Z</time>
      </trkpt>
      <trkpt lat="48.20499" lon="16.43357">
        <ele>195.939544</ele>
        <time>2026-07-07T07:54:11.000Z</time>
      </trkpt>
      <trkpt lat="48.20496" lon="16.4335">
        <ele>195.87552</ele>
        <time>2026-07-07T07:54:12.000Z</time>
      </trkpt>
      <trkpt lat="48.20493" lon="16.43343">
        <ele>195.815897</ele>
        <time>2026-07-07T07:54:13.000Z</time>
      </trkpt>
      <trkpt lat="48.20489" lon="16.43337">
        <ele>195.756344</ele>
        <time>2026-07-07T07:54:14.000Z</time>
      </trkpt>
      <trkpt lat="48.20485" lon="16.43331">
        <ele>195.690468</ele>
        <time>2026-07-07T07:54:15.000Z</time>
      </trkpt>
      <trkpt lat="48.20482" lon="16.43324">
        <ele>195.631538</ele>
        <time>2026-07-07T07:54:16.000Z</time>
      </trkpt>
      <trkpt lat="48.20479" lon="16.4332">
        <ele>195.585115</ele>
        <time>2026-07-07T07:54:17.000Z</time>
      </trkpt>
      <trkpt lat="48.20476" lon="16.43314">
        <ele>195.525698</ele>
        <time>2026-07-07T07:54:18.000Z</time>
      </trkpt>
      <trkpt lat="48.20473" lon="16.43308">
        <ele>195.477332</ele>
        <time>2026-07-07T07:54:19.000Z</time>
      </trkpt>
      <trkpt lat="48.2047" lon="16.43302">
        <ele>195.420841</ele>
        <time>2026-07-07T07:54:20.000Z</time>
      </trkpt>
      <trkpt lat="48.20467" lon="16.43296">
        <ele>195.310952</ele>
        <time>2026-07-07T07:54:21.000Z</time>
      </trkpt>
      <trkpt lat="48.20464" lon="16.43289">
        <ele>195.109304</ele>
        <time>2026-07-07T07:54:22.000Z</time>
      </trkpt>
      <trkpt lat="48.20461" lon="16.43282">
        <ele>194.911842</ele>
        <time>2026-07-07T07:54:23.000Z</time>
      </trkpt>
      <trkpt lat="48.20457" lon="16.43276">
        <ele>194.708828</ele>
        <time>2026-07-07T07:54:24.000Z</time>
      </trkpt>
      <trkpt lat="48.20453" lon="16.4327">
        <ele>194.493846</ele>
        <time>2026-07-07T07:54:25.000Z</time>
      </trkpt>
      <trkpt lat="48.20448" lon="16.43265">
        <ele>194.274862</ele>
        <time>2026-07-07T07:54:26.000Z</time>
      </trkpt>
      <trkpt lat="48.20444" lon="16.43259">
        <ele>194.061487</ele>
        <time>2026-07-07T07:54:27.000Z</time>
      </trkpt>
      <trkpt lat="48.2044" lon="16.43253">
        <ele>193.859001</ele>
        <time>2026-07-07T07:54:28.000Z</time>
      </trkpt>
      <trkpt lat="48.20437" lon="16.43246">
        <ele>193.64296</ele>
        <time>2026-07-07T07:54:29.000Z</time>
      </trkpt>
      <trkpt lat="48.20433" lon="16.43238">
        <ele>193.408622</ele>
        <time>2026-07-07T07:54:30.000Z</time>
      </trkpt>
      <trkpt lat="48.2043" lon="16.43229">
        <ele>193.170652</ele>
        <time>2026-07-07T07:54:31.000Z</time>
      </trkpt>
      <trkpt lat="48.20427" lon="16.4322">
        <ele>192.918051</ele>
        <time>2026-07-07T07:54:32.000Z</time>
      </trkpt>
      <trkpt lat="48.20423" lon="16.43211">
        <ele>192.651315</ele>
        <time>2026-07-07T07:54:33.000Z</time>
      </trkpt>
      <trkpt lat="48.20419" lon="16.43202">
        <ele>192.378531</ele>
        <time>2026-07-07T07:54:34.000Z</time>
      </trkpt>
      <trkpt lat="48.20415" lon="16.43192">
        <ele>192.099298</ele>
        <time>2026-07-07T07:54:35.000Z</time>
      </trkpt>
      <trkpt lat="48.20412" lon="16.43181">
        <ele>191.815315</ele>
        <time>2026-07-07T07:54:36.000Z</time>
      </trkpt>
      <trkpt lat="48.2041" lon="16.4317">
        <ele>191.528644</ele>
        <time>2026-07-07T07:54:37.000Z</time>
      </trkpt>
      <trkpt lat="48.2041" lon="16.43159">
        <ele>191.257944</ele>
        <time>2026-07-07T07:54:38.000Z</time>
      </trkpt>
      <trkpt lat="48.20409" lon="16.43148">
        <ele>191.00817</ele>
        <time>2026-07-07T07:54:39.000Z</time>
      </trkpt>
      <trkpt lat="48.20409" lon="16.43139">
        <ele>190.767975</ele>
        <time>2026-07-07T07:54:40.000Z</time>
      </trkpt>
      <trkpt lat="48.20408" lon="16.43129">
        <ele>190.539722</ele>
        <time>2026-07-07T07:54:41.000Z</time>
      </trkpt>
      <trkpt lat="48.20408" lon="16.43121">
        <ele>190.32575</ele>
        <time>2026-07-07T07:54:42.000Z</time>
      </trkpt>
      <trkpt lat="48.20406" lon="16.43113">
        <ele>190.120331</ele>
        <time>2026-07-07T07:54:43.000Z</time>
      </trkpt>
      <trkpt lat="48.20404" lon="16.43106">
        <ele>189.933781</ele>
        <time>2026-07-07T07:54:44.000Z</time>
      </trkpt>
      <trkpt lat="48.20401" lon="16.43099">
        <ele>189.750187</ele>
        <time>2026-07-07T07:54:45.000Z</time>
      </trkpt>
      <trkpt lat="48.20399" lon="16.43093">
        <ele>189.566592</ele>
        <time>2026-07-07T07:54:46.000Z</time>
      </trkpt>
      <trkpt lat="48.20396" lon="16.43086">
        <ele>189.385113</ele>
        <time>2026-07-07T07:54:47.000Z</time>
      </trkpt>
      <trkpt lat="48.20394" lon="16.4308">
        <ele>189.203326</ele>
        <time>2026-07-07T07:54:48.000Z</time>
      </trkpt>
      <trkpt lat="48.20392" lon="16.43074">
        <ele>189.027595</ele>
        <time>2026-07-07T07:54:49.000Z</time>
      </trkpt>
      <trkpt lat="48.20389" lon="16.43068">
        <ele>188.860064</ele>
        <time>2026-07-07T07:54:50.000Z</time>
      </trkpt>
      <trkpt lat="48.20387" lon="16.43062">
        <ele>188.731913</ele>
        <time>2026-07-07T07:54:51.000Z</time>
      </trkpt>
      <trkpt lat="48.20385" lon="16.43057">
        <ele>188.625473</ele>
        <time>2026-07-07T07:54:52.000Z</time>
      </trkpt>
      <trkpt lat="48.20386" lon="16.43048">
        <ele>188.48071</ele>
        <time>2026-07-07T07:54:53.000Z</time>
      </trkpt>
      <trkpt lat="48.20386" lon="16.4304">
        <ele>188.337188</ele>
        <time>2026-07-07T07:54:54.000Z</time>
      </trkpt>
      <trkpt lat="48.20393" lon="16.43036">
        <ele>188.163084</ele>
        <time>2026-07-07T07:54:55.000Z</time>
      </trkpt>
      <trkpt lat="48.20396" lon="16.43032">
        <ele>188.052009</ele>
        <time>2026-07-07T07:54:56.000Z</time>
      </trkpt>
      <trkpt lat="48.20402" lon="16.43028">
        <ele>187.892325</ele>
        <time>2026-07-07T07:54:57.000Z</time>
      </trkpt>
      <trkpt lat="48.20405" lon="16.43021">
        <ele>187.752302</ele>
        <time>2026-07-07T07:54:58.000Z</time>
      </trkpt>
      <trkpt lat="48.20409" lon="16.43016">
        <ele>187.611565</ele>
        <time>2026-07-07T07:54:59.000Z</time>
      </trkpt>
      <trkpt lat="48.20409" lon="16.43013">
        <ele>187.55959</ele>
        <time>2026-07-07T07:55:00.000Z</time>
      </trkpt>
      <trkpt lat="48.20408" lon="16.43012">
        <ele>187.529133</ele>
        <time>2026-07-07T07:55:01.000Z</time>
      </trkpt>
      <trkpt lat="48.20405" lon="16.43013">
        <ele>187.460226</ele>
        <time>2026-07-07T07:55:02.000Z</time>
      </trkpt>
      <trkpt lat="48.20402" lon="16.43013">
        <ele>187.382558</ele>
        <time>2026-07-07T07:55:03.000Z</time>
      </trkpt>
      <trkpt lat="48.20399" lon="16.43014">
        <ele>187.304574</ele>
        <time>2026-07-07T07:55:04.000Z</time>
      </trkpt>
      <trkpt lat="48.20396" lon="16.43015">
        <ele>187.222372</ele>
        <time>2026-07-07T07:55:05.000Z</time>
      </trkpt>
      <trkpt lat="48.20393" lon="16.43015">
        <ele>187.142898</ele>
        <time>2026-07-07T07:55:06.000Z</time>
      </trkpt>
      <trkpt lat="48.2039" lon="16.43016">
        <ele>187.060889</ele>
        <time>2026-07-07T07:55:07.000Z</time>
      </trkpt>
      <trkpt lat="48.20386" lon="16.43016">
        <ele>186.976344</ele>
        <time>2026-07-07T07:55:08.000Z</time>
      </trkpt>
      <trkpt lat="48.20383" lon="16.43017">
        <ele>186.894493</ele>
        <time>2026-07-07T07:55:09.000Z</time>
      </trkpt>
      <trkpt lat="48.2038" lon="16.43016">
        <ele>186.817722</ele>
        <time>2026-07-07T07:55:10.000Z</time>
      </trkpt>
      <trkpt lat="48.20377" lon="16.43015">
        <ele>186.733217</ele>
        <time>2026-07-07T07:55:11.000Z</time>
      </trkpt>
      <trkpt lat="48.20373" lon="16.43014">
        <ele>186.641309</ele>
        <time>2026-07-07T07:55:12.000Z</time>
      </trkpt>
      <trkpt lat="48.20369" lon="16.43013">
        <ele>186.538996</ele>
        <time>2026-07-07T07:55:13.000Z</time>
      </trkpt>
      <trkpt lat="48.20365" lon="16.43014">
        <ele>186.424178</ele>
        <time>2026-07-07T07:55:14.000Z</time>
      </trkpt>
      <trkpt lat="48.2036" lon="16.43014">
        <ele>186.306322</ele>
        <time>2026-07-07T07:55:15.000Z</time>
      </trkpt>
      <trkpt lat="48.20355" lon="16.43015">
        <ele>186.178465</ele>
        <time>2026-07-07T07:55:16.000Z</time>
      </trkpt>
      <trkpt lat="48.2035" lon="16.43015">
        <ele>186.05097</ele>
        <time>2026-07-07T07:55:17.000Z</time>
      </trkpt>
      <trkpt lat="48.20345" lon="16.43015">
        <ele>185.926023</ele>
        <time>2026-07-07T07:55:18.000Z</time>
      </trkpt>
      <trkpt lat="48.20341" lon="16.43014">
        <ele>185.807984</ele>
        <time>2026-07-07T07:55:19.000Z</time>
      </trkpt>
      <trkpt lat="48.20336" lon="16.43013">
        <ele>185.690482</ele>
        <time>2026-07-07T07:55:20.000Z</time>
      </trkpt>
      <trkpt lat="48.20332" lon="16.43011">
        <ele>185.578161</ele>
        <time>2026-07-07T07:55:21.000Z</time>
      </trkpt>
      <trkpt lat="48.20328" lon="16.43009">
        <ele>185.45853</ele>
        <time>2026-07-07T07:55:22.000Z</time>
      </trkpt>
      <trkpt lat="48.20323" lon="16.43006">
        <ele>185.337352</ele>
        <time>2026-07-07T07:55:23.000Z</time>
      </trkpt>
      <trkpt lat="48.20319" lon="16.43004">
        <ele>185.220407</ele>
        <time>2026-07-07T07:55:24.000Z</time>
      </trkpt>
      <trkpt lat="48.20314" lon="16.43002">
        <ele>185.094393</ele>
        <time>2026-07-07T07:55:25.000Z</time>
      </trkpt>
      <trkpt lat="48.20309" lon="16.42999">
        <ele>184.966459</ele>
        <time>2026-07-07T07:55:26.000Z</time>
      </trkpt>
      <trkpt lat="48.20304" lon="16.42997">
        <ele>184.836563</ele>
        <time>2026-07-07T07:55:27.000Z</time>
      </trkpt>
      <trkpt lat="48.203" lon="16.42995">
        <ele>184.712422</ele>
        <time>2026-07-07T07:55:28.000Z</time>
      </trkpt>
      <trkpt lat="48.20295" lon="16.42993">
        <ele>184.587894</ele>
        <time>2026-07-07T07:55:29.000Z</time>
      </trkpt>
      <trkpt lat="48.20291" lon="16.42991">
        <ele>184.470012</ele>
        <time>2026-07-07T07:55:30.000Z</time>
      </trkpt>
      <trkpt lat="48.20286" lon="16.42989">
        <ele>184.348276</ele>
        <time>2026-07-07T07:55:31.000Z</time>
      </trkpt>
      <trkpt lat="48.20282" lon="16.42987">
        <ele>184.227098</ele>
        <time>2026-07-07T07:55:32.000Z</time>
      </trkpt>
      <trkpt lat="48.20277" lon="16.42984">
        <ele>184.204039</ele>
        <time>2026-07-07T07:55:33.000Z</time>
      </trkpt>
      <trkpt lat="48.20273" lon="16.42982">
        <ele>184.217067</ele>
        <time>2026-07-07T07:55:34.000Z</time>
      </trkpt>
      <trkpt lat="48.2027" lon="16.42978">
        <ele>184.230009</ele>
        <time>2026-07-07T07:55:35.000Z</time>
      </trkpt>
      <trkpt lat="48.20266" lon="16.42975">
        <ele>184.243252</ele>
        <time>2026-07-07T07:55:36.000Z</time>
      </trkpt>
      <trkpt lat="48.20262" lon="16.42971">
        <ele>184.257005</ele>
        <time>2026-07-07T07:55:37.000Z</time>
      </trkpt>
      <trkpt lat="48.20258" lon="16.42968">
        <ele>184.270605</ele>
        <time>2026-07-07T07:55:38.000Z</time>
      </trkpt>
      <trkpt lat="48.20254" lon="16.42964">
        <ele>184.284392</ele>
        <time>2026-07-07T07:55:39.000Z</time>
      </trkpt>
      <trkpt lat="48.2025" lon="16.4296">
        <ele>184.297937</ele>
        <time>2026-07-07T07:55:40.000Z</time>
      </trkpt>
      <trkpt lat="48.20247" lon="16.42956">
        <ele>184.311955</ele>
        <time>2026-07-07T07:55:41.000Z</time>
      </trkpt>
      <trkpt lat="48.20243" lon="16.42952">
        <ele>184.325742</ele>
        <time>2026-07-07T07:55:42.000Z</time>
      </trkpt>
      <trkpt lat="48.20239" lon="16.42947">
        <ele>184.34</ele>
        <time>2026-07-07T07:55:43.000Z</time>
      </trkpt>
      <trkpt lat="48.20235" lon="16.42943">
        <ele>184.354502</ele>
        <time>2026-07-07T07:55:44.000Z</time>
      </trkpt>
      <trkpt lat="48.20231" lon="16.42938">
        <ele>184.369514</ele>
        <time>2026-07-07T07:55:45.000Z</time>
      </trkpt>
      <trkpt lat="48.20228" lon="16.42933">
        <ele>184.384303</ele>
        <time>2026-07-07T07:55:46.000Z</time>
      </trkpt>
      <trkpt lat="48.20224" lon="16.42928">
        <ele>184.398657</ele>
        <time>2026-07-07T07:55:47.000Z</time>
      </trkpt>
      <trkpt lat="48.20221" lon="16.42923">
        <ele>184.413286</ele>
        <time>2026-07-07T07:55:48.000Z</time>
      </trkpt>
      <trkpt lat="48.20217" lon="16.42917">
        <ele>184.4275</ele>
        <time>2026-07-07T07:55:49.000Z</time>
      </trkpt>
      <trkpt lat="48.20214" lon="16.42912">
        <ele>184.442269</ele>
        <time>2026-07-07T07:55:50.000Z</time>
      </trkpt>
      <trkpt lat="48.2021" lon="16.42907">
        <ele>184.456831</ele>
        <time>2026-07-07T07:55:51.000Z</time>
      </trkpt>
      <trkpt lat="48.20207" lon="16.42901">
        <ele>184.471481</ele>
        <time>2026-07-07T07:55:52.000Z</time>
      </trkpt>
      <trkpt lat="48.20204" lon="16.42896">
        <ele>184.486427</ele>
        <time>2026-07-07T07:55:53.000Z</time>
      </trkpt>
      <trkpt lat="48.20201" lon="16.4289">
        <ele>184.501332</ele>
        <time>2026-07-07T07:55:54.000Z</time>
      </trkpt>
      <trkpt lat="48.20197" lon="16.42884">
        <ele>184.516579</ele>
        <time>2026-07-07T07:55:55.000Z</time>
      </trkpt>
      <trkpt lat="48.20194" lon="16.42878">
        <ele>184.531791</ele>
        <time>2026-07-07T07:55:56.000Z</time>
      </trkpt>
      <trkpt lat="48.20191" lon="16.42872">
        <ele>184.54719</ele>
        <time>2026-07-07T07:55:57.000Z</time>
      </trkpt>
      <trkpt lat="48.20187" lon="16.42866">
        <ele>184.562186</ele>
        <time>2026-07-07T07:55:58.000Z</time>
      </trkpt>
      <trkpt lat="48.20184" lon="16.42861">
        <ele>184.577239</ele>
        <time>2026-07-07T07:55:59.000Z</time>
      </trkpt>
      <trkpt lat="48.2018" lon="16.42855">
        <ele>184.592921</ele>
        <time>2026-07-07T07:56:00.000Z</time>
      </trkpt>
      <trkpt lat="48.20176" lon="16.4285">
        <ele>184.608252</ele>
        <time>2026-07-07T07:56:01.000Z</time>
      </trkpt>
      <trkpt lat="48.20173" lon="16.42845">
        <ele>184.623662</ele>
        <time>2026-07-07T07:56:02.000Z</time>
      </trkpt>
      <trkpt lat="48.20169" lon="16.42839">
        <ele>184.639072</ele>
        <time>2026-07-07T07:56:03.000Z</time>
      </trkpt>
      <trkpt lat="48.20165" lon="16.42834">
        <ele>184.654834</ele>
        <time>2026-07-07T07:56:04.000Z</time>
      </trkpt>
      <trkpt lat="48.20161" lon="16.42828">
        <ele>184.671083</ele>
        <time>2026-07-07T07:56:05.000Z</time>
      </trkpt>
      <trkpt lat="48.20157" lon="16.42823">
        <ele>184.687198</ele>
        <time>2026-07-07T07:56:06.000Z</time>
      </trkpt>
      <trkpt lat="48.20153" lon="16.42817">
        <ele>184.703179</ele>
        <time>2026-07-07T07:56:07.000Z</time>
      </trkpt>
      <trkpt lat="48.20149" lon="16.42812">
        <ele>184.719253</ele>
        <time>2026-07-07T07:56:08.000Z</time>
      </trkpt>
      <trkpt lat="48.20145" lon="16.42807">
        <ele>184.731858</ele>
        <time>2026-07-07T07:56:09.000Z</time>
      </trkpt>
      <trkpt lat="48.20141" lon="16.42801">
        <ele>184.739664</ele>
        <time>2026-07-07T07:56:10.000Z</time>
      </trkpt>
      <trkpt lat="48.20137" lon="16.42796">
        <ele>184.74713</ele>
        <time>2026-07-07T07:56:11.000Z</time>
      </trkpt>
      <trkpt lat="48.20133" lon="16.4279">
        <ele>184.754624</ele>
        <time>2026-07-07T07:56:12.000Z</time>
      </trkpt>
      <trkpt lat="48.2013" lon="16.42785">
        <ele>184.762155</ele>
        <time>2026-07-07T07:56:13.000Z</time>
      </trkpt>
      <trkpt lat="48.20126" lon="16.4278">
        <ele>184.769175</ele>
        <time>2026-07-07T07:56:14.000Z</time>
      </trkpt>
      <trkpt lat="48.20123" lon="16.42775">
        <ele>184.775722</ele>
        <time>2026-07-07T07:56:15.000Z</time>
      </trkpt>
      <trkpt lat="48.20119" lon="16.42771">
        <ele>184.782398</ele>
        <time>2026-07-07T07:56:16.000Z</time>
      </trkpt>
      <trkpt lat="48.20115" lon="16.42767">
        <ele>184.78896</ele>
        <time>2026-07-07T07:56:17.000Z</time>
      </trkpt>
      <trkpt lat="48.20111" lon="16.42764">
        <ele>184.795441</ele>
        <time>2026-07-07T07:56:18.000Z</time>
      </trkpt>
      <trkpt lat="48.20107" lon="16.42762">
        <ele>184.802346</ele>
        <time>2026-07-07T07:56:19.000Z</time>
      </trkpt>
      <trkpt lat="48.20102" lon="16.42759">
        <ele>184.809186</ele>
        <time>2026-07-07T07:56:20.000Z</time>
      </trkpt>
      <trkpt lat="48.20098" lon="16.42757">
        <ele>184.816428</ele>
        <time>2026-07-07T07:56:21.000Z</time>
      </trkpt>
      <trkpt lat="48.20093" lon="16.42754">
        <ele>184.823513</ele>
        <time>2026-07-07T07:56:22.000Z</time>
      </trkpt>
      <trkpt lat="48.20089" lon="16.4275">
        <ele>184.830671</ele>
        <time>2026-07-07T07:56:23.000Z</time>
      </trkpt>
      <trkpt lat="48.20085" lon="16.42745">
        <ele>184.838041</ele>
        <time>2026-07-07T07:56:24.000Z</time>
      </trkpt>
      <trkpt lat="48.20082" lon="16.42739">
        <ele>184.844875</ele>
        <time>2026-07-07T07:56:25.000Z</time>
      </trkpt>
      <trkpt lat="48.20078" lon="16.42734">
        <ele>184.852238</ele>
        <time>2026-07-07T07:56:26.000Z</time>
      </trkpt>
      <trkpt lat="48.20075" lon="16.42728">
        <ele>184.860219</ele>
        <time>2026-07-07T07:56:27.000Z</time>
      </trkpt>
      <trkpt lat="48.20071" lon="16.42722">
        <ele>184.867512</ele>
        <time>2026-07-07T07:56:28.000Z</time>
      </trkpt>
      <trkpt lat="48.20067" lon="16.42717">
        <ele>184.875006</ele>
        <time>2026-07-07T07:56:29.000Z</time>
      </trkpt>
      <trkpt lat="48.20064" lon="16.42711">
        <ele>184.882439</ele>
        <time>2026-07-07T07:56:30.000Z</time>
      </trkpt>
      <trkpt lat="48.2006" lon="16.42705">
        <ele>184.890103</ele>
        <time>2026-07-07T07:56:31.000Z</time>
      </trkpt>
      <trkpt lat="48.20056" lon="16.42699">
        <ele>184.897872</ele>
        <time>2026-07-07T07:56:32.000Z</time>
      </trkpt>
      <trkpt lat="48.20053" lon="16.42694">
        <ele>184.904969</ele>
        <time>2026-07-07T07:56:33.000Z</time>
      </trkpt>
      <trkpt lat="48.20049" lon="16.42689">
        <ele>184.912198</ele>
        <time>2026-07-07T07:56:34.000Z</time>
      </trkpt>
      <trkpt lat="48.20046" lon="16.42683">
        <ele>184.919591</ele>
        <time>2026-07-07T07:56:35.000Z</time>
      </trkpt>
      <trkpt lat="48.20042" lon="16.42677">
        <ele>184.927166</ele>
        <time>2026-07-07T07:56:36.000Z</time>
      </trkpt>
      <trkpt lat="48.20039" lon="16.42672">
        <ele>184.934395</ele>
        <time>2026-07-07T07:56:37.000Z</time>
      </trkpt>
      <trkpt lat="48.20035" lon="16.42667">
        <ele>184.94169</ele>
        <time>2026-07-07T07:56:38.000Z</time>
      </trkpt>
      <trkpt lat="48.20031" lon="16.42662">
        <ele>184.94909</ele>
        <time>2026-07-07T07:56:39.000Z</time>
      </trkpt>
      <trkpt lat="48.20027" lon="16.42657">
        <ele>184.956643</ele>
        <time>2026-07-07T07:56:40.000Z</time>
      </trkpt>
      <trkpt lat="48.20023" lon="16.42652">
        <ele>184.963808</ele>
        <time>2026-07-07T07:56:41.000Z</time>
      </trkpt>
      <trkpt lat="48.20019" lon="16.42646">
        <ele>184.971551</ele>
        <time>2026-07-07T07:56:42.000Z</time>
      </trkpt>
      <trkpt lat="48.20015" lon="16.42641">
        <ele>184.979104</ele>
        <time>2026-07-07T07:56:43.000Z</time>
      </trkpt>
      <trkpt lat="48.20012" lon="16.42636">
        <ele>184.986396</ele>
        <time>2026-07-07T07:56:44.000Z</time>
      </trkpt>
      <trkpt lat="48.20008" lon="16.4263">
        <ele>184.981996</ele>
        <time>2026-07-07T07:56:45.000Z</time>
      </trkpt>
      <trkpt lat="48.20004" lon="16.42625">
        <ele>184.975034</ele>
        <time>2026-07-07T07:56:46.000Z</time>
      </trkpt>
      <trkpt lat="48.20001" lon="16.4262">
        <ele>184.968566</ele>
        <time>2026-07-07T07:56:47.000Z</time>
      </trkpt>
      <trkpt lat="48.19997" lon="16.42614">
        <ele>184.961883</ele>
        <time>2026-07-07T07:56:48.000Z</time>
      </trkpt>
      <trkpt lat="48.19994" lon="16.42609">
        <ele>184.956005</ele>
        <time>2026-07-07T07:56:49.000Z</time>
      </trkpt>
      <trkpt lat="48.19991" lon="16.42604">
        <ele>184.950173</ele>
        <time>2026-07-07T07:56:50.000Z</time>
      </trkpt>
      <trkpt lat="48.19988" lon="16.42599">
        <ele>184.944189</ele>
        <time>2026-07-07T07:56:51.000Z</time>
      </trkpt>
      <trkpt lat="48.19985" lon="16.42594">
        <ele>184.938547</ele>
        <time>2026-07-07T07:56:52.000Z</time>
      </trkpt>
      <trkpt lat="48.19982" lon="16.42589">
        <ele>184.932843</ele>
        <time>2026-07-07T07:56:53.000Z</time>
      </trkpt>
      <trkpt lat="48.19979" lon="16.42584">
        <ele>184.926833</ele>
        <time>2026-07-07T07:56:54.000Z</time>
      </trkpt>
      <trkpt lat="48.19976" lon="16.4258">
        <ele>184.921187</ele>
        <time>2026-07-07T07:56:55.000Z</time>
      </trkpt>
      <trkpt lat="48.19973" lon="16.42576">
        <ele>184.916241</ele>
        <time>2026-07-07T07:56:56.000Z</time>
      </trkpt>
      <trkpt lat="48.19971" lon="16.42572">
        <ele>184.91191</ele>
        <time>2026-07-07T07:56:57.000Z</time>
      </trkpt>
      <trkpt lat="48.19969" lon="16.4257">
        <ele>184.908524</ele>
        <time>2026-07-07T07:56:58.000Z</time>
      </trkpt>
      <trkpt lat="48.19966" lon="16.42566">
        <ele>184.904135</ele>
        <time>2026-07-07T07:56:59.000Z</time>
      </trkpt>
      <trkpt lat="48.19964" lon="16.42563">
        <ele>184.899804</ele>
        <time>2026-07-07T07:57:00.000Z</time>
      </trkpt>
      <trkpt lat="48.19961" lon="16.4256">
        <ele>184.894965</ele>
        <time>2026-07-07T07:57:01.000Z</time>
      </trkpt>
      <trkpt lat="48.19958" lon="16.42556">
        <ele>184.889914</ele>
        <time>2026-07-07T07:57:02.000Z</time>
      </trkpt>
      <trkpt lat="48.19955" lon="16.42551">
        <ele>184.883886</ele>
        <time>2026-07-07T07:57:03.000Z</time>
      </trkpt>
      <trkpt lat="48.19951" lon="16.42545">
        <ele>184.877356</ele>
        <time>2026-07-07T07:57:04.000Z</time>
      </trkpt>
      <trkpt lat="48.19948" lon="16.4254">
        <ele>184.870611</ele>
        <time>2026-07-07T07:57:05.000Z</time>
      </trkpt>
      <trkpt lat="48.19944" lon="16.42534">
        <ele>184.863836</ele>
        <time>2026-07-07T07:57:06.000Z</time>
      </trkpt>
      <trkpt lat="48.19941" lon="16.42529">
        <ele>184.857117</ele>
        <time>2026-07-07T07:57:07.000Z</time>
      </trkpt>
      <trkpt lat="48.19937" lon="16.42523">
        <ele>184.850649</ele>
        <time>2026-07-07T07:57:08.000Z</time>
      </trkpt>
      <trkpt lat="48.19933" lon="16.42518">
        <ele>184.84366</ele>
        <time>2026-07-07T07:57:09.000Z</time>
      </trkpt>
      <trkpt lat="48.19929" lon="16.42512">
        <ele>184.836409</ele>
        <time>2026-07-07T07:57:10.000Z</time>
      </trkpt>
      <trkpt lat="48.19925" lon="16.42507">
        <ele>184.829755</ele>
        <time>2026-07-07T07:57:11.000Z</time>
      </trkpt>
      <trkpt lat="48.19921" lon="16.42502">
        <ele>184.822367</ele>
        <time>2026-07-07T07:57:12.000Z</time>
      </trkpt>
      <trkpt lat="48.19917" lon="16.42496">
        <ele>184.815619</ele>
        <time>2026-07-07T07:57:13.000Z</time>
      </trkpt>
      <trkpt lat="48.19913" lon="16.42491">
        <ele>184.808735</ele>
        <time>2026-07-07T07:57:14.000Z</time>
      </trkpt>
      <trkpt lat="48.19909" lon="16.42486">
        <ele>184.801794</ele>
        <time>2026-07-07T07:57:15.000Z</time>
      </trkpt>
      <trkpt lat="48.19906" lon="16.42481">
        <ele>184.795567</ele>
        <time>2026-07-07T07:57:16.000Z</time>
      </trkpt>
      <trkpt lat="48.19901" lon="16.42476">
        <ele>184.788429</ele>
        <time>2026-07-07T07:57:17.000Z</time>
      </trkpt>
      <trkpt lat="48.19897" lon="16.4247">
        <ele>184.781545</ele>
        <time>2026-07-07T07:57:18.000Z</time>
      </trkpt>
      <trkpt lat="48.19894" lon="16.42466">
        <ele>184.775377</ele>
        <time>2026-07-07T07:57:19.000Z</time>
      </trkpt>
      <trkpt lat="48.1989" lon="16.4246">
        <ele>184.768628</ele>
        <time>2026-07-07T07:57:20.000Z</time>
      </trkpt>
      <trkpt lat="48.19886" lon="16.42455">
        <ele>184.761453</ele>
        <time>2026-07-07T07:57:21.000Z</time>
      </trkpt>
      <trkpt lat="48.19882" lon="16.42449">
        <ele>184.754859</ele>
        <time>2026-07-07T07:57:22.000Z</time>
      </trkpt>
      <trkpt lat="48.19879" lon="16.42444">
        <ele>184.77138</ele>
        <time>2026-07-07T07:57:23.000Z</time>
      </trkpt>
      <trkpt lat="48.19875" lon="16.42439">
        <ele>184.793277</ele>
        <time>2026-07-07T07:57:24.000Z</time>
      </trkpt>
      <trkpt lat="48.19871" lon="16.42433">
        <ele>184.815436</ele>
        <time>2026-07-07T07:57:25.000Z</time>
      </trkpt>
      <trkpt lat="48.19867" lon="16.42428">
        <ele>184.838833</ele>
        <time>2026-07-07T07:57:26.000Z</time>
      </trkpt>
      <trkpt lat="48.19863" lon="16.42423">
        <ele>184.859421</ele>
        <time>2026-07-07T07:57:27.000Z</time>
      </trkpt>
      <trkpt lat="48.1986" lon="16.42418">
        <ele>184.878824</ele>
        <time>2026-07-07T07:57:28.000Z</time>
      </trkpt>
      <trkpt lat="48.19856" lon="16.42412">
        <ele>184.900387</ele>
        <time>2026-07-07T07:57:29.000Z</time>
      </trkpt>
      <trkpt lat="48.19853" lon="16.42409">
        <ele>184.916509</ele>
        <time>2026-07-07T07:57:30.000Z</time>
      </trkpt>
      <trkpt lat="48.1985" lon="16.42405">
        <ele>184.932853</ele>
        <time>2026-07-07T07:57:31.000Z</time>
      </trkpt>
      <trkpt lat="48.19847" lon="16.424">
        <ele>184.952736</ele>
        <time>2026-07-07T07:57:32.000Z</time>
      </trkpt>
      <trkpt lat="48.19844" lon="16.42394">
        <ele>184.973856</ele>
        <time>2026-07-07T07:57:33.000Z</time>
      </trkpt>
      <trkpt lat="48.19841" lon="16.4239">
        <ele>184.991885</ele>
        <time>2026-07-07T07:57:34.000Z</time>
      </trkpt>
      <trkpt lat="48.19836" lon="16.42386">
        <ele>185.012416</ele>
        <time>2026-07-07T07:57:35.000Z</time>
      </trkpt>
      <trkpt lat="48.19832" lon="16.42384">
        <ele>185.031277</ele>
        <time>2026-07-07T07:57:36.000Z</time>
      </trkpt>
      <trkpt lat="48.19828" lon="16.42383">
        <ele>185.047468</ele>
        <time>2026-07-07T07:57:37.000Z</time>
      </trkpt>
      <trkpt lat="48.19825" lon="16.42382">
        <ele>185.063087</ele>
        <time>2026-07-07T07:57:38.000Z</time>
      </trkpt>
      <trkpt lat="48.19821" lon="16.42381">
        <ele>185.078154</ele>
        <time>2026-07-07T07:57:39.000Z</time>
      </trkpt>
      <trkpt lat="48.19818" lon="16.42379">
        <ele>185.09289</ele>
        <time>2026-07-07T07:57:40.000Z</time>
      </trkpt>
      <trkpt lat="48.19814" lon="16.42377">
        <ele>185.109035</ele>
        <time>2026-07-07T07:57:41.000Z</time>
      </trkpt>
      <trkpt lat="48.19812" lon="16.42373">
        <ele>185.123807</ele>
        <time>2026-07-07T07:57:42.000Z</time>
      </trkpt>
      <trkpt lat="48.19809" lon="16.4237">
        <ele>185.13875</ele>
        <time>2026-07-07T07:57:43.000Z</time>
      </trkpt>
      <trkpt lat="48.19807" lon="16.42365">
        <ele>185.154438</ele>
        <time>2026-07-07T07:57:44.000Z</time>
      </trkpt>
      <trkpt lat="48.19804" lon="16.42361">
        <ele>185.170916</ele>
        <time>2026-07-07T07:57:45.000Z</time>
      </trkpt>
      <trkpt lat="48.19802" lon="16.42357">
        <ele>185.186761</ele>
        <time>2026-07-07T07:57:46.000Z</time>
      </trkpt>
      <trkpt lat="48.19799" lon="16.42353">
        <ele>185.202987</ele>
        <time>2026-07-07T07:57:47.000Z</time>
      </trkpt>
      <trkpt lat="48.19796" lon="16.42349">
        <ele>185.21931</ele>
        <time>2026-07-07T07:57:48.000Z</time>
      </trkpt>
      <trkpt lat="48.19793" lon="16.42344">
        <ele>185.236943</ele>
        <time>2026-07-07T07:57:49.000Z</time>
      </trkpt>
      <trkpt lat="48.1979" lon="16.4234">
        <ele>185.253667</ele>
        <time>2026-07-07T07:57:50.000Z</time>
      </trkpt>
      <trkpt lat="48.19787" lon="16.42336">
        <ele>185.270511</ele>
        <time>2026-07-07T07:57:51.000Z</time>
      </trkpt>
      <trkpt lat="48.19785" lon="16.42333">
        <ele>185.28617</ele>
        <time>2026-07-07T07:57:52.000Z</time>
      </trkpt>
      <trkpt lat="48.19781" lon="16.42331">
        <ele>185.301888</ele>
        <time>2026-07-07T07:57:53.000Z</time>
      </trkpt>
      <trkpt lat="48.19777" lon="16.42328">
        <ele>185.321176</ele>
        <time>2026-07-07T07:57:54.000Z</time>
      </trkpt>
      <trkpt lat="48.19773" lon="16.42326">
        <ele>185.339838</ele>
        <time>2026-07-07T07:57:55.000Z</time>
      </trkpt>
      <trkpt lat="48.19769" lon="16.42325">
        <ele>185.355616</ele>
        <time>2026-07-07T07:57:56.000Z</time>
      </trkpt>
      <trkpt lat="48.19765" lon="16.42325">
        <ele>185.371586</ele>
        <time>2026-07-07T07:57:57.000Z</time>
      </trkpt>
      <trkpt lat="48.1976" lon="16.42324">
        <ele>185.391508</ele>
        <time>2026-07-07T07:57:58.000Z</time>
      </trkpt>
      <trkpt lat="48.19754" lon="16.4232">
        <ele>185.419606</ele>
        <time>2026-07-07T07:57:59.000Z</time>
      </trkpt>
      <trkpt lat="48.19749" lon="16.42318">
        <ele>185.443807</ele>
        <time>2026-07-07T07:58:00.000Z</time>
      </trkpt>
      <trkpt lat="48.19744" lon="16.42314">
        <ele>185.464247</ele>
        <time>2026-07-07T07:58:01.000Z</time>
      </trkpt>
      <trkpt lat="48.19742" lon="16.4231">
        <ele>185.480093</ele>
        <time>2026-07-07T07:58:02.000Z</time>
      </trkpt>
      <trkpt lat="48.19739" lon="16.42306">
        <ele>185.496937</ele>
        <time>2026-07-07T07:58:03.000Z</time>
      </trkpt>
      <trkpt lat="48.19735" lon="16.42303">
        <ele>185.507832</ele>
        <time>2026-07-07T07:58:04.000Z</time>
      </trkpt>
      <trkpt lat="48.19732" lon="16.42298">
        <ele>185.50617</ele>
        <time>2026-07-07T07:58:05.000Z</time>
      </trkpt>
      <trkpt lat="48.19729" lon="16.42293">
        <ele>185.504475</ele>
        <time>2026-07-07T07:58:06.000Z</time>
      </trkpt>
      <trkpt lat="48.19725" lon="16.42288">
        <ele>185.502556</ele>
        <time>2026-07-07T07:58:07.000Z</time>
      </trkpt>
      <trkpt lat="48.19722" lon="16.42284">
        <ele>185.500731</ele>
        <time>2026-07-07T07:58:08.000Z</time>
      </trkpt>
      <trkpt lat="48.19718" lon="16.42279">
        <ele>185.498934</ele>
        <time>2026-07-07T07:58:09.000Z</time>
      </trkpt>
      <trkpt lat="48.19714" lon="16.42275">
        <ele>185.497063</ele>
        <time>2026-07-07T07:58:10.000Z</time>
      </trkpt>
      <trkpt lat="48.1971" lon="16.4227">
        <ele>185.495047</ele>
        <time>2026-07-07T07:58:11.000Z</time>
      </trkpt>
      <trkpt lat="48.19707" lon="16.42264">
        <ele>185.493116</ele>
        <time>2026-07-07T07:58:12.000Z</time>
      </trkpt>
      <trkpt lat="48.19703" lon="16.42259">
        <ele>185.491231</ele>
        <time>2026-07-07T07:58:13.000Z</time>
      </trkpt>
      <trkpt lat="48.197" lon="16.42255">
        <ele>185.489358</ele>
        <time>2026-07-07T07:58:14.000Z</time>
      </trkpt>
      <trkpt lat="48.19696" lon="16.4225">
        <ele>185.487582</ele>
        <time>2026-07-07T07:58:15.000Z</time>
      </trkpt>
      <trkpt lat="48.19693" lon="16.42245">
        <ele>185.485868</ele>
        <time>2026-07-07T07:58:16.000Z</time>
      </trkpt>
      <trkpt lat="48.1969" lon="16.4224">
        <ele>185.484029</ele>
        <time>2026-07-07T07:58:17.000Z</time>
      </trkpt>
      <trkpt lat="48.19687" lon="16.42235">
        <ele>185.482288</ele>
        <time>2026-07-07T07:58:18.000Z</time>
      </trkpt>
      <trkpt lat="48.19684" lon="16.4223">
        <ele>185.480517</ele>
        <time>2026-07-07T07:58:19.000Z</time>
      </trkpt>
      <trkpt lat="48.1968" lon="16.42225">
        <ele>185.478596</ele>
        <time>2026-07-07T07:58:20.000Z</time>
      </trkpt>
      <trkpt lat="48.19677" lon="16.4222">
        <ele>185.476802</ele>
        <time>2026-07-07T07:58:21.000Z</time>
      </trkpt>
      <trkpt lat="48.19673" lon="16.42215">
        <ele>185.474878</ele>
        <time>2026-07-07T07:58:22.000Z</time>
      </trkpt>
      <trkpt lat="48.1967" lon="16.4221">
        <ele>185.472956</ele>
        <time>2026-07-07T07:58:23.000Z</time>
      </trkpt>
      <trkpt lat="48.19666" lon="16.42205">
        <ele>185.470977</ele>
        <time>2026-07-07T07:58:24.000Z</time>
      </trkpt>
      <trkpt lat="48.19662" lon="16.422">
        <ele>185.469018</ele>
        <time>2026-07-07T07:58:25.000Z</time>
      </trkpt>
      <trkpt lat="48.19658" lon="16.42195">
        <ele>185.467086</ele>
        <time>2026-07-07T07:58:26.000Z</time>
      </trkpt>
      <trkpt lat="48.19654" lon="16.4219">
        <ele>185.465101</ele>
        <time>2026-07-07T07:58:27.000Z</time>
      </trkpt>
      <trkpt lat="48.1965" lon="16.42185">
        <ele>185.463168</ele>
        <time>2026-07-07T07:58:28.000Z</time>
      </trkpt>
      <trkpt lat="48.19647" lon="16.42179">
        <ele>185.46111</ele>
        <time>2026-07-07T07:58:29.000Z</time>
      </trkpt>
      <trkpt lat="48.19643" lon="16.42174">
        <ele>185.459203</ele>
        <time>2026-07-07T07:58:30.000Z</time>
      </trkpt>
      <trkpt lat="48.1964" lon="16.4217">
        <ele>185.457624</ele>
        <time>2026-07-07T07:58:31.000Z</time>
      </trkpt>
      <trkpt lat="48.19637" lon="16.42167">
        <ele>185.456078</ele>
        <time>2026-07-07T07:58:32.000Z</time>
      </trkpt>
      <trkpt lat="48.19634" lon="16.42163">
        <ele>185.454493</ele>
        <time>2026-07-07T07:58:33.000Z</time>
      </trkpt>
      <trkpt lat="48.19631" lon="16.4216">
        <ele>185.453141</ele>
        <time>2026-07-07T07:58:34.000Z</time>
      </trkpt>
      <trkpt lat="48.19628" lon="16.42159">
        <ele>185.452008</ele>
        <time>2026-07-07T07:58:35.000Z</time>
      </trkpt>
      <trkpt lat="48.19626" lon="16.42158">
        <ele>185.451134</ele>
        <time>2026-07-07T07:58:36.000Z</time>
      </trkpt>
      <trkpt lat="48.19624" lon="16.42158">
        <ele>185.450552</ele>
        <time>2026-07-07T07:58:38.000Z</time>
      </trkpt>
      <trkpt lat="48.19624" lon="16.42159">
        <ele>185.450233</ele>
        <time>2026-07-07T07:58:39.000Z</time>
      </trkpt>
      <trkpt lat="48.19625" lon="16.42159">
        <ele>185.449745</ele>
        <time>2026-07-07T07:58:40.000Z</time>
      </trkpt>
      <trkpt lat="48.19627" lon="16.42159">
        <ele>185.449049</ele>
        <time>2026-07-07T07:58:41.000Z</time>
      </trkpt>
      <trkpt lat="48.19629" lon="16.42158">
        <ele>185.448226</ele>
        <time>2026-07-07T07:58:42.000Z</time>
      </trkpt>
      <trkpt lat="48.19631" lon="16.42156">
        <ele>185.447359</ele>
        <time>2026-07-07T07:58:43.000Z</time>
      </trkpt>
      <trkpt lat="48.19632" lon="16.42153">
        <ele>185.446458</ele>
        <time>2026-07-07T07:58:44.000Z</time>
      </trkpt>
      <trkpt lat="48.19633" lon="16.42151">
        <ele>185.445716</ele>
        <time>2026-07-07T07:58:45.000Z</time>
      </trkpt>
      <trkpt lat="48.19634" lon="16.4215">
        <ele>185.445241</ele>
        <time>2026-07-07T07:58:46.000Z</time>
      </trkpt>
      <trkpt lat="48.19635" lon="16.42148">
        <ele>185.444746</ele>
        <time>2026-07-07T07:58:47.000Z</time>
      </trkpt>
      <trkpt lat="48.19636" lon="16.42147">
        <ele>185.444181</ele>
        <time>2026-07-07T07:58:48.000Z</time>
      </trkpt>
      <trkpt lat="48.19637" lon="16.42145">
        <ele>185.443666</ele>
        <time>2026-07-07T07:58:49.000Z</time>
      </trkpt>
      <trkpt lat="48.19637" lon="16.42144">
        <ele>185.443172</ele>
        <time>2026-07-07T07:58:50.000Z</time>
      </trkpt>
      <trkpt lat="48.19639" lon="16.42143">
        <ele>185.44269</ele>
        <time>2026-07-07T07:58:51.000Z</time>
      </trkpt>
      <trkpt lat="48.1964" lon="16.42143">
        <ele>185.442296</ele>
        <time>2026-07-07T07:58:52.000Z</time>
      </trkpt>
      <trkpt lat="48.19641" lon="16.42142">
        <ele>185.44164</ele>
        <time>2026-07-07T07:58:53.000Z</time>
      </trkpt>
      <trkpt lat="48.19643" lon="16.4214">
        <ele>185.440983</ele>
        <time>2026-07-07T07:58:54.000Z</time>
      </trkpt>
      <trkpt lat="48.19645" lon="16.42138">
        <ele>185.439819</ele>
        <time>2026-07-07T07:58:55.000Z</time>
      </trkpt>
      <trkpt lat="48.19648" lon="16.42133">
        <ele>185.432793</ele>
        <time>2026-07-07T07:58:56.000Z</time>
      </trkpt>
      <trkpt lat="48.19653" lon="16.42121">
        <ele>185.407917</ele>
        <time>2026-07-07T07:58:57.000Z</time>
      </trkpt>
      <trkpt lat="48.19654" lon="16.42112">
        <ele>185.392527</ele>
        <time>2026-07-07T07:58:58.000Z</time>
      </trkpt>
      <trkpt lat="48.19656" lon="16.42106">
        <ele>185.381168</ele>
        <time>2026-07-07T07:58:59.000Z</time>
      </trkpt>
      <trkpt lat="48.19658" lon="16.421">
        <ele>185.369061</ele>
        <time>2026-07-07T07:59:00.000Z</time>
      </trkpt>
      <trkpt lat="48.1966" lon="16.42094">
        <ele>185.356795</ele>
        <time>2026-07-07T07:59:01.000Z</time>
      </trkpt>
      <trkpt lat="48.19662" lon="16.42087">
        <ele>185.344685</ele>
        <time>2026-07-07T07:59:02.000Z</time>
      </trkpt>
      <trkpt lat="48.19664" lon="16.42081">
        <ele>185.332494</ele>
        <time>2026-07-07T07:59:03.000Z</time>
      </trkpt>
      <trkpt lat="48.19666" lon="16.42074">
        <ele>185.319</ele>
        <time>2026-07-07T07:59:04.000Z</time>
      </trkpt>
      <trkpt lat="48.19668" lon="16.42068">
        <ele>185.305631</ele>
        <time>2026-07-07T07:59:05.000Z</time>
      </trkpt>
      <trkpt lat="48.19671" lon="16.42061">
        <ele>185.292894</ele>
        <time>2026-07-07T07:59:06.000Z</time>
      </trkpt>
      <trkpt lat="48.19674" lon="16.42055">
        <ele>185.279584</ele>
        <time>2026-07-07T07:59:07.000Z</time>
      </trkpt>
      <trkpt lat="48.19676" lon="16.42048">
        <ele>185.265684</ele>
        <time>2026-07-07T07:59:08.000Z</time>
      </trkpt>
      <trkpt lat="48.19679" lon="16.42042">
        <ele>185.252221</ele>
        <time>2026-07-07T07:59:09.000Z</time>
      </trkpt>
      <trkpt lat="48.19682" lon="16.42036">
        <ele>185.239389</ele>
        <time>2026-07-07T07:59:10.000Z</time>
      </trkpt>
      <trkpt lat="48.19686" lon="16.42031">
        <ele>185.227021</ele>
        <time>2026-07-07T07:59:11.000Z</time>
      </trkpt>
      <trkpt lat="48.19689" lon="16.42027">
        <ele>185.21446</ele>
        <time>2026-07-07T07:59:12.000Z</time>
      </trkpt>
      <trkpt lat="48.19693" lon="16.42023">
        <ele>185.202542</ele>
        <time>2026-07-07T07:59:13.000Z</time>
      </trkpt>
      <trkpt lat="48.19697" lon="16.42019">
        <ele>185.189882</ele>
        <time>2026-07-07T07:59:14.000Z</time>
      </trkpt>
      <trkpt lat="48.19701" lon="16.42014">
        <ele>185.17733</ele>
        <time>2026-07-07T07:59:15.000Z</time>
      </trkpt>
      <trkpt lat="48.19704" lon="16.4201">
        <ele>185.16488</ele>
        <time>2026-07-07T07:59:16.000Z</time>
      </trkpt>
      <trkpt lat="48.19707" lon="16.42005">
        <ele>185.153505</ele>
        <time>2026-07-07T07:59:17.000Z</time>
      </trkpt>
      <trkpt lat="48.1971" lon="16.42001">
        <ele>185.142318</ele>
        <time>2026-07-07T07:59:18.000Z</time>
      </trkpt>
      <trkpt lat="48.19713" lon="16.41997">
        <ele>185.132555</ele>
        <time>2026-07-07T07:59:19.000Z</time>
      </trkpt>
      <trkpt lat="48.19716" lon="16.41993">
        <ele>185.122657</ele>
        <time>2026-07-07T07:59:20.000Z</time>
      </trkpt>
      <trkpt lat="48.19718" lon="16.41988">
        <ele>185.112015</ele>
        <time>2026-07-07T07:59:21.000Z</time>
      </trkpt>
      <trkpt lat="48.19721" lon="16.41984">
        <ele>185.100449</ele>
        <time>2026-07-07T07:59:22.000Z</time>
      </trkpt>
      <trkpt lat="48.19725" lon="16.41978">
        <ele>185.087701</ele>
        <time>2026-07-07T07:59:23.000Z</time>
      </trkpt>
      <trkpt lat="48.19728" lon="16.41973">
        <ele>185.074335</ele>
        <time>2026-07-07T07:59:24.000Z</time>
      </trkpt>
      <trkpt lat="48.19732" lon="16.41968">
        <ele>185.060196</ele>
        <time>2026-07-07T07:59:25.000Z</time>
      </trkpt>
      <trkpt lat="48.19736" lon="16.41963">
        <ele>185.046263</ele>
        <time>2026-07-07T07:59:26.000Z</time>
      </trkpt>
      <trkpt lat="48.19741" lon="16.41958">
        <ele>185.031707</ele>
        <time>2026-07-07T07:59:27.000Z</time>
      </trkpt>
      <trkpt lat="48.19745" lon="16.41953">
        <ele>185.01775</ele>
        <time>2026-07-07T07:59:28.000Z</time>
      </trkpt>
      <trkpt lat="48.19749" lon="16.41948">
        <ele>185.003817</ele>
        <time>2026-07-07T07:59:29.000Z</time>
      </trkpt>
      <trkpt lat="48.19753" lon="16.41942">
        <ele>184.989046</ele>
        <time>2026-07-07T07:59:30.000Z</time>
      </trkpt>
      <trkpt lat="48.19758" lon="16.41938">
        <ele>184.974913</ele>
        <time>2026-07-07T07:59:31.000Z</time>
      </trkpt>
      <trkpt lat="48.19762" lon="16.41933">
        <ele>184.96568</ele>
        <time>2026-07-07T07:59:32.000Z</time>
      </trkpt>
      <trkpt lat="48.19766" lon="16.41928">
        <ele>184.969137</ele>
        <time>2026-07-07T07:59:33.000Z</time>
      </trkpt>
      <trkpt lat="48.1977" lon="16.41923">
        <ele>184.972464</ele>
        <time>2026-07-07T07:59:34.000Z</time>
      </trkpt>
      <trkpt lat="48.19774" lon="16.41918">
        <ele>184.975947</ele>
        <time>2026-07-07T07:59:35.000Z</time>
      </trkpt>
      <trkpt lat="48.19779" lon="16.41913">
        <ele>184.979458</ele>
        <time>2026-07-07T07:59:36.000Z</time>
      </trkpt>
      <trkpt lat="48.19783" lon="16.41908">
        <ele>184.983047</ele>
        <time>2026-07-07T07:59:37.000Z</time>
      </trkpt>
      <trkpt lat="48.19787" lon="16.41903">
        <ele>184.986767</ele>
        <time>2026-07-07T07:59:38.000Z</time>
      </trkpt>
      <trkpt lat="48.19792" lon="16.41898">
        <ele>184.990433</ele>
        <time>2026-07-07T07:59:39.000Z</time>
      </trkpt>
      <trkpt lat="48.19796" lon="16.41893">
        <ele>184.99397</ele>
        <time>2026-07-07T07:59:40.000Z</time>
      </trkpt>
      <trkpt lat="48.19801" lon="16.41889">
        <ele>184.997479</ele>
        <time>2026-07-07T07:59:41.000Z</time>
      </trkpt>
      <trkpt lat="48.19805" lon="16.41884">
        <ele>185.000989</ele>
        <time>2026-07-07T07:59:42.000Z</time>
      </trkpt>
      <trkpt lat="48.19809" lon="16.41879">
        <ele>185.004476</ele>
        <time>2026-07-07T07:59:43.000Z</time>
      </trkpt>
      <trkpt lat="48.19814" lon="16.41875">
        <ele>185.007993</ele>
        <time>2026-07-07T07:59:44.000Z</time>
      </trkpt>
      <trkpt lat="48.19818" lon="16.41871">
        <ele>185.011377</ele>
        <time>2026-07-07T07:59:45.000Z</time>
      </trkpt>
      <trkpt lat="48.19822" lon="16.41866">
        <ele>185.01476</ele>
        <time>2026-07-07T07:59:46.000Z</time>
      </trkpt>
      <trkpt lat="48.19827" lon="16.41862">
        <ele>185.018223</ele>
        <time>2026-07-07T07:59:47.000Z</time>
      </trkpt>
      <trkpt lat="48.19831" lon="16.41857">
        <ele>185.021656</ele>
        <time>2026-07-07T07:59:48.000Z</time>
      </trkpt>
      <trkpt lat="48.19835" lon="16.41852">
        <ele>185.025167</ele>
        <time>2026-07-07T07:59:49.000Z</time>
      </trkpt>
      <trkpt lat="48.19839" lon="16.41847">
        <ele>185.028654</ele>
        <time>2026-07-07T07:59:50.000Z</time>
      </trkpt>
      <trkpt lat="48.19842" lon="16.41841">
        <ele>185.032117</ele>
        <time>2026-07-07T07:59:51.000Z</time>
      </trkpt>
      <trkpt lat="48.19846" lon="16.41834">
        <ele>185.035715</ele>
        <time>2026-07-07T07:59:52.000Z</time>
      </trkpt>
      <trkpt lat="48.19848" lon="16.41827">
        <ele>185.039282</ele>
        <time>2026-07-07T07:59:53.000Z</time>
      </trkpt>
      <trkpt lat="48.19851" lon="16.41819">
        <ele>185.042903</ele>
        <time>2026-07-07T07:59:54.000Z</time>
      </trkpt>
      <trkpt lat="48.19854" lon="16.41812">
        <ele>185.046535</ele>
        <time>2026-07-07T07:59:55.000Z</time>
      </trkpt>
      <trkpt lat="48.19857" lon="16.41806">
        <ele>185.050024</ele>
        <time>2026-07-07T07:59:56.000Z</time>
      </trkpt>
      <trkpt lat="48.19859" lon="16.41799">
        <ele>185.053554</ele>
        <time>2026-07-07T07:59:57.000Z</time>
      </trkpt>
      <trkpt lat="48.19862" lon="16.41792">
        <ele>185.056975</ele>
        <time>2026-07-07T07:59:58.000Z</time>
      </trkpt>
      <trkpt lat="48.19864" lon="16.41785">
        <ele>185.060403</ele>
        <time>2026-07-07T07:59:59.000Z</time>
      </trkpt>
      <trkpt lat="48.19867" lon="16.41778">
        <ele>185.063926</ele>
        <time>2026-07-07T08:00:00.000Z</time>
      </trkpt>
      <trkpt lat="48.1987" lon="16.41771">
        <ele>185.06731</ele>
        <time>2026-07-07T08:00:01.000Z</time>
      </trkpt>
      <trkpt lat="48.19873" lon="16.41765">
        <ele>185.070764</ele>
        <time>2026-07-07T08:00:02.000Z</time>
      </trkpt>
      <trkpt lat="48.19875" lon="16.41758">
        <ele>185.074054</ele>
        <time>2026-07-07T08:00:03.000Z</time>
      </trkpt>
      <trkpt lat="48.19877" lon="16.41751">
        <ele>185.077329</ele>
        <time>2026-07-07T08:00:04.000Z</time>
      </trkpt>
      <trkpt lat="48.1988" lon="16.41745">
        <ele>185.080529</ele>
        <time>2026-07-07T08:00:05.000Z</time>
      </trkpt>
      <trkpt lat="48.19883" lon="16.41739">
        <ele>185.073002</ele>
        <time>2026-07-07T08:00:06.000Z</time>
      </trkpt>
      <trkpt lat="48.19885" lon="16.41733">
        <ele>185.052571</ele>
        <time>2026-07-07T08:00:07.000Z</time>
      </trkpt>
      <trkpt lat="48.19887" lon="16.41727">
        <ele>185.031573</ele>
        <time>2026-07-07T08:00:08.000Z</time>
      </trkpt>
      <trkpt lat="48.19889" lon="16.41721">
        <ele>185.010459</ele>
        <time>2026-07-07T08:00:09.000Z</time>
      </trkpt>
      <trkpt lat="48.19891" lon="16.41715">
        <ele>184.987601</ele>
        <time>2026-07-07T08:00:10.000Z</time>
      </trkpt>
      <trkpt lat="48.19894" lon="16.41708">
        <ele>184.964522</ele>
        <time>2026-07-07T08:00:11.000Z</time>
      </trkpt>
      <trkpt lat="48.19896" lon="16.41702">
        <ele>184.941213</ele>
        <time>2026-07-07T08:00:12.000Z</time>
      </trkpt>
      <trkpt lat="48.19899" lon="16.41695">
        <ele>184.918355</ele>
        <time>2026-07-07T08:00:13.000Z</time>
      </trkpt>
      <trkpt lat="48.19901" lon="16.41689">
        <ele>184.895315</ele>
        <time>2026-07-07T08:00:14.000Z</time>
      </trkpt>
      <trkpt lat="48.19903" lon="16.41682">
        <ele>184.872457</ele>
        <time>2026-07-07T08:00:15.000Z</time>
      </trkpt>
      <trkpt lat="48.19906" lon="16.41676">
        <ele>184.850367</ele>
        <time>2026-07-07T08:00:16.000Z</time>
      </trkpt>
      <trkpt lat="48.19908" lon="16.4167">
        <ele>184.829097</ele>
        <time>2026-07-07T08:00:17.000Z</time>
      </trkpt>
      <trkpt lat="48.1991" lon="16.41664">
        <ele>184.807058</ele>
        <time>2026-07-07T08:00:18.000Z</time>
      </trkpt>
      <trkpt lat="48.19912" lon="16.41658">
        <ele>184.785516</ele>
        <time>2026-07-07T08:00:19.000Z</time>
      </trkpt>
      <trkpt lat="48.19915" lon="16.41652">
        <ele>184.763009</ele>
        <time>2026-07-07T08:00:20.000Z</time>
      </trkpt>
      <trkpt lat="48.19917" lon="16.41646">
        <ele>184.741032</ele>
        <time>2026-07-07T08:00:21.000Z</time>
      </trkpt>
      <trkpt lat="48.1992" lon="16.4164">
        <ele>184.718804</ele>
        <time>2026-07-07T08:00:22.000Z</time>
      </trkpt>
      <trkpt lat="48.19923" lon="16.41634">
        <ele>184.69673</ele>
        <time>2026-07-07T08:00:23.000Z</time>
      </trkpt>
      <trkpt lat="48.19926" lon="16.41629">
        <ele>184.674544</ele>
        <time>2026-07-07T08:00:24.000Z</time>
      </trkpt>
      <trkpt lat="48.1993" lon="16.41624">
        <ele>184.652656</ele>
        <time>2026-07-07T08:00:25.000Z</time>
      </trkpt>
      <trkpt lat="48.19934" lon="16.4162">
        <ele>184.630097</ele>
        <time>2026-07-07T08:00:26.000Z</time>
      </trkpt>
      <trkpt lat="48.19938" lon="16.41616">
        <ele>184.607167</ele>
        <time>2026-07-07T08:00:27.000Z</time>
      </trkpt>
      <trkpt lat="48.19942" lon="16.41612">
        <ele>184.585589</ele>
        <time>2026-07-07T08:00:28.000Z</time>
      </trkpt>
      <trkpt lat="48.19946" lon="16.41609">
        <ele>184.563746</ele>
        <time>2026-07-07T08:00:29.000Z</time>
      </trkpt>
      <trkpt lat="48.1995" lon="16.41607">
        <ele>184.541594</ele>
        <time>2026-07-07T08:00:30.000Z</time>
      </trkpt>
      <trkpt lat="48.19955" lon="16.41604">
        <ele>184.520321</ele>
        <time>2026-07-07T08:00:31.000Z</time>
      </trkpt>
      <trkpt lat="48.19959" lon="16.41602">
        <ele>184.498066</ele>
        <time>2026-07-07T08:00:32.000Z</time>
      </trkpt>
      <trkpt lat="48.19963" lon="16.41599">
        <ele>184.476577</ele>
        <time>2026-07-07T08:00:33.000Z</time>
      </trkpt>
      <trkpt lat="48.19968" lon="16.41597">
        <ele>184.454305</ele>
        <time>2026-07-07T08:00:34.000Z</time>
      </trkpt>
      <trkpt lat="48.19972" lon="16.41593">
        <ele>184.433034</ele>
        <time>2026-07-07T08:00:35.000Z</time>
      </trkpt>
      <trkpt lat="48.19976" lon="16.41589">
        <ele>184.41158</ele>
        <time>2026-07-07T08:00:36.000Z</time>
      </trkpt>
      <trkpt lat="48.19979" lon="16.41585">
        <ele>184.390499</ele>
        <time>2026-07-07T08:00:37.000Z</time>
      </trkpt>
      <trkpt lat="48.19982" lon="16.4158">
        <ele>184.369139</ele>
        <time>2026-07-07T08:00:38.000Z</time>
      </trkpt>
      <trkpt lat="48.19985" lon="16.41574">
        <ele>184.347923</ele>
        <time>2026-07-07T08:00:39.000Z</time>
      </trkpt>
      <trkpt lat="48.19987" lon="16.41569">
        <ele>184.327756</ele>
        <time>2026-07-07T08:00:40.000Z</time>
      </trkpt>
      <trkpt lat="48.19989" lon="16.41563">
        <ele>184.307567</ele>
        <time>2026-07-07T08:00:41.000Z</time>
      </trkpt>
      <trkpt lat="48.19991" lon="16.41557">
        <ele>184.287008</ele>
        <time>2026-07-07T08:00:42.000Z</time>
      </trkpt>
      <trkpt lat="48.19993" lon="16.41551">
        <ele>184.265893</ele>
        <time>2026-07-07T08:00:43.000Z</time>
      </trkpt>
      <trkpt lat="48.19995" lon="16.41545">
        <ele>184.245057</ele>
        <time>2026-07-07T08:00:44.000Z</time>
      </trkpt>
      <trkpt lat="48.19997" lon="16.4154">
        <ele>184.266405</ele>
        <time>2026-07-07T08:00:45.000Z</time>
      </trkpt>
      <trkpt lat="48.19999" lon="16.41534">
        <ele>184.289255</ele>
        <time>2026-07-07T08:00:46.000Z</time>
      </trkpt>
      <trkpt lat="48.20001" lon="16.41529">
        <ele>184.3105</ele>
        <time>2026-07-07T08:00:47.000Z</time>
      </trkpt>
      <trkpt lat="48.20004" lon="16.41525">
        <ele>184.329767</ele>
        <time>2026-07-07T08:00:48.000Z</time>
      </trkpt>
      <trkpt lat="48.20006" lon="16.41522">
        <ele>184.348476</ele>
        <time>2026-07-07T08:00:49.000Z</time>
      </trkpt>
      <trkpt lat="48.20008" lon="16.41519">
        <ele>184.365152</ele>
        <time>2026-07-07T08:00:50.000Z</time>
      </trkpt>
      <trkpt lat="48.2001" lon="16.41517">
        <ele>184.377436</ele>
        <time>2026-07-07T08:00:51.000Z</time>
      </trkpt>
      <trkpt lat="48.20011" lon="16.41515">
        <ele>184.387625</ele>
        <time>2026-07-07T08:00:52.000Z</time>
      </trkpt>
      <trkpt lat="48.20012" lon="16.41512">
        <ele>184.395723</ele>
        <time>2026-07-07T08:00:53.000Z</time>
      </trkpt>
      <trkpt lat="48.20011" lon="16.4151">
        <ele>184.403513</ele>
        <time>2026-07-07T08:00:54.000Z</time>
      </trkpt>
      <trkpt lat="48.20009" lon="16.41509">
        <ele>184.413643</ele>
        <time>2026-07-07T08:00:55.000Z</time>
      </trkpt>
      <trkpt lat="48.20007" lon="16.41508">
        <ele>184.426967</ele>
        <time>2026-07-07T08:00:56.000Z</time>
      </trkpt>
      <trkpt lat="48.20005" lon="16.41507">
        <ele>184.441444</ele>
        <time>2026-07-07T08:00:57.000Z</time>
      </trkpt>
      <trkpt lat="48.20002" lon="16.41505">
        <ele>184.457594</ele>
        <time>2026-07-07T08:00:58.000Z</time>
      </trkpt>
      <trkpt lat="48.19999" lon="16.41504">
        <ele>184.476293</ele>
        <time>2026-07-07T08:00:59.000Z</time>
      </trkpt>
      <trkpt lat="48.19995" lon="16.41502">
        <ele>184.494993</ele>
        <time>2026-07-07T08:01:00.000Z</time>
      </trkpt>
      <trkpt lat="48.19992" lon="16.415">
        <ele>184.515359</ele>
        <time>2026-07-07T08:01:01.000Z</time>
      </trkpt>
      <trkpt lat="48.19988" lon="16.41498">
        <ele>184.535379</ele>
        <time>2026-07-07T08:01:02.000Z</time>
      </trkpt>
      <trkpt lat="48.19985" lon="16.41496">
        <ele>184.555607</ele>
        <time>2026-07-07T08:01:03.000Z</time>
      </trkpt>
      <trkpt lat="48.19982" lon="16.41493">
        <ele>184.575673</ele>
        <time>2026-07-07T08:01:04.000Z</time>
      </trkpt>
      <trkpt lat="48.19978" lon="16.41491">
        <ele>184.596391</ele>
        <time>2026-07-07T08:01:05.000Z</time>
      </trkpt>
      <trkpt lat="48.19975" lon="16.41488">
        <ele>184.615823</ele>
        <time>2026-07-07T08:01:06.000Z</time>
      </trkpt>
      <trkpt lat="48.19969" lon="16.41483">
        <ele>184.656768</ele>
        <time>2026-07-07T08:01:08.000Z</time>
      </trkpt>
      <trkpt lat="48.19965" lon="16.4148">
        <ele>184.678646</ele>
        <time>2026-07-07T08:01:09.000Z</time>
      </trkpt>
      <trkpt lat="48.19961" lon="16.41478">
        <ele>184.70132</ele>
        <time>2026-07-07T08:01:10.000Z</time>
      </trkpt>
      <trkpt lat="48.19958" lon="16.41475">
        <ele>184.724485</ele>
        <time>2026-07-07T08:01:11.000Z</time>
      </trkpt>
      <trkpt lat="48.19954" lon="16.41471">
        <ele>184.748883</ele>
        <time>2026-07-07T08:01:12.000Z</time>
      </trkpt>
      <trkpt lat="48.1995" lon="16.41468">
        <ele>184.773749</ele>
        <time>2026-07-07T08:01:13.000Z</time>
      </trkpt>
      <trkpt lat="48.19946" lon="16.41464">
        <ele>184.797958</ele>
        <time>2026-07-07T08:01:14.000Z</time>
      </trkpt>
      <trkpt lat="48.19938" lon="16.41457">
        <ele>184.847221</ele>
        <time>2026-07-07T08:01:15.000Z</time>
      </trkpt>
      <trkpt lat="48.19934" lon="16.41454">
        <ele>184.872558</ele>
        <time>2026-07-07T08:01:17.000Z</time>
      </trkpt>
      <trkpt lat="48.1993" lon="16.41451">
        <ele>184.897536</ele>
        <time>2026-07-07T08:01:18.000Z</time>
      </trkpt>
      <trkpt lat="48.19922" lon="16.41444">
        <ele>184.950244</ele>
        <time>2026-07-07T08:01:19.000Z</time>
      </trkpt>
      <trkpt lat="48.19918" lon="16.4144">
        <ele>184.977367</ele>
        <time>2026-07-07T08:01:20.000Z</time>
      </trkpt>
      <trkpt lat="48.19913" lon="16.41437">
        <ele>185.004135</ele>
        <time>2026-07-07T08:01:21.000Z</time>
      </trkpt>
      <trkpt lat="48.19909" lon="16.41433">
        <ele>185.031051</ele>
        <time>2026-07-07T08:01:22.000Z</time>
      </trkpt>
      <trkpt lat="48.19905" lon="16.4143">
        <ele>185.056684</ele>
        <time>2026-07-07T08:01:23.000Z</time>
      </trkpt>
      <trkpt lat="48.19901" lon="16.41426">
        <ele>185.083151</ele>
        <time>2026-07-07T08:01:24.000Z</time>
      </trkpt>
      <trkpt lat="48.19896" lon="16.41422">
        <ele>185.110645</ele>
        <time>2026-07-07T08:01:25.000Z</time>
      </trkpt>
      <trkpt lat="48.19892" lon="16.41418">
        <ele>185.137152</ele>
        <time>2026-07-07T08:01:26.000Z</time>
      </trkpt>
      <trkpt lat="48.19888" lon="16.41414">
        <ele>185.164291</ele>
        <time>2026-07-07T08:01:27.000Z</time>
      </trkpt>
      <trkpt lat="48.19884" lon="16.41409">
        <ele>185.191212</ele>
        <time>2026-07-07T08:01:28.000Z</time>
      </trkpt>
      <trkpt lat="48.19881" lon="16.41405">
        <ele>185.217701</ele>
        <time>2026-07-07T08:01:29.000Z</time>
      </trkpt>
      <trkpt lat="48.19877" lon="16.414">
        <ele>185.249513</ele>
        <time>2026-07-07T08:01:30.000Z</time>
      </trkpt>
      <trkpt lat="48.19873" lon="16.41396">
        <ele>185.281996</ele>
        <time>2026-07-07T08:01:31.000Z</time>
      </trkpt>
      <trkpt lat="48.19869" lon="16.41392">
        <ele>185.315879</ele>
        <time>2026-07-07T08:01:32.000Z</time>
      </trkpt>
      <trkpt lat="48.19865" lon="16.41388">
        <ele>185.349761</ele>
        <time>2026-07-07T08:01:33.000Z</time>
      </trkpt>
      <trkpt lat="48.19861" lon="16.41384">
        <ele>185.384536</ele>
        <time>2026-07-07T08:01:34.000Z</time>
      </trkpt>
      <trkpt lat="48.19856" lon="16.4138">
        <ele>185.419564</ele>
        <time>2026-07-07T08:01:35.000Z</time>
      </trkpt>
      <trkpt lat="48.19852" lon="16.41375">
        <ele>185.453447</ele>
        <time>2026-07-07T08:01:36.000Z</time>
      </trkpt>
      <trkpt lat="48.19849" lon="16.41371">
        <ele>185.486479</ele>
        <time>2026-07-07T08:01:37.000Z</time>
      </trkpt>
      <trkpt lat="48.19845" lon="16.41367">
        <ele>185.520076</ele>
        <time>2026-07-07T08:01:38.000Z</time>
      </trkpt>
      <trkpt lat="48.19841" lon="16.41362">
        <ele>185.552275</ele>
        <time>2026-07-07T08:01:39.000Z</time>
      </trkpt>
      <trkpt lat="48.19837" lon="16.41358">
        <ele>185.585636</ele>
        <time>2026-07-07T08:01:40.000Z</time>
      </trkpt>
      <trkpt lat="48.19833" lon="16.41355">
        <ele>185.616753</ele>
        <time>2026-07-07T08:01:41.000Z</time>
      </trkpt>
      <trkpt lat="48.1983" lon="16.4135">
        <ele>185.648402</ele>
        <time>2026-07-07T08:01:42.000Z</time>
      </trkpt>
      <trkpt lat="48.19826" lon="16.41346">
        <ele>185.680882</ele>
        <time>2026-07-07T08:01:43.000Z</time>
      </trkpt>
      <trkpt lat="48.19822" lon="16.41342">
        <ele>185.713937</ele>
        <time>2026-07-07T08:01:44.000Z</time>
      </trkpt>
      <trkpt lat="48.19819" lon="16.41337">
        <ele>185.747534</ele>
        <time>2026-07-07T08:01:45.000Z</time>
      </trkpt>
      <trkpt lat="48.19815" lon="16.41333">
        <ele>185.780589</ele>
        <time>2026-07-07T08:01:46.000Z</time>
      </trkpt>
      <trkpt lat="48.19811" lon="16.41328">
        <ele>185.813708</ele>
        <time>2026-07-07T08:01:47.000Z</time>
      </trkpt>
      <trkpt lat="48.19807" lon="16.41323">
        <ele>185.848137</ele>
        <time>2026-07-07T08:01:48.000Z</time>
      </trkpt>
      <trkpt lat="48.19804" lon="16.41319">
        <ele>185.882315</ele>
        <time>2026-07-07T08:01:49.000Z</time>
      </trkpt>
      <trkpt lat="48.198" lon="16.41314">
        <ele>185.916492</ele>
        <time>2026-07-07T08:01:50.000Z</time>
      </trkpt>
      <trkpt lat="48.19796" lon="16.41309">
        <ele>185.950921</ele>
        <time>2026-07-07T08:01:51.000Z</time>
      </trkpt>
      <trkpt lat="48.19792" lon="16.41305">
        <ele>185.98404</ele>
        <time>2026-07-07T08:01:52.000Z</time>
      </trkpt>
      <trkpt lat="48.19789" lon="16.413">
        <ele>186.017986</ele>
        <time>2026-07-07T08:01:53.000Z</time>
      </trkpt>
      <trkpt lat="48.19785" lon="16.41295">
        <ele>186.051199</ele>
        <time>2026-07-07T08:01:54.000Z</time>
      </trkpt>
      <trkpt lat="48.19782" lon="16.4129">
        <ele>186.084739</ele>
        <time>2026-07-07T08:01:55.000Z</time>
      </trkpt>
      <trkpt lat="48.19778" lon="16.41285">
        <ele>186.116823</ele>
        <time>2026-07-07T08:01:56.000Z</time>
      </trkpt>
      <trkpt lat="48.19775" lon="16.4128">
        <ele>186.148812</ele>
        <time>2026-07-07T08:01:57.000Z</time>
      </trkpt>
      <trkpt lat="48.19772" lon="16.41276">
        <ele>186.178748</ele>
        <time>2026-07-07T08:01:58.000Z</time>
      </trkpt>
      <trkpt lat="48.19769" lon="16.41271">
        <ele>186.208189</ele>
        <time>2026-07-07T08:01:59.000Z</time>
      </trkpt>
      <trkpt lat="48.19766" lon="16.41267">
        <ele>186.236983</ele>
        <time>2026-07-07T08:02:00.000Z</time>
      </trkpt>
      <trkpt lat="48.19763" lon="16.41263">
        <ele>186.264956</ele>
        <time>2026-07-07T08:02:01.000Z</time>
      </trkpt>
      <trkpt lat="48.1976" lon="16.41259">
        <ele>186.290801</ele>
        <time>2026-07-07T08:02:02.000Z</time>
      </trkpt>
      <trkpt lat="48.19758" lon="16.41255">
        <ele>186.315499</ele>
        <time>2026-07-07T08:02:03.000Z</time>
      </trkpt>
      <trkpt lat="48.19755" lon="16.41251">
        <ele>186.339715</ele>
        <time>2026-07-07T08:02:04.000Z</time>
      </trkpt>
      <trkpt lat="48.19753" lon="16.41248">
        <ele>186.363118</ele>
        <time>2026-07-07T08:02:05.000Z</time>
      </trkpt>
      <trkpt lat="48.19751" lon="16.41244">
        <ele>186.386849</ele>
        <time>2026-07-07T08:02:06.000Z</time>
      </trkpt>
      <trkpt lat="48.19748" lon="16.41241">
        <ele>186.411612</ele>
        <time>2026-07-07T08:02:07.000Z</time>
      </trkpt>
      <trkpt lat="48.19745" lon="16.41237">
        <ele>186.437507</ele>
        <time>2026-07-07T08:02:08.000Z</time>
      </trkpt>
      <trkpt lat="48.19742" lon="16.41233">
        <ele>186.46567</ele>
        <time>2026-07-07T08:02:09.000Z</time>
      </trkpt>
      <trkpt lat="48.19739" lon="16.41228">
        <ele>186.531216</ele>
        <time>2026-07-07T08:02:10.000Z</time>
      </trkpt>
      <trkpt lat="48.19736" lon="16.41224">
        <ele>186.615226</ele>
        <time>2026-07-07T08:02:11.000Z</time>
      </trkpt>
      <trkpt lat="48.19733" lon="16.41219">
        <ele>186.699236</ele>
        <time>2026-07-07T08:02:12.000Z</time>
      </trkpt>
      <trkpt lat="48.1973" lon="16.41215">
        <ele>186.776718</ele>
        <time>2026-07-07T08:02:13.000Z</time>
      </trkpt>
      <trkpt lat="48.19727" lon="16.41211">
        <ele>186.85374</ele>
        <time>2026-07-07T08:02:14.000Z</time>
      </trkpt>
      <trkpt lat="48.19725" lon="16.41207">
        <ele>186.92095</ele>
        <time>2026-07-07T08:02:15.000Z</time>
      </trkpt>
      <trkpt lat="48.19723" lon="16.41204">
        <ele>186.976957</ele>
        <time>2026-07-07T08:02:16.000Z</time>
      </trkpt>
      <trkpt lat="48.19721" lon="16.41201">
        <ele>187.037163</ele>
        <time>2026-07-07T08:02:17.000Z</time>
      </trkpt>
      <trkpt lat="48.19718" lon="16.41198">
        <ele>187.103985</ele>
        <time>2026-07-07T08:02:18.000Z</time>
      </trkpt>
      <trkpt lat="48.19716" lon="16.41194">
        <ele>187.169808</ele>
        <time>2026-07-07T08:02:19.000Z</time>
      </trkpt>
      <trkpt lat="48.19714" lon="16.4119">
        <ele>187.237248</ele>
        <time>2026-07-07T08:02:20.000Z</time>
      </trkpt>
      <trkpt lat="48.19712" lon="16.41186">
        <ele>187.304458</ele>
        <time>2026-07-07T08:02:21.000Z</time>
      </trkpt>
      <trkpt lat="48.19709" lon="16.41182">
        <ele>187.376484</ele>
        <time>2026-07-07T08:02:22.000Z</time>
      </trkpt>
      <trkpt lat="48.19707" lon="16.41178">
        <ele>187.448234</ele>
        <time>2026-07-07T08:02:23.000Z</time>
      </trkpt>
      <trkpt lat="48.19705" lon="16.41174">
        <ele>187.519786</ele>
        <time>2026-07-07T08:02:24.000Z</time>
      </trkpt>
      <trkpt lat="48.19703" lon="16.4117">
        <ele>187.583492</ele>
        <time>2026-07-07T08:02:25.000Z</time>
      </trkpt>
      <trkpt lat="48.19701" lon="16.41166">
        <ele>187.646372</ele>
        <time>2026-07-07T08:02:26.000Z</time>
      </trkpt>
      <trkpt lat="48.19699" lon="16.41163">
        <ele>187.701425</ele>
        <time>2026-07-07T08:02:27.000Z</time>
      </trkpt>
      <trkpt lat="48.19698" lon="16.4116">
        <ele>187.74539</ele>
        <time>2026-07-07T08:02:28.000Z</time>
      </trkpt>
      <trkpt lat="48.19697" lon="16.41158">
        <ele>187.781638</ele>
        <time>2026-07-07T08:02:29.000Z</time>
      </trkpt>
      <trkpt lat="48.19697" lon="16.41156">
        <ele>187.810678</ele>
        <time>2026-07-07T08:02:30.000Z</time>
      </trkpt>
      <trkpt lat="48.19698" lon="16.41154">
        <ele>187.832737</ele>
        <time>2026-07-07T08:02:31.000Z</time>
      </trkpt>
      <trkpt lat="48.19699" lon="16.41153">
        <ele>187.853358</ele>
        <time>2026-07-07T08:02:32.000Z</time>
      </trkpt>
      <trkpt lat="48.19699" lon="16.41152">
        <ele>187.868823</ele>
        <time>2026-07-07T08:02:33.000Z</time>
      </trkpt>
      <trkpt lat="48.19707" lon="16.41148">
        <ele>188.032492</ele>
        <time>2026-07-07T08:02:59.000Z</time>
      </trkpt>
      <trkpt lat="48.1971" lon="16.41147">
        <ele>188.091136</ele>
        <time>2026-07-07T08:03:00.000Z</time>
      </trkpt>
      <trkpt lat="48.19713" lon="16.41147">
        <ele>188.147581</ele>
        <time>2026-07-07T08:03:01.000Z</time>
      </trkpt>
      <trkpt lat="48.19715" lon="16.41145">
        <ele>188.199978</ele>
        <time>2026-07-07T08:03:02.000Z</time>
      </trkpt>
      <trkpt lat="48.19716" lon="16.41143">
        <ele>188.241831</ele>
        <time>2026-07-07T08:03:03.000Z</time>
      </trkpt>
      <trkpt lat="48.19716" lon="16.41141">
        <ele>188.266911</ele>
        <time>2026-07-07T08:03:04.000Z</time>
      </trkpt>
      <trkpt lat="48.19716" lon="16.41141">
        <ele>188.271339</ele>
        <time>2026-07-07T08:03:05.000Z</time>
      </trkpt>
      <trkpt lat="48.19716" lon="16.41141">
        <ele>188.271339</ele>
        <time>2026-07-07T08:03:06.000Z</time>
      </trkpt>
      <trkpt lat="48.19713" lon="16.41133">
        <ele>188.397652</ele>
        <time>2026-07-07T08:03:36.000Z</time>
      </trkpt>
      <trkpt lat="48.19711" lon="16.4113">
        <ele>188.445181</ele>
        <time>2026-07-07T08:03:37.000Z</time>
      </trkpt>
      <trkpt lat="48.19709" lon="16.41128">
        <ele>188.497588</ele>
        <time>2026-07-07T08:03:38.000Z</time>
      </trkpt>
      <trkpt lat="48.19707" lon="16.41125">
        <ele>188.552669</ele>
        <time>2026-07-07T08:03:39.000Z</time>
      </trkpt>
      <trkpt lat="48.19705" lon="16.41122">
        <ele>188.613898</ele>
        <time>2026-07-07T08:03:40.000Z</time>
      </trkpt>
      <trkpt lat="48.19702" lon="16.41118">
        <ele>188.682634</ele>
        <time>2026-07-07T08:03:41.000Z</time>
      </trkpt>
      <trkpt lat="48.197" lon="16.41114">
        <ele>188.753674</ele>
        <time>2026-07-07T08:03:42.000Z</time>
      </trkpt>
      <trkpt lat="48.19698" lon="16.4111">
        <ele>188.821926</ele>
        <time>2026-07-07T08:03:43.000Z</time>
      </trkpt>
      <trkpt lat="48.19696" lon="16.41106">
        <ele>188.892436</ele>
        <time>2026-07-07T08:03:44.000Z</time>
      </trkpt>
      <trkpt lat="48.19694" lon="16.41102">
        <ele>188.958439</ele>
        <time>2026-07-07T08:03:45.000Z</time>
      </trkpt>
      <trkpt lat="48.19691" lon="16.41098">
        <ele>189.024877</ele>
        <time>2026-07-07T08:03:46.000Z</time>
      </trkpt>
      <trkpt lat="48.19689" lon="16.41094">
        <ele>189.090881</ele>
        <time>2026-07-07T08:03:47.000Z</time>
      </trkpt>
      <trkpt lat="48.19687" lon="16.4109">
        <ele>189.156884</ele>
        <time>2026-07-07T08:03:48.000Z</time>
      </trkpt>
      <trkpt lat="48.19685" lon="16.41086">
        <ele>189.222888</ele>
        <time>2026-07-07T08:03:49.000Z</time>
      </trkpt>
      <trkpt lat="48.19683" lon="16.41082">
        <ele>189.288891</ele>
        <time>2026-07-07T08:03:50.000Z</time>
      </trkpt>
      <trkpt lat="48.19681" lon="16.41078">
        <ele>189.354895</ele>
        <time>2026-07-07T08:03:51.000Z</time>
      </trkpt>
      <trkpt lat="48.19679" lon="16.41074">
        <ele>189.420898</ele>
        <time>2026-07-07T08:03:52.000Z</time>
      </trkpt>
      <trkpt lat="48.19677" lon="16.4107">
        <ele>189.485851</ele>
        <time>2026-07-07T08:03:53.000Z</time>
      </trkpt>
      <trkpt lat="48.19675" lon="16.41066">
        <ele>189.553061</ele>
        <time>2026-07-07T08:03:54.000Z</time>
      </trkpt>
      <trkpt lat="48.19673" lon="16.41062">
        <ele>189.619065</ele>
        <time>2026-07-07T08:03:55.000Z</time>
      </trkpt>
      <trkpt lat="48.19671" lon="16.41058">
        <ele>189.685069</ele>
        <time>2026-07-07T08:03:56.000Z</time>
      </trkpt>
      <trkpt lat="48.19669" lon="16.41054">
        <ele>189.751072</ele>
        <time>2026-07-07T08:03:57.000Z</time>
      </trkpt>
      <trkpt lat="48.19667" lon="16.4105">
        <ele>189.818136</ele>
        <time>2026-07-07T08:03:58.000Z</time>
      </trkpt>
      <trkpt lat="48.19665" lon="16.41046">
        <ele>189.88659</ele>
        <time>2026-07-07T08:03:59.000Z</time>
      </trkpt>
      <trkpt lat="48.19663" lon="16.41042">
        <ele>189.9571</ele>
        <time>2026-07-07T08:04:00.000Z</time>
      </trkpt>
      <trkpt lat="48.19661" lon="16.41037">
        <ele>190.029875</ele>
        <time>2026-07-07T08:04:01.000Z</time>
      </trkpt>
      <trkpt lat="48.19659" lon="16.41033">
        <ele>189.992103</ele>
        <time>2026-07-07T08:04:02.000Z</time>
      </trkpt>
      <trkpt lat="48.19657" lon="16.41029">
        <ele>189.941641</ele>
        <time>2026-07-07T08:04:03.000Z</time>
      </trkpt>
      <trkpt lat="48.19655" lon="16.41025">
        <ele>189.897008</ele>
        <time>2026-07-07T08:04:04.000Z</time>
      </trkpt>
      <trkpt lat="48.19653" lon="16.41021">
        <ele>189.853995</ele>
        <time>2026-07-07T08:04:05.000Z</time>
      </trkpt>
      <trkpt lat="48.19652" lon="16.41018">
        <ele>189.817619</ele>
        <time>2026-07-07T08:04:06.000Z</time>
      </trkpt>
      <trkpt lat="48.19651" lon="16.41015">
        <ele>189.782908</ele>
        <time>2026-07-07T08:04:07.000Z</time>
      </trkpt>
      <trkpt lat="48.1965" lon="16.41013">
        <ele>189.756419</ele>
        <time>2026-07-07T08:04:08.000Z</time>
      </trkpt>
      <trkpt lat="48.19649" lon="16.41011">
        <ele>189.734931</ele>
        <time>2026-07-07T08:04:09.000Z</time>
      </trkpt>
      <trkpt lat="48.19648" lon="16.4101">
        <ele>189.720528</ele>
        <time>2026-07-07T08:04:10.000Z</time>
      </trkpt>
      <trkpt lat="48.19648" lon="16.4101">
        <ele>189.712085</ele>
        <time>2026-07-07T08:04:11.000Z</time>
      </trkpt>
      <trkpt lat="48.19647" lon="16.4101">
        <ele>189.704635</ele>
        <time>2026-07-07T08:04:12.000Z</time>
      </trkpt>
      <trkpt lat="48.19641" lon="16.41001">
        <ele>189.576453</ele>
        <time>2026-07-07T08:04:28.000Z</time>
      </trkpt>
      <trkpt lat="48.19639" lon="16.41001">
        <ele>189.546062</ele>
        <time>2026-07-07T08:04:29.000Z</time>
      </trkpt>
      <trkpt lat="48.19638" lon="16.41003">
        <ele>189.522789</ele>
        <time>2026-07-07T08:04:30.000Z</time>
      </trkpt>
      <trkpt lat="48.19638" lon="16.41003">
        <ele>189.513835</ele>
        <time>2026-07-07T08:04:31.000Z</time>
      </trkpt>
      <trkpt lat="48.19633" lon="16.41009">
        <ele>189.426079</ele>
        <time>2026-07-07T08:04:42.000Z</time>
      </trkpt>
      <trkpt lat="48.19631" lon="16.41012">
        <ele>189.383938</ele>
        <time>2026-07-07T08:04:43.000Z</time>
      </trkpt>
      <trkpt lat="48.19629" lon="16.41015">
        <ele>189.340369</ele>
        <time>2026-07-07T08:04:44.000Z</time>
      </trkpt>
      <trkpt lat="48.19627" lon="16.41019">
        <ele>189.294013</ele>
        <time>2026-07-07T08:04:45.000Z</time>
      </trkpt>
      <trkpt lat="48.19625" lon="16.41022">
        <ele>189.245197</ele>
        <time>2026-07-07T08:04:46.000Z</time>
      </trkpt>
      <trkpt lat="48.19622" lon="16.41026">
        <ele>189.194217</ele>
        <time>2026-07-07T08:04:47.000Z</time>
      </trkpt>
      <trkpt lat="48.1962" lon="16.4103">
        <ele>189.137675</ele>
        <time>2026-07-07T08:04:48.000Z</time>
      </trkpt>
      <trkpt lat="48.19617" lon="16.41034">
        <ele>189.07754</ele>
        <time>2026-07-07T08:04:49.000Z</time>
      </trkpt>
      <trkpt lat="48.19614" lon="16.41039">
        <ele>189.02061</ele>
        <time>2026-07-07T08:04:50.000Z</time>
      </trkpt>
      <trkpt lat="48.19611" lon="16.41042">
        <ele>188.963237</ele>
        <time>2026-07-07T08:04:51.000Z</time>
      </trkpt>
      <trkpt lat="48.19609" lon="16.41046">
        <ele>188.905625</ele>
        <time>2026-07-07T08:04:52.000Z</time>
      </trkpt>
      <trkpt lat="48.19605" lon="16.41051">
        <ele>188.840947</ele>
        <time>2026-07-07T08:04:53.000Z</time>
      </trkpt>
      <trkpt lat="48.19602" lon="16.41055">
        <ele>188.771613</ele>
        <time>2026-07-07T08:04:54.000Z</time>
      </trkpt>
      <trkpt lat="48.19598" lon="16.4106">
        <ele>188.699183</ele>
        <time>2026-07-07T08:04:55.000Z</time>
      </trkpt>
      <trkpt lat="48.19594" lon="16.41065">
        <ele>188.61867</ele>
        <time>2026-07-07T08:04:56.000Z</time>
      </trkpt>
      <trkpt lat="48.1959" lon="16.4107">
        <ele>188.537606</ele>
        <time>2026-07-07T08:04:57.000Z</time>
      </trkpt>
      <trkpt lat="48.19585" lon="16.41076">
        <ele>188.452969</ele>
        <time>2026-07-07T08:04:58.000Z</time>
      </trkpt>
      <trkpt lat="48.1958" lon="16.4108">
        <ele>188.366088</ele>
        <time>2026-07-07T08:04:59.000Z</time>
      </trkpt>
      <trkpt lat="48.19575" lon="16.41084">
        <ele>188.279014</ele>
        <time>2026-07-07T08:05:00.000Z</time>
      </trkpt>
      <trkpt lat="48.1957" lon="16.41088">
        <ele>188.19273</ele>
        <time>2026-07-07T08:05:01.000Z</time>
      </trkpt>
      <trkpt lat="48.19565" lon="16.41091">
        <ele>188.11249</ele>
        <time>2026-07-07T08:05:02.000Z</time>
      </trkpt>
      <trkpt lat="48.19561" lon="16.41093">
        <ele>188.044405</ele>
        <time>2026-07-07T08:05:03.000Z</time>
      </trkpt>
      <trkpt lat="48.19557" lon="16.41095">
        <ele>187.985028</ele>
        <time>2026-07-07T08:05:04.000Z</time>
      </trkpt>
      <trkpt lat="48.19553" lon="16.41096">
        <ele>187.926376</ele>
        <time>2026-07-07T08:05:05.000Z</time>
      </trkpt>
      <trkpt lat="48.19549" lon="16.41095">
        <ele>187.865083</ele>
        <time>2026-07-07T08:05:06.000Z</time>
      </trkpt>
      <trkpt lat="48.19544" lon="16.41094">
        <ele>187.797127</ele>
        <time>2026-07-07T08:05:07.000Z</time>
      </trkpt>
      <trkpt lat="48.1954" lon="16.4109">
        <ele>187.726838</ele>
        <time>2026-07-07T08:05:08.000Z</time>
      </trkpt>
      <trkpt lat="48.19537" lon="16.41085">
        <ele>187.653778</ele>
        <time>2026-07-07T08:05:09.000Z</time>
      </trkpt>
      <trkpt lat="48.19534" lon="16.41079">
        <ele>187.581643</ele>
        <time>2026-07-07T08:05:10.000Z</time>
      </trkpt>
      <trkpt lat="48.19531" lon="16.41074">
        <ele>187.515522</ele>
        <time>2026-07-07T08:05:11.000Z</time>
      </trkpt>
      <trkpt lat="48.1953" lon="16.41068">
        <ele>187.451977</ele>
        <time>2026-07-07T08:05:12.000Z</time>
      </trkpt>
      <trkpt lat="48.19528" lon="16.41062">
        <ele>187.38933</ele>
        <time>2026-07-07T08:05:13.000Z</time>
      </trkpt>
      <trkpt lat="48.19526" lon="16.41056">
        <ele>187.349973</ele>
        <time>2026-07-07T08:05:14.000Z</time>
      </trkpt>
      <trkpt lat="48.19525" lon="16.41051">
        <ele>187.333945</ele>
        <time>2026-07-07T08:05:15.000Z</time>
      </trkpt>
      <trkpt lat="48.19524" lon="16.41045">
        <ele>187.318023</ele>
        <time>2026-07-07T08:05:16.000Z</time>
      </trkpt>
      <trkpt lat="48.19524" lon="16.4104">
        <ele>187.303293</ele>
        <time>2026-07-07T08:05:17.000Z</time>
      </trkpt>
      <trkpt lat="48.19523" lon="16.41036">
        <ele>187.289655</ele>
        <time>2026-07-07T08:05:18.000Z</time>
      </trkpt>
      <trkpt lat="48.19522" lon="16.41031">
        <ele>187.275784</ele>
        <time>2026-07-07T08:05:19.000Z</time>
      </trkpt>
      <trkpt lat="48.19521" lon="16.41026">
        <ele>187.261645</ele>
        <time>2026-07-07T08:05:20.000Z</time>
      </trkpt>
      <trkpt lat="48.1952" lon="16.41021">
        <ele>187.247627</ele>
        <time>2026-07-07T08:05:21.000Z</time>
      </trkpt>
      <trkpt lat="48.19519" lon="16.41017">
        <ele>187.233756</ele>
        <time>2026-07-07T08:05:22.000Z</time>
      </trkpt>
      <trkpt lat="48.19517" lon="16.41013">
        <ele>187.220853</ele>
        <time>2026-07-07T08:05:23.000Z</time>
      </trkpt>
      <trkpt lat="48.19516" lon="16.41009">
        <ele>187.208424</ele>
        <time>2026-07-07T08:05:24.000Z</time>
      </trkpt>
      <trkpt lat="48.19513" lon="16.41006">
        <ele>187.195266</ele>
        <time>2026-07-07T08:05:25.000Z</time>
      </trkpt>
      <trkpt lat="48.19511" lon="16.41004">
        <ele>187.182594</ele>
        <time>2026-07-07T08:05:26.000Z</time>
      </trkpt>
      <trkpt lat="48.19508" lon="16.41">
        <ele>187.168776</ele>
        <time>2026-07-07T08:05:27.000Z</time>
      </trkpt>
      <trkpt lat="48.19506" lon="16.40996">
        <ele>187.1538</ele>
        <time>2026-07-07T08:05:28.000Z</time>
      </trkpt>
      <trkpt lat="48.19504" lon="16.40991">
        <ele>187.137057</ele>
        <time>2026-07-07T08:05:29.000Z</time>
      </trkpt>
      <trkpt lat="48.19501" lon="16.40987">
        <ele>187.120056</ele>
        <time>2026-07-07T08:05:30.000Z</time>
      </trkpt>
      <trkpt lat="48.19499" lon="16.40983">
        <ele>187.105205</ele>
        <time>2026-07-07T08:05:31.000Z</time>
      </trkpt>
      <trkpt lat="48.19496" lon="16.40979">
        <ele>187.090194</ele>
        <time>2026-07-07T08:05:32.000Z</time>
      </trkpt>
      <trkpt lat="48.19494" lon="16.40975">
        <ele>187.074982</ele>
        <time>2026-07-07T08:05:33.000Z</time>
      </trkpt>
      <trkpt lat="48.19491" lon="16.40973">
        <ele>187.063672</ele>
        <time>2026-07-07T08:05:34.000Z</time>
      </trkpt>
      <trkpt lat="48.19489" lon="16.4097">
        <ele>187.049855</ele>
        <time>2026-07-07T08:05:35.000Z</time>
      </trkpt>
      <trkpt lat="48.19487" lon="16.40966">
        <ele>187.034439</ele>
        <time>2026-07-07T08:05:36.000Z</time>
      </trkpt>
      <trkpt lat="48.19484" lon="16.40961">
        <ele>187.016717</ele>
        <time>2026-07-07T08:05:37.000Z</time>
      </trkpt>
      <trkpt lat="48.19481" lon="16.40956">
        <ele>187.000247</ele>
        <time>2026-07-07T08:05:38.000Z</time>
      </trkpt>
      <trkpt lat="48.19479" lon="16.40952">
        <ele>186.984045</ele>
        <time>2026-07-07T08:05:39.000Z</time>
      </trkpt>
      <trkpt lat="48.19477" lon="16.40948">
        <ele>186.969769</ele>
        <time>2026-07-07T08:05:40.000Z</time>
      </trkpt>
      <trkpt lat="48.19475" lon="16.40944">
        <ele>186.955545</ele>
        <time>2026-07-07T08:05:41.000Z</time>
      </trkpt>
      <trkpt lat="48.19472" lon="16.40941">
        <ele>186.941205</ele>
        <time>2026-07-07T08:05:42.000Z</time>
      </trkpt>
      <trkpt lat="48.19469" lon="16.40938">
        <ele>186.9272</ele>
        <time>2026-07-07T08:05:43.000Z</time>
      </trkpt>
      <trkpt lat="48.19467" lon="16.40935">
        <ele>186.915053</ele>
        <time>2026-07-07T08:05:44.000Z</time>
      </trkpt>
      <trkpt lat="48.19465" lon="16.40933">
        <ele>186.903705</ele>
        <time>2026-07-07T08:05:45.000Z</time>
      </trkpt>
      <trkpt lat="48.19463" lon="16.4093">
        <ele>186.892969</ele>
        <time>2026-07-07T08:05:46.000Z</time>
      </trkpt>
      <trkpt lat="48.19462" lon="16.40928">
        <ele>186.883923</ele>
        <time>2026-07-07T08:05:47.000Z</time>
      </trkpt>
      <trkpt lat="48.1946" lon="16.40926">
        <ele>186.875821</ele>
        <time>2026-07-07T08:05:48.000Z</time>
      </trkpt>
      <trkpt lat="48.1946" lon="16.40924">
        <ele>186.871539</ele>
        <time>2026-07-07T08:05:49.000Z</time>
      </trkpt>
      <trkpt lat="48.1946" lon="16.40924">
        <ele>186.870133</ele>
        <time>2026-07-07T08:05:50.000Z</time>
      </trkpt>
      <trkpt lat="48.19457" lon="16.40917">
        <ele>186.848138</ele>
        <time>2026-07-07T08:06:30.000Z</time>
      </trkpt>
      <trkpt lat="48.19455" lon="16.40913">
        <ele>186.834802</ele>
        <time>2026-07-07T08:06:31.000Z</time>
      </trkpt>
      <trkpt lat="48.19453" lon="16.40909">
        <ele>186.820763</ele>
        <time>2026-07-07T08:06:32.000Z</time>
      </trkpt>
      <trkpt lat="48.19451" lon="16.40905">
        <ele>186.805557</ele>
        <time>2026-07-07T08:06:33.000Z</time>
      </trkpt>
      <trkpt lat="48.19449" lon="16.409">
        <ele>186.790351</ele>
        <time>2026-07-07T08:06:34.000Z</time>
      </trkpt>
      <trkpt lat="48.19447" lon="16.40895">
        <ele>186.773472</ele>
        <time>2026-07-07T08:06:35.000Z</time>
      </trkpt>
      <trkpt lat="48.19445" lon="16.4089">
        <ele>186.755218</ele>
        <time>2026-07-07T08:06:36.000Z</time>
      </trkpt>
      <trkpt lat="48.19442" lon="16.40885">
        <ele>186.736858</ele>
        <time>2026-07-07T08:06:37.000Z</time>
      </trkpt>
      <trkpt lat="48.19439" lon="16.40879">
        <ele>186.717624</ele>
        <time>2026-07-07T08:06:38.000Z</time>
      </trkpt>
      <trkpt lat="48.19436" lon="16.40874">
        <ele>186.69899</ele>
        <time>2026-07-07T08:06:39.000Z</time>
      </trkpt>
      <trkpt lat="48.19433" lon="16.40869">
        <ele>186.680077</ele>
        <time>2026-07-07T08:06:40.000Z</time>
      </trkpt>
      <trkpt lat="48.19431" lon="16.40864">
        <ele>186.661717</ele>
        <time>2026-07-07T08:06:41.000Z</time>
      </trkpt>
      <trkpt lat="48.19428" lon="16.40859">
        <ele>186.643141</ele>
        <time>2026-07-07T08:06:42.000Z</time>
      </trkpt>
      <trkpt lat="48.19425" lon="16.40854">
        <ele>186.623806</ele>
        <time>2026-07-07T08:06:43.000Z</time>
      </trkpt>
      <trkpt lat="48.19422" lon="16.40849">
        <ele>186.604893</ele>
        <time>2026-07-07T08:06:44.000Z</time>
      </trkpt>
      <trkpt lat="48.19419" lon="16.40844">
        <ele>186.606787</ele>
        <time>2026-07-07T08:06:45.000Z</time>
      </trkpt>
      <trkpt lat="48.19416" lon="16.4084">
        <ele>186.615482</ele>
        <time>2026-07-07T08:06:46.000Z</time>
      </trkpt>
      <trkpt lat="48.19414" lon="16.40835">
        <ele>186.623954</ele>
        <time>2026-07-07T08:06:47.000Z</time>
      </trkpt>
      <trkpt lat="48.19411" lon="16.40831">
        <ele>186.632425</ele>
        <time>2026-07-07T08:06:48.000Z</time>
      </trkpt>
      <trkpt lat="48.19409" lon="16.40826">
        <ele>186.640535</ele>
        <time>2026-07-07T08:06:49.000Z</time>
      </trkpt>
      <trkpt lat="48.19407" lon="16.40822">
        <ele>186.648373</ele>
        <time>2026-07-07T08:06:50.000Z</time>
      </trkpt>
      <trkpt lat="48.19405" lon="16.40818">
        <ele>186.656013</ele>
        <time>2026-07-07T08:06:51.000Z</time>
      </trkpt>
      <trkpt lat="48.19402" lon="16.40814">
        <ele>186.663733</ele>
        <time>2026-07-07T08:06:52.000Z</time>
      </trkpt>
      <trkpt lat="48.194" lon="16.4081">
        <ele>186.671409</ele>
        <time>2026-07-07T08:06:53.000Z</time>
      </trkpt>
      <trkpt lat="48.19398" lon="16.40806">
        <ele>186.678327</ele>
        <time>2026-07-07T08:06:54.000Z</time>
      </trkpt>
      <trkpt lat="48.19395" lon="16.40803">
        <ele>186.685792</ele>
        <time>2026-07-07T08:06:55.000Z</time>
      </trkpt>
      <trkpt lat="48.19393" lon="16.40799">
        <ele>186.692602</ele>
        <time>2026-07-07T08:06:56.000Z</time>
      </trkpt>
      <trkpt lat="48.19391" lon="16.40796">
        <ele>186.699559</ele>
        <time>2026-07-07T08:06:57.000Z</time>
      </trkpt>
      <trkpt lat="48.19389" lon="16.40793">
        <ele>186.706171</ele>
        <time>2026-07-07T08:06:58.000Z</time>
      </trkpt>
      <trkpt lat="48.19386" lon="16.4079">
        <ele>186.712766</ele>
        <time>2026-07-07T08:06:59.000Z</time>
      </trkpt>
      <trkpt lat="48.19385" lon="16.40787">
        <ele>186.718088</ele>
        <time>2026-07-07T08:07:00.000Z</time>
      </trkpt>
      <trkpt lat="48.19383" lon="16.40785">
        <ele>186.722673</ele>
        <time>2026-07-07T08:07:01.000Z</time>
      </trkpt>
      <trkpt lat="48.19381" lon="16.40782">
        <ele>186.72832</ele>
        <time>2026-07-07T08:07:02.000Z</time>
      </trkpt>
      <trkpt lat="48.19379" lon="16.40781">
        <ele>186.733907</ele>
        <time>2026-07-07T08:07:03.000Z</time>
      </trkpt>
      <trkpt lat="48.19376" lon="16.40782">
        <ele>186.739424</ele>
        <time>2026-07-07T08:07:04.000Z</time>
      </trkpt>
      <trkpt lat="48.19373" lon="16.40784">
        <ele>186.747089</ele>
        <time>2026-07-07T08:07:05.000Z</time>
      </trkpt>
      <trkpt lat="48.1937" lon="16.40788">
        <ele>186.7557</ele>
        <time>2026-07-07T08:07:06.000Z</time>
      </trkpt>
      <trkpt lat="48.19368" lon="16.40792">
        <ele>186.764189</ele>
        <time>2026-07-07T08:07:07.000Z</time>
      </trkpt>
      <trkpt lat="48.19364" lon="16.40797">
        <ele>186.773704</ele>
        <time>2026-07-07T08:07:08.000Z</time>
      </trkpt>
      <trkpt lat="48.19361" lon="16.40802">
        <ele>186.783325</ele>
        <time>2026-07-07T08:07:09.000Z</time>
      </trkpt>
      <trkpt lat="48.19358" lon="16.40806">
        <ele>186.793419</ele>
        <time>2026-07-07T08:07:10.000Z</time>
      </trkpt>
      <trkpt lat="48.19354" lon="16.40811">
        <ele>186.803313</ele>
        <time>2026-07-07T08:07:11.000Z</time>
      </trkpt>
      <trkpt lat="48.19351" lon="16.40815">
        <ele>186.813149</ele>
        <time>2026-07-07T08:07:12.000Z</time>
      </trkpt>
      <trkpt lat="48.19348" lon="16.4082">
        <ele>186.822507</ele>
        <time>2026-07-07T08:07:13.000Z</time>
      </trkpt>
      <trkpt lat="48.19344" lon="16.40824">
        <ele>186.832636</ele>
        <time>2026-07-07T08:07:14.000Z</time>
      </trkpt>
      <trkpt lat="48.19341" lon="16.40829">
        <ele>186.842709</ele>
        <time>2026-07-07T08:07:15.000Z</time>
      </trkpt>
      <trkpt lat="48.19338" lon="16.40834">
        <ele>186.852481</ele>
        <time>2026-07-07T08:07:16.000Z</time>
      </trkpt>
      <trkpt lat="48.19335" lon="16.40839">
        <ele>186.862401</ele>
        <time>2026-07-07T08:07:17.000Z</time>
      </trkpt>
      <trkpt lat="48.19331" lon="16.40844">
        <ele>186.873013</ele>
        <time>2026-07-07T08:07:18.000Z</time>
      </trkpt>
      <trkpt lat="48.19328" lon="16.40848">
        <ele>186.882687</ele>
        <time>2026-07-07T08:07:19.000Z</time>
      </trkpt>
      <trkpt lat="48.19324" lon="16.40853">
        <ele>186.892559</ele>
        <time>2026-07-07T08:07:20.000Z</time>
      </trkpt>
      <trkpt lat="48.19322" lon="16.40858">
        <ele>186.902186</ele>
        <time>2026-07-07T08:07:21.000Z</time>
      </trkpt>
      <trkpt lat="48.1932" lon="16.40864">
        <ele>186.911758</ele>
        <time>2026-07-07T08:07:22.000Z</time>
      </trkpt>
      <trkpt lat="48.19317" lon="16.40868">
        <ele>186.919942</ele>
        <time>2026-07-07T08:07:23.000Z</time>
      </trkpt>
      <trkpt lat="48.19314" lon="16.40873">
        <ele>186.929203</ele>
        <time>2026-07-07T08:07:24.000Z</time>
      </trkpt>
      <trkpt lat="48.19311" lon="16.40878">
        <ele>186.938718</ele>
        <time>2026-07-07T08:07:25.000Z</time>
      </trkpt>
      <trkpt lat="48.19309" lon="16.40884">
        <ele>186.948958</ele>
        <time>2026-07-07T08:07:26.000Z</time>
      </trkpt>
      <trkpt lat="48.19306" lon="16.40889">
        <ele>186.95946</ele>
        <time>2026-07-07T08:07:27.000Z</time>
      </trkpt>
      <trkpt lat="48.19302" lon="16.40894">
        <ele>186.969588</ele>
        <time>2026-07-07T08:07:28.000Z</time>
      </trkpt>
      <trkpt lat="48.19299" lon="16.40899">
        <ele>186.97915</ele>
        <time>2026-07-07T08:07:29.000Z</time>
      </trkpt>
      <trkpt lat="48.19296" lon="16.40904">
        <ele>186.989341</ele>
        <time>2026-07-07T08:07:30.000Z</time>
      </trkpt>
      <trkpt lat="48.19293" lon="16.40909">
        <ele>186.993986</ele>
        <time>2026-07-07T08:07:31.000Z</time>
      </trkpt>
      <trkpt lat="48.1929" lon="16.40913">
        <ele>186.998239</ele>
        <time>2026-07-07T08:07:32.000Z</time>
      </trkpt>
      <trkpt lat="48.19287" lon="16.40918">
        <ele>187.002445</ele>
        <time>2026-07-07T08:07:33.000Z</time>
      </trkpt>
      <trkpt lat="48.19284" lon="16.40923">
        <ele>187.006827</ele>
        <time>2026-07-07T08:07:34.000Z</time>
      </trkpt>
      <trkpt lat="48.19281" lon="16.40927">
        <ele>187.010861</ele>
        <time>2026-07-07T08:07:35.000Z</time>
      </trkpt>
      <trkpt lat="48.19277" lon="16.40929">
        <ele>187.014449</ele>
        <time>2026-07-07T08:07:36.000Z</time>
      </trkpt>
      <trkpt lat="48.19274" lon="16.40928">
        <ele>187.017714</ele>
        <time>2026-07-07T08:07:37.000Z</time>
      </trkpt>
      <trkpt lat="48.1927" lon="16.40925">
        <ele>187.021538</ele>
        <time>2026-07-07T08:07:38.000Z</time>
      </trkpt>
      <trkpt lat="48.19267" lon="16.40921">
        <ele>187.02534</ele>
        <time>2026-07-07T08:07:39.000Z</time>
      </trkpt>
      <trkpt lat="48.19264" lon="16.40917">
        <ele>187.029549</ele>
        <time>2026-07-07T08:07:40.000Z</time>
      </trkpt>
      <trkpt lat="48.19261" lon="16.40912">
        <ele>187.034006</ele>
        <time>2026-07-07T08:07:41.000Z</time>
      </trkpt>
      <trkpt lat="48.19257" lon="16.40907">
        <ele>187.038623</ele>
        <time>2026-07-07T08:07:42.000Z</time>
      </trkpt>
      <trkpt lat="48.19254" lon="16.40902">
        <ele>187.043399</ele>
        <time>2026-07-07T08:07:43.000Z</time>
      </trkpt>
      <trkpt lat="48.1925" lon="16.40897">
        <ele>187.048086</ele>
        <time>2026-07-07T08:07:44.000Z</time>
      </trkpt>
      <trkpt lat="48.19247" lon="16.40892">
        <ele>187.052903</ele>
        <time>2026-07-07T08:07:45.000Z</time>
      </trkpt>
      <trkpt lat="48.19243" lon="16.40887">
        <ele>187.057604</ele>
        <time>2026-07-07T08:07:46.000Z</time>
      </trkpt>
      <trkpt lat="48.19239" lon="16.40883">
        <ele>187.062116</ele>
        <time>2026-07-07T08:07:47.000Z</time>
      </trkpt>
      <trkpt lat="48.19236" lon="16.40878">
        <ele>187.066441</ele>
        <time>2026-07-07T08:07:48.000Z</time>
      </trkpt>
      <trkpt lat="48.19233" lon="16.40874">
        <ele>187.070911</ele>
        <time>2026-07-07T08:07:49.000Z</time>
      </trkpt>
      <trkpt lat="48.19229" lon="16.40869">
        <ele>187.075339</ele>
        <time>2026-07-07T08:07:50.000Z</time>
      </trkpt>
      <trkpt lat="48.19226" lon="16.40865">
        <ele>187.079504</ele>
        <time>2026-07-07T08:07:51.000Z</time>
      </trkpt>
      <trkpt lat="48.19223" lon="16.40861">
        <ele>187.083354</ele>
        <time>2026-07-07T08:07:52.000Z</time>
      </trkpt>
      <trkpt lat="48.1922" lon="16.40857">
        <ele>187.087246</ele>
        <time>2026-07-07T08:07:53.000Z</time>
      </trkpt>
      <trkpt lat="48.19217" lon="16.40853">
        <ele>187.091012</ele>
        <time>2026-07-07T08:07:54.000Z</time>
      </trkpt>
      <trkpt lat="48.19214" lon="16.40849">
        <ele>187.094745</ele>
        <time>2026-07-07T08:07:55.000Z</time>
      </trkpt>
      <trkpt lat="48.19212" lon="16.40845">
        <ele>187.098411</ele>
        <time>2026-07-07T08:07:56.000Z</time>
      </trkpt>
      <trkpt lat="48.19211" lon="16.4084">
        <ele>187.10176</ele>
        <time>2026-07-07T08:07:57.000Z</time>
      </trkpt>
      <trkpt lat="48.1921" lon="16.40835">
        <ele>187.104747</ele>
        <time>2026-07-07T08:07:58.000Z</time>
      </trkpt>
      <trkpt lat="48.19209" lon="16.40831">
        <ele>187.107999</ele>
        <time>2026-07-07T08:07:59.000Z</time>
      </trkpt>
      <trkpt lat="48.19206" lon="16.40826">
        <ele>187.111871</ele>
        <time>2026-07-07T08:08:00.000Z</time>
      </trkpt>
      <trkpt lat="48.19204" lon="16.40821">
        <ele>187.115905</ele>
        <time>2026-07-07T08:08:01.000Z</time>
      </trkpt>
      <trkpt lat="48.19201" lon="16.40816">
        <ele>187.120126</ele>
        <time>2026-07-07T08:08:02.000Z</time>
      </trkpt>
      <trkpt lat="48.19198" lon="16.40811">
        <ele>187.124607</ele>
        <time>2026-07-07T08:08:03.000Z</time>
      </trkpt>
      <trkpt lat="48.19195" lon="16.40806">
        <ele>187.129087</ele>
        <time>2026-07-07T08:08:04.000Z</time>
      </trkpt>
      <trkpt lat="48.19192" lon="16.408">
        <ele>187.133597</ele>
        <time>2026-07-07T08:08:05.000Z</time>
      </trkpt>
      <trkpt lat="48.19189" lon="16.40795">
        <ele>187.138077</ele>
        <time>2026-07-07T08:08:06.000Z</time>
      </trkpt>
      <trkpt lat="48.19185" lon="16.4079">
        <ele>187.142557</ele>
        <time>2026-07-07T08:08:07.000Z</time>
      </trkpt>
      <trkpt lat="48.19182" lon="16.40786">
        <ele>187.147156</ele>
        <time>2026-07-07T08:08:08.000Z</time>
      </trkpt>
      <trkpt lat="48.19179" lon="16.40781">
        <ele>187.151362</ele>
        <time>2026-07-07T08:08:09.000Z</time>
      </trkpt>
      <trkpt lat="48.19175" lon="16.40776">
        <ele>187.155832</ele>
        <time>2026-07-07T08:08:10.000Z</time>
      </trkpt>
      <trkpt lat="48.19172" lon="16.40772">
        <ele>187.159855</ele>
        <time>2026-07-07T08:08:11.000Z</time>
      </trkpt>
      <trkpt lat="48.19169" lon="16.40768">
        <ele>187.163662</ele>
        <time>2026-07-07T08:08:12.000Z</time>
      </trkpt>
      <trkpt lat="48.19167" lon="16.40765">
        <ele>187.206564</ele>
        <time>2026-07-07T08:08:13.000Z</time>
      </trkpt>
      <trkpt lat="48.19165" lon="16.40762">
        <ele>187.2543</ele>
        <time>2026-07-07T08:08:14.000Z</time>
      </trkpt>
      <trkpt lat="48.19163" lon="16.4076">
        <ele>187.294886</ele>
        <time>2026-07-07T08:08:15.000Z</time>
      </trkpt>
      <trkpt lat="48.19161" lon="16.40757">
        <ele>187.331171</ele>
        <time>2026-07-07T08:08:16.000Z</time>
      </trkpt>
      <trkpt lat="48.1916" lon="16.40755">
        <ele>187.368269</ele>
        <time>2026-07-07T08:08:17.000Z</time>
      </trkpt>
      <trkpt lat="48.19158" lon="16.40753">
        <ele>187.400255</ele>
        <time>2026-07-07T08:08:18.000Z</time>
      </trkpt>
      <trkpt lat="48.19157" lon="16.40751">
        <ele>187.434714</ele>
        <time>2026-07-07T08:08:19.000Z</time>
      </trkpt>
      <trkpt lat="48.19155" lon="16.40749">
        <ele>187.476175</ele>
        <time>2026-07-07T08:08:20.000Z</time>
      </trkpt>
      <trkpt lat="48.19152" lon="16.40748">
        <ele>187.520724</ele>
        <time>2026-07-07T08:08:21.000Z</time>
      </trkpt>
      <trkpt lat="48.19149" lon="16.40746">
        <ele>187.574182</ele>
        <time>2026-07-07T08:08:22.000Z</time>
      </trkpt>
      <trkpt lat="48.19146" lon="16.40744">
        <ele>187.625028</ele>
        <time>2026-07-07T08:08:23.000Z</time>
      </trkpt>
      <trkpt lat="48.19143" lon="16.40741">
        <ele>187.684722</ele>
        <time>2026-07-07T08:08:24.000Z</time>
      </trkpt>
      <trkpt lat="48.1914" lon="16.40738">
        <ele>187.743637</ele>
        <time>2026-07-07T08:08:25.000Z</time>
      </trkpt>
      <trkpt lat="48.19137" lon="16.40734">
        <ele>187.808818</ele>
        <time>2026-07-07T08:08:26.000Z</time>
      </trkpt>
      <trkpt lat="48.19135" lon="16.4073">
        <ele>187.872848</ele>
        <time>2026-07-07T08:08:27.000Z</time>
      </trkpt>
      <trkpt lat="48.19132" lon="16.40725">
        <ele>187.938808</ele>
        <time>2026-07-07T08:08:28.000Z</time>
      </trkpt>
      <trkpt lat="48.1913" lon="16.40721">
        <ele>188.004269</ele>
        <time>2026-07-07T08:08:29.000Z</time>
      </trkpt>
      <trkpt lat="48.19127" lon="16.40716">
        <ele>188.068878</ele>
        <time>2026-07-07T08:08:30.000Z</time>
      </trkpt>
      <trkpt lat="48.19124" lon="16.40712">
        <ele>188.133233</ele>
        <time>2026-07-07T08:08:31.000Z</time>
      </trkpt>
      <trkpt lat="48.19121" lon="16.40708">
        <ele>188.199641</ele>
        <time>2026-07-07T08:08:32.000Z</time>
      </trkpt>
      <trkpt lat="48.19118" lon="16.40704">
        <ele>188.267296</ele>
        <time>2026-07-07T08:08:33.000Z</time>
      </trkpt>
      <trkpt lat="48.19115" lon="16.407">
        <ele>188.332477</ele>
        <time>2026-07-07T08:08:34.000Z</time>
      </trkpt>
      <trkpt lat="48.19113" lon="16.40696">
        <ele>188.397086</ele>
        <time>2026-07-07T08:08:35.000Z</time>
      </trkpt>
      <trkpt lat="48.19111" lon="16.40691">
        <ele>188.46409</ele>
        <time>2026-07-07T08:08:36.000Z</time>
      </trkpt>
      <trkpt lat="48.19108" lon="16.40685">
        <ele>188.532019</ele>
        <time>2026-07-07T08:08:37.000Z</time>
      </trkpt>
      <trkpt lat="48.19106" lon="16.4068">
        <ele>188.605442</ele>
        <time>2026-07-07T08:08:38.000Z</time>
      </trkpt>
      <trkpt lat="48.19104" lon="16.40674">
        <ele>188.679432</ele>
        <time>2026-07-07T08:08:39.000Z</time>
      </trkpt>
      <trkpt lat="48.19102" lon="16.40668">
        <ele>188.753422</ele>
        <time>2026-07-07T08:08:40.000Z</time>
      </trkpt>
      <trkpt lat="48.191" lon="16.40662">
        <ele>188.83072</ele>
        <time>2026-07-07T08:08:41.000Z</time>
      </trkpt>
      <trkpt lat="48.19097" lon="16.40656">
        <ele>188.907828</ele>
        <time>2026-07-07T08:08:42.000Z</time>
      </trkpt>
      <trkpt lat="48.19094" lon="16.4065">
        <ele>188.989516</ele>
        <time>2026-07-07T08:08:43.000Z</time>
      </trkpt>
      <trkpt lat="48.19091" lon="16.40644">
        <ele>189.076372</ele>
        <time>2026-07-07T08:08:44.000Z</time>
      </trkpt>
      <trkpt lat="48.19088" lon="16.40638">
        <ele>189.155303</ele>
        <time>2026-07-07T08:08:45.000Z</time>
      </trkpt>
      <trkpt lat="48.19085" lon="16.40632">
        <ele>189.237045</ele>
        <time>2026-07-07T08:08:46.000Z</time>
      </trkpt>
      <trkpt lat="48.19083" lon="16.40626">
        <ele>189.317827</ele>
        <time>2026-07-07T08:08:47.000Z</time>
      </trkpt>
      <trkpt lat="48.1908" lon="16.40619">
        <ele>189.401365</ele>
        <time>2026-07-07T08:08:48.000Z</time>
      </trkpt>
      <trkpt lat="48.19078" lon="16.40613">
        <ele>189.482532</ele>
        <time>2026-07-07T08:08:49.000Z</time>
      </trkpt>
      <trkpt lat="48.19075" lon="16.40607">
        <ele>189.558871</ele>
        <time>2026-07-07T08:08:50.000Z</time>
      </trkpt>
      <trkpt lat="48.19073" lon="16.40601">
        <ele>189.63385</ele>
        <time>2026-07-07T08:08:51.000Z</time>
      </trkpt>
      <trkpt lat="48.19071" lon="16.40595">
        <ele>189.706856</ele>
        <time>2026-07-07T08:08:52.000Z</time>
      </trkpt>
      <trkpt lat="48.19069" lon="16.40589">
        <ele>189.780459</ele>
        <time>2026-07-07T08:08:53.000Z</time>
      </trkpt>
      <trkpt lat="48.19067" lon="16.40583">
        <ele>189.854449</ele>
        <time>2026-07-07T08:08:54.000Z</time>
      </trkpt>
      <trkpt lat="48.19065" lon="16.40578">
        <ele>189.926061</ele>
        <time>2026-07-07T08:08:55.000Z</time>
      </trkpt>
      <trkpt lat="48.19062" lon="16.40572">
        <ele>190.004087</ele>
        <time>2026-07-07T08:08:56.000Z</time>
      </trkpt>
      <trkpt lat="48.19059" lon="16.40566">
        <ele>190.082469</ele>
        <time>2026-07-07T08:08:57.000Z</time>
      </trkpt>
      <trkpt lat="48.19056" lon="16.40561">
        <ele>190.161186</ele>
        <time>2026-07-07T08:08:58.000Z</time>
      </trkpt>
      <trkpt lat="48.19054" lon="16.40557">
        <ele>190.278041</ele>
        <time>2026-07-07T08:08:59.000Z</time>
      </trkpt>
      <trkpt lat="48.1905" lon="16.40552">
        <ele>190.410234</ele>
        <time>2026-07-07T08:09:00.000Z</time>
      </trkpt>
      <trkpt lat="48.19047" lon="16.40548">
        <ele>190.519043</ele>
        <time>2026-07-07T08:09:01.000Z</time>
      </trkpt>
      <trkpt lat="48.19045" lon="16.40545">
        <ele>190.612754</ele>
        <time>2026-07-07T08:09:02.000Z</time>
      </trkpt>
      <trkpt lat="48.19042" lon="16.40541">
        <ele>190.719888</ele>
        <time>2026-07-07T08:09:03.000Z</time>
      </trkpt>
      <trkpt lat="48.19039" lon="16.40538">
        <ele>190.806577</ele>
        <time>2026-07-07T08:09:04.000Z</time>
      </trkpt>
      <trkpt lat="48.19037" lon="16.40536">
        <ele>190.886506</ele>
        <time>2026-07-07T08:09:05.000Z</time>
      </trkpt>
      <trkpt lat="48.19035" lon="16.40534">
        <ele>190.964293</ele>
        <time>2026-07-07T08:09:06.000Z</time>
      </trkpt>
      <trkpt lat="48.19033" lon="16.40531">
        <ele>191.035415</ele>
        <time>2026-07-07T08:09:07.000Z</time>
      </trkpt>
      <trkpt lat="48.19031" lon="16.40529">
        <ele>191.096493</ele>
        <time>2026-07-07T08:09:08.000Z</time>
      </trkpt>
      <trkpt lat="48.1903" lon="16.40527">
        <ele>191.158466</ele>
        <time>2026-07-07T08:09:09.000Z</time>
      </trkpt>
      <trkpt lat="48.19028" lon="16.40525">
        <ele>191.221501</ele>
        <time>2026-07-07T08:09:10.000Z</time>
      </trkpt>
      <trkpt lat="48.19026" lon="16.40522">
        <ele>191.305168</ele>
        <time>2026-07-07T08:09:11.000Z</time>
      </trkpt>
      <trkpt lat="48.19023" lon="16.40518">
        <ele>191.397365</ele>
        <time>2026-07-07T08:09:12.000Z</time>
      </trkpt>
      <trkpt lat="48.19021" lon="16.40515">
        <ele>191.493597</ele>
        <time>2026-07-07T08:09:13.000Z</time>
      </trkpt>
      <trkpt lat="48.19018" lon="16.40511">
        <ele>191.599076</ele>
        <time>2026-07-07T08:09:14.000Z</time>
      </trkpt>
      <trkpt lat="48.19016" lon="16.40507">
        <ele>191.699601</ele>
        <time>2026-07-07T08:09:15.000Z</time>
      </trkpt>
      <trkpt lat="48.19013" lon="16.40503">
        <ele>191.80523</ele>
        <time>2026-07-07T08:09:16.000Z</time>
      </trkpt>
      <trkpt lat="48.19011" lon="16.40499">
        <ele>191.908142</ele>
        <time>2026-07-07T08:09:17.000Z</time>
      </trkpt>
      <trkpt lat="48.19008" lon="16.40495">
        <ele>192.018636</ele>
        <time>2026-07-07T08:09:18.000Z</time>
      </trkpt>
      <trkpt lat="48.19005" lon="16.40492">
        <ele>192.119056</ele>
        <time>2026-07-07T08:09:19.000Z</time>
      </trkpt>
      <trkpt lat="48.19002" lon="16.40488">
        <ele>192.222646</ele>
        <time>2026-07-07T08:09:20.000Z</time>
      </trkpt>
      <trkpt lat="48.18999" lon="16.40486">
        <ele>192.322075</ele>
        <time>2026-07-07T08:09:21.000Z</time>
      </trkpt>
      <trkpt lat="48.18996" lon="16.40483">
        <ele>192.421504</ele>
        <time>2026-07-07T08:09:22.000Z</time>
      </trkpt>
      <trkpt lat="48.18993" lon="16.4048">
        <ele>192.52913</ele>
        <time>2026-07-07T08:09:23.000Z</time>
      </trkpt>
      <trkpt lat="48.18989" lon="16.40477">
        <ele>192.635321</ele>
        <time>2026-07-07T08:09:24.000Z</time>
      </trkpt>
      <trkpt lat="48.18986" lon="16.40473">
        <ele>192.752392</ele>
        <time>2026-07-07T08:09:25.000Z</time>
      </trkpt>
      <trkpt lat="48.18983" lon="16.40469">
        <ele>192.865344</ele>
        <time>2026-07-07T08:09:26.000Z</time>
      </trkpt>
      <trkpt lat="48.1898" lon="16.40465">
        <ele>192.984733</ele>
        <time>2026-07-07T08:09:27.000Z</time>
      </trkpt>
      <trkpt lat="48.18977" lon="16.4046">
        <ele>193.104387</ele>
        <time>2026-07-07T08:09:28.000Z</time>
      </trkpt>
      <trkpt lat="48.18974" lon="16.40455">
        <ele>193.228719</ele>
        <time>2026-07-07T08:09:29.000Z</time>
      </trkpt>
      <trkpt lat="48.18971" lon="16.4045">
        <ele>193.350791</ele>
        <time>2026-07-07T08:09:30.000Z</time>
      </trkpt>
      <trkpt lat="48.18969" lon="16.40445">
        <ele>193.46904</ele>
        <time>2026-07-07T08:09:31.000Z</time>
      </trkpt>
      <trkpt lat="48.18965" lon="16.40441">
        <ele>193.592048</ele>
        <time>2026-07-07T08:09:32.000Z</time>
      </trkpt>
      <trkpt lat="48.18962" lon="16.40437">
        <ele>193.708815</ele>
        <time>2026-07-07T08:09:33.000Z</time>
      </trkpt>
      <trkpt lat="48.18959" lon="16.40432">
        <ele>193.828205</ele>
        <time>2026-07-07T08:09:34.000Z</time>
      </trkpt>
      <trkpt lat="48.18956" lon="16.40428">
        <ele>193.947595</ele>
        <time>2026-07-07T08:09:35.000Z</time>
      </trkpt>
      <trkpt lat="48.18953" lon="16.40423">
        <ele>194.065011</ele>
        <time>2026-07-07T08:09:36.000Z</time>
      </trkpt>
      <trkpt lat="48.18951" lon="16.40419">
        <ele>194.177811</ele>
        <time>2026-07-07T08:09:37.000Z</time>
      </trkpt>
      <trkpt lat="48.18948" lon="16.40415">
        <ele>194.290763</ele>
        <time>2026-07-07T08:09:38.000Z</time>
      </trkpt>
      <trkpt lat="48.18945" lon="16.40411">
        <ele>194.39092</ele>
        <time>2026-07-07T08:09:39.000Z</time>
      </trkpt>
      <trkpt lat="48.18943" lon="16.40407">
        <ele>194.489229</ele>
        <time>2026-07-07T08:09:40.000Z</time>
      </trkpt>
      <trkpt lat="48.1894" lon="16.40404">
        <ele>194.589649</ele>
        <time>2026-07-07T08:09:41.000Z</time>
      </trkpt>
      <trkpt lat="48.18937" lon="16.40402">
        <ele>194.678597</ele>
        <time>2026-07-07T08:09:42.000Z</time>
      </trkpt>
      <trkpt lat="48.18935" lon="16.40398">
        <ele>194.775431</ele>
        <time>2026-07-07T08:09:43.000Z</time>
      </trkpt>
      <trkpt lat="48.18932" lon="16.40395">
        <ele>194.872953</ele>
        <time>2026-07-07T08:09:44.000Z</time>
      </trkpt>
      <trkpt lat="48.18931" lon="16.40391">
        <ele>194.959052</ele>
        <time>2026-07-07T08:09:45.000Z</time>
      </trkpt>
      <trkpt lat="48.18931" lon="16.40387">
        <ele>195.029877</ele>
        <time>2026-07-07T08:09:46.000Z</time>
      </trkpt>
      <trkpt lat="48.18932" lon="16.40383">
        <ele>195.10876</ele>
        <time>2026-07-07T08:09:47.000Z</time>
      </trkpt>
      <trkpt lat="48.18934" lon="16.4038">
        <ele>195.19469</ele>
        <time>2026-07-07T08:09:48.000Z</time>
      </trkpt>
      <trkpt lat="48.18936" lon="16.40376">
        <ele>195.250348</ele>
        <time>2026-07-07T08:09:49.000Z</time>
      </trkpt>
      <trkpt lat="48.18938" lon="16.40372">
        <ele>195.311654</ele>
        <time>2026-07-07T08:09:50.000Z</time>
      </trkpt>
      <trkpt lat="48.1894" lon="16.40368">
        <ele>195.370091</ele>
        <time>2026-07-07T08:09:51.000Z</time>
      </trkpt>
      <trkpt lat="48.18943" lon="16.40364">
        <ele>195.432714</ele>
        <time>2026-07-07T08:09:52.000Z</time>
      </trkpt>
      <trkpt lat="48.18945" lon="16.40359">
        <ele>195.497654</ele>
        <time>2026-07-07T08:09:53.000Z</time>
      </trkpt>
      <trkpt lat="48.18947" lon="16.40355">
        <ele>195.563139</ele>
        <time>2026-07-07T08:09:54.000Z</time>
      </trkpt>
      <trkpt lat="48.1895" lon="16.4035">
        <ele>195.629282</ele>
        <time>2026-07-07T08:09:55.000Z</time>
      </trkpt>
      <trkpt lat="48.18952" lon="16.40345">
        <ele>195.700906</ele>
        <time>2026-07-07T08:09:56.000Z</time>
      </trkpt>
      <trkpt lat="48.18955" lon="16.4034">
        <ele>195.772641</ele>
        <time>2026-07-07T08:09:57.000Z</time>
      </trkpt>
      <trkpt lat="48.18957" lon="16.40336">
        <ele>195.837722</ele>
        <time>2026-07-07T08:09:58.000Z</time>
      </trkpt>
      <trkpt lat="48.18959" lon="16.40331">
        <ele>195.906733</ele>
        <time>2026-07-07T08:09:59.000Z</time>
      </trkpt>
      <trkpt lat="48.18961" lon="16.40325">
        <ele>195.977357</ele>
        <time>2026-07-07T08:10:00.000Z</time>
      </trkpt>
      <trkpt lat="48.18963" lon="16.4032">
        <ele>196.046261</ele>
        <time>2026-07-07T08:10:01.000Z</time>
      </trkpt>
      <trkpt lat="48.18965" lon="16.40315">
        <ele>196.115164</ele>
        <time>2026-07-07T08:10:02.000Z</time>
      </trkpt>
      <trkpt lat="48.18968" lon="16.40311">
        <ele>196.184154</ele>
        <time>2026-07-07T08:10:03.000Z</time>
      </trkpt>
      <trkpt lat="48.18971" lon="16.40306">
        <ele>196.255363</ele>
        <time>2026-07-07T08:10:04.000Z</time>
      </trkpt>
      <trkpt lat="48.18973" lon="16.40302">
        <ele>196.321508</ele>
        <time>2026-07-07T08:10:05.000Z</time>
      </trkpt>
      <trkpt lat="48.18976" lon="16.40298">
        <ele>196.383892</ele>
        <time>2026-07-07T08:10:06.000Z</time>
      </trkpt>
      <trkpt lat="48.18978" lon="16.40293">
        <ele>196.451123</ele>
        <time>2026-07-07T08:10:07.000Z</time>
      </trkpt>
      <trkpt lat="48.18981" lon="16.40288">
        <ele>196.524707</ele>
        <time>2026-07-07T08:10:08.000Z</time>
      </trkpt>
      <trkpt lat="48.18983" lon="16.40283">
        <ele>196.594193</ele>
        <time>2026-07-07T08:10:09.000Z</time>
      </trkpt>
      <trkpt lat="48.18986" lon="16.40279">
        <ele>196.660822</ele>
        <time>2026-07-07T08:10:10.000Z</time>
      </trkpt>
      <trkpt lat="48.18988" lon="16.40275">
        <ele>196.723753</ele>
        <time>2026-07-07T08:10:11.000Z</time>
      </trkpt>
      <trkpt lat="48.18991" lon="16.40271">
        <ele>196.793239</ele>
        <time>2026-07-07T08:10:12.000Z</time>
      </trkpt>
      <trkpt lat="48.18993" lon="16.40265">
        <ele>196.867756</ele>
        <time>2026-07-07T08:10:13.000Z</time>
      </trkpt>
      <trkpt lat="48.18995" lon="16.40259">
        <ele>196.9409</ele>
        <time>2026-07-07T08:10:14.000Z</time>
      </trkpt>
      <trkpt lat="48.18998" lon="16.40255">
        <ele>197.004672</ele>
        <time>2026-07-07T08:10:15.000Z</time>
      </trkpt>
      <trkpt lat="48.19" lon="16.40251">
        <ele>197.069296</ele>
        <time>2026-07-07T08:10:16.000Z</time>
      </trkpt>
      <trkpt lat="48.19003" lon="16.40247">
        <ele>197.13168</ele>
        <time>2026-07-07T08:10:17.000Z</time>
      </trkpt>
      <trkpt lat="48.19005" lon="16.40243">
        <ele>197.192955</ele>
        <time>2026-07-07T08:10:18.000Z</time>
      </trkpt>
      <trkpt lat="48.19007" lon="16.40239">
        <ele>197.253133</ele>
        <time>2026-07-07T08:10:19.000Z</time>
      </trkpt>
      <trkpt lat="48.19009" lon="16.40234">
        <ele>197.316259</ele>
        <time>2026-07-07T08:10:20.000Z</time>
      </trkpt>
      <trkpt lat="48.19011" lon="16.4023">
        <ele>197.377438</ele>
        <time>2026-07-07T08:10:21.000Z</time>
      </trkpt>
      <trkpt lat="48.19014" lon="16.40226">
        <ele>197.436955</ele>
        <time>2026-07-07T08:10:22.000Z</time>
      </trkpt>
      <trkpt lat="48.19016" lon="16.40223">
        <ele>197.492166</ele>
        <time>2026-07-07T08:10:23.000Z</time>
      </trkpt>
      <trkpt lat="48.19018" lon="16.40219">
        <ele>197.543353</ele>
        <time>2026-07-07T08:10:24.000Z</time>
      </trkpt>
      <trkpt lat="48.1902" lon="16.40216">
        <ele>197.593184</ele>
        <time>2026-07-07T08:10:25.000Z</time>
      </trkpt>
      <trkpt lat="48.19021" lon="16.40213">
        <ele>197.642122</ele>
        <time>2026-07-07T08:10:26.000Z</time>
      </trkpt>
      <trkpt lat="48.19023" lon="16.40209">
        <ele>197.689988</ele>
        <time>2026-07-07T08:10:27.000Z</time>
      </trkpt>
      <trkpt lat="48.19025" lon="16.40206">
        <ele>197.746891</ele>
        <time>2026-07-07T08:10:28.000Z</time>
      </trkpt>
      <trkpt lat="48.19027" lon="16.40201">
        <ele>197.806131</ele>
        <time>2026-07-07T08:10:29.000Z</time>
      </trkpt>
      <trkpt lat="48.19029" lon="16.40197">
        <ele>197.865473</ele>
        <time>2026-07-07T08:10:30.000Z</time>
      </trkpt>
      <trkpt lat="48.19032" lon="16.40193">
        <ele>197.924109</ele>
        <time>2026-07-07T08:10:31.000Z</time>
      </trkpt>
      <trkpt lat="48.19034" lon="16.4019">
        <ele>197.980161</ele>
        <time>2026-07-07T08:10:32.000Z</time>
      </trkpt>
      <trkpt lat="48.19036" lon="16.40186">
        <ele>198.0377</ele>
        <time>2026-07-07T08:10:33.000Z</time>
      </trkpt>
      <trkpt lat="48.19038" lon="16.40182">
        <ele>198.093268</ele>
        <time>2026-07-07T08:10:34.000Z</time>
      </trkpt>
      <trkpt lat="48.1904" lon="16.40178">
        <ele>198.147939</ele>
        <time>2026-07-07T08:10:35.000Z</time>
      </trkpt>
      <trkpt lat="48.19042" lon="16.40175">
        <ele>198.202457</ele>
        <time>2026-07-07T08:10:36.000Z</time>
      </trkpt>
      <trkpt lat="48.19043" lon="16.40171">
        <ele>198.255996</ele>
        <time>2026-07-07T08:10:37.000Z</time>
      </trkpt>
      <trkpt lat="48.19045" lon="16.40167">
        <ele>198.303177</ele>
        <time>2026-07-07T08:10:38.000Z</time>
      </trkpt>
      <trkpt lat="48.19046" lon="16.40163">
        <ele>198.336686</ele>
        <time>2026-07-07T08:10:39.000Z</time>
      </trkpt>
      <trkpt lat="48.19048" lon="16.40159">
        <ele>198.368349</ele>
        <time>2026-07-07T08:10:40.000Z</time>
      </trkpt>
      <trkpt lat="48.19049" lon="16.40155">
        <ele>198.399814</ele>
        <time>2026-07-07T08:10:41.000Z</time>
      </trkpt>
      <trkpt lat="48.19049" lon="16.40152">
        <ele>198.428052</ele>
        <time>2026-07-07T08:10:42.000Z</time>
      </trkpt>
      <trkpt lat="48.1905" lon="16.40149">
        <ele>198.451338</ele>
        <time>2026-07-07T08:10:43.000Z</time>
      </trkpt>
      <trkpt lat="48.19051" lon="16.40147">
        <ele>198.475035</ele>
        <time>2026-07-07T08:10:44.000Z</time>
      </trkpt>
      <trkpt lat="48.19051" lon="16.40143">
        <ele>198.499131</ele>
        <time>2026-07-07T08:10:45.000Z</time>
      </trkpt>
      <trkpt lat="48.1905" lon="16.40139">
        <ele>198.532849</ele>
        <time>2026-07-07T08:10:46.000Z</time>
      </trkpt>
      <trkpt lat="48.19048" lon="16.40135">
        <ele>198.57132</ele>
        <time>2026-07-07T08:10:47.000Z</time>
      </trkpt>
      <trkpt lat="48.19045" lon="16.40131">
        <ele>198.612608</ele>
        <time>2026-07-07T08:10:48.000Z</time>
      </trkpt>
      <trkpt lat="48.19043" lon="16.40128">
        <ele>198.653611</ele>
        <time>2026-07-07T08:10:49.000Z</time>
      </trkpt>
      <trkpt lat="48.1904" lon="16.40124">
        <ele>198.693919</ele>
        <time>2026-07-07T08:10:50.000Z</time>
      </trkpt>
      <trkpt lat="48.19038" lon="16.40122">
        <ele>198.724731</ele>
        <time>2026-07-07T08:10:51.000Z</time>
      </trkpt>
      <trkpt lat="48.19036" lon="16.4012">
        <ele>198.74896</ele>
        <time>2026-07-07T08:10:52.000Z</time>
      </trkpt>
      <trkpt lat="48.19035" lon="16.40117">
        <ele>198.777198</ele>
        <time>2026-07-07T08:10:53.000Z</time>
      </trkpt>
      <trkpt lat="48.19033" lon="16.40114">
        <ele>198.805717</ele>
        <time>2026-07-07T08:10:54.000Z</time>
      </trkpt>
      <trkpt lat="48.19031" lon="16.40111">
        <ele>198.834796</ele>
        <time>2026-07-07T08:10:55.000Z</time>
      </trkpt>
      <trkpt lat="48.1903" lon="16.40107">
        <ele>198.864966</ele>
        <time>2026-07-07T08:10:56.000Z</time>
      </trkpt>
      <trkpt lat="48.19028" lon="16.40104">
        <ele>198.899427</ele>
        <time>2026-07-07T08:10:57.000Z</time>
      </trkpt>
      <trkpt lat="48.19027" lon="16.401">
        <ele>198.933918</ele>
        <time>2026-07-07T08:10:58.000Z</time>
      </trkpt>
      <trkpt lat="48.19024" lon="16.40097">
        <ele>198.971871</ele>
        <time>2026-07-07T08:10:59.000Z</time>
      </trkpt>
      <trkpt lat="48.19022" lon="16.40094">
        <ele>199.003955</ele>
        <time>2026-07-07T08:11:00.000Z</time>
      </trkpt>
      <trkpt lat="48.1902" lon="16.40092">
        <ele>199.03153</ele>
        <time>2026-07-07T08:11:01.000Z</time>
      </trkpt>
      <trkpt lat="48.19018" lon="16.40091">
        <ele>199.056788</ele>
        <time>2026-07-07T08:11:02.000Z</time>
      </trkpt>
      <trkpt lat="48.19015" lon="16.40089">
        <ele>199.091818</ele>
        <time>2026-07-07T08:11:03.000Z</time>
      </trkpt>
      <trkpt lat="48.19012" lon="16.40087">
        <ele>199.129537</ele>
        <time>2026-07-07T08:11:04.000Z</time>
      </trkpt>
      <trkpt lat="48.19009" lon="16.40084">
        <ele>199.169055</ele>
        <time>2026-07-07T08:11:05.000Z</time>
      </trkpt>
      <trkpt lat="48.19005" lon="16.40081">
        <ele>199.212162</ele>
        <time>2026-07-07T08:11:06.000Z</time>
      </trkpt>
      <trkpt lat="48.19002" lon="16.40079">
        <ele>199.256972</ele>
        <time>2026-07-07T08:11:07.000Z</time>
      </trkpt>
      <trkpt lat="48.18998" lon="16.40076">
        <ele>199.300426</ele>
        <time>2026-07-07T08:11:08.000Z</time>
      </trkpt>
      <trkpt lat="48.18995" lon="16.40073">
        <ele>199.345232</ele>
        <time>2026-07-07T08:11:09.000Z</time>
      </trkpt>
      <trkpt lat="48.18991" lon="16.40071">
        <ele>199.392101</ele>
        <time>2026-07-07T08:11:10.000Z</time>
      </trkpt>
      <trkpt lat="48.18987" lon="16.40068">
        <ele>199.437635</ele>
        <time>2026-07-07T08:11:11.000Z</time>
      </trkpt>
      <trkpt lat="48.18984" lon="16.40066">
        <ele>199.482445</ele>
        <time>2026-07-07T08:11:12.000Z</time>
      </trkpt>
      <trkpt lat="48.1898" lon="16.40063">
        <ele>199.528282</ele>
        <time>2026-07-07T08:11:13.000Z</time>
      </trkpt>
      <trkpt lat="48.18976" lon="16.40061">
        <ele>199.575459</ele>
        <time>2026-07-07T08:11:14.000Z</time>
      </trkpt>
      <trkpt lat="48.18972" lon="16.40058">
        <ele>199.625642</ele>
        <time>2026-07-07T08:11:15.000Z</time>
      </trkpt>
      <trkpt lat="48.18968" lon="16.40055">
        <ele>199.67622</ele>
        <time>2026-07-07T08:11:16.000Z</time>
      </trkpt>
      <trkpt lat="48.18965" lon="16.40052">
        <ele>199.723714</ele>
        <time>2026-07-07T08:11:17.000Z</time>
      </trkpt>
      <trkpt lat="48.1896" lon="16.40049">
        <ele>199.776259</ele>
        <time>2026-07-07T08:11:18.000Z</time>
      </trkpt>
      <trkpt lat="48.18957" lon="16.40046">
        <ele>199.822064</ele>
        <time>2026-07-07T08:11:19.000Z</time>
      </trkpt>
      <trkpt lat="48.18953" lon="16.40043">
        <ele>199.870903</ele>
        <time>2026-07-07T08:11:20.000Z</time>
      </trkpt>
      <trkpt lat="48.18949" lon="16.4004">
        <ele>199.922835</ele>
        <time>2026-07-07T08:11:21.000Z</time>
      </trkpt>
      <trkpt lat="48.18945" lon="16.40037">
        <ele>199.971695</ele>
        <time>2026-07-07T08:11:22.000Z</time>
      </trkpt>
      <trkpt lat="48.18941" lon="16.40033">
        <ele>200.025582</ele>
        <time>2026-07-07T08:11:23.000Z</time>
      </trkpt>
      <trkpt lat="48.18937" lon="16.4003">
        <ele>200.074087</ele>
        <time>2026-07-07T08:11:24.000Z</time>
      </trkpt>
      <trkpt lat="48.18933" lon="16.40027">
        <ele>200.122294</ele>
        <time>2026-07-07T08:11:25.000Z</time>
      </trkpt>
      <trkpt lat="48.1893" lon="16.40025">
        <ele>200.16205</ele>
        <time>2026-07-07T08:11:26.000Z</time>
      </trkpt>
      <trkpt lat="48.18926" lon="16.40022">
        <ele>200.212233</ele>
        <time>2026-07-07T08:11:27.000Z</time>
      </trkpt>
      <trkpt lat="48.18923" lon="16.40019">
        <ele>200.256789</ele>
        <time>2026-07-07T08:11:28.000Z</time>
      </trkpt>
      <trkpt lat="48.1892" lon="16.40016">
        <ele>200.29846</ele>
        <time>2026-07-07T08:11:29.000Z</time>
      </trkpt>
      <trkpt lat="48.18917" lon="16.40013">
        <ele>200.342749</ele>
        <time>2026-07-07T08:11:30.000Z</time>
      </trkpt>
      <trkpt lat="48.18914" lon="16.40011">
        <ele>200.415445</ele>
        <time>2026-07-07T08:11:31.000Z</time>
      </trkpt>
      <trkpt lat="48.18911" lon="16.40009">
        <ele>200.477784</ele>
        <time>2026-07-07T08:11:32.000Z</time>
      </trkpt>
      <trkpt lat="48.18909" lon="16.40007">
        <ele>200.527496</ele>
        <time>2026-07-07T08:11:33.000Z</time>
      </trkpt>
      <trkpt lat="48.18907" lon="16.40006">
        <ele>200.57684</ele>
        <time>2026-07-07T08:11:34.000Z</time>
      </trkpt>
      <trkpt lat="48.18905" lon="16.40004">
        <ele>200.628377</ele>
        <time>2026-07-07T08:11:35.000Z</time>
      </trkpt>
      <trkpt lat="48.18904" lon="16.40002">
        <ele>200.670196</ele>
        <time>2026-07-07T08:11:36.000Z</time>
      </trkpt>
      <trkpt lat="48.18902" lon="16.40001">
        <ele>200.711271</ele>
        <time>2026-07-07T08:11:37.000Z</time>
      </trkpt>
      <trkpt lat="48.189" lon="16.4">
        <ele>200.757166</ele>
        <time>2026-07-07T08:11:38.000Z</time>
      </trkpt>
      <trkpt lat="48.18898" lon="16.39998">
        <ele>200.804059</ele>
        <time>2026-07-07T08:11:39.000Z</time>
      </trkpt>
      <trkpt lat="48.18897" lon="16.39997">
        <ele>200.843811</ele>
        <time>2026-07-07T08:11:40.000Z</time>
      </trkpt>
      <trkpt lat="48.18895" lon="16.39997">
        <ele>200.874401</ele>
        <time>2026-07-07T08:11:41.000Z</time>
      </trkpt>
      <trkpt lat="48.18894" lon="16.39996">
        <ele>200.905188</ele>
        <time>2026-07-07T08:11:42.000Z</time>
      </trkpt>
      <trkpt lat="48.18893" lon="16.39996">
        <ele>200.927151</ele>
        <time>2026-07-07T08:11:43.000Z</time>
      </trkpt>
      <trkpt lat="48.18893" lon="16.39996">
        <ele>200.934297</ele>
        <time>2026-07-07T08:11:44.000Z</time>
      </trkpt>
      <trkpt lat="48.18887" lon="16.39993">
        <ele>201.059836</ele>
        <time>2026-07-07T08:11:54.000Z</time>
      </trkpt>
      <trkpt lat="48.18885" lon="16.39991">
        <ele>201.120848</ele>
        <time>2026-07-07T08:11:55.000Z</time>
      </trkpt>
      <trkpt lat="48.18882" lon="16.39989">
        <ele>201.189923</ele>
        <time>2026-07-07T08:11:56.000Z</time>
      </trkpt>
      <trkpt lat="48.18879" lon="16.39986">
        <ele>201.268415</ele>
        <time>2026-07-07T08:11:57.000Z</time>
      </trkpt>
      <trkpt lat="48.18876" lon="16.39983">
        <ele>201.345734</ele>
        <time>2026-07-07T08:11:58.000Z</time>
      </trkpt>
      <trkpt lat="48.18872" lon="16.3998">
        <ele>201.43278</ele>
        <time>2026-07-07T08:11:59.000Z</time>
      </trkpt>
      <trkpt lat="48.18869" lon="16.39978">
        <ele>201.517172</ele>
        <time>2026-07-07T08:12:00.000Z</time>
      </trkpt>
      <trkpt lat="48.18865" lon="16.39976">
        <ele>201.61043</ele>
        <time>2026-07-07T08:12:01.000Z</time>
      </trkpt>
      <trkpt lat="48.18861" lon="16.39973">
        <ele>201.703687</ele>
        <time>2026-07-07T08:12:02.000Z</time>
      </trkpt>
      <trkpt lat="48.18857" lon="16.39971">
        <ele>201.80153</ele>
        <time>2026-07-07T08:12:03.000Z</time>
      </trkpt>
      <trkpt lat="48.18853" lon="16.39968">
        <ele>201.895866</ele>
        <time>2026-07-07T08:12:04.000Z</time>
      </trkpt>
      <trkpt lat="48.18849" lon="16.39966">
        <ele>201.990769</ele>
        <time>2026-07-07T08:12:05.000Z</time>
      </trkpt>
      <trkpt lat="48.18845" lon="16.39963">
        <ele>202.086259</ele>
        <time>2026-07-07T08:12:06.000Z</time>
      </trkpt>
      <trkpt lat="48.18841" lon="16.3996">
        <ele>202.177795</ele>
        <time>2026-07-07T08:12:07.000Z</time>
      </trkpt>
      <trkpt lat="48.18837" lon="16.39957">
        <ele>202.273211</ele>
        <time>2026-07-07T08:12:08.000Z</time>
      </trkpt>
      <trkpt lat="48.18833" lon="16.39954">
        <ele>202.362864</ele>
        <time>2026-07-07T08:12:09.000Z</time>
      </trkpt>
      <trkpt lat="48.1883" lon="16.39951">
        <ele>202.454427</ele>
        <time>2026-07-07T08:12:10.000Z</time>
      </trkpt>
      <trkpt lat="48.18826" lon="16.39949">
        <ele>202.535574</ele>
        <time>2026-07-07T08:12:11.000Z</time>
      </trkpt>
      <trkpt lat="48.18823" lon="16.39946">
        <ele>202.616965</ele>
        <time>2026-07-07T08:12:12.000Z</time>
      </trkpt>
      <trkpt lat="48.1882" lon="16.39943">
        <ele>202.687902</ele>
        <time>2026-07-07T08:12:13.000Z</time>
      </trkpt>
      <trkpt lat="48.18817" lon="16.39941">
        <ele>202.760718</ele>
        <time>2026-07-07T08:12:14.000Z</time>
      </trkpt>
      <trkpt lat="48.18815" lon="16.39939">
        <ele>202.828868</ele>
        <time>2026-07-07T08:12:15.000Z</time>
      </trkpt>
      <trkpt lat="48.18812" lon="16.39936">
        <ele>202.899074</ele>
        <time>2026-07-07T08:12:16.000Z</time>
      </trkpt>
      <trkpt lat="48.18809" lon="16.39934">
        <ele>202.959561</ele>
        <time>2026-07-07T08:12:17.000Z</time>
      </trkpt>
      <trkpt lat="48.18807" lon="16.39932">
        <ele>203.011099</ele>
        <time>2026-07-07T08:12:18.000Z</time>
      </trkpt>
      <trkpt lat="48.18806" lon="16.39931">
        <ele>203.052917</ele>
        <time>2026-07-07T08:12:19.000Z</time>
      </trkpt>
      <trkpt lat="48.18805" lon="16.39929">
        <ele>203.088357</ele>
        <time>2026-07-07T08:12:20.000Z</time>
      </trkpt>
      <trkpt lat="48.18804" lon="16.39927">
        <ele>203.119357</ele>
        <time>2026-07-07T08:12:21.000Z</time>
      </trkpt>
      <trkpt lat="48.18804" lon="16.39925">
        <ele>203.151287</ele>
        <time>2026-07-07T08:12:22.000Z</time>
      </trkpt>
      <trkpt lat="48.18804" lon="16.39923">
        <ele>203.173166</ele>
        <time>2026-07-07T08:12:23.000Z</time>
      </trkpt>
      <trkpt lat="48.18805" lon="16.39922">
        <ele>203.185567</ele>
        <time>2026-07-07T08:12:24.000Z</time>
      </trkpt>
      <trkpt lat="48.18805" lon="16.39922">
        <ele>203.188469</ele>
        <time>2026-07-07T08:12:25.000Z</time>
      </trkpt>
      <trkpt lat="48.18807" lon="16.39913">
        <ele>203.33525</ele>
        <time>2026-07-07T08:12:31.000Z</time>
      </trkpt>
      <trkpt lat="48.18808" lon="16.39909">
        <ele>203.401346</ele>
        <time>2026-07-07T08:12:32.000Z</time>
      </trkpt>
      <trkpt lat="48.18809" lon="16.39904">
        <ele>203.47019</ele>
        <time>2026-07-07T08:12:33.000Z</time>
      </trkpt>
      <trkpt lat="48.18811" lon="16.39899">
        <ele>203.543235</ele>
        <time>2026-07-07T08:12:34.000Z</time>
      </trkpt>
      <trkpt lat="48.18812" lon="16.39895">
        <ele>203.615748</ele>
        <time>2026-07-07T08:12:35.000Z</time>
      </trkpt>
      <trkpt lat="48.18813" lon="16.3989">
        <ele>203.688767</ele>
        <time>2026-07-07T08:12:36.000Z</time>
      </trkpt>
      <trkpt lat="48.18814" lon="16.39886">
        <ele>203.760371</ele>
        <time>2026-07-07T08:12:37.000Z</time>
      </trkpt>
      <trkpt lat="48.18814" lon="16.39881">
        <ele>203.826582</ele>
        <time>2026-07-07T08:12:38.000Z</time>
      </trkpt>
      <trkpt lat="48.18812" lon="16.39878">
        <ele>203.878715</ele>
        <time>2026-07-07T08:12:39.000Z</time>
      </trkpt>
      <trkpt lat="48.18811" lon="16.39876">
        <ele>203.92314</ele>
        <time>2026-07-07T08:12:40.000Z</time>
      </trkpt>
      <trkpt lat="48.1881" lon="16.39876">
        <ele>203.940692</ele>
        <time>2026-07-07T08:12:41.000Z</time>
      </trkpt>
      <trkpt lat="48.1881" lon="16.39876">
        <ele>203.945046</ele>
        <time>2026-07-07T08:12:42.000Z</time>
      </trkpt>
      <trkpt lat="48.18803" lon="16.39869">
        <ele>204.129821</ele>
        <time>2026-07-07T08:13:22.000Z</time>
      </trkpt>
      <trkpt lat="48.18801" lon="16.39867">
        <ele>204.180456</ele>
        <time>2026-07-07T08:13:23.000Z</time>
      </trkpt>
      <trkpt lat="48.18798" lon="16.39865">
        <ele>204.242137</ele>
        <time>2026-07-07T08:13:24.000Z</time>
      </trkpt>
      <trkpt lat="48.18796" lon="16.39862">
        <ele>204.384755</ele>
        <time>2026-07-07T08:13:25.000Z</time>
      </trkpt>
      <trkpt lat="48.18793" lon="16.39859">
        <ele>204.541689</ele>
        <time>2026-07-07T08:13:26.000Z</time>
      </trkpt>
      <trkpt lat="48.1879" lon="16.39856">
        <ele>204.70954</ele>
        <time>2026-07-07T08:13:27.000Z</time>
      </trkpt>
      <trkpt lat="48.18787" lon="16.39852">
        <ele>204.867078</ele>
        <time>2026-07-07T08:13:28.000Z</time>
      </trkpt>
      <trkpt lat="48.18784" lon="16.39848">
        <ele>205.042718</ele>
        <time>2026-07-07T08:13:29.000Z</time>
      </trkpt>
      <trkpt lat="48.18782" lon="16.39845">
        <ele>205.207079</ele>
        <time>2026-07-07T08:13:30.000Z</time>
      </trkpt>
      <trkpt lat="48.18779" lon="16.39841">
        <ele>205.369984</ele>
        <time>2026-07-07T08:13:31.000Z</time>
      </trkpt>
      <trkpt lat="48.18776" lon="16.39838">
        <ele>205.522161</ele>
        <time>2026-07-07T08:13:32.000Z</time>
      </trkpt>
      <trkpt lat="48.18774" lon="16.39835">
        <ele>205.675749</ele>
        <time>2026-07-07T08:13:33.000Z</time>
      </trkpt>
      <trkpt lat="48.18771" lon="16.39831">
        <ele>205.832806</ele>
        <time>2026-07-07T08:13:34.000Z</time>
      </trkpt>
      <trkpt lat="48.18769" lon="16.39828">
        <ele>205.984983</ele>
        <time>2026-07-07T08:13:35.000Z</time>
      </trkpt>
      <trkpt lat="48.18766" lon="16.39824">
        <ele>206.145907</ele>
        <time>2026-07-07T08:13:36.000Z</time>
      </trkpt>
      <trkpt lat="48.18763" lon="16.39821">
        <ele>206.292178</ele>
        <time>2026-07-07T08:13:37.000Z</time>
      </trkpt>
      <trkpt lat="48.18761" lon="16.39818">
        <ele>206.440383</ele>
        <time>2026-07-07T08:13:38.000Z</time>
      </trkpt>
      <trkpt lat="48.18758" lon="16.39815">
        <ele>206.588588</ele>
        <time>2026-07-07T08:13:39.000Z</time>
      </trkpt>
      <trkpt lat="48.18756" lon="16.39812">
        <ele>206.736511</ele>
        <time>2026-07-07T08:13:40.000Z</time>
      </trkpt>
      <trkpt lat="48.18753" lon="16.39809">
        <ele>206.886685</ele>
        <time>2026-07-07T08:13:41.000Z</time>
      </trkpt>
      <trkpt lat="48.18751" lon="16.39805">
        <ele>207.043743</ele>
        <time>2026-07-07T08:13:42.000Z</time>
      </trkpt>
      <trkpt lat="48.18748" lon="16.39802">
        <ele>207.202482</ele>
        <time>2026-07-07T08:13:43.000Z</time>
      </trkpt>
      <trkpt lat="48.18745" lon="16.39799">
        <ele>207.35954</ele>
        <time>2026-07-07T08:13:44.000Z</time>
      </trkpt>
      <trkpt lat="48.18743" lon="16.39796">
        <ele>207.503914</ele>
        <time>2026-07-07T08:13:45.000Z</time>
      </trkpt>
      <trkpt lat="48.1874" lon="16.39793">
        <ele>207.65212</ele>
        <time>2026-07-07T08:13:46.000Z</time>
      </trkpt>
      <trkpt lat="48.18737" lon="16.39789">
        <ele>207.807296</ele>
        <time>2026-07-07T08:13:47.000Z</time>
      </trkpt>
      <trkpt lat="48.18735" lon="16.39786">
        <ele>207.953568</ele>
        <time>2026-07-07T08:13:48.000Z</time>
      </trkpt>
      <trkpt lat="48.18732" lon="16.39783">
        <ele>208.107781</ele>
        <time>2026-07-07T08:13:49.000Z</time>
      </trkpt>
      <trkpt lat="48.1873" lon="16.39779">
        <ele>208.266158</ele>
        <time>2026-07-07T08:13:50.000Z</time>
      </trkpt>
      <trkpt lat="48.18727" lon="16.39775">
        <ele>208.424534</ele>
        <time>2026-07-07T08:13:51.000Z</time>
      </trkpt>
      <trkpt lat="48.18725" lon="16.39772">
        <ele>208.585037</ele>
        <time>2026-07-07T08:13:52.000Z</time>
      </trkpt>
      <trkpt lat="48.18722" lon="16.39768">
        <ele>208.74554</ele>
        <time>2026-07-07T08:13:53.000Z</time>
      </trkpt>
      <trkpt lat="48.1872" lon="16.39764">
        <ele>208.904345</ele>
        <time>2026-07-07T08:13:54.000Z</time>
      </trkpt>
      <trkpt lat="48.18718" lon="16.3976">
        <ele>209.062722</ele>
        <time>2026-07-07T08:13:55.000Z</time>
      </trkpt>
      <trkpt lat="48.18715" lon="16.39757">
        <ele>209.223646</ele>
        <time>2026-07-07T08:13:56.000Z</time>
      </trkpt>
      <trkpt lat="48.18712" lon="16.39753">
        <ele>209.381186</ele>
        <time>2026-07-07T08:13:57.000Z</time>
      </trkpt>
      <trkpt lat="48.1871" lon="16.3975">
        <ele>209.53136</ele>
        <time>2026-07-07T08:13:58.000Z</time>
      </trkpt>
      <trkpt lat="48.18707" lon="16.39747">
        <ele>209.679566</ele>
        <time>2026-07-07T08:13:59.000Z</time>
      </trkpt>
      <trkpt lat="48.18705" lon="16.39743">
        <ele>209.834743</ele>
        <time>2026-07-07T08:14:00.000Z</time>
      </trkpt>
      <trkpt lat="48.18702" lon="16.3974">
        <ele>209.995667</ele>
        <time>2026-07-07T08:14:01.000Z</time>
      </trkpt>
      <trkpt lat="48.18699" lon="16.39736">
        <ele>210.155231</ele>
        <time>2026-07-07T08:14:02.000Z</time>
      </trkpt>
      <trkpt lat="48.18697" lon="16.39732">
        <ele>210.326363</ele>
        <time>2026-07-07T08:14:03.000Z</time>
      </trkpt>
      <trkpt lat="48.18693" lon="16.39728">
        <ele>210.515816</ele>
        <time>2026-07-07T08:14:04.000Z</time>
      </trkpt>
      <trkpt lat="48.1869" lon="16.39724">
        <ele>210.693478</ele>
        <time>2026-07-07T08:14:05.000Z</time>
      </trkpt>
      <trkpt lat="48.18687" lon="16.39721">
        <ele>210.864866</ele>
        <time>2026-07-07T08:14:06.000Z</time>
      </trkpt>
      <trkpt lat="48.18685" lon="16.39717">
        <ele>211.02443</ele>
        <time>2026-07-07T08:14:07.000Z</time>
      </trkpt>
      <trkpt lat="48.18682" lon="16.39714">
        <ele>211.195819</ele>
        <time>2026-07-07T08:14:08.000Z</time>
      </trkpt>
      <trkpt lat="48.18679" lon="16.3971">
        <ele>211.376826</ele>
        <time>2026-07-07T08:14:09.000Z</time>
      </trkpt>
      <trkpt lat="48.18676" lon="16.39706">
        <ele>211.558612</ele>
        <time>2026-07-07T08:14:10.000Z</time>
      </trkpt>
      <trkpt lat="48.18673" lon="16.39701">
        <ele>211.73932</ele>
        <time>2026-07-07T08:14:11.000Z</time>
      </trkpt>
      <trkpt lat="48.1867" lon="16.39697">
        <ele>211.924377</ele>
        <time>2026-07-07T08:14:12.000Z</time>
      </trkpt>
      <trkpt lat="48.18667" lon="16.39692">
        <ele>212.113587</ele>
        <time>2026-07-07T08:14:13.000Z</time>
      </trkpt>
      <trkpt lat="48.18664" lon="16.39688">
        <ele>212.294595</ele>
        <time>2026-07-07T08:14:14.000Z</time>
      </trkpt>
      <trkpt lat="48.18661" lon="16.39685">
        <ele>212.408923</ele>
        <time>2026-07-07T08:14:15.000Z</time>
      </trkpt>
      <trkpt lat="48.18658" lon="16.39681">
        <ele>212.486453</ele>
        <time>2026-07-07T08:14:16.000Z</time>
      </trkpt>
      <trkpt lat="48.18655" lon="16.39677">
        <ele>212.560942</ele>
        <time>2026-07-07T08:14:17.000Z</time>
      </trkpt>
      <trkpt lat="48.18652" lon="16.39674">
        <ele>212.636085</ele>
        <time>2026-07-07T08:14:18.000Z</time>
      </trkpt>
      <trkpt lat="48.1865" lon="16.3967">
        <ele>212.701488</ele>
        <time>2026-07-07T08:14:19.000Z</time>
      </trkpt>
      <trkpt lat="48.18648" lon="16.39667">
        <ele>212.762331</ele>
        <time>2026-07-07T08:14:20.000Z</time>
      </trkpt>
      <trkpt lat="48.18645" lon="16.39664">
        <ele>212.826431</ele>
        <time>2026-07-07T08:14:21.000Z</time>
      </trkpt>
      <trkpt lat="48.18643" lon="16.39661">
        <ele>212.887275</ele>
        <time>2026-07-07T08:14:22.000Z</time>
      </trkpt>
      <trkpt lat="48.1864" lon="16.39658">
        <ele>212.954348</ele>
        <time>2026-07-07T08:14:23.000Z</time>
      </trkpt>
      <trkpt lat="48.18638" lon="16.39655">
        <ele>213.016629</ele>
        <time>2026-07-07T08:14:24.000Z</time>
      </trkpt>
      <trkpt lat="48.18635" lon="16.39652">
        <ele>213.079716</ele>
        <time>2026-07-07T08:14:25.000Z</time>
      </trkpt>
      <trkpt lat="48.18633" lon="16.39649">
        <ele>213.137606</ele>
        <time>2026-07-07T08:14:26.000Z</time>
      </trkpt>
      <trkpt lat="48.18631" lon="16.39647">
        <ele>213.1983</ele>
        <time>2026-07-07T08:14:27.000Z</time>
      </trkpt>
      <trkpt lat="48.18629" lon="16.39644">
        <ele>213.252911</ele>
        <time>2026-07-07T08:14:28.000Z</time>
      </trkpt>
      <trkpt lat="48.18627" lon="16.39641">
        <ele>213.305643</ele>
        <time>2026-07-07T08:14:29.000Z</time>
      </trkpt>
      <trkpt lat="48.18626" lon="16.39638">
        <ele>213.356654</ele>
        <time>2026-07-07T08:14:30.000Z</time>
      </trkpt>
      <trkpt lat="48.18625" lon="16.39634">
        <ele>213.40784</ele>
        <time>2026-07-07T08:14:31.000Z</time>
      </trkpt>
      <trkpt lat="48.18625" lon="16.39631">
        <ele>213.452165</ele>
        <time>2026-07-07T08:14:32.000Z</time>
      </trkpt>
      <trkpt lat="48.18624" lon="16.39628">
        <ele>213.490275</ele>
        <time>2026-07-07T08:14:33.000Z</time>
      </trkpt>
      <trkpt lat="48.18624" lon="16.39626">
        <ele>213.521208</ele>
        <time>2026-07-07T08:14:34.000Z</time>
      </trkpt>
      <trkpt lat="48.18623" lon="16.39624">
        <ele>213.546772</ele>
        <time>2026-07-07T08:14:35.000Z</time>
      </trkpt>
      <trkpt lat="48.18623" lon="16.39624">
        <ele>213.558768</ele>
        <time>2026-07-07T08:14:36.000Z</time>
      </trkpt>
      <trkpt lat="48.18616" lon="16.39622">
        <ele>213.695966</ele>
        <time>2026-07-07T08:15:31.000Z</time>
      </trkpt>
      <trkpt lat="48.18614" lon="16.39622">
        <ele>213.734472</ele>
        <time>2026-07-07T08:15:32.000Z</time>
      </trkpt>
      <trkpt lat="48.18612" lon="16.3962">
        <ele>213.768407</ele>
        <time>2026-07-07T08:15:33.000Z</time>
      </trkpt>
      <trkpt lat="48.18611" lon="16.39619">
        <ele>213.797594</ele>
        <time>2026-07-07T08:15:34.000Z</time>
      </trkpt>
      <trkpt lat="48.18611" lon="16.39618">
        <ele>213.816427</ele>
        <time>2026-07-07T08:15:35.000Z</time>
      </trkpt>
      <trkpt lat="48.18611" lon="16.39617">
        <ele>213.82089</ele>
        <time>2026-07-07T08:15:36.000Z</time>
      </trkpt>
      <trkpt lat="48.18611" lon="16.39617">
        <ele>213.823552</ele>
        <time>2026-07-07T08:15:37.000Z</time>
      </trkpt>
      <trkpt lat="48.1861" lon="16.39612">
        <ele>213.890839</ele>
        <time>2026-07-07T08:15:43.000Z</time>
      </trkpt>
      <trkpt lat="48.1861" lon="16.39609">
        <ele>213.93759</ele>
        <time>2026-07-07T08:15:44.000Z</time>
      </trkpt>
      <trkpt lat="48.1861" lon="16.39605">
        <ele>213.985227</ele>
        <time>2026-07-07T08:15:45.000Z</time>
      </trkpt>
      <trkpt lat="48.18608" lon="16.39602">
        <ele>214.029526</ele>
        <time>2026-07-07T08:15:46.000Z</time>
      </trkpt>
      <trkpt lat="48.18607" lon="16.396">
        <ele>214.063016</ele>
        <time>2026-07-07T08:15:47.000Z</time>
      </trkpt>
      <trkpt lat="48.18606" lon="16.39599">
        <ele>214.094197</ele>
        <time>2026-07-07T08:15:48.000Z</time>
      </trkpt>
      <trkpt lat="48.18605" lon="16.39598">
        <ele>214.115861</ele>
        <time>2026-07-07T08:15:49.000Z</time>
      </trkpt>
      <trkpt lat="48.18605" lon="16.39597">
        <ele>214.135158</ele>
        <time>2026-07-07T08:15:50.000Z</time>
      </trkpt>
      <trkpt lat="48.18604" lon="16.39596">
        <ele>214.157743</ele>
        <time>2026-07-07T08:15:51.000Z</time>
      </trkpt>
      <trkpt lat="48.18603" lon="16.39594">
        <ele>214.183307</ele>
        <time>2026-07-07T08:15:52.000Z</time>
      </trkpt>
      <trkpt lat="48.18601" lon="16.39592">
        <ele>214.226435</ele>
        <time>2026-07-07T08:15:53.000Z</time>
      </trkpt>
      <trkpt lat="48.18599" lon="16.3959">
        <ele>214.272135</ele>
        <time>2026-07-07T08:15:54.000Z</time>
      </trkpt>
      <trkpt lat="48.18598" lon="16.39588">
        <ele>214.321104</ele>
        <time>2026-07-07T08:15:55.000Z</time>
      </trkpt>
      <trkpt lat="48.18596" lon="16.39585">
        <ele>214.370074</ele>
        <time>2026-07-07T08:15:56.000Z</time>
      </trkpt>
      <trkpt lat="48.18594" lon="16.39583">
        <ele>214.413202</ele>
        <time>2026-07-07T08:15:57.000Z</time>
      </trkpt>
      <trkpt lat="48.18592" lon="16.39581">
        <ele>214.456386</ele>
        <time>2026-07-07T08:15:58.000Z</time>
      </trkpt>
      <trkpt lat="48.18591" lon="16.3958">
        <ele>214.497171</ele>
        <time>2026-07-07T08:15:59.000Z</time>
      </trkpt>
      <trkpt lat="48.18589" lon="16.39578">
        <ele>214.53298</ele>
        <time>2026-07-07T08:16:00.000Z</time>
      </trkpt>
      <trkpt lat="48.18589" lon="16.39575">
        <ele>214.566786</ele>
        <time>2026-07-07T08:16:01.000Z</time>
      </trkpt>
      <trkpt lat="48.1859" lon="16.39572">
        <ele>214.606108</ele>
        <time>2026-07-07T08:16:02.000Z</time>
      </trkpt>
      <trkpt lat="48.18591" lon="16.3957">
        <ele>214.652687</ele>
        <time>2026-07-07T08:16:03.000Z</time>
      </trkpt>
      <trkpt lat="48.18593" lon="16.39567">
        <ele>214.701766</ele>
        <time>2026-07-07T08:16:04.000Z</time>
      </trkpt>
      <trkpt lat="48.18595" lon="16.39564">
        <ele>214.755877</ele>
        <time>2026-07-07T08:16:05.000Z</time>
      </trkpt>
      <trkpt lat="48.18597" lon="16.39561">
        <ele>214.804846</ele>
        <time>2026-07-07T08:16:06.000Z</time>
      </trkpt>
      <trkpt lat="48.18598" lon="16.39559">
        <ele>214.856611</ele>
        <time>2026-07-07T08:16:07.000Z</time>
      </trkpt>
      <trkpt lat="48.18601" lon="16.39556">
        <ele>214.916497</ele>
        <time>2026-07-07T08:16:08.000Z</time>
      </trkpt>
      <trkpt lat="48.18603" lon="16.39553">
        <ele>214.978779</ele>
        <time>2026-07-07T08:16:09.000Z</time>
      </trkpt>
      <trkpt lat="48.18606" lon="16.3955">
        <ele>215.051536</ele>
        <time>2026-07-07T08:16:10.000Z</time>
      </trkpt>
      <trkpt lat="48.18609" lon="16.39546">
        <ele>215.122772</ele>
        <time>2026-07-07T08:16:11.000Z</time>
      </trkpt>
      <trkpt lat="48.18612" lon="16.39542">
        <ele>215.197261</ele>
        <time>2026-07-07T08:16:12.000Z</time>
      </trkpt>
      <trkpt lat="48.18615" lon="16.39539">
        <ele>215.273953</ele>
        <time>2026-07-07T08:16:13.000Z</time>
      </trkpt>
      <trkpt lat="48.18618" lon="16.39535">
        <ele>215.34982</ele>
        <time>2026-07-07T08:16:14.000Z</time>
      </trkpt>
      <trkpt lat="48.18621" lon="16.39532">
        <ele>215.430473</ele>
        <time>2026-07-07T08:16:15.000Z</time>
      </trkpt>
      <trkpt lat="48.18624" lon="16.39528">
        <ele>215.508855</ele>
        <time>2026-07-07T08:16:16.000Z</time>
      </trkpt>
      <trkpt lat="48.18627" lon="16.39524">
        <ele>215.588102</ele>
        <time>2026-07-07T08:16:17.000Z</time>
      </trkpt>
      <trkpt lat="48.1863" lon="16.3952">
        <ele>215.669118</ele>
        <time>2026-07-07T08:16:18.000Z</time>
      </trkpt>
      <trkpt lat="48.18633" lon="16.39515">
        <ele>215.75381</ele>
        <time>2026-07-07T08:16:19.000Z</time>
      </trkpt>
      <trkpt lat="48.18636" lon="16.39511">
        <ele>215.837566</ele>
        <time>2026-07-07T08:16:20.000Z</time>
      </trkpt>
      <trkpt lat="48.18639" lon="16.39507">
        <ele>215.920398</ele>
        <time>2026-07-07T08:16:21.000Z</time>
      </trkpt>
      <trkpt lat="48.18642" lon="16.39502">
        <ele>215.968786</ele>
        <time>2026-07-07T08:16:22.000Z</time>
      </trkpt>
      <trkpt lat="48.18644" lon="16.39498">
        <ele>215.998838</ele>
        <time>2026-07-07T08:16:23.000Z</time>
      </trkpt>
      <trkpt lat="48.1865" lon="16.39489">
        <ele>216.059929</ele>
        <time>2026-07-07T08:16:25.000Z</time>
      </trkpt>
      <trkpt lat="48.18652" lon="16.39484">
        <ele>216.091996</ele>
        <time>2026-07-07T08:16:26.000Z</time>
      </trkpt>
      <trkpt lat="48.18655" lon="16.39479">
        <ele>216.122796</ele>
        <time>2026-07-07T08:16:27.000Z</time>
      </trkpt>
      <trkpt lat="48.18658" lon="16.39475">
        <ele>216.154111</ele>
        <time>2026-07-07T08:16:28.000Z</time>
      </trkpt>
      <trkpt lat="48.18661" lon="16.3947">
        <ele>216.18632</ele>
        <time>2026-07-07T08:16:29.000Z</time>
      </trkpt>
      <trkpt lat="48.18663" lon="16.39466">
        <ele>216.216614</ele>
        <time>2026-07-07T08:16:30.000Z</time>
      </trkpt>
      <trkpt lat="48.18666" lon="16.39461">
        <ele>216.248955</ele>
        <time>2026-07-07T08:16:31.000Z</time>
      </trkpt>
      <trkpt lat="48.18668" lon="16.39456">
        <ele>216.277752</ele>
        <time>2026-07-07T08:16:32.000Z</time>
      </trkpt>
      <trkpt lat="48.18671" lon="16.39452">
        <ele>216.307553</ele>
        <time>2026-07-07T08:16:33.000Z</time>
      </trkpt>
      <trkpt lat="48.18673" lon="16.39447">
        <ele>216.34</ele>
        <time>2026-07-07T08:16:34.000Z</time>
      </trkpt>
      <trkpt lat="48.18676" lon="16.39442">
        <ele>216.372341</ele>
        <time>2026-07-07T08:16:35.000Z</time>
      </trkpt>
      <trkpt lat="48.18679" lon="16.39437">
        <ele>216.405076</ele>
        <time>2026-07-07T08:16:36.000Z</time>
      </trkpt>
      <trkpt lat="48.18681" lon="16.39432">
        <ele>216.437336</ele>
        <time>2026-07-07T08:16:37.000Z</time>
      </trkpt>
      <trkpt lat="48.18684" lon="16.39427">
        <ele>216.468681</ele>
        <time>2026-07-07T08:16:38.000Z</time>
      </trkpt>
      <trkpt lat="48.18686" lon="16.39422">
        <ele>216.502157</ele>
        <time>2026-07-07T08:16:39.000Z</time>
      </trkpt>
      <trkpt lat="48.18689" lon="16.39417">
        <ele>216.533501</ele>
        <time>2026-07-07T08:16:40.000Z</time>
      </trkpt>
      <trkpt lat="48.18691" lon="16.39412">
        <ele>216.565298</ele>
        <time>2026-07-07T08:16:41.000Z</time>
      </trkpt>
      <trkpt lat="48.18694" lon="16.39407">
        <ele>216.59537</ele>
        <time>2026-07-07T08:16:42.000Z</time>
      </trkpt>
      <trkpt lat="48.18696" lon="16.39402">
        <ele>216.626275</ele>
        <time>2026-07-07T08:16:43.000Z</time>
      </trkpt>
      <trkpt lat="48.18698" lon="16.39397">
        <ele>216.657666</ele>
        <time>2026-07-07T08:16:44.000Z</time>
      </trkpt>
      <trkpt lat="48.18701" lon="16.39392">
        <ele>216.688654</ele>
        <time>2026-07-07T08:16:45.000Z</time>
      </trkpt>
      <trkpt lat="48.18703" lon="16.39388">
        <ele>216.717972</ele>
        <time>2026-07-07T08:16:46.000Z</time>
      </trkpt>
      <trkpt lat="48.18706" lon="16.39383">
        <ele>216.748561</ele>
        <time>2026-07-07T08:16:47.000Z</time>
      </trkpt>
      <trkpt lat="48.18708" lon="16.39378">
        <ele>216.778361</ele>
        <time>2026-07-07T08:16:48.000Z</time>
      </trkpt>
      <trkpt lat="48.18711" lon="16.39374">
        <ele>216.809041</ele>
        <time>2026-07-07T08:16:49.000Z</time>
      </trkpt>
      <trkpt lat="48.18713" lon="16.39369">
        <ele>216.838842</ele>
        <time>2026-07-07T08:16:50.000Z</time>
      </trkpt>
      <trkpt lat="48.18716" lon="16.39365">
        <ele>216.869431</ele>
        <time>2026-07-07T08:16:51.000Z</time>
      </trkpt>
      <trkpt lat="48.18718" lon="16.3936">
        <ele>216.899549</ele>
        <time>2026-07-07T08:16:52.000Z</time>
      </trkpt>
      <trkpt lat="48.18721" lon="16.39356">
        <ele>216.927596</ele>
        <time>2026-07-07T08:16:53.000Z</time>
      </trkpt>
      <trkpt lat="48.18723" lon="16.39351">
        <ele>216.956443</ele>
        <time>2026-07-07T08:16:54.000Z</time>
      </trkpt>
      <trkpt lat="48.18725" lon="16.39346">
        <ele>216.985659</ele>
        <time>2026-07-07T08:16:55.000Z</time>
      </trkpt>
      <trkpt lat="48.18727" lon="16.39342">
        <ele>217.015731</ele>
        <time>2026-07-07T08:16:56.000Z</time>
      </trkpt>
      <trkpt lat="48.1873" lon="16.39337">
        <ele>217.045365</ele>
        <time>2026-07-07T08:16:57.000Z</time>
      </trkpt>
      <trkpt lat="48.18732" lon="16.39332">
        <ele>217.075029</ele>
        <time>2026-07-07T08:16:58.000Z</time>
      </trkpt>
      <trkpt lat="48.18734" lon="16.39327">
        <ele>217.104259</ele>
        <time>2026-07-07T08:16:59.000Z</time>
      </trkpt>
      <trkpt lat="48.18736" lon="16.39322">
        <ele>217.133923</ele>
        <time>2026-07-07T08:17:00.000Z</time>
      </trkpt>
      <trkpt lat="48.18738" lon="16.39317">
        <ele>217.164025</ele>
        <time>2026-07-07T08:17:01.000Z</time>
      </trkpt>
      <trkpt lat="48.1874" lon="16.39312">
        <ele>217.194566</ele>
        <time>2026-07-07T08:17:02.000Z</time>
      </trkpt>
      <trkpt lat="48.18742" lon="16.39307">
        <ele>217.22423</ele>
        <time>2026-07-07T08:17:03.000Z</time>
      </trkpt>
      <trkpt lat="48.18743" lon="16.39301">
        <ele>217.254038</ele>
        <time>2026-07-07T08:17:04.000Z</time>
      </trkpt>
      <trkpt lat="48.18745" lon="16.39296">
        <ele>217.284653</ele>
        <time>2026-07-07T08:17:05.000Z</time>
      </trkpt>
      <trkpt lat="48.18747" lon="16.39291">
        <ele>217.313789</ele>
        <time>2026-07-07T08:17:06.000Z</time>
      </trkpt>
      <trkpt lat="48.18749" lon="16.39286">
        <ele>217.3516</ele>
        <time>2026-07-07T08:17:07.000Z</time>
      </trkpt>
      <trkpt lat="48.18751" lon="16.3928">
        <ele>217.392592</ele>
        <time>2026-07-07T08:17:08.000Z</time>
      </trkpt>
      <trkpt lat="48.18752" lon="16.39275">
        <ele>217.431773</ele>
        <time>2026-07-07T08:17:09.000Z</time>
      </trkpt>
      <trkpt lat="48.18754" lon="16.3927">
        <ele>217.472319</ele>
        <time>2026-07-07T08:17:10.000Z</time>
      </trkpt>
      <trkpt lat="48.18755" lon="16.39265">
        <ele>217.510663</ele>
        <time>2026-07-07T08:17:11.000Z</time>
      </trkpt>
      <trkpt lat="48.18757" lon="16.39259">
        <ele>217.55101</ele>
        <time>2026-07-07T08:17:12.000Z</time>
      </trkpt>
      <trkpt lat="48.18758" lon="16.39254">
        <ele>217.590104</ele>
        <time>2026-07-07T08:17:13.000Z</time>
      </trkpt>
      <trkpt lat="48.1876" lon="16.39248">
        <ele>217.629443</ele>
        <time>2026-07-07T08:17:14.000Z</time>
      </trkpt>
      <trkpt lat="48.18761" lon="16.39243">
        <ele>217.66667</ele>
        <time>2026-07-07T08:17:15.000Z</time>
      </trkpt>
      <trkpt lat="48.18763" lon="16.39238">
        <ele>217.704518</ele>
        <time>2026-07-07T08:17:16.000Z</time>
      </trkpt>
      <trkpt lat="48.18764" lon="16.39233">
        <ele>217.743499</ele>
        <time>2026-07-07T08:17:17.000Z</time>
      </trkpt>
      <trkpt lat="48.18766" lon="16.39228">
        <ele>217.781347</ele>
        <time>2026-07-07T08:17:18.000Z</time>
      </trkpt>
      <trkpt lat="48.18767" lon="16.39222">
        <ele>217.820328</ele>
        <time>2026-07-07T08:17:19.000Z</time>
      </trkpt>
      <trkpt lat="48.18768" lon="16.39217">
        <ele>217.859035</ele>
        <time>2026-07-07T08:17:20.000Z</time>
      </trkpt>
      <trkpt lat="48.1877" lon="16.39212">
        <ele>217.897379</ele>
        <time>2026-07-07T08:17:21.000Z</time>
      </trkpt>
      <trkpt lat="48.18771" lon="16.39206">
        <ele>217.936026</ele>
        <time>2026-07-07T08:17:22.000Z</time>
      </trkpt>
      <trkpt lat="48.18772" lon="16.39201">
        <ele>217.974734</ele>
        <time>2026-07-07T08:17:23.000Z</time>
      </trkpt>
      <trkpt lat="48.18773" lon="16.39195">
        <ele>218.012955</ele>
        <time>2026-07-07T08:17:24.000Z</time>
      </trkpt>
      <trkpt lat="48.18773" lon="16.3919">
        <ele>218.049851</ele>
        <time>2026-07-07T08:17:25.000Z</time>
      </trkpt>
      <trkpt lat="48.18774" lon="16.39185">
        <ele>218.088559</ele>
        <time>2026-07-07T08:17:26.000Z</time>
      </trkpt>
      <trkpt lat="48.18775" lon="16.39179">
        <ele>218.125243</ele>
        <time>2026-07-07T08:17:27.000Z</time>
      </trkpt>
      <trkpt lat="48.18776" lon="16.39174">
        <ele>218.16395</ele>
        <time>2026-07-07T08:17:28.000Z</time>
      </trkpt>
      <trkpt lat="48.18777" lon="16.39168">
        <ele>218.202657</ele>
        <time>2026-07-07T08:17:29.000Z</time>
      </trkpt>
      <trkpt lat="48.18778" lon="16.39163">
        <ele>218.241365</ele>
        <time>2026-07-07T08:17:30.000Z</time>
      </trkpt>
      <trkpt lat="48.18779" lon="16.39158">
        <ele>218.277383</ele>
        <time>2026-07-07T08:17:31.000Z</time>
      </trkpt>
      <trkpt lat="48.18779" lon="16.39153">
        <ele>218.311712</ele>
        <time>2026-07-07T08:17:32.000Z</time>
      </trkpt>
      <trkpt lat="48.18779" lon="16.39148">
        <ele>218.342265</ele>
        <time>2026-07-07T08:17:33.000Z</time>
      </trkpt>
      <trkpt lat="48.18779" lon="16.39144">
        <ele>218.371479</ele>
        <time>2026-07-07T08:17:34.000Z</time>
      </trkpt>
      <trkpt lat="48.1878" lon="16.3914">
        <ele>218.398941</ele>
        <time>2026-07-07T08:17:35.000Z</time>
      </trkpt>
      <trkpt lat="48.1878" lon="16.39136">
        <ele>218.424574</ele>
        <time>2026-07-07T08:17:36.000Z</time>
      </trkpt>
      <trkpt lat="48.18781" lon="16.39132">
        <ele>218.450872</ele>
        <time>2026-07-07T08:17:37.000Z</time>
      </trkpt>
      <trkpt lat="48.18781" lon="16.39129">
        <ele>218.474832</ele>
        <time>2026-07-07T08:17:38.000Z</time>
      </trkpt>
      <trkpt lat="48.18781" lon="16.39125">
        <ele>218.498006</ele>
        <time>2026-07-07T08:17:39.000Z</time>
      </trkpt>
      <trkpt lat="48.18782" lon="16.39122">
        <ele>218.520984</ele>
        <time>2026-07-07T08:17:40.000Z</time>
      </trkpt>
      <trkpt lat="48.18782" lon="16.39119">
        <ele>218.543299</ele>
        <time>2026-07-07T08:17:41.000Z</time>
      </trkpt>
      <trkpt lat="48.18783" lon="16.39116">
        <ele>218.566073</ele>
        <time>2026-07-07T08:17:42.000Z</time>
      </trkpt>
      <trkpt lat="48.18784" lon="16.39113">
        <ele>218.58641</ele>
        <time>2026-07-07T08:17:43.000Z</time>
      </trkpt>
      <trkpt lat="48.18786" lon="16.39111">
        <ele>218.607326</ele>
        <time>2026-07-07T08:17:44.000Z</time>
      </trkpt>
      <trkpt lat="48.18786" lon="16.39108">
        <ele>218.626364</ele>
        <time>2026-07-07T08:17:45.000Z</time>
      </trkpt>
      <trkpt lat="48.18786" lon="16.39106">
        <ele>218.641336</ele>
        <time>2026-07-07T08:17:46.000Z</time>
      </trkpt>
      <trkpt lat="48.18786" lon="16.39104">
        <ele>218.652879</ele>
        <time>2026-07-07T08:17:47.000Z</time>
      </trkpt>
      <trkpt lat="48.18786" lon="16.39104">
        <ele>218.658405</ele>
        <time>2026-07-07T08:17:48.000Z</time>
      </trkpt>
      <trkpt lat="48.18786" lon="16.39104">
        <ele>218.659763</ele>
        <time>2026-07-07T08:17:49.000Z</time>
      </trkpt>
      <trkpt lat="48.18787" lon="16.39093">
        <ele>218.732868</ele>
        <time>2026-07-07T08:18:30.000Z</time>
      </trkpt>
      <trkpt lat="48.18786" lon="16.39088">
        <ele>218.767557</ele>
        <time>2026-07-07T08:18:31.000Z</time>
      </trkpt>
      <trkpt lat="48.18785" lon="16.39084">
        <ele>218.800401</ele>
        <time>2026-07-07T08:18:32.000Z</time>
      </trkpt>
      <trkpt lat="48.18783" lon="16.3908">
        <ele>218.833061</ele>
        <time>2026-07-07T08:18:33.000Z</time>
      </trkpt>
      <trkpt lat="48.1878" lon="16.39077">
        <ele>218.868531</ele>
        <time>2026-07-07T08:18:34.000Z</time>
      </trkpt>
      <trkpt lat="48.18777" lon="16.39074">
        <ele>218.907144</ele>
        <time>2026-07-07T08:18:35.000Z</time>
      </trkpt>
      <trkpt lat="48.18773" lon="16.39072">
        <ele>218.947678</ele>
        <time>2026-07-07T08:18:36.000Z</time>
      </trkpt>
      <trkpt lat="48.18769" lon="16.3907">
        <ele>218.988062</ele>
        <time>2026-07-07T08:18:37.000Z</time>
      </trkpt>
      <trkpt lat="48.18765" lon="16.39069">
        <ele>219.032031</ele>
        <time>2026-07-07T08:18:38.000Z</time>
      </trkpt>
      <trkpt lat="48.18761" lon="16.39067">
        <ele>219.075176</ele>
        <time>2026-07-07T08:18:39.000Z</time>
      </trkpt>
      <trkpt lat="48.18756" lon="16.39066">
        <ele>219.122436</ele>
        <time>2026-07-07T08:18:40.000Z</time>
      </trkpt>
      <trkpt lat="48.18752" lon="16.39064">
        <ele>219.170668</ele>
        <time>2026-07-07T08:18:41.000Z</time>
      </trkpt>
      <trkpt lat="48.18747" lon="16.39062">
        <ele>219.223376</ele>
        <time>2026-07-07T08:18:42.000Z</time>
      </trkpt>
      <trkpt lat="48.18743" lon="16.3906">
        <ele>219.276084</ele>
        <time>2026-07-07T08:18:43.000Z</time>
      </trkpt>
      <trkpt lat="48.18738" lon="16.39058">
        <ele>219.329201</ele>
        <time>2026-07-07T08:18:44.000Z</time>
      </trkpt>
      <trkpt lat="48.18734" lon="16.39056">
        <ele>219.38351</ele>
        <time>2026-07-07T08:18:45.000Z</time>
      </trkpt>
      <trkpt lat="48.1873" lon="16.39053">
        <ele>219.435703</ele>
        <time>2026-07-07T08:18:46.000Z</time>
      </trkpt>
      <trkpt lat="48.18725" lon="16.3905">
        <ele>219.48803</ele>
        <time>2026-07-07T08:18:47.000Z</time>
      </trkpt>
      <trkpt lat="48.18721" lon="16.39047">
        <ele>219.539993</ele>
        <time>2026-07-07T08:18:48.000Z</time>
      </trkpt>
      <trkpt lat="48.18717" lon="16.39044">
        <ele>219.594007</ele>
        <time>2026-07-07T08:18:49.000Z</time>
      </trkpt>
      <trkpt lat="48.18713" lon="16.3904">
        <ele>219.646417</ele>
        <time>2026-07-07T08:18:50.000Z</time>
      </trkpt>
      <trkpt lat="48.18709" lon="16.39037">
        <ele>219.697282</ele>
        <time>2026-07-07T08:18:51.000Z</time>
      </trkpt>
      <trkpt lat="48.18705" lon="16.39033">
        <ele>219.75033</ele>
        <time>2026-07-07T08:18:52.000Z</time>
      </trkpt>
      <trkpt lat="48.18702" lon="16.39029">
        <ele>219.803307</ele>
        <time>2026-07-07T08:18:53.000Z</time>
      </trkpt>
      <trkpt lat="48.18698" lon="16.39025">
        <ele>219.856728</ele>
        <time>2026-07-07T08:18:54.000Z</time>
      </trkpt>
      <trkpt lat="48.18694" lon="16.3902">
        <ele>219.909242</ele>
        <time>2026-07-07T08:18:55.000Z</time>
      </trkpt>
      <trkpt lat="48.18691" lon="16.39016">
        <ele>219.95904</ele>
        <time>2026-07-07T08:18:56.000Z</time>
      </trkpt>
      <trkpt lat="48.18687" lon="16.39012">
        <ele>220.007058</ele>
        <time>2026-07-07T08:18:57.000Z</time>
      </trkpt>
      <trkpt lat="48.18684" lon="16.39008">
        <ele>220.051646</ele>
        <time>2026-07-07T08:18:58.000Z</time>
      </trkpt>
      <trkpt lat="48.18683" lon="16.39004">
        <ele>220.087271</ele>
        <time>2026-07-07T08:18:59.000Z</time>
      </trkpt>
      <trkpt lat="48.18682" lon="16.38999">
        <ele>220.128274</ele>
        <time>2026-07-07T08:19:00.000Z</time>
      </trkpt>
      <trkpt lat="48.18681" lon="16.38993">
        <ele>220.171222</ele>
        <time>2026-07-07T08:19:01.000Z</time>
      </trkpt>
      <trkpt lat="48.18679" lon="16.38988">
        <ele>220.21833</ele>
        <time>2026-07-07T08:19:02.000Z</time>
      </trkpt>
      <trkpt lat="48.18676" lon="16.38983">
        <ele>220.267373</ele>
        <time>2026-07-07T08:19:03.000Z</time>
      </trkpt>
      <trkpt lat="48.18674" lon="16.38978">
        <ele>220.315923</ele>
        <time>2026-07-07T08:19:04.000Z</time>
      </trkpt>
      <trkpt lat="48.18671" lon="16.38973">
        <ele>220.366251</ele>
        <time>2026-07-07T08:19:05.000Z</time>
      </trkpt>
      <trkpt lat="48.18668" lon="16.38967">
        <ele>220.416685</ele>
        <time>2026-07-07T08:19:06.000Z</time>
      </trkpt>
      <trkpt lat="48.18665" lon="16.38962">
        <ele>220.468003</ele>
        <time>2026-07-07T08:19:07.000Z</time>
      </trkpt>
      <trkpt lat="48.18662" lon="16.38957">
        <ele>220.518438</ele>
        <time>2026-07-07T08:19:08.000Z</time>
      </trkpt>
      <trkpt lat="48.18659" lon="16.38952">
        <ele>220.572056</ele>
        <time>2026-07-07T08:19:09.000Z</time>
      </trkpt>
      <trkpt lat="48.18656" lon="16.38946">
        <ele>220.625451</ele>
        <time>2026-07-07T08:19:10.000Z</time>
      </trkpt>
      <trkpt lat="48.18653" lon="16.38941">
        <ele>220.67791</ele>
        <time>2026-07-07T08:19:11.000Z</time>
      </trkpt>
      <trkpt lat="48.1865" lon="16.38936">
        <ele>220.73299</ele>
        <time>2026-07-07T08:19:12.000Z</time>
      </trkpt>
      <trkpt lat="48.18647" lon="16.3893">
        <ele>220.785449</ele>
        <time>2026-07-07T08:19:13.000Z</time>
      </trkpt>
      <trkpt lat="48.18644" lon="16.38925">
        <ele>220.837066</ele>
        <time>2026-07-07T08:19:14.000Z</time>
      </trkpt>
      <trkpt lat="48.18641" lon="16.3892">
        <ele>220.889526</ele>
        <time>2026-07-07T08:19:15.000Z</time>
      </trkpt>
      <trkpt lat="48.18638" lon="16.38914">
        <ele>220.941985</ele>
        <time>2026-07-07T08:19:16.000Z</time>
      </trkpt>
      <trkpt lat="48.18635" lon="16.38909">
        <ele>220.9942</ele>
        <time>2026-07-07T08:19:17.000Z</time>
      </trkpt>
      <trkpt lat="48.18632" lon="16.38903">
        <ele>221.04928</ele>
        <time>2026-07-07T08:19:18.000Z</time>
      </trkpt>
      <trkpt lat="48.18629" lon="16.38898">
        <ele>221.10436</ele>
        <time>2026-07-07T08:19:19.000Z</time>
      </trkpt>
      <trkpt lat="48.18626" lon="16.38892">
        <ele>221.158702</ele>
        <time>2026-07-07T08:19:20.000Z</time>
      </trkpt>
      <trkpt lat="48.18623" lon="16.38887">
        <ele>221.209901</ele>
        <time>2026-07-07T08:19:21.000Z</time>
      </trkpt>
      <trkpt lat="48.1862" lon="16.38881">
        <ele>221.257593</ele>
        <time>2026-07-07T08:19:22.000Z</time>
      </trkpt>
      <trkpt lat="48.18616" lon="16.38876">
        <ele>221.305284</ele>
        <time>2026-07-07T08:19:23.000Z</time>
      </trkpt>
      <trkpt lat="48.18614" lon="16.3887">
        <ele>221.350495</ele>
        <time>2026-07-07T08:19:24.000Z</time>
      </trkpt>
      <trkpt lat="48.18611" lon="16.38865">
        <ele>221.396922</ele>
        <time>2026-07-07T08:19:25.000Z</time>
      </trkpt>
      <trkpt lat="48.18607" lon="16.38859">
        <ele>221.443155</ele>
        <time>2026-07-07T08:19:26.000Z</time>
      </trkpt>
      <trkpt lat="48.18604" lon="16.38854">
        <ele>221.48759</ele>
        <time>2026-07-07T08:19:27.000Z</time>
      </trkpt>
      <trkpt lat="48.18601" lon="16.38849">
        <ele>221.533164</ele>
        <time>2026-07-07T08:19:28.000Z</time>
      </trkpt>
      <trkpt lat="48.18598" lon="16.38844">
        <ele>221.578445</ele>
        <time>2026-07-07T08:19:29.000Z</time>
      </trkpt>
      <trkpt lat="48.18595" lon="16.38839">
        <ele>221.622114</ele>
        <time>2026-07-07T08:19:30.000Z</time>
      </trkpt>
      <trkpt lat="48.18592" lon="16.38834">
        <ele>221.667537</ele>
        <time>2026-07-07T08:19:31.000Z</time>
      </trkpt>
      <trkpt lat="48.18589" lon="16.38828">
        <ele>221.712332</ele>
        <time>2026-07-07T08:19:32.000Z</time>
      </trkpt>
      <trkpt lat="48.18587" lon="16.38823">
        <ele>221.757026</ele>
        <time>2026-07-07T08:19:33.000Z</time>
      </trkpt>
      <trkpt lat="48.18584" lon="16.38818">
        <ele>221.800189</ele>
        <time>2026-07-07T08:19:34.000Z</time>
      </trkpt>
      <trkpt lat="48.18581" lon="16.38812">
        <ele>221.845491</ele>
        <time>2026-07-07T08:19:35.000Z</time>
      </trkpt>
      <trkpt lat="48.18578" lon="16.38807">
        <ele>221.88954</ele>
        <time>2026-07-07T08:19:36.000Z</time>
      </trkpt>
      <trkpt lat="48.18576" lon="16.38801">
        <ele>221.934163</ele>
        <time>2026-07-07T08:19:37.000Z</time>
      </trkpt>
      <trkpt lat="48.18573" lon="16.38796">
        <ele>221.979375</ele>
        <time>2026-07-07T08:19:38.000Z</time>
      </trkpt>
      <trkpt lat="48.1857" lon="16.38791">
        <ele>222.024798</ele>
        <time>2026-07-07T08:19:39.000Z</time>
      </trkpt>
      <trkpt lat="48.18567" lon="16.38785">
        <ele>222.069089</ele>
        <time>2026-07-07T08:19:40.000Z</time>
      </trkpt>
      <trkpt lat="48.18564" lon="16.38781">
        <ele>222.110758</ele>
        <time>2026-07-07T08:19:41.000Z</time>
      </trkpt>
      <trkpt lat="48.18561" lon="16.38775">
        <ele>222.153819</ele>
        <time>2026-07-07T08:19:42.000Z</time>
      </trkpt>
      <trkpt lat="48.18559" lon="16.3877">
        <ele>222.195247</ele>
        <time>2026-07-07T08:19:43.000Z</time>
      </trkpt>
      <trkpt lat="48.18556" lon="16.38766">
        <ele>222.233516</ele>
        <time>2026-07-07T08:19:44.000Z</time>
      </trkpt>
      <trkpt lat="48.18554" lon="16.38762">
        <ele>222.269816</ele>
        <time>2026-07-07T08:19:45.000Z</time>
      </trkpt>
      <trkpt lat="48.18551" lon="16.38758">
        <ele>222.305163</ele>
        <time>2026-07-07T08:19:46.000Z</time>
      </trkpt>
      <trkpt lat="48.18548" lon="16.38754">
        <ele>222.341638</ele>
        <time>2026-07-07T08:19:47.000Z</time>
      </trkpt>
      <trkpt lat="48.18546" lon="16.38751">
        <ele>222.376313</ele>
        <time>2026-07-07T08:19:48.000Z</time>
      </trkpt>
      <trkpt lat="48.18544" lon="16.38747">
        <ele>222.411209</ele>
        <time>2026-07-07T08:19:49.000Z</time>
      </trkpt>
      <trkpt lat="48.18541" lon="16.38742">
        <ele>222.4493</ele>
        <time>2026-07-07T08:19:50.000Z</time>
      </trkpt>
      <trkpt lat="48.18539" lon="16.38737">
        <ele>222.489094</ele>
        <time>2026-07-07T08:19:51.000Z</time>
      </trkpt>
      <trkpt lat="48.18536" lon="16.38732">
        <ele>222.531132</ele>
        <time>2026-07-07T08:19:52.000Z</time>
      </trkpt>
      <trkpt lat="48.18533" lon="16.38727">
        <ele>222.573793</ele>
        <time>2026-07-07T08:19:53.000Z</time>
      </trkpt>
      <trkpt lat="48.1853" lon="16.38722">
        <ele>222.618588</ele>
        <time>2026-07-07T08:19:54.000Z</time>
      </trkpt>
      <trkpt lat="48.18527" lon="16.38717">
        <ele>222.664163</ele>
        <time>2026-07-07T08:19:55.000Z</time>
      </trkpt>
      <trkpt lat="48.18524" lon="16.38711">
        <ele>222.710396</ele>
        <time>2026-07-07T08:19:56.000Z</time>
      </trkpt>
      <trkpt lat="48.18521" lon="16.38706">
        <ele>222.753057</ele>
        <time>2026-07-07T08:19:57.000Z</time>
      </trkpt>
      <trkpt lat="48.18518" lon="16.38701">
        <ele>222.797852</ele>
        <time>2026-07-07T08:19:58.000Z</time>
      </trkpt>
      <trkpt lat="48.18516" lon="16.38696">
        <ele>222.840318</ele>
        <time>2026-07-07T08:19:59.000Z</time>
      </trkpt>
      <trkpt lat="48.18513" lon="16.38691">
        <ele>222.885742</ele>
        <time>2026-07-07T08:20:00.000Z</time>
      </trkpt>
      <trkpt lat="48.1851" lon="16.38685">
        <ele>222.930669</ele>
        <time>2026-07-07T08:20:01.000Z</time>
      </trkpt>
      <trkpt lat="48.18507" lon="16.3868">
        <ele>222.974225</ele>
        <time>2026-07-07T08:20:02.000Z</time>
      </trkpt>
      <trkpt lat="48.18504" lon="16.38675">
        <ele>223.01859</ele>
        <time>2026-07-07T08:20:03.000Z</time>
      </trkpt>
      <trkpt lat="48.18501" lon="16.3867">
        <ele>223.061516</ele>
        <time>2026-07-07T08:20:04.000Z</time>
      </trkpt>
      <trkpt lat="48.18498" lon="16.38665">
        <ele>223.104918</ele>
        <time>2026-07-07T08:20:05.000Z</time>
      </trkpt>
      <trkpt lat="48.18495" lon="16.38659">
        <ele>223.1488</ele>
        <time>2026-07-07T08:20:06.000Z</time>
      </trkpt>
      <trkpt lat="48.18492" lon="16.38654">
        <ele>223.192202</ele>
        <time>2026-07-07T08:20:07.000Z</time>
      </trkpt>
      <trkpt lat="48.18489" lon="16.38649">
        <ele>223.233801</ele>
        <time>2026-07-07T08:20:08.000Z</time>
      </trkpt>
      <trkpt lat="48.18486" lon="16.38643">
        <ele>223.277477</ele>
        <time>2026-07-07T08:20:09.000Z</time>
      </trkpt>
      <trkpt lat="48.18483" lon="16.38638">
        <ele>223.320752</ele>
        <time>2026-07-07T08:20:10.000Z</time>
      </trkpt>
      <trkpt lat="48.18481" lon="16.38633">
        <ele>223.363432</ele>
        <time>2026-07-07T08:20:11.000Z</time>
      </trkpt>
      <trkpt lat="48.18478" lon="16.38627">
        <ele>223.407109</ele>
        <time>2026-07-07T08:20:12.000Z</time>
      </trkpt>
      <trkpt lat="48.18475" lon="16.38622">
        <ele>223.451241</ele>
        <time>2026-07-07T08:20:13.000Z</time>
      </trkpt>
      <trkpt lat="48.18472" lon="16.38616">
        <ele>223.495373</ele>
        <time>2026-07-07T08:20:14.000Z</time>
      </trkpt>
      <trkpt lat="48.1847" lon="16.3861">
        <ele>223.537927</ele>
        <time>2026-07-07T08:20:15.000Z</time>
      </trkpt>
      <trkpt lat="48.18467" lon="16.38605">
        <ele>223.580234</ele>
        <time>2026-07-07T08:20:16.000Z</time>
      </trkpt>
      <trkpt lat="48.18464" lon="16.386">
        <ele>223.620966</ele>
        <time>2026-07-07T08:20:17.000Z</time>
      </trkpt>
      <trkpt lat="48.18461" lon="16.38596">
        <ele>223.660279</ele>
        <time>2026-07-07T08:20:18.000Z</time>
      </trkpt>
      <trkpt lat="48.18459" lon="16.38591">
        <ele>223.697645</ele>
        <time>2026-07-07T08:20:19.000Z</time>
      </trkpt>
      <trkpt lat="48.18456" lon="16.38587">
        <ele>223.734615</ele>
        <time>2026-07-07T08:20:20.000Z</time>
      </trkpt>
      <trkpt lat="48.18454" lon="16.38582">
        <ele>223.771586</ele>
        <time>2026-07-07T08:20:21.000Z</time>
      </trkpt>
      <trkpt lat="48.18451" lon="16.38577">
        <ele>223.810132</ele>
        <time>2026-07-07T08:20:22.000Z</time>
      </trkpt>
      <trkpt lat="48.18449" lon="16.38572">
        <ele>223.850743</ele>
        <time>2026-07-07T08:20:23.000Z</time>
      </trkpt>
      <trkpt lat="48.18446" lon="16.38567">
        <ele>223.891846</ele>
        <time>2026-07-07T08:20:24.000Z</time>
      </trkpt>
      <trkpt lat="48.18443" lon="16.38562">
        <ele>223.931372</ele>
        <time>2026-07-07T08:20:25.000Z</time>
      </trkpt>
      <trkpt lat="48.18441" lon="16.38558">
        <ele>223.969816</ele>
        <time>2026-07-07T08:20:26.000Z</time>
      </trkpt>
      <trkpt lat="48.18438" lon="16.38553">
        <ele>224.007182</ele>
        <time>2026-07-07T08:20:27.000Z</time>
      </trkpt>
      <trkpt lat="48.18436" lon="16.38548">
        <ele>224.04237</ele>
        <time>2026-07-07T08:20:28.000Z</time>
      </trkpt>
      <trkpt lat="48.18434" lon="16.38544">
        <ele>224.077906</ele>
        <time>2026-07-07T08:20:29.000Z</time>
      </trkpt>
      <trkpt lat="48.18431" lon="16.38541">
        <ele>224.110281</ele>
        <time>2026-07-07T08:20:30.000Z</time>
      </trkpt>
      <trkpt lat="48.18429" lon="16.38537">
        <ele>224.142858</ele>
        <time>2026-07-07T08:20:31.000Z</time>
      </trkpt>
      <trkpt lat="48.18426" lon="16.38535">
        <ele>224.174715</ele>
        <time>2026-07-07T08:20:32.000Z</time>
      </trkpt>
      <trkpt lat="48.18423" lon="16.38531">
        <ele>224.20709</ele>
        <time>2026-07-07T08:20:33.000Z</time>
      </trkpt>
      <trkpt lat="48.18421" lon="16.38527">
        <ele>224.242485</ele>
        <time>2026-07-07T08:20:34.000Z</time>
      </trkpt>
      <trkpt lat="48.18419" lon="16.38523">
        <ele>224.27562</ele>
        <time>2026-07-07T08:20:35.000Z</time>
      </trkpt>
      <trkpt lat="48.18417" lon="16.38519">
        <ele>224.307178</ele>
        <time>2026-07-07T08:20:36.000Z</time>
      </trkpt>
      <trkpt lat="48.18415" lon="16.38515">
        <ele>224.338735</ele>
        <time>2026-07-07T08:20:37.000Z</time>
      </trkpt>
      <trkpt lat="48.18413" lon="16.38511">
        <ele>224.368212</ele>
        <time>2026-07-07T08:20:38.000Z</time>
      </trkpt>
      <trkpt lat="48.18411" lon="16.38508">
        <ele>224.394158</ele>
        <time>2026-07-07T08:20:39.000Z</time>
      </trkpt>
      <trkpt lat="48.18409" lon="16.38505">
        <ele>224.419009</ele>
        <time>2026-07-07T08:20:40.000Z</time>
      </trkpt>
      <trkpt lat="48.18408" lon="16.38502">
        <ele>224.440236</ele>
        <time>2026-07-07T08:20:41.000Z</time>
      </trkpt>
      <trkpt lat="48.18407" lon="16.385">
        <ele>224.459754</ele>
        <time>2026-07-07T08:20:42.000Z</time>
      </trkpt>
      <trkpt lat="48.18406" lon="16.38498">
        <ele>224.475532</ele>
        <time>2026-07-07T08:20:43.000Z</time>
      </trkpt>
      <trkpt lat="48.18405" lon="16.38497">
        <ele>224.486698</ele>
        <time>2026-07-07T08:20:44.000Z</time>
      </trkpt>
      <trkpt lat="48.18405" lon="16.38496">
        <ele>224.489376</ele>
        <time>2026-07-07T08:20:45.000Z</time>
      </trkpt>
      <trkpt lat="48.184" lon="16.38487">
        <ele>224.564108</ele>
        <time>2026-07-07T08:21:47.000Z</time>
      </trkpt>
      <trkpt lat="48.18398" lon="16.38483">
        <ele>224.591981</ele>
        <time>2026-07-07T08:21:48.000Z</time>
      </trkpt>
      <trkpt lat="48.18397" lon="16.38479">
        <ele>224.619854</ele>
        <time>2026-07-07T08:21:49.000Z</time>
      </trkpt>
      <trkpt lat="48.18395" lon="16.38475">
        <ele>224.649927</ele>
        <time>2026-07-07T08:21:50.000Z</time>
      </trkpt>
      <trkpt lat="48.18393" lon="16.38471">
        <ele>224.660673</ele>
        <time>2026-07-07T08:21:51.000Z</time>
      </trkpt>
      <trkpt lat="48.18391" lon="16.38466">
        <ele>224.670612</ele>
        <time>2026-07-07T08:21:52.000Z</time>
      </trkpt>
      <trkpt lat="48.18389" lon="16.38462">
        <ele>224.680704</ele>
        <time>2026-07-07T08:21:53.000Z</time>
      </trkpt>
      <trkpt lat="48.18387" lon="16.38457">
        <ele>224.691408</ele>
        <time>2026-07-07T08:21:54.000Z</time>
      </trkpt>
      <trkpt lat="48.18385" lon="16.38452">
        <ele>224.70288</ele>
        <time>2026-07-07T08:21:55.000Z</time>
      </trkpt>
      <trkpt lat="48.18383" lon="16.38446">
        <ele>224.715123</ele>
        <time>2026-07-07T08:21:56.000Z</time>
      </trkpt>
      <trkpt lat="48.1838" lon="16.3844">
        <ele>224.728123</ele>
        <time>2026-07-07T08:21:57.000Z</time>
      </trkpt>
      <trkpt lat="48.18377" lon="16.38434">
        <ele>224.741119</ele>
        <time>2026-07-07T08:21:58.000Z</time>
      </trkpt>
      <trkpt lat="48.18375" lon="16.38428">
        <ele>224.754592</ele>
        <time>2026-07-07T08:21:59.000Z</time>
      </trkpt>
      <trkpt lat="48.18373" lon="16.38421">
        <ele>224.768317</ele>
        <time>2026-07-07T08:22:00.000Z</time>
      </trkpt>
      <trkpt lat="48.1837" lon="16.38414">
        <ele>224.78291</ele>
        <time>2026-07-07T08:22:01.000Z</time>
      </trkpt>
      <trkpt lat="48.18368" lon="16.38407">
        <ele>224.797665</ele>
        <time>2026-07-07T08:22:02.000Z</time>
      </trkpt>
      <trkpt lat="48.18365" lon="16.384">
        <ele>224.812526</ele>
        <time>2026-07-07T08:22:03.000Z</time>
      </trkpt>
      <trkpt lat="48.18362" lon="16.38393">
        <ele>224.827528</ele>
        <time>2026-07-07T08:22:04.000Z</time>
      </trkpt>
      <trkpt lat="48.18358" lon="16.38387">
        <ele>224.842819</ele>
        <time>2026-07-07T08:22:05.000Z</time>
      </trkpt>
      <trkpt lat="48.18354" lon="16.38381">
        <ele>224.858758</ele>
        <time>2026-07-07T08:22:06.000Z</time>
      </trkpt>
      <trkpt lat="48.1835" lon="16.38375">
        <ele>224.874049</ele>
        <time>2026-07-07T08:22:07.000Z</time>
      </trkpt>
      <trkpt lat="48.18347" lon="16.38369">
        <ele>224.888883</ele>
        <time>2026-07-07T08:22:08.000Z</time>
      </trkpt>
      <trkpt lat="48.18343" lon="16.38362">
        <ele>224.904356</ele>
        <time>2026-07-07T08:22:09.000Z</time>
      </trkpt>
      <trkpt lat="48.1834" lon="16.38356">
        <ele>224.918745</ele>
        <time>2026-07-07T08:22:10.000Z</time>
      </trkpt>
      <trkpt lat="48.18338" lon="16.3835">
        <ele>224.932353</ele>
        <time>2026-07-07T08:22:11.000Z</time>
      </trkpt>
      <trkpt lat="48.18335" lon="16.38343">
        <ele>224.946243</ele>
        <time>2026-07-07T08:22:12.000Z</time>
      </trkpt>
      <trkpt lat="48.18333" lon="16.38336">
        <ele>224.960353</ele>
        <time>2026-07-07T08:22:13.000Z</time>
      </trkpt>
      <trkpt lat="48.18332" lon="16.38329">
        <ele>224.974594</ele>
        <time>2026-07-07T08:22:14.000Z</time>
      </trkpt>
      <trkpt lat="48.1833" lon="16.38322">
        <ele>224.988589</ele>
        <time>2026-07-07T08:22:15.000Z</time>
      </trkpt>
      <trkpt lat="48.18327" lon="16.38315">
        <ele>225.002379</ele>
        <time>2026-07-07T08:22:16.000Z</time>
      </trkpt>
      <trkpt lat="48.18325" lon="16.38308">
        <ele>225.018283</ele>
        <time>2026-07-07T08:22:17.000Z</time>
      </trkpt>
      <trkpt lat="48.1832" lon="16.38302">
        <ele>225.034053</ele>
        <time>2026-07-07T08:22:18.000Z</time>
      </trkpt>
      <trkpt lat="48.18316" lon="16.38297">
        <ele>225.049064</ele>
        <time>2026-07-07T08:22:19.000Z</time>
      </trkpt>
      <trkpt lat="48.18313" lon="16.38291">
        <ele>225.062524</ele>
        <time>2026-07-07T08:22:20.000Z</time>
      </trkpt>
      <trkpt lat="48.1831" lon="16.38286">
        <ele>225.07604</ele>
        <time>2026-07-07T08:22:21.000Z</time>
      </trkpt>
      <trkpt lat="48.18308" lon="16.38279">
        <ele>225.08924</ele>
        <time>2026-07-07T08:22:22.000Z</time>
      </trkpt>
      <trkpt lat="48.18305" lon="16.38273">
        <ele>225.102472</ele>
        <time>2026-07-07T08:22:23.000Z</time>
      </trkpt>
      <trkpt lat="48.18303" lon="16.38267">
        <ele>225.1148</ele>
        <time>2026-07-07T08:22:24.000Z</time>
      </trkpt>
      <trkpt lat="48.18301" lon="16.3826">
        <ele>225.127955</ele>
        <time>2026-07-07T08:22:25.000Z</time>
      </trkpt>
      <trkpt lat="48.18299" lon="16.38255">
        <ele>225.139468</ele>
        <time>2026-07-07T08:22:26.000Z</time>
      </trkpt>
      <trkpt lat="48.18297" lon="16.3825">
        <ele>225.161323</ele>
        <time>2026-07-07T08:22:27.000Z</time>
      </trkpt>
      <trkpt lat="48.18296" lon="16.38245">
        <ele>225.213169</ele>
        <time>2026-07-07T08:22:28.000Z</time>
      </trkpt>
      <trkpt lat="48.18294" lon="16.38241">
        <ele>225.265554</ele>
        <time>2026-07-07T08:22:29.000Z</time>
      </trkpt>
      <trkpt lat="48.18292" lon="16.38237">
        <ele>225.311415</ele>
        <time>2026-07-07T08:22:30.000Z</time>
      </trkpt>
      <trkpt lat="48.18291" lon="16.38233">
        <ele>225.351451</ele>
        <time>2026-07-07T08:22:31.000Z</time>
      </trkpt>
      <trkpt lat="48.1829" lon="16.3823">
        <ele>225.390779</ele>
        <time>2026-07-07T08:22:32.000Z</time>
      </trkpt>
      <trkpt lat="48.18289" lon="16.38227">
        <ele>225.424992</ele>
        <time>2026-07-07T08:22:33.000Z</time>
      </trkpt>
      <trkpt lat="48.18288" lon="16.38225">
        <ele>225.452431</ele>
        <time>2026-07-07T08:22:34.000Z</time>
      </trkpt>
      <trkpt lat="48.18287" lon="16.38223">
        <ele>225.470446</ele>
        <time>2026-07-07T08:22:35.000Z</time>
      </trkpt>
      <trkpt lat="48.18288" lon="16.38222">
        <ele>225.48253</ele>
        <time>2026-07-07T08:22:36.000Z</time>
      </trkpt>
      <trkpt lat="48.18285" lon="16.38213">
        <ele>225.589574</ele>
        <time>2026-07-07T08:22:55.000Z</time>
      </trkpt>
      <trkpt lat="48.18283" lon="16.38209">
        <ele>225.637842</ele>
        <time>2026-07-07T08:22:56.000Z</time>
      </trkpt>
      <trkpt lat="48.18281" lon="16.38205">
        <ele>225.690233</ele>
        <time>2026-07-07T08:22:57.000Z</time>
      </trkpt>
      <trkpt lat="48.18279" lon="16.382">
        <ele>225.745122</ele>
        <time>2026-07-07T08:22:58.000Z</time>
      </trkpt>
      <trkpt lat="48.18276" lon="16.38195">
        <ele>225.805077</ele>
        <time>2026-07-07T08:22:59.000Z</time>
      </trkpt>
      <trkpt lat="48.18274" lon="16.3819">
        <ele>225.86496</ele>
        <time>2026-07-07T08:23:00.000Z</time>
      </trkpt>
      <trkpt lat="48.18272" lon="16.38186">
        <ele>225.923166</ele>
        <time>2026-07-07T08:23:01.000Z</time>
      </trkpt>
      <trkpt lat="48.1827" lon="16.38181">
        <ele>225.982218</ele>
        <time>2026-07-07T08:23:02.000Z</time>
      </trkpt>
      <trkpt lat="48.18268" lon="16.38175">
        <ele>226.043759</ele>
        <time>2026-07-07T08:23:03.000Z</time>
      </trkpt>
      <trkpt lat="48.18265" lon="16.3817">
        <ele>226.106147</ele>
        <time>2026-07-07T08:23:04.000Z</time>
      </trkpt>
      <trkpt lat="48.18263" lon="16.38165">
        <ele>226.171025</ele>
        <time>2026-07-07T08:23:05.000Z</time>
      </trkpt>
      <trkpt lat="48.18261" lon="16.38159">
        <ele>226.239204</ele>
        <time>2026-07-07T08:23:06.000Z</time>
      </trkpt>
      <trkpt lat="48.18258" lon="16.38153">
        <ele>226.309892</ele>
        <time>2026-07-07T08:23:07.000Z</time>
      </trkpt>
      <trkpt lat="48.18255" lon="16.38147">
        <ele>226.379733</ele>
        <time>2026-07-07T08:23:08.000Z</time>
      </trkpt>
      <trkpt lat="48.18253" lon="16.38141">
        <ele>226.451243</ele>
        <time>2026-07-07T08:23:09.000Z</time>
      </trkpt>
      <trkpt lat="48.1825" lon="16.38136">
        <ele>226.5228</ele>
        <time>2026-07-07T08:23:10.000Z</time>
      </trkpt>
      <trkpt lat="48.18247" lon="16.3813">
        <ele>226.593488</ele>
        <time>2026-07-07T08:23:11.000Z</time>
      </trkpt>
      <trkpt lat="48.18244" lon="16.38124">
        <ele>226.665857</ele>
        <time>2026-07-07T08:23:12.000Z</time>
      </trkpt>
      <trkpt lat="48.18242" lon="16.38118">
        <ele>226.738193</ele>
        <time>2026-07-07T08:23:13.000Z</time>
      </trkpt>
      <trkpt lat="48.18239" lon="16.38112">
        <ele>226.811378</ele>
        <time>2026-07-07T08:23:14.000Z</time>
      </trkpt>
      <trkpt lat="48.18236" lon="16.38106">
        <ele>226.883715</ele>
        <time>2026-07-07T08:23:15.000Z</time>
      </trkpt>
      <trkpt lat="48.18233" lon="16.381">
        <ele>226.956881</ele>
        <time>2026-07-07T08:23:16.000Z</time>
      </trkpt>
      <trkpt lat="48.18231" lon="16.38094">
        <ele>227.029287</ele>
        <time>2026-07-07T08:23:17.000Z</time>
      </trkpt>
      <trkpt lat="48.18228" lon="16.38087">
        <ele>227.10255</ele>
        <time>2026-07-07T08:23:18.000Z</time>
      </trkpt>
      <trkpt lat="48.18226" lon="16.38081">
        <ele>227.176673</ele>
        <time>2026-07-07T08:23:19.000Z</time>
      </trkpt>
      <trkpt lat="48.18223" lon="16.38075">
        <ele>227.247376</ele>
        <time>2026-07-07T08:23:20.000Z</time>
      </trkpt>
      <trkpt lat="48.18221" lon="16.38069">
        <ele>227.318079</ele>
        <time>2026-07-07T08:23:21.000Z</time>
      </trkpt>
      <trkpt lat="48.18218" lon="16.38063">
        <ele>227.388783</ele>
        <time>2026-07-07T08:23:22.000Z</time>
      </trkpt>
      <trkpt lat="48.18216" lon="16.38057">
        <ele>227.459486</ele>
        <time>2026-07-07T08:23:23.000Z</time>
      </trkpt>
      <trkpt lat="48.18213" lon="16.38051">
        <ele>227.530189</ele>
        <time>2026-07-07T08:23:24.000Z</time>
      </trkpt>
      <trkpt lat="48.18211" lon="16.38045">
        <ele>227.601742</ele>
        <time>2026-07-07T08:23:25.000Z</time>
      </trkpt>
      <trkpt lat="48.18208" lon="16.38039">
        <ele>227.674935</ele>
        <time>2026-07-07T08:23:26.000Z</time>
      </trkpt>
      <trkpt lat="48.18205" lon="16.38033">
        <ele>227.74899</ele>
        <time>2026-07-07T08:23:27.000Z</time>
      </trkpt>
      <trkpt lat="48.18203" lon="16.38027">
        <ele>227.820499</ele>
        <time>2026-07-07T08:23:28.000Z</time>
      </trkpt>
      <trkpt lat="48.182" lon="16.38021">
        <ele>227.864267</ele>
        <time>2026-07-07T08:23:29.000Z</time>
      </trkpt>
      <trkpt lat="48.18197" lon="16.38014">
        <ele>227.89587</ele>
        <time>2026-07-07T08:23:30.000Z</time>
      </trkpt>
      <trkpt lat="48.18195" lon="16.38008">
        <ele>227.926429</ele>
        <time>2026-07-07T08:23:31.000Z</time>
      </trkpt>
      <trkpt lat="48.18192" lon="16.38003">
        <ele>227.956646</ele>
        <time>2026-07-07T08:23:32.000Z</time>
      </trkpt>
      <trkpt lat="48.18189" lon="16.37997">
        <ele>227.986632</ele>
        <time>2026-07-07T08:23:33.000Z</time>
      </trkpt>
      <trkpt lat="48.18186" lon="16.37992">
        <ele>228.014027</ele>
        <time>2026-07-07T08:23:34.000Z</time>
      </trkpt>
      <trkpt lat="48.18184" lon="16.37986">
        <ele>228.042116</ele>
        <time>2026-07-07T08:23:35.000Z</time>
      </trkpt>
      <trkpt lat="48.18181" lon="16.37981">
        <ele>228.070723</ele>
        <time>2026-07-07T08:23:36.000Z</time>
      </trkpt>
      <trkpt lat="48.18178" lon="16.37976">
        <ele>228.098928</ele>
        <time>2026-07-07T08:23:37.000Z</time>
      </trkpt>
      <trkpt lat="48.18176" lon="16.37971">
        <ele>228.125301</ele>
        <time>2026-07-07T08:23:38.000Z</time>
      </trkpt>
      <trkpt lat="48.18173" lon="16.37966">
        <ele>228.151646</ele>
        <time>2026-07-07T08:23:39.000Z</time>
      </trkpt>
      <trkpt lat="48.18171" lon="16.3796">
        <ele>228.177978</ele>
        <time>2026-07-07T08:23:40.000Z</time>
      </trkpt>
      <trkpt lat="48.18169" lon="16.37955">
        <ele>228.202945</ele>
        <time>2026-07-07T08:23:41.000Z</time>
      </trkpt>
      <trkpt lat="48.18167" lon="16.3795">
        <ele>228.22755</ele>
        <time>2026-07-07T08:23:42.000Z</time>
      </trkpt>
      <trkpt lat="48.18165" lon="16.37945">
        <ele>228.251158</ele>
        <time>2026-07-07T08:23:43.000Z</time>
      </trkpt>
      <trkpt lat="48.18164" lon="16.37941">
        <ele>228.272253</ele>
        <time>2026-07-07T08:23:44.000Z</time>
      </trkpt>
      <trkpt lat="48.18162" lon="16.37937">
        <ele>228.290526</ele>
        <time>2026-07-07T08:23:45.000Z</time>
      </trkpt>
      <trkpt lat="48.18161" lon="16.37934">
        <ele>228.306387</ele>
        <time>2026-07-07T08:23:46.000Z</time>
      </trkpt>
      <trkpt lat="48.1816" lon="16.37931">
        <ele>228.321684</ele>
        <time>2026-07-07T08:23:47.000Z</time>
      </trkpt>
      <trkpt lat="48.18159" lon="16.37928">
        <ele>228.334151</ele>
        <time>2026-07-07T08:23:48.000Z</time>
      </trkpt>
      <trkpt lat="48.18158" lon="16.37926">
        <ele>228.346146</ele>
        <time>2026-07-07T08:23:49.000Z</time>
      </trkpt>
      <trkpt lat="48.18157" lon="16.37925">
        <ele>228.352818</ele>
        <time>2026-07-07T08:23:50.000Z</time>
      </trkpt>
      <trkpt lat="48.18157" lon="16.37924">
        <ele>228.356093</ele>
        <time>2026-07-07T08:23:51.000Z</time>
      </trkpt>
      <trkpt lat="48.18155" lon="16.37919">
        <ele>228.382438</ele>
        <time>2026-07-07T08:24:25.000Z</time>
      </trkpt>
      <trkpt lat="48.18153" lon="16.37915">
        <ele>228.40018</ele>
        <time>2026-07-07T08:24:26.000Z</time>
      </trkpt>
      <trkpt lat="48.18152" lon="16.37911">
        <ele>228.418439</ele>
        <time>2026-07-07T08:24:27.000Z</time>
      </trkpt>
      <trkpt lat="48.18151" lon="16.37907">
        <ele>228.437055</ele>
        <time>2026-07-07T08:24:28.000Z</time>
      </trkpt>
      <trkpt lat="48.18151" lon="16.37903">
        <ele>228.453534</ele>
        <time>2026-07-07T08:24:29.000Z</time>
      </trkpt>
      <trkpt lat="48.1815" lon="16.379">
        <ele>228.468639</ele>
        <time>2026-07-07T08:24:30.000Z</time>
      </trkpt>
      <trkpt lat="48.1815" lon="16.37896">
        <ele>228.483624</ele>
        <time>2026-07-07T08:24:31.000Z</time>
      </trkpt>
      <trkpt lat="48.18149" lon="16.37893">
        <ele>228.499237</ele>
        <time>2026-07-07T08:24:32.000Z</time>
      </trkpt>
      <trkpt lat="48.18148" lon="16.3789">
        <ele>228.515743</ele>
        <time>2026-07-07T08:24:33.000Z</time>
      </trkpt>
      <trkpt lat="48.18147" lon="16.37888">
        <ele>228.52531</ele>
        <time>2026-07-07T08:24:34.000Z</time>
      </trkpt>
      <trkpt lat="48.18146" lon="16.37888">
        <ele>228.528896</ele>
        <time>2026-07-07T08:24:35.000Z</time>
      </trkpt>
      <trkpt lat="48.18146" lon="16.37889">
        <ele>228.530162</ele>
        <time>2026-07-07T08:24:36.000Z</time>
      </trkpt>
      <trkpt lat="48.18146" lon="16.37889">
        <ele>228.531952</ele>
        <time>2026-07-07T08:24:37.000Z</time>
      </trkpt>
      <trkpt lat="48.18142" lon="16.37894">
        <ele>228.566297</ele>
        <time>2026-07-07T08:25:00.000Z</time>
      </trkpt>
      <trkpt lat="48.1814" lon="16.37898">
        <ele>228.582803</ele>
        <time>2026-07-07T08:25:01.000Z</time>
      </trkpt>
      <trkpt lat="48.18139" lon="16.37901">
        <ele>228.600826</ele>
        <time>2026-07-07T08:25:02.000Z</time>
      </trkpt>
      <trkpt lat="48.18137" lon="16.37906">
        <ele>228.624135</ele>
        <time>2026-07-07T08:25:03.000Z</time>
      </trkpt>
      <trkpt lat="48.18135" lon="16.37911">
        <ele>228.64821</ele>
        <time>2026-07-07T08:25:04.000Z</time>
      </trkpt>
      <trkpt lat="48.18132" lon="16.37914">
        <ele>228.673062</ele>
        <time>2026-07-07T08:25:05.000Z</time>
      </trkpt>
      <trkpt lat="48.18129" lon="16.37918">
        <ele>228.699138</ele>
        <time>2026-07-07T08:25:06.000Z</time>
      </trkpt>
      <trkpt lat="48.18124" lon="16.37921">
        <ele>228.728579</ele>
        <time>2026-07-07T08:25:07.000Z</time>
      </trkpt>
      <trkpt lat="48.1812" lon="16.37923">
        <ele>228.756519</ele>
        <time>2026-07-07T08:25:08.000Z</time>
      </trkpt>
      <trkpt lat="48.18115" lon="16.37924">
        <ele>228.786693</ele>
        <time>2026-07-07T08:25:09.000Z</time>
      </trkpt>
      <trkpt lat="48.1811" lon="16.37925">
        <ele>228.818516</ele>
        <time>2026-07-07T08:25:10.000Z</time>
      </trkpt>
      <trkpt lat="48.18105" lon="16.37926">
        <ele>228.851067</ele>
        <time>2026-07-07T08:25:11.000Z</time>
      </trkpt>
      <trkpt lat="48.181" lon="16.37927">
        <ele>228.882991</ele>
        <time>2026-07-07T08:25:12.000Z</time>
      </trkpt>
      <trkpt lat="48.18095" lon="16.37928">
        <ele>228.915038</ele>
        <time>2026-07-07T08:25:13.000Z</time>
      </trkpt>
      <trkpt lat="48.1809" lon="16.37929">
        <ele>228.94702</ele>
        <time>2026-07-07T08:25:14.000Z</time>
      </trkpt>
      <trkpt lat="48.18085" lon="16.3793">
        <ele>228.978263</ele>
        <time>2026-07-07T08:25:15.000Z</time>
      </trkpt>
      <trkpt lat="48.1808" lon="16.37931">
        <ele>229.009732</ele>
        <time>2026-07-07T08:25:16.000Z</time>
      </trkpt>
      <trkpt lat="48.18075" lon="16.37932">
        <ele>229.041732</ele>
        <time>2026-07-07T08:25:17.000Z</time>
      </trkpt>
      <trkpt lat="48.1807" lon="16.37933">
        <ele>229.074282</ele>
        <time>2026-07-07T08:25:18.000Z</time>
      </trkpt>
      <trkpt lat="48.18065" lon="16.37934">
        <ele>229.106227</ele>
        <time>2026-07-07T08:25:19.000Z</time>
      </trkpt>
      <trkpt lat="48.18059" lon="16.37935">
        <ele>229.138888</ele>
        <time>2026-07-07T08:25:20.000Z</time>
      </trkpt>
      <trkpt lat="48.18054" lon="16.37937">
        <ele>229.172353</ele>
        <time>2026-07-07T08:25:21.000Z</time>
      </trkpt>
      <trkpt lat="48.18049" lon="16.37938">
        <ele>229.20309</ele>
        <time>2026-07-07T08:25:22.000Z</time>
      </trkpt>
      <trkpt lat="48.18044" lon="16.37939">
        <ele>229.23564</ele>
        <time>2026-07-07T08:25:23.000Z</time>
      </trkpt>
      <trkpt lat="48.18038" lon="16.3794">
        <ele>229.269507</ele>
        <time>2026-07-07T08:25:24.000Z</time>
      </trkpt>
      <trkpt lat="48.18033" lon="16.37941">
        <ele>229.301506</ele>
        <time>2026-07-07T08:25:25.000Z</time>
      </trkpt>
      <trkpt lat="48.18028" lon="16.37942">
        <ele>229.332963</ele>
        <time>2026-07-07T08:25:26.000Z</time>
      </trkpt>
      <trkpt lat="48.18022" lon="16.37943">
        <ele>229.366118</ele>
        <time>2026-07-07T08:25:27.000Z</time>
      </trkpt>
      <trkpt lat="48.18017" lon="16.37944">
        <ele>229.396973</ele>
        <time>2026-07-07T08:25:28.000Z</time>
      </trkpt>
      <trkpt lat="48.18012" lon="16.37945">
        <ele>229.427508</ele>
        <time>2026-07-07T08:25:29.000Z</time>
      </trkpt>
      <trkpt lat="48.18007" lon="16.37945">
        <ele>229.458072</ele>
        <time>2026-07-07T08:25:30.000Z</time>
      </trkpt>
      <trkpt lat="48.18002" lon="16.37947">
        <ele>229.489529</ele>
        <time>2026-07-07T08:25:31.000Z</time>
      </trkpt>
      <trkpt lat="48.17997" lon="16.37948">
        <ele>229.521588</ele>
        <time>2026-07-07T08:25:32.000Z</time>
      </trkpt>
      <trkpt lat="48.17992" lon="16.37949">
        <ele>229.552325</ele>
        <time>2026-07-07T08:25:33.000Z</time>
      </trkpt>
      <trkpt lat="48.17987" lon="16.3795">
        <ele>229.584592</ele>
        <time>2026-07-07T08:25:34.000Z</time>
      </trkpt>
      <trkpt lat="48.17982" lon="16.37951">
        <ele>229.615933</ele>
        <time>2026-07-07T08:25:35.000Z</time>
      </trkpt>
      <trkpt lat="48.17977" lon="16.37952">
        <ele>229.64667</ele>
        <time>2026-07-07T08:25:36.000Z</time>
      </trkpt>
      <trkpt lat="48.17972" lon="16.37953">
        <ele>229.678522</ele>
        <time>2026-07-07T08:25:37.000Z</time>
      </trkpt>
      <trkpt lat="48.17966" lon="16.37954">
        <ele>229.710581</ele>
        <time>2026-07-07T08:25:38.000Z</time>
      </trkpt>
      <trkpt lat="48.17961" lon="16.37955">
        <ele>229.743131</ele>
        <time>2026-07-07T08:25:39.000Z</time>
      </trkpt>
      <trkpt lat="48.17956" lon="16.37956">
        <ele>229.775131</ele>
        <time>2026-07-07T08:25:40.000Z</time>
      </trkpt>
      <trkpt lat="48.17951" lon="16.37957">
        <ele>229.806337</ele>
        <time>2026-07-07T08:25:41.000Z</time>
      </trkpt>
      <trkpt lat="48.17946" lon="16.37958">
        <ele>229.837074</ele>
        <time>2026-07-07T08:25:42.000Z</time>
      </trkpt>
      <trkpt lat="48.17941" lon="16.37959">
        <ele>229.865898</ele>
        <time>2026-07-07T08:25:43.000Z</time>
      </trkpt>
      <trkpt lat="48.17936" lon="16.3796">
        <ele>229.895694</ele>
        <time>2026-07-07T08:25:44.000Z</time>
      </trkpt>
      <trkpt lat="48.17931" lon="16.37961">
        <ele>229.925652</ele>
        <time>2026-07-07T08:25:45.000Z</time>
      </trkpt>
      <trkpt lat="48.17927" lon="16.37961">
        <ele>229.953147</ele>
        <time>2026-07-07T08:25:46.000Z</time>
      </trkpt>
      <trkpt lat="48.17922" lon="16.37962">
        <ele>229.980643</ele>
        <time>2026-07-07T08:25:47.000Z</time>
      </trkpt>
      <trkpt lat="48.17918" lon="16.37963">
        <ele>230.008817</ele>
        <time>2026-07-07T08:25:48.000Z</time>
      </trkpt>
      <trkpt lat="48.17913" lon="16.37963">
        <ele>230.03764</ele>
        <time>2026-07-07T08:25:49.000Z</time>
      </trkpt>
      <trkpt lat="48.17908" lon="16.37964">
        <ele>230.067169</ele>
        <time>2026-07-07T08:25:50.000Z</time>
      </trkpt>
      <trkpt lat="48.17903" lon="16.37965">
        <ele>230.086016</ele>
        <time>2026-07-07T08:25:51.000Z</time>
      </trkpt>
      <trkpt lat="48.17897" lon="16.37966">
        <ele>230.098449</ele>
        <time>2026-07-07T08:25:52.000Z</time>
      </trkpt>
      <trkpt lat="48.17892" lon="16.37967">
        <ele>230.111123</ele>
        <time>2026-07-07T08:25:53.000Z</time>
      </trkpt>
      <trkpt lat="48.17886" lon="16.37968">
        <ele>230.124001</ele>
        <time>2026-07-07T08:25:54.000Z</time>
      </trkpt>
      <trkpt lat="48.1788" lon="16.37969">
        <ele>230.136879</ele>
        <time>2026-07-07T08:25:55.000Z</time>
      </trkpt>
      <trkpt lat="48.17875" lon="16.3797">
        <ele>230.149295</ele>
        <time>2026-07-07T08:25:56.000Z</time>
      </trkpt>
      <trkpt lat="48.1787" lon="16.37971">
        <ele>230.161302</ele>
        <time>2026-07-07T08:25:57.000Z</time>
      </trkpt>
      <trkpt lat="48.17864" lon="16.37973">
        <ele>230.173312</ele>
        <time>2026-07-07T08:25:58.000Z</time>
      </trkpt>
      <trkpt lat="48.17859" lon="16.37977">
        <ele>230.185777</ele>
        <time>2026-07-07T08:25:59.000Z</time>
      </trkpt>
      <trkpt lat="48.17855" lon="16.3798">
        <ele>230.197152</ele>
        <time>2026-07-07T08:26:00.000Z</time>
      </trkpt>
      <trkpt lat="48.17851" lon="16.37983">
        <ele>230.207466</ele>
        <time>2026-07-07T08:26:01.000Z</time>
      </trkpt>
      <trkpt lat="48.17846" lon="16.37986">
        <ele>230.218774</ele>
        <time>2026-07-07T08:26:02.000Z</time>
      </trkpt>
      <trkpt lat="48.17842" lon="16.3799">
        <ele>230.230219</ele>
        <time>2026-07-07T08:26:03.000Z</time>
      </trkpt>
      <trkpt lat="48.17837" lon="16.37994">
        <ele>230.241958</ele>
        <time>2026-07-07T08:26:04.000Z</time>
      </trkpt>
      <trkpt lat="48.17833" lon="16.37998">
        <ele>230.253313</ele>
        <time>2026-07-07T08:26:05.000Z</time>
      </trkpt>
      <trkpt lat="48.17828" lon="16.38002">
        <ele>230.265017</ele>
        <time>2026-07-07T08:26:06.000Z</time>
      </trkpt>
      <trkpt lat="48.17824" lon="16.38006">
        <ele>230.276912</ele>
        <time>2026-07-07T08:26:07.000Z</time>
      </trkpt>
      <trkpt lat="48.17819" lon="16.3801">
        <ele>230.288727</ele>
        <time>2026-07-07T08:26:08.000Z</time>
      </trkpt>
      <trkpt lat="48.17815" lon="16.38014">
        <ele>230.300466</ele>
        <time>2026-07-07T08:26:09.000Z</time>
      </trkpt>
      <trkpt lat="48.1781" lon="16.38018">
        <ele>230.312205</ele>
        <time>2026-07-07T08:26:10.000Z</time>
      </trkpt>
      <trkpt lat="48.17806" lon="16.38022">
        <ele>230.32333</ele>
        <time>2026-07-07T08:26:11.000Z</time>
      </trkpt>
      <trkpt lat="48.17802" lon="16.38026">
        <ele>230.335069</ele>
        <time>2026-07-07T08:26:12.000Z</time>
      </trkpt>
      <trkpt lat="48.17797" lon="16.3803">
        <ele>230.347346</ele>
        <time>2026-07-07T08:26:13.000Z</time>
      </trkpt>
      <trkpt lat="48.17793" lon="16.38034">
        <ele>230.358162</ele>
        <time>2026-07-07T08:26:14.000Z</time>
      </trkpt>
      <trkpt lat="48.17788" lon="16.38039">
        <ele>230.370114</ele>
        <time>2026-07-07T08:26:15.000Z</time>
      </trkpt>
      <trkpt lat="48.17784" lon="16.38043">
        <ele>230.382506</ele>
        <time>2026-07-07T08:26:16.000Z</time>
      </trkpt>
      <trkpt lat="48.1778" lon="16.38048">
        <ele>230.394625</ele>
        <time>2026-07-07T08:26:17.000Z</time>
      </trkpt>
      <trkpt lat="48.17776" lon="16.38053">
        <ele>230.405604</ele>
        <time>2026-07-07T08:26:18.000Z</time>
      </trkpt>
      <trkpt lat="48.17773" lon="16.38059">
        <ele>230.416236</ele>
        <time>2026-07-07T08:26:19.000Z</time>
      </trkpt>
      <trkpt lat="48.17771" lon="16.38063">
        <ele>230.424266</ele>
        <time>2026-07-07T08:26:20.000Z</time>
      </trkpt>
      <trkpt lat="48.1777" lon="16.38067">
        <ele>230.429827</ele>
        <time>2026-07-07T08:26:21.000Z</time>
      </trkpt>
      <trkpt lat="48.1777" lon="16.38069">
        <ele>230.433884</ele>
        <time>2026-07-07T08:26:22.000Z</time>
      </trkpt>
      <trkpt lat="48.17769" lon="16.38072">
        <ele>230.438424</ele>
        <time>2026-07-07T08:26:23.000Z</time>
      </trkpt>
      <trkpt lat="48.17769" lon="16.38076">
        <ele>230.444128</ele>
        <time>2026-07-07T08:26:24.000Z</time>
      </trkpt>
      <trkpt lat="48.17769" lon="16.38081">
        <ele>230.45125</ele>
        <time>2026-07-07T08:26:25.000Z</time>
      </trkpt>
      <trkpt lat="48.17768" lon="16.38086">
        <ele>230.459704</ele>
        <time>2026-07-07T08:26:26.000Z</time>
      </trkpt>
      <trkpt lat="48.17768" lon="16.38093">
        <ele>230.469347</ele>
        <time>2026-07-07T08:26:27.000Z</time>
      </trkpt>
      <trkpt lat="48.17767" lon="16.38099">
        <ele>230.478785</ele>
        <time>2026-07-07T08:26:28.000Z</time>
      </trkpt>
      <trkpt lat="48.17767" lon="16.38106">
        <ele>230.470216</ele>
        <time>2026-07-07T08:26:29.000Z</time>
      </trkpt>
      <trkpt lat="48.17767" lon="16.38112">
        <ele>230.455665</ele>
        <time>2026-07-07T08:26:30.000Z</time>
      </trkpt>
      <trkpt lat="48.17767" lon="16.38119">
        <ele>230.439713</ele>
        <time>2026-07-07T08:26:31.000Z</time>
      </trkpt>
      <trkpt lat="48.17766" lon="16.38126">
        <ele>230.423242</ele>
        <time>2026-07-07T08:26:32.000Z</time>
      </trkpt>
      <trkpt lat="48.17766" lon="16.38133">
        <ele>230.406082</ele>
        <time>2026-07-07T08:26:33.000Z</time>
      </trkpt>
      <trkpt lat="48.17765" lon="16.38141">
        <ele>230.389152</ele>
        <time>2026-07-07T08:26:34.000Z</time>
      </trkpt>
      <trkpt lat="48.17764" lon="16.38148">
        <ele>230.371681</ele>
        <time>2026-07-07T08:26:35.000Z</time>
      </trkpt>
      <trkpt lat="48.17764" lon="16.38156">
        <ele>230.353886</ele>
        <time>2026-07-07T08:26:36.000Z</time>
      </trkpt>
      <trkpt lat="48.17764" lon="16.38163">
        <ele>230.337013</ele>
        <time>2026-07-07T08:26:37.000Z</time>
      </trkpt>
      <trkpt lat="48.17764" lon="16.3817">
        <ele>230.320388</ele>
        <time>2026-07-07T08:26:38.000Z</time>
      </trkpt>
      <trkpt lat="48.17763" lon="16.38177">
        <ele>230.303975</ele>
        <time>2026-07-07T08:26:39.000Z</time>
      </trkpt>
      <trkpt lat="48.17763" lon="16.38185">
        <ele>230.286586</ele>
        <time>2026-07-07T08:26:40.000Z</time>
      </trkpt>
      <trkpt lat="48.17762" lon="16.38192">
        <ele>230.269343</ele>
        <time>2026-07-07T08:26:41.000Z</time>
      </trkpt>
      <trkpt lat="48.17761" lon="16.382">
        <ele>230.251871</ele>
        <time>2026-07-07T08:26:42.000Z</time>
      </trkpt>
      <trkpt lat="48.17761" lon="16.38208">
        <ele>230.233757</ele>
        <time>2026-07-07T08:26:43.000Z</time>
      </trkpt>
      <trkpt lat="48.1776" lon="16.38215">
        <ele>230.215659</ele>
        <time>2026-07-07T08:26:44.000Z</time>
      </trkpt>
      <trkpt lat="48.1776" lon="16.38222">
        <ele>230.199264</ele>
        <time>2026-07-07T08:26:45.000Z</time>
      </trkpt>
      <trkpt lat="48.1776" lon="16.38229">
        <ele>230.183807</ele>
        <time>2026-07-07T08:26:46.000Z</time>
      </trkpt>
      <trkpt lat="48.17759" lon="16.38235">
        <ele>230.169926</ele>
        <time>2026-07-07T08:26:47.000Z</time>
      </trkpt>
      <trkpt lat="48.17759" lon="16.38241">
        <ele>230.156067</ele>
        <time>2026-07-07T08:26:48.000Z</time>
      </trkpt>
      <trkpt lat="48.17759" lon="16.38247">
        <ele>230.141725</ele>
        <time>2026-07-07T08:26:49.000Z</time>
      </trkpt>
      <trkpt lat="48.17759" lon="16.38254">
        <ele>230.126483</ele>
        <time>2026-07-07T08:26:50.000Z</time>
      </trkpt>
      <trkpt lat="48.17758" lon="16.38261">
        <ele>230.109858</ele>
        <time>2026-07-07T08:26:51.000Z</time>
      </trkpt>
      <trkpt lat="48.17758" lon="16.38268">
        <ele>230.092985</ele>
        <time>2026-07-07T08:26:52.000Z</time>
      </trkpt>
      <trkpt lat="48.17758" lon="16.38276">
        <ele>230.075651</ele>
        <time>2026-07-07T08:26:53.000Z</time>
      </trkpt>
      <trkpt lat="48.17757" lon="16.38283">
        <ele>230.058982</ele>
        <time>2026-07-07T08:26:54.000Z</time>
      </trkpt>
      <trkpt lat="48.17757" lon="16.3829">
        <ele>230.04326</ele>
        <time>2026-07-07T08:26:55.000Z</time>
      </trkpt>
      <trkpt lat="48.17756" lon="16.38297">
        <ele>230.027614</ele>
        <time>2026-07-07T08:26:56.000Z</time>
      </trkpt>
      <trkpt lat="48.17756" lon="16.38303">
        <ele>230.012018</ele>
        <time>2026-07-07T08:26:57.000Z</time>
      </trkpt>
      <trkpt lat="48.17755" lon="16.3831">
        <ele>229.996235</ele>
        <time>2026-07-07T08:26:58.000Z</time>
      </trkpt>
      <trkpt lat="48.17755" lon="16.38317">
        <ele>229.979221</ele>
        <time>2026-07-07T08:26:59.000Z</time>
      </trkpt>
      <trkpt lat="48.17753" lon="16.38325">
        <ele>229.962012</ele>
        <time>2026-07-07T08:27:00.000Z</time>
      </trkpt>
      <trkpt lat="48.17752" lon="16.38331">
        <ele>229.945258</ele>
        <time>2026-07-07T08:27:01.000Z</time>
      </trkpt>
      <trkpt lat="48.1775" lon="16.38338">
        <ele>229.928164</ele>
        <time>2026-07-07T08:27:02.000Z</time>
      </trkpt>
      <trkpt lat="48.17748" lon="16.38345">
        <ele>229.911201</ele>
        <time>2026-07-07T08:27:03.000Z</time>
      </trkpt>
      <trkpt lat="48.17747" lon="16.38352">
        <ele>229.895881</ele>
        <time>2026-07-07T08:27:04.000Z</time>
      </trkpt>
      <trkpt lat="48.17745" lon="16.38358">
        <ele>229.881098</ele>
        <time>2026-07-07T08:27:05.000Z</time>
      </trkpt>
      <trkpt lat="48.17744" lon="16.38364">
        <ele>229.865884</ele>
        <time>2026-07-07T08:27:06.000Z</time>
      </trkpt>
      <trkpt lat="48.17743" lon="16.3837">
        <ele>229.864971</ele>
        <time>2026-07-07T08:27:07.000Z</time>
      </trkpt>
      <trkpt lat="48.17741" lon="16.38377">
        <ele>229.875836</ele>
        <time>2026-07-07T08:27:08.000Z</time>
      </trkpt>
      <trkpt lat="48.1774" lon="16.38385">
        <ele>229.887412</ele>
        <time>2026-07-07T08:27:09.000Z</time>
      </trkpt>
      <trkpt lat="48.17738" lon="16.38392">
        <ele>229.899415</ele>
        <time>2026-07-07T08:27:10.000Z</time>
      </trkpt>
      <trkpt lat="48.17736" lon="16.384">
        <ele>229.911938</ele>
        <time>2026-07-07T08:27:11.000Z</time>
      </trkpt>
      <trkpt lat="48.17734" lon="16.38407">
        <ele>229.924085</ele>
        <time>2026-07-07T08:27:12.000Z</time>
      </trkpt>
      <trkpt lat="48.17733" lon="16.38415">
        <ele>229.936742</ele>
        <time>2026-07-07T08:27:13.000Z</time>
      </trkpt>
      <trkpt lat="48.17731" lon="16.38423">
        <ele>229.949321</ele>
        <time>2026-07-07T08:27:14.000Z</time>
      </trkpt>
      <trkpt lat="48.1773" lon="16.38431">
        <ele>229.961946</ele>
        <time>2026-07-07T08:27:15.000Z</time>
      </trkpt>
      <trkpt lat="48.17728" lon="16.38439">
        <ele>229.974333</ele>
        <time>2026-07-07T08:27:16.000Z</time>
      </trkpt>
      <trkpt lat="48.17727" lon="16.38447">
        <ele>229.986555</ele>
        <time>2026-07-07T08:27:17.000Z</time>
      </trkpt>
      <trkpt lat="48.17725" lon="16.38455">
        <ele>229.998711</ele>
        <time>2026-07-07T08:27:18.000Z</time>
      </trkpt>
      <trkpt lat="48.17723" lon="16.38462">
        <ele>230.01079</ele>
        <time>2026-07-07T08:27:19.000Z</time>
      </trkpt>
      <trkpt lat="48.17721" lon="16.38469">
        <ele>230.022665</ele>
        <time>2026-07-07T08:27:20.000Z</time>
      </trkpt>
      <trkpt lat="48.1772" lon="16.38477">
        <ele>230.034385</ele>
        <time>2026-07-07T08:27:21.000Z</time>
      </trkpt>
      <trkpt lat="48.17718" lon="16.38484">
        <ele>230.045754</ele>
        <time>2026-07-07T08:27:22.000Z</time>
      </trkpt>
      <trkpt lat="48.17716" lon="16.38491">
        <ele>230.057043</ele>
        <time>2026-07-07T08:27:23.000Z</time>
      </trkpt>
      <trkpt lat="48.17715" lon="16.38498">
        <ele>230.06813</ele>
        <time>2026-07-07T08:27:24.000Z</time>
      </trkpt>
      <trkpt lat="48.17713" lon="16.38504">
        <ele>230.078993</ele>
        <time>2026-07-07T08:27:25.000Z</time>
      </trkpt>
      <trkpt lat="48.17711" lon="16.38511">
        <ele>230.089847</ele>
        <time>2026-07-07T08:27:26.000Z</time>
      </trkpt>
      <trkpt lat="48.1771" lon="16.38518">
        <ele>230.100303</ele>
        <time>2026-07-07T08:27:27.000Z</time>
      </trkpt>
      <trkpt lat="48.17708" lon="16.38523">
        <ele>230.10993</ele>
        <time>2026-07-07T08:27:28.000Z</time>
      </trkpt>
      <trkpt lat="48.17705" lon="16.38527">
        <ele>230.118757</ele>
        <time>2026-07-07T08:27:29.000Z</time>
      </trkpt>
      <trkpt lat="48.17701" lon="16.38528">
        <ele>230.128331</ele>
        <time>2026-07-07T08:27:30.000Z</time>
      </trkpt>
      <trkpt lat="48.17697" lon="16.38526">
        <ele>230.138746</ele>
        <time>2026-07-07T08:27:31.000Z</time>
      </trkpt>
      <trkpt lat="48.17692" lon="16.38524">
        <ele>230.150152</ele>
        <time>2026-07-07T08:27:32.000Z</time>
      </trkpt>
      <trkpt lat="48.17686" lon="16.38522">
        <ele>230.162792</ele>
        <time>2026-07-07T08:27:33.000Z</time>
      </trkpt>
      <trkpt lat="48.17681" lon="16.38521">
        <ele>230.17572</ele>
        <time>2026-07-07T08:27:34.000Z</time>
      </trkpt>
      <trkpt lat="48.17675" lon="16.38518">
        <ele>230.188655</ele>
        <time>2026-07-07T08:27:35.000Z</time>
      </trkpt>
      <trkpt lat="48.1767" lon="16.38517">
        <ele>230.201387</ele>
        <time>2026-07-07T08:27:36.000Z</time>
      </trkpt>
      <trkpt lat="48.17664" lon="16.38515">
        <ele>230.214149</ele>
        <time>2026-07-07T08:27:37.000Z</time>
      </trkpt>
      <trkpt lat="48.17659" lon="16.38514">
        <ele>230.226802</ele>
        <time>2026-07-07T08:27:38.000Z</time>
      </trkpt>
      <trkpt lat="48.17653" lon="16.38512">
        <ele>230.239407</ele>
        <time>2026-07-07T08:27:39.000Z</time>
      </trkpt>
      <trkpt lat="48.17648" lon="16.38511">
        <ele>230.251611</ele>
        <time>2026-07-07T08:27:40.000Z</time>
      </trkpt>
      <trkpt lat="48.17643" lon="16.38509">
        <ele>230.264264</ele>
        <time>2026-07-07T08:27:41.000Z</time>
      </trkpt>
      <trkpt lat="48.17638" lon="16.38507">
        <ele>230.334846</ele>
        <time>2026-07-07T08:27:42.000Z</time>
      </trkpt>
      <trkpt lat="48.17633" lon="16.38505">
        <ele>230.441139</ele>
        <time>2026-07-07T08:27:43.000Z</time>
      </trkpt>
      <trkpt lat="48.17623" lon="16.38501">
        <ele>230.637678</ele>
        <time>2026-07-07T08:27:45.000Z</time>
      </trkpt>
      <trkpt lat="48.17618" lon="16.38499">
        <ele>230.736125</ele>
        <time>2026-07-07T08:27:46.000Z</time>
      </trkpt>
      <trkpt lat="48.17613" lon="16.38497">
        <ele>230.837223</ele>
        <time>2026-07-07T08:27:47.000Z</time>
      </trkpt>
      <trkpt lat="48.17608" lon="16.38495">
        <ele>230.933886</ele>
        <time>2026-07-07T08:27:48.000Z</time>
      </trkpt>
      <trkpt lat="48.17604" lon="16.38493">
        <ele>231.029334</ele>
        <time>2026-07-07T08:27:49.000Z</time>
      </trkpt>
      <trkpt lat="48.17599" lon="16.3849">
        <ele>231.122643</ele>
        <time>2026-07-07T08:27:50.000Z</time>
      </trkpt>
      <trkpt lat="48.17594" lon="16.38488">
        <ele>231.220513</ele>
        <time>2026-07-07T08:27:51.000Z</time>
      </trkpt>
      <trkpt lat="48.1759" lon="16.38485">
        <ele>231.316202</ele>
        <time>2026-07-07T08:27:52.000Z</time>
      </trkpt>
      <trkpt lat="48.17586" lon="16.38482">
        <ele>231.406782</ele>
        <time>2026-07-07T08:27:53.000Z</time>
      </trkpt>
      <trkpt lat="48.17582" lon="16.3848">
        <ele>231.490951</ele>
        <time>2026-07-07T08:27:54.000Z</time>
      </trkpt>
      <trkpt lat="48.17577" lon="16.38478">
        <ele>231.580142</ele>
        <time>2026-07-07T08:27:55.000Z</time>
      </trkpt>
      <trkpt lat="48.17573" lon="16.38476">
        <ele>231.671837</ele>
        <time>2026-07-07T08:27:56.000Z</time>
      </trkpt>
      <trkpt lat="48.17568" lon="16.38474">
        <ele>231.770397</ele>
        <time>2026-07-07T08:27:57.000Z</time>
      </trkpt>
      <trkpt lat="48.17563" lon="16.38472">
        <ele>231.871495</ele>
        <time>2026-07-07T08:27:58.000Z</time>
      </trkpt>
      <trkpt lat="48.17558" lon="16.3847">
        <ele>231.971114</ele>
        <time>2026-07-07T08:27:59.000Z</time>
      </trkpt>
      <trkpt lat="48.17553" lon="16.38469">
        <ele>232.066904</ele>
        <time>2026-07-07T08:28:00.000Z</time>
      </trkpt>
      <trkpt lat="48.17548" lon="16.38467">
        <ele>232.16052</ele>
        <time>2026-07-07T08:28:01.000Z</time>
      </trkpt>
      <trkpt lat="48.17544" lon="16.38466">
        <ele>232.256584</ele>
        <time>2026-07-07T08:28:02.000Z</time>
      </trkpt>
      <trkpt lat="48.17539" lon="16.38464">
        <ele>232.352375</ele>
        <time>2026-07-07T08:28:03.000Z</time>
      </trkpt>
      <trkpt lat="48.17534" lon="16.38463">
        <ele>232.441668</ele>
        <time>2026-07-07T08:28:04.000Z</time>
      </trkpt>
      <trkpt lat="48.1753" lon="16.38462">
        <ele>232.53441</ele>
        <time>2026-07-07T08:28:05.000Z</time>
      </trkpt>
      <trkpt lat="48.17525" lon="16.38461">
        <ele>232.627781</ele>
        <time>2026-07-07T08:28:06.000Z</time>
      </trkpt>
      <trkpt lat="48.1752" lon="16.38459">
        <ele>232.717568</ele>
        <time>2026-07-07T08:28:07.000Z</time>
      </trkpt>
      <trkpt lat="48.17516" lon="16.38458">
        <ele>232.807628</ele>
        <time>2026-07-07T08:28:08.000Z</time>
      </trkpt>
      <trkpt lat="48.17512" lon="16.38456">
        <ele>232.891091</ele>
        <time>2026-07-07T08:28:09.000Z</time>
      </trkpt>
      <trkpt lat="48.17507" lon="16.38455">
        <ele>232.979245</ele>
        <time>2026-07-07T08:28:10.000Z</time>
      </trkpt>
      <trkpt lat="48.17503" lon="16.38453">
        <ele>233.05894</ele>
        <time>2026-07-07T08:28:11.000Z</time>
      </trkpt>
      <trkpt lat="48.175" lon="16.38452">
        <ele>233.135086</ele>
        <time>2026-07-07T08:28:12.000Z</time>
      </trkpt>
      <trkpt lat="48.17496" lon="16.38451">
        <ele>233.205229</ele>
        <time>2026-07-07T08:28:13.000Z</time>
      </trkpt>
      <trkpt lat="48.17492" lon="16.3845">
        <ele>233.278262</ele>
        <time>2026-07-07T08:28:14.000Z</time>
      </trkpt>
      <trkpt lat="48.1749" lon="16.38449">
        <ele>233.335526</ele>
        <time>2026-07-07T08:28:15.000Z</time>
      </trkpt>
      <trkpt lat="48.17486" lon="16.3845">
        <ele>233.402184</ele>
        <time>2026-07-07T08:28:16.000Z</time>
      </trkpt>
      <trkpt lat="48.17484" lon="16.38449">
        <ele>233.453467</ele>
        <time>2026-07-07T08:28:17.000Z</time>
      </trkpt>
      <trkpt lat="48.17482" lon="16.38448">
        <ele>233.499664</ele>
        <time>2026-07-07T08:28:18.000Z</time>
      </trkpt>
      <trkpt lat="48.1748" lon="16.38446">
        <ele>233.534887</ele>
        <time>2026-07-07T08:28:19.000Z</time>
      </trkpt>
      <trkpt lat="48.17479" lon="16.38445">
        <ele>233.560043</ele>
        <time>2026-07-07T08:28:20.000Z</time>
      </trkpt>
      <trkpt lat="48.17478" lon="16.38445">
        <ele>233.571784</ele>
        <time>2026-07-07T08:28:21.000Z</time>
      </trkpt>
      <trkpt lat="48.17471" lon="16.38435">
        <ele>233.762083</ele>
        <time>2026-07-07T08:29:30.000Z</time>
      </trkpt>
      <trkpt lat="48.17469" lon="16.38434">
        <ele>233.824551</ele>
        <time>2026-07-07T08:29:31.000Z</time>
      </trkpt>
      <trkpt lat="48.17466" lon="16.38433">
        <ele>233.910286</ele>
        <time>2026-07-07T08:29:32.000Z</time>
      </trkpt>
      <trkpt lat="48.17463" lon="16.38432">
        <ele>234.000939</ele>
        <time>2026-07-07T08:29:33.000Z</time>
      </trkpt>
      <trkpt lat="48.17459" lon="16.3843">
        <ele>234.092984</ele>
        <time>2026-07-07T08:29:34.000Z</time>
      </trkpt>
      <trkpt lat="48.17457" lon="16.38429">
        <ele>234.172909</ele>
        <time>2026-07-07T08:29:35.000Z</time>
      </trkpt>
      <trkpt lat="48.17453" lon="16.38428">
        <ele>234.263991</ele>
        <time>2026-07-07T08:29:36.000Z</time>
      </trkpt>
      <trkpt lat="48.1745" lon="16.38427">
        <ele>234.356955</ele>
        <time>2026-07-07T08:29:37.000Z</time>
      </trkpt>
      <trkpt lat="48.17446" lon="16.38426">
        <ele>234.46458</ele>
        <time>2026-07-07T08:29:38.000Z</time>
      </trkpt>
      <trkpt lat="48.17443" lon="16.38424">
        <ele>234.570415</ele>
        <time>2026-07-07T08:29:39.000Z</time>
      </trkpt>
      <trkpt lat="48.17439" lon="16.38423">
        <ele>234.684268</ele>
        <time>2026-07-07T08:29:40.000Z</time>
      </trkpt>
      <trkpt lat="48.17435" lon="16.38421">
        <ele>234.797688</ele>
        <time>2026-07-07T08:29:41.000Z</time>
      </trkpt>
      <trkpt lat="48.1743" lon="16.3842">
        <ele>234.916107</ele>
        <time>2026-07-07T08:29:42.000Z</time>
      </trkpt>
      <trkpt lat="48.17427" lon="16.38418">
        <ele>235.025605</ele>
        <time>2026-07-07T08:29:43.000Z</time>
      </trkpt>
      <trkpt lat="48.17422" lon="16.38417">
        <ele>235.143335</ele>
        <time>2026-07-07T08:29:44.000Z</time>
      </trkpt>
      <trkpt lat="48.17418" lon="16.38416">
        <ele>235.255975</ele>
        <time>2026-07-07T08:29:45.000Z</time>
      </trkpt>
      <trkpt lat="48.17415" lon="16.38415">
        <ele>235.3636</ele>
        <time>2026-07-07T08:29:46.000Z</time>
      </trkpt>
      <trkpt lat="48.17411" lon="16.38413">
        <ele>235.464114</ele>
        <time>2026-07-07T08:29:47.000Z</time>
      </trkpt>
      <trkpt lat="48.17408" lon="16.38412">
        <ele>235.564138</ele>
        <time>2026-07-07T08:29:48.000Z</time>
      </trkpt>
      <trkpt lat="48.17404" lon="16.38411">
        <ele>235.671763</ele>
        <time>2026-07-07T08:29:49.000Z</time>
      </trkpt>
      <trkpt lat="48.174" lon="16.38409">
        <ele>235.771329</ele>
        <time>2026-07-07T08:29:50.000Z</time>
      </trkpt>
      <trkpt lat="48.17397" lon="16.38408">
        <ele>235.877164</ele>
        <time>2026-07-07T08:29:51.000Z</time>
      </trkpt>
      <trkpt lat="48.17393" lon="16.38407">
        <ele>235.983393</ele>
        <time>2026-07-07T08:29:52.000Z</time>
      </trkpt>
      <trkpt lat="48.17389" lon="16.38406">
        <ele>236.081777</ele>
        <time>2026-07-07T08:29:53.000Z</time>
      </trkpt>
      <trkpt lat="48.17386" lon="16.38405">
        <ele>236.177821</ele>
        <time>2026-07-07T08:29:54.000Z</time>
      </trkpt>
      <trkpt lat="48.17383" lon="16.38403">
        <ele>236.266377</ele>
        <time>2026-07-07T08:29:55.000Z</time>
      </trkpt>
      <trkpt lat="48.1738" lon="16.38401">
        <ele>236.357521</ele>
        <time>2026-07-07T08:29:56.000Z</time>
      </trkpt>
      <trkpt lat="48.17376" lon="16.384">
        <ele>236.455919</ele>
        <time>2026-07-07T08:29:57.000Z</time>
      </trkpt>
      <trkpt lat="48.17373" lon="16.38398">
        <ele>236.556434</ele>
        <time>2026-07-07T08:29:58.000Z</time>
      </trkpt>
      <trkpt lat="48.1737" lon="16.38397">
        <ele>236.650197</ele>
        <time>2026-07-07T08:29:59.000Z</time>
      </trkpt>
      <trkpt lat="48.17366" lon="16.38396">
        <ele>236.743162</ele>
        <time>2026-07-07T08:30:00.000Z</time>
      </trkpt>
      <trkpt lat="48.17363" lon="16.38395">
        <ele>236.841545</ele>
        <time>2026-07-07T08:30:01.000Z</time>
      </trkpt>
      <trkpt lat="48.17359" lon="16.38394">
        <ele>236.939046</ele>
        <time>2026-07-07T08:30:02.000Z</time>
      </trkpt>
      <trkpt lat="48.17356" lon="16.38393">
        <ele>237.04286</ele>
        <time>2026-07-07T08:30:03.000Z</time>
      </trkpt>
      <trkpt lat="48.17352" lon="16.38392">
        <ele>237.135824</ele>
        <time>2026-07-07T08:30:04.000Z</time>
      </trkpt>
      <trkpt lat="48.17349" lon="16.38391">
        <ele>237.234569</ele>
        <time>2026-07-07T08:30:05.000Z</time>
      </trkpt>
      <trkpt lat="48.17345" lon="16.3839">
        <ele>237.338382</ele>
        <time>2026-07-07T08:30:06.000Z</time>
      </trkpt>
      <trkpt lat="48.17342" lon="16.38389">
        <ele>237.436766</ele>
        <time>2026-07-07T08:30:07.000Z</time>
      </trkpt>
      <trkpt lat="48.17338" lon="16.38388">
        <ele>237.534822</ele>
        <time>2026-07-07T08:30:08.000Z</time>
      </trkpt>
      <trkpt lat="48.17335" lon="16.38387">
        <ele>237.633566</ele>
        <time>2026-07-07T08:30:09.000Z</time>
      </trkpt>
      <trkpt lat="48.17331" lon="16.38386">
        <ele>237.731622</ele>
        <time>2026-07-07T08:30:10.000Z</time>
      </trkpt>
      <trkpt lat="48.17328" lon="16.38385">
        <ele>237.8242</ele>
        <time>2026-07-07T08:30:11.000Z</time>
      </trkpt>
      <trkpt lat="48.17325" lon="16.38383">
        <ele>237.906939</ele>
        <time>2026-07-07T08:30:12.000Z</time>
      </trkpt>
      <trkpt lat="48.17322" lon="16.38382">
        <ele>237.998021</ele>
        <time>2026-07-07T08:30:13.000Z</time>
      </trkpt>
      <trkpt lat="48.17319" lon="16.38381">
        <ele>238.093238</ele>
        <time>2026-07-07T08:30:14.000Z</time>
      </trkpt>
      <trkpt lat="48.17315" lon="16.38379">
        <ele>238.188455</ele>
        <time>2026-07-07T08:30:15.000Z</time>
      </trkpt>
      <trkpt lat="48.17312" lon="16.38378">
        <ele>238.281033</ele>
        <time>2026-07-07T08:30:16.000Z</time>
      </trkpt>
      <trkpt lat="48.17309" lon="16.38376">
        <ele>238.380172</ele>
        <time>2026-07-07T08:30:17.000Z</time>
      </trkpt>
      <trkpt lat="48.17305" lon="16.38375">
        <ele>238.471718</ele>
        <time>2026-07-07T08:30:18.000Z</time>
      </trkpt>
      <trkpt lat="48.17302" lon="16.38374">
        <ele>238.560602</ele>
        <time>2026-07-07T08:30:19.000Z</time>
      </trkpt>
      <trkpt lat="48.17299" lon="16.38373">
        <ele>238.656275</ele>
        <time>2026-07-07T08:30:20.000Z</time>
      </trkpt>
      <trkpt lat="48.17296" lon="16.38372">
        <ele>238.749484</ele>
        <time>2026-07-07T08:30:21.000Z</time>
      </trkpt>
      <trkpt lat="48.17292" lon="16.38371">
        <ele>238.874061</ele>
        <time>2026-07-07T08:30:22.000Z</time>
      </trkpt>
      <trkpt lat="48.17289" lon="16.3837">
        <ele>238.990051</ele>
        <time>2026-07-07T08:30:23.000Z</time>
      </trkpt>
      <trkpt lat="48.17286" lon="16.38368">
        <ele>239.106383</ele>
        <time>2026-07-07T08:30:24.000Z</time>
      </trkpt>
      <trkpt lat="48.17282" lon="16.38367">
        <ele>239.220836</ele>
        <time>2026-07-07T08:30:25.000Z</time>
      </trkpt>
      <trkpt lat="48.17279" lon="16.38366">
        <ele>239.344463</ele>
        <time>2026-07-07T08:30:26.000Z</time>
      </trkpt>
      <trkpt lat="48.17275" lon="16.38365">
        <ele>239.468091</ele>
        <time>2026-07-07T08:30:27.000Z</time>
      </trkpt>
      <trkpt lat="48.17271" lon="16.38365">
        <ele>239.607056</ele>
        <time>2026-07-07T08:30:28.000Z</time>
      </trkpt>
      <trkpt lat="48.17268" lon="16.38363">
        <ele>239.732745</ele>
        <time>2026-07-07T08:30:29.000Z</time>
      </trkpt>
      <trkpt lat="48.17265" lon="16.38362">
        <ele>239.851134</ele>
        <time>2026-07-07T08:30:30.000Z</time>
      </trkpt>
      <trkpt lat="48.17261" lon="16.38361">
        <ele>239.969523</ele>
        <time>2026-07-07T08:30:31.000Z</time>
      </trkpt>
      <trkpt lat="48.17258" lon="16.3836">
        <ele>240.09072</ele>
        <time>2026-07-07T08:30:32.000Z</time>
      </trkpt>
      <trkpt lat="48.17255" lon="16.38358">
        <ele>240.208542</ele>
        <time>2026-07-07T08:30:33.000Z</time>
      </trkpt>
      <trkpt lat="48.17251" lon="16.38357">
        <ele>240.340401</ele>
        <time>2026-07-07T08:30:34.000Z</time>
      </trkpt>
      <trkpt lat="48.17248" lon="16.38355">
        <ele>240.457498</ele>
        <time>2026-07-07T08:30:35.000Z</time>
      </trkpt>
      <trkpt lat="48.17245" lon="16.38353">
        <ele>240.573373</ele>
        <time>2026-07-07T08:30:36.000Z</time>
      </trkpt>
      <trkpt lat="48.17241" lon="16.38351">
        <ele>240.700099</ele>
        <time>2026-07-07T08:30:37.000Z</time>
      </trkpt>
      <trkpt lat="48.17238" lon="16.38349">
        <ele>240.829744</ele>
        <time>2026-07-07T08:30:38.000Z</time>
      </trkpt>
      <trkpt lat="48.17234" lon="16.38348">
        <ele>240.964714</ele>
        <time>2026-07-07T08:30:39.000Z</time>
      </trkpt>
      <trkpt lat="48.1723" lon="16.38346">
        <ele>241.096065</ele>
        <time>2026-07-07T08:30:40.000Z</time>
      </trkpt>
      <trkpt lat="48.17227" lon="16.38345">
        <ele>241.230352</ele>
        <time>2026-07-07T08:30:41.000Z</time>
      </trkpt>
      <trkpt lat="48.17223" lon="16.38344">
        <ele>241.366125</ele>
        <time>2026-07-07T08:30:42.000Z</time>
      </trkpt>
      <trkpt lat="48.17219" lon="16.38343">
        <ele>241.503821</ele>
        <time>2026-07-07T08:30:43.000Z</time>
      </trkpt>
      <trkpt lat="48.17215" lon="16.38342">
        <ele>241.631782</ele>
        <time>2026-07-07T08:30:44.000Z</time>
      </trkpt>
      <trkpt lat="48.17212" lon="16.3834">
        <ele>241.764774</ele>
        <time>2026-07-07T08:30:45.000Z</time>
      </trkpt>
      <trkpt lat="48.17208" lon="16.38339">
        <ele>241.884422</ele>
        <time>2026-07-07T08:30:46.000Z</time>
      </trkpt>
      <trkpt lat="48.17205" lon="16.38338">
        <ele>242.014873</ele>
        <time>2026-07-07T08:30:47.000Z</time>
      </trkpt>
      <trkpt lat="48.17201" lon="16.38336">
        <ele>242.13945</ele>
        <time>2026-07-07T08:30:48.000Z</time>
      </trkpt>
      <trkpt lat="48.17198" lon="16.38335">
        <ele>242.263532</ele>
        <time>2026-07-07T08:30:49.000Z</time>
      </trkpt>
      <trkpt lat="48.17194" lon="16.38334">
        <ele>242.379195</ele>
        <time>2026-07-07T08:30:50.000Z</time>
      </trkpt>
      <trkpt lat="48.17191" lon="16.38333">
        <ele>242.489729</ele>
        <time>2026-07-07T08:30:51.000Z</time>
      </trkpt>
      <trkpt lat="48.17188" lon="16.38331">
        <ele>242.601008</ele>
        <time>2026-07-07T08:30:52.000Z</time>
      </trkpt>
      <trkpt lat="48.17185" lon="16.3833">
        <ele>242.709361</ele>
        <time>2026-07-07T08:30:53.000Z</time>
      </trkpt>
      <trkpt lat="48.17182" lon="16.38328">
        <ele>242.815072</ele>
        <time>2026-07-07T08:30:54.000Z</time>
      </trkpt>
      <trkpt lat="48.1718" lon="16.38327">
        <ele>242.911733</ele>
        <time>2026-07-07T08:30:55.000Z</time>
      </trkpt>
      <trkpt lat="48.17177" lon="16.38326">
        <ele>243.018894</ele>
        <time>2026-07-07T08:30:56.000Z</time>
      </trkpt>
      <trkpt lat="48.17174" lon="16.38325">
        <ele>243.126628</ele>
        <time>2026-07-07T08:30:57.000Z</time>
      </trkpt>
      <trkpt lat="48.17171" lon="16.38323">
        <ele>243.224341</ele>
        <time>2026-07-07T08:30:58.000Z</time>
      </trkpt>
      <trkpt lat="48.17168" lon="16.38322">
        <ele>243.326046</ele>
        <time>2026-07-07T08:30:59.000Z</time>
      </trkpt>
      <trkpt lat="48.17166" lon="16.3832">
        <ele>243.430538</ele>
        <time>2026-07-07T08:31:00.000Z</time>
      </trkpt>
      <trkpt lat="48.17163" lon="16.38318">
        <ele>243.525786</ele>
        <time>2026-07-07T08:31:01.000Z</time>
      </trkpt>
      <trkpt lat="48.17161" lon="16.38317">
        <ele>243.622013</ele>
        <time>2026-07-07T08:31:02.000Z</time>
      </trkpt>
      <trkpt lat="48.17158" lon="16.38315">
        <ele>243.712034</ele>
        <time>2026-07-07T08:31:03.000Z</time>
      </trkpt>
      <trkpt lat="48.17156" lon="16.38312">
        <ele>243.807813</ele>
        <time>2026-07-07T08:31:04.000Z</time>
      </trkpt>
      <trkpt lat="48.17154" lon="16.3831">
        <ele>243.906457</ele>
        <time>2026-07-07T08:31:05.000Z</time>
      </trkpt>
      <trkpt lat="48.17152" lon="16.38307">
        <ele>244.007098</ele>
        <time>2026-07-07T08:31:06.000Z</time>
      </trkpt>
      <trkpt lat="48.1715" lon="16.38303">
        <ele>244.113448</ele>
        <time>2026-07-07T08:31:07.000Z</time>
      </trkpt>
      <trkpt lat="48.17147" lon="16.383">
        <ele>244.227151</ele>
        <time>2026-07-07T08:31:08.000Z</time>
      </trkpt>
      <trkpt lat="48.17145" lon="16.38296">
        <ele>244.342837</ele>
        <time>2026-07-07T08:31:09.000Z</time>
      </trkpt>
      <trkpt lat="48.17143" lon="16.38292">
        <ele>244.462815</ele>
        <time>2026-07-07T08:31:10.000Z</time>
      </trkpt>
      <trkpt lat="48.17141" lon="16.38288">
        <ele>244.590367</ele>
        <time>2026-07-07T08:31:11.000Z</time>
      </trkpt>
      <trkpt lat="48.17138" lon="16.38283">
        <ele>244.720119</ele>
        <time>2026-07-07T08:31:12.000Z</time>
      </trkpt>
      <trkpt lat="48.17136" lon="16.38279">
        <ele>244.851031</ele>
        <time>2026-07-07T08:31:13.000Z</time>
      </trkpt>
      <trkpt lat="48.17134" lon="16.38274">
        <ele>244.983906</ele>
        <time>2026-07-07T08:31:14.000Z</time>
      </trkpt>
      <trkpt lat="48.17132" lon="16.38269">
        <ele>245.056794</ele>
        <time>2026-07-07T08:31:15.000Z</time>
      </trkpt>
      <trkpt lat="48.1713" lon="16.38265">
        <ele>245.123079</ele>
        <time>2026-07-07T08:31:16.000Z</time>
      </trkpt>
      <trkpt lat="48.17128" lon="16.3826">
        <ele>245.190451</ele>
        <time>2026-07-07T08:31:17.000Z</time>
      </trkpt>
      <trkpt lat="48.17127" lon="16.38255">
        <ele>245.259707</ele>
        <time>2026-07-07T08:31:18.000Z</time>
      </trkpt>
      <trkpt lat="48.17126" lon="16.3825">
        <ele>245.331719</ele>
        <time>2026-07-07T08:31:19.000Z</time>
      </trkpt>
      <trkpt lat="48.17125" lon="16.38244">
        <ele>245.406172</ele>
        <time>2026-07-07T08:31:20.000Z</time>
      </trkpt>
      <trkpt lat="48.17123" lon="16.38238">
        <ele>245.483578</ele>
        <time>2026-07-07T08:31:21.000Z</time>
      </trkpt>
      <trkpt lat="48.17122" lon="16.38233">
        <ele>245.561301</ele>
        <time>2026-07-07T08:31:22.000Z</time>
      </trkpt>
      <trkpt lat="48.1712" lon="16.38227">
        <ele>245.640434</ele>
        <time>2026-07-07T08:31:23.000Z</time>
      </trkpt>
      <trkpt lat="48.17117" lon="16.38222">
        <ele>245.718224</ele>
        <time>2026-07-07T08:31:24.000Z</time>
      </trkpt>
      <trkpt lat="48.17115" lon="16.38217">
        <ele>245.797357</ele>
        <time>2026-07-07T08:31:25.000Z</time>
      </trkpt>
      <trkpt lat="48.17113" lon="16.38211">
        <ele>245.875232</ele>
        <time>2026-07-07T08:31:26.000Z</time>
      </trkpt>
      <trkpt lat="48.17111" lon="16.38206">
        <ele>245.955167</ele>
        <time>2026-07-07T08:31:27.000Z</time>
      </trkpt>
      <trkpt lat="48.17109" lon="16.38201">
        <ele>246.034026</ele>
        <time>2026-07-07T08:31:28.000Z</time>
      </trkpt>
      <trkpt lat="48.17107" lon="16.38195">
        <ele>246.109854</ele>
        <time>2026-07-07T08:31:29.000Z</time>
      </trkpt>
      <trkpt lat="48.17105" lon="16.3819">
        <ele>246.186779</ele>
        <time>2026-07-07T08:31:30.000Z</time>
      </trkpt>
      <trkpt lat="48.17103" lon="16.38185">
        <ele>246.264654</ele>
        <time>2026-07-07T08:31:31.000Z</time>
      </trkpt>
      <trkpt lat="48.17101" lon="16.3818">
        <ele>246.342444</ele>
        <time>2026-07-07T08:31:32.000Z</time>
      </trkpt>
      <trkpt lat="48.17099" lon="16.38174">
        <ele>246.421577</ele>
        <time>2026-07-07T08:31:33.000Z</time>
      </trkpt>
      <trkpt lat="48.17096" lon="16.38169">
        <ele>246.503583</ele>
        <time>2026-07-07T08:31:34.000Z</time>
      </trkpt>
      <trkpt lat="48.17094" lon="16.38163">
        <ele>246.585587</ele>
        <time>2026-07-07T08:31:35.000Z</time>
      </trkpt>
      <trkpt lat="48.17091" lon="16.38158">
        <ele>246.665879</ele>
        <time>2026-07-07T08:31:36.000Z</time>
      </trkpt>
      <trkpt lat="48.17088" lon="16.38154">
        <ele>246.745201</ele>
        <time>2026-07-07T08:31:37.000Z</time>
      </trkpt>
      <trkpt lat="48.17086" lon="16.38149">
        <ele>246.819863</ele>
        <time>2026-07-07T08:31:38.000Z</time>
      </trkpt>
      <trkpt lat="48.17084" lon="16.38144">
        <ele>246.894481</ele>
        <time>2026-07-07T08:31:39.000Z</time>
      </trkpt>
      <trkpt lat="48.17082" lon="16.38139">
        <ele>246.963847</ele>
        <time>2026-07-07T08:31:40.000Z</time>
      </trkpt>
      <trkpt lat="48.1708" lon="16.38134">
        <ele>247.040639</ele>
        <time>2026-07-07T08:31:41.000Z</time>
      </trkpt>
      <trkpt lat="48.17078" lon="16.38129">
        <ele>247.117564</ele>
        <time>2026-07-07T08:31:42.000Z</time>
      </trkpt>
      <trkpt lat="48.17076" lon="16.38123">
        <ele>247.195591</ele>
        <time>2026-07-07T08:31:43.000Z</time>
      </trkpt>
      <trkpt lat="48.17074" lon="16.38118">
        <ele>247.275836</ele>
        <time>2026-07-07T08:31:44.000Z</time>
      </trkpt>
      <trkpt lat="48.17072" lon="16.38112">
        <ele>247.356333</ele>
        <time>2026-07-07T08:31:45.000Z</time>
      </trkpt>
      <trkpt lat="48.1707" lon="16.38106">
        <ele>247.437144</ele>
        <time>2026-07-07T08:31:46.000Z</time>
      </trkpt>
      <trkpt lat="48.17068" lon="16.38101">
        <ele>247.516811</ele>
        <time>2026-07-07T08:31:47.000Z</time>
      </trkpt>
      <trkpt lat="48.17067" lon="16.38095">
        <ele>247.595687</ele>
        <time>2026-07-07T08:31:48.000Z</time>
      </trkpt>
      <trkpt lat="48.17065" lon="16.38089">
        <ele>247.672264</ele>
        <time>2026-07-07T08:31:49.000Z</time>
      </trkpt>
      <trkpt lat="48.17063" lon="16.38084">
        <ele>247.745754</ele>
        <time>2026-07-07T08:31:50.000Z</time>
      </trkpt>
      <trkpt lat="48.17062" lon="16.38079">
        <ele>247.809278</ele>
        <time>2026-07-07T08:31:51.000Z</time>
      </trkpt>
      <trkpt lat="48.17061" lon="16.38075">
        <ele>247.870862</ele>
        <time>2026-07-07T08:31:52.000Z</time>
      </trkpt>
      <trkpt lat="48.1706" lon="16.38071">
        <ele>247.928388</ele>
        <time>2026-07-07T08:31:53.000Z</time>
      </trkpt>
      <trkpt lat="48.17058" lon="16.38066">
        <ele>247.991938</ele>
        <time>2026-07-07T08:31:54.000Z</time>
      </trkpt>
      <trkpt lat="48.17057" lon="16.38061">
        <ele>248.06428</ele>
        <time>2026-07-07T08:31:55.000Z</time>
      </trkpt>
      <trkpt lat="48.17055" lon="16.38055">
        <ele>248.139342</ele>
        <time>2026-07-07T08:31:56.000Z</time>
      </trkpt>
      <trkpt lat="48.17054" lon="16.3805">
        <ele>248.213708</ele>
        <time>2026-07-07T08:31:57.000Z</time>
      </trkpt>
      <trkpt lat="48.17053" lon="16.38044">
        <ele>248.28988</ele>
        <time>2026-07-07T08:31:58.000Z</time>
      </trkpt>
      <trkpt lat="48.17051" lon="16.38039">
        <ele>248.364246</ele>
        <time>2026-07-07T08:31:59.000Z</time>
      </trkpt>
      <trkpt lat="48.1705" lon="16.38033">
        <ele>248.444113</ele>
        <time>2026-07-07T08:32:00.000Z</time>
      </trkpt>
      <trkpt lat="48.17049" lon="16.38029">
        <ele>248.526145</ele>
        <time>2026-07-07T08:32:01.000Z</time>
      </trkpt>
      <trkpt lat="48.17047" lon="16.38024">
        <ele>248.602984</ele>
        <time>2026-07-07T08:32:02.000Z</time>
      </trkpt>
      <trkpt lat="48.17046" lon="16.3802">
        <ele>248.676758</ele>
        <time>2026-07-07T08:32:03.000Z</time>
      </trkpt>
      <trkpt lat="48.17045" lon="16.38016">
        <ele>248.744398</ele>
        <time>2026-07-07T08:32:04.000Z</time>
      </trkpt>
      <trkpt lat="48.17044" lon="16.38012">
        <ele>248.813513</ele>
        <time>2026-07-07T08:32:05.000Z</time>
      </trkpt>
      <trkpt lat="48.17044" lon="16.38008">
        <ele>248.872291</ele>
        <time>2026-07-07T08:32:06.000Z</time>
      </trkpt>
      <trkpt lat="48.17044" lon="16.38006">
        <ele>248.917196</ele>
        <time>2026-07-07T08:32:07.000Z</time>
      </trkpt>
      <trkpt lat="48.17043" lon="16.38004">
        <ele>248.954124</ele>
        <time>2026-07-07T08:32:08.000Z</time>
      </trkpt>
      <trkpt lat="48.17042" lon="16.38002">
        <ele>248.982718</ele>
        <time>2026-07-07T08:32:09.000Z</time>
      </trkpt>
      <trkpt lat="48.17041" lon="16.38002">
        <ele>249.009263</ele>
        <time>2026-07-07T08:32:10.000Z</time>
      </trkpt>
      <trkpt lat="48.17039" lon="16.38002">
        <ele>249.045017</ele>
        <time>2026-07-07T08:32:11.000Z</time>
      </trkpt>
      <trkpt lat="48.17037" lon="16.38002">
        <ele>249.092608</ele>
        <time>2026-07-07T08:32:12.000Z</time>
      </trkpt>
      <trkpt lat="48.17035" lon="16.38003">
        <ele>249.157199</ele>
        <time>2026-07-07T08:32:13.000Z</time>
      </trkpt>
      <trkpt lat="48.17031" lon="16.38002">
        <ele>249.240433</ele>
        <time>2026-07-07T08:32:14.000Z</time>
      </trkpt>
      <trkpt lat="48.17028" lon="16.38003">
        <ele>249.324492</ele>
        <time>2026-07-07T08:32:15.000Z</time>
      </trkpt>
      <trkpt lat="48.17024" lon="16.38004">
        <ele>249.421343</ele>
        <time>2026-07-07T08:32:16.000Z</time>
      </trkpt>
      <trkpt lat="48.1702" lon="16.38006">
        <ele>249.515054</ele>
        <time>2026-07-07T08:32:17.000Z</time>
      </trkpt>
      <trkpt lat="48.17016" lon="16.38008">
        <ele>249.613765</ele>
        <time>2026-07-07T08:32:18.000Z</time>
      </trkpt>
      <trkpt lat="48.17012" lon="16.38009">
        <ele>249.712919</ele>
        <time>2026-07-07T08:32:19.000Z</time>
      </trkpt>
      <trkpt lat="48.17008" lon="16.38011">
        <ele>249.81028</ele>
        <time>2026-07-07T08:32:20.000Z</time>
      </trkpt>
      <trkpt lat="48.17004" lon="16.38013">
        <ele>249.904896</ele>
        <time>2026-07-07T08:32:21.000Z</time>
      </trkpt>
      <trkpt lat="48.17" lon="16.38015">
        <ele>250.00405</ele>
        <time>2026-07-07T08:32:22.000Z</time>
      </trkpt>
      <trkpt lat="48.16996" lon="16.38015">
        <ele>250.110938</ele>
        <time>2026-07-07T08:32:23.000Z</time>
      </trkpt>
      <trkpt lat="48.16992" lon="16.38016">
        <ele>250.206237</ele>
        <time>2026-07-07T08:32:24.000Z</time>
      </trkpt>
      <trkpt lat="48.16988" lon="16.38015">
        <ele>250.302048</ele>
        <time>2026-07-07T08:32:25.000Z</time>
      </trkpt>
      <trkpt lat="48.16984" lon="16.38014">
        <ele>250.386641</ele>
        <time>2026-07-07T08:32:26.000Z</time>
      </trkpt>
      <trkpt lat="48.16981" lon="16.38013">
        <ele>250.466277</ele>
        <time>2026-07-07T08:32:27.000Z</time>
      </trkpt>
      <trkpt lat="48.16977" lon="16.38012">
        <ele>250.550335</ele>
        <time>2026-07-07T08:32:28.000Z</time>
      </trkpt>
      <trkpt lat="48.16974" lon="16.38012">
        <ele>250.633434</ele>
        <time>2026-07-07T08:32:29.000Z</time>
      </trkpt>
      <trkpt lat="48.1697" lon="16.38013">
        <ele>250.717492</ele>
        <time>2026-07-07T08:32:30.000Z</time>
      </trkpt>
      <trkpt lat="48.16967" lon="16.38014">
        <ele>250.7951</ele>
        <time>2026-07-07T08:32:31.000Z</time>
      </trkpt>
      <trkpt lat="48.16964" lon="16.38015">
        <ele>250.876526</ele>
        <time>2026-07-07T08:32:32.000Z</time>
      </trkpt>
      <trkpt lat="48.16961" lon="16.38016">
        <ele>250.949492</ele>
        <time>2026-07-07T08:32:33.000Z</time>
      </trkpt>
      <trkpt lat="48.16958" lon="16.38017">
        <ele>251.022458</ele>
        <time>2026-07-07T08:32:34.000Z</time>
      </trkpt>
      <trkpt lat="48.16955" lon="16.38018">
        <ele>251.094803</ele>
        <time>2026-07-07T08:32:35.000Z</time>
      </trkpt>
      <trkpt lat="48.16952" lon="16.38019">
        <ele>251.167148</ele>
        <time>2026-07-07T08:32:36.000Z</time>
      </trkpt>
      <trkpt lat="48.16949" lon="16.3802">
        <ele>251.239233</ele>
        <time>2026-07-07T08:32:37.000Z</time>
      </trkpt>
      <trkpt lat="48.16946" lon="16.38021">
        <ele>251.312199</ele>
        <time>2026-07-07T08:32:38.000Z</time>
      </trkpt>
      <trkpt lat="48.16943" lon="16.38022">
        <ele>251.389807</ele>
        <time>2026-07-07T08:32:39.000Z</time>
      </trkpt>
      <trkpt lat="48.16939" lon="16.38022">
        <ele>251.468937</ele>
        <time>2026-07-07T08:32:41.000Z</time>
      </trkpt>
      <trkpt lat="48.16936" lon="16.38023">
        <ele>251.546546</ele>
        <time>2026-07-07T08:32:42.000Z</time>
      </trkpt>
      <trkpt lat="48.16933" lon="16.38024">
        <ele>251.624154</ele>
        <time>2026-07-07T08:32:43.000Z</time>
      </trkpt>
      <trkpt lat="48.1693" lon="16.38025">
        <ele>251.699439</ele>
        <time>2026-07-07T08:32:44.000Z</time>
      </trkpt>
      <trkpt lat="48.16927" lon="16.38026">
        <ele>251.772765</ele>
        <time>2026-07-07T08:32:45.000Z</time>
      </trkpt>
      <trkpt lat="48.16924" lon="16.38029">
        <ele>251.85141</ele>
        <time>2026-07-07T08:32:46.000Z</time>
      </trkpt>
      <trkpt lat="48.16921" lon="16.38031">
        <ele>251.927211</ele>
        <time>2026-07-07T08:32:47.000Z</time>
      </trkpt>
      <trkpt lat="48.16918" lon="16.38034">
        <ele>252.010284</ele>
        <time>2026-07-07T08:32:48.000Z</time>
      </trkpt>
      <trkpt lat="48.16915" lon="16.38036">
        <ele>252.084616</ele>
        <time>2026-07-07T08:32:49.000Z</time>
      </trkpt>
      <trkpt lat="48.16913" lon="16.38038">
        <ele>252.153108</ele>
        <time>2026-07-07T08:32:50.000Z</time>
      </trkpt>
      <trkpt lat="48.16911" lon="16.3804">
        <ele>252.211466</ele>
        <time>2026-07-07T08:32:51.000Z</time>
      </trkpt>
      <trkpt lat="48.16908" lon="16.3804">
        <ele>252.263915</ele>
        <time>2026-07-07T08:32:52.000Z</time>
      </trkpt>
      <trkpt lat="48.16908" lon="16.3804">
        <ele>252.283937</ele>
        <time>2026-07-07T08:32:53.000Z</time>
      </trkpt>
      <trkpt lat="48.16907" lon="16.38041">
        <ele>252.294559</ele>
        <time>2026-07-07T08:32:54.000Z</time>
      </trkpt>
      <trkpt lat="48.16903" lon="16.38034">
        <ele>252.451344</ele>
        <time>2026-07-07T08:33:26.000Z</time>
      </trkpt>
      <trkpt lat="48.169" lon="16.38033">
        <ele>252.508725</ele>
        <time>2026-07-07T08:33:27.000Z</time>
      </trkpt>
      <trkpt lat="48.16897" lon="16.38031">
        <ele>252.58515</ele>
        <time>2026-07-07T08:33:28.000Z</time>
      </trkpt>
      <trkpt lat="48.16894" lon="16.38031">
        <ele>252.665875</ele>
        <time>2026-07-07T08:33:29.000Z</time>
      </trkpt>
      <trkpt lat="48.1689" lon="16.38032">
        <ele>252.772494</ele>
        <time>2026-07-07T08:33:30.000Z</time>
      </trkpt>
      <trkpt lat="48.16886" lon="16.38033">
        <ele>252.874888</ele>
        <time>2026-07-07T08:33:31.000Z</time>
      </trkpt>
      <trkpt lat="48.16882" lon="16.38034">
        <ele>252.984319</ele>
        <time>2026-07-07T08:33:32.000Z</time>
      </trkpt>
      <trkpt lat="48.16878" lon="16.38036">
        <ele>253.100751</ele>
        <time>2026-07-07T08:33:33.000Z</time>
      </trkpt>
      <trkpt lat="48.16874" lon="16.38038">
        <ele>253.21159</ele>
        <time>2026-07-07T08:33:34.000Z</time>
      </trkpt>
      <trkpt lat="48.1687" lon="16.3804">
        <ele>253.326019</ele>
        <time>2026-07-07T08:33:35.000Z</time>
      </trkpt>
      <trkpt lat="48.16866" lon="16.38042">
        <ele>253.435412</ele>
        <time>2026-07-07T08:33:36.000Z</time>
      </trkpt>
      <trkpt lat="48.16862" lon="16.38044">
        <ele>253.54732</ele>
        <time>2026-07-07T08:33:37.000Z</time>
      </trkpt>
      <trkpt lat="48.16858" lon="16.38046">
        <ele>253.660398</ele>
        <time>2026-07-07T08:33:38.000Z</time>
      </trkpt>
      <trkpt lat="48.16854" lon="16.38048">
        <ele>253.775386</ele>
        <time>2026-07-07T08:33:39.000Z</time>
      </trkpt>
      <trkpt lat="48.1685" lon="16.3805">
        <ele>253.892342</ele>
        <time>2026-07-07T08:33:40.000Z</time>
      </trkpt>
      <trkpt lat="48.16846" lon="16.38052">
        <ele>254.003703</ele>
        <time>2026-07-07T08:33:41.000Z</time>
      </trkpt>
      <trkpt lat="48.16842" lon="16.38054">
        <ele>254.115611</ele>
        <time>2026-07-07T08:33:42.000Z</time>
      </trkpt>
      <trkpt lat="48.16838" lon="16.38056">
        <ele>254.22645</ele>
        <time>2026-07-07T08:33:43.000Z</time>
      </trkpt>
      <trkpt lat="48.16834" lon="16.38058">
        <ele>254.324653</ele>
        <time>2026-07-07T08:33:44.000Z</time>
      </trkpt>
      <trkpt lat="48.16831" lon="16.3806">
        <ele>254.417261</ele>
        <time>2026-07-07T08:33:45.000Z</time>
      </trkpt>
      <trkpt lat="48.16828" lon="16.38061">
        <ele>254.501192</ele>
        <time>2026-07-07T08:33:46.000Z</time>
      </trkpt>
      <trkpt lat="48.16825" lon="16.38062">
        <ele>254.583597</ele>
        <time>2026-07-07T08:33:47.000Z</time>
      </trkpt>
      <trkpt lat="48.16822" lon="16.38063">
        <ele>254.665564</ele>
        <time>2026-07-07T08:33:48.000Z</time>
      </trkpt>
      <trkpt lat="48.16818" lon="16.38064">
        <ele>254.756647</ele>
        <time>2026-07-07T08:33:49.000Z</time>
      </trkpt>
      <trkpt lat="48.16815" lon="16.38065">
        <ele>254.840805</ele>
        <time>2026-07-07T08:33:50.000Z</time>
      </trkpt>
      <trkpt lat="48.16812" lon="16.38067">
        <ele>254.929787</ele>
        <time>2026-07-07T08:33:51.000Z</time>
      </trkpt>
      <trkpt lat="48.16809" lon="16.38068">
        <ele>255.02743</ele>
        <time>2026-07-07T08:33:52.000Z</time>
      </trkpt>
      <trkpt lat="48.16805" lon="16.38069">
        <ele>255.121992</ele>
        <time>2026-07-07T08:33:53.000Z</time>
      </trkpt>
      <trkpt lat="48.16801" lon="16.3807">
        <ele>255.224708</ele>
        <time>2026-07-07T08:33:54.000Z</time>
      </trkpt>
      <trkpt lat="48.16798" lon="16.38071">
        <ele>255.324489</ele>
        <time>2026-07-07T08:33:55.000Z</time>
      </trkpt>
      <trkpt lat="48.16794" lon="16.38073">
        <ele>255.426214</ele>
        <time>2026-07-07T08:33:56.000Z</time>
      </trkpt>
      <trkpt lat="48.1679" lon="16.38074">
        <ele>255.522354</ele>
        <time>2026-07-07T08:33:57.000Z</time>
      </trkpt>
      <trkpt lat="48.16787" lon="16.38075">
        <ele>255.619862</ele>
        <time>2026-07-07T08:33:58.000Z</time>
      </trkpt>
      <trkpt lat="48.16783" lon="16.38077">
        <ele>255.722568</ele>
        <time>2026-07-07T08:33:59.000Z</time>
      </trkpt>
      <trkpt lat="48.16779" lon="16.38078">
        <ele>255.823038</ele>
        <time>2026-07-07T08:34:00.000Z</time>
      </trkpt>
      <trkpt lat="48.16776" lon="16.3808">
        <ele>255.921315</ele>
        <time>2026-07-07T08:34:01.000Z</time>
      </trkpt>
      <trkpt lat="48.16772" lon="16.38081">
        <ele>256.022174</ele>
        <time>2026-07-07T08:34:02.000Z</time>
      </trkpt>
      <trkpt lat="48.16769" lon="16.38082">
        <ele>256.118313</ele>
        <time>2026-07-07T08:34:03.000Z</time>
      </trkpt>
      <trkpt lat="48.16765" lon="16.38084">
        <ele>256.220038</ele>
        <time>2026-07-07T08:34:04.000Z</time>
      </trkpt>
      <trkpt lat="48.16761" lon="16.38085">
        <ele>256.317151</ele>
        <time>2026-07-07T08:34:05.000Z</time>
      </trkpt>
      <trkpt lat="48.16758" lon="16.38087">
        <ele>256.415942</ele>
        <time>2026-07-07T08:34:06.000Z</time>
      </trkpt>
      <trkpt lat="48.16754" lon="16.38089">
        <ele>256.520697</ele>
        <time>2026-07-07T08:34:07.000Z</time>
      </trkpt>
      <trkpt lat="48.1675" lon="16.3809">
        <ele>256.621974</ele>
        <time>2026-07-07T08:34:08.000Z</time>
      </trkpt>
      <trkpt lat="48.16747" lon="16.38092">
        <ele>256.725419</ele>
        <time>2026-07-07T08:34:09.000Z</time>
      </trkpt>
      <trkpt lat="48.16743" lon="16.38093">
        <ele>256.835762</ele>
        <time>2026-07-07T08:34:10.000Z</time>
      </trkpt>
      <trkpt lat="48.16739" lon="16.38095">
        <ele>256.941528</ele>
        <time>2026-07-07T08:34:11.000Z</time>
      </trkpt>
      <trkpt lat="48.16735" lon="16.38097">
        <ele>257.050922</ele>
        <time>2026-07-07T08:34:12.000Z</time>
      </trkpt>
      <trkpt lat="48.16731" lon="16.38099">
        <ele>257.156169</ele>
        <time>2026-07-07T08:34:13.000Z</time>
      </trkpt>
      <trkpt lat="48.16727" lon="16.38101">
        <ele>257.273124</ele>
        <time>2026-07-07T08:34:14.000Z</time>
      </trkpt>
      <trkpt lat="48.16723" lon="16.38103">
        <ele>257.383964</ele>
        <time>2026-07-07T08:34:15.000Z</time>
      </trkpt>
      <trkpt lat="48.16719" lon="16.38104">
        <ele>257.497488</ele>
        <time>2026-07-07T08:34:16.000Z</time>
      </trkpt>
      <trkpt lat="48.16714" lon="16.38107">
        <ele>257.620888</ele>
        <time>2026-07-07T08:34:17.000Z</time>
      </trkpt>
      <trkpt lat="48.1671" lon="16.38109">
        <ele>257.735598</ele>
        <time>2026-07-07T08:34:18.000Z</time>
      </trkpt>
      <trkpt lat="48.16706" lon="16.38111">
        <ele>257.852841</ele>
        <time>2026-07-07T08:34:19.000Z</time>
      </trkpt>
      <trkpt lat="48.16702" lon="16.38113">
        <ele>257.970083</ele>
        <time>2026-07-07T08:34:20.000Z</time>
      </trkpt>
      <trkpt lat="48.16698" lon="16.38115">
        <ele>258.082266</ele>
        <time>2026-07-07T08:34:21.000Z</time>
      </trkpt>
      <trkpt lat="48.16694" lon="16.38117">
        <ele>258.196975</ele>
        <time>2026-07-07T08:34:22.000Z</time>
      </trkpt>
      <trkpt lat="48.16689" lon="16.38119">
        <ele>258.323464</ele>
        <time>2026-07-07T08:34:23.000Z</time>
      </trkpt>
      <trkpt lat="48.16685" lon="16.38121">
        <ele>258.446865</ele>
        <time>2026-07-07T08:34:24.000Z</time>
      </trkpt>
      <trkpt lat="48.16681" lon="16.38123">
        <ele>258.567745</ele>
        <time>2026-07-07T08:34:25.000Z</time>
      </trkpt>
      <trkpt lat="48.16676" lon="16.38125">
        <ele>258.687526</ele>
        <time>2026-07-07T08:34:26.000Z</time>
      </trkpt>
      <trkpt lat="48.16672" lon="16.38127">
        <ele>258.797225</ele>
        <time>2026-07-07T08:34:27.000Z</time>
      </trkpt>
      <trkpt lat="48.16668" lon="16.38129">
        <ele>258.913443</ele>
        <time>2026-07-07T08:34:28.000Z</time>
      </trkpt>
      <trkpt lat="48.16664" lon="16.3813">
        <ele>259.023142</ele>
        <time>2026-07-07T08:34:29.000Z</time>
      </trkpt>
      <trkpt lat="48.1666" lon="16.38132">
        <ele>259.127687</ele>
        <time>2026-07-07T08:34:30.000Z</time>
      </trkpt>
      <trkpt lat="48.16657" lon="16.38133">
        <ele>259.229662</ele>
        <time>2026-07-07T08:34:31.000Z</time>
      </trkpt>
      <trkpt lat="48.16653" lon="16.38135">
        <ele>259.318863</ele>
        <time>2026-07-07T08:34:32.000Z</time>
      </trkpt>
      <trkpt lat="48.16651" lon="16.38136">
        <ele>259.396847</ele>
        <time>2026-07-07T08:34:33.000Z</time>
      </trkpt>
      <trkpt lat="48.16648" lon="16.38137">
        <ele>259.465251</ele>
        <time>2026-07-07T08:34:34.000Z</time>
      </trkpt>
      <trkpt lat="48.16646" lon="16.38137">
        <ele>259.513956</ele>
        <time>2026-07-07T08:34:35.000Z</time>
      </trkpt>
      <trkpt lat="48.16645" lon="16.38138">
        <ele>259.547092</ele>
        <time>2026-07-07T08:34:36.000Z</time>
      </trkpt>
      <trkpt lat="48.16644" lon="16.38138">
        <ele>259.5658</ele>
        <time>2026-07-07T08:34:37.000Z</time>
      </trkpt>
      <trkpt lat="48.16639" lon="16.3814">
        <ele>259.718958</ele>
        <time>2026-07-07T08:34:41.000Z</time>
      </trkpt>
      <trkpt lat="48.16637" lon="16.38141">
        <ele>259.774513</ele>
        <time>2026-07-07T08:34:42.000Z</time>
      </trkpt>
      <trkpt lat="48.16634" lon="16.38142">
        <ele>259.839925</ele>
        <time>2026-07-07T08:34:43.000Z</time>
      </trkpt>
      <trkpt lat="48.16632" lon="16.38143">
        <ele>259.912844</ele>
        <time>2026-07-07T08:34:44.000Z</time>
      </trkpt>
      <trkpt lat="48.16629" lon="16.38143">
        <ele>259.985224</ele>
        <time>2026-07-07T08:34:45.000Z</time>
      </trkpt>
      <trkpt lat="48.16626" lon="16.38144">
        <ele>260.058124</ele>
        <time>2026-07-07T08:34:46.000Z</time>
      </trkpt>
      <trkpt lat="48.16623" lon="16.38146">
        <ele>260.142261</ele>
        <time>2026-07-07T08:34:47.000Z</time>
      </trkpt>
      <trkpt lat="48.1662" lon="16.38147">
        <ele>260.230082</ele>
        <time>2026-07-07T08:34:48.000Z</time>
      </trkpt>
      <trkpt lat="48.16617" lon="16.38149">
        <ele>260.326013</ele>
        <time>2026-07-07T08:34:49.000Z</time>
      </trkpt>
      <trkpt lat="48.16614" lon="16.3815">
        <ele>260.41679</ele>
        <time>2026-07-07T08:34:50.000Z</time>
      </trkpt>
      <trkpt lat="48.1661" lon="16.38152">
        <ele>260.507114</ele>
        <time>2026-07-07T08:34:51.000Z</time>
      </trkpt>
      <trkpt lat="48.16607" lon="16.38154">
        <ele>260.599136</ele>
        <time>2026-07-07T08:34:52.000Z</time>
      </trkpt>
      <trkpt lat="48.16604" lon="16.38156">
        <ele>260.688337</ele>
        <time>2026-07-07T08:34:53.000Z</time>
      </trkpt>
      <trkpt lat="48.16601" lon="16.38159">
        <ele>260.793058</ele>
        <time>2026-07-07T08:34:54.000Z</time>
      </trkpt>
      <trkpt lat="48.16597" lon="16.3816">
        <ele>260.885894</ele>
        <time>2026-07-07T08:34:55.000Z</time>
      </trkpt>
      <trkpt lat="48.16594" lon="16.38162">
        <ele>260.987868</ele>
        <time>2026-07-07T08:34:56.000Z</time>
      </trkpt>
      <trkpt lat="48.1659" lon="16.38163">
        <ele>261.089843</ele>
        <time>2026-07-07T08:34:57.000Z</time>
      </trkpt>
      <trkpt lat="48.16583" lon="16.38168">
        <ele>261.298513</ele>
        <time>2026-07-07T08:34:58.000Z</time>
      </trkpt>
      <trkpt lat="48.16579" lon="16.38169">
        <ele>261.401471</ele>
        <time>2026-07-07T08:35:00.000Z</time>
      </trkpt>
      <trkpt lat="48.16571" lon="16.38172">
        <ele>261.610562</ele>
        <time>2026-07-07T08:35:01.000Z</time>
      </trkpt>
      <trkpt lat="48.16568" lon="16.38174">
        <ele>261.711668</ele>
        <time>2026-07-07T08:35:02.000Z</time>
      </trkpt>
      <trkpt lat="48.16564" lon="16.38175">
        <ele>261.812384</ele>
        <time>2026-07-07T08:35:03.000Z</time>
      </trkpt>
      <trkpt lat="48.1656" lon="16.38176">
        <ele>261.908318</ele>
        <time>2026-07-07T08:35:04.000Z</time>
      </trkpt>
      <trkpt lat="48.16557" lon="16.38177">
        <ele>261.999095</ele>
        <time>2026-07-07T08:35:05.000Z</time>
      </trkpt>
      <trkpt lat="48.16554" lon="16.38178">
        <ele>262.088333</ele>
        <time>2026-07-07T08:35:06.000Z</time>
      </trkpt>
      <trkpt lat="48.16551" lon="16.38179">
        <ele>262.169402</ele>
        <time>2026-07-07T08:35:07.000Z</time>
      </trkpt>
      <trkpt lat="48.16548" lon="16.3818">
        <ele>262.250062</ele>
        <time>2026-07-07T08:35:08.000Z</time>
      </trkpt>
      <trkpt lat="48.16544" lon="16.38181">
        <ele>262.338284</ele>
        <time>2026-07-07T08:35:09.000Z</time>
      </trkpt>
      <trkpt lat="48.16541" lon="16.38183">
        <ele>262.430971</ele>
        <time>2026-07-07T08:35:10.000Z</time>
      </trkpt>
      <trkpt lat="48.16537" lon="16.38184">
        <ele>262.52239</ele>
        <time>2026-07-07T08:35:11.000Z</time>
      </trkpt>
      <trkpt lat="48.16534" lon="16.38185">
        <ele>262.615078</ele>
        <time>2026-07-07T08:35:12.000Z</time>
      </trkpt>
      <trkpt lat="48.1653" lon="16.38187">
        <ele>262.711705</ele>
        <time>2026-07-07T08:35:13.000Z</time>
      </trkpt>
      <trkpt lat="48.16527" lon="16.38188">
        <ele>262.803517</ele>
        <time>2026-07-07T08:35:14.000Z</time>
      </trkpt>
      <trkpt lat="48.16523" lon="16.3819">
        <ele>262.901111</ele>
        <time>2026-07-07T08:35:15.000Z</time>
      </trkpt>
      <trkpt lat="48.16519" lon="16.38191">
        <ele>262.997501</ele>
        <time>2026-07-07T08:35:16.000Z</time>
      </trkpt>
      <trkpt lat="48.16516" lon="16.38192">
        <ele>263.088222</ele>
        <time>2026-07-07T08:35:17.000Z</time>
      </trkpt>
      <trkpt lat="48.16512" lon="16.38193">
        <ele>263.182508</ele>
        <time>2026-07-07T08:35:18.000Z</time>
      </trkpt>
      <trkpt lat="48.16509" lon="16.38195">
        <ele>263.273927</ele>
        <time>2026-07-07T08:35:19.000Z</time>
      </trkpt>
      <trkpt lat="48.16505" lon="16.38196">
        <ele>263.363269</ele>
        <time>2026-07-07T08:35:20.000Z</time>
      </trkpt>
      <trkpt lat="48.16502" lon="16.38197">
        <ele>263.449731</ele>
        <time>2026-07-07T08:35:21.000Z</time>
      </trkpt>
      <trkpt lat="48.16499" lon="16.38198">
        <ele>263.54115</ele>
        <time>2026-07-07T08:35:22.000Z</time>
      </trkpt>
      <trkpt lat="48.16495" lon="16.38199">
        <ele>263.627227</ele>
        <time>2026-07-07T08:35:23.000Z</time>
      </trkpt>
      <trkpt lat="48.16492" lon="16.38201">
        <ele>263.718646</ele>
        <time>2026-07-07T08:35:24.000Z</time>
      </trkpt>
      <trkpt lat="48.16488" lon="16.38202">
        <ele>263.808888</ele>
        <time>2026-07-07T08:35:25.000Z</time>
      </trkpt>
      <trkpt lat="48.16485" lon="16.38203">
        <ele>263.887947</ele>
        <time>2026-07-07T08:35:26.000Z</time>
      </trkpt>
      <trkpt lat="48.16483" lon="16.38204">
        <ele>263.952166</ele>
        <time>2026-07-07T08:35:27.000Z</time>
      </trkpt>
      <trkpt lat="48.16481" lon="16.38204">
        <ele>264.0041</ele>
        <time>2026-07-07T08:35:28.000Z</time>
      </trkpt>
      <trkpt lat="48.16479" lon="16.38205">
        <ele>264.043226</ele>
        <time>2026-07-07T08:35:29.000Z</time>
      </trkpt>
      <trkpt lat="48.16478" lon="16.38205">
        <ele>264.072047</ele>
        <time>2026-07-07T08:35:30.000Z</time>
      </trkpt>
      <trkpt lat="48.16477" lon="16.38206">
        <ele>264.097127</ele>
        <time>2026-07-07T08:35:31.000Z</time>
      </trkpt>
      <trkpt lat="48.16477" lon="16.38206">
        <ele>264.119195</ele>
        <time>2026-07-07T08:35:32.000Z</time>
      </trkpt>
      <trkpt lat="48.16476" lon="16.38207">
        <ele>264.138939</ele>
        <time>2026-07-07T08:35:33.000Z</time>
      </trkpt>
      <trkpt lat="48.16475" lon="16.38207">
        <ele>264.153369</ele>
        <time>2026-07-07T08:35:34.000Z</time>
      </trkpt>
      <trkpt lat="48.16475" lon="16.38208">
        <ele>264.167082</ele>
        <time>2026-07-07T08:35:35.000Z</time>
      </trkpt>
      <trkpt lat="48.16474" lon="16.38208">
        <ele>264.183186</ele>
        <time>2026-07-07T08:35:36.000Z</time>
      </trkpt>
      <trkpt lat="48.16474" lon="16.38208">
        <ele>264.197616</ele>
        <time>2026-07-07T08:35:37.000Z</time>
      </trkpt>
      <trkpt lat="48.16474" lon="16.38208">
        <ele>264.197616</ele>
        <time>2026-07-07T08:35:38.000Z</time>
      </trkpt>
      <trkpt lat="48.16473" lon="16.38208">
        <ele>264.220595</ele>
        <time>2026-07-07T08:35:39.000Z</time>
      </trkpt>
      <trkpt lat="48.16471" lon="16.38209">
        <ele>264.264733</ele>
        <time>2026-07-07T08:35:40.000Z</time>
      </trkpt>
      <trkpt lat="48.16469" lon="16.3821">
        <ele>264.327725</ele>
        <time>2026-07-07T08:35:41.000Z</time>
      </trkpt>
      <trkpt lat="48.16466" lon="16.38211">
        <ele>264.396071</ele>
        <time>2026-07-07T08:35:42.000Z</time>
      </trkpt>
      <trkpt lat="48.16463" lon="16.38213">
        <ele>264.473142</ele>
        <time>2026-07-07T08:35:43.000Z</time>
      </trkpt>
      <trkpt lat="48.1646" lon="16.38214">
        <ele>264.5522</ele>
        <time>2026-07-07T08:35:44.000Z</time>
      </trkpt>
      <trkpt lat="48.16457" lon="16.38215">
        <ele>264.639078</ele>
        <time>2026-07-07T08:35:45.000Z</time>
      </trkpt>
      <trkpt lat="48.16454" lon="16.38216">
        <ele>264.730497</ele>
        <time>2026-07-07T08:35:46.000Z</time>
      </trkpt>
      <trkpt lat="48.1645" lon="16.38218">
        <ele>264.82726</ele>
        <time>2026-07-07T08:35:47.000Z</time>
      </trkpt>
      <trkpt lat="48.16447" lon="16.38219">
        <ele>264.913722</ele>
        <time>2026-07-07T08:35:48.000Z</time>
      </trkpt>
      <trkpt lat="48.16443" lon="16.3822">
        <ele>265.011773</ele>
        <time>2026-07-07T08:35:49.000Z</time>
      </trkpt>
      <trkpt lat="48.16439" lon="16.38222">
        <ele>265.106471</ele>
        <time>2026-07-07T08:35:50.000Z</time>
      </trkpt>
      <trkpt lat="48.16436" lon="16.38223">
        <ele>265.199639</ele>
        <time>2026-07-07T08:35:51.000Z</time>
      </trkpt>
      <trkpt lat="48.16432" lon="16.38225">
        <ele>265.299223</ele>
        <time>2026-07-07T08:35:52.000Z</time>
      </trkpt>
      <trkpt lat="48.16429" lon="16.38227">
        <ele>265.391035</ele>
        <time>2026-07-07T08:35:53.000Z</time>
      </trkpt>
      <trkpt lat="48.16425" lon="16.38228">
        <ele>265.487798</ele>
        <time>2026-07-07T08:35:54.000Z</time>
      </trkpt>
      <trkpt lat="48.16421" lon="16.38229">
        <ele>265.582496</ele>
        <time>2026-07-07T08:35:55.000Z</time>
      </trkpt>
      <trkpt lat="48.16418" lon="16.38231">
        <ele>265.675184</ele>
        <time>2026-07-07T08:35:56.000Z</time>
      </trkpt>
      <trkpt lat="48.16414" lon="16.38232">
        <ele>265.766996</ele>
        <time>2026-07-07T08:35:57.000Z</time>
      </trkpt>
      <trkpt lat="48.16411" lon="16.38233">
        <ele>265.856339</ele>
        <time>2026-07-07T08:35:58.000Z</time>
      </trkpt>
      <trkpt lat="48.16407" lon="16.38235">
        <ele>265.951477</ele>
        <time>2026-07-07T08:35:59.000Z</time>
      </trkpt>
      <trkpt lat="48.16404" lon="16.38236">
        <ele>266.041255</ele>
        <time>2026-07-07T08:36:00.000Z</time>
      </trkpt>
      <trkpt lat="48.16401" lon="16.38238">
        <ele>266.129565</ele>
        <time>2026-07-07T08:36:01.000Z</time>
      </trkpt>
      <trkpt lat="48.16397" lon="16.3824">
        <ele>266.224345</ele>
        <time>2026-07-07T08:36:02.000Z</time>
      </trkpt>
      <trkpt lat="48.16394" lon="16.38241">
        <ele>266.315067</ele>
        <time>2026-07-07T08:36:03.000Z</time>
      </trkpt>
      <trkpt lat="48.1639" lon="16.38243">
        <ele>266.417055</ele>
        <time>2026-07-07T08:36:04.000Z</time>
      </trkpt>
      <trkpt lat="48.16386" lon="16.38245">
        <ele>266.521399</ele>
        <time>2026-07-07T08:36:05.000Z</time>
      </trkpt>
      <trkpt lat="48.16382" lon="16.38248">
        <ele>266.624049</ele>
        <time>2026-07-07T08:36:06.000Z</time>
      </trkpt>
      <trkpt lat="48.16379" lon="16.38249">
        <ele>266.723293</ele>
        <time>2026-07-07T08:36:07.000Z</time>
      </trkpt>
      <trkpt lat="48.16375" lon="16.3825">
        <ele>266.808778</ele>
        <time>2026-07-07T08:36:08.000Z</time>
      </trkpt>
      <trkpt lat="48.16371" lon="16.38252">
        <ele>266.831822</ele>
        <time>2026-07-07T08:36:09.000Z</time>
      </trkpt>
      <trkpt lat="48.16367" lon="16.38254">
        <ele>266.853385</ele>
        <time>2026-07-07T08:36:10.000Z</time>
      </trkpt>
      <trkpt lat="48.16362" lon="16.38256">
        <ele>266.87665</ele>
        <time>2026-07-07T08:36:11.000Z</time>
      </trkpt>
      <trkpt lat="48.16358" lon="16.38259">
        <ele>266.899796</ele>
        <time>2026-07-07T08:36:12.000Z</time>
      </trkpt>
      <trkpt lat="48.16354" lon="16.38261">
        <ele>266.9222</ele>
        <time>2026-07-07T08:36:13.000Z</time>
      </trkpt>
      <trkpt lat="48.16351" lon="16.38262">
        <ele>266.942243</ele>
        <time>2026-07-07T08:36:14.000Z</time>
      </trkpt>
      <trkpt lat="48.16347" lon="16.38264">
        <ele>266.960276</ele>
        <time>2026-07-07T08:36:15.000Z</time>
      </trkpt>
      <trkpt lat="48.16344" lon="16.38265">
        <ele>266.978715</ele>
        <time>2026-07-07T08:36:16.000Z</time>
      </trkpt>
      <trkpt lat="48.16341" lon="16.38266">
        <ele>266.996393</ele>
        <time>2026-07-07T08:36:17.000Z</time>
      </trkpt>
      <trkpt lat="48.16338" lon="16.38267">
        <ele>267.012465</ele>
        <time>2026-07-07T08:36:18.000Z</time>
      </trkpt>
      <trkpt lat="48.16335" lon="16.38268">
        <ele>267.027009</ele>
        <time>2026-07-07T08:36:19.000Z</time>
      </trkpt>
      <trkpt lat="48.16333" lon="16.38269">
        <ele>267.039439</ele>
        <time>2026-07-07T08:36:20.000Z</time>
      </trkpt>
      <trkpt lat="48.16331" lon="16.3827">
        <ele>267.050105</ele>
        <time>2026-07-07T08:36:21.000Z</time>
      </trkpt>
      <trkpt lat="48.16329" lon="16.38271">
        <ele>267.05983</ele>
        <time>2026-07-07T08:36:22.000Z</time>
      </trkpt>
      <trkpt lat="48.16327" lon="16.38271">
        <ele>267.068045</ele>
        <time>2026-07-07T08:36:23.000Z</time>
      </trkpt>
      <trkpt lat="48.16326" lon="16.38272">
        <ele>267.076081</ele>
        <time>2026-07-07T08:36:24.000Z</time>
      </trkpt>
      <trkpt lat="48.16324" lon="16.38272">
        <ele>267.083607</ele>
        <time>2026-07-07T08:36:25.000Z</time>
      </trkpt>
      <trkpt lat="48.16324" lon="16.38272">
        <ele>267.086745</ele>
        <time>2026-07-07T08:36:26.000Z</time>
      </trkpt>
      <trkpt lat="48.16324" lon="16.38272">
        <ele>267.087373</ele>
        <time>2026-07-07T08:36:27.000Z</time>
      </trkpt>
      <trkpt lat="48.16321" lon="16.38274">
        <ele>267.102602</ele>
        <time>2026-07-07T08:36:41.000Z</time>
      </trkpt>
      <trkpt lat="48.16319" lon="16.38275">
        <ele>267.116133</ele>
        <time>2026-07-07T08:36:42.000Z</time>
      </trkpt>
      <trkpt lat="48.16316" lon="16.38276">
        <ele>267.13237</ele>
        <time>2026-07-07T08:36:43.000Z</time>
      </trkpt>
      <trkpt lat="48.16312" lon="16.38277">
        <ele>267.151406</ele>
        <time>2026-07-07T08:36:44.000Z</time>
      </trkpt>
      <trkpt lat="48.16309" lon="16.38279">
        <ele>267.170442</ele>
        <time>2026-07-07T08:36:45.000Z</time>
      </trkpt>
      <trkpt lat="48.16305" lon="16.3828">
        <ele>267.190168</ele>
        <time>2026-07-07T08:36:46.000Z</time>
      </trkpt>
      <trkpt lat="48.16301" lon="16.38281">
        <ele>267.209617</ele>
        <time>2026-07-07T08:36:47.000Z</time>
      </trkpt>
      <trkpt lat="48.16297" lon="16.38283">
        <ele>267.230762</ele>
        <time>2026-07-07T08:36:48.000Z</time>
      </trkpt>
      <trkpt lat="48.16293" lon="16.38284">
        <ele>267.252324</ele>
        <time>2026-07-07T08:36:49.000Z</time>
      </trkpt>
      <trkpt lat="48.16289" lon="16.38286">
        <ele>267.274066</ele>
        <time>2026-07-07T08:36:50.000Z</time>
      </trkpt>
      <trkpt lat="48.16285" lon="16.38288">
        <ele>267.295808</ele>
        <time>2026-07-07T08:36:51.000Z</time>
      </trkpt>
      <trkpt lat="48.16281" lon="16.38289">
        <ele>267.317457</ele>
        <time>2026-07-07T08:36:52.000Z</time>
      </trkpt>
      <trkpt lat="48.16278" lon="16.38291">
        <ele>267.33792</ele>
        <time>2026-07-07T08:36:53.000Z</time>
      </trkpt>
      <trkpt lat="48.16274" lon="16.38292">
        <ele>267.357964</ele>
        <time>2026-07-07T08:36:54.000Z</time>
      </trkpt>
      <trkpt lat="48.16271" lon="16.38293">
        <ele>267.375643</ele>
        <time>2026-07-07T08:36:55.000Z</time>
      </trkpt>
      <trkpt lat="48.16267" lon="16.38295">
        <ele>267.392892</ele>
        <time>2026-07-07T08:36:56.000Z</time>
      </trkpt>
      <trkpt lat="48.16264" lon="16.38296">
        <ele>267.409726</ele>
        <time>2026-07-07T08:36:57.000Z</time>
      </trkpt>
      <trkpt lat="48.16261" lon="16.38297">
        <ele>267.427259</ele>
        <time>2026-07-07T08:36:58.000Z</time>
      </trkpt>
      <trkpt lat="48.16258" lon="16.38299">
        <ele>267.446034</ele>
        <time>2026-07-07T08:36:59.000Z</time>
      </trkpt>
      <trkpt lat="48.16254" lon="16.383">
        <ele>267.465071</ele>
        <time>2026-07-07T08:37:00.000Z</time>
      </trkpt>
      <trkpt lat="48.16251" lon="16.38301">
        <ele>267.483927</ele>
        <time>2026-07-07T08:37:01.000Z</time>
      </trkpt>
      <trkpt lat="48.16247" lon="16.38303">
        <ele>267.502174</ele>
        <time>2026-07-07T08:37:02.000Z</time>
      </trkpt>
      <trkpt lat="48.16244" lon="16.38305">
        <ele>267.519928</ele>
        <time>2026-07-07T08:37:03.000Z</time>
      </trkpt>
      <trkpt lat="48.16241" lon="16.38306">
        <ele>267.536466</ele>
        <time>2026-07-07T08:37:04.000Z</time>
      </trkpt>
      <trkpt lat="48.16238" lon="16.38308">
        <ele>267.551918</ele>
        <time>2026-07-07T08:37:05.000Z</time>
      </trkpt>
      <trkpt lat="48.16236" lon="16.38309">
        <ele>267.565646</ele>
        <time>2026-07-07T08:37:06.000Z</time>
      </trkpt>
      <trkpt lat="48.16234" lon="16.3831">
        <ele>267.576825</ele>
        <time>2026-07-07T08:37:07.000Z</time>
      </trkpt>
      <trkpt lat="48.16232" lon="16.38311">
        <ele>267.587745</ele>
        <time>2026-07-07T08:37:08.000Z</time>
      </trkpt>
      <trkpt lat="48.1623" lon="16.38312">
        <ele>267.599583</ele>
        <time>2026-07-07T08:37:09.000Z</time>
      </trkpt>
      <trkpt lat="48.16227" lon="16.38312">
        <ele>267.614329</ele>
        <time>2026-07-07T08:37:10.000Z</time>
      </trkpt>
      <trkpt lat="48.16224" lon="16.38312">
        <ele>267.630052</ele>
        <time>2026-07-07T08:37:11.000Z</time>
      </trkpt>
      <trkpt lat="48.16221" lon="16.3831">
        <ele>267.647586</ele>
        <time>2026-07-07T08:37:12.000Z</time>
      </trkpt>
      <trkpt lat="48.16217" lon="16.38309">
        <ele>267.665833</ele>
        <time>2026-07-07T08:37:13.000Z</time>
      </trkpt>
      <trkpt lat="48.16215" lon="16.38307">
        <ele>267.681582</ele>
        <time>2026-07-07T08:37:14.000Z</time>
      </trkpt>
      <trkpt lat="48.16213" lon="16.38305">
        <ele>267.692897</ele>
        <time>2026-07-07T08:37:15.000Z</time>
      </trkpt>
      <trkpt lat="48.16212" lon="16.38303">
        <ele>267.701616</ele>
        <time>2026-07-07T08:37:16.000Z</time>
      </trkpt>
      <trkpt lat="48.16211" lon="16.38302">
        <ele>267.706438</ele>
        <time>2026-07-07T08:37:17.000Z</time>
      </trkpt>
      <trkpt lat="48.1621" lon="16.38301">
        <ele>267.712266</ele>
        <time>2026-07-07T08:37:18.000Z</time>
      </trkpt>
      <trkpt lat="48.16206" lon="16.38293">
        <ele>267.743075</ele>
        <time>2026-07-07T08:37:34.000Z</time>
      </trkpt>
      <trkpt lat="48.16204" lon="16.38292">
        <ele>267.732871</ele>
        <time>2026-07-07T08:37:35.000Z</time>
      </trkpt>
      <trkpt lat="48.16202" lon="16.38291">
        <ele>267.720994</ele>
        <time>2026-07-07T08:37:36.000Z</time>
      </trkpt>
      <trkpt lat="48.162" lon="16.38291">
        <ele>267.706866</ele>
        <time>2026-07-07T08:37:37.000Z</time>
      </trkpt>
      <trkpt lat="48.16197" lon="16.38293">
        <ele>267.691414</ele>
        <time>2026-07-07T08:37:38.000Z</time>
      </trkpt>
      <trkpt lat="48.16195" lon="16.38295">
        <ele>267.67513</ele>
        <time>2026-07-07T08:37:39.000Z</time>
      </trkpt>
      <trkpt lat="48.16193" lon="16.38298">
        <ele>267.65676</ele>
        <time>2026-07-07T08:37:40.000Z</time>
      </trkpt>
      <trkpt lat="48.1619" lon="16.383">
        <ele>267.636776</ele>
        <time>2026-07-07T08:37:41.000Z</time>
      </trkpt>
      <trkpt lat="48.16186" lon="16.38301">
        <ele>267.615348</ele>
        <time>2026-07-07T08:37:42.000Z</time>
      </trkpt>
      <trkpt lat="48.16183" lon="16.38303">
        <ele>267.595264</ele>
        <time>2026-07-07T08:37:43.000Z</time>
      </trkpt>
      <trkpt lat="48.1618" lon="16.38304">
        <ele>267.575847</ele>
        <time>2026-07-07T08:37:44.000Z</time>
      </trkpt>
      <trkpt lat="48.16176" lon="16.38305">
        <ele>267.555548</ele>
        <time>2026-07-07T08:37:45.000Z</time>
      </trkpt>
      <trkpt lat="48.16173" lon="16.38307">
        <ele>267.534323</ele>
        <time>2026-07-07T08:37:46.000Z</time>
      </trkpt>
      <trkpt lat="48.16169" lon="16.38308">
        <ele>267.510623</ele>
        <time>2026-07-07T08:37:47.000Z</time>
      </trkpt>
      <trkpt lat="48.16165" lon="16.3831">
        <ele>267.486039</ele>
        <time>2026-07-07T08:37:48.000Z</time>
      </trkpt>
      <trkpt lat="48.16161" lon="16.38312">
        <ele>267.460999</ele>
        <time>2026-07-07T08:37:49.000Z</time>
      </trkpt>
      <trkpt lat="48.16156" lon="16.38313">
        <ele>267.434252</ele>
        <time>2026-07-07T08:37:50.000Z</time>
      </trkpt>
      <trkpt lat="48.16152" lon="16.38315">
        <ele>267.406837</ele>
        <time>2026-07-07T08:37:51.000Z</time>
      </trkpt>
      <trkpt lat="48.16147" lon="16.38317">
        <ele>267.379208</ele>
        <time>2026-07-07T08:37:52.000Z</time>
      </trkpt>
      <trkpt lat="48.16143" lon="16.38319">
        <ele>267.352707</ele>
        <time>2026-07-07T08:37:53.000Z</time>
      </trkpt>
      <trkpt lat="48.16139" lon="16.38321">
        <ele>267.325291</ele>
        <time>2026-07-07T08:37:54.000Z</time>
      </trkpt>
      <trkpt lat="48.16134" lon="16.38323">
        <ele>267.299114</ele>
        <time>2026-07-07T08:37:55.000Z</time>
      </trkpt>
      <trkpt lat="48.1613" lon="16.38325">
        <ele>267.271486</ele>
        <time>2026-07-07T08:37:56.000Z</time>
      </trkpt>
      <trkpt lat="48.16125" lon="16.38326">
        <ele>267.244739</ele>
        <time>2026-07-07T08:37:57.000Z</time>
      </trkpt>
      <trkpt lat="48.16121" lon="16.38327">
        <ele>267.221164</ele>
        <time>2026-07-07T08:37:58.000Z</time>
      </trkpt>
      <trkpt lat="48.16118" lon="16.38325">
        <ele>267.200624</ele>
        <time>2026-07-07T08:37:59.000Z</time>
      </trkpt>
      <trkpt lat="48.16116" lon="16.38321">
        <ele>267.181453</ele>
        <time>2026-07-07T08:38:00.000Z</time>
      </trkpt>
      <trkpt lat="48.16115" lon="16.38316">
        <ele>267.16199</ele>
        <time>2026-07-07T08:38:01.000Z</time>
      </trkpt>
      <trkpt lat="48.16116" lon="16.38312">
        <ele>267.143167</ele>
        <time>2026-07-07T08:38:02.000Z</time>
      </trkpt>
      <trkpt lat="48.16118" lon="16.38308">
        <ele>267.12515</ele>
        <time>2026-07-07T08:38:03.000Z</time>
      </trkpt>
      <trkpt lat="48.16119" lon="16.38304">
        <ele>267.108489</ele>
        <time>2026-07-07T08:38:04.000Z</time>
      </trkpt>
      <trkpt lat="48.16121" lon="16.38301">
        <ele>267.090849</ele>
        <time>2026-07-07T08:38:05.000Z</time>
      </trkpt>
      <trkpt lat="48.16123" lon="16.38297">
        <ele>267.071387</ele>
        <time>2026-07-07T08:38:06.000Z</time>
      </trkpt>
      <trkpt lat="48.16126" lon="16.38293">
        <ele>267.051814</ele>
        <time>2026-07-07T08:38:07.000Z</time>
      </trkpt>
      <trkpt lat="48.16128" lon="16.38289">
        <ele>267.029907</ele>
        <time>2026-07-07T08:38:08.000Z</time>
      </trkpt>
      <trkpt lat="48.1613" lon="16.38284">
        <ele>267.007695</ele>
        <time>2026-07-07T08:38:09.000Z</time>
      </trkpt>
      <trkpt lat="48.16132" lon="16.38279">
        <ele>266.985101</ele>
        <time>2026-07-07T08:38:10.000Z</time>
      </trkpt>
      <trkpt lat="48.16134" lon="16.38274">
        <ele>266.961532</ele>
        <time>2026-07-07T08:38:11.000Z</time>
      </trkpt>
      <trkpt lat="48.16136" lon="16.38269">
        <ele>266.939911</ele>
        <time>2026-07-07T08:38:12.000Z</time>
      </trkpt>
      <trkpt lat="48.16138" lon="16.38265">
        <ele>266.918004</ele>
        <time>2026-07-07T08:38:13.000Z</time>
      </trkpt>
      <trkpt lat="48.1614" lon="16.3826">
        <ele>266.896115</ele>
        <time>2026-07-07T08:38:14.000Z</time>
      </trkpt>
      <trkpt lat="48.16142" lon="16.38255">
        <ele>266.874883</ele>
        <time>2026-07-07T08:38:15.000Z</time>
      </trkpt>
      <trkpt lat="48.16144" lon="16.38251">
        <ele>266.85428</ele>
        <time>2026-07-07T08:38:16.000Z</time>
      </trkpt>
      <trkpt lat="48.16145" lon="16.38246">
        <ele>266.833678</ele>
        <time>2026-07-07T08:38:17.000Z</time>
      </trkpt>
      <trkpt lat="48.16148" lon="16.38242">
        <ele>266.8124</ele>
        <time>2026-07-07T08:38:18.000Z</time>
      </trkpt>
      <trkpt lat="48.1615" lon="16.38238">
        <ele>266.791817</ele>
        <time>2026-07-07T08:38:19.000Z</time>
      </trkpt>
      <trkpt lat="48.16152" lon="16.38234">
        <ele>266.771555</ele>
        <time>2026-07-07T08:38:20.000Z</time>
      </trkpt>
      <trkpt lat="48.16154" lon="16.38229">
        <ele>266.750587</ele>
        <time>2026-07-07T08:38:21.000Z</time>
      </trkpt>
      <trkpt lat="48.16156" lon="16.38226">
        <ele>266.731211</ele>
        <time>2026-07-07T08:38:22.000Z</time>
      </trkpt>
      <trkpt lat="48.16158" lon="16.38222">
        <ele>266.712512</ele>
        <time>2026-07-07T08:38:23.000Z</time>
      </trkpt>
      <trkpt lat="48.1616" lon="16.38218">
        <ele>266.694487</ele>
        <time>2026-07-07T08:38:24.000Z</time>
      </trkpt>
      <trkpt lat="48.16161" lon="16.38215">
        <ele>266.671379</ele>
        <time>2026-07-07T08:38:25.000Z</time>
      </trkpt>
      <trkpt lat="48.16163" lon="16.38212">
        <ele>266.645289</ele>
        <time>2026-07-07T08:38:26.000Z</time>
      </trkpt>
      <trkpt lat="48.16164" lon="16.38209">
        <ele>266.62185</ele>
        <time>2026-07-07T08:38:27.000Z</time>
      </trkpt>
      <trkpt lat="48.16166" lon="16.38206">
        <ele>266.600759</ele>
        <time>2026-07-07T08:38:28.000Z</time>
      </trkpt>
      <trkpt lat="48.16166" lon="16.38204">
        <ele>266.583987</ele>
        <time>2026-07-07T08:38:29.000Z</time>
      </trkpt>
      <trkpt lat="48.16166" lon="16.38202">
        <ele>266.573981</ele>
        <time>2026-07-07T08:38:30.000Z</time>
      </trkpt>
      <trkpt lat="48.16166" lon="16.38202">
        <ele>266.569495</ele>
        <time>2026-07-07T08:38:31.000Z</time>
      </trkpt>
      <trkpt lat="48.16164" lon="16.38199">
        <ele>266.539301</ele>
        <time>2026-07-07T08:38:39.000Z</time>
      </trkpt>
      <trkpt lat="48.16162" lon="16.38196">
        <ele>266.511378</ele>
        <time>2026-07-07T08:38:40.000Z</time>
      </trkpt>
      <trkpt lat="48.1616" lon="16.38191">
        <ele>266.479598</ele>
        <time>2026-07-07T08:38:41.000Z</time>
      </trkpt>
      <trkpt lat="48.16159" lon="16.38187">
        <ele>266.446255</ele>
        <time>2026-07-07T08:38:42.000Z</time>
      </trkpt>
      <trkpt lat="48.16157" lon="16.38183">
        <ele>266.412391</ele>
        <time>2026-07-07T08:38:43.000Z</time>
      </trkpt>
      <trkpt lat="48.16155" lon="16.38178">
        <ele>266.378833</ele>
        <time>2026-07-07T08:38:44.000Z</time>
      </trkpt>
      <trkpt lat="48.16154" lon="16.38173">
        <ele>266.342129</ele>
        <time>2026-07-07T08:38:45.000Z</time>
      </trkpt>
      <trkpt lat="48.16153" lon="16.38167">
        <ele>266.303467</ele>
        <time>2026-07-07T08:38:46.000Z</time>
      </trkpt>
      <trkpt lat="48.16153" lon="16.38162">
        <ele>266.266765</ele>
        <time>2026-07-07T08:38:47.000Z</time>
      </trkpt>
      <trkpt lat="48.16153" lon="16.38156">
        <ele>266.229859</ele>
        <time>2026-07-07T08:38:48.000Z</time>
      </trkpt>
      <trkpt lat="48.16152" lon="16.38151">
        <ele>266.193999</ele>
        <time>2026-07-07T08:38:49.000Z</time>
      </trkpt>
      <trkpt lat="48.16151" lon="16.38146">
        <ele>266.159452</ele>
        <time>2026-07-07T08:38:50.000Z</time>
      </trkpt>
      <trkpt lat="48.1615" lon="16.38141">
        <ele>266.126544</ele>
        <time>2026-07-07T08:38:51.000Z</time>
      </trkpt>
      <trkpt lat="48.16149" lon="16.38137">
        <ele>266.091986</ele>
        <time>2026-07-07T08:38:52.000Z</time>
      </trkpt>
      <trkpt lat="48.16148" lon="16.38132">
        <ele>266.055415</ele>
        <time>2026-07-07T08:38:53.000Z</time>
      </trkpt>
      <trkpt lat="48.16146" lon="16.38127">
        <ele>266.017514</ele>
        <time>2026-07-07T08:38:54.000Z</time>
      </trkpt>
      <trkpt lat="48.16144" lon="16.38121">
        <ele>265.979722</ele>
        <time>2026-07-07T08:38:55.000Z</time>
      </trkpt>
      <trkpt lat="48.16143" lon="16.38116">
        <ele>265.940085</ele>
        <time>2026-07-07T08:38:56.000Z</time>
      </trkpt>
      <trkpt lat="48.16141" lon="16.3811">
        <ele>265.900448</ele>
        <time>2026-07-07T08:38:57.000Z</time>
      </trkpt>
      <trkpt lat="48.1614" lon="16.38105">
        <ele>265.858188</ele>
        <time>2026-07-07T08:38:58.000Z</time>
      </trkpt>
      <trkpt lat="48.16138" lon="16.38099">
        <ele>265.816538</ele>
        <time>2026-07-07T08:38:59.000Z</time>
      </trkpt>
      <trkpt lat="48.16135" lon="16.38094">
        <ele>265.775914</ele>
        <time>2026-07-07T08:39:00.000Z</time>
      </trkpt>
      <trkpt lat="48.16132" lon="16.3809">
        <ele>265.734704</ele>
        <time>2026-07-07T08:39:01.000Z</time>
      </trkpt>
      <trkpt lat="48.16128" lon="16.38088">
        <ele>265.694647</ele>
        <time>2026-07-07T08:39:02.000Z</time>
      </trkpt>
      <trkpt lat="48.16125" lon="16.38087">
        <ele>265.656064</ele>
        <time>2026-07-07T08:39:03.000Z</time>
      </trkpt>
      <trkpt lat="48.1612" lon="16.38087">
        <ele>265.613016</ele>
        <time>2026-07-07T08:39:04.000Z</time>
      </trkpt>
      <trkpt lat="48.16116" lon="16.38086">
        <ele>265.567935</ele>
        <time>2026-07-07T08:39:05.000Z</time>
      </trkpt>
      <trkpt lat="48.16111" lon="16.38086">
        <ele>265.523927</ele>
        <time>2026-07-07T08:39:06.000Z</time>
      </trkpt>
      <trkpt lat="48.16107" lon="16.38086">
        <ele>265.48392</ele>
        <time>2026-07-07T08:39:07.000Z</time>
      </trkpt>
      <trkpt lat="48.16103" lon="16.38086">
        <ele>265.443918</ele>
        <time>2026-07-07T08:39:08.000Z</time>
      </trkpt>
      <trkpt lat="48.161" lon="16.38086">
        <ele>265.405864</ele>
        <time>2026-07-07T08:39:09.000Z</time>
      </trkpt>
      <trkpt lat="48.16096" lon="16.38086">
        <ele>265.365812</ele>
        <time>2026-07-07T08:39:10.000Z</time>
      </trkpt>
      <trkpt lat="48.16092" lon="16.38085">
        <ele>265.325721</ele>
        <time>2026-07-07T08:39:11.000Z</time>
      </trkpt>
      <trkpt lat="48.16088" lon="16.38084">
        <ele>265.287138</ele>
        <time>2026-07-07T08:39:12.000Z</time>
      </trkpt>
      <trkpt lat="48.16084" lon="16.38082">
        <ele>265.247804</ele>
        <time>2026-07-07T08:39:13.000Z</time>
      </trkpt>
      <trkpt lat="48.16081" lon="16.38079">
        <ele>265.206456</ele>
        <time>2026-07-07T08:39:14.000Z</time>
      </trkpt>
      <trkpt lat="48.16078" lon="16.38075">
        <ele>265.16637</ele>
        <time>2026-07-07T08:39:15.000Z</time>
      </trkpt>
      <trkpt lat="48.16075" lon="16.38069">
        <ele>265.123085</ele>
        <time>2026-07-07T08:39:16.000Z</time>
      </trkpt>
      <trkpt lat="48.16073" lon="16.38064">
        <ele>265.080711</ele>
        <time>2026-07-07T08:39:17.000Z</time>
      </trkpt>
      <trkpt lat="48.16072" lon="16.38057">
        <ele>265.034378</ele>
        <time>2026-07-07T08:39:18.000Z</time>
      </trkpt>
      <trkpt lat="48.1607" lon="16.38051">
        <ele>264.987866</ele>
        <time>2026-07-07T08:39:19.000Z</time>
      </trkpt>
      <trkpt lat="48.16068" lon="16.38044">
        <ele>264.938172</ele>
        <time>2026-07-07T08:39:20.000Z</time>
      </trkpt>
      <trkpt lat="48.16066" lon="16.38037">
        <ele>264.881348</ele>
        <time>2026-07-07T08:39:21.000Z</time>
      </trkpt>
      <trkpt lat="48.16064" lon="16.38029">
        <ele>264.712814</ele>
        <time>2026-07-07T08:39:22.000Z</time>
      </trkpt>
      <trkpt lat="48.16062" lon="16.38022">
        <ele>264.536348</ele>
        <time>2026-07-07T08:39:23.000Z</time>
      </trkpt>
      <trkpt lat="48.16061" lon="16.38013">
        <ele>264.351992</ele>
        <time>2026-07-07T08:39:24.000Z</time>
      </trkpt>
      <trkpt lat="48.16059" lon="16.38005">
        <ele>264.163529</ele>
        <time>2026-07-07T08:39:25.000Z</time>
      </trkpt>
      <trkpt lat="48.16056" lon="16.37996">
        <ele>263.964831</ele>
        <time>2026-07-07T08:39:26.000Z</time>
      </trkpt>
      <trkpt lat="48.16054" lon="16.37988">
        <ele>263.766959</ele>
        <time>2026-07-07T08:39:27.000Z</time>
      </trkpt>
      <trkpt lat="48.16052" lon="16.37979">
        <ele>263.55714</ele>
        <time>2026-07-07T08:39:28.000Z</time>
      </trkpt>
      <trkpt lat="48.1605" lon="16.37969">
        <ele>263.348424</ele>
        <time>2026-07-07T08:39:29.000Z</time>
      </trkpt>
      <trkpt lat="48.16047" lon="16.3796">
        <ele>263.131646</ele>
        <time>2026-07-07T08:39:30.000Z</time>
      </trkpt>
      <trkpt lat="48.16045" lon="16.3795">
        <ele>262.915816</ele>
        <time>2026-07-07T08:39:31.000Z</time>
      </trkpt>
      <trkpt lat="48.16043" lon="16.37941">
        <ele>262.699704</ele>
        <time>2026-07-07T08:39:32.000Z</time>
      </trkpt>
      <trkpt lat="48.1604" lon="16.37931">
        <ele>262.481606</ele>
        <time>2026-07-07T08:39:33.000Z</time>
      </trkpt>
      <trkpt lat="48.16038" lon="16.37922">
        <ele>262.271431</ele>
        <time>2026-07-07T08:39:34.000Z</time>
      </trkpt>
      <trkpt lat="48.16035" lon="16.37913">
        <ele>262.061611</ele>
        <time>2026-07-07T08:39:35.000Z</time>
      </trkpt>
      <trkpt lat="48.16033" lon="16.37904">
        <ele>261.854619</ele>
        <time>2026-07-07T08:39:36.000Z</time>
      </trkpt>
      <trkpt lat="48.1603" lon="16.37895">
        <ele>261.641239</ele>
        <time>2026-07-07T08:39:37.000Z</time>
      </trkpt>
      <trkpt lat="48.16028" lon="16.37886">
        <ele>261.430492</ele>
        <time>2026-07-07T08:39:38.000Z</time>
      </trkpt>
      <trkpt lat="48.16025" lon="16.37877">
        <ele>261.223633</ele>
        <time>2026-07-07T08:39:39.000Z</time>
      </trkpt>
      <trkpt lat="48.16022" lon="16.37868">
        <ele>261.019367</ele>
        <time>2026-07-07T08:39:40.000Z</time>
      </trkpt>
      <trkpt lat="48.1602" lon="16.3786">
        <ele>260.82098</ele>
        <time>2026-07-07T08:39:41.000Z</time>
      </trkpt>
      <trkpt lat="48.16017" lon="16.37852">
        <ele>260.628437</ele>
        <time>2026-07-07T08:39:42.000Z</time>
      </trkpt>
      <trkpt lat="48.16015" lon="16.37844">
        <ele>260.43977</ele>
        <time>2026-07-07T08:39:43.000Z</time>
      </trkpt>
      <trkpt lat="48.16013" lon="16.37836">
        <ele>260.25373</ele>
        <time>2026-07-07T08:39:44.000Z</time>
      </trkpt>
      <trkpt lat="48.1601" lon="16.37828">
        <ele>260.068933</ele>
        <time>2026-07-07T08:39:45.000Z</time>
      </trkpt>
      <trkpt lat="48.16009" lon="16.37819">
        <ele>259.885288</ele>
        <time>2026-07-07T08:39:46.000Z</time>
      </trkpt>
      <trkpt lat="48.16009" lon="16.37811">
        <ele>259.699243</ele>
        <time>2026-07-07T08:39:47.000Z</time>
      </trkpt>
      <trkpt lat="48.16009" lon="16.37802">
        <ele>259.512757</ele>
        <time>2026-07-07T08:39:48.000Z</time>
      </trkpt>
      <trkpt lat="48.1601" lon="16.37793">
        <ele>259.324439</ele>
        <time>2026-07-07T08:39:49.000Z</time>
      </trkpt>
      <trkpt lat="48.16012" lon="16.37785">
        <ele>259.136975</ele>
        <time>2026-07-07T08:39:50.000Z</time>
      </trkpt>
      <trkpt lat="48.16014" lon="16.37776">
        <ele>258.860748</ele>
        <time>2026-07-07T08:39:51.000Z</time>
      </trkpt>
      <trkpt lat="48.16015" lon="16.37768">
        <ele>258.582111</ele>
        <time>2026-07-07T08:39:52.000Z</time>
      </trkpt>
      <trkpt lat="48.16016" lon="16.37759">
        <ele>258.314645</ele>
        <time>2026-07-07T08:39:53.000Z</time>
      </trkpt>
      <trkpt lat="48.16017" lon="16.37751">
        <ele>258.058621</ele>
        <time>2026-07-07T08:39:54.000Z</time>
      </trkpt>
      <trkpt lat="48.16017" lon="16.37743">
        <ele>257.79427</ele>
        <time>2026-07-07T08:39:55.000Z</time>
      </trkpt>
      <trkpt lat="48.16015" lon="16.37735">
        <ele>257.548334</ele>
        <time>2026-07-07T08:39:56.000Z</time>
      </trkpt>
      <trkpt lat="48.16013" lon="16.37728">
        <ele>257.314343</ele>
        <time>2026-07-07T08:39:57.000Z</time>
      </trkpt>
      <trkpt lat="48.16011" lon="16.37722">
        <ele>257.097424</ele>
        <time>2026-07-07T08:39:58.000Z</time>
      </trkpt>
      <trkpt lat="48.16008" lon="16.37718">
        <ele>256.887795</ele>
        <time>2026-07-07T08:39:59.000Z</time>
      </trkpt>
      <trkpt lat="48.16004" lon="16.37715">
        <ele>256.677617</ele>
        <time>2026-07-07T08:40:00.000Z</time>
      </trkpt>
      <trkpt lat="48.15999" lon="16.37713">
        <ele>256.449663</ele>
        <time>2026-07-07T08:40:01.000Z</time>
      </trkpt>
      <trkpt lat="48.15994" lon="16.37712">
        <ele>256.198642</ele>
        <time>2026-07-07T08:40:02.000Z</time>
      </trkpt>
      <trkpt lat="48.15988" lon="16.37711">
        <ele>255.938293</ele>
        <time>2026-07-07T08:40:03.000Z</time>
      </trkpt>
      <trkpt lat="48.15983" lon="16.3771">
        <ele>255.669543</ele>
        <time>2026-07-07T08:40:04.000Z</time>
      </trkpt>
      <trkpt lat="48.15977" lon="16.3771">
        <ele>255.420487</ele>
        <time>2026-07-07T08:40:05.000Z</time>
      </trkpt>
      <trkpt lat="48.15973" lon="16.37711">
        <ele>255.213343</ele>
        <time>2026-07-07T08:40:06.000Z</time>
      </trkpt>
      <trkpt lat="48.1597" lon="16.3771">
        <ele>255.057481</ele>
        <time>2026-07-07T08:40:07.000Z</time>
      </trkpt>
      <trkpt lat="48.15968" lon="16.37708">
        <ele>254.944506</ele>
        <time>2026-07-07T08:40:08.000Z</time>
      </trkpt>
      <trkpt lat="48.15967" lon="16.37705">
        <ele>254.843232</ele>
        <time>2026-07-07T08:40:09.000Z</time>
      </trkpt>
      <trkpt lat="48.15967" lon="16.37702">
        <ele>254.734096</ele>
        <time>2026-07-07T08:40:10.000Z</time>
      </trkpt>
      <trkpt lat="48.15969" lon="16.37699">
        <ele>254.614049</ele>
        <time>2026-07-07T08:40:11.000Z</time>
      </trkpt>
      <trkpt lat="48.15971" lon="16.37696">
        <ele>254.480548</ele>
        <time>2026-07-07T08:40:12.000Z</time>
      </trkpt>
      <trkpt lat="48.15974" lon="16.37694">
        <ele>254.334799</ele>
        <time>2026-07-07T08:40:13.000Z</time>
      </trkpt>
      <trkpt lat="48.15978" lon="16.37692">
        <ele>254.144085</ele>
        <time>2026-07-07T08:40:14.000Z</time>
      </trkpt>
      <trkpt lat="48.15981" lon="16.37689">
        <ele>253.959399</ele>
        <time>2026-07-07T08:40:15.000Z</time>
      </trkpt>
      <trkpt lat="48.15983" lon="16.37684">
        <ele>253.783483</ele>
        <time>2026-07-07T08:40:16.000Z</time>
      </trkpt>
      <trkpt lat="48.15984" lon="16.37678">
        <ele>253.613845</ele>
        <time>2026-07-07T08:40:17.000Z</time>
      </trkpt>
      <trkpt lat="48.15984" lon="16.37673">
        <ele>253.440867</ele>
        <time>2026-07-07T08:40:18.000Z</time>
      </trkpt>
      <trkpt lat="48.15984" lon="16.37667">
        <ele>253.252263</ele>
        <time>2026-07-07T08:40:19.000Z</time>
      </trkpt>
      <trkpt lat="48.15983" lon="16.3766">
        <ele>253.047163</ele>
        <time>2026-07-07T08:40:20.000Z</time>
      </trkpt>
      <trkpt lat="48.15983" lon="16.37653">
        <ele>252.82416</ele>
        <time>2026-07-07T08:40:21.000Z</time>
      </trkpt>
      <trkpt lat="48.15983" lon="16.37646">
        <ele>252.598028</ele>
        <time>2026-07-07T08:40:22.000Z</time>
      </trkpt>
      <trkpt lat="48.15984" lon="16.37639">
        <ele>252.361762</ele>
        <time>2026-07-07T08:40:23.000Z</time>
      </trkpt>
      <trkpt lat="48.15984" lon="16.37631">
        <ele>252.124376</ele>
        <time>2026-07-07T08:40:24.000Z</time>
      </trkpt>
      <trkpt lat="48.15985" lon="16.37624">
        <ele>251.887596</ele>
        <time>2026-07-07T08:40:25.000Z</time>
      </trkpt>
      <trkpt lat="48.15985" lon="16.37616">
        <ele>251.65175</ele>
        <time>2026-07-07T08:40:26.000Z</time>
      </trkpt>
      <trkpt lat="48.15985" lon="16.37608">
        <ele>251.410386</ele>
        <time>2026-07-07T08:40:27.000Z</time>
      </trkpt>
      <trkpt lat="48.15985" lon="16.37601">
        <ele>251.175102</ele>
        <time>2026-07-07T08:40:28.000Z</time>
      </trkpt>
      <trkpt lat="48.15985" lon="16.37593">
        <ele>250.929477</ele>
        <time>2026-07-07T08:40:29.000Z</time>
      </trkpt>
      <trkpt lat="48.15984" lon="16.37585">
        <ele>250.676444</ele>
        <time>2026-07-07T08:40:30.000Z</time>
      </trkpt>
      <trkpt lat="48.15983" lon="16.37577">
        <ele>250.494599</ele>
        <time>2026-07-07T08:40:31.000Z</time>
      </trkpt>
      <trkpt lat="48.15982" lon="16.37569">
        <ele>250.314097</ele>
        <time>2026-07-07T08:40:32.000Z</time>
      </trkpt>
      <trkpt lat="48.1598" lon="16.37561">
        <ele>250.127922</ele>
        <time>2026-07-07T08:40:33.000Z</time>
      </trkpt>
      <trkpt lat="48.15979" lon="16.37553">
        <ele>249.947419</ele>
        <time>2026-07-07T08:40:34.000Z</time>
      </trkpt>
      <trkpt lat="48.15978" lon="16.37545">
        <ele>249.770616</ele>
        <time>2026-07-07T08:40:35.000Z</time>
      </trkpt>
      <trkpt lat="48.15977" lon="16.37538">
        <ele>249.5979</ele>
        <time>2026-07-07T08:40:36.000Z</time>
      </trkpt>
      <trkpt lat="48.15976" lon="16.3753">
        <ele>249.434802</ele>
        <time>2026-07-07T08:40:37.000Z</time>
      </trkpt>
      <trkpt lat="48.15975" lon="16.37524">
        <ele>249.288219</ele>
        <time>2026-07-07T08:40:38.000Z</time>
      </trkpt>
      <trkpt lat="48.15974" lon="16.37518">
        <ele>249.155366</ele>
        <time>2026-07-07T08:40:39.000Z</time>
      </trkpt>
      <trkpt lat="48.15973" lon="16.37513">
        <ele>249.043761</ele>
        <time>2026-07-07T08:40:40.000Z</time>
      </trkpt>
      <trkpt lat="48.15971" lon="16.37509">
        <ele>248.941997</ele>
        <time>2026-07-07T08:40:41.000Z</time>
      </trkpt>
      <trkpt lat="48.15969" lon="16.37507">
        <ele>248.851019</ele>
        <time>2026-07-07T08:40:42.000Z</time>
      </trkpt>
      <trkpt lat="48.15967" lon="16.37505">
        <ele>248.753864</ele>
        <time>2026-07-07T08:40:43.000Z</time>
      </trkpt>
      <trkpt lat="48.15963" lon="16.37504">
        <ele>248.629879</ele>
        <time>2026-07-07T08:40:44.000Z</time>
      </trkpt>
      <trkpt lat="48.15959" lon="16.37504">
        <ele>248.489807</ele>
        <time>2026-07-07T08:40:45.000Z</time>
      </trkpt>
      <trkpt lat="48.15954" lon="16.37506">
        <ele>248.334577</ele>
        <time>2026-07-07T08:40:46.000Z</time>
      </trkpt>
      <trkpt lat="48.15949" lon="16.37506">
        <ele>248.150866</ele>
        <time>2026-07-07T08:40:47.000Z</time>
      </trkpt>
      <trkpt lat="48.15943" lon="16.37507">
        <ele>247.954102</ele>
        <time>2026-07-07T08:40:48.000Z</time>
      </trkpt>
      <trkpt lat="48.15936" lon="16.37508">
        <ele>247.73772</ele>
        <time>2026-07-07T08:40:49.000Z</time>
      </trkpt>
      <trkpt lat="48.1593" lon="16.37508">
        <ele>247.51155</ele>
        <time>2026-07-07T08:40:50.000Z</time>
      </trkpt>
      <trkpt lat="48.15922" lon="16.37508">
        <ele>247.252147</ele>
        <time>2026-07-07T08:40:51.000Z</time>
      </trkpt>
      <trkpt lat="48.15914" lon="16.37506">
        <ele>246.978234</ele>
        <time>2026-07-07T08:40:52.000Z</time>
      </trkpt>
      <trkpt lat="48.15905" lon="16.37504">
        <ele>246.698752</ele>
        <time>2026-07-07T08:40:53.000Z</time>
      </trkpt>
      <trkpt lat="48.15897" lon="16.37502">
        <ele>246.411595</ele>
        <time>2026-07-07T08:40:54.000Z</time>
      </trkpt>
      <trkpt lat="48.15888" lon="16.37499">
        <ele>246.116223</ele>
        <time>2026-07-07T08:40:55.000Z</time>
      </trkpt>
      <trkpt lat="48.15879" lon="16.37496">
        <ele>245.81569</ele>
        <time>2026-07-07T08:40:56.000Z</time>
      </trkpt>
      <trkpt lat="48.1587" lon="16.37493">
        <ele>245.507122</ele>
        <time>2026-07-07T08:40:57.000Z</time>
      </trkpt>
      <trkpt lat="48.15861" lon="16.3749">
        <ele>245.187138</ele>
        <time>2026-07-07T08:40:58.000Z</time>
      </trkpt>
      <trkpt lat="48.15851" lon="16.37487">
        <ele>244.863427</ele>
        <time>2026-07-07T08:40:59.000Z</time>
      </trkpt>
      <trkpt lat="48.15842" lon="16.37483">
        <ele>244.409996</ele>
        <time>2026-07-07T08:41:00.000Z</time>
      </trkpt>
      <trkpt lat="48.15832" lon="16.3748">
        <ele>243.812242</ele>
        <time>2026-07-07T08:41:01.000Z</time>
      </trkpt>
      <trkpt lat="48.15823" lon="16.37475">
        <ele>243.202246</ele>
        <time>2026-07-07T08:41:02.000Z</time>
      </trkpt>
      <trkpt lat="48.15813" lon="16.3747">
        <ele>242.58497</ele>
        <time>2026-07-07T08:41:03.000Z</time>
      </trkpt>
      <trkpt lat="48.15803" lon="16.37465">
        <ele>241.9567</ele>
        <time>2026-07-07T08:41:04.000Z</time>
      </trkpt>
      <trkpt lat="48.15793" lon="16.3746">
        <ele>241.318401</ele>
        <time>2026-07-07T08:41:05.000Z</time>
      </trkpt>
      <trkpt lat="48.15783" lon="16.37455">
        <ele>240.671241</ele>
        <time>2026-07-07T08:41:06.000Z</time>
      </trkpt>
      <trkpt lat="48.15773" lon="16.3745">
        <ele>240.038033</ele>
        <time>2026-07-07T08:41:07.000Z</time>
      </trkpt>
      <trkpt lat="48.15763" lon="16.37445">
        <ele>239.399079</ele>
        <time>2026-07-07T08:41:08.000Z</time>
      </trkpt>
      <trkpt lat="48.15753" lon="16.3744">
        <ele>238.770361</ele>
        <time>2026-07-07T08:41:09.000Z</time>
      </trkpt>
      <trkpt lat="48.15744" lon="16.37436">
        <ele>238.216959</ele>
        <time>2026-07-07T08:41:10.000Z</time>
      </trkpt>
      <trkpt lat="48.15737" lon="16.3743">
        <ele>237.744036</ele>
        <time>2026-07-07T08:41:11.000Z</time>
      </trkpt>
      <trkpt lat="48.15731" lon="16.37426">
        <ele>237.335785</ele>
        <time>2026-07-07T08:41:12.000Z</time>
      </trkpt>
      <trkpt lat="48.15726" lon="16.37422">
        <ele>236.985618</ele>
        <time>2026-07-07T08:41:13.000Z</time>
      </trkpt>
      <trkpt lat="48.15721" lon="16.37421">
        <ele>236.703329</ele>
        <time>2026-07-07T08:41:14.000Z</time>
      </trkpt>
      <trkpt lat="48.15718" lon="16.3742">
        <ele>236.48588</ele>
        <time>2026-07-07T08:41:15.000Z</time>
      </trkpt>
      <trkpt lat="48.15716" lon="16.37418">
        <ele>236.326399</ele>
        <time>2026-07-07T08:41:16.000Z</time>
      </trkpt>
      <trkpt lat="48.15716" lon="16.37415">
        <ele>236.212315</ele>
        <time>2026-07-07T08:41:17.000Z</time>
      </trkpt>
      <trkpt lat="48.15717" lon="16.37411">
        <ele>236.069171</ele>
        <time>2026-07-07T08:41:18.000Z</time>
      </trkpt>
      <trkpt lat="48.15716" lon="16.37407">
        <ele>235.907243</ele>
        <time>2026-07-07T08:41:19.000Z</time>
      </trkpt>
      <trkpt lat="48.15715" lon="16.37402">
        <ele>235.697254</ele>
        <time>2026-07-07T08:41:20.000Z</time>
      </trkpt>
      <trkpt lat="48.15713" lon="16.37397">
        <ele>235.448088</ele>
        <time>2026-07-07T08:41:21.000Z</time>
      </trkpt>
      <trkpt lat="48.15711" lon="16.37392">
        <ele>235.200437</ele>
        <time>2026-07-07T08:41:22.000Z</time>
      </trkpt>
      <trkpt lat="48.15708" lon="16.37387">
        <ele>234.94694</ele>
        <time>2026-07-07T08:41:23.000Z</time>
      </trkpt>
      <trkpt lat="48.15705" lon="16.37384">
        <ele>234.725496</ele>
        <time>2026-07-07T08:41:24.000Z</time>
      </trkpt>
      <trkpt lat="48.15701" lon="16.37383">
        <ele>234.469041</ele>
        <time>2026-07-07T08:41:25.000Z</time>
      </trkpt>
      <trkpt lat="48.15696" lon="16.37383">
        <ele>234.16125</ele>
        <time>2026-07-07T08:41:26.000Z</time>
      </trkpt>
      <trkpt lat="48.1569" lon="16.37384">
        <ele>233.820337</ele>
        <time>2026-07-07T08:41:27.000Z</time>
      </trkpt>
      <trkpt lat="48.15684" lon="16.37384">
        <ele>233.598883</ele>
        <time>2026-07-07T08:41:28.000Z</time>
      </trkpt>
      <trkpt lat="48.15677" lon="16.37385">
        <ele>233.373239</ele>
        <time>2026-07-07T08:41:29.000Z</time>
      </trkpt>
      <trkpt lat="48.15671" lon="16.37386">
        <ele>233.140509</ele>
        <time>2026-07-07T08:41:30.000Z</time>
      </trkpt>
      <trkpt lat="48.15664" lon="16.37387">
        <ele>232.90778</ele>
        <time>2026-07-07T08:41:31.000Z</time>
      </trkpt>
      <trkpt lat="48.15658" lon="16.37388">
        <ele>232.667963</ele>
        <time>2026-07-07T08:41:32.000Z</time>
      </trkpt>
      <trkpt lat="48.15651" lon="16.37389">
        <ele>232.42502</ele>
        <time>2026-07-07T08:41:33.000Z</time>
      </trkpt>
      <trkpt lat="48.15644" lon="16.3739">
        <ele>232.174974</ele>
        <time>2026-07-07T08:41:34.000Z</time>
      </trkpt>
      <trkpt lat="48.15637" lon="16.37391">
        <ele>231.925098</ele>
        <time>2026-07-07T08:41:35.000Z</time>
      </trkpt>
      <trkpt lat="48.1563" lon="16.37391">
        <ele>231.668113</ele>
        <time>2026-07-07T08:41:36.000Z</time>
      </trkpt>
      <trkpt lat="48.15623" lon="16.37392">
        <ele>231.418384</ele>
        <time>2026-07-07T08:41:37.000Z</time>
      </trkpt>
      <trkpt lat="48.15615" lon="16.37392">
        <ele>231.161762</ele>
        <time>2026-07-07T08:41:38.000Z</time>
      </trkpt>
      <trkpt lat="48.15608" lon="16.37393">
        <ele>230.908778</ele>
        <time>2026-07-07T08:41:39.000Z</time>
      </trkpt>
      <trkpt lat="48.15601" lon="16.37393">
        <ele>230.652233</ele>
        <time>2026-07-07T08:41:40.000Z</time>
      </trkpt>
      <trkpt lat="48.15594" lon="16.37393">
        <ele>230.392052</ele>
        <time>2026-07-07T08:41:41.000Z</time>
      </trkpt>
      <trkpt lat="48.15587" lon="16.37393">
        <ele>230.135606</ele>
        <time>2026-07-07T08:41:42.000Z</time>
      </trkpt>
      <trkpt lat="48.15579" lon="16.37393">
        <ele>229.879161</ele>
        <time>2026-07-07T08:41:43.000Z</time>
      </trkpt>
      <trkpt lat="48.15572" lon="16.37394">
        <ele>229.626177</ele>
        <time>2026-07-07T08:41:44.000Z</time>
      </trkpt>
      <trkpt lat="48.15565" lon="16.37394">
        <ele>229.369632</ele>
        <time>2026-07-07T08:41:45.000Z</time>
      </trkpt>
      <trkpt lat="48.15558" lon="16.37394">
        <ele>229.120264</ele>
        <time>2026-07-07T08:41:46.000Z</time>
      </trkpt>
      <trkpt lat="48.15551" lon="16.37394">
        <ele>228.878019</ele>
        <time>2026-07-07T08:41:47.000Z</time>
      </trkpt>
      <trkpt lat="48.15545" lon="16.37394">
        <ele>228.63937</ele>
        <time>2026-07-07T08:41:48.000Z</time>
      </trkpt>
      <trkpt lat="48.15538" lon="16.37395">
        <ele>228.407552</ele>
        <time>2026-07-07T08:41:49.000Z</time>
      </trkpt>
      <trkpt lat="48.15532" lon="16.37396">
        <ele>228.175442</ele>
        <time>2026-07-07T08:41:50.000Z</time>
      </trkpt>
      <trkpt lat="48.15525" lon="16.37396">
        <ele>227.943819</ele>
        <time>2026-07-07T08:41:51.000Z</time>
      </trkpt>
      <trkpt lat="48.15519" lon="16.37396">
        <ele>227.712257</ele>
        <time>2026-07-07T08:41:52.000Z</time>
      </trkpt>
      <trkpt lat="48.15512" lon="16.37396">
        <ele>227.491314</ele>
        <time>2026-07-07T08:41:53.000Z</time>
      </trkpt>
      <trkpt lat="48.15506" lon="16.37397">
        <ele>227.341427</ele>
        <time>2026-07-07T08:41:54.000Z</time>
      </trkpt>
      <trkpt lat="48.155" lon="16.37398">
        <ele>227.21374</ele>
        <time>2026-07-07T08:41:55.000Z</time>
      </trkpt>
      <trkpt lat="48.15495" lon="16.37398">
        <ele>227.088323</ele>
        <time>2026-07-07T08:41:56.000Z</time>
      </trkpt>
      <trkpt lat="48.15489" lon="16.37399">
        <ele>226.962783</ele>
        <time>2026-07-07T08:41:57.000Z</time>
      </trkpt>
      <trkpt lat="48.15483" lon="16.374">
        <ele>226.835217</ele>
        <time>2026-07-07T08:41:58.000Z</time>
      </trkpt>
      <trkpt lat="48.15477" lon="16.374">
        <ele>226.710197</ele>
        <time>2026-07-07T08:41:59.000Z</time>
      </trkpt>
      <trkpt lat="48.15471" lon="16.374">
        <ele>226.585152</ele>
        <time>2026-07-07T08:42:00.000Z</time>
      </trkpt>
      <trkpt lat="48.15466" lon="16.374">
        <ele>226.462219</ele>
        <time>2026-07-07T08:42:01.000Z</time>
      </trkpt>
      <trkpt lat="48.1546" lon="16.374">
        <ele>226.339362</ele>
        <time>2026-07-07T08:42:02.000Z</time>
      </trkpt>
      <trkpt lat="48.15454" lon="16.374">
        <ele>226.218652</ele>
        <time>2026-07-07T08:42:03.000Z</time>
      </trkpt>
      <trkpt lat="48.15448" lon="16.374">
        <ele>226.084825</ele>
        <time>2026-07-07T08:42:04.000Z</time>
      </trkpt>
      <trkpt lat="48.15442" lon="16.37399">
        <ele>225.950998</ele>
        <time>2026-07-07T08:42:05.000Z</time>
      </trkpt>
      <trkpt lat="48.15435" lon="16.37399">
        <ele>225.808561</ele>
        <time>2026-07-07T08:42:06.000Z</time>
      </trkpt>
      <trkpt lat="48.15429" lon="16.37399">
        <ele>225.668461</ele>
        <time>2026-07-07T08:42:07.000Z</time>
      </trkpt>
      <trkpt lat="48.15422" lon="16.37399">
        <ele>225.51974</ele>
        <time>2026-07-07T08:42:08.000Z</time>
      </trkpt>
      <trkpt lat="48.15415" lon="16.37399">
        <ele>225.377477</ele>
        <time>2026-07-07T08:42:09.000Z</time>
      </trkpt>
      <trkpt lat="48.15408" lon="16.374">
        <ele>225.228416</ele>
        <time>2026-07-07T08:42:10.000Z</time>
      </trkpt>
      <trkpt lat="48.15402" lon="16.37401">
        <ele>225.084535</ele>
        <time>2026-07-07T08:42:11.000Z</time>
      </trkpt>
      <trkpt lat="48.15395" lon="16.37403">
        <ele>224.933578</ele>
        <time>2026-07-07T08:42:12.000Z</time>
      </trkpt>
      <trkpt lat="48.15388" lon="16.37405">
        <ele>224.788723</ele>
        <time>2026-07-07T08:42:13.000Z</time>
      </trkpt>
      <trkpt lat="48.15382" lon="16.37407">
        <ele>224.646252</ele>
        <time>2026-07-07T08:42:14.000Z</time>
      </trkpt>
      <trkpt lat="48.15376" lon="16.37408">
        <ele>224.510401</ele>
        <time>2026-07-07T08:42:15.000Z</time>
      </trkpt>
      <trkpt lat="48.1537" lon="16.3741">
        <ele>224.383542</ele>
        <time>2026-07-07T08:42:16.000Z</time>
      </trkpt>
      <trkpt lat="48.15364" lon="16.37411">
        <ele>224.264127</ele>
        <time>2026-07-07T08:42:17.000Z</time>
      </trkpt>
      <trkpt lat="48.15359" lon="16.37412">
        <ele>224.146851</ele>
        <time>2026-07-07T08:42:18.000Z</time>
      </trkpt>
      <trkpt lat="48.15353" lon="16.37413">
        <ele>224.027748</ele>
        <time>2026-07-07T08:42:19.000Z</time>
      </trkpt>
      <trkpt lat="48.15348" lon="16.37413">
        <ele>223.908645</ele>
        <time>2026-07-07T08:42:20.000Z</time>
      </trkpt>
      <trkpt lat="48.15342" lon="16.37414">
        <ele>223.787252</ele>
        <time>2026-07-07T08:42:21.000Z</time>
      </trkpt>
      <trkpt lat="48.15336" lon="16.37415">
        <ele>223.657857</ele>
        <time>2026-07-07T08:42:22.000Z</time>
      </trkpt>
      <trkpt lat="48.1533" lon="16.37414">
        <ele>223.586888</ele>
        <time>2026-07-07T08:42:23.000Z</time>
      </trkpt>
      <trkpt lat="48.15324" lon="16.37413">
        <ele>223.649488</ele>
        <time>2026-07-07T08:42:24.000Z</time>
      </trkpt>
      <trkpt lat="48.15318" lon="16.37413">
        <ele>223.708131</ele>
        <time>2026-07-07T08:42:25.000Z</time>
      </trkpt>
      <trkpt lat="48.15312" lon="16.37411">
        <ele>223.769076</ele>
        <time>2026-07-07T08:42:26.000Z</time>
      </trkpt>
      <trkpt lat="48.15306" lon="16.3741">
        <ele>223.830113</ele>
        <time>2026-07-07T08:42:27.000Z</time>
      </trkpt>
      <trkpt lat="48.153" lon="16.37409">
        <ele>223.891357</ele>
        <time>2026-07-07T08:42:28.000Z</time>
      </trkpt>
      <trkpt lat="48.15294" lon="16.37407">
        <ele>223.951398</ele>
        <time>2026-07-07T08:42:29.000Z</time>
      </trkpt>
      <trkpt lat="48.15289" lon="16.37406">
        <ele>224.0109</ele>
        <time>2026-07-07T08:42:30.000Z</time>
      </trkpt>
      <trkpt lat="48.15283" lon="16.37404">
        <ele>224.069414</ele>
        <time>2026-07-07T08:42:31.000Z</time>
      </trkpt>
      <trkpt lat="48.15277" lon="16.37402">
        <ele>224.127875</ele>
        <time>2026-07-07T08:42:32.000Z</time>
      </trkpt>
      <trkpt lat="48.15272" lon="16.37399">
        <ele>224.187307</ele>
        <time>2026-07-07T08:42:33.000Z</time>
      </trkpt>
      <trkpt lat="48.15266" lon="16.37397">
        <ele>224.246248</ele>
        <time>2026-07-07T08:42:34.000Z</time>
      </trkpt>
      <trkpt lat="48.1526" lon="16.37395">
        <ele>224.303561</ele>
        <time>2026-07-07T08:42:35.000Z</time>
      </trkpt>
      <trkpt lat="48.15255" lon="16.37393">
        <ele>224.359114</ele>
        <time>2026-07-07T08:42:36.000Z</time>
      </trkpt>
      <trkpt lat="48.1525" lon="16.3739">
        <ele>224.413895</ele>
        <time>2026-07-07T08:42:37.000Z</time>
      </trkpt>
      <trkpt lat="48.15245" lon="16.37388">
        <ele>224.464055</ele>
        <time>2026-07-07T08:42:38.000Z</time>
      </trkpt>
      <trkpt lat="48.1524" lon="16.37387">
        <ele>224.512896</ele>
        <time>2026-07-07T08:42:39.000Z</time>
      </trkpt>
      <trkpt lat="48.15236" lon="16.37385">
        <ele>224.559789</ele>
        <time>2026-07-07T08:42:40.000Z</time>
      </trkpt>
      <trkpt lat="48.15232" lon="16.37383">
        <ele>224.602619</ele>
        <time>2026-07-07T08:42:41.000Z</time>
      </trkpt>
      <trkpt lat="48.15228" lon="16.37381">
        <ele>224.64448</ele>
        <time>2026-07-07T08:42:42.000Z</time>
      </trkpt>
      <trkpt lat="48.15224" lon="16.3738">
        <ele>224.685018</ele>
        <time>2026-07-07T08:42:43.000Z</time>
      </trkpt>
      <trkpt lat="48.1522" lon="16.37378">
        <ele>224.722824</ele>
        <time>2026-07-07T08:42:44.000Z</time>
      </trkpt>
      <trkpt lat="48.15217" lon="16.37377">
        <ele>224.759296</ele>
        <time>2026-07-07T08:42:45.000Z</time>
      </trkpt>
      <trkpt lat="48.15213" lon="16.37375">
        <ele>224.79498</ele>
        <time>2026-07-07T08:42:46.000Z</time>
      </trkpt>
      <trkpt lat="48.1521" lon="16.37374">
        <ele>224.82739</ele>
        <time>2026-07-07T08:42:47.000Z</time>
      </trkpt>
      <trkpt lat="48.15207" lon="16.37373">
        <ele>224.860601</ele>
        <time>2026-07-07T08:42:48.000Z</time>
      </trkpt>
      <trkpt lat="48.15204" lon="16.37372">
        <ele>224.892043</ele>
        <time>2026-07-07T08:42:49.000Z</time>
      </trkpt>
      <trkpt lat="48.15201" lon="16.3737">
        <ele>224.925424</ele>
        <time>2026-07-07T08:42:50.000Z</time>
      </trkpt>
      <trkpt lat="48.15198" lon="16.37369">
        <ele>224.95766</ele>
        <time>2026-07-07T08:42:51.000Z</time>
      </trkpt>
      <trkpt lat="48.15195" lon="16.37368">
        <ele>224.990871</ele>
        <time>2026-07-07T08:42:52.000Z</time>
      </trkpt>
      <trkpt lat="48.15191" lon="16.37367">
        <ele>225.023782</ele>
        <time>2026-07-07T08:42:53.000Z</time>
      </trkpt>
      <trkpt lat="48.15188" lon="16.37366">
        <ele>225.055708</ele>
        <time>2026-07-07T08:42:54.000Z</time>
      </trkpt>
      <trkpt lat="48.15185" lon="16.37365">
        <ele>225.085669</ele>
        <time>2026-07-07T08:42:55.000Z</time>
      </trkpt>
      <trkpt lat="48.15183" lon="16.37364">
        <ele>225.114649</ele>
        <time>2026-07-07T08:42:56.000Z</time>
      </trkpt>
      <trkpt lat="48.1518" lon="16.37363">
        <ele>225.142651</ele>
        <time>2026-07-07T08:42:57.000Z</time>
      </trkpt>
      <trkpt lat="48.15177" lon="16.37362">
        <ele>225.168884</ele>
        <time>2026-07-07T08:42:58.000Z</time>
      </trkpt>
      <trkpt lat="48.15175" lon="16.37361">
        <ele>225.191069</ele>
        <time>2026-07-07T08:42:59.000Z</time>
      </trkpt>
      <trkpt lat="48.15173" lon="16.37361">
        <ele>225.21125</ele>
        <time>2026-07-07T08:43:00.000Z</time>
      </trkpt>
      <trkpt lat="48.15172" lon="16.37362">
        <ele>225.229405</ele>
        <time>2026-07-07T08:43:01.000Z</time>
      </trkpt>
      <trkpt lat="48.15171" lon="16.37365">
        <ele>225.248487</ele>
        <time>2026-07-07T08:43:02.000Z</time>
      </trkpt>
      <trkpt lat="48.1517" lon="16.37368">
        <ele>225.269524</ele>
        <time>2026-07-07T08:43:03.000Z</time>
      </trkpt>
      <trkpt lat="48.1517" lon="16.37372">
        <ele>225.297302</ele>
        <time>2026-07-07T08:43:04.000Z</time>
      </trkpt>
      <trkpt lat="48.15169" lon="16.37376">
        <ele>225.32965</ele>
        <time>2026-07-07T08:43:05.000Z</time>
      </trkpt>
      <trkpt lat="48.15168" lon="16.37381">
        <ele>225.364436</ele>
        <time>2026-07-07T08:43:06.000Z</time>
      </trkpt>
      <trkpt lat="48.15167" lon="16.37387">
        <ele>225.331487</ele>
        <time>2026-07-07T08:43:07.000Z</time>
      </trkpt>
      <trkpt lat="48.15167" lon="16.37393">
        <ele>225.249481</ele>
        <time>2026-07-07T08:43:08.000Z</time>
      </trkpt>
      <trkpt lat="48.15166" lon="16.37399">
        <ele>225.16498</ele>
        <time>2026-07-07T08:43:09.000Z</time>
      </trkpt>
      <trkpt lat="48.15165" lon="16.37405">
        <ele>225.077536</ele>
        <time>2026-07-07T08:43:10.000Z</time>
      </trkpt>
      <trkpt lat="48.15164" lon="16.37411">
        <ele>224.989008</ele>
        <time>2026-07-07T08:43:11.000Z</time>
      </trkpt>
      <trkpt lat="48.15163" lon="16.37418">
        <ele>224.89735</ele>
        <time>2026-07-07T08:43:12.000Z</time>
      </trkpt>
      <trkpt lat="48.15163" lon="16.37425">
        <ele>224.801119</ele>
        <time>2026-07-07T08:43:13.000Z</time>
      </trkpt>
      <trkpt lat="48.15162" lon="16.37432">
        <ele>224.702179</ele>
        <time>2026-07-07T08:43:14.000Z</time>
      </trkpt>
      <trkpt lat="48.15161" lon="16.37439">
        <ele>224.597087</ele>
        <time>2026-07-07T08:43:15.000Z</time>
      </trkpt>
      <trkpt lat="48.1516" lon="16.37447">
        <ele>224.497109</ele>
        <time>2026-07-07T08:43:16.000Z</time>
      </trkpt>
      <trkpt lat="48.15159" lon="16.37454">
        <ele>224.393051</ele>
        <time>2026-07-07T08:43:17.000Z</time>
      </trkpt>
      <trkpt lat="48.15159" lon="16.37461">
        <ele>224.292756</ele>
        <time>2026-07-07T08:43:18.000Z</time>
      </trkpt>
      <trkpt lat="48.15158" lon="16.37467">
        <ele>224.215561</ele>
        <time>2026-07-07T08:43:19.000Z</time>
      </trkpt>
      <trkpt lat="48.15158" lon="16.37471">
        <ele>224.156939</ele>
        <time>2026-07-07T08:43:20.000Z</time>
      </trkpt>
      <trkpt lat="48.15156" lon="16.37473">
        <ele>224.114158</ele>
        <time>2026-07-07T08:43:21.000Z</time>
      </trkpt>
      <trkpt lat="48.15154" lon="16.37474">
        <ele>224.07056</ele>
        <time>2026-07-07T08:43:22.000Z</time>
      </trkpt>
      <trkpt lat="48.15152" lon="16.37473">
        <ele>224.014126</ele>
        <time>2026-07-07T08:43:23.000Z</time>
      </trkpt>
      <trkpt lat="48.15149" lon="16.37473">
        <ele>223.958365</ele>
        <time>2026-07-07T08:43:24.000Z</time>
      </trkpt>
      <trkpt lat="48.15146" lon="16.37475">
        <ele>223.901244</ele>
        <time>2026-07-07T08:43:25.000Z</time>
      </trkpt>
      <trkpt lat="48.15145" lon="16.37479">
        <ele>223.83457</ele>
        <time>2026-07-07T08:43:26.000Z</time>
      </trkpt>
      <trkpt lat="48.15144" lon="16.37484">
        <ele>223.756988</ele>
        <time>2026-07-07T08:43:27.000Z</time>
      </trkpt>
      <trkpt lat="48.15142" lon="16.3749">
        <ele>223.676101</ele>
        <time>2026-07-07T08:43:28.000Z</time>
      </trkpt>
      <trkpt lat="48.15141" lon="16.37495">
        <ele>223.598034</ele>
        <time>2026-07-07T08:43:29.000Z</time>
      </trkpt>
      <trkpt lat="48.15138" lon="16.37498">
        <ele>223.533931</ele>
        <time>2026-07-07T08:43:30.000Z</time>
      </trkpt>
      <trkpt lat="48.15136" lon="16.37499">
        <ele>223.489624</ele>
        <time>2026-07-07T08:43:31.000Z</time>
      </trkpt>
      <trkpt lat="48.15133" lon="16.37497">
        <ele>223.42444</ele>
        <time>2026-07-07T08:43:32.000Z</time>
      </trkpt>
      <trkpt lat="48.1513" lon="16.37493">
        <ele>223.341745</ele>
        <time>2026-07-07T08:43:33.000Z</time>
      </trkpt>
      <trkpt lat="48.15127" lon="16.37487">
        <ele>223.239628</ele>
        <time>2026-07-07T08:43:34.000Z</time>
      </trkpt>
      <trkpt lat="48.15123" lon="16.37479">
        <ele>223.100321</ele>
        <time>2026-07-07T08:43:35.000Z</time>
      </trkpt>
      <trkpt lat="48.15118" lon="16.37473">
        <ele>222.967091</ele>
        <time>2026-07-07T08:43:36.000Z</time>
      </trkpt>
      <trkpt lat="48.15113" lon="16.37467">
        <ele>222.830919</ele>
        <time>2026-07-07T08:43:37.000Z</time>
      </trkpt>
      <trkpt lat="48.15107" lon="16.37463">
        <ele>222.692118</ele>
        <time>2026-07-07T08:43:38.000Z</time>
      </trkpt>
      <trkpt lat="48.15101" lon="16.37459">
        <ele>222.560625</ele>
        <time>2026-07-07T08:43:39.000Z</time>
      </trkpt>
      <trkpt lat="48.15095" lon="16.37455">
        <ele>222.428515</ele>
        <time>2026-07-07T08:43:40.000Z</time>
      </trkpt>
      <trkpt lat="48.15089" lon="16.37452">
        <ele>222.302667</ele>
        <time>2026-07-07T08:43:41.000Z</time>
      </trkpt>
      <trkpt lat="48.15084" lon="16.37449">
        <ele>222.183035</ele>
        <time>2026-07-07T08:43:42.000Z</time>
      </trkpt>
      <trkpt lat="48.15078" lon="16.37447">
        <ele>222.070563</ele>
        <time>2026-07-07T08:43:43.000Z</time>
      </trkpt>
      <trkpt lat="48.15074" lon="16.37444">
        <ele>221.97345</ele>
        <time>2026-07-07T08:43:44.000Z</time>
      </trkpt>
      <trkpt lat="48.1507" lon="16.37441">
        <ele>221.886149</ele>
        <time>2026-07-07T08:43:45.000Z</time>
      </trkpt>
      <trkpt lat="48.15066" lon="16.37439">
        <ele>221.798395</ele>
        <time>2026-07-07T08:43:46.000Z</time>
      </trkpt>
      <trkpt lat="48.15062" lon="16.37437">
        <ele>221.705668</ele>
        <time>2026-07-07T08:43:47.000Z</time>
      </trkpt>
      <trkpt lat="48.15058" lon="16.37434">
        <ele>221.656255</ele>
        <time>2026-07-07T08:43:48.000Z</time>
      </trkpt>
      <trkpt lat="48.15053" lon="16.37432">
        <ele>221.626158</ele>
        <time>2026-07-07T08:43:49.000Z</time>
      </trkpt>
      <trkpt lat="48.15048" lon="16.37429">
        <ele>221.595491</ele>
        <time>2026-07-07T08:43:50.000Z</time>
      </trkpt>
      <trkpt lat="48.15043" lon="16.37427">
        <ele>221.563985</ele>
        <time>2026-07-07T08:43:51.000Z</time>
      </trkpt>
      <trkpt lat="48.15038" lon="16.37424">
        <ele>221.531911</ele>
        <time>2026-07-07T08:43:52.000Z</time>
      </trkpt>
      <trkpt lat="48.15033" lon="16.37422">
        <ele>221.500097</ele>
        <time>2026-07-07T08:43:53.000Z</time>
      </trkpt>
      <trkpt lat="48.15028" lon="16.3742">
        <ele>221.468866</ele>
        <time>2026-07-07T08:43:54.000Z</time>
      </trkpt>
      <trkpt lat="48.15023" lon="16.37418">
        <ele>221.437529</ele>
        <time>2026-07-07T08:43:55.000Z</time>
      </trkpt>
      <trkpt lat="48.15018" lon="16.37415">
        <ele>221.405456</ele>
        <time>2026-07-07T08:43:56.000Z</time>
      </trkpt>
      <trkpt lat="48.15013" lon="16.37413">
        <ele>221.373892</ele>
        <time>2026-07-07T08:43:57.000Z</time>
      </trkpt>
      <trkpt lat="48.15008" lon="16.3741">
        <ele>221.34068</ele>
        <time>2026-07-07T08:43:58.000Z</time>
      </trkpt>
      <trkpt lat="48.15003" lon="16.37407">
        <ele>221.308468</ele>
        <time>2026-07-07T08:43:59.000Z</time>
      </trkpt>
      <trkpt lat="48.14998" lon="16.37404">
        <ele>221.274418</ele>
        <time>2026-07-07T08:44:00.000Z</time>
      </trkpt>
      <trkpt lat="48.14993" lon="16.37401">
        <ele>221.240792</ele>
        <time>2026-07-07T08:44:01.000Z</time>
      </trkpt>
      <trkpt lat="48.14987" lon="16.37398">
        <ele>221.206457</ele>
        <time>2026-07-07T08:44:02.000Z</time>
      </trkpt>
      <trkpt lat="48.14982" lon="16.37395">
        <ele>221.171414</ele>
        <time>2026-07-07T08:44:03.000Z</time>
      </trkpt>
      <trkpt lat="48.14977" lon="16.37392">
        <ele>221.13835</ele>
        <time>2026-07-07T08:44:04.000Z</time>
      </trkpt>
      <trkpt lat="48.14972" lon="16.37389">
        <ele>221.104271</ele>
        <time>2026-07-07T08:44:05.000Z</time>
      </trkpt>
      <trkpt lat="48.14966" lon="16.37385">
        <ele>221.069479</ele>
        <time>2026-07-07T08:44:06.000Z</time>
      </trkpt>
      <trkpt lat="48.14961" lon="16.37382">
        <ele>221.034724</ele>
        <time>2026-07-07T08:44:07.000Z</time>
      </trkpt>
      <trkpt lat="48.14955" lon="16.3738">
        <ele>220.999669</ele>
        <time>2026-07-07T08:44:08.000Z</time>
      </trkpt>
      <trkpt lat="48.1495" lon="16.37377">
        <ele>220.965755</ele>
        <time>2026-07-07T08:44:09.000Z</time>
      </trkpt>
      <trkpt lat="48.14945" lon="16.37374">
        <ele>220.931565</ele>
        <time>2026-07-07T08:44:10.000Z</time>
      </trkpt>
      <trkpt lat="48.14939" lon="16.37371">
        <ele>220.896378</ele>
        <time>2026-07-07T08:44:11.000Z</time>
      </trkpt>
      <trkpt lat="48.14934" lon="16.37368">
        <ele>220.861895</ele>
        <time>2026-07-07T08:44:12.000Z</time>
      </trkpt>
      <trkpt lat="48.14929" lon="16.37365">
        <ele>220.827981</ele>
        <time>2026-07-07T08:44:13.000Z</time>
      </trkpt>
      <trkpt lat="48.14923" lon="16.37362">
        <ele>220.79393</ele>
        <time>2026-07-07T08:44:14.000Z</time>
      </trkpt>
      <trkpt lat="48.14918" lon="16.3736">
        <ele>220.761718</ele>
        <time>2026-07-07T08:44:15.000Z</time>
      </trkpt>
      <trkpt lat="48.14914" lon="16.37356">
        <ele>220.731122</ele>
        <time>2026-07-07T08:44:16.000Z</time>
      </trkpt>
      <trkpt lat="48.1491" lon="16.37351">
        <ele>220.702376</ele>
        <time>2026-07-07T08:44:17.000Z</time>
      </trkpt>
      <trkpt lat="48.14908" lon="16.37345">
        <ele>220.672751</ele>
        <time>2026-07-07T08:44:18.000Z</time>
      </trkpt>
      <trkpt lat="48.14906" lon="16.37338">
        <ele>220.643668</ele>
        <time>2026-07-07T08:44:19.000Z</time>
      </trkpt>
      <trkpt lat="48.14904" lon="16.37332">
        <ele>220.616188</ele>
        <time>2026-07-07T08:44:20.000Z</time>
      </trkpt>
      <trkpt lat="48.14901" lon="16.37328">
        <ele>220.591073</ele>
        <time>2026-07-07T08:44:21.000Z</time>
      </trkpt>
      <trkpt lat="48.14897" lon="16.37327">
        <ele>220.704256</ele>
        <time>2026-07-07T08:44:22.000Z</time>
      </trkpt>
      <trkpt lat="48.14893" lon="16.37328">
        <ele>220.830891</ele>
        <time>2026-07-07T08:44:23.000Z</time>
      </trkpt>
      <trkpt lat="48.1489" lon="16.37331">
        <ele>220.946015</ele>
        <time>2026-07-07T08:44:24.000Z</time>
      </trkpt>
      <trkpt lat="48.14887" lon="16.37335">
        <ele>221.069944</ele>
        <time>2026-07-07T08:44:25.000Z</time>
      </trkpt>
      <trkpt lat="48.14884" lon="16.37339">
        <ele>221.190983</ele>
        <time>2026-07-07T08:44:26.000Z</time>
      </trkpt>
      <trkpt lat="48.14882" lon="16.37343">
        <ele>221.312022</ele>
        <time>2026-07-07T08:44:27.000Z</time>
      </trkpt>
      <trkpt lat="48.1488" lon="16.37348">
        <ele>221.423404</ele>
        <time>2026-07-07T08:44:28.000Z</time>
      </trkpt>
      <trkpt lat="48.14878" lon="16.37352">
        <ele>221.53815</ele>
        <time>2026-07-07T08:44:29.000Z</time>
      </trkpt>
      <trkpt lat="48.14876" lon="16.37357">
        <ele>221.651607</ele>
        <time>2026-07-07T08:44:30.000Z</time>
      </trkpt>
      <trkpt lat="48.14875" lon="16.37362">
        <ele>221.764091</ele>
        <time>2026-07-07T08:44:31.000Z</time>
      </trkpt>
      <trkpt lat="48.14873" lon="16.37366">
        <ele>221.870845</ele>
        <time>2026-07-07T08:44:32.000Z</time>
      </trkpt>
      <trkpt lat="48.14872" lon="16.37371">
        <ele>221.974911</ele>
        <time>2026-07-07T08:44:33.000Z</time>
      </trkpt>
      <trkpt lat="48.14871" lon="16.37375">
        <ele>222.077754</ele>
        <time>2026-07-07T08:44:34.000Z</time>
      </trkpt>
      <trkpt lat="48.1487" lon="16.3738">
        <ele>222.17841</ele>
        <time>2026-07-07T08:44:35.000Z</time>
      </trkpt>
      <trkpt lat="48.14869" lon="16.37384">
        <ele>222.273047</ele>
        <time>2026-07-07T08:44:36.000Z</time>
      </trkpt>
      <trkpt lat="48.14868" lon="16.37388">
        <ele>222.369686</ele>
        <time>2026-07-07T08:44:37.000Z</time>
      </trkpt>
      <trkpt lat="48.14866" lon="16.37393">
        <ele>222.472529</ele>
        <time>2026-07-07T08:44:38.000Z</time>
      </trkpt>
      <trkpt lat="48.14865" lon="16.37397">
        <ele>222.568282</ele>
        <time>2026-07-07T08:44:39.000Z</time>
      </trkpt>
      <trkpt lat="48.14864" lon="16.37401">
        <ele>222.664921</ele>
        <time>2026-07-07T08:44:40.000Z</time>
      </trkpt>
      <trkpt lat="48.14863" lon="16.37406">
        <ele>222.764617</ele>
        <time>2026-07-07T08:44:41.000Z</time>
      </trkpt>
      <trkpt lat="48.14863" lon="16.3741">
        <ele>222.859353</ele>
        <time>2026-07-07T08:44:42.000Z</time>
      </trkpt>
      <trkpt lat="48.14862" lon="16.37414">
        <ele>222.95399</ele>
        <time>2026-07-07T08:44:43.000Z</time>
      </trkpt>
      <trkpt lat="48.14861" lon="16.37419">
        <ele>223.056927</ele>
        <time>2026-07-07T08:44:44.000Z</time>
      </trkpt>
      <trkpt lat="48.1486" lon="16.37423">
        <ele>223.159599</ele>
        <time>2026-07-07T08:44:45.000Z</time>
      </trkpt>
      <trkpt lat="48.14859" lon="16.37428">
        <ele>223.266396</ele>
        <time>2026-07-07T08:44:46.000Z</time>
      </trkpt>
      <trkpt lat="48.14858" lon="16.37433">
        <ele>223.367052</ele>
        <time>2026-07-07T08:44:47.000Z</time>
      </trkpt>
      <trkpt lat="48.14857" lon="16.37437">
        <ele>223.457703</ele>
        <time>2026-07-07T08:44:48.000Z</time>
      </trkpt>
      <trkpt lat="48.14855" lon="16.3744">
        <ele>223.545009</ele>
        <time>2026-07-07T08:44:49.000Z</time>
      </trkpt>
      <trkpt lat="48.14855" lon="16.37444">
        <ele>223.625534</ele>
        <time>2026-07-07T08:44:50.000Z</time>
      </trkpt>
      <trkpt lat="48.14854" lon="16.37447">
        <ele>223.706335</ele>
        <time>2026-07-07T08:44:51.000Z</time>
      </trkpt>
      <trkpt lat="48.14852" lon="16.3745">
        <ele>223.780565</ele>
        <time>2026-07-07T08:44:52.000Z</time>
      </trkpt>
      <trkpt lat="48.14851" lon="16.37453">
        <ele>223.862072</ele>
        <time>2026-07-07T08:44:53.000Z</time>
      </trkpt>
      <trkpt lat="48.14849" lon="16.37456">
        <ele>223.946193</ele>
        <time>2026-07-07T08:44:54.000Z</time>
      </trkpt>
      <trkpt lat="48.14846" lon="16.37456">
        <ele>224.043114</ele>
        <time>2026-07-07T08:44:55.000Z</time>
      </trkpt>
      <trkpt lat="48.14843" lon="16.37456">
        <ele>224.139124</ele>
        <time>2026-07-07T08:44:56.000Z</time>
      </trkpt>
      <trkpt lat="48.1484" lon="16.37455">
        <ele>224.23736</ele>
        <time>2026-07-07T08:44:57.000Z</time>
      </trkpt>
      <trkpt lat="48.14837" lon="16.37453">
        <ele>224.331246</ele>
        <time>2026-07-07T08:44:58.000Z</time>
      </trkpt>
      <trkpt lat="48.14834" lon="16.37452">
        <ele>224.439961</ele>
        <time>2026-07-07T08:44:59.000Z</time>
      </trkpt>
      <trkpt lat="48.14831" lon="16.3745">
        <ele>224.541976</ele>
        <time>2026-07-07T08:45:00.000Z</time>
      </trkpt>
      <trkpt lat="48.14828" lon="16.37448">
        <ele>224.636554</ele>
        <time>2026-07-07T08:45:01.000Z</time>
      </trkpt>
      <trkpt lat="48.14825" lon="16.37447">
        <ele>224.728144</ele>
        <time>2026-07-07T08:45:02.000Z</time>
      </trkpt>
      <trkpt lat="48.14822" lon="16.37445">
        <ele>224.822723</ele>
        <time>2026-07-07T08:45:03.000Z</time>
      </trkpt>
      <trkpt lat="48.1482" lon="16.37444">
        <ele>224.912925</ele>
        <time>2026-07-07T08:45:04.000Z</time>
      </trkpt>
      <trkpt lat="48.14817" lon="16.37443">
        <ele>225.004515</ele>
        <time>2026-07-07T08:45:05.000Z</time>
      </trkpt>
      <trkpt lat="48.14814" lon="16.37441">
        <ele>225.105107</ele>
        <time>2026-07-07T08:45:06.000Z</time>
      </trkpt>
      <trkpt lat="48.14811" lon="16.37439">
        <ele>225.210102</ele>
        <time>2026-07-07T08:45:07.000Z</time>
      </trkpt>
      <trkpt lat="48.14807" lon="16.37438">
        <ele>225.326491</ele>
        <time>2026-07-07T08:45:08.000Z</time>
      </trkpt>
      <trkpt lat="48.14804" lon="16.37436">
        <ele>225.451598</ele>
        <time>2026-07-07T08:45:09.000Z</time>
      </trkpt>
      <trkpt lat="48.14799" lon="16.37433">
        <ele>225.599584</ele>
        <time>2026-07-07T08:45:10.000Z</time>
      </trkpt>
      <trkpt lat="48.14795" lon="16.37429">
        <ele>225.757294</ele>
        <time>2026-07-07T08:45:11.000Z</time>
      </trkpt>
      <trkpt lat="48.14791" lon="16.37424">
        <ele>225.912944</ele>
        <time>2026-07-07T08:45:12.000Z</time>
      </trkpt>
      <trkpt lat="48.14788" lon="16.37418">
        <ele>226.07037</ele>
        <time>2026-07-07T08:45:13.000Z</time>
      </trkpt>
      <trkpt lat="48.14786" lon="16.37412">
        <ele>226.231435</ele>
        <time>2026-07-07T08:45:14.000Z</time>
      </trkpt>
      <trkpt lat="48.14784" lon="16.37405">
        <ele>226.278433</ele>
        <time>2026-07-07T08:45:15.000Z</time>
      </trkpt>
      <trkpt lat="48.14782" lon="16.37397">
        <ele>226.216775</ele>
        <time>2026-07-07T08:45:16.000Z</time>
      </trkpt>
      <trkpt lat="48.1478" lon="16.37389">
        <ele>226.152326</ele>
        <time>2026-07-07T08:45:17.000Z</time>
      </trkpt>
      <trkpt lat="48.14778" lon="16.3738">
        <ele>226.084356</ele>
        <time>2026-07-07T08:45:18.000Z</time>
      </trkpt>
      <trkpt lat="48.14776" lon="16.37371">
        <ele>226.016709</ele>
        <time>2026-07-07T08:45:19.000Z</time>
      </trkpt>
      <trkpt lat="48.14774" lon="16.37363">
        <ele>225.951584</ele>
        <time>2026-07-07T08:45:20.000Z</time>
      </trkpt>
      <trkpt lat="48.14772" lon="16.37355">
        <ele>225.888218</ele>
        <time>2026-07-07T08:45:21.000Z</time>
      </trkpt>
      <trkpt lat="48.1477" lon="16.37347">
        <ele>225.823069</ele>
        <time>2026-07-07T08:45:22.000Z</time>
      </trkpt>
      <trkpt lat="48.14768" lon="16.37339">
        <ele>225.759434</ele>
        <time>2026-07-07T08:45:23.000Z</time>
      </trkpt>
      <trkpt lat="48.14766" lon="16.37332">
        <ele>225.696872</ele>
        <time>2026-07-07T08:45:24.000Z</time>
      </trkpt>
      <trkpt lat="48.14763" lon="16.37325">
        <ele>225.637245</ele>
        <time>2026-07-07T08:45:25.000Z</time>
      </trkpt>
      <trkpt lat="48.1476" lon="16.37318">
        <ele>225.578879</ele>
        <time>2026-07-07T08:45:26.000Z</time>
      </trkpt>
      <trkpt lat="48.14756" lon="16.37313">
        <ele>225.52293</ele>
        <time>2026-07-07T08:45:27.000Z</time>
      </trkpt>
      <trkpt lat="48.14753" lon="16.37308">
        <ele>225.471499</ele>
        <time>2026-07-07T08:45:28.000Z</time>
      </trkpt>
      <trkpt lat="48.14749" lon="16.37305">
        <ele>225.423346</ele>
        <time>2026-07-07T08:45:29.000Z</time>
      </trkpt>
      <trkpt lat="48.14745" lon="16.37303">
        <ele>225.377231</ele>
        <time>2026-07-07T08:45:30.000Z</time>
      </trkpt>
      <trkpt lat="48.14741" lon="16.37303">
        <ele>225.331377</ele>
        <time>2026-07-07T08:45:31.000Z</time>
      </trkpt>
      <trkpt lat="48.14737" lon="16.37305">
        <ele>225.283089</ele>
        <time>2026-07-07T08:45:32.000Z</time>
      </trkpt>
      <trkpt lat="48.14733" lon="16.37308">
        <ele>225.231054</ele>
        <time>2026-07-07T08:45:33.000Z</time>
      </trkpt>
      <trkpt lat="48.14729" lon="16.37311">
        <ele>225.179252</ele>
        <time>2026-07-07T08:45:34.000Z</time>
      </trkpt>
      <trkpt lat="48.14725" lon="16.37315">
        <ele>225.12745</ele>
        <time>2026-07-07T08:45:35.000Z</time>
      </trkpt>
      <trkpt lat="48.14721" lon="16.37318">
        <ele>225.077173</ele>
        <time>2026-07-07T08:45:36.000Z</time>
      </trkpt>
      <trkpt lat="48.14717" lon="16.37322">
        <ele>225.025371</ele>
        <time>2026-07-07T08:45:37.000Z</time>
      </trkpt>
      <trkpt lat="48.14713" lon="16.37325">
        <ele>224.975488</ele>
        <time>2026-07-07T08:45:38.000Z</time>
      </trkpt>
      <trkpt lat="48.1471" lon="16.37329">
        <ele>224.928496</ele>
        <time>2026-07-07T08:45:39.000Z</time>
      </trkpt>
      <trkpt lat="48.14706" lon="16.37332">
        <ele>224.884121</ele>
        <time>2026-07-07T08:45:40.000Z</time>
      </trkpt>
      <trkpt lat="48.14702" lon="16.37332">
        <ele>224.83477</ele>
        <time>2026-07-07T08:45:41.000Z</time>
      </trkpt>
      <trkpt lat="48.14697" lon="16.3733">
        <ele>224.782276</ele>
        <time>2026-07-07T08:45:42.000Z</time>
      </trkpt>
      <trkpt lat="48.14693" lon="16.37326">
        <ele>224.726734</ele>
        <time>2026-07-07T08:45:43.000Z</time>
      </trkpt>
      <trkpt lat="48.14689" lon="16.37321">
        <ele>224.668481</ele>
        <time>2026-07-07T08:45:44.000Z</time>
      </trkpt>
      <trkpt lat="48.14685" lon="16.37316">
        <ele>224.608482</ele>
        <time>2026-07-07T08:45:45.000Z</time>
      </trkpt>
      <trkpt lat="48.1468" lon="16.37312">
        <ele>224.544378</ele>
        <time>2026-07-07T08:45:46.000Z</time>
      </trkpt>
      <trkpt lat="48.14674" lon="16.37309">
        <ele>224.477551</ele>
        <time>2026-07-07T08:45:47.000Z</time>
      </trkpt>
      <trkpt lat="48.14668" lon="16.37306">
        <ele>224.406824</ele>
        <time>2026-07-07T08:45:48.000Z</time>
      </trkpt>
      <trkpt lat="48.14662" lon="16.37305">
        <ele>224.331266</ele>
        <time>2026-07-07T08:45:49.000Z</time>
      </trkpt>
      <trkpt lat="48.14655" lon="16.37305">
        <ele>224.090685</ele>
        <time>2026-07-07T08:45:50.000Z</time>
      </trkpt>
      <trkpt lat="48.14648" lon="16.37306">
        <ele>223.719298</ele>
        <time>2026-07-07T08:45:51.000Z</time>
      </trkpt>
      <trkpt lat="48.14641" lon="16.37308">
        <ele>223.362642</ele>
        <time>2026-07-07T08:45:52.000Z</time>
      </trkpt>
      <trkpt lat="48.14635" lon="16.37311">
        <ele>223.000663</ele>
        <time>2026-07-07T08:45:53.000Z</time>
      </trkpt>
      <trkpt lat="48.14629" lon="16.37314">
        <ele>222.660236</ele>
        <time>2026-07-07T08:45:54.000Z</time>
      </trkpt>
      <trkpt lat="48.14623" lon="16.37315">
        <ele>222.334666</ele>
        <time>2026-07-07T08:45:55.000Z</time>
      </trkpt>
      <trkpt lat="48.14616" lon="16.37315">
        <ele>221.992049</ele>
        <time>2026-07-07T08:45:56.000Z</time>
      </trkpt>
      <trkpt lat="48.1461" lon="16.37313">
        <ele>221.646619</ele>
        <time>2026-07-07T08:45:57.000Z</time>
      </trkpt>
      <trkpt lat="48.14604" lon="16.37309">
        <ele>221.286738</ele>
        <time>2026-07-07T08:45:58.000Z</time>
      </trkpt>
      <trkpt lat="48.14598" lon="16.37304">
        <ele>220.908478</ele>
        <time>2026-07-07T08:45:59.000Z</time>
      </trkpt>
      <trkpt lat="48.14591" lon="16.373">
        <ele>220.503573</ele>
        <time>2026-07-07T08:46:00.000Z</time>
      </trkpt>
      <trkpt lat="48.14583" lon="16.37296">
        <ele>220.093354</ele>
        <time>2026-07-07T08:46:01.000Z</time>
      </trkpt>
      <trkpt lat="48.14576" lon="16.37294">
        <ele>219.671673</ele>
        <time>2026-07-07T08:46:02.000Z</time>
      </trkpt>
      <trkpt lat="48.14568" lon="16.37292">
        <ele>219.254003</ele>
        <time>2026-07-07T08:46:03.000Z</time>
      </trkpt>
      <trkpt lat="48.14561" lon="16.37291">
        <ele>218.887103</ele>
        <time>2026-07-07T08:46:04.000Z</time>
      </trkpt>
      <trkpt lat="48.14555" lon="16.37289">
        <ele>218.549757</ele>
        <time>2026-07-07T08:46:05.000Z</time>
      </trkpt>
      <trkpt lat="48.1455" lon="16.37287">
        <ele>218.257235</ele>
        <time>2026-07-07T08:46:06.000Z</time>
      </trkpt>
      <trkpt lat="48.14544" lon="16.37284">
        <ele>217.959011</ele>
        <time>2026-07-07T08:46:07.000Z</time>
      </trkpt>
      <trkpt lat="48.1454" lon="16.37281">
        <ele>217.693935</ele>
        <time>2026-07-07T08:46:08.000Z</time>
      </trkpt>
      <trkpt lat="48.14536" lon="16.37279">
        <ele>217.478373</ele>
        <time>2026-07-07T08:46:09.000Z</time>
      </trkpt>
      <trkpt lat="48.14533" lon="16.37277">
        <ele>217.310203</ele>
        <time>2026-07-07T08:46:10.000Z</time>
      </trkpt>
      <trkpt lat="48.14531" lon="16.37276">
        <ele>217.171713</ele>
        <time>2026-07-07T08:46:11.000Z</time>
      </trkpt>
      <trkpt lat="48.14529" lon="16.37276">
        <ele>217.060922</ele>
        <time>2026-07-07T08:46:12.000Z</time>
      </trkpt>
      <trkpt lat="48.14527" lon="16.37275">
        <ele>216.966562</ele>
        <time>2026-07-07T08:46:13.000Z</time>
      </trkpt>
      <trkpt lat="48.14526" lon="16.37275">
        <ele>216.923596</ele>
        <time>2026-07-07T08:46:14.000Z</time>
      </trkpt>
      <trkpt lat="48.14526" lon="16.37275">
        <ele>216.912891</ele>
        <time>2026-07-07T08:46:15.000Z</time>
      </trkpt>
      <trkpt lat="48.14522" lon="16.37272">
        <ele>216.690773</ele>
        <time>2026-07-07T08:46:19.000Z</time>
      </trkpt>
      <trkpt lat="48.14519" lon="16.3727">
        <ele>216.524761</ele>
        <time>2026-07-07T08:46:20.000Z</time>
      </trkpt>
      <trkpt lat="48.14516" lon="16.37267">
        <ele>216.315378</ele>
        <time>2026-07-07T08:46:21.000Z</time>
      </trkpt>
      <trkpt lat="48.14513" lon="16.37263">
        <ele>216.100083</ele>
        <time>2026-07-07T08:46:22.000Z</time>
      </trkpt>
      <trkpt lat="48.14512" lon="16.37256">
        <ele>215.866502</ele>
        <time>2026-07-07T08:46:23.000Z</time>
      </trkpt>
      <trkpt lat="48.14513" lon="16.3725">
        <ele>215.622186</ele>
        <time>2026-07-07T08:46:24.000Z</time>
      </trkpt>
      <trkpt lat="48.14513" lon="16.37242">
        <ele>215.364167</ele>
        <time>2026-07-07T08:46:25.000Z</time>
      </trkpt>
      <trkpt lat="48.14512" lon="16.37235">
        <ele>215.10958</ele>
        <time>2026-07-07T08:46:26.000Z</time>
      </trkpt>
      <trkpt lat="48.14509" lon="16.3723">
        <ele>214.855884</ele>
        <time>2026-07-07T08:46:27.000Z</time>
      </trkpt>
      <trkpt lat="48.14505" lon="16.37227">
        <ele>214.644908</ele>
        <time>2026-07-07T08:46:28.000Z</time>
      </trkpt>
      <trkpt lat="48.145" lon="16.37224">
        <ele>214.554348</ele>
        <time>2026-07-07T08:46:29.000Z</time>
      </trkpt>
      <trkpt lat="48.14495" lon="16.37222">
        <ele>214.464487</ele>
        <time>2026-07-07T08:46:30.000Z</time>
      </trkpt>
      <trkpt lat="48.1449" lon="16.37219">
        <ele>214.369361</ele>
        <time>2026-07-07T08:46:31.000Z</time>
      </trkpt>
      <trkpt lat="48.14484" lon="16.37217">
        <ele>214.274561</ele>
        <time>2026-07-07T08:46:32.000Z</time>
      </trkpt>
      <trkpt lat="48.14479" lon="16.37215">
        <ele>214.177457</ele>
        <time>2026-07-07T08:46:33.000Z</time>
      </trkpt>
      <trkpt lat="48.14473" lon="16.37212">
        <ele>214.078711</ele>
        <time>2026-07-07T08:46:34.000Z</time>
      </trkpt>
      <trkpt lat="48.14468" lon="16.3721">
        <ele>213.975021</ele>
        <time>2026-07-07T08:46:35.000Z</time>
      </trkpt>
      <trkpt lat="48.14462" lon="16.37207">
        <ele>213.871331</ele>
        <time>2026-07-07T08:46:36.000Z</time>
      </trkpt>
      <trkpt lat="48.14456" lon="16.37205">
        <ele>213.76102</ele>
        <time>2026-07-07T08:46:37.000Z</time>
      </trkpt>
      <trkpt lat="48.14449" lon="16.37202">
        <ele>213.650709</ele>
        <time>2026-07-07T08:46:38.000Z</time>
      </trkpt>
      <trkpt lat="48.14443" lon="16.37199">
        <ele>213.534822</ele>
        <time>2026-07-07T08:46:39.000Z</time>
      </trkpt>
      <trkpt lat="48.14436" lon="16.37197">
        <ele>213.419236</ele>
        <time>2026-07-07T08:46:40.000Z</time>
      </trkpt>
      <trkpt lat="48.1443" lon="16.37194">
        <ele>213.301067</ele>
        <time>2026-07-07T08:46:41.000Z</time>
      </trkpt>
      <trkpt lat="48.14423" lon="16.37191">
        <ele>213.181562</ele>
        <time>2026-07-07T08:46:42.000Z</time>
      </trkpt>
      <trkpt lat="48.14416" lon="16.37188">
        <ele>213.061421</ele>
        <time>2026-07-07T08:46:43.000Z</time>
      </trkpt>
      <trkpt lat="48.1441" lon="16.37185">
        <ele>212.938965</ele>
        <time>2026-07-07T08:46:44.000Z</time>
      </trkpt>
      <trkpt lat="48.14403" lon="16.37182">
        <ele>212.818491</ele>
        <time>2026-07-07T08:46:45.000Z</time>
      </trkpt>
      <trkpt lat="48.14396" lon="16.37179">
        <ele>212.699995</ele>
        <time>2026-07-07T08:46:46.000Z</time>
      </trkpt>
      <trkpt lat="48.1439" lon="16.37176">
        <ele>212.580177</ele>
        <time>2026-07-07T08:46:47.000Z</time>
      </trkpt>
      <trkpt lat="48.14383" lon="16.37173">
        <ele>212.463978</ele>
        <time>2026-07-07T08:46:48.000Z</time>
      </trkpt>
      <trkpt lat="48.14377" lon="16.37171">
        <ele>212.352007</ele>
        <time>2026-07-07T08:46:49.000Z</time>
      </trkpt>
      <trkpt lat="48.1437" lon="16.37168">
        <ele>212.237259</ele>
        <time>2026-07-07T08:46:50.000Z</time>
      </trkpt>
      <trkpt lat="48.14364" lon="16.37166">
        <ele>212.128297</ele>
        <time>2026-07-07T08:46:51.000Z</time>
      </trkpt>
      <trkpt lat="48.14359" lon="16.37165">
        <ele>212.032249</ele>
        <time>2026-07-07T08:46:52.000Z</time>
      </trkpt>
      <trkpt lat="48.14354" lon="16.37163">
        <ele>211.946952</ele>
        <time>2026-07-07T08:46:53.000Z</time>
      </trkpt>
      <trkpt lat="48.1435" lon="16.3716">
        <ele>211.872041</ele>
        <time>2026-07-07T08:46:54.000Z</time>
      </trkpt>
      <trkpt lat="48.14347" lon="16.37156">
        <ele>211.80114</ele>
        <time>2026-07-07T08:46:55.000Z</time>
      </trkpt>
      <trkpt lat="48.14346" lon="16.37151">
        <ele>211.73962</ele>
        <time>2026-07-07T08:46:56.000Z</time>
      </trkpt>
      <trkpt lat="48.14346" lon="16.37145">
        <ele>211.675213</ele>
        <time>2026-07-07T08:46:57.000Z</time>
      </trkpt>
      <trkpt lat="48.14347" lon="16.37139">
        <ele>211.604501</ele>
        <time>2026-07-07T08:46:58.000Z</time>
      </trkpt>
      <trkpt lat="48.14349" lon="16.37134">
        <ele>211.581671</ele>
        <time>2026-07-07T08:46:59.000Z</time>
      </trkpt>
      <trkpt lat="48.14352" lon="16.37127">
        <ele>211.581674</ele>
        <time>2026-07-07T08:47:00.000Z</time>
      </trkpt>
      <trkpt lat="48.14355" lon="16.37121">
        <ele>211.581677</ele>
        <time>2026-07-07T08:47:01.000Z</time>
      </trkpt>
      <trkpt lat="48.14359" lon="16.37114">
        <ele>211.581681</ele>
        <time>2026-07-07T08:47:02.000Z</time>
      </trkpt>
      <trkpt lat="48.14362" lon="16.37107">
        <ele>211.581684</ele>
        <time>2026-07-07T08:47:03.000Z</time>
      </trkpt>
      <trkpt lat="48.14366" lon="16.371">
        <ele>211.581688</ele>
        <time>2026-07-07T08:47:04.000Z</time>
      </trkpt>
      <trkpt lat="48.1437" lon="16.37094">
        <ele>211.581691</ele>
        <time>2026-07-07T08:47:05.000Z</time>
      </trkpt>
      <trkpt lat="48.14374" lon="16.37087">
        <ele>211.581695</ele>
        <time>2026-07-07T08:47:06.000Z</time>
      </trkpt>
      <trkpt lat="48.14378" lon="16.37081">
        <ele>211.581698</ele>
        <time>2026-07-07T08:47:07.000Z</time>
      </trkpt>
      <trkpt lat="48.14381" lon="16.37075">
        <ele>211.581701</ele>
        <time>2026-07-07T08:47:08.000Z</time>
      </trkpt>
      <trkpt lat="48.14385" lon="16.37068">
        <ele>211.581705</ele>
        <time>2026-07-07T08:47:09.000Z</time>
      </trkpt>
      <trkpt lat="48.14389" lon="16.37062">
        <ele>211.581708</ele>
        <time>2026-07-07T08:47:10.000Z</time>
      </trkpt>
      <trkpt lat="48.14393" lon="16.37056">
        <ele>211.581712</ele>
        <time>2026-07-07T08:47:11.000Z</time>
      </trkpt>
      <trkpt lat="48.14397" lon="16.37049">
        <ele>211.581715</ele>
        <time>2026-07-07T08:47:12.000Z</time>
      </trkpt>
      <trkpt lat="48.14401" lon="16.37043">
        <ele>211.581719</ele>
        <time>2026-07-07T08:47:13.000Z</time>
      </trkpt>
      <trkpt lat="48.14405" lon="16.37036">
        <ele>211.581722</ele>
        <time>2026-07-07T08:47:14.000Z</time>
      </trkpt>
      <trkpt lat="48.14408" lon="16.3703">
        <ele>211.581725</ele>
        <time>2026-07-07T08:47:15.000Z</time>
      </trkpt>
      <trkpt lat="48.14412" lon="16.37023">
        <ele>211.581729</ele>
        <time>2026-07-07T08:47:16.000Z</time>
      </trkpt>
      <trkpt lat="48.14416" lon="16.37017">
        <ele>211.581732</ele>
        <time>2026-07-07T08:47:17.000Z</time>
      </trkpt>
      <trkpt lat="48.14419" lon="16.37011">
        <ele>211.581735</ele>
        <time>2026-07-07T08:47:18.000Z</time>
      </trkpt>
      <trkpt lat="48.14423" lon="16.37004">
        <ele>211.581739</ele>
        <time>2026-07-07T08:47:19.000Z</time>
      </trkpt>
      <trkpt lat="48.14427" lon="16.36998">
        <ele>211.581742</ele>
        <time>2026-07-07T08:47:20.000Z</time>
      </trkpt>
      <trkpt lat="48.1443" lon="16.36992">
        <ele>211.581745</ele>
        <time>2026-07-07T08:47:21.000Z</time>
      </trkpt>
      <trkpt lat="48.14434" lon="16.36985">
        <ele>211.581749</ele>
        <time>2026-07-07T08:47:22.000Z</time>
      </trkpt>
      <trkpt lat="48.14437" lon="16.36979">
        <ele>211.581752</ele>
        <time>2026-07-07T08:47:23.000Z</time>
      </trkpt>
      <trkpt lat="48.14441" lon="16.36973">
        <ele>211.581755</ele>
        <time>2026-07-07T08:47:24.000Z</time>
      </trkpt>
      <trkpt lat="48.14445" lon="16.36967">
        <ele>211.581758</ele>
        <time>2026-07-07T08:47:25.000Z</time>
      </trkpt>
      <trkpt lat="48.14449" lon="16.36961">
        <ele>211.581762</ele>
        <time>2026-07-07T08:47:26.000Z</time>
      </trkpt>
      <trkpt lat="48.14452" lon="16.36955">
        <ele>211.581765</ele>
        <time>2026-07-07T08:47:27.000Z</time>
      </trkpt>
      <trkpt lat="48.14456" lon="16.36948">
        <ele>211.581769</ele>
        <time>2026-07-07T08:47:28.000Z</time>
      </trkpt>
      <trkpt lat="48.1446" lon="16.36941">
        <ele>211.581772</ele>
        <time>2026-07-07T08:47:29.000Z</time>
      </trkpt>
      <trkpt lat="48.14464" lon="16.36934">
        <ele>211.581776</ele>
        <time>2026-07-07T08:47:30.000Z</time>
      </trkpt>
      <trkpt lat="48.14467" lon="16.36927">
        <ele>211.569246</ele>
        <time>2026-07-07T08:47:31.000Z</time>
      </trkpt>
      <trkpt lat="48.14471" lon="16.3692">
        <ele>211.553238</ele>
        <time>2026-07-07T08:47:32.000Z</time>
      </trkpt>
      <trkpt lat="48.14474" lon="16.36913">
        <ele>211.537245</ele>
        <time>2026-07-07T08:47:33.000Z</time>
      </trkpt>
      <trkpt lat="48.14478" lon="16.36906">
        <ele>211.521552</ele>
        <time>2026-07-07T08:47:34.000Z</time>
      </trkpt>
      <trkpt lat="48.14481" lon="16.36898">
        <ele>211.505703</ele>
        <time>2026-07-07T08:47:35.000Z</time>
      </trkpt>
      <trkpt lat="48.14485" lon="16.36891">
        <ele>211.490015</ele>
        <time>2026-07-07T08:47:36.000Z</time>
      </trkpt>
      <trkpt lat="48.14488" lon="16.36884">
        <ele>211.474176</ele>
        <time>2026-07-07T08:47:37.000Z</time>
      </trkpt>
      <trkpt lat="48.14491" lon="16.36876">
        <ele>211.458781</ele>
        <time>2026-07-07T08:47:38.000Z</time>
      </trkpt>
      <trkpt lat="48.14494" lon="16.36869">
        <ele>211.443375</ele>
        <time>2026-07-07T08:47:39.000Z</time>
      </trkpt>
      <trkpt lat="48.14497" lon="16.36861">
        <ele>211.427818</ele>
        <time>2026-07-07T08:47:40.000Z</time>
      </trkpt>
      <trkpt lat="48.145" lon="16.36854">
        <ele>211.41226</ele>
        <time>2026-07-07T08:47:41.000Z</time>
      </trkpt>
      <trkpt lat="48.14503" lon="16.36846">
        <ele>211.396837</ele>
        <time>2026-07-07T08:47:42.000Z</time>
      </trkpt>
      <trkpt lat="48.14506" lon="16.36839">
        <ele>211.381547</ele>
        <time>2026-07-07T08:47:43.000Z</time>
      </trkpt>
      <trkpt lat="48.14508" lon="16.36832">
        <ele>211.366566</ele>
        <time>2026-07-07T08:47:44.000Z</time>
      </trkpt>
      <trkpt lat="48.14511" lon="16.36824">
        <ele>211.350932</ele>
        <time>2026-07-07T08:47:45.000Z</time>
      </trkpt>
      <trkpt lat="48.14514" lon="16.36816">
        <ele>211.335697</ele>
        <time>2026-07-07T08:47:46.000Z</time>
      </trkpt>
      <trkpt lat="48.14516" lon="16.36808">
        <ele>211.320095</ele>
        <time>2026-07-07T08:47:47.000Z</time>
      </trkpt>
      <trkpt lat="48.14519" lon="16.36801">
        <ele>211.304776</ele>
        <time>2026-07-07T08:47:48.000Z</time>
      </trkpt>
      <trkpt lat="48.14522" lon="16.36793">
        <ele>211.28922</ele>
        <time>2026-07-07T08:47:49.000Z</time>
      </trkpt>
      <trkpt lat="48.14524" lon="16.36785">
        <ele>211.273722</ele>
        <time>2026-07-07T08:47:50.000Z</time>
      </trkpt>
      <trkpt lat="48.14526" lon="16.36777">
        <ele>211.258327</ele>
        <time>2026-07-07T08:47:51.000Z</time>
      </trkpt>
      <trkpt lat="48.14528" lon="16.36769">
        <ele>211.243588</ele>
        <time>2026-07-07T08:47:52.000Z</time>
      </trkpt>
      <trkpt lat="48.1453" lon="16.36762">
        <ele>211.229218</ele>
        <time>2026-07-07T08:47:53.000Z</time>
      </trkpt>
      <trkpt lat="48.14532" lon="16.36754">
        <ele>211.215379</ele>
        <time>2026-07-07T08:47:54.000Z</time>
      </trkpt>
      <trkpt lat="48.14533" lon="16.36748">
        <ele>211.203057</ele>
        <time>2026-07-07T08:47:55.000Z</time>
      </trkpt>
      <trkpt lat="48.14534" lon="16.36742">
        <ele>211.192171</ele>
        <time>2026-07-07T08:47:56.000Z</time>
      </trkpt>
      <trkpt lat="48.14535" lon="16.36736">
        <ele>211.18186</ele>
        <time>2026-07-07T08:47:57.000Z</time>
      </trkpt>
      <trkpt lat="48.14535" lon="16.36731">
        <ele>211.172864</ele>
        <time>2026-07-07T08:47:58.000Z</time>
      </trkpt>
      <trkpt lat="48.14536" lon="16.36727">
        <ele>211.165099</ele>
        <time>2026-07-07T08:47:59.000Z</time>
      </trkpt>
      <trkpt lat="48.14536" lon="16.36723">
        <ele>211.158731</ele>
        <time>2026-07-07T08:48:00.000Z</time>
      </trkpt>
      <trkpt lat="48.14537" lon="16.36721">
        <ele>211.154004</ele>
        <time>2026-07-07T08:48:01.000Z</time>
      </trkpt>
      <trkpt lat="48.14537" lon="16.3672">
        <ele>211.151803</ele>
        <time>2026-07-07T08:48:02.000Z</time>
      </trkpt>
      <trkpt lat="48.14537" lon="16.3672">
        <ele>211.15127</ele>
        <time>2026-07-07T08:48:03.000Z</time>
      </trkpt>
      <trkpt lat="48.14539" lon="16.36715">
        <ele>211.141724</ele>
        <time>2026-07-07T08:48:17.000Z</time>
      </trkpt>
      <trkpt lat="48.14539" lon="16.36711">
        <ele>211.135406</ele>
        <time>2026-07-07T08:48:18.000Z</time>
      </trkpt>
      <trkpt lat="48.1454" lon="16.36706">
        <ele>211.126474</ele>
        <time>2026-07-07T08:48:19.000Z</time>
      </trkpt>
      <trkpt lat="48.1454" lon="16.367">
        <ele>211.115947</ele>
        <time>2026-07-07T08:48:20.000Z</time>
      </trkpt>
      <trkpt lat="48.14541" lon="16.36694">
        <ele>211.104584</ele>
        <time>2026-07-07T08:48:21.000Z</time>
      </trkpt>
      <trkpt lat="48.14542" lon="16.36687">
        <ele>211.13402</ele>
        <time>2026-07-07T08:48:22.000Z</time>
      </trkpt>
      <trkpt lat="48.14543" lon="16.3668">
        <ele>211.176296</ele>
        <time>2026-07-07T08:48:23.000Z</time>
      </trkpt>
      <trkpt lat="48.14544" lon="16.36671">
        <ele>211.222144</ele>
        <time>2026-07-07T08:48:24.000Z</time>
      </trkpt>
      <trkpt lat="48.14545" lon="16.36663">
        <ele>211.268222</ele>
        <time>2026-07-07T08:48:25.000Z</time>
      </trkpt>
      <trkpt lat="48.14547" lon="16.36655">
        <ele>211.31529</ele>
        <time>2026-07-07T08:48:26.000Z</time>
      </trkpt>
      <trkpt lat="48.14549" lon="16.36647">
        <ele>211.362119</ele>
        <time>2026-07-07T08:48:27.000Z</time>
      </trkpt>
      <trkpt lat="48.14551" lon="16.36639">
        <ele>211.408363</ele>
        <time>2026-07-07T08:48:28.000Z</time>
      </trkpt>
      <trkpt lat="48.14553" lon="16.36631">
        <ele>211.454908</ele>
        <time>2026-07-07T08:48:29.000Z</time>
      </trkpt>
      <trkpt lat="48.14555" lon="16.36623">
        <ele>211.501832</ele>
        <time>2026-07-07T08:48:30.000Z</time>
      </trkpt>
      <trkpt lat="48.14557" lon="16.36616">
        <ele>211.547072</ele>
        <time>2026-07-07T08:48:31.000Z</time>
      </trkpt>
      <trkpt lat="48.14559" lon="16.36608">
        <ele>211.59048</ele>
        <time>2026-07-07T08:48:32.000Z</time>
      </trkpt>
      <trkpt lat="48.14561" lon="16.36601">
        <ele>211.632113</ele>
        <time>2026-07-07T08:48:33.000Z</time>
      </trkpt>
      <trkpt lat="48.14563" lon="16.36594">
        <ele>211.67335</ele>
        <time>2026-07-07T08:48:34.000Z</time>
      </trkpt>
      <trkpt lat="48.14565" lon="16.36588">
        <ele>211.710916</ele>
        <time>2026-07-07T08:48:35.000Z</time>
      </trkpt>
      <trkpt lat="48.14567" lon="16.36582">
        <ele>211.749815</ele>
        <time>2026-07-07T08:48:36.000Z</time>
      </trkpt>
      <trkpt lat="48.14569" lon="16.36575">
        <ele>211.788699</ele>
        <time>2026-07-07T08:48:37.000Z</time>
      </trkpt>
      <trkpt lat="48.14571" lon="16.3657">
        <ele>211.824745</ele>
        <time>2026-07-07T08:48:38.000Z</time>
      </trkpt>
      <trkpt lat="48.14574" lon="16.36564">
        <ele>211.860768</ele>
        <time>2026-07-07T08:48:39.000Z</time>
      </trkpt>
      <trkpt lat="48.14576" lon="16.36559">
        <ele>211.8959</ele>
        <time>2026-07-07T08:48:40.000Z</time>
      </trkpt>
      <trkpt lat="48.14578" lon="16.36554">
        <ele>211.930635</ele>
        <time>2026-07-07T08:48:41.000Z</time>
      </trkpt>
      <trkpt lat="48.14581" lon="16.36548">
        <ele>211.968981</ele>
        <time>2026-07-07T08:48:42.000Z</time>
      </trkpt>
      <trkpt lat="48.14583" lon="16.36541">
        <ele>212.008567</ele>
        <time>2026-07-07T08:48:43.000Z</time>
      </trkpt>
      <trkpt lat="48.14585" lon="16.36534">
        <ele>212.050307</ele>
        <time>2026-07-07T08:48:44.000Z</time>
      </trkpt>
      <trkpt lat="48.14588" lon="16.36527">
        <ele>212.093211</ele>
        <time>2026-07-07T08:48:45.000Z</time>
      </trkpt>
      <trkpt lat="48.1459" lon="16.36521">
        <ele>212.135621</ele>
        <time>2026-07-07T08:48:46.000Z</time>
      </trkpt>
      <trkpt lat="48.14593" lon="16.36514">
        <ele>212.178481</ele>
        <time>2026-07-07T08:48:47.000Z</time>
      </trkpt>
      <trkpt lat="48.14596" lon="16.36508">
        <ele>212.222256</ele>
        <time>2026-07-07T08:48:48.000Z</time>
      </trkpt>
      <trkpt lat="48.14599" lon="16.36501">
        <ele>212.266948</ele>
        <time>2026-07-07T08:48:49.000Z</time>
      </trkpt>
      <trkpt lat="48.14602" lon="16.36494">
        <ele>212.310322</ele>
        <time>2026-07-07T08:48:50.000Z</time>
      </trkpt>
      <trkpt lat="48.14605" lon="16.36487">
        <ele>212.354642</ele>
        <time>2026-07-07T08:48:51.000Z</time>
      </trkpt>
      <trkpt lat="48.14607" lon="16.3648">
        <ele>212.398162</ele>
        <time>2026-07-07T08:48:52.000Z</time>
      </trkpt>
      <trkpt lat="48.14609" lon="16.36473">
        <ele>212.441235</ele>
        <time>2026-07-07T08:48:53.000Z</time>
      </trkpt>
      <trkpt lat="48.14612" lon="16.36466">
        <ele>212.486212</ele>
        <time>2026-07-07T08:48:54.000Z</time>
      </trkpt>
      <trkpt lat="48.14614" lon="16.36458">
        <ele>212.530619</ele>
        <time>2026-07-07T08:48:55.000Z</time>
      </trkpt>
      <trkpt lat="48.14616" lon="16.36451">
        <ele>212.57487</ele>
        <time>2026-07-07T08:48:56.000Z</time>
      </trkpt>
      <trkpt lat="48.14619" lon="16.36444">
        <ele>212.574875</ele>
        <time>2026-07-07T08:48:57.000Z</time>
      </trkpt>
      <trkpt lat="48.14621" lon="16.36436">
        <ele>212.569435</ele>
        <time>2026-07-07T08:48:58.000Z</time>
      </trkpt>
      <trkpt lat="48.14624" lon="16.36429">
        <ele>212.563876</ele>
        <time>2026-07-07T08:48:59.000Z</time>
      </trkpt>
      <trkpt lat="48.14626" lon="16.36421">
        <ele>212.558403</ele>
        <time>2026-07-07T08:49:00.000Z</time>
      </trkpt>
      <trkpt lat="48.14629" lon="16.36414">
        <ele>212.552844</ele>
        <time>2026-07-07T08:49:01.000Z</time>
      </trkpt>
      <trkpt lat="48.14631" lon="16.36406">
        <ele>212.547345</ele>
        <time>2026-07-07T08:49:02.000Z</time>
      </trkpt>
      <trkpt lat="48.14633" lon="16.36399">
        <ele>212.541872</ele>
        <time>2026-07-07T08:49:03.000Z</time>
      </trkpt>
      <trkpt lat="48.14636" lon="16.36391">
        <ele>212.536357</ele>
        <time>2026-07-07T08:49:04.000Z</time>
      </trkpt>
      <trkpt lat="48.14638" lon="16.36384">
        <ele>212.530703</ele>
        <time>2026-07-07T08:49:05.000Z</time>
      </trkpt>
      <trkpt lat="48.14641" lon="16.36376">
        <ele>212.525025</ele>
        <time>2026-07-07T08:49:06.000Z</time>
      </trkpt>
      <trkpt lat="48.14643" lon="16.36368">
        <ele>212.519552</ele>
        <time>2026-07-07T08:49:07.000Z</time>
      </trkpt>
      <trkpt lat="48.14645" lon="16.36361">
        <ele>212.514156</ele>
        <time>2026-07-07T08:49:08.000Z</time>
      </trkpt>
      <trkpt lat="48.14648" lon="16.36354">
        <ele>212.508683</ele>
        <time>2026-07-07T08:49:09.000Z</time>
      </trkpt>
      <trkpt lat="48.1465" lon="16.36346">
        <ele>212.503251</ele>
        <time>2026-07-07T08:49:10.000Z</time>
      </trkpt>
      <trkpt lat="48.14652" lon="16.36338">
        <ele>212.497675</ele>
        <time>2026-07-07T08:49:11.000Z</time>
      </trkpt>
      <trkpt lat="48.14654" lon="16.3633">
        <ele>212.492072</ele>
        <time>2026-07-07T08:49:12.000Z</time>
      </trkpt>
      <trkpt lat="48.14656" lon="16.36323">
        <ele>212.486655</ele>
        <time>2026-07-07T08:49:13.000Z</time>
      </trkpt>
      <trkpt lat="48.14658" lon="16.36315">
        <ele>212.481336</ele>
        <time>2026-07-07T08:49:14.000Z</time>
      </trkpt>
      <trkpt lat="48.1466" lon="16.36308">
        <ele>212.475944</ele>
        <time>2026-07-07T08:49:15.000Z</time>
      </trkpt>
      <trkpt lat="48.14662" lon="16.363">
        <ele>212.470588</ele>
        <time>2026-07-07T08:49:16.000Z</time>
      </trkpt>
      <trkpt lat="48.14664" lon="16.36293">
        <ele>212.465211</ele>
        <time>2026-07-07T08:49:17.000Z</time>
      </trkpt>
      <trkpt lat="48.14665" lon="16.36285">
        <ele>212.459801</ele>
        <time>2026-07-07T08:49:18.000Z</time>
      </trkpt>
      <trkpt lat="48.14667" lon="16.36277">
        <ele>212.45442</ele>
        <time>2026-07-07T08:49:19.000Z</time>
      </trkpt>
      <trkpt lat="48.14669" lon="16.3627">
        <ele>212.449065</ele>
        <time>2026-07-07T08:49:20.000Z</time>
      </trkpt>
      <trkpt lat="48.14671" lon="16.36262">
        <ele>212.443843</ele>
        <time>2026-07-07T08:49:21.000Z</time>
      </trkpt>
      <trkpt lat="48.14673" lon="16.36255">
        <ele>212.438807</ele>
        <time>2026-07-07T08:49:22.000Z</time>
      </trkpt>
      <trkpt lat="48.14675" lon="16.36248">
        <ele>212.433636</ele>
        <time>2026-07-07T08:49:23.000Z</time>
      </trkpt>
      <trkpt lat="48.14677" lon="16.36241">
        <ele>212.428587</ele>
        <time>2026-07-07T08:49:24.000Z</time>
      </trkpt>
      <trkpt lat="48.14679" lon="16.36234">
        <ele>212.423392</ele>
        <time>2026-07-07T08:49:25.000Z</time>
      </trkpt>
      <trkpt lat="48.1468" lon="16.36227">
        <ele>212.41836</ele>
        <time>2026-07-07T08:49:26.000Z</time>
      </trkpt>
      <trkpt lat="48.14682" lon="16.36219">
        <ele>212.413375</ele>
        <time>2026-07-07T08:49:27.000Z</time>
      </trkpt>
      <trkpt lat="48.14682" lon="16.36211">
        <ele>212.408114</ele>
        <time>2026-07-07T08:49:28.000Z</time>
      </trkpt>
      <trkpt lat="48.14683" lon="16.36204">
        <ele>212.403116</ele>
        <time>2026-07-07T08:49:29.000Z</time>
      </trkpt>
      <trkpt lat="48.14683" lon="16.36196">
        <ele>212.419937</ele>
        <time>2026-07-07T08:49:30.000Z</time>
      </trkpt>
      <trkpt lat="48.14683" lon="16.36187">
        <ele>212.453564</ele>
        <time>2026-07-07T08:49:31.000Z</time>
      </trkpt>
      <trkpt lat="48.14684" lon="16.36178">
        <ele>212.488801</ele>
        <time>2026-07-07T08:49:32.000Z</time>
      </trkpt>
      <trkpt lat="48.14686" lon="16.36168">
        <ele>212.526561</ele>
        <time>2026-07-07T08:49:33.000Z</time>
      </trkpt>
      <trkpt lat="48.14688" lon="16.36158">
        <ele>212.565557</ele>
        <time>2026-07-07T08:49:34.000Z</time>
      </trkpt>
      <trkpt lat="48.1469" lon="16.36148">
        <ele>212.604862</ele>
        <time>2026-07-07T08:49:35.000Z</time>
      </trkpt>
      <trkpt lat="48.14692" lon="16.36138">
        <ele>212.643266</ele>
        <time>2026-07-07T08:49:36.000Z</time>
      </trkpt>
      <trkpt lat="48.14694" lon="16.36129">
        <ele>212.680772</ele>
        <time>2026-07-07T08:49:37.000Z</time>
      </trkpt>
      <trkpt lat="48.14696" lon="16.36119">
        <ele>212.718633</ele>
        <time>2026-07-07T08:49:38.000Z</time>
      </trkpt>
      <trkpt lat="48.14699" lon="16.36111">
        <ele>212.753155</ele>
        <time>2026-07-07T08:49:39.000Z</time>
      </trkpt>
      <trkpt lat="48.14701" lon="16.36102">
        <ele>212.791016</ele>
        <time>2026-07-07T08:49:40.000Z</time>
      </trkpt>
      <trkpt lat="48.14704" lon="16.36094">
        <ele>212.824276</ele>
        <time>2026-07-07T08:49:41.000Z</time>
      </trkpt>
      <trkpt lat="48.14706" lon="16.36086">
        <ele>212.856517</ele>
        <time>2026-07-07T08:49:42.000Z</time>
      </trkpt>
      <trkpt lat="48.14709" lon="16.36078">
        <ele>212.888602</ele>
        <time>2026-07-07T08:49:44.000Z</time>
      </trkpt>
      <trkpt lat="48.14711" lon="16.36071">
        <ele>212.920709</ele>
        <time>2026-07-07T08:49:45.000Z</time>
      </trkpt>
      <trkpt lat="48.14714" lon="16.36063">
        <ele>212.951603</ele>
        <time>2026-07-07T08:49:46.000Z</time>
      </trkpt>
      <trkpt lat="48.14716" lon="16.36056">
        <ele>212.98098</ele>
        <time>2026-07-07T08:49:47.000Z</time>
      </trkpt>
      <trkpt lat="48.14718" lon="16.36049">
        <ele>213.010611</ele>
        <time>2026-07-07T08:49:48.000Z</time>
      </trkpt>
      <trkpt lat="48.1472" lon="16.36042">
        <ele>213.039165</ele>
        <time>2026-07-07T08:49:49.000Z</time>
      </trkpt>
      <trkpt lat="48.14723" lon="16.36036">
        <ele>213.066606</ele>
        <time>2026-07-07T08:49:50.000Z</time>
      </trkpt>
      <trkpt lat="48.14725" lon="16.36029">
        <ele>213.09464</ele>
        <time>2026-07-07T08:49:51.000Z</time>
      </trkpt>
      <trkpt lat="48.14727" lon="16.36022">
        <ele>213.124202</ele>
        <time>2026-07-07T08:49:52.000Z</time>
      </trkpt>
      <trkpt lat="48.1473" lon="16.36015">
        <ele>213.154644</ele>
        <time>2026-07-07T08:49:53.000Z</time>
      </trkpt>
      <trkpt lat="48.14733" lon="16.36008">
        <ele>213.185412</ele>
        <time>2026-07-07T08:49:54.000Z</time>
      </trkpt>
      <trkpt lat="48.14735" lon="16.36001">
        <ele>213.2169</ele>
        <time>2026-07-07T08:49:55.000Z</time>
      </trkpt>
      <trkpt lat="48.14738" lon="16.35993">
        <ele>213.248986</ele>
        <time>2026-07-07T08:49:56.000Z</time>
      </trkpt>
      <trkpt lat="48.14741" lon="16.35986">
        <ele>213.28041</ele>
        <time>2026-07-07T08:49:57.000Z</time>
      </trkpt>
      <trkpt lat="48.14743" lon="16.35979">
        <ele>213.310969</ele>
        <time>2026-07-07T08:49:58.000Z</time>
      </trkpt>
      <trkpt lat="48.14746" lon="16.35972">
        <ele>213.341462</ele>
        <time>2026-07-07T08:49:59.000Z</time>
      </trkpt>
      <trkpt lat="48.14748" lon="16.35965">
        <ele>213.372021</ele>
        <time>2026-07-07T08:50:00.000Z</time>
      </trkpt>
      <trkpt lat="48.14751" lon="16.35957">
        <ele>213.40258</ele>
        <time>2026-07-07T08:50:01.000Z</time>
      </trkpt>
      <trkpt lat="48.14753" lon="16.35951">
        <ele>213.421639</ele>
        <time>2026-07-07T08:50:02.000Z</time>
      </trkpt>
      <trkpt lat="48.14756" lon="16.35943">
        <ele>213.432439</ele>
        <time>2026-07-07T08:50:03.000Z</time>
      </trkpt>
      <trkpt lat="48.14758" lon="16.35936">
        <ele>213.442882</ele>
        <time>2026-07-07T08:50:04.000Z</time>
      </trkpt>
      <trkpt lat="48.14759" lon="16.35929">
        <ele>213.453389</ele>
        <time>2026-07-07T08:50:05.000Z</time>
      </trkpt>
      <trkpt lat="48.1476" lon="16.35921">
        <ele>213.46413</ele>
        <time>2026-07-07T08:50:06.000Z</time>
      </trkpt>
      <trkpt lat="48.14761" lon="16.35913">
        <ele>213.47509</ele>
        <time>2026-07-07T08:50:07.000Z</time>
      </trkpt>
      <trkpt lat="48.14763" lon="16.35905">
        <ele>213.486093</ele>
        <time>2026-07-07T08:50:08.000Z</time>
      </trkpt>
      <trkpt lat="48.14764" lon="16.35897">
        <ele>213.497232</ele>
        <time>2026-07-07T08:50:09.000Z</time>
      </trkpt>
      <trkpt lat="48.14766" lon="16.3589">
        <ele>213.507821</ele>
        <time>2026-07-07T08:50:10.000Z</time>
      </trkpt>
      <trkpt lat="48.14769" lon="16.35882">
        <ele>213.518832</ele>
        <time>2026-07-07T08:50:11.000Z</time>
      </trkpt>
      <trkpt lat="48.14771" lon="16.35875">
        <ele>213.529486</ele>
        <time>2026-07-07T08:50:12.000Z</time>
      </trkpt>
      <trkpt lat="48.14774" lon="16.35868">
        <ele>213.540377</ele>
        <time>2026-07-07T08:50:13.000Z</time>
      </trkpt>
      <trkpt lat="48.14776" lon="16.35861">
        <ele>213.551268</ele>
        <time>2026-07-07T08:50:14.000Z</time>
      </trkpt>
      <trkpt lat="48.14779" lon="16.35854">
        <ele>213.561687</ele>
        <time>2026-07-07T08:50:15.000Z</time>
      </trkpt>
      <trkpt lat="48.14781" lon="16.35847">
        <ele>213.571797</ele>
        <time>2026-07-07T08:50:16.000Z</time>
      </trkpt>
      <trkpt lat="48.14783" lon="16.35841">
        <ele>213.581577</ele>
        <time>2026-07-07T08:50:17.000Z</time>
      </trkpt>
      <trkpt lat="48.14785" lon="16.35835">
        <ele>213.589918</ele>
        <time>2026-07-07T08:50:18.000Z</time>
      </trkpt>
      <trkpt lat="48.14787" lon="16.35831">
        <ele>213.596857</ele>
        <time>2026-07-07T08:50:19.000Z</time>
      </trkpt>
      <trkpt lat="48.14788" lon="16.35827">
        <ele>213.602667</ele>
        <time>2026-07-07T08:50:20.000Z</time>
      </trkpt>
      <trkpt lat="48.1479" lon="16.35823">
        <ele>213.60892</ele>
        <time>2026-07-07T08:50:21.000Z</time>
      </trkpt>
      <trkpt lat="48.14792" lon="16.35819">
        <ele>213.616421</ele>
        <time>2026-07-07T08:50:22.000Z</time>
      </trkpt>
      <trkpt lat="48.14795" lon="16.35814">
        <ele>213.624642</ele>
        <time>2026-07-07T08:50:23.000Z</time>
      </trkpt>
      <trkpt lat="48.14798" lon="16.35809">
        <ele>213.633401</ele>
        <time>2026-07-07T08:50:24.000Z</time>
      </trkpt>
      <trkpt lat="48.148" lon="16.35803">
        <ele>213.64278</ele>
        <time>2026-07-07T08:50:25.000Z</time>
      </trkpt>
      <trkpt lat="48.14803" lon="16.35797">
        <ele>213.652491</ele>
        <time>2026-07-07T08:50:26.000Z</time>
      </trkpt>
      <trkpt lat="48.14806" lon="16.35791">
        <ele>213.662202</ele>
        <time>2026-07-07T08:50:27.000Z</time>
      </trkpt>
      <trkpt lat="48.14808" lon="16.35785">
        <ele>213.672142</ele>
        <time>2026-07-07T08:50:28.000Z</time>
      </trkpt>
      <trkpt lat="48.14811" lon="16.35779">
        <ele>213.682209</ele>
        <time>2026-07-07T08:50:29.000Z</time>
      </trkpt>
      <trkpt lat="48.14814" lon="16.35772">
        <ele>213.692702</ele>
        <time>2026-07-07T08:50:30.000Z</time>
      </trkpt>
      <trkpt lat="48.14816" lon="16.35765">
        <ele>213.703003</ele>
        <time>2026-07-07T08:50:31.000Z</time>
      </trkpt>
      <trkpt lat="48.14818" lon="16.35758">
        <ele>213.713424</ele>
        <time>2026-07-07T08:50:32.000Z</time>
      </trkpt>
      <trkpt lat="48.1482" lon="16.35751">
        <ele>213.724064</ele>
        <time>2026-07-07T08:50:33.000Z</time>
      </trkpt>
      <trkpt lat="48.14822" lon="16.35744">
        <ele>213.734374</ele>
        <time>2026-07-07T08:50:34.000Z</time>
      </trkpt>
      <trkpt lat="48.14823" lon="16.35736">
        <ele>213.744624</ele>
        <time>2026-07-07T08:50:35.000Z</time>
      </trkpt>
      <trkpt lat="48.14825" lon="16.35729">
        <ele>213.75513</ele>
        <time>2026-07-07T08:50:36.000Z</time>
      </trkpt>
      <trkpt lat="48.14826" lon="16.35721">
        <ele>213.76558</ele>
        <time>2026-07-07T08:50:37.000Z</time>
      </trkpt>
      <trkpt lat="48.14827" lon="16.35714">
        <ele>213.775884</ele>
        <time>2026-07-07T08:50:38.000Z</time>
      </trkpt>
      <trkpt lat="48.14829" lon="16.35706">
        <ele>213.779859</ele>
        <time>2026-07-07T08:50:39.000Z</time>
      </trkpt>
      <trkpt lat="48.1483" lon="16.35699">
        <ele>213.782343</ele>
        <time>2026-07-07T08:50:40.000Z</time>
      </trkpt>
      <trkpt lat="48.1483" lon="16.35691">
        <ele>213.784874</ele>
        <time>2026-07-07T08:50:41.000Z</time>
      </trkpt>
      <trkpt lat="48.14831" lon="16.35683">
        <ele>213.787366</ele>
        <time>2026-07-07T08:50:42.000Z</time>
      </trkpt>
      <trkpt lat="48.14832" lon="16.35676">
        <ele>213.78989</ele>
        <time>2026-07-07T08:50:43.000Z</time>
      </trkpt>
      <trkpt lat="48.14832" lon="16.35668">
        <ele>213.792395</ele>
        <time>2026-07-07T08:50:44.000Z</time>
      </trkpt>
      <trkpt lat="48.14833" lon="16.3566">
        <ele>213.794875</ele>
        <time>2026-07-07T08:50:45.000Z</time>
      </trkpt>
      <trkpt lat="48.14833" lon="16.35653">
        <ele>213.7974</ele>
        <time>2026-07-07T08:50:46.000Z</time>
      </trkpt>
      <trkpt lat="48.14834" lon="16.35645">
        <ele>213.799866</ele>
        <time>2026-07-07T08:50:47.000Z</time>
      </trkpt>
      <trkpt lat="48.14835" lon="16.35638">
        <ele>213.802372</ele>
        <time>2026-07-07T08:50:48.000Z</time>
      </trkpt>
      <trkpt lat="48.14836" lon="16.3563">
        <ele>213.804929</ele>
        <time>2026-07-07T08:50:49.000Z</time>
      </trkpt>
      <trkpt lat="48.14838" lon="16.35622">
        <ele>213.807434</ele>
        <time>2026-07-07T08:50:50.000Z</time>
      </trkpt>
      <trkpt lat="48.14839" lon="16.35615">
        <ele>213.809977</ele>
        <time>2026-07-07T08:50:51.000Z</time>
      </trkpt>
      <trkpt lat="48.14841" lon="16.35608">
        <ele>213.812458</ele>
        <time>2026-07-07T08:50:52.000Z</time>
      </trkpt>
      <trkpt lat="48.14842" lon="16.356">
        <ele>213.814939</ele>
        <time>2026-07-07T08:50:53.000Z</time>
      </trkpt>
      <trkpt lat="48.14844" lon="16.35593">
        <ele>213.81742</ele>
        <time>2026-07-07T08:50:54.000Z</time>
      </trkpt>
      <trkpt lat="48.14845" lon="16.35586">
        <ele>213.819901</ele>
        <time>2026-07-07T08:50:55.000Z</time>
      </trkpt>
      <trkpt lat="48.14847" lon="16.35578">
        <ele>213.822413</ele>
        <time>2026-07-07T08:50:56.000Z</time>
      </trkpt>
      <trkpt lat="48.14848" lon="16.35571">
        <ele>213.824847</ele>
        <time>2026-07-07T08:50:57.000Z</time>
      </trkpt>
      <trkpt lat="48.1485" lon="16.35564">
        <ele>213.827271</ele>
        <time>2026-07-07T08:50:58.000Z</time>
      </trkpt>
      <trkpt lat="48.14852" lon="16.35558">
        <ele>213.829617</ele>
        <time>2026-07-07T08:50:59.000Z</time>
      </trkpt>
      <trkpt lat="48.14855" lon="16.35552">
        <ele>213.831805</ele>
        <time>2026-07-07T08:51:00.000Z</time>
      </trkpt>
      <trkpt lat="48.14857" lon="16.35547">
        <ele>213.833817</ele>
        <time>2026-07-07T08:51:01.000Z</time>
      </trkpt>
      <trkpt lat="48.14858" lon="16.35541">
        <ele>213.835614</ele>
        <time>2026-07-07T08:51:02.000Z</time>
      </trkpt>
      <trkpt lat="48.14857" lon="16.35537">
        <ele>213.83721</ele>
        <time>2026-07-07T08:51:03.000Z</time>
      </trkpt>
      <trkpt lat="48.14855" lon="16.35533">
        <ele>213.838787</ele>
        <time>2026-07-07T08:51:04.000Z</time>
      </trkpt>
      <trkpt lat="48.14852" lon="16.3553">
        <ele>213.840423</ele>
        <time>2026-07-07T08:51:05.000Z</time>
      </trkpt>
      <trkpt lat="48.1485" lon="16.35526">
        <ele>213.841991</ele>
        <time>2026-07-07T08:51:06.000Z</time>
      </trkpt>
      <trkpt lat="48.14849" lon="16.35522">
        <ele>213.843362</ele>
        <time>2026-07-07T08:51:07.000Z</time>
      </trkpt>
      <trkpt lat="48.14849" lon="16.35519">
        <ele>213.844443</ele>
        <time>2026-07-07T08:51:08.000Z</time>
      </trkpt>
      <trkpt lat="48.14849" lon="16.35517">
        <ele>213.8451</ele>
        <time>2026-07-07T08:51:09.000Z</time>
      </trkpt>
      <trkpt lat="48.14849" lon="16.35515">
        <ele>213.84549</ele>
        <time>2026-07-07T08:51:10.000Z</time>
      </trkpt>
      <trkpt lat="48.14849" lon="16.35515">
        <ele>213.845815</ele>
        <time>2026-07-07T08:51:11.000Z</time>
      </trkpt>
      <trkpt lat="48.14854" lon="16.35523">
        <ele>213.849213</ele>
        <time>2026-07-07T08:51:16.000Z</time>
      </trkpt>
      <trkpt lat="48.14854" lon="16.35526">
        <ele>213.850289</ele>
        <time>2026-07-07T08:51:17.000Z</time>
      </trkpt>
      <trkpt lat="48.14854" lon="16.35529">
        <ele>213.851172</ele>
        <time>2026-07-07T08:51:18.000Z</time>
      </trkpt>
      <trkpt lat="48.14855" lon="16.35531">
        <ele>213.852131</ele>
        <time>2026-07-07T08:51:19.000Z</time>
      </trkpt>
      <trkpt lat="48.14856" lon="16.35533">
        <ele>213.853104</ele>
        <time>2026-07-07T08:51:20.000Z</time>
      </trkpt>
      <trkpt lat="48.14858" lon="16.35534">
        <ele>213.854181</ele>
        <time>2026-07-07T08:51:21.000Z</time>
      </trkpt>
      <trkpt lat="48.1486" lon="16.35536">
        <ele>213.855118</ele>
        <time>2026-07-07T08:51:22.000Z</time>
      </trkpt>
      <trkpt lat="48.14862" lon="16.35537">
        <ele>213.856121</ele>
        <time>2026-07-07T08:51:23.000Z</time>
      </trkpt>
      <trkpt lat="48.14864" lon="16.35537">
        <ele>213.857389</ele>
        <time>2026-07-07T08:51:24.000Z</time>
      </trkpt>
      <trkpt lat="48.14867" lon="16.35538">
        <ele>213.858621</ele>
        <time>2026-07-07T08:51:25.000Z</time>
      </trkpt>
      <trkpt lat="48.14869" lon="16.35538">
        <ele>213.85984</ele>
        <time>2026-07-07T08:51:26.000Z</time>
      </trkpt>
      <trkpt lat="48.14871" lon="16.35536">
        <ele>213.860934</ele>
        <time>2026-07-07T08:51:27.000Z</time>
      </trkpt>
      <trkpt lat="48.14873" lon="16.35533">
        <ele>213.862235</ele>
        <time>2026-07-07T08:51:28.000Z</time>
      </trkpt>
      <trkpt lat="48.14874" lon="16.35528">
        <ele>213.863779</ele>
        <time>2026-07-07T08:51:29.000Z</time>
      </trkpt>
      <trkpt lat="48.14875" lon="16.35524">
        <ele>213.865922</ele>
        <time>2026-07-07T08:51:30.000Z</time>
      </trkpt>
      <trkpt lat="48.14876" lon="16.35519">
        <ele>213.882316</ele>
        <time>2026-07-07T08:51:31.000Z</time>
      </trkpt>
      <trkpt lat="48.14878" lon="16.35514">
        <ele>213.900044</ele>
        <time>2026-07-07T08:51:32.000Z</time>
      </trkpt>
      <trkpt lat="48.1488" lon="16.35508">
        <ele>213.918775</ele>
        <time>2026-07-07T08:51:33.000Z</time>
      </trkpt>
      <trkpt lat="48.14882" lon="16.35503">
        <ele>213.936724</ele>
        <time>2026-07-07T08:51:34.000Z</time>
      </trkpt>
      <trkpt lat="48.14884" lon="16.35498">
        <ele>213.955156</ele>
        <time>2026-07-07T08:51:35.000Z</time>
      </trkpt>
      <trkpt lat="48.14886" lon="16.35492">
        <ele>213.973479</ele>
        <time>2026-07-07T08:51:36.000Z</time>
      </trkpt>
      <trkpt lat="48.14887" lon="16.35486">
        <ele>213.991362</ele>
        <time>2026-07-07T08:51:37.000Z</time>
      </trkpt>
      <trkpt lat="48.14888" lon="16.3548">
        <ele>214.009681</ele>
        <time>2026-07-07T08:51:38.000Z</time>
      </trkpt>
      <trkpt lat="48.14891" lon="16.3547">
        <ele>214.043111</ele>
        <time>2026-07-07T08:51:39.000Z</time>
      </trkpt>
      <trkpt lat="48.14893" lon="16.35465">
        <ele>214.058691</ele>
        <time>2026-07-07T08:51:40.000Z</time>
      </trkpt>
      <trkpt lat="48.14894" lon="16.35462">
        <ele>214.070531</ele>
        <time>2026-07-07T08:51:42.000Z</time>
      </trkpt>
      <trkpt lat="48.14896" lon="16.35457">
        <ele>214.087738</ele>
        <time>2026-07-07T08:51:43.000Z</time>
      </trkpt>
      <trkpt lat="48.14897" lon="16.35455">
        <ele>214.094515</ele>
        <time>2026-07-07T08:51:44.000Z</time>
      </trkpt>
      <trkpt lat="48.14897" lon="16.35454">
        <ele>214.098746</ele>
        <time>2026-07-07T08:51:45.000Z</time>
      </trkpt>
      <trkpt lat="48.14897" lon="16.35454">
        <ele>214.099045</ele>
        <time>2026-07-07T08:51:46.000Z</time>
      </trkpt>
      <trkpt lat="48.14898" lon="16.35449">
        <ele>214.112271</ele>
        <time>2026-07-07T08:51:52.000Z</time>
      </trkpt>
      <trkpt lat="48.14898" lon="16.35446">
        <ele>214.121286</ele>
        <time>2026-07-07T08:51:53.000Z</time>
      </trkpt>
      <trkpt lat="48.14897" lon="16.35443">
        <ele>214.130435</ele>
        <time>2026-07-07T08:51:54.000Z</time>
      </trkpt>
      <trkpt lat="48.14896" lon="16.3544">
        <ele>214.140463</ele>
        <time>2026-07-07T08:51:55.000Z</time>
      </trkpt>
      <trkpt lat="48.14895" lon="16.35438">
        <ele>214.15104</ele>
        <time>2026-07-07T08:51:56.000Z</time>
      </trkpt>
      <trkpt lat="48.14892" lon="16.35435">
        <ele>214.165264</ele>
        <time>2026-07-07T08:51:57.000Z</time>
      </trkpt>
      <trkpt lat="48.14889" lon="16.35433">
        <ele>214.17972</ele>
        <time>2026-07-07T08:51:58.000Z</time>
      </trkpt>
      <trkpt lat="48.14886" lon="16.35431">
        <ele>214.193788</ele>
        <time>2026-07-07T08:51:59.000Z</time>
      </trkpt>
      <trkpt lat="48.14884" lon="16.35429">
        <ele>214.207443</ele>
        <time>2026-07-07T08:52:00.000Z</time>
      </trkpt>
      <trkpt lat="48.14881" lon="16.35427">
        <ele>214.222159</ele>
        <time>2026-07-07T08:52:01.000Z</time>
      </trkpt>
      <trkpt lat="48.14877" lon="16.35425">
        <ele>214.238113</ele>
        <time>2026-07-07T08:52:02.000Z</time>
      </trkpt>
      <trkpt lat="48.14874" lon="16.35423">
        <ele>214.255742</ele>
        <time>2026-07-07T08:52:03.000Z</time>
      </trkpt>
      <trkpt lat="48.1487" lon="16.35421">
        <ele>214.273792</ele>
        <time>2026-07-07T08:52:04.000Z</time>
      </trkpt>
      <trkpt lat="48.14866" lon="16.35419">
        <ele>214.291421</ele>
        <time>2026-07-07T08:52:05.000Z</time>
      </trkpt>
      <trkpt lat="48.14862" lon="16.35417">
        <ele>214.309491</ele>
        <time>2026-07-07T08:52:06.000Z</time>
      </trkpt>
      <trkpt lat="48.14858" lon="16.35415">
        <ele>214.328692</ele>
        <time>2026-07-07T08:52:07.000Z</time>
      </trkpt>
      <trkpt lat="48.14854" lon="16.35412">
        <ele>214.348313</ele>
        <time>2026-07-07T08:52:08.000Z</time>
      </trkpt>
      <trkpt lat="48.1485" lon="16.3541">
        <ele>214.36972</ele>
        <time>2026-07-07T08:52:09.000Z</time>
      </trkpt>
      <trkpt lat="48.14845" lon="16.35408">
        <ele>214.39103</ele>
        <time>2026-07-07T08:52:10.000Z</time>
      </trkpt>
      <trkpt lat="48.14841" lon="16.35405">
        <ele>214.413925</ele>
        <time>2026-07-07T08:52:11.000Z</time>
      </trkpt>
      <trkpt lat="48.14836" lon="16.35402">
        <ele>214.436821</ele>
        <time>2026-07-07T08:52:12.000Z</time>
      </trkpt>
      <trkpt lat="48.14831" lon="16.35399">
        <ele>214.46013</ele>
        <time>2026-07-07T08:52:13.000Z</time>
      </trkpt>
      <trkpt lat="48.14826" lon="16.35395">
        <ele>214.483675</ele>
        <time>2026-07-07T08:52:14.000Z</time>
      </trkpt>
      <trkpt lat="48.14822" lon="16.35392">
        <ele>214.50669</ele>
        <time>2026-07-07T08:52:15.000Z</time>
      </trkpt>
      <trkpt lat="48.14817" lon="16.35389">
        <ele>214.529998</ele>
        <time>2026-07-07T08:52:16.000Z</time>
      </trkpt>
      <trkpt lat="48.14812" lon="16.35386">
        <ele>214.55361</ele>
        <time>2026-07-07T08:52:17.000Z</time>
      </trkpt>
      <trkpt lat="48.14807" lon="16.35384">
        <ele>214.576695</ele>
        <time>2026-07-07T08:52:18.000Z</time>
      </trkpt>
      <trkpt lat="48.14802" lon="16.35381">
        <ele>214.599363</ele>
        <time>2026-07-07T08:52:19.000Z</time>
      </trkpt>
      <trkpt lat="48.14798" lon="16.35378">
        <ele>214.62173</ele>
        <time>2026-07-07T08:52:20.000Z</time>
      </trkpt>
      <trkpt lat="48.14793" lon="16.35375">
        <ele>214.643567</ele>
        <time>2026-07-07T08:52:21.000Z</time>
      </trkpt>
      <trkpt lat="48.14789" lon="16.35372">
        <ele>214.663614</ele>
        <time>2026-07-07T08:52:22.000Z</time>
      </trkpt>
      <trkpt lat="48.14786" lon="16.35369">
        <ele>214.679137</ele>
        <time>2026-07-07T08:52:23.000Z</time>
      </trkpt>
      <trkpt lat="48.14783" lon="16.35367">
        <ele>214.691292</ele>
        <time>2026-07-07T08:52:24.000Z</time>
      </trkpt>
      <trkpt lat="48.14781" lon="16.35366">
        <ele>214.702628</ele>
        <time>2026-07-07T08:52:25.000Z</time>
      </trkpt>
      <trkpt lat="48.14778" lon="16.35363">
        <ele>214.71435</ele>
        <time>2026-07-07T08:52:26.000Z</time>
      </trkpt>
      <trkpt lat="48.14777" lon="16.3536">
        <ele>214.725231</ele>
        <time>2026-07-07T08:52:27.000Z</time>
      </trkpt>
      <trkpt lat="48.14777" lon="16.35356">
        <ele>214.736429</ele>
        <time>2026-07-07T08:52:28.000Z</time>
      </trkpt>
      <trkpt lat="48.14778" lon="16.35351">
        <ele>214.74823</ele>
        <time>2026-07-07T08:52:29.000Z</time>
      </trkpt>
      <trkpt lat="48.14779" lon="16.35347">
        <ele>214.761647</ele>
        <time>2026-07-07T08:52:30.000Z</time>
      </trkpt>
      <trkpt lat="48.1478" lon="16.35342">
        <ele>214.77458</ele>
        <time>2026-07-07T08:52:31.000Z</time>
      </trkpt>
      <trkpt lat="48.1478" lon="16.35337">
        <ele>214.787533</ele>
        <time>2026-07-07T08:52:32.000Z</time>
      </trkpt>
      <trkpt lat="48.14781" lon="16.35333">
        <ele>214.799171</ele>
        <time>2026-07-07T08:52:33.000Z</time>
      </trkpt>
      <trkpt lat="48.14781" lon="16.35329">
        <ele>214.809903</ele>
        <time>2026-07-07T08:52:34.000Z</time>
      </trkpt>
      <trkpt lat="48.1478" lon="16.35325">
        <ele>214.820055</ele>
        <time>2026-07-07T08:52:35.000Z</time>
      </trkpt>
      <trkpt lat="48.14778" lon="16.35322">
        <ele>214.831418</ele>
        <time>2026-07-07T08:52:36.000Z</time>
      </trkpt>
      <trkpt lat="48.14775" lon="16.35321">
        <ele>214.84448</ele>
        <time>2026-07-07T08:52:37.000Z</time>
      </trkpt>
      <trkpt lat="48.14771" lon="16.35321">
        <ele>214.85975</ele>
        <time>2026-07-07T08:52:38.000Z</time>
      </trkpt>
      <trkpt lat="48.14767" lon="16.3532">
        <ele>214.875955</ele>
        <time>2026-07-07T08:52:39.000Z</time>
      </trkpt>
      <trkpt lat="48.14763" lon="16.35319">
        <ele>214.893433</ele>
        <time>2026-07-07T08:52:40.000Z</time>
      </trkpt>
      <trkpt lat="48.14758" lon="16.35317">
        <ele>214.911978</ele>
        <time>2026-07-07T08:52:41.000Z</time>
      </trkpt>
      <trkpt lat="48.14754" lon="16.35315">
        <ele>214.930735</ele>
        <time>2026-07-07T08:52:42.000Z</time>
      </trkpt>
      <trkpt lat="48.14749" lon="16.35313">
        <ele>214.950333</ele>
        <time>2026-07-07T08:52:43.000Z</time>
      </trkpt>
      <trkpt lat="48.14744" lon="16.3531">
        <ele>214.970175</ele>
        <time>2026-07-07T08:52:44.000Z</time>
      </trkpt>
      <trkpt lat="48.1474" lon="16.35308">
        <ele>214.989553</ele>
        <time>2026-07-07T08:52:45.000Z</time>
      </trkpt>
      <trkpt lat="48.14735" lon="16.35306">
        <ele>215.009482</ele>
        <time>2026-07-07T08:52:46.000Z</time>
      </trkpt>
      <trkpt lat="48.1473" lon="16.35303">
        <ele>215.029412</ele>
        <time>2026-07-07T08:52:47.000Z</time>
      </trkpt>
      <trkpt lat="48.14726" lon="16.353">
        <ele>215.048147</ele>
        <time>2026-07-07T08:52:48.000Z</time>
      </trkpt>
      <trkpt lat="48.14722" lon="16.35298">
        <ele>215.067234</ele>
        <time>2026-07-07T08:52:49.000Z</time>
      </trkpt>
      <trkpt lat="48.14717" lon="16.35296">
        <ele>215.086068</ele>
        <time>2026-07-07T08:52:50.000Z</time>
      </trkpt>
      <trkpt lat="48.14713" lon="16.35294">
        <ele>215.103678</ele>
        <time>2026-07-07T08:52:51.000Z</time>
      </trkpt>
      <trkpt lat="48.14709" lon="16.35292">
        <ele>215.120529</ele>
        <time>2026-07-07T08:52:52.000Z</time>
      </trkpt>
      <trkpt lat="48.14705" lon="16.3529">
        <ele>215.137931</ele>
        <time>2026-07-07T08:52:53.000Z</time>
      </trkpt>
      <trkpt lat="48.14701" lon="16.35288">
        <ele>215.154403</ele>
        <time>2026-07-07T08:52:54.000Z</time>
      </trkpt>
      <trkpt lat="48.14697" lon="16.35285">
        <ele>215.170257</ele>
        <time>2026-07-07T08:52:55.000Z</time>
      </trkpt>
      <trkpt lat="48.14695" lon="16.35281">
        <ele>215.183928</ele>
        <time>2026-07-07T08:52:56.000Z</time>
      </trkpt>
      <trkpt lat="48.14694" lon="16.35278">
        <ele>215.193243</ele>
        <time>2026-07-07T08:52:57.000Z</time>
      </trkpt>
      <trkpt lat="48.14693" lon="16.35276">
        <ele>215.200719</ele>
        <time>2026-07-07T08:52:58.000Z</time>
      </trkpt>
      <trkpt lat="48.14692" lon="16.35273">
        <ele>215.20819</ele>
        <time>2026-07-07T08:52:59.000Z</time>
      </trkpt>
      <trkpt lat="48.14692" lon="16.3527">
        <ele>215.217212</ele>
        <time>2026-07-07T08:53:00.000Z</time>
      </trkpt>
      <trkpt lat="48.14692" lon="16.35265">
        <ele>215.229211</ele>
        <time>2026-07-07T08:53:01.000Z</time>
      </trkpt>
      <trkpt lat="48.14692" lon="16.3526">
        <ele>215.243747</ele>
        <time>2026-07-07T08:53:02.000Z</time>
      </trkpt>
      <trkpt lat="48.14693" lon="16.35254">
        <ele>215.259624</ele>
        <time>2026-07-07T08:53:03.000Z</time>
      </trkpt>
      <trkpt lat="48.14694" lon="16.35248">
        <ele>215.276987</ele>
        <time>2026-07-07T08:53:04.000Z</time>
      </trkpt>
      <trkpt lat="48.14696" lon="16.35241">
        <ele>215.295707</ele>
        <time>2026-07-07T08:53:05.000Z</time>
      </trkpt>
      <trkpt lat="48.14697" lon="16.35235">
        <ele>215.313542</ele>
        <time>2026-07-07T08:53:06.000Z</time>
      </trkpt>
      <trkpt lat="48.14699" lon="16.35229">
        <ele>215.331266</ele>
        <time>2026-07-07T08:53:07.000Z</time>
      </trkpt>
      <trkpt lat="48.14701" lon="16.35222">
        <ele>215.349628</ele>
        <time>2026-07-07T08:53:08.000Z</time>
      </trkpt>
      <trkpt lat="48.14703" lon="16.35216">
        <ele>215.367511</ele>
        <time>2026-07-07T08:53:09.000Z</time>
      </trkpt>
      <trkpt lat="48.14705" lon="16.35211">
        <ele>215.384738</ele>
        <time>2026-07-07T08:53:10.000Z</time>
      </trkpt>
      <trkpt lat="48.14707" lon="16.35205">
        <ele>215.40517</ele>
        <time>2026-07-07T08:53:11.000Z</time>
      </trkpt>
      <trkpt lat="48.14708" lon="16.35199">
        <ele>215.426446</ele>
        <time>2026-07-07T08:53:12.000Z</time>
      </trkpt>
      <trkpt lat="48.1471" lon="16.35194">
        <ele>215.446092</ele>
        <time>2026-07-07T08:53:13.000Z</time>
      </trkpt>
      <trkpt lat="48.14712" lon="16.35188">
        <ele>215.465437</ele>
        <time>2026-07-07T08:53:14.000Z</time>
      </trkpt>
      <trkpt lat="48.14713" lon="16.35183">
        <ele>215.483751</ele>
        <time>2026-07-07T08:53:15.000Z</time>
      </trkpt>
      <trkpt lat="48.14715" lon="16.35179">
        <ele>215.500855</ele>
        <time>2026-07-07T08:53:16.000Z</time>
      </trkpt>
      <trkpt lat="48.14716" lon="16.35174">
        <ele>215.51706</ele>
        <time>2026-07-07T08:53:17.000Z</time>
      </trkpt>
      <trkpt lat="48.14715" lon="16.35169">
        <ele>215.53354</ele>
        <time>2026-07-07T08:53:18.000Z</time>
      </trkpt>
      <trkpt lat="48.14713" lon="16.35165">
        <ele>215.551051</ele>
        <time>2026-07-07T08:53:19.000Z</time>
      </trkpt>
      <trkpt lat="48.14709" lon="16.35162">
        <ele>215.570312</ele>
        <time>2026-07-07T08:53:20.000Z</time>
      </trkpt>
      <trkpt lat="48.14706" lon="16.35159">
        <ele>215.591227</ele>
        <time>2026-07-07T08:53:21.000Z</time>
      </trkpt>
      <trkpt lat="48.14701" lon="16.35157">
        <ele>215.615497</ele>
        <time>2026-07-07T08:53:22.000Z</time>
      </trkpt>
      <trkpt lat="48.14697" lon="16.35154">
        <ele>215.639893</ele>
        <time>2026-07-07T08:53:23.000Z</time>
      </trkpt>
      <trkpt lat="48.14692" lon="16.3515">
        <ele>215.665125</ele>
        <time>2026-07-07T08:53:24.000Z</time>
      </trkpt>
      <trkpt lat="48.14687" lon="16.35147">
        <ele>215.690703</ele>
        <time>2026-07-07T08:53:25.000Z</time>
      </trkpt>
      <trkpt lat="48.14683" lon="16.35144">
        <ele>215.715821</ele>
        <time>2026-07-07T08:53:26.000Z</time>
      </trkpt>
      <trkpt lat="48.14678" lon="16.35141">
        <ele>215.741398</ele>
        <time>2026-07-07T08:53:27.000Z</time>
      </trkpt>
      <trkpt lat="48.14674" lon="16.35139">
        <ele>215.765794</ele>
        <time>2026-07-07T08:53:28.000Z</time>
      </trkpt>
      <trkpt lat="48.14669" lon="16.35136">
        <ele>215.790926</ele>
        <time>2026-07-07T08:53:29.000Z</time>
      </trkpt>
      <trkpt lat="48.14664" lon="16.35135">
        <ele>215.816035</ele>
        <time>2026-07-07T08:53:30.000Z</time>
      </trkpt>
      <trkpt lat="48.14659" lon="16.35133">
        <ele>215.841996</ele>
        <time>2026-07-07T08:53:31.000Z</time>
      </trkpt>
      <trkpt lat="48.14654" lon="16.35132">
        <ele>215.867298</ele>
        <time>2026-07-07T08:53:32.000Z</time>
      </trkpt>
      <trkpt lat="48.14649" lon="16.35131">
        <ele>215.892969</ele>
        <time>2026-07-07T08:53:33.000Z</time>
      </trkpt>
      <trkpt lat="48.14644" lon="16.35128">
        <ele>215.91794</ele>
        <time>2026-07-07T08:53:34.000Z</time>
      </trkpt>
      <trkpt lat="48.14639" lon="16.35125">
        <ele>215.943518</ele>
        <time>2026-07-07T08:53:35.000Z</time>
      </trkpt>
      <trkpt lat="48.14635" lon="16.35122">
        <ele>215.966992</ele>
        <time>2026-07-07T08:53:36.000Z</time>
      </trkpt>
      <trkpt lat="48.1463" lon="16.35119">
        <ele>215.99257</ele>
        <time>2026-07-07T08:53:37.000Z</time>
      </trkpt>
      <trkpt lat="48.14626" lon="16.35116">
        <ele>216.017556</ele>
        <time>2026-07-07T08:53:38.000Z</time>
      </trkpt>
      <trkpt lat="48.14621" lon="16.35113">
        <ele>216.043134</ele>
        <time>2026-07-07T08:53:39.000Z</time>
      </trkpt>
      <trkpt lat="48.14616" lon="16.3511">
        <ele>216.068712</ele>
        <time>2026-07-07T08:53:40.000Z</time>
      </trkpt>
      <trkpt lat="48.14612" lon="16.35108">
        <ele>216.093571</ele>
        <time>2026-07-07T08:53:41.000Z</time>
      </trkpt>
      <trkpt lat="48.14607" lon="16.35104">
        <ele>216.119418</ele>
        <time>2026-07-07T08:53:42.000Z</time>
      </trkpt>
      <trkpt lat="48.14602" lon="16.35101">
        <ele>216.145405</ele>
        <time>2026-07-07T08:53:43.000Z</time>
      </trkpt>
      <trkpt lat="48.14598" lon="16.35098">
        <ele>216.171194</ele>
        <time>2026-07-07T08:53:44.000Z</time>
      </trkpt>
      <trkpt lat="48.14593" lon="16.35095">
        <ele>216.197107</ele>
        <time>2026-07-07T08:53:45.000Z</time>
      </trkpt>
      <trkpt lat="48.14588" lon="16.35093">
        <ele>216.223133</ele>
        <time>2026-07-07T08:53:46.000Z</time>
      </trkpt>
      <trkpt lat="48.14583" lon="16.3509">
        <ele>216.24942</ele>
        <time>2026-07-07T08:53:47.000Z</time>
      </trkpt>
      <trkpt lat="48.14578" lon="16.35088">
        <ele>216.277047</ele>
        <time>2026-07-07T08:53:48.000Z</time>
      </trkpt>
      <trkpt lat="48.14573" lon="16.35086">
        <ele>216.300741</ele>
        <time>2026-07-07T08:53:49.000Z</time>
      </trkpt>
      <trkpt lat="48.14567" lon="16.35083">
        <ele>216.322269</ele>
        <time>2026-07-07T08:53:50.000Z</time>
      </trkpt>
      <trkpt lat="48.14563" lon="16.3508">
        <ele>216.342479</ele>
        <time>2026-07-07T08:53:51.000Z</time>
      </trkpt>
      <trkpt lat="48.14558" lon="16.35077">
        <ele>216.362981</ele>
        <time>2026-07-07T08:53:52.000Z</time>
      </trkpt>
      <trkpt lat="48.14553" lon="16.35074">
        <ele>216.384311</ele>
        <time>2026-07-07T08:53:53.000Z</time>
      </trkpt>
      <trkpt lat="48.14548" lon="16.35071">
        <ele>216.405177</ele>
        <time>2026-07-07T08:53:54.000Z</time>
      </trkpt>
      <trkpt lat="48.14543" lon="16.35068">
        <ele>216.426312</ele>
        <time>2026-07-07T08:53:55.000Z</time>
      </trkpt>
      <trkpt lat="48.14538" lon="16.35065">
        <ele>216.447642</ele>
        <time>2026-07-07T08:53:56.000Z</time>
      </trkpt>
      <trkpt lat="48.14533" lon="16.35062">
        <ele>216.468144</ele>
        <time>2026-07-07T08:53:57.000Z</time>
      </trkpt>
      <trkpt lat="48.14528" lon="16.35059">
        <ele>216.489278</ele>
        <time>2026-07-07T08:53:58.000Z</time>
      </trkpt>
      <trkpt lat="48.14523" lon="16.35056">
        <ele>216.51051</ele>
        <time>2026-07-07T08:53:59.000Z</time>
      </trkpt>
      <trkpt lat="48.14518" lon="16.35054">
        <ele>216.531551</ele>
        <time>2026-07-07T08:54:00.000Z</time>
      </trkpt>
      <trkpt lat="48.14513" lon="16.35051">
        <ele>216.553516</ele>
        <time>2026-07-07T08:54:01.000Z</time>
      </trkpt>
      <trkpt lat="48.14508" lon="16.35047">
        <ele>216.574949</ele>
        <time>2026-07-07T08:54:02.000Z</time>
      </trkpt>
      <trkpt lat="48.14503" lon="16.35044">
        <ele>216.59618</ele>
        <time>2026-07-07T08:54:03.000Z</time>
      </trkpt>
      <trkpt lat="48.14498" lon="16.35041">
        <ele>216.617411</ele>
        <time>2026-07-07T08:54:04.000Z</time>
      </trkpt>
      <trkpt lat="48.14493" lon="16.35039">
        <ele>216.638822</ele>
        <time>2026-07-07T08:54:05.000Z</time>
      </trkpt>
      <trkpt lat="48.14488" lon="16.35036">
        <ele>216.660604</ele>
        <time>2026-07-07T08:54:06.000Z</time>
      </trkpt>
      <trkpt lat="48.14483" lon="16.35032">
        <ele>216.682248</ele>
        <time>2026-07-07T08:54:07.000Z</time>
      </trkpt>
      <trkpt lat="48.14478" lon="16.35029">
        <ele>216.703785</ele>
        <time>2026-07-07T08:54:08.000Z</time>
      </trkpt>
      <trkpt lat="48.14472" lon="16.35026">
        <ele>216.72575</ele>
        <time>2026-07-07T08:54:09.000Z</time>
      </trkpt>
      <trkpt lat="48.14467" lon="16.35023">
        <ele>216.747161</ele>
        <time>2026-07-07T08:54:10.000Z</time>
      </trkpt>
      <trkpt lat="48.14462" lon="16.35021">
        <ele>216.768856</ele>
        <time>2026-07-07T08:54:11.000Z</time>
      </trkpt>
      <trkpt lat="48.14457" lon="16.35018">
        <ele>216.790821</ele>
        <time>2026-07-07T08:54:12.000Z</time>
      </trkpt>
      <trkpt lat="48.14452" lon="16.35015">
        <ele>216.811126</ele>
        <time>2026-07-07T08:54:13.000Z</time>
      </trkpt>
      <trkpt lat="48.14447" lon="16.35012">
        <ele>216.832574</ele>
        <time>2026-07-07T08:54:14.000Z</time>
      </trkpt>
      <trkpt lat="48.14442" lon="16.3501">
        <ele>216.85244</ele>
        <time>2026-07-07T08:54:15.000Z</time>
      </trkpt>
      <trkpt lat="48.14438" lon="16.35008">
        <ele>216.871099</ele>
        <time>2026-07-07T08:54:16.000Z</time>
      </trkpt>
      <trkpt lat="48.14433" lon="16.35006">
        <ele>216.889459</ele>
        <time>2026-07-07T08:54:17.000Z</time>
      </trkpt>
      <trkpt lat="48.14429" lon="16.35004">
        <ele>216.907458</ele>
        <time>2026-07-07T08:54:18.000Z</time>
      </trkpt>
      <trkpt lat="48.14424" lon="16.35001">
        <ele>216.926377</ele>
        <time>2026-07-07T08:54:19.000Z</time>
      </trkpt>
      <trkpt lat="48.1442" lon="16.34998">
        <ele>216.944718</ele>
        <time>2026-07-07T08:54:20.000Z</time>
      </trkpt>
      <trkpt lat="48.14416" lon="16.34995">
        <ele>216.963923</ele>
        <time>2026-07-07T08:54:21.000Z</time>
      </trkpt>
      <trkpt lat="48.14412" lon="16.34991">
        <ele>216.982849</ele>
        <time>2026-07-07T08:54:22.000Z</time>
      </trkpt>
      <trkpt lat="48.14407" lon="16.34989">
        <ele>217.002491</ele>
        <time>2026-07-07T08:54:23.000Z</time>
      </trkpt>
      <trkpt lat="48.14402" lon="16.34987">
        <ele>217.019499</ele>
        <time>2026-07-07T08:54:24.000Z</time>
      </trkpt>
      <trkpt lat="48.14397" lon="16.34984">
        <ele>217.037401</ele>
        <time>2026-07-07T08:54:25.000Z</time>
      </trkpt>
      <trkpt lat="48.14392" lon="16.34981">
        <ele>217.055522</ele>
        <time>2026-07-07T08:54:26.000Z</time>
      </trkpt>
      <trkpt lat="48.14387" lon="16.34978">
        <ele>217.074182</ele>
        <time>2026-07-07T08:54:27.000Z</time>
      </trkpt>
      <trkpt lat="48.14381" lon="16.34975">
        <ele>217.092763</ele>
        <time>2026-07-07T08:54:28.000Z</time>
      </trkpt>
      <trkpt lat="48.14376" lon="16.34972">
        <ele>217.111112</ele>
        <time>2026-07-07T08:54:29.000Z</time>
      </trkpt>
      <trkpt lat="48.14371" lon="16.3497">
        <ele>217.128987</ele>
        <time>2026-07-07T08:54:30.000Z</time>
      </trkpt>
      <trkpt lat="48.14366" lon="16.34967">
        <ele>217.147418</ele>
        <time>2026-07-07T08:54:31.000Z</time>
      </trkpt>
      <trkpt lat="48.14361" lon="16.34964">
        <ele>217.165776</ele>
        <time>2026-07-07T08:54:32.000Z</time>
      </trkpt>
      <trkpt lat="48.14356" lon="16.34961">
        <ele>217.184292</ele>
        <time>2026-07-07T08:54:33.000Z</time>
      </trkpt>
      <trkpt lat="48.14351" lon="16.34958">
        <ele>217.2025</ele>
        <time>2026-07-07T08:54:34.000Z</time>
      </trkpt>
      <trkpt lat="48.14346" lon="16.34955">
        <ele>217.220224</ele>
        <time>2026-07-07T08:54:35.000Z</time>
      </trkpt>
      <trkpt lat="48.14341" lon="16.34953">
        <ele>217.238654</ele>
        <time>2026-07-07T08:54:36.000Z</time>
      </trkpt>
      <trkpt lat="48.14336" lon="16.3495">
        <ele>217.256691</ele>
        <time>2026-07-07T08:54:37.000Z</time>
      </trkpt>
      <trkpt lat="48.14331" lon="16.34946">
        <ele>217.274899</ele>
        <time>2026-07-07T08:54:38.000Z</time>
      </trkpt>
      <trkpt lat="48.14326" lon="16.34943">
        <ele>217.292936</ele>
        <time>2026-07-07T08:54:39.000Z</time>
      </trkpt>
      <trkpt lat="48.1432" lon="16.3494">
        <ele>217.311596</ele>
        <time>2026-07-07T08:54:40.000Z</time>
      </trkpt>
      <trkpt lat="48.14315" lon="16.34938">
        <ele>217.329786</ele>
        <time>2026-07-07T08:54:41.000Z</time>
      </trkpt>
      <trkpt lat="48.1431" lon="16.34935">
        <ele>217.348291</ele>
        <time>2026-07-07T08:54:42.000Z</time>
      </trkpt>
      <trkpt lat="48.14305" lon="16.34932">
        <ele>217.366721</ele>
        <time>2026-07-07T08:54:43.000Z</time>
      </trkpt>
      <trkpt lat="48.143" lon="16.34929">
        <ele>217.385468</ele>
        <time>2026-07-07T08:54:44.000Z</time>
      </trkpt>
      <trkpt lat="48.14294" lon="16.34926">
        <ele>217.404441</ele>
        <time>2026-07-07T08:54:45.000Z</time>
      </trkpt>
      <trkpt lat="48.14289" lon="16.34923">
        <ele>217.423807</ele>
        <time>2026-07-07T08:54:46.000Z</time>
      </trkpt>
      <trkpt lat="48.14284" lon="16.3492">
        <ele>217.442324</ele>
        <time>2026-07-07T08:54:47.000Z</time>
      </trkpt>
      <trkpt lat="48.14279" lon="16.34917">
        <ele>217.461149</ele>
        <time>2026-07-07T08:54:48.000Z</time>
      </trkpt>
      <trkpt lat="48.14273" lon="16.34914">
        <ele>217.479654</ele>
        <time>2026-07-07T08:54:49.000Z</time>
      </trkpt>
      <trkpt lat="48.14268" lon="16.34911">
        <ele>217.497844</ele>
        <time>2026-07-07T08:54:50.000Z</time>
      </trkpt>
      <trkpt lat="48.14263" lon="16.34908">
        <ele>217.516504</ele>
        <time>2026-07-07T08:54:51.000Z</time>
      </trkpt>
      <trkpt lat="48.14258" lon="16.34905">
        <ele>217.534712</ele>
        <time>2026-07-07T08:54:52.000Z</time>
      </trkpt>
      <trkpt lat="48.14253" lon="16.34902">
        <ele>217.553538</ele>
        <time>2026-07-07T08:54:53.000Z</time>
      </trkpt>
      <trkpt lat="48.14248" lon="16.34899">
        <ele>217.571969</ele>
        <time>2026-07-07T08:54:54.000Z</time>
      </trkpt>
      <trkpt lat="48.14243" lon="16.34896">
        <ele>217.590629</ele>
        <time>2026-07-07T08:54:55.000Z</time>
      </trkpt>
      <trkpt lat="48.14237" lon="16.34893">
        <ele>217.609356</ele>
        <time>2026-07-07T08:54:56.000Z</time>
      </trkpt>
      <trkpt lat="48.14232" lon="16.3489">
        <ele>217.627397</ele>
        <time>2026-07-07T08:54:57.000Z</time>
      </trkpt>
      <trkpt lat="48.14227" lon="16.34886">
        <ele>217.645175</ele>
        <time>2026-07-07T08:54:58.000Z</time>
      </trkpt>
      <trkpt lat="48.14222" lon="16.34883">
        <ele>217.663044</ele>
        <time>2026-07-07T08:54:59.000Z</time>
      </trkpt>
      <trkpt lat="48.14217" lon="16.3488">
        <ele>217.680734</ele>
        <time>2026-07-07T08:55:00.000Z</time>
      </trkpt>
      <trkpt lat="48.14212" lon="16.34877">
        <ele>217.698775</ele>
        <time>2026-07-07T08:55:01.000Z</time>
      </trkpt>
      <trkpt lat="48.14207" lon="16.34874">
        <ele>217.716362</ele>
        <time>2026-07-07T08:55:02.000Z</time>
      </trkpt>
      <trkpt lat="48.14202" lon="16.34871">
        <ele>217.73418</ele>
        <time>2026-07-07T08:55:03.000Z</time>
      </trkpt>
      <trkpt lat="48.14196" lon="16.34868">
        <ele>217.751999</ele>
        <time>2026-07-07T08:55:04.000Z</time>
      </trkpt>
      <trkpt lat="48.14191" lon="16.34866">
        <ele>217.769282</ele>
        <time>2026-07-07T08:55:05.000Z</time>
      </trkpt>
      <trkpt lat="48.14186" lon="16.34863">
        <ele>217.786869</ele>
        <time>2026-07-07T08:55:06.000Z</time>
      </trkpt>
      <trkpt lat="48.14181" lon="16.3486">
        <ele>217.804007</ele>
        <time>2026-07-07T08:55:07.000Z</time>
      </trkpt>
      <trkpt lat="48.14176" lon="16.34857">
        <ele>217.821367</ele>
        <time>2026-07-07T08:55:08.000Z</time>
      </trkpt>
      <trkpt lat="48.14172" lon="16.34854">
        <ele>217.837698</ele>
        <time>2026-07-07T08:55:09.000Z</time>
      </trkpt>
      <trkpt lat="48.14167" lon="16.34851">
        <ele>217.853393</ele>
        <time>2026-07-07T08:55:10.000Z</time>
      </trkpt>
      <trkpt lat="48.14163" lon="16.34848">
        <ele>217.869088</ele>
        <time>2026-07-07T08:55:11.000Z</time>
      </trkpt>
      <trkpt lat="48.14158" lon="16.34846">
        <ele>217.884348</ele>
        <time>2026-07-07T08:55:12.000Z</time>
      </trkpt>
      <trkpt lat="48.14154" lon="16.34844">
        <ele>217.899509</ele>
        <time>2026-07-07T08:55:13.000Z</time>
      </trkpt>
      <trkpt lat="48.1415" lon="16.34842">
        <ele>217.914293</ele>
        <time>2026-07-07T08:55:14.000Z</time>
      </trkpt>
      <trkpt lat="48.14146" lon="16.34839">
        <ele>217.927483</ele>
        <time>2026-07-07T08:55:15.000Z</time>
      </trkpt>
      <trkpt lat="48.14142" lon="16.34837">
        <ele>217.939561</ele>
        <time>2026-07-07T08:55:16.000Z</time>
      </trkpt>
      <trkpt lat="48.1414" lon="16.34834">
        <ele>217.949414</ele>
        <time>2026-07-07T08:55:17.000Z</time>
      </trkpt>
      <trkpt lat="48.14138" lon="16.3483">
        <ele>217.960022</ele>
        <time>2026-07-07T08:55:18.000Z</time>
      </trkpt>
      <trkpt lat="48.14136" lon="16.34825">
        <ele>217.971704</ele>
        <time>2026-07-07T08:55:19.000Z</time>
      </trkpt>
      <trkpt lat="48.14134" lon="16.34821">
        <ele>217.984081</ele>
        <time>2026-07-07T08:55:20.000Z</time>
      </trkpt>
      <trkpt lat="48.1413" lon="16.34818">
        <ele>217.99747</ele>
        <time>2026-07-07T08:55:21.000Z</time>
      </trkpt>
      <trkpt lat="48.14126" lon="16.34815">
        <ele>218.012354</ele>
        <time>2026-07-07T08:55:22.000Z</time>
      </trkpt>
      <trkpt lat="48.14121" lon="16.34813">
        <ele>218.027894</ele>
        <time>2026-07-07T08:55:23.000Z</time>
      </trkpt>
      <trkpt lat="48.14117" lon="16.3481">
        <ele>218.04389</ele>
        <time>2026-07-07T08:55:24.000Z</time>
      </trkpt>
      <trkpt lat="48.14112" lon="16.34807">
        <ele>218.060188</ele>
        <time>2026-07-07T08:55:25.000Z</time>
      </trkpt>
      <trkpt lat="48.14107" lon="16.34805">
        <ele>218.07641</ele>
        <time>2026-07-07T08:55:26.000Z</time>
      </trkpt>
      <trkpt lat="48.14103" lon="16.34802">
        <ele>218.092568</ele>
        <time>2026-07-07T08:55:27.000Z</time>
      </trkpt>
      <trkpt lat="48.14098" lon="16.34799">
        <ele>218.109635</ele>
        <time>2026-07-07T08:55:28.000Z</time>
      </trkpt>
      <trkpt lat="48.14093" lon="16.34797">
        <ele>218.126395</ele>
        <time>2026-07-07T08:55:29.000Z</time>
      </trkpt>
      <trkpt lat="48.14088" lon="16.34794">
        <ele>218.142849</ele>
        <time>2026-07-07T08:55:30.000Z</time>
      </trkpt>
      <trkpt lat="48.14083" lon="16.34792">
        <ele>218.159985</ele>
        <time>2026-07-07T08:55:31.000Z</time>
      </trkpt>
      <trkpt lat="48.14078" lon="16.34789">
        <ele>218.178027</ele>
        <time>2026-07-07T08:55:32.000Z</time>
      </trkpt>
      <trkpt lat="48.14073" lon="16.34786">
        <ele>218.193096</ele>
        <time>2026-07-07T08:55:33.000Z</time>
      </trkpt>
      <trkpt lat="48.14068" lon="16.34783">
        <ele>218.207482</ele>
        <time>2026-07-07T08:55:34.000Z</time>
      </trkpt>
      <trkpt lat="48.14063" lon="16.3478">
        <ele>218.222001</ele>
        <time>2026-07-07T08:55:35.000Z</time>
      </trkpt>
      <trkpt lat="48.14058" lon="16.34777">
        <ele>218.236589</ele>
        <time>2026-07-07T08:55:36.000Z</time>
      </trkpt>
      <trkpt lat="48.14053" lon="16.34774">
        <ele>218.250911</ele>
        <time>2026-07-07T08:55:37.000Z</time>
      </trkpt>
      <trkpt lat="48.14048" lon="16.34771">
        <ele>218.265363</ele>
        <time>2026-07-07T08:55:38.000Z</time>
      </trkpt>
      <trkpt lat="48.14043" lon="16.34768">
        <ele>218.279951</ele>
        <time>2026-07-07T08:55:39.000Z</time>
      </trkpt>
      <trkpt lat="48.14038" lon="16.34764">
        <ele>218.295246</ele>
        <time>2026-07-07T08:55:40.000Z</time>
      </trkpt>
      <trkpt lat="48.14033" lon="16.34761">
        <ele>218.309417</ele>
        <time>2026-07-07T08:55:41.000Z</time>
      </trkpt>
      <trkpt lat="48.14028" lon="16.34757">
        <ele>218.324149</ele>
        <time>2026-07-07T08:55:42.000Z</time>
      </trkpt>
      <trkpt lat="48.14023" lon="16.34754">
        <ele>218.338957</ele>
        <time>2026-07-07T08:55:43.000Z</time>
      </trkpt>
      <trkpt lat="48.14018" lon="16.3475">
        <ele>218.35328</ele>
        <time>2026-07-07T08:55:44.000Z</time>
      </trkpt>
      <trkpt lat="48.14014" lon="16.34746">
        <ele>218.367783</ele>
        <time>2026-07-07T08:55:45.000Z</time>
      </trkpt>
      <trkpt lat="48.14009" lon="16.34742">
        <ele>218.382375</ele>
        <time>2026-07-07T08:55:46.000Z</time>
      </trkpt>
      <trkpt lat="48.14004" lon="16.34738">
        <ele>218.397018</ele>
        <time>2026-07-07T08:55:47.000Z</time>
      </trkpt>
      <trkpt lat="48.14" lon="16.34733">
        <ele>218.411983</ele>
        <time>2026-07-07T08:55:48.000Z</time>
      </trkpt>
      <trkpt lat="48.13995" lon="16.34729">
        <ele>218.427176</ele>
        <time>2026-07-07T08:55:49.000Z</time>
      </trkpt>
      <trkpt lat="48.1399" lon="16.34725">
        <ele>218.442147</ele>
        <time>2026-07-07T08:55:50.000Z</time>
      </trkpt>
      <trkpt lat="48.13985" lon="16.34721">
        <ele>218.456714</ele>
        <time>2026-07-07T08:55:51.000Z</time>
      </trkpt>
      <trkpt lat="48.1398" lon="16.34718">
        <ele>218.471521</ele>
        <time>2026-07-07T08:55:52.000Z</time>
      </trkpt>
      <trkpt lat="48.13975" lon="16.34714">
        <ele>218.485691</ele>
        <time>2026-07-07T08:55:53.000Z</time>
      </trkpt>
      <trkpt lat="48.1397" lon="16.34711">
        <ele>218.500499</ele>
        <time>2026-07-07T08:55:54.000Z</time>
      </trkpt>
      <trkpt lat="48.13965" lon="16.34708">
        <ele>218.514951</ele>
        <time>2026-07-07T08:55:55.000Z</time>
      </trkpt>
      <trkpt lat="48.1396" lon="16.34705">
        <ele>218.529902</ele>
        <time>2026-07-07T08:55:56.000Z</time>
      </trkpt>
      <trkpt lat="48.13955" lon="16.34702">
        <ele>218.54481</ele>
        <time>2026-07-07T08:55:57.000Z</time>
      </trkpt>
      <trkpt lat="48.1395" lon="16.347">
        <ele>218.559464</ele>
        <time>2026-07-07T08:55:58.000Z</time>
      </trkpt>
      <trkpt lat="48.13944" lon="16.34698">
        <ele>218.573962</ele>
        <time>2026-07-07T08:55:59.000Z</time>
      </trkpt>
      <trkpt lat="48.13939" lon="16.34696">
        <ele>218.588627</ele>
        <time>2026-07-07T08:56:00.000Z</time>
      </trkpt>
      <trkpt lat="48.13934" lon="16.34693">
        <ele>218.603432</ele>
        <time>2026-07-07T08:56:01.000Z</time>
      </trkpt>
      <trkpt lat="48.13929" lon="16.3469">
        <ele>218.61832</ele>
        <time>2026-07-07T08:56:02.000Z</time>
      </trkpt>
      <trkpt lat="48.13924" lon="16.34687">
        <ele>218.632979</ele>
        <time>2026-07-07T08:56:03.000Z</time>
      </trkpt>
      <trkpt lat="48.13918" lon="16.34684">
        <ele>218.648132</ele>
        <time>2026-07-07T08:56:04.000Z</time>
      </trkpt>
      <trkpt lat="48.13914" lon="16.34681">
        <ele>218.662086</ele>
        <time>2026-07-07T08:56:05.000Z</time>
      </trkpt>
      <trkpt lat="48.13909" lon="16.34678">
        <ele>218.673997</ele>
        <time>2026-07-07T08:56:06.000Z</time>
      </trkpt>
      <trkpt lat="48.13904" lon="16.34675">
        <ele>218.684638</ele>
        <time>2026-07-07T08:56:07.000Z</time>
      </trkpt>
      <trkpt lat="48.13899" lon="16.34671">
        <ele>218.695085</ele>
        <time>2026-07-07T08:56:08.000Z</time>
      </trkpt>
      <trkpt lat="48.13894" lon="16.34668">
        <ele>218.70599</ele>
        <time>2026-07-07T08:56:09.000Z</time>
      </trkpt>
      <trkpt lat="48.13888" lon="16.34666">
        <ele>218.716679</ele>
        <time>2026-07-07T08:56:10.000Z</time>
      </trkpt>
      <trkpt lat="48.13883" lon="16.34663">
        <ele>218.727442</ele>
        <time>2026-07-07T08:56:11.000Z</time>
      </trkpt>
      <trkpt lat="48.13878" lon="16.34661">
        <ele>218.73813</ele>
        <time>2026-07-07T08:56:12.000Z</time>
      </trkpt>
      <trkpt lat="48.13873" lon="16.34658">
        <ele>218.748673</ele>
        <time>2026-07-07T08:56:13.000Z</time>
      </trkpt>
      <trkpt lat="48.13868" lon="16.34656">
        <ele>218.759362</ele>
        <time>2026-07-07T08:56:14.000Z</time>
      </trkpt>
      <trkpt lat="48.13862" lon="16.34653">
        <ele>218.770317</ele>
        <time>2026-07-07T08:56:15.000Z</time>
      </trkpt>
      <trkpt lat="48.13857" lon="16.3465">
        <ele>218.781501</ele>
        <time>2026-07-07T08:56:16.000Z</time>
      </trkpt>
      <trkpt lat="48.13852" lon="16.34647">
        <ele>218.791994</ele>
        <time>2026-07-07T08:56:17.000Z</time>
      </trkpt>
      <trkpt lat="48.13847" lon="16.34645">
        <ele>218.802624</ele>
        <time>2026-07-07T08:56:18.000Z</time>
      </trkpt>
      <trkpt lat="48.13842" lon="16.34641">
        <ele>218.813626</ele>
        <time>2026-07-07T08:56:19.000Z</time>
      </trkpt>
      <trkpt lat="48.13836" lon="16.34638">
        <ele>218.824579</ele>
        <time>2026-07-07T08:56:20.000Z</time>
      </trkpt>
      <trkpt lat="48.13831" lon="16.34635">
        <ele>218.835668</ele>
        <time>2026-07-07T08:56:21.000Z</time>
      </trkpt>
      <trkpt lat="48.13826" lon="16.34632">
        <ele>218.846209</ele>
        <time>2026-07-07T08:56:22.000Z</time>
      </trkpt>
      <trkpt lat="48.13821" lon="16.34629">
        <ele>218.857492</ele>
        <time>2026-07-07T08:56:23.000Z</time>
      </trkpt>
      <trkpt lat="48.13816" lon="16.34626">
        <ele>218.868082</ele>
        <time>2026-07-07T08:56:24.000Z</time>
      </trkpt>
      <trkpt lat="48.13811" lon="16.34622">
        <ele>218.879186</ele>
        <time>2026-07-07T08:56:25.000Z</time>
      </trkpt>
      <trkpt lat="48.13806" lon="16.34619">
        <ele>218.889634</ele>
        <time>2026-07-07T08:56:26.000Z</time>
      </trkpt>
      <trkpt lat="48.13801" lon="16.34615">
        <ele>218.90049</ele>
        <time>2026-07-07T08:56:27.000Z</time>
      </trkpt>
      <trkpt lat="48.13796" lon="16.34612">
        <ele>218.911404</ele>
        <time>2026-07-07T08:56:28.000Z</time>
      </trkpt>
      <trkpt lat="48.13791" lon="16.34608">
        <ele>218.922028</ele>
        <time>2026-07-07T08:56:29.000Z</time>
      </trkpt>
      <trkpt lat="48.13786" lon="16.34605">
        <ele>218.932476</ele>
        <time>2026-07-07T08:56:30.000Z</time>
      </trkpt>
      <trkpt lat="48.13781" lon="16.34601">
        <ele>218.942866</ele>
        <time>2026-07-07T08:56:31.000Z</time>
      </trkpt>
      <trkpt lat="48.13777" lon="16.34597">
        <ele>218.953023</ele>
        <time>2026-07-07T08:56:32.000Z</time>
      </trkpt>
      <trkpt lat="48.13772" lon="16.34593">
        <ele>218.963882</ele>
        <time>2026-07-07T08:56:33.000Z</time>
      </trkpt>
      <trkpt lat="48.13767" lon="16.3459">
        <ele>218.974329</ele>
        <time>2026-07-07T08:56:34.000Z</time>
      </trkpt>
      <trkpt lat="48.13762" lon="16.34586">
        <ele>218.98513</ele>
        <time>2026-07-07T08:56:35.000Z</time>
      </trkpt>
      <trkpt lat="48.13757" lon="16.34583">
        <ele>218.996183</ele>
        <time>2026-07-07T08:56:36.000Z</time>
      </trkpt>
      <trkpt lat="48.13752" lon="16.3458">
        <ele>219.007004</ele>
        <time>2026-07-07T08:56:37.000Z</time>
      </trkpt>
      <trkpt lat="48.13746" lon="16.34577">
        <ele>219.018275</ele>
        <time>2026-07-07T08:56:38.000Z</time>
      </trkpt>
      <trkpt lat="48.13741" lon="16.34574">
        <ele>219.002653</ele>
        <time>2026-07-07T08:56:39.000Z</time>
      </trkpt>
      <trkpt lat="48.13736" lon="16.34571">
        <ele>218.983715</ele>
        <time>2026-07-07T08:56:40.000Z</time>
      </trkpt>
      <trkpt lat="48.13731" lon="16.34568">
        <ele>218.965236</ele>
        <time>2026-07-07T08:56:41.000Z</time>
      </trkpt>
      <trkpt lat="48.13725" lon="16.34565">
        <ele>218.946914</ele>
        <time>2026-07-07T08:56:42.000Z</time>
      </trkpt>
      <trkpt lat="48.1372" lon="16.34562">
        <ele>218.929204</ele>
        <time>2026-07-07T08:56:43.000Z</time>
      </trkpt>
      <trkpt lat="48.13715" lon="16.34559">
        <ele>218.911326</ele>
        <time>2026-07-07T08:56:44.000Z</time>
      </trkpt>
      <trkpt lat="48.1371" lon="16.34556">
        <ele>218.893616</ele>
        <time>2026-07-07T08:56:45.000Z</time>
      </trkpt>
      <trkpt lat="48.13706" lon="16.34554">
        <ele>218.87767</ele>
        <time>2026-07-07T08:56:46.000Z</time>
      </trkpt>
      <trkpt lat="48.13701" lon="16.34552">
        <ele>218.861719</ele>
        <time>2026-07-07T08:56:47.000Z</time>
      </trkpt>
      <trkpt lat="48.13697" lon="16.34551">
        <ele>218.848384</ele>
        <time>2026-07-07T08:56:48.000Z</time>
      </trkpt>
      <trkpt lat="48.13694" lon="16.34551">
        <ele>218.8368</ele>
        <time>2026-07-07T08:56:49.000Z</time>
      </trkpt>
      <trkpt lat="48.13691" lon="16.34554">
        <ele>218.825618</ele>
        <time>2026-07-07T08:56:50.000Z</time>
      </trkpt>
      <trkpt lat="48.13689" lon="16.34558">
        <ele>218.813753</ele>
        <time>2026-07-07T08:56:51.000Z</time>
      </trkpt>
      <trkpt lat="48.13687" lon="16.34564">
        <ele>218.800104</ele>
        <time>2026-07-07T08:56:52.000Z</time>
      </trkpt>
      <trkpt lat="48.13686" lon="16.3457">
        <ele>218.785893</ele>
        <time>2026-07-07T08:56:53.000Z</time>
      </trkpt>
      <trkpt lat="48.13685" lon="16.34577">
        <ele>218.770827</ele>
        <time>2026-07-07T08:56:54.000Z</time>
      </trkpt>
      <trkpt lat="48.13684" lon="16.34584">
        <ele>218.754968</ele>
        <time>2026-07-07T08:56:55.000Z</time>
      </trkpt>
      <trkpt lat="48.13683" lon="16.34591">
        <ele>218.739023</ele>
        <time>2026-07-07T08:56:56.000Z</time>
      </trkpt>
      <trkpt lat="48.13682" lon="16.34598">
        <ele>218.723743</ele>
        <time>2026-07-07T08:56:57.000Z</time>
      </trkpt>
      <trkpt lat="48.13681" lon="16.34605">
        <ele>218.708159</ele>
        <time>2026-07-07T08:56:58.000Z</time>
      </trkpt>
      <trkpt lat="48.1368" lon="16.34612">
        <ele>218.692731</ele>
        <time>2026-07-07T08:56:59.000Z</time>
      </trkpt>
      <trkpt lat="48.13679" lon="16.34619">
        <ele>218.677679</ele>
        <time>2026-07-07T08:57:00.000Z</time>
      </trkpt>
      <trkpt lat="48.13678" lon="16.34625">
        <ele>218.663755</ele>
        <time>2026-07-07T08:57:01.000Z</time>
      </trkpt>
      <trkpt lat="48.13677" lon="16.3463">
        <ele>218.651587</ele>
        <time>2026-07-07T08:57:02.000Z</time>
      </trkpt>
      <trkpt lat="48.13674" lon="16.34634">
        <ele>218.6394</ele>
        <time>2026-07-07T08:57:03.000Z</time>
      </trkpt>
      <trkpt lat="48.13671" lon="16.34638">
        <ele>218.626876</ele>
        <time>2026-07-07T08:57:04.000Z</time>
      </trkpt>
      <trkpt lat="48.13668" lon="16.3464">
        <ele>218.613638</ele>
        <time>2026-07-07T08:57:05.000Z</time>
      </trkpt>
      <trkpt lat="48.13664" lon="16.34641">
        <ele>218.600695</ele>
        <time>2026-07-07T08:57:06.000Z</time>
      </trkpt>
      <trkpt lat="48.1366" lon="16.34641">
        <ele>218.587206</ele>
        <time>2026-07-07T08:57:07.000Z</time>
      </trkpt>
      <trkpt lat="48.13655" lon="16.3464">
        <ele>218.572572</ele>
        <time>2026-07-07T08:57:08.000Z</time>
      </trkpt>
      <trkpt lat="48.13651" lon="16.34638">
        <ele>218.557257</ele>
        <time>2026-07-07T08:57:09.000Z</time>
      </trkpt>
      <trkpt lat="48.13646" lon="16.34636">
        <ele>218.541997</ele>
        <time>2026-07-07T08:57:10.000Z</time>
      </trkpt>
      <trkpt lat="48.13642" lon="16.34634">
        <ele>218.526984</ele>
        <time>2026-07-07T08:57:11.000Z</time>
      </trkpt>
      <trkpt lat="48.13637" lon="16.34632">
        <ele>218.510726</ele>
        <time>2026-07-07T08:57:12.000Z</time>
      </trkpt>
      <trkpt lat="48.13633" lon="16.3463">
        <ele>218.49422</ele>
        <time>2026-07-07T08:57:13.000Z</time>
      </trkpt>
      <trkpt lat="48.13628" lon="16.34627">
        <ele>218.477821</ele>
        <time>2026-07-07T08:57:14.000Z</time>
      </trkpt>
      <trkpt lat="48.13623" lon="16.34625">
        <ele>218.461316</ele>
        <time>2026-07-07T08:57:15.000Z</time>
      </trkpt>
      <trkpt lat="48.13618" lon="16.34623">
        <ele>218.444241</ele>
        <time>2026-07-07T08:57:16.000Z</time>
      </trkpt>
      <trkpt lat="48.13613" lon="16.3462">
        <ele>218.429824</ele>
        <time>2026-07-07T08:57:17.000Z</time>
      </trkpt>
      <trkpt lat="48.13608" lon="16.34618">
        <ele>218.455784</ele>
        <time>2026-07-07T08:57:18.000Z</time>
      </trkpt>
      <trkpt lat="48.13603" lon="16.34616">
        <ele>218.481946</ele>
        <time>2026-07-07T08:57:19.000Z</time>
      </trkpt>
      <trkpt lat="48.13598" lon="16.34613">
        <ele>218.508326</ele>
        <time>2026-07-07T08:57:20.000Z</time>
      </trkpt>
      <trkpt lat="48.13593" lon="16.3461">
        <ele>218.53414</ele>
        <time>2026-07-07T08:57:21.000Z</time>
      </trkpt>
      <trkpt lat="48.13588" lon="16.34607">
        <ele>218.560083</ele>
        <time>2026-07-07T08:57:22.000Z</time>
      </trkpt>
      <trkpt lat="48.13584" lon="16.34603">
        <ele>218.586133</ele>
        <time>2026-07-07T08:57:23.000Z</time>
      </trkpt>
      <trkpt lat="48.13579" lon="16.346">
        <ele>218.613812</ele>
        <time>2026-07-07T08:57:24.000Z</time>
      </trkpt>
      <trkpt lat="48.13574" lon="16.34596">
        <ele>218.640307</ele>
        <time>2026-07-07T08:57:25.000Z</time>
      </trkpt>
      <trkpt lat="48.13569" lon="16.34592">
        <ele>218.667986</ele>
        <time>2026-07-07T08:57:26.000Z</time>
      </trkpt>
      <trkpt lat="48.13564" lon="16.34589">
        <ele>218.695073</ele>
        <time>2026-07-07T08:57:27.000Z</time>
      </trkpt>
      <trkpt lat="48.13559" lon="16.34585">
        <ele>218.720986</ele>
        <time>2026-07-07T08:57:28.000Z</time>
      </trkpt>
      <trkpt lat="48.13555" lon="16.34581">
        <ele>218.746624</ele>
        <time>2026-07-07T08:57:29.000Z</time>
      </trkpt>
      <trkpt lat="48.1355" lon="16.34578">
        <ele>218.772674</ele>
        <time>2026-07-07T08:57:30.000Z</time>
      </trkpt>
      <trkpt lat="48.13545" lon="16.34575">
        <ele>218.798751</ele>
        <time>2026-07-07T08:57:31.000Z</time>
      </trkpt>
      <trkpt lat="48.1354" lon="16.34572">
        <ele>218.826066</ele>
        <time>2026-07-07T08:57:32.000Z</time>
      </trkpt>
      <trkpt lat="48.13535" lon="16.3457">
        <ele>218.85184</ele>
        <time>2026-07-07T08:57:33.000Z</time>
      </trkpt>
      <trkpt lat="48.1353" lon="16.34568">
        <ele>218.878406</ele>
        <time>2026-07-07T08:57:34.000Z</time>
      </trkpt>
      <trkpt lat="48.13525" lon="16.34566">
        <ele>218.904572</ele>
        <time>2026-07-07T08:57:35.000Z</time>
      </trkpt>
      <trkpt lat="48.1352" lon="16.34564">
        <ele>218.930345</ele>
        <time>2026-07-07T08:57:36.000Z</time>
      </trkpt>
      <trkpt lat="48.13515" lon="16.34562">
        <ele>218.955467</ele>
        <time>2026-07-07T08:57:37.000Z</time>
      </trkpt>
      <trkpt lat="48.1351" lon="16.3456">
        <ele>218.979874</ele>
        <time>2026-07-07T08:57:38.000Z</time>
      </trkpt>
      <trkpt lat="48.13505" lon="16.34559">
        <ele>219.003726</ele>
        <time>2026-07-07T08:57:39.000Z</time>
      </trkpt>
      <trkpt lat="48.13501" lon="16.34557">
        <ele>219.026607</ele>
        <time>2026-07-07T08:57:40.000Z</time>
      </trkpt>
      <trkpt lat="48.13496" lon="16.34556">
        <ele>219.049489</ele>
        <time>2026-07-07T08:57:41.000Z</time>
      </trkpt>
      <trkpt lat="48.13492" lon="16.34554">
        <ele>219.070638</ele>
        <time>2026-07-07T08:57:42.000Z</time>
      </trkpt>
      <trkpt lat="48.13489" lon="16.34551">
        <ele>219.090651</ele>
        <time>2026-07-07T08:57:43.000Z</time>
      </trkpt>
      <trkpt lat="48.13486" lon="16.34547">
        <ele>219.108678</ele>
        <time>2026-07-07T08:57:44.000Z</time>
      </trkpt>
      <trkpt lat="48.13484" lon="16.34544">
        <ele>219.123981</ele>
        <time>2026-07-07T08:57:45.000Z</time>
      </trkpt>
      <trkpt lat="48.13481" lon="16.34543">
        <ele>219.137391</ele>
        <time>2026-07-07T08:57:46.000Z</time>
      </trkpt>
      <trkpt lat="48.13479" lon="16.34543">
        <ele>219.149468</ele>
        <time>2026-07-07T08:57:47.000Z</time>
      </trkpt>
      <trkpt lat="48.13477" lon="16.34544">
        <ele>219.159833</ele>
        <time>2026-07-07T08:57:48.000Z</time>
      </trkpt>
      <trkpt lat="48.13475" lon="16.34544">
        <ele>219.169063</ele>
        <time>2026-07-07T08:57:49.000Z</time>
      </trkpt>
      <trkpt lat="48.13474" lon="16.34543">
        <ele>219.173365</ele>
        <time>2026-07-07T08:57:50.000Z</time>
      </trkpt>
      <trkpt lat="48.13474" lon="16.34543">
        <ele>219.175585</ele>
        <time>2026-07-07T08:57:51.000Z</time>
      </trkpt>
      <trkpt lat="48.13469" lon="16.34539">
        <ele>219.204157</ele>
        <time>2026-07-07T08:57:55.000Z</time>
      </trkpt>
      <trkpt lat="48.13466" lon="16.34538">
        <ele>219.218856</ele>
        <time>2026-07-07T08:57:56.000Z</time>
      </trkpt>
      <trkpt lat="48.13463" lon="16.34539">
        <ele>219.232569</ele>
        <time>2026-07-07T08:57:57.000Z</time>
      </trkpt>
      <trkpt lat="48.13461" lon="16.34542">
        <ele>219.248297</ele>
        <time>2026-07-07T08:57:58.000Z</time>
      </trkpt>
      <trkpt lat="48.13459" lon="16.34546">
        <ele>219.265155</ele>
        <time>2026-07-07T08:57:59.000Z</time>
      </trkpt>
      <trkpt lat="48.13457" lon="16.3455">
        <ele>219.28207</ele>
        <time>2026-07-07T08:58:00.000Z</time>
      </trkpt>
      <trkpt lat="48.13454" lon="16.34553">
        <ele>219.298001</ele>
        <time>2026-07-07T08:58:01.000Z</time>
      </trkpt>
      <trkpt lat="48.13451" lon="16.34555">
        <ele>219.314579</ele>
        <time>2026-07-07T08:58:02.000Z</time>
      </trkpt>
      <trkpt lat="48.13448" lon="16.34557">
        <ele>219.364741</ele>
        <time>2026-07-07T08:58:03.000Z</time>
      </trkpt>
      <trkpt lat="48.13445" lon="16.34558">
        <ele>219.441741</ele>
        <time>2026-07-07T08:58:04.000Z</time>
      </trkpt>
      <trkpt lat="48.13442" lon="16.34559">
        <ele>219.525398</ele>
        <time>2026-07-07T08:58:05.000Z</time>
      </trkpt>
      <trkpt lat="48.13438" lon="16.34561">
        <ele>219.61829</ele>
        <time>2026-07-07T08:58:06.000Z</time>
      </trkpt>
      <trkpt lat="48.13434" lon="16.34564">
        <ele>219.723954</ele>
        <time>2026-07-07T08:58:07.000Z</time>
      </trkpt>
      <trkpt lat="48.1343" lon="16.34566">
        <ele>219.831951</ele>
        <time>2026-07-07T08:58:08.000Z</time>
      </trkpt>
      <trkpt lat="48.13426" lon="16.34568">
        <ele>219.953112</ele>
        <time>2026-07-07T08:58:09.000Z</time>
      </trkpt>
      <trkpt lat="48.13421" lon="16.3457">
        <ele>220.078083</ele>
        <time>2026-07-07T08:58:10.000Z</time>
      </trkpt>
      <trkpt lat="48.13416" lon="16.34573">
        <ele>220.207551</ele>
        <time>2026-07-07T08:58:11.000Z</time>
      </trkpt>
      <trkpt lat="48.13411" lon="16.34575">
        <ele>220.337254</ele>
        <time>2026-07-07T08:58:12.000Z</time>
      </trkpt>
      <trkpt lat="48.13406" lon="16.34577">
        <ele>220.460803</ele>
        <time>2026-07-07T08:58:13.000Z</time>
      </trkpt>
      <trkpt lat="48.13401" lon="16.34579">
        <ele>220.585279</ele>
        <time>2026-07-07T08:58:14.000Z</time>
      </trkpt>
      <trkpt lat="48.13397" lon="16.34581">
        <ele>220.706903</ele>
        <time>2026-07-07T08:58:15.000Z</time>
      </trkpt>
      <trkpt lat="48.13392" lon="16.34584">
        <ele>220.824286</ele>
        <time>2026-07-07T08:58:16.000Z</time>
      </trkpt>
      <trkpt lat="48.13387" lon="16.34586">
        <ele>220.945447</ele>
        <time>2026-07-07T08:58:17.000Z</time>
      </trkpt>
      <trkpt lat="48.13383" lon="16.34588">
        <ele>221.06519</ele>
        <time>2026-07-07T08:58:18.000Z</time>
      </trkpt>
      <trkpt lat="48.13378" lon="16.34589">
        <ele>221.189554</ele>
        <time>2026-07-07T08:58:19.000Z</time>
      </trkpt>
      <trkpt lat="48.13373" lon="16.34591">
        <ele>221.305956</ele>
        <time>2026-07-07T08:58:20.000Z</time>
      </trkpt>
      <trkpt lat="48.13369" lon="16.34592">
        <ele>221.425479</ele>
        <time>2026-07-07T08:58:21.000Z</time>
      </trkpt>
      <trkpt lat="48.13364" lon="16.34594">
        <ele>221.547072</ele>
        <time>2026-07-07T08:58:22.000Z</time>
      </trkpt>
      <trkpt lat="48.13359" lon="16.34595">
        <ele>221.669706</ele>
        <time>2026-07-07T08:58:23.000Z</time>
      </trkpt>
      <trkpt lat="48.13354" lon="16.34596">
        <ele>221.797728</ele>
        <time>2026-07-07T08:58:24.000Z</time>
      </trkpt>
      <trkpt lat="48.13349" lon="16.34597">
        <ele>221.92113</ele>
        <time>2026-07-07T08:58:25.000Z</time>
      </trkpt>
      <trkpt lat="48.13345" lon="16.34599">
        <ele>222.019474</ele>
        <time>2026-07-07T08:58:26.000Z</time>
      </trkpt>
      <trkpt lat="48.13342" lon="16.34602">
        <ele>222.107122</ele>
        <time>2026-07-07T08:58:27.000Z</time>
      </trkpt>
      <trkpt lat="48.1334" lon="16.34605">
        <ele>222.188415</ele>
        <time>2026-07-07T08:58:28.000Z</time>
      </trkpt>
      <trkpt lat="48.13338" lon="16.34609">
        <ele>222.266792</ele>
        <time>2026-07-07T08:58:29.000Z</time>
      </trkpt>
      <trkpt lat="48.13335" lon="16.34612">
        <ele>222.343989</ele>
        <time>2026-07-07T08:58:30.000Z</time>
      </trkpt>
      <trkpt lat="48.13333" lon="16.34615">
        <ele>222.417478</ele>
        <time>2026-07-07T08:58:31.000Z</time>
      </trkpt>
      <trkpt lat="48.1333" lon="16.34617">
        <ele>222.493693</ele>
        <time>2026-07-07T08:58:32.000Z</time>
      </trkpt>
      <trkpt lat="48.13327" lon="16.34618">
        <ele>222.570694</ele>
        <time>2026-07-07T08:58:33.000Z</time>
      </trkpt>
      <trkpt lat="48.13324" lon="16.34619">
        <ele>222.652946</ele>
        <time>2026-07-07T08:58:34.000Z</time>
      </trkpt>
      <trkpt lat="48.1332" lon="16.34619">
        <ele>222.744715</ele>
        <time>2026-07-07T08:58:35.000Z</time>
      </trkpt>
      <trkpt lat="48.13317" lon="16.34619">
        <ele>222.83908</ele>
        <time>2026-07-07T08:58:36.000Z</time>
      </trkpt>
      <trkpt lat="48.13313" lon="16.34618">
        <ele>222.939153</ele>
        <time>2026-07-07T08:58:37.000Z</time>
      </trkpt>
      <trkpt lat="48.13308" lon="16.34617">
        <ele>223.043948</ele>
        <time>2026-07-07T08:58:38.000Z</time>
      </trkpt>
      <trkpt lat="48.13304" lon="16.34616">
        <ele>223.151209</ele>
        <time>2026-07-07T08:58:39.000Z</time>
      </trkpt>
      <trkpt lat="48.133" lon="16.34617">
        <ele>223.255572</ele>
        <time>2026-07-07T08:58:40.000Z</time>
      </trkpt>
      <trkpt lat="48.13296" lon="16.34618">
        <ele>223.360233</ele>
        <time>2026-07-07T08:58:41.000Z</time>
      </trkpt>
      <trkpt lat="48.13292" lon="16.3462">
        <ele>223.462454</ele>
        <time>2026-07-07T08:58:42.000Z</time>
      </trkpt>
      <trkpt lat="48.13288" lon="16.34623">
        <ele>223.55933</ele>
        <time>2026-07-07T08:58:43.000Z</time>
      </trkpt>
      <trkpt lat="48.13285" lon="16.34626">
        <ele>223.65505</ele>
        <time>2026-07-07T08:58:44.000Z</time>
      </trkpt>
      <trkpt lat="48.13282" lon="16.34629">
        <ele>223.74833</ele>
        <time>2026-07-07T08:58:45.000Z</time>
      </trkpt>
      <trkpt lat="48.13279" lon="16.34633">
        <ele>223.847992</ele>
        <time>2026-07-07T08:58:46.000Z</time>
      </trkpt>
      <trkpt lat="48.13276" lon="16.34636">
        <ele>223.940362</ele>
        <time>2026-07-07T08:58:47.000Z</time>
      </trkpt>
      <trkpt lat="48.13273" lon="16.3464">
        <ele>224.033823</ele>
        <time>2026-07-07T08:58:48.000Z</time>
      </trkpt>
      <trkpt lat="48.1327" lon="16.34644">
        <ele>224.130309</ele>
        <time>2026-07-07T08:58:49.000Z</time>
      </trkpt>
      <trkpt lat="48.13268" lon="16.34647">
        <ele>224.222679</ele>
        <time>2026-07-07T08:58:50.000Z</time>
      </trkpt>
      <trkpt lat="48.13265" lon="16.34651">
        <ele>224.313119</ele>
        <time>2026-07-07T08:58:51.000Z</time>
      </trkpt>
      <trkpt lat="48.13262" lon="16.34654">
        <ele>224.401658</ele>
        <time>2026-07-07T08:58:52.000Z</time>
      </trkpt>
      <trkpt lat="48.1326" lon="16.34658">
        <ele>224.492097</ele>
        <time>2026-07-07T08:58:53.000Z</time>
      </trkpt>
      <trkpt lat="48.13257" lon="16.34661">
        <ele>224.582339</ele>
        <time>2026-07-07T08:58:54.000Z</time>
      </trkpt>
      <trkpt lat="48.13254" lon="16.34665">
        <ele>224.675026</ele>
        <time>2026-07-07T08:58:55.000Z</time>
      </trkpt>
      <trkpt lat="48.13251" lon="16.34668">
        <ele>224.767713</ele>
        <time>2026-07-07T08:58:56.000Z</time>
      </trkpt>
      <trkpt lat="48.13249" lon="16.34672">
        <ele>224.857391</ele>
        <time>2026-07-07T08:58:57.000Z</time>
      </trkpt>
      <trkpt lat="48.13246" lon="16.34676">
        <ele>224.946405</ele>
        <time>2026-07-07T08:58:58.000Z</time>
      </trkpt>
      <trkpt lat="48.13243" lon="16.34679">
        <ele>225.040734</ele>
        <time>2026-07-07T08:58:59.000Z</time>
      </trkpt>
      <trkpt lat="48.1324" lon="16.34682">
        <ele>225.1321</ele>
        <time>2026-07-07T08:59:00.000Z</time>
      </trkpt>
      <trkpt lat="48.13237" lon="16.34685">
        <ele>225.223792</ele>
        <time>2026-07-07T08:59:01.000Z</time>
      </trkpt>
      <trkpt lat="48.13234" lon="16.34688">
        <ele>225.321268</ele>
        <time>2026-07-07T08:59:02.000Z</time>
      </trkpt>
      <trkpt lat="48.13231" lon="16.3469">
        <ele>225.4121</ele>
        <time>2026-07-07T08:59:03.000Z</time>
      </trkpt>
      <trkpt lat="48.13227" lon="16.34693">
        <ele>225.506598</ele>
        <time>2026-07-07T08:59:04.000Z</time>
      </trkpt>
      <trkpt lat="48.13224" lon="16.34694">
        <ele>225.598814</ele>
        <time>2026-07-07T08:59:05.000Z</time>
      </trkpt>
      <trkpt lat="48.1322" lon="16.34696">
        <ele>225.69103</ele>
        <time>2026-07-07T08:59:06.000Z</time>
      </trkpt>
      <trkpt lat="48.13217" lon="16.34696">
        <ele>225.788235</ele>
        <time>2026-07-07T08:59:07.000Z</time>
      </trkpt>
      <trkpt lat="48.13213" lon="16.34697">
        <ele>225.884554</ele>
        <time>2026-07-07T08:59:08.000Z</time>
      </trkpt>
      <trkpt lat="48.13209" lon="16.34696">
        <ele>225.986232</ele>
        <time>2026-07-07T08:59:09.000Z</time>
      </trkpt>
      <trkpt lat="48.13205" lon="16.34695">
        <ele>226.081471</ele>
        <time>2026-07-07T08:59:10.000Z</time>
      </trkpt>
      <trkpt lat="48.13201" lon="16.34694">
        <ele>226.177368</ele>
        <time>2026-07-07T08:59:11.000Z</time>
      </trkpt>
      <trkpt lat="48.13198" lon="16.34692">
        <ele>226.272022</ele>
        <time>2026-07-07T08:59:12.000Z</time>
      </trkpt>
      <trkpt lat="48.13194" lon="16.34691">
        <ele>226.369574</ele>
        <time>2026-07-07T08:59:13.000Z</time>
      </trkpt>
      <trkpt lat="48.13191" lon="16.34689">
        <ele>226.462777</ele>
        <time>2026-07-07T08:59:14.000Z</time>
      </trkpt>
      <trkpt lat="48.13187" lon="16.34687">
        <ele>226.56132</ele>
        <time>2026-07-07T08:59:15.000Z</time>
      </trkpt>
      <trkpt lat="48.13183" lon="16.34685">
        <ele>226.659807</ele>
        <time>2026-07-07T08:59:16.000Z</time>
      </trkpt>
      <trkpt lat="48.1318" lon="16.34683">
        <ele>226.760644</ele>
        <time>2026-07-07T08:59:17.000Z</time>
      </trkpt>
      <trkpt lat="48.13176" lon="16.34681">
        <ele>226.860284</ele>
        <time>2026-07-07T08:59:18.000Z</time>
      </trkpt>
      <trkpt lat="48.13172" lon="16.34679">
        <ele>226.96231</ele>
        <time>2026-07-07T08:59:19.000Z</time>
      </trkpt>
      <trkpt lat="48.13168" lon="16.34677">
        <ele>227.070841</ele>
        <time>2026-07-07T08:59:20.000Z</time>
      </trkpt>
      <trkpt lat="48.13164" lon="16.34674">
        <ele>227.180629</ele>
        <time>2026-07-07T08:59:21.000Z</time>
      </trkpt>
      <trkpt lat="48.1316" lon="16.34672">
        <ele>227.296288</ele>
        <time>2026-07-07T08:59:22.000Z</time>
      </trkpt>
      <trkpt lat="48.13155" lon="16.3467">
        <ele>227.416194</ele>
        <time>2026-07-07T08:59:23.000Z</time>
      </trkpt>
      <trkpt lat="48.1315" lon="16.34668">
        <ele>227.544842</ele>
        <time>2026-07-07T08:59:24.000Z</time>
      </trkpt>
      <trkpt lat="48.13145" lon="16.34666">
        <ele>227.676498</ele>
        <time>2026-07-07T08:59:25.000Z</time>
      </trkpt>
      <trkpt lat="48.1314" lon="16.34665">
        <ele>227.813955</ele>
        <time>2026-07-07T08:59:26.000Z</time>
      </trkpt>
      <trkpt lat="48.13135" lon="16.34665">
        <ele>227.948212</ele>
        <time>2026-07-07T08:59:27.000Z</time>
      </trkpt>
      <trkpt lat="48.1313" lon="16.34666">
        <ele>228.075275</ele>
        <time>2026-07-07T08:59:28.000Z</time>
      </trkpt>
      <trkpt lat="48.13125" lon="16.34667">
        <ele>228.185259</ele>
        <time>2026-07-07T08:59:29.000Z</time>
      </trkpt>
      <trkpt lat="48.13122" lon="16.34667">
        <ele>228.273919</ele>
        <time>2026-07-07T08:59:30.000Z</time>
      </trkpt>
      <trkpt lat="48.13119" lon="16.34665">
        <ele>228.321957</ele>
        <time>2026-07-07T08:59:31.000Z</time>
      </trkpt>
      <trkpt lat="48.13116" lon="16.34662">
        <ele>228.246248</ele>
        <time>2026-07-07T08:59:32.000Z</time>
      </trkpt>
      <trkpt lat="48.13115" lon="16.34657">
        <ele>228.160841</ele>
        <time>2026-07-07T08:59:33.000Z</time>
      </trkpt>
      <trkpt lat="48.13113" lon="16.34651">
        <ele>228.063678</ele>
        <time>2026-07-07T08:59:34.000Z</time>
      </trkpt>
      <trkpt lat="48.13113" lon="16.34645">
        <ele>227.962181</ele>
        <time>2026-07-07T08:59:35.000Z</time>
      </trkpt>
      <trkpt lat="48.13112" lon="16.34638">
        <ele>227.852976</ele>
        <time>2026-07-07T08:59:36.000Z</time>
      </trkpt>
      <trkpt lat="48.13112" lon="16.34631">
        <ele>227.73975</ele>
        <time>2026-07-07T08:59:37.000Z</time>
      </trkpt>
      <trkpt lat="48.13111" lon="16.34623">
        <ele>227.624994</ele>
        <time>2026-07-07T08:59:38.000Z</time>
      </trkpt>
      <trkpt lat="48.1311" lon="16.34616">
        <ele>227.506787</ele>
        <time>2026-07-07T08:59:39.000Z</time>
      </trkpt>
      <trkpt lat="48.13109" lon="16.34608">
        <ele>227.385904</ele>
        <time>2026-07-07T08:59:40.000Z</time>
      </trkpt>
      <trkpt lat="48.13108" lon="16.346">
        <ele>227.260744</ele>
        <time>2026-07-07T08:59:41.000Z</time>
      </trkpt>
      <trkpt lat="48.13108" lon="16.34592">
        <ele>227.132192</ele>
        <time>2026-07-07T08:59:42.000Z</time>
      </trkpt>
      <trkpt lat="48.13107" lon="16.34584">
        <ele>227.001359</ele>
        <time>2026-07-07T08:59:43.000Z</time>
      </trkpt>
      <trkpt lat="48.13105" lon="16.34576">
        <ele>226.87719</ele>
        <time>2026-07-07T08:59:44.000Z</time>
      </trkpt>
      <trkpt lat="48.13104" lon="16.34569">
        <ele>226.76227</ele>
        <time>2026-07-07T08:59:45.000Z</time>
      </trkpt>
      <trkpt lat="48.13101" lon="16.34563">
        <ele>226.653729</ele>
        <time>2026-07-07T08:59:46.000Z</time>
      </trkpt>
      <trkpt lat="48.13097" lon="16.34559">
        <ele>226.545841</ele>
        <time>2026-07-07T08:59:47.000Z</time>
      </trkpt>
      <trkpt lat="48.13093" lon="16.34557">
        <ele>226.439724</ele>
        <time>2026-07-07T08:59:48.000Z</time>
      </trkpt>
      <trkpt lat="48.13088" lon="16.34555">
        <ele>226.327349</ele>
        <time>2026-07-07T08:59:49.000Z</time>
      </trkpt>
      <trkpt lat="48.13083" lon="16.34553">
        <ele>226.212714</ele>
        <time>2026-07-07T08:59:50.000Z</time>
      </trkpt>
      <trkpt lat="48.13078" lon="16.34551">
        <ele>226.094678</ele>
        <time>2026-07-07T08:59:51.000Z</time>
      </trkpt>
      <trkpt lat="48.13073" lon="16.34549">
        <ele>225.973116</ele>
        <time>2026-07-07T08:59:52.000Z</time>
      </trkpt>
      <trkpt lat="48.13068" lon="16.34547">
        <ele>225.849329</ele>
        <time>2026-07-07T08:59:53.000Z</time>
      </trkpt>
      <trkpt lat="48.13063" lon="16.34545">
        <ele>225.719266</ele>
        <time>2026-07-07T08:59:54.000Z</time>
      </trkpt>
      <trkpt lat="48.13058" lon="16.34542">
        <ele>225.591021</ele>
        <time>2026-07-07T08:59:55.000Z</time>
      </trkpt>
      <trkpt lat="48.13052" lon="16.3454">
        <ele>225.461879</ele>
        <time>2026-07-07T08:59:56.000Z</time>
      </trkpt>
      <trkpt lat="48.13047" lon="16.34537">
        <ele>225.334952</ele>
        <time>2026-07-07T08:59:57.000Z</time>
      </trkpt>
      <trkpt lat="48.13042" lon="16.34535">
        <ele>225.20849</ele>
        <time>2026-07-07T08:59:58.000Z</time>
      </trkpt>
      <trkpt lat="48.13037" lon="16.34533">
        <ele>225.081462</ele>
        <time>2026-07-07T08:59:59.000Z</time>
      </trkpt>
      <trkpt lat="48.13031" lon="16.34531">
        <ele>224.954045</ele>
        <time>2026-07-07T09:00:00.000Z</time>
      </trkpt>
      <trkpt lat="48.13026" lon="16.34528">
        <ele>224.827583</ele>
        <time>2026-07-07T09:00:01.000Z</time>
      </trkpt>
      <trkpt lat="48.13021" lon="16.34526">
        <ele>224.700656</ele>
        <time>2026-07-07T09:00:02.000Z</time>
      </trkpt>
      <trkpt lat="48.13016" lon="16.34524">
        <ele>224.576869</ele>
        <time>2026-07-07T09:00:03.000Z</time>
      </trkpt>
      <trkpt lat="48.1301" lon="16.34521">
        <ele>224.446391</ele>
        <time>2026-07-07T09:00:04.000Z</time>
      </trkpt>
      <trkpt lat="48.13005" lon="16.34519">
        <ele>224.322148</ele>
        <time>2026-07-07T09:00:05.000Z</time>
      </trkpt>
      <trkpt lat="48.13" lon="16.34516">
        <ele>224.190321</ele>
        <time>2026-07-07T09:00:06.000Z</time>
      </trkpt>
      <trkpt lat="48.12995" lon="16.34514">
        <ele>224.121675</ele>
        <time>2026-07-07T09:00:07.000Z</time>
      </trkpt>
      <trkpt lat="48.12989" lon="16.34512">
        <ele>224.073228</ele>
        <time>2026-07-07T09:00:08.000Z</time>
      </trkpt>
      <trkpt lat="48.12984" lon="16.3451">
        <ele>224.025994</ele>
        <time>2026-07-07T09:00:09.000Z</time>
      </trkpt>
      <trkpt lat="48.12978" lon="16.34507">
        <ele>223.977938</ele>
        <time>2026-07-07T09:00:10.000Z</time>
      </trkpt>
      <trkpt lat="48.12973" lon="16.34505">
        <ele>223.930543</ele>
        <time>2026-07-07T09:00:11.000Z</time>
      </trkpt>
      <trkpt lat="48.12968" lon="16.34503">
        <ele>223.883309</ele>
        <time>2026-07-07T09:00:12.000Z</time>
      </trkpt>
      <trkpt lat="48.12963" lon="16.345">
        <ele>223.837056</ele>
        <time>2026-07-07T09:00:13.000Z</time>
      </trkpt>
      <trkpt lat="48.12957" lon="16.34498">
        <ele>223.790128</ele>
        <time>2026-07-07T09:00:14.000Z</time>
      </trkpt>
      <trkpt lat="48.12952" lon="16.34496">
        <ele>223.741912</ele>
        <time>2026-07-07T09:00:15.000Z</time>
      </trkpt>
      <trkpt lat="48.12947" lon="16.34494">
        <ele>223.696637</ele>
        <time>2026-07-07T09:00:16.000Z</time>
      </trkpt>
      <trkpt lat="48.12942" lon="16.34492">
        <ele>223.650681</ele>
        <time>2026-07-07T09:00:17.000Z</time>
      </trkpt>
      <trkpt lat="48.12937" lon="16.34489">
        <ele>223.605738</ele>
        <time>2026-07-07T09:00:18.000Z</time>
      </trkpt>
      <trkpt lat="48.12931" lon="16.34487">
        <ele>223.559637</ele>
        <time>2026-07-07T09:00:19.000Z</time>
      </trkpt>
      <trkpt lat="48.12926" lon="16.34485">
        <ele>223.514651</ele>
        <time>2026-07-07T09:00:20.000Z</time>
      </trkpt>
      <trkpt lat="48.12921" lon="16.34483">
        <ele>223.467035</ele>
        <time>2026-07-07T09:00:21.000Z</time>
      </trkpt>
      <trkpt lat="48.12916" lon="16.34481">
        <ele>223.422262</ele>
        <time>2026-07-07T09:00:22.000Z</time>
      </trkpt>
      <trkpt lat="48.12911" lon="16.34478">
        <ele>223.37596</ele>
        <time>2026-07-07T09:00:23.000Z</time>
      </trkpt>
      <trkpt lat="48.12906" lon="16.34476">
        <ele>223.330655</ele>
        <time>2026-07-07T09:00:24.000Z</time>
      </trkpt>
      <trkpt lat="48.12901" lon="16.34473">
        <ele>223.284759</ele>
        <time>2026-07-07T09:00:25.000Z</time>
      </trkpt>
      <trkpt lat="48.12896" lon="16.3447">
        <ele>223.238654</ele>
        <time>2026-07-07T09:00:26.000Z</time>
      </trkpt>
      <trkpt lat="48.12891" lon="16.34467">
        <ele>223.190747</ele>
        <time>2026-07-07T09:00:27.000Z</time>
      </trkpt>
      <trkpt lat="48.12886" lon="16.34464">
        <ele>223.145774</ele>
        <time>2026-07-07T09:00:28.000Z</time>
      </trkpt>
      <trkpt lat="48.12881" lon="16.3446">
        <ele>223.099787</ele>
        <time>2026-07-07T09:00:29.000Z</time>
      </trkpt>
      <trkpt lat="48.12876" lon="16.34457">
        <ele>223.05588</ele>
        <time>2026-07-07T09:00:30.000Z</time>
      </trkpt>
      <trkpt lat="48.12872" lon="16.34454">
        <ele>223.011921</ele>
        <time>2026-07-07T09:00:31.000Z</time>
      </trkpt>
      <trkpt lat="48.12867" lon="16.34451">
        <ele>222.969282</ele>
        <time>2026-07-07T09:00:32.000Z</time>
      </trkpt>
      <trkpt lat="48.12862" lon="16.34448">
        <ele>222.92555</ele>
        <time>2026-07-07T09:00:33.000Z</time>
      </trkpt>
      <trkpt lat="48.12858" lon="16.34445">
        <ele>222.883048</ele>
        <time>2026-07-07T09:00:34.000Z</time>
      </trkpt>
      <trkpt lat="48.12853" lon="16.34442">
        <ele>222.841964</ele>
        <time>2026-07-07T09:00:35.000Z</time>
      </trkpt>
      <trkpt lat="48.12848" lon="16.3444">
        <ele>222.798177</ele>
        <time>2026-07-07T09:00:36.000Z</time>
      </trkpt>
      <trkpt lat="48.12844" lon="16.34438">
        <ele>222.756665</ele>
        <time>2026-07-07T09:00:37.000Z</time>
      </trkpt>
      <trkpt lat="48.12839" lon="16.34435">
        <ele>222.713972</ele>
        <time>2026-07-07T09:00:38.000Z</time>
      </trkpt>
      <trkpt lat="48.12834" lon="16.34433">
        <ele>222.670656</ele>
        <time>2026-07-07T09:00:39.000Z</time>
      </trkpt>
      <trkpt lat="48.1283" lon="16.34431">
        <ele>222.628673</ele>
        <time>2026-07-07T09:00:40.000Z</time>
      </trkpt>
      <trkpt lat="48.12825" lon="16.34428">
        <ele>222.629955</ele>
        <time>2026-07-07T09:00:41.000Z</time>
      </trkpt>
      <trkpt lat="48.1282" lon="16.34426">
        <ele>222.647289</ele>
        <time>2026-07-07T09:00:42.000Z</time>
      </trkpt>
      <trkpt lat="48.12815" lon="16.34423">
        <ele>222.66495</ele>
        <time>2026-07-07T09:00:43.000Z</time>
      </trkpt>
      <trkpt lat="48.1281" lon="16.34421">
        <ele>222.683198</ele>
        <time>2026-07-07T09:00:44.000Z</time>
      </trkpt>
      <trkpt lat="48.12805" lon="16.34418">
        <ele>222.701592</ele>
        <time>2026-07-07T09:00:45.000Z</time>
      </trkpt>
      <trkpt lat="48.128" lon="16.34416">
        <ele>222.71984</ele>
        <time>2026-07-07T09:00:46.000Z</time>
      </trkpt>
      <trkpt lat="48.12795" lon="16.34414">
        <ele>222.738018</ele>
        <time>2026-07-07T09:00:47.000Z</time>
      </trkpt>
      <trkpt lat="48.1279" lon="16.34411">
        <ele>222.756129</ele>
        <time>2026-07-07T09:00:48.000Z</time>
      </trkpt>
      <trkpt lat="48.12785" lon="16.34409">
        <ele>222.774307</ele>
        <time>2026-07-07T09:00:49.000Z</time>
      </trkpt>
      <trkpt lat="48.1278" lon="16.34407">
        <ele>222.792153</ele>
        <time>2026-07-07T09:00:50.000Z</time>
      </trkpt>
      <trkpt lat="48.12775" lon="16.34404">
        <ele>222.810473</ele>
        <time>2026-07-07T09:00:51.000Z</time>
      </trkpt>
      <trkpt lat="48.1277" lon="16.34402">
        <ele>222.829052</ele>
        <time>2026-07-07T09:00:52.000Z</time>
      </trkpt>
      <trkpt lat="48.12765" lon="16.344">
        <ele>222.84723</ele>
        <time>2026-07-07T09:00:53.000Z</time>
      </trkpt>
      <trkpt lat="48.1276" lon="16.34397">
        <ele>222.866073</ele>
        <time>2026-07-07T09:00:54.000Z</time>
      </trkpt>
      <trkpt lat="48.12755" lon="16.34395">
        <ele>222.884393</ele>
        <time>2026-07-07T09:00:55.000Z</time>
      </trkpt>
      <trkpt lat="48.1275" lon="16.34393">
        <ele>222.902504</ele>
        <time>2026-07-07T09:00:56.000Z</time>
      </trkpt>
      <trkpt lat="48.12745" lon="16.3439">
        <ele>222.921284</ele>
        <time>2026-07-07T09:00:57.000Z</time>
      </trkpt>
      <trkpt lat="48.1274" lon="16.34388">
        <ele>222.939666</ele>
        <time>2026-07-07T09:00:58.000Z</time>
      </trkpt>
      <trkpt lat="48.12734" lon="16.34386">
        <ele>222.959309</ele>
        <time>2026-07-07T09:00:59.000Z</time>
      </trkpt>
      <trkpt lat="48.12729" lon="16.34383">
        <ele>222.978552</ele>
        <time>2026-07-07T09:01:00.000Z</time>
      </trkpt>
      <trkpt lat="48.12724" lon="16.34381">
        <ele>222.997396</ele>
        <time>2026-07-07T09:01:01.000Z</time>
      </trkpt>
      <trkpt lat="48.12719" lon="16.34379">
        <ele>223.015906</ele>
        <time>2026-07-07T09:01:02.000Z</time>
      </trkpt>
      <trkpt lat="48.12714" lon="16.34376">
        <ele>223.034887</ele>
        <time>2026-07-07T09:01:03.000Z</time>
      </trkpt>
      <trkpt lat="48.12708" lon="16.34374">
        <ele>223.053797</ele>
        <time>2026-07-07T09:01:04.000Z</time>
      </trkpt>
      <trkpt lat="48.12703" lon="16.34372">
        <ele>223.072975</ele>
        <time>2026-07-07T09:01:05.000Z</time>
      </trkpt>
      <trkpt lat="48.12698" lon="16.34369">
        <ele>223.091294</ele>
        <time>2026-07-07T09:01:06.000Z</time>
      </trkpt>
      <trkpt lat="48.12693" lon="16.34367">
        <ele>223.110074</ele>
        <time>2026-07-07T09:01:07.000Z</time>
      </trkpt>
      <trkpt lat="48.12688" lon="16.34365">
        <ele>223.128252</ele>
        <time>2026-07-07T09:01:08.000Z</time>
      </trkpt>
      <trkpt lat="48.12683" lon="16.34362">
        <ele>223.14643</ele>
        <time>2026-07-07T09:01:09.000Z</time>
      </trkpt>
      <trkpt lat="48.12678" lon="16.3436">
        <ele>223.164541</ele>
        <time>2026-07-07T09:01:10.000Z</time>
      </trkpt>
      <trkpt lat="48.12673" lon="16.34358">
        <ele>223.183052</ele>
        <time>2026-07-07T09:01:11.000Z</time>
      </trkpt>
      <trkpt lat="48.12668" lon="16.34355">
        <ele>223.202032</ele>
        <time>2026-07-07T09:01:12.000Z</time>
      </trkpt>
      <trkpt lat="48.12663" lon="16.34353">
        <ele>223.220504</ele>
        <time>2026-07-07T09:01:13.000Z</time>
      </trkpt>
      <trkpt lat="48.12658" lon="16.3435">
        <ele>223.238824</ele>
        <time>2026-07-07T09:01:14.000Z</time>
      </trkpt>
      <trkpt lat="48.12653" lon="16.34348">
        <ele>223.213491</ele>
        <time>2026-07-07T09:01:15.000Z</time>
      </trkpt>
      <trkpt lat="48.12648" lon="16.34345">
        <ele>223.179593</ele>
        <time>2026-07-07T09:01:16.000Z</time>
      </trkpt>
      <trkpt lat="48.12643" lon="16.34343">
        <ele>223.143273</ele>
        <time>2026-07-07T09:01:17.000Z</time>
      </trkpt>
      <trkpt lat="48.12638" lon="16.34341">
        <ele>223.107963</ele>
        <time>2026-07-07T09:01:18.000Z</time>
      </trkpt>
      <trkpt lat="48.12633" lon="16.34338">
        <ele>223.074204</ele>
        <time>2026-07-07T09:01:19.000Z</time>
      </trkpt>
      <trkpt lat="48.12628" lon="16.34336">
        <ele>223.041219</ele>
        <time>2026-07-07T09:01:20.000Z</time>
      </trkpt>
      <trkpt lat="48.12623" lon="16.34334">
        <ele>223.008233</ele>
        <time>2026-07-07T09:01:21.000Z</time>
      </trkpt>
      <trkpt lat="48.12618" lon="16.34332">
        <ele>222.973196</ele>
        <time>2026-07-07T09:01:22.000Z</time>
      </trkpt>
      <trkpt lat="48.12614" lon="16.34329">
        <ele>222.939437</ele>
        <time>2026-07-07T09:01:23.000Z</time>
      </trkpt>
      <trkpt lat="48.12609" lon="16.34327">
        <ele>222.905539</ele>
        <time>2026-07-07T09:01:24.000Z</time>
      </trkpt>
      <trkpt lat="48.12604" lon="16.34324">
        <ele>222.87008</ele>
        <time>2026-07-07T09:01:25.000Z</time>
      </trkpt>
      <trkpt lat="48.12599" lon="16.34321">
        <ele>222.833831</ele>
        <time>2026-07-07T09:01:26.000Z</time>
      </trkpt>
      <trkpt lat="48.12594" lon="16.34317">
        <ele>222.797048</ele>
        <time>2026-07-07T09:01:27.000Z</time>
      </trkpt>
      <trkpt lat="48.12589" lon="16.34314">
        <ele>222.759095</ele>
        <time>2026-07-07T09:01:28.000Z</time>
      </trkpt>
      <trkpt lat="48.12583" lon="16.34312">
        <ele>222.719181</ele>
        <time>2026-07-07T09:01:29.000Z</time>
      </trkpt>
      <trkpt lat="48.12577" lon="16.3431">
        <ele>222.678006</ele>
        <time>2026-07-07T09:01:30.000Z</time>
      </trkpt>
      <trkpt lat="48.12571" lon="16.34309">
        <ele>222.637456</ele>
        <time>2026-07-07T09:01:31.000Z</time>
      </trkpt>
      <trkpt lat="48.12565" lon="16.34308">
        <ele>222.595018</ele>
        <time>2026-07-07T09:01:32.000Z</time>
      </trkpt>
      <trkpt lat="48.12558" lon="16.34307">
        <ele>222.551329</ele>
        <time>2026-07-07T09:01:33.000Z</time>
      </trkpt>
      <trkpt lat="48.12552" lon="16.34305">
        <ele>222.507339</ele>
        <time>2026-07-07T09:01:34.000Z</time>
      </trkpt>
      <trkpt lat="48.12545" lon="16.34304">
        <ele>222.464534</ele>
        <time>2026-07-07T09:01:35.000Z</time>
      </trkpt>
      <trkpt lat="48.12539" lon="16.34302">
        <ele>222.423155</ele>
        <time>2026-07-07T09:01:36.000Z</time>
      </trkpt>
      <trkpt lat="48.12534" lon="16.34299">
        <ele>222.383109</ele>
        <time>2026-07-07T09:01:37.000Z</time>
      </trkpt>
      <trkpt lat="48.12528" lon="16.34296">
        <ele>222.3439</ele>
        <time>2026-07-07T09:01:38.000Z</time>
      </trkpt>
      <trkpt lat="48.12523" lon="16.34293">
        <ele>222.30469</ele>
        <time>2026-07-07T09:01:39.000Z</time>
      </trkpt>
      <trkpt lat="48.12517" lon="16.3429">
        <ele>222.265777</ele>
        <time>2026-07-07T09:01:40.000Z</time>
      </trkpt>
      <trkpt lat="48.12512" lon="16.34288">
        <ele>222.227276</ele>
        <time>2026-07-07T09:01:41.000Z</time>
      </trkpt>
      <trkpt lat="48.12506" lon="16.34285">
        <ele>222.187229</ele>
        <time>2026-07-07T09:01:42.000Z</time>
      </trkpt>
      <trkpt lat="48.125" lon="16.34282">
        <ele>222.147682</ele>
        <time>2026-07-07T09:01:43.000Z</time>
      </trkpt>
      <trkpt lat="48.12494" lon="16.34279">
        <ele>222.106356</ele>
        <time>2026-07-07T09:01:44.000Z</time>
      </trkpt>
      <trkpt lat="48.12489" lon="16.34277">
        <ele>222.065535</ele>
        <time>2026-07-07T09:01:45.000Z</time>
      </trkpt>
      <trkpt lat="48.12483" lon="16.34274">
        <ele>222.021965</ele>
        <time>2026-07-07T09:01:46.000Z</time>
      </trkpt>
      <trkpt lat="48.12477" lon="16.34271">
        <ele>221.977344</ele>
        <time>2026-07-07T09:01:47.000Z</time>
      </trkpt>
      <trkpt lat="48.12471" lon="16.34268">
        <ele>221.934286</ele>
        <time>2026-07-07T09:01:48.000Z</time>
      </trkpt>
      <trkpt lat="48.12466" lon="16.34265">
        <ele>221.89193</ele>
        <time>2026-07-07T09:01:49.000Z</time>
      </trkpt>
      <trkpt lat="48.12461" lon="16.34262">
        <ele>221.849933</ele>
        <time>2026-07-07T09:01:50.000Z</time>
      </trkpt>
      <trkpt lat="48.12455" lon="16.34259">
        <ele>221.807242</ele>
        <time>2026-07-07T09:01:51.000Z</time>
      </trkpt>
      <trkpt lat="48.1245" lon="16.34256">
        <ele>221.765585</ele>
        <time>2026-07-07T09:01:52.000Z</time>
      </trkpt>
      <trkpt lat="48.12445" lon="16.34253">
        <ele>221.72409</ele>
        <time>2026-07-07T09:01:53.000Z</time>
      </trkpt>
      <trkpt lat="48.12439" lon="16.34251">
        <ele>221.681486</ele>
        <time>2026-07-07T09:01:54.000Z</time>
      </trkpt>
      <trkpt lat="48.12434" lon="16.34248">
        <ele>221.638737</ele>
        <time>2026-07-07T09:01:55.000Z</time>
      </trkpt>
      <trkpt lat="48.12428" lon="16.34246">
        <ele>221.596539</ele>
        <time>2026-07-07T09:01:56.000Z</time>
      </trkpt>
      <trkpt lat="48.12423" lon="16.34243">
        <ele>221.556277</ele>
        <time>2026-07-07T09:01:57.000Z</time>
      </trkpt>
      <trkpt lat="48.12418" lon="16.3424">
        <ele>221.515148</ele>
        <time>2026-07-07T09:01:58.000Z</time>
      </trkpt>
      <trkpt lat="48.12413" lon="16.34237">
        <ele>221.473844</ele>
        <time>2026-07-07T09:01:59.000Z</time>
      </trkpt>
      <trkpt lat="48.12408" lon="16.34234">
        <ele>221.433047</ele>
        <time>2026-07-07T09:02:00.000Z</time>
      </trkpt>
      <trkpt lat="48.12403" lon="16.34231">
        <ele>221.393123</ele>
        <time>2026-07-07T09:02:01.000Z</time>
      </trkpt>
      <trkpt lat="48.12397" lon="16.34228">
        <ele>221.350432</ele>
        <time>2026-07-07T09:02:02.000Z</time>
      </trkpt>
      <trkpt lat="48.12392" lon="16.34225">
        <ele>221.309447</ele>
        <time>2026-07-07T09:02:03.000Z</time>
      </trkpt>
      <trkpt lat="48.12387" lon="16.34221">
        <ele>221.266218</ele>
        <time>2026-07-07T09:02:04.000Z</time>
      </trkpt>
      <trkpt lat="48.12382" lon="16.34218">
        <ele>221.225309</ele>
        <time>2026-07-07T09:02:05.000Z</time>
      </trkpt>
      <trkpt lat="48.12377" lon="16.34214">
        <ele>221.183524</ele>
        <time>2026-07-07T09:02:06.000Z</time>
      </trkpt>
      <trkpt lat="48.12372" lon="16.3421">
        <ele>221.143735</ele>
        <time>2026-07-07T09:02:07.000Z</time>
      </trkpt>
      <trkpt lat="48.12367" lon="16.34207">
        <ele>221.104379</ele>
        <time>2026-07-07T09:02:08.000Z</time>
      </trkpt>
      <trkpt lat="48.12363" lon="16.34203">
        <ele>221.064137</ele>
        <time>2026-07-07T09:02:09.000Z</time>
      </trkpt>
      <trkpt lat="48.12358" lon="16.34198">
        <ele>221.025538</ele>
        <time>2026-07-07T09:02:10.000Z</time>
      </trkpt>
      <trkpt lat="48.12354" lon="16.34194">
        <ele>220.986497</ele>
        <time>2026-07-07T09:02:11.000Z</time>
      </trkpt>
      <trkpt lat="48.12349" lon="16.34191">
        <ele>220.949096</ele>
        <time>2026-07-07T09:02:12.000Z</time>
      </trkpt>
      <trkpt lat="48.12345" lon="16.34187">
        <ele>220.913506</ele>
        <time>2026-07-07T09:02:13.000Z</time>
      </trkpt>
      <trkpt lat="48.12341" lon="16.34184">
        <ele>220.879016</ele>
        <time>2026-07-07T09:02:14.000Z</time>
      </trkpt>
      <trkpt lat="48.12337" lon="16.34182">
        <ele>220.844644</ele>
        <time>2026-07-07T09:02:15.000Z</time>
      </trkpt>
      <trkpt lat="48.12333" lon="16.3418">
        <ele>220.815652</ele>
        <time>2026-07-07T09:02:16.000Z</time>
      </trkpt>
      <trkpt lat="48.12329" lon="16.34178">
        <ele>220.788222</ele>
        <time>2026-07-07T09:02:17.000Z</time>
      </trkpt>
      <trkpt lat="48.12326" lon="16.34176">
        <ele>220.763752</ele>
        <time>2026-07-07T09:02:18.000Z</time>
      </trkpt>
      <trkpt lat="48.12324" lon="16.34175">
        <ele>220.741847</ele>
        <time>2026-07-07T09:02:19.000Z</time>
      </trkpt>
      <trkpt lat="48.12321" lon="16.34173">
        <ele>220.723252</ele>
        <time>2026-07-07T09:02:20.000Z</time>
      </trkpt>
      <trkpt lat="48.12319" lon="16.34172">
        <ele>220.707968</ele>
        <time>2026-07-07T09:02:21.000Z</time>
      </trkpt>
      <trkpt lat="48.12318" lon="16.3417">
        <ele>220.702748</ele>
        <time>2026-07-07T09:02:22.000Z</time>
      </trkpt>
      <trkpt lat="48.12316" lon="16.34169">
        <ele>220.701166</ele>
        <time>2026-07-07T09:02:23.000Z</time>
      </trkpt>
      <trkpt lat="48.12315" lon="16.34169">
        <ele>220.69955</ele>
        <time>2026-07-07T09:02:24.000Z</time>
      </trkpt>
      <trkpt lat="48.12313" lon="16.3417">
        <ele>220.697589</ele>
        <time>2026-07-07T09:02:25.000Z</time>
      </trkpt>
      <trkpt lat="48.12311" lon="16.34172">
        <ele>220.695345</ele>
        <time>2026-07-07T09:02:26.000Z</time>
      </trkpt>
      <trkpt lat="48.12309" lon="16.34175">
        <ele>220.692619</ele>
        <time>2026-07-07T09:02:27.000Z</time>
      </trkpt>
      <trkpt lat="48.12307" lon="16.34179">
        <ele>220.68962</ele>
        <time>2026-07-07T09:02:28.000Z</time>
      </trkpt>
      <trkpt lat="48.12305" lon="16.34183">
        <ele>220.686305</ele>
        <time>2026-07-07T09:02:29.000Z</time>
      </trkpt>
      <trkpt lat="48.12303" lon="16.34188">
        <ele>220.682756</ele>
        <time>2026-07-07T09:02:30.000Z</time>
      </trkpt>
      <trkpt lat="48.12302" lon="16.34193">
        <ele>220.679115</ele>
        <time>2026-07-07T09:02:31.000Z</time>
      </trkpt>
      <trkpt lat="48.123" lon="16.34199">
        <ele>220.675358</ele>
        <time>2026-07-07T09:02:32.000Z</time>
      </trkpt>
      <trkpt lat="48.12299" lon="16.34205">
        <ele>220.671482</ele>
        <time>2026-07-07T09:02:33.000Z</time>
      </trkpt>
      <trkpt lat="48.12297" lon="16.34211">
        <ele>220.667493</ele>
        <time>2026-07-07T09:02:34.000Z</time>
      </trkpt>
      <trkpt lat="48.12296" lon="16.34217">
        <ele>220.663322</ele>
        <time>2026-07-07T09:02:35.000Z</time>
      </trkpt>
      <trkpt lat="48.12294" lon="16.34223">
        <ele>220.659091</ele>
        <time>2026-07-07T09:02:36.000Z</time>
      </trkpt>
      <trkpt lat="48.12292" lon="16.3423">
        <ele>220.654565</ele>
        <time>2026-07-07T09:02:37.000Z</time>
      </trkpt>
      <trkpt lat="48.1229" lon="16.34236">
        <ele>220.649961</ele>
        <time>2026-07-07T09:02:38.000Z</time>
      </trkpt>
      <trkpt lat="48.12288" lon="16.34243">
        <ele>220.645261</ele>
        <time>2026-07-07T09:02:39.000Z</time>
      </trkpt>
      <trkpt lat="48.12287" lon="16.3425">
        <ele>220.640398</ele>
        <time>2026-07-07T09:02:40.000Z</time>
      </trkpt>
      <trkpt lat="48.12285" lon="16.34258">
        <ele>220.635508</ele>
        <time>2026-07-07T09:02:41.000Z</time>
      </trkpt>
      <trkpt lat="48.12283" lon="16.34265">
        <ele>220.630518</ele>
        <time>2026-07-07T09:02:42.000Z</time>
      </trkpt>
      <trkpt lat="48.12281" lon="16.34272">
        <ele>220.625297</ele>
        <time>2026-07-07T09:02:43.000Z</time>
      </trkpt>
      <trkpt lat="48.12278" lon="16.3428">
        <ele>220.62</ele>
        <time>2026-07-07T09:02:44.000Z</time>
      </trkpt>
      <trkpt lat="48.12276" lon="16.34288">
        <ele>220.614739</ele>
        <time>2026-07-07T09:02:45.000Z</time>
      </trkpt>
      <trkpt lat="48.12274" lon="16.34296">
        <ele>220.609267</ele>
        <time>2026-07-07T09:02:46.000Z</time>
      </trkpt>
      <trkpt lat="48.12272" lon="16.34303">
        <ele>220.604028</ele>
        <time>2026-07-07T09:02:47.000Z</time>
      </trkpt>
      <trkpt lat="48.1227" lon="16.34311">
        <ele>220.598577</ele>
        <time>2026-07-07T09:02:48.000Z</time>
      </trkpt>
      <trkpt lat="48.12267" lon="16.34319">
        <ele>220.59299</ele>
        <time>2026-07-07T09:02:49.000Z</time>
      </trkpt>
      <trkpt lat="48.12265" lon="16.34327">
        <ele>220.587517</ele>
        <time>2026-07-07T09:02:50.000Z</time>
      </trkpt>
      <trkpt lat="48.12262" lon="16.34335">
        <ele>220.581892</ele>
        <time>2026-07-07T09:02:51.000Z</time>
      </trkpt>
      <trkpt lat="48.1226" lon="16.34344">
        <ele>220.576244</ele>
        <time>2026-07-07T09:02:52.000Z</time>
      </trkpt>
      <trkpt lat="48.12258" lon="16.34352">
        <ele>220.570595</ele>
        <time>2026-07-07T09:02:53.000Z</time>
      </trkpt>
      <trkpt lat="48.12256" lon="16.3436">
        <ele>220.564863</ele>
        <time>2026-07-07T09:02:54.000Z</time>
      </trkpt>
      <trkpt lat="48.12254" lon="16.34369">
        <ele>220.559156</ele>
        <time>2026-07-07T09:02:55.000Z</time>
      </trkpt>
      <trkpt lat="48.12251" lon="16.34377">
        <ele>220.553355</ele>
        <time>2026-07-07T09:02:56.000Z</time>
      </trkpt>
      <trkpt lat="48.12249" lon="16.34386">
        <ele>220.54746</ele>
        <time>2026-07-07T09:02:57.000Z</time>
      </trkpt>
      <trkpt lat="48.12247" lon="16.34394">
        <ele>220.541659</ele>
        <time>2026-07-07T09:02:58.000Z</time>
      </trkpt>
      <trkpt lat="48.12244" lon="16.34403">
        <ele>220.535668</ele>
        <time>2026-07-07T09:02:59.000Z</time>
      </trkpt>
      <trkpt lat="48.12242" lon="16.34412">
        <ele>220.488762</ele>
        <time>2026-07-07T09:03:00.000Z</time>
      </trkpt>
      <trkpt lat="48.12239" lon="16.34421">
        <ele>220.419005</ele>
        <time>2026-07-07T09:03:01.000Z</time>
      </trkpt>
      <trkpt lat="48.12237" lon="16.3443">
        <ele>220.349765</ele>
        <time>2026-07-07T09:03:02.000Z</time>
      </trkpt>
      <trkpt lat="48.12235" lon="16.34439">
        <ele>220.280552</ele>
        <time>2026-07-07T09:03:03.000Z</time>
      </trkpt>
      <trkpt lat="48.12233" lon="16.34448">
        <ele>220.210653</ele>
        <time>2026-07-07T09:03:04.000Z</time>
      </trkpt>
      <trkpt lat="48.12231" lon="16.34457">
        <ele>220.142767</ele>
        <time>2026-07-07T09:03:05.000Z</time>
      </trkpt>
      <trkpt lat="48.12229" lon="16.34466">
        <ele>220.073821</ele>
        <time>2026-07-07T09:03:06.000Z</time>
      </trkpt>
      <trkpt lat="48.12226" lon="16.34475">
        <ele>220.004729</ele>
        <time>2026-07-07T09:03:07.000Z</time>
      </trkpt>
      <trkpt lat="48.12223" lon="16.34484">
        <ele>219.931684</ele>
        <time>2026-07-07T09:03:08.000Z</time>
      </trkpt>
      <trkpt lat="48.1222" lon="16.34493">
        <ele>219.857064</ele>
        <time>2026-07-07T09:03:09.000Z</time>
      </trkpt>
      <trkpt lat="48.12217" lon="16.34502">
        <ele>219.782445</ele>
        <time>2026-07-07T09:03:10.000Z</time>
      </trkpt>
      <trkpt lat="48.12214" lon="16.34512">
        <ele>219.705213</ele>
        <time>2026-07-07T09:03:11.000Z</time>
      </trkpt>
      <trkpt lat="48.12211" lon="16.34522">
        <ele>219.627325</ele>
        <time>2026-07-07T09:03:12.000Z</time>
      </trkpt>
      <trkpt lat="48.12208" lon="16.34532">
        <ele>219.546802</ele>
        <time>2026-07-07T09:03:13.000Z</time>
      </trkpt>
      <trkpt lat="48.12205" lon="16.34542">
        <ele>219.465728</ele>
        <time>2026-07-07T09:03:14.000Z</time>
      </trkpt>
      <trkpt lat="48.12202" lon="16.34552">
        <ele>219.385139</ele>
        <time>2026-07-07T09:03:15.000Z</time>
      </trkpt>
      <trkpt lat="48.12198" lon="16.34562">
        <ele>219.303719</ele>
        <time>2026-07-07T09:03:16.000Z</time>
      </trkpt>
      <trkpt lat="48.12195" lon="16.34573">
        <ele>219.221181</ele>
        <time>2026-07-07T09:03:17.000Z</time>
      </trkpt>
      <trkpt lat="48.12192" lon="16.34583">
        <ele>219.137684</ele>
        <time>2026-07-07T09:03:18.000Z</time>
      </trkpt>
      <trkpt lat="48.12188" lon="16.34593">
        <ele>219.054495</ele>
        <time>2026-07-07T09:03:19.000Z</time>
      </trkpt>
      <trkpt lat="48.12185" lon="16.34604">
        <ele>218.971484</ele>
        <time>2026-07-07T09:03:20.000Z</time>
      </trkpt>
      <trkpt lat="48.12182" lon="16.34614">
        <ele>218.888946</ele>
        <time>2026-07-07T09:03:21.000Z</time>
      </trkpt>
      <trkpt lat="48.12178" lon="16.34624">
        <ele>218.805559</ele>
        <time>2026-07-07T09:03:22.000Z</time>
      </trkpt>
      <trkpt lat="48.12175" lon="16.34635">
        <ele>218.724593</ele>
        <time>2026-07-07T09:03:23.000Z</time>
      </trkpt>
      <trkpt lat="48.12172" lon="16.34645">
        <ele>218.643021</ele>
        <time>2026-07-07T09:03:24.000Z</time>
      </trkpt>
      <trkpt lat="48.12168" lon="16.34655">
        <ele>218.568906</ele>
        <time>2026-07-07T09:03:25.000Z</time>
      </trkpt>
      <trkpt lat="48.12165" lon="16.34664">
        <ele>218.511564</ele>
        <time>2026-07-07T09:03:26.000Z</time>
      </trkpt>
      <trkpt lat="48.12162" lon="16.34674">
        <ele>218.454688</ele>
        <time>2026-07-07T09:03:27.000Z</time>
      </trkpt>
      <trkpt lat="48.12159" lon="16.34684">
        <ele>218.400115</ele>
        <time>2026-07-07T09:03:28.000Z</time>
      </trkpt>
      <trkpt lat="48.12156" lon="16.34693">
        <ele>218.348223</ele>
        <time>2026-07-07T09:03:29.000Z</time>
      </trkpt>
      <trkpt lat="48.12154" lon="16.34701">
        <ele>218.302827</ele>
        <time>2026-07-07T09:03:30.000Z</time>
      </trkpt>
      <trkpt lat="48.12152" lon="16.34708">
        <ele>218.260784</ele>
        <time>2026-07-07T09:03:31.000Z</time>
      </trkpt>
      <trkpt lat="48.12149" lon="16.34713">
        <ele>218.226881</ele>
        <time>2026-07-07T09:03:32.000Z</time>
      </trkpt>
      <trkpt lat="48.12147" lon="16.34717">
        <ele>218.198674</ele>
        <time>2026-07-07T09:03:33.000Z</time>
      </trkpt>
      <trkpt lat="48.12144" lon="16.34718">
        <ele>218.176147</ele>
        <time>2026-07-07T09:03:34.000Z</time>
      </trkpt>
      <trkpt lat="48.1214" lon="16.34717">
        <ele>218.146723</ele>
        <time>2026-07-07T09:03:35.000Z</time>
      </trkpt>
      <trkpt lat="48.12136" lon="16.34714">
        <ele>218.113002</ele>
        <time>2026-07-07T09:03:36.000Z</time>
      </trkpt>
      <trkpt lat="48.12131" lon="16.34712">
        <ele>218.073418</ele>
        <time>2026-07-07T09:03:37.000Z</time>
      </trkpt>
      <trkpt lat="48.12126" lon="16.34708">
        <ele>218.030659</ele>
        <time>2026-07-07T09:03:38.000Z</time>
      </trkpt>
      <trkpt lat="48.12121" lon="16.34705">
        <ele>217.98533</ele>
        <time>2026-07-07T09:03:39.000Z</time>
      </trkpt>
      <trkpt lat="48.12116" lon="16.34701">
        <ele>217.940928</ele>
        <time>2026-07-07T09:03:40.000Z</time>
      </trkpt>
      <trkpt lat="48.12111" lon="16.34698">
        <ele>217.896806</ele>
        <time>2026-07-07T09:03:41.000Z</time>
      </trkpt>
      <trkpt lat="48.12106" lon="16.34694">
        <ele>217.85269</ele>
        <time>2026-07-07T09:03:42.000Z</time>
      </trkpt>
      <trkpt lat="48.12101" lon="16.3469">
        <ele>217.810893</ele>
        <time>2026-07-07T09:03:43.000Z</time>
      </trkpt>
      <trkpt lat="48.12097" lon="16.34686">
        <ele>217.77072</ele>
        <time>2026-07-07T09:03:44.000Z</time>
      </trkpt>
      <trkpt lat="48.12092" lon="16.34683">
        <ele>217.734078</ele>
        <time>2026-07-07T09:03:45.000Z</time>
      </trkpt>
      <trkpt lat="48.12089" lon="16.34681">
        <ele>217.702195</ele>
        <time>2026-07-07T09:03:46.000Z</time>
      </trkpt>
      <trkpt lat="48.12084" lon="16.34681">
        <ele>217.669289</ele>
        <time>2026-07-07T09:03:47.000Z</time>
      </trkpt>
      <trkpt lat="48.12081" lon="16.34683">
        <ele>217.637769</ele>
        <time>2026-07-07T09:03:48.000Z</time>
      </trkpt>
      <trkpt lat="48.12077" lon="16.34687">
        <ele>217.60394</ele>
        <time>2026-07-07T09:03:49.000Z</time>
      </trkpt>
      <trkpt lat="48.12074" lon="16.34692">
        <ele>217.566968</ele>
        <time>2026-07-07T09:03:50.000Z</time>
      </trkpt>
      <trkpt lat="48.12072" lon="16.34699">
        <ele>217.527491</ele>
        <time>2026-07-07T09:03:51.000Z</time>
      </trkpt>
      <trkpt lat="48.12071" lon="16.34707">
        <ele>217.485853</ele>
        <time>2026-07-07T09:03:52.000Z</time>
      </trkpt>
      <trkpt lat="48.12069" lon="16.34715">
        <ele>217.441224</ele>
        <time>2026-07-07T09:03:53.000Z</time>
      </trkpt>
      <trkpt lat="48.12066" lon="16.34723">
        <ele>217.394275</ele>
        <time>2026-07-07T09:03:54.000Z</time>
      </trkpt>
      <trkpt lat="48.12064" lon="16.34731">
        <ele>217.346039</ele>
        <time>2026-07-07T09:03:55.000Z</time>
      </trkpt>
      <trkpt lat="48.12061" lon="16.3474">
        <ele>217.297991</ele>
        <time>2026-07-07T09:03:56.000Z</time>
      </trkpt>
      <trkpt lat="48.12058" lon="16.34748">
        <ele>217.248813</ele>
        <time>2026-07-07T09:03:57.000Z</time>
      </trkpt>
      <trkpt lat="48.12056" lon="16.34757">
        <ele>217.199491</ele>
        <time>2026-07-07T09:03:58.000Z</time>
      </trkpt>
      <trkpt lat="48.12053" lon="16.34765">
        <ele>217.169437</ele>
        <time>2026-07-07T09:03:59.000Z</time>
      </trkpt>
      <trkpt lat="48.1205" lon="16.34774">
        <ele>217.152149</ele>
        <time>2026-07-07T09:04:00.000Z</time>
      </trkpt>
      <trkpt lat="48.12047" lon="16.34783">
        <ele>217.135019</ele>
        <time>2026-07-07T09:04:01.000Z</time>
      </trkpt>
      <trkpt lat="48.12045" lon="16.34792">
        <ele>217.118001</ele>
        <time>2026-07-07T09:04:02.000Z</time>
      </trkpt>
      <trkpt lat="48.12042" lon="16.34801">
        <ele>217.100325</ele>
        <time>2026-07-07T09:04:03.000Z</time>
      </trkpt>
      <trkpt lat="48.12039" lon="16.3481">
        <ele>217.083036</ele>
        <time>2026-07-07T09:04:04.000Z</time>
      </trkpt>
      <trkpt lat="48.12036" lon="16.34819">
        <ele>217.065538</ele>
        <time>2026-07-07T09:04:05.000Z</time>
      </trkpt>
      <trkpt lat="48.12033" lon="16.34828">
        <ele>217.047879</ele>
        <time>2026-07-07T09:04:06.000Z</time>
      </trkpt>
      <trkpt lat="48.12031" lon="16.34837">
        <ele>217.030162</ele>
        <time>2026-07-07T09:04:07.000Z</time>
      </trkpt>
      <trkpt lat="48.12028" lon="16.34847">
        <ele>217.012382</ele>
        <time>2026-07-07T09:04:08.000Z</time>
      </trkpt>
      <trkpt lat="48.12026" lon="16.34856">
        <ele>216.994562</ele>
        <time>2026-07-07T09:04:09.000Z</time>
      </trkpt>
      <trkpt lat="48.12023" lon="16.34865">
        <ele>216.9773</ele>
        <time>2026-07-07T09:04:10.000Z</time>
      </trkpt>
      <trkpt lat="48.12021" lon="16.34874">
        <ele>216.960459</ele>
        <time>2026-07-07T09:04:11.000Z</time>
      </trkpt>
      <trkpt lat="48.12019" lon="16.34883">
        <ele>216.943617</ele>
        <time>2026-07-07T09:04:12.000Z</time>
      </trkpt>
      <trkpt lat="48.12017" lon="16.34892">
        <ele>216.926698</ele>
        <time>2026-07-07T09:04:13.000Z</time>
      </trkpt>
      <trkpt lat="48.12015" lon="16.34902">
        <ele>216.909697</ele>
        <time>2026-07-07T09:04:14.000Z</time>
      </trkpt>
      <trkpt lat="48.12013" lon="16.34911">
        <ele>216.893029</ele>
        <time>2026-07-07T09:04:15.000Z</time>
      </trkpt>
      <trkpt lat="48.12011" lon="16.34919">
        <ele>216.877278</ele>
        <time>2026-07-07T09:04:16.000Z</time>
      </trkpt>
      <trkpt lat="48.12009" lon="16.34927">
        <ele>216.863087</ele>
        <time>2026-07-07T09:04:17.000Z</time>
      </trkpt>
      <trkpt lat="48.12006" lon="16.34932">
        <ele>216.850194</ele>
        <time>2026-07-07T09:04:18.000Z</time>
      </trkpt>
      <trkpt lat="48.12002" lon="16.34936">
        <ele>216.838001</ele>
        <time>2026-07-07T09:04:19.000Z</time>
      </trkpt>
      <trkpt lat="48.11998" lon="16.34936">
        <ele>216.827173</ele>
        <time>2026-07-07T09:04:20.000Z</time>
      </trkpt>
      <trkpt lat="48.11993" lon="16.34934">
        <ele>216.814312</ele>
        <time>2026-07-07T09:04:21.000Z</time>
      </trkpt>
      <trkpt lat="48.11988" lon="16.34931">
        <ele>216.800795</ele>
        <time>2026-07-07T09:04:22.000Z</time>
      </trkpt>
      <trkpt lat="48.11984" lon="16.34928">
        <ele>216.786819</ele>
        <time>2026-07-07T09:04:23.000Z</time>
      </trkpt>
      <trkpt lat="48.11979" lon="16.34924">
        <ele>216.772061</ele>
        <time>2026-07-07T09:04:24.000Z</time>
      </trkpt>
      <trkpt lat="48.11973" lon="16.3492">
        <ele>216.75667</ele>
        <time>2026-07-07T09:04:25.000Z</time>
      </trkpt>
      <trkpt lat="48.11968" lon="16.34917">
        <ele>216.741112</ele>
        <time>2026-07-07T09:04:26.000Z</time>
      </trkpt>
      <trkpt lat="48.11962" lon="16.34913">
        <ele>216.725242</ele>
        <time>2026-07-07T09:04:27.000Z</time>
      </trkpt>
      <trkpt lat="48.11957" lon="16.3491">
        <ele>216.709513</ele>
        <time>2026-07-07T09:04:28.000Z</time>
      </trkpt>
      <trkpt lat="48.11951" lon="16.34906">
        <ele>216.727443</ele>
        <time>2026-07-07T09:04:29.000Z</time>
      </trkpt>
      <trkpt lat="48.11946" lon="16.34902">
        <ele>216.754606</ele>
        <time>2026-07-07T09:04:30.000Z</time>
      </trkpt>
      <trkpt lat="48.1194" lon="16.34899">
        <ele>216.782475</ele>
        <time>2026-07-07T09:04:31.000Z</time>
      </trkpt>
      <trkpt lat="48.11934" lon="16.34895">
        <ele>216.810876</ele>
        <time>2026-07-07T09:04:32.000Z</time>
      </trkpt>
      <trkpt lat="48.11929" lon="16.34892">
        <ele>216.837798</ele>
        <time>2026-07-07T09:04:33.000Z</time>
      </trkpt>
      <trkpt lat="48.11923" lon="16.34888">
        <ele>216.86455</ele>
        <time>2026-07-07T09:04:34.000Z</time>
      </trkpt>
      <trkpt lat="48.11918" lon="16.34884">
        <ele>216.890645</ele>
        <time>2026-07-07T09:04:35.000Z</time>
      </trkpt>
      <trkpt lat="48.11913" lon="16.34881">
        <ele>216.915261</ele>
        <time>2026-07-07T09:04:36.000Z</time>
      </trkpt>
      <trkpt lat="48.11908" lon="16.34878">
        <ele>216.939526</ele>
        <time>2026-07-07T09:04:37.000Z</time>
      </trkpt>
      <trkpt lat="48.11903" lon="16.34875">
        <ele>216.963471</ele>
        <time>2026-07-07T09:04:38.000Z</time>
      </trkpt>
      <trkpt lat="48.11898" lon="16.34873">
        <ele>216.986467</ele>
        <time>2026-07-07T09:04:39.000Z</time>
      </trkpt>
      <trkpt lat="48.11893" lon="16.3487">
        <ele>217.009989</ele>
        <time>2026-07-07T09:04:40.000Z</time>
      </trkpt>
      <trkpt lat="48.11889" lon="16.34868">
        <ele>217.03221</ele>
        <time>2026-07-07T09:04:41.000Z</time>
      </trkpt>
      <trkpt lat="48.11884" lon="16.34868">
        <ele>217.054808</ele>
        <time>2026-07-07T09:04:42.000Z</time>
      </trkpt>
      <trkpt lat="48.11879" lon="16.34867">
        <ele>217.076155</ele>
        <time>2026-07-07T09:04:43.000Z</time>
      </trkpt>
      <trkpt lat="48.11874" lon="16.34865">
        <ele>217.097302</ele>
        <time>2026-07-07T09:04:44.000Z</time>
      </trkpt>
      <trkpt lat="48.11871" lon="16.34862">
        <ele>217.116654</ele>
        <time>2026-07-07T09:04:45.000Z</time>
      </trkpt>
      <trkpt lat="48.11868" lon="16.34857">
        <ele>217.135076</ele>
        <time>2026-07-07T09:04:46.000Z</time>
      </trkpt>
      <trkpt lat="48.11866" lon="16.34851">
        <ele>217.154229</ele>
        <time>2026-07-07T09:04:47.000Z</time>
      </trkpt>
      <trkpt lat="48.11865" lon="16.34845">
        <ele>217.173606</ele>
        <time>2026-07-07T09:04:48.000Z</time>
      </trkpt>
      <trkpt lat="48.11865" lon="16.34839">
        <ele>217.192448</ele>
        <time>2026-07-07T09:04:49.000Z</time>
      </trkpt>
      <trkpt lat="48.11864" lon="16.34833">
        <ele>217.211529</ele>
        <time>2026-07-07T09:04:50.000Z</time>
      </trkpt>
      <trkpt lat="48.11864" lon="16.34826">
        <ele>217.231686</ele>
        <time>2026-07-07T09:04:51.000Z</time>
      </trkpt>
      <trkpt lat="48.11865" lon="16.34819">
        <ele>217.253059</ele>
        <time>2026-07-07T09:04:52.000Z</time>
      </trkpt>
      <trkpt lat="48.11865" lon="16.34811">
        <ele>217.276257</ele>
        <time>2026-07-07T09:04:53.000Z</time>
      </trkpt>
      <trkpt lat="48.11865" lon="16.34803">
        <ele>217.299824</ele>
        <time>2026-07-07T09:04:54.000Z</time>
      </trkpt>
      <trkpt lat="48.11866" lon="16.34795">
        <ele>217.323793</ele>
        <time>2026-07-07T09:04:55.000Z</time>
      </trkpt>
      <trkpt lat="48.11867" lon="16.34788">
        <ele>217.347463</ele>
        <time>2026-07-07T09:04:56.000Z</time>
      </trkpt>
      <trkpt lat="48.11868" lon="16.3478">
        <ele>217.371793</ele>
        <time>2026-07-07T09:04:57.000Z</time>
      </trkpt>
      <trkpt lat="48.11868" lon="16.34772">
        <ele>217.394462</ele>
        <time>2026-07-07T09:04:58.000Z</time>
      </trkpt>
      <trkpt lat="48.11869" lon="16.34765">
        <ele>217.416346</ele>
        <time>2026-07-07T09:04:59.000Z</time>
      </trkpt>
      <trkpt lat="48.11869" lon="16.34758">
        <ele>217.437519</ele>
        <time>2026-07-07T09:05:00.000Z</time>
      </trkpt>
      <trkpt lat="48.1187" lon="16.34751">
        <ele>217.457553</ele>
        <time>2026-07-07T09:05:01.000Z</time>
      </trkpt>
      <trkpt lat="48.1187" lon="16.34744">
        <ele>217.478427</ele>
        <time>2026-07-07T09:05:02.000Z</time>
      </trkpt>
      <trkpt lat="48.11871" lon="16.34738">
        <ele>217.498405</ele>
        <time>2026-07-07T09:05:03.000Z</time>
      </trkpt>
      <trkpt lat="48.11872" lon="16.34731">
        <ele>217.517294</ele>
        <time>2026-07-07T09:05:04.000Z</time>
      </trkpt>
      <trkpt lat="48.11873" lon="16.34725">
        <ele>217.527509</ele>
        <time>2026-07-07T09:05:05.000Z</time>
      </trkpt>
      <trkpt lat="48.11874" lon="16.34718">
        <ele>217.53764</ele>
        <time>2026-07-07T09:05:06.000Z</time>
      </trkpt>
      <trkpt lat="48.11875" lon="16.34712">
        <ele>217.547007</ele>
        <time>2026-07-07T09:05:07.000Z</time>
      </trkpt>
      <trkpt lat="48.11875" lon="16.34706">
        <ele>217.556559</ele>
        <time>2026-07-07T09:05:08.000Z</time>
      </trkpt>
      <trkpt lat="48.11873" lon="16.347">
        <ele>217.56642</ele>
        <time>2026-07-07T09:05:09.000Z</time>
      </trkpt>
      <trkpt lat="48.11869" lon="16.34696">
        <ele>217.576884</ele>
        <time>2026-07-07T09:05:10.000Z</time>
      </trkpt>
      <trkpt lat="48.11865" lon="16.34693">
        <ele>217.588121</ele>
        <time>2026-07-07T09:05:11.000Z</time>
      </trkpt>
      <trkpt lat="48.1186" lon="16.3469">
        <ele>217.599966</ele>
        <time>2026-07-07T09:05:12.000Z</time>
      </trkpt>
      <trkpt lat="48.11855" lon="16.34688">
        <ele>217.61214</ele>
        <time>2026-07-07T09:05:13.000Z</time>
      </trkpt>
      <trkpt lat="48.1185" lon="16.34685">
        <ele>217.62453</ele>
        <time>2026-07-07T09:05:14.000Z</time>
      </trkpt>
      <trkpt lat="48.11844" lon="16.34683">
        <ele>217.636831</ele>
        <time>2026-07-07T09:05:15.000Z</time>
      </trkpt>
      <trkpt lat="48.11839" lon="16.3468">
        <ele>217.648959</ele>
        <time>2026-07-07T09:05:16.000Z</time>
      </trkpt>
      <trkpt lat="48.11834" lon="16.34678">
        <ele>217.661178</ele>
        <time>2026-07-07T09:05:17.000Z</time>
      </trkpt>
      <trkpt lat="48.11829" lon="16.34676">
        <ele>217.672566</ele>
        <time>2026-07-07T09:05:18.000Z</time>
      </trkpt>
      <trkpt lat="48.11825" lon="16.34674">
        <ele>217.683215</ele>
        <time>2026-07-07T09:05:19.000Z</time>
      </trkpt>
      <trkpt lat="48.11821" lon="16.34672">
        <ele>217.692782</ele>
        <time>2026-07-07T09:05:20.000Z</time>
      </trkpt>
      <trkpt lat="48.11818" lon="16.34671">
        <ele>217.699957</ele>
        <time>2026-07-07T09:05:21.000Z</time>
      </trkpt>
      <trkpt lat="48.11815" lon="16.34669">
        <ele>217.705913</ele>
        <time>2026-07-07T09:05:22.000Z</time>
      </trkpt>
      <trkpt lat="48.11814" lon="16.34668">
        <ele>217.710057</ele>
        <time>2026-07-07T09:05:23.000Z</time>
      </trkpt>
      <trkpt lat="48.11812" lon="16.34667">
        <ele>217.713781</ele>
        <time>2026-07-07T09:05:24.000Z</time>
      </trkpt>
      <trkpt lat="48.11811" lon="16.34667">
        <ele>217.716652</ele>
        <time>2026-07-07T09:05:25.000Z</time>
      </trkpt>
      <trkpt lat="48.11811" lon="16.34666">
        <ele>217.717563</ele>
        <time>2026-07-07T09:05:26.000Z</time>
      </trkpt>
      <trkpt lat="48.11808" lon="16.34665">
        <ele>217.724362</ele>
        <time>2026-07-07T09:05:37.000Z</time>
      </trkpt>
      <trkpt lat="48.11806" lon="16.34664">
        <ele>217.727848</ele>
        <time>2026-07-07T09:05:38.000Z</time>
      </trkpt>
      <trkpt lat="48.11804" lon="16.34665">
        <ele>217.732921</ele>
        <time>2026-07-07T09:05:39.000Z</time>
      </trkpt>
      <trkpt lat="48.11802" lon="16.34667">
        <ele>217.739112</ele>
        <time>2026-07-07T09:05:40.000Z</time>
      </trkpt>
      <trkpt lat="48.118" lon="16.3467">
        <ele>217.746069</ele>
        <time>2026-07-07T09:05:41.000Z</time>
      </trkpt>
      <trkpt lat="48.11797" lon="16.34673">
        <ele>217.752988</ele>
        <time>2026-07-07T09:05:42.000Z</time>
      </trkpt>
      <trkpt lat="48.11795" lon="16.34676">
        <ele>217.759538</ele>
        <time>2026-07-07T09:05:43.000Z</time>
      </trkpt>
      <trkpt lat="48.11793" lon="16.34679">
        <ele>217.766177</ele>
        <time>2026-07-07T09:05:44.000Z</time>
      </trkpt>
      <trkpt lat="48.11791" lon="16.34683">
        <ele>217.773795</ele>
        <time>2026-07-07T09:05:45.000Z</time>
      </trkpt>
      <trkpt lat="48.11789" lon="16.34687">
        <ele>217.781102</ele>
        <time>2026-07-07T09:05:46.000Z</time>
      </trkpt>
      <trkpt lat="48.11787" lon="16.34691">
        <ele>217.789447</ele>
        <time>2026-07-07T09:05:47.000Z</time>
      </trkpt>
      <trkpt lat="48.11784" lon="16.34696">
        <ele>217.798787</ele>
        <time>2026-07-07T09:05:48.000Z</time>
      </trkpt>
      <trkpt lat="48.11782" lon="16.34701">
        <ele>217.808646</ele>
        <time>2026-07-07T09:05:49.000Z</time>
      </trkpt>
      <trkpt lat="48.11779" lon="16.34707">
        <ele>217.819364</ele>
        <time>2026-07-07T09:05:50.000Z</time>
      </trkpt>
      <trkpt lat="48.11776" lon="16.34713">
        <ele>217.830576</ele>
        <time>2026-07-07T09:05:51.000Z</time>
      </trkpt>
      <trkpt lat="48.11774" lon="16.3472">
        <ele>217.841718</ele>
        <time>2026-07-07T09:05:52.000Z</time>
      </trkpt>
      <trkpt lat="48.11771" lon="16.34726">
        <ele>217.852968</ele>
        <time>2026-07-07T09:05:53.000Z</time>
      </trkpt>
      <trkpt lat="48.11769" lon="16.34733">
        <ele>217.864111</ele>
        <time>2026-07-07T09:05:54.000Z</time>
      </trkpt>
      <trkpt lat="48.11767" lon="16.34739">
        <ele>217.875387</ele>
        <time>2026-07-07T09:05:55.000Z</time>
      </trkpt>
      <trkpt lat="48.11764" lon="16.34746">
        <ele>217.886854</ele>
        <time>2026-07-07T09:05:56.000Z</time>
      </trkpt>
      <trkpt lat="48.11761" lon="16.34752">
        <ele>217.897941</ele>
        <time>2026-07-07T09:05:57.000Z</time>
      </trkpt>
      <trkpt lat="48.11758" lon="16.34758">
        <ele>217.909417</ele>
        <time>2026-07-07T09:05:58.000Z</time>
      </trkpt>
      <trkpt lat="48.11755" lon="16.34764">
        <ele>217.921385</ele>
        <time>2026-07-07T09:05:59.000Z</time>
      </trkpt>
      <trkpt lat="48.11752" lon="16.34771">
        <ele>217.912141</ele>
        <time>2026-07-07T09:06:00.000Z</time>
      </trkpt>
      <trkpt lat="48.11749" lon="16.34778">
        <ele>217.895321</ele>
        <time>2026-07-07T09:06:01.000Z</time>
      </trkpt>
      <trkpt lat="48.11746" lon="16.34784">
        <ele>217.878328</ele>
        <time>2026-07-07T09:06:02.000Z</time>
      </trkpt>
      <trkpt lat="48.11743" lon="16.34791">
        <ele>217.86116</ele>
        <time>2026-07-07T09:06:03.000Z</time>
      </trkpt>
      <trkpt lat="48.1174" lon="16.34798">
        <ele>217.844337</ele>
        <time>2026-07-07T09:06:04.000Z</time>
      </trkpt>
      <trkpt lat="48.11738" lon="16.34805">
        <ele>217.827857</ele>
        <time>2026-07-07T09:06:05.000Z</time>
      </trkpt>
      <trkpt lat="48.11735" lon="16.34811">
        <ele>217.811553</ele>
        <time>2026-07-07T09:06:06.000Z</time>
      </trkpt>
      <trkpt lat="48.11732" lon="16.34818">
        <ele>217.795249</ele>
        <time>2026-07-07T09:06:07.000Z</time>
      </trkpt>
      <trkpt lat="48.1173" lon="16.34824">
        <ele>217.780055</ele>
        <time>2026-07-07T09:06:08.000Z</time>
      </trkpt>
      <trkpt lat="48.11728" lon="16.3483">
        <ele>217.766719</ele>
        <time>2026-07-07T09:06:09.000Z</time>
      </trkpt>
      <trkpt lat="48.11726" lon="16.34835">
        <ele>217.755264</ele>
        <time>2026-07-07T09:06:10.000Z</time>
      </trkpt>
      <trkpt lat="48.11724" lon="16.34839">
        <ele>217.745362</ele>
        <time>2026-07-07T09:06:11.000Z</time>
      </trkpt>
      <trkpt lat="48.11723" lon="16.34842">
        <ele>217.736506</ele>
        <time>2026-07-07T09:06:12.000Z</time>
      </trkpt>
      <trkpt lat="48.1172" lon="16.34843">
        <ele>217.729263</ele>
        <time>2026-07-07T09:06:13.000Z</time>
      </trkpt>
      <trkpt lat="48.11718" lon="16.34842">
        <ele>217.720273</ele>
        <time>2026-07-07T09:06:14.000Z</time>
      </trkpt>
      <trkpt lat="48.11714" lon="16.3484">
        <ele>217.708575</ele>
        <time>2026-07-07T09:06:15.000Z</time>
      </trkpt>
      <trkpt lat="48.1171" lon="16.34838">
        <ele>217.694382</ele>
        <time>2026-07-07T09:06:16.000Z</time>
      </trkpt>
      <trkpt lat="48.11705" lon="16.34835">
        <ele>217.678826</ele>
        <time>2026-07-07T09:06:17.000Z</time>
      </trkpt>
      <trkpt lat="48.11701" lon="16.34832">
        <ele>217.662583</ele>
        <time>2026-07-07T09:06:18.000Z</time>
      </trkpt>
      <trkpt lat="48.11696" lon="16.34829">
        <ele>217.645912</ele>
        <time>2026-07-07T09:06:19.000Z</time>
      </trkpt>
      <trkpt lat="48.11691" lon="16.34826">
        <ele>217.629168</ele>
        <time>2026-07-07T09:06:20.000Z</time>
      </trkpt>
      <trkpt lat="48.11686" lon="16.34823">
        <ele>217.612497</ele>
        <time>2026-07-07T09:06:21.000Z</time>
      </trkpt>
      <trkpt lat="48.1168" lon="16.3482">
        <ele>217.59524</ele>
        <time>2026-07-07T09:06:22.000Z</time>
      </trkpt>
      <trkpt lat="48.11675" lon="16.34817">
        <ele>217.578204</ele>
        <time>2026-07-07T09:06:23.000Z</time>
      </trkpt>
      <trkpt lat="48.1167" lon="16.34815">
        <ele>217.560947</ele>
        <time>2026-07-07T09:06:24.000Z</time>
      </trkpt>
      <trkpt lat="48.11665" lon="16.34812">
        <ele>217.543396</ele>
        <time>2026-07-07T09:06:25.000Z</time>
      </trkpt>
      <trkpt lat="48.11659" lon="16.34809">
        <ele>217.52541</ele>
        <time>2026-07-07T09:06:26.000Z</time>
      </trkpt>
      <trkpt lat="48.11654" lon="16.34806">
        <ele>217.507716</ele>
        <time>2026-07-07T09:06:27.000Z</time>
      </trkpt>
      <trkpt lat="48.11649" lon="16.34803">
        <ele>217.489506</ele>
        <time>2026-07-07T09:06:28.000Z</time>
      </trkpt>
      <trkpt lat="48.11643" lon="16.348">
        <ele>217.472089</ele>
        <time>2026-07-07T09:06:29.000Z</time>
      </trkpt>
      <trkpt lat="48.11638" lon="16.34797">
        <ele>217.45381</ele>
        <time>2026-07-07T09:06:30.000Z</time>
      </trkpt>
      <trkpt lat="48.11632" lon="16.34794">
        <ele>217.435894</ele>
        <time>2026-07-07T09:06:31.000Z</time>
      </trkpt>
      <trkpt lat="48.11627" lon="16.34792">
        <ele>217.417753</ele>
        <time>2026-07-07T09:06:32.000Z</time>
      </trkpt>
      <trkpt lat="48.11621" lon="16.34789">
        <ele>217.399612</ele>
        <time>2026-07-07T09:06:33.000Z</time>
      </trkpt>
      <trkpt lat="48.11616" lon="16.34786">
        <ele>217.38199</ele>
        <time>2026-07-07T09:06:34.000Z</time>
      </trkpt>
      <trkpt lat="48.11611" lon="16.34783">
        <ele>217.363849</ele>
        <time>2026-07-07T09:06:35.000Z</time>
      </trkpt>
      <trkpt lat="48.11605" lon="16.3478">
        <ele>217.380471</ele>
        <time>2026-07-07T09:06:36.000Z</time>
      </trkpt>
      <trkpt lat="48.116" lon="16.34777">
        <ele>217.400159</ele>
        <time>2026-07-07T09:06:37.000Z</time>
      </trkpt>
      <trkpt lat="48.11594" lon="16.34775">
        <ele>217.419454</ele>
        <time>2026-07-07T09:06:38.000Z</time>
      </trkpt>
      <trkpt lat="48.11589" lon="16.34772">
        <ele>217.439069</ele>
        <time>2026-07-07T09:06:39.000Z</time>
      </trkpt>
      <trkpt lat="48.11583" lon="16.34769">
        <ele>217.458612</ele>
        <time>2026-07-07T09:06:40.000Z</time>
      </trkpt>
      <trkpt lat="48.11578" lon="16.34766">
        <ele>217.478156</ele>
        <time>2026-07-07T09:06:41.000Z</time>
      </trkpt>
      <trkpt lat="48.11572" lon="16.34764">
        <ele>217.497563</ele>
        <time>2026-07-07T09:06:42.000Z</time>
      </trkpt>
      <trkpt lat="48.11567" lon="16.34761">
        <ele>217.517178</ele>
        <time>2026-07-07T09:06:43.000Z</time>
      </trkpt>
      <trkpt lat="48.11561" lon="16.34758">
        <ele>217.536793</ele>
        <time>2026-07-07T09:06:44.000Z</time>
      </trkpt>
      <trkpt lat="48.11556" lon="16.34755">
        <ele>217.556557</ele>
        <time>2026-07-07T09:06:45.000Z</time>
      </trkpt>
      <trkpt lat="48.1155" lon="16.34752">
        <ele>217.576639</ele>
        <time>2026-07-07T09:06:47.000Z</time>
      </trkpt>
      <trkpt lat="48.11545" lon="16.3475">
        <ele>217.596825</ele>
        <time>2026-07-07T09:06:48.000Z</time>
      </trkpt>
      <trkpt lat="48.11539" lon="16.34747">
        <ele>217.616368</ele>
        <time>2026-07-07T09:06:49.000Z</time>
      </trkpt>
      <trkpt lat="48.11533" lon="16.34744">
        <ele>217.636624</ele>
        <time>2026-07-07T09:06:50.000Z</time>
      </trkpt>
      <trkpt lat="48.11528" lon="16.34741">
        <ele>217.656238</ele>
        <time>2026-07-07T09:06:51.000Z</time>
      </trkpt>
      <trkpt lat="48.11522" lon="16.34739">
        <ele>217.676103</ele>
        <time>2026-07-07T09:06:52.000Z</time>
      </trkpt>
      <trkpt lat="48.11517" lon="16.34736">
        <ele>217.696289</ele>
        <time>2026-07-07T09:06:53.000Z</time>
      </trkpt>
      <trkpt lat="48.11511" lon="16.34733">
        <ele>217.715904</ele>
        <time>2026-07-07T09:06:54.000Z</time>
      </trkpt>
      <trkpt lat="48.11505" lon="16.3473">
        <ele>217.73609</ele>
        <time>2026-07-07T09:06:55.000Z</time>
      </trkpt>
      <trkpt lat="48.115" lon="16.34728">
        <ele>217.755886</ele>
        <time>2026-07-07T09:06:56.000Z</time>
      </trkpt>
      <trkpt lat="48.11494" lon="16.34725">
        <ele>217.775941</ele>
        <time>2026-07-07T09:06:57.000Z</time>
      </trkpt>
      <trkpt lat="48.11488" lon="16.34722">
        <ele>217.796268</ele>
        <time>2026-07-07T09:06:58.000Z</time>
      </trkpt>
      <trkpt lat="48.11483" lon="16.34719">
        <ele>217.81635</ele>
        <time>2026-07-07T09:06:59.000Z</time>
      </trkpt>
      <trkpt lat="48.11477" lon="16.34717">
        <ele>217.836605</ele>
        <time>2026-07-07T09:07:00.000Z</time>
      </trkpt>
      <trkpt lat="48.11471" lon="16.34714">
        <ele>217.85686</ele>
        <time>2026-07-07T09:07:01.000Z</time>
      </trkpt>
      <trkpt lat="48.11466" lon="16.34711">
        <ele>217.876404</ele>
        <time>2026-07-07T09:07:02.000Z</time>
      </trkpt>
      <trkpt lat="48.1146" lon="16.34708">
        <ele>217.896018</ele>
        <time>2026-07-07T09:07:03.000Z</time>
      </trkpt>
      <trkpt lat="48.11455" lon="16.34705">
        <ele>217.916026</ele>
        <time>2026-07-07T09:07:04.000Z</time>
      </trkpt>
      <trkpt lat="48.11449" lon="16.34702">
        <ele>217.936426</ele>
        <time>2026-07-07T09:07:05.000Z</time>
      </trkpt>
      <trkpt lat="48.11444" lon="16.347">
        <ele>217.9559</ele>
        <time>2026-07-07T09:07:06.000Z</time>
      </trkpt>
      <trkpt lat="48.11438" lon="16.34697">
        <ele>217.983574</ele>
        <time>2026-07-07T09:07:07.000Z</time>
      </trkpt>
      <trkpt lat="48.11432" lon="16.34694">
        <ele>218.026164</ele>
        <time>2026-07-07T09:07:08.000Z</time>
      </trkpt>
      <trkpt lat="48.11427" lon="16.34691">
        <ele>218.068291</ele>
        <time>2026-07-07T09:07:09.000Z</time>
      </trkpt>
      <trkpt lat="48.11421" lon="16.34689">
        <ele>218.111262</ele>
        <time>2026-07-07T09:07:10.000Z</time>
      </trkpt>
      <trkpt lat="48.11416" lon="16.34686">
        <ele>218.153539</ele>
        <time>2026-07-07T09:07:11.000Z</time>
      </trkpt>
      <trkpt lat="48.1141" lon="16.34683">
        <ele>218.196921</ele>
        <time>2026-07-07T09:07:12.000Z</time>
      </trkpt>
      <trkpt lat="48.11405" lon="16.34681">
        <ele>218.237971</ele>
        <time>2026-07-07T09:07:13.000Z</time>
      </trkpt>
      <trkpt lat="48.11399" lon="16.34678">
        <ele>218.279554</ele>
        <time>2026-07-07T09:07:14.000Z</time>
      </trkpt>
      <trkpt lat="48.11394" lon="16.34675">
        <ele>218.32029</ele>
        <time>2026-07-07T09:07:15.000Z</time>
      </trkpt>
      <trkpt lat="48.11389" lon="16.34673">
        <ele>218.36049</ele>
        <time>2026-07-07T09:07:16.000Z</time>
      </trkpt>
      <trkpt lat="48.11384" lon="16.3467">
        <ele>218.398993</ele>
        <time>2026-07-07T09:07:17.000Z</time>
      </trkpt>
      <trkpt lat="48.11379" lon="16.34668">
        <ele>218.436113</ele>
        <time>2026-07-07T09:07:18.000Z</time>
      </trkpt>
      <trkpt lat="48.11374" lon="16.34665">
        <ele>218.473233</ele>
        <time>2026-07-07T09:07:19.000Z</time>
      </trkpt>
      <trkpt lat="48.1137" lon="16.34663">
        <ele>218.5092</ele>
        <time>2026-07-07T09:07:20.000Z</time>
      </trkpt>
      <trkpt lat="48.11365" lon="16.34661">
        <ele>218.543486</ele>
        <time>2026-07-07T09:07:21.000Z</time>
      </trkpt>
      <trkpt lat="48.11361" lon="16.34659">
        <ele>218.575395</ele>
        <time>2026-07-07T09:07:22.000Z</time>
      </trkpt>
      <trkpt lat="48.11357" lon="16.34657">
        <ele>218.606891</ele>
        <time>2026-07-07T09:07:23.000Z</time>
      </trkpt>
      <trkpt lat="48.11353" lon="16.34655">
        <ele>218.637398</ele>
        <time>2026-07-07T09:07:24.000Z</time>
      </trkpt>
      <trkpt lat="48.11349" lon="16.34654">
        <ele>218.663288</ele>
        <time>2026-07-07T09:07:25.000Z</time>
      </trkpt>
      <trkpt lat="48.11346" lon="16.34652">
        <ele>218.689748</ele>
        <time>2026-07-07T09:07:26.000Z</time>
      </trkpt>
      <trkpt lat="48.11343" lon="16.34651">
        <ele>218.714938</ele>
        <time>2026-07-07T09:07:27.000Z</time>
      </trkpt>
      <trkpt lat="48.1134" lon="16.3465">
        <ele>218.735376</ele>
        <time>2026-07-07T09:07:28.000Z</time>
      </trkpt>
      <trkpt lat="48.11338" lon="16.34649">
        <ele>218.751472</ele>
        <time>2026-07-07T09:07:29.000Z</time>
      </trkpt>
      <trkpt lat="48.11336" lon="16.34648">
        <ele>218.762948</ele>
        <time>2026-07-07T09:07:30.000Z</time>
      </trkpt>
      <trkpt lat="48.11335" lon="16.34648">
        <ele>218.773278</ele>
        <time>2026-07-07T09:07:31.000Z</time>
      </trkpt>
      <trkpt lat="48.11334" lon="16.34648">
        <ele>218.782823</ele>
        <time>2026-07-07T09:07:32.000Z</time>
      </trkpt>
      <trkpt lat="48.11332" lon="16.34647">
        <ele>218.794048</ele>
        <time>2026-07-07T09:07:33.000Z</time>
      </trkpt>
      <trkpt lat="48.1133" lon="16.34646">
        <ele>218.80905</ele>
        <time>2026-07-07T09:07:34.000Z</time>
      </trkpt>
      <trkpt lat="48.11328" lon="16.34645">
        <ele>218.825991</ele>
        <time>2026-07-07T09:07:35.000Z</time>
      </trkpt>
      <trkpt lat="48.11325" lon="16.34644">
        <ele>218.846342</ele>
        <time>2026-07-07T09:07:36.000Z</time>
      </trkpt>
      <trkpt lat="48.11322" lon="16.34642">
        <ele>218.870834</ele>
        <time>2026-07-07T09:07:37.000Z</time>
      </trkpt>
      <trkpt lat="48.11319" lon="16.34641">
        <ele>218.893936</ele>
        <time>2026-07-07T09:07:38.000Z</time>
      </trkpt>
      <trkpt lat="48.11316" lon="16.34639">
        <ele>218.918736</ele>
        <time>2026-07-07T09:07:39.000Z</time>
      </trkpt>
      <trkpt lat="48.11313" lon="16.34637">
        <ele>218.944389</ele>
        <time>2026-07-07T09:07:40.000Z</time>
      </trkpt>
      <trkpt lat="48.11309" lon="16.34635">
        <ele>218.972114</ele>
        <time>2026-07-07T09:07:41.000Z</time>
      </trkpt>
      <trkpt lat="48.11306" lon="16.34633">
        <ele>218.999839</ele>
        <time>2026-07-07T09:07:42.000Z</time>
      </trkpt>
      <trkpt lat="48.11302" lon="16.34631">
        <ele>219.02874</ele>
        <time>2026-07-07T09:07:43.000Z</time>
      </trkpt>
      <trkpt lat="48.11298" lon="16.34628">
        <ele>219.060214</ele>
        <time>2026-07-07T09:07:44.000Z</time>
      </trkpt>
      <trkpt lat="48.11294" lon="16.34626">
        <ele>219.091865</ele>
        <time>2026-07-07T09:07:45.000Z</time>
      </trkpt>
      <trkpt lat="48.11289" lon="16.34624">
        <ele>219.125747</ele>
        <time>2026-07-07T09:07:46.000Z</time>
      </trkpt>
      <trkpt lat="48.11285" lon="16.34622">
        <ele>219.157558</ele>
        <time>2026-07-07T09:07:47.000Z</time>
      </trkpt>
      <trkpt lat="48.11281" lon="16.3462">
        <ele>219.191598</ele>
        <time>2026-07-07T09:07:48.000Z</time>
      </trkpt>
      <trkpt lat="48.11277" lon="16.34617">
        <ele>219.224512</ele>
        <time>2026-07-07T09:07:49.000Z</time>
      </trkpt>
      <trkpt lat="48.11273" lon="16.34614">
        <ele>219.257896</ele>
        <time>2026-07-07T09:07:50.000Z</time>
      </trkpt>
      <trkpt lat="48.11268" lon="16.34612">
        <ele>219.293405</ele>
        <time>2026-07-07T09:07:51.000Z</time>
      </trkpt>
      <trkpt lat="48.11264" lon="16.34609">
        <ele>219.341324</ele>
        <time>2026-07-07T09:07:52.000Z</time>
      </trkpt>
      <trkpt lat="48.1126" lon="16.34607">
        <ele>219.388996</ele>
        <time>2026-07-07T09:07:53.000Z</time>
      </trkpt>
      <trkpt lat="48.11255" lon="16.34605">
        <ele>219.43741</ele>
        <time>2026-07-07T09:07:54.000Z</time>
      </trkpt>
      <trkpt lat="48.11251" lon="16.34602">
        <ele>219.481679</ele>
        <time>2026-07-07T09:07:55.000Z</time>
      </trkpt>
      <trkpt lat="48.11247" lon="16.346">
        <ele>219.526694</ele>
        <time>2026-07-07T09:07:56.000Z</time>
      </trkpt>
      <trkpt lat="48.11243" lon="16.34598">
        <ele>219.571459</ele>
        <time>2026-07-07T09:07:57.000Z</time>
      </trkpt>
      <trkpt lat="48.1124" lon="16.34596">
        <ele>219.612324</ele>
        <time>2026-07-07T09:07:58.000Z</time>
      </trkpt>
      <trkpt lat="48.11236" lon="16.34594">
        <ele>219.648359</ele>
        <time>2026-07-07T09:07:59.000Z</time>
      </trkpt>
      <trkpt lat="48.11233" lon="16.34593">
        <ele>219.686583</ele>
        <time>2026-07-07T09:08:00.000Z</time>
      </trkpt>
      <trkpt lat="48.1123" lon="16.34591">
        <ele>219.721857</ele>
        <time>2026-07-07T09:08:01.000Z</time>
      </trkpt>
      <trkpt lat="48.11227" lon="16.34589">
        <ele>219.75275</ele>
        <time>2026-07-07T09:08:02.000Z</time>
      </trkpt>
      <trkpt lat="48.11224" lon="16.34589">
        <ele>219.778952</ele>
        <time>2026-07-07T09:08:03.000Z</time>
      </trkpt>
      <trkpt lat="48.11222" lon="16.34589">
        <ele>219.7988</ele>
        <time>2026-07-07T09:08:04.000Z</time>
      </trkpt>
      <trkpt lat="48.11221" lon="16.34587">
        <ele>219.816467</ele>
        <time>2026-07-07T09:08:05.000Z</time>
      </trkpt>
      <trkpt lat="48.1122" lon="16.34585">
        <ele>219.832311</ele>
        <time>2026-07-07T09:08:06.000Z</time>
      </trkpt>
      <trkpt lat="48.1122" lon="16.34583">
        <ele>219.848958</ele>
        <time>2026-07-07T09:08:07.000Z</time>
      </trkpt>
      <trkpt lat="48.11221" lon="16.34581">
        <ele>219.864802</ele>
        <time>2026-07-07T09:08:08.000Z</time>
      </trkpt>
      <trkpt lat="48.11222" lon="16.34578">
        <ele>219.883605</ele>
        <time>2026-07-07T09:08:09.000Z</time>
      </trkpt>
      <trkpt lat="48.11222" lon="16.34576">
        <ele>219.901707</ele>
        <time>2026-07-07T09:08:10.000Z</time>
      </trkpt>
      <trkpt lat="48.11223" lon="16.34573">
        <ele>219.919146</ele>
        <time>2026-07-07T09:08:11.000Z</time>
      </trkpt>
      <trkpt lat="48.11223" lon="16.34571">
        <ele>219.93386</ele>
        <time>2026-07-07T09:08:12.000Z</time>
      </trkpt>
      <trkpt lat="48.11222" lon="16.3457">
        <ele>219.945489</ele>
        <time>2026-07-07T09:08:13.000Z</time>
      </trkpt>
      <trkpt lat="48.11222" lon="16.34569">
        <ele>219.952599</ele>
        <time>2026-07-07T09:08:14.000Z</time>
      </trkpt>
      <trkpt lat="48.11221" lon="16.34569">
        <ele>219.956754</ele>
        <time>2026-07-07T09:08:15.000Z</time>
      </trkpt>
      <trkpt lat="48.11222" lon="16.34568">
        <ele>219.967627</ele>
        <time>2026-07-07T09:16:35.000Z</time>
      </trkpt>
      <trkpt lat="48.11222" lon="16.3457">
        <ele>219.979256</ele>
        <time>2026-07-07T09:16:36.000Z</time>
      </trkpt>
      <trkpt lat="48.11222" lon="16.34571">
        <ele>219.986497</ele>
        <time>2026-07-07T09:16:37.000Z</time>
      </trkpt>
      <trkpt lat="48.11221" lon="16.34571">
        <ele>219.993153</ele>
        <time>2026-07-07T09:16:38.000Z</time>
      </trkpt>
      <trkpt lat="48.1122" lon="16.34576">
        <ele>220.030542</ele>
        <time>2026-07-07T09:19:30.000Z</time>
      </trkpt>
      <trkpt lat="48.11219" lon="16.34579">
        <ele>220.048844</ele>
        <time>2026-07-07T09:19:31.000Z</time>
      </trkpt>
      <trkpt lat="48.11218" lon="16.34582">
        <ele>220.07026</ele>
        <time>2026-07-07T09:19:32.000Z</time>
      </trkpt>
      <trkpt lat="48.11217" lon="16.34583">
        <ele>220.089429</ele>
        <time>2026-07-07T09:19:33.000Z</time>
      </trkpt>
      <trkpt lat="48.11215" lon="16.34584">
        <ele>220.106216</ele>
        <time>2026-07-07T09:19:34.000Z</time>
      </trkpt>
      <trkpt lat="48.11214" lon="16.34584">
        <ele>220.121799</ele>
        <time>2026-07-07T09:19:35.000Z</time>
      </trkpt>
      <trkpt lat="48.11212" lon="16.34584">
        <ele>220.138651</ele>
        <time>2026-07-07T09:19:36.000Z</time>
      </trkpt>
      <trkpt lat="48.11211" lon="16.34583">
        <ele>220.157163</ele>
        <time>2026-07-07T09:19:37.000Z</time>
      </trkpt>
      <trkpt lat="48.11209" lon="16.34582">
        <ele>220.1785</ele>
        <time>2026-07-07T09:19:38.000Z</time>
      </trkpt>
      <trkpt lat="48.11207" lon="16.34581">
        <ele>220.198445</ele>
        <time>2026-07-07T09:19:39.000Z</time>
      </trkpt>
      <trkpt lat="48.11205" lon="16.3458">
        <ele>220.221094</ele>
        <time>2026-07-07T09:19:40.000Z</time>
      </trkpt>
      <trkpt lat="48.11202" lon="16.34579">
        <ele>220.24738</ele>
        <time>2026-07-07T09:19:41.000Z</time>
      </trkpt>
      <trkpt lat="48.112" lon="16.34578">
        <ele>220.275856</ele>
        <time>2026-07-07T09:19:42.000Z</time>
      </trkpt>
      <trkpt lat="48.11197" lon="16.34576">
        <ele>220.308209</ele>
        <time>2026-07-07T09:19:43.000Z</time>
      </trkpt>
      <trkpt lat="48.11194" lon="16.34574">
        <ele>220.341292</ele>
        <time>2026-07-07T09:19:44.000Z</time>
      </trkpt>
      <trkpt lat="48.11191" lon="16.34573">
        <ele>220.377546</ele>
        <time>2026-07-07T09:19:45.000Z</time>
      </trkpt>
      <trkpt lat="48.11187" lon="16.34571">
        <ele>220.41599</ele>
        <time>2026-07-07T09:19:46.000Z</time>
      </trkpt>
      <trkpt lat="48.11184" lon="16.34569">
        <ele>220.454215</ele>
        <time>2026-07-07T09:19:47.000Z</time>
      </trkpt>
      <trkpt lat="48.1118" lon="16.34567">
        <ele>220.49508</ele>
        <time>2026-07-07T09:19:48.000Z</time>
      </trkpt>
      <trkpt lat="48.11176" lon="16.34565">
        <ele>220.536924</ele>
        <time>2026-07-07T09:19:49.000Z</time>
      </trkpt>
      <trkpt lat="48.11172" lon="16.34563">
        <ele>220.57828</ele>
        <time>2026-07-07T09:19:50.000Z</time>
      </trkpt>
      <trkpt lat="48.11169" lon="16.34561">
        <ele>220.61817</ele>
        <time>2026-07-07T09:19:51.000Z</time>
      </trkpt>
      <trkpt lat="48.11165" lon="16.34559">
        <ele>220.658585</ele>
        <time>2026-07-07T09:19:52.000Z</time>
      </trkpt>
      <trkpt lat="48.11161" lon="16.34557">
        <ele>220.69945</ele>
        <time>2026-07-07T09:19:53.000Z</time>
      </trkpt>
      <trkpt lat="48.11158" lon="16.34555">
        <ele>220.740855</ele>
        <time>2026-07-07T09:19:54.000Z</time>
      </trkpt>
      <trkpt lat="48.11154" lon="16.34553">
        <ele>220.77953</ele>
        <time>2026-07-07T09:19:55.000Z</time>
      </trkpt>
      <trkpt lat="48.11151" lon="16.34552">
        <ele>220.817974</ele>
        <time>2026-07-07T09:19:56.000Z</time>
      </trkpt>
      <trkpt lat="48.11147" lon="16.3455">
        <ele>220.858389</ele>
        <time>2026-07-07T09:19:57.000Z</time>
      </trkpt>
      <trkpt lat="48.11143" lon="16.34548">
        <ele>220.900008</ele>
        <time>2026-07-07T09:19:58.000Z</time>
      </trkpt>
      <trkpt lat="48.11139" lon="16.34546">
        <ele>220.945793</ele>
        <time>2026-07-07T09:19:59.000Z</time>
      </trkpt>
      <trkpt lat="48.11135" lon="16.34544">
        <ele>220.990809</ele>
        <time>2026-07-07T09:20:00.000Z</time>
      </trkpt>
      <trkpt lat="48.1113" lon="16.34542">
        <ele>221.038999</ele>
        <time>2026-07-07T09:20:01.000Z</time>
      </trkpt>
      <trkpt lat="48.11126" lon="16.3454">
        <ele>221.085775</ele>
        <time>2026-07-07T09:20:02.000Z</time>
      </trkpt>
      <trkpt lat="48.11122" lon="16.34538">
        <ele>221.134539</ele>
        <time>2026-07-07T09:20:03.000Z</time>
      </trkpt>
      <trkpt lat="48.11117" lon="16.34535">
        <ele>221.174024</ele>
        <time>2026-07-07T09:20:04.000Z</time>
      </trkpt>
      <trkpt lat="48.11113" lon="16.34533">
        <ele>221.20822</ele>
        <time>2026-07-07T09:20:05.000Z</time>
      </trkpt>
      <trkpt lat="48.11108" lon="16.3453">
        <ele>221.243756</ele>
        <time>2026-07-07T09:20:06.000Z</time>
      </trkpt>
      <trkpt lat="48.11103" lon="16.34528">
        <ele>221.278462</ele>
        <time>2026-07-07T09:20:07.000Z</time>
      </trkpt>
      <trkpt lat="48.11099" lon="16.34526">
        <ele>221.313691</ele>
        <time>2026-07-07T09:20:08.000Z</time>
      </trkpt>
      <trkpt lat="48.11094" lon="16.34523">
        <ele>221.348775</ele>
        <time>2026-07-07T09:20:09.000Z</time>
      </trkpt>
      <trkpt lat="48.11089" lon="16.34521">
        <ele>221.384682</ele>
        <time>2026-07-07T09:20:10.000Z</time>
      </trkpt>
      <trkpt lat="48.11084" lon="16.34519">
        <ele>221.419494</ele>
        <time>2026-07-07T09:20:11.000Z</time>
      </trkpt>
      <trkpt lat="48.1108" lon="16.34517">
        <ele>221.453372</ele>
        <time>2026-07-07T09:20:12.000Z</time>
      </trkpt>
      <trkpt lat="48.11075" lon="16.34514">
        <ele>221.488078</ele>
        <time>2026-07-07T09:20:13.000Z</time>
      </trkpt>
      <trkpt lat="48.11071" lon="16.34512">
        <ele>221.52289</ele>
        <time>2026-07-07T09:20:14.000Z</time>
      </trkpt>
      <trkpt lat="48.11066" lon="16.3451">
        <ele>221.557086</ele>
        <time>2026-07-07T09:20:15.000Z</time>
      </trkpt>
      <trkpt lat="48.11062" lon="16.34508">
        <ele>221.589618</ele>
        <time>2026-07-07T09:20:16.000Z</time>
      </trkpt>
      <trkpt lat="48.11057" lon="16.34506">
        <ele>221.623062</ele>
        <time>2026-07-07T09:20:17.000Z</time>
      </trkpt>
      <trkpt lat="48.11053" lon="16.34504">
        <ele>221.656506</ele>
        <time>2026-07-07T09:20:18.000Z</time>
      </trkpt>
      <trkpt lat="48.11048" lon="16.34501">
        <ele>221.692952</ele>
        <time>2026-07-07T09:20:19.000Z</time>
      </trkpt>
      <trkpt lat="48.11043" lon="16.34499">
        <ele>221.727215</ele>
        <time>2026-07-07T09:20:20.000Z</time>
      </trkpt>
      <trkpt lat="48.11039" lon="16.34497">
        <ele>221.762595</ele>
        <time>2026-07-07T09:20:21.000Z</time>
      </trkpt>
      <trkpt lat="48.11034" lon="16.34494">
        <ele>221.798293</ele>
        <time>2026-07-07T09:20:22.000Z</time>
      </trkpt>
      <trkpt lat="48.11029" lon="16.34492">
        <ele>221.833494</ele>
        <time>2026-07-07T09:20:23.000Z</time>
      </trkpt>
      <trkpt lat="48.11024" lon="16.34489">
        <ele>221.870376</ele>
        <time>2026-07-07T09:20:24.000Z</time>
      </trkpt>
      <trkpt lat="48.11019" lon="16.34487">
        <ele>221.907933</ele>
        <time>2026-07-07T09:20:25.000Z</time>
      </trkpt>
      <trkpt lat="48.11014" lon="16.34484">
        <ele>221.946473</ele>
        <time>2026-07-07T09:20:26.000Z</time>
      </trkpt>
      <trkpt lat="48.11009" lon="16.34481">
        <ele>221.98403</ele>
        <time>2026-07-07T09:20:27.000Z</time>
      </trkpt>
      <trkpt lat="48.11004" lon="16.34479">
        <ele>222.021741</ele>
        <time>2026-07-07T09:20:28.000Z</time>
      </trkpt>
      <trkpt lat="48.10999" lon="16.34476">
        <ele>222.059298</ele>
        <time>2026-07-07T09:20:29.000Z</time>
      </trkpt>
      <trkpt lat="48.10994" lon="16.34474">
        <ele>222.09851</ele>
        <time>2026-07-07T09:20:30.000Z</time>
      </trkpt>
      <trkpt lat="48.10989" lon="16.34471">
        <ele>222.136067</ele>
        <time>2026-07-07T09:20:31.000Z</time>
      </trkpt>
      <trkpt lat="48.10984" lon="16.34469">
        <ele>222.173334</ele>
        <time>2026-07-07T09:20:32.000Z</time>
      </trkpt>
      <trkpt lat="48.10979" lon="16.34466">
        <ele>222.211203</ele>
        <time>2026-07-07T09:20:33.000Z</time>
      </trkpt>
      <trkpt lat="48.10974" lon="16.34464">
        <ele>222.24876</ele>
        <time>2026-07-07T09:20:34.000Z</time>
      </trkpt>
      <trkpt lat="48.10969" lon="16.34461">
        <ele>222.286629</ele>
        <time>2026-07-07T09:20:35.000Z</time>
      </trkpt>
      <trkpt lat="48.10964" lon="16.34458">
        <ele>222.324186</ele>
        <time>2026-07-07T09:20:36.000Z</time>
      </trkpt>
      <trkpt lat="48.10959" lon="16.34456">
        <ele>222.360554</ele>
        <time>2026-07-07T09:20:37.000Z</time>
      </trkpt>
      <trkpt lat="48.10955" lon="16.34453">
        <ele>222.39609</ele>
        <time>2026-07-07T09:20:38.000Z</time>
      </trkpt>
      <trkpt lat="48.1095" lon="16.34451">
        <ele>222.431855</ele>
        <time>2026-07-07T09:20:39.000Z</time>
      </trkpt>
      <trkpt lat="48.10945" lon="16.34449">
        <ele>222.466459</ele>
        <time>2026-07-07T09:20:40.000Z</time>
      </trkpt>
      <trkpt lat="48.1094" lon="16.34446">
        <ele>222.500894</ele>
        <time>2026-07-07T09:20:41.000Z</time>
      </trkpt>
      <trkpt lat="48.10935" lon="16.34444">
        <ele>222.534439</ele>
        <time>2026-07-07T09:20:42.000Z</time>
      </trkpt>
      <trkpt lat="48.1093" lon="16.34441">
        <ele>222.567497</ele>
        <time>2026-07-07T09:20:43.000Z</time>
      </trkpt>
      <trkpt lat="48.10925" lon="16.34439">
        <ele>222.601933</ele>
        <time>2026-07-07T09:20:44.000Z</time>
      </trkpt>
      <trkpt lat="48.1092" lon="16.34436">
        <ele>222.635131</ele>
        <time>2026-07-07T09:20:45.000Z</time>
      </trkpt>
      <trkpt lat="48.10915" lon="16.34434">
        <ele>222.668947</ele>
        <time>2026-07-07T09:20:46.000Z</time>
      </trkpt>
      <trkpt lat="48.1091" lon="16.34431">
        <ele>222.703383</ele>
        <time>2026-07-07T09:20:47.000Z</time>
      </trkpt>
      <trkpt lat="48.10905" lon="16.34429">
        <ele>222.737552</ele>
        <time>2026-07-07T09:20:48.000Z</time>
      </trkpt>
      <trkpt lat="48.10901" lon="16.34427">
        <ele>222.770474</ele>
        <time>2026-07-07T09:20:49.000Z</time>
      </trkpt>
      <trkpt lat="48.10896" lon="16.34424">
        <ele>222.803969</ele>
        <time>2026-07-07T09:20:50.000Z</time>
      </trkpt>
      <trkpt lat="48.10891" lon="16.34422">
        <ele>222.838405</ele>
        <time>2026-07-07T09:20:51.000Z</time>
      </trkpt>
      <trkpt lat="48.10886" lon="16.34419">
        <ele>222.87284</ele>
        <time>2026-07-07T09:20:52.000Z</time>
      </trkpt>
      <trkpt lat="48.10881" lon="16.34416">
        <ele>222.906947</ele>
        <time>2026-07-07T09:20:53.000Z</time>
      </trkpt>
      <trkpt lat="48.10876" lon="16.34414">
        <ele>222.940292</ele>
        <time>2026-07-07T09:20:54.000Z</time>
      </trkpt>
      <trkpt lat="48.10871" lon="16.34411">
        <ele>222.976245</ele>
        <time>2026-07-07T09:20:55.000Z</time>
      </trkpt>
      <trkpt lat="48.10866" lon="16.34409">
        <ele>223.010414</ele>
        <time>2026-07-07T09:20:56.000Z</time>
      </trkpt>
      <trkpt lat="48.10861" lon="16.34406">
        <ele>223.044849</ele>
        <time>2026-07-07T09:20:57.000Z</time>
      </trkpt>
      <trkpt lat="48.10856" lon="16.34404">
        <ele>223.079285</ele>
        <time>2026-07-07T09:20:58.000Z</time>
      </trkpt>
      <trkpt lat="48.10851" lon="16.34401">
        <ele>223.11372</ele>
        <time>2026-07-07T09:20:59.000Z</time>
      </trkpt>
      <trkpt lat="48.10846" lon="16.34399">
        <ele>223.14802</ele>
        <time>2026-07-07T09:21:00.000Z</time>
      </trkpt>
      <trkpt lat="48.10841" lon="16.34397">
        <ele>223.182189</ele>
        <time>2026-07-07T09:21:01.000Z</time>
      </trkpt>
      <trkpt lat="48.10836" lon="16.34394">
        <ele>223.216358</ele>
        <time>2026-07-07T09:21:02.000Z</time>
      </trkpt>
      <trkpt lat="48.10831" lon="16.34392">
        <ele>223.250793</ele>
        <time>2026-07-07T09:21:03.000Z</time>
      </trkpt>
      <trkpt lat="48.10826" lon="16.34389">
        <ele>223.285093</ele>
        <time>2026-07-07T09:21:04.000Z</time>
      </trkpt>
      <trkpt lat="48.10821" lon="16.34387">
        <ele>223.319262</ele>
        <time>2026-07-07T09:21:05.000Z</time>
      </trkpt>
      <trkpt lat="48.10816" lon="16.34384">
        <ele>223.352757</ele>
        <time>2026-07-07T09:21:06.000Z</time>
      </trkpt>
      <trkpt lat="48.10811" lon="16.34382">
        <ele>223.387193</ele>
        <time>2026-07-07T09:21:07.000Z</time>
      </trkpt>
      <trkpt lat="48.10806" lon="16.34379">
        <ele>223.42287</ele>
        <time>2026-07-07T09:21:08.000Z</time>
      </trkpt>
      <trkpt lat="48.10801" lon="16.34377">
        <ele>223.457742</ele>
        <time>2026-07-07T09:21:09.000Z</time>
      </trkpt>
      <trkpt lat="48.10796" lon="16.34374">
        <ele>223.492928</ele>
        <time>2026-07-07T09:21:10.000Z</time>
      </trkpt>
      <trkpt lat="48.10791" lon="16.34371">
        <ele>223.527364</ele>
        <time>2026-07-07T09:21:11.000Z</time>
      </trkpt>
      <trkpt lat="48.10786" lon="16.34369">
        <ele>223.561803</ele>
        <time>2026-07-07T09:21:12.000Z</time>
      </trkpt>
      <trkpt lat="48.10781" lon="16.34367">
        <ele>223.597223</ele>
        <time>2026-07-07T09:21:13.000Z</time>
      </trkpt>
      <trkpt lat="48.10775" lon="16.34364">
        <ele>223.617015</ele>
        <time>2026-07-07T09:21:14.000Z</time>
      </trkpt>
      <trkpt lat="48.1077" lon="16.34362">
        <ele>223.628988</ele>
        <time>2026-07-07T09:21:15.000Z</time>
      </trkpt>
      <trkpt lat="48.10765" lon="16.34359">
        <ele>223.641077</ele>
        <time>2026-07-07T09:21:16.000Z</time>
      </trkpt>
      <trkpt lat="48.1076" lon="16.34357">
        <ele>223.653166</ele>
        <time>2026-07-07T09:21:17.000Z</time>
      </trkpt>
      <trkpt lat="48.10755" lon="16.34354">
        <ele>223.664834</ele>
        <time>2026-07-07T09:21:18.000Z</time>
      </trkpt>
      <trkpt lat="48.1075" lon="16.34352">
        <ele>223.676624</ele>
        <time>2026-07-07T09:21:19.000Z</time>
      </trkpt>
      <trkpt lat="48.10745" lon="16.3435">
        <ele>223.688584</ele>
        <time>2026-07-07T09:21:20.000Z</time>
      </trkpt>
      <trkpt lat="48.10739" lon="16.34347">
        <ele>223.700586</ele>
        <time>2026-07-07T09:21:21.000Z</time>
      </trkpt>
      <trkpt lat="48.10734" lon="16.34345">
        <ele>223.712334</ele>
        <time>2026-07-07T09:21:22.000Z</time>
      </trkpt>
      <trkpt lat="48.10729" lon="16.34343">
        <ele>223.724647</ele>
        <time>2026-07-07T09:21:23.000Z</time>
      </trkpt>
      <trkpt lat="48.10724" lon="16.34341">
        <ele>223.736525</ele>
        <time>2026-07-07T09:21:24.000Z</time>
      </trkpt>
      <trkpt lat="48.10719" lon="16.34338">
        <ele>223.748193</ele>
        <time>2026-07-07T09:21:25.000Z</time>
      </trkpt>
      <trkpt lat="48.10714" lon="16.34336">
        <ele>223.759771</ele>
        <time>2026-07-07T09:21:26.000Z</time>
      </trkpt>
      <trkpt lat="48.10709" lon="16.34334">
        <ele>223.771307</ele>
        <time>2026-07-07T09:21:27.000Z</time>
      </trkpt>
      <trkpt lat="48.10704" lon="16.34331">
        <ele>223.783267</ele>
        <time>2026-07-07T09:21:28.000Z</time>
      </trkpt>
      <trkpt lat="48.10699" lon="16.34329">
        <ele>223.794845</ele>
        <time>2026-07-07T09:21:29.000Z</time>
      </trkpt>
      <trkpt lat="48.10693" lon="16.34327">
        <ele>223.806847</ele>
        <time>2026-07-07T09:21:30.000Z</time>
      </trkpt>
      <trkpt lat="48.10688" lon="16.34325">
        <ele>223.818595</ele>
        <time>2026-07-07T09:21:31.000Z</time>
      </trkpt>
      <trkpt lat="48.10683" lon="16.34322">
        <ele>223.830173</ele>
        <time>2026-07-07T09:21:32.000Z</time>
      </trkpt>
      <trkpt lat="48.10678" lon="16.3432">
        <ele>223.842057</ele>
        <time>2026-07-07T09:21:33.000Z</time>
      </trkpt>
      <trkpt lat="48.10673" lon="16.34318">
        <ele>223.854018</ele>
        <time>2026-07-07T09:21:34.000Z</time>
      </trkpt>
      <trkpt lat="48.10668" lon="16.34316">
        <ele>223.865595</ele>
        <time>2026-07-07T09:21:35.000Z</time>
      </trkpt>
      <trkpt lat="48.10663" lon="16.34314">
        <ele>223.877343</ele>
        <time>2026-07-07T09:21:36.000Z</time>
      </trkpt>
      <trkpt lat="48.10658" lon="16.34311">
        <ele>223.889304</ele>
        <time>2026-07-07T09:21:37.000Z</time>
      </trkpt>
      <trkpt lat="48.10652" lon="16.34309">
        <ele>223.901439</ele>
        <time>2026-07-07T09:21:38.000Z</time>
      </trkpt>
      <trkpt lat="48.10647" lon="16.34307">
        <ele>223.913323</ele>
        <time>2026-07-07T09:21:39.000Z</time>
      </trkpt>
      <trkpt lat="48.10642" lon="16.34305">
        <ele>223.924742</ele>
        <time>2026-07-07T09:21:40.000Z</time>
      </trkpt>
      <trkpt lat="48.10637" lon="16.34304">
        <ele>223.935694</ele>
        <time>2026-07-07T09:21:41.000Z</time>
      </trkpt>
      <trkpt lat="48.10633" lon="16.34302">
        <ele>223.946397</ele>
        <time>2026-07-07T09:21:42.000Z</time>
      </trkpt>
      <trkpt lat="48.10628" lon="16.343">
        <ele>223.957212</ele>
        <time>2026-07-07T09:21:43.000Z</time>
      </trkpt>
      <trkpt lat="48.10624" lon="16.34297">
        <ele>223.966807</ele>
        <time>2026-07-07T09:21:44.000Z</time>
      </trkpt>
      <trkpt lat="48.10621" lon="16.34295">
        <ele>223.974465</ele>
        <time>2026-07-07T09:21:45.000Z</time>
      </trkpt>
      <trkpt lat="48.10618" lon="16.34294">
        <ele>223.981185</ele>
        <time>2026-07-07T09:21:46.000Z</time>
      </trkpt>
      <trkpt lat="48.10615" lon="16.34296">
        <ele>223.986786</ele>
        <time>2026-07-07T09:21:47.000Z</time>
      </trkpt>
      <trkpt lat="48.10613" lon="16.34296">
        <ele>223.99193</ele>
        <time>2026-07-07T09:21:48.000Z</time>
      </trkpt>
      <trkpt lat="48.10611" lon="16.34295">
        <ele>223.996477</ele>
        <time>2026-07-07T09:21:49.000Z</time>
      </trkpt>
      <trkpt lat="48.1061" lon="16.34294">
        <ele>223.999782</ele>
        <time>2026-07-07T09:21:50.000Z</time>
      </trkpt>
      <trkpt lat="48.10608" lon="16.34293">
        <ele>224.003352</ele>
        <time>2026-07-07T09:21:51.000Z</time>
      </trkpt>
      <trkpt lat="48.10607" lon="16.34292">
        <ele>224.006921</ele>
        <time>2026-07-07T09:21:52.000Z</time>
      </trkpt>
      <trkpt lat="48.10605" lon="16.3429">
        <ele>224.003059</ele>
        <time>2026-07-07T09:21:53.000Z</time>
      </trkpt>
      <trkpt lat="48.10602" lon="16.34289">
        <ele>223.998666</ele>
        <time>2026-07-07T09:21:54.000Z</time>
      </trkpt>
      <trkpt lat="48.106" lon="16.34288">
        <ele>223.994349</ele>
        <time>2026-07-07T09:21:55.000Z</time>
      </trkpt>
      <trkpt lat="48.10598" lon="16.34286">
        <ele>223.990636</ele>
        <time>2026-07-07T09:21:56.000Z</time>
      </trkpt>
      <trkpt lat="48.10596" lon="16.34286">
        <ele>223.987299</ele>
        <time>2026-07-07T09:21:57.000Z</time>
      </trkpt>
      <trkpt lat="48.10593" lon="16.34287">
        <ele>223.982619</ele>
        <time>2026-07-07T09:21:58.000Z</time>
      </trkpt>
      <trkpt lat="48.10589" lon="16.34286">
        <ele>223.976441</ele>
        <time>2026-07-07T09:21:59.000Z</time>
      </trkpt>
      <trkpt lat="48.10586" lon="16.34285">
        <ele>223.969945</ele>
        <time>2026-07-07T09:22:00.000Z</time>
      </trkpt>
      <trkpt lat="48.10581" lon="16.34283">
        <ele>223.962777</ele>
        <time>2026-07-07T09:22:01.000Z</time>
      </trkpt>
      <trkpt lat="48.10577" lon="16.34282">
        <ele>223.954938</ele>
        <time>2026-07-07T09:22:02.000Z</time>
      </trkpt>
      <trkpt lat="48.10572" lon="16.3428">
        <ele>223.946636</ele>
        <time>2026-07-07T09:22:03.000Z</time>
      </trkpt>
      <trkpt lat="48.10567" lon="16.34279">
        <ele>223.938448</ele>
        <time>2026-07-07T09:22:04.000Z</time>
      </trkpt>
      <trkpt lat="48.10562" lon="16.34277">
        <ele>223.929937</ele>
        <time>2026-07-07T09:22:05.000Z</time>
      </trkpt>
      <trkpt lat="48.10557" lon="16.34275">
        <ele>223.921025</ele>
        <time>2026-07-07T09:22:06.000Z</time>
      </trkpt>
      <trkpt lat="48.10552" lon="16.34273">
        <ele>223.912405</ele>
        <time>2026-07-07T09:22:07.000Z</time>
      </trkpt>
      <trkpt lat="48.10547" lon="16.34271">
        <ele>223.903814</ele>
        <time>2026-07-07T09:22:08.000Z</time>
      </trkpt>
      <trkpt lat="48.10542" lon="16.34269">
        <ele>223.89509</ele>
        <time>2026-07-07T09:22:09.000Z</time>
      </trkpt>
      <trkpt lat="48.10537" lon="16.34267">
        <ele>223.886499</ele>
        <time>2026-07-07T09:22:10.000Z</time>
      </trkpt>
      <trkpt lat="48.10532" lon="16.34265">
        <ele>223.877962</ele>
        <time>2026-07-07T09:22:11.000Z</time>
      </trkpt>
      <trkpt lat="48.10527" lon="16.34263">
        <ele>223.86905</ele>
        <time>2026-07-07T09:22:12.000Z</time>
      </trkpt>
      <trkpt lat="48.10521" lon="16.34261">
        <ele>223.860081</ele>
        <time>2026-07-07T09:22:13.000Z</time>
      </trkpt>
      <trkpt lat="48.10516" lon="16.34259">
        <ele>223.851329</ele>
        <time>2026-07-07T09:22:14.000Z</time>
      </trkpt>
      <trkpt lat="48.10511" lon="16.34257">
        <ele>223.842738</ele>
        <time>2026-07-07T09:22:15.000Z</time>
      </trkpt>
      <trkpt lat="48.10506" lon="16.34255">
        <ele>223.833798</ele>
        <time>2026-07-07T09:22:16.000Z</time>
      </trkpt>
      <trkpt lat="48.10501" lon="16.34253">
        <ele>223.824668</ele>
        <time>2026-07-07T09:22:17.000Z</time>
      </trkpt>
      <trkpt lat="48.10496" lon="16.34251">
        <ele>223.815756</ele>
        <time>2026-07-07T09:22:18.000Z</time>
      </trkpt>
      <trkpt lat="48.1049" lon="16.34248">
        <ele>223.806756</ele>
        <time>2026-07-07T09:22:19.000Z</time>
      </trkpt>
      <trkpt lat="48.10485" lon="16.34246">
        <ele>223.797945</ele>
        <time>2026-07-07T09:22:20.000Z</time>
      </trkpt>
      <trkpt lat="48.1048" lon="16.34244">
        <ele>223.788656</ele>
        <time>2026-07-07T09:22:21.000Z</time>
      </trkpt>
      <trkpt lat="48.10475" lon="16.34242">
        <ele>223.779875</ele>
        <time>2026-07-07T09:22:22.000Z</time>
      </trkpt>
      <trkpt lat="48.10469" lon="16.3424">
        <ele>223.770586</ele>
        <time>2026-07-07T09:22:23.000Z</time>
      </trkpt>
      <trkpt lat="48.10464" lon="16.34237">
        <ele>223.761776</ele>
        <time>2026-07-07T09:22:24.000Z</time>
      </trkpt>
      <trkpt lat="48.10459" lon="16.34235">
        <ele>223.752354</ele>
        <time>2026-07-07T09:22:25.000Z</time>
      </trkpt>
      <trkpt lat="48.10454" lon="16.34233">
        <ele>223.743468</ele>
        <time>2026-07-07T09:22:26.000Z</time>
      </trkpt>
      <trkpt lat="48.10448" lon="16.34231">
        <ele>223.734395</ele>
        <time>2026-07-07T09:22:27.000Z</time>
      </trkpt>
      <trkpt lat="48.10443" lon="16.34229">
        <ele>223.725161</ele>
        <time>2026-07-07T09:22:28.000Z</time>
      </trkpt>
      <trkpt lat="48.10438" lon="16.34227">
        <ele>223.716381</ele>
        <time>2026-07-07T09:22:29.000Z</time>
      </trkpt>
      <trkpt lat="48.10433" lon="16.34225">
        <ele>223.707348</ele>
        <time>2026-07-07T09:22:30.000Z</time>
      </trkpt>
      <trkpt lat="48.10427" lon="16.34223">
        <ele>223.697656</ele>
        <time>2026-07-07T09:22:31.000Z</time>
      </trkpt>
      <trkpt lat="48.10422" lon="16.34221">
        <ele>223.687853</ele>
        <time>2026-07-07T09:22:32.000Z</time>
      </trkpt>
      <trkpt lat="48.10417" lon="16.34219">
        <ele>223.678221</ele>
        <time>2026-07-07T09:22:33.000Z</time>
      </trkpt>
      <trkpt lat="48.10411" lon="16.34217">
        <ele>223.66856</ele>
        <time>2026-07-07T09:22:34.000Z</time>
      </trkpt>
      <trkpt lat="48.10406" lon="16.34215">
        <ele>223.658698</ele>
        <time>2026-07-07T09:22:35.000Z</time>
      </trkpt>
      <trkpt lat="48.10401" lon="16.34213">
        <ele>223.649066</ele>
        <time>2026-07-07T09:22:36.000Z</time>
      </trkpt>
      <trkpt lat="48.10395" lon="16.34211">
        <ele>223.639092</ele>
        <time>2026-07-07T09:22:37.000Z</time>
      </trkpt>
      <trkpt lat="48.1039" lon="16.34208">
        <ele>223.629399</ele>
        <time>2026-07-07T09:22:38.000Z</time>
      </trkpt>
      <trkpt lat="48.10384" lon="16.34206">
        <ele>223.619596</ele>
        <time>2026-07-07T09:22:39.000Z</time>
      </trkpt>
      <trkpt lat="48.10379" lon="16.34204">
        <ele>223.609964</ele>
        <time>2026-07-07T09:22:40.000Z</time>
      </trkpt>
      <trkpt lat="48.10374" lon="16.34202">
        <ele>223.600303</ele>
        <time>2026-07-07T09:22:41.000Z</time>
      </trkpt>
      <trkpt lat="48.10368" lon="16.342">
        <ele>223.590271</ele>
        <time>2026-07-07T09:22:42.000Z</time>
      </trkpt>
      <trkpt lat="48.10363" lon="16.34198">
        <ele>223.580408</ele>
        <time>2026-07-07T09:22:43.000Z</time>
      </trkpt>
      <trkpt lat="48.10357" lon="16.34196">
        <ele>223.570345</ele>
        <time>2026-07-07T09:22:44.000Z</time>
      </trkpt>
      <trkpt lat="48.10352" lon="16.34193">
        <ele>223.560653</ele>
        <time>2026-07-07T09:22:45.000Z</time>
      </trkpt>
      <trkpt lat="48.10347" lon="16.34191">
        <ele>223.55065</ele>
        <time>2026-07-07T09:22:46.000Z</time>
      </trkpt>
      <trkpt lat="48.10341" lon="16.34189">
        <ele>223.541061</ele>
        <time>2026-07-07T09:22:47.000Z</time>
      </trkpt>
      <trkpt lat="48.10336" lon="16.34187">
        <ele>223.53174</ele>
        <time>2026-07-07T09:22:48.000Z</time>
      </trkpt>
      <trkpt lat="48.10331" lon="16.34185">
        <ele>223.521878</ele>
        <time>2026-07-07T09:22:49.000Z</time>
      </trkpt>
      <trkpt lat="48.10326" lon="16.34182">
        <ele>223.512492</ele>
        <time>2026-07-07T09:22:50.000Z</time>
      </trkpt>
      <trkpt lat="48.10321" lon="16.3418">
        <ele>223.502902</ele>
        <time>2026-07-07T09:22:51.000Z</time>
      </trkpt>
      <trkpt lat="48.10315" lon="16.34178">
        <ele>223.493441</ele>
        <time>2026-07-07T09:22:52.000Z</time>
      </trkpt>
      <trkpt lat="48.1031" lon="16.34176">
        <ele>223.484321</ele>
        <time>2026-07-07T09:22:53.000Z</time>
      </trkpt>
      <trkpt lat="48.10305" lon="16.34174">
        <ele>223.474689</ele>
        <time>2026-07-07T09:22:54.000Z</time>
      </trkpt>
      <trkpt lat="48.103" lon="16.34172">
        <ele>223.465027</ele>
        <time>2026-07-07T09:22:55.000Z</time>
      </trkpt>
      <trkpt lat="48.10295" lon="16.3417">
        <ele>223.455505</ele>
        <time>2026-07-07T09:22:56.000Z</time>
      </trkpt>
      <trkpt lat="48.10289" lon="16.34168">
        <ele>223.445531</ele>
        <time>2026-07-07T09:22:57.000Z</time>
      </trkpt>
      <trkpt lat="48.10284" lon="16.34165">
        <ele>223.435806</ele>
        <time>2026-07-07T09:22:58.000Z</time>
      </trkpt>
      <trkpt lat="48.10278" lon="16.34163">
        <ele>223.425944</ele>
        <time>2026-07-07T09:22:59.000Z</time>
      </trkpt>
      <trkpt lat="48.10273" lon="16.34161">
        <ele>223.415912</ele>
        <time>2026-07-07T09:23:00.000Z</time>
      </trkpt>
      <trkpt lat="48.10267" lon="16.34159">
        <ele>223.405679</ele>
        <time>2026-07-07T09:23:01.000Z</time>
      </trkpt>
      <trkpt lat="48.10262" lon="16.34156">
        <ele>223.395615</ele>
        <time>2026-07-07T09:23:02.000Z</time>
      </trkpt>
      <trkpt lat="48.10256" lon="16.34154">
        <ele>223.370856</ele>
        <time>2026-07-07T09:23:03.000Z</time>
      </trkpt>
      <trkpt lat="48.10251" lon="16.34152">
        <ele>223.335696</ele>
        <time>2026-07-07T09:23:04.000Z</time>
      </trkpt>
      <trkpt lat="48.10245" lon="16.3415">
        <ele>223.301238</ele>
        <time>2026-07-07T09:23:05.000Z</time>
      </trkpt>
      <trkpt lat="48.1024" lon="16.34148">
        <ele>223.26727</ele>
        <time>2026-07-07T09:23:06.000Z</time>
      </trkpt>
      <trkpt lat="48.10235" lon="16.34146">
        <ele>223.235509</ele>
        <time>2026-07-07T09:23:07.000Z</time>
      </trkpt>
      <trkpt lat="48.1023" lon="16.34144">
        <ele>223.205045</ele>
        <time>2026-07-07T09:23:08.000Z</time>
      </trkpt>
      <trkpt lat="48.10226" lon="16.34143">
        <ele>223.175725</ele>
        <time>2026-07-07T09:23:09.000Z</time>
      </trkpt>
      <trkpt lat="48.10221" lon="16.34142">
        <ele>223.149576</ele>
        <time>2026-07-07T09:23:10.000Z</time>
      </trkpt>
      <trkpt lat="48.10218" lon="16.34141">
        <ele>223.125815</ele>
        <time>2026-07-07T09:23:11.000Z</time>
      </trkpt>
      <trkpt lat="48.10214" lon="16.3414">
        <ele>223.10474</ele>
        <time>2026-07-07T09:23:12.000Z</time>
      </trkpt>
      <trkpt lat="48.10211" lon="16.34139">
        <ele>223.084366</ele>
        <time>2026-07-07T09:23:13.000Z</time>
      </trkpt>
      <trkpt lat="48.10208" lon="16.34139">
        <ele>223.063947</ele>
        <time>2026-07-07T09:23:14.000Z</time>
      </trkpt>
      <trkpt lat="48.10204" lon="16.34139">
        <ele>223.039772</ele>
        <time>2026-07-07T09:23:15.000Z</time>
      </trkpt>
      <trkpt lat="48.102" lon="16.3414">
        <ele>223.014576</ele>
        <time>2026-07-07T09:23:16.000Z</time>
      </trkpt>
      <trkpt lat="48.10196" lon="16.34142">
        <ele>222.988692</ele>
        <time>2026-07-07T09:23:17.000Z</time>
      </trkpt>
      <trkpt lat="48.10191" lon="16.34143">
        <ele>222.960627</ele>
        <time>2026-07-07T09:23:18.000Z</time>
      </trkpt>
      <trkpt lat="48.10187" lon="16.34145">
        <ele>222.933262</ele>
        <time>2026-07-07T09:23:19.000Z</time>
      </trkpt>
      <trkpt lat="48.10183" lon="16.34147">
        <ele>222.904919</ele>
        <time>2026-07-07T09:23:20.000Z</time>
      </trkpt>
      <trkpt lat="48.10178" lon="16.3415">
        <ele>222.875705</ele>
        <time>2026-07-07T09:23:21.000Z</time>
      </trkpt>
      <trkpt lat="48.10174" lon="16.34152">
        <ele>222.848363</ele>
        <time>2026-07-07T09:23:22.000Z</time>
      </trkpt>
      <trkpt lat="48.1017" lon="16.34155">
        <ele>222.819298</ele>
        <time>2026-07-07T09:23:23.000Z</time>
      </trkpt>
      <trkpt lat="48.10165" lon="16.34158">
        <ele>222.789357</ele>
        <time>2026-07-07T09:23:24.000Z</time>
      </trkpt>
      <trkpt lat="48.10161" lon="16.3416">
        <ele>222.759713</ele>
        <time>2026-07-07T09:23:25.000Z</time>
      </trkpt>
      <trkpt lat="48.10156" lon="16.34162">
        <ele>222.72976</ele>
        <time>2026-07-07T09:23:26.000Z</time>
      </trkpt>
      <trkpt lat="48.10151" lon="16.34164">
        <ele>222.698344</ele>
        <time>2026-07-07T09:23:27.000Z</time>
      </trkpt>
      <trkpt lat="48.10146" lon="16.34163">
        <ele>222.667328</ele>
        <time>2026-07-07T09:23:28.000Z</time>
      </trkpt>
      <trkpt lat="48.10141" lon="16.34161">
        <ele>222.632419</ele>
        <time>2026-07-07T09:23:29.000Z</time>
      </trkpt>
      <trkpt lat="48.10136" lon="16.34157">
        <ele>222.597125</ele>
        <time>2026-07-07T09:23:30.000Z</time>
      </trkpt>
      <trkpt lat="48.1013" lon="16.34154">
        <ele>222.559809</ele>
        <time>2026-07-07T09:23:31.000Z</time>
      </trkpt>
      <trkpt lat="48.10124" lon="16.34152">
        <ele>222.523718</ele>
        <time>2026-07-07T09:23:32.000Z</time>
      </trkpt>
      <trkpt lat="48.10118" lon="16.34149">
        <ele>222.485253</ele>
        <time>2026-07-07T09:23:33.000Z</time>
      </trkpt>
      <trkpt lat="48.10112" lon="16.34147">
        <ele>222.447599</ele>
        <time>2026-07-07T09:23:34.000Z</time>
      </trkpt>
      <trkpt lat="48.10106" lon="16.34145">
        <ele>222.409347</ele>
        <time>2026-07-07T09:23:35.000Z</time>
      </trkpt>
      <trkpt lat="48.10101" lon="16.34142">
        <ele>222.37207</ele>
        <time>2026-07-07T09:23:36.000Z</time>
      </trkpt>
      <trkpt lat="48.10095" lon="16.3414">
        <ele>222.333376</ele>
        <time>2026-07-07T09:23:37.000Z</time>
      </trkpt>
      <trkpt lat="48.10088" lon="16.34137">
        <ele>222.293719</ele>
        <time>2026-07-07T09:23:38.000Z</time>
      </trkpt>
      <trkpt lat="48.10082" lon="16.34134">
        <ele>222.190956</ele>
        <time>2026-07-07T09:23:39.000Z</time>
      </trkpt>
      <trkpt lat="48.10076" lon="16.34132">
        <ele>222.053845</ele>
        <time>2026-07-07T09:23:40.000Z</time>
      </trkpt>
      <trkpt lat="48.1007" lon="16.34129">
        <ele>221.910521</ele>
        <time>2026-07-07T09:23:41.000Z</time>
      </trkpt>
      <trkpt lat="48.10064" lon="16.34126">
        <ele>221.77381</ele>
        <time>2026-07-07T09:23:42.000Z</time>
      </trkpt>
      <trkpt lat="48.10057" lon="16.34124">
        <ele>221.63124</ele>
        <time>2026-07-07T09:23:43.000Z</time>
      </trkpt>
      <trkpt lat="48.10051" lon="16.34121">
        <ele>221.48584</ele>
        <time>2026-07-07T09:23:44.000Z</time>
      </trkpt>
      <trkpt lat="48.10045" lon="16.34119">
        <ele>221.345354</ele>
        <time>2026-07-07T09:23:45.000Z</time>
      </trkpt>
      <trkpt lat="48.10038" lon="16.34116">
        <ele>221.199954</ele>
        <time>2026-07-07T09:23:46.000Z</time>
      </trkpt>
      <trkpt lat="48.10032" lon="16.34114">
        <ele>221.055986</ele>
        <time>2026-07-07T09:23:47.000Z</time>
      </trkpt>
      <trkpt lat="48.10025" lon="16.34111">
        <ele>220.911328</ele>
        <time>2026-07-07T09:23:48.000Z</time>
      </trkpt>
      <trkpt lat="48.10018" lon="16.34109">
        <ele>220.762492</ele>
        <time>2026-07-07T09:23:49.000Z</time>
      </trkpt>
      <trkpt lat="48.10012" lon="16.34106">
        <ele>220.611563</ele>
        <time>2026-07-07T09:23:50.000Z</time>
      </trkpt>
      <trkpt lat="48.10005" lon="16.34103">
        <ele>220.459546</ele>
        <time>2026-07-07T09:23:51.000Z</time>
      </trkpt>
      <trkpt lat="48.09998" lon="16.341">
        <ele>220.304672</ele>
        <time>2026-07-07T09:23:52.000Z</time>
      </trkpt>
      <trkpt lat="48.09991" lon="16.34097">
        <ele>220.148116</ele>
        <time>2026-07-07T09:23:53.000Z</time>
      </trkpt>
      <trkpt lat="48.09984" lon="16.34094">
        <ele>219.991171</ele>
        <time>2026-07-07T09:23:54.000Z</time>
      </trkpt>
      <trkpt lat="48.09977" lon="16.34092">
        <ele>219.834993</ele>
        <time>2026-07-07T09:23:55.000Z</time>
      </trkpt>
      <trkpt lat="48.0997" lon="16.34089">
        <ele>219.678816</ele>
        <time>2026-07-07T09:23:56.000Z</time>
      </trkpt>
      <trkpt lat="48.09963" lon="16.34086">
        <ele>219.520182</ele>
        <time>2026-07-07T09:23:57.000Z</time>
      </trkpt>
      <trkpt lat="48.09956" lon="16.34083">
        <ele>219.364722</ele>
        <time>2026-07-07T09:23:58.000Z</time>
      </trkpt>
      <trkpt lat="48.09949" lon="16.34081">
        <ele>219.204731</ele>
        <time>2026-07-07T09:23:59.000Z</time>
      </trkpt>
      <trkpt lat="48.09942" lon="16.34078">
        <ele>219.049612</ele>
        <time>2026-07-07T09:24:00.000Z</time>
      </trkpt>
      <trkpt lat="48.09935" lon="16.34075">
        <ele>218.893434</ele>
        <time>2026-07-07T09:24:01.000Z</time>
      </trkpt>
      <trkpt lat="48.09928" lon="16.34073">
        <ele>218.741792</ele>
        <time>2026-07-07T09:24:02.000Z</time>
      </trkpt>
      <trkpt lat="48.09921" lon="16.3407">
        <ele>218.582477</ele>
        <time>2026-07-07T09:24:03.000Z</time>
      </trkpt>
      <trkpt lat="48.09913" lon="16.34067">
        <ele>218.422486</ele>
        <time>2026-07-07T09:24:04.000Z</time>
      </trkpt>
      <trkpt lat="48.09906" lon="16.34065">
        <ele>218.265934</ele>
        <time>2026-07-07T09:24:05.000Z</time>
      </trkpt>
      <trkpt lat="48.09899" lon="16.34062">
        <ele>218.103429</ele>
        <time>2026-07-07T09:24:06.000Z</time>
      </trkpt>
      <trkpt lat="48.09892" lon="16.34059">
        <ele>217.943335</ele>
        <time>2026-07-07T09:24:07.000Z</time>
      </trkpt>
      <trkpt lat="48.09884" lon="16.34056">
        <ele>217.778766</ele>
        <time>2026-07-07T09:24:08.000Z</time>
      </trkpt>
      <trkpt lat="48.09877" lon="16.34053">
        <ele>217.613485</ele>
        <time>2026-07-07T09:24:09.000Z</time>
      </trkpt>
      <trkpt lat="48.09869" lon="16.3405">
        <ele>217.448205</ele>
        <time>2026-07-07T09:24:10.000Z</time>
      </trkpt>
      <trkpt lat="48.09861" lon="16.34047">
        <ele>217.277094</ele>
        <time>2026-07-07T09:24:11.000Z</time>
      </trkpt>
      <trkpt lat="48.09853" lon="16.34044">
        <ele>217.103217</ele>
        <time>2026-07-07T09:24:12.000Z</time>
      </trkpt>
      <trkpt lat="48.09846" lon="16.34041">
        <ele>216.931028</ele>
        <time>2026-07-07T09:24:13.000Z</time>
      </trkpt>
      <trkpt lat="48.09838" lon="16.34038">
        <ele>216.758458</ele>
        <time>2026-07-07T09:24:14.000Z</time>
      </trkpt>
      <trkpt lat="48.0983" lon="16.34035">
        <ele>216.58906</ele>
        <time>2026-07-07T09:24:15.000Z</time>
      </trkpt>
      <trkpt lat="48.09822" lon="16.34032">
        <ele>216.4176</ele>
        <time>2026-07-07T09:24:16.000Z</time>
      </trkpt>
      <trkpt lat="48.09815" lon="16.34029">
        <ele>216.248202</ele>
        <time>2026-07-07T09:24:17.000Z</time>
      </trkpt>
      <trkpt lat="48.09807" lon="16.34026">
        <ele>216.082922</ele>
        <time>2026-07-07T09:24:18.000Z</time>
      </trkpt>
      <trkpt lat="48.098" lon="16.34023">
        <ele>215.922122</ele>
        <time>2026-07-07T09:24:19.000Z</time>
      </trkpt>
      <trkpt lat="48.09793" lon="16.3402">
        <ele>215.766704</ele>
        <time>2026-07-07T09:24:20.000Z</time>
      </trkpt>
      <trkpt lat="48.09786" lon="16.34017">
        <ele>215.610877</ele>
        <time>2026-07-07T09:24:21.000Z</time>
      </trkpt>
      <trkpt lat="48.09779" lon="16.34013">
        <ele>215.457086</ele>
        <time>2026-07-07T09:24:22.000Z</time>
      </trkpt>
      <trkpt lat="48.09772" lon="16.34011">
        <ele>215.306933</ele>
        <time>2026-07-07T09:24:23.000Z</time>
      </trkpt>
      <trkpt lat="48.09765" lon="16.34008">
        <ele>215.157152</ele>
        <time>2026-07-07T09:24:24.000Z</time>
      </trkpt>
      <trkpt lat="48.09758" lon="16.34005">
        <ele>215.004946</ele>
        <time>2026-07-07T09:24:25.000Z</time>
      </trkpt>
      <trkpt lat="48.09752" lon="16.34003">
        <ele>214.86</ele>
        <time>2026-07-07T09:24:26.000Z</time>
      </trkpt>
      <trkpt lat="48.09745" lon="16.34">
        <ele>214.70816</ele>
        <time>2026-07-07T09:24:27.000Z</time>
      </trkpt>
      <trkpt lat="48.09738" lon="16.33997">
        <ele>214.570791</ele>
        <time>2026-07-07T09:24:28.000Z</time>
      </trkpt>
      <trkpt lat="48.09731" lon="16.33995">
        <ele>214.537869</ele>
        <time>2026-07-07T09:24:29.000Z</time>
      </trkpt>
      <trkpt lat="48.09724" lon="16.33992">
        <ele>214.504416</ele>
        <time>2026-07-07T09:24:30.000Z</time>
      </trkpt>
      <trkpt lat="48.09718" lon="16.33989">
        <ele>214.472076</ele>
        <time>2026-07-07T09:24:31.000Z</time>
      </trkpt>
      <trkpt lat="48.09711" lon="16.33987">
        <ele>214.43937</ele>
        <time>2026-07-07T09:24:32.000Z</time>
      </trkpt>
      <trkpt lat="48.09705" lon="16.33984">
        <ele>214.407569</ele>
        <time>2026-07-07T09:24:33.000Z</time>
      </trkpt>
      <trkpt lat="48.09698" lon="16.33981">
        <ele>214.376016</ele>
        <time>2026-07-07T09:24:34.000Z</time>
      </trkpt>
      <trkpt lat="48.09692" lon="16.33979">
        <ele>214.3443</ele>
        <time>2026-07-07T09:24:35.000Z</time>
      </trkpt>
      <trkpt lat="48.09685" lon="16.33976">
        <ele>214.311594</ele>
        <time>2026-07-07T09:24:36.000Z</time>
      </trkpt>
      <trkpt lat="48.09678" lon="16.33973">
        <ele>214.279705</ele>
        <time>2026-07-07T09:24:37.000Z</time>
      </trkpt>
      <trkpt lat="48.09672" lon="16.3397">
        <ele>214.247904</ele>
        <time>2026-07-07T09:24:38.000Z</time>
      </trkpt>
      <trkpt lat="48.09665" lon="16.33968">
        <ele>214.215895</ele>
        <time>2026-07-07T09:24:39.000Z</time>
      </trkpt>
      <trkpt lat="48.09659" lon="16.33965">
        <ele>214.184179</ele>
        <time>2026-07-07T09:24:40.000Z</time>
      </trkpt>
      <trkpt lat="48.09652" lon="16.33962">
        <ele>214.152626</ele>
        <time>2026-07-07T09:24:41.000Z</time>
      </trkpt>
      <trkpt lat="48.09646" lon="16.3396">
        <ele>214.121447</ele>
        <time>2026-07-07T09:24:42.000Z</time>
      </trkpt>
      <trkpt lat="48.09639" lon="16.33957">
        <ele>214.089893</ele>
        <time>2026-07-07T09:24:43.000Z</time>
      </trkpt>
      <trkpt lat="48.09633" lon="16.33955">
        <ele>214.058416</ele>
        <time>2026-07-07T09:24:44.000Z</time>
      </trkpt>
      <trkpt lat="48.09627" lon="16.33952">
        <ele>214.027691</ele>
        <time>2026-07-07T09:24:45.000Z</time>
      </trkpt>
      <trkpt lat="48.0962" lon="16.33949">
        <ele>213.995801</ele>
        <time>2026-07-07T09:24:46.000Z</time>
      </trkpt>
      <trkpt lat="48.09614" lon="16.33947">
        <ele>213.964398</ele>
        <time>2026-07-07T09:24:47.000Z</time>
      </trkpt>
      <trkpt lat="48.09607" lon="16.33945">
        <ele>213.932995</ele>
        <time>2026-07-07T09:24:48.000Z</time>
      </trkpt>
      <trkpt lat="48.09601" lon="16.33942">
        <ele>213.90243</ele>
        <time>2026-07-07T09:24:49.000Z</time>
      </trkpt>
      <trkpt lat="48.09594" lon="16.3394">
        <ele>213.871165</ele>
        <time>2026-07-07T09:24:50.000Z</time>
      </trkpt>
      <trkpt lat="48.09588" lon="16.33938">
        <ele>213.841056</ele>
        <time>2026-07-07T09:24:51.000Z</time>
      </trkpt>
      <trkpt lat="48.09582" lon="16.33935">
        <ele>213.810412</ele>
        <time>2026-07-07T09:24:52.000Z</time>
      </trkpt>
      <trkpt lat="48.09575" lon="16.33933">
        <ele>213.779233</ele>
        <time>2026-07-07T09:24:53.000Z</time>
      </trkpt>
      <trkpt lat="48.09569" lon="16.3393">
        <ele>213.747064</ele>
        <time>2026-07-07T09:24:54.000Z</time>
      </trkpt>
      <trkpt lat="48.09562" lon="16.33928">
        <ele>213.760223</ele>
        <time>2026-07-07T09:24:55.000Z</time>
      </trkpt>
      <trkpt lat="48.09556" lon="16.33925">
        <ele>213.838568</ele>
        <time>2026-07-07T09:24:56.000Z</time>
      </trkpt>
      <trkpt lat="48.09549" lon="16.33923">
        <ele>213.916729</ele>
        <time>2026-07-07T09:24:57.000Z</time>
      </trkpt>
      <trkpt lat="48.09543" lon="16.33921">
        <ele>213.995264</ele>
        <time>2026-07-07T09:24:58.000Z</time>
      </trkpt>
      <trkpt lat="48.09536" lon="16.33918">
        <ele>214.074202</ele>
        <time>2026-07-07T09:24:59.000Z</time>
      </trkpt>
      <trkpt lat="48.0953" lon="16.33916">
        <ele>214.152363</ele>
        <time>2026-07-07T09:25:00.000Z</time>
      </trkpt>
      <trkpt lat="48.09523" lon="16.33913">
        <ele>214.229207</ele>
        <time>2026-07-07T09:25:01.000Z</time>
      </trkpt>
      <trkpt lat="48.09517" lon="16.33911">
        <ele>214.307024</ele>
        <time>2026-07-07T09:25:02.000Z</time>
      </trkpt>
      <trkpt lat="48.09511" lon="16.33909">
        <ele>214.383098</ele>
        <time>2026-07-07T09:25:03.000Z</time>
      </trkpt>
      <trkpt lat="48.09504" lon="16.33906">
        <ele>214.459368</ele>
        <time>2026-07-07T09:25:04.000Z</time>
      </trkpt>
      <trkpt lat="48.09498" lon="16.33904">
        <ele>214.537185</ele>
        <time>2026-07-07T09:25:05.000Z</time>
      </trkpt>
      <trkpt lat="48.09492" lon="16.33902">
        <ele>214.611749</ele>
        <time>2026-07-07T09:25:06.000Z</time>
      </trkpt>
      <trkpt lat="48.09485" lon="16.339">
        <ele>214.687634</ele>
        <time>2026-07-07T09:25:07.000Z</time>
      </trkpt>
      <trkpt lat="48.09479" lon="16.33897">
        <ele>214.762774</ele>
        <time>2026-07-07T09:25:08.000Z</time>
      </trkpt>
      <trkpt lat="48.09473" lon="16.33895">
        <ele>214.837914</ele>
        <time>2026-07-07T09:25:10.000Z</time>
      </trkpt>
      <trkpt lat="48.09467" lon="16.33893">
        <ele>214.911341</ele>
        <time>2026-07-07T09:25:11.000Z</time>
      </trkpt>
      <trkpt lat="48.0946" lon="16.3389">
        <ele>214.988185</ele>
        <time>2026-07-07T09:25:12.000Z</time>
      </trkpt>
      <trkpt lat="48.09454" lon="16.33888">
        <ele>215.060292</ele>
        <time>2026-07-07T09:25:13.000Z</time>
      </trkpt>
      <trkpt lat="48.09448" lon="16.33886">
        <ele>215.132226</ele>
        <time>2026-07-07T09:25:14.000Z</time>
      </trkpt>
      <trkpt lat="48.09442" lon="16.33884">
        <ele>215.204159</ele>
        <time>2026-07-07T09:25:15.000Z</time>
      </trkpt>
      <trkpt lat="48.09437" lon="16.33882">
        <ele>215.274177</ele>
        <time>2026-07-07T09:25:16.000Z</time>
      </trkpt>
      <trkpt lat="48.09431" lon="16.3388">
        <ele>215.344196</ele>
        <time>2026-07-07T09:25:17.000Z</time>
      </trkpt>
      <trkpt lat="48.09425" lon="16.33878">
        <ele>215.410619</ele>
        <time>2026-07-07T09:25:18.000Z</time>
      </trkpt>
      <trkpt lat="48.0942" lon="16.33876">
        <ele>215.473447</ele>
        <time>2026-07-07T09:25:19.000Z</time>
      </trkpt>
      <trkpt lat="48.09415" lon="16.33874">
        <ele>215.536275</ele>
        <time>2026-07-07T09:25:20.000Z</time>
      </trkpt>
      <trkpt lat="48.0941" lon="16.33872">
        <ele>215.600238</ele>
        <time>2026-07-07T09:25:21.000Z</time>
      </trkpt>
      <trkpt lat="48.09405" lon="16.3387">
        <ele>215.660239</ele>
        <time>2026-07-07T09:25:22.000Z</time>
      </trkpt>
      <trkpt lat="48.09399" lon="16.33868">
        <ele>215.722697</ele>
        <time>2026-07-07T09:25:23.000Z</time>
      </trkpt>
      <trkpt lat="48.09394" lon="16.33866">
        <ele>215.784199</ele>
        <time>2026-07-07T09:25:24.000Z</time>
      </trkpt>
      <trkpt lat="48.09389" lon="16.33865">
        <ele>215.846053</ele>
        <time>2026-07-07T09:25:25.000Z</time>
      </trkpt>
      <trkpt lat="48.09384" lon="16.33863">
        <ele>215.904811</ele>
        <time>2026-07-07T09:25:26.000Z</time>
      </trkpt>
      <trkpt lat="48.09379" lon="16.33861">
        <ele>215.965806</ele>
        <time>2026-07-07T09:25:27.000Z</time>
      </trkpt>
      <trkpt lat="48.09374" lon="16.3386">
        <ele>216.024738</ele>
        <time>2026-07-07T09:25:28.000Z</time>
      </trkpt>
      <trkpt lat="48.09369" lon="16.33858">
        <ele>216.084785</ele>
        <time>2026-07-07T09:25:29.000Z</time>
      </trkpt>
      <trkpt lat="48.09364" lon="16.33856">
        <ele>216.146125</ele>
        <time>2026-07-07T09:25:30.000Z</time>
      </trkpt>
      <trkpt lat="48.09358" lon="16.33854">
        <ele>216.207651</ele>
        <time>2026-07-07T09:25:31.000Z</time>
      </trkpt>
      <trkpt lat="48.09353" lon="16.33852">
        <ele>216.270478</ele>
        <time>2026-07-07T09:25:32.000Z</time>
      </trkpt>
      <trkpt lat="48.09348" lon="16.3385">
        <ele>216.332004</ele>
        <time>2026-07-07T09:25:33.000Z</time>
      </trkpt>
      <trkpt lat="48.09343" lon="16.33848">
        <ele>216.394641</ele>
        <time>2026-07-07T09:25:34.000Z</time>
      </trkpt>
      <trkpt lat="48.09337" lon="16.33846">
        <ele>216.457277</ele>
        <time>2026-07-07T09:25:35.000Z</time>
      </trkpt>
      <trkpt lat="48.09332" lon="16.33844">
        <ele>216.520846</ele>
        <time>2026-07-07T09:25:36.000Z</time>
      </trkpt>
      <trkpt lat="48.09326" lon="16.33842">
        <ele>216.585707</ele>
        <time>2026-07-07T09:25:37.000Z</time>
      </trkpt>
      <trkpt lat="48.09321" lon="16.3384">
        <ele>216.648344</ele>
        <time>2026-07-07T09:25:38.000Z</time>
      </trkpt>
      <trkpt lat="48.09316" lon="16.33838">
        <ele>216.712861</ele>
        <time>2026-07-07T09:25:39.000Z</time>
      </trkpt>
      <trkpt lat="48.0931" lon="16.33836">
        <ele>216.779619</ele>
        <time>2026-07-07T09:25:40.000Z</time>
      </trkpt>
      <trkpt lat="48.09304" lon="16.33834">
        <ele>216.844858</ele>
        <time>2026-07-07T09:25:41.000Z</time>
      </trkpt>
      <trkpt lat="48.09299" lon="16.33832">
        <ele>216.910834</ele>
        <time>2026-07-07T09:25:42.000Z</time>
      </trkpt>
      <trkpt lat="48.09293" lon="16.3383">
        <ele>216.976074</ele>
        <time>2026-07-07T09:25:43.000Z</time>
      </trkpt>
      <trkpt lat="48.09288" lon="16.33828">
        <ele>217.040935</ele>
        <time>2026-07-07T09:25:44.000Z</time>
      </trkpt>
      <trkpt lat="48.09282" lon="16.33826">
        <ele>217.107693</ele>
        <time>2026-07-07T09:25:45.000Z</time>
      </trkpt>
      <trkpt lat="48.09276" lon="16.33824">
        <ele>217.174784</ele>
        <time>2026-07-07T09:25:46.000Z</time>
      </trkpt>
      <trkpt lat="48.09271" lon="16.33822">
        <ele>217.24335</ele>
        <time>2026-07-07T09:25:47.000Z</time>
      </trkpt>
      <trkpt lat="48.09265" lon="16.3382">
        <ele>217.31062</ele>
        <time>2026-07-07T09:25:48.000Z</time>
      </trkpt>
      <trkpt lat="48.09259" lon="16.33818">
        <ele>217.379187</ele>
        <time>2026-07-07T09:25:49.000Z</time>
      </trkpt>
      <trkpt lat="48.09253" lon="16.33815">
        <ele>217.446643</ele>
        <time>2026-07-07T09:25:50.000Z</time>
      </trkpt>
      <trkpt lat="48.09248" lon="16.33813">
        <ele>217.512801</ele>
        <time>2026-07-07T09:25:51.000Z</time>
      </trkpt>
      <trkpt lat="48.09242" lon="16.33811">
        <ele>217.580257</ele>
        <time>2026-07-07T09:25:52.000Z</time>
      </trkpt>
      <trkpt lat="48.09236" lon="16.33809">
        <ele>217.648824</ele>
        <time>2026-07-07T09:25:53.000Z</time>
      </trkpt>
      <trkpt lat="48.09231" lon="16.33807">
        <ele>217.715915</ele>
        <time>2026-07-07T09:25:54.000Z</time>
      </trkpt>
      <trkpt lat="48.09225" lon="16.33805">
        <ele>217.783184</ele>
        <time>2026-07-07T09:25:55.000Z</time>
      </trkpt>
      <trkpt lat="48.09219" lon="16.33803">
        <ele>217.849532</ele>
        <time>2026-07-07T09:25:56.000Z</time>
      </trkpt>
      <trkpt lat="48.09213" lon="16.338">
        <ele>217.902988</ele>
        <time>2026-07-07T09:25:57.000Z</time>
      </trkpt>
      <trkpt lat="48.09208" lon="16.33798">
        <ele>217.925739</ele>
        <time>2026-07-07T09:25:58.000Z</time>
      </trkpt>
      <trkpt lat="48.09202" lon="16.33796">
        <ele>217.949579</ele>
        <time>2026-07-07T09:25:59.000Z</time>
      </trkpt>
      <trkpt lat="48.09196" lon="16.33794">
        <ele>217.972977</ele>
        <time>2026-07-07T09:26:00.000Z</time>
      </trkpt>
      <trkpt lat="48.0919" lon="16.33793">
        <ele>217.996219</ele>
        <time>2026-07-07T09:26:01.000Z</time>
      </trkpt>
      <trkpt lat="48.09184" lon="16.33791">
        <ele>218.019897</ele>
        <time>2026-07-07T09:26:02.000Z</time>
      </trkpt>
      <trkpt lat="48.09178" lon="16.33789">
        <ele>218.043962</ele>
        <time>2026-07-07T09:26:03.000Z</time>
      </trkpt>
      <trkpt lat="48.09172" lon="16.33788">
        <ele>218.067854</ele>
        <time>2026-07-07T09:26:04.000Z</time>
      </trkpt>
      <trkpt lat="48.09166" lon="16.33787">
        <ele>218.091827</ele>
        <time>2026-07-07T09:26:05.000Z</time>
      </trkpt>
      <trkpt lat="48.0916" lon="16.33785">
        <ele>218.115892</ele>
        <time>2026-07-07T09:26:06.000Z</time>
      </trkpt>
      <trkpt lat="48.09154" lon="16.33783">
        <ele>218.139909</ele>
        <time>2026-07-07T09:26:07.000Z</time>
      </trkpt>
      <trkpt lat="48.09148" lon="16.33782">
        <ele>218.163882</ele>
        <time>2026-07-07T09:26:08.000Z</time>
      </trkpt>
      <trkpt lat="48.09143" lon="16.3378">
        <ele>218.187035</ele>
        <time>2026-07-07T09:26:09.000Z</time>
      </trkpt>
      <trkpt lat="48.09137" lon="16.33779">
        <ele>218.211052</ele>
        <time>2026-07-07T09:26:10.000Z</time>
      </trkpt>
      <trkpt lat="48.0913" lon="16.33777">
        <ele>218.235892</ele>
        <time>2026-07-07T09:26:11.000Z</time>
      </trkpt>
      <trkpt lat="48.09124" lon="16.33775">
        <ele>218.260008</ele>
        <time>2026-07-07T09:26:12.000Z</time>
      </trkpt>
      <trkpt lat="48.09118" lon="16.33773">
        <ele>218.284562</ele>
        <time>2026-07-07T09:26:13.000Z</time>
      </trkpt>
      <trkpt lat="48.09112" lon="16.33772">
        <ele>218.309356</ele>
        <time>2026-07-07T09:26:14.000Z</time>
      </trkpt>
      <trkpt lat="48.09106" lon="16.3377">
        <ele>218.333329</ele>
        <time>2026-07-07T09:26:15.000Z</time>
      </trkpt>
      <trkpt lat="48.091" lon="16.33769">
        <ele>218.357966</ele>
        <time>2026-07-07T09:26:16.000Z</time>
      </trkpt>
      <trkpt lat="48.09094" lon="16.33768">
        <ele>218.382247</ele>
        <time>2026-07-07T09:26:17.000Z</time>
      </trkpt>
      <trkpt lat="48.09088" lon="16.33766">
        <ele>218.407087</ele>
        <time>2026-07-07T09:26:18.000Z</time>
      </trkpt>
      <trkpt lat="48.09081" lon="16.33764">
        <ele>218.431976</ele>
        <time>2026-07-07T09:26:19.000Z</time>
      </trkpt>
      <trkpt lat="48.09075" lon="16.33762">
        <ele>218.45653</ele>
        <time>2026-07-07T09:26:20.000Z</time>
      </trkpt>
      <trkpt lat="48.09069" lon="16.33761">
        <ele>218.480422</ele>
        <time>2026-07-07T09:26:21.000Z</time>
      </trkpt>
      <trkpt lat="48.09063" lon="16.3376">
        <ele>218.505094</ele>
        <time>2026-07-07T09:26:22.000Z</time>
      </trkpt>
      <trkpt lat="48.09057" lon="16.33758">
        <ele>218.529804</ele>
        <time>2026-07-07T09:26:23.000Z</time>
      </trkpt>
      <trkpt lat="48.09051" lon="16.33757">
        <ele>218.554086</ele>
        <time>2026-07-07T09:26:24.000Z</time>
      </trkpt>
      <trkpt lat="48.09045" lon="16.33756">
        <ele>218.578837</ele>
        <time>2026-07-07T09:26:25.000Z</time>
      </trkpt>
      <trkpt lat="48.09039" lon="16.33754">
        <ele>218.602728</ele>
        <time>2026-07-07T09:26:26.000Z</time>
      </trkpt>
      <trkpt lat="48.09032" lon="16.33753">
        <ele>218.616236</ele>
        <time>2026-07-07T09:26:27.000Z</time>
      </trkpt>
      <trkpt lat="48.09026" lon="16.33752">
        <ele>218.628997</ele>
        <time>2026-07-07T09:26:28.000Z</time>
      </trkpt>
      <trkpt lat="48.0902" lon="16.33751">
        <ele>218.642404</ele>
        <time>2026-07-07T09:26:29.000Z</time>
      </trkpt>
      <trkpt lat="48.09014" lon="16.33749">
        <ele>218.65571</ele>
        <time>2026-07-07T09:26:30.000Z</time>
      </trkpt>
      <trkpt lat="48.09002" lon="16.33746">
        <ele>218.682041</ele>
        <time>2026-07-07T09:26:32.000Z</time>
      </trkpt>
      <trkpt lat="48.08989" lon="16.33742">
        <ele>218.708887</ele>
        <time>2026-07-07T09:26:33.000Z</time>
      </trkpt>
      <trkpt lat="48.08983" lon="16.33741">
        <ele>218.7224</ele>
        <time>2026-07-07T09:26:34.000Z</time>
      </trkpt>
      <trkpt lat="48.08976" lon="16.33739">
        <ele>218.736122</ele>
        <time>2026-07-07T09:26:36.000Z</time>
      </trkpt>
      <trkpt lat="48.08963" lon="16.33736">
        <ele>218.763809</ele>
        <time>2026-07-07T09:26:37.000Z</time>
      </trkpt>
      <trkpt lat="48.08957" lon="16.33735">
        <ele>218.777902</ele>
        <time>2026-07-07T09:26:38.000Z</time>
      </trkpt>
      <trkpt lat="48.0895" lon="16.33733">
        <ele>218.792203</ele>
        <time>2026-07-07T09:26:39.000Z</time>
      </trkpt>
      <trkpt lat="48.08943" lon="16.33732">
        <ele>218.806504</ele>
        <time>2026-07-07T09:26:40.000Z</time>
      </trkpt>
      <trkpt lat="48.08937" lon="16.3373">
        <ele>218.820388</ele>
        <time>2026-07-07T09:26:41.000Z</time>
      </trkpt>
      <trkpt lat="48.0893" lon="16.33729">
        <ele>218.83448</ele>
        <time>2026-07-07T09:26:42.000Z</time>
      </trkpt>
      <trkpt lat="48.08924" lon="16.33727">
        <ele>218.848364</ele>
        <time>2026-07-07T09:26:43.000Z</time>
      </trkpt>
      <trkpt lat="48.08917" lon="16.33726">
        <ele>218.862294</ele>
        <time>2026-07-07T09:26:44.000Z</time>
      </trkpt>
      <trkpt lat="48.08911" lon="16.33724">
        <ele>218.876248</ele>
        <time>2026-07-07T09:26:45.000Z</time>
      </trkpt>
      <trkpt lat="48.08904" lon="16.33722">
        <ele>218.890132</ele>
        <time>2026-07-07T09:26:46.000Z</time>
      </trkpt>
      <trkpt lat="48.08898" lon="16.33721">
        <ele>218.903995</ele>
        <time>2026-07-07T09:26:47.000Z</time>
      </trkpt>
      <trkpt lat="48.08891" lon="16.3372">
        <ele>218.917839</ele>
        <time>2026-07-07T09:26:48.000Z</time>
      </trkpt>
      <trkpt lat="48.08885" lon="16.33718">
        <ele>218.931682</ele>
        <time>2026-07-07T09:26:49.000Z</time>
      </trkpt>
      <trkpt lat="48.08878" lon="16.33717">
        <ele>218.945298</ele>
        <time>2026-07-07T09:26:50.000Z</time>
      </trkpt>
      <trkpt lat="48.08872" lon="16.33716">
        <ele>218.959142</ele>
        <time>2026-07-07T09:26:51.000Z</time>
      </trkpt>
      <trkpt lat="48.08866" lon="16.33715">
        <ele>218.972549</ele>
        <time>2026-07-07T09:26:52.000Z</time>
      </trkpt>
      <trkpt lat="48.08859" lon="16.33713">
        <ele>218.985471</ele>
        <time>2026-07-07T09:26:53.000Z</time>
      </trkpt>
      <trkpt lat="48.08853" lon="16.33713">
        <ele>218.995233</ele>
        <time>2026-07-07T09:26:54.000Z</time>
      </trkpt>
      <trkpt lat="48.08846" lon="16.33712">
        <ele>219.005128</ele>
        <time>2026-07-07T09:26:55.000Z</time>
      </trkpt>
      <trkpt lat="48.0884" lon="16.33712">
        <ele>219.014869</ele>
        <time>2026-07-07T09:26:56.000Z</time>
      </trkpt>
      <trkpt lat="48.08834" lon="16.33711">
        <ele>219.02493</ele>
        <time>2026-07-07T09:26:57.000Z</time>
      </trkpt>
      <trkpt lat="48.08827" lon="16.3371">
        <ele>219.034677</ele>
        <time>2026-07-07T09:26:58.000Z</time>
      </trkpt>
      <trkpt lat="48.08821" lon="16.3371">
        <ele>219.044584</ele>
        <time>2026-07-07T09:26:59.000Z</time>
      </trkpt>
      <trkpt lat="48.08814" lon="16.33709">
        <ele>219.054625</ele>
        <time>2026-07-07T09:27:00.000Z</time>
      </trkpt>
      <trkpt lat="48.08808" lon="16.33709">
        <ele>219.064361</ele>
        <time>2026-07-07T09:27:01.000Z</time>
      </trkpt>
      <trkpt lat="48.08802" lon="16.33708">
        <ele>219.07441</ele>
        <time>2026-07-07T09:27:02.000Z</time>
      </trkpt>
      <trkpt lat="48.08795" lon="16.33708">
        <ele>219.083996</ele>
        <time>2026-07-07T09:27:03.000Z</time>
      </trkpt>
      <trkpt lat="48.08789" lon="16.33707">
        <ele>219.093434</ele>
        <time>2026-07-07T09:27:04.000Z</time>
      </trkpt>
      <trkpt lat="48.08783" lon="16.33707">
        <ele>219.103034</ele>
        <time>2026-07-07T09:27:05.000Z</time>
      </trkpt>
      <trkpt lat="48.08777" lon="16.33706">
        <ele>219.112775</ele>
        <time>2026-07-07T09:27:06.000Z</time>
      </trkpt>
      <trkpt lat="48.0877" lon="16.33706">
        <ele>219.122669</ele>
        <time>2026-07-07T09:27:07.000Z</time>
      </trkpt>
      <trkpt lat="48.08764" lon="16.33705">
        <ele>219.13271</ele>
        <time>2026-07-07T09:27:08.000Z</time>
      </trkpt>
      <trkpt lat="48.08757" lon="16.33705">
        <ele>219.142746</ele>
        <time>2026-07-07T09:27:09.000Z</time>
      </trkpt>
      <trkpt lat="48.08751" lon="16.33705">
        <ele>219.152481</ele>
        <time>2026-07-07T09:27:10.000Z</time>
      </trkpt>
      <trkpt lat="48.08745" lon="16.33704">
        <ele>219.162222</ele>
        <time>2026-07-07T09:27:11.000Z</time>
      </trkpt>
      <trkpt lat="48.08738" lon="16.33704">
        <ele>219.172271</ele>
        <time>2026-07-07T09:27:12.000Z</time>
      </trkpt>
      <trkpt lat="48.08732" lon="16.33703">
        <ele>219.182186</ele>
        <time>2026-07-07T09:27:13.000Z</time>
      </trkpt>
      <trkpt lat="48.08726" lon="16.33702">
        <ele>219.191948</ele>
        <time>2026-07-07T09:27:14.000Z</time>
      </trkpt>
      <trkpt lat="48.08719" lon="16.33702">
        <ele>219.201702</ele>
        <time>2026-07-07T09:27:15.000Z</time>
      </trkpt>
      <trkpt lat="48.08713" lon="16.33701">
        <ele>219.211618</ele>
        <time>2026-07-07T09:27:16.000Z</time>
      </trkpt>
      <trkpt lat="48.08707" lon="16.337">
        <ele>219.221389</ele>
        <time>2026-07-07T09:27:17.000Z</time>
      </trkpt>
      <trkpt lat="48.087" lon="16.337">
        <ele>219.231121</ele>
        <time>2026-07-07T09:27:18.000Z</time>
      </trkpt>
      <trkpt lat="48.08694" lon="16.33699">
        <ele>219.241007</ele>
        <time>2026-07-07T09:27:19.000Z</time>
      </trkpt>
      <trkpt lat="48.08688" lon="16.33699">
        <ele>219.250747</ele>
        <time>2026-07-07T09:27:20.000Z</time>
      </trkpt>
      <trkpt lat="48.08681" lon="16.33698">
        <ele>219.260329</ele>
        <time>2026-07-07T09:27:21.000Z</time>
      </trkpt>
      <trkpt lat="48.08675" lon="16.33698">
        <ele>219.277625</ele>
        <time>2026-07-07T09:27:22.000Z</time>
      </trkpt>
      <trkpt lat="48.08669" lon="16.33697">
        <ele>219.295585</ele>
        <time>2026-07-07T09:27:23.000Z</time>
      </trkpt>
      <trkpt lat="48.08663" lon="16.33696">
        <ele>219.313834</ele>
        <time>2026-07-07T09:27:24.000Z</time>
      </trkpt>
      <trkpt lat="48.08656" lon="16.33696">
        <ele>219.33233</ele>
        <time>2026-07-07T09:27:25.000Z</time>
      </trkpt>
      <trkpt lat="48.0865" lon="16.33695">
        <ele>219.350563</ele>
        <time>2026-07-07T09:27:26.000Z</time>
      </trkpt>
      <trkpt lat="48.08644" lon="16.33695">
        <ele>219.368467</ele>
        <time>2026-07-07T09:27:27.000Z</time>
      </trkpt>
      <trkpt lat="48.08638" lon="16.33694">
        <ele>219.386099</ele>
        <time>2026-07-07T09:27:28.000Z</time>
      </trkpt>
      <trkpt lat="48.08632" lon="16.33694">
        <ele>219.40401</ele>
        <time>2026-07-07T09:27:29.000Z</time>
      </trkpt>
      <trkpt lat="48.08625" lon="16.33694">
        <ele>219.422193</ele>
        <time>2026-07-07T09:27:30.000Z</time>
      </trkpt>
      <trkpt lat="48.08619" lon="16.33694">
        <ele>219.440666</ele>
        <time>2026-07-07T09:27:31.000Z</time>
      </trkpt>
      <trkpt lat="48.08613" lon="16.33693">
        <ele>219.458288</ele>
        <time>2026-07-07T09:27:32.000Z</time>
      </trkpt>
      <trkpt lat="48.08607" lon="16.33693">
        <ele>219.476192</ele>
        <time>2026-07-07T09:27:33.000Z</time>
      </trkpt>
      <trkpt lat="48.086" lon="16.33693">
        <ele>219.494096</ele>
        <time>2026-07-07T09:27:34.000Z</time>
      </trkpt>
      <trkpt lat="48.08594" lon="16.33692">
        <ele>219.511728</ele>
        <time>2026-07-07T09:27:35.000Z</time>
      </trkpt>
      <trkpt lat="48.08588" lon="16.33692">
        <ele>219.530225</ele>
        <time>2026-07-07T09:27:36.000Z</time>
      </trkpt>
      <trkpt lat="48.08582" lon="16.33691">
        <ele>219.547847</ele>
        <time>2026-07-07T09:27:37.000Z</time>
      </trkpt>
      <trkpt lat="48.08576" lon="16.33691">
        <ele>219.565743</ele>
        <time>2026-07-07T09:27:38.000Z</time>
      </trkpt>
      <trkpt lat="48.08569" lon="16.33691">
        <ele>219.583663</ele>
        <time>2026-07-07T09:27:39.000Z</time>
      </trkpt>
      <trkpt lat="48.08564" lon="16.3369">
        <ele>219.60043</ele>
        <time>2026-07-07T09:27:40.000Z</time>
      </trkpt>
      <trkpt lat="48.08558" lon="16.3369">
        <ele>219.61691</ele>
        <time>2026-07-07T09:27:41.000Z</time>
      </trkpt>
      <trkpt lat="48.08552" lon="16.33689">
        <ele>219.632841</ele>
        <time>2026-07-07T09:27:42.000Z</time>
      </trkpt>
      <trkpt lat="48.08547" lon="16.33688">
        <ele>219.648772</ele>
        <time>2026-07-07T09:27:43.000Z</time>
      </trkpt>
      <trkpt lat="48.08541" lon="16.33688">
        <ele>219.664648</ele>
        <time>2026-07-07T09:27:44.000Z</time>
      </trkpt>
      <trkpt lat="48.08536" lon="16.33688">
        <ele>219.679367</ele>
        <time>2026-07-07T09:27:45.000Z</time>
      </trkpt>
      <trkpt lat="48.08531" lon="16.33688">
        <ele>219.69438</ele>
        <time>2026-07-07T09:27:46.000Z</time>
      </trkpt>
      <trkpt lat="48.08526" lon="16.33688">
        <ele>219.708823</ele>
        <time>2026-07-07T09:27:47.000Z</time>
      </trkpt>
      <trkpt lat="48.08521" lon="16.33687">
        <ele>219.723274</ele>
        <time>2026-07-07T09:27:48.000Z</time>
      </trkpt>
      <trkpt lat="48.08516" lon="16.33687">
        <ele>219.737737</ele>
        <time>2026-07-07T09:27:49.000Z</time>
      </trkpt>
      <trkpt lat="48.08511" lon="16.33687">
        <ele>219.751603</ele>
        <time>2026-07-07T09:27:50.000Z</time>
      </trkpt>
      <trkpt lat="48.08506" lon="16.33686">
        <ele>219.765757</ele>
        <time>2026-07-07T09:27:51.000Z</time>
      </trkpt>
      <trkpt lat="48.08502" lon="16.33686">
        <ele>219.778781</ele>
        <time>2026-07-07T09:27:52.000Z</time>
      </trkpt>
      <trkpt lat="48.08498" lon="16.33685">
        <ele>219.785035</ele>
        <time>2026-07-07T09:27:53.000Z</time>
      </trkpt>
      <trkpt lat="48.08494" lon="16.33684">
        <ele>219.789823</ele>
        <time>2026-07-07T09:27:54.000Z</time>
      </trkpt>
      <trkpt lat="48.08492" lon="16.33682">
        <ele>219.793765</ele>
        <time>2026-07-07T09:27:55.000Z</time>
      </trkpt>
      <trkpt lat="48.08491" lon="16.33678">
        <ele>219.797456</ele>
        <time>2026-07-07T09:27:56.000Z</time>
      </trkpt>
      <trkpt lat="48.08491" lon="16.33674">
        <ele>219.801347</ele>
        <time>2026-07-07T09:27:57.000Z</time>
      </trkpt>
      <trkpt lat="48.08491" lon="16.3367">
        <ele>219.805331</ele>
        <time>2026-07-07T09:27:58.000Z</time>
      </trkpt>
      <trkpt lat="48.08491" lon="16.33666">
        <ele>219.809037</ele>
        <time>2026-07-07T09:27:59.000Z</time>
      </trkpt>
      <trkpt lat="48.08491" lon="16.33663">
        <ele>219.811981</ele>
        <time>2026-07-07T09:28:00.000Z</time>
      </trkpt>
      <trkpt lat="48.08489" lon="16.3366">
        <ele>219.814959</ele>
        <time>2026-07-07T09:28:01.000Z</time>
      </trkpt>
      <trkpt lat="48.08487" lon="16.33659">
        <ele>219.818207</ele>
        <time>2026-07-07T09:28:02.000Z</time>
      </trkpt>
      <trkpt lat="48.08484" lon="16.33659">
        <ele>219.82209</ele>
        <time>2026-07-07T09:28:03.000Z</time>
      </trkpt>
      <trkpt lat="48.08481" lon="16.33658">
        <ele>219.826043</ele>
        <time>2026-07-07T09:28:04.000Z</time>
      </trkpt>
      <trkpt lat="48.08479" lon="16.33655">
        <ele>219.830103</ele>
        <time>2026-07-07T09:28:05.000Z</time>
      </trkpt>
      <trkpt lat="48.08479" lon="16.33651">
        <ele>219.833873</ele>
        <time>2026-07-07T09:28:06.000Z</time>
      </trkpt>
      <trkpt lat="48.08479" lon="16.33647">
        <ele>219.837787</ele>
        <time>2026-07-07T09:28:07.000Z</time>
      </trkpt>
      <trkpt lat="48.0848" lon="16.33643">
        <ele>219.841618</ele>
        <time>2026-07-07T09:28:08.000Z</time>
      </trkpt>
      <trkpt lat="48.08481" lon="16.33639">
        <ele>219.845575</ele>
        <time>2026-07-07T09:28:09.000Z</time>
      </trkpt>
      <trkpt lat="48.08481" lon="16.33634">
        <ele>219.850036</ele>
        <time>2026-07-07T09:28:10.000Z</time>
      </trkpt>
      <trkpt lat="48.08482" lon="16.33629">
        <ele>219.85472</ele>
        <time>2026-07-07T09:28:11.000Z</time>
      </trkpt>
      <trkpt lat="48.08482" lon="16.33624">
        <ele>219.859632</ele>
        <time>2026-07-07T09:28:12.000Z</time>
      </trkpt>
      <trkpt lat="48.08482" lon="16.33618">
        <ele>219.864666</ele>
        <time>2026-07-07T09:28:13.000Z</time>
      </trkpt>
      <trkpt lat="48.08482" lon="16.33613">
        <ele>219.869763</ele>
        <time>2026-07-07T09:28:14.000Z</time>
      </trkpt>
      <trkpt lat="48.08482" lon="16.33608">
        <ele>219.874674</ele>
        <time>2026-07-07T09:28:15.000Z</time>
      </trkpt>
      <trkpt lat="48.08482" lon="16.33603">
        <ele>219.879167</ele>
        <time>2026-07-07T09:28:16.000Z</time>
      </trkpt>
      <trkpt lat="48.0848" lon="16.33599">
        <ele>219.883417</ele>
        <time>2026-07-07T09:28:17.000Z</time>
      </trkpt>
      <trkpt lat="48.08478" lon="16.33595">
        <ele>219.887684</ele>
        <time>2026-07-07T09:28:18.000Z</time>
      </trkpt>
      <trkpt lat="48.08475" lon="16.33592">
        <ele>219.892518</ele>
        <time>2026-07-07T09:28:19.000Z</time>
      </trkpt>
      <trkpt lat="48.08472" lon="16.3359">
        <ele>219.897783</ele>
        <time>2026-07-07T09:28:20.000Z</time>
      </trkpt>
      <trkpt lat="48.08467" lon="16.33589">
        <ele>219.904092</ele>
        <time>2026-07-07T09:28:21.000Z</time>
      </trkpt>
      <trkpt lat="48.08462" lon="16.33589">
        <ele>219.911029</ele>
        <time>2026-07-07T09:28:22.000Z</time>
      </trkpt>
      <trkpt lat="48.08457" lon="16.3359">
        <ele>219.918438</ele>
        <time>2026-07-07T09:28:23.000Z</time>
      </trkpt>
      <trkpt lat="48.08452" lon="16.33591">
        <ele>219.926121</ele>
        <time>2026-07-07T09:28:24.000Z</time>
      </trkpt>
      <trkpt lat="48.08446" lon="16.33592">
        <ele>219.934191</ele>
        <time>2026-07-07T09:28:25.000Z</time>
      </trkpt>
      <trkpt lat="48.0844" lon="16.33593">
        <ele>219.942407</ele>
        <time>2026-07-07T09:28:26.000Z</time>
      </trkpt>
      <trkpt lat="48.08434" lon="16.33593">
        <ele>219.950754</ele>
        <time>2026-07-07T09:28:27.000Z</time>
      </trkpt>
      <trkpt lat="48.08428" lon="16.33594">
        <ele>219.958811</ele>
        <time>2026-07-07T09:28:28.000Z</time>
      </trkpt>
      <trkpt lat="48.08422" lon="16.33594">
        <ele>219.967133</ele>
        <time>2026-07-07T09:28:29.000Z</time>
      </trkpt>
      <trkpt lat="48.08416" lon="16.33594">
        <ele>219.975454</ele>
        <time>2026-07-07T09:28:30.000Z</time>
      </trkpt>
      <trkpt lat="48.0841" lon="16.33594">
        <ele>219.984052</ele>
        <time>2026-07-07T09:28:31.000Z</time>
      </trkpt>
      <trkpt lat="48.08404" lon="16.33594">
        <ele>219.992374</ele>
        <time>2026-07-07T09:28:32.000Z</time>
      </trkpt>
      <trkpt lat="48.08398" lon="16.33595">
        <ele>220.00072</ele>
        <time>2026-07-07T09:28:33.000Z</time>
      </trkpt>
      <trkpt lat="48.08392" lon="16.33595">
        <ele>220.009046</ele>
        <time>2026-07-07T09:28:34.000Z</time>
      </trkpt>
      <trkpt lat="48.08387" lon="16.33595">
        <ele>220.016411</ele>
        <time>2026-07-07T09:28:35.000Z</time>
      </trkpt>
      <trkpt lat="48.08382" lon="16.33596">
        <ele>220.023355</ele>
        <time>2026-07-07T09:28:36.000Z</time>
      </trkpt>
      <trkpt lat="48.08377" lon="16.33596">
        <ele>220.029206</ele>
        <time>2026-07-07T09:28:37.000Z</time>
      </trkpt>
      <trkpt lat="48.08374" lon="16.33598">
        <ele>219.982251</ele>
        <time>2026-07-07T09:28:38.000Z</time>
      </trkpt>
      <trkpt lat="48.08371" lon="16.33599">
        <ele>219.940923</ele>
        <time>2026-07-07T09:28:39.000Z</time>
      </trkpt>
      <trkpt lat="48.08368" lon="16.336">
        <ele>219.898076</ele>
        <time>2026-07-07T09:28:40.000Z</time>
      </trkpt>
      <trkpt lat="48.08364" lon="16.33601">
        <ele>219.84769</ele>
        <time>2026-07-07T09:28:41.000Z</time>
      </trkpt>
      <trkpt lat="48.08359" lon="16.33602">
        <ele>219.784734</ele>
        <time>2026-07-07T09:28:42.000Z</time>
      </trkpt>
      <trkpt lat="48.08354" lon="16.33603">
        <ele>219.711399</ele>
        <time>2026-07-07T09:28:43.000Z</time>
      </trkpt>
      <trkpt lat="48.08348" lon="16.33604">
        <ele>219.630835</ele>
        <time>2026-07-07T09:28:44.000Z</time>
      </trkpt>
      <trkpt lat="48.08342" lon="16.33606">
        <ele>219.551416</ele>
        <time>2026-07-07T09:28:45.000Z</time>
      </trkpt>
      <trkpt lat="48.08337" lon="16.33609">
        <ele>219.476313</ele>
        <time>2026-07-07T09:28:46.000Z</time>
      </trkpt>
      <trkpt lat="48.08332" lon="16.3361">
        <ele>219.405659</ele>
        <time>2026-07-07T09:28:47.000Z</time>
      </trkpt>
      <trkpt lat="48.08327" lon="16.33609">
        <ele>219.342047</ele>
        <time>2026-07-07T09:28:48.000Z</time>
      </trkpt>
      <trkpt lat="48.08323" lon="16.33605">
        <ele>219.274668</ele>
        <time>2026-07-07T09:28:49.000Z</time>
      </trkpt>
      <trkpt lat="48.08318" lon="16.336">
        <ele>219.196883</ele>
        <time>2026-07-07T09:28:50.000Z</time>
      </trkpt>
      <trkpt lat="48.08313" lon="16.33595">
        <ele>219.118092</ele>
        <time>2026-07-07T09:28:51.000Z</time>
      </trkpt>
      <trkpt lat="48.08307" lon="16.33593">
        <ele>219.039522</ele>
        <time>2026-07-07T09:28:52.000Z</time>
      </trkpt>
      <trkpt lat="48.08302" lon="16.33593">
        <ele>218.966301</ele>
        <time>2026-07-07T09:28:53.000Z</time>
      </trkpt>
      <trkpt lat="48.08297" lon="16.33594">
        <ele>218.902361</ele>
        <time>2026-07-07T09:28:54.000Z</time>
      </trkpt>
      <trkpt lat="48.08292" lon="16.33593">
        <ele>218.839651</ele>
        <time>2026-07-07T09:28:55.000Z</time>
      </trkpt>
      <trkpt lat="48.08288" lon="16.33592">
        <ele>218.782743</ele>
        <time>2026-07-07T09:28:56.000Z</time>
      </trkpt>
      <trkpt lat="48.08285" lon="16.3359">
        <ele>218.73536</ele>
        <time>2026-07-07T09:28:57.000Z</time>
      </trkpt>
      <trkpt lat="48.08281" lon="16.33589">
        <ele>218.685605</ele>
        <time>2026-07-07T09:28:58.000Z</time>
      </trkpt>
      <trkpt lat="48.08277" lon="16.3359">
        <ele>218.63131</ele>
        <time>2026-07-07T09:28:59.000Z</time>
      </trkpt>
      <trkpt lat="48.08273" lon="16.33593">
        <ele>218.573712</ele>
        <time>2026-07-07T09:29:00.000Z</time>
      </trkpt>
      <trkpt lat="48.08269" lon="16.33597">
        <ele>218.506333</ele>
        <time>2026-07-07T09:29:01.000Z</time>
      </trkpt>
      <trkpt lat="48.08264" lon="16.33602">
        <ele>218.432554</ele>
        <time>2026-07-07T09:29:02.000Z</time>
      </trkpt>
      <trkpt lat="48.08259" lon="16.33606">
        <ele>218.355807</ele>
        <time>2026-07-07T09:29:03.000Z</time>
      </trkpt>
      <trkpt lat="48.08254" lon="16.3361">
        <ele>218.276742</ele>
        <time>2026-07-07T09:29:04.000Z</time>
      </trkpt>
      <trkpt lat="48.08249" lon="16.33615">
        <ele>218.200434</ele>
        <time>2026-07-07T09:29:05.000Z</time>
      </trkpt>
      <trkpt lat="48.08244" lon="16.33619">
        <ele>218.122786</ele>
        <time>2026-07-07T09:29:06.000Z</time>
      </trkpt>
      <trkpt lat="48.08239" lon="16.33624">
        <ele>218.04965</ele>
        <time>2026-07-07T09:29:07.000Z</time>
      </trkpt>
      <trkpt lat="48.08235" lon="16.33628">
        <ele>217.976621</ele>
        <time>2026-07-07T09:29:08.000Z</time>
      </trkpt>
      <trkpt lat="48.0823" lon="16.33633">
        <ele>217.904159</ele>
        <time>2026-07-07T09:29:09.000Z</time>
      </trkpt>
      <trkpt lat="48.08226" lon="16.33638">
        <ele>217.832638</ele>
        <time>2026-07-07T09:29:10.000Z</time>
      </trkpt>
      <trkpt lat="48.08222" lon="16.33644">
        <ele>217.758519</ele>
        <time>2026-07-07T09:29:11.000Z</time>
      </trkpt>
      <trkpt lat="48.08218" lon="16.3365">
        <ele>217.682152</ele>
        <time>2026-07-07T09:29:12.000Z</time>
      </trkpt>
      <trkpt lat="48.08215" lon="16.33657">
        <ele>217.622675</ele>
        <time>2026-07-07T09:29:13.000Z</time>
      </trkpt>
      <trkpt lat="48.08211" lon="16.33664">
        <ele>217.590646</ele>
        <time>2026-07-07T09:29:14.000Z</time>
      </trkpt>
      <trkpt lat="48.08207" lon="16.33671">
        <ele>217.557716</ele>
        <time>2026-07-07T09:29:15.000Z</time>
      </trkpt>
      <trkpt lat="48.08204" lon="16.33679">
        <ele>217.524054</ele>
        <time>2026-07-07T09:29:16.000Z</time>
      </trkpt>
      <trkpt lat="48.08201" lon="16.33687">
        <ele>217.491349</ele>
        <time>2026-07-07T09:29:17.000Z</time>
      </trkpt>
      <trkpt lat="48.08198" lon="16.33695">
        <ele>217.458785</ele>
        <time>2026-07-07T09:29:18.000Z</time>
      </trkpt>
      <trkpt lat="48.08196" lon="16.33703">
        <ele>217.426719</ele>
        <time>2026-07-07T09:29:19.000Z</time>
      </trkpt>
      <trkpt lat="48.08194" lon="16.33712">
        <ele>217.392794</ele>
        <time>2026-07-07T09:29:20.000Z</time>
      </trkpt>
      <trkpt lat="48.08192" lon="16.33721">
        <ele>217.358694</ele>
        <time>2026-07-07T09:29:21.000Z</time>
      </trkpt>
      <trkpt lat="48.0819" lon="16.3373">
        <ele>217.324083</ele>
        <time>2026-07-07T09:29:22.000Z</time>
      </trkpt>
      <trkpt lat="48.08189" lon="16.33739">
        <ele>217.290141</ele>
        <time>2026-07-07T09:29:23.000Z</time>
      </trkpt>
      <trkpt lat="48.08187" lon="16.33749">
        <ele>217.255187</ele>
        <time>2026-07-07T09:29:24.000Z</time>
      </trkpt>
      <trkpt lat="48.08185" lon="16.33758">
        <ele>217.220233</ele>
        <time>2026-07-07T09:29:25.000Z</time>
      </trkpt>
      <trkpt lat="48.08183" lon="16.33767">
        <ele>217.185966</ele>
        <time>2026-07-07T09:29:26.000Z</time>
      </trkpt>
      <trkpt lat="48.0818" lon="16.33776">
        <ele>217.151826</ele>
        <time>2026-07-07T09:29:27.000Z</time>
      </trkpt>
      <trkpt lat="48.08178" lon="16.33784">
        <ele>217.117609</ele>
        <time>2026-07-07T09:29:28.000Z</time>
      </trkpt>
      <trkpt lat="48.08175" lon="16.33793">
        <ele>217.084934</ele>
        <time>2026-07-07T09:29:29.000Z</time>
      </trkpt>
      <trkpt lat="48.08173" lon="16.33801">
        <ele>217.051513</ele>
        <time>2026-07-07T09:29:30.000Z</time>
      </trkpt>
      <trkpt lat="48.08171" lon="16.3381">
        <ele>217.018614</ele>
        <time>2026-07-07T09:29:31.000Z</time>
      </trkpt>
      <trkpt lat="48.08169" lon="16.33819">
        <ele>216.984513</ele>
        <time>2026-07-07T09:29:32.000Z</time>
      </trkpt>
      <trkpt lat="48.08167" lon="16.33828">
        <ele>216.949023</ele>
        <time>2026-07-07T09:29:33.000Z</time>
      </trkpt>
      <trkpt lat="48.08164" lon="16.33838">
        <ele>216.911058</ele>
        <time>2026-07-07T09:29:34.000Z</time>
      </trkpt>
      <trkpt lat="48.08162" lon="16.33847">
        <ele>216.873967</ele>
        <time>2026-07-07T09:29:35.000Z</time>
      </trkpt>
      <trkpt lat="48.08159" lon="16.33857">
        <ele>216.836335</ele>
        <time>2026-07-07T09:29:36.000Z</time>
      </trkpt>
      <trkpt lat="48.08156" lon="16.33867">
        <ele>216.797702</ele>
        <time>2026-07-07T09:29:37.000Z</time>
      </trkpt>
      <trkpt lat="48.08154" lon="16.33877">
        <ele>216.760519</ele>
        <time>2026-07-07T09:29:38.000Z</time>
      </trkpt>
      <trkpt lat="48.08152" lon="16.33886">
        <ele>216.723842</ele>
        <time>2026-07-07T09:29:39.000Z</time>
      </trkpt>
      <trkpt lat="48.0815" lon="16.33896">
        <ele>216.688198</ele>
        <time>2026-07-07T09:29:40.000Z</time>
      </trkpt>
      <trkpt lat="48.08148" lon="16.33905">
        <ele>216.65836</ele>
        <time>2026-07-07T09:29:41.000Z</time>
      </trkpt>
      <trkpt lat="48.08146" lon="16.33914">
        <ele>216.64212</ele>
        <time>2026-07-07T09:29:42.000Z</time>
      </trkpt>
      <trkpt lat="48.08144" lon="16.33922">
        <ele>216.626369</ele>
        <time>2026-07-07T09:29:43.000Z</time>
      </trkpt>
      <trkpt lat="48.08142" lon="16.33931">
        <ele>216.611258</ele>
        <time>2026-07-07T09:29:44.000Z</time>
      </trkpt>
      <trkpt lat="48.08139" lon="16.33938">
        <ele>216.597319</ele>
        <time>2026-07-07T09:29:45.000Z</time>
      </trkpt>
      <trkpt lat="48.08136" lon="16.33943">
        <ele>216.585047</ele>
        <time>2026-07-07T09:29:46.000Z</time>
      </trkpt>
      <trkpt lat="48.08132" lon="16.33945">
        <ele>216.573808</ele>
        <time>2026-07-07T09:29:47.000Z</time>
      </trkpt>
      <trkpt lat="48.08127" lon="16.33944">
        <ele>216.561013</ele>
        <time>2026-07-07T09:29:48.000Z</time>
      </trkpt>
      <trkpt lat="48.08121" lon="16.33942">
        <ele>216.547149</ele>
        <time>2026-07-07T09:29:49.000Z</time>
      </trkpt>
      <trkpt lat="48.08116" lon="16.3394">
        <ele>216.532664</ele>
        <time>2026-07-07T09:29:50.000Z</time>
      </trkpt>
      <trkpt lat="48.0811" lon="16.33937">
        <ele>216.517733</ele>
        <time>2026-07-07T09:29:51.000Z</time>
      </trkpt>
      <trkpt lat="48.08104" lon="16.33936">
        <ele>216.502211</ele>
        <time>2026-07-07T09:29:52.000Z</time>
      </trkpt>
      <trkpt lat="48.08098" lon="16.33934">
        <ele>216.486722</ele>
        <time>2026-07-07T09:29:53.000Z</time>
      </trkpt>
      <trkpt lat="48.08092" lon="16.33932">
        <ele>216.470763</ele>
        <time>2026-07-07T09:29:54.000Z</time>
      </trkpt>
      <trkpt lat="48.08086" lon="16.3393">
        <ele>216.455208</ele>
        <time>2026-07-07T09:29:55.000Z</time>
      </trkpt>
      <trkpt lat="48.0808" lon="16.33929">
        <ele>216.439437</ele>
        <time>2026-07-07T09:29:56.000Z</time>
      </trkpt>
      <trkpt lat="48.08074" lon="16.33927">
        <ele>216.423418</ele>
        <time>2026-07-07T09:29:57.000Z</time>
      </trkpt>
      <trkpt lat="48.08068" lon="16.33925">
        <ele>216.407928</ele>
        <time>2026-07-07T09:29:58.000Z</time>
      </trkpt>
      <trkpt lat="48.08061" lon="16.33923">
        <ele>216.391841</ele>
        <time>2026-07-07T09:29:59.000Z</time>
      </trkpt>
      <trkpt lat="48.08055" lon="16.33921">
        <ele>216.376249</ele>
        <time>2026-07-07T09:30:00.000Z</time>
      </trkpt>
      <trkpt lat="48.08049" lon="16.3392">
        <ele>216.360621</ele>
        <time>2026-07-07T09:30:01.000Z</time>
      </trkpt>
      <trkpt lat="48.08043" lon="16.33918">
        <ele>216.34469</ele>
        <time>2026-07-07T09:30:02.000Z</time>
      </trkpt>
      <trkpt lat="48.08037" lon="16.33916">
        <ele>216.329134</ele>
        <time>2026-07-07T09:30:03.000Z</time>
      </trkpt>
      <trkpt lat="48.08031" lon="16.33914">
        <ele>216.313505</ele>
        <time>2026-07-07T09:30:04.000Z</time>
      </trkpt>
      <trkpt lat="48.08025" lon="16.33912">
        <ele>216.297913</ele>
        <time>2026-07-07T09:30:05.000Z</time>
      </trkpt>
      <trkpt lat="48.08019" lon="16.3391">
        <ele>216.282357</ele>
        <time>2026-07-07T09:30:06.000Z</time>
      </trkpt>
      <trkpt lat="48.08013" lon="16.33909">
        <ele>216.266835</ele>
        <time>2026-07-07T09:30:07.000Z</time>
      </trkpt>
      <trkpt lat="48.08007" lon="16.33907">
        <ele>216.251405</ele>
        <time>2026-07-07T09:30:08.000Z</time>
      </trkpt>
      <trkpt lat="48.08001" lon="16.33905">
        <ele>216.235386</ele>
        <time>2026-07-07T09:30:09.000Z</time>
      </trkpt>
      <trkpt lat="48.07995" lon="16.33904">
        <ele>216.219897</ele>
        <time>2026-07-07T09:30:10.000Z</time>
      </trkpt>
      <trkpt lat="48.07989" lon="16.33902">
        <ele>216.206755</ele>
        <time>2026-07-07T09:30:11.000Z</time>
      </trkpt>
      <trkpt lat="48.07983" lon="16.33901">
        <ele>216.208446</ele>
        <time>2026-07-07T09:30:12.000Z</time>
      </trkpt>
      <trkpt lat="48.07977" lon="16.33899">
        <ele>216.210082</ele>
        <time>2026-07-07T09:30:13.000Z</time>
      </trkpt>
      <trkpt lat="48.07971" lon="16.33897">
        <ele>216.211728</ele>
        <time>2026-07-07T09:30:14.000Z</time>
      </trkpt>
      <trkpt lat="48.07965" lon="16.33896">
        <ele>216.213398</ele>
        <time>2026-07-07T09:30:15.000Z</time>
      </trkpt>
      <trkpt lat="48.0796" lon="16.33894">
        <ele>216.215034</ele>
        <time>2026-07-07T09:30:16.000Z</time>
      </trkpt>
      <trkpt lat="48.07954" lon="16.33892">
        <ele>216.216731</ele>
        <time>2026-07-07T09:30:17.000Z</time>
      </trkpt>
      <trkpt lat="48.07948" lon="16.33891">
        <ele>216.218425</ele>
        <time>2026-07-07T09:30:18.000Z</time>
      </trkpt>
      <trkpt lat="48.07942" lon="16.33889">
        <ele>216.220116</ele>
        <time>2026-07-07T09:30:19.000Z</time>
      </trkpt>
      <trkpt lat="48.07936" lon="16.33888">
        <ele>216.221813</ele>
        <time>2026-07-07T09:30:20.000Z</time>
      </trkpt>
      <trkpt lat="48.07929" lon="16.33886">
        <ele>216.223568</ele>
        <time>2026-07-07T09:30:21.000Z</time>
      </trkpt>
      <trkpt lat="48.07923" lon="16.33884">
        <ele>216.225273</ele>
        <time>2026-07-07T09:30:22.000Z</time>
      </trkpt>
      <trkpt lat="48.07917" lon="16.33882">
        <ele>216.227001</ele>
        <time>2026-07-07T09:30:23.000Z</time>
      </trkpt>
      <trkpt lat="48.07911" lon="16.3388">
        <ele>216.228702</ele>
        <time>2026-07-07T09:30:24.000Z</time>
      </trkpt>
      <trkpt lat="48.07905" lon="16.33879">
        <ele>216.230399</ele>
        <time>2026-07-07T09:30:25.000Z</time>
      </trkpt>
      <trkpt lat="48.07899" lon="16.33877">
        <ele>216.232096</ele>
        <time>2026-07-07T09:30:26.000Z</time>
      </trkpt>
      <trkpt lat="48.07893" lon="16.33875">
        <ele>216.233763</ele>
        <time>2026-07-07T09:30:27.000Z</time>
      </trkpt>
      <trkpt lat="48.07887" lon="16.33873">
        <ele>216.235467</ele>
        <time>2026-07-07T09:30:28.000Z</time>
      </trkpt>
      <trkpt lat="48.07881" lon="16.33872">
        <ele>216.237195</ele>
        <time>2026-07-07T09:30:29.000Z</time>
      </trkpt>
      <trkpt lat="48.07875" lon="16.3387">
        <ele>216.238896</ele>
        <time>2026-07-07T09:30:30.000Z</time>
      </trkpt>
      <trkpt lat="48.07869" lon="16.33868">
        <ele>216.240648</ele>
        <time>2026-07-07T09:30:31.000Z</time>
      </trkpt>
      <trkpt lat="48.07863" lon="16.33866">
        <ele>216.2424</ele>
        <time>2026-07-07T09:30:32.000Z</time>
      </trkpt>
      <trkpt lat="48.07857" lon="16.33865">
        <ele>216.244101</ele>
        <time>2026-07-07T09:30:33.000Z</time>
      </trkpt>
      <trkpt lat="48.07851" lon="16.33863">
        <ele>216.245829</ele>
        <time>2026-07-07T09:30:34.000Z</time>
      </trkpt>
      <trkpt lat="48.07845" lon="16.33861">
        <ele>216.247526</ele>
        <time>2026-07-07T09:30:35.000Z</time>
      </trkpt>
      <trkpt lat="48.07839" lon="16.33859">
        <ele>216.249223</ele>
        <time>2026-07-07T09:30:36.000Z</time>
      </trkpt>
      <trkpt lat="48.07833" lon="16.33858">
        <ele>216.250972</ele>
        <time>2026-07-07T09:30:37.000Z</time>
      </trkpt>
      <trkpt lat="48.07827" lon="16.33856">
        <ele>216.252622</ele>
        <time>2026-07-07T09:30:38.000Z</time>
      </trkpt>
      <trkpt lat="48.07821" lon="16.33854">
        <ele>216.254377</ele>
        <time>2026-07-07T09:30:39.000Z</time>
      </trkpt>
      <trkpt lat="48.07815" lon="16.33852">
        <ele>216.256074</ele>
        <time>2026-07-07T09:30:40.000Z</time>
      </trkpt>
      <trkpt lat="48.07809" lon="16.3385">
        <ele>216.269995</ele>
        <time>2026-07-07T09:30:41.000Z</time>
      </trkpt>
      <trkpt lat="48.07803" lon="16.33849">
        <ele>216.289343</ele>
        <time>2026-07-07T09:30:42.000Z</time>
      </trkpt>
      <trkpt lat="48.07798" lon="16.33847">
        <ele>216.308893</ele>
        <time>2026-07-07T09:30:43.000Z</time>
      </trkpt>
      <trkpt lat="48.07792" lon="16.33845">
        <ele>216.328523</ele>
        <time>2026-07-07T09:30:44.000Z</time>
      </trkpt>
      <trkpt lat="48.07786" lon="16.33843">
        <ele>216.348939</ele>
        <time>2026-07-07T09:30:45.000Z</time>
      </trkpt>
      <trkpt lat="48.0778" lon="16.33841">
        <ele>216.369356</ele>
        <time>2026-07-07T09:30:46.000Z</time>
      </trkpt>
      <trkpt lat="48.07774" lon="16.3384">
        <ele>216.389598</ele>
        <time>2026-07-07T09:30:47.000Z</time>
      </trkpt>
      <trkpt lat="48.07768" lon="16.33838">
        <ele>216.40988</ele>
        <time>2026-07-07T09:30:48.000Z</time>
      </trkpt>
      <trkpt lat="48.07762" lon="16.33836">
        <ele>216.430297</ele>
        <time>2026-07-07T09:30:49.000Z</time>
      </trkpt>
      <trkpt lat="48.07756" lon="16.33834">
        <ele>216.450622</ele>
        <time>2026-07-07T09:30:50.000Z</time>
      </trkpt>
      <trkpt lat="48.0775" lon="16.33832">
        <ele>216.471642</ele>
        <time>2026-07-07T09:30:51.000Z</time>
      </trkpt>
      <trkpt lat="48.07744" lon="16.33831">
        <ele>216.491884</ele>
        <time>2026-07-07T09:30:52.000Z</time>
      </trkpt>
      <trkpt lat="48.07737" lon="16.33829">
        <ele>216.512819</ele>
        <time>2026-07-07T09:30:53.000Z</time>
      </trkpt>
      <trkpt lat="48.07731" lon="16.33827">
        <ele>216.53347</ele>
        <time>2026-07-07T09:30:54.000Z</time>
      </trkpt>
      <trkpt lat="48.07725" lon="16.33825">
        <ele>216.554535</ele>
        <time>2026-07-07T09:30:55.000Z</time>
      </trkpt>
      <trkpt lat="48.07719" lon="16.33823">
        <ele>216.575698</ele>
        <time>2026-07-07T09:30:56.000Z</time>
      </trkpt>
      <trkpt lat="48.07713" lon="16.33821">
        <ele>216.596539</ele>
        <time>2026-07-07T09:30:57.000Z</time>
      </trkpt>
      <trkpt lat="48.07707" lon="16.33819">
        <ele>216.617652</ele>
        <time>2026-07-07T09:30:58.000Z</time>
      </trkpt>
      <trkpt lat="48.077" lon="16.33817">
        <ele>216.638816</ele>
        <time>2026-07-07T09:30:59.000Z</time>
      </trkpt>
      <trkpt lat="48.07694" lon="16.33815">
        <ele>216.660206</ele>
        <time>2026-07-07T09:31:00.000Z</time>
      </trkpt>
      <trkpt lat="48.07688" lon="16.33813">
        <ele>216.681182</ele>
        <time>2026-07-07T09:31:01.000Z</time>
      </trkpt>
      <trkpt lat="48.07682" lon="16.33811">
        <ele>216.701877</ele>
        <time>2026-07-07T09:31:02.000Z</time>
      </trkpt>
      <trkpt lat="48.07675" lon="16.33809">
        <ele>216.723506</ele>
        <time>2026-07-07T09:31:03.000Z</time>
      </trkpt>
      <trkpt lat="48.07669" lon="16.33807">
        <ele>216.744808</ele>
        <time>2026-07-07T09:31:04.000Z</time>
      </trkpt>
      <trkpt lat="48.07663" lon="16.33805">
        <ele>216.765874</ele>
        <time>2026-07-07T09:31:05.000Z</time>
      </trkpt>
      <trkpt lat="48.07657" lon="16.33803">
        <ele>216.787361</ele>
        <time>2026-07-07T09:31:06.000Z</time>
      </trkpt>
      <trkpt lat="48.0765" lon="16.33801">
        <ele>216.808576</ele>
        <time>2026-07-07T09:31:07.000Z</time>
      </trkpt>
      <trkpt lat="48.07644" lon="16.33799">
        <ele>216.829967</ele>
        <time>2026-07-07T09:31:08.000Z</time>
      </trkpt>
      <trkpt lat="48.07638" lon="16.33797">
        <ele>216.851032</ele>
        <time>2026-07-07T09:31:09.000Z</time>
      </trkpt>
      <trkpt lat="48.07632" lon="16.33795">
        <ele>216.877623</ele>
        <time>2026-07-07T09:31:10.000Z</time>
      </trkpt>
      <trkpt lat="48.07625" lon="16.33793">
        <ele>216.905858</ele>
        <time>2026-07-07T09:31:11.000Z</time>
      </trkpt>
      <trkpt lat="48.07619" lon="16.33791">
        <ele>216.934093</ele>
        <time>2026-07-07T09:31:12.000Z</time>
      </trkpt>
      <trkpt lat="48.07612" lon="16.33789">
        <ele>216.962449</ele>
        <time>2026-07-07T09:31:13.000Z</time>
      </trkpt>
      <trkpt lat="48.07606" lon="16.33786">
        <ele>216.990804</ele>
        <time>2026-07-07T09:31:14.000Z</time>
      </trkpt>
      <trkpt lat="48.07599" lon="16.33784">
        <ele>217.019098</ele>
        <time>2026-07-07T09:31:15.000Z</time>
      </trkpt>
      <trkpt lat="48.07593" lon="16.33782">
        <ele>217.046758</ele>
        <time>2026-07-07T09:31:16.000Z</time>
      </trkpt>
      <trkpt lat="48.07586" lon="16.3378">
        <ele>217.074637</ele>
        <time>2026-07-07T09:31:17.000Z</time>
      </trkpt>
      <trkpt lat="48.0758" lon="16.33778">
        <ele>217.101981</ele>
        <time>2026-07-07T09:31:18.000Z</time>
      </trkpt>
      <trkpt lat="48.07574" lon="16.33776">
        <ele>217.128751</ele>
        <time>2026-07-07T09:31:19.000Z</time>
      </trkpt>
      <trkpt lat="48.07568" lon="16.33775">
        <ele>217.154507</ele>
        <time>2026-07-07T09:31:20.000Z</time>
      </trkpt>
      <trkpt lat="48.07562" lon="16.33774">
        <ele>217.180538</ele>
        <time>2026-07-07T09:31:21.000Z</time>
      </trkpt>
      <trkpt lat="48.07556" lon="16.33774">
        <ele>217.206933</ele>
        <time>2026-07-07T09:31:22.000Z</time>
      </trkpt>
      <trkpt lat="48.07549" lon="16.33775">
        <ele>217.233776</ele>
        <time>2026-07-07T09:31:23.000Z</time>
      </trkpt>
      <trkpt lat="48.07543" lon="16.33776">
        <ele>217.259463</ele>
        <time>2026-07-07T09:31:24.000Z</time>
      </trkpt>
      <trkpt lat="48.07537" lon="16.33777">
        <ele>217.286102</ele>
        <time>2026-07-07T09:31:25.000Z</time>
      </trkpt>
      <trkpt lat="48.07531" lon="16.33778">
        <ele>217.312824</ele>
        <time>2026-07-07T09:31:26.000Z</time>
      </trkpt>
      <trkpt lat="48.07525" lon="16.3378">
        <ele>217.339127</ele>
        <time>2026-07-07T09:31:27.000Z</time>
      </trkpt>
      <trkpt lat="48.07519" lon="16.33781">
        <ele>217.36501</ele>
        <time>2026-07-07T09:31:28.000Z</time>
      </trkpt>
      <trkpt lat="48.07513" lon="16.33783">
        <ele>217.39183</ele>
        <time>2026-07-07T09:31:29.000Z</time>
      </trkpt>
      <trkpt lat="48.07507" lon="16.33785">
        <ele>217.417813</ele>
        <time>2026-07-07T09:31:30.000Z</time>
      </trkpt>
      <trkpt lat="48.075" lon="16.33786">
        <ele>217.444536</ele>
        <time>2026-07-07T09:31:31.000Z</time>
      </trkpt>
      <trkpt lat="48.07494" lon="16.33788">
        <ele>217.470839</ele>
        <time>2026-07-07T09:31:32.000Z</time>
      </trkpt>
      <trkpt lat="48.07488" lon="16.33789">
        <ele>217.497562</ele>
        <time>2026-07-07T09:31:33.000Z</time>
      </trkpt>
      <trkpt lat="48.07482" lon="16.33791">
        <ele>217.524331</ele>
        <time>2026-07-07T09:31:34.000Z</time>
      </trkpt>
      <trkpt lat="48.07476" lon="16.33793">
        <ele>217.551676</ele>
        <time>2026-07-07T09:31:35.000Z</time>
      </trkpt>
      <trkpt lat="48.07469" lon="16.33794">
        <ele>217.578446</ele>
        <time>2026-07-07T09:31:36.000Z</time>
      </trkpt>
      <trkpt lat="48.07463" lon="16.33796">
        <ele>217.605848</ele>
        <time>2026-07-07T09:31:37.000Z</time>
      </trkpt>
      <trkpt lat="48.07457" lon="16.33799">
        <ele>217.583579</ele>
        <time>2026-07-07T09:31:38.000Z</time>
      </trkpt>
      <trkpt lat="48.07452" lon="16.33803">
        <ele>217.515075</ele>
        <time>2026-07-07T09:31:39.000Z</time>
      </trkpt>
      <trkpt lat="48.07446" lon="16.33809">
        <ele>217.444171</ele>
        <time>2026-07-07T09:31:40.000Z</time>
      </trkpt>
      <trkpt lat="48.07442" lon="16.33815">
        <ele>217.375321</ele>
        <time>2026-07-07T09:31:41.000Z</time>
      </trkpt>
      <trkpt lat="48.07438" lon="16.33822">
        <ele>217.305231</ele>
        <time>2026-07-07T09:31:42.000Z</time>
      </trkpt>
      <trkpt lat="48.07434" lon="16.3383">
        <ele>217.234902</ele>
        <time>2026-07-07T09:31:43.000Z</time>
      </trkpt>
      <trkpt lat="48.07431" lon="16.33838">
        <ele>217.16511</ele>
        <time>2026-07-07T09:31:44.000Z</time>
      </trkpt>
      <trkpt lat="48.07428" lon="16.33846">
        <ele>217.095318</ele>
        <time>2026-07-07T09:31:45.000Z</time>
      </trkpt>
      <trkpt lat="48.07424" lon="16.33854">
        <ele>217.023741</ele>
        <time>2026-07-07T09:31:46.000Z</time>
      </trkpt>
      <trkpt lat="48.07421" lon="16.33862">
        <ele>216.954002</ele>
        <time>2026-07-07T09:31:47.000Z</time>
      </trkpt>
      <trkpt lat="48.07418" lon="16.3387">
        <ele>216.884897</ele>
        <time>2026-07-07T09:31:48.000Z</time>
      </trkpt>
      <trkpt lat="48.07414" lon="16.33878">
        <ele>216.813928</ele>
        <time>2026-07-07T09:31:49.000Z</time>
      </trkpt>
      <trkpt lat="48.07411" lon="16.33886">
        <ele>216.743553</ele>
        <time>2026-07-07T09:31:50.000Z</time>
      </trkpt>
      <trkpt lat="48.07408" lon="16.33893">
        <ele>216.673224</ele>
        <time>2026-07-07T09:31:51.000Z</time>
      </trkpt>
      <trkpt lat="48.07404" lon="16.33901">
        <ele>216.600396</ele>
        <time>2026-07-07T09:31:52.000Z</time>
      </trkpt>
      <trkpt lat="48.074" lon="16.3391">
        <ele>216.527562</ele>
        <time>2026-07-07T09:31:53.000Z</time>
      </trkpt>
      <trkpt lat="48.07397" lon="16.33918">
        <ele>216.454728</ele>
        <time>2026-07-07T09:31:54.000Z</time>
      </trkpt>
      <trkpt lat="48.07393" lon="16.33926">
        <ele>216.380658</ele>
        <time>2026-07-07T09:31:55.000Z</time>
      </trkpt>
      <trkpt lat="48.0739" lon="16.33934">
        <ele>216.305972</ele>
        <time>2026-07-07T09:31:56.000Z</time>
      </trkpt>
      <trkpt lat="48.07386" lon="16.33943">
        <ele>216.230036</ele>
        <time>2026-07-07T09:31:57.000Z</time>
      </trkpt>
      <trkpt lat="48.07382" lon="16.33952">
        <ele>216.153437</ele>
        <time>2026-07-07T09:31:58.000Z</time>
      </trkpt>
      <trkpt lat="48.07379" lon="16.3396">
        <ele>216.077422</ele>
        <time>2026-07-07T09:31:59.000Z</time>
      </trkpt>
      <trkpt lat="48.07375" lon="16.33969">
        <ele>215.999474</ele>
        <time>2026-07-07T09:32:00.000Z</time>
      </trkpt>
      <trkpt lat="48.07371" lon="16.33978">
        <ele>215.92104</ele>
        <time>2026-07-07T09:32:01.000Z</time>
      </trkpt>
      <trkpt lat="48.07367" lon="16.33987">
        <ele>215.840745</ele>
        <time>2026-07-07T09:32:02.000Z</time>
      </trkpt>
      <trkpt lat="48.07364" lon="16.33996">
        <ele>215.761685</ele>
        <time>2026-07-07T09:32:03.000Z</time>
      </trkpt>
      <trkpt lat="48.0736" lon="16.34005">
        <ele>215.683256</ele>
        <time>2026-07-07T09:32:04.000Z</time>
      </trkpt>
      <trkpt lat="48.07356" lon="16.34013">
        <ele>215.604835</ele>
        <time>2026-07-07T09:32:05.000Z</time>
      </trkpt>
      <trkpt lat="48.07352" lon="16.34022">
        <ele>215.563601</ele>
        <time>2026-07-07T09:32:06.000Z</time>
      </trkpt>
      <trkpt lat="48.07349" lon="16.34031">
        <ele>215.522603</ele>
        <time>2026-07-07T09:32:07.000Z</time>
      </trkpt>
      <trkpt lat="48.07345" lon="16.34039">
        <ele>215.480627</ele>
        <time>2026-07-07T09:32:08.000Z</time>
      </trkpt>
      <trkpt lat="48.07341" lon="16.34048">
        <ele>215.438993</ele>
        <time>2026-07-07T09:32:09.000Z</time>
      </trkpt>
      <trkpt lat="48.07338" lon="16.34057">
        <ele>215.397336</ele>
        <time>2026-07-07T09:32:10.000Z</time>
      </trkpt>
      <trkpt lat="48.07334" lon="16.34066">
        <ele>215.354029</ele>
        <time>2026-07-07T09:32:11.000Z</time>
      </trkpt>
      <trkpt lat="48.0733" lon="16.34075">
        <ele>215.312027</ele>
        <time>2026-07-07T09:32:12.000Z</time>
      </trkpt>
      <trkpt lat="48.07326" lon="16.34084">
        <ele>215.269395</ele>
        <time>2026-07-07T09:32:13.000Z</time>
      </trkpt>
      <trkpt lat="48.07323" lon="16.34092">
        <ele>215.227738</ele>
        <time>2026-07-07T09:32:14.000Z</time>
      </trkpt>
      <trkpt lat="48.07319" lon="16.34101">
        <ele>215.185077</ele>
        <time>2026-07-07T09:32:15.000Z</time>
      </trkpt>
      <trkpt lat="48.07316" lon="16.3411">
        <ele>215.143036</ele>
        <time>2026-07-07T09:32:16.000Z</time>
      </trkpt>
      <trkpt lat="48.07312" lon="16.34119">
        <ele>215.100375</ele>
        <time>2026-07-07T09:32:17.000Z</time>
      </trkpt>
      <trkpt lat="48.07308" lon="16.34128">
        <ele>215.058027</ele>
        <time>2026-07-07T09:32:18.000Z</time>
      </trkpt>
      <trkpt lat="48.07304" lon="16.34137">
        <ele>215.01472</ele>
        <time>2026-07-07T09:32:19.000Z</time>
      </trkpt>
      <trkpt lat="48.07301" lon="16.34146">
        <ele>214.971739</ele>
        <time>2026-07-07T09:32:20.000Z</time>
      </trkpt>
      <trkpt lat="48.07297" lon="16.34156">
        <ele>214.927425</ele>
        <time>2026-07-07T09:32:21.000Z</time>
      </trkpt>
      <trkpt lat="48.07293" lon="16.34165">
        <ele>214.883787</ele>
        <time>2026-07-07T09:32:22.000Z</time>
      </trkpt>
      <trkpt lat="48.07289" lon="16.34173">
        <ele>214.840818</ele>
        <time>2026-07-07T09:32:23.000Z</time>
      </trkpt>
      <trkpt lat="48.07285" lon="16.34182">
        <ele>214.797179</ele>
        <time>2026-07-07T09:32:24.000Z</time>
      </trkpt>
      <trkpt lat="48.07281" lon="16.34192">
        <ele>214.753134</ele>
        <time>2026-07-07T09:32:25.000Z</time>
      </trkpt>
      <trkpt lat="48.07277" lon="16.34201">
        <ele>214.709811</ele>
        <time>2026-07-07T09:32:26.000Z</time>
      </trkpt>
      <trkpt lat="48.07273" lon="16.3421">
        <ele>214.666172</ele>
        <time>2026-07-07T09:32:27.000Z</time>
      </trkpt>
      <trkpt lat="48.07269" lon="16.34219">
        <ele>214.622533</ele>
        <time>2026-07-07T09:32:28.000Z</time>
      </trkpt>
      <trkpt lat="48.07265" lon="16.34228">
        <ele>214.579552</ele>
        <time>2026-07-07T09:32:29.000Z</time>
      </trkpt>
      <trkpt lat="48.07261" lon="16.34237">
        <ele>214.536248</ele>
        <time>2026-07-07T09:32:30.000Z</time>
      </trkpt>
      <trkpt lat="48.07257" lon="16.34246">
        <ele>214.48096</ele>
        <time>2026-07-07T09:32:31.000Z</time>
      </trkpt>
      <trkpt lat="48.07254" lon="16.34255">
        <ele>214.416511</ele>
        <time>2026-07-07T09:32:32.000Z</time>
      </trkpt>
      <trkpt lat="48.0725" lon="16.34264">
        <ele>214.353077</ele>
        <time>2026-07-07T09:32:33.000Z</time>
      </trkpt>
      <trkpt lat="48.07246" lon="16.34273">
        <ele>214.288651</ele>
        <time>2026-07-07T09:32:34.000Z</time>
      </trkpt>
      <trkpt lat="48.07242" lon="16.34282">
        <ele>214.225722</ele>
        <time>2026-07-07T09:32:35.000Z</time>
      </trkpt>
      <trkpt lat="48.07238" lon="16.34291">
        <ele>214.161781</ele>
        <time>2026-07-07T09:32:36.000Z</time>
      </trkpt>
      <trkpt lat="48.07234" lon="16.343">
        <ele>214.097355</ele>
        <time>2026-07-07T09:32:37.000Z</time>
      </trkpt>
      <trkpt lat="48.07231" lon="16.34309">
        <ele>214.034356</ele>
        <time>2026-07-07T09:32:38.000Z</time>
      </trkpt>
      <trkpt lat="48.07227" lon="16.34318">
        <ele>213.97025</ele>
        <time>2026-07-07T09:32:39.000Z</time>
      </trkpt>
      <trkpt lat="48.07224" lon="16.34327">
        <ele>213.906889</ele>
        <time>2026-07-07T09:32:40.000Z</time>
      </trkpt>
      <trkpt lat="48.07221" lon="16.34337">
        <ele>213.843237</ele>
        <time>2026-07-07T09:32:41.000Z</time>
      </trkpt>
      <trkpt lat="48.07219" lon="16.34347">
        <ele>213.779111</ele>
        <time>2026-07-07T09:32:42.000Z</time>
      </trkpt>
      <trkpt lat="48.07216" lon="16.34357">
        <ele>213.713593</ele>
        <time>2026-07-07T09:32:43.000Z</time>
      </trkpt>
      <trkpt lat="48.07214" lon="16.34368">
        <ele>213.64719</ele>
        <time>2026-07-07T09:32:44.000Z</time>
      </trkpt>
      <trkpt lat="48.07212" lon="16.34379">
        <ele>213.580695</ele>
        <time>2026-07-07T09:32:45.000Z</time>
      </trkpt>
      <trkpt lat="48.07211" lon="16.34389">
        <ele>213.514255</ele>
        <time>2026-07-07T09:32:46.000Z</time>
      </trkpt>
      <trkpt lat="48.07209" lon="16.344">
        <ele>213.447415</ele>
        <time>2026-07-07T09:32:47.000Z</time>
      </trkpt>
      <trkpt lat="48.07208" lon="16.34411">
        <ele>213.379605</ele>
        <time>2026-07-07T09:32:48.000Z</time>
      </trkpt>
      <trkpt lat="48.07206" lon="16.34422">
        <ele>213.314529</ele>
        <time>2026-07-07T09:32:49.000Z</time>
      </trkpt>
      <trkpt lat="48.07204" lon="16.34432">
        <ele>213.249423</ele>
        <time>2026-07-07T09:32:50.000Z</time>
      </trkpt>
      <trkpt lat="48.07202" lon="16.34443">
        <ele>213.183847</ele>
        <time>2026-07-07T09:32:51.000Z</time>
      </trkpt>
      <trkpt lat="48.072" lon="16.34453">
        <ele>213.118849</ele>
        <time>2026-07-07T09:32:52.000Z</time>
      </trkpt>
      <trkpt lat="48.07198" lon="16.34464">
        <ele>213.052758</ele>
        <time>2026-07-07T09:32:53.000Z</time>
      </trkpt>
      <trkpt lat="48.07196" lon="16.34474">
        <ele>212.987812</ele>
        <time>2026-07-07T09:32:54.000Z</time>
      </trkpt>
      <trkpt lat="48.07194" lon="16.34485">
        <ele>212.922236</ele>
        <time>2026-07-07T09:32:55.000Z</time>
      </trkpt>
      <trkpt lat="48.07192" lon="16.34495">
        <ele>212.874162</ele>
        <time>2026-07-07T09:32:56.000Z</time>
      </trkpt>
      <trkpt lat="48.0719" lon="16.34505">
        <ele>212.833061</ele>
        <time>2026-07-07T09:32:57.000Z</time>
      </trkpt>
      <trkpt lat="48.07188" lon="16.34516">
        <ele>212.792255</ele>
        <time>2026-07-07T09:32:58.000Z</time>
      </trkpt>
      <trkpt lat="48.07186" lon="16.34526">
        <ele>212.751305</ele>
        <time>2026-07-07T09:32:59.000Z</time>
      </trkpt>
      <trkpt lat="48.07185" lon="16.34537">
        <ele>212.710764</ele>
        <time>2026-07-07T09:33:00.000Z</time>
      </trkpt>
      <trkpt lat="48.07183" lon="16.34548">
        <ele>212.669361</ele>
        <time>2026-07-07T09:33:01.000Z</time>
      </trkpt>
      <trkpt lat="48.07181" lon="16.34558">
        <ele>212.62826</ele>
        <time>2026-07-07T09:33:02.000Z</time>
      </trkpt>
      <trkpt lat="48.07179" lon="16.34568">
        <ele>212.587554</ele>
        <time>2026-07-07T09:33:03.000Z</time>
      </trkpt>
      <trkpt lat="48.07177" lon="16.34579">
        <ele>212.54703</ele>
        <time>2026-07-07T09:33:04.000Z</time>
      </trkpt>
      <trkpt lat="48.07174" lon="16.34589">
        <ele>212.507398</ele>
        <time>2026-07-07T09:33:05.000Z</time>
      </trkpt>
      <trkpt lat="48.07172" lon="16.34599">
        <ele>212.467219</ele>
        <time>2026-07-07T09:33:06.000Z</time>
      </trkpt>
      <trkpt lat="48.0717" lon="16.34609">
        <ele>212.427564</ele>
        <time>2026-07-07T09:33:07.000Z</time>
      </trkpt>
      <trkpt lat="48.07168" lon="16.34619">
        <ele>212.387548</ele>
        <time>2026-07-07T09:33:08.000Z</time>
      </trkpt>
      <trkpt lat="48.07166" lon="16.34629">
        <ele>212.3472</ele>
        <time>2026-07-07T09:33:09.000Z</time>
      </trkpt>
      <trkpt lat="48.07164" lon="16.34639">
        <ele>212.308282</ele>
        <time>2026-07-07T09:33:10.000Z</time>
      </trkpt>
      <trkpt lat="48.07162" lon="16.34649">
        <ele>212.26954</ele>
        <time>2026-07-07T09:33:11.000Z</time>
      </trkpt>
      <trkpt lat="48.07159" lon="16.34659">
        <ele>212.230602</ele>
        <time>2026-07-07T09:33:12.000Z</time>
      </trkpt>
      <trkpt lat="48.07157" lon="16.34668">
        <ele>212.19186</ele>
        <time>2026-07-07T09:33:13.000Z</time>
      </trkpt>
      <trkpt lat="48.07155" lon="16.34678">
        <ele>212.152585</ele>
        <time>2026-07-07T09:33:14.000Z</time>
      </trkpt>
      <trkpt lat="48.07153" lon="16.34688">
        <ele>212.114381</ele>
        <time>2026-07-07T09:33:15.000Z</time>
      </trkpt>
      <trkpt lat="48.07151" lon="16.34698">
        <ele>212.074924</ele>
        <time>2026-07-07T09:33:16.000Z</time>
      </trkpt>
      <trkpt lat="48.07148" lon="16.34707">
        <ele>212.037075</ele>
        <time>2026-07-07T09:33:17.000Z</time>
      </trkpt>
      <trkpt lat="48.07146" lon="16.34717">
        <ele>211.99864</ele>
        <time>2026-07-07T09:33:18.000Z</time>
      </trkpt>
      <trkpt lat="48.07143" lon="16.34726">
        <ele>211.960903</ele>
        <time>2026-07-07T09:33:19.000Z</time>
      </trkpt>
      <trkpt lat="48.07141" lon="16.34736">
        <ele>211.922866</ele>
        <time>2026-07-07T09:33:20.000Z</time>
      </trkpt>
      <trkpt lat="48.07139" lon="16.34745">
        <ele>211.886393</ele>
        <time>2026-07-07T09:33:21.000Z</time>
      </trkpt>
      <trkpt lat="48.07136" lon="16.34755">
        <ele>211.871815</ele>
        <time>2026-07-07T09:33:22.000Z</time>
      </trkpt>
      <trkpt lat="48.07133" lon="16.34765">
        <ele>211.856905</ele>
        <time>2026-07-07T09:33:23.000Z</time>
      </trkpt>
      <trkpt lat="48.0713" lon="16.34775">
        <ele>211.841823</ele>
        <time>2026-07-07T09:33:24.000Z</time>
      </trkpt>
      <trkpt lat="48.07127" lon="16.34785">
        <ele>211.826411</ele>
        <time>2026-07-07T09:33:25.000Z</time>
      </trkpt>
      <trkpt lat="48.07124" lon="16.34796">
        <ele>211.810788</ele>
        <time>2026-07-07T09:33:26.000Z</time>
      </trkpt>
      <trkpt lat="48.0712" lon="16.34806">
        <ele>211.795534</ele>
        <time>2026-07-07T09:33:27.000Z</time>
      </trkpt>
      <trkpt lat="48.07117" lon="16.34815">
        <ele>211.780615</ele>
        <time>2026-07-07T09:33:28.000Z</time>
      </trkpt>
      <trkpt lat="48.07115" lon="16.34824">
        <ele>211.767662</ele>
        <time>2026-07-07T09:33:29.000Z</time>
      </trkpt>
      <trkpt lat="48.07113" lon="16.34831">
        <ele>211.75725</ele>
        <time>2026-07-07T09:33:30.000Z</time>
      </trkpt>
      <trkpt lat="48.07111" lon="16.34836">
        <ele>211.749044</ele>
        <time>2026-07-07T09:33:31.000Z</time>
      </trkpt>
      <trkpt lat="48.07108" lon="16.3484">
        <ele>211.742668</ele>
        <time>2026-07-07T09:33:32.000Z</time>
      </trkpt>
      <trkpt lat="48.07106" lon="16.34843">
        <ele>211.736574</ele>
        <time>2026-07-07T09:33:33.000Z</time>
      </trkpt>
      <trkpt lat="48.07108" lon="16.34848">
        <ele>211.728468</ele>
        <time>2026-07-07T09:33:35.000Z</time>
      </trkpt>
      <trkpt lat="48.0711" lon="16.34847">
        <ele>211.724231</ele>
        <time>2026-07-07T09:33:36.000Z</time>
      </trkpt>
      <trkpt lat="48.07112" lon="16.34844">
        <ele>211.719455</ele>
        <time>2026-07-07T09:33:37.000Z</time>
      </trkpt>
      <trkpt lat="48.07113" lon="16.3484">
        <ele>211.713458</ele>
        <time>2026-07-07T09:33:38.000Z</time>
      </trkpt>
      <trkpt lat="48.07114" lon="16.34836">
        <ele>211.706752</ele>
        <time>2026-07-07T09:33:39.000Z</time>
      </trkpt>
      <trkpt lat="48.07116" lon="16.34831">
        <ele>211.699079</ele>
        <time>2026-07-07T09:33:40.000Z</time>
      </trkpt>
      <trkpt lat="48.07117" lon="16.34826">
        <ele>211.691125</ele>
        <time>2026-07-07T09:33:41.000Z</time>
      </trkpt>
      <trkpt lat="48.07119" lon="16.3482">
        <ele>211.682657</ele>
        <time>2026-07-07T09:33:42.000Z</time>
      </trkpt>
      <trkpt lat="48.07121" lon="16.34814">
        <ele>211.674034</ele>
        <time>2026-07-07T09:33:43.000Z</time>
      </trkpt>
      <trkpt lat="48.07123" lon="16.34809">
        <ele>211.66547</ele>
        <time>2026-07-07T09:33:44.000Z</time>
      </trkpt>
      <trkpt lat="48.07125" lon="16.34803">
        <ele>211.656807</ele>
        <time>2026-07-07T09:33:45.000Z</time>
      </trkpt>
      <trkpt lat="48.07127" lon="16.34797">
        <ele>211.647436</ele>
        <time>2026-07-07T09:33:46.000Z</time>
      </trkpt>
      <trkpt lat="48.07128" lon="16.3479">
        <ele>211.638016</ele>
        <time>2026-07-07T09:33:47.000Z</time>
      </trkpt>
      <trkpt lat="48.0713" lon="16.34784">
        <ele>211.628104</ele>
        <time>2026-07-07T09:33:48.000Z</time>
      </trkpt>
      <trkpt lat="48.07132" lon="16.34777">
        <ele>211.618317</ele>
        <time>2026-07-07T09:33:49.000Z</time>
      </trkpt>
      <trkpt lat="48.07134" lon="16.34771">
        <ele>211.608775</ele>
        <time>2026-07-07T09:33:50.000Z</time>
      </trkpt>
      <trkpt lat="48.07134" lon="16.34764">
        <ele>211.600158</ele>
        <time>2026-07-07T09:33:51.000Z</time>
      </trkpt>
      <trkpt lat="48.07132" lon="16.34759">
        <ele>211.59192</ele>
        <time>2026-07-07T09:33:52.000Z</time>
      </trkpt>
      <trkpt lat="48.07129" lon="16.34754">
        <ele>211.583369</ele>
        <time>2026-07-07T09:33:53.000Z</time>
      </trkpt>
      <trkpt lat="48.07126" lon="16.3475">
        <ele>211.574519</ele>
        <time>2026-07-07T09:33:54.000Z</time>
      </trkpt>
      <trkpt lat="48.07122" lon="16.34747">
        <ele>211.565235</ele>
        <time>2026-07-07T09:33:55.000Z</time>
      </trkpt>
      <trkpt lat="48.07118" lon="16.34744">
        <ele>211.555344</ele>
        <time>2026-07-07T09:33:56.000Z</time>
      </trkpt>
      <trkpt lat="48.07113" lon="16.3474">
        <ele>211.544474</ele>
        <time>2026-07-07T09:33:57.000Z</time>
      </trkpt>
      <trkpt lat="48.07108" lon="16.34736">
        <ele>211.533056</ele>
        <time>2026-07-07T09:33:58.000Z</time>
      </trkpt>
      <trkpt lat="48.07103" lon="16.34733">
        <ele>211.521578</ele>
        <time>2026-07-07T09:33:59.000Z</time>
      </trkpt>
      <trkpt lat="48.07098" lon="16.34729">
        <ele>211.543407</ele>
        <time>2026-07-07T09:34:00.000Z</time>
      </trkpt>
      <trkpt lat="48.07093" lon="16.34724">
        <ele>211.573827</ele>
        <time>2026-07-07T09:34:01.000Z</time>
      </trkpt>
      <trkpt lat="48.07087" lon="16.3472">
        <ele>211.60475</ele>
        <time>2026-07-07T09:34:02.000Z</time>
      </trkpt>
      <trkpt lat="48.07082" lon="16.34716">
        <ele>211.634886</ele>
        <time>2026-07-07T09:34:03.000Z</time>
      </trkpt>
      <trkpt lat="48.07077" lon="16.34712">
        <ele>211.665905</ele>
        <time>2026-07-07T09:34:04.000Z</time>
      </trkpt>
      <trkpt lat="48.07071" lon="16.34708">
        <ele>211.69785</ele>
        <time>2026-07-07T09:34:05.000Z</time>
      </trkpt>
      <trkpt lat="48.07066" lon="16.34704">
        <ele>211.729331</ele>
        <time>2026-07-07T09:34:06.000Z</time>
      </trkpt>
      <trkpt lat="48.0706" lon="16.34699">
        <ele>211.761276</ele>
        <time>2026-07-07T09:34:07.000Z</time>
      </trkpt>
      <trkpt lat="48.07055" lon="16.34695">
        <ele>211.793096</ele>
        <time>2026-07-07T09:34:08.000Z</time>
      </trkpt>
      <trkpt lat="48.07049" lon="16.3469">
        <ele>211.825366</ele>
        <time>2026-07-07T09:34:09.000Z</time>
      </trkpt>
      <trkpt lat="48.07044" lon="16.34686">
        <ele>211.857636</ele>
        <time>2026-07-07T09:34:10.000Z</time>
      </trkpt>
      <trkpt lat="48.07038" lon="16.34681">
        <ele>211.889742</ele>
        <time>2026-07-07T09:34:11.000Z</time>
      </trkpt>
      <trkpt lat="48.07033" lon="16.34677">
        <ele>211.9203</ele>
        <time>2026-07-07T09:34:12.000Z</time>
      </trkpt>
      <trkpt lat="48.07028" lon="16.34673">
        <ele>211.950859</ele>
        <time>2026-07-07T09:34:13.000Z</time>
      </trkpt>
      <trkpt lat="48.07022" lon="16.3467">
        <ele>211.982045</ele>
        <time>2026-07-07T09:34:14.000Z</time>
      </trkpt>
      <trkpt lat="48.07017" lon="16.34665">
        <ele>212.013833</ele>
        <time>2026-07-07T09:34:15.000Z</time>
      </trkpt>
      <trkpt lat="48.07012" lon="16.34661">
        <ele>212.043933</ele>
        <time>2026-07-07T09:34:16.000Z</time>
      </trkpt>
      <trkpt lat="48.07007" lon="16.34657">
        <ele>212.072386</ele>
        <time>2026-07-07T09:34:17.000Z</time>
      </trkpt>
      <trkpt lat="48.07002" lon="16.34654">
        <ele>212.099725</ele>
        <time>2026-07-07T09:34:18.000Z</time>
      </trkpt>
      <trkpt lat="48.06997" lon="16.3465">
        <ele>212.127522</ele>
        <time>2026-07-07T09:34:19.000Z</time>
      </trkpt>
      <trkpt lat="48.06993" lon="16.34646">
        <ele>212.154548</ele>
        <time>2026-07-07T09:34:20.000Z</time>
      </trkpt>
      <trkpt lat="48.06988" lon="16.34642">
        <ele>212.180177</ele>
        <time>2026-07-07T09:34:21.000Z</time>
      </trkpt>
      <trkpt lat="48.06984" lon="16.34638">
        <ele>212.205563</ele>
        <time>2026-07-07T09:34:22.000Z</time>
      </trkpt>
      <trkpt lat="48.0698" lon="16.34634">
        <ele>212.234104</ele>
        <time>2026-07-07T09:34:23.000Z</time>
      </trkpt>
      <trkpt lat="48.06975" lon="16.3463">
        <ele>212.263292</ele>
        <time>2026-07-07T09:34:24.000Z</time>
      </trkpt>
      <trkpt lat="48.0697" lon="16.34626">
        <ele>212.290318</ele>
        <time>2026-07-07T09:34:25.000Z</time>
      </trkpt>
      <trkpt lat="48.06965" lon="16.34623">
        <ele>212.318735</ele>
        <time>2026-07-07T09:34:26.000Z</time>
      </trkpt>
      <trkpt lat="48.0696" lon="16.34619">
        <ele>212.34762</ele>
        <time>2026-07-07T09:34:27.000Z</time>
      </trkpt>
      <trkpt lat="48.06955" lon="16.34616">
        <ele>212.374347</ele>
        <time>2026-07-07T09:34:28.000Z</time>
      </trkpt>
      <trkpt lat="48.0695" lon="16.34612">
        <ele>212.402143</ele>
        <time>2026-07-07T09:34:29.000Z</time>
      </trkpt>
      <trkpt lat="48.06945" lon="16.34609">
        <ele>212.432863</ele>
        <time>2026-07-07T09:34:30.000Z</time>
      </trkpt>
      <trkpt lat="48.06939" lon="16.34604">
        <ele>212.442457</ele>
        <time>2026-07-07T09:34:31.000Z</time>
      </trkpt>
      <trkpt lat="48.06933" lon="16.346">
        <ele>212.437858</ele>
        <time>2026-07-07T09:34:32.000Z</time>
      </trkpt>
      <trkpt lat="48.06927" lon="16.34596">
        <ele>212.433196</ele>
        <time>2026-07-07T09:34:33.000Z</time>
      </trkpt>
      <trkpt lat="48.06922" lon="16.34591">
        <ele>212.42868</ele>
        <time>2026-07-07T09:34:34.000Z</time>
      </trkpt>
      <trkpt lat="48.06916" lon="16.34587">
        <ele>212.423743</ele>
        <time>2026-07-07T09:34:35.000Z</time>
      </trkpt>
      <trkpt lat="48.0691" lon="16.34582">
        <ele>212.419144</ele>
        <time>2026-07-07T09:34:36.000Z</time>
      </trkpt>
      <trkpt lat="48.06904" lon="16.34578">
        <ele>212.414397</ele>
        <time>2026-07-07T09:34:37.000Z</time>
      </trkpt>
      <trkpt lat="48.06898" lon="16.34573">
        <ele>212.409693</ele>
        <time>2026-07-07T09:34:38.000Z</time>
      </trkpt>
      <trkpt lat="48.06892" lon="16.34569">
        <ele>212.40517</ele>
        <time>2026-07-07T09:34:39.000Z</time>
      </trkpt>
      <trkpt lat="48.06887" lon="16.34564">
        <ele>212.400654</ele>
        <time>2026-07-07T09:34:40.000Z</time>
      </trkpt>
      <trkpt lat="48.06881" lon="16.3456">
        <ele>212.395949</ele>
        <time>2026-07-07T09:34:41.000Z</time>
      </trkpt>
      <trkpt lat="48.06875" lon="16.34555">
        <ele>212.391433</ele>
        <time>2026-07-07T09:34:42.000Z</time>
      </trkpt>
      <trkpt lat="48.0687" lon="16.34551">
        <ele>212.386855</ele>
        <time>2026-07-07T09:34:43.000Z</time>
      </trkpt>
      <trkpt lat="48.06864" lon="16.34546">
        <ele>212.38232</ele>
        <time>2026-07-07T09:34:44.000Z</time>
      </trkpt>
      <trkpt lat="48.06858" lon="16.34542">
        <ele>212.377804</ele>
        <time>2026-07-07T09:34:45.000Z</time>
      </trkpt>
      <trkpt lat="48.06853" lon="16.34537">
        <ele>212.373181</ele>
        <time>2026-07-07T09:34:46.000Z</time>
      </trkpt>
      <trkpt lat="48.06847" lon="16.34533">
        <ele>212.368602</ele>
        <time>2026-07-07T09:34:47.000Z</time>
      </trkpt>
      <trkpt lat="48.06841" lon="16.34528">
        <ele>212.364194</ele>
        <time>2026-07-07T09:34:48.000Z</time>
      </trkpt>
      <trkpt lat="48.06836" lon="16.34524">
        <ele>212.359632</ele>
        <time>2026-07-07T09:34:49.000Z</time>
      </trkpt>
      <trkpt lat="48.0683" lon="16.34519">
        <ele>212.355054</ele>
        <time>2026-07-07T09:34:50.000Z</time>
      </trkpt>
      <trkpt lat="48.06824" lon="16.34515">
        <ele>212.350519</ele>
        <time>2026-07-07T09:34:51.000Z</time>
      </trkpt>
      <trkpt lat="48.06819" lon="16.3451">
        <ele>212.345899</ele>
        <time>2026-07-07T09:34:52.000Z</time>
      </trkpt>
      <trkpt lat="48.06813" lon="16.34506">
        <ele>212.341491</ele>
        <time>2026-07-07T09:34:53.000Z</time>
      </trkpt>
      <trkpt lat="48.06807" lon="16.34502">
        <ele>212.336956</ele>
        <time>2026-07-07T09:34:54.000Z</time>
      </trkpt>
      <trkpt lat="48.06802" lon="16.34497">
        <ele>212.33244</ele>
        <time>2026-07-07T09:34:55.000Z</time>
      </trkpt>
      <trkpt lat="48.06796" lon="16.34493">
        <ele>212.327883</ele>
        <time>2026-07-07T09:34:56.000Z</time>
      </trkpt>
      <trkpt lat="48.0679" lon="16.34488">
        <ele>212.323305</ele>
        <time>2026-07-07T09:34:57.000Z</time>
      </trkpt>
      <trkpt lat="48.06785" lon="16.34484">
        <ele>212.318789</ele>
        <time>2026-07-07T09:34:58.000Z</time>
      </trkpt>
      <trkpt lat="48.06779" lon="16.34479">
        <ele>212.323032</ele>
        <time>2026-07-07T09:34:59.000Z</time>
      </trkpt>
      <trkpt lat="48.06774" lon="16.34475">
        <ele>212.330904</ele>
        <time>2026-07-07T09:35:00.000Z</time>
      </trkpt>
      <trkpt lat="48.06768" lon="16.34471">
        <ele>212.338701</ele>
        <time>2026-07-07T09:35:01.000Z</time>
      </trkpt>
      <trkpt lat="48.06762" lon="16.34466">
        <ele>212.346244</ele>
        <time>2026-07-07T09:35:02.000Z</time>
      </trkpt>
      <trkpt lat="48.06757" lon="16.34462">
        <ele>212.353824</ele>
        <time>2026-07-07T09:35:03.000Z</time>
      </trkpt>
      <trkpt lat="48.06751" lon="16.34458">
        <ele>212.361293</ele>
        <time>2026-07-07T09:35:04.000Z</time>
      </trkpt>
      <trkpt lat="48.06746" lon="16.34454">
        <ele>212.368763</ele>
        <time>2026-07-07T09:35:05.000Z</time>
      </trkpt>
      <trkpt lat="48.0674" lon="16.3445">
        <ele>212.376233</ele>
        <time>2026-07-07T09:35:06.000Z</time>
      </trkpt>
      <trkpt lat="48.06735" lon="16.34446">
        <ele>212.383343</ele>
        <time>2026-07-07T09:35:07.000Z</time>
      </trkpt>
      <trkpt lat="48.0673" lon="16.34442">
        <ele>212.390815</ele>
        <time>2026-07-07T09:35:08.000Z</time>
      </trkpt>
      <trkpt lat="48.06725" lon="16.34438">
        <ele>212.398066</ele>
        <time>2026-07-07T09:35:09.000Z</time>
      </trkpt>
      <trkpt lat="48.06719" lon="16.34434">
        <ele>212.405536</ele>
        <time>2026-07-07T09:35:10.000Z</time>
      </trkpt>
      <trkpt lat="48.06714" lon="16.34429">
        <ele>212.4129</ele>
        <time>2026-07-07T09:35:11.000Z</time>
      </trkpt>
      <trkpt lat="48.06709" lon="16.34425">
        <ele>212.420197</ele>
        <time>2026-07-07T09:35:12.000Z</time>
      </trkpt>
      <trkpt lat="48.06703" lon="16.34421">
        <ele>212.427454</ele>
        <time>2026-07-07T09:35:13.000Z</time>
      </trkpt>
      <trkpt lat="48.06698" lon="16.34417">
        <ele>212.434413</ele>
        <time>2026-07-07T09:35:14.000Z</time>
      </trkpt>
      <trkpt lat="48.06693" lon="16.34413">
        <ele>212.441737</ele>
        <time>2026-07-07T09:35:15.000Z</time>
      </trkpt>
      <trkpt lat="48.06688" lon="16.34409">
        <ele>212.448988</ele>
        <time>2026-07-07T09:35:16.000Z</time>
      </trkpt>
      <trkpt lat="48.06682" lon="16.34405">
        <ele>212.456245</ele>
        <time>2026-07-07T09:35:17.000Z</time>
      </trkpt>
      <trkpt lat="48.06677" lon="16.344">
        <ele>212.463356</ele>
        <time>2026-07-07T09:35:18.000Z</time>
      </trkpt>
      <trkpt lat="48.06672" lon="16.34396">
        <ele>212.470752</ele>
        <time>2026-07-07T09:35:19.000Z</time>
      </trkpt>
      <trkpt lat="48.06667" lon="16.34392">
        <ele>212.478156</ele>
        <time>2026-07-07T09:35:20.000Z</time>
      </trkpt>
      <trkpt lat="48.06661" lon="16.34388">
        <ele>212.485626</ele>
        <time>2026-07-07T09:35:21.000Z</time>
      </trkpt>
      <trkpt lat="48.06656" lon="16.34384">
        <ele>212.493131</ele>
        <time>2026-07-07T09:35:22.000Z</time>
      </trkpt>
      <trkpt lat="48.0665" lon="16.3438">
        <ele>212.500674</ele>
        <time>2026-07-07T09:35:23.000Z</time>
      </trkpt>
      <trkpt lat="48.06645" lon="16.34375">
        <ele>212.508117</ele>
        <time>2026-07-07T09:35:24.000Z</time>
      </trkpt>
      <trkpt lat="48.06639" lon="16.34371">
        <ele>212.515697</ele>
        <time>2026-07-07T09:35:25.000Z</time>
      </trkpt>
      <trkpt lat="48.06634" lon="16.34367">
        <ele>212.523131</ele>
        <time>2026-07-07T09:35:26.000Z</time>
      </trkpt>
      <trkpt lat="48.06628" lon="16.34362">
        <ele>212.530674</ele>
        <time>2026-07-07T09:35:27.000Z</time>
      </trkpt>
      <trkpt lat="48.06623" lon="16.34358">
        <ele>212.540662</ele>
        <time>2026-07-07T09:35:28.000Z</time>
      </trkpt>
      <trkpt lat="48.06618" lon="16.34354">
        <ele>212.565365</ele>
        <time>2026-07-07T09:35:29.000Z</time>
      </trkpt>
      <trkpt lat="48.06612" lon="16.3435">
        <ele>212.590674</ele>
        <time>2026-07-07T09:35:30.000Z</time>
      </trkpt>
      <trkpt lat="48.06607" lon="16.34346">
        <ele>212.615376</ele>
        <time>2026-07-07T09:35:31.000Z</time>
      </trkpt>
      <trkpt lat="48.06601" lon="16.34342">
        <ele>212.640564</ele>
        <time>2026-07-07T09:35:32.000Z</time>
      </trkpt>
      <trkpt lat="48.06596" lon="16.34338">
        <ele>212.665383</ele>
        <time>2026-07-07T09:35:33.000Z</time>
      </trkpt>
      <trkpt lat="48.0659" lon="16.34333">
        <ele>212.690816</ele>
        <time>2026-07-07T09:35:34.000Z</time>
      </trkpt>
      <trkpt lat="48.06585" lon="16.34329">
        <ele>212.715391</ele>
        <time>2026-07-07T09:35:35.000Z</time>
      </trkpt>
      <trkpt lat="48.0658" lon="16.34325">
        <ele>212.74046</ele>
        <time>2026-07-07T09:35:36.000Z</time>
      </trkpt>
      <trkpt lat="48.06574" lon="16.34321">
        <ele>212.765035</ele>
        <time>2026-07-07T09:35:37.000Z</time>
      </trkpt>
      <trkpt lat="48.06569" lon="16.34317">
        <ele>212.790102</ele>
        <time>2026-07-07T09:35:38.000Z</time>
      </trkpt>
      <trkpt lat="48.06564" lon="16.34313">
        <ele>212.814488</ele>
        <time>2026-07-07T09:35:39.000Z</time>
      </trkpt>
      <trkpt lat="48.06559" lon="16.34308">
        <ele>212.839231</ele>
        <time>2026-07-07T09:35:40.000Z</time>
      </trkpt>
      <trkpt lat="48.06553" lon="16.34304">
        <ele>212.864063</ele>
        <time>2026-07-07T09:35:41.000Z</time>
      </trkpt>
      <trkpt lat="48.06548" lon="16.343">
        <ele>212.888146</ele>
        <time>2026-07-07T09:35:42.000Z</time>
      </trkpt>
      <trkpt lat="48.06543" lon="16.34296">
        <ele>212.912849</ele>
        <time>2026-07-07T09:35:43.000Z</time>
      </trkpt>
      <trkpt lat="48.06537" lon="16.34291">
        <ele>212.937916</ele>
        <time>2026-07-07T09:35:44.000Z</time>
      </trkpt>
      <trkpt lat="48.06532" lon="16.34287">
        <ele>212.962366</ele>
        <time>2026-07-07T09:35:45.000Z</time>
      </trkpt>
      <trkpt lat="48.06527" lon="16.34283">
        <ele>212.986815</ele>
        <time>2026-07-07T09:35:46.000Z</time>
      </trkpt>
      <trkpt lat="48.06521" lon="16.34279">
        <ele>213.011634</ele>
        <time>2026-07-07T09:35:47.000Z</time>
      </trkpt>
      <trkpt lat="48.06516" lon="16.34275">
        <ele>213.037193</ele>
        <time>2026-07-07T09:35:48.000Z</time>
      </trkpt>
      <trkpt lat="48.06511" lon="16.34271">
        <ele>213.061896</ele>
        <time>2026-07-07T09:35:49.000Z</time>
      </trkpt>
      <trkpt lat="48.06505" lon="16.34267">
        <ele>213.088189</ele>
        <time>2026-07-07T09:35:50.000Z</time>
      </trkpt>
      <trkpt lat="48.06499" lon="16.34262">
        <ele>213.113748</ele>
        <time>2026-07-07T09:35:51.000Z</time>
      </trkpt>
      <trkpt lat="48.06494" lon="16.34258">
        <ele>213.139437</ele>
        <time>2026-07-07T09:35:52.000Z</time>
      </trkpt>
      <trkpt lat="48.06488" lon="16.34254">
        <ele>213.164997</ele>
        <time>2026-07-07T09:35:53.000Z</time>
      </trkpt>
      <trkpt lat="48.06483" lon="16.34249">
        <ele>213.190798</ele>
        <time>2026-07-07T09:35:54.000Z</time>
      </trkpt>
      <trkpt lat="48.06477" lon="16.34245">
        <ele>213.216358</ele>
        <time>2026-07-07T09:35:55.000Z</time>
      </trkpt>
      <trkpt lat="48.06472" lon="16.34241">
        <ele>213.24265</ele>
        <time>2026-07-07T09:35:56.000Z</time>
      </trkpt>
      <trkpt lat="48.06466" lon="16.34236">
        <ele>213.268339</ele>
        <time>2026-07-07T09:35:57.000Z</time>
      </trkpt>
      <trkpt lat="48.0646" lon="16.34232">
        <ele>213.373418</ele>
        <time>2026-07-07T09:35:58.000Z</time>
      </trkpt>
      <trkpt lat="48.06455" lon="16.34228">
        <ele>213.516491</ele>
        <time>2026-07-07T09:35:59.000Z</time>
      </trkpt>
      <trkpt lat="48.0645" lon="16.34223">
        <ele>213.665249</ele>
        <time>2026-07-07T09:36:00.000Z</time>
      </trkpt>
      <trkpt lat="48.06444" lon="16.34219">
        <ele>213.813253</ele>
        <time>2026-07-07T09:36:01.000Z</time>
      </trkpt>
      <trkpt lat="48.06439" lon="16.34215">
        <ele>213.956326</ele>
        <time>2026-07-07T09:36:02.000Z</time>
      </trkpt>
      <trkpt lat="48.06433" lon="16.3421">
        <ele>214.105084</ele>
        <time>2026-07-07T09:36:03.000Z</time>
      </trkpt>
      <trkpt lat="48.06428" lon="16.34205">
        <ele>214.249251</ele>
        <time>2026-07-07T09:36:04.000Z</time>
      </trkpt>
      <trkpt lat="48.06423" lon="16.34201">
        <ele>214.391804</ele>
        <time>2026-07-07T09:36:05.000Z</time>
      </trkpt>
      <trkpt lat="48.06418" lon="16.34197">
        <ele>214.530723</ele>
        <time>2026-07-07T09:36:06.000Z</time>
      </trkpt>
      <trkpt lat="48.06413" lon="16.34192">
        <ele>214.666796</ele>
        <time>2026-07-07T09:36:07.000Z</time>
      </trkpt>
      <trkpt lat="48.06408" lon="16.34188">
        <ele>214.801601</ele>
        <time>2026-07-07T09:36:08.000Z</time>
      </trkpt>
      <trkpt lat="48.06403" lon="16.34184">
        <ele>214.934364</ele>
        <time>2026-07-07T09:36:09.000Z</time>
      </trkpt>
      <trkpt lat="48.06398" lon="16.34179">
        <ele>215.067948</ele>
        <time>2026-07-07T09:36:10.000Z</time>
      </trkpt>
      <trkpt lat="48.06393" lon="16.34175">
        <ele>215.202497</ele>
        <time>2026-07-07T09:36:11.000Z</time>
      </trkpt>
      <trkpt lat="48.06388" lon="16.34171">
        <ele>215.335726</ele>
        <time>2026-07-07T09:36:12.000Z</time>
      </trkpt>
      <trkpt lat="48.06384" lon="16.34167">
        <ele>215.467681</ele>
        <time>2026-07-07T09:36:13.000Z</time>
      </trkpt>
      <trkpt lat="48.06379" lon="16.34163">
        <ele>215.597593</ele>
        <time>2026-07-07T09:36:14.000Z</time>
      </trkpt>
      <trkpt lat="48.06374" lon="16.34159">
        <ele>215.730356</ele>
        <time>2026-07-07T09:36:15.000Z</time>
      </trkpt>
      <trkpt lat="48.06369" lon="16.34154">
        <ele>215.861089</ele>
        <time>2026-07-07T09:36:16.000Z</time>
      </trkpt>
      <trkpt lat="48.06365" lon="16.3415">
        <ele>215.994674</ele>
        <time>2026-07-07T09:36:17.000Z</time>
      </trkpt>
      <trkpt lat="48.0636" lon="16.34146">
        <ele>216.125836</ele>
        <time>2026-07-07T09:36:18.000Z</time>
      </trkpt>
      <trkpt lat="48.06355" lon="16.34142">
        <ele>216.258297</ele>
        <time>2026-07-07T09:36:19.000Z</time>
      </trkpt>
      <trkpt lat="48.0635" lon="16.34138">
        <ele>216.390253</ele>
        <time>2026-07-07T09:36:20.000Z</time>
      </trkpt>
      <trkpt lat="48.06345" lon="16.34133">
        <ele>216.52711</ele>
        <time>2026-07-07T09:36:21.000Z</time>
      </trkpt>
      <trkpt lat="48.0634" lon="16.34129">
        <ele>216.663184</ele>
        <time>2026-07-07T09:36:22.000Z</time>
      </trkpt>
      <trkpt lat="48.06335" lon="16.34125">
        <ele>216.799258</ele>
        <time>2026-07-07T09:36:23.000Z</time>
      </trkpt>
      <trkpt lat="48.0633" lon="16.34121">
        <ele>216.938011</ele>
        <time>2026-07-07T09:36:24.000Z</time>
      </trkpt>
      <trkpt lat="48.06325" lon="16.34117">
        <ele>217.074658</ele>
        <time>2026-07-07T09:36:25.000Z</time>
      </trkpt>
      <trkpt lat="48.0632" lon="16.34113">
        <ele>217.214144</ele>
        <time>2026-07-07T09:36:26.000Z</time>
      </trkpt>
      <trkpt lat="48.06314" lon="16.34108">
        <ele>217.35591</ele>
        <time>2026-07-07T09:36:27.000Z</time>
      </trkpt>
      <trkpt lat="48.06309" lon="16.34104">
        <ele>217.493301</ele>
        <time>2026-07-07T09:36:28.000Z</time>
      </trkpt>
      <trkpt lat="48.06304" lon="16.341">
        <ele>217.568298</ele>
        <time>2026-07-07T09:36:29.000Z</time>
      </trkpt>
      <trkpt lat="48.06299" lon="16.34096">
        <ele>217.601879</ele>
        <time>2026-07-07T09:36:30.000Z</time>
      </trkpt>
      <trkpt lat="48.06293" lon="16.34092">
        <ele>217.637165</ele>
        <time>2026-07-07T09:36:31.000Z</time>
      </trkpt>
      <trkpt lat="48.06288" lon="16.34087">
        <ele>217.671318</ele>
        <time>2026-07-07T09:36:32.000Z</time>
      </trkpt>
      <trkpt lat="48.06283" lon="16.34083">
        <ele>217.705969</ele>
        <time>2026-07-07T09:36:33.000Z</time>
      </trkpt>
      <trkpt lat="48.06278" lon="16.34078">
        <ele>217.740621</ele>
        <time>2026-07-07T09:36:34.000Z</time>
      </trkpt>
      <trkpt lat="48.06273" lon="16.34074">
        <ele>217.774774</ele>
        <time>2026-07-07T09:36:35.000Z</time>
      </trkpt>
      <trkpt lat="48.06267" lon="16.3407">
        <ele>217.809881</ele>
        <time>2026-07-07T09:36:36.000Z</time>
      </trkpt>
      <trkpt lat="48.06262" lon="16.34066">
        <ele>217.844122</ele>
        <time>2026-07-07T09:36:37.000Z</time>
      </trkpt>
      <trkpt lat="48.06257" lon="16.34062">
        <ele>217.878024</ele>
        <time>2026-07-07T09:36:38.000Z</time>
      </trkpt>
      <trkpt lat="48.06251" lon="16.34058">
        <ele>217.91313</ele>
        <time>2026-07-07T09:36:39.000Z</time>
      </trkpt>
      <trkpt lat="48.06246" lon="16.34053">
        <ele>217.947726</ele>
        <time>2026-07-07T09:36:40.000Z</time>
      </trkpt>
      <trkpt lat="48.06241" lon="16.34049">
        <ele>217.981998</ele>
        <time>2026-07-07T09:36:41.000Z</time>
      </trkpt>
      <trkpt lat="48.06236" lon="16.34045">
        <ele>218.016152</ele>
        <time>2026-07-07T09:36:42.000Z</time>
      </trkpt>
      <trkpt lat="48.06231" lon="16.3404">
        <ele>218.049726</ele>
        <time>2026-07-07T09:36:43.000Z</time>
      </trkpt>
      <trkpt lat="48.06226" lon="16.34035">
        <ele>218.083384</ele>
        <time>2026-07-07T09:36:44.000Z</time>
      </trkpt>
      <trkpt lat="48.06221" lon="16.34031">
        <ele>218.115656</ele>
        <time>2026-07-07T09:36:45.000Z</time>
      </trkpt>
      <trkpt lat="48.06216" lon="16.34027">
        <ele>218.148732</ele>
        <time>2026-07-07T09:36:46.000Z</time>
      </trkpt>
      <trkpt lat="48.06211" lon="16.34023">
        <ele>218.181999</ele>
        <time>2026-07-07T09:36:47.000Z</time>
      </trkpt>
      <trkpt lat="48.06206" lon="16.34018">
        <ele>218.214186</ele>
        <time>2026-07-07T09:36:48.000Z</time>
      </trkpt>
      <trkpt lat="48.06202" lon="16.34014">
        <ele>218.246458</ele>
        <time>2026-07-07T09:36:49.000Z</time>
      </trkpt>
      <trkpt lat="48.06197" lon="16.3401">
        <ele>218.278151</ele>
        <time>2026-07-07T09:36:50.000Z</time>
      </trkpt>
      <trkpt lat="48.06192" lon="16.34006">
        <ele>218.309342</ele>
        <time>2026-07-07T09:36:51.000Z</time>
      </trkpt>
      <trkpt lat="48.06187" lon="16.34002">
        <ele>218.340532</ele>
        <time>2026-07-07T09:36:52.000Z</time>
      </trkpt>
      <trkpt lat="48.06183" lon="16.33998">
        <ele>218.371223</ele>
        <time>2026-07-07T09:36:53.000Z</time>
      </trkpt>
      <trkpt lat="48.06178" lon="16.33993">
        <ele>218.403204</ele>
        <time>2026-07-07T09:36:54.000Z</time>
      </trkpt>
      <trkpt lat="48.06173" lon="16.33989">
        <ele>218.435476</ele>
        <time>2026-07-07T09:36:55.000Z</time>
      </trkpt>
      <trkpt lat="48.06168" lon="16.33985">
        <ele>218.46805</ele>
        <time>2026-07-07T09:36:56.000Z</time>
      </trkpt>
      <trkpt lat="48.06163" lon="16.3398">
        <ele>218.501708</ele>
        <time>2026-07-07T09:36:57.000Z</time>
      </trkpt>
      <trkpt lat="48.06159" lon="16.33976">
        <ele>218.534589</ele>
        <time>2026-07-07T09:36:58.000Z</time>
      </trkpt>
      <trkpt lat="48.06154" lon="16.33972">
        <ele>218.567666</ele>
        <time>2026-07-07T09:36:59.000Z</time>
      </trkpt>
      <trkpt lat="48.06148" lon="16.33967">
        <ele>218.532775</ele>
        <time>2026-07-07T09:37:00.000Z</time>
      </trkpt>
      <trkpt lat="48.06143" lon="16.33963">
        <ele>218.435315</ele>
        <time>2026-07-07T09:37:01.000Z</time>
      </trkpt>
      <trkpt lat="48.06138" lon="16.33958">
        <ele>218.334174</ele>
        <time>2026-07-07T09:37:02.000Z</time>
      </trkpt>
      <trkpt lat="48.06133" lon="16.33954">
        <ele>218.233604</ele>
        <time>2026-07-07T09:37:03.000Z</time>
      </trkpt>
      <trkpt lat="48.06128" lon="16.33949">
        <ele>218.136463</ele>
        <time>2026-07-07T09:37:04.000Z</time>
      </trkpt>
      <trkpt lat="48.06123" lon="16.33945">
        <ele>218.037892</ele>
        <time>2026-07-07T09:37:05.000Z</time>
      </trkpt>
      <trkpt lat="48.06118" lon="16.3394">
        <ele>217.936751</ele>
        <time>2026-07-07T09:37:06.000Z</time>
      </trkpt>
      <trkpt lat="48.06112" lon="16.33935">
        <ele>217.83561</ele>
        <time>2026-07-07T09:37:07.000Z</time>
      </trkpt>
      <trkpt lat="48.06107" lon="16.33931">
        <ele>217.733603</ele>
        <time>2026-07-07T09:37:08.000Z</time>
      </trkpt>
      <trkpt lat="48.06102" lon="16.33926">
        <ele>217.632461</ele>
        <time>2026-07-07T09:37:09.000Z</time>
      </trkpt>
      <trkpt lat="48.06097" lon="16.33921">
        <ele>217.532742</ele>
        <time>2026-07-07T09:37:10.000Z</time>
      </trkpt>
      <trkpt lat="48.06092" lon="16.33917">
        <ele>217.432171</ele>
        <time>2026-07-07T09:37:11.000Z</time>
      </trkpt>
      <trkpt lat="48.06086" lon="16.33912">
        <ele>217.332162</ele>
        <time>2026-07-07T09:37:12.000Z</time>
      </trkpt>
      <trkpt lat="48.06081" lon="16.33908">
        <ele>217.233591</ele>
        <time>2026-07-07T09:37:13.000Z</time>
      </trkpt>
      <trkpt lat="48.06076" lon="16.33903">
        <ele>217.131223</ele>
        <time>2026-07-07T09:37:14.000Z</time>
      </trkpt>
      <trkpt lat="48.0607" lon="16.33899">
        <ele>217.028922</ele>
        <time>2026-07-07T09:37:15.000Z</time>
      </trkpt>
      <trkpt lat="48.06065" lon="16.33895">
        <ele>216.928012</ele>
        <time>2026-07-07T09:37:16.000Z</time>
      </trkpt>
      <trkpt lat="48.06059" lon="16.3389">
        <ele>216.820717</ele>
        <time>2026-07-07T09:37:17.000Z</time>
      </trkpt>
      <trkpt lat="48.06054" lon="16.33886">
        <ele>216.71436</ele>
        <time>2026-07-07T09:37:18.000Z</time>
      </trkpt>
      <trkpt lat="48.06048" lon="16.33881">
        <ele>216.60308</ele>
        <time>2026-07-07T09:37:19.000Z</time>
      </trkpt>
      <trkpt lat="48.06042" lon="16.33876">
        <ele>216.489807</ele>
        <time>2026-07-07T09:37:20.000Z</time>
      </trkpt>
      <trkpt lat="48.06036" lon="16.33872">
        <ele>216.372607</ele>
        <time>2026-07-07T09:37:21.000Z</time>
      </trkpt>
      <trkpt lat="48.06029" lon="16.33867">
        <ele>216.254906</ele>
        <time>2026-07-07T09:37:22.000Z</time>
      </trkpt>
      <trkpt lat="48.06023" lon="16.33862">
        <ele>216.133228</ele>
        <time>2026-07-07T09:37:23.000Z</time>
      </trkpt>
      <trkpt lat="48.06016" lon="16.33857">
        <ele>216.011981</ele>
        <time>2026-07-07T09:37:24.000Z</time>
      </trkpt>
      <trkpt lat="48.0601" lon="16.33852">
        <ele>215.893254</ele>
        <time>2026-07-07T09:37:25.000Z</time>
      </trkpt>
      <trkpt lat="48.06004" lon="16.33847">
        <ele>215.781812</ele>
        <time>2026-07-07T09:37:26.000Z</time>
      </trkpt>
      <trkpt lat="48.05999" lon="16.33842">
        <ele>215.675808</ele>
        <time>2026-07-07T09:37:27.000Z</time>
      </trkpt>
      <trkpt lat="48.05994" lon="16.33838">
        <ele>215.582922</ele>
        <time>2026-07-07T09:37:28.000Z</time>
      </trkpt>
      <trkpt lat="48.05989" lon="16.33834">
        <ele>215.531337</ele>
        <time>2026-07-07T09:37:29.000Z</time>
      </trkpt>
      <trkpt lat="48.05984" lon="16.3383">
        <ele>215.482732</ele>
        <time>2026-07-07T09:37:30.000Z</time>
      </trkpt>
      <trkpt lat="48.05979" lon="16.33826">
        <ele>215.436016</ele>
        <time>2026-07-07T09:37:31.000Z</time>
      </trkpt>
      <trkpt lat="48.05975" lon="16.33823">
        <ele>215.39148</ele>
        <time>2026-07-07T09:37:32.000Z</time>
      </trkpt>
      <trkpt lat="48.05971" lon="16.33819">
        <ele>215.352598</ele>
        <time>2026-07-07T09:37:33.000Z</time>
      </trkpt>
      <trkpt lat="48.05968" lon="16.33817">
        <ele>215.320265</ele>
        <time>2026-07-07T09:37:34.000Z</time>
      </trkpt>
      <trkpt lat="48.05966" lon="16.33814">
        <ele>215.291484</ele>
        <time>2026-07-07T09:37:35.000Z</time>
      </trkpt>
      <trkpt lat="48.05964" lon="16.33811">
        <ele>215.263989</ele>
        <time>2026-07-07T09:37:36.000Z</time>
      </trkpt>
      <trkpt lat="48.05961" lon="16.33807">
        <ele>215.234573</ele>
        <time>2026-07-07T09:37:37.000Z</time>
      </trkpt>
      <trkpt lat="48.05959" lon="16.33805">
        <ele>215.207615</ele>
        <time>2026-07-07T09:37:38.000Z</time>
      </trkpt>
      <trkpt lat="48.05958" lon="16.33803">
        <ele>215.193042</ele>
        <time>2026-07-07T09:37:39.000Z</time>
      </trkpt>
      <trkpt lat="48.05957" lon="16.33803">
        <ele>215.189759</ele>
        <time>2026-07-07T09:37:40.000Z</time>
      </trkpt>
      <trkpt lat="48.05957" lon="16.33803">
        <ele>215.188849</ele>
        <time>2026-07-07T09:37:41.000Z</time>
      </trkpt>
      <trkpt lat="48.05959" lon="16.33805">
        <ele>215.169739</ele>
        <time>2026-07-07T09:37:51.000Z</time>
      </trkpt>
      <trkpt lat="48.0596" lon="16.33806">
        <ele>215.158228</ele>
        <time>2026-07-07T09:37:52.000Z</time>
      </trkpt>
      <trkpt lat="48.05961" lon="16.33807">
        <ele>215.144929</ele>
        <time>2026-07-07T09:37:53.000Z</time>
      </trkpt>
      <trkpt lat="48.05963" lon="16.33808">
        <ele>215.131084</ele>
        <time>2026-07-07T09:37:54.000Z</time>
      </trkpt>
      <trkpt lat="48.05963" lon="16.3381">
        <ele>215.117356</ele>
        <time>2026-07-07T09:37:55.000Z</time>
      </trkpt>
      <trkpt lat="48.05963" lon="16.33812">
        <ele>215.105194</ele>
        <time>2026-07-07T09:37:56.000Z</time>
      </trkpt>
      <trkpt lat="48.05963" lon="16.33813">
        <ele>215.0976</ele>
        <time>2026-07-07T09:37:57.000Z</time>
      </trkpt>
      <trkpt lat="48.05962" lon="16.33814">
        <ele>215.090543</ele>
        <time>2026-07-07T09:37:58.000Z</time>
      </trkpt>
      <trkpt lat="48.05962" lon="16.33814">
        <ele>215.085834</ele>
        <time>2026-07-07T09:37:59.000Z</time>
      </trkpt>
      <trkpt lat="48.05961" lon="16.33813">
        <ele>215.07921</ele>
        <time>2026-07-07T09:38:00.000Z</time>
      </trkpt>
      <trkpt lat="48.0596" lon="16.33813">
        <ele>215.073738</ele>
        <time>2026-07-07T09:38:01.000Z</time>
      </trkpt>
      <trkpt lat="48.0596" lon="16.33812">
        <ele>215.066144</ele>
        <time>2026-07-07T09:38:02.000Z</time>
      </trkpt>
      <trkpt lat="48.05959" lon="16.33811">
        <ele>215.055201</ele>
        <time>2026-07-07T09:38:03.000Z</time>
      </trkpt>
      <trkpt lat="48.05958" lon="16.3381">
        <ele>215.042169</ele>
        <time>2026-07-07T09:38:04.000Z</time>
      </trkpt>
      <trkpt lat="48.05955" lon="16.33809">
        <ele>215.020648</ele>
        <time>2026-07-07T09:38:05.000Z</time>
      </trkpt>
      <trkpt lat="48.05953" lon="16.33807">
        <ele>214.994584</ele>
        <time>2026-07-07T09:38:06.000Z</time>
      </trkpt>
      <trkpt lat="48.05949" lon="16.33804">
        <ele>214.96038</ele>
        <time>2026-07-07T09:38:07.000Z</time>
      </trkpt>
      <trkpt lat="48.05945" lon="16.33802">
        <ele>214.919376</ele>
        <time>2026-07-07T09:38:08.000Z</time>
      </trkpt>
      <trkpt lat="48.05941" lon="16.33798">
        <ele>214.878908</ele>
        <time>2026-07-07T09:38:09.000Z</time>
      </trkpt>
      <trkpt lat="48.05938" lon="16.33796">
        <ele>214.844393</ele>
        <time>2026-07-07T09:38:10.000Z</time>
      </trkpt>
      <trkpt lat="48.05935" lon="16.33792">
        <ele>214.809375</ele>
        <time>2026-07-07T09:38:11.000Z</time>
      </trkpt>
      <trkpt lat="48.05932" lon="16.3379">
        <ele>214.780313</ele>
        <time>2026-07-07T09:38:12.000Z</time>
      </trkpt>
      <trkpt lat="48.0593" lon="16.3379">
        <ele>214.762117</ele>
        <time>2026-07-07T09:38:13.000Z</time>
      </trkpt>
      <trkpt lat="48.0593" lon="16.33791">
        <ele>214.753754</ele>
        <time>2026-07-07T09:38:14.000Z</time>
      </trkpt>
      <trkpt lat="48.05932" lon="16.33793">
        <ele>214.739075</ele>
        <time>2026-07-07T09:38:15.000Z</time>
      </trkpt>
      <trkpt lat="48.05935" lon="16.33795">
        <ele>214.704535</ele>
        <time>2026-07-07T09:38:17.000Z</time>
      </trkpt>
      <trkpt lat="48.05937" lon="16.33796">
        <ele>214.684696</ele>
        <time>2026-07-07T09:38:18.000Z</time>
      </trkpt>
      <trkpt lat="48.05939" lon="16.33797">
        <ele>214.664244</ele>
        <time>2026-07-07T09:38:19.000Z</time>
      </trkpt>
      <trkpt lat="48.05941" lon="16.33799">
        <ele>214.644405</ele>
        <time>2026-07-07T09:38:20.000Z</time>
      </trkpt>
      <trkpt lat="48.05944" lon="16.338">
        <ele>214.620861</ele>
        <time>2026-07-07T09:38:21.000Z</time>
      </trkpt>
      <trkpt lat="48.05947" lon="16.33801">
        <ele>214.593318</ele>
        <time>2026-07-07T09:38:22.000Z</time>
      </trkpt>
      <trkpt lat="48.05949" lon="16.33803">
        <ele>214.568334</ele>
        <time>2026-07-07T09:38:23.000Z</time>
      </trkpt>
      <trkpt lat="48.05952" lon="16.33804">
        <ele>214.544994</ele>
        <time>2026-07-07T09:38:24.000Z</time>
      </trkpt>
      <trkpt lat="48.05954" lon="16.33806">
        <ele>214.519752</ele>
        <time>2026-07-07T09:38:25.000Z</time>
      </trkpt>
      <trkpt lat="48.05956" lon="16.33808">
        <ele>214.496137</ele>
        <time>2026-07-07T09:38:26.000Z</time>
      </trkpt>
      <trkpt lat="48.05959" lon="16.3381">
        <ele>214.473609</ele>
        <time>2026-07-07T09:38:27.000Z</time>
      </trkpt>
      <trkpt lat="48.0596" lon="16.33812">
        <ele>214.454499</ele>
        <time>2026-07-07T09:38:28.000Z</time>
      </trkpt>
      <trkpt lat="48.05961" lon="16.33815">
        <ele>214.434273</ele>
        <time>2026-07-07T09:38:29.000Z</time>
      </trkpt>
      <trkpt lat="48.05963" lon="16.33817">
        <ele>214.413875</ele>
        <time>2026-07-07T09:38:30.000Z</time>
      </trkpt>
      <trkpt lat="48.05965" lon="16.33817">
        <ele>214.397453</ele>
        <time>2026-07-07T09:38:31.000Z</time>
      </trkpt>
      <trkpt lat="48.05966" lon="16.33815">
        <ele>214.38426</ele>
        <time>2026-07-07T09:38:32.000Z</time>
      </trkpt>
      <trkpt lat="48.05965" lon="16.33812">
        <ele>214.366637</ele>
        <time>2026-07-07T09:38:33.000Z</time>
      </trkpt>
      <trkpt lat="48.05963" lon="16.33809">
        <ele>214.343448</ele>
        <time>2026-07-07T09:38:34.000Z</time>
      </trkpt>
      <trkpt lat="48.05961" lon="16.33807">
        <ele>214.316489</ele>
        <time>2026-07-07T09:38:35.000Z</time>
      </trkpt>
      <trkpt lat="48.05958" lon="16.33804">
        <ele>214.288438</ele>
        <time>2026-07-07T09:38:36.000Z</time>
      </trkpt>
      <trkpt lat="48.05956" lon="16.33802">
        <ele>214.26108</ele>
        <time>2026-07-07T09:38:37.000Z</time>
      </trkpt>
      <trkpt lat="48.05953" lon="16.33799">
        <ele>214.230411</ele>
        <time>2026-07-07T09:38:38.000Z</time>
      </trkpt>
      <trkpt lat="48.0595" lon="16.33797">
        <ele>214.198655</ele>
        <time>2026-07-07T09:38:39.000Z</time>
      </trkpt>
      <trkpt lat="48.05946" lon="16.33794">
        <ele>214.161956</ele>
        <time>2026-07-07T09:38:40.000Z</time>
      </trkpt>
      <trkpt lat="48.05943" lon="16.33791">
        <ele>214.123668</ele>
        <time>2026-07-07T09:38:41.000Z</time>
      </trkpt>
      <trkpt lat="48.05939" lon="16.33788">
        <ele>214.084478</ele>
        <time>2026-07-07T09:38:42.000Z</time>
      </trkpt>
      <trkpt lat="48.05935" lon="16.33784">
        <ele>214.046839</ele>
        <time>2026-07-07T09:38:43.000Z</time>
      </trkpt>
      <trkpt lat="48.05932" lon="16.33781">
        <ele>214.007167</ele>
        <time>2026-07-07T09:38:44.000Z</time>
      </trkpt>
      <trkpt lat="48.05928" lon="16.33778">
        <ele>213.967977</ele>
        <time>2026-07-07T09:38:45.000Z</time>
      </trkpt>
      <trkpt lat="48.05924" lon="16.33774">
        <ele>213.902595</ele>
        <time>2026-07-07T09:38:46.000Z</time>
      </trkpt>
      <trkpt lat="48.05921" lon="16.33771">
        <ele>213.820128</ele>
        <time>2026-07-07T09:38:47.000Z</time>
      </trkpt>
      <trkpt lat="48.05917" lon="16.33768">
        <ele>213.741557</ele>
        <time>2026-07-07T09:38:48.000Z</time>
      </trkpt>
      <trkpt lat="48.05913" lon="16.33764">
        <ele>213.66039</ele>
        <time>2026-07-07T09:38:49.000Z</time>
      </trkpt>
      <trkpt lat="48.0591" lon="16.33762">
        <ele>213.579942</ele>
        <time>2026-07-07T09:38:50.000Z</time>
      </trkpt>
      <trkpt lat="48.05905" lon="16.33759">
        <ele>213.491375</ele>
        <time>2026-07-07T09:38:51.000Z</time>
      </trkpt>
      <trkpt lat="48.05901" lon="16.33757">
        <ele>213.401849</ele>
        <time>2026-07-07T09:38:52.000Z</time>
      </trkpt>
      <trkpt lat="48.05896" lon="16.33755">
        <ele>213.299878</ele>
        <time>2026-07-07T09:38:53.000Z</time>
      </trkpt>
      <trkpt lat="48.0589" lon="16.33753">
        <ele>213.192673</ele>
        <time>2026-07-07T09:38:54.000Z</time>
      </trkpt>
      <trkpt lat="48.05884" lon="16.33751">
        <ele>213.078714</ele>
        <time>2026-07-07T09:38:55.000Z</time>
      </trkpt>
      <trkpt lat="48.05879" lon="16.33747">
        <ele>212.971927</ele>
        <time>2026-07-07T09:38:56.000Z</time>
      </trkpt>
      <trkpt lat="48.05875" lon="16.33742">
        <ele>212.87045</ele>
        <time>2026-07-07T09:38:57.000Z</time>
      </trkpt>
      <trkpt lat="48.05873" lon="16.33735">
        <ele>212.77168</ele>
        <time>2026-07-07T09:38:58.000Z</time>
      </trkpt>
      <trkpt lat="48.05873" lon="16.33727">
        <ele>212.667573</ele>
        <time>2026-07-07T09:38:59.000Z</time>
      </trkpt>
      <trkpt lat="48.05875" lon="16.33719">
        <ele>212.559151</ele>
        <time>2026-07-07T09:39:00.000Z</time>
      </trkpt>
      <trkpt lat="48.05879" lon="16.33712">
        <ele>212.456133</ele>
        <time>2026-07-07T09:39:01.000Z</time>
      </trkpt>
      <trkpt lat="48.05883" lon="16.33708">
        <ele>212.360889</ele>
        <time>2026-07-07T09:39:02.000Z</time>
      </trkpt>
      <trkpt lat="48.05888" lon="16.33707">
        <ele>212.259799</ele>
        <time>2026-07-07T09:39:03.000Z</time>
      </trkpt>
      <trkpt lat="48.05894" lon="16.33708">
        <ele>212.15362</ele>
        <time>2026-07-07T09:39:04.000Z</time>
      </trkpt>
      <trkpt lat="48.059" lon="16.33712">
        <ele>212.033366</ele>
        <time>2026-07-07T09:39:05.000Z</time>
      </trkpt>
      <trkpt lat="48.05905" lon="16.33716">
        <ele>211.91946</ele>
        <time>2026-07-07T09:39:06.000Z</time>
      </trkpt>
      <trkpt lat="48.0591" lon="16.3372">
        <ele>211.80662</ele>
        <time>2026-07-07T09:39:07.000Z</time>
      </trkpt>
      <trkpt lat="48.05915" lon="16.33725">
        <ele>211.690883</ele>
        <time>2026-07-07T09:39:08.000Z</time>
      </trkpt>
      <trkpt lat="48.05921" lon="16.33729">
        <ele>211.577001</ele>
        <time>2026-07-07T09:39:09.000Z</time>
      </trkpt>
      <trkpt lat="48.05926" lon="16.33731">
        <ele>211.474672</ele>
        <time>2026-07-07T09:39:10.000Z</time>
      </trkpt>
      <trkpt lat="48.05931" lon="16.33731">
        <ele>211.381601</ele>
        <time>2026-07-07T09:39:11.000Z</time>
      </trkpt>
      <trkpt lat="48.05935" lon="16.33728">
        <ele>211.288036</ele>
        <time>2026-07-07T09:39:12.000Z</time>
      </trkpt>
      <trkpt lat="48.05939" lon="16.33723">
        <ele>211.194357</ele>
        <time>2026-07-07T09:39:13.000Z</time>
      </trkpt>
      <trkpt lat="48.05942" lon="16.33717">
        <ele>211.09375</ele>
        <time>2026-07-07T09:39:14.000Z</time>
      </trkpt>
      <trkpt lat="48.05945" lon="16.3371">
        <ele>210.994519</ele>
        <time>2026-07-07T09:39:15.000Z</time>
      </trkpt>
      <trkpt lat="48.05948" lon="16.33703">
        <ele>210.891054</ele>
        <time>2026-07-07T09:39:16.000Z</time>
      </trkpt>
      <trkpt lat="48.05951" lon="16.33696">
        <ele>210.7855</ele>
        <time>2026-07-07T09:39:17.000Z</time>
      </trkpt>
      <trkpt lat="48.05954" lon="16.3369">
        <ele>210.684183</ele>
        <time>2026-07-07T09:39:18.000Z</time>
      </trkpt>
      <trkpt lat="48.05957" lon="16.33683">
        <ele>210.582822</ele>
        <time>2026-07-07T09:39:19.000Z</time>
      </trkpt>
      <trkpt lat="48.0596" lon="16.33678">
        <ele>210.541089</ele>
        <time>2026-07-07T09:39:20.000Z</time>
      </trkpt>
      <trkpt lat="48.05964" lon="16.33672">
        <ele>210.54844</ele>
        <time>2026-07-07T09:39:21.000Z</time>
      </trkpt>
      <trkpt lat="48.05967" lon="16.33667">
        <ele>210.555448</ele>
        <time>2026-07-07T09:39:22.000Z</time>
      </trkpt>
      <trkpt lat="48.05971" lon="16.33662">
        <ele>210.56254</ele>
        <time>2026-07-07T09:39:23.000Z</time>
      </trkpt>
      <trkpt lat="48.05975" lon="16.33657">
        <ele>210.569761</ele>
        <time>2026-07-07T09:39:24.000Z</time>
      </trkpt>
      <trkpt lat="48.05978" lon="16.33652">
        <ele>210.576875</ele>
        <time>2026-07-07T09:39:25.000Z</time>
      </trkpt>
      <trkpt lat="48.05982" lon="16.33647">
        <ele>210.584018</ele>
        <time>2026-07-07T09:39:26.000Z</time>
      </trkpt>
      <trkpt lat="48.05985" lon="16.33642">
        <ele>210.591026</ele>
        <time>2026-07-07T09:39:27.000Z</time>
      </trkpt>
      <trkpt lat="48.05989" lon="16.33637">
        <ele>210.59834</ele>
        <time>2026-07-07T09:39:28.000Z</time>
      </trkpt>
      <trkpt lat="48.05993" lon="16.33633">
        <ele>210.605647</ele>
        <time>2026-07-07T09:39:29.000Z</time>
      </trkpt>
      <trkpt lat="48.05998" lon="16.33629">
        <ele>210.613277</ele>
        <time>2026-07-07T09:39:30.000Z</time>
      </trkpt>
      <trkpt lat="48.06003" lon="16.33625">
        <ele>210.621226</ele>
        <time>2026-07-07T09:39:31.000Z</time>
      </trkpt>
      <trkpt lat="48.06008" lon="16.33621">
        <ele>210.629304</ele>
        <time>2026-07-07T09:39:32.000Z</time>
      </trkpt>
      <trkpt lat="48.06013" lon="16.33618">
        <ele>210.63734</ele>
        <time>2026-07-07T09:39:33.000Z</time>
      </trkpt>
      <trkpt lat="48.06018" lon="16.33614">
        <ele>210.645335</ele>
        <time>2026-07-07T09:39:34.000Z</time>
      </trkpt>
      <trkpt lat="48.06022" lon="16.33611">
        <ele>210.652765</ele>
        <time>2026-07-07T09:39:35.000Z</time>
      </trkpt>
      <trkpt lat="48.06027" lon="16.33608">
        <ele>210.66047</ele>
        <time>2026-07-07T09:39:36.000Z</time>
      </trkpt>
      <trkpt lat="48.06032" lon="16.33605">
        <ele>210.668004</ele>
        <time>2026-07-07T09:39:37.000Z</time>
      </trkpt>
      <trkpt lat="48.06037" lon="16.33602">
        <ele>210.675537</ele>
        <time>2026-07-07T09:39:38.000Z</time>
      </trkpt>
      <trkpt lat="48.06042" lon="16.33599">
        <ele>210.68328</ele>
        <time>2026-07-07T09:39:39.000Z</time>
      </trkpt>
      <trkpt lat="48.06046" lon="16.33595">
        <ele>210.690627</ele>
        <time>2026-07-07T09:39:40.000Z</time>
      </trkpt>
      <trkpt lat="48.06051" lon="16.33592">
        <ele>210.698027</ele>
        <time>2026-07-07T09:39:41.000Z</time>
      </trkpt>
      <trkpt lat="48.06056" lon="16.33589">
        <ele>210.705561</ele>
        <time>2026-07-07T09:39:42.000Z</time>
      </trkpt>
      <trkpt lat="48.06061" lon="16.33587">
        <ele>210.713157</ele>
        <time>2026-07-07T09:39:43.000Z</time>
      </trkpt>
      <trkpt lat="48.06066" lon="16.33584">
        <ele>210.720691</ele>
        <time>2026-07-07T09:39:44.000Z</time>
      </trkpt>
      <trkpt lat="48.06071" lon="16.33581">
        <ele>210.728422</ele>
        <time>2026-07-07T09:39:45.000Z</time>
      </trkpt>
      <trkpt lat="48.06076" lon="16.33578">
        <ele>210.736121</ele>
        <time>2026-07-07T09:39:46.000Z</time>
      </trkpt>
      <trkpt lat="48.06081" lon="16.33576">
        <ele>210.743974</ele>
        <time>2026-07-07T09:39:47.000Z</time>
      </trkpt>
      <trkpt lat="48.06086" lon="16.33574">
        <ele>210.751522</ele>
        <time>2026-07-07T09:39:48.000Z</time>
      </trkpt>
      <trkpt lat="48.06091" lon="16.33572">
        <ele>210.758623</ele>
        <time>2026-07-07T09:39:49.000Z</time>
      </trkpt>
      <trkpt lat="48.06096" lon="16.3357">
        <ele>210.766449</ele>
        <time>2026-07-07T09:39:50.000Z</time>
      </trkpt>
      <trkpt lat="48.06101" lon="16.33568">
        <ele>210.774085</ele>
        <time>2026-07-07T09:39:51.000Z</time>
      </trkpt>
      <trkpt lat="48.06106" lon="16.33566">
        <ele>210.781938</ele>
        <time>2026-07-07T09:39:52.000Z</time>
      </trkpt>
      <trkpt lat="48.06111" lon="16.33564">
        <ele>210.789713</ele>
        <time>2026-07-07T09:39:53.000Z</time>
      </trkpt>
      <trkpt lat="48.06116" lon="16.33562">
        <ele>210.797139</ele>
        <time>2026-07-07T09:39:54.000Z</time>
      </trkpt>
      <trkpt lat="48.06121" lon="16.3356">
        <ele>210.840187</ele>
        <time>2026-07-07T09:39:55.000Z</time>
      </trkpt>
      <trkpt lat="48.06126" lon="16.33559">
        <ele>210.883844</ele>
        <time>2026-07-07T09:39:56.000Z</time>
      </trkpt>
      <trkpt lat="48.06131" lon="16.33558">
        <ele>210.925479</ele>
        <time>2026-07-07T09:39:57.000Z</time>
      </trkpt>
      <trkpt lat="48.06136" lon="16.33557">
        <ele>210.970613</ele>
        <time>2026-07-07T09:39:58.000Z</time>
      </trkpt>
      <trkpt lat="48.06141" lon="16.33555">
        <ele>211.016505</ele>
        <time>2026-07-07T09:39:59.000Z</time>
      </trkpt>
      <trkpt lat="48.06146" lon="16.33554">
        <ele>211.061152</ele>
        <time>2026-07-07T09:40:00.000Z</time>
      </trkpt>
      <trkpt lat="48.06151" lon="16.33553">
        <ele>211.104922</ele>
        <time>2026-07-07T09:40:01.000Z</time>
      </trkpt>
      <trkpt lat="48.06156" lon="16.33552">
        <ele>211.1479</ele>
        <time>2026-07-07T09:40:02.000Z</time>
      </trkpt>
      <trkpt lat="48.0616" lon="16.33551">
        <ele>211.190315</ele>
        <time>2026-07-07T09:40:03.000Z</time>
      </trkpt>
      <trkpt lat="48.06165" lon="16.3355">
        <ele>211.231747</ele>
        <time>2026-07-07T09:40:04.000Z</time>
      </trkpt>
      <trkpt lat="48.0617" lon="16.33548">
        <ele>211.273947</ele>
        <time>2026-07-07T09:40:05.000Z</time>
      </trkpt>
      <trkpt lat="48.06174" lon="16.33547">
        <ele>211.31451</ele>
        <time>2026-07-07T09:40:06.000Z</time>
      </trkpt>
      <trkpt lat="48.06179" lon="16.33546">
        <ele>211.356813</ele>
        <time>2026-07-07T09:40:07.000Z</time>
      </trkpt>
      <trkpt lat="48.06183" lon="16.33544">
        <ele>211.397493</ele>
        <time>2026-07-07T09:40:08.000Z</time>
      </trkpt>
      <trkpt lat="48.06188" lon="16.33543">
        <ele>211.436103</ele>
        <time>2026-07-07T09:40:09.000Z</time>
      </trkpt>
      <trkpt lat="48.06192" lon="16.33542">
        <ele>211.473947</ele>
        <time>2026-07-07T09:40:10.000Z</time>
      </trkpt>
      <trkpt lat="48.06196" lon="16.3354">
        <ele>211.512114</ele>
        <time>2026-07-07T09:40:11.000Z</time>
      </trkpt>
      <trkpt lat="48.062" lon="16.33537">
        <ele>211.550857</ele>
        <time>2026-07-07T09:40:12.000Z</time>
      </trkpt>
      <trkpt lat="48.06202" lon="16.33531">
        <ele>211.590277</ele>
        <time>2026-07-07T09:40:13.000Z</time>
      </trkpt>
      <trkpt lat="48.06203" lon="16.33525">
        <ele>211.630884</ele>
        <time>2026-07-07T09:40:14.000Z</time>
      </trkpt>
      <trkpt lat="48.06202" lon="16.33518">
        <ele>211.671888</ele>
        <time>2026-07-07T09:40:15.000Z</time>
      </trkpt>
      <trkpt lat="48.062" lon="16.33511">
        <ele>211.716249</ele>
        <time>2026-07-07T09:40:16.000Z</time>
      </trkpt>
      <trkpt lat="48.06196" lon="16.33505">
        <ele>211.763943</ele>
        <time>2026-07-07T09:40:17.000Z</time>
      </trkpt>
      <trkpt lat="48.06192" lon="16.33499">
        <ele>211.813029</ele>
        <time>2026-07-07T09:40:18.000Z</time>
      </trkpt>
      <trkpt lat="48.06189" lon="16.33494">
        <ele>211.860235</ele>
        <time>2026-07-07T09:40:19.000Z</time>
      </trkpt>
      <trkpt lat="48.06185" lon="16.33488">
        <ele>211.906396</ele>
        <time>2026-07-07T09:40:20.000Z</time>
      </trkpt>
      <trkpt lat="48.06181" lon="16.33482">
        <ele>211.953652</ele>
        <time>2026-07-07T09:40:21.000Z</time>
      </trkpt>
      <trkpt lat="48.06178" lon="16.33477">
        <ele>211.997969</ele>
        <time>2026-07-07T09:40:22.000Z</time>
      </trkpt>
      <trkpt lat="48.06175" lon="16.33472">
        <ele>212.040816</ele>
        <time>2026-07-07T09:40:23.000Z</time>
      </trkpt>
      <trkpt lat="48.06171" lon="16.33466">
        <ele>212.082628</ele>
        <time>2026-07-07T09:40:24.000Z</time>
      </trkpt>
      <trkpt lat="48.06168" lon="16.33461">
        <ele>212.122374</ele>
        <time>2026-07-07T09:40:25.000Z</time>
      </trkpt>
      <trkpt lat="48.06165" lon="16.33456">
        <ele>212.162716</ele>
        <time>2026-07-07T09:40:26.000Z</time>
      </trkpt>
      <trkpt lat="48.06161" lon="16.33452">
        <ele>212.206305</ele>
        <time>2026-07-07T09:40:27.000Z</time>
      </trkpt>
      <trkpt lat="48.06157" lon="16.33448">
        <ele>212.249951</ele>
        <time>2026-07-07T09:40:28.000Z</time>
      </trkpt>
      <trkpt lat="48.06153" lon="16.33444">
        <ele>212.295396</ele>
        <time>2026-07-07T09:40:29.000Z</time>
      </trkpt>
      <trkpt lat="48.06148" lon="16.3344">
        <ele>212.343849</ele>
        <time>2026-07-07T09:40:30.000Z</time>
      </trkpt>
      <trkpt lat="48.06143" lon="16.33435">
        <ele>212.391248</ele>
        <time>2026-07-07T09:40:31.000Z</time>
      </trkpt>
      <trkpt lat="48.06139" lon="16.3343">
        <ele>212.407768</ele>
        <time>2026-07-07T09:40:32.000Z</time>
      </trkpt>
      <trkpt lat="48.06134" lon="16.33425">
        <ele>212.423942</ele>
        <time>2026-07-07T09:40:33.000Z</time>
      </trkpt>
      <trkpt lat="48.0613" lon="16.33419">
        <ele>212.440709</ele>
        <time>2026-07-07T09:40:34.000Z</time>
      </trkpt>
      <trkpt lat="48.06126" lon="16.33413">
        <ele>212.457332</ele>
        <time>2026-07-07T09:40:35.000Z</time>
      </trkpt>
      <trkpt lat="48.06122" lon="16.33407">
        <ele>212.473698</ele>
        <time>2026-07-07T09:40:36.000Z</time>
      </trkpt>
      <trkpt lat="48.06118" lon="16.33401">
        <ele>212.490259</ele>
        <time>2026-07-07T09:40:37.000Z</time>
      </trkpt>
      <trkpt lat="48.06114" lon="16.33394">
        <ele>212.506838</ele>
        <time>2026-07-07T09:40:38.000Z</time>
      </trkpt>
      <trkpt lat="48.0611" lon="16.33388">
        <ele>212.523399</ele>
        <time>2026-07-07T09:40:39.000Z</time>
      </trkpt>
      <trkpt lat="48.06107" lon="16.33381">
        <ele>212.539909</ele>
        <time>2026-07-07T09:40:40.000Z</time>
      </trkpt>
      <trkpt lat="48.06103" lon="16.33375">
        <ele>212.55585</ele>
        <time>2026-07-07T09:40:41.000Z</time>
      </trkpt>
      <trkpt lat="48.06099" lon="16.33369">
        <ele>212.572609</ele>
        <time>2026-07-07T09:40:42.000Z</time>
      </trkpt>
      <trkpt lat="48.06095" lon="16.33363">
        <ele>212.589454</ele>
        <time>2026-07-07T09:40:43.000Z</time>
      </trkpt>
      <trkpt lat="48.06091" lon="16.33356">
        <ele>212.606494</ele>
        <time>2026-07-07T09:40:44.000Z</time>
      </trkpt>
      <trkpt lat="48.06087" lon="16.3335">
        <ele>212.623253</ele>
        <time>2026-07-07T09:40:45.000Z</time>
      </trkpt>
      <trkpt lat="48.06083" lon="16.33343">
        <ele>212.640151</ele>
        <time>2026-07-07T09:40:46.000Z</time>
      </trkpt>
      <trkpt lat="48.06079" lon="16.33337">
        <ele>212.656632</ele>
        <time>2026-07-07T09:40:47.000Z</time>
      </trkpt>
      <trkpt lat="48.06075" lon="16.33331">
        <ele>212.673531</ele>
        <time>2026-07-07T09:40:48.000Z</time>
      </trkpt>
      <trkpt lat="48.06071" lon="16.33325">
        <ele>212.690289</ele>
        <time>2026-07-07T09:40:49.000Z</time>
      </trkpt>
      <trkpt lat="48.06067" lon="16.33318">
        <ele>212.706655</ele>
        <time>2026-07-07T09:40:50.000Z</time>
      </trkpt>
      <trkpt lat="48.06063" lon="16.33312">
        <ele>212.722879</ele>
        <time>2026-07-07T09:40:51.000Z</time>
      </trkpt>
      <trkpt lat="48.0606" lon="16.33306">
        <ele>212.738342</ele>
        <time>2026-07-07T09:40:52.000Z</time>
      </trkpt>
      <trkpt lat="48.06056" lon="16.33301">
        <ele>212.752988</ele>
        <time>2026-07-07T09:40:53.000Z</time>
      </trkpt>
      <trkpt lat="48.06053" lon="16.33296">
        <ele>212.766817</ele>
        <time>2026-07-07T09:40:54.000Z</time>
      </trkpt>
      <trkpt lat="48.0605" lon="16.3329">
        <ele>212.780065</ele>
        <time>2026-07-07T09:40:55.000Z</time>
      </trkpt>
      <trkpt lat="48.06047" lon="16.33285">
        <ele>212.79384</ele>
        <time>2026-07-07T09:40:56.000Z</time>
      </trkpt>
      <trkpt lat="48.06043" lon="16.3328">
        <ele>212.807669</ele>
        <time>2026-07-07T09:40:57.000Z</time>
      </trkpt>
      <trkpt lat="48.0604" lon="16.33275">
        <ele>212.821561</ele>
        <time>2026-07-07T09:40:58.000Z</time>
      </trkpt>
      <trkpt lat="48.06037" lon="16.33269">
        <ele>212.83529</ele>
        <time>2026-07-07T09:40:59.000Z</time>
      </trkpt>
      <trkpt lat="48.06033" lon="16.33264">
        <ele>212.849457</ele>
        <time>2026-07-07T09:41:00.000Z</time>
      </trkpt>
      <trkpt lat="48.0603" lon="16.33259">
        <ele>212.863287</ele>
        <time>2026-07-07T09:41:01.000Z</time>
      </trkpt>
      <trkpt lat="48.06027" lon="16.33254">
        <ele>212.877061</ele>
        <time>2026-07-07T09:41:02.000Z</time>
      </trkpt>
      <trkpt lat="48.06024" lon="16.33248">
        <ele>212.891031</ele>
        <time>2026-07-07T09:41:03.000Z</time>
      </trkpt>
      <trkpt lat="48.0602" lon="16.33243">
        <ele>212.905538</ele>
        <time>2026-07-07T09:41:04.000Z</time>
      </trkpt>
      <trkpt lat="48.06017" lon="16.33237">
        <ele>212.905562</ele>
        <time>2026-07-07T09:41:05.000Z</time>
      </trkpt>
      <trkpt lat="48.06013" lon="16.33232">
        <ele>212.901881</ele>
        <time>2026-07-07T09:41:06.000Z</time>
      </trkpt>
      <trkpt lat="48.0601" lon="16.33227">
        <ele>212.898253</ele>
        <time>2026-07-07T09:41:07.000Z</time>
      </trkpt>
      <trkpt lat="48.06007" lon="16.33221">
        <ele>212.894448</ele>
        <time>2026-07-07T09:41:08.000Z</time>
      </trkpt>
      <trkpt lat="48.06004" lon="16.33215">
        <ele>212.890734</ele>
        <time>2026-07-07T09:41:09.000Z</time>
      </trkpt>
      <trkpt lat="48.06001" lon="16.33209">
        <ele>212.887027</ele>
        <time>2026-07-07T09:41:10.000Z</time>
      </trkpt>
      <trkpt lat="48.05998" lon="16.33203">
        <ele>212.883314</ele>
        <time>2026-07-07T09:41:11.000Z</time>
      </trkpt>
      <trkpt lat="48.05996" lon="16.33197">
        <ele>212.879643</ele>
        <time>2026-07-07T09:41:12.000Z</time>
      </trkpt>
      <trkpt lat="48.05993" lon="16.3319">
        <ele>212.875894</ele>
        <time>2026-07-07T09:41:13.000Z</time>
      </trkpt>
      <trkpt lat="48.0599" lon="16.33184">
        <ele>212.87218</ele>
        <time>2026-07-07T09:41:14.000Z</time>
      </trkpt>
      <trkpt lat="48.05987" lon="16.33179">
        <ele>212.868585</ele>
        <time>2026-07-07T09:41:15.000Z</time>
      </trkpt>
      <trkpt lat="48.05984" lon="16.33173">
        <ele>212.864882</ele>
        <time>2026-07-07T09:41:16.000Z</time>
      </trkpt>
      <trkpt lat="48.0598" lon="16.33168">
        <ele>212.861165</ele>
        <time>2026-07-07T09:41:17.000Z</time>
      </trkpt>
      <trkpt lat="48.05977" lon="16.33162">
        <ele>212.857463</ele>
        <time>2026-07-07T09:41:18.000Z</time>
      </trkpt>
      <trkpt lat="48.05974" lon="16.33157">
        <ele>212.853723</ele>
        <time>2026-07-07T09:41:19.000Z</time>
      </trkpt>
      <trkpt lat="48.0597" lon="16.33151">
        <ele>212.849813</ele>
        <time>2026-07-07T09:41:20.000Z</time>
      </trkpt>
      <trkpt lat="48.05966" lon="16.33146">
        <ele>212.845904</ele>
        <time>2026-07-07T09:41:21.000Z</time>
      </trkpt>
      <trkpt lat="48.05963" lon="16.3314">
        <ele>212.842099</ele>
        <time>2026-07-07T09:41:22.000Z</time>
      </trkpt>
      <trkpt lat="48.05959" lon="16.33135">
        <ele>212.838171</ele>
        <time>2026-07-07T09:41:23.000Z</time>
      </trkpt>
      <trkpt lat="48.05956" lon="16.33129">
        <ele>212.834261</ele>
        <time>2026-07-07T09:41:24.000Z</time>
      </trkpt>
      <trkpt lat="48.05952" lon="16.33124">
        <ele>212.830457</ele>
        <time>2026-07-07T09:41:25.000Z</time>
      </trkpt>
      <trkpt lat="48.05949" lon="16.33118">
        <ele>212.826652</ele>
        <time>2026-07-07T09:41:26.000Z</time>
      </trkpt>
      <trkpt lat="48.05945" lon="16.33113">
        <ele>212.822848</ele>
        <time>2026-07-07T09:41:27.000Z</time>
      </trkpt>
      <trkpt lat="48.05942" lon="16.33107">
        <ele>212.81897</ele>
        <time>2026-07-07T09:41:28.000Z</time>
      </trkpt>
      <trkpt lat="48.05938" lon="16.33101">
        <ele>212.815055</ele>
        <time>2026-07-07T09:41:29.000Z</time>
      </trkpt>
      <trkpt lat="48.05934" lon="16.33096">
        <ele>212.811146</ele>
        <time>2026-07-07T09:41:30.000Z</time>
      </trkpt>
      <trkpt lat="48.05931" lon="16.3309">
        <ele>212.807289</ele>
        <time>2026-07-07T09:41:31.000Z</time>
      </trkpt>
      <trkpt lat="48.05927" lon="16.33085">
        <ele>212.80345</ele>
        <time>2026-07-07T09:41:32.000Z</time>
      </trkpt>
      <trkpt lat="48.05923" lon="16.33079">
        <ele>212.799469</ele>
        <time>2026-07-07T09:41:33.000Z</time>
      </trkpt>
      <trkpt lat="48.0592" lon="16.33074">
        <ele>212.795665</ele>
        <time>2026-07-07T09:41:34.000Z</time>
      </trkpt>
      <trkpt lat="48.05916" lon="16.33068">
        <ele>212.791787</ele>
        <time>2026-07-07T09:41:35.000Z</time>
      </trkpt>
      <trkpt lat="48.05913" lon="16.33062">
        <ele>212.788084</ele>
        <time>2026-07-07T09:41:36.000Z</time>
      </trkpt>
      <trkpt lat="48.0591" lon="16.33057">
        <ele>212.784528</ele>
        <time>2026-07-07T09:41:37.000Z</time>
      </trkpt>
      <trkpt lat="48.05907" lon="16.33051">
        <ele>212.780825</ele>
        <time>2026-07-07T09:41:38.000Z</time>
      </trkpt>
      <trkpt lat="48.05903" lon="16.33046">
        <ele>212.77696</ele>
        <time>2026-07-07T09:41:39.000Z</time>
      </trkpt>
      <trkpt lat="48.059" lon="16.3304">
        <ele>212.777512</ele>
        <time>2026-07-07T09:41:40.000Z</time>
      </trkpt>
      <trkpt lat="48.05896" lon="16.33035">
        <ele>212.803999</ele>
        <time>2026-07-07T09:41:41.000Z</time>
      </trkpt>
      <trkpt lat="48.05892" lon="16.3303">
        <ele>212.831463</ele>
        <time>2026-07-07T09:41:42.000Z</time>
      </trkpt>
      <trkpt lat="48.05888" lon="16.33024">
        <ele>212.857891</ele>
        <time>2026-07-07T09:41:43.000Z</time>
      </trkpt>
      <trkpt lat="48.05884" lon="16.33018">
        <ele>212.884678</ele>
        <time>2026-07-07T09:41:44.000Z</time>
      </trkpt>
      <trkpt lat="48.05881" lon="16.33012">
        <ele>212.911033</ele>
        <time>2026-07-07T09:41:45.000Z</time>
      </trkpt>
      <trkpt lat="48.05877" lon="16.33006">
        <ele>212.937639</ele>
        <time>2026-07-07T09:41:46.000Z</time>
      </trkpt>
      <trkpt lat="48.05874" lon="16.33001">
        <ele>212.963086</ele>
        <time>2026-07-07T09:41:47.000Z</time>
      </trkpt>
      <trkpt lat="48.0587" lon="16.32995">
        <ele>212.989693</ele>
        <time>2026-07-07T09:41:48.000Z</time>
      </trkpt>
      <trkpt lat="48.05867" lon="16.32988">
        <ele>213.015863</ele>
        <time>2026-07-07T09:41:49.000Z</time>
      </trkpt>
      <trkpt lat="48.05864" lon="16.32982">
        <ele>213.042299</ele>
        <time>2026-07-07T09:41:50.000Z</time>
      </trkpt>
      <trkpt lat="48.05861" lon="16.32975">
        <ele>213.06952</ele>
        <time>2026-07-07T09:41:51.000Z</time>
      </trkpt>
      <trkpt lat="48.05858" lon="16.32968">
        <ele>213.096488</ele>
        <time>2026-07-07T09:41:52.000Z</time>
      </trkpt>
      <trkpt lat="48.05855" lon="16.32961">
        <ele>213.12403</ele>
        <time>2026-07-07T09:41:53.000Z</time>
      </trkpt>
      <trkpt lat="48.05853" lon="16.32954">
        <ele>213.151509</ele>
        <time>2026-07-07T09:41:54.000Z</time>
      </trkpt>
      <trkpt lat="48.05851" lon="16.32946">
        <ele>213.178487</ele>
        <time>2026-07-07T09:41:55.000Z</time>
      </trkpt>
      <trkpt lat="48.05849" lon="16.32939">
        <ele>213.205107</ele>
        <time>2026-07-07T09:41:56.000Z</time>
      </trkpt>
      <trkpt lat="48.05848" lon="16.32931">
        <ele>213.231566</ele>
        <time>2026-07-07T09:41:57.000Z</time>
      </trkpt>
      <trkpt lat="48.05846" lon="16.32924">
        <ele>213.258361</ele>
        <time>2026-07-07T09:41:58.000Z</time>
      </trkpt>
      <trkpt lat="48.05845" lon="16.32916">
        <ele>213.2836</ele>
        <time>2026-07-07T09:41:59.000Z</time>
      </trkpt>
      <trkpt lat="48.05843" lon="16.32909">
        <ele>213.309435</ele>
        <time>2026-07-07T09:42:00.000Z</time>
      </trkpt>
      <trkpt lat="48.05842" lon="16.32901">
        <ele>213.335773</ele>
        <time>2026-07-07T09:42:01.000Z</time>
      </trkpt>
      <trkpt lat="48.0584" lon="16.32894">
        <ele>213.361927</ele>
        <time>2026-07-07T09:42:02.000Z</time>
      </trkpt>
      <trkpt lat="48.05839" lon="16.32886">
        <ele>213.388867</ele>
        <time>2026-07-07T09:42:03.000Z</time>
      </trkpt>
      <trkpt lat="48.05837" lon="16.32879">
        <ele>213.415325</ele>
        <time>2026-07-07T09:42:04.000Z</time>
      </trkpt>
      <trkpt lat="48.05835" lon="16.32871">
        <ele>213.441948</ele>
        <time>2026-07-07T09:42:05.000Z</time>
      </trkpt>
      <trkpt lat="48.05834" lon="16.32863">
        <ele>213.468744</ele>
        <time>2026-07-07T09:42:06.000Z</time>
      </trkpt>
      <trkpt lat="48.05832" lon="16.32856">
        <ele>213.495726</ele>
        <time>2026-07-07T09:42:07.000Z</time>
      </trkpt>
      <trkpt lat="48.05831" lon="16.32848">
        <ele>213.522842</ele>
        <time>2026-07-07T09:42:08.000Z</time>
      </trkpt>
      <trkpt lat="48.05829" lon="16.3284">
        <ele>213.55028</ele>
        <time>2026-07-07T09:42:09.000Z</time>
      </trkpt>
      <trkpt lat="48.05828" lon="16.32832">
        <ele>213.577538</ele>
        <time>2026-07-07T09:42:10.000Z</time>
      </trkpt>
      <trkpt lat="48.05826" lon="16.32824">
        <ele>213.604948</ele>
        <time>2026-07-07T09:42:11.000Z</time>
      </trkpt>
      <trkpt lat="48.05824" lon="16.32817">
        <ele>213.63204</ele>
        <time>2026-07-07T09:42:13.000Z</time>
      </trkpt>
      <trkpt lat="48.05823" lon="16.32809">
        <ele>213.659156</ele>
        <time>2026-07-07T09:42:14.000Z</time>
      </trkpt>
      <trkpt lat="48.05821" lon="16.32801">
        <ele>213.682269</ele>
        <time>2026-07-07T09:42:15.000Z</time>
      </trkpt>
      <trkpt lat="48.0582" lon="16.32793">
        <ele>213.701594</ele>
        <time>2026-07-07T09:42:16.000Z</time>
      </trkpt>
      <trkpt lat="48.05818" lon="16.32786">
        <ele>213.720688</ele>
        <time>2026-07-07T09:42:17.000Z</time>
      </trkpt>
      <trkpt lat="48.05817" lon="16.32778">
        <ele>213.739551</ele>
        <time>2026-07-07T09:42:18.000Z</time>
      </trkpt>
      <trkpt lat="48.05815" lon="16.32771">
        <ele>213.75852</ele>
        <time>2026-07-07T09:42:19.000Z</time>
      </trkpt>
      <trkpt lat="48.05814" lon="16.32763">
        <ele>213.777383</ele>
        <time>2026-07-07T09:42:20.000Z</time>
      </trkpt>
      <trkpt lat="48.05812" lon="16.32756">
        <ele>213.796465</ele>
        <time>2026-07-07T09:42:21.000Z</time>
      </trkpt>
      <trkpt lat="48.0581" lon="16.32748">
        <ele>213.815547</ele>
        <time>2026-07-07T09:42:22.000Z</time>
      </trkpt>
      <trkpt lat="48.05809" lon="16.32741">
        <ele>213.834288</ele>
        <time>2026-07-07T09:42:23.000Z</time>
      </trkpt>
      <trkpt lat="48.05807" lon="16.32734">
        <ele>213.852689</ele>
        <time>2026-07-07T09:42:24.000Z</time>
      </trkpt>
      <trkpt lat="48.05806" lon="16.32726">
        <ele>213.871091</ele>
        <time>2026-07-07T09:42:25.000Z</time>
      </trkpt>
      <trkpt lat="48.05804" lon="16.32719">
        <ele>213.889954</ele>
        <time>2026-07-07T09:42:26.000Z</time>
      </trkpt>
      <trkpt lat="48.05803" lon="16.32711">
        <ele>213.908586</ele>
        <time>2026-07-07T09:42:27.000Z</time>
      </trkpt>
      <trkpt lat="48.05801" lon="16.32704">
        <ele>213.926988</ele>
        <time>2026-07-07T09:42:28.000Z</time>
      </trkpt>
      <trkpt lat="48.058" lon="16.32697">
        <ele>213.945851</ele>
        <time>2026-07-07T09:42:29.000Z</time>
      </trkpt>
      <trkpt lat="48.05798" lon="16.32689">
        <ele>213.964714</ele>
        <time>2026-07-07T09:42:30.000Z</time>
      </trkpt>
      <trkpt lat="48.05797" lon="16.32682">
        <ele>213.982886</ele>
        <time>2026-07-07T09:42:31.000Z</time>
      </trkpt>
      <trkpt lat="48.05795" lon="16.32675">
        <ele>214.001058</ele>
        <time>2026-07-07T09:42:32.000Z</time>
      </trkpt>
      <trkpt lat="48.05793" lon="16.32667">
        <ele>214.02014</ele>
        <time>2026-07-07T09:42:33.000Z</time>
      </trkpt>
      <trkpt lat="48.05792" lon="16.3266">
        <ele>214.03911</ele>
        <time>2026-07-07T09:42:34.000Z</time>
      </trkpt>
      <trkpt lat="48.0579" lon="16.32652">
        <ele>214.058649</ele>
        <time>2026-07-07T09:42:35.000Z</time>
      </trkpt>
      <trkpt lat="48.05789" lon="16.32645">
        <ele>214.077512</ele>
        <time>2026-07-07T09:42:36.000Z</time>
      </trkpt>
      <trkpt lat="48.05787" lon="16.32637">
        <ele>214.097051</ele>
        <time>2026-07-07T09:42:37.000Z</time>
      </trkpt>
      <trkpt lat="48.05786" lon="16.32629">
        <ele>214.11572</ele>
        <time>2026-07-07T09:42:38.000Z</time>
      </trkpt>
      <trkpt lat="48.05784" lon="16.32622">
        <ele>214.13509</ele>
        <time>2026-07-07T09:42:39.000Z</time>
      </trkpt>
      <trkpt lat="48.05783" lon="16.32614">
        <ele>214.153853</ele>
        <time>2026-07-07T09:42:40.000Z</time>
      </trkpt>
      <trkpt lat="48.05782" lon="16.32606">
        <ele>214.172825</ele>
        <time>2026-07-07T09:42:41.000Z</time>
      </trkpt>
      <trkpt lat="48.0578" lon="16.32599">
        <ele>214.191919</ele>
        <time>2026-07-07T09:42:42.000Z</time>
      </trkpt>
      <trkpt lat="48.05779" lon="16.32591">
        <ele>214.211708</ele>
        <time>2026-07-07T09:42:43.000Z</time>
      </trkpt>
      <trkpt lat="48.05777" lon="16.32583">
        <ele>214.230703</ele>
        <time>2026-07-07T09:42:44.000Z</time>
      </trkpt>
      <trkpt lat="48.05776" lon="16.32576">
        <ele>214.250028</ele>
        <time>2026-07-07T09:42:45.000Z</time>
      </trkpt>
      <trkpt lat="48.05775" lon="16.32568">
        <ele>214.268529</ele>
        <time>2026-07-07T09:42:46.000Z</time>
      </trkpt>
      <trkpt lat="48.05773" lon="16.3256">
        <ele>214.288086</ele>
        <time>2026-07-07T09:42:47.000Z</time>
      </trkpt>
      <trkpt lat="48.05772" lon="16.32552">
        <ele>214.307779</ele>
        <time>2026-07-07T09:42:48.000Z</time>
      </trkpt>
      <trkpt lat="48.0577" lon="16.32545">
        <ele>214.328905</ele>
        <time>2026-07-07T09:42:49.000Z</time>
      </trkpt>
      <trkpt lat="48.05769" lon="16.32537">
        <ele>214.355096</ele>
        <time>2026-07-07T09:42:50.000Z</time>
      </trkpt>
      <trkpt lat="48.05767" lon="16.3253">
        <ele>214.380661</ele>
        <time>2026-07-07T09:42:51.000Z</time>
      </trkpt>
      <trkpt lat="48.05766" lon="16.32522">
        <ele>214.406851</ele>
        <time>2026-07-07T09:42:52.000Z</time>
      </trkpt>
      <trkpt lat="48.05764" lon="16.32514">
        <ele>214.433356</ele>
        <time>2026-07-07T09:42:53.000Z</time>
      </trkpt>
      <trkpt lat="48.05763" lon="16.32506">
        <ele>214.459607</ele>
        <time>2026-07-07T09:42:54.000Z</time>
      </trkpt>
      <trkpt lat="48.05762" lon="16.32498">
        <ele>214.486175</ele>
        <time>2026-07-07T09:42:55.000Z</time>
      </trkpt>
      <trkpt lat="48.0576" lon="16.32491">
        <ele>214.51268</ele>
        <time>2026-07-07T09:42:56.000Z</time>
      </trkpt>
      <trkpt lat="48.05759" lon="16.32483">
        <ele>214.539054</ele>
        <time>2026-07-07T09:42:57.000Z</time>
      </trkpt>
      <trkpt lat="48.05758" lon="16.32475">
        <ele>214.565725</ele>
        <time>2026-07-07T09:42:58.000Z</time>
      </trkpt>
      <trkpt lat="48.05757" lon="16.32467">
        <ele>214.592302</ele>
        <time>2026-07-07T09:42:59.000Z</time>
      </trkpt>
      <trkpt lat="48.05756" lon="16.32459">
        <ele>214.618541</ele>
        <time>2026-07-07T09:43:00.000Z</time>
      </trkpt>
      <trkpt lat="48.05756" lon="16.32451">
        <ele>214.644665</ele>
        <time>2026-07-07T09:43:01.000Z</time>
      </trkpt>
      <trkpt lat="48.05756" lon="16.32443">
        <ele>214.670463</ele>
        <time>2026-07-07T09:43:02.000Z</time>
      </trkpt>
      <trkpt lat="48.05756" lon="16.32435">
        <ele>214.6953</ele>
        <time>2026-07-07T09:43:03.000Z</time>
      </trkpt>
      <trkpt lat="48.05756" lon="16.32428">
        <ele>214.719836</ele>
        <time>2026-07-07T09:43:04.000Z</time>
      </trkpt>
      <trkpt lat="48.05757" lon="16.3242">
        <ele>214.74402</ele>
        <time>2026-07-07T09:43:05.000Z</time>
      </trkpt>
      <trkpt lat="48.05757" lon="16.32414">
        <ele>214.76636</ele>
        <time>2026-07-07T09:43:06.000Z</time>
      </trkpt>
      <trkpt lat="48.05757" lon="16.32407">
        <ele>214.788614</ele>
        <time>2026-07-07T09:43:07.000Z</time>
      </trkpt>
      <trkpt lat="48.05758" lon="16.324">
        <ele>214.809536</ele>
        <time>2026-07-07T09:43:08.000Z</time>
      </trkpt>
      <trkpt lat="48.05758" lon="16.32394">
        <ele>214.829154</ele>
        <time>2026-07-07T09:43:09.000Z</time>
      </trkpt>
      <trkpt lat="48.05758" lon="16.32389">
        <ele>214.848094</ele>
        <time>2026-07-07T09:43:10.000Z</time>
      </trkpt>
      <trkpt lat="48.05758" lon="16.32383">
        <ele>214.865429</ele>
        <time>2026-07-07T09:43:11.000Z</time>
      </trkpt>
      <trkpt lat="48.05758" lon="16.32378">
        <ele>214.882438</ele>
        <time>2026-07-07T09:43:12.000Z</time>
      </trkpt>
      <trkpt lat="48.05759" lon="16.32374">
        <ele>214.897553</ele>
        <time>2026-07-07T09:43:13.000Z</time>
      </trkpt>
      <trkpt lat="48.05761" lon="16.32371">
        <ele>214.911637</ele>
        <time>2026-07-07T09:43:14.000Z</time>
      </trkpt>
      <trkpt lat="48.05764" lon="16.3237">
        <ele>214.926586</ele>
        <time>2026-07-07T09:43:15.000Z</time>
      </trkpt>
      <trkpt lat="48.05768" lon="16.32371">
        <ele>214.94471</ele>
        <time>2026-07-07T09:43:16.000Z</time>
      </trkpt>
      <trkpt lat="48.05772" lon="16.32372">
        <ele>214.964427</ele>
        <time>2026-07-07T09:43:17.000Z</time>
      </trkpt>
      <trkpt lat="48.05776" lon="16.32373">
        <ele>214.984241</ele>
        <time>2026-07-07T09:43:18.000Z</time>
      </trkpt>
      <trkpt lat="48.0578" lon="16.32374">
        <ele>215.004173</ele>
        <time>2026-07-07T09:43:19.000Z</time>
      </trkpt>
      <trkpt lat="48.05784" lon="16.32375">
        <ele>215.024951</ele>
        <time>2026-07-07T09:43:20.000Z</time>
      </trkpt>
      <trkpt lat="48.05793" lon="16.32376">
        <ele>215.069531</ele>
        <time>2026-07-07T09:43:21.000Z</time>
      </trkpt>
      <trkpt lat="48.05798" lon="16.32376">
        <ele>215.092515</ele>
        <time>2026-07-07T09:43:22.000Z</time>
      </trkpt>
      <trkpt lat="48.05803" lon="16.32376">
        <ele>215.115487</ele>
        <time>2026-07-07T09:43:23.000Z</time>
      </trkpt>
      <trkpt lat="48.05807" lon="16.32376">
        <ele>215.137961</ele>
        <time>2026-07-07T09:43:24.000Z</time>
      </trkpt>
      <trkpt lat="48.05812" lon="16.32376">
        <ele>215.160924</ele>
        <time>2026-07-07T09:43:25.000Z</time>
      </trkpt>
      <trkpt lat="48.05816" lon="16.32376">
        <ele>215.181956</ele>
        <time>2026-07-07T09:43:26.000Z</time>
      </trkpt>
      <trkpt lat="48.0582" lon="16.32375">
        <ele>215.198224</ele>
        <time>2026-07-07T09:43:27.000Z</time>
      </trkpt>
      <trkpt lat="48.05825" lon="16.32374">
        <ele>215.176765</ele>
        <time>2026-07-07T09:43:28.000Z</time>
      </trkpt>
      <trkpt lat="48.05829" lon="16.32372">
        <ele>215.155689</ele>
        <time>2026-07-07T09:43:29.000Z</time>
      </trkpt>
      <trkpt lat="48.05833" lon="16.3237">
        <ele>215.13345</ele>
        <time>2026-07-07T09:43:30.000Z</time>
      </trkpt>
      <trkpt lat="48.05837" lon="16.32368">
        <ele>215.111704</ele>
        <time>2026-07-07T09:43:31.000Z</time>
      </trkpt>
      <trkpt lat="48.05841" lon="16.32365">
        <ele>215.089699</ele>
        <time>2026-07-07T09:43:32.000Z</time>
      </trkpt>
      <trkpt lat="48.05845" lon="16.32363">
        <ele>215.067939</ele>
        <time>2026-07-07T09:43:33.000Z</time>
      </trkpt>
      <trkpt lat="48.05849" lon="16.32361">
        <ele>215.046764</ele>
        <time>2026-07-07T09:43:34.000Z</time>
      </trkpt>
      <trkpt lat="48.05853" lon="16.32358">
        <ele>215.024034</ele>
        <time>2026-07-07T09:43:35.000Z</time>
      </trkpt>
      <trkpt lat="48.05856" lon="16.32354">
        <ele>215.001408</ele>
        <time>2026-07-07T09:43:36.000Z</time>
      </trkpt>
      <trkpt lat="48.05858" lon="16.32348">
        <ele>214.979697</ele>
        <time>2026-07-07T09:43:37.000Z</time>
      </trkpt>
      <trkpt lat="48.05859" lon="16.32341">
        <ele>214.956956</ele>
        <time>2026-07-07T09:43:38.000Z</time>
      </trkpt>
      <trkpt lat="48.05859" lon="16.32335">
        <ele>214.934692</ele>
        <time>2026-07-07T09:43:39.000Z</time>
      </trkpt>
      <trkpt lat="48.05859" lon="16.32328">
        <ele>214.91108</ele>
        <time>2026-07-07T09:43:40.000Z</time>
      </trkpt>
      <trkpt lat="48.05859" lon="16.3232">
        <ele>214.885996</ele>
        <time>2026-07-07T09:43:41.000Z</time>
      </trkpt>
      <trkpt lat="48.05858" lon="16.32313">
        <ele>214.859614</ele>
        <time>2026-07-07T09:43:42.000Z</time>
      </trkpt>
      <trkpt lat="48.05858" lon="16.32305">
        <ele>214.83263</ele>
        <time>2026-07-07T09:43:43.000Z</time>
      </trkpt>
      <trkpt lat="48.05859" lon="16.32296">
        <ele>214.803805</ele>
        <time>2026-07-07T09:43:44.000Z</time>
      </trkpt>
      <trkpt lat="48.0586" lon="16.32288">
        <ele>214.775263</ele>
        <time>2026-07-07T09:43:45.000Z</time>
      </trkpt>
      <trkpt lat="48.05862" lon="16.3228">
        <ele>214.745964</ele>
        <time>2026-07-07T09:43:46.000Z</time>
      </trkpt>
      <trkpt lat="48.05865" lon="16.32272">
        <ele>214.715136</ele>
        <time>2026-07-07T09:43:47.000Z</time>
      </trkpt>
      <trkpt lat="48.05868" lon="16.32264">
        <ele>214.685353</ele>
        <time>2026-07-07T09:43:48.000Z</time>
      </trkpt>
      <trkpt lat="48.0587" lon="16.32255">
        <ele>214.655555</ele>
        <time>2026-07-07T09:43:49.000Z</time>
      </trkpt>
      <trkpt lat="48.05872" lon="16.32247">
        <ele>214.626434</ele>
        <time>2026-07-07T09:43:50.000Z</time>
      </trkpt>
      <trkpt lat="48.05874" lon="16.3224">
        <ele>214.597991</ele>
        <time>2026-07-07T09:43:51.000Z</time>
      </trkpt>
      <trkpt lat="48.05876" lon="16.32232">
        <ele>214.571384</ele>
        <time>2026-07-07T09:43:52.000Z</time>
      </trkpt>
      <trkpt lat="48.05878" lon="16.32225">
        <ele>214.546021</ele>
        <time>2026-07-07T09:43:53.000Z</time>
      </trkpt>
      <trkpt lat="48.0588" lon="16.32219">
        <ele>214.521355</ele>
        <time>2026-07-07T09:43:54.000Z</time>
      </trkpt>
      <trkpt lat="48.05882" lon="16.32212">
        <ele>214.496609</ele>
        <time>2026-07-07T09:43:55.000Z</time>
      </trkpt>
      <trkpt lat="48.05884" lon="16.32205">
        <ele>214.47127</ele>
        <time>2026-07-07T09:43:56.000Z</time>
      </trkpt>
      <trkpt lat="48.05886" lon="16.32198">
        <ele>214.445702</ele>
        <time>2026-07-07T09:43:57.000Z</time>
      </trkpt>
      <trkpt lat="48.05889" lon="16.32192">
        <ele>214.420224</ele>
        <time>2026-07-07T09:43:58.000Z</time>
      </trkpt>
      <trkpt lat="48.0589" lon="16.32185">
        <ele>214.39493</ele>
        <time>2026-07-07T09:43:59.000Z</time>
      </trkpt>
      <trkpt lat="48.05892" lon="16.32178">
        <ele>214.370446</ele>
        <time>2026-07-07T09:44:00.000Z</time>
      </trkpt>
      <trkpt lat="48.05894" lon="16.32171">
        <ele>214.347574</ele>
        <time>2026-07-07T09:44:01.000Z</time>
      </trkpt>
      <trkpt lat="48.05894" lon="16.32165">
        <ele>214.325285</ele>
        <time>2026-07-07T09:44:02.000Z</time>
      </trkpt>
      <trkpt lat="48.05894" lon="16.32158">
        <ele>214.30163</ele>
        <time>2026-07-07T09:44:03.000Z</time>
      </trkpt>
      <trkpt lat="48.05893" lon="16.32151">
        <ele>214.289732</ele>
        <time>2026-07-07T09:44:04.000Z</time>
      </trkpt>
      <trkpt lat="48.0589" lon="16.32146">
        <ele>214.285196</ele>
        <time>2026-07-07T09:44:05.000Z</time>
      </trkpt>
      <trkpt lat="48.05885" lon="16.32141">
        <ele>214.28047</ele>
        <time>2026-07-07T09:44:06.000Z</time>
      </trkpt>
      <trkpt lat="48.05881" lon="16.32138">
        <ele>214.275528</ele>
        <time>2026-07-07T09:44:07.000Z</time>
      </trkpt>
      <trkpt lat="48.05875" lon="16.32135">
        <ele>214.270315</ele>
        <time>2026-07-07T09:44:08.000Z</time>
      </trkpt>
      <trkpt lat="48.0587" lon="16.32132">
        <ele>214.265342</ele>
        <time>2026-07-07T09:44:09.000Z</time>
      </trkpt>
      <trkpt lat="48.05865" lon="16.3213">
        <ele>214.260261</ele>
        <time>2026-07-07T09:44:10.000Z</time>
      </trkpt>
      <trkpt lat="48.0586" lon="16.32126">
        <ele>214.255097</ele>
        <time>2026-07-07T09:44:11.000Z</time>
      </trkpt>
      <trkpt lat="48.05855" lon="16.32123">
        <ele>214.250017</ele>
        <time>2026-07-07T09:44:12.000Z</time>
      </trkpt>
      <trkpt lat="48.0585" lon="16.32119">
        <ele>214.24482</ele>
        <time>2026-07-07T09:44:13.000Z</time>
      </trkpt>
      <trkpt lat="48.05845" lon="16.32116">
        <ele>214.239431</ele>
        <time>2026-07-07T09:44:14.000Z</time>
      </trkpt>
      <trkpt lat="48.0584" lon="16.32113">
        <ele>214.234085</ele>
        <time>2026-07-07T09:44:15.000Z</time>
      </trkpt>
      <trkpt lat="48.05834" lon="16.3211">
        <ele>214.228751</ele>
        <time>2026-07-07T09:44:16.000Z</time>
      </trkpt>
      <trkpt lat="48.05829" lon="16.32105">
        <ele>214.223212</ele>
        <time>2026-07-07T09:44:17.000Z</time>
      </trkpt>
      <trkpt lat="48.05825" lon="16.321">
        <ele>214.217777</ele>
        <time>2026-07-07T09:44:18.000Z</time>
      </trkpt>
      <trkpt lat="48.05821" lon="16.32092">
        <ele>214.212265</ele>
        <time>2026-07-07T09:44:19.000Z</time>
      </trkpt>
      <trkpt lat="48.05819" lon="16.32084">
        <ele>214.206716</ele>
        <time>2026-07-07T09:44:20.000Z</time>
      </trkpt>
      <trkpt lat="48.05818" lon="16.32076">
        <ele>214.201406</ele>
        <time>2026-07-07T09:44:21.000Z</time>
      </trkpt>
      <trkpt lat="48.05817" lon="16.32068">
        <ele>214.196225</ele>
        <time>2026-07-07T09:44:22.000Z</time>
      </trkpt>
      <trkpt lat="48.05816" lon="16.3206">
        <ele>214.19145</ele>
        <time>2026-07-07T09:44:23.000Z</time>
      </trkpt>
      <trkpt lat="48.05813" lon="16.32054">
        <ele>214.186652</ele>
        <time>2026-07-07T09:44:24.000Z</time>
      </trkpt>
      <trkpt lat="48.05811" lon="16.32047">
        <ele>214.182331</ele>
        <time>2026-07-07T09:44:25.000Z</time>
      </trkpt>
      <trkpt lat="48.0581" lon="16.32041">
        <ele>214.178059</ele>
        <time>2026-07-07T09:44:26.000Z</time>
      </trkpt>
      <trkpt lat="48.05808" lon="16.32035">
        <ele>214.173984</ele>
        <time>2026-07-07T09:44:27.000Z</time>
      </trkpt>
      <trkpt lat="48.05806" lon="16.32029">
        <ele>214.170024</ele>
        <time>2026-07-07T09:44:28.000Z</time>
      </trkpt>
      <trkpt lat="48.05805" lon="16.32023">
        <ele>214.166019</ele>
        <time>2026-07-07T09:44:29.000Z</time>
      </trkpt>
      <trkpt lat="48.05804" lon="16.32017">
        <ele>214.161897</ele>
        <time>2026-07-07T09:44:30.000Z</time>
      </trkpt>
      <trkpt lat="48.05802" lon="16.3201">
        <ele>214.157681</ele>
        <time>2026-07-07T09:44:31.000Z</time>
      </trkpt>
      <trkpt lat="48.05801" lon="16.32004">
        <ele>214.153381</ele>
        <time>2026-07-07T09:44:32.000Z</time>
      </trkpt>
      <trkpt lat="48.05799" lon="16.31997">
        <ele>214.148982</ele>
        <time>2026-07-07T09:44:33.000Z</time>
      </trkpt>
      <trkpt lat="48.05797" lon="16.31991">
        <ele>214.144678</ele>
        <time>2026-07-07T09:44:34.000Z</time>
      </trkpt>
      <trkpt lat="48.05795" lon="16.31985">
        <ele>214.140373</ele>
        <time>2026-07-07T09:44:35.000Z</time>
      </trkpt>
      <trkpt lat="48.05793" lon="16.31979">
        <ele>214.136125</ele>
        <time>2026-07-07T09:44:36.000Z</time>
      </trkpt>
      <trkpt lat="48.05791" lon="16.31972">
        <ele>214.131784</ele>
        <time>2026-07-07T09:44:37.000Z</time>
      </trkpt>
      <trkpt lat="48.05789" lon="16.31967">
        <ele>214.127745</ele>
        <time>2026-07-07T09:44:38.000Z</time>
      </trkpt>
      <trkpt lat="48.05787" lon="16.31961">
        <ele>214.123101</ele>
        <time>2026-07-07T09:44:39.000Z</time>
      </trkpt>
      <trkpt lat="48.05785" lon="16.31954">
        <ele>214.112826</ele>
        <time>2026-07-07T09:44:40.000Z</time>
      </trkpt>
      <trkpt lat="48.05783" lon="16.31948">
        <ele>214.102421</ele>
        <time>2026-07-07T09:44:41.000Z</time>
      </trkpt>
      <trkpt lat="48.05781" lon="16.31941">
        <ele>214.091702</ele>
        <time>2026-07-07T09:44:42.000Z</time>
      </trkpt>
      <trkpt lat="48.05779" lon="16.31934">
        <ele>214.080684</ele>
        <time>2026-07-07T09:44:43.000Z</time>
      </trkpt>
      <trkpt lat="48.05776" lon="16.31928">
        <ele>214.069915</ele>
        <time>2026-07-07T09:44:44.000Z</time>
      </trkpt>
      <trkpt lat="48.05774" lon="16.31921">
        <ele>214.059355</ele>
        <time>2026-07-07T09:44:45.000Z</time>
      </trkpt>
      <trkpt lat="48.05772" lon="16.31915">
        <ele>214.049148</ele>
        <time>2026-07-07T09:44:46.000Z</time>
      </trkpt>
      <trkpt lat="48.05769" lon="16.31908">
        <ele>214.038333</ele>
        <time>2026-07-07T09:44:47.000Z</time>
      </trkpt>
      <trkpt lat="48.05767" lon="16.31902">
        <ele>214.027928</ele>
        <time>2026-07-07T09:44:48.000Z</time>
      </trkpt>
      <trkpt lat="48.05765" lon="16.31895">
        <ele>214.017466</ele>
        <time>2026-07-07T09:44:49.000Z</time>
      </trkpt>
      <trkpt lat="48.05763" lon="16.31889">
        <ele>214.007032</ele>
        <time>2026-07-07T09:44:50.000Z</time>
      </trkpt>
      <trkpt lat="48.05761" lon="16.31883">
        <ele>213.997017</ele>
        <time>2026-07-07T09:44:51.000Z</time>
      </trkpt>
      <trkpt lat="48.05759" lon="16.31876">
        <ele>213.98683</ele>
        <time>2026-07-07T09:44:52.000Z</time>
      </trkpt>
      <trkpt lat="48.05757" lon="16.3187">
        <ele>213.976555</ele>
        <time>2026-07-07T09:44:53.000Z</time>
      </trkpt>
      <trkpt lat="48.05755" lon="16.31863">
        <ele>213.966541</ele>
        <time>2026-07-07T09:44:54.000Z</time>
      </trkpt>
      <trkpt lat="48.05753" lon="16.31857">
        <ele>213.956594</ele>
        <time>2026-07-07T09:44:55.000Z</time>
      </trkpt>
      <trkpt lat="48.05752" lon="16.3185">
        <ele>213.946856</ele>
        <time>2026-07-07T09:44:56.000Z</time>
      </trkpt>
      <trkpt lat="48.0575" lon="16.31845">
        <ele>213.937762</ele>
        <time>2026-07-07T09:44:57.000Z</time>
      </trkpt>
      <trkpt lat="48.05749" lon="16.31839">
        <ele>213.929114</ele>
        <time>2026-07-07T09:44:58.000Z</time>
      </trkpt>
      <trkpt lat="48.05748" lon="16.31834">
        <ele>213.921895</ele>
        <time>2026-07-07T09:44:59.000Z</time>
      </trkpt>
      <trkpt lat="48.05746" lon="16.31829">
        <ele>213.914111</ele>
        <time>2026-07-07T09:45:00.000Z</time>
      </trkpt>
      <trkpt lat="48.05745" lon="16.31824">
        <ele>213.905846</ele>
        <time>2026-07-07T09:45:01.000Z</time>
      </trkpt>
      <trkpt lat="48.05743" lon="16.31818">
        <ele>213.896704</ele>
        <time>2026-07-07T09:45:02.000Z</time>
      </trkpt>
      <trkpt lat="48.05742" lon="16.31811">
        <ele>213.886681</ele>
        <time>2026-07-07T09:45:03.000Z</time>
      </trkpt>
      <trkpt lat="48.0574" lon="16.31804">
        <ele>213.87575</ele>
        <time>2026-07-07T09:45:04.000Z</time>
      </trkpt>
      <trkpt lat="48.05737" lon="16.31797">
        <ele>213.864162</ele>
        <time>2026-07-07T09:45:05.000Z</time>
      </trkpt>
      <trkpt lat="48.05735" lon="16.3179">
        <ele>213.852222</ele>
        <time>2026-07-07T09:45:06.000Z</time>
      </trkpt>
      <trkpt lat="48.05732" lon="16.31782">
        <ele>213.83993</ele>
        <time>2026-07-07T09:45:07.000Z</time>
      </trkpt>
      <trkpt lat="48.0573" lon="16.31774">
        <ele>213.827156</ele>
        <time>2026-07-07T09:45:08.000Z</time>
      </trkpt>
      <trkpt lat="48.05727" lon="16.31766">
        <ele>213.814543</ele>
        <time>2026-07-07T09:45:09.000Z</time>
      </trkpt>
      <trkpt lat="48.05724" lon="16.31758">
        <ele>213.801675</ele>
        <time>2026-07-07T09:45:10.000Z</time>
      </trkpt>
      <trkpt lat="48.05722" lon="16.3175">
        <ele>213.788961</ele>
        <time>2026-07-07T09:45:11.000Z</time>
      </trkpt>
      <trkpt lat="48.05719" lon="16.31742">
        <ele>213.775994</ele>
        <time>2026-07-07T09:45:12.000Z</time>
      </trkpt>
      <trkpt lat="48.05716" lon="16.31734">
        <ele>213.763254</ele>
        <time>2026-07-07T09:45:13.000Z</time>
      </trkpt>
      <trkpt lat="48.05714" lon="16.31726">
        <ele>213.750573</ele>
        <time>2026-07-07T09:45:14.000Z</time>
      </trkpt>
      <trkpt lat="48.05711" lon="16.31718">
        <ele>213.737915</ele>
        <time>2026-07-07T09:45:15.000Z</time>
      </trkpt>
      <trkpt lat="48.05708" lon="16.3171">
        <ele>213.750216</ele>
        <time>2026-07-07T09:45:16.000Z</time>
      </trkpt>
      <trkpt lat="48.05705" lon="16.31702">
        <ele>213.76295</ele>
        <time>2026-07-07T09:45:17.000Z</time>
      </trkpt>
      <trkpt lat="48.05702" lon="16.31694">
        <ele>213.775347</ele>
        <time>2026-07-07T09:45:18.000Z</time>
      </trkpt>
      <trkpt lat="48.057" lon="16.31686">
        <ele>213.787588</ele>
        <time>2026-07-07T09:45:19.000Z</time>
      </trkpt>
      <trkpt lat="48.05697" lon="16.31678">
        <ele>213.799985</ele>
        <time>2026-07-07T09:45:20.000Z</time>
      </trkpt>
      <trkpt lat="48.05694" lon="16.3167">
        <ele>213.812166</ele>
        <time>2026-07-07T09:45:21.000Z</time>
      </trkpt>
      <trkpt lat="48.05691" lon="16.31662">
        <ele>213.824189</ele>
        <time>2026-07-07T09:45:22.000Z</time>
      </trkpt>
      <trkpt lat="48.05689" lon="16.31655">
        <ele>213.835606</ele>
        <time>2026-07-07T09:45:23.000Z</time>
      </trkpt>
      <trkpt lat="48.05686" lon="16.31648">
        <ele>213.846059</ele>
        <time>2026-07-07T09:45:24.000Z</time>
      </trkpt>
      <trkpt lat="48.05683" lon="16.31643">
        <ele>213.854911</ele>
        <time>2026-07-07T09:45:25.000Z</time>
      </trkpt>
      <trkpt lat="48.0568" lon="16.31641">
        <ele>213.862467</ele>
        <time>2026-07-07T09:45:26.000Z</time>
      </trkpt>
      <trkpt lat="48.05677" lon="16.31639">
        <ele>213.868993</ele>
        <time>2026-07-07T09:45:27.000Z</time>
      </trkpt>
      <trkpt lat="48.05674" lon="16.31638">
        <ele>213.87575</ele>
        <time>2026-07-07T09:45:28.000Z</time>
      </trkpt>
      <trkpt lat="48.0567" lon="16.31635">
        <ele>213.883482</ele>
        <time>2026-07-07T09:45:29.000Z</time>
      </trkpt>
      <trkpt lat="48.05668" lon="16.3163">
        <ele>213.892133</ele>
        <time>2026-07-07T09:45:30.000Z</time>
      </trkpt>
      <trkpt lat="48.05666" lon="16.31624">
        <ele>213.90101</ele>
        <time>2026-07-07T09:45:31.000Z</time>
      </trkpt>
      <trkpt lat="48.05664" lon="16.31618">
        <ele>213.910446</ele>
        <time>2026-07-07T09:45:32.000Z</time>
      </trkpt>
      <trkpt lat="48.05662" lon="16.31611">
        <ele>213.920318</ele>
        <time>2026-07-07T09:45:33.000Z</time>
      </trkpt>
      <trkpt lat="48.0566" lon="16.31604">
        <ele>213.931034</ele>
        <time>2026-07-07T09:45:34.000Z</time>
      </trkpt>
      <trkpt lat="48.05657" lon="16.31597">
        <ele>213.942451</ele>
        <time>2026-07-07T09:45:35.000Z</time>
      </trkpt>
      <trkpt lat="48.05655" lon="16.31589">
        <ele>213.953868</ele>
        <time>2026-07-07T09:45:36.000Z</time>
      </trkpt>
      <trkpt lat="48.05652" lon="16.31582">
        <ele>213.965619</ele>
        <time>2026-07-07T09:45:37.000Z</time>
      </trkpt>
      <trkpt lat="48.0565" lon="16.31574">
        <ele>213.977224</ele>
        <time>2026-07-07T09:45:38.000Z</time>
      </trkpt>
      <trkpt lat="48.05647" lon="16.31566">
        <ele>213.989069</ele>
        <time>2026-07-07T09:45:39.000Z</time>
      </trkpt>
      <trkpt lat="48.05644" lon="16.31559">
        <ele>214.000699</ele>
        <time>2026-07-07T09:45:40.000Z</time>
      </trkpt>
      <trkpt lat="48.05642" lon="16.31551">
        <ele>214.012026</ele>
        <time>2026-07-07T09:45:41.000Z</time>
      </trkpt>
      <trkpt lat="48.0564" lon="16.31544">
        <ele>214.023026</ele>
        <time>2026-07-07T09:45:42.000Z</time>
      </trkpt>
      <trkpt lat="48.05638" lon="16.31536">
        <ele>214.033899</ele>
        <time>2026-07-07T09:45:43.000Z</time>
      </trkpt>
      <trkpt lat="48.05637" lon="16.31529">
        <ele>214.044586</ele>
        <time>2026-07-07T09:45:44.000Z</time>
      </trkpt>
      <trkpt lat="48.05636" lon="16.31521">
        <ele>214.055802</ele>
        <time>2026-07-07T09:45:45.000Z</time>
      </trkpt>
      <trkpt lat="48.05636" lon="16.31512">
        <ele>214.067125</ele>
        <time>2026-07-07T09:45:46.000Z</time>
      </trkpt>
      <trkpt lat="48.05637" lon="16.31504">
        <ele>214.079062</ele>
        <time>2026-07-07T09:45:47.000Z</time>
      </trkpt>
      <trkpt lat="48.05638" lon="16.31495">
        <ele>214.090999</ele>
        <time>2026-07-07T09:45:48.000Z</time>
      </trkpt>
      <trkpt lat="48.05638" lon="16.31486">
        <ele>214.10332</ele>
        <time>2026-07-07T09:45:49.000Z</time>
      </trkpt>
      <trkpt lat="48.05639" lon="16.31477">
        <ele>214.092884</ele>
        <time>2026-07-07T09:45:50.000Z</time>
      </trkpt>
      <trkpt lat="48.05639" lon="16.31468">
        <ele>214.080211</ele>
        <time>2026-07-07T09:45:51.000Z</time>
      </trkpt>
      <trkpt lat="48.0564" lon="16.31459">
        <ele>214.067775</ele>
        <time>2026-07-07T09:45:52.000Z</time>
      </trkpt>
      <trkpt lat="48.05641" lon="16.3145">
        <ele>214.055199</ele>
        <time>2026-07-07T09:45:53.000Z</time>
      </trkpt>
      <trkpt lat="48.05641" lon="16.31442">
        <ele>214.042805</ele>
        <time>2026-07-07T09:45:54.000Z</time>
      </trkpt>
      <trkpt lat="48.05642" lon="16.31433">
        <ele>214.030392</ele>
        <time>2026-07-07T09:45:55.000Z</time>
      </trkpt>
      <trkpt lat="48.05643" lon="16.31424">
        <ele>214.017677</ele>
        <time>2026-07-07T09:45:56.000Z</time>
      </trkpt>
      <trkpt lat="48.05644" lon="16.31415">
        <ele>214.005012</ele>
        <time>2026-07-07T09:45:57.000Z</time>
      </trkpt>
      <trkpt lat="48.05644" lon="16.31406">
        <ele>213.99255</ele>
        <time>2026-07-07T09:45:58.000Z</time>
      </trkpt>
      <trkpt lat="48.05645" lon="16.31397">
        <ele>213.980023</ele>
        <time>2026-07-07T09:45:59.000Z</time>
      </trkpt>
      <trkpt lat="48.05646" lon="16.31388">
        <ele>213.967359</ele>
        <time>2026-07-07T09:46:00.000Z</time>
      </trkpt>
      <trkpt lat="48.05647" lon="16.3138">
        <ele>213.955143</ele>
        <time>2026-07-07T09:46:01.000Z</time>
      </trkpt>
      <trkpt lat="48.05648" lon="16.31371">
        <ele>213.942541</ele>
        <time>2026-07-07T09:46:02.000Z</time>
      </trkpt>
      <trkpt lat="48.05649" lon="16.31362">
        <ele>213.930357</ele>
        <time>2026-07-07T09:46:03.000Z</time>
      </trkpt>
      <trkpt lat="48.0565" lon="16.31353">
        <ele>213.917781</ele>
        <time>2026-07-07T09:46:04.000Z</time>
      </trkpt>
      <trkpt lat="48.0565" lon="16.31345">
        <ele>213.905596</ele>
        <time>2026-07-07T09:46:05.000Z</time>
      </trkpt>
      <trkpt lat="48.05651" lon="16.31336">
        <ele>213.893717</ele>
        <time>2026-07-07T09:46:06.000Z</time>
      </trkpt>
      <trkpt lat="48.05652" lon="16.31328">
        <ele>213.882227</ele>
        <time>2026-07-07T09:46:07.000Z</time>
      </trkpt>
      <trkpt lat="48.05653" lon="16.3132">
        <ele>213.870981</ele>
        <time>2026-07-07T09:46:08.000Z</time>
      </trkpt>
      <trkpt lat="48.05654" lon="16.31312">
        <ele>213.85963</ele>
        <time>2026-07-07T09:46:09.000Z</time>
      </trkpt>
      <trkpt lat="48.05654" lon="16.31304">
        <ele>213.848278</ele>
        <time>2026-07-07T09:46:10.000Z</time>
      </trkpt>
      <trkpt lat="48.05655" lon="16.31296">
        <ele>213.836894</ele>
        <time>2026-07-07T09:46:11.000Z</time>
      </trkpt>
      <trkpt lat="48.05655" lon="16.31289">
        <ele>213.82594</ele>
        <time>2026-07-07T09:46:12.000Z</time>
      </trkpt>
      <trkpt lat="48.05653" lon="16.31281">
        <ele>213.814827</ele>
        <time>2026-07-07T09:46:13.000Z</time>
      </trkpt>
      <trkpt lat="48.0565" lon="16.31275">
        <ele>213.803594</ele>
        <time>2026-07-07T09:46:14.000Z</time>
      </trkpt>
      <trkpt lat="48.05646" lon="16.3127">
        <ele>213.792414</ele>
        <time>2026-07-07T09:46:15.000Z</time>
      </trkpt>
      <trkpt lat="48.05641" lon="16.31268">
        <ele>213.780947</ele>
        <time>2026-07-07T09:46:16.000Z</time>
      </trkpt>
      <trkpt lat="48.05635" lon="16.31266">
        <ele>213.769155</ele>
        <time>2026-07-07T09:46:17.000Z</time>
      </trkpt>
      <trkpt lat="48.0563" lon="16.31264">
        <ele>213.757418</ele>
        <time>2026-07-07T09:46:18.000Z</time>
      </trkpt>
      <trkpt lat="48.05624" lon="16.31263">
        <ele>213.745242</ele>
        <time>2026-07-07T09:46:19.000Z</time>
      </trkpt>
      <trkpt lat="48.05618" lon="16.31261">
        <ele>213.732884</ele>
        <time>2026-07-07T09:46:20.000Z</time>
      </trkpt>
      <trkpt lat="48.05612" lon="16.31259">
        <ele>213.739405</ele>
        <time>2026-07-07T09:46:21.000Z</time>
      </trkpt>
      <trkpt lat="48.05607" lon="16.31258">
        <ele>213.765509</ele>
        <time>2026-07-07T09:46:22.000Z</time>
      </trkpt>
      <trkpt lat="48.05601" lon="16.31257">
        <ele>213.792318</ele>
        <time>2026-07-07T09:46:23.000Z</time>
      </trkpt>
      <trkpt lat="48.05595" lon="16.31256">
        <ele>213.819165</ele>
        <time>2026-07-07T09:46:24.000Z</time>
      </trkpt>
      <trkpt lat="48.05588" lon="16.31254">
        <ele>213.84689</ele>
        <time>2026-07-07T09:46:25.000Z</time>
      </trkpt>
      <trkpt lat="48.05582" lon="16.31253">
        <ele>213.873869</ele>
        <time>2026-07-07T09:46:26.000Z</time>
      </trkpt>
      <trkpt lat="48.05576" lon="16.31251">
        <ele>213.900848</ele>
        <time>2026-07-07T09:46:27.000Z</time>
      </trkpt>
      <trkpt lat="48.0557" lon="16.3125">
        <ele>213.927877</ele>
        <time>2026-07-07T09:46:28.000Z</time>
      </trkpt>
      <trkpt lat="48.05564" lon="16.31248">
        <ele>213.95496</ele>
        <time>2026-07-07T09:46:29.000Z</time>
      </trkpt>
      <trkpt lat="48.05559" lon="16.31246">
        <ele>213.981231</ele>
        <time>2026-07-07T09:46:30.000Z</time>
      </trkpt>
      <trkpt lat="48.05553" lon="16.31244">
        <ele>214.006333</ele>
        <time>2026-07-07T09:46:31.000Z</time>
      </trkpt>
      <trkpt lat="48.05548" lon="16.31242">
        <ele>214.029287</ele>
        <time>2026-07-07T09:46:32.000Z</time>
      </trkpt>
      <trkpt lat="48.05543" lon="16.3124">
        <ele>214.05141</ele>
        <time>2026-07-07T09:46:33.000Z</time>
      </trkpt>
      <trkpt lat="48.05539" lon="16.31237">
        <ele>214.072699</ele>
        <time>2026-07-07T09:46:34.000Z</time>
      </trkpt>
      <trkpt lat="48.05535" lon="16.31235">
        <ele>214.092853</ele>
        <time>2026-07-07T09:46:35.000Z</time>
      </trkpt>
      <trkpt lat="48.05531" lon="16.31234">
        <ele>214.110946</ele>
        <time>2026-07-07T09:46:36.000Z</time>
      </trkpt>
      <trkpt lat="48.05527" lon="16.31235">
        <ele>214.128058</ele>
        <time>2026-07-07T09:46:37.000Z</time>
      </trkpt>
      <trkpt lat="48.05524" lon="16.31239">
        <ele>214.145994</ele>
        <time>2026-07-07T09:46:38.000Z</time>
      </trkpt>
      <trkpt lat="48.05521" lon="16.31244">
        <ele>214.164995</ele>
        <time>2026-07-07T09:46:39.000Z</time>
      </trkpt>
      <trkpt lat="48.05519" lon="16.31249">
        <ele>214.183259</ele>
        <time>2026-07-07T09:46:40.000Z</time>
      </trkpt>
      <trkpt lat="48.05517" lon="16.31253">
        <ele>214.199498</ele>
        <time>2026-07-07T09:46:41.000Z</time>
      </trkpt>
      <trkpt lat="48.05513" lon="16.31253">
        <ele>214.215918</ele>
        <time>2026-07-07T09:46:42.000Z</time>
      </trkpt>
      <trkpt lat="48.05509" lon="16.31251">
        <ele>214.233783</ele>
        <time>2026-07-07T09:46:43.000Z</time>
      </trkpt>
      <trkpt lat="48.05505" lon="16.31249">
        <ele>214.253245</ele>
        <time>2026-07-07T09:46:44.000Z</time>
      </trkpt>
      <trkpt lat="48.05501" lon="16.31246">
        <ele>214.272031</ele>
        <time>2026-07-07T09:46:45.000Z</time>
      </trkpt>
      <trkpt lat="48.05497" lon="16.31244">
        <ele>214.290736</ele>
        <time>2026-07-07T09:46:46.000Z</time>
      </trkpt>
      <trkpt lat="48.05493" lon="16.31242">
        <ele>214.309025</ele>
        <time>2026-07-07T09:46:47.000Z</time>
      </trkpt>
      <trkpt lat="48.05489" lon="16.31241">
        <ele>214.326964</ele>
        <time>2026-07-07T09:46:48.000Z</time>
      </trkpt>
      <trkpt lat="48.05485" lon="16.31241">
        <ele>214.34565</ele>
        <time>2026-07-07T09:46:49.000Z</time>
      </trkpt>
      <trkpt lat="48.05481" lon="16.3124">
        <ele>214.363479</ele>
        <time>2026-07-07T09:46:50.000Z</time>
      </trkpt>
      <trkpt lat="48.05477" lon="16.3124">
        <ele>214.38128</ele>
        <time>2026-07-07T09:46:51.000Z</time>
      </trkpt>
      <trkpt lat="48.05474" lon="16.3124">
        <ele>214.396814</ele>
        <time>2026-07-07T09:46:52.000Z</time>
      </trkpt>
      <trkpt lat="48.0547" lon="16.31241">
        <ele>214.411445</ele>
        <time>2026-07-07T09:46:53.000Z</time>
      </trkpt>
      <trkpt lat="48.05468" lon="16.31243">
        <ele>214.424948</ele>
        <time>2026-07-07T09:46:54.000Z</time>
      </trkpt>
      <trkpt lat="48.05466" lon="16.31247">
        <ele>214.438514</ele>
        <time>2026-07-07T09:46:55.000Z</time>
      </trkpt>
      <trkpt lat="48.05464" lon="16.31251">
        <ele>214.45387</ele>
        <time>2026-07-07T09:46:56.000Z</time>
      </trkpt>
      <trkpt lat="48.05461" lon="16.31253">
        <ele>214.46882</ele>
        <time>2026-07-07T09:46:57.000Z</time>
      </trkpt>
      <trkpt lat="48.05457" lon="16.31253">
        <ele>214.484368</ele>
        <time>2026-07-07T09:46:58.000Z</time>
      </trkpt>
      <trkpt lat="48.05453" lon="16.31251">
        <ele>214.503373</ele>
        <time>2026-07-07T09:46:59.000Z</time>
      </trkpt>
      <trkpt lat="48.05449" lon="16.31248">
        <ele>214.524292</ele>
        <time>2026-07-07T09:47:00.000Z</time>
      </trkpt>
      <trkpt lat="48.05444" lon="16.31245">
        <ele>214.542844</ele>
        <time>2026-07-07T09:47:01.000Z</time>
      </trkpt>
      <trkpt lat="48.0544" lon="16.31242">
        <ele>214.561052</ele>
        <time>2026-07-07T09:47:02.000Z</time>
      </trkpt>
      <trkpt lat="48.05435" lon="16.31239">
        <ele>214.580181</ele>
        <time>2026-07-07T09:47:03.000Z</time>
      </trkpt>
      <trkpt lat="48.0543" lon="16.31237">
        <ele>214.599046</ele>
        <time>2026-07-07T09:47:04.000Z</time>
      </trkpt>
      <trkpt lat="48.05425" lon="16.31234">
        <ele>214.618334</ele>
        <time>2026-07-07T09:47:05.000Z</time>
      </trkpt>
      <trkpt lat="48.0542" lon="16.31231">
        <ele>214.638046</ele>
        <time>2026-07-07T09:47:06.000Z</time>
      </trkpt>
      <trkpt lat="48.05414" lon="16.31229">
        <ele>214.658557</ele>
        <time>2026-07-07T09:47:07.000Z</time>
      </trkpt>
      <trkpt lat="48.05409" lon="16.31227">
        <ele>214.678515</ele>
        <time>2026-07-07T09:47:08.000Z</time>
      </trkpt>
      <trkpt lat="48.05404" lon="16.31225">
        <ele>214.699052</ele>
        <time>2026-07-07T09:47:09.000Z</time>
      </trkpt>
      <trkpt lat="48.05398" lon="16.31223">
        <ele>214.718886</ele>
        <time>2026-07-07T09:47:10.000Z</time>
      </trkpt>
      <trkpt lat="48.05393" lon="16.3122">
        <ele>214.739193</ele>
        <time>2026-07-07T09:47:11.000Z</time>
      </trkpt>
      <trkpt lat="48.05388" lon="16.31218">
        <ele>214.759358</ele>
        <time>2026-07-07T09:47:12.000Z</time>
      </trkpt>
      <trkpt lat="48.05382" lon="16.31215">
        <ele>214.779596</ele>
        <time>2026-07-07T09:47:13.000Z</time>
      </trkpt>
      <trkpt lat="48.05377" lon="16.31213">
        <ele>214.800256</ele>
        <time>2026-07-07T09:47:14.000Z</time>
      </trkpt>
      <trkpt lat="48.05372" lon="16.3121">
        <ele>214.820651</ele>
        <time>2026-07-07T09:47:15.000Z</time>
      </trkpt>
      <trkpt lat="48.05366" lon="16.31207">
        <ele>214.841508</ele>
        <time>2026-07-07T09:47:16.000Z</time>
      </trkpt>
      <trkpt lat="48.05361" lon="16.31205">
        <ele>214.862297</ele>
        <time>2026-07-07T09:47:17.000Z</time>
      </trkpt>
      <trkpt lat="48.05355" lon="16.31203">
        <ele>214.88354</ele>
        <time>2026-07-07T09:47:18.000Z</time>
      </trkpt>
      <trkpt lat="48.05349" lon="16.31201">
        <ele>214.904262</ele>
        <time>2026-07-07T09:47:19.000Z</time>
      </trkpt>
      <trkpt lat="48.05344" lon="16.31198">
        <ele>214.924578</ele>
        <time>2026-07-07T09:47:20.000Z</time>
      </trkpt>
      <trkpt lat="48.05339" lon="16.31195">
        <ele>214.945507</ele>
        <time>2026-07-07T09:47:21.000Z</time>
      </trkpt>
      <trkpt lat="48.05333" lon="16.31193">
        <ele>214.966511</ele>
        <time>2026-07-07T09:47:22.000Z</time>
      </trkpt>
      <trkpt lat="48.05328" lon="16.3119">
        <ele>214.987514</ele>
        <time>2026-07-07T09:47:23.000Z</time>
      </trkpt>
      <trkpt lat="48.05322" lon="16.31187">
        <ele>215.009283</ele>
        <time>2026-07-07T09:47:24.000Z</time>
      </trkpt>
      <trkpt lat="48.05316" lon="16.31184">
        <ele>215.030525</ele>
        <time>2026-07-07T09:47:25.000Z</time>
      </trkpt>
      <trkpt lat="48.05311" lon="16.31181">
        <ele>215.052108</ele>
        <time>2026-07-07T09:47:26.000Z</time>
      </trkpt>
      <trkpt lat="48.05305" lon="16.31178">
        <ele>215.07488</ele>
        <time>2026-07-07T09:47:27.000Z</time>
      </trkpt>
      <trkpt lat="48.05299" lon="16.31175">
        <ele>215.09581</ele>
        <time>2026-07-07T09:47:28.000Z</time>
      </trkpt>
      <trkpt lat="48.05294" lon="16.31172">
        <ele>215.117223</ele>
        <time>2026-07-07T09:47:29.000Z</time>
      </trkpt>
      <trkpt lat="48.05288" lon="16.31169">
        <ele>215.13949</ele>
        <time>2026-07-07T09:47:30.000Z</time>
      </trkpt>
      <trkpt lat="48.05282" lon="16.31166">
        <ele>215.161758</ele>
        <time>2026-07-07T09:47:31.000Z</time>
      </trkpt>
      <trkpt lat="48.05276" lon="16.31163">
        <ele>215.201049</ele>
        <time>2026-07-07T09:47:32.000Z</time>
      </trkpt>
      <trkpt lat="48.05271" lon="16.3116">
        <ele>215.273156</ele>
        <time>2026-07-07T09:47:33.000Z</time>
      </trkpt>
      <trkpt lat="48.05265" lon="16.31157">
        <ele>215.345763</ele>
        <time>2026-07-07T09:47:34.000Z</time>
      </trkpt>
      <trkpt lat="48.05259" lon="16.31154">
        <ele>215.419491</ele>
        <time>2026-07-07T09:47:35.000Z</time>
      </trkpt>
      <trkpt lat="48.05253" lon="16.31151">
        <ele>215.492099</ele>
        <time>2026-07-07T09:47:36.000Z</time>
      </trkpt>
      <trkpt lat="48.05247" lon="16.31148">
        <ele>215.566947</ele>
        <time>2026-07-07T09:47:37.000Z</time>
      </trkpt>
      <trkpt lat="48.05241" lon="16.31145">
        <ele>215.641548</ele>
        <time>2026-07-07T09:47:38.000Z</time>
      </trkpt>
      <trkpt lat="48.05235" lon="16.31142">
        <ele>215.716397</ele>
        <time>2026-07-07T09:47:39.000Z</time>
      </trkpt>
      <trkpt lat="48.05229" lon="16.3114">
        <ele>215.788503</ele>
        <time>2026-07-07T09:47:40.000Z</time>
      </trkpt>
      <trkpt lat="48.05223" lon="16.31137">
        <ele>215.862865</ele>
        <time>2026-07-07T09:47:41.000Z</time>
      </trkpt>
      <trkpt lat="48.05217" lon="16.31134">
        <ele>215.936342</ele>
        <time>2026-07-07T09:47:42.000Z</time>
      </trkpt>
      <trkpt lat="48.05212" lon="16.31131">
        <ele>216.008449</ele>
        <time>2026-07-07T09:47:43.000Z</time>
      </trkpt>
      <trkpt lat="48.05206" lon="16.31128">
        <ele>216.080555</ele>
        <time>2026-07-07T09:47:44.000Z</time>
      </trkpt>
      <trkpt lat="48.052" lon="16.31125">
        <ele>216.151787</ele>
        <time>2026-07-07T09:47:45.000Z</time>
      </trkpt>
      <trkpt lat="48.05194" lon="16.31122">
        <ele>216.223278</ele>
        <time>2026-07-07T09:47:46.000Z</time>
      </trkpt>
      <trkpt lat="48.05189" lon="16.3112">
        <ele>216.291523</ele>
        <time>2026-07-07T09:47:47.000Z</time>
      </trkpt>
      <trkpt lat="48.05183" lon="16.31117">
        <ele>216.360519</ele>
        <time>2026-07-07T09:47:48.000Z</time>
      </trkpt>
      <trkpt lat="48.05178" lon="16.31114">
        <ele>216.428529</ele>
        <time>2026-07-07T09:47:49.000Z</time>
      </trkpt>
      <trkpt lat="48.05172" lon="16.31112">
        <ele>216.496539</ele>
        <time>2026-07-07T09:47:50.000Z</time>
      </trkpt>
      <trkpt lat="48.05167" lon="16.31109">
        <ele>216.562531</ele>
        <time>2026-07-07T09:47:51.000Z</time>
      </trkpt>
      <trkpt lat="48.05161" lon="16.31108">
        <ele>216.637671</ele>
        <time>2026-07-07T09:47:52.000Z</time>
      </trkpt>
      <trkpt lat="48.05155" lon="16.31108">
        <ele>216.708677</ele>
        <time>2026-07-07T09:47:53.000Z</time>
      </trkpt>
      <trkpt lat="48.05149" lon="16.3111">
        <ele>216.77469</ele>
        <time>2026-07-07T09:47:54.000Z</time>
      </trkpt>
      <trkpt lat="48.05145" lon="16.31114">
        <ele>216.836482</ele>
        <time>2026-07-07T09:47:55.000Z</time>
      </trkpt>
      <trkpt lat="48.05141" lon="16.31118">
        <ele>216.896254</ele>
        <time>2026-07-07T09:47:56.000Z</time>
      </trkpt>
      <trkpt lat="48.05137" lon="16.31122">
        <ele>216.953179</ele>
        <time>2026-07-07T09:47:57.000Z</time>
      </trkpt>
      <trkpt lat="48.05133" lon="16.31126">
        <ele>217.005775</ele>
        <time>2026-07-07T09:47:58.000Z</time>
      </trkpt>
      <trkpt lat="48.0513" lon="16.31131">
        <ele>217.057037</ele>
        <time>2026-07-07T09:47:59.000Z</time>
      </trkpt>
      <trkpt lat="48.05126" lon="16.31134">
        <ele>217.104988</ele>
        <time>2026-07-07T09:48:00.000Z</time>
      </trkpt>
      <trkpt lat="48.05123" lon="16.31136">
        <ele>217.145239</ele>
        <time>2026-07-07T09:48:01.000Z</time>
      </trkpt>
      <trkpt lat="48.05121" lon="16.31137">
        <ele>217.176092</ele>
        <time>2026-07-07T09:48:02.000Z</time>
      </trkpt>
      <trkpt lat="48.05119" lon="16.31135">
        <ele>217.198681</ele>
        <time>2026-07-07T09:48:03.000Z</time>
      </trkpt>
      <trkpt lat="48.05118" lon="16.31133">
        <ele>217.220602</ele>
        <time>2026-07-07T09:48:04.000Z</time>
      </trkpt>
      <trkpt lat="48.05118" lon="16.3113">
        <ele>217.242087</ele>
        <time>2026-07-07T09:48:05.000Z</time>
      </trkpt>
      <trkpt lat="48.05119" lon="16.31128">
        <ele>217.266428</ele>
        <time>2026-07-07T09:48:06.000Z</time>
      </trkpt>
      <trkpt lat="48.05121" lon="16.31126">
        <ele>217.290114</ele>
        <time>2026-07-07T09:48:07.000Z</time>
      </trkpt>
      <trkpt lat="48.05123" lon="16.31125">
        <ele>217.345428</ele>
        <time>2026-07-07T09:48:08.000Z</time>
      </trkpt>
      <trkpt lat="48.05125" lon="16.31124">
        <ele>217.422823</ele>
        <time>2026-07-07T09:48:09.000Z</time>
      </trkpt>
      <trkpt lat="48.05127" lon="16.31123">
        <ele>217.493774</ele>
        <time>2026-07-07T09:48:10.000Z</time>
      </trkpt>
      <trkpt lat="48.05129" lon="16.31122">
        <ele>217.567563</ele>
        <time>2026-07-07T09:48:11.000Z</time>
      </trkpt>
      <trkpt lat="48.0513" lon="16.31121">
        <ele>217.627097</ele>
        <time>2026-07-07T09:48:12.000Z</time>
      </trkpt>
      <trkpt lat="48.05131" lon="16.3112">
        <ele>217.675023</ele>
        <time>2026-07-07T09:48:13.000Z</time>
      </trkpt>
      <trkpt lat="48.05132" lon="16.31119">
        <ele>217.700623</ele>
        <time>2026-07-07T09:48:14.000Z</time>
      </trkpt>
      <trkpt lat="48.05132" lon="16.31119">
        <ele>217.711211</ele>
        <time>2026-07-07T09:48:15.000Z</time>
      </trkpt>
      <trkpt lat="48.05131" lon="16.31114">
        <ele>217.834836</ele>
        <time>2026-07-07T09:48:21.000Z</time>
      </trkpt>
      <trkpt lat="48.05129" lon="16.31111">
        <ele>217.942952</ele>
        <time>2026-07-07T09:48:22.000Z</time>
      </trkpt>
      <trkpt lat="48.05127" lon="16.31107">
        <ele>218.053307</ele>
        <time>2026-07-07T09:48:23.000Z</time>
      </trkpt>
      <trkpt lat="48.05125" lon="16.31105">
        <ele>218.168579</ele>
        <time>2026-07-07T09:48:24.000Z</time>
      </trkpt>
      <trkpt lat="48.05122" lon="16.31103">
        <ele>218.28502</ele>
        <time>2026-07-07T09:48:25.000Z</time>
      </trkpt>
      <trkpt lat="48.05119" lon="16.31102">
        <ele>218.410893</ele>
        <time>2026-07-07T09:48:26.000Z</time>
      </trkpt>
      <trkpt lat="48.05115" lon="16.31101">
        <ele>218.534855</ele>
        <time>2026-07-07T09:48:27.000Z</time>
      </trkpt>
      <trkpt lat="48.05112" lon="16.31099">
        <ele>218.653107</ele>
        <time>2026-07-07T09:48:28.000Z</time>
      </trkpt>
      <trkpt lat="48.05109" lon="16.31097">
        <ele>218.773036</ele>
        <time>2026-07-07T09:48:29.000Z</time>
      </trkpt>
      <trkpt lat="48.05106" lon="16.31096">
        <ele>218.893394</ele>
        <time>2026-07-07T09:48:30.000Z</time>
      </trkpt>
      <trkpt lat="48.05103" lon="16.31095">
        <ele>219.02399</ele>
        <time>2026-07-07T09:48:31.000Z</time>
      </trkpt>
      <trkpt lat="48.05099" lon="16.31094">
        <ele>219.158808</ele>
        <time>2026-07-07T09:48:32.000Z</time>
      </trkpt>
      <trkpt lat="48.05096" lon="16.31092">
        <ele>219.296377</ele>
        <time>2026-07-07T09:48:33.000Z</time>
      </trkpt>
      <trkpt lat="48.05092" lon="16.3109">
        <ele>219.434738</ele>
        <time>2026-07-07T09:48:34.000Z</time>
      </trkpt>
      <trkpt lat="48.05089" lon="16.31089">
        <ele>219.574444</ele>
        <time>2026-07-07T09:48:35.000Z</time>
      </trkpt>
      <trkpt lat="48.05085" lon="16.31088">
        <ele>219.725311</ele>
        <time>2026-07-07T09:48:36.000Z</time>
      </trkpt>
      <trkpt lat="48.05081" lon="16.31087">
        <ele>219.872155</ele>
        <time>2026-07-07T09:48:37.000Z</time>
      </trkpt>
      <trkpt lat="48.05077" lon="16.31087">
        <ele>220.014413</ele>
        <time>2026-07-07T09:48:38.000Z</time>
      </trkpt>
      <trkpt lat="48.05073" lon="16.31086">
        <ele>220.164471</ele>
        <time>2026-07-07T09:48:39.000Z</time>
      </trkpt>
      <trkpt lat="48.05069" lon="16.31086">
        <ele>220.314529</ele>
        <time>2026-07-07T09:48:40.000Z</time>
      </trkpt>
      <trkpt lat="48.05065" lon="16.31085">
        <ele>220.464399</ele>
        <time>2026-07-07T09:48:41.000Z</time>
      </trkpt>
      <trkpt lat="48.05061" lon="16.31086">
        <ele>220.621493</ele>
        <time>2026-07-07T09:48:42.000Z</time>
      </trkpt>
      <trkpt lat="48.05057" lon="16.31086">
        <ele>220.782322</ele>
        <time>2026-07-07T09:48:43.000Z</time>
      </trkpt>
      <trkpt lat="48.05052" lon="16.31086">
        <ele>220.943152</ele>
        <time>2026-07-07T09:48:44.000Z</time>
      </trkpt>
      <trkpt lat="48.05048" lon="16.31086">
        <ele>221.107719</ele>
        <time>2026-07-07T09:48:45.000Z</time>
      </trkpt>
      <trkpt lat="48.05043" lon="16.31087">
        <ele>221.278179</ele>
        <time>2026-07-07T09:48:46.000Z</time>
      </trkpt>
      <trkpt lat="48.05039" lon="16.31089">
        <ele>221.440242</ele>
        <time>2026-07-07T09:48:47.000Z</time>
      </trkpt>
      <trkpt lat="48.05036" lon="16.31093">
        <ele>221.603528</ele>
        <time>2026-07-07T09:48:48.000Z</time>
      </trkpt>
      <trkpt lat="48.05032" lon="16.31097">
        <ele>221.772844</ele>
        <time>2026-07-07T09:48:49.000Z</time>
      </trkpt>
      <trkpt lat="48.05029" lon="16.31102">
        <ele>221.935245</ele>
        <time>2026-07-07T09:48:50.000Z</time>
      </trkpt>
      <trkpt lat="48.05026" lon="16.31107">
        <ele>222.099462</ele>
        <time>2026-07-07T09:48:51.000Z</time>
      </trkpt>
      <trkpt lat="48.05023" lon="16.31112">
        <ele>222.271117</ele>
        <time>2026-07-07T09:48:52.000Z</time>
      </trkpt>
      <trkpt lat="48.0502" lon="16.31117">
        <ele>222.447748</ele>
        <time>2026-07-07T09:48:53.000Z</time>
      </trkpt>
      <trkpt lat="48.05016" lon="16.31121">
        <ele>222.612753</ele>
        <time>2026-07-07T09:48:54.000Z</time>
      </trkpt>
      <trkpt lat="48.05012" lon="16.31123">
        <ele>222.781096</ele>
        <time>2026-07-07T09:48:55.000Z</time>
      </trkpt>
      <trkpt lat="48.05007" lon="16.31123">
        <ele>222.96061</ele>
        <time>2026-07-07T09:48:56.000Z</time>
      </trkpt>
      <trkpt lat="48.05002" lon="16.31122">
        <ele>223.146231</ele>
        <time>2026-07-07T09:48:57.000Z</time>
      </trkpt>
      <trkpt lat="48.04998" lon="16.3112">
        <ele>223.322456</ele>
        <time>2026-07-07T09:48:58.000Z</time>
      </trkpt>
      <trkpt lat="48.04993" lon="16.31117">
        <ele>223.507187</ele>
        <time>2026-07-07T09:48:59.000Z</time>
      </trkpt>
      <trkpt lat="48.04989" lon="16.31114">
        <ele>223.688443</ele>
        <time>2026-07-07T09:49:00.000Z</time>
      </trkpt>
      <trkpt lat="48.04984" lon="16.31112">
        <ele>223.87112</ele>
        <time>2026-07-07T09:49:01.000Z</time>
      </trkpt>
      <trkpt lat="48.0498" lon="16.3111">
        <ele>224.022283</ele>
        <time>2026-07-07T09:49:02.000Z</time>
      </trkpt>
      <trkpt lat="48.04977" lon="16.31106">
        <ele>223.98075</ele>
        <time>2026-07-07T09:49:03.000Z</time>
      </trkpt>
      <trkpt lat="48.04975" lon="16.31101">
        <ele>223.942686</ele>
        <time>2026-07-07T09:49:04.000Z</time>
      </trkpt>
      <trkpt lat="48.04975" lon="16.31096">
        <ele>223.906603</ele>
        <time>2026-07-07T09:49:05.000Z</time>
      </trkpt>
      <trkpt lat="48.04976" lon="16.3109">
        <ele>223.864982</ele>
        <time>2026-07-07T09:49:06.000Z</time>
      </trkpt>
      <trkpt lat="48.04978" lon="16.31084">
        <ele>223.821717</ele>
        <time>2026-07-07T09:49:07.000Z</time>
      </trkpt>
      <trkpt lat="48.04979" lon="16.31078">
        <ele>223.777775</ele>
        <time>2026-07-07T09:49:08.000Z</time>
      </trkpt>
      <trkpt lat="48.0498" lon="16.31073">
        <ele>223.73624</ele>
        <time>2026-07-07T09:49:09.000Z</time>
      </trkpt>
      <trkpt lat="48.04981" lon="16.31067">
        <ele>223.693704</ele>
        <time>2026-07-07T09:49:10.000Z</time>
      </trkpt>
      <trkpt lat="48.04983" lon="16.31062">
        <ele>223.65175</ele>
        <time>2026-07-07T09:49:11.000Z</time>
      </trkpt>
      <trkpt lat="48.04984" lon="16.31056">
        <ele>223.611749</ele>
        <time>2026-07-07T09:49:12.000Z</time>
      </trkpt>
      <trkpt lat="48.04986" lon="16.31052">
        <ele>223.574762</ele>
        <time>2026-07-07T09:49:13.000Z</time>
      </trkpt>
      <trkpt lat="48.04987" lon="16.31047">
        <ele>223.537977</ele>
        <time>2026-07-07T09:49:14.000Z</time>
      </trkpt>
      <trkpt lat="48.04988" lon="16.31042">
        <ele>223.502139</ele>
        <time>2026-07-07T09:49:15.000Z</time>
      </trkpt>
      <trkpt lat="48.0499" lon="16.31037">
        <ele>223.466605</ele>
        <time>2026-07-07T09:49:16.000Z</time>
      </trkpt>
      <trkpt lat="48.0499" lon="16.31033">
        <ele>223.43508</ele>
        <time>2026-07-07T09:49:17.000Z</time>
      </trkpt>
      <trkpt lat="48.0499" lon="16.31029">
        <ele>223.405398</ele>
        <time>2026-07-07T09:49:18.000Z</time>
      </trkpt>
      <trkpt lat="48.04989" lon="16.31025">
        <ele>223.375437</ele>
        <time>2026-07-07T09:49:19.000Z</time>
      </trkpt>
      <trkpt lat="48.04986" lon="16.31023">
        <ele>223.339493</ele>
        <time>2026-07-07T09:49:20.000Z</time>
      </trkpt>
      <trkpt lat="48.04981" lon="16.31021">
        <ele>223.289688</ele>
        <time>2026-07-07T09:49:21.000Z</time>
      </trkpt>
      <trkpt lat="48.04976" lon="16.31017">
        <ele>223.227787</ele>
        <time>2026-07-07T09:49:22.000Z</time>
      </trkpt>
      <trkpt lat="48.0497" lon="16.31013">
        <ele>223.163174</ele>
        <time>2026-07-07T09:49:23.000Z</time>
      </trkpt>
      <trkpt lat="48.04964" lon="16.31009">
        <ele>223.09001</ele>
        <time>2026-07-07T09:49:24.000Z</time>
      </trkpt>
      <trkpt lat="48.04957" lon="16.31004">
        <ele>223.009322</ele>
        <time>2026-07-07T09:49:25.000Z</time>
      </trkpt>
      <trkpt lat="48.0495" lon="16.30999">
        <ele>222.927372</ele>
        <time>2026-07-07T09:49:26.000Z</time>
      </trkpt>
      <trkpt lat="48.04943" lon="16.30994">
        <ele>222.845415</ele>
        <time>2026-07-07T09:49:27.000Z</time>
      </trkpt>
      <trkpt lat="48.04937" lon="16.3099">
        <ele>222.768965</ele>
        <time>2026-07-07T09:49:28.000Z</time>
      </trkpt>
      <trkpt lat="48.0493" lon="16.30987">
        <ele>222.694867</ele>
        <time>2026-07-07T09:49:29.000Z</time>
      </trkpt>
      <trkpt lat="48.04923" lon="16.30984">
        <ele>222.623593</ele>
        <time>2026-07-07T09:49:30.000Z</time>
      </trkpt>
      <trkpt lat="48.04917" lon="16.30981">
        <ele>222.551071</ele>
        <time>2026-07-07T09:49:31.000Z</time>
      </trkpt>
      <trkpt lat="48.04911" lon="16.30977">
        <ele>222.480066</ele>
        <time>2026-07-07T09:49:32.000Z</time>
      </trkpt>
      <trkpt lat="48.04904" lon="16.30974">
        <ele>222.406587</ele>
        <time>2026-07-07T09:49:33.000Z</time>
      </trkpt>
      <trkpt lat="48.04898" lon="16.3097">
        <ele>222.333107</ele>
        <time>2026-07-07T09:49:34.000Z</time>
      </trkpt>
      <trkpt lat="48.04891" lon="16.30966">
        <ele>222.258126</ele>
        <time>2026-07-07T09:49:35.000Z</time>
      </trkpt>
      <trkpt lat="48.04885" lon="16.30963">
        <ele>222.187122</ele>
        <time>2026-07-07T09:49:36.000Z</time>
      </trkpt>
      <trkpt lat="48.04878" lon="16.3096">
        <ele>222.126294</ele>
        <time>2026-07-07T09:49:37.000Z</time>
      </trkpt>
      <trkpt lat="48.04872" lon="16.30957">
        <ele>222.11145</ele>
        <time>2026-07-07T09:49:38.000Z</time>
      </trkpt>
      <trkpt lat="48.04866" lon="16.30954">
        <ele>222.096698</ele>
        <time>2026-07-07T09:49:39.000Z</time>
      </trkpt>
      <trkpt lat="48.0486" lon="16.30951">
        <ele>222.081727</ele>
        <time>2026-07-07T09:49:40.000Z</time>
      </trkpt>
      <trkpt lat="48.04854" lon="16.30948">
        <ele>222.067316</ele>
        <time>2026-07-07T09:49:41.000Z</time>
      </trkpt>
      <trkpt lat="48.04847" lon="16.30945">
        <ele>222.052472</ele>
        <time>2026-07-07T09:49:42.000Z</time>
      </trkpt>
      <trkpt lat="48.04841" lon="16.30943">
        <ele>222.037981</ele>
        <time>2026-07-07T09:49:43.000Z</time>
      </trkpt>
      <trkpt lat="48.04835" lon="16.3094">
        <ele>222.023926</ele>
        <time>2026-07-07T09:49:44.000Z</time>
      </trkpt>
      <trkpt lat="48.04829" lon="16.30937">
        <ele>222.009515</ele>
        <time>2026-07-07T09:49:45.000Z</time>
      </trkpt>
      <trkpt lat="48.04824" lon="16.30934">
        <ele>221.996158</ele>
        <time>2026-07-07T09:49:46.000Z</time>
      </trkpt>
      <trkpt lat="48.04818" lon="16.30932">
        <ele>221.98197</ele>
        <time>2026-07-07T09:49:47.000Z</time>
      </trkpt>
      <trkpt lat="48.04812" lon="16.30929">
        <ele>221.968102</ele>
        <time>2026-07-07T09:49:48.000Z</time>
      </trkpt>
      <trkpt lat="48.04806" lon="16.30925">
        <ele>221.954179</ele>
        <time>2026-07-07T09:49:49.000Z</time>
      </trkpt>
      <trkpt lat="48.04801" lon="16.30923">
        <ele>221.940993</ele>
        <time>2026-07-07T09:49:50.000Z</time>
      </trkpt>
      <trkpt lat="48.04796" lon="16.3092">
        <ele>221.929992</ele>
        <time>2026-07-07T09:49:51.000Z</time>
      </trkpt>
      <trkpt lat="48.04792" lon="16.30918">
        <ele>221.919057</ele>
        <time>2026-07-07T09:49:52.000Z</time>
      </trkpt>
      <trkpt lat="48.04787" lon="16.30916">
        <ele>221.907563</ele>
        <time>2026-07-07T09:49:53.000Z</time>
      </trkpt>
      <trkpt lat="48.04782" lon="16.30915">
        <ele>221.896839</ele>
        <time>2026-07-07T09:49:54.000Z</time>
      </trkpt>
      <trkpt lat="48.04778" lon="16.30913">
        <ele>221.885824</ele>
        <time>2026-07-07T09:49:55.000Z</time>
      </trkpt>
      <trkpt lat="48.04774" lon="16.30911">
        <ele>221.876744</ele>
        <time>2026-07-07T09:49:56.000Z</time>
      </trkpt>
      <trkpt lat="48.0477" lon="16.30909">
        <ele>221.867229</ele>
        <time>2026-07-07T09:49:57.000Z</time>
      </trkpt>
      <trkpt lat="48.04766" lon="16.30907">
        <ele>221.858318</ele>
        <time>2026-07-07T09:49:58.000Z</time>
      </trkpt>
      <trkpt lat="48.04762" lon="16.30906">
        <ele>221.848365</ele>
        <time>2026-07-07T09:49:59.000Z</time>
      </trkpt>
      <trkpt lat="48.04758" lon="16.30903">
        <ele>221.838098</ele>
        <time>2026-07-07T09:50:00.000Z</time>
      </trkpt>
      <trkpt lat="48.04754" lon="16.30901">
        <ele>221.827961</ele>
        <time>2026-07-07T09:50:01.000Z</time>
      </trkpt>
      <trkpt lat="48.04749" lon="16.30898">
        <ele>221.817664</ele>
        <time>2026-07-07T09:50:02.000Z</time>
      </trkpt>
      <trkpt lat="48.04745" lon="16.30896">
        <ele>221.806616</ele>
        <time>2026-07-07T09:50:03.000Z</time>
      </trkpt>
      <trkpt lat="48.04741" lon="16.30894">
        <ele>221.796705</ele>
        <time>2026-07-07T09:50:04.000Z</time>
      </trkpt>
      <trkpt lat="48.04736" lon="16.30892">
        <ele>221.78592</ele>
        <time>2026-07-07T09:50:05.000Z</time>
      </trkpt>
      <trkpt lat="48.04732" lon="16.3089">
        <ele>221.775227</ele>
        <time>2026-07-07T09:50:06.000Z</time>
      </trkpt>
      <trkpt lat="48.04727" lon="16.30888">
        <ele>221.764095</ele>
        <time>2026-07-07T09:50:07.000Z</time>
      </trkpt>
      <trkpt lat="48.04722" lon="16.30885">
        <ele>221.752947</ele>
        <time>2026-07-07T09:50:08.000Z</time>
      </trkpt>
      <trkpt lat="48.04718" lon="16.30882">
        <ele>221.741246</ele>
        <time>2026-07-07T09:50:09.000Z</time>
      </trkpt>
      <trkpt lat="48.04713" lon="16.3088">
        <ele>221.729137</ele>
        <time>2026-07-07T09:50:10.000Z</time>
      </trkpt>
      <trkpt lat="48.04707" lon="16.30877">
        <ele>221.726814</ele>
        <time>2026-07-07T09:50:11.000Z</time>
      </trkpt>
      <trkpt lat="48.04703" lon="16.30874">
        <ele>221.764016</ele>
        <time>2026-07-07T09:50:12.000Z</time>
      </trkpt>
      <trkpt lat="48.04698" lon="16.3087">
        <ele>221.802974</ele>
        <time>2026-07-07T09:50:13.000Z</time>
      </trkpt>
      <trkpt lat="48.04693" lon="16.30867">
        <ele>221.842636</ele>
        <time>2026-07-07T09:50:14.000Z</time>
      </trkpt>
      <trkpt lat="48.04689" lon="16.30864">
        <ele>221.882</ele>
        <time>2026-07-07T09:50:15.000Z</time>
      </trkpt>
      <trkpt lat="48.04684" lon="16.3086">
        <ele>221.919325</ele>
        <time>2026-07-07T09:50:16.000Z</time>
      </trkpt>
      <trkpt lat="48.0468" lon="16.30858">
        <ele>221.95108</ele>
        <time>2026-07-07T09:50:17.000Z</time>
      </trkpt>
      <trkpt lat="48.04677" lon="16.30857">
        <ele>221.977979</ele>
        <time>2026-07-07T09:50:18.000Z</time>
      </trkpt>
      <trkpt lat="48.04674" lon="16.30856">
        <ele>221.999984</ele>
        <time>2026-07-07T09:50:19.000Z</time>
      </trkpt>
      <trkpt lat="48.04671" lon="16.30856">
        <ele>222.019691</ele>
        <time>2026-07-07T09:50:20.000Z</time>
      </trkpt>
      <trkpt lat="48.04669" lon="16.30854">
        <ele>222.037802</ele>
        <time>2026-07-07T09:50:21.000Z</time>
      </trkpt>
      <trkpt lat="48.04668" lon="16.30852">
        <ele>222.052021</ele>
        <time>2026-07-07T09:50:22.000Z</time>
      </trkpt>
      <trkpt lat="48.04668" lon="16.30849">
        <ele>222.067505</ele>
        <time>2026-07-07T09:50:23.000Z</time>
      </trkpt>
      <trkpt lat="48.0467" lon="16.30846">
        <ele>222.085879</ele>
        <time>2026-07-07T09:50:24.000Z</time>
      </trkpt>
      <trkpt lat="48.04671" lon="16.30842">
        <ele>222.105577</ele>
        <time>2026-07-07T09:50:25.000Z</time>
      </trkpt>
      <trkpt lat="48.04673" lon="16.30839">
        <ele>222.127152</ele>
        <time>2026-07-07T09:50:26.000Z</time>
      </trkpt>
      <trkpt lat="48.04675" lon="16.30838">
        <ele>222.147149</ele>
        <time>2026-07-07T09:50:27.000Z</time>
      </trkpt>
      <trkpt lat="48.04678" lon="16.30838">
        <ele>222.165983</ele>
        <time>2026-07-07T09:50:28.000Z</time>
      </trkpt>
      <trkpt lat="48.04681" lon="16.30839">
        <ele>222.187107</ele>
        <time>2026-07-07T09:50:29.000Z</time>
      </trkpt>
      <trkpt lat="48.04683" lon="16.3084">
        <ele>222.207725</ele>
        <time>2026-07-07T09:50:30.000Z</time>
      </trkpt>
      <trkpt lat="48.04686" lon="16.3084">
        <ele>222.225414</ele>
        <time>2026-07-07T09:50:31.000Z</time>
      </trkpt>
      <trkpt lat="48.04687" lon="16.30841">
        <ele>222.238923</ele>
        <time>2026-07-07T09:50:32.000Z</time>
      </trkpt>
      <trkpt lat="48.04689" lon="16.30841">
        <ele>222.250171</ele>
        <time>2026-07-07T09:50:33.000Z</time>
      </trkpt>
      <trkpt lat="48.0469" lon="16.30841">
        <ele>222.261802</ele>
        <time>2026-07-07T09:50:34.000Z</time>
      </trkpt>
      <trkpt lat="48.04691" lon="16.3084">
        <ele>222.271406</ele>
        <time>2026-07-07T09:50:35.000Z</time>
      </trkpt>
      <trkpt lat="48.04692" lon="16.30839">
        <ele>222.281048</ele>
        <time>2026-07-07T09:50:36.000Z</time>
      </trkpt>
      <trkpt lat="48.04694" lon="16.30837">
        <ele>222.292147</ele>
        <time>2026-07-07T09:50:37.000Z</time>
      </trkpt>
      <trkpt lat="48.04694" lon="16.30835">
        <ele>222.304259</ele>
        <time>2026-07-07T09:50:38.000Z</time>
      </trkpt>
      <trkpt lat="48.04693" lon="16.30833">
        <ele>222.316332</ele>
        <time>2026-07-07T09:50:39.000Z</time>
      </trkpt>
      <trkpt lat="48.04692" lon="16.30831">
        <ele>222.328545</ele>
        <time>2026-07-07T09:50:40.000Z</time>
      </trkpt>
      <trkpt lat="48.0469" lon="16.30829">
        <ele>222.343047</ele>
        <time>2026-07-07T09:50:41.000Z</time>
      </trkpt>
      <trkpt lat="48.04689" lon="16.30827">
        <ele>222.358035</ele>
        <time>2026-07-07T09:50:42.000Z</time>
      </trkpt>
      <trkpt lat="48.04688" lon="16.30823">
        <ele>222.378021</ele>
        <time>2026-07-07T09:50:43.000Z</time>
      </trkpt>
      <trkpt lat="48.04687" lon="16.30819">
        <ele>222.399977</ele>
        <time>2026-07-07T09:50:44.000Z</time>
      </trkpt>
      <trkpt lat="48.04686" lon="16.30814">
        <ele>222.423115</ele>
        <time>2026-07-07T09:50:45.000Z</time>
      </trkpt>
      <trkpt lat="48.04686" lon="16.30809">
        <ele>222.448433</ele>
        <time>2026-07-07T09:50:46.000Z</time>
      </trkpt>
      <trkpt lat="48.04685" lon="16.30804">
        <ele>222.47623</ele>
        <time>2026-07-07T09:50:47.000Z</time>
      </trkpt>
      <trkpt lat="48.04685" lon="16.30799">
        <ele>222.502162</ele>
        <time>2026-07-07T09:50:48.000Z</time>
      </trkpt>
      <trkpt lat="48.04684" lon="16.30794">
        <ele>222.528726</ele>
        <time>2026-07-07T09:50:49.000Z</time>
      </trkpt>
      <trkpt lat="48.04683" lon="16.30788">
        <ele>222.55529</ele>
        <time>2026-07-07T09:50:50.000Z</time>
      </trkpt>
      <trkpt lat="48.04683" lon="16.30783">
        <ele>222.582095</ele>
        <time>2026-07-07T09:50:51.000Z</time>
      </trkpt>
      <trkpt lat="48.04682" lon="16.30778">
        <ele>222.609673</ele>
        <time>2026-07-07T09:50:52.000Z</time>
      </trkpt>
      <trkpt lat="48.0468" lon="16.30773">
        <ele>222.637433</ele>
        <time>2026-07-07T09:50:53.000Z</time>
      </trkpt>
      <trkpt lat="48.04678" lon="16.30769">
        <ele>222.6659</ele>
        <time>2026-07-07T09:50:54.000Z</time>
      </trkpt>
      <trkpt lat="48.04674" lon="16.30765">
        <ele>222.696203</ele>
        <time>2026-07-07T09:50:55.000Z</time>
      </trkpt>
      <trkpt lat="48.04671" lon="16.30762">
        <ele>222.72773</ele>
        <time>2026-07-07T09:50:56.000Z</time>
      </trkpt>
      <trkpt lat="48.04667" lon="16.3076">
        <ele>222.760204</ele>
        <time>2026-07-07T09:50:57.000Z</time>
      </trkpt>
      <trkpt lat="48.04662" lon="16.30757">
        <ele>222.795538</ele>
        <time>2026-07-07T09:50:58.000Z</time>
      </trkpt>
      <trkpt lat="48.04658" lon="16.30754">
        <ele>222.830403</ele>
        <time>2026-07-07T09:50:59.000Z</time>
      </trkpt>
      <trkpt lat="48.04654" lon="16.30751">
        <ele>222.86616</ele>
        <time>2026-07-07T09:51:00.000Z</time>
      </trkpt>
      <trkpt lat="48.0465" lon="16.30747">
        <ele>222.901934</ele>
        <time>2026-07-07T09:51:01.000Z</time>
      </trkpt>
      <trkpt lat="48.04645" lon="16.30744">
        <ele>222.937949</ele>
        <time>2026-07-07T09:51:02.000Z</time>
      </trkpt>
      <trkpt lat="48.04641" lon="16.30741">
        <ele>222.973707</ele>
        <time>2026-07-07T09:51:03.000Z</time>
      </trkpt>
      <trkpt lat="48.04636" lon="16.30738">
        <ele>223.01239</ele>
        <time>2026-07-07T09:51:04.000Z</time>
      </trkpt>
      <trkpt lat="48.04632" lon="16.30734">
        <ele>223.050606</ele>
        <time>2026-07-07T09:51:05.000Z</time>
      </trkpt>
      <trkpt lat="48.04627" lon="16.30731">
        <ele>223.091537</ele>
        <time>2026-07-07T09:51:06.000Z</time>
      </trkpt>
      <trkpt lat="48.04622" lon="16.30727">
        <ele>223.133544</ele>
        <time>2026-07-07T09:51:07.000Z</time>
      </trkpt>
      <trkpt lat="48.04617" lon="16.30724">
        <ele>223.177489</ele>
        <time>2026-07-07T09:51:08.000Z</time>
      </trkpt>
      <trkpt lat="48.04612" lon="16.30721">
        <ele>223.221215</ele>
        <time>2026-07-07T09:51:09.000Z</time>
      </trkpt>
      <trkpt lat="48.04607" lon="16.30717">
        <ele>223.264941</ele>
        <time>2026-07-07T09:51:10.000Z</time>
      </trkpt>
      <trkpt lat="48.04602" lon="16.30714">
        <ele>223.309573</ele>
        <time>2026-07-07T09:51:11.000Z</time>
      </trkpt>
      <trkpt lat="48.04597" lon="16.3071">
        <ele>223.353742</ele>
        <time>2026-07-07T09:51:12.000Z</time>
      </trkpt>
      <trkpt lat="48.04592" lon="16.30707">
        <ele>223.398201</ele>
        <time>2026-07-07T09:51:13.000Z</time>
      </trkpt>
      <trkpt lat="48.04587" lon="16.30703">
        <ele>223.441646</ele>
        <time>2026-07-07T09:51:14.000Z</time>
      </trkpt>
      <trkpt lat="48.04583" lon="16.30699">
        <ele>223.485351</ele>
        <time>2026-07-07T09:51:15.000Z</time>
      </trkpt>
      <trkpt lat="48.04578" lon="16.30696">
        <ele>223.528076</ele>
        <time>2026-07-07T09:51:16.000Z</time>
      </trkpt>
      <trkpt lat="48.04573" lon="16.30693">
        <ele>223.572294</ele>
        <time>2026-07-07T09:51:17.000Z</time>
      </trkpt>
      <trkpt lat="48.04567" lon="16.3069">
        <ele>223.617918</ele>
        <time>2026-07-07T09:51:18.000Z</time>
      </trkpt>
      <trkpt lat="48.04562" lon="16.30686">
        <ele>223.66255</ele>
        <time>2026-07-07T09:51:19.000Z</time>
      </trkpt>
      <trkpt lat="48.04557" lon="16.30682">
        <ele>223.708138</ele>
        <time>2026-07-07T09:51:20.000Z</time>
      </trkpt>
      <trkpt lat="48.04552" lon="16.30679">
        <ele>223.751133</ele>
        <time>2026-07-07T09:51:21.000Z</time>
      </trkpt>
      <trkpt lat="48.04547" lon="16.30676">
        <ele>223.794236</ele>
        <time>2026-07-07T09:51:22.000Z</time>
      </trkpt>
      <trkpt lat="48.04542" lon="16.30672">
        <ele>223.838181</ele>
        <time>2026-07-07T09:51:23.000Z</time>
      </trkpt>
      <trkpt lat="48.04538" lon="16.30669">
        <ele>223.880448</ele>
        <time>2026-07-07T09:51:24.000Z</time>
      </trkpt>
      <trkpt lat="48.04533" lon="16.30666">
        <ele>223.922715</ele>
        <time>2026-07-07T09:51:25.000Z</time>
      </trkpt>
      <trkpt lat="48.04528" lon="16.30663">
        <ele>223.963393</ele>
        <time>2026-07-07T09:51:26.000Z</time>
      </trkpt>
      <trkpt lat="48.04523" lon="16.3066">
        <ele>224.004491</ele>
        <time>2026-07-07T09:51:27.000Z</time>
      </trkpt>
      <trkpt lat="48.04519" lon="16.30657">
        <ele>224.042918</ele>
        <time>2026-07-07T09:51:28.000Z</time>
      </trkpt>
      <trkpt lat="48.04515" lon="16.30654">
        <ele>224.080881</ele>
        <time>2026-07-07T09:51:29.000Z</time>
      </trkpt>
      <trkpt lat="48.0451" lon="16.30651">
        <ele>224.11957</ele>
        <time>2026-07-07T09:51:30.000Z</time>
      </trkpt>
      <trkpt lat="48.04506" lon="16.30647">
        <ele>224.155864</ele>
        <time>2026-07-07T09:51:31.000Z</time>
      </trkpt>
      <trkpt lat="48.04503" lon="16.30644">
        <ele>224.190511</ele>
        <time>2026-07-07T09:51:32.000Z</time>
      </trkpt>
      <trkpt lat="48.045" lon="16.30639">
        <ele>224.224128</ele>
        <time>2026-07-07T09:51:33.000Z</time>
      </trkpt>
      <trkpt lat="48.04498" lon="16.30635">
        <ele>224.253966</ele>
        <time>2026-07-07T09:51:34.000Z</time>
      </trkpt>
      <trkpt lat="48.04498" lon="16.3063">
        <ele>224.280819</ele>
        <time>2026-07-07T09:51:35.000Z</time>
      </trkpt>
      <trkpt lat="48.04498" lon="16.30624">
        <ele>224.309716</ele>
        <time>2026-07-07T09:51:36.000Z</time>
      </trkpt>
      <trkpt lat="48.04499" lon="16.30619">
        <ele>224.338997</ele>
        <time>2026-07-07T09:51:37.000Z</time>
      </trkpt>
      <trkpt lat="48.04499" lon="16.30614">
        <ele>224.364982</ele>
        <time>2026-07-07T09:51:38.000Z</time>
      </trkpt>
      <trkpt lat="48.045" lon="16.3061">
        <ele>224.388136</ele>
        <time>2026-07-07T09:51:39.000Z</time>
      </trkpt>
      <trkpt lat="48.04501" lon="16.30607">
        <ele>224.406235</ele>
        <time>2026-07-07T09:51:40.000Z</time>
      </trkpt>
      <trkpt lat="48.04501" lon="16.30604">
        <ele>224.421738</ele>
        <time>2026-07-07T09:51:41.000Z</time>
      </trkpt>
      <trkpt lat="48.04501" lon="16.30601">
        <ele>224.43511</ele>
        <time>2026-07-07T09:51:42.000Z</time>
      </trkpt>
      <trkpt lat="48.04501" lon="16.30599">
        <ele>224.446986</ele>
        <time>2026-07-07T09:51:43.000Z</time>
      </trkpt>
      <trkpt lat="48.04501" lon="16.30598">
        <ele>224.45505</ele>
        <time>2026-07-07T09:51:44.000Z</time>
      </trkpt>
      <trkpt lat="48.04501" lon="16.30597">
        <ele>224.458643</ele>
        <time>2026-07-07T09:51:45.000Z</time>
      </trkpt>
      <trkpt lat="48.045" lon="16.30597">
        <ele>224.46485</ele>
        <time>2026-07-07T09:51:46.000Z</time>
      </trkpt>
      <trkpt lat="48.04499" lon="16.30596">
        <ele>224.473286</ele>
        <time>2026-07-07T09:51:47.000Z</time>
      </trkpt>
      <trkpt lat="48.04498" lon="16.30596">
        <ele>224.485394</ele>
        <time>2026-07-07T09:51:48.000Z</time>
      </trkpt>
      <trkpt lat="48.04496" lon="16.30595">
        <ele>224.49769</ele>
        <time>2026-07-07T09:51:49.000Z</time>
      </trkpt>
      <trkpt lat="48.04495" lon="16.30595">
        <ele>224.505167</ele>
        <time>2026-07-07T09:51:50.000Z</time>
      </trkpt>
      <trkpt lat="48.04495" lon="16.30595">
        <ele>224.501544</ele>
        <time>2026-07-07T09:51:51.000Z</time>
      </trkpt>
      <trkpt lat="48.0449" lon="16.30592">
        <ele>224.473225</ele>
        <time>2026-07-07T09:51:54.000Z</time>
      </trkpt>
      <trkpt lat="48.04488" lon="16.30592">
        <ele>224.463128</ele>
        <time>2026-07-07T09:51:55.000Z</time>
      </trkpt>
      <trkpt lat="48.04487" lon="16.30591">
        <ele>224.453198</ele>
        <time>2026-07-07T09:51:56.000Z</time>
      </trkpt>
      <trkpt lat="48.04486" lon="16.30589">
        <ele>224.444713</ele>
        <time>2026-07-07T09:51:57.000Z</time>
      </trkpt>
      <trkpt lat="48.04485" lon="16.30588">
        <ele>224.439084</ele>
        <time>2026-07-07T09:51:58.000Z</time>
      </trkpt>
      <trkpt lat="48.04485" lon="16.30586">
        <ele>224.432958</ele>
        <time>2026-07-07T09:51:59.000Z</time>
      </trkpt>
      <trkpt lat="48.04486" lon="16.30584">
        <ele>224.424362</ele>
        <time>2026-07-07T09:52:00.000Z</time>
      </trkpt>
      <trkpt lat="48.04486" lon="16.30581">
        <ele>224.411997</ele>
        <time>2026-07-07T09:52:01.000Z</time>
      </trkpt>
      <trkpt lat="48.04488" lon="16.30577">
        <ele>224.39572</ele>
        <time>2026-07-07T09:52:02.000Z</time>
      </trkpt>
      <trkpt lat="48.04489" lon="16.30573">
        <ele>224.379011</ele>
        <time>2026-07-07T09:52:03.000Z</time>
      </trkpt>
      <trkpt lat="48.0449" lon="16.30568">
        <ele>224.359396</ele>
        <time>2026-07-07T09:52:04.000Z</time>
      </trkpt>
      <trkpt lat="48.04491" lon="16.30563">
        <ele>224.338594</ele>
        <time>2026-07-07T09:52:05.000Z</time>
      </trkpt>
      <trkpt lat="48.04491" lon="16.30557">
        <ele>224.314419</ele>
        <time>2026-07-07T09:52:06.000Z</time>
      </trkpt>
      <trkpt lat="48.04493" lon="16.3055">
        <ele>224.286753</ele>
        <time>2026-07-07T09:52:07.000Z</time>
      </trkpt>
      <trkpt lat="48.04494" lon="16.30542">
        <ele>224.257089</ele>
        <time>2026-07-07T09:52:08.000Z</time>
      </trkpt>
      <trkpt lat="48.04495" lon="16.30535">
        <ele>224.226169</ele>
        <time>2026-07-07T09:52:09.000Z</time>
      </trkpt>
      <trkpt lat="48.04496" lon="16.30526">
        <ele>224.193774</ele>
        <time>2026-07-07T09:52:10.000Z</time>
      </trkpt>
      <trkpt lat="48.04497" lon="16.30518">
        <ele>224.160732</ele>
        <time>2026-07-07T09:52:11.000Z</time>
      </trkpt>
      <trkpt lat="48.04498" lon="16.30509">
        <ele>224.128324</ele>
        <time>2026-07-07T09:52:12.000Z</time>
      </trkpt>
      <trkpt lat="48.04499" lon="16.30501">
        <ele>224.096976</ele>
        <time>2026-07-07T09:52:13.000Z</time>
      </trkpt>
      <trkpt lat="48.045" lon="16.30493">
        <ele>224.065162</ele>
        <time>2026-07-07T09:52:14.000Z</time>
      </trkpt>
      <trkpt lat="48.04501" lon="16.30485">
        <ele>224.034642</ele>
        <time>2026-07-07T09:52:15.000Z</time>
      </trkpt>
      <trkpt lat="48.04502" lon="16.30477">
        <ele>224.00386</ele>
        <time>2026-07-07T09:52:16.000Z</time>
      </trkpt>
      <trkpt lat="48.04503" lon="16.30469">
        <ele>223.972801</ele>
        <time>2026-07-07T09:52:17.000Z</time>
      </trkpt>
      <trkpt lat="48.04503" lon="16.30461">
        <ele>223.9416</ele>
        <time>2026-07-07T09:52:18.000Z</time>
      </trkpt>
      <trkpt lat="48.04504" lon="16.30453">
        <ele>223.909786</ele>
        <time>2026-07-07T09:52:19.000Z</time>
      </trkpt>
      <trkpt lat="48.04505" lon="16.30444">
        <ele>223.876355</ele>
        <time>2026-07-07T09:52:20.000Z</time>
      </trkpt>
      <trkpt lat="48.04505" lon="16.30436">
        <ele>223.844393</ele>
        <time>2026-07-07T09:52:21.000Z</time>
      </trkpt>
      <trkpt lat="48.04506" lon="16.30427">
        <ele>223.811065</ele>
        <time>2026-07-07T09:52:22.000Z</time>
      </trkpt>
      <trkpt lat="48.04505" lon="16.30418">
        <ele>223.776207</ele>
        <time>2026-07-07T09:52:23.000Z</time>
      </trkpt>
      <trkpt lat="48.04506" lon="16.3041">
        <ele>223.743645</ele>
        <time>2026-07-07T09:52:24.000Z</time>
      </trkpt>
      <trkpt lat="48.04506" lon="16.30401">
        <ele>223.709169</ele>
        <time>2026-07-07T09:52:25.000Z</time>
      </trkpt>
      <trkpt lat="48.04506" lon="16.30392">
        <ele>223.675095</ele>
        <time>2026-07-07T09:52:26.000Z</time>
      </trkpt>
      <trkpt lat="48.04505" lon="16.30383">
        <ele>223.64018</ele>
        <time>2026-07-07T09:52:27.000Z</time>
      </trkpt>
      <trkpt lat="48.04505" lon="16.30374">
        <ele>223.605681</ele>
        <time>2026-07-07T09:52:28.000Z</time>
      </trkpt>
      <trkpt lat="48.04505" lon="16.30365">
        <ele>223.571205</ele>
        <time>2026-07-07T09:52:29.000Z</time>
      </trkpt>
      <trkpt lat="48.04505" lon="16.30356">
        <ele>223.535941</ele>
        <time>2026-07-07T09:52:30.000Z</time>
      </trkpt>
      <trkpt lat="48.04504" lon="16.30346">
        <ele>223.499552</ele>
        <time>2026-07-07T09:52:31.000Z</time>
      </trkpt>
      <trkpt lat="48.04504" lon="16.30336">
        <ele>223.462808</ele>
        <time>2026-07-07T09:52:32.000Z</time>
      </trkpt>
      <trkpt lat="48.04504" lon="16.30327">
        <ele>223.427528</ele>
        <time>2026-07-07T09:52:33.000Z</time>
      </trkpt>
      <trkpt lat="48.04505" lon="16.30317">
        <ele>223.39186</ele>
        <time>2026-07-07T09:52:34.000Z</time>
      </trkpt>
      <trkpt lat="48.04505" lon="16.30307">
        <ele>223.354707</ele>
        <time>2026-07-07T09:52:35.000Z</time>
      </trkpt>
      <trkpt lat="48.04505" lon="16.30297">
        <ele>223.317422</ele>
        <time>2026-07-07T09:52:36.000Z</time>
      </trkpt>
      <trkpt lat="48.04506" lon="16.30287">
        <ele>223.279478</ele>
        <time>2026-07-07T09:52:37.000Z</time>
      </trkpt>
      <trkpt lat="48.04506" lon="16.30277">
        <ele>223.241595</ele>
        <time>2026-07-07T09:52:38.000Z</time>
      </trkpt>
      <trkpt lat="48.04506" lon="16.30267">
        <ele>223.204459</ele>
        <time>2026-07-07T09:52:39.000Z</time>
      </trkpt>
      <trkpt lat="48.04506" lon="16.30257">
        <ele>223.168065</ele>
        <time>2026-07-07T09:52:40.000Z</time>
      </trkpt>
      <trkpt lat="48.04506" lon="16.30247">
        <ele>223.130862</ele>
        <time>2026-07-07T09:52:41.000Z</time>
      </trkpt>
      <trkpt lat="48.04507" lon="16.30237">
        <ele>223.094431</ele>
        <time>2026-07-07T09:52:42.000Z</time>
      </trkpt>
      <trkpt lat="48.04507" lon="16.30227">
        <ele>223.057628</ele>
        <time>2026-07-07T09:52:43.000Z</time>
      </trkpt>
      <trkpt lat="48.04507" lon="16.30218">
        <ele>223.021167</ele>
        <time>2026-07-07T09:52:44.000Z</time>
      </trkpt>
      <trkpt lat="48.04508" lon="16.30208">
        <ele>222.985038</ele>
        <time>2026-07-07T09:52:45.000Z</time>
      </trkpt>
      <trkpt lat="48.04508" lon="16.30198">
        <ele>222.949348</ele>
        <time>2026-07-07T09:52:46.000Z</time>
      </trkpt>
      <trkpt lat="48.04508" lon="16.30189">
        <ele>222.914051</ele>
        <time>2026-07-07T09:52:47.000Z</time>
      </trkpt>
      <trkpt lat="48.04507" lon="16.30179">
        <ele>222.878984</ele>
        <time>2026-07-07T09:52:48.000Z</time>
      </trkpt>
      <trkpt lat="48.04507" lon="16.3017">
        <ele>222.844229</ele>
        <time>2026-07-07T09:52:49.000Z</time>
      </trkpt>
      <trkpt lat="48.04506" lon="16.30161">
        <ele>222.811081</ele>
        <time>2026-07-07T09:52:50.000Z</time>
      </trkpt>
      <trkpt lat="48.04504" lon="16.30153">
        <ele>222.777715</ele>
        <time>2026-07-07T09:52:51.000Z</time>
      </trkpt>
      <trkpt lat="48.04502" lon="16.30145">
        <ele>222.745591</ele>
        <time>2026-07-07T09:52:52.000Z</time>
      </trkpt>
      <trkpt lat="48.04499" lon="16.30138">
        <ele>222.713782</ele>
        <time>2026-07-07T09:52:53.000Z</time>
      </trkpt>
      <trkpt lat="48.04495" lon="16.30131">
        <ele>222.681154</ele>
        <time>2026-07-07T09:52:54.000Z</time>
      </trkpt>
      <trkpt lat="48.04491" lon="16.30124">
        <ele>222.647583</ele>
        <time>2026-07-07T09:52:55.000Z</time>
      </trkpt>
      <trkpt lat="48.04486" lon="16.30118">
        <ele>222.614664</ele>
        <time>2026-07-07T09:52:56.000Z</time>
      </trkpt>
      <trkpt lat="48.04482" lon="16.30112">
        <ele>222.581178</ele>
        <time>2026-07-07T09:52:57.000Z</time>
      </trkpt>
      <trkpt lat="48.04477" lon="16.30106">
        <ele>222.546855</ele>
        <time>2026-07-07T09:52:58.000Z</time>
      </trkpt>
      <trkpt lat="48.04472" lon="16.301">
        <ele>222.512344</ele>
        <time>2026-07-07T09:52:59.000Z</time>
      </trkpt>
      <trkpt lat="48.04468" lon="16.30095">
        <ele>222.478966</ele>
        <time>2026-07-07T09:53:00.000Z</time>
      </trkpt>
      <trkpt lat="48.04463" lon="16.30089">
        <ele>222.46129</ele>
        <time>2026-07-07T09:53:01.000Z</time>
      </trkpt>
      <trkpt lat="48.04459" lon="16.30084">
        <ele>222.445226</ele>
        <time>2026-07-07T09:53:02.000Z</time>
      </trkpt>
      <trkpt lat="48.04454" lon="16.30079">
        <ele>222.429046</ele>
        <time>2026-07-07T09:53:03.000Z</time>
      </trkpt>
      <trkpt lat="48.0445" lon="16.30074">
        <ele>222.414007</ele>
        <time>2026-07-07T09:53:04.000Z</time>
      </trkpt>
      <trkpt lat="48.04446" lon="16.30069">
        <ele>222.399175</ele>
        <time>2026-07-07T09:53:05.000Z</time>
      </trkpt>
      <trkpt lat="48.04442" lon="16.30065">
        <ele>222.384477</ele>
        <time>2026-07-07T09:53:06.000Z</time>
      </trkpt>
      <trkpt lat="48.04438" lon="16.3006">
        <ele>222.370107</ele>
        <time>2026-07-07T09:53:07.000Z</time>
      </trkpt>
      <trkpt lat="48.04434" lon="16.30055">
        <ele>222.355707</ele>
        <time>2026-07-07T09:53:08.000Z</time>
      </trkpt>
      <trkpt lat="48.0443" lon="16.3005">
        <ele>222.341307</ele>
        <time>2026-07-07T09:53:09.000Z</time>
      </trkpt>
      <trkpt lat="48.04426" lon="16.30045">
        <ele>222.326596</ele>
        <time>2026-07-07T09:53:10.000Z</time>
      </trkpt>
      <trkpt lat="48.04422" lon="16.3004">
        <ele>222.311763</ele>
        <time>2026-07-07T09:53:11.000Z</time>
      </trkpt>
      <trkpt lat="48.04418" lon="16.30035">
        <ele>222.296809</ele>
        <time>2026-07-07T09:53:12.000Z</time>
      </trkpt>
      <trkpt lat="48.04414" lon="16.3003">
        <ele>222.28173</ele>
        <time>2026-07-07T09:53:13.000Z</time>
      </trkpt>
      <trkpt lat="48.0441" lon="16.30025">
        <ele>222.266456</ele>
        <time>2026-07-07T09:53:14.000Z</time>
      </trkpt>
      <trkpt lat="48.04406" lon="16.3002">
        <ele>222.251532</ele>
        <time>2026-07-07T09:53:15.000Z</time>
      </trkpt>
      <trkpt lat="48.04402" lon="16.30015">
        <ele>222.236941</ele>
        <time>2026-07-07T09:53:16.000Z</time>
      </trkpt>
      <trkpt lat="48.04398" lon="16.3001">
        <ele>222.221889</ele>
        <time>2026-07-07T09:53:17.000Z</time>
      </trkpt>
      <trkpt lat="48.04394" lon="16.30005">
        <ele>222.206964</ele>
        <time>2026-07-07T09:53:18.000Z</time>
      </trkpt>
      <trkpt lat="48.0439" lon="16.3">
        <ele>222.192132</ele>
        <time>2026-07-07T09:53:19.000Z</time>
      </trkpt>
      <trkpt lat="48.04386" lon="16.29995">
        <ele>222.1773</ele>
        <time>2026-07-07T09:53:20.000Z</time>
      </trkpt>
      <trkpt lat="48.04381" lon="16.2999">
        <ele>222.162027</ele>
        <time>2026-07-07T09:53:21.000Z</time>
      </trkpt>
      <trkpt lat="48.04377" lon="16.29986">
        <ele>222.147435</ele>
        <time>2026-07-07T09:53:22.000Z</time>
      </trkpt>
      <trkpt lat="48.04374" lon="16.29981">
        <ele>222.133405</ele>
        <time>2026-07-07T09:53:23.000Z</time>
      </trkpt>
      <trkpt lat="48.0437" lon="16.29976">
        <ele>222.119615</ele>
        <time>2026-07-07T09:53:24.000Z</time>
      </trkpt>
      <trkpt lat="48.04366" lon="16.29972">
        <ele>222.106046</ele>
        <time>2026-07-07T09:53:25.000Z</time>
      </trkpt>
      <trkpt lat="48.04363" lon="16.29967">
        <ele>222.092914</ele>
        <time>2026-07-07T09:53:26.000Z</time>
      </trkpt>
      <trkpt lat="48.04359" lon="16.29963">
        <ele>222.080027</ele>
        <time>2026-07-07T09:53:27.000Z</time>
      </trkpt>
      <trkpt lat="48.04356" lon="16.29959">
        <ele>222.067942</ele>
        <time>2026-07-07T09:53:28.000Z</time>
      </trkpt>
      <trkpt lat="48.04352" lon="16.29955">
        <ele>222.055409</ele>
        <time>2026-07-07T09:53:29.000Z</time>
      </trkpt>
      <trkpt lat="48.04349" lon="16.29951">
        <ele>222.042862</ele>
        <time>2026-07-07T09:53:30.000Z</time>
      </trkpt>
      <trkpt lat="48.04346" lon="16.29947">
        <ele>222.030656</ele>
        <time>2026-07-07T09:53:31.000Z</time>
      </trkpt>
      <trkpt lat="48.04342" lon="16.29943">
        <ele>222.01857</ele>
        <time>2026-07-07T09:53:32.000Z</time>
      </trkpt>
      <trkpt lat="48.04339" lon="16.29939">
        <ele>222.006705</ele>
        <time>2026-07-07T09:53:33.000Z</time>
      </trkpt>
      <trkpt lat="48.04336" lon="16.29935">
        <ele>221.99496</ele>
        <time>2026-07-07T09:53:34.000Z</time>
      </trkpt>
      <trkpt lat="48.04333" lon="16.29932">
        <ele>221.984364</ele>
        <time>2026-07-07T09:53:35.000Z</time>
      </trkpt>
      <trkpt lat="48.0433" lon="16.29928">
        <ele>221.974877</ele>
        <time>2026-07-07T09:53:36.000Z</time>
      </trkpt>
      <trkpt lat="48.04329" lon="16.29924">
        <ele>221.966173</ele>
        <time>2026-07-07T09:53:37.000Z</time>
      </trkpt>
      <trkpt lat="48.04328" lon="16.2992">
        <ele>221.973865</ele>
        <time>2026-07-07T09:53:38.000Z</time>
      </trkpt>
      <trkpt lat="48.04329" lon="16.29916">
        <ele>221.985669</ele>
        <time>2026-07-07T09:53:39.000Z</time>
      </trkpt>
      <trkpt lat="48.04329" lon="16.29911">
        <ele>221.998222</ele>
        <time>2026-07-07T09:53:40.000Z</time>
      </trkpt>
      <trkpt lat="48.04328" lon="16.29906">
        <ele>222.011106</ele>
        <time>2026-07-07T09:53:41.000Z</time>
      </trkpt>
      <trkpt lat="48.04327" lon="16.29902">
        <ele>222.023423</ele>
        <time>2026-07-07T09:53:42.000Z</time>
      </trkpt>
      <trkpt lat="48.04325" lon="16.29898">
        <ele>222.035049</ele>
        <time>2026-07-07T09:53:43.000Z</time>
      </trkpt>
      <trkpt lat="48.04323" lon="16.29896">
        <ele>222.046463</ele>
        <time>2026-07-07T09:53:44.000Z</time>
      </trkpt>
      <trkpt lat="48.0432" lon="16.29893">
        <ele>222.059531</ele>
        <time>2026-07-07T09:53:45.000Z</time>
      </trkpt>
      <trkpt lat="48.04317" lon="16.2989">
        <ele>222.073916</ele>
        <time>2026-07-07T09:53:46.000Z</time>
      </trkpt>
      <trkpt lat="48.04314" lon="16.29886">
        <ele>222.089263</ele>
        <time>2026-07-07T09:53:47.000Z</time>
      </trkpt>
      <trkpt lat="48.04311" lon="16.29882">
        <ele>222.105768</ele>
        <time>2026-07-07T09:53:48.000Z</time>
      </trkpt>
      <trkpt lat="48.04308" lon="16.29877">
        <ele>222.122915</ele>
        <time>2026-07-07T09:53:49.000Z</time>
      </trkpt>
      <trkpt lat="48.04304" lon="16.29873">
        <ele>222.140349</ele>
        <time>2026-07-07T09:53:50.000Z</time>
      </trkpt>
      <trkpt lat="48.04301" lon="16.29869">
        <ele>222.157564</ele>
        <time>2026-07-07T09:53:51.000Z</time>
      </trkpt>
      <trkpt lat="48.04298" lon="16.29865">
        <ele>222.173211</ele>
        <time>2026-07-07T09:53:52.000Z</time>
      </trkpt>
      <trkpt lat="48.04295" lon="16.29861">
        <ele>222.188065</ele>
        <time>2026-07-07T09:53:53.000Z</time>
      </trkpt>
      <trkpt lat="48.04292" lon="16.29858">
        <ele>222.203389</ele>
        <time>2026-07-07T09:53:54.000Z</time>
      </trkpt>
      <trkpt lat="48.04289" lon="16.29854">
        <ele>222.218736</ele>
        <time>2026-07-07T09:53:55.000Z</time>
      </trkpt>
      <trkpt lat="48.04285" lon="16.2985">
        <ele>222.234526</ele>
        <time>2026-07-07T09:53:56.000Z</time>
      </trkpt>
      <trkpt lat="48.04282" lon="16.29846">
        <ele>222.250216</ele>
        <time>2026-07-07T09:53:57.000Z</time>
      </trkpt>
      <trkpt lat="48.04279" lon="16.29842">
        <ele>222.265906</ele>
        <time>2026-07-07T09:53:58.000Z</time>
      </trkpt>
      <trkpt lat="48.04276" lon="16.29839">
        <ele>222.281253</ele>
        <time>2026-07-07T09:53:59.000Z</time>
      </trkpt>
      <trkpt lat="48.04273" lon="16.29835">
        <ele>222.297354</ele>
        <time>2026-07-07T09:54:00.000Z</time>
      </trkpt>
      <trkpt lat="48.0427" lon="16.29831">
        <ele>222.314238</ele>
        <time>2026-07-07T09:54:01.000Z</time>
      </trkpt>
      <trkpt lat="48.04266" lon="16.29827">
        <ele>222.331756</ele>
        <time>2026-07-07T09:54:02.000Z</time>
      </trkpt>
      <trkpt lat="48.04263" lon="16.29822">
        <ele>222.349449</ele>
        <time>2026-07-07T09:54:03.000Z</time>
      </trkpt>
      <trkpt lat="48.0426" lon="16.29817">
        <ele>222.367574</ele>
        <time>2026-07-07T09:54:04.000Z</time>
      </trkpt>
      <trkpt lat="48.04257" lon="16.29811">
        <ele>222.386351</ele>
        <time>2026-07-07T09:54:05.000Z</time>
      </trkpt>
      <trkpt lat="48.04254" lon="16.29805">
        <ele>222.406327</ele>
        <time>2026-07-07T09:54:06.000Z</time>
      </trkpt>
      <trkpt lat="48.04251" lon="16.29799">
        <ele>222.426291</ele>
        <time>2026-07-07T09:54:07.000Z</time>
      </trkpt>
      <trkpt lat="48.04248" lon="16.29792">
        <ele>222.446254</ele>
        <time>2026-07-07T09:54:08.000Z</time>
      </trkpt>
      <trkpt lat="48.04245" lon="16.29786">
        <ele>222.46687</ele>
        <time>2026-07-07T09:54:09.000Z</time>
      </trkpt>
      <trkpt lat="48.04242" lon="16.29779">
        <ele>222.487513</ele>
        <time>2026-07-07T09:54:10.000Z</time>
      </trkpt>
      <trkpt lat="48.0424" lon="16.29772">
        <ele>222.508358</ele>
        <time>2026-07-07T09:54:11.000Z</time>
      </trkpt>
      <trkpt lat="48.04237" lon="16.29765">
        <ele>222.529649</ele>
        <time>2026-07-07T09:54:12.000Z</time>
      </trkpt>
      <trkpt lat="48.04234" lon="16.29758">
        <ele>222.550517</ele>
        <time>2026-07-07T09:54:13.000Z</time>
      </trkpt>
      <trkpt lat="48.04231" lon="16.29752">
        <ele>222.571796</ele>
        <time>2026-07-07T09:54:14.000Z</time>
      </trkpt>
      <trkpt lat="48.04228" lon="16.29746">
        <ele>222.592004</ele>
        <time>2026-07-07T09:54:15.000Z</time>
      </trkpt>
      <trkpt lat="48.04224" lon="16.2974">
        <ele>222.612928</ele>
        <time>2026-07-07T09:54:16.000Z</time>
      </trkpt>
      <trkpt lat="48.0422" lon="16.29734">
        <ele>222.633391</ele>
        <time>2026-07-07T09:54:17.000Z</time>
      </trkpt>
      <trkpt lat="48.04216" lon="16.29729">
        <ele>222.654317</ele>
        <time>2026-07-07T09:54:18.000Z</time>
      </trkpt>
      <trkpt lat="48.04213" lon="16.29724">
        <ele>222.683698</ele>
        <time>2026-07-07T09:54:19.000Z</time>
      </trkpt>
      <trkpt lat="48.04208" lon="16.29719">
        <ele>222.730862</ele>
        <time>2026-07-07T09:54:20.000Z</time>
      </trkpt>
      <trkpt lat="48.04204" lon="16.29714">
        <ele>222.776242</ele>
        <time>2026-07-07T09:54:21.000Z</time>
      </trkpt>
      <trkpt lat="48.042" lon="16.29709">
        <ele>222.823406</ele>
        <time>2026-07-07T09:54:22.000Z</time>
      </trkpt>
      <trkpt lat="48.04196" lon="16.29704">
        <ele>222.869945</ele>
        <time>2026-07-07T09:54:23.000Z</time>
      </trkpt>
      <trkpt lat="48.04192" lon="16.29699">
        <ele>222.920295</ele>
        <time>2026-07-07T09:54:24.000Z</time>
      </trkpt>
      <trkpt lat="48.04187" lon="16.29694">
        <ele>222.969931</ele>
        <time>2026-07-07T09:54:25.000Z</time>
      </trkpt>
      <trkpt lat="48.04183" lon="16.29689">
        <ele>223.020645</ele>
        <time>2026-07-07T09:54:26.000Z</time>
      </trkpt>
      <trkpt lat="48.04178" lon="16.29683">
        <ele>223.072101</ele>
        <time>2026-07-07T09:54:27.000Z</time>
      </trkpt>
      <trkpt lat="48.04173" lon="16.29678">
        <ele>223.12494</ele>
        <time>2026-07-07T09:54:28.000Z</time>
      </trkpt>
      <trkpt lat="48.04169" lon="16.29673">
        <ele>223.17529</ele>
        <time>2026-07-07T09:54:29.000Z</time>
      </trkpt>
      <trkpt lat="48.04165" lon="16.29667">
        <ele>223.224626</ele>
        <time>2026-07-07T09:54:30.000Z</time>
      </trkpt>
      <trkpt lat="48.0416" lon="16.29662">
        <ele>223.2755</ele>
        <time>2026-07-07T09:54:31.000Z</time>
      </trkpt>
      <trkpt lat="48.04156" lon="16.29656">
        <ele>223.325715</ele>
        <time>2026-07-07T09:54:32.000Z</time>
      </trkpt>
      <trkpt lat="48.04152" lon="16.29651">
        <ele>223.375706</ele>
        <time>2026-07-07T09:54:33.000Z</time>
      </trkpt>
      <trkpt lat="48.04147" lon="16.29646">
        <ele>223.423571</ele>
        <time>2026-07-07T09:54:34.000Z</time>
      </trkpt>
      <trkpt lat="48.04143" lon="16.29641">
        <ele>223.471792</ele>
        <time>2026-07-07T09:54:35.000Z</time>
      </trkpt>
      <trkpt lat="48.04139" lon="16.29636">
        <ele>223.518632</ele>
        <time>2026-07-07T09:54:36.000Z</time>
      </trkpt>
      <trkpt lat="48.04135" lon="16.29631">
        <ele>223.566093</ele>
        <time>2026-07-07T09:54:37.000Z</time>
      </trkpt>
      <trkpt lat="48.04131" lon="16.29625">
        <ele>223.615429</ele>
        <time>2026-07-07T09:54:38.000Z</time>
      </trkpt>
      <trkpt lat="48.04127" lon="16.29621">
        <ele>223.659746</ele>
        <time>2026-07-07T09:54:39.000Z</time>
      </trkpt>
      <trkpt lat="48.04122" lon="16.29616">
        <ele>223.707972</ele>
        <time>2026-07-07T09:54:40.000Z</time>
      </trkpt>
      <trkpt lat="48.04118" lon="16.29611">
        <ele>223.753375</ele>
        <time>2026-07-07T09:54:41.000Z</time>
      </trkpt>
      <trkpt lat="48.04114" lon="16.29607">
        <ele>223.800185</ele>
        <time>2026-07-07T09:54:42.000Z</time>
      </trkpt>
      <trkpt lat="48.0411" lon="16.29602">
        <ele>223.845224</ele>
        <time>2026-07-07T09:54:43.000Z</time>
      </trkpt>
      <trkpt lat="48.04106" lon="16.29597">
        <ele>223.890264</ele>
        <time>2026-07-07T09:54:44.000Z</time>
      </trkpt>
      <trkpt lat="48.04102" lon="16.29593">
        <ele>223.937065</ele>
        <time>2026-07-07T09:54:45.000Z</time>
      </trkpt>
      <trkpt lat="48.04098" lon="16.29588">
        <ele>223.981878</ele>
        <time>2026-07-07T09:54:46.000Z</time>
      </trkpt>
      <trkpt lat="48.04094" lon="16.29583">
        <ele>224.029408</ele>
        <time>2026-07-07T09:54:47.000Z</time>
      </trkpt>
      <trkpt lat="48.04089" lon="16.29578">
        <ele>224.079044</ele>
        <time>2026-07-07T09:54:48.000Z</time>
      </trkpt>
      <trkpt lat="48.04085" lon="16.29572">
        <ele>224.128006</ele>
        <time>2026-07-07T09:54:49.000Z</time>
      </trkpt>
      <trkpt lat="48.04081" lon="16.29567">
        <ele>224.175907</ele>
        <time>2026-07-07T09:54:50.000Z</time>
      </trkpt>
      <trkpt lat="48.04076" lon="16.29562">
        <ele>224.226122</ele>
        <time>2026-07-07T09:54:51.000Z</time>
      </trkpt>
      <trkpt lat="48.04072" lon="16.29556">
        <ele>224.25878</ele>
        <time>2026-07-07T09:54:52.000Z</time>
      </trkpt>
      <trkpt lat="48.04068" lon="16.2955">
        <ele>224.256951</ele>
        <time>2026-07-07T09:54:53.000Z</time>
      </trkpt>
      <trkpt lat="48.04064" lon="16.29545">
        <ele>224.255215</ele>
        <time>2026-07-07T09:54:54.000Z</time>
      </trkpt>
      <trkpt lat="48.04059" lon="16.29541">
        <ele>224.253477</ele>
        <time>2026-07-07T09:54:55.000Z</time>
      </trkpt>
      <trkpt lat="48.04055" lon="16.29536">
        <ele>224.25174</ele>
        <time>2026-07-07T09:54:56.000Z</time>
      </trkpt>
      <trkpt lat="48.04051" lon="16.29531">
        <ele>224.250028</ele>
        <time>2026-07-07T09:54:57.000Z</time>
      </trkpt>
      <trkpt lat="48.04047" lon="16.29525">
        <ele>224.248357</ele>
        <time>2026-07-07T09:54:58.000Z</time>
      </trkpt>
      <trkpt lat="48.04043" lon="16.2952">
        <ele>224.246719</ele>
        <time>2026-07-07T09:54:59.000Z</time>
      </trkpt>
      <trkpt lat="48.04039" lon="16.29516">
        <ele>224.245084</ele>
        <time>2026-07-07T09:55:00.000Z</time>
      </trkpt>
      <trkpt lat="48.04035" lon="16.29511">
        <ele>224.243462</ele>
        <time>2026-07-07T09:55:01.000Z</time>
      </trkpt>
      <trkpt lat="48.04031" lon="16.29506">
        <ele>224.241848</ele>
        <time>2026-07-07T09:55:02.000Z</time>
      </trkpt>
      <trkpt lat="48.04027" lon="16.29501">
        <ele>224.240137</ele>
        <time>2026-07-07T09:55:03.000Z</time>
      </trkpt>
      <trkpt lat="48.04023" lon="16.29496">
        <ele>224.238541</ele>
        <time>2026-07-07T09:55:04.000Z</time>
      </trkpt>
      <trkpt lat="48.04019" lon="16.29492">
        <ele>224.236892</ele>
        <time>2026-07-07T09:55:05.000Z</time>
      </trkpt>
      <trkpt lat="48.04014" lon="16.29488">
        <ele>224.235304</ele>
        <time>2026-07-07T09:55:06.000Z</time>
      </trkpt>
      <trkpt lat="48.0401" lon="16.29485">
        <ele>224.233687</ele>
        <time>2026-07-07T09:55:07.000Z</time>
      </trkpt>
      <trkpt lat="48.04005" lon="16.29482">
        <ele>224.232044</ele>
        <time>2026-07-07T09:55:08.000Z</time>
      </trkpt>
      <trkpt lat="48.04" lon="16.29479">
        <ele>224.230363</ele>
        <time>2026-07-07T09:55:09.000Z</time>
      </trkpt>
      <trkpt lat="48.03995" lon="16.29477">
        <ele>224.228682</ele>
        <time>2026-07-07T09:55:10.000Z</time>
      </trkpt>
      <trkpt lat="48.0399" lon="16.29474">
        <ele>224.227047</ele>
        <time>2026-07-07T09:55:11.000Z</time>
      </trkpt>
      <trkpt lat="48.03985" lon="16.29472">
        <ele>224.225379</ele>
        <time>2026-07-07T09:55:12.000Z</time>
      </trkpt>
      <trkpt lat="48.03981" lon="16.2947">
        <ele>224.223913</ele>
        <time>2026-07-07T09:55:13.000Z</time>
      </trkpt>
      <trkpt lat="48.03977" lon="16.29469">
        <ele>224.222745</ele>
        <time>2026-07-07T09:55:14.000Z</time>
      </trkpt>
      <trkpt lat="48.03974" lon="16.29469">
        <ele>224.221814</ele>
        <time>2026-07-07T09:55:15.000Z</time>
      </trkpt>
      <trkpt lat="48.03972" lon="16.2947">
        <ele>224.221164</ele>
        <time>2026-07-07T09:55:16.000Z</time>
      </trkpt>
      <trkpt lat="48.03971" lon="16.2947">
        <ele>224.220643</ele>
        <time>2026-07-07T09:55:17.000Z</time>
      </trkpt>
      <trkpt lat="48.03969" lon="16.29471">
        <ele>224.219996</ele>
        <time>2026-07-07T09:55:18.000Z</time>
      </trkpt>
      <trkpt lat="48.03967" lon="16.29472">
        <ele>224.219234</ele>
        <time>2026-07-07T09:55:19.000Z</time>
      </trkpt>
      <trkpt lat="48.03964" lon="16.29474">
        <ele>224.218286</ele>
        <time>2026-07-07T09:55:20.000Z</time>
      </trkpt>
      <trkpt lat="48.0396" lon="16.29474">
        <ele>224.217201</ele>
        <time>2026-07-07T09:55:21.000Z</time>
      </trkpt>
      <trkpt lat="48.03957" lon="16.29472">
        <ele>224.216108</ele>
        <time>2026-07-07T09:55:22.000Z</time>
      </trkpt>
      <trkpt lat="48.03954" lon="16.2947">
        <ele>224.214862</ele>
        <time>2026-07-07T09:55:23.000Z</time>
      </trkpt>
      <trkpt lat="48.0395" lon="16.29466">
        <ele>224.213584</ele>
        <time>2026-07-07T09:55:24.000Z</time>
      </trkpt>
      <trkpt lat="48.03947" lon="16.29462">
        <ele>224.212205</ele>
        <time>2026-07-07T09:55:25.000Z</time>
      </trkpt>
      <trkpt lat="48.03943" lon="16.29458">
        <ele>224.2108</ele>
        <time>2026-07-07T09:55:26.000Z</time>
      </trkpt>
      <trkpt lat="48.0394" lon="16.29454">
        <ele>224.20937</ele>
        <time>2026-07-07T09:55:27.000Z</time>
      </trkpt>
      <trkpt lat="48.03936" lon="16.2945">
        <ele>224.207876</ele>
        <time>2026-07-07T09:55:28.000Z</time>
      </trkpt>
      <trkpt lat="48.03932" lon="16.29446">
        <ele>224.206356</ele>
        <time>2026-07-07T09:55:29.000Z</time>
      </trkpt>
      <trkpt lat="48.03929" lon="16.29441">
        <ele>224.204818</ele>
        <time>2026-07-07T09:55:30.000Z</time>
      </trkpt>
      <trkpt lat="48.03925" lon="16.29436">
        <ele>224.203194</ele>
        <time>2026-07-07T09:55:31.000Z</time>
      </trkpt>
      <trkpt lat="48.03921" lon="16.29431">
        <ele>224.212802</ele>
        <time>2026-07-07T09:55:32.000Z</time>
      </trkpt>
      <trkpt lat="48.03917" lon="16.29427">
        <ele>224.252</ele>
        <time>2026-07-07T09:55:33.000Z</time>
      </trkpt>
      <trkpt lat="48.03913" lon="16.29422">
        <ele>224.293069</ele>
        <time>2026-07-07T09:55:34.000Z</time>
      </trkpt>
      <trkpt lat="48.03909" lon="16.29417">
        <ele>224.332267</ele>
        <time>2026-07-07T09:55:35.000Z</time>
      </trkpt>
      <trkpt lat="48.03905" lon="16.29412">
        <ele>224.3725</ele>
        <time>2026-07-07T09:55:36.000Z</time>
      </trkpt>
      <trkpt lat="48.03901" lon="16.29408">
        <ele>224.413267</ele>
        <time>2026-07-07T09:55:37.000Z</time>
      </trkpt>
      <trkpt lat="48.03897" lon="16.29403">
        <ele>224.454033</ele>
        <time>2026-07-07T09:55:38.000Z</time>
      </trkpt>
      <trkpt lat="48.03893" lon="16.29398">
        <ele>224.495731</ele>
        <time>2026-07-07T09:55:39.000Z</time>
      </trkpt>
      <trkpt lat="48.03889" lon="16.29393">
        <ele>224.536167</ele>
        <time>2026-07-07T09:55:40.000Z</time>
      </trkpt>
      <trkpt lat="48.03885" lon="16.29389">
        <ele>224.576933</ele>
        <time>2026-07-07T09:55:41.000Z</time>
      </trkpt>
      <trkpt lat="48.03881" lon="16.29384">
        <ele>224.6177</ele>
        <time>2026-07-07T09:55:42.000Z</time>
      </trkpt>
      <trkpt lat="48.03877" lon="16.29379">
        <ele>224.658801</ele>
        <time>2026-07-07T09:55:43.000Z</time>
      </trkpt>
      <trkpt lat="48.03873" lon="16.29374">
        <ele>224.699568</ele>
        <time>2026-07-07T09:55:44.000Z</time>
      </trkpt>
      <trkpt lat="48.03869" lon="16.29369">
        <ele>224.740511</ele>
        <time>2026-07-07T09:55:45.000Z</time>
      </trkpt>
      <trkpt lat="48.03865" lon="16.29364">
        <ele>224.783183</ele>
        <time>2026-07-07T09:55:46.000Z</time>
      </trkpt>
      <trkpt lat="48.03861" lon="16.2936">
        <ele>224.824301</ele>
        <time>2026-07-07T09:55:47.000Z</time>
      </trkpt>
      <trkpt lat="48.03856" lon="16.29355">
        <ele>224.865794</ele>
        <time>2026-07-07T09:55:48.000Z</time>
      </trkpt>
      <trkpt lat="48.03852" lon="16.29351">
        <ele>224.906331</ele>
        <time>2026-07-07T09:55:49.000Z</time>
      </trkpt>
      <trkpt lat="48.03848" lon="16.29347">
        <ele>224.948029</ele>
        <time>2026-07-07T09:55:50.000Z</time>
      </trkpt>
      <trkpt lat="48.03844" lon="16.29342">
        <ele>224.990366</ele>
        <time>2026-07-07T09:55:51.000Z</time>
      </trkpt>
      <trkpt lat="48.03839" lon="16.29337">
        <ele>225.032085</ele>
        <time>2026-07-07T09:55:52.000Z</time>
      </trkpt>
      <trkpt lat="48.03835" lon="16.29333">
        <ele>225.074457</ele>
        <time>2026-07-07T09:55:53.000Z</time>
      </trkpt>
      <trkpt lat="48.0383" lon="16.29328">
        <ele>225.117488</ele>
        <time>2026-07-07T09:55:54.000Z</time>
      </trkpt>
      <trkpt lat="48.03826" lon="16.29324">
        <ele>225.159207</ele>
        <time>2026-07-07T09:55:55.000Z</time>
      </trkpt>
      <trkpt lat="48.03822" lon="16.29319">
        <ele>225.202535</ele>
        <time>2026-07-07T09:55:56.000Z</time>
      </trkpt>
      <trkpt lat="48.03817" lon="16.29315">
        <ele>225.243298</ele>
        <time>2026-07-07T09:55:57.000Z</time>
      </trkpt>
      <trkpt lat="48.03814" lon="16.29311">
        <ele>225.279635</ele>
        <time>2026-07-07T09:55:58.000Z</time>
      </trkpt>
      <trkpt lat="48.0381" lon="16.29307">
        <ele>225.314015</ele>
        <time>2026-07-07T09:55:59.000Z</time>
      </trkpt>
      <trkpt lat="48.03807" lon="16.29304">
        <ele>225.343716</ele>
        <time>2026-07-07T09:56:00.000Z</time>
      </trkpt>
      <trkpt lat="48.03805" lon="16.293">
        <ele>225.367389</ele>
        <time>2026-07-07T09:56:01.000Z</time>
      </trkpt>
      <trkpt lat="48.03804" lon="16.29298">
        <ele>225.38526</ele>
        <time>2026-07-07T09:56:02.000Z</time>
      </trkpt>
      <trkpt lat="48.03802" lon="16.29296">
        <ele>225.398987</ele>
        <time>2026-07-07T09:56:03.000Z</time>
      </trkpt>
      <trkpt lat="48.03801" lon="16.29294">
        <ele>225.414377</ele>
        <time>2026-07-07T09:56:04.000Z</time>
      </trkpt>
      <trkpt lat="48.03799" lon="16.29292">
        <ele>225.432524</ele>
        <time>2026-07-07T09:56:05.000Z</time>
      </trkpt>
      <trkpt lat="48.03796" lon="16.2929">
        <ele>225.458343</ele>
        <time>2026-07-07T09:56:06.000Z</time>
      </trkpt>
      <trkpt lat="48.03793" lon="16.29287">
        <ele>225.48713</ele>
        <time>2026-07-07T09:56:07.000Z</time>
      </trkpt>
      <trkpt lat="48.03789" lon="16.29284">
        <ele>225.521753</ele>
        <time>2026-07-07T09:56:08.000Z</time>
      </trkpt>
      <trkpt lat="48.03785" lon="16.29281">
        <ele>225.559698</ele>
        <time>2026-07-07T09:56:09.000Z</time>
      </trkpt>
      <trkpt lat="48.03781" lon="16.29277">
        <ele>225.600519</ele>
        <time>2026-07-07T09:56:10.000Z</time>
      </trkpt>
      <trkpt lat="48.03776" lon="16.29273">
        <ele>225.635122</ele>
        <time>2026-07-07T09:56:11.000Z</time>
      </trkpt>
      <trkpt lat="48.03771" lon="16.29269">
        <ele>225.646844</ele>
        <time>2026-07-07T09:56:12.000Z</time>
      </trkpt>
      <trkpt lat="48.03767" lon="16.29264">
        <ele>225.658903</ele>
        <time>2026-07-07T09:56:13.000Z</time>
      </trkpt>
      <trkpt lat="48.03762" lon="16.2926">
        <ele>225.6706</ele>
        <time>2026-07-07T09:56:14.000Z</time>
      </trkpt>
      <trkpt lat="48.03758" lon="16.29255">
        <ele>225.682461</ele>
        <time>2026-07-07T09:56:15.000Z</time>
      </trkpt>
      <trkpt lat="48.03753" lon="16.2925">
        <ele>225.694404</ele>
        <time>2026-07-07T09:56:16.000Z</time>
      </trkpt>
      <trkpt lat="48.03749" lon="16.29245">
        <ele>225.706348</ele>
        <time>2026-07-07T09:56:17.000Z</time>
      </trkpt>
      <trkpt lat="48.03744" lon="16.29241">
        <ele>225.718407</ele>
        <time>2026-07-07T09:56:18.000Z</time>
      </trkpt>
      <trkpt lat="48.03739" lon="16.29236">
        <ele>225.730445</ele>
        <time>2026-07-07T09:56:19.000Z</time>
      </trkpt>
      <trkpt lat="48.03735" lon="16.29232">
        <ele>225.742142</ele>
        <time>2026-07-07T09:56:20.000Z</time>
      </trkpt>
      <trkpt lat="48.0373" lon="16.29227">
        <ele>225.75444</ele>
        <time>2026-07-07T09:56:21.000Z</time>
      </trkpt>
      <trkpt lat="48.03726" lon="16.29222">
        <ele>225.766138</ele>
        <time>2026-07-07T09:56:22.000Z</time>
      </trkpt>
      <trkpt lat="48.03721" lon="16.29218">
        <ele>225.778355</ele>
        <time>2026-07-07T09:56:23.000Z</time>
      </trkpt>
      <trkpt lat="48.03716" lon="16.29213">
        <ele>225.790596</ele>
        <time>2026-07-07T09:56:24.000Z</time>
      </trkpt>
      <trkpt lat="48.03711" lon="16.29208">
        <ele>225.802895</ele>
        <time>2026-07-07T09:56:25.000Z</time>
      </trkpt>
      <trkpt lat="48.03707" lon="16.29203">
        <ele>225.815008</ele>
        <time>2026-07-07T09:56:26.000Z</time>
      </trkpt>
      <trkpt lat="48.03702" lon="16.29199">
        <ele>225.827046</ele>
        <time>2026-07-07T09:56:27.000Z</time>
      </trkpt>
      <trkpt lat="48.03698" lon="16.29194">
        <ele>225.839264</ele>
        <time>2026-07-07T09:56:28.000Z</time>
      </trkpt>
      <trkpt lat="48.03693" lon="16.29189">
        <ele>225.851323</ele>
        <time>2026-07-07T09:56:29.000Z</time>
      </trkpt>
      <trkpt lat="48.03688" lon="16.29185">
        <ele>225.862862</ele>
        <time>2026-07-07T09:56:30.000Z</time>
      </trkpt>
      <trkpt lat="48.03684" lon="16.29181">
        <ele>225.874584</ele>
        <time>2026-07-07T09:56:31.000Z</time>
      </trkpt>
      <trkpt lat="48.03679" lon="16.29176">
        <ele>225.886444</ele>
        <time>2026-07-07T09:56:32.000Z</time>
      </trkpt>
      <trkpt lat="48.03675" lon="16.29171">
        <ele>225.898128</ele>
        <time>2026-07-07T09:56:33.000Z</time>
      </trkpt>
      <trkpt lat="48.03671" lon="16.29167">
        <ele>225.909203</ele>
        <time>2026-07-07T09:56:34.000Z</time>
      </trkpt>
      <trkpt lat="48.03666" lon="16.29162">
        <ele>225.920821</ele>
        <time>2026-07-07T09:56:35.000Z</time>
      </trkpt>
      <trkpt lat="48.03662" lon="16.29158">
        <ele>225.932023</ele>
        <time>2026-07-07T09:56:36.000Z</time>
      </trkpt>
      <trkpt lat="48.03658" lon="16.29154">
        <ele>225.943282</ele>
        <time>2026-07-07T09:56:37.000Z</time>
      </trkpt>
      <trkpt lat="48.03653" lon="16.2915">
        <ele>225.954301</ele>
        <time>2026-07-07T09:56:38.000Z</time>
      </trkpt>
      <trkpt lat="48.03649" lon="16.29145">
        <ele>225.965465</ele>
        <time>2026-07-07T09:56:39.000Z</time>
      </trkpt>
      <trkpt lat="48.03645" lon="16.29141">
        <ele>225.976806</ele>
        <time>2026-07-07T09:56:40.000Z</time>
      </trkpt>
      <trkpt lat="48.0364" lon="16.29136">
        <ele>225.988324</ele>
        <time>2026-07-07T09:56:41.000Z</time>
      </trkpt>
      <trkpt lat="48.03636" lon="16.29132">
        <ele>225.999583</ele>
        <time>2026-07-07T09:56:42.000Z</time>
      </trkpt>
      <trkpt lat="48.03632" lon="16.29127">
        <ele>226.010924</ele>
        <time>2026-07-07T09:56:43.000Z</time>
      </trkpt>
      <trkpt lat="48.03627" lon="16.29123">
        <ele>226.025717</ele>
        <time>2026-07-07T09:56:44.000Z</time>
      </trkpt>
      <trkpt lat="48.03623" lon="16.29119">
        <ele>226.053369</ele>
        <time>2026-07-07T09:56:45.000Z</time>
      </trkpt>
      <trkpt lat="48.03618" lon="16.29114">
        <ele>226.081582</ele>
        <time>2026-07-07T09:56:46.000Z</time>
      </trkpt>
      <trkpt lat="48.03614" lon="16.2911">
        <ele>226.109606</ele>
        <time>2026-07-07T09:56:47.000Z</time>
      </trkpt>
      <trkpt lat="48.03609" lon="16.29106">
        <ele>226.137629</ele>
        <time>2026-07-07T09:56:48.000Z</time>
      </trkpt>
      <trkpt lat="48.03605" lon="16.29102">
        <ele>226.165021</ele>
        <time>2026-07-07T09:56:49.000Z</time>
      </trkpt>
      <trkpt lat="48.03601" lon="16.29098">
        <ele>226.191595</ele>
        <time>2026-07-07T09:56:50.000Z</time>
      </trkpt>
      <trkpt lat="48.03596" lon="16.29094">
        <ele>226.217354</ele>
        <time>2026-07-07T09:56:51.000Z</time>
      </trkpt>
      <trkpt lat="48.03593" lon="16.2909">
        <ele>226.241149</ele>
        <time>2026-07-07T09:56:52.000Z</time>
      </trkpt>
      <trkpt lat="48.03589" lon="16.29087">
        <ele>226.262676</ele>
        <time>2026-07-07T09:56:53.000Z</time>
      </trkpt>
      <trkpt lat="48.03586" lon="16.29085">
        <ele>226.281308</ele>
        <time>2026-07-07T09:56:54.000Z</time>
      </trkpt>
      <trkpt lat="48.03583" lon="16.29082">
        <ele>226.297906</ele>
        <time>2026-07-07T09:56:55.000Z</time>
      </trkpt>
      <trkpt lat="48.0358" lon="16.2908">
        <ele>226.314669</ele>
        <time>2026-07-07T09:56:56.000Z</time>
      </trkpt>
      <trkpt lat="48.03577" lon="16.29078">
        <ele>226.333615</ele>
        <time>2026-07-07T09:56:57.000Z</time>
      </trkpt>
      <trkpt lat="48.03573" lon="16.29075">
        <ele>226.354921</ele>
        <time>2026-07-07T09:56:58.000Z</time>
      </trkpt>
      <trkpt lat="48.03569" lon="16.29072">
        <ele>226.378574</ele>
        <time>2026-07-07T09:56:59.000Z</time>
      </trkpt>
      <trkpt lat="48.03565" lon="16.29069">
        <ele>226.405063</ele>
        <time>2026-07-07T09:57:00.000Z</time>
      </trkpt>
      <trkpt lat="48.03561" lon="16.29065">
        <ele>226.431637</ele>
        <time>2026-07-07T09:57:01.000Z</time>
      </trkpt>
      <trkpt lat="48.03556" lon="16.29061">
        <ele>226.457847</ele>
        <time>2026-07-07T09:57:02.000Z</time>
      </trkpt>
      <trkpt lat="48.03552" lon="16.29057">
        <ele>226.484868</ele>
        <time>2026-07-07T09:57:03.000Z</time>
      </trkpt>
      <trkpt lat="48.03548" lon="16.29053">
        <ele>226.510557</ele>
        <time>2026-07-07T09:57:04.000Z</time>
      </trkpt>
      <trkpt lat="48.03543" lon="16.29049">
        <ele>226.537397</ele>
        <time>2026-07-07T09:57:05.000Z</time>
      </trkpt>
      <trkpt lat="48.03539" lon="16.29045">
        <ele>226.56328</ele>
        <time>2026-07-07T09:57:06.000Z</time>
      </trkpt>
      <trkpt lat="48.03535" lon="16.2904">
        <ele>226.591056</ele>
        <time>2026-07-07T09:57:07.000Z</time>
      </trkpt>
      <trkpt lat="48.03531" lon="16.29036">
        <ele>226.61763</ele>
        <time>2026-07-07T09:57:08.000Z</time>
      </trkpt>
      <trkpt lat="48.03526" lon="16.29032">
        <ele>226.64395</ele>
        <time>2026-07-07T09:57:09.000Z</time>
      </trkpt>
      <trkpt lat="48.03522" lon="16.29028">
        <ele>226.669638</ele>
        <time>2026-07-07T09:57:10.000Z</time>
      </trkpt>
      <trkpt lat="48.03518" lon="16.29024">
        <ele>226.696479</ele>
        <time>2026-07-07T09:57:11.000Z</time>
      </trkpt>
      <trkpt lat="48.03514" lon="16.2902">
        <ele>226.722168</ele>
        <time>2026-07-07T09:57:12.000Z</time>
      </trkpt>
      <trkpt lat="48.03509" lon="16.29016">
        <ele>226.749189</ele>
        <time>2026-07-07T09:57:13.000Z</time>
      </trkpt>
      <trkpt lat="48.03505" lon="16.29012">
        <ele>226.77666</ele>
        <time>2026-07-07T09:57:14.000Z</time>
      </trkpt>
      <trkpt lat="48.03501" lon="16.29008">
        <ele>226.803234</ele>
        <time>2026-07-07T09:57:15.000Z</time>
      </trkpt>
      <trkpt lat="48.03496" lon="16.29005">
        <ele>226.831271</ele>
        <time>2026-07-07T09:57:16.000Z</time>
      </trkpt>
      <trkpt lat="48.03491" lon="16.29001">
        <ele>226.858742</ele>
        <time>2026-07-07T09:57:17.000Z</time>
      </trkpt>
      <trkpt lat="48.03487" lon="16.28996">
        <ele>226.887025</ele>
        <time>2026-07-07T09:57:18.000Z</time>
      </trkpt>
      <trkpt lat="48.03482" lon="16.28992">
        <ele>226.915432</ele>
        <time>2026-07-07T09:57:19.000Z</time>
      </trkpt>
      <trkpt lat="48.03478" lon="16.28987">
        <ele>226.943405</ele>
        <time>2026-07-07T09:57:20.000Z</time>
      </trkpt>
      <trkpt lat="48.03473" lon="16.28983">
        <ele>226.979097</ele>
        <time>2026-07-07T09:57:21.000Z</time>
      </trkpt>
      <trkpt lat="48.03469" lon="16.28979">
        <ele>227.033923</ele>
        <time>2026-07-07T09:57:22.000Z</time>
      </trkpt>
      <trkpt lat="48.03464" lon="16.28974">
        <ele>227.090276</ele>
        <time>2026-07-07T09:57:23.000Z</time>
      </trkpt>
      <trkpt lat="48.0346" lon="16.28969">
        <ele>227.14579</ele>
        <time>2026-07-07T09:57:24.000Z</time>
      </trkpt>
      <trkpt lat="48.03456" lon="16.28964">
        <ele>227.199313</ele>
        <time>2026-07-07T09:57:25.000Z</time>
      </trkpt>
      <trkpt lat="48.03452" lon="16.2896">
        <ele>227.253196</ele>
        <time>2026-07-07T09:57:26.000Z</time>
      </trkpt>
      <trkpt lat="48.03447" lon="16.28955">
        <ele>227.309159</ele>
        <time>2026-07-07T09:57:27.000Z</time>
      </trkpt>
      <trkpt lat="48.03443" lon="16.28951">
        <ele>227.364737</ele>
        <time>2026-07-07T09:57:28.000Z</time>
      </trkpt>
      <trkpt lat="48.03438" lon="16.28946">
        <ele>227.421887</ele>
        <time>2026-07-07T09:57:29.000Z</time>
      </trkpt>
      <trkpt lat="48.03434" lon="16.28941">
        <ele>227.476166</ele>
        <time>2026-07-07T09:57:30.000Z</time>
      </trkpt>
      <trkpt lat="48.0343" lon="16.28937">
        <ele>227.529211</ele>
        <time>2026-07-07T09:57:31.000Z</time>
      </trkpt>
      <trkpt lat="48.03426" lon="16.28933">
        <ele>227.57939</ele>
        <time>2026-07-07T09:57:32.000Z</time>
      </trkpt>
      <trkpt lat="48.03421" lon="16.28929">
        <ele>227.629788</ele>
        <time>2026-07-07T09:57:33.000Z</time>
      </trkpt>
      <trkpt lat="48.03418" lon="16.28925">
        <ele>227.676343</ele>
        <time>2026-07-07T09:57:34.000Z</time>
      </trkpt>
      <trkpt lat="48.03413" lon="16.28921">
        <ele>227.727622</ele>
        <time>2026-07-07T09:57:35.000Z</time>
      </trkpt>
      <trkpt lat="48.03409" lon="16.28917">
        <ele>227.780134</ele>
        <time>2026-07-07T09:57:36.000Z</time>
      </trkpt>
      <trkpt lat="48.03405" lon="16.28913">
        <ele>227.830394</ele>
        <time>2026-07-07T09:57:37.000Z</time>
      </trkpt>
      <trkpt lat="48.03401" lon="16.28909">
        <ele>227.881888</ele>
        <time>2026-07-07T09:57:38.000Z</time>
      </trkpt>
      <trkpt lat="48.03396" lon="16.28905">
        <ele>227.933879</ele>
        <time>2026-07-07T09:57:39.000Z</time>
      </trkpt>
      <trkpt lat="48.03392" lon="16.28901">
        <ele>227.986745</ele>
        <time>2026-07-07T09:57:40.000Z</time>
      </trkpt>
      <trkpt lat="48.03387" lon="16.28897">
        <ele>228.040143</ele>
        <time>2026-07-07T09:57:41.000Z</time>
      </trkpt>
      <trkpt lat="48.03383" lon="16.28893">
        <ele>228.092135</ele>
        <time>2026-07-07T09:57:42.000Z</time>
      </trkpt>
      <trkpt lat="48.03379" lon="16.28889">
        <ele>228.146234</ele>
        <time>2026-07-07T09:57:43.000Z</time>
      </trkpt>
      <trkpt lat="48.03374" lon="16.28885">
        <ele>228.201812</ele>
        <time>2026-07-07T09:57:44.000Z</time>
      </trkpt>
      <trkpt lat="48.0337" lon="16.2888">
        <ele>228.257012</ele>
        <time>2026-07-07T09:57:45.000Z</time>
      </trkpt>
      <trkpt lat="48.03365" lon="16.28876">
        <ele>228.311112</ele>
        <time>2026-07-07T09:57:46.000Z</time>
      </trkpt>
      <trkpt lat="48.03361" lon="16.28872">
        <ele>228.366311</ele>
        <time>2026-07-07T09:57:47.000Z</time>
      </trkpt>
      <trkpt lat="48.03356" lon="16.28868">
        <ele>228.422879</ele>
        <time>2026-07-07T09:57:48.000Z</time>
      </trkpt>
      <trkpt lat="48.03351" lon="16.28863">
        <ele>228.477706</ele>
        <time>2026-07-07T09:57:49.000Z</time>
      </trkpt>
      <trkpt lat="48.03347" lon="16.28859">
        <ele>228.530435</ele>
        <time>2026-07-07T09:57:50.000Z</time>
      </trkpt>
      <trkpt lat="48.03343" lon="16.28855">
        <ele>228.584896</ele>
        <time>2026-07-07T09:57:51.000Z</time>
      </trkpt>
      <trkpt lat="48.03338" lon="16.28851">
        <ele>228.637253</ele>
        <time>2026-07-07T09:57:52.000Z</time>
      </trkpt>
      <trkpt lat="48.03334" lon="16.28846">
        <ele>228.691981</ele>
        <time>2026-07-07T09:57:53.000Z</time>
      </trkpt>
      <trkpt lat="48.0333" lon="16.28842">
        <ele>228.745864</ele>
        <time>2026-07-07T09:57:54.000Z</time>
      </trkpt>
      <trkpt lat="48.03325" lon="16.28837">
        <ele>228.802793</ele>
        <time>2026-07-07T09:57:55.000Z</time>
      </trkpt>
      <trkpt lat="48.0332" lon="16.28833">
        <ele>228.83113</ele>
        <time>2026-07-07T09:57:56.000Z</time>
      </trkpt>
      <trkpt lat="48.03316" lon="16.28828">
        <ele>228.854784</ele>
        <time>2026-07-07T09:57:57.000Z</time>
      </trkpt>
      <trkpt lat="48.03311" lon="16.28824">
        <ele>228.878437</ele>
        <time>2026-07-07T09:57:58.000Z</time>
      </trkpt>
      <trkpt lat="48.03307" lon="16.2882">
        <ele>228.901836</ele>
        <time>2026-07-07T09:57:59.000Z</time>
      </trkpt>
      <trkpt lat="48.03302" lon="16.28815">
        <ele>228.92549</ele>
        <time>2026-07-07T09:58:00.000Z</time>
      </trkpt>
      <trkpt lat="48.03298" lon="16.28811">
        <ele>228.948298</ele>
        <time>2026-07-07T09:58:01.000Z</time>
      </trkpt>
      <trkpt lat="48.03293" lon="16.28807">
        <ele>228.971476</ele>
        <time>2026-07-07T09:58:02.000Z</time>
      </trkpt>
      <trkpt lat="48.03289" lon="16.28803">
        <ele>228.992553</ele>
        <time>2026-07-07T09:58:03.000Z</time>
      </trkpt>
      <trkpt lat="48.03285" lon="16.28799">
        <ele>229.013259</ele>
        <time>2026-07-07T09:58:04.000Z</time>
      </trkpt>
      <trkpt lat="48.03281" lon="16.28796">
        <ele>229.03344</ele>
        <time>2026-07-07T09:58:05.000Z</time>
      </trkpt>
      <trkpt lat="48.03278" lon="16.28792">
        <ele>229.052527</ele>
        <time>2026-07-07T09:58:06.000Z</time>
      </trkpt>
      <trkpt lat="48.03274" lon="16.28788">
        <ele>229.071088</ele>
        <time>2026-07-07T09:58:07.000Z</time>
      </trkpt>
      <trkpt lat="48.03271" lon="16.28785">
        <ele>229.088411</ele>
        <time>2026-07-07T09:58:08.000Z</time>
      </trkpt>
      <trkpt lat="48.03268" lon="16.28782">
        <ele>229.102936</ele>
        <time>2026-07-07T09:58:09.000Z</time>
      </trkpt>
      <trkpt lat="48.03266" lon="16.28779">
        <ele>229.11536</ele>
        <time>2026-07-07T09:58:10.000Z</time>
      </trkpt>
      <trkpt lat="48.03264" lon="16.28777">
        <ele>229.128501</ele>
        <time>2026-07-07T09:58:11.000Z</time>
      </trkpt>
      <trkpt lat="48.03261" lon="16.28774">
        <ele>229.144774</ele>
        <time>2026-07-07T09:58:12.000Z</time>
      </trkpt>
      <trkpt lat="48.03257" lon="16.2877">
        <ele>229.163598</ele>
        <time>2026-07-07T09:58:13.000Z</time>
      </trkpt>
      <trkpt lat="48.03253" lon="16.28767">
        <ele>229.182947</ele>
        <time>2026-07-07T09:58:14.000Z</time>
      </trkpt>
      <trkpt lat="48.03249" lon="16.28763">
        <ele>229.203973</ele>
        <time>2026-07-07T09:58:15.000Z</time>
      </trkpt>
      <trkpt lat="48.03245" lon="16.28759">
        <ele>229.22573</ele>
        <time>2026-07-07T09:58:16.000Z</time>
      </trkpt>
      <trkpt lat="48.03241" lon="16.28755">
        <ele>229.247554</ele>
        <time>2026-07-07T09:58:17.000Z</time>
      </trkpt>
      <trkpt lat="48.03236" lon="16.28751">
        <ele>229.269003</ele>
        <time>2026-07-07T09:58:18.000Z</time>
      </trkpt>
      <trkpt lat="48.03232" lon="16.28747">
        <ele>229.291445</ele>
        <time>2026-07-07T09:58:19.000Z</time>
      </trkpt>
      <trkpt lat="48.03228" lon="16.28743">
        <ele>229.313522</ele>
        <time>2026-07-07T09:58:20.000Z</time>
      </trkpt>
      <trkpt lat="48.03223" lon="16.28739">
        <ele>229.336546</ele>
        <time>2026-07-07T09:58:21.000Z</time>
      </trkpt>
      <trkpt lat="48.03219" lon="16.28735">
        <ele>229.358674</ele>
        <time>2026-07-07T09:58:22.000Z</time>
      </trkpt>
      <trkpt lat="48.03215" lon="16.28731">
        <ele>229.381852</ele>
        <time>2026-07-07T09:58:23.000Z</time>
      </trkpt>
      <trkpt lat="48.0321" lon="16.28726">
        <ele>229.405186</ele>
        <time>2026-07-07T09:58:24.000Z</time>
      </trkpt>
      <trkpt lat="48.03205" lon="16.28722">
        <ele>229.429109</ele>
        <time>2026-07-07T09:58:25.000Z</time>
      </trkpt>
      <trkpt lat="48.03201" lon="16.28718">
        <ele>229.452443</ele>
        <time>2026-07-07T09:58:26.000Z</time>
      </trkpt>
      <trkpt lat="48.03196" lon="16.28713">
        <ele>229.475936</ele>
        <time>2026-07-07T09:58:27.000Z</time>
      </trkpt>
      <trkpt lat="48.03192" lon="16.28709">
        <ele>229.498961</ele>
        <time>2026-07-07T09:58:28.000Z</time>
      </trkpt>
      <trkpt lat="48.03187" lon="16.28705">
        <ele>229.522139</ele>
        <time>2026-07-07T09:58:29.000Z</time>
      </trkpt>
      <trkpt lat="48.03183" lon="16.28701">
        <ele>229.544266</ele>
        <time>2026-07-07T09:58:30.000Z</time>
      </trkpt>
      <trkpt lat="48.03179" lon="16.28697">
        <ele>229.567444</ele>
        <time>2026-07-07T09:58:31.000Z</time>
      </trkpt>
      <trkpt lat="48.03174" lon="16.28693">
        <ele>229.590469</ele>
        <time>2026-07-07T09:58:32.000Z</time>
      </trkpt>
      <trkpt lat="48.0317" lon="16.28688">
        <ele>229.617814</ele>
        <time>2026-07-07T09:58:33.000Z</time>
      </trkpt>
      <trkpt lat="48.03165" lon="16.28684">
        <ele>229.647671</ele>
        <time>2026-07-07T09:58:34.000Z</time>
      </trkpt>
      <trkpt lat="48.03161" lon="16.2868">
        <ele>229.678283</ele>
        <time>2026-07-07T09:58:35.000Z</time>
      </trkpt>
      <trkpt lat="48.03156" lon="16.28676">
        <ele>229.709088</ele>
        <time>2026-07-07T09:58:36.000Z</time>
      </trkpt>
      <trkpt lat="48.03151" lon="16.28671">
        <ele>229.740181</ele>
        <time>2026-07-07T09:58:37.000Z</time>
      </trkpt>
      <trkpt lat="48.03146" lon="16.28667">
        <ele>229.771465</ele>
        <time>2026-07-07T09:58:38.000Z</time>
      </trkpt>
      <trkpt lat="48.03141" lon="16.28663">
        <ele>229.804092</ele>
        <time>2026-07-07T09:58:39.000Z</time>
      </trkpt>
      <trkpt lat="48.03137" lon="16.28658">
        <ele>229.835294</ele>
        <time>2026-07-07T09:58:40.000Z</time>
      </trkpt>
      <trkpt lat="48.03132" lon="16.28654">
        <ele>229.866099</ele>
        <time>2026-07-07T09:58:41.000Z</time>
      </trkpt>
      <trkpt lat="48.03127" lon="16.28649">
        <ele>229.896629</ele>
        <time>2026-07-07T09:58:42.000Z</time>
      </trkpt>
      <trkpt lat="48.03123" lon="16.28645">
        <ele>229.926895</ele>
        <time>2026-07-07T09:58:43.000Z</time>
      </trkpt>
      <trkpt lat="48.03118" lon="16.28641">
        <ele>229.956283</ele>
        <time>2026-07-07T09:58:44.000Z</time>
      </trkpt>
      <trkpt lat="48.03114" lon="16.28636">
        <ele>229.986549</ele>
        <time>2026-07-07T09:58:45.000Z</time>
      </trkpt>
      <trkpt lat="48.03109" lon="16.28632">
        <ele>230.016407</ele>
        <time>2026-07-07T09:58:46.000Z</time>
      </trkpt>
      <trkpt lat="48.03105" lon="16.28627">
        <ele>230.045537</ele>
        <time>2026-07-07T09:58:47.000Z</time>
      </trkpt>
      <trkpt lat="48.03101" lon="16.28623">
        <ele>230.07405</ele>
        <time>2026-07-07T09:58:48.000Z</time>
      </trkpt>
      <trkpt lat="48.03096" lon="16.28619">
        <ele>230.103853</ele>
        <time>2026-07-07T09:58:49.000Z</time>
      </trkpt>
      <trkpt lat="48.03092" lon="16.28614">
        <ele>230.134541</ele>
        <time>2026-07-07T09:58:50.000Z</time>
      </trkpt>
      <trkpt lat="48.03087" lon="16.28609">
        <ele>230.165445</ele>
        <time>2026-07-07T09:58:51.000Z</time>
      </trkpt>
      <trkpt lat="48.03083" lon="16.28605">
        <ele>230.196134</ele>
        <time>2026-07-07T09:58:52.000Z</time>
      </trkpt>
      <trkpt lat="48.03078" lon="16.286">
        <ele>230.226867</ele>
        <time>2026-07-07T09:58:53.000Z</time>
      </trkpt>
      <trkpt lat="48.03074" lon="16.28596">
        <ele>230.257672</ele>
        <time>2026-07-07T09:58:54.000Z</time>
      </trkpt>
      <trkpt lat="48.03069" lon="16.28591">
        <ele>230.288361</ele>
        <time>2026-07-07T09:58:55.000Z</time>
      </trkpt>
      <trkpt lat="48.03064" lon="16.28587">
        <ele>230.319563</ele>
        <time>2026-07-07T09:58:56.000Z</time>
      </trkpt>
      <trkpt lat="48.0306" lon="16.28582">
        <ele>230.348906</ele>
        <time>2026-07-07T09:58:57.000Z</time>
      </trkpt>
      <trkpt lat="48.03056" lon="16.28578">
        <ele>230.379173</ele>
        <time>2026-07-07T09:58:58.000Z</time>
      </trkpt>
      <trkpt lat="48.03051" lon="16.28573">
        <ele>230.407888</ele>
        <time>2026-07-07T09:58:59.000Z</time>
      </trkpt>
      <trkpt lat="48.03047" lon="16.28569">
        <ele>230.437745</ele>
        <time>2026-07-07T09:59:00.000Z</time>
      </trkpt>
      <trkpt lat="48.03042" lon="16.28565">
        <ele>230.467133</ele>
        <time>2026-07-07T09:59:01.000Z</time>
      </trkpt>
      <trkpt lat="48.03038" lon="16.28561">
        <ele>230.495848</ele>
        <time>2026-07-07T09:59:02.000Z</time>
      </trkpt>
      <trkpt lat="48.03034" lon="16.28556">
        <ele>230.523391</ele>
        <time>2026-07-07T09:59:03.000Z</time>
      </trkpt>
      <trkpt lat="48.0303" lon="16.28552">
        <ele>230.55164</ele>
        <time>2026-07-07T09:59:04.000Z</time>
      </trkpt>
      <trkpt lat="48.03026" lon="16.28548">
        <ele>230.57901</ele>
        <time>2026-07-07T09:59:05.000Z</time>
      </trkpt>
      <trkpt lat="48.03022" lon="16.28544">
        <ele>230.60275</ele>
        <time>2026-07-07T09:59:06.000Z</time>
      </trkpt>
      <trkpt lat="48.03017" lon="16.28539">
        <ele>230.604379</ele>
        <time>2026-07-07T09:59:07.000Z</time>
      </trkpt>
      <trkpt lat="48.03013" lon="16.28535">
        <ele>230.605969</ele>
        <time>2026-07-07T09:59:08.000Z</time>
      </trkpt>
      <trkpt lat="48.03009" lon="16.28531">
        <ele>230.607586</ele>
        <time>2026-07-07T09:59:10.000Z</time>
      </trkpt>
      <trkpt lat="48.03005" lon="16.28526">
        <ele>230.609163</ele>
        <time>2026-07-07T09:59:11.000Z</time>
      </trkpt>
      <trkpt lat="48.03001" lon="16.28522">
        <ele>230.610756</ele>
        <time>2026-07-07T09:59:12.000Z</time>
      </trkpt>
      <trkpt lat="48.02997" lon="16.28518">
        <ele>230.612334</ele>
        <time>2026-07-07T09:59:13.000Z</time>
      </trkpt>
      <trkpt lat="48.02993" lon="16.28514">
        <ele>230.613939</ele>
        <time>2026-07-07T09:59:14.000Z</time>
      </trkpt>
      <trkpt lat="48.02989" lon="16.2851">
        <ele>230.615452</ele>
        <time>2026-07-07T09:59:15.000Z</time>
      </trkpt>
      <trkpt lat="48.02985" lon="16.28506">
        <ele>230.61698</ele>
        <time>2026-07-07T09:59:16.000Z</time>
      </trkpt>
      <trkpt lat="48.02981" lon="16.28502">
        <ele>230.618562</ele>
        <time>2026-07-07T09:59:17.000Z</time>
      </trkpt>
      <trkpt lat="48.02977" lon="16.28498">
        <ele>230.620067</ele>
        <time>2026-07-07T09:59:18.000Z</time>
      </trkpt>
      <trkpt lat="48.02973" lon="16.28494">
        <ele>230.621507</ele>
        <time>2026-07-07T09:59:19.000Z</time>
      </trkpt>
      <trkpt lat="48.02969" lon="16.2849">
        <ele>230.623009</ele>
        <time>2026-07-07T09:59:20.000Z</time>
      </trkpt>
      <trkpt lat="48.02965" lon="16.28486">
        <ele>230.624433</ele>
        <time>2026-07-07T09:59:21.000Z</time>
      </trkpt>
      <trkpt lat="48.02962" lon="16.28482">
        <ele>230.625686</ele>
        <time>2026-07-07T09:59:22.000Z</time>
      </trkpt>
      <trkpt lat="48.0296" lon="16.28478">
        <ele>230.626697</ele>
        <time>2026-07-07T09:59:23.000Z</time>
      </trkpt>
      <trkpt lat="48.02959" lon="16.28475">
        <ele>230.627553</ele>
        <time>2026-07-07T09:59:24.000Z</time>
      </trkpt>
      <trkpt lat="48.02957" lon="16.28474">
        <ele>230.62817</ele>
        <time>2026-07-07T09:59:25.000Z</time>
      </trkpt>
      <trkpt lat="48.02955" lon="16.28475">
        <ele>230.628797</ele>
        <time>2026-07-07T09:59:26.000Z</time>
      </trkpt>
      <trkpt lat="48.02954" lon="16.28477">
        <ele>230.629251</ele>
        <time>2026-07-07T09:59:27.000Z</time>
      </trkpt>
      <trkpt lat="48.02955" lon="16.28479">
        <ele>230.6297</ele>
        <time>2026-07-07T09:59:28.000Z</time>
      </trkpt>
      <trkpt lat="48.02957" lon="16.2848">
        <ele>230.630442</ele>
        <time>2026-07-07T09:59:29.000Z</time>
      </trkpt>
      <trkpt lat="48.02959" lon="16.28483">
        <ele>230.631304</ele>
        <time>2026-07-07T09:59:30.000Z</time>
      </trkpt>
      <trkpt lat="48.0296" lon="16.28487">
        <ele>230.632132</ele>
        <time>2026-07-07T09:59:31.000Z</time>
      </trkpt>
      <trkpt lat="48.02961" lon="16.28491">
        <ele>230.633071</ele>
        <time>2026-07-07T09:59:32.000Z</time>
      </trkpt>
      <trkpt lat="48.0296" lon="16.28495">
        <ele>230.633852</ele>
        <time>2026-07-07T09:59:33.000Z</time>
      </trkpt>
      <trkpt lat="48.02959" lon="16.28498">
        <ele>230.634538</ele>
        <time>2026-07-07T09:59:34.000Z</time>
      </trkpt>
      <trkpt lat="48.02958" lon="16.28501">
        <ele>230.635264</ele>
        <time>2026-07-07T09:59:35.000Z</time>
      </trkpt>
      <trkpt lat="48.02956" lon="16.28504">
        <ele>230.636163</ele>
        <time>2026-07-07T09:59:36.000Z</time>
      </trkpt>
      <trkpt lat="48.02953" lon="16.28507">
        <ele>230.637251</ele>
        <time>2026-07-07T09:59:37.000Z</time>
      </trkpt>
      <trkpt lat="48.02951" lon="16.28511">
        <ele>230.638466</ele>
        <time>2026-07-07T09:59:38.000Z</time>
      </trkpt>
      <trkpt lat="48.02948" lon="16.28515">
        <ele>230.639688</ele>
        <time>2026-07-07T09:59:39.000Z</time>
      </trkpt>
      <trkpt lat="48.02944" lon="16.28516">
        <ele>230.640905</ele>
        <time>2026-07-07T09:59:40.000Z</time>
      </trkpt>
      <trkpt lat="48.02941" lon="16.28514">
        <ele>230.642137</ele>
        <time>2026-07-07T09:59:41.000Z</time>
      </trkpt>
      <trkpt lat="48.02939" lon="16.28509">
        <ele>230.643338</ele>
        <time>2026-07-07T09:59:42.000Z</time>
      </trkpt>
      <trkpt lat="48.02937" lon="16.28504">
        <ele>230.644527</ele>
        <time>2026-07-07T09:59:43.000Z</time>
      </trkpt>
      <trkpt lat="48.02937" lon="16.28498">
        <ele>230.645674</ele>
        <time>2026-07-07T09:59:44.000Z</time>
      </trkpt>
      <trkpt lat="48.02937" lon="16.28493">
        <ele>230.646874</ele>
        <time>2026-07-07T09:59:45.000Z</time>
      </trkpt>
      <trkpt lat="48.02935" lon="16.28488">
        <ele>230.648117</ele>
        <time>2026-07-07T09:59:46.000Z</time>
      </trkpt>
      <trkpt lat="48.02932" lon="16.28483">
        <ele>230.649422</ele>
        <time>2026-07-07T09:59:47.000Z</time>
      </trkpt>
      <trkpt lat="48.02929" lon="16.2848">
        <ele>230.65076</ele>
        <time>2026-07-07T09:59:48.000Z</time>
      </trkpt>
      <trkpt lat="48.02925" lon="16.28476">
        <ele>230.652288</ele>
        <time>2026-07-07T09:59:49.000Z</time>
      </trkpt>
      <trkpt lat="48.0292" lon="16.28472">
        <ele>230.65395</ele>
        <time>2026-07-07T09:59:50.000Z</time>
      </trkpt>
      <trkpt lat="48.02916" lon="16.28468">
        <ele>230.65557</ele>
        <time>2026-07-07T09:59:51.000Z</time>
      </trkpt>
      <trkpt lat="48.02911" lon="16.28463">
        <ele>230.657331</ele>
        <time>2026-07-07T09:59:52.000Z</time>
      </trkpt>
      <trkpt lat="48.02907" lon="16.28459">
        <ele>230.659062</ele>
        <time>2026-07-07T09:59:53.000Z</time>
      </trkpt>
      <trkpt lat="48.02902" lon="16.28454">
        <ele>230.701226</ele>
        <time>2026-07-07T09:59:54.000Z</time>
      </trkpt>
      <trkpt lat="48.02897" lon="16.28449">
        <ele>230.759504</ele>
        <time>2026-07-07T09:59:55.000Z</time>
      </trkpt>
      <trkpt lat="48.02892" lon="16.28445">
        <ele>230.816552</ele>
        <time>2026-07-07T09:59:56.000Z</time>
      </trkpt>
      <trkpt lat="48.02888" lon="16.2844">
        <ele>230.874103</ele>
        <time>2026-07-07T09:59:57.000Z</time>
      </trkpt>
      <trkpt lat="48.02883" lon="16.28436">
        <ele>230.932393</ele>
        <time>2026-07-07T09:59:58.000Z</time>
      </trkpt>
      <trkpt lat="48.02878" lon="16.28432">
        <ele>230.991016</ele>
        <time>2026-07-07T09:59:59.000Z</time>
      </trkpt>
      <trkpt lat="48.02873" lon="16.28428">
        <ele>231.049976</ele>
        <time>2026-07-07T10:00:00.000Z</time>
      </trkpt>
      <trkpt lat="48.02868" lon="16.28423">
        <ele>231.107527</ele>
        <time>2026-07-07T10:00:01.000Z</time>
      </trkpt>
      <trkpt lat="48.02863" lon="16.28419">
        <ele>231.165492</ele>
        <time>2026-07-07T10:00:02.000Z</time>
      </trkpt>
      <trkpt lat="48.02853" lon="16.28413">
        <ele>231.27965</ele>
        <time>2026-07-07T10:00:03.000Z</time>
      </trkpt>
      <trkpt lat="48.02848" lon="16.28409">
        <ele>231.333653</ele>
        <time>2026-07-07T10:00:04.000Z</time>
      </trkpt>
      <trkpt lat="48.02843" lon="16.28405">
        <ele>231.387166</ele>
        <time>2026-07-07T10:00:05.000Z</time>
      </trkpt>
      <trkpt lat="48.02839" lon="16.28401">
        <ele>231.442503</ele>
        <time>2026-07-07T10:00:06.000Z</time>
      </trkpt>
      <trkpt lat="48.02835" lon="16.28396">
        <ele>231.496127</ele>
        <time>2026-07-07T10:00:07.000Z</time>
      </trkpt>
      <trkpt lat="48.02831" lon="16.28392">
        <ele>231.545676</ele>
        <time>2026-07-07T10:00:08.000Z</time>
      </trkpt>
      <trkpt lat="48.02827" lon="16.28387">
        <ele>231.598492</ele>
        <time>2026-07-07T10:00:09.000Z</time>
      </trkpt>
      <trkpt lat="48.02822" lon="16.28383">
        <ele>231.65137</ele>
        <time>2026-07-07T10:00:10.000Z</time>
      </trkpt>
      <trkpt lat="48.02818" lon="16.28378">
        <ele>231.702572</ele>
        <time>2026-07-07T10:00:11.000Z</time>
      </trkpt>
      <trkpt lat="48.02814" lon="16.28373">
        <ele>231.754573</ele>
        <time>2026-07-07T10:00:12.000Z</time>
      </trkpt>
      <trkpt lat="48.0281" lon="16.28369">
        <ele>231.808438</ele>
        <time>2026-07-07T10:00:13.000Z</time>
      </trkpt>
      <trkpt lat="48.02805" lon="16.28365">
        <ele>231.862492</ele>
        <time>2026-07-07T10:00:14.000Z</time>
      </trkpt>
      <trkpt lat="48.028" lon="16.28361">
        <ele>231.920569</ele>
        <time>2026-07-07T10:00:15.000Z</time>
      </trkpt>
      <trkpt lat="48.02796" lon="16.28357">
        <ele>231.97848</ele>
        <time>2026-07-07T10:00:16.000Z</time>
      </trkpt>
      <trkpt lat="48.02791" lon="16.28352">
        <ele>232.033818</ele>
        <time>2026-07-07T10:00:17.000Z</time>
      </trkpt>
      <trkpt lat="48.02786" lon="16.28347">
        <ele>232.091615</ele>
        <time>2026-07-07T10:00:18.000Z</time>
      </trkpt>
      <trkpt lat="48.02782" lon="16.28343">
        <ele>232.146953</ele>
        <time>2026-07-07T10:00:19.000Z</time>
      </trkpt>
      <trkpt lat="48.02777" lon="16.28338">
        <ele>232.203456</ele>
        <time>2026-07-07T10:00:20.000Z</time>
      </trkpt>
      <trkpt lat="48.02773" lon="16.28333">
        <ele>232.256684</ele>
        <time>2026-07-07T10:00:21.000Z</time>
      </trkpt>
      <trkpt lat="48.02769" lon="16.28329">
        <ele>232.312021</ele>
        <time>2026-07-07T10:00:22.000Z</time>
      </trkpt>
      <trkpt lat="48.02764" lon="16.28324">
        <ele>232.36907</ele>
        <time>2026-07-07T10:00:23.000Z</time>
      </trkpt>
      <trkpt lat="48.0276" lon="16.2832">
        <ele>232.42403</ele>
        <time>2026-07-07T10:00:24.000Z</time>
      </trkpt>
      <trkpt lat="48.02755" lon="16.28316">
        <ele>232.47862</ele>
        <time>2026-07-07T10:00:25.000Z</time>
      </trkpt>
      <trkpt lat="48.02751" lon="16.28311">
        <ele>232.532565</ele>
        <time>2026-07-07T10:00:26.000Z</time>
      </trkpt>
      <trkpt lat="48.02746" lon="16.28307">
        <ele>232.591061</ele>
        <time>2026-07-07T10:00:27.000Z</time>
      </trkpt>
      <trkpt lat="48.02741" lon="16.28302">
        <ele>232.650825</ele>
        <time>2026-07-07T10:00:28.000Z</time>
      </trkpt>
      <trkpt lat="48.02737" lon="16.28298">
        <ele>232.710082</ele>
        <time>2026-07-07T10:00:29.000Z</time>
      </trkpt>
      <trkpt lat="48.02732" lon="16.28293">
        <ele>232.769847</ele>
        <time>2026-07-07T10:00:30.000Z</time>
      </trkpt>
      <trkpt lat="48.02727" lon="16.28289">
        <ele>232.828343</ele>
        <time>2026-07-07T10:00:31.000Z</time>
      </trkpt>
      <trkpt lat="48.02722" lon="16.28285">
        <ele>232.88737</ele>
        <time>2026-07-07T10:00:32.000Z</time>
      </trkpt>
      <trkpt lat="48.02718" lon="16.2828">
        <ele>232.94513</ele>
        <time>2026-07-07T10:00:33.000Z</time>
      </trkpt>
      <trkpt lat="48.02713" lon="16.28276">
        <ele>233.001466</ele>
        <time>2026-07-07T10:00:34.000Z</time>
      </trkpt>
      <trkpt lat="48.02708" lon="16.28272">
        <ele>233.059591</ele>
        <time>2026-07-07T10:00:35.000Z</time>
      </trkpt>
      <trkpt lat="48.02704" lon="16.28267">
        <ele>233.11631</ele>
        <time>2026-07-07T10:00:36.000Z</time>
      </trkpt>
      <trkpt lat="48.02699" lon="16.28263">
        <ele>233.172445</ele>
        <time>2026-07-07T10:00:37.000Z</time>
      </trkpt>
      <trkpt lat="48.02695" lon="16.2826">
        <ele>233.226046</ele>
        <time>2026-07-07T10:00:38.000Z</time>
      </trkpt>
      <trkpt lat="48.02691" lon="16.28256">
        <ele>233.27769</ele>
        <time>2026-07-07T10:00:39.000Z</time>
      </trkpt>
      <trkpt lat="48.02687" lon="16.28252">
        <ele>233.330219</ele>
        <time>2026-07-07T10:00:40.000Z</time>
      </trkpt>
      <trkpt lat="48.02683" lon="16.28247">
        <ele>233.380068</ele>
        <time>2026-07-07T10:00:41.000Z</time>
      </trkpt>
      <trkpt lat="48.02679" lon="16.28243">
        <ele>233.429958</ele>
        <time>2026-07-07T10:00:42.000Z</time>
      </trkpt>
      <trkpt lat="48.02675" lon="16.2824">
        <ele>233.476444</ele>
        <time>2026-07-07T10:00:43.000Z</time>
      </trkpt>
      <trkpt lat="48.02671" lon="16.28236">
        <ele>233.525167</ele>
        <time>2026-07-07T10:00:44.000Z</time>
      </trkpt>
      <trkpt lat="48.02667" lon="16.28232">
        <ele>233.575159</ele>
        <time>2026-07-07T10:00:45.000Z</time>
      </trkpt>
      <trkpt lat="48.02663" lon="16.28228">
        <ele>233.629677</ele>
        <time>2026-07-07T10:00:46.000Z</time>
      </trkpt>
      <trkpt lat="48.02659" lon="16.28225">
        <ele>233.682013</ele>
        <time>2026-07-07T10:00:47.000Z</time>
      </trkpt>
      <trkpt lat="48.02654" lon="16.2822">
        <ele>233.740138</ele>
        <time>2026-07-07T10:00:48.000Z</time>
      </trkpt>
      <trkpt lat="48.0265" lon="16.28216">
        <ele>233.794319</ele>
        <time>2026-07-07T10:00:49.000Z</time>
      </trkpt>
      <trkpt lat="48.02645" lon="16.28212">
        <ele>233.848016</ele>
        <time>2026-07-07T10:00:50.000Z</time>
      </trkpt>
      <trkpt lat="48.02641" lon="16.28208">
        <ele>233.898779</ele>
        <time>2026-07-07T10:00:51.000Z</time>
      </trkpt>
      <trkpt lat="48.02637" lon="16.28204">
        <ele>233.948396</ele>
        <time>2026-07-07T10:00:52.000Z</time>
      </trkpt>
      <trkpt lat="48.02633" lon="16.28201">
        <ele>233.996589</ele>
        <time>2026-07-07T10:00:53.000Z</time>
      </trkpt>
      <trkpt lat="48.02629" lon="16.28197">
        <ele>234.046207</ele>
        <time>2026-07-07T10:00:54.000Z</time>
      </trkpt>
      <trkpt lat="48.02626" lon="16.28193">
        <ele>234.09229</ele>
        <time>2026-07-07T10:00:55.000Z</time>
      </trkpt>
      <trkpt lat="48.02622" lon="16.2819">
        <ele>234.137103</ele>
        <time>2026-07-07T10:00:56.000Z</time>
      </trkpt>
      <trkpt lat="48.02619" lon="16.28187">
        <ele>234.18038</ele>
        <time>2026-07-07T10:00:57.000Z</time>
      </trkpt>
      <trkpt lat="48.02615" lon="16.28183">
        <ele>234.224029</ele>
        <time>2026-07-07T10:00:58.000Z</time>
      </trkpt>
      <trkpt lat="48.02612" lon="16.2818">
        <ele>234.268447</ele>
        <time>2026-07-07T10:00:59.000Z</time>
      </trkpt>
      <trkpt lat="48.02608" lon="16.28176">
        <ele>234.317941</ele>
        <time>2026-07-07T10:01:00.000Z</time>
      </trkpt>
      <trkpt lat="48.02604" lon="16.28172">
        <ele>234.366965</ele>
        <time>2026-07-07T10:01:01.000Z</time>
      </trkpt>
      <trkpt lat="48.026" lon="16.28168">
        <ele>234.40322</ele>
        <time>2026-07-07T10:01:02.000Z</time>
      </trkpt>
      <trkpt lat="48.02596" lon="16.28164">
        <ele>234.42004</ele>
        <time>2026-07-07T10:01:03.000Z</time>
      </trkpt>
      <trkpt lat="48.02591" lon="16.2816">
        <ele>234.438243</ele>
        <time>2026-07-07T10:01:04.000Z</time>
      </trkpt>
      <trkpt lat="48.02587" lon="16.28156">
        <ele>234.455659</ele>
        <time>2026-07-07T10:01:05.000Z</time>
      </trkpt>
      <trkpt lat="48.02583" lon="16.28152">
        <ele>234.473796</ele>
        <time>2026-07-07T10:01:06.000Z</time>
      </trkpt>
      <trkpt lat="48.02578" lon="16.28148">
        <ele>234.49217</ele>
        <time>2026-07-07T10:01:07.000Z</time>
      </trkpt>
      <trkpt lat="48.02574" lon="16.28144">
        <ele>234.510919</ele>
        <time>2026-07-07T10:01:08.000Z</time>
      </trkpt>
      <trkpt lat="48.02569" lon="16.2814">
        <ele>234.530132</ele>
        <time>2026-07-07T10:01:09.000Z</time>
      </trkpt>
      <trkpt lat="48.02564" lon="16.28135">
        <ele>234.549887</ele>
        <time>2026-07-07T10:01:10.000Z</time>
      </trkpt>
      <trkpt lat="48.02559" lon="16.28131">
        <ele>234.569398</ele>
        <time>2026-07-07T10:01:11.000Z</time>
      </trkpt>
      <trkpt lat="48.02554" lon="16.28126">
        <ele>234.589449</ele>
        <time>2026-07-07T10:01:12.000Z</time>
      </trkpt>
      <trkpt lat="48.0255" lon="16.28122">
        <ele>234.60849</ele>
        <time>2026-07-07T10:01:13.000Z</time>
      </trkpt>
      <trkpt lat="48.02545" lon="16.28117">
        <ele>234.628541</ele>
        <time>2026-07-07T10:01:14.000Z</time>
      </trkpt>
      <trkpt lat="48.0254" lon="16.28113">
        <ele>234.647709</ele>
        <time>2026-07-07T10:01:15.000Z</time>
      </trkpt>
      <trkpt lat="48.02536" lon="16.28109">
        <ele>234.666331</ele>
        <time>2026-07-07T10:01:16.000Z</time>
      </trkpt>
      <trkpt lat="48.02531" lon="16.28105">
        <ele>234.684585</ele>
        <time>2026-07-07T10:01:17.000Z</time>
      </trkpt>
      <trkpt lat="48.02527" lon="16.28101">
        <ele>234.702303</ele>
        <time>2026-07-07T10:01:18.000Z</time>
      </trkpt>
      <trkpt lat="48.02522" lon="16.28097">
        <ele>234.72021</ele>
        <time>2026-07-07T10:01:19.000Z</time>
      </trkpt>
      <trkpt lat="48.02518" lon="16.28093">
        <ele>234.738117</ele>
        <time>2026-07-07T10:01:20.000Z</time>
      </trkpt>
      <trkpt lat="48.02514" lon="16.28089">
        <ele>234.755776</ele>
        <time>2026-07-07T10:01:21.000Z</time>
      </trkpt>
      <trkpt lat="48.02509" lon="16.28085">
        <ele>234.774398</ele>
        <time>2026-07-07T10:01:22.000Z</time>
      </trkpt>
      <trkpt lat="48.02505" lon="16.28081">
        <ele>234.793275</ele>
        <time>2026-07-07T10:01:23.000Z</time>
      </trkpt>
      <trkpt lat="48.025" lon="16.28076">
        <ele>234.811313</ele>
        <time>2026-07-07T10:01:24.000Z</time>
      </trkpt>
      <trkpt lat="48.02496" lon="16.28072">
        <ele>234.830648</ele>
        <time>2026-07-07T10:01:25.000Z</time>
      </trkpt>
      <trkpt lat="48.02491" lon="16.28068">
        <ele>234.849861</ele>
        <time>2026-07-07T10:01:26.000Z</time>
      </trkpt>
      <trkpt lat="48.02487" lon="16.28063">
        <ele>234.868434</ele>
        <time>2026-07-07T10:01:27.000Z</time>
      </trkpt>
      <trkpt lat="48.02482" lon="16.28058">
        <ele>234.887311</ele>
        <time>2026-07-07T10:01:28.000Z</time>
      </trkpt>
      <trkpt lat="48.02477" lon="16.28054">
        <ele>234.906772</ele>
        <time>2026-07-07T10:01:29.000Z</time>
      </trkpt>
      <trkpt lat="48.02473" lon="16.28049">
        <ele>234.925649</ele>
        <time>2026-07-07T10:01:30.000Z</time>
      </trkpt>
      <trkpt lat="48.02469" lon="16.28044">
        <ele>234.944643</ele>
        <time>2026-07-07T10:01:31.000Z</time>
      </trkpt>
      <trkpt lat="48.02464" lon="16.2804">
        <ele>234.963918</ele>
        <time>2026-07-07T10:01:32.000Z</time>
      </trkpt>
      <trkpt lat="48.02459" lon="16.28035">
        <ele>234.983764</ele>
        <time>2026-07-07T10:01:33.000Z</time>
      </trkpt>
      <trkpt lat="48.02455" lon="16.2803">
        <ele>235.002641</ele>
        <time>2026-07-07T10:01:34.000Z</time>
      </trkpt>
      <trkpt lat="48.0245" lon="16.28026">
        <ele>235.021809</ele>
        <time>2026-07-07T10:01:35.000Z</time>
      </trkpt>
      <trkpt lat="48.02446" lon="16.28021">
        <ele>235.040505</ele>
        <time>2026-07-07T10:01:36.000Z</time>
      </trkpt>
      <trkpt lat="48.02441" lon="16.28016">
        <ele>235.059335</ele>
        <time>2026-07-07T10:01:37.000Z</time>
      </trkpt>
      <trkpt lat="48.02436" lon="16.28011">
        <ele>235.078541</ele>
        <time>2026-07-07T10:01:38.000Z</time>
      </trkpt>
      <trkpt lat="48.02432" lon="16.28007">
        <ele>235.096968</ele>
        <time>2026-07-07T10:01:39.000Z</time>
      </trkpt>
      <trkpt lat="48.02427" lon="16.28002">
        <ele>235.115676</ele>
        <time>2026-07-07T10:01:40.000Z</time>
      </trkpt>
      <trkpt lat="48.02422" lon="16.27998">
        <ele>235.134787</ele>
        <time>2026-07-07T10:01:41.000Z</time>
      </trkpt>
      <trkpt lat="48.02418" lon="16.27993">
        <ele>235.153495</ele>
        <time>2026-07-07T10:01:42.000Z</time>
      </trkpt>
      <trkpt lat="48.02413" lon="16.27989">
        <ele>235.172486</ele>
        <time>2026-07-07T10:01:43.000Z</time>
      </trkpt>
      <trkpt lat="48.02408" lon="16.27984">
        <ele>235.191762</ele>
        <time>2026-07-07T10:01:44.000Z</time>
      </trkpt>
      <trkpt lat="48.02403" lon="16.2798">
        <ele>235.210995</ele>
        <time>2026-07-07T10:01:45.000Z</time>
      </trkpt>
      <trkpt lat="48.02398" lon="16.27975">
        <ele>235.230228</ele>
        <time>2026-07-07T10:01:46.000Z</time>
      </trkpt>
      <trkpt lat="48.02394" lon="16.2797">
        <ele>235.249307</ele>
        <time>2026-07-07T10:01:47.000Z</time>
      </trkpt>
      <trkpt lat="48.02389" lon="16.27966">
        <ele>235.268015</ele>
        <time>2026-07-07T10:01:48.000Z</time>
      </trkpt>
      <trkpt lat="48.02384" lon="16.27961">
        <ele>235.286162</ele>
        <time>2026-07-07T10:01:49.000Z</time>
      </trkpt>
      <trkpt lat="48.0238" lon="16.27957">
        <ele>235.305153</ele>
        <time>2026-07-07T10:01:50.000Z</time>
      </trkpt>
      <trkpt lat="48.02375" lon="16.27952">
        <ele>235.324107</ele>
        <time>2026-07-07T10:01:51.000Z</time>
      </trkpt>
      <trkpt lat="48.0237" lon="16.27947">
        <ele>235.34291</ele>
        <time>2026-07-07T10:01:52.000Z</time>
      </trkpt>
      <trkpt lat="48.02366" lon="16.27942">
        <ele>235.361864</ele>
        <time>2026-07-07T10:01:53.000Z</time>
      </trkpt>
      <trkpt lat="48.02361" lon="16.27938">
        <ele>235.380621</ele>
        <time>2026-07-07T10:01:54.000Z</time>
      </trkpt>
      <trkpt lat="48.02356" lon="16.27934">
        <ele>235.399897</ele>
        <time>2026-07-07T10:01:55.000Z</time>
      </trkpt>
      <trkpt lat="48.02351" lon="16.27929">
        <ele>235.419459</ele>
        <time>2026-07-07T10:01:56.000Z</time>
      </trkpt>
      <trkpt lat="48.02346" lon="16.27925">
        <ele>235.43845</ele>
        <time>2026-07-07T10:01:57.000Z</time>
      </trkpt>
      <trkpt lat="48.02341" lon="16.2792">
        <ele>235.457683</ele>
        <time>2026-07-07T10:01:58.000Z</time>
      </trkpt>
      <trkpt lat="48.02336" lon="16.27915">
        <ele>235.477362</ele>
        <time>2026-07-07T10:01:59.000Z</time>
      </trkpt>
      <trkpt lat="48.02331" lon="16.27911">
        <ele>235.49716</ele>
        <time>2026-07-07T10:02:00.000Z</time>
      </trkpt>
      <trkpt lat="48.02326" lon="16.27906">
        <ele>235.517528</ele>
        <time>2026-07-07T10:02:01.000Z</time>
      </trkpt>
      <trkpt lat="48.02321" lon="16.27901">
        <ele>235.537781</ele>
        <time>2026-07-07T10:02:02.000Z</time>
      </trkpt>
      <trkpt lat="48.02316" lon="16.27896">
        <ele>235.557821</ele>
        <time>2026-07-07T10:02:03.000Z</time>
      </trkpt>
      <trkpt lat="48.02311" lon="16.27892">
        <ele>235.577738</ele>
        <time>2026-07-07T10:02:04.000Z</time>
      </trkpt>
      <trkpt lat="48.02306" lon="16.27887">
        <ele>235.597536</ele>
        <time>2026-07-07T10:02:05.000Z</time>
      </trkpt>
      <trkpt lat="48.02301" lon="16.27882">
        <ele>235.617215</ele>
        <time>2026-07-07T10:02:06.000Z</time>
      </trkpt>
      <trkpt lat="48.02296" lon="16.27878">
        <ele>235.661635</ele>
        <time>2026-07-07T10:02:07.000Z</time>
      </trkpt>
      <trkpt lat="48.02291" lon="16.27873">
        <ele>235.725563</ele>
        <time>2026-07-07T10:02:08.000Z</time>
      </trkpt>
      <trkpt lat="48.02286" lon="16.27868">
        <ele>235.78732</ele>
        <time>2026-07-07T10:02:09.000Z</time>
      </trkpt>
      <trkpt lat="48.02281" lon="16.27863">
        <ele>235.848578</ele>
        <time>2026-07-07T10:02:10.000Z</time>
      </trkpt>
      <trkpt lat="48.02276" lon="16.27859">
        <ele>235.908679</ele>
        <time>2026-07-07T10:02:11.000Z</time>
      </trkpt>
      <trkpt lat="48.02272" lon="16.27854">
        <ele>235.968661</ele>
        <time>2026-07-07T10:02:12.000Z</time>
      </trkpt>
      <trkpt lat="48.02267" lon="16.27849">
        <ele>236.0273</ele>
        <time>2026-07-07T10:02:13.000Z</time>
      </trkpt>
      <trkpt lat="48.02263" lon="16.27844">
        <ele>236.084654</ele>
        <time>2026-07-07T10:02:14.000Z</time>
      </trkpt>
      <trkpt lat="48.02259" lon="16.2784">
        <ele>236.138186</ele>
        <time>2026-07-07T10:02:15.000Z</time>
      </trkpt>
      <trkpt lat="48.02255" lon="16.27835">
        <ele>236.190014</ele>
        <time>2026-07-07T10:02:16.000Z</time>
      </trkpt>
      <trkpt lat="48.02251" lon="16.27831">
        <ele>236.241063</ele>
        <time>2026-07-07T10:02:17.000Z</time>
      </trkpt>
      <trkpt lat="48.02247" lon="16.27828">
        <ele>236.291337</ele>
        <time>2026-07-07T10:02:18.000Z</time>
      </trkpt>
      <trkpt lat="48.02243" lon="16.27824">
        <ele>236.34161</ele>
        <time>2026-07-07T10:02:19.000Z</time>
      </trkpt>
      <trkpt lat="48.02239" lon="16.2782">
        <ele>236.395333</ele>
        <time>2026-07-07T10:02:20.000Z</time>
      </trkpt>
      <trkpt lat="48.02234" lon="16.27816">
        <ele>236.449142</ele>
        <time>2026-07-07T10:02:21.000Z</time>
      </trkpt>
      <trkpt lat="48.0223" lon="16.27813">
        <ele>236.502952</ele>
        <time>2026-07-07T10:02:22.000Z</time>
      </trkpt>
      <trkpt lat="48.02225" lon="16.27809">
        <ele>236.555581</ele>
        <time>2026-07-07T10:02:23.000Z</time>
      </trkpt>
      <trkpt lat="48.02221" lon="16.27805">
        <ele>236.610406</ele>
        <time>2026-07-07T10:02:24.000Z</time>
      </trkpt>
      <trkpt lat="48.02216" lon="16.27801">
        <ele>236.666559</ele>
        <time>2026-07-07T10:02:25.000Z</time>
      </trkpt>
      <trkpt lat="48.02212" lon="16.27797">
        <ele>236.723212</ele>
        <time>2026-07-07T10:02:26.000Z</time>
      </trkpt>
      <trkpt lat="48.02207" lon="16.27793">
        <ele>236.778748</ele>
        <time>2026-07-07T10:02:27.000Z</time>
      </trkpt>
      <trkpt lat="48.02203" lon="16.27788">
        <ele>236.835022</ele>
        <time>2026-07-07T10:02:28.000Z</time>
      </trkpt>
      <trkpt lat="48.02198" lon="16.27784">
        <ele>236.891833</ele>
        <time>2026-07-07T10:02:29.000Z</time>
      </trkpt>
      <trkpt lat="48.02194" lon="16.2778">
        <ele>236.946459</ele>
        <time>2026-07-07T10:02:30.000Z</time>
      </trkpt>
      <trkpt lat="48.0219" lon="16.27776">
        <ele>236.999182</ele>
        <time>2026-07-07T10:02:31.000Z</time>
      </trkpt>
      <trkpt lat="48.02186" lon="16.27772">
        <ele>237.050895</ele>
        <time>2026-07-07T10:02:32.000Z</time>
      </trkpt>
      <trkpt lat="48.02182" lon="16.27769">
        <ele>237.099359</ele>
        <time>2026-07-07T10:02:33.000Z</time>
      </trkpt>
      <trkpt lat="48.02178" lon="16.27766">
        <ele>237.144009</ele>
        <time>2026-07-07T10:02:34.000Z</time>
      </trkpt>
      <trkpt lat="48.02175" lon="16.27764">
        <ele>237.179455</ele>
        <time>2026-07-07T10:02:35.000Z</time>
      </trkpt>
      <trkpt lat="48.02172" lon="16.27762">
        <ele>237.211787</ele>
        <time>2026-07-07T10:02:36.000Z</time>
      </trkpt>
      <trkpt lat="48.0217" lon="16.2776">
        <ele>237.240922</ele>
        <time>2026-07-07T10:02:37.000Z</time>
      </trkpt>
      <trkpt lat="48.02167" lon="16.27758">
        <ele>237.273227</ele>
        <time>2026-07-07T10:02:38.000Z</time>
      </trkpt>
      <trkpt lat="48.02164" lon="16.27753">
        <ele>237.320132</ele>
        <time>2026-07-07T10:02:39.000Z</time>
      </trkpt>
      <trkpt lat="48.0216" lon="16.27748">
        <ele>237.378435</ele>
        <time>2026-07-07T10:02:40.000Z</time>
      </trkpt>
      <trkpt lat="48.02155" lon="16.27743">
        <ele>237.441749</ele>
        <time>2026-07-07T10:02:41.000Z</time>
      </trkpt>
      <trkpt lat="48.0215" lon="16.27737">
        <ele>237.507598</ele>
        <time>2026-07-07T10:02:42.000Z</time>
      </trkpt>
      <trkpt lat="48.02145" lon="16.27732">
        <ele>237.585257</ele>
        <time>2026-07-07T10:02:43.000Z</time>
      </trkpt>
      <trkpt lat="48.0214" lon="16.27726">
        <ele>237.67227</ele>
        <time>2026-07-07T10:02:44.000Z</time>
      </trkpt>
      <trkpt lat="48.02135" lon="16.27721">
        <ele>237.757581</ele>
        <time>2026-07-07T10:02:45.000Z</time>
      </trkpt>
      <trkpt lat="48.0213" lon="16.27715">
        <ele>237.837461</ele>
        <time>2026-07-07T10:02:46.000Z</time>
      </trkpt>
      <trkpt lat="48.02126" lon="16.2771">
        <ele>237.912327</ele>
        <time>2026-07-07T10:02:47.000Z</time>
      </trkpt>
      <trkpt lat="48.02122" lon="16.27706">
        <ele>237.981125</ele>
        <time>2026-07-07T10:02:48.000Z</time>
      </trkpt>
      <trkpt lat="48.02118" lon="16.27702">
        <ele>238.047722</ele>
        <time>2026-07-07T10:02:49.000Z</time>
      </trkpt>
      <trkpt lat="48.02114" lon="16.27698">
        <ele>238.113859</ele>
        <time>2026-07-07T10:02:50.000Z</time>
      </trkpt>
      <trkpt lat="48.0211" lon="16.27693">
        <ele>238.178805</ele>
        <time>2026-07-07T10:02:51.000Z</time>
      </trkpt>
      <trkpt lat="48.02106" lon="16.2769">
        <ele>238.24534</ele>
        <time>2026-07-07T10:02:52.000Z</time>
      </trkpt>
      <trkpt lat="48.02102" lon="16.27687">
        <ele>238.311353</ele>
        <time>2026-07-07T10:02:53.000Z</time>
      </trkpt>
      <trkpt lat="48.02097" lon="16.27684">
        <ele>238.380885</ele>
        <time>2026-07-07T10:02:54.000Z</time>
      </trkpt>
      <trkpt lat="48.02092" lon="16.27681">
        <ele>238.449858</ele>
        <time>2026-07-07T10:02:55.000Z</time>
      </trkpt>
      <trkpt lat="48.02088" lon="16.27677">
        <ele>238.518355</ele>
        <time>2026-07-07T10:02:56.000Z</time>
      </trkpt>
      <trkpt lat="48.02084" lon="16.27673">
        <ele>238.585638</ele>
        <time>2026-07-07T10:02:57.000Z</time>
      </trkpt>
      <trkpt lat="48.0208" lon="16.27669">
        <ele>238.654077</ele>
        <time>2026-07-07T10:02:58.000Z</time>
      </trkpt>
      <trkpt lat="48.02076" lon="16.27665">
        <ele>238.717947</ele>
        <time>2026-07-07T10:02:59.000Z</time>
      </trkpt>
      <trkpt lat="48.02072" lon="16.27662">
        <ele>238.776858</ele>
        <time>2026-07-07T10:03:00.000Z</time>
      </trkpt>
      <trkpt lat="48.02069" lon="16.27658">
        <ele>238.837032</ele>
        <time>2026-07-07T10:03:01.000Z</time>
      </trkpt>
      <trkpt lat="48.02065" lon="16.27655">
        <ele>238.897206</ele>
        <time>2026-07-07T10:03:02.000Z</time>
      </trkpt>
      <trkpt lat="48.02061" lon="16.27651">
        <ele>238.956223</ele>
        <time>2026-07-07T10:03:03.000Z</time>
      </trkpt>
      <trkpt lat="48.02058" lon="16.27648">
        <ele>239.016397</ele>
        <time>2026-07-07T10:03:04.000Z</time>
      </trkpt>
      <trkpt lat="48.02054" lon="16.27644">
        <ele>239.073265</ele>
        <time>2026-07-07T10:03:05.000Z</time>
      </trkpt>
      <trkpt lat="48.0205" lon="16.27641">
        <ele>239.134441</ele>
        <time>2026-07-07T10:03:06.000Z</time>
      </trkpt>
      <trkpt lat="48.02047" lon="16.27637">
        <ele>239.193458</ele>
        <time>2026-07-07T10:03:07.000Z</time>
      </trkpt>
      <trkpt lat="48.02043" lon="16.27634">
        <ele>239.259542</ele>
        <time>2026-07-07T10:03:08.000Z</time>
      </trkpt>
      <trkpt lat="48.02038" lon="16.27629">
        <ele>239.330132</ele>
        <time>2026-07-07T10:03:09.000Z</time>
      </trkpt>
      <trkpt lat="48.02034" lon="16.27625">
        <ele>239.402556</ele>
        <time>2026-07-07T10:03:10.000Z</time>
      </trkpt>
      <trkpt lat="48.02029" lon="16.27621">
        <ele>239.472855</ele>
        <time>2026-07-07T10:03:11.000Z</time>
      </trkpt>
      <trkpt lat="48.02025" lon="16.27617">
        <ele>239.544805</ele>
        <time>2026-07-07T10:03:12.000Z</time>
      </trkpt>
      <trkpt lat="48.02021" lon="16.27614">
        <ele>239.611102</ele>
        <time>2026-07-07T10:03:13.000Z</time>
      </trkpt>
      <trkpt lat="48.02016" lon="16.2761">
        <ele>239.680482</ele>
        <time>2026-07-07T10:03:14.000Z</time>
      </trkpt>
      <trkpt lat="48.02012" lon="16.27606">
        <ele>239.748213</ele>
        <time>2026-07-07T10:03:15.000Z</time>
      </trkpt>
      <trkpt lat="48.02008" lon="16.27602">
        <ele>239.817815</ele>
        <time>2026-07-07T10:03:16.000Z</time>
      </trkpt>
      <trkpt lat="48.02003" lon="16.27598">
        <ele>239.888114</ele>
        <time>2026-07-07T10:03:17.000Z</time>
      </trkpt>
      <trkpt lat="48.01999" lon="16.27595">
        <ele>239.955401</ele>
        <time>2026-07-07T10:03:18.000Z</time>
      </trkpt>
      <trkpt lat="48.01996" lon="16.2759">
        <ele>240.011838</ele>
        <time>2026-07-07T10:03:19.000Z</time>
      </trkpt>
      <trkpt lat="48.01992" lon="16.27585">
        <ele>240.043216</ele>
        <time>2026-07-07T10:03:20.000Z</time>
      </trkpt>
      <trkpt lat="48.01988" lon="16.2758">
        <ele>240.077071</ele>
        <time>2026-07-07T10:03:21.000Z</time>
      </trkpt>
      <trkpt lat="48.01984" lon="16.27575">
        <ele>240.109766</ele>
        <time>2026-07-07T10:03:22.000Z</time>
      </trkpt>
      <trkpt lat="48.0198" lon="16.27571">
        <ele>240.143683</ele>
        <time>2026-07-07T10:03:23.000Z</time>
      </trkpt>
      <trkpt lat="48.01975" lon="16.27568">
        <ele>240.176547</ele>
        <time>2026-07-07T10:03:24.000Z</time>
      </trkpt>
      <trkpt lat="48.01971" lon="16.27565">
        <ele>240.210596</ele>
        <time>2026-07-07T10:03:25.000Z</time>
      </trkpt>
      <trkpt lat="48.01966" lon="16.27561">
        <ele>240.244236</ele>
        <time>2026-07-07T10:03:26.000Z</time>
      </trkpt>
      <trkpt lat="48.01961" lon="16.27557">
        <ele>240.278712</ele>
        <time>2026-07-07T10:03:27.000Z</time>
      </trkpt>
      <trkpt lat="48.01957" lon="16.27553">
        <ele>240.314639</ele>
        <time>2026-07-07T10:03:28.000Z</time>
      </trkpt>
      <trkpt lat="48.01952" lon="16.27548">
        <ele>240.349714</ele>
        <time>2026-07-07T10:03:29.000Z</time>
      </trkpt>
      <trkpt lat="48.01947" lon="16.27544">
        <ele>240.386108</ele>
        <time>2026-07-07T10:03:30.000Z</time>
      </trkpt>
      <trkpt lat="48.01943" lon="16.27539">
        <ele>240.422204</ele>
        <time>2026-07-07T10:03:31.000Z</time>
      </trkpt>
      <trkpt lat="48.01938" lon="16.27534">
        <ele>240.458838</ele>
        <time>2026-07-07T10:03:32.000Z</time>
      </trkpt>
      <trkpt lat="48.01933" lon="16.2753">
        <ele>240.494537</ele>
        <time>2026-07-07T10:03:33.000Z</time>
      </trkpt>
      <trkpt lat="48.01929" lon="16.27526">
        <ele>240.530151</ele>
        <time>2026-07-07T10:03:34.000Z</time>
      </trkpt>
      <trkpt lat="48.01924" lon="16.27521">
        <ele>240.565226</ele>
        <time>2026-07-07T10:03:35.000Z</time>
      </trkpt>
      <trkpt lat="48.0192" lon="16.27517">
        <ele>240.599595</ele>
        <time>2026-07-07T10:03:36.000Z</time>
      </trkpt>
      <trkpt lat="48.01915" lon="16.27512">
        <ele>240.636851</ele>
        <time>2026-07-07T10:03:37.000Z</time>
      </trkpt>
      <trkpt lat="48.0191" lon="16.27508">
        <ele>240.671999</ele>
        <time>2026-07-07T10:03:38.000Z</time>
      </trkpt>
      <trkpt lat="48.01906" lon="16.27504">
        <ele>240.708158</ele>
        <time>2026-07-07T10:03:39.000Z</time>
      </trkpt>
      <trkpt lat="48.01901" lon="16.27499">
        <ele>240.744316</ele>
        <time>2026-07-07T10:03:40.000Z</time>
      </trkpt>
      <trkpt lat="48.01896" lon="16.27494">
        <ele>240.77988</ele>
        <time>2026-07-07T10:03:41.000Z</time>
      </trkpt>
      <trkpt lat="48.01892" lon="16.2749">
        <ele>240.815198</ele>
        <time>2026-07-07T10:03:42.000Z</time>
      </trkpt>
      <trkpt lat="48.01887" lon="16.27485">
        <ele>240.85256</ele>
        <time>2026-07-07T10:03:43.000Z</time>
      </trkpt>
      <trkpt lat="48.01882" lon="16.2748">
        <ele>240.889816</ele>
        <time>2026-07-07T10:03:44.000Z</time>
      </trkpt>
      <trkpt lat="48.01878" lon="16.27476">
        <ele>240.926522</ele>
        <time>2026-07-07T10:03:45.000Z</time>
      </trkpt>
      <trkpt lat="48.01873" lon="16.27471">
        <ele>240.963228</ele>
        <time>2026-07-07T10:03:46.000Z</time>
      </trkpt>
      <trkpt lat="48.01868" lon="16.27466">
        <ele>241.001725</ele>
        <time>2026-07-07T10:03:47.000Z</time>
      </trkpt>
      <trkpt lat="48.01863" lon="16.27461">
        <ele>241.040458</ele>
        <time>2026-07-07T10:03:48.000Z</time>
      </trkpt>
      <trkpt lat="48.01858" lon="16.27456">
        <ele>241.079139</ele>
        <time>2026-07-07T10:03:49.000Z</time>
      </trkpt>
      <trkpt lat="48.01853" lon="16.27451">
        <ele>241.11704</ele>
        <time>2026-07-07T10:03:50.000Z</time>
      </trkpt>
      <trkpt lat="48.01848" lon="16.27446">
        <ele>241.155444</ele>
        <time>2026-07-07T10:03:51.000Z</time>
      </trkpt>
      <trkpt lat="48.01843" lon="16.27441">
        <ele>241.197853</ele>
        <time>2026-07-07T10:03:52.000Z</time>
      </trkpt>
      <trkpt lat="48.01838" lon="16.27437">
        <ele>241.245425</ele>
        <time>2026-07-07T10:03:53.000Z</time>
      </trkpt>
      <trkpt lat="48.01833" lon="16.27432">
        <ele>241.290096</ele>
        <time>2026-07-07T10:03:54.000Z</time>
      </trkpt>
      <trkpt lat="48.01828" lon="16.27428">
        <ele>241.334767</ele>
        <time>2026-07-07T10:03:55.000Z</time>
      </trkpt>
      <trkpt lat="48.01823" lon="16.27423">
        <ele>241.378686</ele>
        <time>2026-07-07T10:03:56.000Z</time>
      </trkpt>
      <trkpt lat="48.01818" lon="16.27418">
        <ele>241.422605</ele>
        <time>2026-07-07T10:03:57.000Z</time>
      </trkpt>
      <trkpt lat="48.01814" lon="16.27414">
        <ele>241.464257</ele>
        <time>2026-07-07T10:03:58.000Z</time>
      </trkpt>
      <trkpt lat="48.01809" lon="16.2741">
        <ele>241.506169</ele>
        <time>2026-07-07T10:03:59.000Z</time>
      </trkpt>
      <trkpt lat="48.01804" lon="16.27406">
        <ele>241.546241</ele>
        <time>2026-07-07T10:04:00.000Z</time>
      </trkpt>
      <trkpt lat="48.018" lon="16.27402">
        <ele>241.585556</ele>
        <time>2026-07-07T10:04:01.000Z</time>
      </trkpt>
      <trkpt lat="48.01796" lon="16.27398">
        <ele>241.623951</ele>
        <time>2026-07-07T10:04:02.000Z</time>
      </trkpt>
      <trkpt lat="48.01792" lon="16.27394">
        <ele>241.661365</ele>
        <time>2026-07-07T10:04:03.000Z</time>
      </trkpt>
      <trkpt lat="48.01788" lon="16.27389">
        <ele>241.697283</ele>
        <time>2026-07-07T10:04:04.000Z</time>
      </trkpt>
      <trkpt lat="48.01785" lon="16.27384">
        <ele>241.734446</ele>
        <time>2026-07-07T10:04:05.000Z</time>
      </trkpt>
      <trkpt lat="48.01781" lon="16.2738">
        <ele>241.771872</ele>
        <time>2026-07-07T10:04:06.000Z</time>
      </trkpt>
      <trkpt lat="48.01777" lon="16.27375">
        <ele>241.81019</ele>
        <time>2026-07-07T10:04:07.000Z</time>
      </trkpt>
      <trkpt lat="48.01773" lon="16.27371">
        <ele>241.848866</ele>
        <time>2026-07-07T10:04:08.000Z</time>
      </trkpt>
      <trkpt lat="48.01768" lon="16.27367">
        <ele>241.889765</ele>
        <time>2026-07-07T10:04:09.000Z</time>
      </trkpt>
      <trkpt lat="48.01763" lon="16.27364">
        <ele>241.931102</ele>
        <time>2026-07-07T10:04:10.000Z</time>
      </trkpt>
      <trkpt lat="48.01758" lon="16.2736">
        <ele>241.972439</ele>
        <time>2026-07-07T10:04:11.000Z</time>
      </trkpt>
      <trkpt lat="48.01754" lon="16.27356">
        <ele>242.01409</ele>
        <time>2026-07-07T10:04:12.000Z</time>
      </trkpt>
      <trkpt lat="48.01749" lon="16.27351">
        <ele>242.05801</ele>
        <time>2026-07-07T10:04:13.000Z</time>
      </trkpt>
      <trkpt lat="48.01744" lon="16.27346">
        <ele>242.102572</ele>
        <time>2026-07-07T10:04:14.000Z</time>
      </trkpt>
      <trkpt lat="48.01739" lon="16.27342">
        <ele>242.146774</ele>
        <time>2026-07-07T10:04:15.000Z</time>
      </trkpt>
      <trkpt lat="48.01734" lon="16.27337">
        <ele>242.190976</ele>
        <time>2026-07-07T10:04:16.000Z</time>
      </trkpt>
      <trkpt lat="48.0173" lon="16.27332">
        <ele>242.23513</ele>
        <time>2026-07-07T10:04:17.000Z</time>
      </trkpt>
      <trkpt lat="48.01725" lon="16.27327">
        <ele>242.280891</ele>
        <time>2026-07-07T10:04:18.000Z</time>
      </trkpt>
      <trkpt lat="48.0172" lon="16.27322">
        <ele>242.325562</ele>
        <time>2026-07-07T10:04:19.000Z</time>
      </trkpt>
      <trkpt lat="48.01715" lon="16.27318">
        <ele>242.368929</ele>
        <time>2026-07-07T10:04:20.000Z</time>
      </trkpt>
      <trkpt lat="48.0171" lon="16.27314">
        <ele>242.413081</ele>
        <time>2026-07-07T10:04:21.000Z</time>
      </trkpt>
      <trkpt lat="48.01705" lon="16.27309">
        <ele>242.455258</ele>
        <time>2026-07-07T10:04:22.000Z</time>
      </trkpt>
      <trkpt lat="48.017" lon="16.27305">
        <ele>242.499178</ele>
        <time>2026-07-07T10:04:23.000Z</time>
      </trkpt>
      <trkpt lat="48.01696" lon="16.273">
        <ele>242.541355</ele>
        <time>2026-07-07T10:04:24.000Z</time>
      </trkpt>
      <trkpt lat="48.01691" lon="16.27296">
        <ele>242.55413</ele>
        <time>2026-07-07T10:04:25.000Z</time>
      </trkpt>
      <trkpt lat="48.01686" lon="16.27291">
        <ele>242.56183</ele>
        <time>2026-07-07T10:04:26.000Z</time>
      </trkpt>
      <trkpt lat="48.01681" lon="16.27287">
        <ele>242.569691</ele>
        <time>2026-07-07T10:04:27.000Z</time>
      </trkpt>
      <trkpt lat="48.01676" lon="16.27283">
        <ele>242.577461</ele>
        <time>2026-07-07T10:04:28.000Z</time>
      </trkpt>
      <trkpt lat="48.01671" lon="16.27278">
        <ele>242.584953</ele>
        <time>2026-07-07T10:04:29.000Z</time>
      </trkpt>
      <trkpt lat="48.01666" lon="16.27274">
        <ele>242.592283</ele>
        <time>2026-07-07T10:04:30.000Z</time>
      </trkpt>
      <trkpt lat="48.01662" lon="16.27271">
        <ele>242.599201</ele>
        <time>2026-07-07T10:04:31.000Z</time>
      </trkpt>
      <trkpt lat="48.01658" lon="16.27267">
        <ele>242.605929</ele>
        <time>2026-07-07T10:04:32.000Z</time>
      </trkpt>
      <trkpt lat="48.01653" lon="16.27263">
        <ele>242.612481</ele>
        <time>2026-07-07T10:04:33.000Z</time>
      </trkpt>
      <trkpt lat="48.01649" lon="16.2726">
        <ele>242.619118</ele>
        <time>2026-07-07T10:04:34.000Z</time>
      </trkpt>
      <trkpt lat="48.01645" lon="16.27257">
        <ele>242.625389</ele>
        <time>2026-07-07T10:04:35.000Z</time>
      </trkpt>
      <trkpt lat="48.0164" lon="16.27254">
        <ele>242.631659</ele>
        <time>2026-07-07T10:04:36.000Z</time>
      </trkpt>
      <trkpt lat="48.01636" lon="16.27252">
        <ele>242.637658</ele>
        <time>2026-07-07T10:04:37.000Z</time>
      </trkpt>
      <trkpt lat="48.01632" lon="16.27249">
        <ele>242.643714</ele>
        <time>2026-07-07T10:04:38.000Z</time>
      </trkpt>
      <trkpt lat="48.01628" lon="16.27247">
        <ele>242.649425</ele>
        <time>2026-07-07T10:04:39.000Z</time>
      </trkpt>
      <trkpt lat="48.01624" lon="16.27245">
        <ele>242.654982</ele>
        <time>2026-07-07T10:04:40.000Z</time>
      </trkpt>
      <trkpt lat="48.01621" lon="16.27243">
        <ele>242.660223</ele>
        <time>2026-07-07T10:04:41.000Z</time>
      </trkpt>
      <trkpt lat="48.01617" lon="16.27241">
        <ele>242.665464</ele>
        <time>2026-07-07T10:04:42.000Z</time>
      </trkpt>
      <trkpt lat="48.01613" lon="16.2724">
        <ele>242.671455</ele>
        <time>2026-07-07T10:04:43.000Z</time>
      </trkpt>
      <trkpt lat="48.01607" lon="16.27238">
        <ele>242.67908</ele>
        <time>2026-07-07T10:04:44.000Z</time>
      </trkpt>
      <trkpt lat="48.01601" lon="16.27236">
        <ele>242.68736</ele>
        <time>2026-07-07T10:04:45.000Z</time>
      </trkpt>
      <trkpt lat="48.01595" lon="16.27234">
        <ele>242.6963</ele>
        <time>2026-07-07T10:04:46.000Z</time>
      </trkpt>
      <trkpt lat="48.01588" lon="16.27232">
        <ele>242.704975</ele>
        <time>2026-07-07T10:04:47.000Z</time>
      </trkpt>
      <trkpt lat="48.01583" lon="16.27229">
        <ele>242.712735</ele>
        <time>2026-07-07T10:04:48.000Z</time>
      </trkpt>
      <trkpt lat="48.01578" lon="16.27226">
        <ele>242.719328</ele>
        <time>2026-07-07T10:04:49.000Z</time>
      </trkpt>
      <trkpt lat="48.01574" lon="16.27223">
        <ele>242.725522</ele>
        <time>2026-07-07T10:04:50.000Z</time>
      </trkpt>
      <trkpt lat="48.0157" lon="16.2722">
        <ele>242.731397</ele>
        <time>2026-07-07T10:04:51.000Z</time>
      </trkpt>
      <trkpt lat="48.01567" lon="16.27216">
        <ele>242.737444</ele>
        <time>2026-07-07T10:04:52.000Z</time>
      </trkpt>
      <trkpt lat="48.01563" lon="16.27212">
        <ele>242.744134</ele>
        <time>2026-07-07T10:04:53.000Z</time>
      </trkpt>
      <trkpt lat="48.01558" lon="16.27208">
        <ele>242.751009</ele>
        <time>2026-07-07T10:04:54.000Z</time>
      </trkpt>
      <trkpt lat="48.01553" lon="16.27205">
        <ele>242.757892</ele>
        <time>2026-07-07T10:04:55.000Z</time>
      </trkpt>
      <trkpt lat="48.01548" lon="16.27203">
        <ele>242.765053</ele>
        <time>2026-07-07T10:04:56.000Z</time>
      </trkpt>
      <trkpt lat="48.01543" lon="16.272">
        <ele>242.772214</ele>
        <time>2026-07-07T10:04:57.000Z</time>
      </trkpt>
      <trkpt lat="48.01538" lon="16.27197">
        <ele>242.779597</ele>
        <time>2026-07-07T10:04:58.000Z</time>
      </trkpt>
      <trkpt lat="48.01533" lon="16.27194">
        <ele>242.786764</ele>
        <time>2026-07-07T10:04:59.000Z</time>
      </trkpt>
      <trkpt lat="48.01529" lon="16.2719">
        <ele>242.82846</ele>
        <time>2026-07-07T10:05:00.000Z</time>
      </trkpt>
      <trkpt lat="48.01524" lon="16.27186">
        <ele>242.899113</ele>
        <time>2026-07-07T10:05:01.000Z</time>
      </trkpt>
      <trkpt lat="48.01519" lon="16.27183">
        <ele>242.964731</ele>
        <time>2026-07-07T10:05:02.000Z</time>
      </trkpt>
      <trkpt lat="48.01515" lon="16.27179">
        <ele>243.030939</ele>
        <time>2026-07-07T10:05:03.000Z</time>
      </trkpt>
      <trkpt lat="48.01511" lon="16.27175">
        <ele>243.093418</ele>
        <time>2026-07-07T10:05:04.000Z</time>
      </trkpt>
      <trkpt lat="48.01507" lon="16.27171">
        <ele>243.152347</ele>
        <time>2026-07-07T10:05:05.000Z</time>
      </trkpt>
      <trkpt lat="48.01503" lon="16.27168">
        <ele>243.210652</ele>
        <time>2026-07-07T10:05:06.000Z</time>
      </trkpt>
      <trkpt lat="48.01499" lon="16.27164">
        <ele>243.271127</ele>
        <time>2026-07-07T10:05:07.000Z</time>
      </trkpt>
      <trkpt lat="48.01495" lon="16.2716">
        <ele>243.330879</ele>
        <time>2026-07-07T10:05:08.000Z</time>
      </trkpt>
      <trkpt lat="48.01491" lon="16.27156">
        <ele>243.393182</ele>
        <time>2026-07-07T10:05:09.000Z</time>
      </trkpt>
      <trkpt lat="48.01487" lon="16.27151">
        <ele>243.456525</ele>
        <time>2026-07-07T10:05:10.000Z</time>
      </trkpt>
      <trkpt lat="48.01483" lon="16.27147">
        <ele>243.521414</ele>
        <time>2026-07-07T10:05:11.000Z</time>
      </trkpt>
      <trkpt lat="48.01479" lon="16.27143">
        <ele>243.582712</ele>
        <time>2026-07-07T10:05:12.000Z</time>
      </trkpt>
      <trkpt lat="48.01476" lon="16.27139">
        <ele>243.64347</ele>
        <time>2026-07-07T10:05:13.000Z</time>
      </trkpt>
      <trkpt lat="48.01472" lon="16.27135">
        <ele>243.694447</ele>
        <time>2026-07-07T10:05:14.000Z</time>
      </trkpt>
      <trkpt lat="48.01469" lon="16.27132">
        <ele>243.741925</ele>
        <time>2026-07-07T10:05:15.000Z</time>
      </trkpt>
      <trkpt lat="48.01466" lon="16.27129">
        <ele>243.787266</ele>
        <time>2026-07-07T10:05:16.000Z</time>
      </trkpt>
      <trkpt lat="48.01464" lon="16.27126">
        <ele>243.831556</ele>
        <time>2026-07-07T10:05:17.000Z</time>
      </trkpt>
      <trkpt lat="48.01461" lon="16.27124">
        <ele>243.872632</ele>
        <time>2026-07-07T10:05:18.000Z</time>
      </trkpt>
      <trkpt lat="48.01458" lon="16.27121">
        <ele>243.914395</ele>
        <time>2026-07-07T10:05:19.000Z</time>
      </trkpt>
      <trkpt lat="48.01456" lon="16.27118">
        <ele>243.95253</ele>
        <time>2026-07-07T10:05:20.000Z</time>
      </trkpt>
      <trkpt lat="48.01454" lon="16.27115">
        <ele>243.991995</ele>
        <time>2026-07-07T10:05:21.000Z</time>
      </trkpt>
      <trkpt lat="48.01451" lon="16.27111">
        <ele>244.037872</ele>
        <time>2026-07-07T10:05:22.000Z</time>
      </trkpt>
      <trkpt lat="48.01448" lon="16.27107">
        <ele>244.089555</ele>
        <time>2026-07-07T10:05:23.000Z</time>
      </trkpt>
      <trkpt lat="48.01445" lon="16.27103">
        <ele>244.14299</ele>
        <time>2026-07-07T10:05:24.000Z</time>
      </trkpt>
      <trkpt lat="48.01442" lon="16.27098">
        <ele>244.196425</ele>
        <time>2026-07-07T10:05:25.000Z</time>
      </trkpt>
      <trkpt lat="48.01439" lon="16.27094">
        <ele>244.251979</ele>
        <time>2026-07-07T10:05:26.000Z</time>
      </trkpt>
      <trkpt lat="48.01436" lon="16.27089">
        <ele>244.312697</ele>
        <time>2026-07-07T10:05:27.000Z</time>
      </trkpt>
      <trkpt lat="48.01433" lon="16.27084">
        <ele>244.370124</ele>
        <time>2026-07-07T10:05:28.000Z</time>
      </trkpt>
      <trkpt lat="48.01429" lon="16.27081">
        <ele>244.428903</ele>
        <time>2026-07-07T10:05:29.000Z</time>
      </trkpt>
      <trkpt lat="48.01425" lon="16.27078">
        <ele>244.485688</ele>
        <time>2026-07-07T10:05:30.000Z</time>
      </trkpt>
      <trkpt lat="48.01421" lon="16.27074">
        <ele>244.547096</ele>
        <time>2026-07-07T10:05:31.000Z</time>
      </trkpt>
      <trkpt lat="48.01416" lon="16.2707">
        <ele>244.612667</ele>
        <time>2026-07-07T10:05:32.000Z</time>
      </trkpt>
      <trkpt lat="48.01412" lon="16.27065">
        <ele>244.679155</ele>
        <time>2026-07-07T10:05:33.000Z</time>
      </trkpt>
      <trkpt lat="48.01408" lon="16.27061">
        <ele>244.745101</ele>
        <time>2026-07-07T10:05:34.000Z</time>
      </trkpt>
      <trkpt lat="48.01404" lon="16.27056">
        <ele>244.812553</ele>
        <time>2026-07-07T10:05:35.000Z</time>
      </trkpt>
      <trkpt lat="48.014" lon="16.27051">
        <ele>244.879493</ele>
        <time>2026-07-07T10:05:36.000Z</time>
      </trkpt>
      <trkpt lat="48.01396" lon="16.27046">
        <ele>244.945981</ele>
        <time>2026-07-07T10:05:37.000Z</time>
      </trkpt>
      <trkpt lat="48.01392" lon="16.27041">
        <ele>245.014008</ele>
        <time>2026-07-07T10:05:38.000Z</time>
      </trkpt>
      <trkpt lat="48.01388" lon="16.27036">
        <ele>245.083037</ele>
        <time>2026-07-07T10:05:39.000Z</time>
      </trkpt>
      <trkpt lat="48.01383" lon="16.27031">
        <ele>245.123174</ele>
        <time>2026-07-07T10:05:40.000Z</time>
      </trkpt>
      <trkpt lat="48.01379" lon="16.27026">
        <ele>245.151977</ele>
        <time>2026-07-07T10:05:41.000Z</time>
      </trkpt>
      <trkpt lat="48.01376" lon="16.27021">
        <ele>245.179256</ele>
        <time>2026-07-07T10:05:42.000Z</time>
      </trkpt>
      <trkpt lat="48.01372" lon="16.27017">
        <ele>245.203669</ele>
        <time>2026-07-07T10:05:43.000Z</time>
      </trkpt>
      <trkpt lat="48.01368" lon="16.27012">
        <ele>245.231305</ele>
        <time>2026-07-07T10:05:44.000Z</time>
      </trkpt>
      <trkpt lat="48.01364" lon="16.27008">
        <ele>245.258945</ele>
        <time>2026-07-07T10:05:45.000Z</time>
      </trkpt>
      <trkpt lat="48.01361" lon="16.27002">
        <ele>245.284783</ele>
        <time>2026-07-07T10:05:46.000Z</time>
      </trkpt>
      <trkpt lat="48.01357" lon="16.26997">
        <ele>245.312301</ele>
        <time>2026-07-07T10:05:47.000Z</time>
      </trkpt>
      <trkpt lat="48.01353" lon="16.26992">
        <ele>245.34101</ele>
        <time>2026-07-07T10:05:48.000Z</time>
      </trkpt>
      <trkpt lat="48.01348" lon="16.26988">
        <ele>245.369503</ele>
        <time>2026-07-07T10:05:49.000Z</time>
      </trkpt>
      <trkpt lat="48.01344" lon="16.26983">
        <ele>245.398644</ele>
        <time>2026-07-07T10:05:50.000Z</time>
      </trkpt>
      <trkpt lat="48.0134" lon="16.26978">
        <ele>245.428</ele>
        <time>2026-07-07T10:05:51.000Z</time>
      </trkpt>
      <trkpt lat="48.01335" lon="16.26973">
        <ele>245.457804</ele>
        <time>2026-07-07T10:05:52.000Z</time>
      </trkpt>
      <trkpt lat="48.01331" lon="16.26968">
        <ele>245.486962</ele>
        <time>2026-07-07T10:05:53.000Z</time>
      </trkpt>
      <trkpt lat="48.01327" lon="16.26962">
        <ele>245.51705</ele>
        <time>2026-07-07T10:05:54.000Z</time>
      </trkpt>
      <trkpt lat="48.01323" lon="16.26957">
        <ele>245.546735</ele>
        <time>2026-07-07T10:05:55.000Z</time>
      </trkpt>
      <trkpt lat="48.01318" lon="16.26952">
        <ele>245.576959</ele>
        <time>2026-07-07T10:05:56.000Z</time>
      </trkpt>
      <trkpt lat="48.01314" lon="16.26946">
        <ele>245.607609</ele>
        <time>2026-07-07T10:05:57.000Z</time>
      </trkpt>
      <trkpt lat="48.01309" lon="16.26941">
        <ele>245.638479</ele>
        <time>2026-07-07T10:05:58.000Z</time>
      </trkpt>
      <trkpt lat="48.01305" lon="16.26936">
        <ele>245.668511</ele>
        <time>2026-07-07T10:05:59.000Z</time>
      </trkpt>
      <trkpt lat="48.01301" lon="16.2693">
        <ele>245.699607</ele>
        <time>2026-07-07T10:06:00.000Z</time>
      </trkpt>
      <trkpt lat="48.01296" lon="16.26925">
        <ele>245.730037</ele>
        <time>2026-07-07T10:06:01.000Z</time>
      </trkpt>
      <trkpt lat="48.01292" lon="16.2692">
        <ele>245.760532</ele>
        <time>2026-07-07T10:06:02.000Z</time>
      </trkpt>
      <trkpt lat="48.01287" lon="16.26914">
        <ele>245.791628</ele>
        <time>2026-07-07T10:06:03.000Z</time>
      </trkpt>
      <trkpt lat="48.01283" lon="16.26909">
        <ele>245.822923</ele>
        <time>2026-07-07T10:06:04.000Z</time>
      </trkpt>
      <trkpt lat="48.01278" lon="16.26904">
        <ele>245.854019</ele>
        <time>2026-07-07T10:06:05.000Z</time>
      </trkpt>
      <trkpt lat="48.01273" lon="16.26899">
        <ele>245.885314</ele>
        <time>2026-07-07T10:06:06.000Z</time>
      </trkpt>
      <trkpt lat="48.01269" lon="16.26894">
        <ele>245.915963</ele>
        <time>2026-07-07T10:06:07.000Z</time>
      </trkpt>
      <trkpt lat="48.01265" lon="16.26889">
        <ele>245.944026</ele>
        <time>2026-07-07T10:06:08.000Z</time>
      </trkpt>
      <trkpt lat="48.01261" lon="16.26884">
        <ele>245.971894</ele>
        <time>2026-07-07T10:06:09.000Z</time>
      </trkpt>
      <trkpt lat="48.01257" lon="16.26879">
        <ele>245.999088</ele>
        <time>2026-07-07T10:06:10.000Z</time>
      </trkpt>
      <trkpt lat="48.01253" lon="16.26874">
        <ele>246.026956</ele>
        <time>2026-07-07T10:06:11.000Z</time>
      </trkpt>
      <trkpt lat="48.01249" lon="16.2687">
        <ele>246.055013</ele>
        <time>2026-07-07T10:06:12.000Z</time>
      </trkpt>
      <trkpt lat="48.01245" lon="16.26865">
        <ele>246.08671</ele>
        <time>2026-07-07T10:06:13.000Z</time>
      </trkpt>
      <trkpt lat="48.01241" lon="16.2686">
        <ele>246.124302</ele>
        <time>2026-07-07T10:06:14.000Z</time>
      </trkpt>
      <trkpt lat="48.01236" lon="16.26855">
        <ele>246.163012</ele>
        <time>2026-07-07T10:06:15.000Z</time>
      </trkpt>
      <trkpt lat="48.01232" lon="16.2685">
        <ele>246.201467</ele>
        <time>2026-07-07T10:06:16.000Z</time>
      </trkpt>
      <trkpt lat="48.01228" lon="16.26845">
        <ele>246.241905</ele>
        <time>2026-07-07T10:06:17.000Z</time>
      </trkpt>
      <trkpt lat="48.01224" lon="16.26839">
        <ele>246.280984</ele>
        <time>2026-07-07T10:06:18.000Z</time>
      </trkpt>
      <trkpt lat="48.01219" lon="16.26834">
        <ele>246.321423</ele>
        <time>2026-07-07T10:06:19.000Z</time>
      </trkpt>
      <trkpt lat="48.01215" lon="16.26829">
        <ele>246.361299</ele>
        <time>2026-07-07T10:06:20.000Z</time>
      </trkpt>
      <trkpt lat="48.01211" lon="16.26824">
        <ele>246.401479</ele>
        <time>2026-07-07T10:06:21.000Z</time>
      </trkpt>
      <trkpt lat="48.01206" lon="16.26818">
        <ele>246.442219</ele>
        <time>2026-07-07T10:06:22.000Z</time>
      </trkpt>
      <trkpt lat="48.01202" lon="16.26813">
        <ele>246.482094</ele>
        <time>2026-07-07T10:06:23.000Z</time>
      </trkpt>
      <trkpt lat="48.01198" lon="16.26808">
        <ele>246.523101</ele>
        <time>2026-07-07T10:06:24.000Z</time>
      </trkpt>
      <trkpt lat="48.01193" lon="16.26803">
        <ele>246.564405</ele>
        <time>2026-07-07T10:06:25.000Z</time>
      </trkpt>
      <trkpt lat="48.01189" lon="16.26797">
        <ele>246.605411</ele>
        <time>2026-07-07T10:06:26.000Z</time>
      </trkpt>
      <trkpt lat="48.01184" lon="16.26792">
        <ele>246.646125</ele>
        <time>2026-07-07T10:06:27.000Z</time>
      </trkpt>
      <trkpt lat="48.0118" lon="16.26787">
        <ele>246.687132</ele>
        <time>2026-07-07T10:06:28.000Z</time>
      </trkpt>
      <trkpt lat="48.01175" lon="16.26782">
        <ele>246.728138</ele>
        <time>2026-07-07T10:06:29.000Z</time>
      </trkpt>
      <trkpt lat="48.01171" lon="16.26777">
        <ele>246.767995</ele>
        <time>2026-07-07T10:06:30.000Z</time>
      </trkpt>
      <trkpt lat="48.01166" lon="16.26772">
        <ele>246.806399</ele>
        <time>2026-07-07T10:06:31.000Z</time>
      </trkpt>
      <trkpt lat="48.01162" lon="16.26768">
        <ele>246.844836</ele>
        <time>2026-07-07T10:06:32.000Z</time>
      </trkpt>
      <trkpt lat="48.01158" lon="16.26764">
        <ele>246.880945</ele>
        <time>2026-07-07T10:06:33.000Z</time>
      </trkpt>
      <trkpt lat="48.01154" lon="16.26759">
        <ele>246.9182</ele>
        <time>2026-07-07T10:06:34.000Z</time>
      </trkpt>
      <trkpt lat="48.0115" lon="16.26755">
        <ele>246.951695</ele>
        <time>2026-07-07T10:06:35.000Z</time>
      </trkpt>
      <trkpt lat="48.01146" lon="16.26751">
        <ele>246.984324</ele>
        <time>2026-07-07T10:06:36.000Z</time>
      </trkpt>
      <trkpt lat="48.01143" lon="16.26746">
        <ele>247.017065</ele>
        <time>2026-07-07T10:06:37.000Z</time>
      </trkpt>
      <trkpt lat="48.01139" lon="16.26742">
        <ele>247.050591</ele>
        <time>2026-07-07T10:06:38.000Z</time>
      </trkpt>
      <trkpt lat="48.01136" lon="16.26738">
        <ele>247.079573</ele>
        <time>2026-07-07T10:06:39.000Z</time>
      </trkpt>
      <trkpt lat="48.01133" lon="16.26734">
        <ele>247.109539</ele>
        <time>2026-07-07T10:06:40.000Z</time>
      </trkpt>
      <trkpt lat="48.01131" lon="16.26729">
        <ele>247.137751</ele>
        <time>2026-07-07T10:06:41.000Z</time>
      </trkpt>
      <trkpt lat="48.01128" lon="16.26725">
        <ele>247.166905</ele>
        <time>2026-07-07T10:06:42.000Z</time>
      </trkpt>
      <trkpt lat="48.01125" lon="16.2672">
        <ele>247.196539</ele>
        <time>2026-07-07T10:06:43.000Z</time>
      </trkpt>
      <trkpt lat="48.01122" lon="16.26716">
        <ele>247.228302</ele>
        <time>2026-07-07T10:06:44.000Z</time>
      </trkpt>
      <trkpt lat="48.01118" lon="16.26713">
        <ele>247.260667</ele>
        <time>2026-07-07T10:06:45.000Z</time>
      </trkpt>
      <trkpt lat="48.01114" lon="16.26708">
        <ele>247.293591</ele>
        <time>2026-07-07T10:06:46.000Z</time>
      </trkpt>
      <trkpt lat="48.0111" lon="16.26705">
        <ele>247.326638</ele>
        <time>2026-07-07T10:06:47.000Z</time>
      </trkpt>
      <trkpt lat="48.01106" lon="16.26701">
        <ele>247.360678</ele>
        <time>2026-07-07T10:06:48.000Z</time>
      </trkpt>
      <trkpt lat="48.01102" lon="16.26697">
        <ele>247.373203</ele>
        <time>2026-07-07T10:06:49.000Z</time>
      </trkpt>
      <trkpt lat="48.01098" lon="16.26693">
        <ele>247.379643</ele>
        <time>2026-07-07T10:06:50.000Z</time>
      </trkpt>
      <trkpt lat="48.01094" lon="16.26688">
        <ele>247.386397</ele>
        <time>2026-07-07T10:06:51.000Z</time>
      </trkpt>
      <trkpt lat="48.0109" lon="16.26683">
        <ele>247.393101</ele>
        <time>2026-07-07T10:06:52.000Z</time>
      </trkpt>
      <trkpt lat="48.01086" lon="16.26679">
        <ele>247.399752</ele>
        <time>2026-07-07T10:06:53.000Z</time>
      </trkpt>
      <trkpt lat="48.01082" lon="16.26674">
        <ele>247.406457</ele>
        <time>2026-07-07T10:06:54.000Z</time>
      </trkpt>
      <trkpt lat="48.01078" lon="16.26669">
        <ele>247.413421</ele>
        <time>2026-07-07T10:06:55.000Z</time>
      </trkpt>
      <trkpt lat="48.01074" lon="16.26664">
        <ele>247.420018</ele>
        <time>2026-07-07T10:06:56.000Z</time>
      </trkpt>
      <trkpt lat="48.0107" lon="16.2666">
        <ele>247.426561</ele>
        <time>2026-07-07T10:06:57.000Z</time>
      </trkpt>
      <trkpt lat="48.01066" lon="16.26655">
        <ele>247.433212</ele>
        <time>2026-07-07T10:06:58.000Z</time>
      </trkpt>
      <trkpt lat="48.01062" lon="16.2665">
        <ele>247.44023</ele>
        <time>2026-07-07T10:06:59.000Z</time>
      </trkpt>
      <trkpt lat="48.01058" lon="16.26645">
        <ele>247.44746</ele>
        <time>2026-07-07T10:07:00.000Z</time>
      </trkpt>
      <trkpt lat="48.01053" lon="16.2664">
        <ele>247.454533</ele>
        <time>2026-07-07T10:07:01.000Z</time>
      </trkpt>
      <trkpt lat="48.01049" lon="16.26635">
        <ele>247.461462</ele>
        <time>2026-07-07T10:07:02.000Z</time>
      </trkpt>
      <trkpt lat="48.01045" lon="16.2663">
        <ele>247.468167</ele>
        <time>2026-07-07T10:07:03.000Z</time>
      </trkpt>
      <trkpt lat="48.01041" lon="16.26625">
        <ele>247.474927</ele>
        <time>2026-07-07T10:07:04.000Z</time>
      </trkpt>
      <trkpt lat="48.01038" lon="16.2662">
        <ele>247.48143</ele>
        <time>2026-07-07T10:07:05.000Z</time>
      </trkpt>
      <trkpt lat="48.01034" lon="16.26615">
        <ele>247.488047</ele>
        <time>2026-07-07T10:07:06.000Z</time>
      </trkpt>
      <trkpt lat="48.0103" lon="16.26611">
        <ele>247.494282</ele>
        <time>2026-07-07T10:07:07.000Z</time>
      </trkpt>
      <trkpt lat="48.01027" lon="16.26607">
        <ele>247.499836</ele>
        <time>2026-07-07T10:07:08.000Z</time>
      </trkpt>
      <trkpt lat="48.01023" lon="16.26603">
        <ele>247.505385</ele>
        <time>2026-07-07T10:07:09.000Z</time>
      </trkpt>
      <trkpt lat="48.0102" lon="16.26599">
        <ele>247.51057</ele>
        <time>2026-07-07T10:07:10.000Z</time>
      </trkpt>
      <trkpt lat="48.01017" lon="16.26595">
        <ele>247.515858</ele>
        <time>2026-07-07T10:07:11.000Z</time>
      </trkpt>
      <trkpt lat="48.01014" lon="16.26592">
        <ele>247.521093</ele>
        <time>2026-07-07T10:07:12.000Z</time>
      </trkpt>
      <trkpt lat="48.01011" lon="16.26588">
        <ele>247.52639</ele>
        <time>2026-07-07T10:07:13.000Z</time>
      </trkpt>
      <trkpt lat="48.01007" lon="16.26584">
        <ele>247.532202</ele>
        <time>2026-07-07T10:07:14.000Z</time>
      </trkpt>
      <trkpt lat="48.01004" lon="16.2658">
        <ele>247.537804</ele>
        <time>2026-07-07T10:07:15.000Z</time>
      </trkpt>
      <trkpt lat="48.01" lon="16.26576">
        <ele>247.54372</ele>
        <time>2026-07-07T10:07:16.000Z</time>
      </trkpt>
      <trkpt lat="48.00997" lon="16.26572">
        <ele>247.549688</ele>
        <time>2026-07-07T10:07:17.000Z</time>
      </trkpt>
      <trkpt lat="48.00993" lon="16.26567">
        <ele>247.555869</ele>
        <time>2026-07-07T10:07:18.000Z</time>
      </trkpt>
      <trkpt lat="48.0099" lon="16.26563">
        <ele>247.561591</ele>
        <time>2026-07-07T10:07:19.000Z</time>
      </trkpt>
      <trkpt lat="48.00986" lon="16.26559">
        <ele>247.567513</ele>
        <time>2026-07-07T10:07:20.000Z</time>
      </trkpt>
      <trkpt lat="48.00983" lon="16.26554">
        <ele>247.573491</ele>
        <time>2026-07-07T10:07:21.000Z</time>
      </trkpt>
      <trkpt lat="48.00979" lon="16.2655">
        <ele>247.579329</ele>
        <time>2026-07-07T10:07:22.000Z</time>
      </trkpt>
      <trkpt lat="48.00976" lon="16.26545">
        <ele>247.585733</ele>
        <time>2026-07-07T10:07:23.000Z</time>
      </trkpt>
      <trkpt lat="48.00972" lon="16.26541">
        <ele>247.591911</ele>
        <time>2026-07-07T10:07:24.000Z</time>
      </trkpt>
      <trkpt lat="48.00968" lon="16.26537">
        <ele>247.597931</ele>
        <time>2026-07-07T10:07:25.000Z</time>
      </trkpt>
      <trkpt lat="48.00965" lon="16.26533">
        <ele>247.603468</ele>
        <time>2026-07-07T10:07:26.000Z</time>
      </trkpt>
      <trkpt lat="48.00961" lon="16.26529">
        <ele>247.60444</ele>
        <time>2026-07-07T10:07:27.000Z</time>
      </trkpt>
      <trkpt lat="48.00958" lon="16.26524">
        <ele>247.605364</ele>
        <time>2026-07-07T10:07:28.000Z</time>
      </trkpt>
      <trkpt lat="48.00955" lon="16.26521">
        <ele>247.606245</ele>
        <time>2026-07-07T10:07:29.000Z</time>
      </trkpt>
      <trkpt lat="48.00952" lon="16.26517">
        <ele>247.607134</ele>
        <time>2026-07-07T10:07:30.000Z</time>
      </trkpt>
      <trkpt lat="48.00949" lon="16.26514">
        <ele>247.608097</ele>
        <time>2026-07-07T10:07:31.000Z</time>
      </trkpt>
      <trkpt lat="48.00945" lon="16.2651">
        <ele>247.609105</ele>
        <time>2026-07-07T10:07:32.000Z</time>
      </trkpt>
      <trkpt lat="48.00942" lon="16.26505">
        <ele>247.610107</ele>
        <time>2026-07-07T10:07:33.000Z</time>
      </trkpt>
      <trkpt lat="48.00939" lon="16.26501">
        <ele>247.611164</ele>
        <time>2026-07-07T10:07:34.000Z</time>
      </trkpt>
      <trkpt lat="48.00935" lon="16.26496">
        <ele>247.612273</ele>
        <time>2026-07-07T10:07:35.000Z</time>
      </trkpt>
      <trkpt lat="48.00931" lon="16.26492">
        <ele>247.61342</ele>
        <time>2026-07-07T10:07:36.000Z</time>
      </trkpt>
      <trkpt lat="48.00927" lon="16.26486">
        <ele>247.614651</ele>
        <time>2026-07-07T10:07:37.000Z</time>
      </trkpt>
      <trkpt lat="48.00923" lon="16.26481">
        <ele>247.61588</ele>
        <time>2026-07-07T10:07:38.000Z</time>
      </trkpt>
      <trkpt lat="48.00918" lon="16.26477">
        <ele>247.617128</ele>
        <time>2026-07-07T10:07:39.000Z</time>
      </trkpt>
      <trkpt lat="48.00913" lon="16.26472">
        <ele>247.618405</ele>
        <time>2026-07-07T10:07:40.000Z</time>
      </trkpt>
      <trkpt lat="48.00909" lon="16.26468">
        <ele>247.619663</ele>
        <time>2026-07-07T10:07:41.000Z</time>
      </trkpt>
      <trkpt lat="48.00904" lon="16.26463">
        <ele>247.620894</ele>
        <time>2026-07-07T10:07:42.000Z</time>
      </trkpt>
      <trkpt lat="48.009" lon="16.2646">
        <ele>247.622117</ele>
        <time>2026-07-07T10:07:43.000Z</time>
      </trkpt>
      <trkpt lat="48.00895" lon="16.26456">
        <ele>247.623333</ele>
        <time>2026-07-07T10:07:44.000Z</time>
      </trkpt>
      <trkpt lat="48.0089" lon="16.26453">
        <ele>247.62448</ele>
        <time>2026-07-07T10:07:45.000Z</time>
      </trkpt>
      <trkpt lat="48.00886" lon="16.2645">
        <ele>247.625491</ele>
        <time>2026-07-07T10:07:46.000Z</time>
      </trkpt>
      <trkpt lat="48.00883" lon="16.26447">
        <ele>247.626442</ele>
        <time>2026-07-07T10:07:47.000Z</time>
      </trkpt>
      <trkpt lat="48.00879" lon="16.26445">
        <ele>247.627353</ele>
        <time>2026-07-07T10:07:48.000Z</time>
      </trkpt>
      <trkpt lat="48.00875" lon="16.26443">
        <ele>247.628232</ele>
        <time>2026-07-07T10:07:49.000Z</time>
      </trkpt>
      <trkpt lat="48.00872" lon="16.26441">
        <ele>247.629144</ele>
        <time>2026-07-07T10:07:50.000Z</time>
      </trkpt>
      <trkpt lat="48.00868" lon="16.26439">
        <ele>247.629938</ele>
        <time>2026-07-07T10:07:51.000Z</time>
      </trkpt>
      <trkpt lat="48.00865" lon="16.26438">
        <ele>247.630701</ele>
        <time>2026-07-07T10:07:52.000Z</time>
      </trkpt>
      <trkpt lat="48.00862" lon="16.26437">
        <ele>247.631416</ele>
        <time>2026-07-07T10:07:53.000Z</time>
      </trkpt>
      <trkpt lat="48.00859" lon="16.26436">
        <ele>247.632113</ele>
        <time>2026-07-07T10:07:54.000Z</time>
      </trkpt>
      <trkpt lat="48.00857" lon="16.26434">
        <ele>247.63273</ele>
        <time>2026-07-07T10:07:55.000Z</time>
      </trkpt>
      <trkpt lat="48.00854" lon="16.26433">
        <ele>247.633341</ele>
        <time>2026-07-07T10:07:56.000Z</time>
      </trkpt>
      <trkpt lat="48.00852" lon="16.26432">
        <ele>247.633771</ele>
        <time>2026-07-07T10:07:57.000Z</time>
      </trkpt>
      <trkpt lat="48.0085" lon="16.26432">
        <ele>247.634207</ele>
        <time>2026-07-07T10:07:58.000Z</time>
      </trkpt>
      <trkpt lat="48.00849" lon="16.26433">
        <ele>247.634616</ele>
        <time>2026-07-07T10:07:59.000Z</time>
      </trkpt>
      <trkpt lat="48.00847" lon="16.26436">
        <ele>247.635215</ele>
        <time>2026-07-07T10:08:00.000Z</time>
      </trkpt>
      <trkpt lat="48.00846" lon="16.26441">
        <ele>247.63597</ele>
        <time>2026-07-07T10:08:01.000Z</time>
      </trkpt>
      <trkpt lat="48.00845" lon="16.26446">
        <ele>247.63682</ele>
        <time>2026-07-07T10:08:02.000Z</time>
      </trkpt>
      <trkpt lat="48.00844" lon="16.26452">
        <ele>247.637737</ele>
        <time>2026-07-07T10:08:03.000Z</time>
      </trkpt>
      <trkpt lat="48.00843" lon="16.26458">
        <ele>247.638729</ele>
        <time>2026-07-07T10:08:04.000Z</time>
      </trkpt>
      <trkpt lat="48.00843" lon="16.26465">
        <ele>247.639792</ele>
        <time>2026-07-07T10:08:05.000Z</time>
      </trkpt>
      <trkpt lat="48.00842" lon="16.26472">
        <ele>247.640845</ele>
        <time>2026-07-07T10:08:06.000Z</time>
      </trkpt>
      <trkpt lat="48.00841" lon="16.26478">
        <ele>247.641827</ele>
        <time>2026-07-07T10:08:07.000Z</time>
      </trkpt>
      <trkpt lat="48.0084" lon="16.26484">
        <ele>247.642764</ele>
        <time>2026-07-07T10:08:08.000Z</time>
      </trkpt>
      <trkpt lat="48.0084" lon="16.2649">
        <ele>247.64369</ele>
        <time>2026-07-07T10:08:09.000Z</time>
      </trkpt>
      <trkpt lat="48.00839" lon="16.26497">
        <ele>247.641813</ele>
        <time>2026-07-07T10:08:10.000Z</time>
      </trkpt>
      <trkpt lat="48.00838" lon="16.26503">
        <ele>247.619233</ele>
        <time>2026-07-07T10:08:11.000Z</time>
      </trkpt>
      <trkpt lat="48.00837" lon="16.2651">
        <ele>247.596321</ele>
        <time>2026-07-07T10:08:12.000Z</time>
      </trkpt>
      <trkpt lat="48.00836" lon="16.26517">
        <ele>247.573212</ele>
        <time>2026-07-07T10:08:13.000Z</time>
      </trkpt>
      <trkpt lat="48.00836" lon="16.26524">
        <ele>247.550051</ele>
        <time>2026-07-07T10:08:14.000Z</time>
      </trkpt>
      <trkpt lat="48.00835" lon="16.26531">
        <ele>247.526224</ele>
        <time>2026-07-07T10:08:15.000Z</time>
      </trkpt>
      <trkpt lat="48.00834" lon="16.26538">
        <ele>247.502466</ele>
        <time>2026-07-07T10:08:16.000Z</time>
      </trkpt>
      <trkpt lat="48.00833" lon="16.26545">
        <ele>247.477808</ele>
        <time>2026-07-07T10:08:17.000Z</time>
      </trkpt>
      <trkpt lat="48.00833" lon="16.26552">
        <ele>247.453048</ele>
        <time>2026-07-07T10:08:18.000Z</time>
      </trkpt>
      <trkpt lat="48.00832" lon="16.2656">
        <ele>247.427555</ele>
        <time>2026-07-07T10:08:19.000Z</time>
      </trkpt>
      <trkpt lat="48.00831" lon="16.26567">
        <ele>247.401988</ele>
        <time>2026-07-07T10:08:20.000Z</time>
      </trkpt>
      <trkpt lat="48.0083" lon="16.26575">
        <ele>247.375674</ele>
        <time>2026-07-07T10:08:21.000Z</time>
      </trkpt>
      <trkpt lat="48.0083" lon="16.26582">
        <ele>247.350245</ele>
        <time>2026-07-07T10:08:22.000Z</time>
      </trkpt>
      <trkpt lat="48.00829" lon="16.2659">
        <ele>247.323599</ele>
        <time>2026-07-07T10:08:23.000Z</time>
      </trkpt>
      <trkpt lat="48.00828" lon="16.26598">
        <ele>247.297502</ele>
        <time>2026-07-07T10:08:24.000Z</time>
      </trkpt>
      <trkpt lat="48.00828" lon="16.26606">
        <ele>247.271124</ele>
        <time>2026-07-07T10:08:25.000Z</time>
      </trkpt>
      <trkpt lat="48.00827" lon="16.26613">
        <ele>247.24508</ele>
        <time>2026-07-07T10:08:26.000Z</time>
      </trkpt>
      <trkpt lat="48.00827" lon="16.26621">
        <ele>247.219587</ele>
        <time>2026-07-07T10:08:27.000Z</time>
      </trkpt>
      <trkpt lat="48.00826" lon="16.26628">
        <ele>247.19576</ele>
        <time>2026-07-07T10:08:28.000Z</time>
      </trkpt>
      <trkpt lat="48.00825" lon="16.26634">
        <ele>247.173671</ele>
        <time>2026-07-07T10:08:29.000Z</time>
      </trkpt>
      <trkpt lat="48.00825" lon="16.26641">
        <ele>247.151697</ele>
        <time>2026-07-07T10:08:30.000Z</time>
      </trkpt>
      <trkpt lat="48.00825" lon="16.26647">
        <ele>247.129809</ele>
        <time>2026-07-07T10:08:31.000Z</time>
      </trkpt>
      <trkpt lat="48.00825" lon="16.26654">
        <ele>247.108576</ele>
        <time>2026-07-07T10:08:32.000Z</time>
      </trkpt>
      <trkpt lat="48.00824" lon="16.2666">
        <ele>247.086413</ele>
        <time>2026-07-07T10:08:33.000Z</time>
      </trkpt>
      <trkpt lat="48.00823" lon="16.26667">
        <ele>247.063842</ele>
        <time>2026-07-07T10:08:34.000Z</time>
      </trkpt>
      <trkpt lat="48.00822" lon="16.26673">
        <ele>247.040836</ele>
        <time>2026-07-07T10:08:35.000Z</time>
      </trkpt>
      <trkpt lat="48.00821" lon="16.2668">
        <ele>247.017806</ele>
        <time>2026-07-07T10:08:36.000Z</time>
      </trkpt>
      <trkpt lat="48.00821" lon="16.26687">
        <ele>246.99578</ele>
        <time>2026-07-07T10:08:37.000Z</time>
      </trkpt>
      <trkpt lat="48.0082" lon="16.26692">
        <ele>246.975844</ele>
        <time>2026-07-07T10:08:38.000Z</time>
      </trkpt>
      <trkpt lat="48.00818" lon="16.26696">
        <ele>246.959891</ele>
        <time>2026-07-07T10:08:39.000Z</time>
      </trkpt>
      <trkpt lat="48.00816" lon="16.26698">
        <ele>246.946071</ele>
        <time>2026-07-07T10:08:40.000Z</time>
      </trkpt>
      <trkpt lat="48.00813" lon="16.26697">
        <ele>246.930792</ele>
        <time>2026-07-07T10:08:41.000Z</time>
      </trkpt>
      <trkpt lat="48.0081" lon="16.26696">
        <ele>246.916224</ele>
        <time>2026-07-07T10:08:42.000Z</time>
      </trkpt>
      <trkpt lat="48.00808" lon="16.26696">
        <ele>246.903645</ele>
        <time>2026-07-07T10:08:43.000Z</time>
      </trkpt>
      <trkpt lat="48.00805" lon="16.26697">
        <ele>246.892074</ele>
        <time>2026-07-07T10:08:44.000Z</time>
      </trkpt>
      <trkpt lat="48.00804" lon="16.26697">
        <ele>246.882991</ele>
        <time>2026-07-07T10:08:45.000Z</time>
      </trkpt>
      <trkpt lat="48.00802" lon="16.26695">
        <ele>246.874075</ele>
        <time>2026-07-07T10:08:46.000Z</time>
      </trkpt>
      <trkpt lat="48.00803" lon="16.26692">
        <ele>246.864196</ele>
        <time>2026-07-07T10:08:47.000Z</time>
      </trkpt>
      <trkpt lat="48.00804" lon="16.26689">
        <ele>246.852</ele>
        <time>2026-07-07T10:08:48.000Z</time>
      </trkpt>
      <trkpt lat="48.00805" lon="16.26685">
        <ele>246.83689</ele>
        <time>2026-07-07T10:08:49.000Z</time>
      </trkpt>
      <trkpt lat="48.00807" lon="16.26681">
        <ele>246.821453</ele>
        <time>2026-07-07T10:08:50.000Z</time>
      </trkpt>
      <trkpt lat="48.00808" lon="16.26677">
        <ele>246.805955</ele>
        <time>2026-07-07T10:08:51.000Z</time>
      </trkpt>
      <trkpt lat="48.00809" lon="16.26672">
        <ele>246.787768</ele>
        <time>2026-07-07T10:08:52.000Z</time>
      </trkpt>
      <trkpt lat="48.00809" lon="16.26667">
        <ele>246.770197</ele>
        <time>2026-07-07T10:08:53.000Z</time>
      </trkpt>
      <trkpt lat="48.00809" lon="16.26662">
        <ele>246.753335</ele>
        <time>2026-07-07T10:08:54.000Z</time>
      </trkpt>
      <trkpt lat="48.00809" lon="16.26657">
        <ele>246.740636</ele>
        <time>2026-07-07T10:08:55.000Z</time>
      </trkpt>
      <trkpt lat="48.0081" lon="16.26653">
        <ele>246.752048</ele>
        <time>2026-07-07T10:08:56.000Z</time>
      </trkpt>
      <trkpt lat="48.0081" lon="16.26649">
        <ele>246.762712</ele>
        <time>2026-07-07T10:08:57.000Z</time>
      </trkpt>
      <trkpt lat="48.0081" lon="16.26645">
        <ele>246.77393</ele>
        <time>2026-07-07T10:08:58.000Z</time>
      </trkpt>
      <trkpt lat="48.00809" lon="16.26642">
        <ele>246.783145</ele>
        <time>2026-07-07T10:08:59.000Z</time>
      </trkpt>
      <trkpt lat="48.00809" lon="16.26639">
        <ele>246.791097</ele>
        <time>2026-07-07T10:09:00.000Z</time>
      </trkpt>
      <trkpt lat="48.00809" lon="16.26636">
        <ele>246.799273</ele>
        <time>2026-07-07T10:09:01.000Z</time>
      </trkpt>
      <trkpt lat="48.00809" lon="16.26634">
        <ele>246.807302</ele>
        <time>2026-07-07T10:09:02.000Z</time>
      </trkpt>
      <trkpt lat="48.0081" lon="16.26631">
        <ele>246.815808</ele>
        <time>2026-07-07T10:09:03.000Z</time>
      </trkpt>
      <trkpt lat="48.0081" lon="16.26627">
        <ele>246.825845</ele>
        <time>2026-07-07T10:09:04.000Z</time>
      </trkpt>
      <trkpt lat="48.0081" lon="16.26624">
        <ele>246.83574</ele>
        <time>2026-07-07T10:09:05.000Z</time>
      </trkpt>
      <trkpt lat="48.00811" lon="16.2662">
        <ele>246.845229</ele>
        <time>2026-07-07T10:09:06.000Z</time>
      </trkpt>
      <trkpt lat="48.00811" lon="16.26617">
        <ele>246.854242</ele>
        <time>2026-07-07T10:09:07.000Z</time>
      </trkpt>
      <trkpt lat="48.00811" lon="16.26615">
        <ele>246.861364</ele>
        <time>2026-07-07T10:09:08.000Z</time>
      </trkpt>
      <trkpt lat="48.00811" lon="16.26612">
        <ele>246.868375</ele>
        <time>2026-07-07T10:09:09.000Z</time>
      </trkpt>
      <trkpt lat="48.00811" lon="16.2661">
        <ele>246.875157</ele>
        <time>2026-07-07T10:09:10.000Z</time>
      </trkpt>
      <trkpt lat="48.00809" lon="16.26608">
        <ele>246.883048</ele>
        <time>2026-07-07T10:09:11.000Z</time>
      </trkpt>
      <trkpt lat="48.00808" lon="16.26607">
        <ele>246.890551</ele>
        <time>2026-07-07T10:09:12.000Z</time>
      </trkpt>
      <trkpt lat="48.00806" lon="16.26606">
        <ele>246.896656</ele>
        <time>2026-07-07T10:09:13.000Z</time>
      </trkpt>
      <trkpt lat="48.00805" lon="16.26606">
        <ele>246.903043</ele>
        <time>2026-07-07T10:09:14.000Z</time>
      </trkpt>
      <trkpt lat="48.00803" lon="16.26606">
        <ele>246.909773</ele>
        <time>2026-07-07T10:09:15.000Z</time>
      </trkpt>
      <trkpt lat="48.00801" lon="16.26606">
        <ele>246.917781</ele>
        <time>2026-07-07T10:09:16.000Z</time>
      </trkpt>
      <trkpt lat="48.008" lon="16.26604">
        <ele>246.925672</ele>
        <time>2026-07-07T10:09:17.000Z</time>
      </trkpt>
      <trkpt lat="48.00799" lon="16.26601">
        <ele>246.933528</ele>
        <time>2026-07-07T10:09:18.000Z</time>
      </trkpt>
      <trkpt lat="48.00799" lon="16.26598">
        <ele>246.941941</ele>
        <time>2026-07-07T10:09:19.000Z</time>
      </trkpt>
      <trkpt lat="48.008" lon="16.26595">
        <ele>246.950396</ele>
        <time>2026-07-07T10:09:20.000Z</time>
      </trkpt>
      <trkpt lat="48.008" lon="16.26592">
        <ele>246.960291</ele>
        <time>2026-07-07T10:09:21.000Z</time>
      </trkpt>
      <trkpt lat="48.008" lon="16.26588">
        <ele>246.970602</ele>
        <time>2026-07-07T10:09:22.000Z</time>
      </trkpt>
      <trkpt lat="48.00801" lon="16.26584">
        <ele>246.982013</ele>
        <time>2026-07-07T10:09:23.000Z</time>
      </trkpt>
      <trkpt lat="48.00802" lon="16.2658">
        <ele>246.994151</ele>
        <time>2026-07-07T10:09:24.000Z</time>
      </trkpt>
      <trkpt lat="48.00802" lon="16.26576">
        <ele>247.006668</ele>
        <time>2026-07-07T10:09:25.000Z</time>
      </trkpt>
      <trkpt lat="48.00803" lon="16.26572">
        <ele>247.018079</ele>
        <time>2026-07-07T10:09:26.000Z</time>
      </trkpt>
      <trkpt lat="48.00803" lon="16.26568">
        <ele>247.030042</ele>
        <time>2026-07-07T10:09:27.000Z</time>
      </trkpt>
      <trkpt lat="48.00804" lon="16.26563">
        <ele>247.043819</ele>
        <time>2026-07-07T10:09:28.000Z</time>
      </trkpt>
      <trkpt lat="48.00805" lon="16.26557">
        <ele>247.059329</ele>
        <time>2026-07-07T10:09:29.000Z</time>
      </trkpt>
      <trkpt lat="48.00806" lon="16.26552">
        <ele>247.07548</ele>
        <time>2026-07-07T10:09:30.000Z</time>
      </trkpt>
      <trkpt lat="48.00807" lon="16.26546">
        <ele>247.092637</ele>
        <time>2026-07-07T10:09:31.000Z</time>
      </trkpt>
      <trkpt lat="48.00807" lon="16.2654">
        <ele>247.11027</ele>
        <time>2026-07-07T10:09:32.000Z</time>
      </trkpt>
      <trkpt lat="48.00808" lon="16.26533">
        <ele>247.128618</ele>
        <time>2026-07-07T10:09:33.000Z</time>
      </trkpt>
      <trkpt lat="48.00808" lon="16.26527">
        <ele>247.146409</ele>
        <time>2026-07-07T10:09:34.000Z</time>
      </trkpt>
      <trkpt lat="48.00809" lon="16.2652">
        <ele>247.16524</ele>
        <time>2026-07-07T10:09:35.000Z</time>
      </trkpt>
      <trkpt lat="48.00809" lon="16.26513">
        <ele>247.184257</ele>
        <time>2026-07-07T10:09:36.000Z</time>
      </trkpt>
      <trkpt lat="48.0081" lon="16.26507">
        <ele>247.203441</ele>
        <time>2026-07-07T10:09:37.000Z</time>
      </trkpt>
      <trkpt lat="48.0081" lon="16.265">
        <ele>247.221153</ele>
        <time>2026-07-07T10:09:38.000Z</time>
      </trkpt>
      <trkpt lat="48.0081" lon="16.26494">
        <ele>247.23856</ele>
        <time>2026-07-07T10:09:39.000Z</time>
      </trkpt>
      <trkpt lat="48.00811" lon="16.26488">
        <ele>247.254681</ele>
        <time>2026-07-07T10:09:40.000Z</time>
      </trkpt>
      <trkpt lat="48.00811" lon="16.26483">
        <ele>247.270436</ele>
        <time>2026-07-07T10:09:41.000Z</time>
      </trkpt>
      <trkpt lat="48.00812" lon="16.26477">
        <ele>247.286557</ele>
        <time>2026-07-07T10:09:42.000Z</time>
      </trkpt>
      <trkpt lat="48.00812" lon="16.26471">
        <ele>247.302871</ele>
        <time>2026-07-07T10:09:43.000Z</time>
      </trkpt>
      <trkpt lat="48.00812" lon="16.26465">
        <ele>247.319549</ele>
        <time>2026-07-07T10:09:44.000Z</time>
      </trkpt>
      <trkpt lat="48.00813" lon="16.2646">
        <ele>247.335948</ele>
        <time>2026-07-07T10:09:45.000Z</time>
      </trkpt>
      <trkpt lat="48.00813" lon="16.26454">
        <ele>247.351938</ele>
        <time>2026-07-07T10:09:46.000Z</time>
      </trkpt>
      <trkpt lat="48.00813" lon="16.26448">
        <ele>247.367413</ele>
        <time>2026-07-07T10:09:47.000Z</time>
      </trkpt>
      <trkpt lat="48.00813" lon="16.26443">
        <ele>247.382888</ele>
        <time>2026-07-07T10:09:48.000Z</time>
      </trkpt>
      <trkpt lat="48.00814" lon="16.26438">
        <ele>247.397288</ele>
        <time>2026-07-07T10:09:49.000Z</time>
      </trkpt>
      <trkpt lat="48.00814" lon="16.26433">
        <ele>247.411087</ele>
        <time>2026-07-07T10:09:50.000Z</time>
      </trkpt>
      <trkpt lat="48.00815" lon="16.26429">
        <ele>247.422774</ele>
        <time>2026-07-07T10:09:51.000Z</time>
      </trkpt>
      <trkpt lat="48.00815" lon="16.26425">
        <ele>247.433783</ele>
        <time>2026-07-07T10:09:52.000Z</time>
      </trkpt>
      <trkpt lat="48.00815" lon="16.26422">
        <ele>247.442516</ele>
        <time>2026-07-07T10:09:53.000Z</time>
      </trkpt>
      <trkpt lat="48.00815" lon="16.26419">
        <ele>247.450746</ele>
        <time>2026-07-07T10:09:54.000Z</time>
      </trkpt>
      <trkpt lat="48.00815" lon="16.26416">
        <ele>247.458063</ele>
        <time>2026-07-07T10:09:55.000Z</time>
      </trkpt>
      <trkpt lat="48.00813" lon="16.26414">
        <ele>247.467634</ele>
        <time>2026-07-07T10:09:56.000Z</time>
      </trkpt>
      <trkpt lat="48.0081" lon="16.26412">
        <ele>247.481291</ele>
        <time>2026-07-07T10:09:57.000Z</time>
      </trkpt>
      <trkpt lat="48.00806" lon="16.26411">
        <ele>247.500605</ele>
        <time>2026-07-07T10:09:58.000Z</time>
      </trkpt>
      <trkpt lat="48.00802" lon="16.26409">
        <ele>247.528375</ele>
        <time>2026-07-07T10:09:59.000Z</time>
      </trkpt>
      <trkpt lat="48.00798" lon="16.26406">
        <ele>247.556438</ele>
        <time>2026-07-07T10:10:00.000Z</time>
      </trkpt>
      <trkpt lat="48.00794" lon="16.26404">
        <ele>247.587127</ele>
        <time>2026-07-07T10:10:01.000Z</time>
      </trkpt>
      <trkpt lat="48.0079" lon="16.26402">
        <ele>247.615808</ele>
        <time>2026-07-07T10:10:02.000Z</time>
      </trkpt>
      <trkpt lat="48.00786" lon="16.264">
        <ele>247.644026</ele>
        <time>2026-07-07T10:10:03.000Z</time>
      </trkpt>
      <trkpt lat="48.00782" lon="16.26398">
        <ele>247.671172</ele>
        <time>2026-07-07T10:10:04.000Z</time>
      </trkpt>
      <trkpt lat="48.00778" lon="16.26396">
        <ele>247.697417</ele>
        <time>2026-07-07T10:10:05.000Z</time>
      </trkpt>
      <trkpt lat="48.00774" lon="16.26394">
        <ele>247.723942</ele>
        <time>2026-07-07T10:10:06.000Z</time>
      </trkpt>
      <trkpt lat="48.0077" lon="16.26392">
        <ele>247.751576</ele>
        <time>2026-07-07T10:10:07.000Z</time>
      </trkpt>
      <trkpt lat="48.00766" lon="16.2639">
        <ele>247.781855</ele>
        <time>2026-07-07T10:10:08.000Z</time>
      </trkpt>
      <trkpt lat="48.00762" lon="16.26388">
        <ele>247.811639</ele>
        <time>2026-07-07T10:10:09.000Z</time>
      </trkpt>
      <trkpt lat="48.00757" lon="16.26386">
        <ele>247.842811</ele>
        <time>2026-07-07T10:10:10.000Z</time>
      </trkpt>
      <trkpt lat="48.00753" lon="16.26383">
        <ele>247.874419</ele>
        <time>2026-07-07T10:10:11.000Z</time>
      </trkpt>
      <trkpt lat="48.00748" lon="16.26381">
        <ele>247.906028</ele>
        <time>2026-07-07T10:10:12.000Z</time>
      </trkpt>
      <trkpt lat="48.00744" lon="16.26378">
        <ele>247.93734</ele>
        <time>2026-07-07T10:10:13.000Z</time>
      </trkpt>
      <trkpt lat="48.00739" lon="16.26376">
        <ele>247.968797</ele>
        <time>2026-07-07T10:10:14.000Z</time>
      </trkpt>
      <trkpt lat="48.00734" lon="16.26374">
        <ele>248.001095</ele>
        <time>2026-07-07T10:10:15.000Z</time>
      </trkpt>
      <trkpt lat="48.0073" lon="16.26371">
        <ele>248.033173</ele>
        <time>2026-07-07T10:10:16.000Z</time>
      </trkpt>
      <trkpt lat="48.00725" lon="16.26369">
        <ele>248.065734</ele>
        <time>2026-07-07T10:10:17.000Z</time>
      </trkpt>
      <trkpt lat="48.00721" lon="16.26367">
        <ele>248.096906</ele>
        <time>2026-07-07T10:10:18.000Z</time>
      </trkpt>
      <trkpt lat="48.00716" lon="16.26365">
        <ele>248.12669</ele>
        <time>2026-07-07T10:10:19.000Z</time>
      </trkpt>
      <trkpt lat="48.00712" lon="16.26362">
        <ele>248.159841</ele>
        <time>2026-07-07T10:10:20.000Z</time>
      </trkpt>
      <trkpt lat="48.00707" lon="16.2636">
        <ele>248.189242</ele>
        <time>2026-07-07T10:10:21.000Z</time>
      </trkpt>
      <trkpt lat="48.00703" lon="16.26358">
        <ele>248.219006</ele>
        <time>2026-07-07T10:10:22.000Z</time>
      </trkpt>
      <trkpt lat="48.00699" lon="16.26355">
        <ele>248.248771</ele>
        <time>2026-07-07T10:10:23.000Z</time>
      </trkpt>
      <trkpt lat="48.00694" lon="16.26352">
        <ele>248.281212</ele>
        <time>2026-07-07T10:10:24.000Z</time>
      </trkpt>
      <trkpt lat="48.0069" lon="16.26349">
        <ele>248.314082</ele>
        <time>2026-07-07T10:10:25.000Z</time>
      </trkpt>
      <trkpt lat="48.00685" lon="16.26347">
        <ele>248.347078</ele>
        <time>2026-07-07T10:10:26.000Z</time>
      </trkpt>
      <trkpt lat="48.0068" lon="16.26344">
        <ele>248.380845</ele>
        <time>2026-07-07T10:10:27.000Z</time>
      </trkpt>
      <trkpt lat="48.00675" lon="16.26342">
        <ele>248.415289</ele>
        <time>2026-07-07T10:10:28.000Z</time>
      </trkpt>
      <trkpt lat="48.0067" lon="16.26339">
        <ele>248.450762</ele>
        <time>2026-07-07T10:10:29.000Z</time>
      </trkpt>
      <trkpt lat="48.00665" lon="16.26334">
        <ele>248.493055</ele>
        <time>2026-07-07T10:10:30.000Z</time>
      </trkpt>
      <trkpt lat="48.0066" lon="16.26331">
        <ele>248.530368</ele>
        <time>2026-07-07T10:10:31.000Z</time>
      </trkpt>
      <trkpt lat="48.00655" lon="16.26327">
        <ele>248.564839</ele>
        <time>2026-07-07T10:10:32.000Z</time>
      </trkpt>
      <trkpt lat="48.00652" lon="16.26323">
        <ele>248.593848</ele>
        <time>2026-07-07T10:10:33.000Z</time>
      </trkpt>
      <trkpt lat="48.00648" lon="16.2632">
        <ele>248.622065</ele>
        <time>2026-07-07T10:10:34.000Z</time>
      </trkpt>
      <trkpt lat="48.00643" lon="16.26318">
        <ele>248.652442</ele>
        <time>2026-07-07T10:10:35.000Z</time>
      </trkpt>
      <trkpt lat="48.00639" lon="16.26315">
        <ele>248.683345</ele>
        <time>2026-07-07T10:10:36.000Z</time>
      </trkpt>
      <trkpt lat="48.00635" lon="16.26313">
        <ele>248.713578</ele>
        <time>2026-07-07T10:10:37.000Z</time>
      </trkpt>
      <trkpt lat="48.0063" lon="16.2631">
        <ele>248.742882</ele>
        <time>2026-07-07T10:10:38.000Z</time>
      </trkpt>
      <trkpt lat="48.00626" lon="16.26308">
        <ele>248.770838</ele>
        <time>2026-07-07T10:10:39.000Z</time>
      </trkpt>
      <trkpt lat="48.00622" lon="16.26307">
        <ele>248.798283</ele>
        <time>2026-07-07T10:10:40.000Z</time>
      </trkpt>
      <trkpt lat="48.00618" lon="16.26307">
        <ele>248.827456</ele>
        <time>2026-07-07T10:10:41.000Z</time>
      </trkpt>
      <trkpt lat="48.00613" lon="16.26308">
        <ele>248.856638</ele>
        <time>2026-07-07T10:10:42.000Z</time>
      </trkpt>
      <trkpt lat="48.00609" lon="16.26307">
        <ele>248.885836</ele>
        <time>2026-07-07T10:10:43.000Z</time>
      </trkpt>
      <trkpt lat="48.00604" lon="16.26306">
        <ele>248.914668</ele>
        <time>2026-07-07T10:10:44.000Z</time>
      </trkpt>
      <trkpt lat="48.006" lon="16.26304">
        <ele>248.943241</ele>
        <time>2026-07-07T10:10:45.000Z</time>
      </trkpt>
      <trkpt lat="48.00596" lon="16.26301">
        <ele>248.972236</ele>
        <time>2026-07-07T10:10:46.000Z</time>
      </trkpt>
      <trkpt lat="48.00592" lon="16.26299">
        <ele>249.001696</ele>
        <time>2026-07-07T10:10:47.000Z</time>
      </trkpt>
      <trkpt lat="48.00588" lon="16.26297">
        <ele>249.029477</ele>
        <time>2026-07-07T10:10:48.000Z</time>
      </trkpt>
      <trkpt lat="48.00584" lon="16.26295">
        <ele>249.056818</ele>
        <time>2026-07-07T10:10:49.000Z</time>
      </trkpt>
      <trkpt lat="48.0058" lon="16.26293">
        <ele>249.082178</ele>
        <time>2026-07-07T10:10:50.000Z</time>
      </trkpt>
      <trkpt lat="48.00576" lon="16.26291">
        <ele>249.106467</ele>
        <time>2026-07-07T10:10:51.000Z</time>
      </trkpt>
      <trkpt lat="48.00573" lon="16.26289">
        <ele>249.128529</ele>
        <time>2026-07-07T10:10:52.000Z</time>
      </trkpt>
      <trkpt lat="48.0057" lon="16.26287">
        <ele>249.14961</ele>
        <time>2026-07-07T10:10:53.000Z</time>
      </trkpt>
      <trkpt lat="48.00568" lon="16.26285">
        <ele>249.165302</ele>
        <time>2026-07-07T10:10:54.000Z</time>
      </trkpt>
      <trkpt lat="48.00567" lon="16.26283">
        <ele>249.177504</ele>
        <time>2026-07-07T10:10:55.000Z</time>
      </trkpt>
      <trkpt lat="48.00566" lon="16.26282">
        <ele>249.185854</ele>
        <time>2026-07-07T10:10:56.000Z</time>
      </trkpt>
      <trkpt lat="48.00564" lon="16.26282">
        <ele>249.193644</ele>
        <time>2026-07-07T10:10:57.000Z</time>
      </trkpt>
      <trkpt lat="48.00564" lon="16.26282">
        <ele>249.197629</ele>
        <time>2026-07-07T10:10:58.000Z</time>
      </trkpt>
      <trkpt lat="48.00564" lon="16.26282">
        <ele>249.199466</ele>
        <time>2026-07-07T10:10:59.000Z</time>
      </trkpt>
      <trkpt lat="48.00561" lon="16.26278">
        <ele>249.222851</ele>
        <time>2026-07-07T10:12:16.000Z</time>
      </trkpt>
      <trkpt lat="48.0056" lon="16.26278">
        <ele>249.229686</ele>
        <time>2026-07-07T10:12:17.000Z</time>
      </trkpt>
      <trkpt lat="48.00559" lon="16.26278">
        <ele>249.232315</ele>
        <time>2026-07-07T10:12:18.000Z</time>
      </trkpt>
      <trkpt lat="48.00557" lon="16.26276">
        <ele>249.251269</ele>
        <time>2026-07-07T10:12:24.000Z</time>
      </trkpt>
      <trkpt lat="48.00555" lon="16.26275">
        <ele>249.261747</ele>
        <time>2026-07-07T10:12:25.000Z</time>
      </trkpt>
      <trkpt lat="48.00553" lon="16.26274">
        <ele>249.274804</ele>
        <time>2026-07-07T10:12:26.000Z</time>
      </trkpt>
      <trkpt lat="48.00552" lon="16.26273">
        <ele>249.287409</ele>
        <time>2026-07-07T10:12:27.000Z</time>
      </trkpt>
      <trkpt lat="48.0055" lon="16.26272">
        <ele>249.301379</ele>
        <time>2026-07-07T10:12:28.000Z</time>
      </trkpt>
      <trkpt lat="48.00547" lon="16.26271">
        <ele>249.318154</ele>
        <time>2026-07-07T10:12:29.000Z</time>
      </trkpt>
      <trkpt lat="48.00544" lon="16.26269">
        <ele>249.338951</ele>
        <time>2026-07-07T10:12:30.000Z</time>
      </trkpt>
      <trkpt lat="48.00541" lon="16.26267">
        <ele>249.361435</ele>
        <time>2026-07-07T10:12:31.000Z</time>
      </trkpt>
      <trkpt lat="48.00537" lon="16.26265">
        <ele>249.385159</ele>
        <time>2026-07-07T10:12:32.000Z</time>
      </trkpt>
      <trkpt lat="48.00534" lon="16.26263">
        <ele>249.411274</ele>
        <time>2026-07-07T10:12:33.000Z</time>
      </trkpt>
      <trkpt lat="48.00529" lon="16.26261">
        <ele>249.439847</ele>
        <time>2026-07-07T10:12:34.000Z</time>
      </trkpt>
      <trkpt lat="48.00525" lon="16.26259">
        <ele>249.468389</ele>
        <time>2026-07-07T10:12:35.000Z</time>
      </trkpt>
      <trkpt lat="48.00521" lon="16.26257">
        <ele>249.499217</ele>
        <time>2026-07-07T10:12:36.000Z</time>
      </trkpt>
      <trkpt lat="48.00516" lon="16.26254">
        <ele>249.531274</ele>
        <time>2026-07-07T10:12:37.000Z</time>
      </trkpt>
      <trkpt lat="48.00511" lon="16.26252">
        <ele>249.563612</ele>
        <time>2026-07-07T10:12:38.000Z</time>
      </trkpt>
      <trkpt lat="48.00507" lon="16.26249">
        <ele>249.595194</ele>
        <time>2026-07-07T10:12:39.000Z</time>
      </trkpt>
      <trkpt lat="48.00502" lon="16.26247">
        <ele>249.627251</ele>
        <time>2026-07-07T10:12:40.000Z</time>
      </trkpt>
      <trkpt lat="48.00498" lon="16.26245">
        <ele>249.656855</ele>
        <time>2026-07-07T10:12:41.000Z</time>
      </trkpt>
      <trkpt lat="48.00493" lon="16.26242">
        <ele>249.688621</ele>
        <time>2026-07-07T10:12:42.000Z</time>
      </trkpt>
      <trkpt lat="48.00489" lon="16.26239">
        <ele>249.71962</ele>
        <time>2026-07-07T10:12:43.000Z</time>
      </trkpt>
      <trkpt lat="48.00484" lon="16.26236">
        <ele>249.751654</ele>
        <time>2026-07-07T10:12:44.000Z</time>
      </trkpt>
      <trkpt lat="48.0048" lon="16.26234">
        <ele>249.783992</ele>
        <time>2026-07-07T10:12:45.000Z</time>
      </trkpt>
      <trkpt lat="48.00475" lon="16.26231">
        <ele>249.81633</ele>
        <time>2026-07-07T10:12:46.000Z</time>
      </trkpt>
      <trkpt lat="48.0047" lon="16.26229">
        <ele>249.845776</ele>
        <time>2026-07-07T10:12:47.000Z</time>
      </trkpt>
      <trkpt lat="48.00465" lon="16.26226">
        <ele>249.85834</ele>
        <time>2026-07-07T10:12:48.000Z</time>
      </trkpt>
      <trkpt lat="48.00461" lon="16.26224">
        <ele>249.870726</ele>
        <time>2026-07-07T10:12:49.000Z</time>
      </trkpt>
      <trkpt lat="48.00456" lon="16.26222">
        <ele>249.883611</ele>
        <time>2026-07-07T10:12:50.000Z</time>
      </trkpt>
      <trkpt lat="48.00451" lon="16.26219">
        <ele>249.895774</ele>
        <time>2026-07-07T10:12:51.000Z</time>
      </trkpt>
      <trkpt lat="48.00446" lon="16.26217">
        <ele>249.908813</ele>
        <time>2026-07-07T10:12:52.000Z</time>
      </trkpt>
      <trkpt lat="48.00442" lon="16.26214">
        <ele>249.921615</ele>
        <time>2026-07-07T10:12:53.000Z</time>
      </trkpt>
      <trkpt lat="48.00437" lon="16.26212">
        <ele>249.934473</ele>
        <time>2026-07-07T10:12:54.000Z</time>
      </trkpt>
      <trkpt lat="48.00432" lon="16.26209">
        <ele>249.947745</ele>
        <time>2026-07-07T10:12:55.000Z</time>
      </trkpt>
      <trkpt lat="48.00427" lon="16.26206">
        <ele>249.960722</ele>
        <time>2026-07-07T10:12:56.000Z</time>
      </trkpt>
      <trkpt lat="48.00422" lon="16.26203">
        <ele>249.973638</ele>
        <time>2026-07-07T10:12:57.000Z</time>
      </trkpt>
      <trkpt lat="48.00417" lon="16.26201">
        <ele>249.98697</ele>
        <time>2026-07-07T10:12:58.000Z</time>
      </trkpt>
      <trkpt lat="48.00412" lon="16.26198">
        <ele>250.00001</ele>
        <time>2026-07-07T10:12:59.000Z</time>
      </trkpt>
      <trkpt lat="48.00408" lon="16.26196">
        <ele>250.012926</ele>
        <time>2026-07-07T10:13:00.000Z</time>
      </trkpt>
      <trkpt lat="48.00403" lon="16.26193">
        <ele>250.026373</ele>
        <time>2026-07-07T10:13:01.000Z</time>
      </trkpt>
      <trkpt lat="48.00398" lon="16.2619">
        <ele>250.039289</ele>
        <time>2026-07-07T10:13:02.000Z</time>
      </trkpt>
      <trkpt lat="48.00393" lon="16.26187">
        <ele>250.052441</ele>
        <time>2026-07-07T10:13:03.000Z</time>
      </trkpt>
      <trkpt lat="48.00388" lon="16.26185">
        <ele>250.065616</ele>
        <time>2026-07-07T10:13:04.000Z</time>
      </trkpt>
      <trkpt lat="48.00383" lon="16.26183">
        <ele>250.078311</ele>
        <time>2026-07-07T10:13:05.000Z</time>
      </trkpt>
      <trkpt lat="48.00378" lon="16.2618">
        <ele>250.090875</ele>
        <time>2026-07-07T10:13:06.000Z</time>
      </trkpt>
      <trkpt lat="48.00374" lon="16.26178">
        <ele>250.103201</ele>
        <time>2026-07-07T10:13:07.000Z</time>
      </trkpt>
      <trkpt lat="48.00369" lon="16.26175">
        <ele>250.115765</ele>
        <time>2026-07-07T10:13:08.000Z</time>
      </trkpt>
      <trkpt lat="48.00365" lon="16.26173">
        <ele>250.127977</ele>
        <time>2026-07-07T10:13:09.000Z</time>
      </trkpt>
      <trkpt lat="48.0036" lon="16.2617">
        <ele>250.140432</ele>
        <time>2026-07-07T10:13:10.000Z</time>
      </trkpt>
      <trkpt lat="48.00355" lon="16.26168">
        <ele>250.153348</ele>
        <time>2026-07-07T10:13:11.000Z</time>
      </trkpt>
      <trkpt lat="48.00351" lon="16.26165">
        <ele>250.16556</ele>
        <time>2026-07-07T10:13:12.000Z</time>
      </trkpt>
      <trkpt lat="48.00346" lon="16.26162">
        <ele>250.178303</ele>
        <time>2026-07-07T10:13:13.000Z</time>
      </trkpt>
      <trkpt lat="48.00341" lon="16.2616">
        <ele>250.190629</ele>
        <time>2026-07-07T10:13:14.000Z</time>
      </trkpt>
      <trkpt lat="48.00336" lon="16.26157">
        <ele>250.203564</ele>
        <time>2026-07-07T10:13:15.000Z</time>
      </trkpt>
      <trkpt lat="48.00332" lon="16.26155">
        <ele>250.216311</ele>
        <time>2026-07-07T10:13:16.000Z</time>
      </trkpt>
      <trkpt lat="48.00327" lon="16.26152">
        <ele>250.229112</ele>
        <time>2026-07-07T10:13:17.000Z</time>
      </trkpt>
      <trkpt lat="48.00322" lon="16.2615">
        <ele>250.242152</ele>
        <time>2026-07-07T10:13:18.000Z</time>
      </trkpt>
      <trkpt lat="48.00317" lon="16.26147">
        <ele>250.25501</ele>
        <time>2026-07-07T10:13:19.000Z</time>
      </trkpt>
      <trkpt lat="48.00312" lon="16.26145">
        <ele>250.267926</ele>
        <time>2026-07-07T10:13:20.000Z</time>
      </trkpt>
      <trkpt lat="48.00307" lon="16.26142">
        <ele>250.280965</ele>
        <time>2026-07-07T10:13:21.000Z</time>
      </trkpt>
      <trkpt lat="48.00303" lon="16.2614">
        <ele>250.293292</ele>
        <time>2026-07-07T10:13:22.000Z</time>
      </trkpt>
      <trkpt lat="48.00298" lon="16.26137">
        <ele>250.299595</ele>
        <time>2026-07-07T10:13:23.000Z</time>
      </trkpt>
      <trkpt lat="48.00294" lon="16.26134">
        <ele>250.30375</ele>
        <time>2026-07-07T10:13:24.000Z</time>
      </trkpt>
      <trkpt lat="48.00289" lon="16.26132">
        <ele>250.307885</ele>
        <time>2026-07-07T10:13:25.000Z</time>
      </trkpt>
      <trkpt lat="48.00285" lon="16.26129">
        <ele>250.311939</ele>
        <time>2026-07-07T10:13:26.000Z</time>
      </trkpt>
      <trkpt lat="48.00281" lon="16.26127">
        <ele>250.315912</ele>
        <time>2026-07-07T10:13:27.000Z</time>
      </trkpt>
      <trkpt lat="48.00276" lon="16.26125">
        <ele>250.319745</ele>
        <time>2026-07-07T10:13:28.000Z</time>
      </trkpt>
      <trkpt lat="48.00272" lon="16.26122">
        <ele>250.323517</ele>
        <time>2026-07-07T10:13:29.000Z</time>
      </trkpt>
      <trkpt lat="48.00268" lon="16.2612">
        <ele>250.327229</ele>
        <time>2026-07-07T10:13:30.000Z</time>
      </trkpt>
      <trkpt lat="48.00264" lon="16.26118">
        <ele>250.331243</ele>
        <time>2026-07-07T10:13:31.000Z</time>
      </trkpt>
      <trkpt lat="48.0026" lon="16.26116">
        <ele>250.335121</ele>
        <time>2026-07-07T10:13:32.000Z</time>
      </trkpt>
      <trkpt lat="48.00255" lon="16.26114">
        <ele>250.33933</ele>
        <time>2026-07-07T10:13:33.000Z</time>
      </trkpt>
      <trkpt lat="48.0025" lon="16.26111">
        <ele>250.343489</ele>
        <time>2026-07-07T10:13:34.000Z</time>
      </trkpt>
      <trkpt lat="48.00246" lon="16.26109">
        <ele>250.347624</ele>
        <time>2026-07-07T10:13:35.000Z</time>
      </trkpt>
      <trkpt lat="48.00241" lon="16.26106">
        <ele>250.35192</ele>
        <time>2026-07-07T10:13:36.000Z</time>
      </trkpt>
      <trkpt lat="48.00236" lon="16.26104">
        <ele>250.356228</ele>
        <time>2026-07-07T10:13:37.000Z</time>
      </trkpt>
      <trkpt lat="48.00232" lon="16.26102">
        <ele>250.360505</ele>
        <time>2026-07-07T10:13:38.000Z</time>
      </trkpt>
      <trkpt lat="48.00227" lon="16.26099">
        <ele>250.364821</ele>
        <time>2026-07-07T10:13:39.000Z</time>
      </trkpt>
      <trkpt lat="48.00222" lon="16.26097">
        <ele>250.368956</ele>
        <time>2026-07-07T10:13:40.000Z</time>
      </trkpt>
      <trkpt lat="48.00218" lon="16.26094">
        <ele>250.37307</ele>
        <time>2026-07-07T10:13:41.000Z</time>
      </trkpt>
      <trkpt lat="48.00213" lon="16.26092">
        <ele>250.377166</ele>
        <time>2026-07-07T10:13:42.000Z</time>
      </trkpt>
      <trkpt lat="48.00209" lon="16.2609">
        <ele>250.381301</ele>
        <time>2026-07-07T10:13:43.000Z</time>
      </trkpt>
      <trkpt lat="48.00204" lon="16.26087">
        <ele>250.385378</ele>
        <time>2026-07-07T10:13:44.000Z</time>
      </trkpt>
      <trkpt lat="48.002" lon="16.26085">
        <ele>250.389311</ele>
        <time>2026-07-07T10:13:45.000Z</time>
      </trkpt>
      <trkpt lat="48.00196" lon="16.26083">
        <ele>250.393446</ele>
        <time>2026-07-07T10:13:46.000Z</time>
      </trkpt>
      <trkpt lat="48.00191" lon="16.2608">
        <ele>250.397823</ele>
        <time>2026-07-07T10:13:47.000Z</time>
      </trkpt>
      <trkpt lat="48.00186" lon="16.26078">
        <ele>250.402329</ele>
        <time>2026-07-07T10:13:48.000Z</time>
      </trkpt>
      <trkpt lat="48.00181" lon="16.26075">
        <ele>250.407016</ele>
        <time>2026-07-07T10:13:49.000Z</time>
      </trkpt>
      <trkpt lat="48.00175" lon="16.26073">
        <ele>250.411738</ele>
        <time>2026-07-07T10:13:50.000Z</time>
      </trkpt>
      <trkpt lat="48.0017" lon="16.2607">
        <ele>250.416357</ele>
        <time>2026-07-07T10:13:51.000Z</time>
      </trkpt>
      <trkpt lat="48.00165" lon="16.26067">
        <ele>250.420998</ele>
        <time>2026-07-07T10:13:52.000Z</time>
      </trkpt>
      <trkpt lat="48.0016" lon="16.26064">
        <ele>250.425798</ele>
        <time>2026-07-07T10:13:53.000Z</time>
      </trkpt>
      <trkpt lat="48.00155" lon="16.26062">
        <ele>250.430539</ele>
        <time>2026-07-07T10:13:54.000Z</time>
      </trkpt>
      <trkpt lat="48.0015" lon="16.26059">
        <ele>250.435218</ele>
        <time>2026-07-07T10:13:55.000Z</time>
      </trkpt>
      <trkpt lat="48.00145" lon="16.26056">
        <ele>250.439837</ele>
        <time>2026-07-07T10:13:56.000Z</time>
      </trkpt>
      <trkpt lat="48.0014" lon="16.26053">
        <ele>250.444544</ele>
        <time>2026-07-07T10:13:57.000Z</time>
      </trkpt>
      <trkpt lat="48.00135" lon="16.26049">
        <ele>250.449228</ele>
        <time>2026-07-07T10:13:58.000Z</time>
      </trkpt>
      <trkpt lat="48.0013" lon="16.26046">
        <ele>250.455011</ele>
        <time>2026-07-07T10:13:59.000Z</time>
      </trkpt>
      <trkpt lat="48.00125" lon="16.26044">
        <ele>250.46194</ele>
        <time>2026-07-07T10:14:00.000Z</time>
      </trkpt>
      <trkpt lat="48.0012" lon="16.26041">
        <ele>250.468577</ele>
        <time>2026-07-07T10:14:01.000Z</time>
      </trkpt>
      <trkpt lat="48.00115" lon="16.26039">
        <ele>250.47524</ele>
        <time>2026-07-07T10:14:02.000Z</time>
      </trkpt>
      <trkpt lat="48.0011" lon="16.26036">
        <ele>250.481752</ele>
        <time>2026-07-07T10:14:03.000Z</time>
      </trkpt>
      <trkpt lat="48.00105" lon="16.26034">
        <ele>250.488415</ele>
        <time>2026-07-07T10:14:04.000Z</time>
      </trkpt>
      <trkpt lat="48.001" lon="16.26031">
        <ele>250.495015</ele>
        <time>2026-07-07T10:14:05.000Z</time>
      </trkpt>
      <trkpt lat="48.00095" lon="16.26028">
        <ele>250.501467</ele>
        <time>2026-07-07T10:14:06.000Z</time>
      </trkpt>
      <trkpt lat="48.0009" lon="16.26026">
        <ele>250.507949</ele>
        <time>2026-07-07T10:14:07.000Z</time>
      </trkpt>
      <trkpt lat="48.00086" lon="16.26023">
        <ele>250.514253</ele>
        <time>2026-07-07T10:14:08.000Z</time>
      </trkpt>
      <trkpt lat="48.00081" lon="16.26021">
        <ele>250.520503</ele>
        <time>2026-07-07T10:14:09.000Z</time>
      </trkpt>
      <trkpt lat="48.00076" lon="16.2602">
        <ele>250.526405</ele>
        <time>2026-07-07T10:14:10.000Z</time>
      </trkpt>
      <trkpt lat="48.00072" lon="16.2602">
        <ele>250.532374</ele>
        <time>2026-07-07T10:14:11.000Z</time>
      </trkpt>
      <trkpt lat="48.00067" lon="16.26022">
        <ele>250.538836</ele>
        <time>2026-07-07T10:14:12.000Z</time>
      </trkpt>
      <trkpt lat="48.00061" lon="16.26024">
        <ele>250.545601</ele>
        <time>2026-07-07T10:14:13.000Z</time>
      </trkpt>
      <trkpt lat="48.00056" lon="16.26025">
        <ele>250.552418</ele>
        <time>2026-07-07T10:14:14.000Z</time>
      </trkpt>
      <trkpt lat="48.00051" lon="16.26027">
        <ele>250.559127</ele>
        <time>2026-07-07T10:14:15.000Z</time>
      </trkpt>
      <trkpt lat="48.00046" lon="16.26029">
        <ele>250.565978</ele>
        <time>2026-07-07T10:14:16.000Z</time>
      </trkpt>
      <trkpt lat="48.0004" lon="16.2603">
        <ele>250.572795</ele>
        <time>2026-07-07T10:14:17.000Z</time>
      </trkpt>
      <trkpt lat="48.00035" lon="16.26032">
        <ele>250.579787</ele>
        <time>2026-07-07T10:14:18.000Z</time>
      </trkpt>
      <trkpt lat="48.0003" lon="16.26034">
        <ele>250.586307</ele>
        <time>2026-07-07T10:14:19.000Z</time>
      </trkpt>
      <trkpt lat="48.00025" lon="16.26034">
        <ele>250.592394</ele>
        <time>2026-07-07T10:14:20.000Z</time>
      </trkpt>
      <trkpt lat="48.00021" lon="16.26034">
        <ele>250.597071</ele>
        <time>2026-07-07T10:14:21.000Z</time>
      </trkpt>
      <trkpt lat="48.00019" lon="16.26034">
        <ele>250.600374</ele>
        <time>2026-07-07T10:14:22.000Z</time>
      </trkpt>
      <trkpt lat="48.00017" lon="16.26034">
        <ele>250.602903</ele>
        <time>2026-07-07T10:14:23.000Z</time>
      </trkpt>
      <trkpt lat="48.00015" lon="16.26034">
        <ele>250.605357</ele>
        <time>2026-07-07T10:14:24.000Z</time>
      </trkpt>
      <trkpt lat="48.00013" lon="16.26035">
        <ele>250.608384</ele>
        <time>2026-07-07T10:14:25.000Z</time>
      </trkpt>
      <trkpt lat="48.0001" lon="16.26037">
        <ele>250.612356</ele>
        <time>2026-07-07T10:14:26.000Z</time>
      </trkpt>
      <trkpt lat="48.00006" lon="16.26037">
        <ele>250.617051</ele>
        <time>2026-07-07T10:14:27.000Z</time>
      </trkpt>
      <trkpt lat="48.00002" lon="16.26036">
        <ele>250.622243</ele>
        <time>2026-07-07T10:14:28.000Z</time>
      </trkpt>
      <trkpt lat="47.99998" lon="16.26033">
        <ele>250.627797</ele>
        <time>2026-07-07T10:14:29.000Z</time>
      </trkpt>
      <trkpt lat="47.99994" lon="16.26028">
        <ele>250.633924</ele>
        <time>2026-07-07T10:14:30.000Z</time>
      </trkpt>
      <trkpt lat="47.99991" lon="16.26023">
        <ele>250.640401</ele>
        <time>2026-07-07T10:14:31.000Z</time>
      </trkpt>
      <trkpt lat="47.99987" lon="16.26017">
        <ele>250.647206</ele>
        <time>2026-07-07T10:14:32.000Z</time>
      </trkpt>
      <trkpt lat="47.99983" lon="16.26011">
        <ele>250.653921</ele>
        <time>2026-07-07T10:14:33.000Z</time>
      </trkpt>
      <trkpt lat="47.9998" lon="16.26005">
        <ele>250.660652</ele>
        <time>2026-07-07T10:14:34.000Z</time>
      </trkpt>
      <trkpt lat="47.99976" lon="16.25999">
        <ele>250.667576</ele>
        <time>2026-07-07T10:14:35.000Z</time>
      </trkpt>
      <trkpt lat="47.99973" lon="16.25993">
        <ele>250.674436</ele>
        <time>2026-07-07T10:14:36.000Z</time>
      </trkpt>
      <trkpt lat="47.99969" lon="16.25987">
        <ele>250.698056</ele>
        <time>2026-07-07T10:14:37.000Z</time>
      </trkpt>
      <trkpt lat="47.99965" lon="16.25981">
        <ele>250.74946</ele>
        <time>2026-07-07T10:14:38.000Z</time>
      </trkpt>
      <trkpt lat="47.99961" lon="16.25976">
        <ele>250.799073</ele>
        <time>2026-07-07T10:14:39.000Z</time>
      </trkpt>
      <trkpt lat="47.99959" lon="16.2597">
        <ele>250.8408</ele>
        <time>2026-07-07T10:14:40.000Z</time>
      </trkpt>
      <trkpt lat="47.99957" lon="16.25964">
        <ele>250.881574</ele>
        <time>2026-07-07T10:14:41.000Z</time>
      </trkpt>
      <trkpt lat="47.99955" lon="16.25958">
        <ele>250.922522</ele>
        <time>2026-07-07T10:14:42.000Z</time>
      </trkpt>
      <trkpt lat="47.99952" lon="16.25954">
        <ele>250.962643</ele>
        <time>2026-07-07T10:14:43.000Z</time>
      </trkpt>
      <trkpt lat="47.99949" lon="16.2595">
        <ele>250.999081</ele>
        <time>2026-07-07T10:14:44.000Z</time>
      </trkpt>
      <trkpt lat="47.99946" lon="16.25947">
        <ele>251.037562</ele>
        <time>2026-07-07T10:14:45.000Z</time>
      </trkpt>
      <trkpt lat="47.99942" lon="16.25944">
        <ele>251.0787</ele>
        <time>2026-07-07T10:14:46.000Z</time>
      </trkpt>
      <trkpt lat="47.99938" lon="16.25941">
        <ele>251.119303</ele>
        <time>2026-07-07T10:14:47.000Z</time>
      </trkpt>
      <trkpt lat="47.99934" lon="16.25938">
        <ele>251.159609</ele>
        <time>2026-07-07T10:14:48.000Z</time>
      </trkpt>
      <trkpt lat="47.9993" lon="16.25935">
        <ele>251.200773</ele>
        <time>2026-07-07T10:14:49.000Z</time>
      </trkpt>
      <trkpt lat="47.99926" lon="16.25932">
        <ele>251.242199</ele>
        <time>2026-07-07T10:14:50.000Z</time>
      </trkpt>
      <trkpt lat="47.99922" lon="16.2593">
        <ele>251.281563</ele>
        <time>2026-07-07T10:14:51.000Z</time>
      </trkpt>
      <trkpt lat="47.99918" lon="16.2593">
        <ele>251.323884</ele>
        <time>2026-07-07T10:14:52.000Z</time>
      </trkpt>
      <trkpt lat="47.99913" lon="16.25929">
        <ele>251.368249</ele>
        <time>2026-07-07T10:14:53.000Z</time>
      </trkpt>
      <trkpt lat="47.99908" lon="16.25927">
        <ele>251.415524</ele>
        <time>2026-07-07T10:14:54.000Z</time>
      </trkpt>
      <trkpt lat="47.99903" lon="16.25924">
        <ele>251.465675</ele>
        <time>2026-07-07T10:14:55.000Z</time>
      </trkpt>
      <trkpt lat="47.99898" lon="16.25921">
        <ele>251.515753</ele>
        <time>2026-07-07T10:14:56.000Z</time>
      </trkpt>
      <trkpt lat="47.99893" lon="16.25918">
        <ele>251.566054</ele>
        <time>2026-07-07T10:14:57.000Z</time>
      </trkpt>
      <trkpt lat="47.99888" lon="16.25915">
        <ele>251.616592</ele>
        <time>2026-07-07T10:14:58.000Z</time>
      </trkpt>
      <trkpt lat="47.99883" lon="16.25913">
        <ele>251.669429</ele>
        <time>2026-07-07T10:14:59.000Z</time>
      </trkpt>
      <trkpt lat="47.99878" lon="16.25911">
        <ele>251.719043</ele>
        <time>2026-07-07T10:15:00.000Z</time>
      </trkpt>
      <trkpt lat="47.99873" lon="16.25909">
        <ele>251.769401</ele>
        <time>2026-07-07T10:15:01.000Z</time>
      </trkpt>
      <trkpt lat="47.99867" lon="16.25907">
        <ele>251.820518</ele>
        <time>2026-07-07T10:15:02.000Z</time>
      </trkpt>
      <trkpt lat="47.99862" lon="16.25905">
        <ele>251.872031</ele>
        <time>2026-07-07T10:15:03.000Z</time>
      </trkpt>
      <trkpt lat="47.99857" lon="16.25904">
        <ele>251.922215</ele>
        <time>2026-07-07T10:15:04.000Z</time>
      </trkpt>
      <trkpt lat="47.99851" lon="16.25904">
        <ele>251.972021</ele>
        <time>2026-07-07T10:15:05.000Z</time>
      </trkpt>
      <trkpt lat="47.99846" lon="16.25904">
        <ele>252.020806</ele>
        <time>2026-07-07T10:15:06.000Z</time>
      </trkpt>
      <trkpt lat="47.99841" lon="16.25904">
        <ele>252.069591</ele>
        <time>2026-07-07T10:15:07.000Z</time>
      </trkpt>
      <trkpt lat="47.99836" lon="16.25904">
        <ele>252.119302</ele>
        <time>2026-07-07T10:15:08.000Z</time>
      </trkpt>
      <trkpt lat="47.9983" lon="16.25904">
        <ele>252.168087</ele>
        <time>2026-07-07T10:15:09.000Z</time>
      </trkpt>
      <trkpt lat="47.99825" lon="16.25903">
        <ele>252.21612</ele>
        <time>2026-07-07T10:15:10.000Z</time>
      </trkpt>
      <trkpt lat="47.9982" lon="16.25901">
        <ele>252.26483</ele>
        <time>2026-07-07T10:15:11.000Z</time>
      </trkpt>
      <trkpt lat="47.99815" lon="16.25898">
        <ele>252.314258</ele>
        <time>2026-07-07T10:15:12.000Z</time>
      </trkpt>
      <trkpt lat="47.99811" lon="16.25897">
        <ele>252.360382</ele>
        <time>2026-07-07T10:15:13.000Z</time>
      </trkpt>
      <trkpt lat="47.99805" lon="16.25896">
        <ele>252.371155</ele>
        <time>2026-07-07T10:15:14.000Z</time>
      </trkpt>
      <trkpt lat="47.998" lon="16.25896">
        <ele>252.377461</ele>
        <time>2026-07-07T10:15:15.000Z</time>
      </trkpt>
      <trkpt lat="47.99795" lon="16.25896">
        <ele>252.384007</ele>
        <time>2026-07-07T10:15:16.000Z</time>
      </trkpt>
      <trkpt lat="47.99789" lon="16.25895">
        <ele>252.390557</ele>
        <time>2026-07-07T10:15:17.000Z</time>
      </trkpt>
      <trkpt lat="47.99783" lon="16.25895">
        <ele>252.397341</ele>
        <time>2026-07-07T10:15:18.000Z</time>
      </trkpt>
      <trkpt lat="47.99778" lon="16.25895">
        <ele>252.403885</ele>
        <time>2026-07-07T10:15:19.000Z</time>
      </trkpt>
      <trkpt lat="47.99773" lon="16.25895">
        <ele>252.410193</ele>
        <time>2026-07-07T10:15:20.000Z</time>
      </trkpt>
      <trkpt lat="47.99767" lon="16.25894">
        <ele>252.416502</ele>
        <time>2026-07-07T10:15:21.000Z</time>
      </trkpt>
      <trkpt lat="47.99763" lon="16.25895">
        <ele>252.422097</ele>
        <time>2026-07-07T10:15:22.000Z</time>
      </trkpt>
      <trkpt lat="47.99759" lon="16.25897">
        <ele>252.426777</ele>
        <time>2026-07-07T10:15:23.000Z</time>
      </trkpt>
      <trkpt lat="47.99755" lon="16.25899">
        <ele>252.431462</ele>
        <time>2026-07-07T10:15:24.000Z</time>
      </trkpt>
      <trkpt lat="47.99751" lon="16.25901">
        <ele>252.436946</ele>
        <time>2026-07-07T10:15:25.000Z</time>
      </trkpt>
      <trkpt lat="47.99746" lon="16.25901">
        <ele>252.442656</ele>
        <time>2026-07-07T10:15:26.000Z</time>
      </trkpt>
      <trkpt lat="47.99741" lon="16.259">
        <ele>252.448866</ele>
        <time>2026-07-07T10:15:27.000Z</time>
      </trkpt>
      <trkpt lat="47.99736" lon="16.25899">
        <ele>252.454847</ele>
        <time>2026-07-07T10:15:28.000Z</time>
      </trkpt>
      <trkpt lat="47.99731" lon="16.25899">
        <ele>252.460939</ele>
        <time>2026-07-07T10:15:29.000Z</time>
      </trkpt>
      <trkpt lat="47.99726" lon="16.25898">
        <ele>252.467149</ele>
        <time>2026-07-07T10:15:30.000Z</time>
      </trkpt>
      <trkpt lat="47.9972" lon="16.25897">
        <ele>252.473721</ele>
        <time>2026-07-07T10:15:31.000Z</time>
      </trkpt>
      <trkpt lat="47.99715" lon="16.25896">
        <ele>252.480058</ele>
        <time>2026-07-07T10:15:32.000Z</time>
      </trkpt>
      <trkpt lat="47.99709" lon="16.25895">
        <ele>252.486639</ele>
        <time>2026-07-07T10:15:33.000Z</time>
      </trkpt>
      <trkpt lat="47.99704" lon="16.25895">
        <ele>252.493198</ele>
        <time>2026-07-07T10:15:34.000Z</time>
      </trkpt>
      <trkpt lat="47.99698" lon="16.25894">
        <ele>252.499809</ele>
        <time>2026-07-07T10:15:35.000Z</time>
      </trkpt>
      <trkpt lat="47.99693" lon="16.25892">
        <ele>252.506667</ele>
        <time>2026-07-07T10:15:36.000Z</time>
      </trkpt>
      <trkpt lat="47.99687" lon="16.25891">
        <ele>252.513069</ele>
        <time>2026-07-07T10:15:37.000Z</time>
      </trkpt>
      <trkpt lat="47.99682" lon="16.25889">
        <ele>252.519968</ele>
        <time>2026-07-07T10:15:38.000Z</time>
      </trkpt>
      <trkpt lat="47.99676" lon="16.25888">
        <ele>252.526648</ele>
        <time>2026-07-07T10:15:39.000Z</time>
      </trkpt>
      <trkpt lat="47.99671" lon="16.25886">
        <ele>252.533345</ele>
        <time>2026-07-07T10:15:40.000Z</time>
      </trkpt>
      <trkpt lat="47.99665" lon="16.25884">
        <ele>252.540025</ele>
        <time>2026-07-07T10:15:41.000Z</time>
      </trkpt>
      <trkpt lat="47.99659" lon="16.25883">
        <ele>252.546884</ele>
        <time>2026-07-07T10:15:42.000Z</time>
      </trkpt>
      <trkpt lat="47.99654" lon="16.25881">
        <ele>252.553651</ele>
        <time>2026-07-07T10:15:43.000Z</time>
      </trkpt>
      <trkpt lat="47.99648" lon="16.2588">
        <ele>252.560301</ele>
        <time>2026-07-07T10:15:44.000Z</time>
      </trkpt>
      <trkpt lat="47.99643" lon="16.25878">
        <ele>252.567185</ele>
        <time>2026-07-07T10:15:45.000Z</time>
      </trkpt>
      <trkpt lat="47.99637" lon="16.25877">
        <ele>252.573865</ele>
        <time>2026-07-07T10:15:46.000Z</time>
      </trkpt>
      <trkpt lat="47.99632" lon="16.25875">
        <ele>252.57808</ele>
        <time>2026-07-07T10:15:47.000Z</time>
      </trkpt>
      <trkpt lat="47.99626" lon="16.25873">
        <ele>252.564363</ele>
        <time>2026-07-07T10:15:48.000Z</time>
      </trkpt>
      <trkpt lat="47.99621" lon="16.25872">
        <ele>252.550743</ele>
        <time>2026-07-07T10:15:49.000Z</time>
      </trkpt>
      <trkpt lat="47.99615" lon="16.2587">
        <ele>252.536643</ele>
        <time>2026-07-07T10:15:50.000Z</time>
      </trkpt>
      <trkpt lat="47.9961" lon="16.25869">
        <ele>252.523022</ele>
        <time>2026-07-07T10:15:51.000Z</time>
      </trkpt>
      <trkpt lat="47.99604" lon="16.25867">
        <ele>252.50943</ele>
        <time>2026-07-07T10:15:52.000Z</time>
      </trkpt>
      <trkpt lat="47.99598" lon="16.25866">
        <ele>252.49509</ele>
        <time>2026-07-07T10:15:53.000Z</time>
      </trkpt>
      <trkpt lat="47.99593" lon="16.25864">
        <ele>252.48147</ele>
        <time>2026-07-07T10:15:54.000Z</time>
      </trkpt>
      <trkpt lat="47.99587" lon="16.25863">
        <ele>252.467819</ele>
        <time>2026-07-07T10:15:55.000Z</time>
      </trkpt>
      <trkpt lat="47.99582" lon="16.25861">
        <ele>252.454136</ele>
        <time>2026-07-07T10:15:56.000Z</time>
      </trkpt>
      <trkpt lat="47.99576" lon="16.2586">
        <ele>252.440571</ele>
        <time>2026-07-07T10:15:57.000Z</time>
      </trkpt>
      <trkpt lat="47.99571" lon="16.25858">
        <ele>252.426498</ele>
        <time>2026-07-07T10:15:58.000Z</time>
      </trkpt>
      <trkpt lat="47.99565" lon="16.25857">
        <ele>252.413413</ele>
        <time>2026-07-07T10:15:59.000Z</time>
      </trkpt>
      <trkpt lat="47.9956" lon="16.25856">
        <ele>252.400113</ele>
        <time>2026-07-07T10:16:00.000Z</time>
      </trkpt>
      <trkpt lat="47.99554" lon="16.25855">
        <ele>252.386615</ele>
        <time>2026-07-07T10:16:01.000Z</time>
      </trkpt>
      <trkpt lat="47.99549" lon="16.25854">
        <ele>252.373153</ele>
        <time>2026-07-07T10:16:02.000Z</time>
      </trkpt>
      <trkpt lat="47.99544" lon="16.25853">
        <ele>252.360175</ele>
        <time>2026-07-07T10:16:03.000Z</time>
      </trkpt>
      <trkpt lat="47.99538" lon="16.25852">
        <ele>252.346677</ele>
        <time>2026-07-07T10:16:04.000Z</time>
      </trkpt>
      <trkpt lat="47.99533" lon="16.25851">
        <ele>252.333618</ele>
        <time>2026-07-07T10:16:05.000Z</time>
      </trkpt>
      <trkpt lat="47.99528" lon="16.2585">
        <ele>252.321254</ele>
        <time>2026-07-07T10:16:06.000Z</time>
      </trkpt>
      <trkpt lat="47.99523" lon="16.25849">
        <ele>252.310434</ele>
        <time>2026-07-07T10:16:07.000Z</time>
      </trkpt>
      <trkpt lat="47.9952" lon="16.25848">
        <ele>252.302819</ele>
        <time>2026-07-07T10:16:08.000Z</time>
      </trkpt>
      <trkpt lat="47.99518" lon="16.25848">
        <ele>252.297947</ele>
        <time>2026-07-07T10:16:09.000Z</time>
      </trkpt>
      <trkpt lat="47.99516" lon="16.25849">
        <ele>252.293292</ele>
        <time>2026-07-07T10:16:10.000Z</time>
      </trkpt>
      <trkpt lat="47.99514" lon="16.25849">
        <ele>252.287679</ele>
        <time>2026-07-07T10:16:11.000Z</time>
      </trkpt>
      <trkpt lat="47.99511" lon="16.25848">
        <ele>252.279841</ele>
        <time>2026-07-07T10:16:12.000Z</time>
      </trkpt>
      <trkpt lat="47.99507" lon="16.25847">
        <ele>252.269595</ele>
        <time>2026-07-07T10:16:14.000Z</time>
      </trkpt>
      <trkpt lat="47.99502" lon="16.25846">
        <ele>252.256751</ele>
        <time>2026-07-07T10:16:15.000Z</time>
      </trkpt>
      <trkpt lat="47.99496" lon="16.25845">
        <ele>252.242803</ele>
        <time>2026-07-07T10:16:16.000Z</time>
      </trkpt>
      <trkpt lat="47.99491" lon="16.25845">
        <ele>252.230378</ele>
        <time>2026-07-07T10:16:17.000Z</time>
      </trkpt>
      <trkpt lat="47.99486" lon="16.25845">
        <ele>252.217693</ele>
        <time>2026-07-07T10:16:18.000Z</time>
      </trkpt>
      <trkpt lat="47.9948" lon="16.25844">
        <ele>252.204195</ele>
        <time>2026-07-07T10:16:19.000Z</time>
      </trkpt>
      <trkpt lat="47.99475" lon="16.25843">
        <ele>252.190574</ele>
        <time>2026-07-07T10:16:20.000Z</time>
      </trkpt>
      <trkpt lat="47.99469" lon="16.25842">
        <ele>252.17756</ele>
        <time>2026-07-07T10:16:21.000Z</time>
      </trkpt>
      <trkpt lat="47.99464" lon="16.25841">
        <ele>252.164019</ele>
        <time>2026-07-07T10:16:22.000Z</time>
      </trkpt>
      <trkpt lat="47.99458" lon="16.2584">
        <ele>252.150762</ele>
        <time>2026-07-07T10:16:23.000Z</time>
      </trkpt>
      <trkpt lat="47.99453" lon="16.25838">
        <ele>252.145338</ele>
        <time>2026-07-07T10:16:24.000Z</time>
      </trkpt>
      <trkpt lat="47.99448" lon="16.25835">
        <ele>252.155629</ele>
        <time>2026-07-07T10:16:25.000Z</time>
      </trkpt>
      <trkpt lat="47.99444" lon="16.25832">
        <ele>252.164621</ele>
        <time>2026-07-07T10:16:26.000Z</time>
      </trkpt>
      <trkpt lat="47.9944" lon="16.25829">
        <ele>252.173138</ele>
        <time>2026-07-07T10:16:27.000Z</time>
      </trkpt>
      <trkpt lat="47.99436" lon="16.25826">
        <ele>252.18148</ele>
        <time>2026-07-07T10:16:28.000Z</time>
      </trkpt>
      <trkpt lat="47.99433" lon="16.25823">
        <ele>252.189763</ele>
        <time>2026-07-07T10:16:29.000Z</time>
      </trkpt>
      <trkpt lat="47.99428" lon="16.25821">
        <ele>252.198459</ele>
        <time>2026-07-07T10:16:30.000Z</time>
      </trkpt>
      <trkpt lat="47.99424" lon="16.2582">
        <ele>252.207626</ele>
        <time>2026-07-07T10:16:31.000Z</time>
      </trkpt>
      <trkpt lat="47.99419" lon="16.25818">
        <ele>252.217318</ele>
        <time>2026-07-07T10:16:32.000Z</time>
      </trkpt>
      <trkpt lat="47.99414" lon="16.25817">
        <ele>252.227376</ele>
        <time>2026-07-07T10:16:33.000Z</time>
      </trkpt>
      <trkpt lat="47.99409" lon="16.25816">
        <ele>252.237412</ele>
        <time>2026-07-07T10:16:34.000Z</time>
      </trkpt>
      <trkpt lat="47.99404" lon="16.25815">
        <ele>252.24786</ele>
        <time>2026-07-07T10:16:35.000Z</time>
      </trkpt>
      <trkpt lat="47.99399" lon="16.25813">
        <ele>252.258092</ele>
        <time>2026-07-07T10:16:36.000Z</time>
      </trkpt>
      <trkpt lat="47.99393" lon="16.25812">
        <ele>252.268931</ele>
        <time>2026-07-07T10:16:37.000Z</time>
      </trkpt>
      <trkpt lat="47.99388" lon="16.25811">
        <ele>252.279184</ele>
        <time>2026-07-07T10:16:38.000Z</time>
      </trkpt>
      <trkpt lat="47.99383" lon="16.25809">
        <ele>252.289266</ele>
        <time>2026-07-07T10:16:39.000Z</time>
      </trkpt>
      <trkpt lat="47.99378" lon="16.25808">
        <ele>252.299714</ele>
        <time>2026-07-07T10:16:40.000Z</time>
      </trkpt>
      <trkpt lat="47.99373" lon="16.25807">
        <ele>252.309382</ele>
        <time>2026-07-07T10:16:41.000Z</time>
      </trkpt>
      <trkpt lat="47.99368" lon="16.25805">
        <ele>252.319463</ele>
        <time>2026-07-07T10:16:42.000Z</time>
      </trkpt>
      <trkpt lat="47.99363" lon="16.25804">
        <ele>252.329871</ele>
        <time>2026-07-07T10:16:43.000Z</time>
      </trkpt>
      <trkpt lat="47.99358" lon="16.25803">
        <ele>252.339868</ele>
        <time>2026-07-07T10:16:44.000Z</time>
      </trkpt>
      <trkpt lat="47.99353" lon="16.25802">
        <ele>252.350258</ele>
        <time>2026-07-07T10:16:45.000Z</time>
      </trkpt>
      <trkpt lat="47.99342" lon="16.258">
        <ele>252.371235</ele>
        <time>2026-07-07T10:16:47.000Z</time>
      </trkpt>
      <trkpt lat="47.99337" lon="16.25799">
        <ele>252.381467</ele>
        <time>2026-07-07T10:16:48.000Z</time>
      </trkpt>
      <trkpt lat="47.99327" lon="16.25797">
        <ele>252.402342</ele>
        <time>2026-07-07T10:16:50.000Z</time>
      </trkpt>
      <trkpt lat="47.99317" lon="16.25794">
        <ele>252.423066</ele>
        <time>2026-07-07T10:16:51.000Z</time>
      </trkpt>
      <trkpt lat="47.99311" lon="16.25793">
        <ele>252.433456</ele>
        <time>2026-07-07T10:16:52.000Z</time>
      </trkpt>
      <trkpt lat="47.99306" lon="16.25792">
        <ele>252.444061</ele>
        <time>2026-07-07T10:16:53.000Z</time>
      </trkpt>
      <trkpt lat="47.99301" lon="16.25791">
        <ele>252.454488</ele>
        <time>2026-07-07T10:16:54.000Z</time>
      </trkpt>
      <trkpt lat="47.99296" lon="16.25789">
        <ele>252.465111</ele>
        <time>2026-07-07T10:16:56.000Z</time>
      </trkpt>
      <trkpt lat="47.99285" lon="16.25787">
        <ele>252.486142</ele>
        <time>2026-07-07T10:16:57.000Z</time>
      </trkpt>
      <trkpt lat="47.9928" lon="16.25786">
        <ele>252.496532</ele>
        <time>2026-07-07T10:16:58.000Z</time>
      </trkpt>
      <trkpt lat="47.99275" lon="16.25785">
        <ele>252.52398</ele>
        <time>2026-07-07T10:16:59.000Z</time>
      </trkpt>
      <trkpt lat="47.99269" lon="16.25783">
        <ele>252.554899</ele>
        <time>2026-07-07T10:17:00.000Z</time>
      </trkpt>
      <trkpt lat="47.99264" lon="16.25782">
        <ele>252.584663</ele>
        <time>2026-07-07T10:17:01.000Z</time>
      </trkpt>
      <trkpt lat="47.99258" lon="16.25781">
        <ele>252.614974</ele>
        <time>2026-07-07T10:17:02.000Z</time>
      </trkpt>
      <trkpt lat="47.99253" lon="16.2578">
        <ele>252.644579</ele>
        <time>2026-07-07T10:17:03.000Z</time>
      </trkpt>
      <trkpt lat="47.99248" lon="16.25779">
        <ele>252.675382</ele>
        <time>2026-07-07T10:17:04.000Z</time>
      </trkpt>
      <trkpt lat="47.99242" lon="16.25777">
        <ele>252.705422</ele>
        <time>2026-07-07T10:17:05.000Z</time>
      </trkpt>
      <trkpt lat="47.99237" lon="16.25776">
        <ele>252.736281</ele>
        <time>2026-07-07T10:17:06.000Z</time>
      </trkpt>
      <trkpt lat="47.99231" lon="16.25775">
        <ele>252.766985</ele>
        <time>2026-07-07T10:17:07.000Z</time>
      </trkpt>
      <trkpt lat="47.99226" lon="16.25773">
        <ele>252.798939</ele>
        <time>2026-07-07T10:17:08.000Z</time>
      </trkpt>
      <trkpt lat="47.9922" lon="16.25772">
        <ele>252.829858</ele>
        <time>2026-07-07T10:17:09.000Z</time>
      </trkpt>
      <trkpt lat="47.99215" lon="16.25771">
        <ele>252.860609</ele>
        <time>2026-07-07T10:17:10.000Z</time>
      </trkpt>
      <trkpt lat="47.99209" lon="16.2577">
        <ele>252.892509</ele>
        <time>2026-07-07T10:17:11.000Z</time>
      </trkpt>
      <trkpt lat="47.99203" lon="16.25768">
        <ele>252.923861</ele>
        <time>2026-07-07T10:17:12.000Z</time>
      </trkpt>
      <trkpt lat="47.99198" lon="16.25767">
        <ele>252.954612</ele>
        <time>2026-07-07T10:17:13.000Z</time>
      </trkpt>
      <trkpt lat="47.99192" lon="16.25766">
        <ele>252.985415</ele>
        <time>2026-07-07T10:17:14.000Z</time>
      </trkpt>
      <trkpt lat="47.99187" lon="16.25765">
        <ele>253.016274</ele>
        <time>2026-07-07T10:17:15.000Z</time>
      </trkpt>
      <trkpt lat="47.99181" lon="16.25763">
        <ele>253.047192</ele>
        <time>2026-07-07T10:17:16.000Z</time>
      </trkpt>
      <trkpt lat="47.99176" lon="16.25762">
        <ele>253.078051</ele>
        <time>2026-07-07T10:17:17.000Z</time>
      </trkpt>
      <trkpt lat="47.9917" lon="16.25761">
        <ele>253.110125</ele>
        <time>2026-07-07T10:17:18.000Z</time>
      </trkpt>
      <trkpt lat="47.99165" lon="16.25759">
        <ele>253.140984</ele>
        <time>2026-07-07T10:17:19.000Z</time>
      </trkpt>
      <trkpt lat="47.99159" lon="16.25758">
        <ele>253.173058</ele>
        <time>2026-07-07T10:17:20.000Z</time>
      </trkpt>
      <trkpt lat="47.99153" lon="16.25756">
        <ele>253.203977</ele>
        <time>2026-07-07T10:17:21.000Z</time>
      </trkpt>
      <trkpt lat="47.99148" lon="16.25755">
        <ele>253.235278</ele>
        <time>2026-07-07T10:17:22.000Z</time>
      </trkpt>
      <trkpt lat="47.99142" lon="16.25754">
        <ele>253.267178</ele>
        <time>2026-07-07T10:17:23.000Z</time>
      </trkpt>
      <trkpt lat="47.99137" lon="16.25753">
        <ele>253.298036</ele>
        <time>2026-07-07T10:17:24.000Z</time>
      </trkpt>
      <trkpt lat="47.99131" lon="16.25751">
        <ele>253.32902</ele>
        <time>2026-07-07T10:17:25.000Z</time>
      </trkpt>
      <trkpt lat="47.99126" lon="16.2575">
        <ele>253.358726</ele>
        <time>2026-07-07T10:17:26.000Z</time>
      </trkpt>
      <trkpt lat="47.9912" lon="16.25749">
        <ele>253.389038</ele>
        <time>2026-07-07T10:17:27.000Z</time>
      </trkpt>
      <trkpt lat="47.99116" lon="16.25747">
        <ele>253.41614</ele>
        <time>2026-07-07T10:17:28.000Z</time>
      </trkpt>
      <trkpt lat="47.99111" lon="16.25746">
        <ele>253.442504</ele>
        <time>2026-07-07T10:17:29.000Z</time>
      </trkpt>
      <trkpt lat="47.99107" lon="16.25745">
        <ele>253.464921</ele>
        <time>2026-07-07T10:17:30.000Z</time>
      </trkpt>
      <trkpt lat="47.99104" lon="16.25745">
        <ele>253.481809</ele>
        <time>2026-07-07T10:17:31.000Z</time>
      </trkpt>
      <trkpt lat="47.99102" lon="16.25744">
        <ele>253.494866</ele>
        <time>2026-07-07T10:17:32.000Z</time>
      </trkpt>
      <trkpt lat="47.991" lon="16.25743">
        <ele>253.508605</ele>
        <time>2026-07-07T10:17:33.000Z</time>
      </trkpt>
      <trkpt lat="47.99097" lon="16.25742">
        <ele>253.524738</ele>
        <time>2026-07-07T10:17:34.000Z</time>
      </trkpt>
      <trkpt lat="47.99094" lon="16.25741">
        <ele>253.545006</ele>
        <time>2026-07-07T10:17:35.000Z</time>
      </trkpt>
      <trkpt lat="47.99091" lon="16.25739">
        <ele>253.567246</ele>
        <time>2026-07-07T10:17:36.000Z</time>
      </trkpt>
      <trkpt lat="47.99088" lon="16.25737">
        <ele>253.590025</ele>
        <time>2026-07-07T10:17:37.000Z</time>
      </trkpt>
      <trkpt lat="47.99085" lon="16.25734">
        <ele>253.613612</ele>
        <time>2026-07-07T10:17:38.000Z</time>
      </trkpt>
      <trkpt lat="47.99082" lon="16.25733">
        <ele>253.636844</ele>
        <time>2026-07-07T10:17:39.000Z</time>
      </trkpt>
      <trkpt lat="47.99078" lon="16.25731">
        <ele>253.662344</ele>
        <time>2026-07-07T10:17:40.000Z</time>
      </trkpt>
      <trkpt lat="47.99074" lon="16.2573">
        <ele>253.689737</ele>
        <time>2026-07-07T10:17:41.000Z</time>
      </trkpt>
      <trkpt lat="47.9907" lon="16.25729">
        <ele>253.719199</ele>
        <time>2026-07-07T10:17:42.000Z</time>
      </trkpt>
      <trkpt lat="47.99066" lon="16.25728">
        <ele>253.749721</ele>
        <time>2026-07-07T10:17:43.000Z</time>
      </trkpt>
      <trkpt lat="47.99061" lon="16.25728">
        <ele>253.780194</ele>
        <time>2026-07-07T10:17:44.000Z</time>
      </trkpt>
      <trkpt lat="47.99057" lon="16.25727">
        <ele>253.809186</ele>
        <time>2026-07-07T10:17:45.000Z</time>
      </trkpt>
      <trkpt lat="47.99052" lon="16.25727">
        <ele>253.838907</ele>
        <time>2026-07-07T10:17:46.000Z</time>
      </trkpt>
      <trkpt lat="47.99048" lon="16.25726">
        <ele>253.870049</ele>
        <time>2026-07-07T10:17:47.000Z</time>
      </trkpt>
      <trkpt lat="47.99043" lon="16.25725">
        <ele>253.903201</ele>
        <time>2026-07-07T10:17:48.000Z</time>
      </trkpt>
      <trkpt lat="47.99038" lon="16.25725">
        <ele>253.935643</ele>
        <time>2026-07-07T10:17:49.000Z</time>
      </trkpt>
      <trkpt lat="47.99033" lon="16.25724">
        <ele>253.968285</ele>
        <time>2026-07-07T10:17:50.000Z</time>
      </trkpt>
      <trkpt lat="47.99028" lon="16.25723">
        <ele>254.001535</ele>
        <time>2026-07-07T10:17:51.000Z</time>
      </trkpt>
      <trkpt lat="47.99023" lon="16.25722">
        <ele>254.035574</ele>
        <time>2026-07-07T10:17:52.000Z</time>
      </trkpt>
      <trkpt lat="47.99018" lon="16.2572">
        <ele>254.070499</ele>
        <time>2026-07-07T10:17:53.000Z</time>
      </trkpt>
      <trkpt lat="47.99013" lon="16.25719">
        <ele>254.106008</ele>
        <time>2026-07-07T10:17:54.000Z</time>
      </trkpt>
      <trkpt lat="47.99008" lon="16.25719">
        <ele>254.13976</ele>
        <time>2026-07-07T10:17:55.000Z</time>
      </trkpt>
      <trkpt lat="47.99003" lon="16.25718">
        <ele>254.173628</ele>
        <time>2026-07-07T10:17:56.000Z</time>
      </trkpt>
      <trkpt lat="47.98998" lon="16.25716">
        <ele>254.211205</ele>
        <time>2026-07-07T10:17:57.000Z</time>
      </trkpt>
      <trkpt lat="47.98992" lon="16.25715">
        <ele>254.24886</ele>
        <time>2026-07-07T10:17:58.000Z</time>
      </trkpt>
      <trkpt lat="47.98986" lon="16.25714">
        <ele>254.287696</ele>
        <time>2026-07-07T10:17:59.000Z</time>
      </trkpt>
      <trkpt lat="47.98981" lon="16.25712">
        <ele>254.325865</ele>
        <time>2026-07-07T10:18:00.000Z</time>
      </trkpt>
      <trkpt lat="47.98975" lon="16.25711">
        <ele>254.363442</ele>
        <time>2026-07-07T10:18:01.000Z</time>
      </trkpt>
      <trkpt lat="47.9897" lon="16.2571">
        <ele>254.402277</ele>
        <time>2026-07-07T10:18:02.000Z</time>
      </trkpt>
      <trkpt lat="47.98964" lon="16.25708">
        <ele>254.441259</ele>
        <time>2026-07-07T10:18:03.000Z</time>
      </trkpt>
      <trkpt lat="47.98958" lon="16.25707">
        <ele>254.478914</ele>
        <time>2026-07-07T10:18:04.000Z</time>
      </trkpt>
      <trkpt lat="47.98953" lon="16.25705">
        <ele>254.516418</ele>
        <time>2026-07-07T10:18:05.000Z</time>
      </trkpt>
      <trkpt lat="47.98947" lon="16.25704">
        <ele>254.554073</ele>
        <time>2026-07-07T10:18:06.000Z</time>
      </trkpt>
      <trkpt lat="47.98942" lon="16.25702">
        <ele>254.591651</ele>
        <time>2026-07-07T10:18:07.000Z</time>
      </trkpt>
      <trkpt lat="47.98936" lon="16.25701">
        <ele>254.629155</ele>
        <time>2026-07-07T10:18:08.000Z</time>
      </trkpt>
      <trkpt lat="47.98931" lon="16.257">
        <ele>254.666659</ele>
        <time>2026-07-07T10:18:09.000Z</time>
      </trkpt>
      <trkpt lat="47.98925" lon="16.25698">
        <ele>254.704236</ele>
        <time>2026-07-07T10:18:10.000Z</time>
      </trkpt>
      <trkpt lat="47.9892" lon="16.25697">
        <ele>254.753884</ele>
        <time>2026-07-07T10:18:11.000Z</time>
      </trkpt>
      <trkpt lat="47.98915" lon="16.25696">
        <ele>254.802561</ele>
        <time>2026-07-07T10:18:12.000Z</time>
      </trkpt>
      <trkpt lat="47.98909" lon="16.25694">
        <ele>254.853013</ele>
        <time>2026-07-07T10:18:13.000Z</time>
      </trkpt>
      <trkpt lat="47.98903" lon="16.25693">
        <ele>254.905241</ele>
        <time>2026-07-07T10:18:14.000Z</time>
      </trkpt>
      <trkpt lat="47.98898" lon="16.25691">
        <ele>254.95549</ele>
        <time>2026-07-07T10:18:15.000Z</time>
      </trkpt>
      <trkpt lat="47.98892" lon="16.2569">
        <ele>255.005648</ele>
        <time>2026-07-07T10:18:16.000Z</time>
      </trkpt>
      <trkpt lat="47.98887" lon="16.25689">
        <ele>255.055897</ele>
        <time>2026-07-07T10:18:17.000Z</time>
      </trkpt>
      <trkpt lat="47.98881" lon="16.25687">
        <ele>255.106838</ele>
        <time>2026-07-07T10:18:18.000Z</time>
      </trkpt>
      <trkpt lat="47.98876" lon="16.25685">
        <ele>255.155884</ele>
        <time>2026-07-07T10:18:19.000Z</time>
      </trkpt>
      <trkpt lat="47.98871" lon="16.25683">
        <ele>255.207762</ele>
        <time>2026-07-07T10:18:20.000Z</time>
      </trkpt>
      <trkpt lat="47.98865" lon="16.2568">
        <ele>255.258063</ele>
        <time>2026-07-07T10:18:21.000Z</time>
      </trkpt>
      <trkpt lat="47.9886" lon="16.25676">
        <ele>255.307889</ele>
        <time>2026-07-07T10:18:22.000Z</time>
      </trkpt>
      <trkpt lat="47.98855" lon="16.25672">
        <ele>255.358239</ele>
        <time>2026-07-07T10:18:23.000Z</time>
      </trkpt>
      <trkpt lat="47.98851" lon="16.25669">
        <ele>255.405671</ele>
        <time>2026-07-07T10:18:24.000Z</time>
      </trkpt>
      <trkpt lat="47.98847" lon="16.25664">
        <ele>255.451615</ele>
        <time>2026-07-07T10:18:25.000Z</time>
      </trkpt>
      <trkpt lat="47.98843" lon="16.2566">
        <ele>255.496799</ele>
        <time>2026-07-07T10:18:26.000Z</time>
      </trkpt>
      <trkpt lat="47.98838" lon="16.25655">
        <ele>255.543437</ele>
        <time>2026-07-07T10:18:27.000Z</time>
      </trkpt>
      <trkpt lat="47.98834" lon="16.25651">
        <ele>255.58862</ele>
        <time>2026-07-07T10:18:28.000Z</time>
      </trkpt>
      <trkpt lat="47.9883" lon="16.25646">
        <ele>255.63454</ele>
        <time>2026-07-07T10:18:29.000Z</time>
      </trkpt>
      <trkpt lat="47.98827" lon="16.25641">
        <ele>255.678894</ele>
        <time>2026-07-07T10:18:30.000Z</time>
      </trkpt>
      <trkpt lat="47.98824" lon="16.25636">
        <ele>255.71812</ele>
        <time>2026-07-07T10:18:31.000Z</time>
      </trkpt>
      <trkpt lat="47.98821" lon="16.25632">
        <ele>255.756159</ele>
        <time>2026-07-07T10:18:32.000Z</time>
      </trkpt>
      <trkpt lat="47.98817" lon="16.25628">
        <ele>255.796071</ele>
        <time>2026-07-07T10:18:33.000Z</time>
      </trkpt>
      <trkpt lat="47.98814" lon="16.25624">
        <ele>255.835835</ele>
        <time>2026-07-07T10:18:34.000Z</time>
      </trkpt>
      <trkpt lat="47.9881" lon="16.2562">
        <ele>255.879608</ele>
        <time>2026-07-07T10:18:35.000Z</time>
      </trkpt>
      <trkpt lat="47.98806" lon="16.25616">
        <ele>255.924553</ele>
        <time>2026-07-07T10:18:36.000Z</time>
      </trkpt>
      <trkpt lat="47.98802" lon="16.25612">
        <ele>255.967988</ele>
        <time>2026-07-07T10:18:37.000Z</time>
      </trkpt>
      <trkpt lat="47.98797" lon="16.25608">
        <ele>256.013696</ele>
        <time>2026-07-07T10:18:38.000Z</time>
      </trkpt>
      <trkpt lat="47.98793" lon="16.25604">
        <ele>256.056798</ele>
        <time>2026-07-07T10:18:39.000Z</time>
      </trkpt>
      <trkpt lat="47.98789" lon="16.256">
        <ele>256.100492</ele>
        <time>2026-07-07T10:18:40.000Z</time>
      </trkpt>
      <trkpt lat="47.98785" lon="16.25596">
        <ele>256.146201</ele>
        <time>2026-07-07T10:18:41.000Z</time>
      </trkpt>
      <trkpt lat="47.98781" lon="16.25592">
        <ele>256.192489</ele>
        <time>2026-07-07T10:18:42.000Z</time>
      </trkpt>
      <trkpt lat="47.98776" lon="16.25587">
        <ele>256.239128</ele>
        <time>2026-07-07T10:18:43.000Z</time>
      </trkpt>
      <trkpt lat="47.98772" lon="16.25583">
        <ele>256.285035</ele>
        <time>2026-07-07T10:18:44.000Z</time>
      </trkpt>
      <trkpt lat="47.98768" lon="16.25578">
        <ele>256.329459</ele>
        <time>2026-07-07T10:18:45.000Z</time>
      </trkpt>
      <trkpt lat="47.98764" lon="16.25574">
        <ele>256.344762</ele>
        <time>2026-07-07T10:18:46.000Z</time>
      </trkpt>
      <trkpt lat="47.9876" lon="16.25569">
        <ele>256.360065</ele>
        <time>2026-07-07T10:18:47.000Z</time>
      </trkpt>
      <trkpt lat="47.98756" lon="16.25565">
        <ele>256.374897</ele>
        <time>2026-07-07T10:18:48.000Z</time>
      </trkpt>
      <trkpt lat="47.98752" lon="16.25561">
        <ele>256.389973</ele>
        <time>2026-07-07T10:18:49.000Z</time>
      </trkpt>
      <trkpt lat="47.98747" lon="16.25556">
        <ele>256.40551</ele>
        <time>2026-07-07T10:18:50.000Z</time>
      </trkpt>
      <trkpt lat="47.98743" lon="16.25552">
        <ele>256.421055</ele>
        <time>2026-07-07T10:18:51.000Z</time>
      </trkpt>
      <trkpt lat="47.98739" lon="16.25547">
        <ele>256.43613</ele>
        <time>2026-07-07T10:18:52.000Z</time>
      </trkpt>
      <trkpt lat="47.98735" lon="16.25543">
        <ele>256.451342</ele>
        <time>2026-07-07T10:18:53.000Z</time>
      </trkpt>
      <trkpt lat="47.9873" lon="16.25539">
        <ele>256.467812</ele>
        <time>2026-07-07T10:18:54.000Z</time>
      </trkpt>
      <trkpt lat="47.98725" lon="16.25535">
        <ele>256.483636</ele>
        <time>2026-07-07T10:18:55.000Z</time>
      </trkpt>
      <trkpt lat="47.9872" lon="16.25531">
        <ele>256.499366</ele>
        <time>2026-07-07T10:18:56.000Z</time>
      </trkpt>
      <trkpt lat="47.98716" lon="16.25528">
        <ele>256.514651</ele>
        <time>2026-07-07T10:18:57.000Z</time>
      </trkpt>
      <trkpt lat="47.98711" lon="16.25525">
        <ele>256.530028</ele>
        <time>2026-07-07T10:18:58.000Z</time>
      </trkpt>
      <trkpt lat="47.98706" lon="16.25521">
        <ele>256.545404</ele>
        <time>2026-07-07T10:18:59.000Z</time>
      </trkpt>
      <trkpt lat="47.98702" lon="16.25518">
        <ele>256.560689</ele>
        <time>2026-07-07T10:19:00.000Z</time>
      </trkpt>
      <trkpt lat="47.98697" lon="16.25514">
        <ele>256.577038</ele>
        <time>2026-07-07T10:19:01.000Z</time>
      </trkpt>
      <trkpt lat="47.98692" lon="16.25511">
        <ele>256.592873</ele>
        <time>2026-07-07T10:19:02.000Z</time>
      </trkpt>
      <trkpt lat="47.98687" lon="16.25508">
        <ele>256.609058</ele>
        <time>2026-07-07T10:19:03.000Z</time>
      </trkpt>
      <trkpt lat="47.98682" lon="16.25504">
        <ele>256.625324</ele>
        <time>2026-07-07T10:19:04.000Z</time>
      </trkpt>
      <trkpt lat="47.98677" lon="16.25501">
        <ele>256.641626</ele>
        <time>2026-07-07T10:19:05.000Z</time>
      </trkpt>
      <trkpt lat="47.98672" lon="16.25498">
        <ele>256.657893</ele>
        <time>2026-07-07T10:19:06.000Z</time>
      </trkpt>
      <trkpt lat="47.98667" lon="16.25494">
        <ele>256.67478</ele>
        <time>2026-07-07T10:19:07.000Z</time>
      </trkpt>
      <trkpt lat="47.98661" lon="16.25491">
        <ele>256.691938</ele>
        <time>2026-07-07T10:19:08.000Z</time>
      </trkpt>
      <trkpt lat="47.98656" lon="16.25488">
        <ele>256.708666</ele>
        <time>2026-07-07T10:19:09.000Z</time>
      </trkpt>
      <trkpt lat="47.98651" lon="16.25484">
        <ele>256.725394</ele>
        <time>2026-07-07T10:19:10.000Z</time>
      </trkpt>
      <trkpt lat="47.98646" lon="16.25481">
        <ele>256.741744</ele>
        <time>2026-07-07T10:19:11.000Z</time>
      </trkpt>
      <trkpt lat="47.98641" lon="16.25477">
        <ele>256.758361</ele>
        <time>2026-07-07T10:19:12.000Z</time>
      </trkpt>
      <trkpt lat="47.98635" lon="16.25474">
        <ele>256.775712</ele>
        <time>2026-07-07T10:19:13.000Z</time>
      </trkpt>
      <trkpt lat="47.9863" lon="16.25471">
        <ele>256.792714</ele>
        <time>2026-07-07T10:19:14.000Z</time>
      </trkpt>
      <trkpt lat="47.98625" lon="16.25467">
        <ele>256.809872</ele>
        <time>2026-07-07T10:19:15.000Z</time>
      </trkpt>
      <trkpt lat="47.9862" lon="16.25463">
        <ele>256.826926</ele>
        <time>2026-07-07T10:19:16.000Z</time>
      </trkpt>
      <trkpt lat="47.98614" lon="16.2546">
        <ele>256.843813</ele>
        <time>2026-07-07T10:19:17.000Z</time>
      </trkpt>
      <trkpt lat="47.98609" lon="16.25456">
        <ele>256.860162</ele>
        <time>2026-07-07T10:19:18.000Z</time>
      </trkpt>
      <trkpt lat="47.98604" lon="16.25453">
        <ele>256.870979</ele>
        <time>2026-07-07T10:19:19.000Z</time>
      </trkpt>
      <trkpt lat="47.98599" lon="16.25449">
        <ele>256.881238</ele>
        <time>2026-07-07T10:19:20.000Z</time>
      </trkpt>
      <trkpt lat="47.98595" lon="16.25446">
        <ele>256.891217</ele>
        <time>2026-07-07T10:19:21.000Z</time>
      </trkpt>
      <trkpt lat="47.9859" lon="16.25442">
        <ele>256.901088</ele>
        <time>2026-07-07T10:19:22.000Z</time>
      </trkpt>
      <trkpt lat="47.98585" lon="16.25438">
        <ele>256.910854</ele>
        <time>2026-07-07T10:19:23.000Z</time>
      </trkpt>
      <trkpt lat="47.98581" lon="16.25434">
        <ele>256.920519</ele>
        <time>2026-07-07T10:19:24.000Z</time>
      </trkpt>
      <trkpt lat="47.98576" lon="16.2543">
        <ele>256.930312</ele>
        <time>2026-07-07T10:19:25.000Z</time>
      </trkpt>
      <trkpt lat="47.98572" lon="16.25426">
        <ele>256.940684</ele>
        <time>2026-07-07T10:19:26.000Z</time>
      </trkpt>
      <trkpt lat="47.98567" lon="16.25421">
        <ele>256.950676</ele>
        <time>2026-07-07T10:19:27.000Z</time>
      </trkpt>
      <trkpt lat="47.98563" lon="16.25417">
        <ele>256.960601</ele>
        <time>2026-07-07T10:19:28.000Z</time>
      </trkpt>
      <trkpt lat="47.98558" lon="16.25412">
        <ele>256.9705</ele>
        <time>2026-07-07T10:19:29.000Z</time>
      </trkpt>
      <trkpt lat="47.98554" lon="16.25408">
        <ele>256.980773</ele>
        <time>2026-07-07T10:19:30.000Z</time>
      </trkpt>
      <trkpt lat="47.98549" lon="16.25403">
        <ele>256.991192</ele>
        <time>2026-07-07T10:19:31.000Z</time>
      </trkpt>
      <trkpt lat="47.98545" lon="16.25397">
        <ele>257.001615</ele>
        <time>2026-07-07T10:19:32.000Z</time>
      </trkpt>
      <trkpt lat="47.9854" lon="16.25392">
        <ele>257.012258</ele>
        <time>2026-07-07T10:19:33.000Z</time>
      </trkpt>
      <trkpt lat="47.98536" lon="16.25387">
        <ele>257.022828</ele>
        <time>2026-07-07T10:19:34.000Z</time>
      </trkpt>
      <trkpt lat="47.98531" lon="16.25382">
        <ele>257.033398</ele>
        <time>2026-07-07T10:19:35.000Z</time>
      </trkpt>
      <trkpt lat="47.98527" lon="16.25377">
        <ele>257.043612</ele>
        <time>2026-07-07T10:19:36.000Z</time>
      </trkpt>
      <trkpt lat="47.98523" lon="16.25371">
        <ele>257.053969</ele>
        <time>2026-07-07T10:19:37.000Z</time>
      </trkpt>
      <trkpt lat="47.98518" lon="16.25366">
        <ele>257.064693</ele>
        <time>2026-07-07T10:19:38.000Z</time>
      </trkpt>
      <trkpt lat="47.98514" lon="16.25361">
        <ele>257.075194</ele>
        <time>2026-07-07T10:19:39.000Z</time>
      </trkpt>
      <trkpt lat="47.9851" lon="16.25355">
        <ele>257.085473</ele>
        <time>2026-07-07T10:19:40.000Z</time>
      </trkpt>
      <trkpt lat="47.98505" lon="16.2535">
        <ele>257.095673</ele>
        <time>2026-07-07T10:19:41.000Z</time>
      </trkpt>
      <trkpt lat="47.98501" lon="16.25345">
        <ele>257.106097</ele>
        <time>2026-07-07T10:19:42.000Z</time>
      </trkpt>
      <trkpt lat="47.98497" lon="16.2534">
        <ele>257.116221</ele>
        <time>2026-07-07T10:19:43.000Z</time>
      </trkpt>
      <trkpt lat="47.98492" lon="16.25335">
        <ele>257.12679</ele>
        <time>2026-07-07T10:19:44.000Z</time>
      </trkpt>
      <trkpt lat="47.98488" lon="16.2533">
        <ele>257.137147</ele>
        <time>2026-07-07T10:19:45.000Z</time>
      </trkpt>
      <trkpt lat="47.98483" lon="16.25324">
        <ele>257.147571</ele>
        <time>2026-07-07T10:19:46.000Z</time>
      </trkpt>
      <trkpt lat="47.98479" lon="16.25319">
        <ele>257.15799</ele>
        <time>2026-07-07T10:19:47.000Z</time>
      </trkpt>
      <trkpt lat="47.98475" lon="16.25314">
        <ele>257.168191</ele>
        <time>2026-07-07T10:19:48.000Z</time>
      </trkpt>
      <trkpt lat="47.9847" lon="16.25309">
        <ele>257.178315</ele>
        <time>2026-07-07T10:19:49.000Z</time>
      </trkpt>
      <trkpt lat="47.98466" lon="16.25304">
        <ele>257.188738</ele>
        <time>2026-07-07T10:19:50.000Z</time>
      </trkpt>
      <trkpt lat="47.98461" lon="16.25299">
        <ele>257.193517</ele>
        <time>2026-07-07T10:19:51.000Z</time>
      </trkpt>
      <trkpt lat="47.98457" lon="16.25294">
        <ele>257.186102</ele>
        <time>2026-07-07T10:19:52.000Z</time>
      </trkpt>
      <trkpt lat="47.98452" lon="16.25289">
        <ele>257.17874</ele>
        <time>2026-07-07T10:19:53.000Z</time>
      </trkpt>
      <trkpt lat="47.98448" lon="16.25284">
        <ele>257.171324</ele>
        <time>2026-07-07T10:19:54.000Z</time>
      </trkpt>
      <trkpt lat="47.98443" lon="16.25279">
        <ele>257.164015</ele>
        <time>2026-07-07T10:19:55.000Z</time>
      </trkpt>
      <trkpt lat="47.98439" lon="16.25274">
        <ele>257.156705</ele>
        <time>2026-07-07T10:19:56.000Z</time>
      </trkpt>
      <trkpt lat="47.98434" lon="16.25268">
        <ele>257.149186</ele>
        <time>2026-07-07T10:19:57.000Z</time>
      </trkpt>
      <trkpt lat="47.9843" lon="16.25263">
        <ele>257.141819</ele>
        <time>2026-07-07T10:19:58.000Z</time>
      </trkpt>
      <trkpt lat="47.98425" lon="16.25258">
        <ele>257.134241</ele>
        <time>2026-07-07T10:19:59.000Z</time>
      </trkpt>
      <trkpt lat="47.98421" lon="16.25252">
        <ele>257.126669</ele>
        <time>2026-07-07T10:20:00.000Z</time>
      </trkpt>
      <trkpt lat="47.98416" lon="16.25247">
        <ele>257.119046</ele>
        <time>2026-07-07T10:20:01.000Z</time>
      </trkpt>
      <trkpt lat="47.98411" lon="16.25242">
        <ele>257.11137</ele>
        <time>2026-07-07T10:20:02.000Z</time>
      </trkpt>
      <trkpt lat="47.98407" lon="16.25237">
        <ele>257.103642</ele>
        <time>2026-07-07T10:20:03.000Z</time>
      </trkpt>
      <trkpt lat="47.98402" lon="16.25231">
        <ele>257.095966</ele>
        <time>2026-07-07T10:20:04.000Z</time>
      </trkpt>
      <trkpt lat="47.98397" lon="16.25226">
        <ele>257.088388</ele>
        <time>2026-07-07T10:20:05.000Z</time>
      </trkpt>
      <trkpt lat="47.98393" lon="16.2522">
        <ele>257.08081</ele>
        <time>2026-07-07T10:20:06.000Z</time>
      </trkpt>
      <trkpt lat="47.98388" lon="16.25215">
        <ele>257.0735</ele>
        <time>2026-07-07T10:20:07.000Z</time>
      </trkpt>
      <trkpt lat="47.98384" lon="16.2521">
        <ele>257.066085</ele>
        <time>2026-07-07T10:20:08.000Z</time>
      </trkpt>
      <trkpt lat="47.9838" lon="16.25205">
        <ele>257.058818</ele>
        <time>2026-07-07T10:20:09.000Z</time>
      </trkpt>
      <trkpt lat="47.98375" lon="16.25199">
        <ele>257.051295</ele>
        <time>2026-07-07T10:20:10.000Z</time>
      </trkpt>
      <trkpt lat="47.98371" lon="16.25194">
        <ele>257.043985</ele>
        <time>2026-07-07T10:20:11.000Z</time>
      </trkpt>
      <trkpt lat="47.98366" lon="16.25189">
        <ele>257.036675</ele>
        <time>2026-07-07T10:20:12.000Z</time>
      </trkpt>
      <trkpt lat="47.98362" lon="16.25184">
        <ele>257.029206</ele>
        <time>2026-07-07T10:20:13.000Z</time>
      </trkpt>
      <trkpt lat="47.98357" lon="16.25179">
        <ele>257.021791</ele>
        <time>2026-07-07T10:20:14.000Z</time>
      </trkpt>
      <trkpt lat="47.98352" lon="16.25174">
        <ele>257.014219</ele>
        <time>2026-07-07T10:20:15.000Z</time>
      </trkpt>
      <trkpt lat="47.98348" lon="16.25169">
        <ele>257.006804</ele>
        <time>2026-07-07T10:20:16.000Z</time>
      </trkpt>
      <trkpt lat="47.98343" lon="16.25163">
        <ele>256.999389</ele>
        <time>2026-07-07T10:20:17.000Z</time>
      </trkpt>
      <trkpt lat="47.98339" lon="16.25158">
        <ele>256.992122</ele>
        <time>2026-07-07T10:20:18.000Z</time>
      </trkpt>
      <trkpt lat="47.98335" lon="16.25153">
        <ele>256.984707</ele>
        <time>2026-07-07T10:20:19.000Z</time>
      </trkpt>
      <trkpt lat="47.9833" lon="16.25148">
        <ele>256.977286</ele>
        <time>2026-07-07T10:20:20.000Z</time>
      </trkpt>
      <trkpt lat="47.98325" lon="16.25143">
        <ele>256.969767</ele>
        <time>2026-07-07T10:20:21.000Z</time>
      </trkpt>
      <trkpt lat="47.98321" lon="16.25138">
        <ele>256.962405</ele>
        <time>2026-07-07T10:20:22.000Z</time>
      </trkpt>
      <trkpt lat="47.98316" lon="16.25133">
        <ele>256.978643</ele>
        <time>2026-07-07T10:20:23.000Z</time>
      </trkpt>
      <trkpt lat="47.98312" lon="16.25127">
        <ele>256.998115</ele>
        <time>2026-07-07T10:20:24.000Z</time>
      </trkpt>
      <trkpt lat="47.98307" lon="16.25122">
        <ele>257.018402</ele>
        <time>2026-07-07T10:20:25.000Z</time>
      </trkpt>
      <trkpt lat="47.98302" lon="16.25116">
        <ele>257.038281</ele>
        <time>2026-07-07T10:20:26.000Z</time>
      </trkpt>
      <trkpt lat="47.98298" lon="16.25111">
        <ele>257.058568</ele>
        <time>2026-07-07T10:20:27.000Z</time>
      </trkpt>
      <trkpt lat="47.98293" lon="16.25105">
        <ele>257.078996</ele>
        <time>2026-07-07T10:20:28.000Z</time>
      </trkpt>
      <trkpt lat="47.98288" lon="16.251">
        <ele>257.099043</ele>
        <time>2026-07-07T10:20:29.000Z</time>
      </trkpt>
      <trkpt lat="47.98284" lon="16.25094">
        <ele>257.117986</ele>
        <time>2026-07-07T10:20:30.000Z</time>
      </trkpt>
      <trkpt lat="47.9828" lon="16.25089">
        <ele>257.137317</ele>
        <time>2026-07-07T10:20:31.000Z</time>
      </trkpt>
      <trkpt lat="47.98275" lon="16.25084">
        <ele>257.15626</ele>
        <time>2026-07-07T10:20:32.000Z</time>
      </trkpt>
      <trkpt lat="47.98271" lon="16.25079">
        <ele>257.175324</ele>
        <time>2026-07-07T10:20:33.000Z</time>
      </trkpt>
      <trkpt lat="47.98267" lon="16.25073">
        <ele>257.194266</ele>
        <time>2026-07-07T10:20:34.000Z</time>
      </trkpt>
      <trkpt lat="47.98262" lon="16.25068">
        <ele>257.213065</ele>
        <time>2026-07-07T10:20:35.000Z</time>
      </trkpt>
      <trkpt lat="47.98258" lon="16.25063">
        <ele>257.232536</ele>
        <time>2026-07-07T10:20:36.000Z</time>
      </trkpt>
      <trkpt lat="47.98253" lon="16.25058">
        <ele>257.25241</ele>
        <time>2026-07-07T10:20:37.000Z</time>
      </trkpt>
      <trkpt lat="47.98248" lon="16.25053">
        <ele>257.272016</ele>
        <time>2026-07-07T10:20:38.000Z</time>
      </trkpt>
      <trkpt lat="47.98244" lon="16.25048">
        <ele>257.291346</ele>
        <time>2026-07-07T10:20:39.000Z</time>
      </trkpt>
      <trkpt lat="47.98239" lon="16.25043">
        <ele>257.311257</ele>
        <time>2026-07-07T10:20:40.000Z</time>
      </trkpt>
      <trkpt lat="47.98234" lon="16.25038">
        <ele>257.330513</ele>
        <time>2026-07-07T10:20:41.000Z</time>
      </trkpt>
      <trkpt lat="47.98229" lon="16.25034">
        <ele>257.349769</ele>
        <time>2026-07-07T10:20:42.000Z</time>
      </trkpt>
      <trkpt lat="47.98224" lon="16.2503">
        <ele>257.369261</ele>
        <time>2026-07-07T10:20:43.000Z</time>
      </trkpt>
      <trkpt lat="47.98219" lon="16.25026">
        <ele>257.388533</ele>
        <time>2026-07-07T10:20:44.000Z</time>
      </trkpt>
      <trkpt lat="47.98214" lon="16.25022">
        <ele>257.408204</ele>
        <time>2026-07-07T10:20:45.000Z</time>
      </trkpt>
      <trkpt lat="47.98209" lon="16.25018">
        <ele>257.42737</ele>
        <time>2026-07-07T10:20:46.000Z</time>
      </trkpt>
      <trkpt lat="47.98204" lon="16.25014">
        <ele>257.446231</ele>
        <time>2026-07-07T10:20:47.000Z</time>
      </trkpt>
      <trkpt lat="47.98199" lon="16.25011">
        <ele>257.464994</ele>
        <time>2026-07-07T10:20:48.000Z</time>
      </trkpt>
      <trkpt lat="47.98194" lon="16.25008">
        <ele>257.484104</ele>
        <time>2026-07-07T10:20:49.000Z</time>
      </trkpt>
      <trkpt lat="47.98189" lon="16.25005">
        <ele>257.502567</ele>
        <time>2026-07-07T10:20:50.000Z</time>
      </trkpt>
      <trkpt lat="47.98184" lon="16.25003">
        <ele>257.520279</ele>
        <time>2026-07-07T10:20:51.000Z</time>
      </trkpt>
      <trkpt lat="47.98179" lon="16.25001">
        <ele>257.536109</ele>
        <time>2026-07-07T10:20:52.000Z</time>
      </trkpt>
      <trkpt lat="47.98175" lon="16.24999">
        <ele>257.549914</ele>
        <time>2026-07-07T10:20:53.000Z</time>
      </trkpt>
      <trkpt lat="47.98172" lon="16.24997">
        <ele>257.563604</ele>
        <time>2026-07-07T10:20:54.000Z</time>
      </trkpt>
      <trkpt lat="47.98168" lon="16.24995">
        <ele>257.570957</ele>
        <time>2026-07-07T10:20:55.000Z</time>
      </trkpt>
      <trkpt lat="47.98164" lon="16.24992">
        <ele>257.566061</ele>
        <time>2026-07-07T10:20:56.000Z</time>
      </trkpt>
      <trkpt lat="47.9816" lon="16.24987">
        <ele>257.560373</ele>
        <time>2026-07-07T10:20:57.000Z</time>
      </trkpt>
      <trkpt lat="47.98155" lon="16.24982">
        <ele>257.553621</ele>
        <time>2026-07-07T10:20:58.000Z</time>
      </trkpt>
      <trkpt lat="47.9815" lon="16.24978">
        <ele>257.546696</ele>
        <time>2026-07-07T10:20:59.000Z</time>
      </trkpt>
      <trkpt lat="47.98144" lon="16.24974">
        <ele>257.539747</ele>
        <time>2026-07-07T10:21:00.000Z</time>
      </trkpt>
      <trkpt lat="47.98139" lon="16.2497">
        <ele>257.532746</ele>
        <time>2026-07-07T10:21:01.000Z</time>
      </trkpt>
      <trkpt lat="47.98133" lon="16.24967">
        <ele>257.525774</ele>
        <time>2026-07-07T10:21:02.000Z</time>
      </trkpt>
      <trkpt lat="47.98127" lon="16.24964">
        <ele>257.518935</ele>
        <time>2026-07-07T10:21:03.000Z</time>
      </trkpt>
      <trkpt lat="47.98122" lon="16.24961">
        <ele>257.512119</ele>
        <time>2026-07-07T10:21:04.000Z</time>
      </trkpt>
      <trkpt lat="47.98116" lon="16.24958">
        <ele>257.505542</ele>
        <time>2026-07-07T10:21:05.000Z</time>
      </trkpt>
      <trkpt lat="47.98111" lon="16.24956">
        <ele>257.499074</ele>
        <time>2026-07-07T10:21:06.000Z</time>
      </trkpt>
      <trkpt lat="47.98105" lon="16.24954">
        <ele>257.492456</ele>
        <time>2026-07-07T10:21:07.000Z</time>
      </trkpt>
      <trkpt lat="47.98099" lon="16.24952">
        <ele>257.486059</ele>
        <time>2026-07-07T10:21:08.000Z</time>
      </trkpt>
      <trkpt lat="47.98094" lon="16.2495">
        <ele>257.479297</ele>
        <time>2026-07-07T10:21:09.000Z</time>
      </trkpt>
      <trkpt lat="47.98088" lon="16.24949">
        <ele>257.472694</ele>
        <time>2026-07-07T10:21:10.000Z</time>
      </trkpt>
      <trkpt lat="47.98082" lon="16.24947">
        <ele>257.466256</ele>
        <time>2026-07-07T10:21:11.000Z</time>
      </trkpt>
      <trkpt lat="47.98077" lon="16.24946">
        <ele>257.459681</ele>
        <time>2026-07-07T10:21:12.000Z</time>
      </trkpt>
      <trkpt lat="47.98071" lon="16.24944">
        <ele>257.453106</ele>
        <time>2026-07-07T10:21:13.000Z</time>
      </trkpt>
      <trkpt lat="47.98065" lon="16.24943">
        <ele>257.446392</ele>
        <time>2026-07-07T10:21:14.000Z</time>
      </trkpt>
      <trkpt lat="47.98059" lon="16.24941">
        <ele>257.439789</ele>
        <time>2026-07-07T10:21:15.000Z</time>
      </trkpt>
      <trkpt lat="47.98054" lon="16.2494">
        <ele>257.433351</ele>
        <time>2026-07-07T10:21:16.000Z</time>
      </trkpt>
      <trkpt lat="47.98048" lon="16.24938">
        <ele>257.426525</ele>
        <time>2026-07-07T10:21:17.000Z</time>
      </trkpt>
      <trkpt lat="47.98042" lon="16.24936">
        <ele>257.420017</ele>
        <time>2026-07-07T10:21:18.000Z</time>
      </trkpt>
      <trkpt lat="47.98037" lon="16.24935">
        <ele>257.413442</ele>
        <time>2026-07-07T10:21:19.000Z</time>
      </trkpt>
      <trkpt lat="47.98031" lon="16.24933">
        <ele>257.406756</ele>
        <time>2026-07-07T10:21:20.000Z</time>
      </trkpt>
      <trkpt lat="47.98025" lon="16.24932">
        <ele>257.399981</ele>
        <time>2026-07-07T10:21:21.000Z</time>
      </trkpt>
      <trkpt lat="47.98019" lon="16.2493">
        <ele>257.39353</ele>
        <time>2026-07-07T10:21:22.000Z</time>
      </trkpt>
      <trkpt lat="47.98014" lon="16.24929">
        <ele>257.386956</ele>
        <time>2026-07-07T10:21:23.000Z</time>
      </trkpt>
      <trkpt lat="47.98008" lon="16.24927">
        <ele>257.380269</ele>
        <time>2026-07-07T10:21:24.000Z</time>
      </trkpt>
      <trkpt lat="47.98002" lon="16.24926">
        <ele>257.37365</ele>
        <time>2026-07-07T10:21:25.000Z</time>
      </trkpt>
      <trkpt lat="47.97996" lon="16.24924">
        <ele>257.373317</ele>
        <time>2026-07-07T10:21:26.000Z</time>
      </trkpt>
      <trkpt lat="47.9799" lon="16.24922">
        <ele>257.399424</ele>
        <time>2026-07-07T10:21:27.000Z</time>
      </trkpt>
      <trkpt lat="47.97985" lon="16.24921">
        <ele>257.425052</ele>
        <time>2026-07-07T10:21:28.000Z</time>
      </trkpt>
      <trkpt lat="47.97979" lon="16.24919">
        <ele>257.45164</ele>
        <time>2026-07-07T10:21:29.000Z</time>
      </trkpt>
      <trkpt lat="47.97973" lon="16.24917">
        <ele>257.478228</ele>
        <time>2026-07-07T10:21:30.000Z</time>
      </trkpt>
      <trkpt lat="47.97967" lon="16.24916">
        <ele>257.504764</ele>
        <time>2026-07-07T10:21:31.000Z</time>
      </trkpt>
      <trkpt lat="47.97961" lon="16.24914">
        <ele>257.530391</ele>
        <time>2026-07-07T10:21:32.000Z</time>
      </trkpt>
      <trkpt lat="47.97955" lon="16.24913">
        <ele>257.556877</ele>
        <time>2026-07-07T10:21:33.000Z</time>
      </trkpt>
      <trkpt lat="47.97949" lon="16.24911">
        <ele>257.582933</ele>
        <time>2026-07-07T10:21:34.000Z</time>
      </trkpt>
      <trkpt lat="47.97943" lon="16.2491">
        <ele>257.608667</ele>
        <time>2026-07-07T10:21:35.000Z</time>
      </trkpt>
      <trkpt lat="47.97937" lon="16.24908">
        <ele>257.635255</ele>
        <time>2026-07-07T10:21:36.000Z</time>
      </trkpt>
      <trkpt lat="47.97931" lon="16.24906">
        <ele>257.660934</ele>
        <time>2026-07-07T10:21:37.000Z</time>
      </trkpt>
      <trkpt lat="47.97925" lon="16.24905">
        <ele>257.687094</ele>
        <time>2026-07-07T10:21:38.000Z</time>
      </trkpt>
      <trkpt lat="47.9792" lon="16.24903">
        <ele>257.711974</ele>
        <time>2026-07-07T10:21:39.000Z</time>
      </trkpt>
      <trkpt lat="47.97914" lon="16.24901">
        <ele>257.738081</ele>
        <time>2026-07-07T10:21:40.000Z</time>
      </trkpt>
      <trkpt lat="47.97908" lon="16.249">
        <ele>257.763814</ele>
        <time>2026-07-07T10:21:41.000Z</time>
      </trkpt>
      <trkpt lat="47.97902" lon="16.24898">
        <ele>257.78912</ele>
        <time>2026-07-07T10:21:42.000Z</time>
      </trkpt>
      <trkpt lat="47.97897" lon="16.24896">
        <ele>257.814748</ele>
        <time>2026-07-07T10:21:43.000Z</time>
      </trkpt>
      <trkpt lat="47.97891" lon="16.24895">
        <ele>257.841283</ele>
        <time>2026-07-07T10:21:44.000Z</time>
      </trkpt>
      <trkpt lat="47.97885" lon="16.24893">
        <ele>257.867769</ele>
        <time>2026-07-07T10:21:45.000Z</time>
      </trkpt>
      <trkpt lat="47.97879" lon="16.24892">
        <ele>257.894357</ele>
        <time>2026-07-07T10:21:46.000Z</time>
      </trkpt>
      <trkpt lat="47.97873" lon="16.2489">
        <ele>257.920946</ele>
        <time>2026-07-07T10:21:47.000Z</time>
      </trkpt>
      <trkpt lat="47.97867" lon="16.24888">
        <ele>257.946737</ele>
        <time>2026-07-07T10:21:48.000Z</time>
      </trkpt>
      <trkpt lat="47.97861" lon="16.24887">
        <ele>257.972793</ele>
        <time>2026-07-07T10:21:49.000Z</time>
      </trkpt>
      <trkpt lat="47.97855" lon="16.24885">
        <ele>257.997467</ele>
        <time>2026-07-07T10:21:50.000Z</time>
      </trkpt>
      <trkpt lat="47.97849" lon="16.24883">
        <ele>258.023744</ele>
        <time>2026-07-07T10:21:51.000Z</time>
      </trkpt>
      <trkpt lat="47.97844" lon="16.24882">
        <ele>258.048683</ele>
        <time>2026-07-07T10:21:52.000Z</time>
      </trkpt>
      <trkpt lat="47.97838" lon="16.2488">
        <ele>258.073989</ele>
        <time>2026-07-07T10:21:53.000Z</time>
      </trkpt>
      <trkpt lat="47.97832" lon="16.24878">
        <ele>258.099188</ele>
        <time>2026-07-07T10:21:54.000Z</time>
      </trkpt>
      <trkpt lat="47.97827" lon="16.24877">
        <ele>258.123958</ele>
        <time>2026-07-07T10:21:55.000Z</time>
      </trkpt>
      <trkpt lat="47.97821" lon="16.24875">
        <ele>258.148353</ele>
        <time>2026-07-07T10:21:56.000Z</time>
      </trkpt>
      <trkpt lat="47.97815" lon="16.24874">
        <ele>258.217771</ele>
        <time>2026-07-07T10:21:57.000Z</time>
      </trkpt>
      <trkpt lat="47.9781" lon="16.24872">
        <ele>258.288782</ele>
        <time>2026-07-07T10:21:58.000Z</time>
      </trkpt>
      <trkpt lat="47.97804" lon="16.24871">
        <ele>258.361023</ele>
        <time>2026-07-07T10:21:59.000Z</time>
      </trkpt>
      <trkpt lat="47.97799" lon="16.24869">
        <ele>258.4304</ele>
        <time>2026-07-07T10:22:00.000Z</time>
      </trkpt>
      <trkpt lat="47.97793" lon="16.24868">
        <ele>258.502136</ele>
        <time>2026-07-07T10:22:01.000Z</time>
      </trkpt>
      <trkpt lat="47.97787" lon="16.24867">
        <ele>258.571513</ele>
        <time>2026-07-07T10:22:02.000Z</time>
      </trkpt>
      <trkpt lat="47.97782" lon="16.24866">
        <ele>258.640486</ele>
        <time>2026-07-07T10:22:03.000Z</time>
      </trkpt>
      <trkpt lat="47.97776" lon="16.24865">
        <ele>258.709863</ele>
        <time>2026-07-07T10:22:04.000Z</time>
      </trkpt>
      <trkpt lat="47.97771" lon="16.24863">
        <ele>258.779965</ele>
        <time>2026-07-07T10:22:05.000Z</time>
      </trkpt>
      <trkpt lat="47.97766" lon="16.24862">
        <ele>258.846753</ele>
        <time>2026-07-07T10:22:06.000Z</time>
      </trkpt>
      <trkpt lat="47.9776" lon="16.24861">
        <ele>258.91613</ele>
        <time>2026-07-07T10:22:07.000Z</time>
      </trkpt>
      <trkpt lat="47.97754" lon="16.2486">
        <ele>258.987978</ele>
        <time>2026-07-07T10:22:08.000Z</time>
      </trkpt>
      <trkpt lat="47.97749" lon="16.24858">
        <ele>259.057761</ele>
        <time>2026-07-07T10:22:09.000Z</time>
      </trkpt>
      <trkpt lat="47.97743" lon="16.24857">
        <ele>259.128773</ele>
        <time>2026-07-07T10:22:10.000Z</time>
      </trkpt>
      <trkpt lat="47.97738" lon="16.24855">
        <ele>259.198556</ele>
        <time>2026-07-07T10:22:11.000Z</time>
      </trkpt>
      <trkpt lat="47.97732" lon="16.24854">
        <ele>259.270796</ele>
        <time>2026-07-07T10:22:12.000Z</time>
      </trkpt>
      <trkpt lat="47.97727" lon="16.24852">
        <ele>259.34058</ele>
        <time>2026-07-07T10:22:13.000Z</time>
      </trkpt>
      <trkpt lat="47.97721" lon="16.24851">
        <ele>259.409841</ele>
        <time>2026-07-07T10:22:14.000Z</time>
      </trkpt>
      <trkpt lat="47.97715" lon="16.2485">
        <ele>259.481941</ele>
        <time>2026-07-07T10:22:15.000Z</time>
      </trkpt>
      <trkpt lat="47.9771" lon="16.24849">
        <ele>259.551202</ele>
        <time>2026-07-07T10:22:16.000Z</time>
      </trkpt>
      <trkpt lat="47.97705" lon="16.24847">
        <ele>259.618531</ele>
        <time>2026-07-07T10:22:17.000Z</time>
      </trkpt>
      <trkpt lat="47.97699" lon="16.24846">
        <ele>259.688169</ele>
        <time>2026-07-07T10:22:18.000Z</time>
      </trkpt>
      <trkpt lat="47.97694" lon="16.24844">
        <ele>259.755659</ele>
        <time>2026-07-07T10:22:19.000Z</time>
      </trkpt>
      <trkpt lat="47.97688" lon="16.24843">
        <ele>259.82454</ele>
        <time>2026-07-07T10:22:20.000Z</time>
      </trkpt>
      <trkpt lat="47.97683" lon="16.24841">
        <ele>259.891578</ele>
        <time>2026-07-07T10:22:21.000Z</time>
      </trkpt>
      <trkpt lat="47.97678" lon="16.2484">
        <ele>259.958756</ele>
        <time>2026-07-07T10:22:22.000Z</time>
      </trkpt>
      <trkpt lat="47.97672" lon="16.24838">
        <ele>260.027312</ele>
        <time>2026-07-07T10:22:23.000Z</time>
      </trkpt>
      <trkpt lat="47.97667" lon="16.24837">
        <ele>260.092357</ele>
        <time>2026-07-07T10:22:24.000Z</time>
      </trkpt>
      <trkpt lat="47.97662" lon="16.24835">
        <ele>260.158797</ele>
        <time>2026-07-07T10:22:25.000Z</time>
      </trkpt>
      <trkpt lat="47.97657" lon="16.24833">
        <ele>260.222801</ele>
        <time>2026-07-07T10:22:26.000Z</time>
      </trkpt>
      <trkpt lat="47.97652" lon="16.24832">
        <ele>260.286996</ele>
        <time>2026-07-07T10:22:27.000Z</time>
      </trkpt>
      <trkpt lat="47.97647" lon="16.2483">
        <ele>260.353619</ele>
        <time>2026-07-07T10:22:28.000Z</time>
      </trkpt>
      <trkpt lat="47.97642" lon="16.24828">
        <ele>260.405794</ele>
        <time>2026-07-07T10:22:29.000Z</time>
      </trkpt>
      <trkpt lat="47.97636" lon="16.24827">
        <ele>260.432266</ele>
        <time>2026-07-07T10:22:30.000Z</time>
      </trkpt>
      <trkpt lat="47.9763" lon="16.24825">
        <ele>260.459788</ele>
        <time>2026-07-07T10:22:31.000Z</time>
      </trkpt>
      <trkpt lat="47.97625" lon="16.24823">
        <ele>260.486726</ele>
        <time>2026-07-07T10:22:32.000Z</time>
      </trkpt>
      <trkpt lat="47.97619" lon="16.24822">
        <ele>260.514187</ele>
        <time>2026-07-07T10:22:33.000Z</time>
      </trkpt>
      <trkpt lat="47.97613" lon="16.2482">
        <ele>260.541538</ele>
        <time>2026-07-07T10:22:34.000Z</time>
      </trkpt>
      <trkpt lat="47.97608" lon="16.24819">
        <ele>260.568197</ele>
        <time>2026-07-07T10:22:35.000Z</time>
      </trkpt>
      <trkpt lat="47.97602" lon="16.24817">
        <ele>260.59479</ele>
        <time>2026-07-07T10:22:36.000Z</time>
      </trkpt>
      <trkpt lat="47.97597" lon="16.24815">
        <ele>260.620392</ele>
        <time>2026-07-07T10:22:37.000Z</time>
      </trkpt>
      <trkpt lat="47.97592" lon="16.24814">
        <ele>260.645933</ele>
        <time>2026-07-07T10:22:38.000Z</time>
      </trkpt>
      <trkpt lat="47.97586" lon="16.24812">
        <ele>260.67194</ele>
        <time>2026-07-07T10:22:39.000Z</time>
      </trkpt>
      <trkpt lat="47.97581" lon="16.24811">
        <ele>260.696681</ele>
        <time>2026-07-07T10:22:40.000Z</time>
      </trkpt>
      <trkpt lat="47.97576" lon="16.24809">
        <ele>260.721758</ele>
        <time>2026-07-07T10:22:41.000Z</time>
      </trkpt>
      <trkpt lat="47.97571" lon="16.24807">
        <ele>260.746961</ele>
        <time>2026-07-07T10:22:42.000Z</time>
      </trkpt>
      <trkpt lat="47.97566" lon="16.24806">
        <ele>260.771573</ele>
        <time>2026-07-07T10:22:43.000Z</time>
      </trkpt>
      <trkpt lat="47.97561" lon="16.24804">
        <ele>260.796711</ele>
        <time>2026-07-07T10:22:44.000Z</time>
      </trkpt>
      <trkpt lat="47.97556" lon="16.24803">
        <ele>260.820991</ele>
        <time>2026-07-07T10:22:45.000Z</time>
      </trkpt>
      <trkpt lat="47.97551" lon="16.24801">
        <ele>260.84527</ele>
        <time>2026-07-07T10:22:46.000Z</time>
      </trkpt>
      <trkpt lat="47.97546" lon="16.24799">
        <ele>260.86849</ele>
        <time>2026-07-07T10:22:47.000Z</time>
      </trkpt>
      <trkpt lat="47.97541" lon="16.24798">
        <ele>260.891122</ele>
        <time>2026-07-07T10:22:48.000Z</time>
      </trkpt>
      <trkpt lat="47.97537" lon="16.24797">
        <ele>260.911368</ele>
        <time>2026-07-07T10:22:49.000Z</time>
      </trkpt>
      <trkpt lat="47.97533" lon="16.24796">
        <ele>260.929638</ele>
        <time>2026-07-07T10:22:50.000Z</time>
      </trkpt>
      <trkpt lat="47.9753" lon="16.24795">
        <ele>260.943031</ele>
        <time>2026-07-07T10:22:51.000Z</time>
      </trkpt>
      <trkpt lat="47.97528" lon="16.24795">
        <ele>260.95205</ele>
        <time>2026-07-07T10:22:52.000Z</time>
      </trkpt>
      <trkpt lat="47.97526" lon="16.24795">
        <ele>260.962038</ele>
        <time>2026-07-07T10:22:53.000Z</time>
      </trkpt>
      <trkpt lat="47.97524" lon="16.24793">
        <ele>260.974238</ele>
        <time>2026-07-07T10:22:54.000Z</time>
      </trkpt>
      <trkpt lat="47.97522" lon="16.24791">
        <ele>260.986952</ele>
        <time>2026-07-07T10:22:55.000Z</time>
      </trkpt>
      <trkpt lat="47.9752" lon="16.24788">
        <ele>261.001714</ele>
        <time>2026-07-07T10:22:56.000Z</time>
      </trkpt>
      <trkpt lat="47.97518" lon="16.24784">
        <ele>261.016788</ele>
        <time>2026-07-07T10:22:57.000Z</time>
      </trkpt>
      <trkpt lat="47.97515" lon="16.2478">
        <ele>261.032713</ele>
        <time>2026-07-07T10:22:58.000Z</time>
      </trkpt>
      <trkpt lat="47.97513" lon="16.24777">
        <ele>261.047813</ele>
        <time>2026-07-07T10:22:59.000Z</time>
      </trkpt>
      <trkpt lat="47.9751" lon="16.24774">
        <ele>261.065333</ele>
        <time>2026-07-07T10:23:00.000Z</time>
      </trkpt>
      <trkpt lat="47.97506" lon="16.24772">
        <ele>261.084756</ele>
        <time>2026-07-07T10:23:01.000Z</time>
      </trkpt>
      <trkpt lat="47.97502" lon="16.2477">
        <ele>261.105492</ele>
        <time>2026-07-07T10:23:02.000Z</time>
      </trkpt>
      <trkpt lat="47.97497" lon="16.24768">
        <ele>261.128225</ele>
        <time>2026-07-07T10:23:03.000Z</time>
      </trkpt>
      <trkpt lat="47.97493" lon="16.24765">
        <ele>261.151643</ele>
        <time>2026-07-07T10:23:04.000Z</time>
      </trkpt>
      <trkpt lat="47.97488" lon="16.24763">
        <ele>261.174963</ele>
        <time>2026-07-07T10:23:05.000Z</time>
      </trkpt>
      <trkpt lat="47.97483" lon="16.24761">
        <ele>261.197833</ele>
        <time>2026-07-07T10:23:06.000Z</time>
      </trkpt>
      <trkpt lat="47.97478" lon="16.24759">
        <ele>261.223257</ele>
        <time>2026-07-07T10:23:07.000Z</time>
      </trkpt>
      <trkpt lat="47.97473" lon="16.24757">
        <ele>261.247849</ele>
        <time>2026-07-07T10:23:08.000Z</time>
      </trkpt>
      <trkpt lat="47.97468" lon="16.24755">
        <ele>261.309252</ele>
        <time>2026-07-07T10:23:09.000Z</time>
      </trkpt>
      <trkpt lat="47.97463" lon="16.24752">
        <ele>261.375763</ele>
        <time>2026-07-07T10:23:10.000Z</time>
      </trkpt>
      <trkpt lat="47.97458" lon="16.2475">
        <ele>261.440173</ele>
        <time>2026-07-07T10:23:11.000Z</time>
      </trkpt>
      <trkpt lat="47.97453" lon="16.24748">
        <ele>261.505286</ele>
        <time>2026-07-07T10:23:12.000Z</time>
      </trkpt>
      <trkpt lat="47.97448" lon="16.24746">
        <ele>261.570864</ele>
        <time>2026-07-07T10:23:13.000Z</time>
      </trkpt>
      <trkpt lat="47.97444" lon="16.24742">
        <ele>261.630313</ele>
        <time>2026-07-07T10:23:14.000Z</time>
      </trkpt>
      <trkpt lat="47.97439" lon="16.2474">
        <ele>261.692421</ele>
        <time>2026-07-07T10:23:15.000Z</time>
      </trkpt>
      <trkpt lat="47.97434" lon="16.24739">
        <ele>261.749152</ele>
        <time>2026-07-07T10:23:16.000Z</time>
      </trkpt>
      <trkpt lat="47.9743" lon="16.24739">
        <ele>261.798216</ele>
        <time>2026-07-07T10:23:17.000Z</time>
      </trkpt>
      <trkpt lat="47.97426" lon="16.24739">
        <ele>261.847334</ele>
        <time>2026-07-07T10:23:18.000Z</time>
      </trkpt>
      <trkpt lat="47.97423" lon="16.24738">
        <ele>261.891676</ele>
        <time>2026-07-07T10:23:19.000Z</time>
      </trkpt>
      <trkpt lat="47.97419" lon="16.24737">
        <ele>261.94412</ele>
        <time>2026-07-07T10:23:20.000Z</time>
      </trkpt>
      <trkpt lat="47.97415" lon="16.24735">
        <ele>261.995354</ele>
        <time>2026-07-07T10:23:21.000Z</time>
      </trkpt>
      <trkpt lat="47.9741" lon="16.24733">
        <ele>262.04994</ele>
        <time>2026-07-07T10:23:22.000Z</time>
      </trkpt>
      <trkpt lat="47.97406" lon="16.24731">
        <ele>262.103097</ele>
        <time>2026-07-07T10:23:23.000Z</time>
      </trkpt>
      <trkpt lat="47.97402" lon="16.24729">
        <ele>262.157682</ele>
        <time>2026-07-07T10:23:24.000Z</time>
      </trkpt>
      <trkpt lat="47.97398" lon="16.24726">
        <ele>262.209959</ele>
        <time>2026-07-07T10:23:25.000Z</time>
      </trkpt>
      <trkpt lat="47.97394" lon="16.24724">
        <ele>262.264023</ele>
        <time>2026-07-07T10:23:26.000Z</time>
      </trkpt>
      <trkpt lat="47.9739" lon="16.24722">
        <ele>262.31718</ele>
        <time>2026-07-07T10:23:27.000Z</time>
      </trkpt>
      <trkpt lat="47.97386" lon="16.2472">
        <ele>262.371</ele>
        <time>2026-07-07T10:23:28.000Z</time>
      </trkpt>
      <trkpt lat="47.97381" lon="16.24719">
        <ele>262.424159</ele>
        <time>2026-07-07T10:23:29.000Z</time>
      </trkpt>
      <trkpt lat="47.97377" lon="16.24717">
        <ele>262.478314</ele>
        <time>2026-07-07T10:23:30.000Z</time>
      </trkpt>
      <trkpt lat="47.97373" lon="16.24716">
        <ele>262.535241</ele>
        <time>2026-07-07T10:23:31.000Z</time>
      </trkpt>
      <trkpt lat="47.97368" lon="16.24714">
        <ele>262.592168</ele>
        <time>2026-07-07T10:23:32.000Z</time>
      </trkpt>
      <trkpt lat="47.97363" lon="16.24712">
        <ele>262.651288</ele>
        <time>2026-07-07T10:23:33.000Z</time>
      </trkpt>
      <trkpt lat="47.97359" lon="16.2471">
        <ele>262.712404</ele>
        <time>2026-07-07T10:23:34.000Z</time>
      </trkpt>
      <trkpt lat="47.97354" lon="16.24708">
        <ele>262.776813</ele>
        <time>2026-07-07T10:23:35.000Z</time>
      </trkpt>
      <trkpt lat="47.97349" lon="16.24706">
        <ele>262.840295</ele>
        <time>2026-07-07T10:23:36.000Z</time>
      </trkpt>
      <trkpt lat="47.97343" lon="16.24704">
        <ele>262.906359</ele>
        <time>2026-07-07T10:23:37.000Z</time>
      </trkpt>
      <trkpt lat="47.97338" lon="16.24701">
        <ele>262.971937</ele>
        <time>2026-07-07T10:23:38.000Z</time>
      </trkpt>
      <trkpt lat="47.97333" lon="16.24699">
        <ele>263.041272</ele>
        <time>2026-07-07T10:23:39.000Z</time>
      </trkpt>
      <trkpt lat="47.97328" lon="16.24696">
        <ele>263.109437</ele>
        <time>2026-07-07T10:23:40.000Z</time>
      </trkpt>
      <trkpt lat="47.97322" lon="16.24694">
        <ele>263.177601</ele>
        <time>2026-07-07T10:23:41.000Z</time>
      </trkpt>
      <trkpt lat="47.97317" lon="16.24692">
        <ele>263.246468</ele>
        <time>2026-07-07T10:23:42.000Z</time>
      </trkpt>
      <trkpt lat="47.97312" lon="16.24689">
        <ele>263.314156</ele>
        <time>2026-07-07T10:23:43.000Z</time>
      </trkpt>
      <trkpt lat="47.97306" lon="16.24687">
        <ele>263.385159</ele>
        <time>2026-07-07T10:23:44.000Z</time>
      </trkpt>
      <trkpt lat="47.97301" lon="16.24684">
        <ele>263.452847</ele>
        <time>2026-07-07T10:23:45.000Z</time>
      </trkpt>
      <trkpt lat="47.97295" lon="16.24682">
        <ele>263.526515</ele>
        <time>2026-07-07T10:23:46.000Z</time>
      </trkpt>
      <trkpt lat="47.9729" lon="16.24679">
        <ele>263.600946</ele>
        <time>2026-07-07T10:23:47.000Z</time>
      </trkpt>
      <trkpt lat="47.97285" lon="16.24677">
        <ele>263.672163</ele>
        <time>2026-07-07T10:23:48.000Z</time>
      </trkpt>
      <trkpt lat="47.97279" lon="16.24675">
        <ele>263.743153</ele>
        <time>2026-07-07T10:23:49.000Z</time>
      </trkpt>
      <trkpt lat="47.97274" lon="16.24673">
        <ele>263.815619</ele>
        <time>2026-07-07T10:23:50.000Z</time>
      </trkpt>
      <trkpt lat="47.97269" lon="16.2467">
        <ele>263.88459</ele>
        <time>2026-07-07T10:23:51.000Z</time>
      </trkpt>
      <trkpt lat="47.97264" lon="16.24668">
        <ele>263.954561</ele>
        <time>2026-07-07T10:23:52.000Z</time>
      </trkpt>
      <trkpt lat="47.97259" lon="16.24666">
        <ele>264.022045</ele>
        <time>2026-07-07T10:23:53.000Z</time>
      </trkpt>
      <trkpt lat="47.97254" lon="16.24664">
        <ele>264.086799</ele>
        <time>2026-07-07T10:23:54.000Z</time>
      </trkpt>
      <trkpt lat="47.97249" lon="16.24661">
        <ele>264.151106</ele>
        <time>2026-07-07T10:23:55.000Z</time>
      </trkpt>
      <trkpt lat="47.97245" lon="16.24659">
        <ele>264.213265</ele>
        <time>2026-07-07T10:23:56.000Z</time>
      </trkpt>
      <trkpt lat="47.9724" lon="16.24657">
        <ele>264.274841</ele>
        <time>2026-07-07T10:23:57.000Z</time>
      </trkpt>
      <trkpt lat="47.97235" lon="16.24654">
        <ele>264.338872</ele>
        <time>2026-07-07T10:23:58.000Z</time>
      </trkpt>
      <trkpt lat="47.97231" lon="16.24652">
        <ele>264.401955</ele>
        <time>2026-07-07T10:23:59.000Z</time>
      </trkpt>
      <trkpt lat="47.97226" lon="16.24649">
        <ele>264.468993</ele>
        <time>2026-07-07T10:24:00.000Z</time>
      </trkpt>
      <trkpt lat="47.97221" lon="16.24647">
        <ele>264.536726</ele>
        <time>2026-07-07T10:24:01.000Z</time>
      </trkpt>
      <trkpt lat="47.97216" lon="16.24645">
        <ele>264.601989</ele>
        <time>2026-07-07T10:24:02.000Z</time>
      </trkpt>
      <trkpt lat="47.97211" lon="16.24642">
        <ele>264.669982</ele>
        <time>2026-07-07T10:24:03.000Z</time>
      </trkpt>
      <trkpt lat="47.97206" lon="16.2464">
        <ele>264.737716</ele>
        <time>2026-07-07T10:24:04.000Z</time>
      </trkpt>
      <trkpt lat="47.97201" lon="16.24638">
        <ele>264.80473</ele>
        <time>2026-07-07T10:24:05.000Z</time>
      </trkpt>
      <trkpt lat="47.97196" lon="16.24636">
        <ele>264.873836</ele>
        <time>2026-07-07T10:24:06.000Z</time>
      </trkpt>
      <trkpt lat="47.97191" lon="16.24634">
        <ele>264.942102</ele>
        <time>2026-07-07T10:24:07.000Z</time>
      </trkpt>
      <trkpt lat="47.97186" lon="16.24632">
        <ele>265.012073</ele>
        <time>2026-07-07T10:24:08.000Z</time>
      </trkpt>
      <trkpt lat="47.9718" lon="16.2463">
        <ele>265.082797</ele>
        <time>2026-07-07T10:24:09.000Z</time>
      </trkpt>
      <trkpt lat="47.97175" lon="16.24627">
        <ele>265.15163</ele>
        <time>2026-07-07T10:24:10.000Z</time>
      </trkpt>
      <trkpt lat="47.9717" lon="16.24625">
        <ele>265.219364</ele>
        <time>2026-07-07T10:24:11.000Z</time>
      </trkpt>
      <trkpt lat="47.97165" lon="16.24623">
        <ele>265.286378</ele>
        <time>2026-07-07T10:24:12.000Z</time>
      </trkpt>
      <trkpt lat="47.9716" lon="16.24621">
        <ele>265.353392</ele>
        <time>2026-07-07T10:24:13.000Z</time>
      </trkpt>
      <trkpt lat="47.97155" lon="16.24619">
        <ele>265.419978</ele>
        <time>2026-07-07T10:24:14.000Z</time>
      </trkpt>
      <trkpt lat="47.9715" lon="16.24617">
        <ele>265.486004</ele>
        <time>2026-07-07T10:24:15.000Z</time>
      </trkpt>
      <trkpt lat="47.97146" lon="16.24616">
        <ele>265.545514</ele>
        <time>2026-07-07T10:24:16.000Z</time>
      </trkpt>
      <trkpt lat="47.97142" lon="16.24615">
        <ele>265.595627</ele>
        <time>2026-07-07T10:24:17.000Z</time>
      </trkpt>
      <trkpt lat="47.97139" lon="16.24614">
        <ele>265.632098</ele>
        <time>2026-07-07T10:24:18.000Z</time>
      </trkpt>
      <trkpt lat="47.97138" lon="16.24612">
        <ele>265.65803</ele>
        <time>2026-07-07T10:24:19.000Z</time>
      </trkpt>
      <trkpt lat="47.97137" lon="16.24609">
        <ele>265.684694</ele>
        <time>2026-07-07T10:24:20.000Z</time>
      </trkpt>
      <trkpt lat="47.97136" lon="16.24606">
        <ele>265.712231</ele>
        <time>2026-07-07T10:24:21.000Z</time>
      </trkpt>
      <trkpt lat="47.97136" lon="16.24603">
        <ele>265.74173</ele>
        <time>2026-07-07T10:24:22.000Z</time>
      </trkpt>
      <trkpt lat="47.97136" lon="16.246">
        <ele>265.769369</ele>
        <time>2026-07-07T10:24:23.000Z</time>
      </trkpt>
      <trkpt lat="47.97137" lon="16.24597">
        <ele>265.792075</ele>
        <time>2026-07-07T10:24:24.000Z</time>
      </trkpt>
      <trkpt lat="47.97137" lon="16.24594">
        <ele>265.810585</ele>
        <time>2026-07-07T10:24:25.000Z</time>
      </trkpt>
      <trkpt lat="47.97137" lon="16.24591">
        <ele>265.826467</ele>
        <time>2026-07-07T10:24:26.000Z</time>
      </trkpt>
      <trkpt lat="47.97136" lon="16.2459">
        <ele>265.838523</ele>
        <time>2026-07-07T10:24:27.000Z</time>
      </trkpt>
      <trkpt lat="47.97136" lon="16.24589">
        <ele>265.844714</ele>
        <time>2026-07-07T10:24:28.000Z</time>
      </trkpt>
      <trkpt lat="47.97135" lon="16.2459">
        <ele>265.848688</ele>
        <time>2026-07-07T10:24:29.000Z</time>
      </trkpt>
      <trkpt lat="47.97135" lon="16.24589">
        <ele>265.849949</ele>
        <time>2026-07-07T10:24:30.000Z</time>
      </trkpt>
      <trkpt lat="47.97136" lon="16.24601">
        <ele>265.924236</ele>
        <time>2026-07-07T10:24:40.000Z</time>
      </trkpt>
      <trkpt lat="47.97136" lon="16.24604">
        <ele>265.943531</ele>
        <time>2026-07-07T10:24:41.000Z</time>
      </trkpt>
      <trkpt lat="47.97135" lon="16.24607">
        <ele>265.962734</ele>
        <time>2026-07-07T10:24:42.000Z</time>
      </trkpt>
      <trkpt lat="47.97134" lon="16.24609">
        <ele>265.979871</ele>
        <time>2026-07-07T10:24:43.000Z</time>
      </trkpt>
      <trkpt lat="47.97132" lon="16.24609">
        <ele>265.998976</ele>
        <time>2026-07-07T10:24:44.000Z</time>
      </trkpt>
      <trkpt lat="47.97129" lon="16.24609">
        <ele>266.022564</ele>
        <time>2026-07-07T10:24:45.000Z</time>
      </trkpt>
      <trkpt lat="47.97126" lon="16.24608">
        <ele>266.050916</ele>
        <time>2026-07-07T10:24:46.000Z</time>
      </trkpt>
      <trkpt lat="47.97123" lon="16.24606">
        <ele>266.085792</ele>
        <time>2026-07-07T10:24:47.000Z</time>
      </trkpt>
      <trkpt lat="47.97119" lon="16.24604">
        <ele>266.123196</ele>
        <time>2026-07-07T10:24:48.000Z</time>
      </trkpt>
      <trkpt lat="47.97115" lon="16.24601">
        <ele>266.166277</ele>
        <time>2026-07-07T10:24:49.000Z</time>
      </trkpt>
      <trkpt lat="47.97111" lon="16.24599">
        <ele>266.210511</ele>
        <time>2026-07-07T10:24:50.000Z</time>
      </trkpt>
      <trkpt lat="47.97106" lon="16.24597">
        <ele>266.255322</ele>
        <time>2026-07-07T10:24:51.000Z</time>
      </trkpt>
      <trkpt lat="47.97102" lon="16.24594">
        <ele>266.298796</ele>
        <time>2026-07-07T10:24:52.000Z</time>
      </trkpt>
      <trkpt lat="47.97098" lon="16.24592">
        <ele>266.34073</ele>
        <time>2026-07-07T10:24:53.000Z</time>
      </trkpt>
      <trkpt lat="47.97093" lon="16.2459">
        <ele>266.381568</ele>
        <time>2026-07-07T10:24:54.000Z</time>
      </trkpt>
      <trkpt lat="47.97089" lon="16.24588">
        <ele>266.422013</ele>
        <time>2026-07-07T10:24:55.000Z</time>
      </trkpt>
      <trkpt lat="47.97086" lon="16.24586">
        <ele>266.459086</ele>
        <time>2026-07-07T10:24:56.000Z</time>
      </trkpt>
      <trkpt lat="47.97082" lon="16.24585">
        <ele>266.495748</ele>
        <time>2026-07-07T10:24:57.000Z</time>
      </trkpt>
      <trkpt lat="47.97079" lon="16.24583">
        <ele>266.528637</ele>
        <time>2026-07-07T10:24:58.000Z</time>
      </trkpt>
      <trkpt lat="47.97075" lon="16.24581">
        <ele>266.561326</ele>
        <time>2026-07-07T10:24:59.000Z</time>
      </trkpt>
      <trkpt lat="47.97072" lon="16.2458">
        <ele>266.592742</ele>
        <time>2026-07-07T10:25:00.000Z</time>
      </trkpt>
      <trkpt lat="47.97069" lon="16.24579">
        <ele>266.621846</ele>
        <time>2026-07-07T10:25:01.000Z</time>
      </trkpt>
      <trkpt lat="47.97066" lon="16.24577">
        <ele>266.648774</ele>
        <time>2026-07-07T10:25:02.000Z</time>
      </trkpt>
      <trkpt lat="47.97064" lon="16.24576">
        <ele>266.673329</ele>
        <time>2026-07-07T10:25:03.000Z</time>
      </trkpt>
      <trkpt lat="47.97061" lon="16.24575">
        <ele>266.698484</ele>
        <time>2026-07-07T10:25:04.000Z</time>
      </trkpt>
      <trkpt lat="47.97059" lon="16.24574">
        <ele>266.724316</ele>
        <time>2026-07-07T10:25:05.000Z</time>
      </trkpt>
      <trkpt lat="47.97056" lon="16.24572">
        <ele>266.754123</ele>
        <time>2026-07-07T10:25:06.000Z</time>
      </trkpt>
      <trkpt lat="47.97052" lon="16.2457">
        <ele>266.788798</ele>
        <time>2026-07-07T10:25:07.000Z</time>
      </trkpt>
      <trkpt lat="47.97049" lon="16.24568">
        <ele>266.824105</ele>
        <time>2026-07-07T10:25:08.000Z</time>
      </trkpt>
      <trkpt lat="47.97045" lon="16.24567">
        <ele>266.862564</ele>
        <time>2026-07-07T10:25:09.000Z</time>
      </trkpt>
      <trkpt lat="47.97041" lon="16.24565">
        <ele>266.899595</ele>
        <time>2026-07-07T10:25:10.000Z</time>
      </trkpt>
      <trkpt lat="47.97037" lon="16.24563">
        <ele>266.938955</ele>
        <time>2026-07-07T10:25:11.000Z</time>
      </trkpt>
      <trkpt lat="47.97033" lon="16.24561">
        <ele>266.979116</ele>
        <time>2026-07-07T10:25:12.000Z</time>
      </trkpt>
      <trkpt lat="47.97029" lon="16.24559">
        <ele>267.021049</ele>
        <time>2026-07-07T10:25:13.000Z</time>
      </trkpt>
      <trkpt lat="47.97025" lon="16.24557">
        <ele>267.063673</ele>
        <time>2026-07-07T10:25:14.000Z</time>
      </trkpt>
      <trkpt lat="47.9702" lon="16.24554">
        <ele>267.106041</ele>
        <time>2026-07-07T10:25:15.000Z</time>
      </trkpt>
      <trkpt lat="47.97016" lon="16.24552">
        <ele>267.148665</ele>
        <time>2026-07-07T10:25:16.000Z</time>
      </trkpt>
      <trkpt lat="47.97012" lon="16.2455">
        <ele>267.1929</ele>
        <time>2026-07-07T10:25:17.000Z</time>
      </trkpt>
      <trkpt lat="47.97007" lon="16.24548">
        <ele>267.235148</ele>
        <time>2026-07-07T10:25:18.000Z</time>
      </trkpt>
      <trkpt lat="47.97003" lon="16.24546">
        <ele>267.279567</ele>
        <time>2026-07-07T10:25:19.000Z</time>
      </trkpt>
      <trkpt lat="47.96998" lon="16.24544">
        <ele>267.325972</ele>
        <time>2026-07-07T10:25:20.000Z</time>
      </trkpt>
      <trkpt lat="47.96993" lon="16.24542">
        <ele>267.372923</ele>
        <time>2026-07-07T10:25:21.000Z</time>
      </trkpt>
      <trkpt lat="47.96988" lon="16.2454">
        <ele>267.421315</ele>
        <time>2026-07-07T10:25:22.000Z</time>
      </trkpt>
      <trkpt lat="47.96983" lon="16.24537">
        <ele>267.470796</ele>
        <time>2026-07-07T10:25:23.000Z</time>
      </trkpt>
      <trkpt lat="47.96979" lon="16.24535">
        <ele>267.494529</ele>
        <time>2026-07-07T10:25:24.000Z</time>
      </trkpt>
      <trkpt lat="47.96974" lon="16.24533">
        <ele>267.515542</ele>
        <time>2026-07-07T10:25:25.000Z</time>
      </trkpt>
      <trkpt lat="47.96969" lon="16.2453">
        <ele>267.53673</ele>
        <time>2026-07-07T10:25:26.000Z</time>
      </trkpt>
      <trkpt lat="47.96964" lon="16.24528">
        <ele>267.557428</ele>
        <time>2026-07-07T10:25:27.000Z</time>
      </trkpt>
      <trkpt lat="47.96959" lon="16.24526">
        <ele>267.578201</ele>
        <time>2026-07-07T10:25:28.000Z</time>
      </trkpt>
      <trkpt lat="47.96954" lon="16.24523">
        <ele>267.59905</ele>
        <time>2026-07-07T10:25:29.000Z</time>
      </trkpt>
      <trkpt lat="47.96948" lon="16.24521">
        <ele>267.62074</ele>
        <time>2026-07-07T10:25:30.000Z</time>
      </trkpt>
      <trkpt lat="47.96943" lon="16.24519">
        <ele>267.641589</ele>
        <time>2026-07-07T10:25:31.000Z</time>
      </trkpt>
      <trkpt lat="47.96938" lon="16.24516">
        <ele>267.66282</ele>
        <time>2026-07-07T10:25:32.000Z</time>
      </trkpt>
      <trkpt lat="47.96933" lon="16.24514">
        <ele>267.684218</ele>
        <time>2026-07-07T10:25:33.000Z</time>
      </trkpt>
      <trkpt lat="47.96928" lon="16.24512">
        <ele>267.704991</ele>
        <time>2026-07-07T10:25:34.000Z</time>
      </trkpt>
      <trkpt lat="47.96923" lon="16.2451">
        <ele>267.72584</ele>
        <time>2026-07-07T10:25:35.000Z</time>
      </trkpt>
      <trkpt lat="47.96918" lon="16.24508">
        <ele>267.746612</ele>
        <time>2026-07-07T10:25:36.000Z</time>
      </trkpt>
      <trkpt lat="47.96913" lon="16.24505">
        <ele>267.76815</ele>
        <time>2026-07-07T10:25:37.000Z</time>
      </trkpt>
      <trkpt lat="47.96908" lon="16.24503">
        <ele>267.789</ele>
        <time>2026-07-07T10:25:38.000Z</time>
      </trkpt>
      <trkpt lat="47.96903" lon="16.24501">
        <ele>267.810012</ele>
        <time>2026-07-07T10:25:39.000Z</time>
      </trkpt>
      <trkpt lat="47.96898" lon="16.24498">
        <ele>267.830862</ele>
        <time>2026-07-07T10:25:40.000Z</time>
      </trkpt>
      <trkpt lat="47.96893" lon="16.24496">
        <ele>267.851791</ele>
        <time>2026-07-07T10:25:41.000Z</time>
      </trkpt>
      <trkpt lat="47.96888" lon="16.24493">
        <ele>267.872804</ele>
        <time>2026-07-07T10:25:42.000Z</time>
      </trkpt>
      <trkpt lat="47.96883" lon="16.24491">
        <ele>267.893502</ele>
        <time>2026-07-07T10:25:43.000Z</time>
      </trkpt>
      <trkpt lat="47.96878" lon="16.24489">
        <ele>267.914275</ele>
        <time>2026-07-07T10:25:44.000Z</time>
      </trkpt>
      <trkpt lat="47.96873" lon="16.24487">
        <ele>267.935287</ele>
        <time>2026-07-07T10:25:45.000Z</time>
      </trkpt>
      <trkpt lat="47.96868" lon="16.24484">
        <ele>267.956137</ele>
        <time>2026-07-07T10:25:46.000Z</time>
      </trkpt>
      <trkpt lat="47.96863" lon="16.24482">
        <ele>267.977446</ele>
        <time>2026-07-07T10:25:47.000Z</time>
      </trkpt>
      <trkpt lat="47.96858" lon="16.24479">
        <ele>267.998458</ele>
        <time>2026-07-07T10:25:48.000Z</time>
      </trkpt>
      <trkpt lat="47.96853" lon="16.24477">
        <ele>268.019094</ele>
        <time>2026-07-07T10:25:49.000Z</time>
      </trkpt>
      <trkpt lat="47.96848" lon="16.24474">
        <ele>268.039441</ele>
        <time>2026-07-07T10:25:50.000Z</time>
      </trkpt>
      <trkpt lat="47.96843" lon="16.24471">
        <ele>268.059707</ele>
        <time>2026-07-07T10:25:51.000Z</time>
      </trkpt>
      <trkpt lat="47.96839" lon="16.24469">
        <ele>268.078935</ele>
        <time>2026-07-07T10:25:52.000Z</time>
      </trkpt>
      <trkpt lat="47.96834" lon="16.24466">
        <ele>268.098353</ele>
        <time>2026-07-07T10:25:53.000Z</time>
      </trkpt>
      <trkpt lat="47.9683" lon="16.24464">
        <ele>268.117307</ele>
        <time>2026-07-07T10:25:54.000Z</time>
      </trkpt>
      <trkpt lat="47.96825" lon="16.24462">
        <ele>268.136936</ele>
        <time>2026-07-07T10:25:55.000Z</time>
      </trkpt>
      <trkpt lat="47.9682" lon="16.2446">
        <ele>268.156486</ele>
        <time>2026-07-07T10:25:56.000Z</time>
      </trkpt>
      <trkpt lat="47.96816" lon="16.24457">
        <ele>268.176658</ele>
        <time>2026-07-07T10:25:57.000Z</time>
      </trkpt>
      <trkpt lat="47.96811" lon="16.24455">
        <ele>268.198866</ele>
        <time>2026-07-07T10:25:58.000Z</time>
      </trkpt>
      <trkpt lat="47.96806" lon="16.24453">
        <ele>268.236417</ele>
        <time>2026-07-07T10:25:59.000Z</time>
      </trkpt>
      <trkpt lat="47.96801" lon="16.24451">
        <ele>268.272503</ele>
        <time>2026-07-07T10:26:00.000Z</time>
      </trkpt>
      <trkpt lat="47.96796" lon="16.24449">
        <ele>268.308719</ele>
        <time>2026-07-07T10:26:01.000Z</time>
      </trkpt>
      <trkpt lat="47.9679" lon="16.24446">
        <ele>268.346399</ele>
        <time>2026-07-07T10:26:02.000Z</time>
      </trkpt>
      <trkpt lat="47.96785" lon="16.24444">
        <ele>268.383033</ele>
        <time>2026-07-07T10:26:03.000Z</time>
      </trkpt>
      <trkpt lat="47.9678" lon="16.24441">
        <ele>268.420184</ele>
        <time>2026-07-07T10:26:04.000Z</time>
      </trkpt>
      <trkpt lat="47.96775" lon="16.24439">
        <ele>268.457491</ele>
        <time>2026-07-07T10:26:05.000Z</time>
      </trkpt>
      <trkpt lat="47.9677" lon="16.24437">
        <ele>268.494918</ele>
        <time>2026-07-07T10:26:06.000Z</time>
      </trkpt>
      <trkpt lat="47.96765" lon="16.24435">
        <ele>268.532211</ele>
        <time>2026-07-07T10:26:07.000Z</time>
      </trkpt>
      <trkpt lat="47.9676" lon="16.24432">
        <ele>268.568701</ele>
        <time>2026-07-07T10:26:08.000Z</time>
      </trkpt>
      <trkpt lat="47.96755" lon="16.2443">
        <ele>268.606127</ele>
        <time>2026-07-07T10:26:09.000Z</time>
      </trkpt>
      <trkpt lat="47.96749" lon="16.24428">
        <ele>268.644108</ele>
        <time>2026-07-07T10:26:10.000Z</time>
      </trkpt>
      <trkpt lat="47.96744" lon="16.24426">
        <ele>268.681415</ele>
        <time>2026-07-07T10:26:11.000Z</time>
      </trkpt>
      <trkpt lat="47.96739" lon="16.24424">
        <ele>268.718965</ele>
        <time>2026-07-07T10:26:12.000Z</time>
      </trkpt>
      <trkpt lat="47.96734" lon="16.24422">
        <ele>268.756946</ele>
        <time>2026-07-07T10:26:13.000Z</time>
      </trkpt>
      <trkpt lat="47.96728" lon="16.2442">
        <ele>268.794254</ele>
        <time>2026-07-07T10:26:14.000Z</time>
      </trkpt>
      <trkpt lat="47.96723" lon="16.24418">
        <ele>268.831268</ele>
        <time>2026-07-07T10:26:15.000Z</time>
      </trkpt>
      <trkpt lat="47.96718" lon="16.24415">
        <ele>268.869082</ele>
        <time>2026-07-07T10:26:16.000Z</time>
      </trkpt>
      <trkpt lat="47.96713" lon="16.24413">
        <ele>268.907429</ele>
        <time>2026-07-07T10:26:17.000Z</time>
      </trkpt>
      <trkpt lat="47.96708" lon="16.24411">
        <ele>268.944979</ele>
        <time>2026-07-07T10:26:18.000Z</time>
      </trkpt>
      <trkpt lat="47.96702" lon="16.24409">
        <ele>268.983077</ele>
        <time>2026-07-07T10:26:19.000Z</time>
      </trkpt>
      <trkpt lat="47.96697" lon="16.24407">
        <ele>269.020627</ele>
        <time>2026-07-07T10:26:20.000Z</time>
      </trkpt>
      <trkpt lat="47.96692" lon="16.24404">
        <ele>269.058846</ele>
        <time>2026-07-07T10:26:21.000Z</time>
      </trkpt>
      <trkpt lat="47.96686" lon="16.24402">
        <ele>269.097861</ele>
        <time>2026-07-07T10:26:22.000Z</time>
      </trkpt>
      <trkpt lat="47.96681" lon="16.244">
        <ele>269.136207</ele>
        <time>2026-07-07T10:26:23.000Z</time>
      </trkpt>
      <trkpt lat="47.96676" lon="16.24397">
        <ele>269.174686</ele>
        <time>2026-07-07T10:26:24.000Z</time>
      </trkpt>
      <trkpt lat="47.9667" lon="16.24395">
        <ele>269.213455</ele>
        <time>2026-07-07T10:26:25.000Z</time>
      </trkpt>
      <trkpt lat="47.96665" lon="16.24393">
        <ele>269.250607</ele>
        <time>2026-07-07T10:26:26.000Z</time>
      </trkpt>
      <trkpt lat="47.9666" lon="16.24391">
        <ele>269.289621</ele>
        <time>2026-07-07T10:26:27.000Z</time>
      </trkpt>
      <trkpt lat="47.96655" lon="16.24388">
        <ele>269.328237</ele>
        <time>2026-07-07T10:26:28.000Z</time>
      </trkpt>
      <trkpt lat="47.96649" lon="16.24386">
        <ele>269.366218</ele>
        <time>2026-07-07T10:26:29.000Z</time>
      </trkpt>
      <trkpt lat="47.96644" lon="16.24384">
        <ele>269.403769</ele>
        <time>2026-07-07T10:26:30.000Z</time>
      </trkpt>
      <trkpt lat="47.96639" lon="16.24382">
        <ele>269.441076</ele>
        <time>2026-07-07T10:26:31.000Z</time>
      </trkpt>
      <trkpt lat="47.96634" lon="16.2438">
        <ele>269.473318</ele>
        <time>2026-07-07T10:26:32.000Z</time>
      </trkpt>
      <trkpt lat="47.96629" lon="16.24377">
        <ele>269.50615</ele>
        <time>2026-07-07T10:26:33.000Z</time>
      </trkpt>
      <trkpt lat="47.96623" lon="16.24376">
        <ele>269.538351</ele>
        <time>2026-07-07T10:26:34.000Z</time>
      </trkpt>
      <trkpt lat="47.96618" lon="16.24374">
        <ele>269.569377</ele>
        <time>2026-07-07T10:26:35.000Z</time>
      </trkpt>
      <trkpt lat="47.96613" lon="16.24371">
        <ele>269.601059</ele>
        <time>2026-07-07T10:26:36.000Z</time>
      </trkpt>
      <trkpt lat="47.96608" lon="16.24369">
        <ele>269.632972</ele>
        <time>2026-07-07T10:26:37.000Z</time>
      </trkpt>
      <trkpt lat="47.96603" lon="16.24367">
        <ele>269.665575</ele>
        <time>2026-07-07T10:26:38.000Z</time>
      </trkpt>
      <trkpt lat="47.96598" lon="16.24365">
        <ele>269.698291</ele>
        <time>2026-07-07T10:26:39.000Z</time>
      </trkpt>
      <trkpt lat="47.96593" lon="16.24363">
        <ele>269.729735</ele>
        <time>2026-07-07T10:26:40.000Z</time>
      </trkpt>
      <trkpt lat="47.96588" lon="16.2436">
        <ele>269.761179</ele>
        <time>2026-07-07T10:26:41.000Z</time>
      </trkpt>
      <trkpt lat="47.96583" lon="16.24358">
        <ele>269.792512</ele>
        <time>2026-07-07T10:26:42.000Z</time>
      </trkpt>
      <trkpt lat="47.96578" lon="16.24356">
        <ele>269.823956</ele>
        <time>2026-07-07T10:26:43.000Z</time>
      </trkpt>
      <trkpt lat="47.96573" lon="16.24354">
        <ele>269.85381</ele>
        <time>2026-07-07T10:26:44.000Z</time>
      </trkpt>
      <trkpt lat="47.96568" lon="16.24352">
        <ele>269.883291</ele>
        <time>2026-07-07T10:26:45.000Z</time>
      </trkpt>
      <trkpt lat="47.96564" lon="16.2435">
        <ele>269.912193</ele>
        <time>2026-07-07T10:26:46.000Z</time>
      </trkpt>
      <trkpt lat="47.96559" lon="16.24349">
        <ele>269.939609</ele>
        <time>2026-07-07T10:26:47.000Z</time>
      </trkpt>
      <trkpt lat="47.96555" lon="16.24347">
        <ele>269.966778</ele>
        <time>2026-07-07T10:26:48.000Z</time>
      </trkpt>
      <trkpt lat="47.96551" lon="16.24345">
        <ele>269.993137</ele>
        <time>2026-07-07T10:26:49.000Z</time>
      </trkpt>
      <trkpt lat="47.96547" lon="16.24343">
        <ele>270.016847</ele>
        <time>2026-07-07T10:26:50.000Z</time>
      </trkpt>
      <trkpt lat="47.96543" lon="16.24343">
        <ele>270.039774</ele>
        <time>2026-07-07T10:26:51.000Z</time>
      </trkpt>
      <trkpt lat="47.9654" lon="16.24346">
        <ele>270.061946</ele>
        <time>2026-07-07T10:26:52.000Z</time>
      </trkpt>
      <trkpt lat="47.96538" lon="16.24351">
        <ele>270.083879</ele>
        <time>2026-07-07T10:26:53.000Z</time>
      </trkpt>
      <trkpt lat="47.96537" lon="16.24356">
        <ele>270.106678</ele>
        <time>2026-07-07T10:26:54.000Z</time>
      </trkpt>
      <trkpt lat="47.96536" lon="16.24362">
        <ele>270.132045</ele>
        <time>2026-07-07T10:26:55.000Z</time>
      </trkpt>
      <trkpt lat="47.96535" lon="16.24369">
        <ele>270.159647</ele>
        <time>2026-07-07T10:26:56.000Z</time>
      </trkpt>
      <trkpt lat="47.96534" lon="16.24376">
        <ele>270.187768</ele>
        <time>2026-07-07T10:26:57.000Z</time>
      </trkpt>
      <trkpt lat="47.96534" lon="16.24383">
        <ele>270.217877</ele>
        <time>2026-07-07T10:26:58.000Z</time>
      </trkpt>
      <trkpt lat="47.96533" lon="16.24391">
        <ele>270.248723</ele>
        <time>2026-07-07T10:26:59.000Z</time>
      </trkpt>
      <trkpt lat="47.96533" lon="16.24399">
        <ele>270.281982</ele>
        <time>2026-07-07T10:27:00.000Z</time>
      </trkpt>
      <trkpt lat="47.96532" lon="16.24406">
        <ele>270.311683</ele>
        <time>2026-07-07T10:27:01.000Z</time>
      </trkpt>
      <trkpt lat="47.9653" lon="16.24412">
        <ele>270.336257</ele>
        <time>2026-07-07T10:27:02.000Z</time>
      </trkpt>
      <trkpt lat="47.96527" lon="16.24414">
        <ele>270.356086</ele>
        <time>2026-07-07T10:27:03.000Z</time>
      </trkpt>
      <trkpt lat="47.96524" lon="16.24415">
        <ele>270.372498</ele>
        <time>2026-07-07T10:27:04.000Z</time>
      </trkpt>
      <trkpt lat="47.96521" lon="16.24415">
        <ele>270.390636</ele>
        <time>2026-07-07T10:27:05.000Z</time>
      </trkpt>
      <trkpt lat="47.96517" lon="16.24412">
        <ele>270.420452</ele>
        <time>2026-07-07T10:27:06.000Z</time>
      </trkpt>
      <trkpt lat="47.96514" lon="16.24408">
        <ele>270.443454</ele>
        <time>2026-07-07T10:27:07.000Z</time>
      </trkpt>
      <trkpt lat="47.96513" lon="16.24403">
        <ele>270.464909</ele>
        <time>2026-07-07T10:27:08.000Z</time>
      </trkpt>
      <trkpt lat="47.96513" lon="16.24397">
        <ele>270.487198</ele>
        <time>2026-07-07T10:27:09.000Z</time>
      </trkpt>
      <trkpt lat="47.96514" lon="16.24392">
        <ele>270.50944</ele>
        <time>2026-07-07T10:27:10.000Z</time>
      </trkpt>
      <trkpt lat="47.96516" lon="16.24387">
        <ele>270.532371</ele>
        <time>2026-07-07T10:27:11.000Z</time>
      </trkpt>
      <trkpt lat="47.96518" lon="16.24382">
        <ele>270.553585</ele>
        <time>2026-07-07T10:27:12.000Z</time>
      </trkpt>
      <trkpt lat="47.96519" lon="16.24377">
        <ele>270.575607</ele>
        <time>2026-07-07T10:27:13.000Z</time>
      </trkpt>
      <trkpt lat="47.9652" lon="16.24372">
        <ele>270.597104</ele>
        <time>2026-07-07T10:27:14.000Z</time>
      </trkpt>
      <trkpt lat="47.96522" lon="16.24367">
        <ele>270.618744</ele>
        <time>2026-07-07T10:27:15.000Z</time>
      </trkpt>
      <trkpt lat="47.96523" lon="16.24363">
        <ele>270.639244</ele>
        <time>2026-07-07T10:27:16.000Z</time>
      </trkpt>
      <trkpt lat="47.96524" lon="16.24358">
        <ele>270.660364</ele>
        <time>2026-07-07T10:27:17.000Z</time>
      </trkpt>
      <trkpt lat="47.96525" lon="16.24353">
        <ele>270.680807</ele>
        <time>2026-07-07T10:27:18.000Z</time>
      </trkpt>
      <trkpt lat="47.96527" lon="16.24349">
        <ele>270.70118</ele>
        <time>2026-07-07T10:27:19.000Z</time>
      </trkpt>
      <trkpt lat="47.96528" lon="16.24344">
        <ele>270.721489</ele>
        <time>2026-07-07T10:27:20.000Z</time>
      </trkpt>
      <trkpt lat="47.96528" lon="16.24339">
        <ele>270.742245</ele>
        <time>2026-07-07T10:27:21.000Z</time>
      </trkpt>
      <trkpt lat="47.96528" lon="16.24334">
        <ele>270.765034</ele>
        <time>2026-07-07T10:27:22.000Z</time>
      </trkpt>
      <trkpt lat="47.96526" lon="16.24328">
        <ele>270.788659</ele>
        <time>2026-07-07T10:27:23.000Z</time>
      </trkpt>
      <trkpt lat="47.96523" lon="16.24324">
        <ele>270.814442</ele>
        <time>2026-07-07T10:27:24.000Z</time>
      </trkpt>
      <trkpt lat="47.96519" lon="16.24321">
        <ele>270.840868</ele>
        <time>2026-07-07T10:27:25.000Z</time>
      </trkpt>
      <trkpt lat="47.96515" lon="16.24318">
        <ele>270.868023</ele>
        <time>2026-07-07T10:27:26.000Z</time>
      </trkpt>
      <trkpt lat="47.96511" lon="16.24316">
        <ele>270.89689</ele>
        <time>2026-07-07T10:27:27.000Z</time>
      </trkpt>
      <trkpt lat="47.96506" lon="16.24313">
        <ele>270.925924</ele>
        <time>2026-07-07T10:27:28.000Z</time>
      </trkpt>
      <trkpt lat="47.96502" lon="16.24311">
        <ele>270.955302</ele>
        <time>2026-07-07T10:27:29.000Z</time>
      </trkpt>
      <trkpt lat="47.96497" lon="16.2431">
        <ele>270.986244</ele>
        <time>2026-07-07T10:27:30.000Z</time>
      </trkpt>
      <trkpt lat="47.96492" lon="16.24308">
        <ele>271.015402</ele>
        <time>2026-07-07T10:27:31.000Z</time>
      </trkpt>
      <trkpt lat="47.96487" lon="16.24306">
        <ele>271.047142</ele>
        <time>2026-07-07T10:27:32.000Z</time>
      </trkpt>
      <trkpt lat="47.96482" lon="16.24304">
        <ele>271.078517</ele>
        <time>2026-07-07T10:27:33.000Z</time>
      </trkpt>
      <trkpt lat="47.96477" lon="16.24301">
        <ele>271.110849</ele>
        <time>2026-07-07T10:27:34.000Z</time>
      </trkpt>
      <trkpt lat="47.96472" lon="16.24299">
        <ele>271.143516</ele>
        <time>2026-07-07T10:27:35.000Z</time>
      </trkpt>
      <trkpt lat="47.96467" lon="16.24296">
        <ele>271.17572</ele>
        <time>2026-07-07T10:27:36.000Z</time>
      </trkpt>
      <trkpt lat="47.96462" lon="16.24294">
        <ele>271.209346</ele>
        <time>2026-07-07T10:27:37.000Z</time>
      </trkpt>
      <trkpt lat="47.96457" lon="16.24291">
        <ele>271.243427</ele>
        <time>2026-07-07T10:27:38.000Z</time>
      </trkpt>
      <trkpt lat="47.96451" lon="16.24289">
        <ele>271.278094</ele>
        <time>2026-07-07T10:27:39.000Z</time>
      </trkpt>
      <trkpt lat="47.96446" lon="16.24286">
        <ele>271.312175</ele>
        <time>2026-07-07T10:27:40.000Z</time>
      </trkpt>
      <trkpt lat="47.96441" lon="16.24284">
        <ele>271.346256</ele>
        <time>2026-07-07T10:27:41.000Z</time>
      </trkpt>
      <trkpt lat="47.96435" lon="16.24281">
        <ele>271.381175</ele>
        <time>2026-07-07T10:27:42.000Z</time>
      </trkpt>
      <trkpt lat="47.9643" lon="16.24279">
        <ele>271.415018</ele>
        <time>2026-07-07T10:27:43.000Z</time>
      </trkpt>
      <trkpt lat="47.96425" lon="16.24276">
        <ele>271.450271</ele>
        <time>2026-07-07T10:27:44.000Z</time>
      </trkpt>
      <trkpt lat="47.96419" lon="16.24274">
        <ele>271.484353</ele>
        <time>2026-07-07T10:27:45.000Z</time>
      </trkpt>
      <trkpt lat="47.96414" lon="16.24271">
        <ele>271.519853</ele>
        <time>2026-07-07T10:27:46.000Z</time>
      </trkpt>
      <trkpt lat="47.96408" lon="16.24268">
        <ele>271.555484</ele>
        <time>2026-07-07T10:27:47.000Z</time>
      </trkpt>
      <trkpt lat="47.96403" lon="16.24266">
        <ele>271.591912</ele>
        <time>2026-07-07T10:27:48.000Z</time>
      </trkpt>
      <trkpt lat="47.96397" lon="16.24263">
        <ele>271.627413</ele>
        <time>2026-07-07T10:27:49.000Z</time>
      </trkpt>
      <trkpt lat="47.96391" lon="16.24261">
        <ele>271.663486</ele>
        <time>2026-07-07T10:27:50.000Z</time>
      </trkpt>
      <trkpt lat="47.96386" lon="16.24258">
        <ele>271.698709</ele>
        <time>2026-07-07T10:27:51.000Z</time>
      </trkpt>
      <trkpt lat="47.9638" lon="16.24256">
        <ele>271.734626</ele>
        <time>2026-07-07T10:27:52.000Z</time>
      </trkpt>
      <trkpt lat="47.96375" lon="16.24253">
        <ele>271.769493</ele>
        <time>2026-07-07T10:27:53.000Z</time>
      </trkpt>
      <trkpt lat="47.96369" lon="16.24251">
        <ele>271.805301</ele>
        <time>2026-07-07T10:27:54.000Z</time>
      </trkpt>
      <trkpt lat="47.96363" lon="16.24249">
        <ele>271.841593</ele>
        <time>2026-07-07T10:27:55.000Z</time>
      </trkpt>
      <trkpt lat="47.96358" lon="16.24247">
        <ele>271.876232</ele>
        <time>2026-07-07T10:27:56.000Z</time>
      </trkpt>
      <trkpt lat="47.96352" lon="16.24244">
        <ele>271.911099</ele>
        <time>2026-07-07T10:27:57.000Z</time>
      </trkpt>
      <trkpt lat="47.96347" lon="16.24242">
        <ele>271.945966</ele>
        <time>2026-07-07T10:27:58.000Z</time>
      </trkpt>
      <trkpt lat="47.96341" lon="16.24239">
        <ele>271.981078</ele>
        <time>2026-07-07T10:27:59.000Z</time>
      </trkpt>
      <trkpt lat="47.96336" lon="16.24236">
        <ele>272.016065</ele>
        <time>2026-07-07T10:28:00.000Z</time>
      </trkpt>
      <trkpt lat="47.9633" lon="16.24234">
        <ele>272.050931</ele>
        <time>2026-07-07T10:28:01.000Z</time>
      </trkpt>
      <trkpt lat="47.96325" lon="16.24232">
        <ele>272.085463</ele>
        <time>2026-07-07T10:28:02.000Z</time>
      </trkpt>
      <trkpt lat="47.96319" lon="16.24229">
        <ele>272.120102</ele>
        <time>2026-07-07T10:28:03.000Z</time>
      </trkpt>
      <trkpt lat="47.96314" lon="16.24227">
        <ele>272.15369</ele>
        <time>2026-07-07T10:28:04.000Z</time>
      </trkpt>
      <trkpt lat="47.96308" lon="16.24224">
        <ele>272.189836</ele>
        <time>2026-07-07T10:28:05.000Z</time>
      </trkpt>
      <trkpt lat="47.96303" lon="16.24222">
        <ele>272.223544</ele>
        <time>2026-07-07T10:28:06.000Z</time>
      </trkpt>
      <trkpt lat="47.96297" lon="16.24219">
        <ele>272.258295</ele>
        <time>2026-07-07T10:28:07.000Z</time>
      </trkpt>
      <trkpt lat="47.96292" lon="16.24217">
        <ele>272.293161</ele>
        <time>2026-07-07T10:28:08.000Z</time>
      </trkpt>
      <trkpt lat="47.96286" lon="16.24214">
        <ele>272.328028</ele>
        <time>2026-07-07T10:28:09.000Z</time>
      </trkpt>
      <trkpt lat="47.96281" lon="16.24212">
        <ele>272.362315</ele>
        <time>2026-07-07T10:28:10.000Z</time>
      </trkpt>
      <trkpt lat="47.96275" lon="16.24209">
        <ele>272.397182</ele>
        <time>2026-07-07T10:28:11.000Z</time>
      </trkpt>
      <trkpt lat="47.9627" lon="16.24207">
        <ele>272.431015</ele>
        <time>2026-07-07T10:28:12.000Z</time>
      </trkpt>
      <trkpt lat="47.96265" lon="16.24204">
        <ele>272.464723</ele>
        <time>2026-07-07T10:28:13.000Z</time>
      </trkpt>
      <trkpt lat="47.9626" lon="16.24201">
        <ele>272.498387</ele>
        <time>2026-07-07T10:28:14.000Z</time>
      </trkpt>
      <trkpt lat="47.96255" lon="16.24199">
        <ele>272.530772</ele>
        <time>2026-07-07T10:28:15.000Z</time>
      </trkpt>
      <trkpt lat="47.96249" lon="16.24196">
        <ele>272.56416</ele>
        <time>2026-07-07T10:28:16.000Z</time>
      </trkpt>
      <trkpt lat="47.96244" lon="16.24193">
        <ele>272.596138</ele>
        <time>2026-07-07T10:28:17.000Z</time>
      </trkpt>
      <trkpt lat="47.9624" lon="16.24191">
        <ele>272.627105</ele>
        <time>2026-07-07T10:28:18.000Z</time>
      </trkpt>
      <trkpt lat="47.96235" lon="16.24188">
        <ele>272.65935</ele>
        <time>2026-07-07T10:28:19.000Z</time>
      </trkpt>
      <trkpt lat="47.96229" lon="16.24185">
        <ele>272.692738</ele>
        <time>2026-07-07T10:28:20.000Z</time>
      </trkpt>
      <trkpt lat="47.96224" lon="16.24183">
        <ele>272.721716</ele>
        <time>2026-07-07T10:28:21.000Z</time>
      </trkpt>
      <trkpt lat="47.96219" lon="16.2418">
        <ele>272.717219</ele>
        <time>2026-07-07T10:28:22.000Z</time>
      </trkpt>
      <trkpt lat="47.96214" lon="16.24177">
        <ele>272.712628</ele>
        <time>2026-07-07T10:28:23.000Z</time>
      </trkpt>
      <trkpt lat="47.96208" lon="16.24174">
        <ele>272.708054</ele>
        <time>2026-07-07T10:28:24.000Z</time>
      </trkpt>
      <trkpt lat="47.96203" lon="16.24172">
        <ele>272.703385</ele>
        <time>2026-07-07T10:28:25.000Z</time>
      </trkpt>
      <trkpt lat="47.96197" lon="16.24169">
        <ele>272.698561</ele>
        <time>2026-07-07T10:28:26.000Z</time>
      </trkpt>
      <trkpt lat="47.96192" lon="16.24166">
        <ele>272.693677</ele>
        <time>2026-07-07T10:28:27.000Z</time>
      </trkpt>
      <trkpt lat="47.96186" lon="16.24163">
        <ele>272.688715</ele>
        <time>2026-07-07T10:28:28.000Z</time>
      </trkpt>
      <trkpt lat="47.9618" lon="16.24161">
        <ele>272.683847</ele>
        <time>2026-07-07T10:28:29.000Z</time>
      </trkpt>
      <trkpt lat="47.96174" lon="16.24158">
        <ele>272.678885</ele>
        <time>2026-07-07T10:28:30.000Z</time>
      </trkpt>
      <trkpt lat="47.96169" lon="16.24155">
        <ele>272.673984</ele>
        <time>2026-07-07T10:28:31.000Z</time>
      </trkpt>
      <trkpt lat="47.96163" lon="16.24153">
        <ele>272.6691</ele>
        <time>2026-07-07T10:28:32.000Z</time>
      </trkpt>
      <trkpt lat="47.96157" lon="16.2415">
        <ele>272.664121</ele>
        <time>2026-07-07T10:28:33.000Z</time>
      </trkpt>
      <trkpt lat="47.96152" lon="16.24147">
        <ele>272.659441</ele>
        <time>2026-07-07T10:28:34.000Z</time>
      </trkpt>
      <trkpt lat="47.96146" lon="16.24145">
        <ele>272.654589</ele>
        <time>2026-07-07T10:28:35.000Z</time>
      </trkpt>
      <trkpt lat="47.9614" lon="16.24142">
        <ele>272.649799</ele>
        <time>2026-07-07T10:28:36.000Z</time>
      </trkpt>
      <trkpt lat="47.96135" lon="16.2414">
        <ele>272.644915</ele>
        <time>2026-07-07T10:28:37.000Z</time>
      </trkpt>
      <trkpt lat="47.96129" lon="16.24137">
        <ele>272.639984</ele>
        <time>2026-07-07T10:28:38.000Z</time>
      </trkpt>
      <trkpt lat="47.96123" lon="16.24135">
        <ele>272.635132</ele>
        <time>2026-07-07T10:28:39.000Z</time>
      </trkpt>
      <trkpt lat="47.96117" lon="16.24132">
        <ele>272.630248</ele>
        <time>2026-07-07T10:28:40.000Z</time>
      </trkpt>
      <trkpt lat="47.96111" lon="16.24129">
        <ele>272.62516</ele>
        <time>2026-07-07T10:28:41.000Z</time>
      </trkpt>
      <trkpt lat="47.96106" lon="16.24127">
        <ele>272.620214</ele>
        <time>2026-07-07T10:28:42.000Z</time>
      </trkpt>
      <trkpt lat="47.961" lon="16.24124">
        <ele>272.615252</ele>
        <time>2026-07-07T10:28:43.000Z</time>
      </trkpt>
      <trkpt lat="47.96094" lon="16.24121">
        <ele>272.610367</ele>
        <time>2026-07-07T10:28:44.000Z</time>
      </trkpt>
      <trkpt lat="47.96088" lon="16.24119">
        <ele>272.605265</ele>
        <time>2026-07-07T10:28:45.000Z</time>
      </trkpt>
      <trkpt lat="47.96082" lon="16.24116">
        <ele>272.600334</ele>
        <time>2026-07-07T10:28:46.000Z</time>
      </trkpt>
      <trkpt lat="47.96077" lon="16.24114">
        <ele>272.59545</ele>
        <time>2026-07-07T10:28:47.000Z</time>
      </trkpt>
      <trkpt lat="47.96071" lon="16.24111">
        <ele>272.590566</ele>
        <time>2026-07-07T10:28:48.000Z</time>
      </trkpt>
      <trkpt lat="47.96065" lon="16.24108">
        <ele>272.585819</ele>
        <time>2026-07-07T10:28:49.000Z</time>
      </trkpt>
      <trkpt lat="47.9606" lon="16.24105">
        <ele>272.581013</ele>
        <time>2026-07-07T10:28:50.000Z</time>
      </trkpt>
      <trkpt lat="47.96054" lon="16.24103">
        <ele>272.576161</ele>
        <time>2026-07-07T10:28:51.000Z</time>
      </trkpt>
      <trkpt lat="47.96048" lon="16.241">
        <ele>272.621865</ele>
        <time>2026-07-07T10:28:52.000Z</time>
      </trkpt>
      <trkpt lat="47.96043" lon="16.24097">
        <ele>272.675594</ele>
        <time>2026-07-07T10:28:53.000Z</time>
      </trkpt>
      <trkpt lat="47.96037" lon="16.24095">
        <ele>272.73001</ele>
        <time>2026-07-07T10:28:54.000Z</time>
      </trkpt>
      <trkpt lat="47.96031" lon="16.24092">
        <ele>272.784607</ele>
        <time>2026-07-07T10:28:55.000Z</time>
      </trkpt>
      <trkpt lat="47.96026" lon="16.24089">
        <ele>272.838335</ele>
        <time>2026-07-07T10:28:56.000Z</time>
      </trkpt>
      <trkpt lat="47.9602" lon="16.24087">
        <ele>272.895209</ele>
        <time>2026-07-07T10:28:57.000Z</time>
      </trkpt>
      <trkpt lat="47.96014" lon="16.24084">
        <ele>272.951733</ele>
        <time>2026-07-07T10:28:58.000Z</time>
      </trkpt>
      <trkpt lat="47.96008" lon="16.24081">
        <ele>273.005652</ele>
        <time>2026-07-07T10:28:59.000Z</time>
      </trkpt>
      <trkpt lat="47.96002" lon="16.24078">
        <ele>273.062363</ele>
        <time>2026-07-07T10:29:00.000Z</time>
      </trkpt>
      <trkpt lat="47.95997" lon="16.24076">
        <ele>273.115728</ele>
        <time>2026-07-07T10:29:01.000Z</time>
      </trkpt>
      <trkpt lat="47.95991" lon="16.24073">
        <ele>273.171723</ele>
        <time>2026-07-07T10:29:02.000Z</time>
      </trkpt>
      <trkpt lat="47.95985" lon="16.24071">
        <ele>273.225642</ele>
        <time>2026-07-07T10:29:03.000Z</time>
      </trkpt>
      <trkpt lat="47.9598" lon="16.24068">
        <ele>273.279883</ele>
        <time>2026-07-07T10:29:04.000Z</time>
      </trkpt>
      <trkpt lat="47.95974" lon="16.24065">
        <ele>273.334481</ele>
        <time>2026-07-07T10:29:05.000Z</time>
      </trkpt>
      <trkpt lat="47.95968" lon="16.24063">
        <ele>273.386972</ele>
        <time>2026-07-07T10:29:06.000Z</time>
      </trkpt>
      <trkpt lat="47.95963" lon="16.2406">
        <ele>273.437719</ele>
        <time>2026-07-07T10:29:07.000Z</time>
      </trkpt>
      <trkpt lat="47.95958" lon="16.24058">
        <ele>273.490391</ele>
        <time>2026-07-07T10:29:08.000Z</time>
      </trkpt>
      <trkpt lat="47.95952" lon="16.24055">
        <ele>273.540268</ele>
        <time>2026-07-07T10:29:09.000Z</time>
      </trkpt>
      <trkpt lat="47.95947" lon="16.24053">
        <ele>273.588736</ele>
        <time>2026-07-07T10:29:10.000Z</time>
      </trkpt>
      <trkpt lat="47.95942" lon="16.24051">
        <ele>273.638614</ele>
        <time>2026-07-07T10:29:11.000Z</time>
      </trkpt>
      <trkpt lat="47.95937" lon="16.24048">
        <ele>273.686756</ele>
        <time>2026-07-07T10:29:12.000Z</time>
      </trkpt>
      <trkpt lat="47.95932" lon="16.24045">
        <ele>273.732957</ele>
        <time>2026-07-07T10:29:13.000Z</time>
      </trkpt>
      <trkpt lat="47.95928" lon="16.24042">
        <ele>273.779002</ele>
        <time>2026-07-07T10:29:14.000Z</time>
      </trkpt>
      <trkpt lat="47.95924" lon="16.24039">
        <ele>273.818833</ele>
        <time>2026-07-07T10:29:15.000Z</time>
      </trkpt>
      <trkpt lat="47.9592" lon="16.24037">
        <ele>273.85904</ele>
        <time>2026-07-07T10:29:16.000Z</time>
      </trkpt>
      <trkpt lat="47.95915" lon="16.24035">
        <ele>273.901215</ele>
        <time>2026-07-07T10:29:17.000Z</time>
      </trkpt>
      <trkpt lat="47.95911" lon="16.24033">
        <ele>273.942158</ele>
        <time>2026-07-07T10:29:18.000Z</time>
      </trkpt>
      <trkpt lat="47.95907" lon="16.24031">
        <ele>273.984693</ele>
        <time>2026-07-07T10:29:19.000Z</time>
      </trkpt>
      <trkpt lat="47.95902" lon="16.24029">
        <ele>274.027227</ele>
        <time>2026-07-07T10:29:20.000Z</time>
      </trkpt>
      <trkpt lat="47.95897" lon="16.24028">
        <ele>274.070985</ele>
        <time>2026-07-07T10:29:21.000Z</time>
      </trkpt>
      <trkpt lat="47.95893" lon="16.24027">
        <ele>274.115234</ele>
        <time>2026-07-07T10:29:22.000Z</time>
      </trkpt>
      <trkpt lat="47.95888" lon="16.24026">
        <ele>274.161378</ele>
        <time>2026-07-07T10:29:23.000Z</time>
      </trkpt>
      <trkpt lat="47.95882" lon="16.24024">
        <ele>274.209621</ele>
        <time>2026-07-07T10:29:24.000Z</time>
      </trkpt>
      <trkpt lat="47.95877" lon="16.24022">
        <ele>274.274344</ele>
        <time>2026-07-07T10:29:25.000Z</time>
      </trkpt>
      <trkpt lat="47.95872" lon="16.2402">
        <ele>274.343337</ele>
        <time>2026-07-07T10:29:26.000Z</time>
      </trkpt>
      <trkpt lat="47.95867" lon="16.24017">
        <ele>274.416353</ele>
        <time>2026-07-07T10:29:27.000Z</time>
      </trkpt>
      <trkpt lat="47.95862" lon="16.24015">
        <ele>274.488117</ele>
        <time>2026-07-07T10:29:28.000Z</time>
      </trkpt>
      <trkpt lat="47.95857" lon="16.24013">
        <ele>274.556846</ele>
        <time>2026-07-07T10:29:29.000Z</time>
      </trkpt>
      <trkpt lat="47.95852" lon="16.2401">
        <ele>274.627361</ele>
        <time>2026-07-07T10:29:30.000Z</time>
      </trkpt>
      <trkpt lat="47.95847" lon="16.24008">
        <ele>274.699125</ele>
        <time>2026-07-07T10:29:31.000Z</time>
      </trkpt>
      <trkpt lat="47.95841" lon="16.24005">
        <ele>274.77089</ele>
        <time>2026-07-07T10:29:32.000Z</time>
      </trkpt>
      <trkpt lat="47.95836" lon="16.24003">
        <ele>274.843395</ele>
        <time>2026-07-07T10:29:33.000Z</time>
      </trkpt>
      <trkpt lat="47.95831" lon="16.24">
        <ele>274.91892</ele>
        <time>2026-07-07T10:29:34.000Z</time>
      </trkpt>
      <trkpt lat="47.95825" lon="16.23998">
        <ele>274.992485</ele>
        <time>2026-07-07T10:29:35.000Z</time>
      </trkpt>
      <trkpt lat="47.9582" lon="16.23995">
        <ele>275.066754</ele>
        <time>2026-07-07T10:29:36.000Z</time>
      </trkpt>
      <trkpt lat="47.95815" lon="16.23993">
        <ele>275.137269</ele>
        <time>2026-07-07T10:29:37.000Z</time>
      </trkpt>
      <trkpt lat="47.9581" lon="16.2399">
        <ele>275.209592</ele>
        <time>2026-07-07T10:29:38.000Z</time>
      </trkpt>
      <trkpt lat="47.95804" lon="16.23988">
        <ele>275.282097</ele>
        <time>2026-07-07T10:29:39.000Z</time>
      </trkpt>
      <trkpt lat="47.95799" lon="16.23985">
        <ele>275.353861</ele>
        <time>2026-07-07T10:29:40.000Z</time>
      </trkpt>
      <trkpt lat="47.95794" lon="16.23983">
        <ele>275.425106</ele>
        <time>2026-07-07T10:29:41.000Z</time>
      </trkpt>
      <trkpt lat="47.95789" lon="16.2398">
        <ele>275.498122</ele>
        <time>2026-07-07T10:29:42.000Z</time>
      </trkpt>
      <trkpt lat="47.95783" lon="16.23978">
        <ele>275.569886</ele>
        <time>2026-07-07T10:29:43.000Z</time>
      </trkpt>
      <trkpt lat="47.95778" lon="16.23975">
        <ele>275.642902</ele>
        <time>2026-07-07T10:29:44.000Z</time>
      </trkpt>
      <trkpt lat="47.95773" lon="16.23973">
        <ele>275.713902</ele>
        <time>2026-07-07T10:29:45.000Z</time>
      </trkpt>
      <trkpt lat="47.95768" lon="16.23971">
        <ele>275.783639</ele>
        <time>2026-07-07T10:29:46.000Z</time>
      </trkpt>
      <trkpt lat="47.95763" lon="16.23968">
        <ele>275.852561</ele>
        <time>2026-07-07T10:29:47.000Z</time>
      </trkpt>
      <trkpt lat="47.95759" lon="16.23965">
        <ele>275.91254</ele>
        <time>2026-07-07T10:29:48.000Z</time>
      </trkpt>
      <trkpt lat="47.95755" lon="16.23962">
        <ele>275.971343</ele>
        <time>2026-07-07T10:29:49.000Z</time>
      </trkpt>
      <trkpt lat="47.95751" lon="16.23959">
        <ele>276.027814</ele>
        <time>2026-07-07T10:29:50.000Z</time>
      </trkpt>
      <trkpt lat="47.95748" lon="16.23956">
        <ele>276.075245</ele>
        <time>2026-07-07T10:29:51.000Z</time>
      </trkpt>
      <trkpt lat="47.95747" lon="16.23953">
        <ele>276.112785</ele>
        <time>2026-07-07T10:29:52.000Z</time>
      </trkpt>
      <trkpt lat="47.95747" lon="16.23948">
        <ele>276.150819</ele>
        <time>2026-07-07T10:29:53.000Z</time>
      </trkpt>
      <trkpt lat="47.95748" lon="16.23943">
        <ele>276.194896</ele>
        <time>2026-07-07T10:29:54.000Z</time>
      </trkpt>
      <trkpt lat="47.95747" lon="16.23938">
        <ele>276.240121</ele>
        <time>2026-07-07T10:29:55.000Z</time>
      </trkpt>
      <trkpt lat="47.95745" lon="16.23934">
        <ele>276.287635</ele>
        <time>2026-07-07T10:29:56.000Z</time>
      </trkpt>
      <trkpt lat="47.95741" lon="16.23931">
        <ele>276.34065</ele>
        <time>2026-07-07T10:29:57.000Z</time>
      </trkpt>
      <trkpt lat="47.95737" lon="16.23928">
        <ele>276.402494</ele>
        <time>2026-07-07T10:29:58.000Z</time>
      </trkpt>
      <trkpt lat="47.95732" lon="16.23926">
        <ele>276.464173</ele>
        <time>2026-07-07T10:29:59.000Z</time>
      </trkpt>
      <trkpt lat="47.95728" lon="16.23924">
        <ele>276.525116</ele>
        <time>2026-07-07T10:30:00.000Z</time>
      </trkpt>
      <trkpt lat="47.95724" lon="16.23921">
        <ele>276.587438</ele>
        <time>2026-07-07T10:30:01.000Z</time>
      </trkpt>
      <trkpt lat="47.95719" lon="16.23919">
        <ele>276.649162</ele>
        <time>2026-07-07T10:30:02.000Z</time>
      </trkpt>
      <trkpt lat="47.95714" lon="16.23917">
        <ele>276.711306</ele>
        <time>2026-07-07T10:30:03.000Z</time>
      </trkpt>
      <trkpt lat="47.95709" lon="16.23913">
        <ele>276.775051</ele>
        <time>2026-07-07T10:30:04.000Z</time>
      </trkpt>
      <trkpt lat="47.95705" lon="16.2391">
        <ele>276.838028</ele>
        <time>2026-07-07T10:30:05.000Z</time>
      </trkpt>
      <trkpt lat="47.957" lon="16.23907">
        <ele>276.90212</ele>
        <time>2026-07-07T10:30:06.000Z</time>
      </trkpt>
      <trkpt lat="47.95695" lon="16.23904">
        <ele>276.965864</ele>
        <time>2026-07-07T10:30:07.000Z</time>
      </trkpt>
      <trkpt lat="47.95691" lon="16.23901">
        <ele>277.029162</ele>
        <time>2026-07-07T10:30:08.000Z</time>
      </trkpt>
      <trkpt lat="47.95686" lon="16.23899">
        <ele>277.093725</ele>
        <time>2026-07-07T10:30:09.000Z</time>
      </trkpt>
      <trkpt lat="47.95681" lon="16.23897">
        <ele>277.157603</ele>
        <time>2026-07-07T10:30:10.000Z</time>
      </trkpt>
      <trkpt lat="47.95676" lon="16.23894">
        <ele>277.221928</ele>
        <time>2026-07-07T10:30:11.000Z</time>
      </trkpt>
      <trkpt lat="47.95671" lon="16.23892">
        <ele>277.284137</ele>
        <time>2026-07-07T10:30:12.000Z</time>
      </trkpt>
      <trkpt lat="47.95666" lon="16.2389">
        <ele>277.348701</ele>
        <time>2026-07-07T10:30:13.000Z</time>
      </trkpt>
      <trkpt lat="47.95661" lon="16.23887">
        <ele>277.415867</ele>
        <time>2026-07-07T10:30:14.000Z</time>
      </trkpt>
      <trkpt lat="47.95655" lon="16.23885">
        <ele>277.482342</ele>
        <time>2026-07-07T10:30:15.000Z</time>
      </trkpt>
      <trkpt lat="47.9565" lon="16.23883">
        <ele>277.549605</ele>
        <time>2026-07-07T10:30:16.000Z</time>
      </trkpt>
      <trkpt lat="47.95645" lon="16.23881">
        <ele>277.617066</ele>
        <time>2026-07-07T10:30:17.000Z</time>
      </trkpt>
      <trkpt lat="47.9564" lon="16.23879">
        <ele>277.683542</ele>
        <time>2026-07-07T10:30:18.000Z</time>
      </trkpt>
      <trkpt lat="47.95634" lon="16.23877">
        <ele>277.749605</ele>
        <time>2026-07-07T10:30:19.000Z</time>
      </trkpt>
      <trkpt lat="47.95629" lon="16.23876">
        <ele>277.81668</ele>
        <time>2026-07-07T10:30:20.000Z</time>
      </trkpt>
      <trkpt lat="47.95624" lon="16.23874">
        <ele>277.882552</ele>
        <time>2026-07-07T10:30:21.000Z</time>
      </trkpt>
      <trkpt lat="47.95619" lon="16.23872">
        <ele>277.947622</ele>
        <time>2026-07-07T10:30:22.000Z</time>
      </trkpt>
      <trkpt lat="47.95613" lon="16.2387">
        <ele>278.01628</ele>
        <time>2026-07-07T10:30:23.000Z</time>
      </trkpt>
      <trkpt lat="47.95608" lon="16.23868">
        <ele>278.083176</ele>
        <time>2026-07-07T10:30:24.000Z</time>
      </trkpt>
      <trkpt lat="47.95603" lon="16.23867">
        <ele>278.149745</ele>
        <time>2026-07-07T10:30:25.000Z</time>
      </trkpt>
      <trkpt lat="47.95597" lon="16.23865">
        <ele>278.217848</ele>
        <time>2026-07-07T10:30:26.000Z</time>
      </trkpt>
      <trkpt lat="47.95592" lon="16.23863">
        <ele>278.282159</ele>
        <time>2026-07-07T10:30:27.000Z</time>
      </trkpt>
      <trkpt lat="47.95587" lon="16.23862">
        <ele>278.344238</ele>
        <time>2026-07-07T10:30:28.000Z</time>
      </trkpt>
      <trkpt lat="47.95583" lon="16.2386">
        <ele>278.40292</ele>
        <time>2026-07-07T10:30:29.000Z</time>
      </trkpt>
      <trkpt lat="47.95578" lon="16.23858">
        <ele>278.46063</ele>
        <time>2026-07-07T10:30:30.000Z</time>
      </trkpt>
      <trkpt lat="47.95574" lon="16.23856">
        <ele>278.518569</ele>
        <time>2026-07-07T10:30:31.000Z</time>
      </trkpt>
      <trkpt lat="47.95569" lon="16.23854">
        <ele>278.576509</ele>
        <time>2026-07-07T10:30:32.000Z</time>
      </trkpt>
      <trkpt lat="47.95565" lon="16.23851">
        <ele>278.63576</ele>
        <time>2026-07-07T10:30:33.000Z</time>
      </trkpt>
      <trkpt lat="47.9556" lon="16.23849">
        <ele>278.696795</ele>
        <time>2026-07-07T10:30:34.000Z</time>
      </trkpt>
      <trkpt lat="47.95555" lon="16.23847">
        <ele>278.758757</ele>
        <time>2026-07-07T10:30:35.000Z</time>
      </trkpt>
      <trkpt lat="47.95551" lon="16.23844">
        <ele>278.819233</ele>
        <time>2026-07-07T10:30:36.000Z</time>
      </trkpt>
      <trkpt lat="47.95546" lon="16.23842">
        <ele>278.878083</ele>
        <time>2026-07-07T10:30:37.000Z</time>
      </trkpt>
      <trkpt lat="47.95541" lon="16.2384">
        <ele>278.938045</ele>
        <time>2026-07-07T10:30:38.000Z</time>
      </trkpt>
      <trkpt lat="47.95536" lon="16.23838">
        <ele>278.996222</ele>
        <time>2026-07-07T10:30:39.000Z</time>
      </trkpt>
      <trkpt lat="47.95531" lon="16.23836">
        <ele>279.054838</ele>
        <time>2026-07-07T10:30:40.000Z</time>
      </trkpt>
      <trkpt lat="47.95526" lon="16.23833">
        <ele>279.11457</ele>
        <time>2026-07-07T10:30:41.000Z</time>
      </trkpt>
      <trkpt lat="47.95522" lon="16.23831">
        <ele>279.171202</ele>
        <time>2026-07-07T10:30:42.000Z</time>
      </trkpt>
      <trkpt lat="47.95517" lon="16.23829">
        <ele>279.231165</ele>
        <time>2026-07-07T10:30:43.000Z</time>
      </trkpt>
      <trkpt lat="47.95512" lon="16.23826">
        <ele>279.290511</ele>
        <time>2026-07-07T10:30:44.000Z</time>
      </trkpt>
      <trkpt lat="47.95507" lon="16.23824">
        <ele>279.352067</ele>
        <time>2026-07-07T10:30:45.000Z</time>
      </trkpt>
      <trkpt lat="47.95502" lon="16.23821">
        <ele>279.411947</ele>
        <time>2026-07-07T10:30:46.000Z</time>
      </trkpt>
      <trkpt lat="47.95497" lon="16.23818">
        <ele>279.474017</ele>
        <time>2026-07-07T10:30:47.000Z</time>
      </trkpt>
      <trkpt lat="47.95492" lon="16.23816">
        <ele>279.534724</ele>
        <time>2026-07-07T10:30:48.000Z</time>
      </trkpt>
      <trkpt lat="47.95488" lon="16.23813">
        <ele>279.591609</ele>
        <time>2026-07-07T10:30:49.000Z</time>
      </trkpt>
      <trkpt lat="47.95483" lon="16.23811">
        <ele>279.651571</ele>
        <time>2026-07-07T10:30:50.000Z</time>
      </trkpt>
      <trkpt lat="47.95478" lon="16.23809">
        <ele>279.710422</ele>
        <time>2026-07-07T10:30:51.000Z</time>
      </trkpt>
      <trkpt lat="47.95473" lon="16.23806">
        <ele>279.768667</ele>
        <time>2026-07-07T10:30:52.000Z</time>
      </trkpt>
      <trkpt lat="47.95469" lon="16.23804">
        <ele>279.825814</ele>
        <time>2026-07-07T10:30:53.000Z</time>
      </trkpt>
      <trkpt lat="47.95464" lon="16.23801">
        <ele>279.88406</ele>
        <time>2026-07-07T10:30:54.000Z</time>
      </trkpt>
      <trkpt lat="47.95459" lon="16.23799">
        <ele>279.942676</ele>
        <time>2026-07-07T10:30:55.000Z</time>
      </trkpt>
      <trkpt lat="47.95454" lon="16.23797">
        <ele>280.003104</ele>
        <time>2026-07-07T10:30:56.000Z</time>
      </trkpt>
      <trkpt lat="47.95449" lon="16.23795">
        <ele>280.062013</ele>
        <time>2026-07-07T10:30:57.000Z</time>
      </trkpt>
      <trkpt lat="47.95444" lon="16.23793">
        <ele>280.123325</ele>
        <time>2026-07-07T10:30:58.000Z</time>
      </trkpt>
      <trkpt lat="47.9544" lon="16.2379">
        <ele>280.182934</ele>
        <time>2026-07-07T10:30:59.000Z</time>
      </trkpt>
      <trkpt lat="47.95435" lon="16.23788">
        <ele>280.244246</ele>
        <time>2026-07-07T10:31:00.000Z</time>
      </trkpt>
      <trkpt lat="47.95429" lon="16.23786">
        <ele>280.307559</ele>
        <time>2026-07-07T10:31:01.000Z</time>
      </trkpt>
      <trkpt lat="47.95424" lon="16.23783">
        <ele>280.369753</ele>
        <time>2026-07-07T10:31:02.000Z</time>
      </trkpt>
      <trkpt lat="47.95419" lon="16.23781">
        <ele>280.430605</ele>
        <time>2026-07-07T10:31:03.000Z</time>
      </trkpt>
      <trkpt lat="47.95414" lon="16.23779">
        <ele>280.491457</ele>
        <time>2026-07-07T10:31:04.000Z</time>
      </trkpt>
      <trkpt lat="47.95409" lon="16.23777">
        <ele>280.551419</ele>
        <time>2026-07-07T10:31:05.000Z</time>
      </trkpt>
      <trkpt lat="47.95405" lon="16.23774">
        <ele>280.608051</ele>
        <time>2026-07-07T10:31:06.000Z</time>
      </trkpt>
      <trkpt lat="47.954" lon="16.23772">
        <ele>280.667151</ele>
        <time>2026-07-07T10:31:07.000Z</time>
      </trkpt>
      <trkpt lat="47.95395" lon="16.2377">
        <ele>280.723306</ele>
        <time>2026-07-07T10:31:08.000Z</time>
      </trkpt>
      <trkpt lat="47.95391" lon="16.23768">
        <ele>280.779358</ele>
        <time>2026-07-07T10:31:09.000Z</time>
      </trkpt>
      <trkpt lat="47.95386" lon="16.23766">
        <ele>280.834635</ele>
        <time>2026-07-07T10:31:10.000Z</time>
      </trkpt>
      <trkpt lat="47.95382" lon="16.23763">
        <ele>280.889913</ele>
        <time>2026-07-07T10:31:11.000Z</time>
      </trkpt>
      <trkpt lat="47.95377" lon="16.23761">
        <ele>280.930025</ele>
        <time>2026-07-07T10:31:12.000Z</time>
      </trkpt>
      <trkpt lat="47.95373" lon="16.23759">
        <ele>280.967146</ele>
        <time>2026-07-07T10:31:13.000Z</time>
      </trkpt>
      <trkpt lat="47.95368" lon="16.23756">
        <ele>281.005386</ele>
        <time>2026-07-07T10:31:14.000Z</time>
      </trkpt>
      <trkpt lat="47.95364" lon="16.23754">
        <ele>281.041994</ele>
        <time>2026-07-07T10:31:15.000Z</time>
      </trkpt>
      <trkpt lat="47.95359" lon="16.23752">
        <ele>281.080257</ele>
        <time>2026-07-07T10:31:16.000Z</time>
      </trkpt>
      <trkpt lat="47.95354" lon="16.2375">
        <ele>281.118042</ele>
        <time>2026-07-07T10:31:17.000Z</time>
      </trkpt>
      <trkpt lat="47.95349" lon="16.23748">
        <ele>281.158342</ele>
        <time>2026-07-07T10:31:18.000Z</time>
      </trkpt>
      <trkpt lat="47.95344" lon="16.23746">
        <ele>281.19687</ele>
        <time>2026-07-07T10:31:19.000Z</time>
      </trkpt>
      <trkpt lat="47.95339" lon="16.23744">
        <ele>281.235884</ele>
        <time>2026-07-07T10:31:20.000Z</time>
      </trkpt>
      <trkpt lat="47.95335" lon="16.23742">
        <ele>281.274276</ele>
        <time>2026-07-07T10:31:21.000Z</time>
      </trkpt>
      <trkpt lat="47.9533" lon="16.2374">
        <ele>281.31358</ele>
        <time>2026-07-07T10:31:22.000Z</time>
      </trkpt>
      <trkpt lat="47.95325" lon="16.23737">
        <ele>281.353784</ele>
        <time>2026-07-07T10:31:23.000Z</time>
      </trkpt>
      <trkpt lat="47.9532" lon="16.23735">
        <ele>281.393441</ele>
        <time>2026-07-07T10:31:24.000Z</time>
      </trkpt>
      <trkpt lat="47.95315" lon="16.23732">
        <ele>281.433741</ele>
        <time>2026-07-07T10:31:25.000Z</time>
      </trkpt>
      <trkpt lat="47.9531" lon="16.2373">
        <ele>281.473898</ele>
        <time>2026-07-07T10:31:26.000Z</time>
      </trkpt>
      <trkpt lat="47.95305" lon="16.23728">
        <ele>281.513202</ele>
        <time>2026-07-07T10:31:27.000Z</time>
      </trkpt>
      <trkpt lat="47.953" lon="16.23725">
        <ele>281.553807</ele>
        <time>2026-07-07T10:31:28.000Z</time>
      </trkpt>
      <trkpt lat="47.95295" lon="16.23723">
        <ele>281.593519</ele>
        <time>2026-07-07T10:31:29.000Z</time>
      </trkpt>
      <trkpt lat="47.9529" lon="16.23721">
        <ele>281.633538</ele>
        <time>2026-07-07T10:31:30.000Z</time>
      </trkpt>
      <trkpt lat="47.95285" lon="16.23719">
        <ele>281.673839</ele>
        <time>2026-07-07T10:31:31.000Z</time>
      </trkpt>
      <trkpt lat="47.9528" lon="16.23717">
        <ele>281.713603</ele>
        <time>2026-07-07T10:31:32.000Z</time>
      </trkpt>
      <trkpt lat="47.95275" lon="16.23715">
        <ele>281.753368</ele>
        <time>2026-07-07T10:31:33.000Z</time>
      </trkpt>
      <trkpt lat="47.95271" lon="16.23713">
        <ele>281.792188</ele>
        <time>2026-07-07T10:31:34.000Z</time>
      </trkpt>
      <trkpt lat="47.95266" lon="16.23711">
        <ele>281.831007</ele>
        <time>2026-07-07T10:31:35.000Z</time>
      </trkpt>
      <trkpt lat="47.95261" lon="16.23709">
        <ele>281.870281</ele>
        <time>2026-07-07T10:31:36.000Z</time>
      </trkpt>
      <trkpt lat="47.95256" lon="16.23707">
        <ele>281.907046</ele>
        <time>2026-07-07T10:31:37.000Z</time>
      </trkpt>
      <trkpt lat="47.95252" lon="16.23705">
        <ele>281.94456</ele>
        <time>2026-07-07T10:31:38.000Z</time>
      </trkpt>
      <trkpt lat="47.95247" lon="16.23703">
        <ele>281.982344</ele>
        <time>2026-07-07T10:31:39.000Z</time>
      </trkpt>
      <trkpt lat="47.95242" lon="16.23701">
        <ele>282.019244</ele>
        <time>2026-07-07T10:31:40.000Z</time>
      </trkpt>
      <trkpt lat="47.95238" lon="16.237">
        <ele>282.055262</ele>
        <time>2026-07-07T10:31:41.000Z</time>
      </trkpt>
      <trkpt lat="47.95233" lon="16.23698">
        <ele>282.093046</ele>
        <time>2026-07-07T10:31:42.000Z</time>
      </trkpt>
      <trkpt lat="47.95228" lon="16.23696">
        <ele>282.131575</ele>
        <time>2026-07-07T10:31:43.000Z</time>
      </trkpt>
      <trkpt lat="47.95223" lon="16.23694">
        <ele>282.17134</ele>
        <time>2026-07-07T10:31:44.000Z</time>
      </trkpt>
      <trkpt lat="47.95218" lon="16.23692">
        <ele>282.21048</ele>
        <time>2026-07-07T10:31:45.000Z</time>
      </trkpt>
      <trkpt lat="47.95214" lon="16.2369">
        <ele>282.249151</ele>
        <time>2026-07-07T10:31:46.000Z</time>
      </trkpt>
      <trkpt lat="47.95208" lon="16.23688">
        <ele>282.290772</ele>
        <time>2026-07-07T10:31:47.000Z</time>
      </trkpt>
      <trkpt lat="47.95203" lon="16.23686">
        <ele>282.34647</ele>
        <time>2026-07-07T10:31:48.000Z</time>
      </trkpt>
      <trkpt lat="47.95198" lon="16.23683">
        <ele>282.404008</ele>
        <time>2026-07-07T10:31:49.000Z</time>
      </trkpt>
      <trkpt lat="47.95193" lon="16.23681">
        <ele>282.460745</ele>
        <time>2026-07-07T10:31:50.000Z</time>
      </trkpt>
      <trkpt lat="47.95188" lon="16.23678">
        <ele>282.519527</ele>
        <time>2026-07-07T10:31:51.000Z</time>
      </trkpt>
      <trkpt lat="47.95183" lon="16.23676">
        <ele>282.578534</ele>
        <time>2026-07-07T10:31:52.000Z</time>
      </trkpt>
      <trkpt lat="47.95178" lon="16.23673">
        <ele>282.635047</ele>
        <time>2026-07-07T10:31:53.000Z</time>
      </trkpt>
      <trkpt lat="47.95173" lon="16.23671">
        <ele>282.692372</ele>
        <time>2026-07-07T10:31:54.000Z</time>
      </trkpt>
      <trkpt lat="47.95168" lon="16.23669">
        <ele>282.74911</ele>
        <time>2026-07-07T10:31:55.000Z</time>
      </trkpt>
      <trkpt lat="47.95163" lon="16.23666">
        <ele>282.807892</ele>
        <time>2026-07-07T10:31:56.000Z</time>
      </trkpt>
      <trkpt lat="47.95158" lon="16.23663">
        <ele>282.865103</ele>
        <time>2026-07-07T10:31:57.000Z</time>
      </trkpt>
      <trkpt lat="47.95153" lon="16.23661">
        <ele>282.920554</ele>
        <time>2026-07-07T10:31:58.000Z</time>
      </trkpt>
      <trkpt lat="47.95148" lon="16.23658">
        <ele>282.977765</ele>
        <time>2026-07-07T10:31:59.000Z</time>
      </trkpt>
      <trkpt lat="47.95143" lon="16.23655">
        <ele>283.034219</ele>
        <time>2026-07-07T10:32:00.000Z</time>
      </trkpt>
      <trkpt lat="47.95138" lon="16.23652">
        <ele>283.092202</ele>
        <time>2026-07-07T10:32:01.000Z</time>
      </trkpt>
      <trkpt lat="47.95133" lon="16.23649">
        <ele>283.148193</ele>
        <time>2026-07-07T10:32:02.000Z</time>
      </trkpt>
      <trkpt lat="47.95128" lon="16.23646">
        <ele>283.204185</ele>
        <time>2026-07-07T10:32:03.000Z</time>
      </trkpt>
      <trkpt lat="47.95123" lon="16.23642">
        <ele>283.263269</ele>
        <time>2026-07-07T10:32:04.000Z</time>
      </trkpt>
      <trkpt lat="47.95119" lon="16.23638">
        <ele>283.319993</ele>
        <time>2026-07-07T10:32:05.000Z</time>
      </trkpt>
      <trkpt lat="47.95115" lon="16.23634">
        <ele>283.375283</ele>
        <time>2026-07-07T10:32:06.000Z</time>
      </trkpt>
      <trkpt lat="47.9511" lon="16.2363">
        <ele>283.429675</ele>
        <time>2026-07-07T10:32:07.000Z</time>
      </trkpt>
      <trkpt lat="47.95106" lon="16.23625">
        <ele>283.484429</ele>
        <time>2026-07-07T10:32:08.000Z</time>
      </trkpt>
      <trkpt lat="47.95102" lon="16.23621">
        <ele>283.539226</ele>
        <time>2026-07-07T10:32:09.000Z</time>
      </trkpt>
      <trkpt lat="47.95098" lon="16.23617">
        <ele>283.590241</ele>
        <time>2026-07-07T10:32:10.000Z</time>
      </trkpt>
      <trkpt lat="47.95094" lon="16.23614">
        <ele>283.640872</ele>
        <time>2026-07-07T10:32:11.000Z</time>
      </trkpt>
      <trkpt lat="47.95091" lon="16.2361">
        <ele>283.685414</ele>
        <time>2026-07-07T10:32:12.000Z</time>
      </trkpt>
      <trkpt lat="47.95087" lon="16.23607">
        <ele>283.730344</ele>
        <time>2026-07-07T10:32:13.000Z</time>
      </trkpt>
      <trkpt lat="47.95084" lon="16.23604">
        <ele>283.770439</ele>
        <time>2026-07-07T10:32:14.000Z</time>
      </trkpt>
      <trkpt lat="47.95081" lon="16.236">
        <ele>283.810534</ele>
        <time>2026-07-07T10:32:15.000Z</time>
      </trkpt>
      <trkpt lat="47.95078" lon="16.23597">
        <ele>283.84854</ele>
        <time>2026-07-07T10:32:16.000Z</time>
      </trkpt>
      <trkpt lat="47.95076" lon="16.23593">
        <ele>283.886209</ele>
        <time>2026-07-07T10:32:17.000Z</time>
      </trkpt>
      <trkpt lat="47.95073" lon="16.23591">
        <ele>283.92337</ele>
        <time>2026-07-07T10:32:18.000Z</time>
      </trkpt>
      <trkpt lat="47.9507" lon="16.23588">
        <ele>283.957415</ele>
        <time>2026-07-07T10:32:19.000Z</time>
      </trkpt>
      <trkpt lat="47.95067" lon="16.23588">
        <ele>283.989896</ele>
        <time>2026-07-07T10:32:20.000Z</time>
      </trkpt>
      <trkpt lat="47.95064" lon="16.23589">
        <ele>284.020715</ele>
        <time>2026-07-07T10:32:21.000Z</time>
      </trkpt>
      <trkpt lat="47.95062" lon="16.23591">
        <ele>284.050906</ele>
        <time>2026-07-07T10:32:22.000Z</time>
      </trkpt>
      <trkpt lat="47.95061" lon="16.23596">
        <ele>284.085209</ele>
        <time>2026-07-07T10:32:23.000Z</time>
      </trkpt>
      <trkpt lat="47.95059" lon="16.23601">
        <ele>284.123487</ele>
        <time>2026-07-07T10:32:24.000Z</time>
      </trkpt>
      <trkpt lat="47.95058" lon="16.23606">
        <ele>284.163475</ele>
        <time>2026-07-07T10:32:25.000Z</time>
      </trkpt>
      <trkpt lat="47.95057" lon="16.23611">
        <ele>284.201081</ele>
        <time>2026-07-07T10:32:26.000Z</time>
      </trkpt>
      <trkpt lat="47.95056" lon="16.23616">
        <ele>284.229703</ele>
        <time>2026-07-07T10:32:27.000Z</time>
      </trkpt>
      <trkpt lat="47.95055" lon="16.2362">
        <ele>284.240702</ele>
        <time>2026-07-07T10:32:28.000Z</time>
      </trkpt>
      <trkpt lat="47.95054" lon="16.23625">
        <ele>284.251152</ele>
        <time>2026-07-07T10:32:29.000Z</time>
      </trkpt>
      <trkpt lat="47.95054" lon="16.23629">
        <ele>284.261341</ele>
        <time>2026-07-07T10:32:30.000Z</time>
      </trkpt>
      <trkpt lat="47.95052" lon="16.23633">
        <ele>284.272793</ele>
        <time>2026-07-07T10:32:31.000Z</time>
      </trkpt>
      <trkpt lat="47.9505" lon="16.23636">
        <ele>284.284049</ele>
        <time>2026-07-07T10:32:32.000Z</time>
      </trkpt>
      <trkpt lat="47.95047" lon="16.23637">
        <ele>284.295192</ele>
        <time>2026-07-07T10:32:33.000Z</time>
      </trkpt>
      <trkpt lat="47.95043" lon="16.23635">
        <ele>284.308533</ele>
        <time>2026-07-07T10:32:34.000Z</time>
      </trkpt>
      <trkpt lat="47.95039" lon="16.23633">
        <ele>284.323109</ele>
        <time>2026-07-07T10:32:35.000Z</time>
      </trkpt>
      <trkpt lat="47.95035" lon="16.2363">
        <ele>284.339234</ele>
        <time>2026-07-07T10:32:36.000Z</time>
      </trkpt>
      <trkpt lat="47.95031" lon="16.23627">
        <ele>284.355481</ele>
        <time>2026-07-07T10:32:37.000Z</time>
      </trkpt>
      <trkpt lat="47.95026" lon="16.23624">
        <ele>284.372456</ele>
        <time>2026-07-07T10:32:38.000Z</time>
      </trkpt>
      <trkpt lat="47.95022" lon="16.23621">
        <ele>284.389168</ele>
        <time>2026-07-07T10:32:39.000Z</time>
      </trkpt>
      <trkpt lat="47.95017" lon="16.23619">
        <ele>284.40515</ele>
        <time>2026-07-07T10:32:40.000Z</time>
      </trkpt>
      <trkpt lat="47.95013" lon="16.23616">
        <ele>284.422591</ele>
        <time>2026-07-07T10:32:41.000Z</time>
      </trkpt>
      <trkpt lat="47.95008" lon="16.23613">
        <ele>284.439388</ele>
        <time>2026-07-07T10:32:42.000Z</time>
      </trkpt>
      <trkpt lat="47.95003" lon="16.23611">
        <ele>284.456668</ele>
        <time>2026-07-07T10:32:43.000Z</time>
      </trkpt>
      <trkpt lat="47.94999" lon="16.23608">
        <ele>284.473703</ele>
        <time>2026-07-07T10:32:44.000Z</time>
      </trkpt>
      <trkpt lat="47.94994" lon="16.23606">
        <ele>284.490253</ele>
        <time>2026-07-07T10:32:45.000Z</time>
      </trkpt>
      <trkpt lat="47.9499" lon="16.23603">
        <ele>284.507533</ele>
        <time>2026-07-07T10:32:46.000Z</time>
      </trkpt>
      <trkpt lat="47.94985" lon="16.23601">
        <ele>284.525217</ele>
        <time>2026-07-07T10:32:47.000Z</time>
      </trkpt>
      <trkpt lat="47.9498" lon="16.23598">
        <ele>284.543152</ele>
        <time>2026-07-07T10:32:48.000Z</time>
      </trkpt>
      <trkpt lat="47.94975" lon="16.23596">
        <ele>284.560917</ele>
        <time>2026-07-07T10:32:49.000Z</time>
      </trkpt>
      <trkpt lat="47.9497" lon="16.23593">
        <ele>284.57862</ele>
        <time>2026-07-07T10:32:50.000Z</time>
      </trkpt>
      <trkpt lat="47.94966" lon="16.23589">
        <ele>284.596826</ele>
        <time>2026-07-07T10:32:51.000Z</time>
      </trkpt>
      <trkpt lat="47.94961" lon="16.23587">
        <ele>284.614511</ele>
        <time>2026-07-07T10:32:52.000Z</time>
      </trkpt>
      <trkpt lat="47.94956" lon="16.23584">
        <ele>284.632445</ele>
        <time>2026-07-07T10:32:53.000Z</time>
      </trkpt>
      <trkpt lat="47.94951" lon="16.23582">
        <ele>284.65021</ele>
        <time>2026-07-07T10:32:54.000Z</time>
      </trkpt>
      <trkpt lat="47.94946" lon="16.23579">
        <ele>284.668929</ele>
        <time>2026-07-07T10:32:55.000Z</time>
      </trkpt>
      <trkpt lat="47.94941" lon="16.23577">
        <ele>284.68738</ele>
        <time>2026-07-07T10:32:56.000Z</time>
      </trkpt>
      <trkpt lat="47.94936" lon="16.23574">
        <ele>284.705795</ele>
        <time>2026-07-07T10:32:57.000Z</time>
      </trkpt>
      <trkpt lat="47.94931" lon="16.23572">
        <ele>284.723966</ele>
        <time>2026-07-07T10:32:58.000Z</time>
      </trkpt>
      <trkpt lat="47.94926" lon="16.23568">
        <ele>284.742807</ele>
        <time>2026-07-07T10:32:59.000Z</time>
      </trkpt>
      <trkpt lat="47.94921" lon="16.23565">
        <ele>284.761878</ele>
        <time>2026-07-07T10:33:00.000Z</time>
      </trkpt>
      <trkpt lat="47.94916" lon="16.23562">
        <ele>284.780907</ele>
        <time>2026-07-07T10:33:01.000Z</time>
      </trkpt>
      <trkpt lat="47.94911" lon="16.23559">
        <ele>284.800476</ele>
        <time>2026-07-07T10:33:02.000Z</time>
      </trkpt>
      <trkpt lat="47.94905" lon="16.23555">
        <ele>284.819955</ele>
        <time>2026-07-07T10:33:03.000Z</time>
      </trkpt>
      <trkpt lat="47.949" lon="16.23553">
        <ele>284.83845</ele>
        <time>2026-07-07T10:33:04.000Z</time>
      </trkpt>
      <trkpt lat="47.94895" lon="16.2355">
        <ele>284.87579</ele>
        <time>2026-07-07T10:33:05.000Z</time>
      </trkpt>
      <trkpt lat="47.9489" lon="16.23547">
        <ele>284.936191</ele>
        <time>2026-07-07T10:33:06.000Z</time>
      </trkpt>
      <trkpt lat="47.94885" lon="16.23545">
        <ele>284.992398</ele>
        <time>2026-07-07T10:33:07.000Z</time>
      </trkpt>
      <trkpt lat="47.94881" lon="16.23543">
        <ele>285.043942</ele>
        <time>2026-07-07T10:33:08.000Z</time>
      </trkpt>
      <trkpt lat="47.94877" lon="16.23541">
        <ele>285.090581</ele>
        <time>2026-07-07T10:33:09.000Z</time>
      </trkpt>
      <trkpt lat="47.94873" lon="16.23539">
        <ele>285.131275</ele>
        <time>2026-07-07T10:33:10.000Z</time>
      </trkpt>
      <trkpt lat="47.9487" lon="16.23538">
        <ele>285.16543</ele>
        <time>2026-07-07T10:33:11.000Z</time>
      </trkpt>
      <trkpt lat="47.94867" lon="16.23536">
        <ele>285.200182</ele>
        <time>2026-07-07T10:33:12.000Z</time>
      </trkpt>
      <trkpt lat="47.94864" lon="16.23535">
        <ele>285.240059</ele>
        <time>2026-07-07T10:33:13.000Z</time>
      </trkpt>
      <trkpt lat="47.9486" lon="16.23533">
        <ele>285.284137</ele>
        <time>2026-07-07T10:33:14.000Z</time>
      </trkpt>
      <trkpt lat="47.94856" lon="16.2353">
        <ele>285.336614</ele>
        <time>2026-07-07T10:33:15.000Z</time>
      </trkpt>
      <trkpt lat="47.94851" lon="16.23527">
        <ele>285.393728</ele>
        <time>2026-07-07T10:33:17.000Z</time>
      </trkpt>
      <trkpt lat="47.94846" lon="16.23524">
        <ele>285.453875</ele>
        <time>2026-07-07T10:33:18.000Z</time>
      </trkpt>
      <trkpt lat="47.94841" lon="16.23521">
        <ele>285.515782</ele>
        <time>2026-07-07T10:33:19.000Z</time>
      </trkpt>
      <trkpt lat="47.94836" lon="16.23517">
        <ele>285.576528</ele>
        <time>2026-07-07T10:33:20.000Z</time>
      </trkpt>
      <trkpt lat="47.94831" lon="16.23514">
        <ele>285.636388</ele>
        <time>2026-07-07T10:33:21.000Z</time>
      </trkpt>
      <trkpt lat="47.94826" lon="16.23511">
        <ele>285.693138</ele>
        <time>2026-07-07T10:33:22.000Z</time>
      </trkpt>
      <trkpt lat="47.94822" lon="16.23508">
        <ele>285.74857</ele>
        <time>2026-07-07T10:33:23.000Z</time>
      </trkpt>
      <trkpt lat="47.94818" lon="16.23504">
        <ele>285.800704</ele>
        <time>2026-07-07T10:33:24.000Z</time>
      </trkpt>
      <trkpt lat="47.94813" lon="16.23502">
        <ele>285.852572</ele>
        <time>2026-07-07T10:33:25.000Z</time>
      </trkpt>
      <trkpt lat="47.94809" lon="16.23499">
        <ele>285.90405</ele>
        <time>2026-07-07T10:33:26.000Z</time>
      </trkpt>
      <trkpt lat="47.94805" lon="16.23496">
        <ele>285.954906</ele>
        <time>2026-07-07T10:33:27.000Z</time>
      </trkpt>
      <trkpt lat="47.94796" lon="16.2349">
        <ele>286.060384</ele>
        <time>2026-07-07T10:33:29.000Z</time>
      </trkpt>
      <trkpt lat="47.94791" lon="16.23488">
        <ele>286.115549</ele>
        <time>2026-07-07T10:33:30.000Z</time>
      </trkpt>
      <trkpt lat="47.94787" lon="16.23485">
        <ele>286.169673</ele>
        <time>2026-07-07T10:33:31.000Z</time>
      </trkpt>
      <trkpt lat="47.94782" lon="16.23483">
        <ele>286.223295</ele>
        <time>2026-07-07T10:33:32.000Z</time>
      </trkpt>
      <trkpt lat="47.94773" lon="16.23477">
        <ele>286.333425</ele>
        <time>2026-07-07T10:33:33.000Z</time>
      </trkpt>
      <trkpt lat="47.94768" lon="16.23474">
        <ele>286.388842</ele>
        <time>2026-07-07T10:33:34.000Z</time>
      </trkpt>
      <trkpt lat="47.94764" lon="16.23471">
        <ele>286.446376</ele>
        <time>2026-07-07T10:33:35.000Z</time>
      </trkpt>
      <trkpt lat="47.94759" lon="16.23468">
        <ele>286.504497</ele>
        <time>2026-07-07T10:33:36.000Z</time>
      </trkpt>
      <trkpt lat="47.94754" lon="16.23465">
        <ele>286.563052</ele>
        <time>2026-07-07T10:33:37.000Z</time>
      </trkpt>
      <trkpt lat="47.94749" lon="16.23462">
        <ele>286.623199</ele>
        <time>2026-07-07T10:33:38.000Z</time>
      </trkpt>
      <trkpt lat="47.94744" lon="16.23459">
        <ele>286.683642</ele>
        <time>2026-07-07T10:33:39.000Z</time>
      </trkpt>
      <trkpt lat="47.94739" lon="16.23456">
        <ele>286.743222</ele>
        <time>2026-07-07T10:33:40.000Z</time>
      </trkpt>
      <trkpt lat="47.94734" lon="16.23453">
        <ele>286.802265</ele>
        <time>2026-07-07T10:33:41.000Z</time>
      </trkpt>
      <trkpt lat="47.94729" lon="16.2345">
        <ele>286.862371</ele>
        <time>2026-07-07T10:33:42.000Z</time>
      </trkpt>
      <trkpt lat="47.94724" lon="16.23447">
        <ele>286.922079</ele>
        <time>2026-07-07T10:33:43.000Z</time>
      </trkpt>
      <trkpt lat="47.94719" lon="16.23444">
        <ele>286.982054</ele>
        <time>2026-07-07T10:33:44.000Z</time>
      </trkpt>
      <trkpt lat="47.94714" lon="16.23441">
        <ele>287.042304</ele>
        <time>2026-07-07T10:33:45.000Z</time>
      </trkpt>
      <trkpt lat="47.94709" lon="16.23438">
        <ele>287.101806</ele>
        <time>2026-07-07T10:33:46.000Z</time>
      </trkpt>
      <trkpt lat="47.94704" lon="16.23435">
        <ele>287.162056</ele>
        <time>2026-07-07T10:33:47.000Z</time>
      </trkpt>
      <trkpt lat="47.94699" lon="16.23432">
        <ele>287.220237</ele>
        <time>2026-07-07T10:33:48.000Z</time>
      </trkpt>
      <trkpt lat="47.94694" lon="16.23429">
        <ele>287.280212</ele>
        <time>2026-07-07T10:33:49.000Z</time>
      </trkpt>
      <trkpt lat="47.94689" lon="16.23427">
        <ele>287.336254</ele>
        <time>2026-07-07T10:33:50.000Z</time>
      </trkpt>
      <trkpt lat="47.94685" lon="16.23424">
        <ele>287.390988</ele>
        <time>2026-07-07T10:33:51.000Z</time>
      </trkpt>
      <trkpt lat="47.9468" lon="16.23422">
        <ele>287.444177</ele>
        <time>2026-07-07T10:33:52.000Z</time>
      </trkpt>
      <trkpt lat="47.94676" lon="16.23419">
        <ele>287.493572</ele>
        <time>2026-07-07T10:33:53.000Z</time>
      </trkpt>
      <trkpt lat="47.94672" lon="16.23416">
        <ele>287.54329</ele>
        <time>2026-07-07T10:33:54.000Z</time>
      </trkpt>
      <trkpt lat="47.94668" lon="16.23413">
        <ele>287.594885</ele>
        <time>2026-07-07T10:33:55.000Z</time>
      </trkpt>
      <trkpt lat="47.94664" lon="16.23411">
        <ele>287.64648</ele>
        <time>2026-07-07T10:33:56.000Z</time>
      </trkpt>
      <trkpt lat="47.94659" lon="16.23408">
        <ele>287.702266</ele>
        <time>2026-07-07T10:33:57.000Z</time>
      </trkpt>
      <trkpt lat="47.94655" lon="16.23406">
        <ele>287.755446</ele>
        <time>2026-07-07T10:33:58.000Z</time>
      </trkpt>
      <trkpt lat="47.9465" lon="16.23404">
        <ele>287.811232</ele>
        <time>2026-07-07T10:33:59.000Z</time>
      </trkpt>
      <trkpt lat="47.94645" lon="16.23401">
        <ele>287.865457</ele>
        <time>2026-07-07T10:34:00.000Z</time>
      </trkpt>
      <trkpt lat="47.94641" lon="16.23398">
        <ele>287.919966</ele>
        <time>2026-07-07T10:34:01.000Z</time>
      </trkpt>
      <trkpt lat="47.94636" lon="16.23395">
        <ele>287.975509</ele>
        <time>2026-07-07T10:34:02.000Z</time>
      </trkpt>
      <trkpt lat="47.94631" lon="16.23392">
        <ele>288.034443</ele>
        <time>2026-07-07T10:34:03.000Z</time>
      </trkpt>
      <trkpt lat="47.94627" lon="16.2339">
        <ele>288.092062</ele>
        <time>2026-07-07T10:34:04.000Z</time>
      </trkpt>
      <trkpt lat="47.94622" lon="16.23387">
        <ele>288.15177</ele>
        <time>2026-07-07T10:34:05.000Z</time>
      </trkpt>
      <trkpt lat="47.94617" lon="16.23384">
        <ele>288.209121</ele>
        <time>2026-07-07T10:34:06.000Z</time>
      </trkpt>
      <trkpt lat="47.94612" lon="16.23381">
        <ele>288.268829</ele>
        <time>2026-07-07T10:34:07.000Z</time>
      </trkpt>
      <trkpt lat="47.94607" lon="16.23378">
        <ele>288.327763</ele>
        <time>2026-07-07T10:34:08.000Z</time>
      </trkpt>
      <trkpt lat="47.94602" lon="16.23376">
        <ele>288.385383</ele>
        <time>2026-07-07T10:34:09.000Z</time>
      </trkpt>
      <trkpt lat="47.94597" lon="16.23373">
        <ele>288.445091</ele>
        <time>2026-07-07T10:34:10.000Z</time>
      </trkpt>
      <trkpt lat="47.94592" lon="16.2337">
        <ele>288.502442</ele>
        <time>2026-07-07T10:34:11.000Z</time>
      </trkpt>
      <trkpt lat="47.94587" lon="16.23367">
        <ele>288.56215</ele>
        <time>2026-07-07T10:34:12.000Z</time>
      </trkpt>
      <trkpt lat="47.94582" lon="16.23365">
        <ele>288.621599</ele>
        <time>2026-07-07T10:34:13.000Z</time>
      </trkpt>
      <trkpt lat="47.94578" lon="16.23362">
        <ele>288.678178</ele>
        <time>2026-07-07T10:34:14.000Z</time>
      </trkpt>
      <trkpt lat="47.94573" lon="16.23359">
        <ele>288.73553</ele>
        <time>2026-07-07T10:34:15.000Z</time>
      </trkpt>
      <trkpt lat="47.94568" lon="16.23356">
        <ele>288.792109</ele>
        <time>2026-07-07T10:34:16.000Z</time>
      </trkpt>
      <trkpt lat="47.94563" lon="16.23354">
        <ele>288.848403</ele>
        <time>2026-07-07T10:34:17.000Z</time>
      </trkpt>
      <trkpt lat="47.94559" lon="16.23351">
        <ele>288.865261</ele>
        <time>2026-07-07T10:34:18.000Z</time>
      </trkpt>
      <trkpt lat="47.94554" lon="16.23348">
        <ele>288.881659</ele>
        <time>2026-07-07T10:34:19.000Z</time>
      </trkpt>
      <trkpt lat="47.94549" lon="16.23346">
        <ele>288.897986</ele>
        <time>2026-07-07T10:34:20.000Z</time>
      </trkpt>
      <trkpt lat="47.94545" lon="16.23343">
        <ele>288.914618</ele>
        <time>2026-07-07T10:34:21.000Z</time>
      </trkpt>
      <trkpt lat="47.9454" lon="16.2334">
        <ele>288.931169</ele>
        <time>2026-07-07T10:34:22.000Z</time>
      </trkpt>
      <trkpt lat="47.94535" lon="16.23338">
        <ele>288.947258</ele>
        <time>2026-07-07T10:34:23.000Z</time>
      </trkpt>
      <trkpt lat="47.9453" lon="16.23335">
        <ele>288.964588</ele>
        <time>2026-07-07T10:34:24.000Z</time>
      </trkpt>
      <trkpt lat="47.94526" lon="16.23332">
        <ele>288.981139</ele>
        <time>2026-07-07T10:34:25.000Z</time>
      </trkpt>
      <trkpt lat="47.94521" lon="16.2333">
        <ele>288.998077</ele>
        <time>2026-07-07T10:34:26.000Z</time>
      </trkpt>
      <trkpt lat="47.94516" lon="16.23327">
        <ele>289.014016</ele>
        <time>2026-07-07T10:34:27.000Z</time>
      </trkpt>
      <trkpt lat="47.94512" lon="16.23324">
        <ele>289.030648</ele>
        <time>2026-07-07T10:34:28.000Z</time>
      </trkpt>
      <trkpt lat="47.94507" lon="16.23321">
        <ele>289.046671</ele>
        <time>2026-07-07T10:34:29.000Z</time>
      </trkpt>
      <trkpt lat="47.94503" lon="16.23318">
        <ele>289.062868</ele>
        <time>2026-07-07T10:34:30.000Z</time>
      </trkpt>
      <trkpt lat="47.94498" lon="16.23315">
        <ele>289.078468</ele>
        <time>2026-07-07T10:34:31.000Z</time>
      </trkpt>
      <trkpt lat="47.94494" lon="16.23312">
        <ele>289.094853</ele>
        <time>2026-07-07T10:34:32.000Z</time>
      </trkpt>
      <trkpt lat="47.9449" lon="16.23308">
        <ele>289.108973</ele>
        <time>2026-07-07T10:34:33.000Z</time>
      </trkpt>
      <trkpt lat="47.94487" lon="16.23305">
        <ele>289.122011</ele>
        <time>2026-07-07T10:34:34.000Z</time>
      </trkpt>
      <trkpt lat="47.94484" lon="16.23302">
        <ele>289.134669</ele>
        <time>2026-07-07T10:34:35.000Z</time>
      </trkpt>
      <trkpt lat="47.94481" lon="16.23299">
        <ele>289.146465</ele>
        <time>2026-07-07T10:34:36.000Z</time>
      </trkpt>
      <trkpt lat="47.94477" lon="16.23296">
        <ele>289.159813</ele>
        <time>2026-07-07T10:34:37.000Z</time>
      </trkpt>
      <trkpt lat="47.94473" lon="16.23294">
        <ele>289.17313</ele>
        <time>2026-07-07T10:34:38.000Z</time>
      </trkpt>
      <trkpt lat="47.94469" lon="16.23292">
        <ele>289.187759</ele>
        <time>2026-07-07T10:34:39.000Z</time>
      </trkpt>
      <trkpt lat="47.94465" lon="16.2329">
        <ele>289.203071</ele>
        <time>2026-07-07T10:34:40.000Z</time>
      </trkpt>
      <trkpt lat="47.9446" lon="16.23289">
        <ele>289.218178</ele>
        <time>2026-07-07T10:34:41.000Z</time>
      </trkpt>
      <trkpt lat="47.94455" lon="16.23288">
        <ele>289.233814</ele>
        <time>2026-07-07T10:34:42.000Z</time>
      </trkpt>
      <trkpt lat="47.94451" lon="16.23286">
        <ele>289.249245</ele>
        <time>2026-07-07T10:34:43.000Z</time>
      </trkpt>
      <trkpt lat="47.94447" lon="16.23283">
        <ele>289.264577</ele>
        <time>2026-07-07T10:34:44.000Z</time>
      </trkpt>
      <trkpt lat="47.94442" lon="16.23281">
        <ele>289.280833</ele>
        <time>2026-07-07T10:34:45.000Z</time>
      </trkpt>
      <trkpt lat="47.94437" lon="16.23279">
        <ele>289.297335</ele>
        <time>2026-07-07T10:34:46.000Z</time>
      </trkpt>
      <trkpt lat="47.94432" lon="16.23276">
        <ele>289.314531</ele>
        <time>2026-07-07T10:34:47.000Z</time>
      </trkpt>
      <trkpt lat="47.94427" lon="16.23274">
        <ele>289.331792</ele>
        <time>2026-07-07T10:34:48.000Z</time>
      </trkpt>
      <trkpt lat="47.94422" lon="16.23272">
        <ele>289.349441</ele>
        <time>2026-07-07T10:34:49.000Z</time>
      </trkpt>
      <trkpt lat="47.94416" lon="16.2327">
        <ele>289.367857</ele>
        <time>2026-07-07T10:34:50.000Z</time>
      </trkpt>
      <trkpt lat="47.94411" lon="16.23269">
        <ele>289.386042</ele>
        <time>2026-07-07T10:34:51.000Z</time>
      </trkpt>
      <trkpt lat="47.94405" lon="16.23269">
        <ele>289.404151</ele>
        <time>2026-07-07T10:34:52.000Z</time>
      </trkpt>
      <trkpt lat="47.944" lon="16.23269">
        <ele>289.421572</ele>
        <time>2026-07-07T10:34:53.000Z</time>
      </trkpt>
      <trkpt lat="47.94395" lon="16.23269">
        <ele>289.439026</ele>
        <time>2026-07-07T10:34:54.000Z</time>
      </trkpt>
      <trkpt lat="47.9439" lon="16.2327">
        <ele>289.470703</ele>
        <time>2026-07-07T10:34:55.000Z</time>
      </trkpt>
      <trkpt lat="47.94384" lon="16.23271">
        <ele>289.502828</ele>
        <time>2026-07-07T10:34:56.000Z</time>
      </trkpt>
      <trkpt lat="47.94379" lon="16.23272">
        <ele>289.533777</ele>
        <time>2026-07-07T10:34:57.000Z</time>
      </trkpt>
      <trkpt lat="47.94375" lon="16.23273">
        <ele>289.563561</ele>
        <time>2026-07-07T10:34:58.000Z</time>
      </trkpt>
      <trkpt lat="47.9437" lon="16.23274">
        <ele>289.592632</ele>
        <time>2026-07-07T10:34:59.000Z</time>
      </trkpt>
      <trkpt lat="47.94366" lon="16.23275">
        <ele>289.618307</ele>
        <time>2026-07-07T10:35:00.000Z</time>
      </trkpt>
      <trkpt lat="47.94362" lon="16.23276">
        <ele>289.643465</ele>
        <time>2026-07-07T10:35:01.000Z</time>
      </trkpt>
      <trkpt lat="47.94357" lon="16.23277">
        <ele>289.670816</ele>
        <time>2026-07-07T10:35:02.000Z</time>
      </trkpt>
      <trkpt lat="47.94353" lon="16.23277">
        <ele>289.698483</ele>
        <time>2026-07-07T10:35:03.000Z</time>
      </trkpt>
      <trkpt lat="47.94348" lon="16.23277">
        <ele>289.729827</ele>
        <time>2026-07-07T10:35:04.000Z</time>
      </trkpt>
      <trkpt lat="47.94342" lon="16.23277">
        <ele>289.763012</ele>
        <time>2026-07-07T10:35:05.000Z</time>
      </trkpt>
      <trkpt lat="47.94337" lon="16.23277">
        <ele>289.796874</ele>
        <time>2026-07-07T10:35:06.000Z</time>
      </trkpt>
      <trkpt lat="47.94332" lon="16.23278">
        <ele>289.829611</ele>
        <time>2026-07-07T10:35:07.000Z</time>
      </trkpt>
      <trkpt lat="47.94326" lon="16.23279">
        <ele>289.863571</ele>
        <time>2026-07-07T10:35:08.000Z</time>
      </trkpt>
      <trkpt lat="47.94321" lon="16.2328">
        <ele>289.897573</ele>
        <time>2026-07-07T10:35:09.000Z</time>
      </trkpt>
      <trkpt lat="47.94315" lon="16.2328">
        <ele>289.930237</ele>
        <time>2026-07-07T10:35:10.000Z</time>
      </trkpt>
      <trkpt lat="47.9431" lon="16.23281">
        <ele>289.963677</ele>
        <time>2026-07-07T10:35:11.000Z</time>
      </trkpt>
      <trkpt lat="47.94305" lon="16.23282">
        <ele>289.99515</ele>
        <time>2026-07-07T10:35:12.000Z</time>
      </trkpt>
      <trkpt lat="47.943" lon="16.23283">
        <ele>290.027173</ele>
        <time>2026-07-07T10:35:13.000Z</time>
      </trkpt>
      <trkpt lat="47.94295" lon="16.23283">
        <ele>290.056811</ele>
        <time>2026-07-07T10:35:14.000Z</time>
      </trkpt>
      <trkpt lat="47.9429" lon="16.23284">
        <ele>290.087203</ele>
        <time>2026-07-07T10:35:15.000Z</time>
      </trkpt>
      <trkpt lat="47.94285" lon="16.23285">
        <ele>290.116885</ele>
        <time>2026-07-07T10:35:16.000Z</time>
      </trkpt>
      <trkpt lat="47.9428" lon="16.23286">
        <ele>290.145841</ele>
        <time>2026-07-07T10:35:17.000Z</time>
      </trkpt>
      <trkpt lat="47.94276" lon="16.23286">
        <ele>290.174257</ele>
        <time>2026-07-07T10:35:18.000Z</time>
      </trkpt>
      <trkpt lat="47.94271" lon="16.23287">
        <ele>290.201409</ele>
        <time>2026-07-07T10:35:19.000Z</time>
      </trkpt>
      <trkpt lat="47.94267" lon="16.23288">
        <ele>290.228093</ele>
        <time>2026-07-07T10:35:20.000Z</time>
      </trkpt>
      <trkpt lat="47.94263" lon="16.23288">
        <ele>290.254633</ele>
        <time>2026-07-07T10:35:21.000Z</time>
      </trkpt>
      <trkpt lat="47.94258" lon="16.23289">
        <ele>290.281751</ele>
        <time>2026-07-07T10:35:22.000Z</time>
      </trkpt>
      <trkpt lat="47.94254" lon="16.2329">
        <ele>290.308333</ele>
        <time>2026-07-07T10:35:23.000Z</time>
      </trkpt>
      <trkpt lat="47.9425" lon="16.2329">
        <ele>290.336064</ele>
        <time>2026-07-07T10:35:24.000Z</time>
      </trkpt>
      <trkpt lat="47.94245" lon="16.23291">
        <ele>290.363913</ele>
        <time>2026-07-07T10:35:25.000Z</time>
      </trkpt>
      <trkpt lat="47.94241" lon="16.23292">
        <ele>290.391815</ele>
        <time>2026-07-07T10:35:26.000Z</time>
      </trkpt>
      <trkpt lat="47.94236" lon="16.23292">
        <ele>290.419579</ele>
        <time>2026-07-07T10:35:27.000Z</time>
      </trkpt>
      <trkpt lat="47.94232" lon="16.23293">
        <ele>290.447383</ele>
        <time>2026-07-07T10:35:28.000Z</time>
      </trkpt>
      <trkpt lat="47.94227" lon="16.23294">
        <ele>290.473888</ele>
        <time>2026-07-07T10:35:29.000Z</time>
      </trkpt>
      <trkpt lat="47.94223" lon="16.23295">
        <ele>290.50124</ele>
        <time>2026-07-07T10:35:30.000Z</time>
      </trkpt>
      <trkpt lat="47.94219" lon="16.23295">
        <ele>290.527869</ele>
        <time>2026-07-07T10:35:31.000Z</time>
      </trkpt>
      <trkpt lat="47.94214" lon="16.23296">
        <ele>290.55601</ele>
        <time>2026-07-07T10:35:32.000Z</time>
      </trkpt>
      <trkpt lat="47.94209" lon="16.23296">
        <ele>290.586179</ele>
        <time>2026-07-07T10:35:33.000Z</time>
      </trkpt>
      <trkpt lat="47.94205" lon="16.23296">
        <ele>290.615784</ele>
        <time>2026-07-07T10:35:34.000Z</time>
      </trkpt>
      <trkpt lat="47.942" lon="16.23297">
        <ele>290.647424</ele>
        <time>2026-07-07T10:35:35.000Z</time>
      </trkpt>
      <trkpt lat="47.94195" lon="16.23298">
        <ele>290.678477</ele>
        <time>2026-07-07T10:35:36.000Z</time>
      </trkpt>
      <trkpt lat="47.9419" lon="16.23298">
        <ele>290.709396</ele>
        <time>2026-07-07T10:35:37.000Z</time>
      </trkpt>
      <trkpt lat="47.94185" lon="16.23299">
        <ele>290.740992</ele>
        <time>2026-07-07T10:35:38.000Z</time>
      </trkpt>
      <trkpt lat="47.9418" lon="16.233">
        <ele>290.773159</ele>
        <time>2026-07-07T10:35:39.000Z</time>
      </trkpt>
      <trkpt lat="47.94176" lon="16.233">
        <ele>290.804044</ele>
        <time>2026-07-07T10:35:40.000Z</time>
      </trkpt>
      <trkpt lat="47.94171" lon="16.23301">
        <ele>290.834409</ele>
        <time>2026-07-07T10:35:41.000Z</time>
      </trkpt>
      <trkpt lat="47.94166" lon="16.23302">
        <ele>290.865518</ele>
        <time>2026-07-07T10:35:42.000Z</time>
      </trkpt>
      <trkpt lat="47.94161" lon="16.23303">
        <ele>290.895934</ele>
        <time>2026-07-07T10:35:43.000Z</time>
      </trkpt>
      <trkpt lat="47.94157" lon="16.23304">
        <ele>290.927106</ele>
        <time>2026-07-07T10:35:44.000Z</time>
      </trkpt>
      <trkpt lat="47.94152" lon="16.23305">
        <ele>290.958215</ele>
        <time>2026-07-07T10:35:45.000Z</time>
      </trkpt>
      <trkpt lat="47.94147" lon="16.23306">
        <ele>290.988689</ele>
        <time>2026-07-07T10:35:46.000Z</time>
      </trkpt>
      <trkpt lat="47.94142" lon="16.23307">
        <ele>291.019105</ele>
        <time>2026-07-07T10:35:47.000Z</time>
      </trkpt>
      <trkpt lat="47.94138" lon="16.23308">
        <ele>291.049009</ele>
        <time>2026-07-07T10:35:48.000Z</time>
      </trkpt>
      <trkpt lat="47.94133" lon="16.23309">
        <ele>291.077886</ele>
        <time>2026-07-07T10:35:49.000Z</time>
      </trkpt>
      <trkpt lat="47.94129" lon="16.23311">
        <ele>291.106048</ele>
        <time>2026-07-07T10:35:50.000Z</time>
      </trkpt>
      <trkpt lat="47.94125" lon="16.23312">
        <ele>291.132237</ele>
        <time>2026-07-07T10:35:51.000Z</time>
      </trkpt>
      <trkpt lat="47.94121" lon="16.23313">
        <ele>291.159608</ele>
        <time>2026-07-07T10:35:52.000Z</time>
      </trkpt>
      <trkpt lat="47.94117" lon="16.23314">
        <ele>291.18748</ele>
        <time>2026-07-07T10:35:53.000Z</time>
      </trkpt>
      <trkpt lat="47.94112" lon="16.23315">
        <ele>291.216569</ele>
        <time>2026-07-07T10:35:54.000Z</time>
      </trkpt>
      <trkpt lat="47.94107" lon="16.23315">
        <ele>291.246933</ele>
        <time>2026-07-07T10:35:55.000Z</time>
      </trkpt>
      <trkpt lat="47.94102" lon="16.23316">
        <ele>291.279169</ele>
        <time>2026-07-07T10:35:56.000Z</time>
      </trkpt>
      <trkpt lat="47.94097" lon="16.23317">
        <ele>291.311404</ele>
        <time>2026-07-07T10:35:57.000Z</time>
      </trkpt>
      <trkpt lat="47.94092" lon="16.23317">
        <ele>291.343602</ele>
        <time>2026-07-07T10:35:58.000Z</time>
      </trkpt>
      <trkpt lat="47.94087" lon="16.23318">
        <ele>291.376409</ele>
        <time>2026-07-07T10:35:59.000Z</time>
      </trkpt>
      <trkpt lat="47.94082" lon="16.23319">
        <ele>291.409923</ele>
        <time>2026-07-07T10:36:00.000Z</time>
      </trkpt>
      <trkpt lat="47.94077" lon="16.23319">
        <ele>291.44337</ele>
        <time>2026-07-07T10:36:01.000Z</time>
      </trkpt>
      <trkpt lat="47.94072" lon="16.2332">
        <ele>291.476177</ele>
        <time>2026-07-07T10:36:02.000Z</time>
      </trkpt>
      <trkpt lat="47.94067" lon="16.2332">
        <ele>291.508344</ele>
        <time>2026-07-07T10:36:03.000Z</time>
      </trkpt>
      <trkpt lat="47.94062" lon="16.23321">
        <ele>291.541899</ele>
        <time>2026-07-07T10:36:04.000Z</time>
      </trkpt>
      <trkpt lat="47.94056" lon="16.23322">
        <ele>291.576052</ele>
        <time>2026-07-07T10:36:05.000Z</time>
      </trkpt>
      <trkpt lat="47.94051" lon="16.23322">
        <ele>291.609566</ele>
        <time>2026-07-07T10:36:06.000Z</time>
      </trkpt>
      <trkpt lat="47.94046" lon="16.23323">
        <ele>291.643684</ele>
        <time>2026-07-07T10:36:07.000Z</time>
      </trkpt>
      <trkpt lat="47.94041" lon="16.23323">
        <ele>291.677106</ele>
        <time>2026-07-07T10:36:08.000Z</time>
      </trkpt>
      <trkpt lat="47.94035" lon="16.23324">
        <ele>291.691347</ele>
        <time>2026-07-07T10:36:09.000Z</time>
      </trkpt>
      <trkpt lat="47.9403" lon="16.23324">
        <ele>291.667577</ele>
        <time>2026-07-07T10:36:10.000Z</time>
      </trkpt>
      <trkpt lat="47.94025" lon="16.23325">
        <ele>291.644243</ele>
        <time>2026-07-07T10:36:11.000Z</time>
      </trkpt>
      <trkpt lat="47.9402" lon="16.23326">
        <ele>291.620878</ele>
        <time>2026-07-07T10:36:12.000Z</time>
      </trkpt>
      <trkpt lat="47.94015" lon="16.23326">
        <ele>291.597594</ele>
        <time>2026-07-07T10:36:13.000Z</time>
      </trkpt>
      <trkpt lat="47.9401" lon="16.23327">
        <ele>291.57426</ele>
        <time>2026-07-07T10:36:14.000Z</time>
      </trkpt>
      <trkpt lat="47.94005" lon="16.23328">
        <ele>291.549971</ele>
        <time>2026-07-07T10:36:15.000Z</time>
      </trkpt>
      <trkpt lat="47.94" lon="16.23329">
        <ele>291.526571</ele>
        <time>2026-07-07T10:36:16.000Z</time>
      </trkpt>
      <trkpt lat="47.93995" lon="16.23329">
        <ele>291.502337</ele>
        <time>2026-07-07T10:36:17.000Z</time>
      </trkpt>
      <trkpt lat="47.9399" lon="16.2333">
        <ele>291.477662</ele>
        <time>2026-07-07T10:36:18.000Z</time>
      </trkpt>
      <trkpt lat="47.93984" lon="16.23331">
        <ele>291.453403</ele>
        <time>2026-07-07T10:36:19.000Z</time>
      </trkpt>
      <trkpt lat="47.93979" lon="16.23331">
        <ele>291.428681</ele>
        <time>2026-07-07T10:36:20.000Z</time>
      </trkpt>
      <trkpt lat="47.93974" lon="16.23332">
        <ele>291.403984</ele>
        <time>2026-07-07T10:36:21.000Z</time>
      </trkpt>
      <trkpt lat="47.93969" lon="16.23332">
        <ele>291.379773</ele>
        <time>2026-07-07T10:36:22.000Z</time>
      </trkpt>
      <trkpt lat="47.93963" lon="16.23333">
        <ele>291.355098</ele>
        <time>2026-07-07T10:36:23.000Z</time>
      </trkpt>
      <trkpt lat="47.93958" lon="16.23333">
        <ele>291.329495</ele>
        <time>2026-07-07T10:36:24.000Z</time>
      </trkpt>
      <trkpt lat="47.93952" lon="16.23334">
        <ele>291.303893</ele>
        <time>2026-07-07T10:36:25.000Z</time>
      </trkpt>
      <trkpt lat="47.93947" lon="16.23335">
        <ele>291.277319</ele>
        <time>2026-07-07T10:36:26.000Z</time>
      </trkpt>
      <trkpt lat="47.93941" lon="16.23335">
        <ele>291.251643</ele>
        <time>2026-07-07T10:36:27.000Z</time>
      </trkpt>
      <trkpt lat="47.93935" lon="16.23336">
        <ele>291.225069</ele>
        <time>2026-07-07T10:36:28.000Z</time>
      </trkpt>
      <trkpt lat="47.9393" lon="16.23337">
        <ele>291.199466</ele>
        <time>2026-07-07T10:36:29.000Z</time>
      </trkpt>
      <trkpt lat="47.93924" lon="16.23337">
        <ele>291.173864</ele>
        <time>2026-07-07T10:36:30.000Z</time>
      </trkpt>
      <trkpt lat="47.93919" lon="16.23338">
        <ele>291.148261</ele>
        <time>2026-07-07T10:36:31.000Z</time>
      </trkpt>
      <trkpt lat="47.93913" lon="16.23338">
        <ele>291.12215</ele>
        <time>2026-07-07T10:36:32.000Z</time>
      </trkpt>
      <trkpt lat="47.93908" lon="16.23339">
        <ele>291.095649</ele>
        <time>2026-07-07T10:36:33.000Z</time>
      </trkpt>
      <trkpt lat="47.93902" lon="16.23339">
        <ele>291.068655</ele>
        <time>2026-07-07T10:36:34.000Z</time>
      </trkpt>
      <trkpt lat="47.93896" lon="16.2334">
        <ele>291.041155</ele>
        <time>2026-07-07T10:36:35.000Z</time>
      </trkpt>
      <trkpt lat="47.9389" lon="16.23341">
        <ele>291.014091</ele>
        <time>2026-07-07T10:36:36.000Z</time>
      </trkpt>
      <trkpt lat="47.93884" lon="16.23342">
        <ele>290.98604</ele>
        <time>2026-07-07T10:36:37.000Z</time>
      </trkpt>
      <trkpt lat="47.93878" lon="16.23342">
        <ele>290.95951</ele>
        <time>2026-07-07T10:36:38.000Z</time>
      </trkpt>
      <trkpt lat="47.93873" lon="16.23342">
        <ele>290.933937</ele>
        <time>2026-07-07T10:36:39.000Z</time>
      </trkpt>
      <trkpt lat="47.93867" lon="16.23343">
        <ele>290.908352</ele>
        <time>2026-07-07T10:36:40.000Z</time>
      </trkpt>
      <trkpt lat="47.93862" lon="16.23343">
        <ele>290.882749</ele>
        <time>2026-07-07T10:36:41.000Z</time>
      </trkpt>
      <trkpt lat="47.93856" lon="16.23344">
        <ele>290.863229</ele>
        <time>2026-07-07T10:36:42.000Z</time>
      </trkpt>
      <trkpt lat="47.93851" lon="16.23345">
        <ele>290.861499</ele>
        <time>2026-07-07T10:36:43.000Z</time>
      </trkpt>
      <trkpt lat="47.93846" lon="16.23345">
        <ele>290.859774</ele>
        <time>2026-07-07T10:36:44.000Z</time>
      </trkpt>
      <trkpt lat="47.93841" lon="16.23346">
        <ele>290.858078</ele>
        <time>2026-07-07T10:36:45.000Z</time>
      </trkpt>
      <trkpt lat="47.93835" lon="16.23347">
        <ele>290.856349</ele>
        <time>2026-07-07T10:36:46.000Z</time>
      </trkpt>
      <trkpt lat="47.9383" lon="16.23347">
        <ele>290.85472</ele>
        <time>2026-07-07T10:36:47.000Z</time>
      </trkpt>
      <trkpt lat="47.93825" lon="16.23348">
        <ele>290.852955</ele>
        <time>2026-07-07T10:36:48.000Z</time>
      </trkpt>
      <trkpt lat="47.9382" lon="16.23349">
        <ele>290.851293</ele>
        <time>2026-07-07T10:36:49.000Z</time>
      </trkpt>
      <trkpt lat="47.93815" lon="16.2335">
        <ele>290.849598</ele>
        <time>2026-07-07T10:36:50.000Z</time>
      </trkpt>
      <trkpt lat="47.93809" lon="16.2335">
        <ele>290.847869</ele>
        <time>2026-07-07T10:36:51.000Z</time>
      </trkpt>
      <trkpt lat="47.93804" lon="16.23351">
        <ele>290.846112</ele>
        <time>2026-07-07T10:36:52.000Z</time>
      </trkpt>
      <trkpt lat="47.93799" lon="16.23352">
        <ele>290.844382</ele>
        <time>2026-07-07T10:36:53.000Z</time>
      </trkpt>
      <trkpt lat="47.93793" lon="16.23353">
        <ele>290.842661</ele>
        <time>2026-07-07T10:36:54.000Z</time>
      </trkpt>
      <trkpt lat="47.93788" lon="16.23355">
        <ele>290.840931</ele>
        <time>2026-07-07T10:36:55.000Z</time>
      </trkpt>
      <trkpt lat="47.93782" lon="16.23358">
        <ele>290.838938</ele>
        <time>2026-07-07T10:36:56.000Z</time>
      </trkpt>
      <trkpt lat="47.93776" lon="16.2336">
        <ele>290.836755</ele>
        <time>2026-07-07T10:36:57.000Z</time>
      </trkpt>
      <trkpt lat="47.93769" lon="16.23361">
        <ele>290.83449</ele>
        <time>2026-07-07T10:36:58.000Z</time>
      </trkpt>
      <trkpt lat="47.93763" lon="16.23359">
        <ele>290.832466</ele>
        <time>2026-07-07T10:36:59.000Z</time>
      </trkpt>
      <trkpt lat="47.93757" lon="16.23359">
        <ele>290.830712</ele>
        <time>2026-07-07T10:37:00.000Z</time>
      </trkpt>
      <trkpt lat="47.93752" lon="16.23359">
        <ele>290.829055</ele>
        <time>2026-07-07T10:37:01.000Z</time>
      </trkpt>
      <trkpt lat="47.93747" lon="16.2336">
        <ele>290.827427</ele>
        <time>2026-07-07T10:37:02.000Z</time>
      </trkpt>
      <trkpt lat="47.93742" lon="16.2336">
        <ele>290.825794</ele>
        <time>2026-07-07T10:37:03.000Z</time>
      </trkpt>
      <trkpt lat="47.93737" lon="16.23361">
        <ele>290.824029</ele>
        <time>2026-07-07T10:37:04.000Z</time>
      </trkpt>
      <trkpt lat="47.93732" lon="16.23362">
        <ele>290.822302</ele>
        <time>2026-07-07T10:37:05.000Z</time>
      </trkpt>
      <trkpt lat="47.93726" lon="16.23363">
        <ele>290.820509</ele>
        <time>2026-07-07T10:37:06.000Z</time>
      </trkpt>
      <trkpt lat="47.93721" lon="16.23363">
        <ele>290.818784</ele>
        <time>2026-07-07T10:37:07.000Z</time>
      </trkpt>
      <trkpt lat="47.93715" lon="16.23364">
        <ele>290.816994</ele>
        <time>2026-07-07T10:37:08.000Z</time>
      </trkpt>
      <trkpt lat="47.9371" lon="16.23364">
        <ele>290.815234</ele>
        <time>2026-07-07T10:37:09.000Z</time>
      </trkpt>
      <trkpt lat="47.93704" lon="16.23365">
        <ele>290.813439</ele>
        <time>2026-07-07T10:37:10.000Z</time>
      </trkpt>
      <trkpt lat="47.93699" lon="16.23366">
        <ele>290.811617</ele>
        <time>2026-07-07T10:37:11.000Z</time>
      </trkpt>
      <trkpt lat="47.93693" lon="16.23366">
        <ele>290.809757</ele>
        <time>2026-07-07T10:37:12.000Z</time>
      </trkpt>
      <trkpt lat="47.93688" lon="16.23367">
        <ele>290.807964</ele>
        <time>2026-07-07T10:37:13.000Z</time>
      </trkpt>
      <trkpt lat="47.93682" lon="16.23368">
        <ele>290.806104</ele>
        <time>2026-07-07T10:37:14.000Z</time>
      </trkpt>
      <trkpt lat="47.93676" lon="16.23369">
        <ele>290.801076</ele>
        <time>2026-07-07T10:37:15.000Z</time>
      </trkpt>
      <trkpt lat="47.93671" lon="16.2337">
        <ele>290.793479</ele>
        <time>2026-07-07T10:37:16.000Z</time>
      </trkpt>
      <trkpt lat="47.93665" lon="16.23371">
        <ele>290.78563</ele>
        <time>2026-07-07T10:37:17.000Z</time>
      </trkpt>
      <trkpt lat="47.93659" lon="16.23372">
        <ele>290.777738</ele>
        <time>2026-07-07T10:37:18.000Z</time>
      </trkpt>
      <trkpt lat="47.93654" lon="16.23373">
        <ele>290.770005</ele>
        <time>2026-07-07T10:37:19.000Z</time>
      </trkpt>
      <trkpt lat="47.93648" lon="16.23374">
        <ele>290.761883</ele>
        <time>2026-07-07T10:37:20.000Z</time>
      </trkpt>
      <trkpt lat="47.93642" lon="16.23374">
        <ele>290.754178</ele>
        <time>2026-07-07T10:37:21.000Z</time>
      </trkpt>
      <trkpt lat="47.93636" lon="16.23375">
        <ele>290.746037</ele>
        <time>2026-07-07T10:37:22.000Z</time>
      </trkpt>
      <trkpt lat="47.93631" lon="16.23376">
        <ele>290.738065</ele>
        <time>2026-07-07T10:37:23.000Z</time>
      </trkpt>
      <trkpt lat="47.93625" lon="16.23377">
        <ele>290.730224</ele>
        <time>2026-07-07T10:37:24.000Z</time>
      </trkpt>
      <trkpt lat="47.93619" lon="16.23377">
        <ele>290.722532</ele>
        <time>2026-07-07T10:37:25.000Z</time>
      </trkpt>
      <trkpt lat="47.93613" lon="16.23378">
        <ele>290.71443</ele>
        <time>2026-07-07T10:37:26.000Z</time>
      </trkpt>
      <trkpt lat="47.93608" lon="16.23378">
        <ele>290.706739</ele>
        <time>2026-07-07T10:37:27.000Z</time>
      </trkpt>
      <trkpt lat="47.93602" lon="16.23378">
        <ele>290.698645</ele>
        <time>2026-07-07T10:37:28.000Z</time>
      </trkpt>
      <trkpt lat="47.93596" lon="16.23379">
        <ele>290.690922</ele>
        <time>2026-07-07T10:37:29.000Z</time>
      </trkpt>
      <trkpt lat="47.93591" lon="16.2338">
        <ele>290.683505</ele>
        <time>2026-07-07T10:37:30.000Z</time>
      </trkpt>
      <trkpt lat="47.93585" lon="16.23381">
        <ele>290.675928</ele>
        <time>2026-07-07T10:37:31.000Z</time>
      </trkpt>
      <trkpt lat="47.9358" lon="16.23381">
        <ele>290.668215</ele>
        <time>2026-07-07T10:37:32.000Z</time>
      </trkpt>
      <trkpt lat="47.93574" lon="16.23382">
        <ele>290.66066</ele>
        <time>2026-07-07T10:37:33.000Z</time>
      </trkpt>
      <trkpt lat="47.93569" lon="16.23382">
        <ele>290.652832</ele>
        <time>2026-07-07T10:37:34.000Z</time>
      </trkpt>
      <trkpt lat="47.93563" lon="16.23383">
        <ele>290.644973</ele>
        <time>2026-07-07T10:37:35.000Z</time>
      </trkpt>
      <trkpt lat="47.93557" lon="16.23384">
        <ele>290.637397</ele>
        <time>2026-07-07T10:37:36.000Z</time>
      </trkpt>
      <trkpt lat="47.93552" lon="16.23386">
        <ele>290.629293</ele>
        <time>2026-07-07T10:37:37.000Z</time>
      </trkpt>
      <trkpt lat="47.93546" lon="16.23387">
        <ele>290.621222</ele>
        <time>2026-07-07T10:37:38.000Z</time>
      </trkpt>
      <trkpt lat="47.9354" lon="16.23388">
        <ele>290.61307</ele>
        <time>2026-07-07T10:37:39.000Z</time>
      </trkpt>
      <trkpt lat="47.93534" lon="16.2339">
        <ele>290.604609</ele>
        <time>2026-07-07T10:37:40.000Z</time>
      </trkpt>
      <trkpt lat="47.93528" lon="16.23391">
        <ele>290.59632</ele>
        <time>2026-07-07T10:37:41.000Z</time>
      </trkpt>
      <trkpt lat="47.93522" lon="16.23392">
        <ele>290.588043</ele>
        <time>2026-07-07T10:37:42.000Z</time>
      </trkpt>
      <trkpt lat="47.93516" lon="16.23393">
        <ele>290.579502</ele>
        <time>2026-07-07T10:37:43.000Z</time>
      </trkpt>
      <trkpt lat="47.9351" lon="16.23394">
        <ele>290.571225</ele>
        <time>2026-07-07T10:37:44.000Z</time>
      </trkpt>
      <trkpt lat="47.93503" lon="16.23395">
        <ele>290.562675</ele>
        <time>2026-07-07T10:37:45.000Z</time>
      </trkpt>
      <trkpt lat="47.93497" lon="16.23396">
        <ele>290.560208</ele>
        <time>2026-07-07T10:37:46.000Z</time>
      </trkpt>
      <trkpt lat="47.93492" lon="16.23396">
        <ele>290.563105</ele>
        <time>2026-07-07T10:37:47.000Z</time>
      </trkpt>
      <trkpt lat="47.93486" lon="16.23397">
        <ele>290.566099</ele>
        <time>2026-07-07T10:37:48.000Z</time>
      </trkpt>
      <trkpt lat="47.9348" lon="16.23398">
        <ele>290.568957</ele>
        <time>2026-07-07T10:37:49.000Z</time>
      </trkpt>
      <trkpt lat="47.93474" lon="16.23399">
        <ele>290.571854</ele>
        <time>2026-07-07T10:37:50.000Z</time>
      </trkpt>
      <trkpt lat="47.93468" lon="16.23399">
        <ele>290.574702</ele>
        <time>2026-07-07T10:37:51.000Z</time>
      </trkpt>
      <trkpt lat="47.93463" lon="16.234">
        <ele>290.577602</ele>
        <time>2026-07-07T10:37:52.000Z</time>
      </trkpt>
      <trkpt lat="47.93457" lon="16.23401">
        <ele>290.580502</ele>
        <time>2026-07-07T10:37:53.000Z</time>
      </trkpt>
      <trkpt lat="47.93451" lon="16.23402">
        <ele>290.583359</ele>
        <time>2026-07-07T10:37:54.000Z</time>
      </trkpt>
      <trkpt lat="47.93446" lon="16.23403">
        <ele>290.586127</ele>
        <time>2026-07-07T10:37:55.000Z</time>
      </trkpt>
      <trkpt lat="47.9344" lon="16.23404">
        <ele>290.588977</ele>
        <time>2026-07-07T10:37:56.000Z</time>
      </trkpt>
      <trkpt lat="47.93434" lon="16.23405">
        <ele>290.591786</ele>
        <time>2026-07-07T10:37:57.000Z</time>
      </trkpt>
      <trkpt lat="47.93428" lon="16.23406">
        <ele>290.594738</ele>
        <time>2026-07-07T10:37:58.000Z</time>
      </trkpt>
      <trkpt lat="47.93423" lon="16.23407">
        <ele>290.597645</ele>
        <time>2026-07-07T10:37:59.000Z</time>
      </trkpt>
      <trkpt lat="47.93417" lon="16.23408">
        <ele>290.600545</ele>
        <time>2026-07-07T10:38:00.000Z</time>
      </trkpt>
      <trkpt lat="47.93411" lon="16.23408">
        <ele>290.603644</ele>
        <time>2026-07-07T10:38:01.000Z</time>
      </trkpt>
      <trkpt lat="47.93404" lon="16.23409">
        <ele>290.606745</ele>
        <time>2026-07-07T10:38:02.000Z</time>
      </trkpt>
      <trkpt lat="47.93398" lon="16.2341">
        <ele>290.609751</ele>
        <time>2026-07-07T10:38:03.000Z</time>
      </trkpt>
      <trkpt lat="47.93392" lon="16.23411">
        <ele>290.612751</ele>
        <time>2026-07-07T10:38:04.000Z</time>
      </trkpt>
      <trkpt lat="47.93386" lon="16.23412">
        <ele>290.61575</ele>
        <time>2026-07-07T10:38:05.000Z</time>
      </trkpt>
      <trkpt lat="47.9338" lon="16.23413">
        <ele>290.618752</ele>
        <time>2026-07-07T10:38:06.000Z</time>
      </trkpt>
      <trkpt lat="47.93375" lon="16.23414">
        <ele>290.621652</ele>
        <time>2026-07-07T10:38:07.000Z</time>
      </trkpt>
      <trkpt lat="47.93369" lon="16.23414">
        <ele>290.624652</ele>
        <time>2026-07-07T10:38:08.000Z</time>
      </trkpt>
      <trkpt lat="47.93363" lon="16.23415">
        <ele>290.627549</ele>
        <time>2026-07-07T10:38:09.000Z</time>
      </trkpt>
      <trkpt lat="47.93357" lon="16.23416">
        <ele>290.630399</ele>
        <time>2026-07-07T10:38:10.000Z</time>
      </trkpt>
      <trkpt lat="47.93351" lon="16.23417">
        <ele>290.633257</ele>
        <time>2026-07-07T10:38:11.000Z</time>
      </trkpt>
      <trkpt lat="47.93346" lon="16.23418">
        <ele>290.636005</ele>
        <time>2026-07-07T10:38:12.000Z</time>
      </trkpt>
      <trkpt lat="47.9334" lon="16.23418">
        <ele>290.638803</ele>
        <time>2026-07-07T10:38:13.000Z</time>
      </trkpt>
      <trkpt lat="47.93335" lon="16.23419">
        <ele>290.641661</ele>
        <time>2026-07-07T10:38:14.000Z</time>
      </trkpt>
      <trkpt lat="47.93329" lon="16.2342">
        <ele>290.644511</ele>
        <time>2026-07-07T10:38:15.000Z</time>
      </trkpt>
      <trkpt lat="47.93323" lon="16.23421">
        <ele>290.647312</ele>
        <time>2026-07-07T10:38:16.000Z</time>
      </trkpt>
      <trkpt lat="47.93318" lon="16.23422">
        <ele>290.645596</ele>
        <time>2026-07-07T10:38:17.000Z</time>
      </trkpt>
      <trkpt lat="47.93312" lon="16.23422">
        <ele>290.641698</ele>
        <time>2026-07-07T10:38:18.000Z</time>
      </trkpt>
      <trkpt lat="47.93306" lon="16.23423">
        <ele>290.637864</ele>
        <time>2026-07-07T10:38:19.000Z</time>
      </trkpt>
      <trkpt lat="47.933" lon="16.23424">
        <ele>290.633963</ele>
        <time>2026-07-07T10:38:20.000Z</time>
      </trkpt>
      <trkpt lat="47.93294" lon="16.23425">
        <ele>290.629992</ele>
        <time>2026-07-07T10:38:21.000Z</time>
      </trkpt>
      <trkpt lat="47.93289" lon="16.23425">
        <ele>290.626225</ele>
        <time>2026-07-07T10:38:22.000Z</time>
      </trkpt>
      <trkpt lat="47.93283" lon="16.23426">
        <ele>290.622253</ele>
        <time>2026-07-07T10:38:23.000Z</time>
      </trkpt>
      <trkpt lat="47.93277" lon="16.23427">
        <ele>290.618348</ele>
        <time>2026-07-07T10:38:24.000Z</time>
      </trkpt>
      <trkpt lat="47.93271" lon="16.23428">
        <ele>290.614439</ele>
        <time>2026-07-07T10:38:25.000Z</time>
      </trkpt>
      <trkpt lat="47.93265" lon="16.23429">
        <ele>290.610468</ele>
        <time>2026-07-07T10:38:26.000Z</time>
      </trkpt>
      <trkpt lat="47.9326" lon="16.23429">
        <ele>290.606567</ele>
        <time>2026-07-07T10:38:27.000Z</time>
      </trkpt>
      <trkpt lat="47.93254" lon="16.2343">
        <ele>290.602877</ele>
        <time>2026-07-07T10:38:28.000Z</time>
      </trkpt>
      <trkpt lat="47.93248" lon="16.2343">
        <ele>290.599054</ele>
        <time>2026-07-07T10:38:29.000Z</time>
      </trkpt>
      <trkpt lat="47.93243" lon="16.2343">
        <ele>290.595293</ele>
        <time>2026-07-07T10:38:30.000Z</time>
      </trkpt>
      <trkpt lat="47.93237" lon="16.23431">
        <ele>290.591325</ele>
        <time>2026-07-07T10:38:31.000Z</time>
      </trkpt>
      <trkpt lat="47.93231" lon="16.23432">
        <ele>290.587431</ele>
        <time>2026-07-07T10:38:32.000Z</time>
      </trkpt>
      <trkpt lat="47.93225" lon="16.23432">
        <ele>290.583603</ele>
        <time>2026-07-07T10:38:33.000Z</time>
      </trkpt>
      <trkpt lat="47.9322" lon="16.23433">
        <ele>290.579836</ele>
        <time>2026-07-07T10:38:34.000Z</time>
      </trkpt>
      <trkpt lat="47.93214" lon="16.23433">
        <ele>290.575871</ele>
        <time>2026-07-07T10:38:35.000Z</time>
      </trkpt>
      <trkpt lat="47.93208" lon="16.23434">
        <ele>290.572104</ele>
        <time>2026-07-07T10:38:36.000Z</time>
      </trkpt>
      <trkpt lat="47.93202" lon="16.23435">
        <ele>290.568132</ele>
        <time>2026-07-07T10:38:37.000Z</time>
      </trkpt>
      <trkpt lat="47.93197" lon="16.23436">
        <ele>290.564357</ele>
        <time>2026-07-07T10:38:38.000Z</time>
      </trkpt>
      <trkpt lat="47.93191" lon="16.23437">
        <ele>290.560519</ele>
        <time>2026-07-07T10:38:39.000Z</time>
      </trkpt>
      <trkpt lat="47.93185" lon="16.23438">
        <ele>290.556593</ele>
        <time>2026-07-07T10:38:40.000Z</time>
      </trkpt>
      <trkpt lat="47.9318" lon="16.23439">
        <ele>290.552746</ele>
        <time>2026-07-07T10:38:41.000Z</time>
      </trkpt>
      <trkpt lat="47.93174" lon="16.2344">
        <ele>290.548841</ele>
        <time>2026-07-07T10:38:42.000Z</time>
      </trkpt>
      <trkpt lat="47.93168" lon="16.2344">
        <ele>290.544873</ele>
        <time>2026-07-07T10:38:43.000Z</time>
      </trkpt>
      <trkpt lat="47.93162" lon="16.23441">
        <ele>290.540969</ele>
        <time>2026-07-07T10:38:44.000Z</time>
      </trkpt>
      <trkpt lat="47.93156" lon="16.23442">
        <ele>290.537055</ele>
        <time>2026-07-07T10:38:45.000Z</time>
      </trkpt>
      <trkpt lat="47.9315" lon="16.23443">
        <ele>290.533087</ele>
        <time>2026-07-07T10:38:46.000Z</time>
      </trkpt>
      <trkpt lat="47.93144" lon="16.23443">
        <ele>290.529056</ele>
        <time>2026-07-07T10:38:47.000Z</time>
      </trkpt>
      <trkpt lat="47.93138" lon="16.23444">
        <ele>290.534215</ele>
        <time>2026-07-07T10:38:48.000Z</time>
      </trkpt>
      <trkpt lat="47.93133" lon="16.23445">
        <ele>290.544062</ele>
        <time>2026-07-07T10:38:49.000Z</time>
      </trkpt>
      <trkpt lat="47.93127" lon="16.23446">
        <ele>290.554214</ele>
        <time>2026-07-07T10:38:50.000Z</time>
      </trkpt>
      <trkpt lat="47.93121" lon="16.23447">
        <ele>290.564327</ele>
        <time>2026-07-07T10:38:51.000Z</time>
      </trkpt>
      <trkpt lat="47.93114" lon="16.23448">
        <ele>290.574783</ele>
        <time>2026-07-07T10:38:52.000Z</time>
      </trkpt>
      <trkpt lat="47.93108" lon="16.23448">
        <ele>290.585081</ele>
        <time>2026-07-07T10:38:53.000Z</time>
      </trkpt>
      <trkpt lat="47.93102" lon="16.23449">
        <ele>290.595557</ele>
        <time>2026-07-07T10:38:54.000Z</time>
      </trkpt>
      <trkpt lat="47.93096" lon="16.2345">
        <ele>290.606022</ele>
        <time>2026-07-07T10:38:55.000Z</time>
      </trkpt>
      <trkpt lat="47.9309" lon="16.23451">
        <ele>290.616369</ele>
        <time>2026-07-07T10:38:56.000Z</time>
      </trkpt>
      <trkpt lat="47.93083" lon="16.23453">
        <ele>290.627264</ele>
        <time>2026-07-07T10:38:57.000Z</time>
      </trkpt>
      <trkpt lat="47.93077" lon="16.23455">
        <ele>290.637844</ele>
        <time>2026-07-07T10:38:58.000Z</time>
      </trkpt>
      <trkpt lat="47.93071" lon="16.23459">
        <ele>290.648606</ele>
        <time>2026-07-07T10:38:59.000Z</time>
      </trkpt>
      <trkpt lat="47.93066" lon="16.23463">
        <ele>290.659302</ele>
        <time>2026-07-07T10:39:00.000Z</time>
      </trkpt>
      <trkpt lat="47.9306" lon="16.23468">
        <ele>290.67042</ele>
        <time>2026-07-07T10:39:01.000Z</time>
      </trkpt>
      <trkpt lat="47.93055" lon="16.23473">
        <ele>290.680965</ele>
        <time>2026-07-07T10:39:02.000Z</time>
      </trkpt>
      <trkpt lat="47.9305" lon="16.23479">
        <ele>290.691554</ele>
        <time>2026-07-07T10:39:03.000Z</time>
      </trkpt>
      <trkpt lat="47.93044" lon="16.23484">
        <ele>290.70222</ele>
        <time>2026-07-07T10:39:04.000Z</time>
      </trkpt>
      <trkpt lat="47.93039" lon="16.23489">
        <ele>290.713514</ele>
        <time>2026-07-07T10:39:05.000Z</time>
      </trkpt>
      <trkpt lat="47.93033" lon="16.23494">
        <ele>290.72418</ele>
        <time>2026-07-07T10:39:06.000Z</time>
      </trkpt>
      <trkpt lat="47.93028" lon="16.235">
        <ele>290.73519</ele>
        <time>2026-07-07T10:39:07.000Z</time>
      </trkpt>
      <trkpt lat="47.93022" lon="16.23505">
        <ele>290.746059</ele>
        <time>2026-07-07T10:39:08.000Z</time>
      </trkpt>
      <trkpt lat="47.93017" lon="16.2351">
        <ele>290.757192</ele>
        <time>2026-07-07T10:39:09.000Z</time>
      </trkpt>
      <trkpt lat="47.93011" lon="16.23516">
        <ele>290.768283</ele>
        <time>2026-07-07T10:39:10.000Z</time>
      </trkpt>
      <trkpt lat="47.93006" lon="16.23521">
        <ele>290.779232</ele>
        <time>2026-07-07T10:39:11.000Z</time>
      </trkpt>
      <trkpt lat="47.93" lon="16.23526">
        <ele>290.790242</ele>
        <time>2026-07-07T10:39:12.000Z</time>
      </trkpt>
      <trkpt lat="47.92995" lon="16.23531">
        <ele>290.801252</ele>
        <time>2026-07-07T10:39:13.000Z</time>
      </trkpt>
      <trkpt lat="47.92989" lon="16.23537">
        <ele>290.812201</ele>
        <time>2026-07-07T10:39:14.000Z</time>
      </trkpt>
      <trkpt lat="47.92984" lon="16.23542">
        <ele>290.82315</ele>
        <time>2026-07-07T10:39:15.000Z</time>
      </trkpt>
      <trkpt lat="47.92978" lon="16.23547">
        <ele>290.83623</ele>
        <time>2026-07-07T10:39:16.000Z</time>
      </trkpt>
      <trkpt lat="47.92973" lon="16.23552">
        <ele>290.852759</ele>
        <time>2026-07-07T10:39:17.000Z</time>
      </trkpt>
      <trkpt lat="47.92968" lon="16.23558">
        <ele>290.868949</ele>
        <time>2026-07-07T10:39:18.000Z</time>
      </trkpt>
      <trkpt lat="47.92962" lon="16.23563">
        <ele>290.884954</ele>
        <time>2026-07-07T10:39:19.000Z</time>
      </trkpt>
      <trkpt lat="47.92957" lon="16.23568">
        <ele>290.901358</ele>
        <time>2026-07-07T10:39:20.000Z</time>
      </trkpt>
      <trkpt lat="47.92952" lon="16.23573">
        <ele>290.917028</ele>
        <time>2026-07-07T10:39:21.000Z</time>
      </trkpt>
      <trkpt lat="47.92947" lon="16.23578">
        <ele>290.933006</ele>
        <time>2026-07-07T10:39:22.000Z</time>
      </trkpt>
      <trkpt lat="47.92941" lon="16.23583">
        <ele>290.948796</ele>
        <time>2026-07-07T10:39:23.000Z</time>
      </trkpt>
      <trkpt lat="47.92936" lon="16.23588">
        <ele>290.964371</ele>
        <time>2026-07-07T10:39:24.000Z</time>
      </trkpt>
      <trkpt lat="47.92931" lon="16.23593">
        <ele>290.980161</ele>
        <time>2026-07-07T10:39:25.000Z</time>
      </trkpt>
      <trkpt lat="47.92926" lon="16.23598">
        <ele>290.995337</ele>
        <time>2026-07-07T10:39:26.000Z</time>
      </trkpt>
      <trkpt lat="47.92921" lon="16.23603">
        <ele>291.011314</ele>
        <time>2026-07-07T10:39:27.000Z</time>
      </trkpt>
      <trkpt lat="47.92916" lon="16.23608">
        <ele>291.02649</ele>
        <time>2026-07-07T10:39:28.000Z</time>
      </trkpt>
      <trkpt lat="47.92911" lon="16.23613">
        <ele>291.042065</ele>
        <time>2026-07-07T10:39:29.000Z</time>
      </trkpt>
      <trkpt lat="47.92906" lon="16.23618">
        <ele>291.058043</ele>
        <time>2026-07-07T10:39:30.000Z</time>
      </trkpt>
      <trkpt lat="47.929" lon="16.23623">
        <ele>291.07365</ele>
        <time>2026-07-07T10:39:31.000Z</time>
      </trkpt>
      <trkpt lat="47.92895" lon="16.23628">
        <ele>291.088919</ele>
        <time>2026-07-07T10:39:32.000Z</time>
      </trkpt>
      <trkpt lat="47.9289" lon="16.23633">
        <ele>291.104589</ele>
        <time>2026-07-07T10:39:33.000Z</time>
      </trkpt>
      <trkpt lat="47.92885" lon="16.23638">
        <ele>291.120145</ele>
        <time>2026-07-07T10:39:34.000Z</time>
      </trkpt>
      <trkpt lat="47.9288" lon="16.23643">
        <ele>291.135701</ele>
        <time>2026-07-07T10:39:35.000Z</time>
      </trkpt>
      <trkpt lat="47.92875" lon="16.23649">
        <ele>291.151659</ele>
        <time>2026-07-07T10:39:36.000Z</time>
      </trkpt>
      <trkpt lat="47.9287" lon="16.23655">
        <ele>291.167729</ele>
        <time>2026-07-07T10:39:37.000Z</time>
      </trkpt>
      <trkpt lat="47.92866" lon="16.23661">
        <ele>291.183834</ele>
        <time>2026-07-07T10:39:38.000Z</time>
      </trkpt>
      <trkpt lat="47.92862" lon="16.23669">
        <ele>291.199831</ele>
        <time>2026-07-07T10:39:39.000Z</time>
      </trkpt>
      <trkpt lat="47.92859" lon="16.23677">
        <ele>291.216192</ele>
        <time>2026-07-07T10:39:40.000Z</time>
      </trkpt>
      <trkpt lat="47.92856" lon="16.23685">
        <ele>291.232392</ele>
        <time>2026-07-07T10:39:41.000Z</time>
      </trkpt>
      <trkpt lat="47.92854" lon="16.23694">
        <ele>291.248694</ele>
        <time>2026-07-07T10:39:42.000Z</time>
      </trkpt>
      <trkpt lat="47.92853" lon="16.23704">
        <ele>291.264901</ele>
        <time>2026-07-07T10:39:43.000Z</time>
      </trkpt>
      <trkpt lat="47.92853" lon="16.23714">
        <ele>291.28168</ele>
        <time>2026-07-07T10:39:44.000Z</time>
      </trkpt>
      <trkpt lat="47.92853" lon="16.23723">
        <ele>291.288471</ele>
        <time>2026-07-07T10:39:45.000Z</time>
      </trkpt>
      <trkpt lat="47.92853" lon="16.23733">
        <ele>291.287055</ele>
        <time>2026-07-07T10:39:46.000Z</time>
      </trkpt>
      <trkpt lat="47.92854" lon="16.23743">
        <ele>291.285651</ele>
        <time>2026-07-07T10:39:47.000Z</time>
      </trkpt>
      <trkpt lat="47.92854" lon="16.23752">
        <ele>291.284261</ele>
        <time>2026-07-07T10:39:48.000Z</time>
      </trkpt>
      <trkpt lat="47.92855" lon="16.23762">
        <ele>291.282929</ele>
        <time>2026-07-07T10:39:49.000Z</time>
      </trkpt>
      <trkpt lat="47.92855" lon="16.23771">
        <ele>291.2816</ele>
        <time>2026-07-07T10:39:50.000Z</time>
      </trkpt>
      <trkpt lat="47.92855" lon="16.2378">
        <ele>291.280253</ele>
        <time>2026-07-07T10:39:51.000Z</time>
      </trkpt>
      <trkpt lat="47.92856" lon="16.23789">
        <ele>291.278906</ele>
        <time>2026-07-07T10:39:52.000Z</time>
      </trkpt>
      <trkpt lat="47.92856" lon="16.23799">
        <ele>291.277574</ele>
        <time>2026-07-07T10:39:53.000Z</time>
      </trkpt>
      <trkpt lat="47.92857" lon="16.23808">
        <ele>291.276243</ele>
        <time>2026-07-07T10:39:54.000Z</time>
      </trkpt>
      <trkpt lat="47.92857" lon="16.23817">
        <ele>291.274928</ele>
        <time>2026-07-07T10:39:55.000Z</time>
      </trkpt>
      <trkpt lat="47.92857" lon="16.23826">
        <ele>291.273599</ele>
        <time>2026-07-07T10:39:56.000Z</time>
      </trkpt>
      <trkpt lat="47.92858" lon="16.23835">
        <ele>291.272266</ele>
        <time>2026-07-07T10:39:57.000Z</time>
      </trkpt>
      <trkpt lat="47.92858" lon="16.23844">
        <ele>291.270949</ele>
        <time>2026-07-07T10:39:58.000Z</time>
      </trkpt>
      <trkpt lat="47.92859" lon="16.23854">
        <ele>291.269587</ele>
        <time>2026-07-07T10:39:59.000Z</time>
      </trkpt>
      <trkpt lat="47.9286" lon="16.23863">
        <ele>291.268265</ele>
        <time>2026-07-07T10:40:00.000Z</time>
      </trkpt>
      <trkpt lat="47.9286" lon="16.23872">
        <ele>291.266898</ele>
        <time>2026-07-07T10:40:01.000Z</time>
      </trkpt>
      <trkpt lat="47.92861" lon="16.23882">
        <ele>291.265513</ele>
        <time>2026-07-07T10:40:02.000Z</time>
      </trkpt>
      <trkpt lat="47.92862" lon="16.23891">
        <ele>291.264137</ele>
        <time>2026-07-07T10:40:03.000Z</time>
      </trkpt>
      <trkpt lat="47.92862" lon="16.23901">
        <ele>291.262789</ele>
        <time>2026-07-07T10:40:04.000Z</time>
      </trkpt>
      <trkpt lat="47.92863" lon="16.2391">
        <ele>291.261444</ele>
        <time>2026-07-07T10:40:05.000Z</time>
      </trkpt>
      <trkpt lat="47.92863" lon="16.23919">
        <ele>291.260071</ele>
        <time>2026-07-07T10:40:06.000Z</time>
      </trkpt>
      <trkpt lat="47.92863" lon="16.23929">
        <ele>291.258699</ele>
        <time>2026-07-07T10:40:07.000Z</time>
      </trkpt>
      <trkpt lat="47.92862" lon="16.23938">
        <ele>291.257322</ele>
        <time>2026-07-07T10:40:08.000Z</time>
      </trkpt>
      <trkpt lat="47.92859" lon="16.23947">
        <ele>291.25595</ele>
        <time>2026-07-07T10:40:09.000Z</time>
      </trkpt>
      <trkpt lat="47.92856" lon="16.23955">
        <ele>291.254591</ele>
        <time>2026-07-07T10:40:10.000Z</time>
      </trkpt>
      <trkpt lat="47.92852" lon="16.23962">
        <ele>291.253266</ele>
        <time>2026-07-07T10:40:11.000Z</time>
      </trkpt>
      <trkpt lat="47.92848" lon="16.23969">
        <ele>291.251958</ele>
        <time>2026-07-07T10:40:12.000Z</time>
      </trkpt>
      <trkpt lat="47.92843" lon="16.23974">
        <ele>291.250672</ele>
        <time>2026-07-07T10:40:13.000Z</time>
      </trkpt>
      <trkpt lat="47.92839" lon="16.23979">
        <ele>291.255043</ele>
        <time>2026-07-07T10:40:14.000Z</time>
      </trkpt>
      <trkpt lat="47.92834" lon="16.23985">
        <ele>291.260343</ele>
        <time>2026-07-07T10:40:15.000Z</time>
      </trkpt>
      <trkpt lat="47.9283" lon="16.23991">
        <ele>291.265761</ele>
        <time>2026-07-07T10:40:16.000Z</time>
      </trkpt>
      <trkpt lat="47.92825" lon="16.23996">
        <ele>291.271179</ele>
        <time>2026-07-07T10:40:17.000Z</time>
      </trkpt>
      <trkpt lat="47.9282" lon="16.24002">
        <ele>291.276697</ele>
        <time>2026-07-07T10:40:18.000Z</time>
      </trkpt>
      <trkpt lat="47.92816" lon="16.24008">
        <ele>291.282481</ele>
        <time>2026-07-07T10:40:19.000Z</time>
      </trkpt>
      <trkpt lat="47.92811" lon="16.24014">
        <ele>291.288366</ele>
        <time>2026-07-07T10:40:20.000Z</time>
      </trkpt>
      <trkpt lat="47.92806" lon="16.24021">
        <ele>291.294368</ele>
        <time>2026-07-07T10:40:21.000Z</time>
      </trkpt>
      <trkpt lat="47.92801" lon="16.24027">
        <ele>291.300331</ele>
        <time>2026-07-07T10:40:22.000Z</time>
      </trkpt>
      <trkpt lat="47.92796" lon="16.24033">
        <ele>291.306115</ele>
        <time>2026-07-07T10:40:23.000Z</time>
      </trkpt>
      <trkpt lat="47.92791" lon="16.24039">
        <ele>291.31189</ele>
        <time>2026-07-07T10:40:24.000Z</time>
      </trkpt>
      <trkpt lat="47.92786" lon="16.24045">
        <ele>291.317736</ele>
        <time>2026-07-07T10:40:25.000Z</time>
      </trkpt>
      <trkpt lat="47.92781" lon="16.24051">
        <ele>291.323621</ele>
        <time>2026-07-07T10:40:26.000Z</time>
      </trkpt>
      <trkpt lat="47.92776" lon="16.24057">
        <ele>291.329326</ele>
        <time>2026-07-07T10:40:27.000Z</time>
      </trkpt>
      <trkpt lat="47.92771" lon="16.24064">
        <ele>291.335191</ele>
        <time>2026-07-07T10:40:28.000Z</time>
      </trkpt>
      <trkpt lat="47.92766" lon="16.2407">
        <ele>291.341037</ele>
        <time>2026-07-07T10:40:29.000Z</time>
      </trkpt>
      <trkpt lat="47.92761" lon="16.24075">
        <ele>291.346881</ele>
        <time>2026-07-07T10:40:30.000Z</time>
      </trkpt>
      <trkpt lat="47.92756" lon="16.24081">
        <ele>291.352689</ele>
        <time>2026-07-07T10:40:31.000Z</time>
      </trkpt>
      <trkpt lat="47.92751" lon="16.24087">
        <ele>291.358535</ele>
        <time>2026-07-07T10:40:32.000Z</time>
      </trkpt>
      <trkpt lat="47.92746" lon="16.24093">
        <ele>291.364419</ele>
        <time>2026-07-07T10:40:33.000Z</time>
      </trkpt>
      <trkpt lat="47.92741" lon="16.241">
        <ele>291.370343</ele>
        <time>2026-07-07T10:40:34.000Z</time>
      </trkpt>
      <trkpt lat="47.92736" lon="16.24106">
        <ele>291.376189</ele>
        <time>2026-07-07T10:40:35.000Z</time>
      </trkpt>
      <trkpt lat="47.92731" lon="16.24112">
        <ele>291.381894</ele>
        <time>2026-07-07T10:40:36.000Z</time>
      </trkpt>
      <trkpt lat="47.92726" lon="16.24118">
        <ele>291.387748</ele>
        <time>2026-07-07T10:40:37.000Z</time>
      </trkpt>
      <trkpt lat="47.92722" lon="16.24124">
        <ele>291.393235</ele>
        <time>2026-07-07T10:40:38.000Z</time>
      </trkpt>
      <trkpt lat="47.92717" lon="16.2413">
        <ele>291.39901</ele>
        <time>2026-07-07T10:40:39.000Z</time>
      </trkpt>
      <trkpt lat="47.92712" lon="16.24136">
        <ele>291.404857</ele>
        <time>2026-07-07T10:40:40.000Z</time>
      </trkpt>
      <trkpt lat="47.92707" lon="16.24142">
        <ele>291.410889</ele>
        <time>2026-07-07T10:40:41.000Z</time>
      </trkpt>
      <trkpt lat="47.92702" lon="16.24148">
        <ele>291.412272</ele>
        <time>2026-07-07T10:40:42.000Z</time>
      </trkpt>
      <trkpt lat="47.92697" lon="16.24154">
        <ele>291.407141</ele>
        <time>2026-07-07T10:40:43.000Z</time>
      </trkpt>
      <trkpt lat="47.92692" lon="16.2416">
        <ele>291.401921</ele>
        <time>2026-07-07T10:40:44.000Z</time>
      </trkpt>
      <trkpt lat="47.92687" lon="16.24166">
        <ele>291.39689</ele>
        <time>2026-07-07T10:40:45.000Z</time>
      </trkpt>
      <trkpt lat="47.92682" lon="16.24172">
        <ele>291.391891</ele>
        <time>2026-07-07T10:40:46.000Z</time>
      </trkpt>
      <trkpt lat="47.92677" lon="16.24178">
        <ele>291.386925</ele>
        <time>2026-07-07T10:40:47.000Z</time>
      </trkpt>
      <trkpt lat="47.92672" lon="16.24183">
        <ele>291.382178</ele>
        <time>2026-07-07T10:40:48.000Z</time>
      </trkpt>
      <trkpt lat="47.92667" lon="16.24189">
        <ele>291.377236</ele>
        <time>2026-07-07T10:40:49.000Z</time>
      </trkpt>
      <trkpt lat="47.92662" lon="16.24195">
        <ele>291.372388</ele>
        <time>2026-07-07T10:40:50.000Z</time>
      </trkpt>
      <trkpt lat="47.92658" lon="16.24201">
        <ele>291.367514</ele>
        <time>2026-07-07T10:40:51.000Z</time>
      </trkpt>
      <trkpt lat="47.92653" lon="16.24207">
        <ele>291.362632</ele>
        <time>2026-07-07T10:40:52.000Z</time>
      </trkpt>
      <trkpt lat="47.92648" lon="16.24213">
        <ele>291.357757</ele>
        <time>2026-07-07T10:40:53.000Z</time>
      </trkpt>
      <trkpt lat="47.92643" lon="16.24219">
        <ele>291.352849</ele>
        <time>2026-07-07T10:40:54.000Z</time>
      </trkpt>
      <trkpt lat="47.92638" lon="16.24225">
        <ele>291.347912</ele>
        <time>2026-07-07T10:40:55.000Z</time>
      </trkpt>
      <trkpt lat="47.92634" lon="16.2423">
        <ele>291.343037</ele>
        <time>2026-07-07T10:40:56.000Z</time>
      </trkpt>
      <trkpt lat="47.92629" lon="16.24236">
        <ele>291.338129</ele>
        <time>2026-07-07T10:40:57.000Z</time>
      </trkpt>
      <trkpt lat="47.92624" lon="16.24242">
        <ele>291.333193</ele>
        <time>2026-07-07T10:40:58.000Z</time>
      </trkpt>
      <trkpt lat="47.92619" lon="16.24248">
        <ele>291.32844</ele>
        <time>2026-07-07T10:40:59.000Z</time>
      </trkpt>
      <trkpt lat="47.92614" lon="16.24254">
        <ele>291.32347</ele>
        <time>2026-07-07T10:41:00.000Z</time>
      </trkpt>
      <trkpt lat="47.9261" lon="16.2426">
        <ele>291.318595</ele>
        <time>2026-07-07T10:41:01.000Z</time>
      </trkpt>
      <trkpt lat="47.92605" lon="16.24265">
        <ele>291.313721</ele>
        <time>2026-07-07T10:41:02.000Z</time>
      </trkpt>
      <trkpt lat="47.926" lon="16.24271">
        <ele>291.308873</ele>
        <time>2026-07-07T10:41:03.000Z</time>
      </trkpt>
      <trkpt lat="47.92595" lon="16.24277">
        <ele>291.304159</ele>
        <time>2026-07-07T10:41:04.000Z</time>
      </trkpt>
      <trkpt lat="47.92591" lon="16.24282">
        <ele>291.299473</ele>
        <time>2026-07-07T10:41:05.000Z</time>
      </trkpt>
      <trkpt lat="47.92586" lon="16.24288">
        <ele>291.294759</ele>
        <time>2026-07-07T10:41:06.000Z</time>
      </trkpt>
      <trkpt lat="47.92581" lon="16.24293">
        <ele>291.289982</ele>
        <time>2026-07-07T10:41:07.000Z</time>
      </trkpt>
      <trkpt lat="47.92577" lon="16.24299">
        <ele>291.285135</ele>
        <time>2026-07-07T10:41:08.000Z</time>
      </trkpt>
      <trkpt lat="47.92572" lon="16.24305">
        <ele>291.280218</ele>
        <time>2026-07-07T10:41:09.000Z</time>
      </trkpt>
      <trkpt lat="47.92567" lon="16.24311">
        <ele>291.275431</ele>
        <time>2026-07-07T10:41:10.000Z</time>
      </trkpt>
      <trkpt lat="47.92562" lon="16.24317">
        <ele>291.270559</ele>
        <time>2026-07-07T10:41:11.000Z</time>
      </trkpt>
      <trkpt lat="47.92558" lon="16.24323">
        <ele>291.2659</ele>
        <time>2026-07-07T10:41:12.000Z</time>
      </trkpt>
      <trkpt lat="47.92553" lon="16.24329">
        <ele>291.261161</ele>
        <time>2026-07-07T10:41:13.000Z</time>
      </trkpt>
      <trkpt lat="47.92548" lon="16.24335">
        <ele>291.256568</ele>
        <time>2026-07-07T10:41:14.000Z</time>
      </trkpt>
      <trkpt lat="47.92544" lon="16.2434">
        <ele>291.251917</ele>
        <time>2026-07-07T10:41:15.000Z</time>
      </trkpt>
      <trkpt lat="47.92539" lon="16.24346">
        <ele>291.247174</ele>
        <time>2026-07-07T10:41:16.000Z</time>
      </trkpt>
      <trkpt lat="47.92534" lon="16.24352">
        <ele>291.242457</ele>
        <time>2026-07-07T10:41:17.000Z</time>
      </trkpt>
      <trkpt lat="47.92529" lon="16.24358">
        <ele>291.237681</ele>
        <time>2026-07-07T10:41:18.000Z</time>
      </trkpt>
      <trkpt lat="47.92524" lon="16.24364">
        <ele>291.232847</ele>
        <time>2026-07-07T10:41:19.000Z</time>
      </trkpt>
      <trkpt lat="47.92519" lon="16.2437">
        <ele>291.228079</ele>
        <time>2026-07-07T10:41:20.000Z</time>
      </trkpt>
      <trkpt lat="47.92514" lon="16.24376">
        <ele>291.223218</ele>
        <time>2026-07-07T10:41:21.000Z</time>
      </trkpt>
      <trkpt lat="47.9251" lon="16.24382">
        <ele>291.218507</ele>
        <time>2026-07-07T10:41:22.000Z</time>
      </trkpt>
      <trkpt lat="47.92505" lon="16.24388">
        <ele>291.213732</ele>
        <time>2026-07-07T10:41:23.000Z</time>
      </trkpt>
      <trkpt lat="47.925" lon="16.24394">
        <ele>291.208832</ele>
        <time>2026-07-07T10:41:24.000Z</time>
      </trkpt>
      <trkpt lat="47.92495" lon="16.244">
        <ele>291.204122</ele>
        <time>2026-07-07T10:41:25.000Z</time>
      </trkpt>
      <trkpt lat="47.9249" lon="16.24406">
        <ele>291.199346</ele>
        <time>2026-07-07T10:41:26.000Z</time>
      </trkpt>
      <trkpt lat="47.92485" lon="16.24411">
        <ele>291.194576</ele>
        <time>2026-07-07T10:41:27.000Z</time>
      </trkpt>
      <trkpt lat="47.92481" lon="16.24417">
        <ele>291.189801</ele>
        <time>2026-07-07T10:41:28.000Z</time>
      </trkpt>
      <trkpt lat="47.92476" lon="16.24423">
        <ele>291.185083</ele>
        <time>2026-07-07T10:41:29.000Z</time>
      </trkpt>
      <trkpt lat="47.92471" lon="16.24429">
        <ele>291.180424</ele>
        <time>2026-07-07T10:41:30.000Z</time>
      </trkpt>
      <trkpt lat="47.92466" lon="16.24435">
        <ele>291.17559</ele>
        <time>2026-07-07T10:41:31.000Z</time>
      </trkpt>
      <trkpt lat="47.92462" lon="16.24441">
        <ele>291.17093</ele>
        <time>2026-07-07T10:41:32.000Z</time>
      </trkpt>
      <trkpt lat="47.92457" lon="16.24447">
        <ele>291.166096</ele>
        <time>2026-07-07T10:41:33.000Z</time>
      </trkpt>
      <trkpt lat="47.92452" lon="16.24453">
        <ele>291.161234</ele>
        <time>2026-07-07T10:41:34.000Z</time>
      </trkpt>
      <trkpt lat="47.92447" lon="16.24459">
        <ele>291.156341</ele>
        <time>2026-07-07T10:41:35.000Z</time>
      </trkpt>
      <trkpt lat="47.92442" lon="16.24465">
        <ele>291.151565</ele>
        <time>2026-07-07T10:41:36.000Z</time>
      </trkpt>
      <trkpt lat="47.92437" lon="16.24472">
        <ele>291.146574</ele>
        <time>2026-07-07T10:41:37.000Z</time>
      </trkpt>
      <trkpt lat="47.92432" lon="16.24478">
        <ele>291.141733</ele>
        <time>2026-07-07T10:41:38.000Z</time>
      </trkpt>
      <trkpt lat="47.92427" lon="16.24484">
        <ele>291.136807</ele>
        <time>2026-07-07T10:41:39.000Z</time>
      </trkpt>
      <trkpt lat="47.92422" lon="16.2449">
        <ele>291.134118</ele>
        <time>2026-07-07T10:41:40.000Z</time>
      </trkpt>
      <trkpt lat="47.92417" lon="16.24496">
        <ele>291.132536</ele>
        <time>2026-07-07T10:41:41.000Z</time>
      </trkpt>
      <trkpt lat="47.92412" lon="16.24502">
        <ele>291.130962</ele>
        <time>2026-07-07T10:41:42.000Z</time>
      </trkpt>
      <trkpt lat="47.92407" lon="16.24509">
        <ele>291.129359</ele>
        <time>2026-07-07T10:41:43.000Z</time>
      </trkpt>
      <trkpt lat="47.92402" lon="16.24514">
        <ele>291.127797</ele>
        <time>2026-07-07T10:41:44.000Z</time>
      </trkpt>
      <trkpt lat="47.92397" lon="16.2452">
        <ele>291.126206</ele>
        <time>2026-07-07T10:41:45.000Z</time>
      </trkpt>
      <trkpt lat="47.92392" lon="16.24526">
        <ele>291.124684</ele>
        <time>2026-07-07T10:41:46.000Z</time>
      </trkpt>
      <trkpt lat="47.92388" lon="16.24532">
        <ele>291.12315</ele>
        <time>2026-07-07T10:41:47.000Z</time>
      </trkpt>
      <trkpt lat="47.92383" lon="16.24538">
        <ele>291.121627</ele>
        <time>2026-07-07T10:41:48.000Z</time>
      </trkpt>
      <trkpt lat="47.92378" lon="16.24543">
        <ele>291.120084</ele>
        <time>2026-07-07T10:41:49.000Z</time>
      </trkpt>
      <trkpt lat="47.92373" lon="16.24549">
        <ele>291.118552</ele>
        <time>2026-07-07T10:41:50.000Z</time>
      </trkpt>
      <trkpt lat="47.92368" lon="16.24554">
        <ele>291.11706</ele>
        <time>2026-07-07T10:41:51.000Z</time>
      </trkpt>
      <trkpt lat="47.92363" lon="16.2456">
        <ele>291.115516</ele>
        <time>2026-07-07T10:41:52.000Z</time>
      </trkpt>
      <trkpt lat="47.92358" lon="16.24566">
        <ele>291.113963</ele>
        <time>2026-07-07T10:41:53.000Z</time>
      </trkpt>
      <trkpt lat="47.92354" lon="16.24572">
        <ele>291.112419</ele>
        <time>2026-07-07T10:41:54.000Z</time>
      </trkpt>
      <trkpt lat="47.92349" lon="16.24578">
        <ele>291.110896</ele>
        <time>2026-07-07T10:41:55.000Z</time>
      </trkpt>
      <trkpt lat="47.92344" lon="16.24584">
        <ele>291.109332</ele>
        <time>2026-07-07T10:41:56.000Z</time>
      </trkpt>
      <trkpt lat="47.92339" lon="16.2459">
        <ele>291.107826</ele>
        <time>2026-07-07T10:41:57.000Z</time>
      </trkpt>
      <trkpt lat="47.92334" lon="16.24596">
        <ele>291.106243</ele>
        <time>2026-07-07T10:41:58.000Z</time>
      </trkpt>
      <trkpt lat="47.92329" lon="16.24602">
        <ele>291.104701</ele>
        <time>2026-07-07T10:41:59.000Z</time>
      </trkpt>
      <trkpt lat="47.92324" lon="16.24608">
        <ele>291.103149</ele>
        <time>2026-07-07T10:42:00.000Z</time>
      </trkpt>
      <trkpt lat="47.92319" lon="16.24613">
        <ele>291.101587</ele>
        <time>2026-07-07T10:42:01.000Z</time>
      </trkpt>
      <trkpt lat="47.92315" lon="16.24619">
        <ele>291.100043</ele>
        <time>2026-07-07T10:42:02.000Z</time>
      </trkpt>
      <trkpt lat="47.9231" lon="16.24625">
        <ele>291.098461</ele>
        <time>2026-07-07T10:42:03.000Z</time>
      </trkpt>
      <trkpt lat="47.92305" lon="16.24632">
        <ele>291.096892</ele>
        <time>2026-07-07T10:42:04.000Z</time>
      </trkpt>
      <trkpt lat="47.923" lon="16.24638">
        <ele>291.095299</ele>
        <time>2026-07-07T10:42:05.000Z</time>
      </trkpt>
      <trkpt lat="47.92295" lon="16.24644">
        <ele>291.093765</ele>
        <time>2026-07-07T10:42:06.000Z</time>
      </trkpt>
      <trkpt lat="47.9229" lon="16.2465">
        <ele>291.092183</ele>
        <time>2026-07-07T10:42:07.000Z</time>
      </trkpt>
      <trkpt lat="47.92285" lon="16.24656">
        <ele>291.091986</ele>
        <time>2026-07-07T10:42:08.000Z</time>
      </trkpt>
      <trkpt lat="47.9228" lon="16.24662">
        <ele>291.0982</ele>
        <time>2026-07-07T10:42:09.000Z</time>
      </trkpt>
      <trkpt lat="47.92275" lon="16.24668">
        <ele>291.104609</ele>
        <time>2026-07-07T10:42:10.000Z</time>
      </trkpt>
      <trkpt lat="47.9227" lon="16.24674">
        <ele>291.110935</ele>
        <time>2026-07-07T10:42:11.000Z</time>
      </trkpt>
      <trkpt lat="47.92265" lon="16.2468">
        <ele>291.117219</ele>
        <time>2026-07-07T10:42:12.000Z</time>
      </trkpt>
      <trkpt lat="47.9226" lon="16.24685">
        <ele>291.123622</ele>
        <time>2026-07-07T10:42:13.000Z</time>
      </trkpt>
      <trkpt lat="47.92255" lon="16.24691">
        <ele>291.129836</ele>
        <time>2026-07-07T10:42:14.000Z</time>
      </trkpt>
      <trkpt lat="47.9225" lon="16.24697">
        <ele>291.136204</ele>
        <time>2026-07-07T10:42:15.000Z</time>
      </trkpt>
      <trkpt lat="47.92245" lon="16.24703">
        <ele>291.142488</ele>
        <time>2026-07-07T10:42:16.000Z</time>
      </trkpt>
      <trkpt lat="47.9224" lon="16.24709">
        <ele>291.148856</ele>
        <time>2026-07-07T10:42:17.000Z</time>
      </trkpt>
      <trkpt lat="47.92235" lon="16.24715">
        <ele>291.155231</ele>
        <time>2026-07-07T10:42:18.000Z</time>
      </trkpt>
      <trkpt lat="47.92231" lon="16.24721">
        <ele>291.161445</ele>
        <time>2026-07-07T10:42:19.000Z</time>
      </trkpt>
      <trkpt lat="47.92226" lon="16.24727">
        <ele>291.167854</ele>
        <time>2026-07-07T10:42:20.000Z</time>
      </trkpt>
      <trkpt lat="47.92221" lon="16.24734">
        <ele>291.174306</ele>
        <time>2026-07-07T10:42:21.000Z</time>
      </trkpt>
      <trkpt lat="47.92216" lon="16.2474">
        <ele>291.180673</ele>
        <time>2026-07-07T10:42:22.000Z</time>
      </trkpt>
      <trkpt lat="47.92211" lon="16.24745">
        <ele>291.186958</ele>
        <time>2026-07-07T10:42:23.000Z</time>
      </trkpt>
      <trkpt lat="47.92205" lon="16.24751">
        <ele>291.193481</ele>
        <time>2026-07-07T10:42:24.000Z</time>
      </trkpt>
      <trkpt lat="47.922" lon="16.24757">
        <ele>291.199849</ele>
        <time>2026-07-07T10:42:25.000Z</time>
      </trkpt>
      <trkpt lat="47.92195" lon="16.24764">
        <ele>291.2063</ele>
        <time>2026-07-07T10:42:26.000Z</time>
      </trkpt>
      <trkpt lat="47.92191" lon="16.2477">
        <ele>291.2126</ele>
        <time>2026-07-07T10:42:27.000Z</time>
      </trkpt>
      <trkpt lat="47.92186" lon="16.24776">
        <ele>291.218968</ele>
        <time>2026-07-07T10:42:28.000Z</time>
      </trkpt>
      <trkpt lat="47.92181" lon="16.24782">
        <ele>291.225252</ele>
        <time>2026-07-07T10:42:29.000Z</time>
      </trkpt>
      <trkpt lat="47.92175" lon="16.24788">
        <ele>291.231858</ele>
        <time>2026-07-07T10:42:30.000Z</time>
      </trkpt>
      <trkpt lat="47.9217" lon="16.24794">
        <ele>291.238267</ele>
        <time>2026-07-07T10:42:31.000Z</time>
      </trkpt>
      <trkpt lat="47.92165" lon="16.248">
        <ele>291.244712</ele>
        <time>2026-07-07T10:42:32.000Z</time>
      </trkpt>
      <trkpt lat="47.9216" lon="16.24806">
        <ele>291.251079</ele>
        <time>2026-07-07T10:42:33.000Z</time>
      </trkpt>
      <trkpt lat="47.92155" lon="16.24812">
        <ele>291.257603</ele>
        <time>2026-07-07T10:42:34.000Z</time>
      </trkpt>
      <trkpt lat="47.9215" lon="16.24818">
        <ele>291.264054</ele>
        <time>2026-07-07T10:42:35.000Z</time>
      </trkpt>
      <trkpt lat="47.92145" lon="16.24824">
        <ele>291.271812</ele>
        <time>2026-07-07T10:42:36.000Z</time>
      </trkpt>
      <trkpt lat="47.9214" lon="16.2483">
        <ele>291.2835</ele>
        <time>2026-07-07T10:42:37.000Z</time>
      </trkpt>
      <trkpt lat="47.92135" lon="16.24837">
        <ele>291.295483</ele>
        <time>2026-07-07T10:42:38.000Z</time>
      </trkpt>
      <trkpt lat="47.9213" lon="16.24843">
        <ele>291.307608</ele>
        <time>2026-07-07T10:42:39.000Z</time>
      </trkpt>
      <trkpt lat="47.92124" lon="16.24849">
        <ele>291.319657</ele>
        <time>2026-07-07T10:42:40.000Z</time>
      </trkpt>
      <trkpt lat="47.92119" lon="16.24855">
        <ele>291.331657</ele>
        <time>2026-07-07T10:42:41.000Z</time>
      </trkpt>
      <trkpt lat="47.92114" lon="16.24862">
        <ele>291.344</ele>
        <time>2026-07-07T10:42:42.000Z</time>
      </trkpt>
      <trkpt lat="47.92109" lon="16.24868">
        <ele>291.356357</ele>
        <time>2026-07-07T10:42:43.000Z</time>
      </trkpt>
      <trkpt lat="47.92104" lon="16.24874">
        <ele>291.3687</ele>
        <time>2026-07-07T10:42:44.000Z</time>
      </trkpt>
      <trkpt lat="47.92098" lon="16.24881">
        <ele>291.380979</ele>
        <time>2026-07-07T10:42:45.000Z</time>
      </trkpt>
      <trkpt lat="47.92093" lon="16.24887">
        <ele>291.39304</ele>
        <time>2026-07-07T10:42:46.000Z</time>
      </trkpt>
      <trkpt lat="47.92088" lon="16.24893">
        <ele>291.405526</ele>
        <time>2026-07-07T10:42:47.000Z</time>
      </trkpt>
      <trkpt lat="47.92083" lon="16.249">
        <ele>291.417794</ele>
        <time>2026-07-07T10:42:48.000Z</time>
      </trkpt>
      <trkpt lat="47.92077" lon="16.24906">
        <ele>291.429767</ele>
        <time>2026-07-07T10:42:49.000Z</time>
      </trkpt>
      <trkpt lat="47.92072" lon="16.24912">
        <ele>291.441828</ele>
        <time>2026-07-07T10:42:50.000Z</time>
      </trkpt>
      <trkpt lat="47.92067" lon="16.24918">
        <ele>291.453802</ele>
        <time>2026-07-07T10:42:51.000Z</time>
      </trkpt>
      <trkpt lat="47.92062" lon="16.24924">
        <ele>291.465644</ele>
        <time>2026-07-07T10:42:52.000Z</time>
      </trkpt>
      <trkpt lat="47.92057" lon="16.2493">
        <ele>291.477618</ele>
        <time>2026-07-07T10:42:53.000Z</time>
      </trkpt>
      <trkpt lat="47.92052" lon="16.24936">
        <ele>291.489461</ele>
        <time>2026-07-07T10:42:54.000Z</time>
      </trkpt>
      <trkpt lat="47.92047" lon="16.24942">
        <ele>291.500867</ele>
        <time>2026-07-07T10:42:55.000Z</time>
      </trkpt>
      <trkpt lat="47.92042" lon="16.24948">
        <ele>291.512632</ele>
        <time>2026-07-07T10:42:56.000Z</time>
      </trkpt>
      <trkpt lat="47.92037" lon="16.24955">
        <ele>291.524474</ele>
        <time>2026-07-07T10:42:57.000Z</time>
      </trkpt>
      <trkpt lat="47.92032" lon="16.24961">
        <ele>291.536162</ele>
        <time>2026-07-07T10:42:58.000Z</time>
      </trkpt>
      <trkpt lat="47.92027" lon="16.24967">
        <ele>291.54785</ele>
        <time>2026-07-07T10:42:59.000Z</time>
      </trkpt>
      <trkpt lat="47.92022" lon="16.24973">
        <ele>291.559415</ele>
        <time>2026-07-07T10:43:00.000Z</time>
      </trkpt>
      <trkpt lat="47.92017" lon="16.24979">
        <ele>291.571103</ele>
        <time>2026-07-07T10:43:01.000Z</time>
      </trkpt>
      <trkpt lat="47.92012" lon="16.24985">
        <ele>291.582649</ele>
        <time>2026-07-07T10:43:02.000Z</time>
      </trkpt>
      <trkpt lat="47.92007" lon="16.24991">
        <ele>291.594337</ele>
        <time>2026-07-07T10:43:03.000Z</time>
      </trkpt>
      <trkpt lat="47.92002" lon="16.24996">
        <ele>291.635111</ele>
        <time>2026-07-07T10:43:04.000Z</time>
      </trkpt>
      <trkpt lat="47.91997" lon="16.25002">
        <ele>291.68652</ele>
        <time>2026-07-07T10:43:05.000Z</time>
      </trkpt>
      <trkpt lat="47.91992" lon="16.25008">
        <ele>291.738885</ele>
        <time>2026-07-07T10:43:06.000Z</time>
      </trkpt>
      <trkpt lat="47.91987" lon="16.25014">
        <ele>291.789973</ele>
        <time>2026-07-07T10:43:07.000Z</time>
      </trkpt>
      <trkpt lat="47.91982" lon="16.2502">
        <ele>291.840755</ele>
        <time>2026-07-07T10:43:08.000Z</time>
      </trkpt>
      <trkpt lat="47.91977" lon="16.25026">
        <ele>291.889959</ele>
        <time>2026-07-07T10:43:09.000Z</time>
      </trkpt>
      <trkpt lat="47.91972" lon="16.25031">
        <ele>291.938829</ele>
        <time>2026-07-07T10:43:10.000Z</time>
      </trkpt>
      <trkpt lat="47.91968" lon="16.25037">
        <ele>291.985509</ele>
        <time>2026-07-07T10:43:11.000Z</time>
      </trkpt>
      <trkpt lat="47.91964" lon="16.25042">
        <ele>292.028481</ele>
        <time>2026-07-07T10:43:12.000Z</time>
      </trkpt>
      <trkpt lat="47.9196" lon="16.25047">
        <ele>292.065286</ele>
        <time>2026-07-07T10:43:13.000Z</time>
      </trkpt>
      <trkpt lat="47.91958" lon="16.25051">
        <ele>292.095596</ele>
        <time>2026-07-07T10:43:14.000Z</time>
      </trkpt>
      <trkpt lat="47.91956" lon="16.25054">
        <ele>292.119576</ele>
        <time>2026-07-07T10:43:15.000Z</time>
      </trkpt>
      <trkpt lat="47.91954" lon="16.25058">
        <ele>292.140881</ele>
        <time>2026-07-07T10:43:16.000Z</time>
      </trkpt>
      <trkpt lat="47.91953" lon="16.2506">
        <ele>292.158199</ele>
        <time>2026-07-07T10:43:17.000Z</time>
      </trkpt>
      <trkpt lat="47.91951" lon="16.25062">
        <ele>292.175446</ele>
        <time>2026-07-07T10:43:18.000Z</time>
      </trkpt>
      <trkpt lat="47.91949" lon="16.25065">
        <ele>292.195886</ele>
        <time>2026-07-07T10:43:19.000Z</time>
      </trkpt>
      <trkpt lat="47.91947" lon="16.25067">
        <ele>292.217286</ele>
        <time>2026-07-07T10:43:20.000Z</time>
      </trkpt>
      <trkpt lat="47.91945" lon="16.2507">
        <ele>292.2406</ele>
        <time>2026-07-07T10:43:21.000Z</time>
      </trkpt>
      <trkpt lat="47.91942" lon="16.25073">
        <ele>292.268068</ele>
        <time>2026-07-07T10:43:22.000Z</time>
      </trkpt>
      <trkpt lat="47.91939" lon="16.25076">
        <ele>292.297513</ele>
        <time>2026-07-07T10:43:23.000Z</time>
      </trkpt>
      <trkpt lat="47.91936" lon="16.25081">
        <ele>292.332676</ele>
        <time>2026-07-07T10:43:24.000Z</time>
      </trkpt>
      <trkpt lat="47.91933" lon="16.25085">
        <ele>292.367578</ele>
        <time>2026-07-07T10:43:25.000Z</time>
      </trkpt>
      <trkpt lat="47.91929" lon="16.25089">
        <ele>292.403191</ele>
        <time>2026-07-07T10:43:26.000Z</time>
      </trkpt>
      <trkpt lat="47.91926" lon="16.25094">
        <ele>292.437143</ele>
        <time>2026-07-07T10:43:27.000Z</time>
      </trkpt>
      <trkpt lat="47.91923" lon="16.25097">
        <ele>292.469393</ele>
        <time>2026-07-07T10:43:28.000Z</time>
      </trkpt>
      <trkpt lat="47.91919" lon="16.25101">
        <ele>292.504514</ele>
        <time>2026-07-07T10:43:29.000Z</time>
      </trkpt>
      <trkpt lat="47.91916" lon="16.25106">
        <ele>292.542272</ele>
        <time>2026-07-07T10:43:30.000Z</time>
      </trkpt>
      <trkpt lat="47.91912" lon="16.25111">
        <ele>292.582888</ele>
        <time>2026-07-07T10:43:31.000Z</time>
      </trkpt>
      <trkpt lat="47.91908" lon="16.25116">
        <ele>292.625071</ele>
        <time>2026-07-07T10:43:32.000Z</time>
      </trkpt>
      <trkpt lat="47.91904" lon="16.25121">
        <ele>292.668891</ele>
        <time>2026-07-07T10:43:33.000Z</time>
      </trkpt>
      <trkpt lat="47.91899" lon="16.25127">
        <ele>292.715231</ele>
        <time>2026-07-07T10:43:34.000Z</time>
      </trkpt>
      <trkpt lat="47.91895" lon="16.25132">
        <ele>292.76035</ele>
        <time>2026-07-07T10:43:35.000Z</time>
      </trkpt>
      <trkpt lat="47.9189" lon="16.25138">
        <ele>292.806769</ele>
        <time>2026-07-07T10:43:36.000Z</time>
      </trkpt>
      <trkpt lat="47.91886" lon="16.25144">
        <ele>292.85414</ele>
        <time>2026-07-07T10:43:37.000Z</time>
      </trkpt>
      <trkpt lat="47.91881" lon="16.25149">
        <ele>292.901164</ele>
        <time>2026-07-07T10:43:38.000Z</time>
      </trkpt>
      <trkpt lat="47.91877" lon="16.25155">
        <ele>292.949704</ele>
        <time>2026-07-07T10:43:39.000Z</time>
      </trkpt>
      <trkpt lat="47.91872" lon="16.25161">
        <ele>292.998634</ele>
        <time>2026-07-07T10:43:40.000Z</time>
      </trkpt>
      <trkpt lat="47.91867" lon="16.25166">
        <ele>293.026635</ele>
        <time>2026-07-07T10:43:41.000Z</time>
      </trkpt>
      <trkpt lat="47.91862" lon="16.25172">
        <ele>293.016648</ele>
        <time>2026-07-07T10:43:42.000Z</time>
      </trkpt>
      <trkpt lat="47.91858" lon="16.25176">
        <ele>293.007113</ele>
        <time>2026-07-07T10:43:43.000Z</time>
      </trkpt>
      <trkpt lat="47.91853" lon="16.25182">
        <ele>292.997324</ele>
        <time>2026-07-07T10:43:44.000Z</time>
      </trkpt>
      <trkpt lat="47.91848" lon="16.25187">
        <ele>292.987071</ele>
        <time>2026-07-07T10:43:45.000Z</time>
      </trkpt>
      <trkpt lat="47.91843" lon="16.25193">
        <ele>292.977344</ele>
        <time>2026-07-07T10:43:46.000Z</time>
      </trkpt>
      <trkpt lat="47.91839" lon="16.25198">
        <ele>292.967744</ele>
        <time>2026-07-07T10:43:47.000Z</time>
      </trkpt>
      <trkpt lat="47.91834" lon="16.25204">
        <ele>292.958413</ele>
        <time>2026-07-07T10:43:48.000Z</time>
      </trkpt>
      <trkpt lat="47.9183" lon="16.25208">
        <ele>292.949813</ele>
        <time>2026-07-07T10:43:49.000Z</time>
      </trkpt>
      <trkpt lat="47.91826" lon="16.25213">
        <ele>292.941015</ele>
        <time>2026-07-07T10:43:50.000Z</time>
      </trkpt>
      <trkpt lat="47.91822" lon="16.25218">
        <ele>292.932544</ele>
        <time>2026-07-07T10:43:51.000Z</time>
      </trkpt>
      <trkpt lat="47.91818" lon="16.25223">
        <ele>292.924184</ele>
        <time>2026-07-07T10:43:52.000Z</time>
      </trkpt>
      <trkpt lat="47.91814" lon="16.25228">
        <ele>292.915698</ele>
        <time>2026-07-07T10:43:53.000Z</time>
      </trkpt>
      <trkpt lat="47.91811" lon="16.25233">
        <ele>292.907482</ele>
        <time>2026-07-07T10:43:54.000Z</time>
      </trkpt>
      <trkpt lat="47.91806" lon="16.25238">
        <ele>292.898684</ele>
        <time>2026-07-07T10:43:55.000Z</time>
      </trkpt>
      <trkpt lat="47.91802" lon="16.25242">
        <ele>292.890219</ele>
        <time>2026-07-07T10:43:56.000Z</time>
      </trkpt>
      <trkpt lat="47.91798" lon="16.25247">
        <ele>292.881353</ele>
        <time>2026-07-07T10:43:57.000Z</time>
      </trkpt>
      <trkpt lat="47.91794" lon="16.25252">
        <ele>292.872356</ele>
        <time>2026-07-07T10:43:58.000Z</time>
      </trkpt>
      <trkpt lat="47.91789" lon="16.25258">
        <ele>292.862884</ele>
        <time>2026-07-07T10:43:59.000Z</time>
      </trkpt>
      <trkpt lat="47.91785" lon="16.25263">
        <ele>292.85361</ele>
        <time>2026-07-07T10:44:00.000Z</time>
      </trkpt>
      <trkpt lat="47.91781" lon="16.25269">
        <ele>292.844532</ele>
        <time>2026-07-07T10:44:01.000Z</time>
      </trkpt>
      <trkpt lat="47.91777" lon="16.25274">
        <ele>292.835653</ele>
        <time>2026-07-07T10:44:02.000Z</time>
      </trkpt>
      <trkpt lat="47.91773" lon="16.25279">
        <ele>292.826575</ele>
        <time>2026-07-07T10:44:03.000Z</time>
      </trkpt>
      <trkpt lat="47.91768" lon="16.25284">
        <ele>292.817498</ele>
        <time>2026-07-07T10:44:04.000Z</time>
      </trkpt>
      <trkpt lat="47.91764" lon="16.2529">
        <ele>292.807969</ele>
        <time>2026-07-07T10:44:05.000Z</time>
      </trkpt>
      <trkpt lat="47.91759" lon="16.25295">
        <ele>292.798508</ele>
        <time>2026-07-07T10:44:06.000Z</time>
      </trkpt>
      <trkpt lat="47.91755" lon="16.253">
        <ele>292.789047</ele>
        <time>2026-07-07T10:44:07.000Z</time>
      </trkpt>
      <trkpt lat="47.91751" lon="16.25306">
        <ele>292.779773</ele>
        <time>2026-07-07T10:44:08.000Z</time>
      </trkpt>
      <trkpt lat="47.91746" lon="16.25311">
        <ele>292.770173</ele>
        <time>2026-07-07T10:44:09.000Z</time>
      </trkpt>
      <trkpt lat="47.91742" lon="16.25317">
        <ele>292.760713</ele>
        <time>2026-07-07T10:44:10.000Z</time>
      </trkpt>
      <trkpt lat="47.91737" lon="16.25322">
        <ele>292.750856</ele>
        <time>2026-07-07T10:44:11.000Z</time>
      </trkpt>
      <trkpt lat="47.91732" lon="16.25328">
        <ele>292.740918</ele>
        <time>2026-07-07T10:44:12.000Z</time>
      </trkpt>
      <trkpt lat="47.91728" lon="16.25334">
        <ele>292.731031</ele>
        <time>2026-07-07T10:44:13.000Z</time>
      </trkpt>
      <trkpt lat="47.91723" lon="16.25339">
        <ele>292.720955</ele>
        <time>2026-07-07T10:44:14.000Z</time>
      </trkpt>
      <trkpt lat="47.91719" lon="16.25344">
        <ele>292.711095</ele>
        <time>2026-07-07T10:44:15.000Z</time>
      </trkpt>
      <trkpt lat="47.91714" lon="16.25349">
        <ele>292.701092</ele>
        <time>2026-07-07T10:44:16.000Z</time>
      </trkpt>
      <trkpt lat="47.9171" lon="16.25355">
        <ele>292.690869</ele>
        <time>2026-07-07T10:44:17.000Z</time>
      </trkpt>
      <trkpt lat="47.91705" lon="16.2536">
        <ele>292.680647</ele>
        <time>2026-07-07T10:44:18.000Z</time>
      </trkpt>
      <trkpt lat="47.91701" lon="16.25366">
        <ele>292.670349</ele>
        <time>2026-07-07T10:44:19.000Z</time>
      </trkpt>
      <trkpt lat="47.91696" lon="16.25372">
        <ele>292.65984</ele>
        <time>2026-07-07T10:44:20.000Z</time>
      </trkpt>
      <trkpt lat="47.91692" lon="16.25377">
        <ele>292.649466</ele>
        <time>2026-07-07T10:44:21.000Z</time>
      </trkpt>
      <trkpt lat="47.91687" lon="16.25383">
        <ele>292.638896</ele>
        <time>2026-07-07T10:44:22.000Z</time>
      </trkpt>
      <trkpt lat="47.91683" lon="16.25389">
        <ele>292.628368</ele>
        <time>2026-07-07T10:44:23.000Z</time>
      </trkpt>
      <trkpt lat="47.91678" lon="16.25395">
        <ele>292.617513</ele>
        <time>2026-07-07T10:44:24.000Z</time>
      </trkpt>
      <trkpt lat="47.91673" lon="16.25401">
        <ele>292.606222</ele>
        <time>2026-07-07T10:44:25.000Z</time>
      </trkpt>
      <trkpt lat="47.91668" lon="16.25407">
        <ele>292.595485</ele>
        <time>2026-07-07T10:44:26.000Z</time>
      </trkpt>
      <trkpt lat="47.91663" lon="16.25413">
        <ele>292.584345</ele>
        <time>2026-07-07T10:44:27.000Z</time>
      </trkpt>
      <trkpt lat="47.91659" lon="16.25419">
        <ele>292.573529</ele>
        <time>2026-07-07T10:44:28.000Z</time>
      </trkpt>
      <trkpt lat="47.91654" lon="16.25425">
        <ele>292.562885</ele>
        <time>2026-07-07T10:44:29.000Z</time>
      </trkpt>
      <trkpt lat="47.9165" lon="16.2543">
        <ele>292.552931</ele>
        <time>2026-07-07T10:44:30.000Z</time>
      </trkpt>
      <trkpt lat="47.91645" lon="16.25436">
        <ele>292.542691</ele>
        <time>2026-07-07T10:44:31.000Z</time>
      </trkpt>
      <trkpt lat="47.91641" lon="16.25441">
        <ele>292.532331</ele>
        <time>2026-07-07T10:44:32.000Z</time>
      </trkpt>
      <trkpt lat="47.91636" lon="16.25447">
        <ele>292.522033</ele>
        <time>2026-07-07T10:44:33.000Z</time>
      </trkpt>
      <trkpt lat="47.91631" lon="16.25453">
        <ele>292.510968</ele>
        <time>2026-07-07T10:44:34.000Z</time>
      </trkpt>
      <trkpt lat="47.91626" lon="16.25459">
        <ele>292.499691</ele>
        <time>2026-07-07T10:44:35.000Z</time>
      </trkpt>
      <trkpt lat="47.91622" lon="16.25465">
        <ele>292.488687</ele>
        <time>2026-07-07T10:44:36.000Z</time>
      </trkpt>
      <trkpt lat="47.91617" lon="16.25471">
        <ele>292.477336</ele>
        <time>2026-07-07T10:44:37.000Z</time>
      </trkpt>
      <trkpt lat="47.91612" lon="16.25477">
        <ele>292.46591</ele>
        <time>2026-07-07T10:44:38.000Z</time>
      </trkpt>
      <trkpt lat="47.91607" lon="16.25483">
        <ele>292.455055</ele>
        <time>2026-07-07T10:44:39.000Z</time>
      </trkpt>
      <trkpt lat="47.91602" lon="16.25489">
        <ele>292.44399</ele>
        <time>2026-07-07T10:44:40.000Z</time>
      </trkpt>
      <trkpt lat="47.91597" lon="16.25494">
        <ele>292.433767</ele>
        <time>2026-07-07T10:44:41.000Z</time>
      </trkpt>
      <trkpt lat="47.91593" lon="16.255">
        <ele>292.423131</ele>
        <time>2026-07-07T10:44:42.000Z</time>
      </trkpt>
      <trkpt lat="47.91588" lon="16.25506">
        <ele>292.40367</ele>
        <time>2026-07-07T10:44:43.000Z</time>
      </trkpt>
      <trkpt lat="47.91583" lon="16.25512">
        <ele>292.371591</ele>
        <time>2026-07-07T10:44:44.000Z</time>
      </trkpt>
      <trkpt lat="47.91578" lon="16.25518">
        <ele>292.339513</ele>
        <time>2026-07-07T10:44:45.000Z</time>
      </trkpt>
      <trkpt lat="47.91573" lon="16.25523">
        <ele>292.307068</ele>
        <time>2026-07-07T10:44:46.000Z</time>
      </trkpt>
      <trkpt lat="47.91568" lon="16.25529">
        <ele>292.275245</ele>
        <time>2026-07-07T10:44:47.000Z</time>
      </trkpt>
      <trkpt lat="47.91563" lon="16.25535">
        <ele>292.242988</ele>
        <time>2026-07-07T10:44:48.000Z</time>
      </trkpt>
      <trkpt lat="47.91559" lon="16.25541">
        <ele>292.212135</ele>
        <time>2026-07-07T10:44:49.000Z</time>
      </trkpt>
      <trkpt lat="47.91554" lon="16.25546">
        <ele>292.180093</ele>
        <time>2026-07-07T10:44:50.000Z</time>
      </trkpt>
      <trkpt lat="47.91549" lon="16.25553">
        <ele>292.146788</ele>
        <time>2026-07-07T10:44:51.000Z</time>
      </trkpt>
      <trkpt lat="47.91544" lon="16.25558">
        <ele>292.115145</ele>
        <time>2026-07-07T10:44:52.000Z</time>
      </trkpt>
      <trkpt lat="47.91539" lon="16.25564">
        <ele>292.082489</ele>
        <time>2026-07-07T10:44:53.000Z</time>
      </trkpt>
      <trkpt lat="47.91534" lon="16.2557">
        <ele>292.05041</ele>
        <time>2026-07-07T10:44:54.000Z</time>
      </trkpt>
      <trkpt lat="47.9153" lon="16.25576">
        <ele>292.018722</ele>
        <time>2026-07-07T10:44:55.000Z</time>
      </trkpt>
      <trkpt lat="47.91525" lon="16.25582">
        <ele>291.987079</ele>
        <time>2026-07-07T10:44:56.000Z</time>
      </trkpt>
      <trkpt lat="47.9152" lon="16.25588">
        <ele>291.956051</ele>
        <time>2026-07-07T10:44:57.000Z</time>
      </trkpt>
      <trkpt lat="47.91515" lon="16.25593">
        <ele>291.925238</ele>
        <time>2026-07-07T10:44:58.000Z</time>
      </trkpt>
      <trkpt lat="47.91511" lon="16.25599">
        <ele>291.894606</ele>
        <time>2026-07-07T10:44:59.000Z</time>
      </trkpt>
      <trkpt lat="47.91506" lon="16.25605">
        <ele>291.8652</ele>
        <time>2026-07-07T10:45:00.000Z</time>
      </trkpt>
      <trkpt lat="47.91502" lon="16.2561">
        <ele>291.83496</ele>
        <time>2026-07-07T10:45:01.000Z</time>
      </trkpt>
      <trkpt lat="47.91497" lon="16.25616">
        <ele>291.804761</ele>
        <time>2026-07-07T10:45:02.000Z</time>
      </trkpt>
      <trkpt lat="47.91493" lon="16.25621">
        <ele>291.774961</ele>
        <time>2026-07-07T10:45:03.000Z</time>
      </trkpt>
      <trkpt lat="47.91488" lon="16.25627">
        <ele>291.744942</ele>
        <time>2026-07-07T10:45:04.000Z</time>
      </trkpt>
      <trkpt lat="47.91484" lon="16.25632">
        <ele>291.717076</ele>
        <time>2026-07-07T10:45:05.000Z</time>
      </trkpt>
      <trkpt lat="47.9148" lon="16.25638">
        <ele>291.689897</ele>
        <time>2026-07-07T10:45:06.000Z</time>
      </trkpt>
      <trkpt lat="47.91477" lon="16.25642">
        <ele>291.665774</ele>
        <time>2026-07-07T10:45:07.000Z</time>
      </trkpt>
      <trkpt lat="47.91474" lon="16.25647">
        <ele>291.64301</ele>
        <time>2026-07-07T10:45:08.000Z</time>
      </trkpt>
      <trkpt lat="47.91471" lon="16.25652">
        <ele>291.620223</ele>
        <time>2026-07-07T10:45:09.000Z</time>
      </trkpt>
      <trkpt lat="47.91468" lon="16.25657">
        <ele>291.598818</ele>
        <time>2026-07-07T10:45:10.000Z</time>
      </trkpt>
      <trkpt lat="47.91467" lon="16.25663">
        <ele>291.576646</ele>
        <time>2026-07-07T10:45:11.000Z</time>
      </trkpt>
      <trkpt lat="47.91465" lon="16.2567">
        <ele>291.552392</ele>
        <time>2026-07-07T10:45:12.000Z</time>
      </trkpt>
      <trkpt lat="47.91463" lon="16.25678">
        <ele>291.522701</ele>
        <time>2026-07-07T10:45:13.000Z</time>
      </trkpt>
      <trkpt lat="47.91461" lon="16.25687">
        <ele>291.498693</ele>
        <time>2026-07-07T10:45:14.000Z</time>
      </trkpt>
      <trkpt lat="47.91458" lon="16.25696">
        <ele>291.51919</ele>
        <time>2026-07-07T10:45:15.000Z</time>
      </trkpt>
      <trkpt lat="47.91455" lon="16.25705">
        <ele>291.54025</ele>
        <time>2026-07-07T10:45:16.000Z</time>
      </trkpt>
      <trkpt lat="47.91453" lon="16.25714">
        <ele>291.560686</ele>
        <time>2026-07-07T10:45:17.000Z</time>
      </trkpt>
      <trkpt lat="47.9145" lon="16.25722">
        <ele>291.578421</ele>
        <time>2026-07-07T10:45:18.000Z</time>
      </trkpt>
      <trkpt lat="47.91447" lon="16.25728">
        <ele>291.593793</ele>
        <time>2026-07-07T10:45:19.000Z</time>
      </trkpt>
      <trkpt lat="47.91443" lon="16.2573">
        <ele>291.606639</ele>
        <time>2026-07-07T10:45:20.000Z</time>
      </trkpt>
      <trkpt lat="47.91438" lon="16.25729">
        <ele>291.619861</ele>
        <time>2026-07-07T10:45:21.000Z</time>
      </trkpt>
      <trkpt lat="47.91434" lon="16.25728">
        <ele>291.633818</ele>
        <time>2026-07-07T10:45:22.000Z</time>
      </trkpt>
      <trkpt lat="47.91429" lon="16.25727">
        <ele>291.649078</ele>
        <time>2026-07-07T10:45:23.000Z</time>
      </trkpt>
      <trkpt lat="47.91424" lon="16.25728">
        <ele>291.665043</ele>
        <time>2026-07-07T10:45:24.000Z</time>
      </trkpt>
      <trkpt lat="47.91419" lon="16.25731">
        <ele>291.681234</ele>
        <time>2026-07-07T10:45:25.000Z</time>
      </trkpt>
      <trkpt lat="47.91414" lon="16.25735">
        <ele>291.698606</ele>
        <time>2026-07-07T10:45:26.000Z</time>
      </trkpt>
      <trkpt lat="47.9141" lon="16.25742">
        <ele>291.716597</ele>
        <time>2026-07-07T10:45:27.000Z</time>
      </trkpt>
      <trkpt lat="47.91406" lon="16.25749">
        <ele>291.734749</ele>
        <time>2026-07-07T10:45:28.000Z</time>
      </trkpt>
      <trkpt lat="47.91403" lon="16.25757">
        <ele>291.753459</ele>
        <time>2026-07-07T10:45:29.000Z</time>
      </trkpt>
      <trkpt lat="47.914" lon="16.25765">
        <ele>291.771878</ele>
        <time>2026-07-07T10:45:30.000Z</time>
      </trkpt>
      <trkpt lat="47.91398" lon="16.25773">
        <ele>291.790341</ele>
        <time>2026-07-07T10:45:31.000Z</time>
      </trkpt>
      <trkpt lat="47.91395" lon="16.25781">
        <ele>291.807803</ele>
        <time>2026-07-07T10:45:32.000Z</time>
      </trkpt>
      <trkpt lat="47.91393" lon="16.25788">
        <ele>291.825008</ele>
        <time>2026-07-07T10:45:33.000Z</time>
      </trkpt>
      <trkpt lat="47.9139" lon="16.25796">
        <ele>291.84197</ele>
        <time>2026-07-07T10:45:34.000Z</time>
      </trkpt>
      <trkpt lat="47.91388" lon="16.25803">
        <ele>291.858158</ele>
        <time>2026-07-07T10:45:35.000Z</time>
      </trkpt>
      <trkpt lat="47.91385" lon="16.25809">
        <ele>291.87363</ele>
        <time>2026-07-07T10:45:36.000Z</time>
      </trkpt>
      <trkpt lat="47.91383" lon="16.25815">
        <ele>291.888049</ele>
        <time>2026-07-07T10:45:37.000Z</time>
      </trkpt>
      <trkpt lat="47.91381" lon="16.25821">
        <ele>291.901683</ele>
        <time>2026-07-07T10:45:38.000Z</time>
      </trkpt>
      <trkpt lat="47.91378" lon="16.25827">
        <ele>291.915078</ele>
        <time>2026-07-07T10:45:39.000Z</time>
      </trkpt>
      <trkpt lat="47.91376" lon="16.25832">
        <ele>291.927623</ele>
        <time>2026-07-07T10:45:40.000Z</time>
      </trkpt>
      <trkpt lat="47.91374" lon="16.25837">
        <ele>291.939832</ele>
        <time>2026-07-07T10:45:41.000Z</time>
      </trkpt>
      <trkpt lat="47.91371" lon="16.25841">
        <ele>291.951858</ele>
        <time>2026-07-07T10:45:42.000Z</time>
      </trkpt>
      <trkpt lat="47.91368" lon="16.25844">
        <ele>291.962321</ele>
        <time>2026-07-07T10:45:43.000Z</time>
      </trkpt>
      <trkpt lat="47.91364" lon="16.25843">
        <ele>291.973634</ele>
        <time>2026-07-07T10:45:44.000Z</time>
      </trkpt>
      <trkpt lat="47.91361" lon="16.25841">
        <ele>291.98628</ele>
        <time>2026-07-07T10:45:45.000Z</time>
      </trkpt>
      <trkpt lat="47.91356" lon="16.25837">
        <ele>292.00064</ele>
        <time>2026-07-07T10:45:46.000Z</time>
      </trkpt>
      <trkpt lat="47.91352" lon="16.25834">
        <ele>292.015909</ele>
        <time>2026-07-07T10:45:47.000Z</time>
      </trkpt>
      <trkpt lat="47.91347" lon="16.25831">
        <ele>292.031088</ele>
        <time>2026-07-07T10:45:48.000Z</time>
      </trkpt>
      <trkpt lat="47.91343" lon="16.25829">
        <ele>292.046332</ele>
        <time>2026-07-07T10:45:49.000Z</time>
      </trkpt>
      <trkpt lat="47.91338" lon="16.25828">
        <ele>292.064377</ele>
        <time>2026-07-07T10:45:50.000Z</time>
      </trkpt>
      <trkpt lat="47.91332" lon="16.2583">
        <ele>292.084209</ele>
        <time>2026-07-07T10:45:51.000Z</time>
      </trkpt>
      <trkpt lat="47.91327" lon="16.25833">
        <ele>292.104586</ele>
        <time>2026-07-07T10:45:52.000Z</time>
      </trkpt>
      <trkpt lat="47.91322" lon="16.25838">
        <ele>292.12565</ele>
        <time>2026-07-07T10:45:53.000Z</time>
      </trkpt>
      <trkpt lat="47.91318" lon="16.25843">
        <ele>292.146388</ele>
        <time>2026-07-07T10:45:54.000Z</time>
      </trkpt>
      <trkpt lat="47.91313" lon="16.25849">
        <ele>292.167014</ele>
        <time>2026-07-07T10:45:55.000Z</time>
      </trkpt>
      <trkpt lat="47.91309" lon="16.25854">
        <ele>292.187366</ele>
        <time>2026-07-07T10:45:56.000Z</time>
      </trkpt>
      <trkpt lat="47.91305" lon="16.25859">
        <ele>292.207105</ele>
        <time>2026-07-07T10:45:57.000Z</time>
      </trkpt>
      <trkpt lat="47.91301" lon="16.25865">
        <ele>292.227027</ele>
        <time>2026-07-07T10:45:58.000Z</time>
      </trkpt>
      <trkpt lat="47.91296" lon="16.2587">
        <ele>292.247379</ele>
        <time>2026-07-07T10:45:59.000Z</time>
      </trkpt>
      <trkpt lat="47.91292" lon="16.25876">
        <ele>292.267981</ele>
        <time>2026-07-07T10:46:00.000Z</time>
      </trkpt>
      <trkpt lat="47.91287" lon="16.25881">
        <ele>292.288607</ele>
        <time>2026-07-07T10:46:01.000Z</time>
      </trkpt>
      <trkpt lat="47.91283" lon="16.25887">
        <ele>292.30951</ele>
        <time>2026-07-07T10:46:02.000Z</time>
      </trkpt>
      <trkpt lat="47.91278" lon="16.25892">
        <ele>292.330722</ele>
        <time>2026-07-07T10:46:03.000Z</time>
      </trkpt>
      <trkpt lat="47.91274" lon="16.25898">
        <ele>292.351904</ele>
        <time>2026-07-07T10:46:04.000Z</time>
      </trkpt>
      <trkpt lat="47.91269" lon="16.25903">
        <ele>292.37296</ele>
        <time>2026-07-07T10:46:05.000Z</time>
      </trkpt>
      <trkpt lat="47.91265" lon="16.25909">
        <ele>292.395187</ele>
        <time>2026-07-07T10:46:06.000Z</time>
      </trkpt>
      <trkpt lat="47.9126" lon="16.25915">
        <ele>292.417259</ele>
        <time>2026-07-07T10:46:07.000Z</time>
      </trkpt>
      <trkpt lat="47.91255" lon="16.25921">
        <ele>292.439454</ele>
        <time>2026-07-07T10:46:08.000Z</time>
      </trkpt>
      <trkpt lat="47.91251" lon="16.25927">
        <ele>292.46114</ele>
        <time>2026-07-07T10:46:09.000Z</time>
      </trkpt>
      <trkpt lat="47.91246" lon="16.25933">
        <ele>292.483368</ele>
        <time>2026-07-07T10:46:10.000Z</time>
      </trkpt>
      <trkpt lat="47.91241" lon="16.25939">
        <ele>292.505009</ele>
        <time>2026-07-07T10:46:11.000Z</time>
      </trkpt>
      <trkpt lat="47.91236" lon="16.25945">
        <ele>292.528096</ele>
        <time>2026-07-07T10:46:12.000Z</time>
      </trkpt>
      <trkpt lat="47.91232" lon="16.25951">
        <ele>292.550051</ele>
        <time>2026-07-07T10:46:13.000Z</time>
      </trkpt>
      <trkpt lat="47.91227" lon="16.25957">
        <ele>292.573108</ele>
        <time>2026-07-07T10:46:14.000Z</time>
      </trkpt>
      <trkpt lat="47.91222" lon="16.25963">
        <ele>292.59572</ele>
        <time>2026-07-07T10:46:15.000Z</time>
      </trkpt>
      <trkpt lat="47.91217" lon="16.25969">
        <ele>292.618195</ele>
        <time>2026-07-07T10:46:16.000Z</time>
      </trkpt>
      <trkpt lat="47.91212" lon="16.25974">
        <ele>292.639682</ele>
        <time>2026-07-07T10:46:17.000Z</time>
      </trkpt>
      <trkpt lat="47.91208" lon="16.2598">
        <ele>292.660585</ele>
        <time>2026-07-07T10:46:18.000Z</time>
      </trkpt>
      <trkpt lat="47.91203" lon="16.25985">
        <ele>292.681367</ele>
        <time>2026-07-07T10:46:19.000Z</time>
      </trkpt>
      <trkpt lat="47.91199" lon="16.25991">
        <ele>292.688352</ele>
        <time>2026-07-07T10:46:20.000Z</time>
      </trkpt>
      <trkpt lat="47.91195" lon="16.25996">
        <ele>292.686345</ele>
        <time>2026-07-07T10:46:21.000Z</time>
      </trkpt>
      <trkpt lat="47.9119" lon="16.26002">
        <ele>292.684251</ele>
        <time>2026-07-07T10:46:22.000Z</time>
      </trkpt>
      <trkpt lat="47.91186" lon="16.26007">
        <ele>292.682127</ele>
        <time>2026-07-07T10:46:23.000Z</time>
      </trkpt>
      <trkpt lat="47.91181" lon="16.26013">
        <ele>292.679962</ele>
        <time>2026-07-07T10:46:24.000Z</time>
      </trkpt>
      <trkpt lat="47.91176" lon="16.26019">
        <ele>292.677751</ele>
        <time>2026-07-07T10:46:25.000Z</time>
      </trkpt>
      <trkpt lat="47.91172" lon="16.26025">
        <ele>292.675584</ele>
        <time>2026-07-07T10:46:26.000Z</time>
      </trkpt>
      <trkpt lat="47.91167" lon="16.2603">
        <ele>292.673348</ele>
        <time>2026-07-07T10:46:27.000Z</time>
      </trkpt>
      <trkpt lat="47.91162" lon="16.26036">
        <ele>292.671211</ele>
        <time>2026-07-07T10:46:28.000Z</time>
      </trkpt>
      <trkpt lat="47.91158" lon="16.26042">
        <ele>292.669055</ele>
        <time>2026-07-07T10:46:29.000Z</time>
      </trkpt>
      <trkpt lat="47.91153" lon="16.26047">
        <ele>292.66689</ele>
        <time>2026-07-07T10:46:30.000Z</time>
      </trkpt>
      <trkpt lat="47.91149" lon="16.26053">
        <ele>292.664812</ele>
        <time>2026-07-07T10:46:31.000Z</time>
      </trkpt>
      <trkpt lat="47.91144" lon="16.26058">
        <ele>292.662804</ele>
        <time>2026-07-07T10:46:32.000Z</time>
      </trkpt>
      <trkpt lat="47.9114" lon="16.26064">
        <ele>292.660707</ele>
        <time>2026-07-07T10:46:33.000Z</time>
      </trkpt>
      <trkpt lat="47.91136" lon="16.26069">
        <ele>292.658653</ele>
        <time>2026-07-07T10:46:34.000Z</time>
      </trkpt>
      <trkpt lat="47.91131" lon="16.26076">
        <ele>292.656501</ele>
        <time>2026-07-07T10:46:35.000Z</time>
      </trkpt>
      <trkpt lat="47.91127" lon="16.26082">
        <ele>292.654408</ele>
        <time>2026-07-07T10:46:36.000Z</time>
      </trkpt>
      <trkpt lat="47.91123" lon="16.26088">
        <ele>292.652366</ele>
        <time>2026-07-07T10:46:37.000Z</time>
      </trkpt>
      <trkpt lat="47.91119" lon="16.26094">
        <ele>292.650325</ele>
        <time>2026-07-07T10:46:38.000Z</time>
      </trkpt>
      <trkpt lat="47.91115" lon="16.261">
        <ele>292.648334</ele>
        <time>2026-07-07T10:46:39.000Z</time>
      </trkpt>
      <trkpt lat="47.91111" lon="16.26105">
        <ele>292.646403</ele>
        <time>2026-07-07T10:46:40.000Z</time>
      </trkpt>
      <trkpt lat="47.91107" lon="16.26111">
        <ele>292.644317</ele>
        <time>2026-07-07T10:46:41.000Z</time>
      </trkpt>
      <trkpt lat="47.91102" lon="16.26117">
        <ele>292.642137</ele>
        <time>2026-07-07T10:46:42.000Z</time>
      </trkpt>
      <trkpt lat="47.91097" lon="16.26122">
        <ele>292.639771</ele>
        <time>2026-07-07T10:46:43.000Z</time>
      </trkpt>
      <trkpt lat="47.91092" lon="16.26128">
        <ele>292.637319</ele>
        <time>2026-07-07T10:46:44.000Z</time>
      </trkpt>
      <trkpt lat="47.91086" lon="16.26135">
        <ele>292.634751</ele>
        <time>2026-07-07T10:46:45.000Z</time>
      </trkpt>
      <trkpt lat="47.9108" lon="16.26141">
        <ele>292.632154</ele>
        <time>2026-07-07T10:46:46.000Z</time>
      </trkpt>
      <trkpt lat="47.91074" lon="16.26147">
        <ele>292.629541</ele>
        <time>2026-07-07T10:46:47.000Z</time>
      </trkpt>
      <trkpt lat="47.91068" lon="16.26153">
        <ele>292.62693</ele>
        <time>2026-07-07T10:46:48.000Z</time>
      </trkpt>
      <trkpt lat="47.91062" lon="16.2616">
        <ele>292.625055</ele>
        <time>2026-07-07T10:46:49.000Z</time>
      </trkpt>
      <trkpt lat="47.91056" lon="16.26166">
        <ele>292.626267</ele>
        <time>2026-07-07T10:46:50.000Z</time>
      </trkpt>
      <trkpt lat="47.91051" lon="16.26173">
        <ele>292.627428</ele>
        <time>2026-07-07T10:46:51.000Z</time>
      </trkpt>
      <trkpt lat="47.91046" lon="16.2618">
        <ele>292.628576</ele>
        <time>2026-07-07T10:46:52.000Z</time>
      </trkpt>
      <trkpt lat="47.9104" lon="16.26186">
        <ele>292.629725</ele>
        <time>2026-07-07T10:46:53.000Z</time>
      </trkpt>
      <trkpt lat="47.91035" lon="16.26193">
        <ele>292.630854</ele>
        <time>2026-07-07T10:46:54.000Z</time>
      </trkpt>
      <trkpt lat="47.9103" lon="16.26199">
        <ele>292.632014</ele>
        <time>2026-07-07T10:46:55.000Z</time>
      </trkpt>
      <trkpt lat="47.91024" lon="16.26206">
        <ele>292.633148</ele>
        <time>2026-07-07T10:46:56.000Z</time>
      </trkpt>
      <trkpt lat="47.91019" lon="16.26212">
        <ele>292.634301</ele>
        <time>2026-07-07T10:46:57.000Z</time>
      </trkpt>
      <trkpt lat="47.91013" lon="16.26219">
        <ele>292.635448</ele>
        <time>2026-07-07T10:46:58.000Z</time>
      </trkpt>
      <trkpt lat="47.91008" lon="16.26225">
        <ele>292.636581</ele>
        <time>2026-07-07T10:46:59.000Z</time>
      </trkpt>
      <trkpt lat="47.91003" lon="16.26231">
        <ele>292.637709</ele>
        <time>2026-07-07T10:47:00.000Z</time>
      </trkpt>
      <trkpt lat="47.90997" lon="16.26237">
        <ele>292.638816</ele>
        <time>2026-07-07T10:47:01.000Z</time>
      </trkpt>
      <trkpt lat="47.90992" lon="16.26244">
        <ele>292.639956</ele>
        <time>2026-07-07T10:47:02.000Z</time>
      </trkpt>
      <trkpt lat="47.90987" lon="16.2625">
        <ele>292.641076</ele>
        <time>2026-07-07T10:47:03.000Z</time>
      </trkpt>
      <trkpt lat="47.90981" lon="16.26256">
        <ele>292.642197</ele>
        <time>2026-07-07T10:47:04.000Z</time>
      </trkpt>
      <trkpt lat="47.90976" lon="16.26263">
        <ele>292.643323</ele>
        <time>2026-07-07T10:47:05.000Z</time>
      </trkpt>
      <trkpt lat="47.90971" lon="16.26269">
        <ele>292.644437</ele>
        <time>2026-07-07T10:47:06.000Z</time>
      </trkpt>
      <trkpt lat="47.90965" lon="16.26275">
        <ele>292.645531</ele>
        <time>2026-07-07T10:47:07.000Z</time>
      </trkpt>
      <trkpt lat="47.9096" lon="16.26281">
        <ele>292.646633</ele>
        <time>2026-07-07T10:47:08.000Z</time>
      </trkpt>
      <trkpt lat="47.90955" lon="16.26287">
        <ele>292.647701</ele>
        <time>2026-07-07T10:47:09.000Z</time>
      </trkpt>
      <trkpt lat="47.9095" lon="16.26293">
        <ele>292.648755</ele>
        <time>2026-07-07T10:47:10.000Z</time>
      </trkpt>
      <trkpt lat="47.90945" lon="16.26299">
        <ele>292.649782</ele>
        <time>2026-07-07T10:47:11.000Z</time>
      </trkpt>
      <trkpt lat="47.9094" lon="16.26304">
        <ele>292.650802</ele>
        <time>2026-07-07T10:47:12.000Z</time>
      </trkpt>
      <trkpt lat="47.90936" lon="16.2631">
        <ele>292.651803</ele>
        <time>2026-07-07T10:47:13.000Z</time>
      </trkpt>
      <trkpt lat="47.90931" lon="16.26316">
        <ele>292.652831</ele>
        <time>2026-07-07T10:47:14.000Z</time>
      </trkpt>
      <trkpt lat="47.90926" lon="16.26322">
        <ele>292.653879</ele>
        <time>2026-07-07T10:47:15.000Z</time>
      </trkpt>
      <trkpt lat="47.90921" lon="16.26327">
        <ele>292.667163</ele>
        <time>2026-07-07T10:47:16.000Z</time>
      </trkpt>
      <trkpt lat="47.90916" lon="16.26333">
        <ele>292.705093</ele>
        <time>2026-07-07T10:47:17.000Z</time>
      </trkpt>
      <trkpt lat="47.9091" lon="16.26339">
        <ele>292.74279</ele>
        <time>2026-07-07T10:47:18.000Z</time>
      </trkpt>
      <trkpt lat="47.90905" lon="16.26345">
        <ele>292.780253</ele>
        <time>2026-07-07T10:47:19.000Z</time>
      </trkpt>
      <trkpt lat="47.909" lon="16.26351">
        <ele>292.81774</ele>
        <time>2026-07-07T10:47:20.000Z</time>
      </trkpt>
      <trkpt lat="47.90895" lon="16.26356">
        <ele>292.854741</ele>
        <time>2026-07-07T10:47:21.000Z</time>
      </trkpt>
      <trkpt lat="47.9089" lon="16.26362">
        <ele>292.891983</ele>
        <time>2026-07-07T10:47:22.000Z</time>
      </trkpt>
      <trkpt lat="47.90885" lon="16.26368">
        <ele>292.929913</ele>
        <time>2026-07-07T10:47:23.000Z</time>
      </trkpt>
      <trkpt lat="47.9088" lon="16.26374">
        <ele>292.967843</ele>
        <time>2026-07-07T10:47:24.000Z</time>
      </trkpt>
      <trkpt lat="47.90875" lon="16.2638">
        <ele>293.005787</ele>
        <time>2026-07-07T10:47:25.000Z</time>
      </trkpt>
      <trkpt lat="47.9087" lon="16.26386">
        <ele>293.044191</ele>
        <time>2026-07-07T10:47:26.000Z</time>
      </trkpt>
      <trkpt lat="47.90864" lon="16.26392">
        <ele>293.083765</ele>
        <time>2026-07-07T10:47:27.000Z</time>
      </trkpt>
      <trkpt lat="47.90859" lon="16.26398">
        <ele>293.122165</ele>
        <time>2026-07-07T10:47:28.000Z</time>
      </trkpt>
      <trkpt lat="47.90854" lon="16.26403">
        <ele>293.160095</ele>
        <time>2026-07-07T10:47:29.000Z</time>
      </trkpt>
      <trkpt lat="47.90849" lon="16.26409">
        <ele>293.195935</ele>
        <time>2026-07-07T10:47:30.000Z</time>
      </trkpt>
      <trkpt lat="47.90843" lon="16.26414">
        <ele>293.232657</ele>
        <time>2026-07-07T10:47:31.000Z</time>
      </trkpt>
      <trkpt lat="47.90838" lon="16.26418">
        <ele>293.268283</ele>
        <time>2026-07-07T10:47:32.000Z</time>
      </trkpt>
      <trkpt lat="47.90833" lon="16.26423">
        <ele>293.303448</ele>
        <time>2026-07-07T10:47:33.000Z</time>
      </trkpt>
      <trkpt lat="47.90828" lon="16.26429">
        <ele>293.34021</ele>
        <time>2026-07-07T10:47:34.000Z</time>
      </trkpt>
      <trkpt lat="47.90824" lon="16.26435">
        <ele>293.375468</ele>
        <time>2026-07-07T10:47:35.000Z</time>
      </trkpt>
      <trkpt lat="47.90819" lon="16.26441">
        <ele>293.411102</ele>
        <time>2026-07-07T10:47:36.000Z</time>
      </trkpt>
      <trkpt lat="47.90814" lon="16.26447">
        <ele>293.446541</ele>
        <time>2026-07-07T10:47:37.000Z</time>
      </trkpt>
      <trkpt lat="47.90809" lon="16.26452">
        <ele>293.482364</ele>
        <time>2026-07-07T10:47:38.000Z</time>
      </trkpt>
      <trkpt lat="47.90804" lon="16.26458">
        <ele>293.518197</ele>
        <time>2026-07-07T10:47:39.000Z</time>
      </trkpt>
      <trkpt lat="47.90799" lon="16.26462">
        <ele>293.552932</ele>
        <time>2026-07-07T10:47:40.000Z</time>
      </trkpt>
      <trkpt lat="47.90795" lon="16.26466">
        <ele>293.58233</ele>
        <time>2026-07-07T10:47:41.000Z</time>
      </trkpt>
      <trkpt lat="47.90792" lon="16.2647">
        <ele>293.606946</ele>
        <time>2026-07-07T10:47:42.000Z</time>
      </trkpt>
      <trkpt lat="47.90788" lon="16.26474">
        <ele>293.631299</ele>
        <time>2026-07-07T10:47:43.000Z</time>
      </trkpt>
      <trkpt lat="47.90785" lon="16.26478">
        <ele>293.657339</ele>
        <time>2026-07-07T10:47:44.000Z</time>
      </trkpt>
      <trkpt lat="47.90781" lon="16.26483">
        <ele>293.68485</ele>
        <time>2026-07-07T10:47:45.000Z</time>
      </trkpt>
      <trkpt lat="47.90778" lon="16.26487">
        <ele>293.69415</ele>
        <time>2026-07-07T10:47:46.000Z</time>
      </trkpt>
      <trkpt lat="47.90774" lon="16.26493">
        <ele>293.650028</ele>
        <time>2026-07-07T10:47:47.000Z</time>
      </trkpt>
      <trkpt lat="47.90771" lon="16.26497">
        <ele>293.610548</ele>
        <time>2026-07-07T10:47:48.000Z</time>
      </trkpt>
      <trkpt lat="47.90768" lon="16.26501">
        <ele>293.571871</ele>
        <time>2026-07-07T10:47:49.000Z</time>
      </trkpt>
      <trkpt lat="47.90764" lon="16.26505">
        <ele>293.532121</ele>
        <time>2026-07-07T10:47:50.000Z</time>
      </trkpt>
      <trkpt lat="47.90761" lon="16.2651">
        <ele>293.490551</ele>
        <time>2026-07-07T10:47:51.000Z</time>
      </trkpt>
      <trkpt lat="47.90757" lon="16.26514">
        <ele>293.450737</ele>
        <time>2026-07-07T10:47:52.000Z</time>
      </trkpt>
      <trkpt lat="47.90754" lon="16.26518">
        <ele>293.410615</ele>
        <time>2026-07-07T10:47:53.000Z</time>
      </trkpt>
      <trkpt lat="47.9075" lon="16.26522">
        <ele>293.372641</ele>
        <time>2026-07-07T10:47:54.000Z</time>
      </trkpt>
      <trkpt lat="47.90747" lon="16.26526">
        <ele>293.335236</ele>
        <time>2026-07-07T10:47:55.000Z</time>
      </trkpt>
      <trkpt lat="47.90745" lon="16.26531">
        <ele>293.299249</ele>
        <time>2026-07-07T10:47:56.000Z</time>
      </trkpt>
      <trkpt lat="47.90744" lon="16.26538">
        <ele>293.256334</ele>
        <time>2026-07-07T10:47:57.000Z</time>
      </trkpt>
      <trkpt lat="47.90742" lon="16.26547">
        <ele>293.202649</ele>
        <time>2026-07-07T10:47:58.000Z</time>
      </trkpt>
      <trkpt lat="47.9074" lon="16.26556">
        <ele>293.143969</ele>
        <time>2026-07-07T10:47:59.000Z</time>
      </trkpt>
      <trkpt lat="47.90735" lon="16.26565">
        <ele>293.077221</ele>
        <time>2026-07-07T10:48:00.000Z</time>
      </trkpt>
      <trkpt lat="47.9073" lon="16.26572">
        <ele>293.009332</ele>
        <time>2026-07-07T10:48:01.000Z</time>
      </trkpt>
      <trkpt lat="47.90724" lon="16.26579">
        <ele>292.942745</ele>
        <time>2026-07-07T10:48:02.000Z</time>
      </trkpt>
      <trkpt lat="47.90717" lon="16.26586">
        <ele>292.872934</ele>
        <time>2026-07-07T10:48:03.000Z</time>
      </trkpt>
      <trkpt lat="47.90711" lon="16.26592">
        <ele>292.8067</ele>
        <time>2026-07-07T10:48:04.000Z</time>
      </trkpt>
      <trkpt lat="47.90705" lon="16.26599">
        <ele>292.739364</ele>
        <time>2026-07-07T10:48:05.000Z</time>
      </trkpt>
      <trkpt lat="47.907" lon="16.26606">
        <ele>292.674868</ele>
        <time>2026-07-07T10:48:06.000Z</time>
      </trkpt>
      <trkpt lat="47.90694" lon="16.26613">
        <ele>292.612192</ele>
        <time>2026-07-07T10:48:07.000Z</time>
      </trkpt>
      <trkpt lat="47.90689" lon="16.2662">
        <ele>292.5475</ele>
        <time>2026-07-07T10:48:08.000Z</time>
      </trkpt>
      <trkpt lat="47.90684" lon="16.26628">
        <ele>292.483582</ele>
        <time>2026-07-07T10:48:09.000Z</time>
      </trkpt>
      <trkpt lat="47.90681" lon="16.26637">
        <ele>292.424768</ele>
        <time>2026-07-07T10:48:10.000Z</time>
      </trkpt>
      <trkpt lat="47.90679" lon="16.26646">
        <ele>292.363659</ele>
        <time>2026-07-07T10:48:11.000Z</time>
      </trkpt>
      <trkpt lat="47.90675" lon="16.26655">
        <ele>292.30424</ele>
        <time>2026-07-07T10:48:12.000Z</time>
      </trkpt>
      <trkpt lat="47.90671" lon="16.26662">
        <ele>292.24425</ele>
        <time>2026-07-07T10:48:13.000Z</time>
      </trkpt>
      <trkpt lat="47.90666" lon="16.26668">
        <ele>292.18479</ele>
        <time>2026-07-07T10:48:14.000Z</time>
      </trkpt>
      <trkpt lat="47.9066" lon="16.26674">
        <ele>292.124997</ele>
        <time>2026-07-07T10:48:15.000Z</time>
      </trkpt>
      <trkpt lat="47.90655" lon="16.26681">
        <ele>292.115528</ele>
        <time>2026-07-07T10:48:16.000Z</time>
      </trkpt>
      <trkpt lat="47.9065" lon="16.26687">
        <ele>292.144848</ele>
        <time>2026-07-07T10:48:17.000Z</time>
      </trkpt>
      <trkpt lat="47.90645" lon="16.26694">
        <ele>292.173113</ele>
        <time>2026-07-07T10:48:18.000Z</time>
      </trkpt>
      <trkpt lat="47.90641" lon="16.267">
        <ele>292.201048</ele>
        <time>2026-07-07T10:48:19.000Z</time>
      </trkpt>
      <trkpt lat="47.90636" lon="16.26706">
        <ele>292.229118</ele>
        <time>2026-07-07T10:48:20.000Z</time>
      </trkpt>
      <trkpt lat="47.90631" lon="16.26712">
        <ele>292.257052</ele>
        <time>2026-07-07T10:48:21.000Z</time>
      </trkpt>
      <trkpt lat="47.90626" lon="16.26719">
        <ele>292.285186</ele>
        <time>2026-07-07T10:48:22.000Z</time>
      </trkpt>
      <trkpt lat="47.90622" lon="16.26726">
        <ele>292.31289</ele>
        <time>2026-07-07T10:48:23.000Z</time>
      </trkpt>
      <trkpt lat="47.90618" lon="16.26732">
        <ele>292.340998</ele>
        <time>2026-07-07T10:48:24.000Z</time>
      </trkpt>
      <trkpt lat="47.90613" lon="16.26739">
        <ele>292.369534</ele>
        <time>2026-07-07T10:48:25.000Z</time>
      </trkpt>
      <trkpt lat="47.90608" lon="16.26746">
        <ele>292.398374</ele>
        <time>2026-07-07T10:48:26.000Z</time>
      </trkpt>
      <trkpt lat="47.90604" lon="16.26753">
        <ele>292.42732</ele>
        <time>2026-07-07T10:48:27.000Z</time>
      </trkpt>
      <trkpt lat="47.90599" lon="16.2676">
        <ele>292.456063</ele>
        <time>2026-07-07T10:48:28.000Z</time>
      </trkpt>
      <trkpt lat="47.90595" lon="16.26766">
        <ele>292.484381</ele>
        <time>2026-07-07T10:48:29.000Z</time>
      </trkpt>
      <trkpt lat="47.9059" lon="16.26773">
        <ele>292.512911</ele>
        <time>2026-07-07T10:48:30.000Z</time>
      </trkpt>
      <trkpt lat="47.90586" lon="16.2678">
        <ele>292.540615</ele>
        <time>2026-07-07T10:48:31.000Z</time>
      </trkpt>
      <trkpt lat="47.90581" lon="16.26787">
        <ele>292.568411</ele>
        <time>2026-07-07T10:48:32.000Z</time>
      </trkpt>
      <trkpt lat="47.90577" lon="16.26794">
        <ele>292.596115</ele>
        <time>2026-07-07T10:48:33.000Z</time>
      </trkpt>
      <trkpt lat="47.90573" lon="16.26801">
        <ele>292.624254</ele>
        <time>2026-07-07T10:48:34.000Z</time>
      </trkpt>
      <trkpt lat="47.90568" lon="16.26807">
        <ele>292.652572</ele>
        <time>2026-07-07T10:48:35.000Z</time>
      </trkpt>
      <trkpt lat="47.90564" lon="16.26815">
        <ele>292.681446</ele>
        <time>2026-07-07T10:48:36.000Z</time>
      </trkpt>
      <trkpt lat="47.9056" lon="16.26822">
        <ele>292.710024</ele>
        <time>2026-07-07T10:48:37.000Z</time>
      </trkpt>
      <trkpt lat="47.90555" lon="16.26829">
        <ele>292.737728</ele>
        <time>2026-07-07T10:48:38.000Z</time>
      </trkpt>
      <trkpt lat="47.90551" lon="16.26835">
        <ele>292.765737</ele>
        <time>2026-07-07T10:48:39.000Z</time>
      </trkpt>
      <trkpt lat="47.90547" lon="16.26842">
        <ele>292.793226</ele>
        <time>2026-07-07T10:48:40.000Z</time>
      </trkpt>
      <trkpt lat="47.90543" lon="16.26849">
        <ele>292.820038</ele>
        <time>2026-07-07T10:48:41.000Z</time>
      </trkpt>
      <trkpt lat="47.90539" lon="16.26855">
        <ele>292.846188</ele>
        <time>2026-07-07T10:48:42.000Z</time>
      </trkpt>
      <trkpt lat="47.90535" lon="16.26862">
        <ele>292.87212</ele>
        <time>2026-07-07T10:48:43.000Z</time>
      </trkpt>
      <trkpt lat="47.90531" lon="16.26868">
        <ele>292.899713</ele>
        <time>2026-07-07T10:48:44.000Z</time>
      </trkpt>
      <trkpt lat="47.90527" lon="16.26874">
        <ele>292.953547</ele>
        <time>2026-07-07T10:48:45.000Z</time>
      </trkpt>
      <trkpt lat="47.90524" lon="16.2688">
        <ele>293.005644</ele>
        <time>2026-07-07T10:48:46.000Z</time>
      </trkpt>
      <trkpt lat="47.90521" lon="16.26886">
        <ele>293.051029</ele>
        <time>2026-07-07T10:48:47.000Z</time>
      </trkpt>
      <trkpt lat="47.90518" lon="16.26891">
        <ele>293.092903</ele>
        <time>2026-07-07T10:48:48.000Z</time>
      </trkpt>
      <trkpt lat="47.90515" lon="16.26893">
        <ele>293.12696</ele>
        <time>2026-07-07T10:48:49.000Z</time>
      </trkpt>
      <trkpt lat="47.90511" lon="16.26893">
        <ele>293.161482</ele>
        <time>2026-07-07T10:48:50.000Z</time>
      </trkpt>
      <trkpt lat="47.90508" lon="16.26891">
        <ele>293.193533</ele>
        <time>2026-07-07T10:48:51.000Z</time>
      </trkpt>
      <trkpt lat="47.90506" lon="16.26888">
        <ele>293.225713</ele>
        <time>2026-07-07T10:48:52.000Z</time>
      </trkpt>
      <trkpt lat="47.90504" lon="16.26884">
        <ele>293.255619</ele>
        <time>2026-07-07T10:48:53.000Z</time>
      </trkpt>
      <trkpt lat="47.90502" lon="16.2688">
        <ele>293.283399</ele>
        <time>2026-07-07T10:48:54.000Z</time>
      </trkpt>
      <trkpt lat="47.90501" lon="16.26877">
        <ele>293.308801</ele>
        <time>2026-07-07T10:48:55.000Z</time>
      </trkpt>
      <trkpt lat="47.90499" lon="16.26875">
        <ele>293.330365</ele>
        <time>2026-07-07T10:48:56.000Z</time>
      </trkpt>
      <trkpt lat="47.90498" lon="16.26872">
        <ele>293.352256</ele>
        <time>2026-07-07T10:48:57.000Z</time>
      </trkpt>
      <trkpt lat="47.90497" lon="16.26869">
        <ele>293.37379</ele>
        <time>2026-07-07T10:48:58.000Z</time>
      </trkpt>
      <trkpt lat="47.90496" lon="16.26866">
        <ele>293.397067</ele>
        <time>2026-07-07T10:48:59.000Z</time>
      </trkpt>
      <trkpt lat="47.90494" lon="16.26863">
        <ele>293.420561</ele>
        <time>2026-07-07T10:49:00.000Z</time>
      </trkpt>
      <trkpt lat="47.90493" lon="16.2686">
        <ele>293.441927</ele>
        <time>2026-07-07T10:49:01.000Z</time>
      </trkpt>
      <trkpt lat="47.90492" lon="16.26858">
        <ele>293.461263</ele>
        <time>2026-07-07T10:49:02.000Z</time>
      </trkpt>
      <trkpt lat="47.90491" lon="16.26856">
        <ele>293.479493</ele>
        <time>2026-07-07T10:49:03.000Z</time>
      </trkpt>
      <trkpt lat="47.9049" lon="16.26853">
        <ele>293.497113</ele>
        <time>2026-07-07T10:49:04.000Z</time>
      </trkpt>
      <trkpt lat="47.90488" lon="16.26851">
        <ele>293.516875</ele>
        <time>2026-07-07T10:49:05.000Z</time>
      </trkpt>
      <trkpt lat="47.90487" lon="16.26848">
        <ele>293.537183</ele>
        <time>2026-07-07T10:49:06.000Z</time>
      </trkpt>
      <trkpt lat="47.90486" lon="16.26846">
        <ele>293.555915</ele>
        <time>2026-07-07T10:49:07.000Z</time>
      </trkpt>
      <trkpt lat="47.90485" lon="16.26844">
        <ele>293.571441</ele>
        <time>2026-07-07T10:49:08.000Z</time>
      </trkpt>
      <trkpt lat="47.90484" lon="16.26842">
        <ele>293.585501</ele>
        <time>2026-07-07T10:49:09.000Z</time>
      </trkpt>
      <trkpt lat="47.90483" lon="16.26841">
        <ele>293.599098</ele>
        <time>2026-07-07T10:49:10.000Z</time>
      </trkpt>
      <trkpt lat="47.90482" lon="16.26839">
        <ele>293.617003</ele>
        <time>2026-07-07T10:49:11.000Z</time>
      </trkpt>
      <trkpt lat="47.9048" lon="16.26836">
        <ele>293.639445</ele>
        <time>2026-07-07T10:49:12.000Z</time>
      </trkpt>
      <trkpt lat="47.90479" lon="16.26834">
        <ele>293.660069</ele>
        <time>2026-07-07T10:49:13.000Z</time>
      </trkpt>
      <trkpt lat="47.90477" lon="16.26832">
        <ele>293.682074</ele>
        <time>2026-07-07T10:49:14.000Z</time>
      </trkpt>
      <trkpt lat="47.90475" lon="16.26829">
        <ele>293.707092</ele>
        <time>2026-07-07T10:49:15.000Z</time>
      </trkpt>
      <trkpt lat="47.90472" lon="16.26826">
        <ele>293.737854</ele>
        <time>2026-07-07T10:49:16.000Z</time>
      </trkpt>
      <trkpt lat="47.9047" lon="16.26823">
        <ele>293.771673</ele>
        <time>2026-07-07T10:49:17.000Z</time>
      </trkpt>
      <trkpt lat="47.90466" lon="16.26819">
        <ele>293.810492</ele>
        <time>2026-07-07T10:49:18.000Z</time>
      </trkpt>
      <trkpt lat="47.90463" lon="16.26816">
        <ele>293.851996</ele>
        <time>2026-07-07T10:49:19.000Z</time>
      </trkpt>
      <trkpt lat="47.90459" lon="16.26811">
        <ele>293.896214</ele>
        <time>2026-07-07T10:49:20.000Z</time>
      </trkpt>
      <trkpt lat="47.90455" lon="16.26807">
        <ele>293.945034</ele>
        <time>2026-07-07T10:49:21.000Z</time>
      </trkpt>
      <trkpt lat="47.90451" lon="16.26801">
        <ele>293.998855</ele>
        <time>2026-07-07T10:49:22.000Z</time>
      </trkpt>
      <trkpt lat="47.90446" lon="16.26796">
        <ele>294.055043</ele>
        <time>2026-07-07T10:49:23.000Z</time>
      </trkpt>
      <trkpt lat="47.90442" lon="16.2679">
        <ele>294.115086</ele>
        <time>2026-07-07T10:49:24.000Z</time>
      </trkpt>
      <trkpt lat="47.90437" lon="16.26784">
        <ele>294.174718</ele>
        <time>2026-07-07T10:49:25.000Z</time>
      </trkpt>
      <trkpt lat="47.90432" lon="16.26778">
        <ele>294.230496</ele>
        <time>2026-07-07T10:49:26.000Z</time>
      </trkpt>
      <trkpt lat="47.90428" lon="16.26773">
        <ele>294.286986</ele>
        <time>2026-07-07T10:49:27.000Z</time>
      </trkpt>
      <trkpt lat="47.90423" lon="16.26768">
        <ele>294.33926</ele>
        <time>2026-07-07T10:49:28.000Z</time>
      </trkpt>
      <trkpt lat="47.90419" lon="16.26763">
        <ele>294.389988</ele>
        <time>2026-07-07T10:49:29.000Z</time>
      </trkpt>
      <trkpt lat="47.90415" lon="16.26758">
        <ele>294.441869</ele>
        <time>2026-07-07T10:49:30.000Z</time>
      </trkpt>
      <trkpt lat="47.9041" lon="16.26754">
        <ele>294.492303</ele>
        <time>2026-07-07T10:49:31.000Z</time>
      </trkpt>
      <trkpt lat="47.90406" lon="16.2675">
        <ele>294.541582</ele>
        <time>2026-07-07T10:49:32.000Z</time>
      </trkpt>
      <trkpt lat="47.90402" lon="16.26746">
        <ele>294.590169</ele>
        <time>2026-07-07T10:49:33.000Z</time>
      </trkpt>
      <trkpt lat="47.90397" lon="16.26742">
        <ele>294.6659</ele>
        <time>2026-07-07T10:49:34.000Z</time>
      </trkpt>
      <trkpt lat="47.90392" lon="16.26738">
        <ele>294.787968</ele>
        <time>2026-07-07T10:49:35.000Z</time>
      </trkpt>
      <trkpt lat="47.90388" lon="16.26734">
        <ele>294.909539</ele>
        <time>2026-07-07T10:49:36.000Z</time>
      </trkpt>
      <trkpt lat="47.90383" lon="16.26729">
        <ele>295.031992</ele>
        <time>2026-07-07T10:49:37.000Z</time>
      </trkpt>
      <trkpt lat="47.90379" lon="16.26724">
        <ele>295.150097</ele>
        <time>2026-07-07T10:49:38.000Z</time>
      </trkpt>
      <trkpt lat="47.90375" lon="16.2672">
        <ele>295.26465</ele>
        <time>2026-07-07T10:49:39.000Z</time>
      </trkpt>
      <trkpt lat="47.90371" lon="16.26715">
        <ele>295.376612</ele>
        <time>2026-07-07T10:49:40.000Z</time>
      </trkpt>
      <trkpt lat="47.90366" lon="16.26711">
        <ele>295.487992</ele>
        <time>2026-07-07T10:49:41.000Z</time>
      </trkpt>
      <trkpt lat="47.90362" lon="16.26707">
        <ele>295.596728</ele>
        <time>2026-07-07T10:49:42.000Z</time>
      </trkpt>
      <trkpt lat="47.90358" lon="16.26704">
        <ele>295.704693</ele>
        <time>2026-07-07T10:49:43.000Z</time>
      </trkpt>
      <trkpt lat="47.90354" lon="16.267">
        <ele>295.810014</ele>
        <time>2026-07-07T10:49:44.000Z</time>
      </trkpt>
      <trkpt lat="47.9035" lon="16.26696">
        <ele>295.919535</ele>
        <time>2026-07-07T10:49:45.000Z</time>
      </trkpt>
      <trkpt lat="47.90346" lon="16.26692">
        <ele>296.022613</ele>
        <time>2026-07-07T10:49:46.000Z</time>
      </trkpt>
      <trkpt lat="47.90342" lon="16.26688">
        <ele>296.124804</ele>
        <time>2026-07-07T10:49:47.000Z</time>
      </trkpt>
      <trkpt lat="47.90338" lon="16.26684">
        <ele>296.228251</ele>
        <time>2026-07-07T10:49:48.000Z</time>
      </trkpt>
      <trkpt lat="47.90334" lon="16.26681">
        <ele>296.327324</ele>
        <time>2026-07-07T10:49:49.000Z</time>
      </trkpt>
      <trkpt lat="47.9033" lon="16.26678">
        <ele>296.423234</ele>
        <time>2026-07-07T10:49:50.000Z</time>
      </trkpt>
      <trkpt lat="47.90326" lon="16.26674">
        <ele>296.524819</ele>
        <time>2026-07-07T10:49:51.000Z</time>
      </trkpt>
      <trkpt lat="47.90323" lon="16.2667">
        <ele>296.62376</ele>
        <time>2026-07-07T10:49:52.000Z</time>
      </trkpt>
      <trkpt lat="47.90319" lon="16.26666">
        <ele>296.723336</ele>
        <time>2026-07-07T10:49:53.000Z</time>
      </trkpt>
      <trkpt lat="47.90315" lon="16.26663">
        <ele>296.816206</ele>
        <time>2026-07-07T10:49:54.000Z</time>
      </trkpt>
      <trkpt lat="47.90311" lon="16.2666">
        <ele>296.914754</ele>
        <time>2026-07-07T10:49:55.000Z</time>
      </trkpt>
      <trkpt lat="47.90308" lon="16.26656">
        <ele>297.009201</ele>
        <time>2026-07-07T10:49:56.000Z</time>
      </trkpt>
      <trkpt lat="47.90304" lon="16.26653">
        <ele>297.105496</ele>
        <time>2026-07-07T10:49:57.000Z</time>
      </trkpt>
      <trkpt lat="47.903" lon="16.26649">
        <ele>297.202889</ele>
        <time>2026-07-07T10:49:58.000Z</time>
      </trkpt>
      <trkpt lat="47.90296" lon="16.26646">
        <ele>297.300017</ele>
        <time>2026-07-07T10:49:59.000Z</time>
      </trkpt>
      <trkpt lat="47.90293" lon="16.26643">
        <ele>297.395927</ele>
        <time>2026-07-07T10:50:00.000Z</time>
      </trkpt>
      <trkpt lat="47.90289" lon="16.2664">
        <ele>297.492222</ele>
        <time>2026-07-07T10:50:01.000Z</time>
      </trkpt>
      <trkpt lat="47.90285" lon="16.26636">
        <ele>297.58831</ele>
        <time>2026-07-07T10:50:02.000Z</time>
      </trkpt>
      <trkpt lat="47.90281" lon="16.26632">
        <ele>297.688345</ele>
        <time>2026-07-07T10:50:03.000Z</time>
      </trkpt>
      <trkpt lat="47.90278" lon="16.26629">
        <ele>297.786504</ele>
        <time>2026-07-07T10:50:04.000Z</time>
      </trkpt>
      <trkpt lat="47.90274" lon="16.26625">
        <ele>297.884662</ele>
        <time>2026-07-07T10:50:05.000Z</time>
      </trkpt>
      <trkpt lat="47.9027" lon="16.26622">
        <ele>297.987012</ele>
        <time>2026-07-07T10:50:06.000Z</time>
      </trkpt>
      <trkpt lat="47.90265" lon="16.2662">
        <ele>298.085347</ele>
        <time>2026-07-07T10:50:07.000Z</time>
      </trkpt>
      <trkpt lat="47.90261" lon="16.2662">
        <ele>298.17996</ele>
        <time>2026-07-07T10:50:08.000Z</time>
      </trkpt>
      <trkpt lat="47.90257" lon="16.26621">
        <ele>298.274881</ele>
        <time>2026-07-07T10:50:09.000Z</time>
      </trkpt>
      <trkpt lat="47.90253" lon="16.26625">
        <ele>298.368322</ele>
        <time>2026-07-07T10:50:10.000Z</time>
      </trkpt>
      <trkpt lat="47.90251" lon="16.2663">
        <ele>298.462608</ele>
        <time>2026-07-07T10:50:11.000Z</time>
      </trkpt>
      <trkpt lat="47.90249" lon="16.26636">
        <ele>298.559736</ele>
        <time>2026-07-07T10:50:12.000Z</time>
      </trkpt>
      <trkpt lat="47.90246" lon="16.26642">
        <ele>298.492851</ele>
        <time>2026-07-07T10:50:13.000Z</time>
      </trkpt>
      <trkpt lat="47.90244" lon="16.26648">
        <ele>298.403591</ele>
        <time>2026-07-07T10:50:14.000Z</time>
      </trkpt>
      <trkpt lat="47.9024" lon="16.26655">
        <ele>298.307193</ele>
        <time>2026-07-07T10:50:15.000Z</time>
      </trkpt>
      <trkpt lat="47.90237" lon="16.26662">
        <ele>298.207906</ele>
        <time>2026-07-07T10:50:16.000Z</time>
      </trkpt>
      <trkpt lat="47.90234" lon="16.26669">
        <ele>298.101573</ele>
        <time>2026-07-07T10:50:17.000Z</time>
      </trkpt>
      <trkpt lat="47.9023" lon="16.26676">
        <ele>297.992155</ele>
        <time>2026-07-07T10:50:19.000Z</time>
      </trkpt>
      <trkpt lat="47.90226" lon="16.26684">
        <ele>297.874671</ele>
        <time>2026-07-07T10:50:20.000Z</time>
      </trkpt>
      <trkpt lat="47.90218" lon="16.26701">
        <ele>297.623838</ele>
        <time>2026-07-07T10:50:21.000Z</time>
      </trkpt>
      <trkpt lat="47.90214" lon="16.2671">
        <ele>297.490206</ele>
        <time>2026-07-07T10:50:23.000Z</time>
      </trkpt>
      <trkpt lat="47.90209" lon="16.26718">
        <ele>297.352086</ele>
        <time>2026-07-07T10:50:24.000Z</time>
      </trkpt>
      <trkpt lat="47.90199" lon="16.26737">
        <ele>297.060431</ele>
        <time>2026-07-07T10:50:25.000Z</time>
      </trkpt>
      <trkpt lat="47.90194" lon="16.26748">
        <ele>296.907866</ele>
        <time>2026-07-07T10:50:26.000Z</time>
      </trkpt>
      <trkpt lat="47.90189" lon="16.26758">
        <ele>296.756409</ele>
        <time>2026-07-07T10:50:27.000Z</time>
      </trkpt>
      <trkpt lat="47.90184" lon="16.26768">
        <ele>296.601889</ele>
        <time>2026-07-07T10:50:28.000Z</time>
      </trkpt>
      <trkpt lat="47.90179" lon="16.26778">
        <ele>296.453391</ele>
        <time>2026-07-07T10:50:29.000Z</time>
      </trkpt>
      <trkpt lat="47.90174" lon="16.26788">
        <ele>296.304698</ele>
        <time>2026-07-07T10:50:30.000Z</time>
      </trkpt>
      <trkpt lat="47.90169" lon="16.26797">
        <ele>296.160761</ele>
        <time>2026-07-07T10:50:31.000Z</time>
      </trkpt>
      <trkpt lat="47.90164" lon="16.26806">
        <ele>296.017307</ele>
        <time>2026-07-07T10:50:32.000Z</time>
      </trkpt>
      <trkpt lat="47.90159" lon="16.26815">
        <ele>295.873853</ele>
        <time>2026-07-07T10:50:33.000Z</time>
      </trkpt>
      <trkpt lat="47.90154" lon="16.26824">
        <ele>295.738166</ele>
        <time>2026-07-07T10:50:34.000Z</time>
      </trkpt>
      <trkpt lat="47.90149" lon="16.26833">
        <ele>295.600045</ele>
        <time>2026-07-07T10:50:35.000Z</time>
      </trkpt>
      <trkpt lat="47.90144" lon="16.26841">
        <ele>295.467988</ele>
        <time>2026-07-07T10:50:36.000Z</time>
      </trkpt>
      <trkpt lat="47.90139" lon="16.26849">
        <ele>295.337687</ele>
        <time>2026-07-07T10:50:37.000Z</time>
      </trkpt>
      <trkpt lat="47.90135" lon="16.26857">
        <ele>295.286256</ele>
        <time>2026-07-07T10:50:38.000Z</time>
      </trkpt>
      <trkpt lat="47.9013" lon="16.26865">
        <ele>295.238067</ele>
        <time>2026-07-07T10:50:39.000Z</time>
      </trkpt>
      <trkpt lat="47.90126" lon="16.26872">
        <ele>295.1925</ele>
        <time>2026-07-07T10:50:40.000Z</time>
      </trkpt>
      <trkpt lat="47.90121" lon="16.26878">
        <ele>295.148067</ele>
        <time>2026-07-07T10:50:41.000Z</time>
      </trkpt>
      <trkpt lat="47.90116" lon="16.26884">
        <ele>295.105478</ele>
        <time>2026-07-07T10:50:42.000Z</time>
      </trkpt>
      <trkpt lat="47.90111" lon="16.26889">
        <ele>295.064866</ele>
        <time>2026-07-07T10:50:43.000Z</time>
      </trkpt>
      <trkpt lat="47.90105" lon="16.26892">
        <ele>295.024729</ele>
        <time>2026-07-07T10:50:44.000Z</time>
      </trkpt>
      <trkpt lat="47.901" lon="16.26892">
        <ele>294.987537</ele>
        <time>2026-07-07T10:50:45.000Z</time>
      </trkpt>
      <trkpt lat="47.90094" lon="16.26891">
        <ele>294.949371</ele>
        <time>2026-07-07T10:50:46.000Z</time>
      </trkpt>
      <trkpt lat="47.90089" lon="16.26888">
        <ele>294.912124</ele>
        <time>2026-07-07T10:50:47.000Z</time>
      </trkpt>
      <trkpt lat="47.90084" lon="16.26885">
        <ele>294.87321</ele>
        <time>2026-07-07T10:50:48.000Z</time>
      </trkpt>
      <trkpt lat="47.90079" lon="16.26881">
        <ele>294.835158</ele>
        <time>2026-07-07T10:50:49.000Z</time>
      </trkpt>
      <trkpt lat="47.90074" lon="16.26878">
        <ele>294.799124</ele>
        <time>2026-07-07T10:50:50.000Z</time>
      </trkpt>
      <trkpt lat="47.90069" lon="16.26876">
        <ele>294.762638</ele>
        <time>2026-07-07T10:50:51.000Z</time>
      </trkpt>
      <trkpt lat="47.90064" lon="16.26877">
        <ele>294.726951</ele>
        <time>2026-07-07T10:50:52.000Z</time>
      </trkpt>
      <trkpt lat="47.90059" lon="16.26878">
        <ele>294.692375</ele>
        <time>2026-07-07T10:50:53.000Z</time>
      </trkpt>
      <trkpt lat="47.90054" lon="16.26877">
        <ele>294.661366</ele>
        <time>2026-07-07T10:50:54.000Z</time>
      </trkpt>
      <trkpt lat="47.90051" lon="16.26873">
        <ele>294.632793</ele>
        <time>2026-07-07T10:50:55.000Z</time>
      </trkpt>
      <trkpt lat="47.90048" lon="16.26868">
        <ele>294.600324</ele>
        <time>2026-07-07T10:50:56.000Z</time>
      </trkpt>
      <trkpt lat="47.90046" lon="16.26861">
        <ele>294.566685</ele>
        <time>2026-07-07T10:50:57.000Z</time>
      </trkpt>
      <trkpt lat="47.90043" lon="16.26854">
        <ele>294.528896</ele>
        <time>2026-07-07T10:50:58.000Z</time>
      </trkpt>
      <trkpt lat="47.9004" lon="16.26848">
        <ele>294.491493</ele>
        <time>2026-07-07T10:50:59.000Z</time>
      </trkpt>
      <trkpt lat="47.90037" lon="16.26841">
        <ele>294.453318</ele>
        <time>2026-07-07T10:51:00.000Z</time>
      </trkpt>
      <trkpt lat="47.90034" lon="16.26833">
        <ele>294.413188</ele>
        <time>2026-07-07T10:51:01.000Z</time>
      </trkpt>
      <trkpt lat="47.90031" lon="16.26825">
        <ele>294.371868</ele>
        <time>2026-07-07T10:51:02.000Z</time>
      </trkpt>
      <trkpt lat="47.90028" lon="16.26817">
        <ele>294.329269</ele>
        <time>2026-07-07T10:51:03.000Z</time>
      </trkpt>
      <trkpt lat="47.90025" lon="16.26809">
        <ele>294.287459</ele>
        <time>2026-07-07T10:51:04.000Z</time>
      </trkpt>
      <trkpt lat="47.90023" lon="16.268">
        <ele>294.244809</ele>
        <time>2026-07-07T10:51:05.000Z</time>
      </trkpt>
      <trkpt lat="47.9002" lon="16.26792">
        <ele>294.203129</ele>
        <time>2026-07-07T10:51:06.000Z</time>
      </trkpt>
      <trkpt lat="47.90017" lon="16.26785">
        <ele>294.163052</ele>
        <time>2026-07-07T10:51:07.000Z</time>
      </trkpt>
      <trkpt lat="47.90014" lon="16.26778">
        <ele>294.126031</ele>
        <time>2026-07-07T10:51:08.000Z</time>
      </trkpt>
      <trkpt lat="47.9001" lon="16.26771">
        <ele>294.073422</ele>
        <time>2026-07-07T10:51:09.000Z</time>
      </trkpt>
      <trkpt lat="47.90007" lon="16.26765">
        <ele>294.006975</ele>
        <time>2026-07-07T10:51:10.000Z</time>
      </trkpt>
      <trkpt lat="47.90003" lon="16.26758">
        <ele>293.939033</ele>
        <time>2026-07-07T10:51:11.000Z</time>
      </trkpt>
      <trkpt lat="47.9" lon="16.26751">
        <ele>293.869986</ele>
        <time>2026-07-07T10:51:12.000Z</time>
      </trkpt>
      <trkpt lat="47.89997" lon="16.26744">
        <ele>293.80061</ele>
        <time>2026-07-07T10:51:13.000Z</time>
      </trkpt>
      <trkpt lat="47.89996" lon="16.26736">
        <ele>293.731792</ele>
        <time>2026-07-07T10:51:14.000Z</time>
      </trkpt>
      <trkpt lat="47.89995" lon="16.26727">
        <ele>293.662467</ele>
        <time>2026-07-07T10:51:15.000Z</time>
      </trkpt>
      <trkpt lat="47.89994" lon="16.26719">
        <ele>293.594434</ele>
        <time>2026-07-07T10:51:16.000Z</time>
      </trkpt>
      <trkpt lat="47.89994" lon="16.26711">
        <ele>293.527067</ele>
        <time>2026-07-07T10:51:17.000Z</time>
      </trkpt>
      <trkpt lat="47.89992" lon="16.26703">
        <ele>293.461566</ele>
        <time>2026-07-07T10:51:18.000Z</time>
      </trkpt>
      <trkpt lat="47.8999" lon="16.26696">
        <ele>293.397082</ele>
        <time>2026-07-07T10:51:19.000Z</time>
      </trkpt>
      <trkpt lat="47.89987" lon="16.26689">
        <ele>293.331362</ele>
        <time>2026-07-07T10:51:20.000Z</time>
      </trkpt>
      <trkpt lat="47.89983" lon="16.26684">
        <ele>293.266997</ele>
        <time>2026-07-07T10:51:21.000Z</time>
      </trkpt>
      <trkpt lat="47.89979" lon="16.26679">
        <ele>293.20171</ele>
        <time>2026-07-07T10:51:22.000Z</time>
      </trkpt>
      <trkpt lat="47.89974" lon="16.26675">
        <ele>293.136725</ele>
        <time>2026-07-07T10:51:23.000Z</time>
      </trkpt>
      <trkpt lat="47.89969" lon="16.26673">
        <ele>293.069851</ele>
        <time>2026-07-07T10:51:24.000Z</time>
      </trkpt>
      <trkpt lat="47.89963" lon="16.26672">
        <ele>293.002677</ele>
        <time>2026-07-07T10:51:25.000Z</time>
      </trkpt>
      <trkpt lat="47.89958" lon="16.26673">
        <ele>292.935503</ele>
        <time>2026-07-07T10:51:26.000Z</time>
      </trkpt>
      <trkpt lat="47.89952" lon="16.26675">
        <ele>292.866283</ele>
        <time>2026-07-07T10:51:27.000Z</time>
      </trkpt>
      <trkpt lat="47.89947" lon="16.26678">
        <ele>292.797307</ele>
        <time>2026-07-07T10:51:28.000Z</time>
      </trkpt>
      <trkpt lat="47.89941" lon="16.26681">
        <ele>292.726395</ele>
        <time>2026-07-07T10:51:29.000Z</time>
      </trkpt>
      <trkpt lat="47.89936" lon="16.26684">
        <ele>292.653786</ele>
        <time>2026-07-07T10:51:30.000Z</time>
      </trkpt>
      <trkpt lat="47.8993" lon="16.26687">
        <ele>292.577118</ele>
        <time>2026-07-07T10:51:31.000Z</time>
      </trkpt>
      <trkpt lat="47.89924" lon="16.2669">
        <ele>292.497097</ele>
        <time>2026-07-07T10:51:32.000Z</time>
      </trkpt>
      <trkpt lat="47.89917" lon="16.26694">
        <ele>292.413093</ele>
        <time>2026-07-07T10:51:33.000Z</time>
      </trkpt>
      <trkpt lat="47.89911" lon="16.26697">
        <ele>292.328228</ele>
        <time>2026-07-07T10:51:34.000Z</time>
      </trkpt>
      <trkpt lat="47.89905" lon="16.26701">
        <ele>292.248669</ele>
        <time>2026-07-07T10:51:35.000Z</time>
      </trkpt>
      <trkpt lat="47.89899" lon="16.26705">
        <ele>292.173927</ele>
        <time>2026-07-07T10:51:36.000Z</time>
      </trkpt>
      <trkpt lat="47.89895" lon="16.2671">
        <ele>292.107148</ele>
        <time>2026-07-07T10:51:37.000Z</time>
      </trkpt>
      <trkpt lat="47.8989" lon="16.26715">
        <ele>292.039857</ele>
        <time>2026-07-07T10:51:38.000Z</time>
      </trkpt>
      <trkpt lat="47.89886" lon="16.2672">
        <ele>291.97589</ele>
        <time>2026-07-07T10:51:39.000Z</time>
      </trkpt>
      <trkpt lat="47.89882" lon="16.26725">
        <ele>291.91499</ele>
        <time>2026-07-07T10:51:40.000Z</time>
      </trkpt>
      <trkpt lat="47.89878" lon="16.2673">
        <ele>291.962804</ele>
        <time>2026-07-07T10:51:41.000Z</time>
      </trkpt>
      <trkpt lat="47.89873" lon="16.26733">
        <ele>292.009956</ele>
        <time>2026-07-07T10:51:42.000Z</time>
      </trkpt>
      <trkpt lat="47.89868" lon="16.26736">
        <ele>292.059161</ele>
        <time>2026-07-07T10:51:43.000Z</time>
      </trkpt>
      <trkpt lat="47.89862" lon="16.26739">
        <ele>292.108155</ele>
        <time>2026-07-07T10:51:44.000Z</time>
      </trkpt>
      <trkpt lat="47.89857" lon="16.26742">
        <ele>292.158397</ele>
        <time>2026-07-07T10:51:45.000Z</time>
      </trkpt>
      <trkpt lat="47.89852" lon="16.26745">
        <ele>292.20596</ele>
        <time>2026-07-07T10:51:46.000Z</time>
      </trkpt>
      <trkpt lat="47.89847" lon="16.26748">
        <ele>292.254552</ele>
        <time>2026-07-07T10:51:47.000Z</time>
      </trkpt>
      <trkpt lat="47.89842" lon="16.26751">
        <ele>292.302312</ele>
        <time>2026-07-07T10:51:48.000Z</time>
      </trkpt>
      <trkpt lat="47.89837" lon="16.26754">
        <ele>292.351103</ele>
        <time>2026-07-07T10:51:49.000Z</time>
      </trkpt>
      <trkpt lat="47.89832" lon="16.26757">
        <ele>292.398666</ele>
        <time>2026-07-07T10:51:50.000Z</time>
      </trkpt>
      <trkpt lat="47.89827" lon="16.2676">
        <ele>292.446229</ele>
        <time>2026-07-07T10:51:51.000Z</time>
      </trkpt>
      <trkpt lat="47.89822" lon="16.26762">
        <ele>292.493363</ele>
        <time>2026-07-07T10:51:52.000Z</time>
      </trkpt>
      <trkpt lat="47.89816" lon="16.26765">
        <ele>292.542357</ele>
        <time>2026-07-07T10:51:53.000Z</time>
      </trkpt>
      <trkpt lat="47.89811" lon="16.26768">
        <ele>292.592386</ele>
        <time>2026-07-07T10:51:54.000Z</time>
      </trkpt>
      <trkpt lat="47.89806" lon="16.26771">
        <ele>292.642628</ele>
        <time>2026-07-07T10:51:55.000Z</time>
      </trkpt>
      <trkpt lat="47.89801" lon="16.26774">
        <ele>292.691833</ele>
        <time>2026-07-07T10:51:56.000Z</time>
      </trkpt>
      <trkpt lat="47.89795" lon="16.26777">
        <ele>292.741655</ele>
        <time>2026-07-07T10:51:57.000Z</time>
      </trkpt>
      <trkpt lat="47.8979" lon="16.2678">
        <ele>292.79086</ele>
        <time>2026-07-07T10:51:58.000Z</time>
      </trkpt>
      <trkpt lat="47.89785" lon="16.26783">
        <ele>292.840889</ele>
        <time>2026-07-07T10:51:59.000Z</time>
      </trkpt>
      <trkpt lat="47.89779" lon="16.26786">
        <ele>292.891744</ele>
        <time>2026-07-07T10:52:00.000Z</time>
      </trkpt>
      <trkpt lat="47.89774" lon="16.26789">
        <ele>292.939309</ele>
        <time>2026-07-07T10:52:01.000Z</time>
      </trkpt>
      <trkpt lat="47.89769" lon="16.26792">
        <ele>292.989961</ele>
        <time>2026-07-07T10:52:02.000Z</time>
      </trkpt>
      <trkpt lat="47.89763" lon="16.26794">
        <ele>293.040879</ele>
        <time>2026-07-07T10:52:03.000Z</time>
      </trkpt>
      <trkpt lat="47.89758" lon="16.26797">
        <ele>293.090702</ele>
        <time>2026-07-07T10:52:04.000Z</time>
      </trkpt>
      <trkpt lat="47.89753" lon="16.268">
        <ele>293.139941</ele>
        <time>2026-07-07T10:52:05.000Z</time>
      </trkpt>
      <trkpt lat="47.89747" lon="16.26802">
        <ele>293.18984</ele>
        <time>2026-07-07T10:52:06.000Z</time>
      </trkpt>
      <trkpt lat="47.89742" lon="16.26805">
        <ele>293.240583</ele>
        <time>2026-07-07T10:52:07.000Z</time>
      </trkpt>
      <trkpt lat="47.89736" lon="16.26808">
        <ele>293.291684</ele>
        <time>2026-07-07T10:52:08.000Z</time>
      </trkpt>
      <trkpt lat="47.89731" lon="16.2681">
        <ele>293.342427</ele>
        <time>2026-07-07T10:52:09.000Z</time>
      </trkpt>
      <trkpt lat="47.89726" lon="16.26813">
        <ele>293.391854</ele>
        <time>2026-07-07T10:52:10.000Z</time>
      </trkpt>
      <trkpt lat="47.8972" lon="16.26815">
        <ele>293.440911</ele>
        <time>2026-07-07T10:52:11.000Z</time>
      </trkpt>
      <trkpt lat="47.89715" lon="16.26818">
        <ele>293.490811</ele>
        <time>2026-07-07T10:52:12.000Z</time>
      </trkpt>
      <trkpt lat="47.8971" lon="16.2682">
        <ele>293.52508</ele>
        <time>2026-07-07T10:52:13.000Z</time>
      </trkpt>
      <trkpt lat="47.89704" lon="16.26823">
        <ele>293.555987</ele>
        <time>2026-07-07T10:52:14.000Z</time>
      </trkpt>
      <trkpt lat="47.89699" lon="16.26825">
        <ele>293.587425</ele>
        <time>2026-07-07T10:52:15.000Z</time>
      </trkpt>
      <trkpt lat="47.89693" lon="16.26827">
        <ele>293.619185</ele>
        <time>2026-07-07T10:52:16.000Z</time>
      </trkpt>
      <trkpt lat="47.89688" lon="16.2683">
        <ele>293.651048</ele>
        <time>2026-07-07T10:52:17.000Z</time>
      </trkpt>
      <trkpt lat="47.89683" lon="16.26832">
        <ele>293.681445</ele>
        <time>2026-07-07T10:52:18.000Z</time>
      </trkpt>
      <trkpt lat="47.89677" lon="16.26834">
        <ele>293.712921</ele>
        <time>2026-07-07T10:52:19.000Z</time>
      </trkpt>
      <trkpt lat="47.89672" lon="16.26836">
        <ele>293.743612</ele>
        <time>2026-07-07T10:52:20.000Z</time>
      </trkpt>
      <trkpt lat="47.89666" lon="16.26838">
        <ele>293.774737</ele>
        <time>2026-07-07T10:52:21.000Z</time>
      </trkpt>
      <trkpt lat="47.89661" lon="16.2684">
        <ele>293.805227</ele>
        <time>2026-07-07T10:52:22.000Z</time>
      </trkpt>
      <trkpt lat="47.89656" lon="16.26843">
        <ele>293.836889</ele>
        <time>2026-07-07T10:52:23.000Z</time>
      </trkpt>
      <trkpt lat="47.8965" lon="16.26845">
        <ele>293.867477</ele>
        <time>2026-07-07T10:52:24.000Z</time>
      </trkpt>
      <trkpt lat="47.89645" lon="16.26847">
        <ele>293.898506</ele>
        <time>2026-07-07T10:52:25.000Z</time>
      </trkpt>
      <trkpt lat="47.8964" lon="16.26849">
        <ele>293.928903</ele>
        <time>2026-07-07T10:52:26.000Z</time>
      </trkpt>
      <trkpt lat="47.89634" lon="16.26851">
        <ele>293.96038</ele>
        <time>2026-07-07T10:52:27.000Z</time>
      </trkpt>
      <trkpt lat="47.89628" lon="16.26853">
        <ele>293.992937</ele>
        <time>2026-07-07T10:52:28.000Z</time>
      </trkpt>
      <trkpt lat="47.89623" lon="16.26855">
        <ele>294.024414</ele>
        <time>2026-07-07T10:52:29.000Z</time>
      </trkpt>
      <trkpt lat="47.89617" lon="16.26857">
        <ele>294.05589</ele>
        <time>2026-07-07T10:52:30.000Z</time>
      </trkpt>
      <trkpt lat="47.89612" lon="16.26859">
        <ele>294.088089</ele>
        <time>2026-07-07T10:52:31.000Z</time>
      </trkpt>
      <trkpt lat="47.89606" lon="16.26861">
        <ele>294.119566</ele>
        <time>2026-07-07T10:52:32.000Z</time>
      </trkpt>
      <trkpt lat="47.89601" lon="16.26863">
        <ele>294.151961</ele>
        <time>2026-07-07T10:52:33.000Z</time>
      </trkpt>
      <trkpt lat="47.89595" lon="16.26864">
        <ele>294.184691</ele>
        <time>2026-07-07T10:52:34.000Z</time>
      </trkpt>
      <trkpt lat="47.89589" lon="16.26865">
        <ele>294.21753</ele>
        <time>2026-07-07T10:52:35.000Z</time>
      </trkpt>
      <trkpt lat="47.89583" lon="16.26864">
        <ele>294.249884</ele>
        <time>2026-07-07T10:52:36.000Z</time>
      </trkpt>
      <trkpt lat="47.89577" lon="16.26863">
        <ele>294.282441</ele>
        <time>2026-07-07T10:52:37.000Z</time>
      </trkpt>
      <trkpt lat="47.89572" lon="16.26862">
        <ele>294.314398</ele>
        <time>2026-07-07T10:52:38.000Z</time>
      </trkpt>
      <trkpt lat="47.89566" lon="16.26861">
        <ele>294.346146</ele>
        <time>2026-07-07T10:52:39.000Z</time>
      </trkpt>
      <trkpt lat="47.8956" lon="16.26861">
        <ele>294.378394</ele>
        <time>2026-07-07T10:52:40.000Z</time>
      </trkpt>
      <trkpt lat="47.89554" lon="16.26862">
        <ele>294.410306</ele>
        <time>2026-07-07T10:52:41.000Z</time>
      </trkpt>
      <trkpt lat="47.89549" lon="16.26864">
        <ele>294.441268</ele>
        <time>2026-07-07T10:52:42.000Z</time>
      </trkpt>
      <trkpt lat="47.89543" lon="16.26865">
        <ele>294.472724</ele>
        <time>2026-07-07T10:52:43.000Z</time>
      </trkpt>
      <trkpt lat="47.89538" lon="16.26866">
        <ele>294.501253</ele>
        <time>2026-07-07T10:52:44.000Z</time>
      </trkpt>
      <trkpt lat="47.89533" lon="16.26867">
        <ele>294.508003</ele>
        <time>2026-07-07T10:52:45.000Z</time>
      </trkpt>
      <trkpt lat="47.89527" lon="16.26868">
        <ele>294.514872</ele>
        <time>2026-07-07T10:52:46.000Z</time>
      </trkpt>
      <trkpt lat="47.89522" lon="16.26868">
        <ele>294.521612</ele>
        <time>2026-07-07T10:52:47.000Z</time>
      </trkpt>
      <trkpt lat="47.89517" lon="16.2687">
        <ele>294.528397</ele>
        <time>2026-07-07T10:52:48.000Z</time>
      </trkpt>
      <trkpt lat="47.89512" lon="16.26872">
        <ele>294.534803</ele>
        <time>2026-07-07T10:52:49.000Z</time>
      </trkpt>
      <trkpt lat="47.89508" lon="16.26875">
        <ele>294.541124</ele>
        <time>2026-07-07T10:52:50.000Z</time>
      </trkpt>
      <trkpt lat="47.89503" lon="16.26879">
        <ele>294.547595</ele>
        <time>2026-07-07T10:52:51.000Z</time>
      </trkpt>
      <trkpt lat="47.89499" lon="16.26883">
        <ele>294.553996</ele>
        <time>2026-07-07T10:52:52.000Z</time>
      </trkpt>
      <trkpt lat="47.89494" lon="16.26886">
        <ele>294.560694</ele>
        <time>2026-07-07T10:52:53.000Z</time>
      </trkpt>
      <trkpt lat="47.8949" lon="16.26889">
        <ele>294.567474</ele>
        <time>2026-07-07T10:52:54.000Z</time>
      </trkpt>
      <trkpt lat="47.89485" lon="16.26892">
        <ele>294.574184</ele>
        <time>2026-07-07T10:52:55.000Z</time>
      </trkpt>
      <trkpt lat="47.8948" lon="16.26894">
        <ele>294.581154</ele>
        <time>2026-07-07T10:52:56.000Z</time>
      </trkpt>
      <trkpt lat="47.89474" lon="16.26895">
        <ele>294.588042</ele>
        <time>2026-07-07T10:52:57.000Z</time>
      </trkpt>
      <trkpt lat="47.89469" lon="16.26896">
        <ele>294.594802</ele>
        <time>2026-07-07T10:52:58.000Z</time>
      </trkpt>
      <trkpt lat="47.89464" lon="16.26897">
        <ele>294.601563</ele>
        <time>2026-07-07T10:52:59.000Z</time>
      </trkpt>
      <trkpt lat="47.89459" lon="16.26899">
        <ele>294.608488</ele>
        <time>2026-07-07T10:53:00.000Z</time>
      </trkpt>
      <trkpt lat="47.89453" lon="16.269">
        <ele>294.615287</ele>
        <time>2026-07-07T10:53:01.000Z</time>
      </trkpt>
      <trkpt lat="47.89448" lon="16.26901">
        <ele>294.622175</ele>
        <time>2026-07-07T10:53:02.000Z</time>
      </trkpt>
      <trkpt lat="47.89443" lon="16.26902">
        <ele>294.629342</ele>
        <time>2026-07-07T10:53:03.000Z</time>
      </trkpt>
      <trkpt lat="47.89437" lon="16.26903">
        <ele>294.636103</ele>
        <time>2026-07-07T10:53:04.000Z</time>
      </trkpt>
      <trkpt lat="47.89432" lon="16.26904">
        <ele>294.643015</ele>
        <time>2026-07-07T10:53:05.000Z</time>
      </trkpt>
      <trkpt lat="47.89427" lon="16.26905">
        <ele>294.65017</ele>
        <time>2026-07-07T10:53:06.000Z</time>
      </trkpt>
      <trkpt lat="47.89421" lon="16.26907">
        <ele>294.657337</ele>
        <time>2026-07-07T10:53:07.000Z</time>
      </trkpt>
      <trkpt lat="47.89415" lon="16.26908">
        <ele>294.664738</ele>
        <time>2026-07-07T10:53:08.000Z</time>
      </trkpt>
      <trkpt lat="47.8941" lon="16.26908">
        <ele>294.671991</ele>
        <time>2026-07-07T10:53:09.000Z</time>
      </trkpt>
      <trkpt lat="47.89404" lon="16.26909">
        <ele>294.679611</ele>
        <time>2026-07-07T10:53:10.000Z</time>
      </trkpt>
      <trkpt lat="47.89398" lon="16.26909">
        <ele>294.687098</ele>
        <time>2026-07-07T10:53:11.000Z</time>
      </trkpt>
      <trkpt lat="47.89392" lon="16.2691">
        <ele>294.694589</ele>
        <time>2026-07-07T10:53:12.000Z</time>
      </trkpt>
      <trkpt lat="47.89386" lon="16.2691">
        <ele>294.702214</ele>
        <time>2026-07-07T10:53:13.000Z</time>
      </trkpt>
      <trkpt lat="47.89381" lon="16.26911">
        <ele>294.709717</ele>
        <time>2026-07-07T10:53:14.000Z</time>
      </trkpt>
      <trkpt lat="47.89375" lon="16.26912">
        <ele>294.717501</ele>
        <time>2026-07-07T10:53:15.000Z</time>
      </trkpt>
      <trkpt lat="47.89368" lon="16.26913">
        <ele>294.725542</ele>
        <time>2026-07-07T10:53:16.000Z</time>
      </trkpt>
      <trkpt lat="47.89362" lon="16.26914">
        <ele>294.745448</ele>
        <time>2026-07-07T10:53:17.000Z</time>
      </trkpt>
      <trkpt lat="47.89357" lon="16.26915">
        <ele>294.85677</ele>
        <time>2026-07-07T10:53:18.000Z</time>
      </trkpt>
      <trkpt lat="47.89351" lon="16.26917">
        <ele>294.96826</ele>
        <time>2026-07-07T10:53:19.000Z</time>
      </trkpt>
      <trkpt lat="47.89345" lon="16.26918">
        <ele>295.072212</ele>
        <time>2026-07-07T10:53:20.000Z</time>
      </trkpt>
      <trkpt lat="47.8934" lon="16.26919">
        <ele>295.168443</ele>
        <time>2026-07-07T10:53:21.000Z</time>
      </trkpt>
      <trkpt lat="47.89336" lon="16.2692">
        <ele>295.26111</ele>
        <time>2026-07-07T10:53:22.000Z</time>
      </trkpt>
      <trkpt lat="47.89331" lon="16.26921">
        <ele>295.3519</ele>
        <time>2026-07-07T10:53:23.000Z</time>
      </trkpt>
      <trkpt lat="47.89326" lon="16.26923">
        <ele>295.441043</ele>
        <time>2026-07-07T10:53:24.000Z</time>
      </trkpt>
      <trkpt lat="47.89322" lon="16.26924">
        <ele>295.532558</ele>
        <time>2026-07-07T10:53:25.000Z</time>
      </trkpt>
      <trkpt lat="47.89317" lon="16.26925">
        <ele>295.619184</ele>
        <time>2026-07-07T10:53:26.000Z</time>
      </trkpt>
      <trkpt lat="47.89313" lon="16.26926">
        <ele>295.705102</ele>
        <time>2026-07-07T10:53:27.000Z</time>
      </trkpt>
      <trkpt lat="47.89308" lon="16.26926">
        <ele>295.790868</ele>
        <time>2026-07-07T10:53:28.000Z</time>
      </trkpt>
      <trkpt lat="47.89304" lon="16.26926">
        <ele>295.872899</ele>
        <time>2026-07-07T10:53:29.000Z</time>
      </trkpt>
      <trkpt lat="47.89299" lon="16.26926">
        <ele>295.958589</ele>
        <time>2026-07-07T10:53:30.000Z</time>
      </trkpt>
      <trkpt lat="47.89295" lon="16.26926">
        <ele>296.04427</ele>
        <time>2026-07-07T10:53:31.000Z</time>
      </trkpt>
      <trkpt lat="47.8929" lon="16.26926">
        <ele>296.128056</ele>
        <time>2026-07-07T10:53:32.000Z</time>
      </trkpt>
      <trkpt lat="47.89286" lon="16.26926">
        <ele>296.210087</ele>
        <time>2026-07-07T10:53:33.000Z</time>
      </trkpt>
      <trkpt lat="47.89282" lon="16.26925">
        <ele>296.290422</ele>
        <time>2026-07-07T10:53:34.000Z</time>
      </trkpt>
      <trkpt lat="47.89278" lon="16.26925">
        <ele>296.37278</ele>
        <time>2026-07-07T10:53:35.000Z</time>
      </trkpt>
      <trkpt lat="47.89273" lon="16.26924">
        <ele>296.453762</ele>
        <time>2026-07-07T10:53:36.000Z</time>
      </trkpt>
      <trkpt lat="47.89269" lon="16.26923">
        <ele>296.536268</ele>
        <time>2026-07-07T10:53:37.000Z</time>
      </trkpt>
      <trkpt lat="47.89265" lon="16.26922">
        <ele>296.616735</ele>
        <time>2026-07-07T10:53:38.000Z</time>
      </trkpt>
      <trkpt lat="47.89261" lon="16.26921">
        <ele>296.695836</ele>
        <time>2026-07-07T10:53:39.000Z</time>
      </trkpt>
      <trkpt lat="47.89257" lon="16.2692">
        <ele>296.778065</ele>
        <time>2026-07-07T10:53:40.000Z</time>
      </trkpt>
      <trkpt lat="47.89253" lon="16.26918">
        <ele>296.857258</ele>
        <time>2026-07-07T10:53:41.000Z</time>
      </trkpt>
      <trkpt lat="47.89248" lon="16.26916">
        <ele>296.94164</ele>
        <time>2026-07-07T10:53:42.000Z</time>
      </trkpt>
      <trkpt lat="47.89244" lon="16.26914">
        <ele>297.030688</ele>
        <time>2026-07-07T10:53:43.000Z</time>
      </trkpt>
      <trkpt lat="47.89239" lon="16.26913">
        <ele>297.116625</ele>
        <time>2026-07-07T10:53:44.000Z</time>
      </trkpt>
      <trkpt lat="47.89235" lon="16.26913">
        <ele>297.202306</ele>
        <time>2026-07-07T10:53:45.000Z</time>
      </trkpt>
      <trkpt lat="47.89231" lon="16.26915">
        <ele>297.289724</ele>
        <time>2026-07-07T10:53:46.000Z</time>
      </trkpt>
      <trkpt lat="47.89227" lon="16.2692">
        <ele>297.374862</ele>
        <time>2026-07-07T10:53:47.000Z</time>
      </trkpt>
      <trkpt lat="47.89226" lon="16.26926">
        <ele>297.457812</ele>
        <time>2026-07-07T10:53:48.000Z</time>
      </trkpt>
      <trkpt lat="47.89226" lon="16.26933">
        <ele>297.546088</ele>
        <time>2026-07-07T10:53:49.000Z</time>
      </trkpt>
      <trkpt lat="47.89227" lon="16.26939">
        <ele>297.632161</ele>
        <time>2026-07-07T10:53:50.000Z</time>
      </trkpt>
      <trkpt lat="47.89229" lon="16.26946">
        <ele>297.725982</ele>
        <time>2026-07-07T10:53:51.000Z</time>
      </trkpt>
      <trkpt lat="47.8923" lon="16.26954">
        <ele>297.824033</ele>
        <time>2026-07-07T10:53:52.000Z</time>
      </trkpt>
      <trkpt lat="47.89232" lon="16.26961">
        <ele>297.925107</ele>
        <time>2026-07-07T10:53:53.000Z</time>
      </trkpt>
      <trkpt lat="47.89234" lon="16.26969">
        <ele>298.026807</ele>
        <time>2026-07-07T10:53:54.000Z</time>
      </trkpt>
      <trkpt lat="47.89236" lon="16.26976">
        <ele>298.13223</ele>
        <time>2026-07-07T10:53:55.000Z</time>
      </trkpt>
      <trkpt lat="47.89238" lon="16.26984">
        <ele>298.141747</ele>
        <time>2026-07-07T10:53:56.000Z</time>
      </trkpt>
      <trkpt lat="47.8924" lon="16.26992">
        <ele>298.121721</ele>
        <time>2026-07-07T10:53:57.000Z</time>
      </trkpt>
      <trkpt lat="47.89242" lon="16.27">
        <ele>298.100345</ele>
        <time>2026-07-07T10:53:58.000Z</time>
      </trkpt>
      <trkpt lat="47.89244" lon="16.27008">
        <ele>298.079767</ele>
        <time>2026-07-07T10:53:59.000Z</time>
      </trkpt>
      <trkpt lat="47.89246" lon="16.27017">
        <ele>298.05862</ele>
        <time>2026-07-07T10:54:00.000Z</time>
      </trkpt>
      <trkpt lat="47.89248" lon="16.27025">
        <ele>298.03792</ele>
        <time>2026-07-07T10:54:01.000Z</time>
      </trkpt>
      <trkpt lat="47.8925" lon="16.27033">
        <ele>298.016996</ele>
        <time>2026-07-07T10:54:02.000Z</time>
      </trkpt>
      <trkpt lat="47.89252" lon="16.27041">
        <ele>297.995846</ele>
        <time>2026-07-07T10:54:03.000Z</time>
      </trkpt>
      <trkpt lat="47.89253" lon="16.2705">
        <ele>297.975155</ele>
        <time>2026-07-07T10:54:04.000Z</time>
      </trkpt>
      <trkpt lat="47.89255" lon="16.27058">
        <ele>297.95423</ele>
        <time>2026-07-07T10:54:05.000Z</time>
      </trkpt>
      <trkpt lat="47.89258" lon="16.27066">
        <ele>297.933495</ele>
        <time>2026-07-07T10:54:06.000Z</time>
      </trkpt>
      <trkpt lat="47.8926" lon="16.27074">
        <ele>297.913062</ele>
        <time>2026-07-07T10:54:07.000Z</time>
      </trkpt>
      <trkpt lat="47.89262" lon="16.27081">
        <ele>297.892699</ele>
        <time>2026-07-07T10:54:08.000Z</time>
      </trkpt>
      <trkpt lat="47.89265" lon="16.27089">
        <ele>297.872614</ele>
        <time>2026-07-07T10:54:09.000Z</time>
      </trkpt>
      <trkpt lat="47.89268" lon="16.27096">
        <ele>297.852029</ele>
        <time>2026-07-07T10:54:10.000Z</time>
      </trkpt>
      <trkpt lat="47.89271" lon="16.27104">
        <ele>297.831497</ele>
        <time>2026-07-07T10:54:11.000Z</time>
      </trkpt>
      <trkpt lat="47.89274" lon="16.27111">
        <ele>297.810555</ele>
        <time>2026-07-07T10:54:12.000Z</time>
      </trkpt>
      <trkpt lat="47.89276" lon="16.27119">
        <ele>297.790039</ele>
        <time>2026-07-07T10:54:13.000Z</time>
      </trkpt>
      <trkpt lat="47.89279" lon="16.27127">
        <ele>297.768874</ele>
        <time>2026-07-07T10:54:14.000Z</time>
      </trkpt>
      <trkpt lat="47.89281" lon="16.27135">
        <ele>297.747916</ele>
        <time>2026-07-07T10:54:15.000Z</time>
      </trkpt>
      <trkpt lat="47.89283" lon="16.27143">
        <ele>297.727314</ele>
        <time>2026-07-07T10:54:16.000Z</time>
      </trkpt>
      <trkpt lat="47.89285" lon="16.27151">
        <ele>297.706135</ele>
        <time>2026-07-07T10:54:17.000Z</time>
      </trkpt>
      <trkpt lat="47.89287" lon="16.27159">
        <ele>297.684955</ele>
        <time>2026-07-07T10:54:18.000Z</time>
      </trkpt>
      <trkpt lat="47.89289" lon="16.27167">
        <ele>297.66413</ele>
        <time>2026-07-07T10:54:19.000Z</time>
      </trkpt>
      <trkpt lat="47.89291" lon="16.27176">
        <ele>297.643325</ele>
        <time>2026-07-07T10:54:20.000Z</time>
      </trkpt>
      <trkpt lat="47.89293" lon="16.27184">
        <ele>297.621949</ele>
        <time>2026-07-07T10:54:21.000Z</time>
      </trkpt>
      <trkpt lat="47.89295" lon="16.27193">
        <ele>297.600679</ele>
        <time>2026-07-07T10:54:22.000Z</time>
      </trkpt>
      <trkpt lat="47.89297" lon="16.27201">
        <ele>297.579529</ele>
        <time>2026-07-07T10:54:23.000Z</time>
      </trkpt>
      <trkpt lat="47.89299" lon="16.27209">
        <ele>297.558382</ele>
        <time>2026-07-07T10:54:24.000Z</time>
      </trkpt>
      <trkpt lat="47.89301" lon="16.27218">
        <ele>297.536979</ele>
        <time>2026-07-07T10:54:25.000Z</time>
      </trkpt>
      <trkpt lat="47.89303" lon="16.27226">
        <ele>297.51583</ele>
        <time>2026-07-07T10:54:26.000Z</time>
      </trkpt>
      <trkpt lat="47.89305" lon="16.27234">
        <ele>297.470783</ele>
        <time>2026-07-07T10:54:27.000Z</time>
      </trkpt>
      <trkpt lat="47.89307" lon="16.27243">
        <ele>297.423805</ele>
        <time>2026-07-07T10:54:28.000Z</time>
      </trkpt>
      <trkpt lat="47.89309" lon="16.27251">
        <ele>297.375824</ele>
        <time>2026-07-07T10:54:29.000Z</time>
      </trkpt>
      <trkpt lat="47.89311" lon="16.27259">
        <ele>297.328572</ele>
        <time>2026-07-07T10:54:30.000Z</time>
      </trkpt>
      <trkpt lat="47.89313" lon="16.27268">
        <ele>297.281093</ele>
        <time>2026-07-07T10:54:31.000Z</time>
      </trkpt>
      <trkpt lat="47.89315" lon="16.27276">
        <ele>297.233111</ele>
        <time>2026-07-07T10:54:32.000Z</time>
      </trkpt>
      <trkpt lat="47.89317" lon="16.27285">
        <ele>297.184627</ele>
        <time>2026-07-07T10:54:33.000Z</time>
      </trkpt>
      <trkpt lat="47.89319" lon="16.27294">
        <ele>297.135639</ele>
        <time>2026-07-07T10:54:34.000Z</time>
      </trkpt>
      <trkpt lat="47.89321" lon="16.27302">
        <ele>297.085615</ele>
        <time>2026-07-07T10:54:35.000Z</time>
      </trkpt>
      <trkpt lat="47.89323" lon="16.27311">
        <ele>297.035618</ele>
        <time>2026-07-07T10:54:36.000Z</time>
      </trkpt>
      <trkpt lat="47.89325" lon="16.2732">
        <ele>296.984594</ele>
        <time>2026-07-07T10:54:37.000Z</time>
      </trkpt>
      <trkpt lat="47.89327" lon="16.27329">
        <ele>296.933836</ele>
        <time>2026-07-07T10:54:38.000Z</time>
      </trkpt>
      <trkpt lat="47.8933" lon="16.27338">
        <ele>296.881751</ele>
        <time>2026-07-07T10:54:39.000Z</time>
      </trkpt>
      <trkpt lat="47.89332" lon="16.27347">
        <ele>296.830994</ele>
        <time>2026-07-07T10:54:40.000Z</time>
      </trkpt>
      <trkpt lat="47.89334" lon="16.27357">
        <ele>296.778413</ele>
        <time>2026-07-07T10:54:41.000Z</time>
      </trkpt>
      <trkpt lat="47.89337" lon="16.27366">
        <ele>296.727111</ele>
        <time>2026-07-07T10:54:42.000Z</time>
      </trkpt>
      <trkpt lat="47.89339" lon="16.27375">
        <ele>296.67581</ele>
        <time>2026-07-07T10:54:43.000Z</time>
      </trkpt>
      <trkpt lat="47.89341" lon="16.27384">
        <ele>296.62422</ele>
        <time>2026-07-07T10:54:44.000Z</time>
      </trkpt>
      <trkpt lat="47.89343" lon="16.27393">
        <ele>296.572456</ele>
        <time>2026-07-07T10:54:45.000Z</time>
      </trkpt>
      <trkpt lat="47.89346" lon="16.27402">
        <ele>296.521432</ele>
        <time>2026-07-07T10:54:46.000Z</time>
      </trkpt>
      <trkpt lat="47.89348" lon="16.27411">
        <ele>296.469907</ele>
        <time>2026-07-07T10:54:47.000Z</time>
      </trkpt>
      <trkpt lat="47.8935" lon="16.2742">
        <ele>296.417133</ele>
        <time>2026-07-07T10:54:48.000Z</time>
      </trkpt>
      <trkpt lat="47.89352" lon="16.2743">
        <ele>296.364055</ele>
        <time>2026-07-07T10:54:49.000Z</time>
      </trkpt>
      <trkpt lat="47.89355" lon="16.27439">
        <ele>296.311258</ele>
        <time>2026-07-07T10:54:50.000Z</time>
      </trkpt>
      <trkpt lat="47.89357" lon="16.27448">
        <ele>296.25796</ele>
        <time>2026-07-07T10:54:51.000Z</time>
      </trkpt>
      <trkpt lat="47.89359" lon="16.27458">
        <ele>296.204883</ele>
        <time>2026-07-07T10:54:52.000Z</time>
      </trkpt>
      <trkpt lat="47.89361" lon="16.27467">
        <ele>296.151603</ele>
        <time>2026-07-07T10:54:53.000Z</time>
      </trkpt>
      <trkpt lat="47.89364" lon="16.27476">
        <ele>296.099577</ele>
        <time>2026-07-07T10:54:54.000Z</time>
      </trkpt>
      <trkpt lat="47.89366" lon="16.27485">
        <ele>296.070222</ele>
        <time>2026-07-07T10:54:55.000Z</time>
      </trkpt>
      <trkpt lat="47.89368" lon="16.27495">
        <ele>296.049318</ele>
        <time>2026-07-07T10:54:56.000Z</time>
      </trkpt>
      <trkpt lat="47.89371" lon="16.27504">
        <ele>296.028922</ele>
        <time>2026-07-07T10:54:57.000Z</time>
      </trkpt>
      <trkpt lat="47.89373" lon="16.27513">
        <ele>296.008238</ele>
        <time>2026-07-07T10:54:58.000Z</time>
      </trkpt>
      <trkpt lat="47.89375" lon="16.27522">
        <ele>295.987556</ele>
        <time>2026-07-07T10:54:59.000Z</time>
      </trkpt>
      <trkpt lat="47.89377" lon="16.27531">
        <ele>295.966976</ele>
        <time>2026-07-07T10:55:00.000Z</time>
      </trkpt>
      <trkpt lat="47.89379" lon="16.2754">
        <ele>295.946491</ele>
        <time>2026-07-07T10:55:01.000Z</time>
      </trkpt>
      <trkpt lat="47.89381" lon="16.2755">
        <ele>295.925807</ele>
        <time>2026-07-07T10:55:02.000Z</time>
      </trkpt>
      <trkpt lat="47.89383" lon="16.27559">
        <ele>295.905729</ele>
        <time>2026-07-07T10:55:03.000Z</time>
      </trkpt>
      <trkpt lat="47.89385" lon="16.27567">
        <ele>295.885949</ele>
        <time>2026-07-07T10:55:04.000Z</time>
      </trkpt>
      <trkpt lat="47.89387" lon="16.27576">
        <ele>295.865871</ele>
        <time>2026-07-07T10:55:05.000Z</time>
      </trkpt>
      <trkpt lat="47.89389" lon="16.27585">
        <ele>295.846092</ele>
        <time>2026-07-07T10:55:06.000Z</time>
      </trkpt>
      <trkpt lat="47.89391" lon="16.27594">
        <ele>295.826785</ele>
        <time>2026-07-07T10:55:07.000Z</time>
      </trkpt>
      <trkpt lat="47.89392" lon="16.27603">
        <ele>295.807557</ele>
        <time>2026-07-07T10:55:08.000Z</time>
      </trkpt>
      <trkpt lat="47.89394" lon="16.27612">
        <ele>295.78796</ele>
        <time>2026-07-07T10:55:09.000Z</time>
      </trkpt>
      <trkpt lat="47.89396" lon="16.2762">
        <ele>295.768974</ele>
        <time>2026-07-07T10:55:10.000Z</time>
      </trkpt>
      <trkpt lat="47.89398" lon="16.27629">
        <ele>295.749498</ele>
        <time>2026-07-07T10:55:11.000Z</time>
      </trkpt>
      <trkpt lat="47.89401" lon="16.27637">
        <ele>295.730456</ele>
        <time>2026-07-07T10:55:12.000Z</time>
      </trkpt>
      <trkpt lat="47.89404" lon="16.27644">
        <ele>295.711965</ele>
        <time>2026-07-07T10:55:13.000Z</time>
      </trkpt>
      <trkpt lat="47.89408" lon="16.27651">
        <ele>295.692968</ele>
        <time>2026-07-07T10:55:14.000Z</time>
      </trkpt>
      <trkpt lat="47.89412" lon="16.27657">
        <ele>295.675115</ele>
        <time>2026-07-07T10:55:15.000Z</time>
      </trkpt>
      <trkpt lat="47.89416" lon="16.27663">
        <ele>295.656742</ele>
        <time>2026-07-07T10:55:16.000Z</time>
      </trkpt>
      <trkpt lat="47.8942" lon="16.2767">
        <ele>295.638848</ele>
        <time>2026-07-07T10:55:17.000Z</time>
      </trkpt>
      <trkpt lat="47.89423" lon="16.27677">
        <ele>295.621072</ele>
        <time>2026-07-07T10:55:18.000Z</time>
      </trkpt>
      <trkpt lat="47.89426" lon="16.27684">
        <ele>295.603046</ele>
        <time>2026-07-07T10:55:19.000Z</time>
      </trkpt>
      <trkpt lat="47.89428" lon="16.27692">
        <ele>295.58571</ele>
        <time>2026-07-07T10:55:20.000Z</time>
      </trkpt>
      <trkpt lat="47.8943" lon="16.27699">
        <ele>295.568619</ele>
        <time>2026-07-07T10:55:21.000Z</time>
      </trkpt>
      <trkpt lat="47.89431" lon="16.27706">
        <ele>295.554062</ele>
        <time>2026-07-07T10:55:22.000Z</time>
      </trkpt>
      <trkpt lat="47.89432" lon="16.27711">
        <ele>295.542309</ele>
        <time>2026-07-07T10:55:23.000Z</time>
      </trkpt>
      <trkpt lat="47.8943" lon="16.27716">
        <ele>295.531</ele>
        <time>2026-07-07T10:55:24.000Z</time>
      </trkpt>
      <trkpt lat="47.89427" lon="16.27719">
        <ele>295.517923</ele>
        <time>2026-07-07T10:55:25.000Z</time>
      </trkpt>
      <trkpt lat="47.89422" lon="16.27722">
        <ele>295.515107</ele>
        <time>2026-07-07T10:55:26.000Z</time>
      </trkpt>
      <trkpt lat="47.89417" lon="16.27724">
        <ele>295.512936</ele>
        <time>2026-07-07T10:55:27.000Z</time>
      </trkpt>
      <trkpt lat="47.89412" lon="16.27727">
        <ele>295.510646</ele>
        <time>2026-07-07T10:55:28.000Z</time>
      </trkpt>
      <trkpt lat="47.89406" lon="16.27729">
        <ele>295.50812</ele>
        <time>2026-07-07T10:55:29.000Z</time>
      </trkpt>
      <trkpt lat="47.894" lon="16.27731">
        <ele>295.505479</ele>
        <time>2026-07-07T10:55:30.000Z</time>
      </trkpt>
      <trkpt lat="47.89394" lon="16.27732">
        <ele>295.503123</ele>
        <time>2026-07-07T10:55:31.000Z</time>
      </trkpt>
      <trkpt lat="47.89388" lon="16.27732">
        <ele>295.500852</ele>
        <time>2026-07-07T10:55:32.000Z</time>
      </trkpt>
      <trkpt lat="47.89383" lon="16.27734">
        <ele>295.498644</ele>
        <time>2026-07-07T10:55:33.000Z</time>
      </trkpt>
      <trkpt lat="47.89378" lon="16.27736">
        <ele>295.496355</ele>
        <time>2026-07-07T10:55:34.000Z</time>
      </trkpt>
      <trkpt lat="47.89373" lon="16.27739">
        <ele>295.494155</ele>
        <time>2026-07-07T10:55:35.000Z</time>
      </trkpt>
      <trkpt lat="47.89368" lon="16.27742">
        <ele>295.491936</ele>
        <time>2026-07-07T10:55:36.000Z</time>
      </trkpt>
      <trkpt lat="47.89363" lon="16.27745">
        <ele>295.489746</ele>
        <time>2026-07-07T10:55:37.000Z</time>
      </trkpt>
      <trkpt lat="47.89358" lon="16.27747">
        <ele>295.487546</ele>
        <time>2026-07-07T10:55:38.000Z</time>
      </trkpt>
      <trkpt lat="47.89353" lon="16.2775">
        <ele>295.485375</ele>
        <time>2026-07-07T10:55:39.000Z</time>
      </trkpt>
      <trkpt lat="47.89348" lon="16.27752">
        <ele>295.483203</ele>
        <time>2026-07-07T10:55:40.000Z</time>
      </trkpt>
      <trkpt lat="47.89343" lon="16.27755">
        <ele>295.481031</ele>
        <time>2026-07-07T10:55:41.000Z</time>
      </trkpt>
      <trkpt lat="47.89338" lon="16.27757">
        <ele>295.478868</ele>
        <time>2026-07-07T10:55:42.000Z</time>
      </trkpt>
      <trkpt lat="47.89333" lon="16.2776">
        <ele>295.476696</ele>
        <time>2026-07-07T10:55:43.000Z</time>
      </trkpt>
      <trkpt lat="47.89328" lon="16.27762">
        <ele>295.474446</ele>
        <time>2026-07-07T10:55:44.000Z</time>
      </trkpt>
      <trkpt lat="47.89323" lon="16.27765">
        <ele>295.472265</ele>
        <time>2026-07-07T10:55:45.000Z</time>
      </trkpt>
      <trkpt lat="47.89317" lon="16.27767">
        <ele>295.470015</ele>
        <time>2026-07-07T10:55:46.000Z</time>
      </trkpt>
      <trkpt lat="47.89312" lon="16.2777">
        <ele>295.467804</ele>
        <time>2026-07-07T10:55:47.000Z</time>
      </trkpt>
      <trkpt lat="47.89307" lon="16.27772">
        <ele>295.465554</ele>
        <time>2026-07-07T10:55:48.000Z</time>
      </trkpt>
      <trkpt lat="47.89302" lon="16.27775">
        <ele>295.463229</ele>
        <time>2026-07-07T10:55:49.000Z</time>
      </trkpt>
      <trkpt lat="47.89297" lon="16.27778">
        <ele>295.46097</ele>
        <time>2026-07-07T10:55:50.000Z</time>
      </trkpt>
      <trkpt lat="47.89292" lon="16.27781">
        <ele>295.45878</ele>
        <time>2026-07-07T10:55:51.000Z</time>
      </trkpt>
      <trkpt lat="47.89286" lon="16.27783">
        <ele>295.456465</ele>
        <time>2026-07-07T10:55:52.000Z</time>
      </trkpt>
      <trkpt lat="47.89281" lon="16.27786">
        <ele>295.454197</ele>
        <time>2026-07-07T10:55:53.000Z</time>
      </trkpt>
      <trkpt lat="47.89276" lon="16.27789">
        <ele>295.451998</ele>
        <time>2026-07-07T10:55:54.000Z</time>
      </trkpt>
      <trkpt lat="47.89271" lon="16.27792">
        <ele>295.449673</ele>
        <time>2026-07-07T10:55:55.000Z</time>
      </trkpt>
      <trkpt lat="47.89266" lon="16.27794">
        <ele>295.447414</ele>
        <time>2026-07-07T10:55:56.000Z</time>
      </trkpt>
      <trkpt lat="47.8926" lon="16.27797">
        <ele>295.445107</ele>
        <time>2026-07-07T10:55:57.000Z</time>
      </trkpt>
      <trkpt lat="47.89255" lon="16.278">
        <ele>295.442114</ele>
        <time>2026-07-07T10:55:58.000Z</time>
      </trkpt>
      <trkpt lat="47.8925" lon="16.27802">
        <ele>295.429688</ele>
        <time>2026-07-07T10:55:59.000Z</time>
      </trkpt>
      <trkpt lat="47.89244" lon="16.27805">
        <ele>295.417428</ele>
        <time>2026-07-07T10:56:00.000Z</time>
      </trkpt>
      <trkpt lat="47.89239" lon="16.27808">
        <ele>295.40533</ele>
        <time>2026-07-07T10:56:01.000Z</time>
      </trkpt>
      <trkpt lat="47.89234" lon="16.2781">
        <ele>295.393022</ele>
        <time>2026-07-07T10:56:02.000Z</time>
      </trkpt>
      <trkpt lat="47.89229" lon="16.27813">
        <ele>295.381234</ele>
        <time>2026-07-07T10:56:03.000Z</time>
      </trkpt>
      <trkpt lat="47.89224" lon="16.27816">
        <ele>295.369295</ele>
        <time>2026-07-07T10:56:04.000Z</time>
      </trkpt>
      <trkpt lat="47.89219" lon="16.27819">
        <ele>295.356831</ele>
        <time>2026-07-07T10:56:05.000Z</time>
      </trkpt>
      <trkpt lat="47.89214" lon="16.27821">
        <ele>295.344682</ele>
        <time>2026-07-07T10:56:06.000Z</time>
      </trkpt>
      <trkpt lat="47.89208" lon="16.27824">
        <ele>295.331951</ele>
        <time>2026-07-07T10:56:07.000Z</time>
      </trkpt>
      <trkpt lat="47.89203" lon="16.27827">
        <ele>295.319802</ele>
        <time>2026-07-07T10:56:08.000Z</time>
      </trkpt>
      <trkpt lat="47.89198" lon="16.2783">
        <ele>295.306972</ele>
        <time>2026-07-07T10:56:09.000Z</time>
      </trkpt>
      <trkpt lat="47.89192" lon="16.27833">
        <ele>295.293981</ele>
        <time>2026-07-07T10:56:10.000Z</time>
      </trkpt>
      <trkpt lat="47.89187" lon="16.27835">
        <ele>295.281555</ele>
        <time>2026-07-07T10:56:11.000Z</time>
      </trkpt>
      <trkpt lat="47.89182" lon="16.27838">
        <ele>295.268564</ele>
        <time>2026-07-07T10:56:12.000Z</time>
      </trkpt>
      <trkpt lat="47.89176" lon="16.27841">
        <ele>295.255944</ele>
        <time>2026-07-07T10:56:13.000Z</time>
      </trkpt>
      <trkpt lat="47.89171" lon="16.27843">
        <ele>295.243684</ele>
        <time>2026-07-07T10:56:14.000Z</time>
      </trkpt>
      <trkpt lat="47.89166" lon="16.27846">
        <ele>295.231375</ele>
        <time>2026-07-07T10:56:15.000Z</time>
      </trkpt>
      <trkpt lat="47.89161" lon="16.27849">
        <ele>295.218806</ele>
        <time>2026-07-07T10:56:16.000Z</time>
      </trkpt>
      <trkpt lat="47.89155" lon="16.27852">
        <ele>295.206231</ele>
        <time>2026-07-07T10:56:17.000Z</time>
      </trkpt>
      <trkpt lat="47.8915" lon="16.27855">
        <ele>295.193976</ele>
        <time>2026-07-07T10:56:18.000Z</time>
      </trkpt>
      <trkpt lat="47.89145" lon="16.27858">
        <ele>295.181095</ele>
        <time>2026-07-07T10:56:19.000Z</time>
      </trkpt>
      <trkpt lat="47.8914" lon="16.27861">
        <ele>295.168526</ele>
        <time>2026-07-07T10:56:20.000Z</time>
      </trkpt>
      <trkpt lat="47.89134" lon="16.27864">
        <ele>295.155906</ele>
        <time>2026-07-07T10:56:21.000Z</time>
      </trkpt>
      <trkpt lat="47.89129" lon="16.27867">
        <ele>295.143442</ele>
        <time>2026-07-07T10:56:22.000Z</time>
      </trkpt>
      <trkpt lat="47.89124" lon="16.2787">
        <ele>295.130979</ele>
        <time>2026-07-07T10:56:23.000Z</time>
      </trkpt>
      <trkpt lat="47.89119" lon="16.27873">
        <ele>295.118306</ele>
        <time>2026-07-07T10:56:24.000Z</time>
      </trkpt>
      <trkpt lat="47.89113" lon="16.27876">
        <ele>295.105948</ele>
        <time>2026-07-07T10:56:25.000Z</time>
      </trkpt>
      <trkpt lat="47.89108" lon="16.27878">
        <ele>295.093379</ele>
        <time>2026-07-07T10:56:26.000Z</time>
      </trkpt>
      <trkpt lat="47.89103" lon="16.27881">
        <ele>295.080968</ele>
        <time>2026-07-07T10:56:27.000Z</time>
      </trkpt>
      <trkpt lat="47.89098" lon="16.27884">
        <ele>295.06882</ele>
        <time>2026-07-07T10:56:28.000Z</time>
      </trkpt>
      <trkpt lat="47.89093" lon="16.27887">
        <ele>295.056607</ele>
        <time>2026-07-07T10:56:29.000Z</time>
      </trkpt>
      <trkpt lat="47.89088" lon="16.27889">
        <ele>295.044719</ele>
        <time>2026-07-07T10:56:30.000Z</time>
      </trkpt>
      <trkpt lat="47.89083" lon="16.27892">
        <ele>295.042876</ele>
        <time>2026-07-07T10:56:31.000Z</time>
      </trkpt>
      <trkpt lat="47.89078" lon="16.27894">
        <ele>295.046064</ele>
        <time>2026-07-07T10:56:32.000Z</time>
      </trkpt>
      <trkpt lat="47.89073" lon="16.27897">
        <ele>295.049307</ele>
        <time>2026-07-07T10:56:33.000Z</time>
      </trkpt>
      <trkpt lat="47.89068" lon="16.279">
        <ele>295.05261</ele>
        <time>2026-07-07T10:56:34.000Z</time>
      </trkpt>
      <trkpt lat="47.89062" lon="16.27902">
        <ele>295.055914</ele>
        <time>2026-07-07T10:56:35.000Z</time>
      </trkpt>
      <trkpt lat="47.89057" lon="16.27904">
        <ele>295.059318</ele>
        <time>2026-07-07T10:56:36.000Z</time>
      </trkpt>
      <trkpt lat="47.89051" lon="16.27905">
        <ele>295.062663</ele>
        <time>2026-07-07T10:56:37.000Z</time>
      </trkpt>
      <trkpt lat="47.89046" lon="16.27907">
        <ele>295.066058</ele>
        <time>2026-07-07T10:56:38.000Z</time>
      </trkpt>
      <trkpt lat="47.89041" lon="16.27908">
        <ele>295.069299</ele>
        <time>2026-07-07T10:56:39.000Z</time>
      </trkpt>
      <trkpt lat="47.89035" lon="16.27909">
        <ele>295.072648</ele>
        <time>2026-07-07T10:56:40.000Z</time>
      </trkpt>
      <trkpt lat="47.89029" lon="16.2791">
        <ele>295.076109</ele>
        <time>2026-07-07T10:56:41.000Z</time>
      </trkpt>
      <trkpt lat="47.89024" lon="16.27911">
        <ele>295.079458</ele>
        <time>2026-07-07T10:56:42.000Z</time>
      </trkpt>
      <trkpt lat="47.89018" lon="16.27912">
        <ele>295.082798</ele>
        <time>2026-07-07T10:56:43.000Z</time>
      </trkpt>
      <trkpt lat="47.89013" lon="16.27913">
        <ele>295.086203</ele>
        <time>2026-07-07T10:56:44.000Z</time>
      </trkpt>
      <trkpt lat="47.89007" lon="16.27914">
        <ele>295.089543</ele>
        <time>2026-07-07T10:56:45.000Z</time>
      </trkpt>
      <trkpt lat="47.89002" lon="16.27914">
        <ele>295.093004</ele>
        <time>2026-07-07T10:56:46.000Z</time>
      </trkpt>
      <trkpt lat="47.88996" lon="16.27915">
        <ele>295.096349</ele>
        <time>2026-07-07T10:56:47.000Z</time>
      </trkpt>
      <trkpt lat="47.8899" lon="16.27916">
        <ele>295.099823</ele>
        <time>2026-07-07T10:56:48.000Z</time>
      </trkpt>
      <trkpt lat="47.88985" lon="16.27917">
        <ele>295.103168</ele>
        <time>2026-07-07T10:56:49.000Z</time>
      </trkpt>
      <trkpt lat="47.88979" lon="16.27918">
        <ele>295.106508</ele>
        <time>2026-07-07T10:56:50.000Z</time>
      </trkpt>
      <trkpt lat="47.88974" lon="16.27919">
        <ele>295.109728</ele>
        <time>2026-07-07T10:56:51.000Z</time>
      </trkpt>
      <trkpt lat="47.88969" lon="16.2792">
        <ele>295.113065</ele>
        <time>2026-07-07T10:56:52.000Z</time>
      </trkpt>
      <trkpt lat="47.88963" lon="16.2792">
        <ele>295.116405</ele>
        <time>2026-07-07T10:56:53.000Z</time>
      </trkpt>
      <trkpt lat="47.88958" lon="16.27921">
        <ele>295.119742</ele>
        <time>2026-07-07T10:56:54.000Z</time>
      </trkpt>
      <trkpt lat="47.88952" lon="16.27922">
        <ele>295.122952</ele>
        <time>2026-07-07T10:56:55.000Z</time>
      </trkpt>
      <trkpt lat="47.88947" lon="16.27922">
        <ele>295.126289</ele>
        <time>2026-07-07T10:56:56.000Z</time>
      </trkpt>
      <trkpt lat="47.88941" lon="16.27923">
        <ele>295.129629</ele>
        <time>2026-07-07T10:56:57.000Z</time>
      </trkpt>
      <trkpt lat="47.88936" lon="16.27924">
        <ele>295.132966</ele>
        <time>2026-07-07T10:56:58.000Z</time>
      </trkpt>
      <trkpt lat="47.8893" lon="16.27925">
        <ele>295.136435</ele>
        <time>2026-07-07T10:56:59.000Z</time>
      </trkpt>
      <trkpt lat="47.88925" lon="16.27926">
        <ele>295.139784</ele>
        <time>2026-07-07T10:57:00.000Z</time>
      </trkpt>
      <trkpt lat="47.88919" lon="16.27927">
        <ele>295.143004</ele>
        <time>2026-07-07T10:57:01.000Z</time>
      </trkpt>
      <trkpt lat="47.88914" lon="16.27927">
        <ele>295.146345</ele>
        <time>2026-07-07T10:57:02.000Z</time>
      </trkpt>
      <trkpt lat="47.88908" lon="16.27928">
        <ele>295.149753</ele>
        <time>2026-07-07T10:57:03.000Z</time>
      </trkpt>
      <trkpt lat="47.88903" lon="16.27929">
        <ele>295.154486</ele>
        <time>2026-07-07T10:57:04.000Z</time>
      </trkpt>
      <trkpt lat="47.88898" lon="16.27929">
        <ele>295.159305</ele>
        <time>2026-07-07T10:57:05.000Z</time>
      </trkpt>
      <trkpt lat="47.88892" lon="16.27931">
        <ele>295.164259</ele>
        <time>2026-07-07T10:57:06.000Z</time>
      </trkpt>
      <trkpt lat="47.88887" lon="16.27932">
        <ele>295.169368</ele>
        <time>2026-07-07T10:57:07.000Z</time>
      </trkpt>
      <trkpt lat="47.88881" lon="16.27934">
        <ele>295.1747</ele>
        <time>2026-07-07T10:57:08.000Z</time>
      </trkpt>
      <trkpt lat="47.88875" lon="16.27935">
        <ele>295.179985</ele>
        <time>2026-07-07T10:57:09.000Z</time>
      </trkpt>
      <trkpt lat="47.88869" lon="16.27935">
        <ele>295.185452</ele>
        <time>2026-07-07T10:57:10.000Z</time>
      </trkpt>
      <trkpt lat="47.88863" lon="16.27936">
        <ele>295.190822</ele>
        <time>2026-07-07T10:57:11.000Z</time>
      </trkpt>
      <trkpt lat="47.88857" lon="16.27937">
        <ele>295.196284</ele>
        <time>2026-07-07T10:57:12.000Z</time>
      </trkpt>
      <trkpt lat="47.88852" lon="16.27937">
        <ele>295.201378</ele>
        <time>2026-07-07T10:57:13.000Z</time>
      </trkpt>
      <trkpt lat="47.88846" lon="16.27938">
        <ele>295.20658</ele>
        <time>2026-07-07T10:57:14.000Z</time>
      </trkpt>
      <trkpt lat="47.88841" lon="16.27939">
        <ele>295.211584</ele>
        <time>2026-07-07T10:57:15.000Z</time>
      </trkpt>
      <trkpt lat="47.88835" lon="16.2794">
        <ele>295.216424</ele>
        <time>2026-07-07T10:57:16.000Z</time>
      </trkpt>
      <trkpt lat="47.8883" lon="16.2794">
        <ele>295.221157</ele>
        <time>2026-07-07T10:57:17.000Z</time>
      </trkpt>
      <trkpt lat="47.88825" lon="16.27941">
        <ele>295.225907</ele>
        <time>2026-07-07T10:57:18.000Z</time>
      </trkpt>
      <trkpt lat="47.8882" lon="16.27942">
        <ele>295.230741</ele>
        <time>2026-07-07T10:57:19.000Z</time>
      </trkpt>
      <trkpt lat="47.88814" lon="16.27943">
        <ele>295.235575</ele>
        <time>2026-07-07T10:57:20.000Z</time>
      </trkpt>
      <trkpt lat="47.88809" lon="16.27944">
        <ele>295.240584</ele>
        <time>2026-07-07T10:57:21.000Z</time>
      </trkpt>
      <trkpt lat="47.88803" lon="16.27944">
        <ele>295.245599</ele>
        <time>2026-07-07T10:57:22.000Z</time>
      </trkpt>
      <trkpt lat="47.88798" lon="16.27945">
        <ele>295.250807</ele>
        <time>2026-07-07T10:57:23.000Z</time>
      </trkpt>
      <trkpt lat="47.88792" lon="16.27946">
        <ele>295.255996</ele>
        <time>2026-07-07T10:57:24.000Z</time>
      </trkpt>
      <trkpt lat="47.88786" lon="16.27947">
        <ele>295.261463</ele>
        <time>2026-07-07T10:57:25.000Z</time>
      </trkpt>
      <trkpt lat="47.8878" lon="16.27948">
        <ele>295.266754</ele>
        <time>2026-07-07T10:57:26.000Z</time>
      </trkpt>
      <trkpt lat="47.88774" lon="16.27948">
        <ele>295.272026</ele>
        <time>2026-07-07T10:57:27.000Z</time>
      </trkpt>
      <trkpt lat="47.88768" lon="16.27949">
        <ele>295.277483</ele>
        <time>2026-07-07T10:57:28.000Z</time>
      </trkpt>
      <trkpt lat="47.88763" lon="16.2795">
        <ele>295.282684</ele>
        <time>2026-07-07T10:57:29.000Z</time>
      </trkpt>
      <trkpt lat="47.88757" lon="16.27951">
        <ele>295.28797</ele>
        <time>2026-07-07T10:57:30.000Z</time>
      </trkpt>
      <trkpt lat="47.88751" lon="16.27951">
        <ele>295.293159</ele>
        <time>2026-07-07T10:57:31.000Z</time>
      </trkpt>
      <trkpt lat="47.88745" lon="16.27952">
        <ele>295.298355</ele>
        <time>2026-07-07T10:57:32.000Z</time>
      </trkpt>
      <trkpt lat="47.8874" lon="16.27953">
        <ele>295.303454</ele>
        <time>2026-07-07T10:57:33.000Z</time>
      </trkpt>
      <trkpt lat="47.88734" lon="16.27953">
        <ele>295.308458</ele>
        <time>2026-07-07T10:57:34.000Z</time>
      </trkpt>
      <trkpt lat="47.88729" lon="16.27954">
        <ele>295.311887</ele>
        <time>2026-07-07T10:57:35.000Z</time>
      </trkpt>
      <trkpt lat="47.88723" lon="16.27955">
        <ele>295.305312</ele>
        <time>2026-07-07T10:57:36.000Z</time>
      </trkpt>
      <trkpt lat="47.88718" lon="16.27956">
        <ele>295.298972</ele>
        <time>2026-07-07T10:57:37.000Z</time>
      </trkpt>
      <trkpt lat="47.88712" lon="16.27957">
        <ele>295.292854</ele>
        <time>2026-07-07T10:57:38.000Z</time>
      </trkpt>
      <trkpt lat="47.88707" lon="16.27957">
        <ele>295.286526</ele>
        <time>2026-07-07T10:57:39.000Z</time>
      </trkpt>
      <trkpt lat="47.88701" lon="16.27958">
        <ele>295.280301</ele>
        <time>2026-07-07T10:57:40.000Z</time>
      </trkpt>
      <trkpt lat="47.88696" lon="16.27958">
        <ele>295.27421</ele>
        <time>2026-07-07T10:57:41.000Z</time>
      </trkpt>
      <trkpt lat="47.88691" lon="16.27959">
        <ele>295.268206</ele>
        <time>2026-07-07T10:57:42.000Z</time>
      </trkpt>
      <trkpt lat="47.88686" lon="16.2796">
        <ele>295.262438</ele>
        <time>2026-07-07T10:57:43.000Z</time>
      </trkpt>
      <trkpt lat="47.88681" lon="16.2796">
        <ele>295.256892</ele>
        <time>2026-07-07T10:57:44.000Z</time>
      </trkpt>
      <trkpt lat="47.88676" lon="16.27961">
        <ele>295.25148</ele>
        <time>2026-07-07T10:57:45.000Z</time>
      </trkpt>
      <trkpt lat="47.88672" lon="16.27961">
        <ele>295.246188</ele>
        <time>2026-07-07T10:57:46.000Z</time>
      </trkpt>
      <trkpt lat="47.88667" lon="16.27962">
        <ele>295.240547</ele>
        <time>2026-07-07T10:57:47.000Z</time>
      </trkpt>
      <trkpt lat="47.88662" lon="16.27963">
        <ele>295.234658</ele>
        <time>2026-07-07T10:57:48.000Z</time>
      </trkpt>
      <trkpt lat="47.88657" lon="16.27963">
        <ele>295.228654</ele>
        <time>2026-07-07T10:57:49.000Z</time>
      </trkpt>
      <trkpt lat="47.88651" lon="16.27964">
        <ele>295.222658</ele>
        <time>2026-07-07T10:57:50.000Z</time>
      </trkpt>
      <trkpt lat="47.88646" lon="16.27965">
        <ele>295.216547</ele>
        <time>2026-07-07T10:57:51.000Z</time>
      </trkpt>
      <trkpt lat="47.88641" lon="16.27966">
        <ele>295.210544</ele>
        <time>2026-07-07T10:57:52.000Z</time>
      </trkpt>
      <trkpt lat="47.88636" lon="16.27966">
        <ele>295.204433</ele>
        <time>2026-07-07T10:57:53.000Z</time>
      </trkpt>
      <trkpt lat="47.8863" lon="16.27967">
        <ele>295.198315</ele>
        <time>2026-07-07T10:57:54.000Z</time>
      </trkpt>
      <trkpt lat="47.88625" lon="16.27968">
        <ele>295.192319</ele>
        <time>2026-07-07T10:57:55.000Z</time>
      </trkpt>
      <trkpt lat="47.8862" lon="16.27968">
        <ele>295.186219</ele>
        <time>2026-07-07T10:57:56.000Z</time>
      </trkpt>
      <trkpt lat="47.88614" lon="16.27969">
        <ele>295.180001</ele>
        <time>2026-07-07T10:57:57.000Z</time>
      </trkpt>
      <trkpt lat="47.88609" lon="16.2797">
        <ele>295.173874</ele>
        <time>2026-07-07T10:57:58.000Z</time>
      </trkpt>
      <trkpt lat="47.88604" lon="16.2797">
        <ele>295.16777</ele>
        <time>2026-07-07T10:57:59.000Z</time>
      </trkpt>
      <trkpt lat="47.88598" lon="16.27971">
        <ele>295.161556</ele>
        <time>2026-07-07T10:58:00.000Z</time>
      </trkpt>
      <trkpt lat="47.88593" lon="16.27972">
        <ele>295.155446</ele>
        <time>2026-07-07T10:58:01.000Z</time>
      </trkpt>
      <trkpt lat="47.88588" lon="16.27973">
        <ele>295.149082</ele>
        <time>2026-07-07T10:58:02.000Z</time>
      </trkpt>
      <trkpt lat="47.88582" lon="16.27973">
        <ele>295.142743</ele>
        <time>2026-07-07T10:58:03.000Z</time>
      </trkpt>
      <trkpt lat="47.88576" lon="16.27974">
        <ele>295.136185</ele>
        <time>2026-07-07T10:58:04.000Z</time>
      </trkpt>
      <trkpt lat="47.88571" lon="16.27974">
        <ele>295.129852</ele>
        <time>2026-07-07T10:58:05.000Z</time>
      </trkpt>
      <trkpt lat="47.88565" lon="16.27975">
        <ele>295.123398</ele>
        <time>2026-07-07T10:58:06.000Z</time>
      </trkpt>
      <trkpt lat="47.8856" lon="16.27976">
        <ele>295.116823</ele>
        <time>2026-07-07T10:58:07.000Z</time>
      </trkpt>
      <trkpt lat="47.88554" lon="16.27977">
        <ele>295.110254</ele>
        <time>2026-07-07T10:58:08.000Z</time>
      </trkpt>
      <trkpt lat="47.88548" lon="16.27977">
        <ele>295.106781</ele>
        <time>2026-07-07T10:58:09.000Z</time>
      </trkpt>
      <trkpt lat="47.88542" lon="16.27978">
        <ele>295.108279</ele>
        <time>2026-07-07T10:58:10.000Z</time>
      </trkpt>
      <trkpt lat="47.88536" lon="16.27979">
        <ele>295.109729</ele>
        <time>2026-07-07T10:58:11.000Z</time>
      </trkpt>
      <trkpt lat="47.8853" lon="16.27979">
        <ele>295.111231</ele>
        <time>2026-07-07T10:58:12.000Z</time>
      </trkpt>
      <trkpt lat="47.88524" lon="16.2798">
        <ele>295.112778</ele>
        <time>2026-07-07T10:58:13.000Z</time>
      </trkpt>
      <trkpt lat="47.88518" lon="16.2798">
        <ele>295.114324</ele>
        <time>2026-07-07T10:58:14.000Z</time>
      </trkpt>
      <trkpt lat="47.88512" lon="16.2798">
        <ele>295.115844</ele>
        <time>2026-07-07T10:58:15.000Z</time>
      </trkpt>
      <trkpt lat="47.88506" lon="16.27981">
        <ele>295.117392</ele>
        <time>2026-07-07T10:58:16.000Z</time>
      </trkpt>
      <trkpt lat="47.885" lon="16.27982">
        <ele>295.118893</ele>
        <time>2026-07-07T10:58:17.000Z</time>
      </trkpt>
      <trkpt lat="47.88493" lon="16.27982">
        <ele>295.120442</ele>
        <time>2026-07-07T10:58:18.000Z</time>
      </trkpt>
      <trkpt lat="47.88487" lon="16.27983">
        <ele>295.121968</ele>
        <time>2026-07-07T10:58:19.000Z</time>
      </trkpt>
      <trkpt lat="47.88481" lon="16.27984">
        <ele>295.123519</ele>
        <time>2026-07-07T10:58:20.000Z</time>
      </trkpt>
      <trkpt lat="47.88475" lon="16.27985">
        <ele>295.125072</ele>
        <time>2026-07-07T10:58:21.000Z</time>
      </trkpt>
      <trkpt lat="47.88469" lon="16.27986">
        <ele>295.126573</ele>
        <time>2026-07-07T10:58:22.000Z</time>
      </trkpt>
      <trkpt lat="47.88463" lon="16.27986">
        <ele>295.128025</ele>
        <time>2026-07-07T10:58:23.000Z</time>
      </trkpt>
      <trkpt lat="47.88457" lon="16.27987">
        <ele>295.129478</ele>
        <time>2026-07-07T10:58:24.000Z</time>
      </trkpt>
      <trkpt lat="47.88451" lon="16.27988">
        <ele>295.130977</ele>
        <time>2026-07-07T10:58:25.000Z</time>
      </trkpt>
      <trkpt lat="47.88445" lon="16.27989">
        <ele>295.132476</ele>
        <time>2026-07-07T10:58:26.000Z</time>
      </trkpt>
      <trkpt lat="47.88439" lon="16.27989">
        <ele>295.133978</ele>
        <time>2026-07-07T10:58:27.000Z</time>
      </trkpt>
      <trkpt lat="47.88433" lon="16.2799">
        <ele>295.135478</ele>
        <time>2026-07-07T10:58:28.000Z</time>
      </trkpt>
      <trkpt lat="47.88427" lon="16.27991">
        <ele>295.136979</ele>
        <time>2026-07-07T10:58:29.000Z</time>
      </trkpt>
      <trkpt lat="47.88421" lon="16.27992">
        <ele>295.138482</ele>
        <time>2026-07-07T10:58:30.000Z</time>
      </trkpt>
      <trkpt lat="47.88415" lon="16.27993">
        <ele>295.139958</ele>
        <time>2026-07-07T10:58:31.000Z</time>
      </trkpt>
      <trkpt lat="47.88409" lon="16.27993">
        <ele>295.141459</ele>
        <time>2026-07-07T10:58:32.000Z</time>
      </trkpt>
      <trkpt lat="47.88404" lon="16.27994">
        <ele>295.142913</ele>
        <time>2026-07-07T10:58:33.000Z</time>
      </trkpt>
      <trkpt lat="47.88398" lon="16.27995">
        <ele>295.144368</ele>
        <time>2026-07-07T10:58:34.000Z</time>
      </trkpt>
      <trkpt lat="47.88392" lon="16.27996">
        <ele>295.145869</ele>
        <time>2026-07-07T10:58:35.000Z</time>
      </trkpt>
      <trkpt lat="47.88386" lon="16.27997">
        <ele>295.147344</ele>
        <time>2026-07-07T10:58:36.000Z</time>
      </trkpt>
      <trkpt lat="47.8838" lon="16.27998">
        <ele>295.148795</ele>
        <time>2026-07-07T10:58:37.000Z</time>
      </trkpt>
      <trkpt lat="47.88374" lon="16.27998">
        <ele>295.150247</ele>
        <time>2026-07-07T10:58:38.000Z</time>
      </trkpt>
      <trkpt lat="47.88369" lon="16.28">
        <ele>295.151432</ele>
        <time>2026-07-07T10:58:39.000Z</time>
      </trkpt>
      <trkpt lat="47.88363" lon="16.28001">
        <ele>295.152313</ele>
        <time>2026-07-07T10:58:40.000Z</time>
      </trkpt>
      <trkpt lat="47.88357" lon="16.28002">
        <ele>295.153161</ele>
        <time>2026-07-07T10:58:41.000Z</time>
      </trkpt>
      <trkpt lat="47.88352" lon="16.28003">
        <ele>295.154024</ele>
        <time>2026-07-07T10:58:42.000Z</time>
      </trkpt>
      <trkpt lat="47.88346" lon="16.28004">
        <ele>295.154903</ele>
        <time>2026-07-07T10:58:43.000Z</time>
      </trkpt>
      <trkpt lat="47.8834" lon="16.28005">
        <ele>295.155785</ele>
        <time>2026-07-07T10:58:44.000Z</time>
      </trkpt>
      <trkpt lat="47.88335" lon="16.28006">
        <ele>295.156631</ele>
        <time>2026-07-07T10:58:45.000Z</time>
      </trkpt>
      <trkpt lat="47.88329" lon="16.28007">
        <ele>295.157478</ele>
        <time>2026-07-07T10:58:46.000Z</time>
      </trkpt>
      <trkpt lat="47.88324" lon="16.28008">
        <ele>295.158339</ele>
        <time>2026-07-07T10:58:47.000Z</time>
      </trkpt>
      <trkpt lat="47.88318" lon="16.28008">
        <ele>295.159245</ele>
        <time>2026-07-07T10:58:48.000Z</time>
      </trkpt>
      <trkpt lat="47.88312" lon="16.28009">
        <ele>295.160106</ele>
        <time>2026-07-07T10:58:49.000Z</time>
      </trkpt>
      <trkpt lat="47.88306" lon="16.2801">
        <ele>295.161013</ele>
        <time>2026-07-07T10:58:50.000Z</time>
      </trkpt>
      <trkpt lat="47.88301" lon="16.2801">
        <ele>295.161872</ele>
        <time>2026-07-07T10:58:51.000Z</time>
      </trkpt>
      <trkpt lat="47.88295" lon="16.28011">
        <ele>295.162776</ele>
        <time>2026-07-07T10:58:52.000Z</time>
      </trkpt>
      <trkpt lat="47.88289" lon="16.28011">
        <ele>295.163696</ele>
        <time>2026-07-07T10:58:53.000Z</time>
      </trkpt>
      <trkpt lat="47.88283" lon="16.28012">
        <ele>295.164587</ele>
        <time>2026-07-07T10:58:54.000Z</time>
      </trkpt>
      <trkpt lat="47.88277" lon="16.28013">
        <ele>295.165463</ele>
        <time>2026-07-07T10:58:55.000Z</time>
      </trkpt>
      <trkpt lat="47.88272" lon="16.28014">
        <ele>295.166253</ele>
        <time>2026-07-07T10:58:56.000Z</time>
      </trkpt>
      <trkpt lat="47.88267" lon="16.28016">
        <ele>295.167019</ele>
        <time>2026-07-07T10:58:57.000Z</time>
      </trkpt>
      <trkpt lat="47.88263" lon="16.28017">
        <ele>295.167665</ele>
        <time>2026-07-07T10:58:58.000Z</time>
      </trkpt>
      <trkpt lat="47.8826" lon="16.28018">
        <ele>295.168215</ele>
        <time>2026-07-07T10:58:59.000Z</time>
      </trkpt>
      <trkpt lat="47.88257" lon="16.28019">
        <ele>295.168663</ele>
        <time>2026-07-07T10:59:00.000Z</time>
      </trkpt>
      <trkpt lat="47.88254" lon="16.28019">
        <ele>295.169048</ele>
        <time>2026-07-07T10:59:01.000Z</time>
      </trkpt>
      <trkpt lat="47.88252" lon="16.2802">
        <ele>295.169403</ele>
        <time>2026-07-07T10:59:02.000Z</time>
      </trkpt>
      <trkpt lat="47.8825" lon="16.2802">
        <ele>295.169759</ele>
        <time>2026-07-07T10:59:03.000Z</time>
      </trkpt>
      <trkpt lat="47.88247" lon="16.28021">
        <ele>295.170204</ele>
        <time>2026-07-07T10:59:04.000Z</time>
      </trkpt>
      <trkpt lat="47.88244" lon="16.28021">
        <ele>295.170709</ele>
        <time>2026-07-07T10:59:05.000Z</time>
      </trkpt>
      <trkpt lat="47.8824" lon="16.2802">
        <ele>295.171295</ele>
        <time>2026-07-07T10:59:06.000Z</time>
      </trkpt>
      <trkpt lat="47.88236" lon="16.28019">
        <ele>295.171898</ele>
        <time>2026-07-07T10:59:07.000Z</time>
      </trkpt>
      <trkpt lat="47.88232" lon="16.28018">
        <ele>295.17256</ele>
        <time>2026-07-07T10:59:08.000Z</time>
      </trkpt>
      <trkpt lat="47.88227" lon="16.28018">
        <ele>295.173249</ele>
        <time>2026-07-07T10:59:09.000Z</time>
      </trkpt>
      <trkpt lat="47.88222" lon="16.28019">
        <ele>295.174015</ele>
        <time>2026-07-07T10:59:10.000Z</time>
      </trkpt>
      <trkpt lat="47.88217" lon="16.28019">
        <ele>295.174813</ele>
        <time>2026-07-07T10:59:11.000Z</time>
      </trkpt>
      <trkpt lat="47.88212" lon="16.2802">
        <ele>295.175595</ele>
        <time>2026-07-07T10:59:12.000Z</time>
      </trkpt>
      <trkpt lat="47.88207" lon="16.2802">
        <ele>295.176393</ele>
        <time>2026-07-07T10:59:13.000Z</time>
      </trkpt>
      <trkpt lat="47.88201" lon="16.28021">
        <ele>295.177191</ele>
        <time>2026-07-07T10:59:14.000Z</time>
      </trkpt>
      <trkpt lat="47.88196" lon="16.28021">
        <ele>295.177973</ele>
        <time>2026-07-07T10:59:15.000Z</time>
      </trkpt>
      <trkpt lat="47.88191" lon="16.28022">
        <ele>295.175917</ele>
        <time>2026-07-07T10:59:16.000Z</time>
      </trkpt>
      <trkpt lat="47.88186" lon="16.28023">
        <ele>295.165664</ele>
        <time>2026-07-07T10:59:17.000Z</time>
      </trkpt>
      <trkpt lat="47.88181" lon="16.28024">
        <ele>295.15562</ele>
        <time>2026-07-07T10:59:18.000Z</time>
      </trkpt>
      <trkpt lat="47.88175" lon="16.28025">
        <ele>295.144768</ele>
        <time>2026-07-07T10:59:19.000Z</time>
      </trkpt>
      <trkpt lat="47.8817" lon="16.28025">
        <ele>295.13414</ele>
        <time>2026-07-07T10:59:20.000Z</time>
      </trkpt>
      <trkpt lat="47.88164" lon="16.28026">
        <ele>295.123329</ele>
        <time>2026-07-07T10:59:21.000Z</time>
      </trkpt>
      <trkpt lat="47.88159" lon="16.28027">
        <ele>295.112518</ele>
        <time>2026-07-07T10:59:22.000Z</time>
      </trkpt>
      <trkpt lat="47.88153" lon="16.28028">
        <ele>295.101694</ele>
        <time>2026-07-07T10:59:23.000Z</time>
      </trkpt>
      <trkpt lat="47.88148" lon="16.28028">
        <ele>295.090883</ele>
        <time>2026-07-07T10:59:24.000Z</time>
      </trkpt>
      <trkpt lat="47.88142" lon="16.28029">
        <ele>295.08006</ele>
        <time>2026-07-07T10:59:25.000Z</time>
      </trkpt>
      <trkpt lat="47.88137" lon="16.2803">
        <ele>295.069249</ele>
        <time>2026-07-07T10:59:26.000Z</time>
      </trkpt>
      <trkpt lat="47.88131" lon="16.2803">
        <ele>295.058448</ele>
        <time>2026-07-07T10:59:27.000Z</time>
      </trkpt>
      <trkpt lat="47.88126" lon="16.28031">
        <ele>295.047636</ele>
        <time>2026-07-07T10:59:28.000Z</time>
      </trkpt>
      <trkpt lat="47.8812" lon="16.28032">
        <ele>295.036649</ele>
        <time>2026-07-07T10:59:29.000Z</time>
      </trkpt>
      <trkpt lat="47.88115" lon="16.28032">
        <ele>295.025838</ele>
        <time>2026-07-07T10:59:30.000Z</time>
      </trkpt>
      <trkpt lat="47.88109" lon="16.28033">
        <ele>295.014654</ele>
        <time>2026-07-07T10:59:31.000Z</time>
      </trkpt>
      <trkpt lat="47.88103" lon="16.28033">
        <ele>295.003471</ele>
        <time>2026-07-07T10:59:32.000Z</time>
      </trkpt>
      <trkpt lat="47.88098" lon="16.28034">
        <ele>294.992484</ele>
        <time>2026-07-07T10:59:33.000Z</time>
      </trkpt>
      <trkpt lat="47.88092" lon="16.28035">
        <ele>294.981271</ele>
        <time>2026-07-07T10:59:34.000Z</time>
      </trkpt>
      <trkpt lat="47.88086" lon="16.28035">
        <ele>294.969862</ele>
        <time>2026-07-07T10:59:35.000Z</time>
      </trkpt>
      <trkpt lat="47.88081" lon="16.28036">
        <ele>294.958636</ele>
        <time>2026-07-07T10:59:36.000Z</time>
      </trkpt>
      <trkpt lat="47.88075" lon="16.28037">
        <ele>294.947201</ele>
        <time>2026-07-07T10:59:37.000Z</time>
      </trkpt>
      <trkpt lat="47.88069" lon="16.28038">
        <ele>294.935988</ele>
        <time>2026-07-07T10:59:38.000Z</time>
      </trkpt>
      <trkpt lat="47.88063" lon="16.28039">
        <ele>294.924774</ele>
        <time>2026-07-07T10:59:39.000Z</time>
      </trkpt>
      <trkpt lat="47.88058" lon="16.2804">
        <ele>294.913743</ele>
        <time>2026-07-07T10:59:40.000Z</time>
      </trkpt>
      <trkpt lat="47.88052" lon="16.28041">
        <ele>294.90253</ele>
        <time>2026-07-07T10:59:41.000Z</time>
      </trkpt>
      <trkpt lat="47.88046" lon="16.28041">
        <ele>294.891317</ele>
        <time>2026-07-07T10:59:42.000Z</time>
      </trkpt>
      <trkpt lat="47.88041" lon="16.28042">
        <ele>294.879896</ele>
        <time>2026-07-07T10:59:43.000Z</time>
      </trkpt>
      <trkpt lat="47.88035" lon="16.28043">
        <ele>294.868509</ele>
        <time>2026-07-07T10:59:44.000Z</time>
      </trkpt>
      <trkpt lat="47.88029" lon="16.28044">
        <ele>294.857282</ele>
        <time>2026-07-07T10:59:45.000Z</time>
      </trkpt>
      <trkpt lat="47.88023" lon="16.28044">
        <ele>294.845895</ele>
        <time>2026-07-07T10:59:46.000Z</time>
      </trkpt>
      <trkpt lat="47.88018" lon="16.28045">
        <ele>294.834669</ele>
        <time>2026-07-07T10:59:47.000Z</time>
      </trkpt>
      <trkpt lat="47.88012" lon="16.28046">
        <ele>294.832758</ele>
        <time>2026-07-07T10:59:48.000Z</time>
      </trkpt>
      <trkpt lat="47.88006" lon="16.28047">
        <ele>294.857947</ele>
        <time>2026-07-07T10:59:49.000Z</time>
      </trkpt>
      <trkpt lat="47.88" lon="16.28048">
        <ele>294.882743</ele>
        <time>2026-07-07T10:59:50.000Z</time>
      </trkpt>
      <trkpt lat="47.87994" lon="16.28048">
        <ele>294.907122</ele>
        <time>2026-07-07T10:59:51.000Z</time>
      </trkpt>
      <trkpt lat="47.87988" lon="16.28049">
        <ele>294.931559</ele>
        <time>2026-07-07T10:59:52.000Z</time>
      </trkpt>
      <trkpt lat="47.87982" lon="16.2805">
        <ele>294.956412</ele>
        <time>2026-07-07T10:59:53.000Z</time>
      </trkpt>
      <trkpt lat="47.87977" lon="16.28051">
        <ele>294.980767</ele>
        <time>2026-07-07T10:59:54.000Z</time>
      </trkpt>
      <trkpt lat="47.87971" lon="16.28052">
        <ele>295.005956</ele>
        <time>2026-07-07T10:59:55.000Z</time>
      </trkpt>
      <trkpt lat="47.87965" lon="16.28053">
        <ele>295.029919</ele>
        <time>2026-07-07T10:59:56.000Z</time>
      </trkpt>
      <trkpt lat="47.87959" lon="16.28054">
        <ele>295.053598</ele>
        <time>2026-07-07T10:59:57.000Z</time>
      </trkpt>
      <trkpt lat="47.87953" lon="16.28055">
        <ele>295.078394</ele>
        <time>2026-07-07T10:59:58.000Z</time>
      </trkpt>
      <trkpt lat="47.87948" lon="16.28055">
        <ele>295.101939</ele>
        <time>2026-07-07T10:59:59.000Z</time>
      </trkpt>
      <trkpt lat="47.87942" lon="16.28056">
        <ele>295.125877</ele>
        <time>2026-07-07T11:00:00.000Z</time>
      </trkpt>
      <trkpt lat="47.87937" lon="16.28057">
        <ele>295.149006</ele>
        <time>2026-07-07T11:00:01.000Z</time>
      </trkpt>
      <trkpt lat="47.87931" lon="16.28058">
        <ele>295.172996</ele>
        <time>2026-07-07T11:00:02.000Z</time>
      </trkpt>
      <trkpt lat="47.87925" lon="16.28059">
        <ele>295.196125</ele>
        <time>2026-07-07T11:00:03.000Z</time>
      </trkpt>
      <trkpt lat="47.8792" lon="16.28059">
        <ele>295.219646</ele>
        <time>2026-07-07T11:00:04.000Z</time>
      </trkpt>
      <trkpt lat="47.87914" lon="16.2806">
        <ele>295.242836</ele>
        <time>2026-07-07T11:00:05.000Z</time>
      </trkpt>
      <trkpt lat="47.87909" lon="16.28061">
        <ele>295.266799</ele>
        <time>2026-07-07T11:00:06.000Z</time>
      </trkpt>
      <trkpt lat="47.87903" lon="16.28062">
        <ele>295.289902</ele>
        <time>2026-07-07T11:00:07.000Z</time>
      </trkpt>
      <trkpt lat="47.87897" lon="16.28062">
        <ele>295.314236</ele>
        <time>2026-07-07T11:00:08.000Z</time>
      </trkpt>
      <trkpt lat="47.87892" lon="16.28063">
        <ele>295.338134</ele>
        <time>2026-07-07T11:00:09.000Z</time>
      </trkpt>
      <trkpt lat="47.87886" lon="16.28064">
        <ele>295.361292</ele>
        <time>2026-07-07T11:00:10.000Z</time>
      </trkpt>
      <trkpt lat="47.8788" lon="16.28064">
        <ele>295.385208</ele>
        <time>2026-07-07T11:00:11.000Z</time>
      </trkpt>
      <trkpt lat="47.87875" lon="16.28065">
        <ele>295.408312</ele>
        <time>2026-07-07T11:00:12.000Z</time>
      </trkpt>
      <trkpt lat="47.8787" lon="16.28066">
        <ele>295.430581</ele>
        <time>2026-07-07T11:00:13.000Z</time>
      </trkpt>
      <trkpt lat="47.87864" lon="16.28066">
        <ele>295.452828</ele>
        <time>2026-07-07T11:00:14.000Z</time>
      </trkpt>
      <trkpt lat="47.87859" lon="16.28067">
        <ele>295.474738</ele>
        <time>2026-07-07T11:00:15.000Z</time>
      </trkpt>
      <trkpt lat="47.87854" lon="16.28068">
        <ele>295.497034</ele>
        <time>2026-07-07T11:00:16.000Z</time>
      </trkpt>
      <trkpt lat="47.87848" lon="16.28069">
        <ele>295.519721</ele>
        <time>2026-07-07T11:00:17.000Z</time>
      </trkpt>
      <trkpt lat="47.87843" lon="16.28069">
        <ele>295.541967</ele>
        <time>2026-07-07T11:00:18.000Z</time>
      </trkpt>
      <trkpt lat="47.87838" lon="16.2807">
        <ele>295.564237</ele>
        <time>2026-07-07T11:00:19.000Z</time>
      </trkpt>
      <trkpt lat="47.87832" lon="16.28071">
        <ele>295.576128</ele>
        <time>2026-07-07T11:00:20.000Z</time>
      </trkpt>
      <trkpt lat="47.87827" lon="16.28072">
        <ele>295.567952</ele>
        <time>2026-07-07T11:00:21.000Z</time>
      </trkpt>
      <trkpt lat="47.87821" lon="16.28072">
        <ele>295.559477</ele>
        <time>2026-07-07T11:00:22.000Z</time>
      </trkpt>
      <trkpt lat="47.87816" lon="16.28073">
        <ele>295.550861</ele>
        <time>2026-07-07T11:00:23.000Z</time>
      </trkpt>
      <trkpt lat="47.8781" lon="16.28074">
        <ele>295.542245</ele>
        <time>2026-07-07T11:00:24.000Z</time>
      </trkpt>
      <trkpt lat="47.87804" lon="16.28075">
        <ele>295.53377</ele>
        <time>2026-07-07T11:00:25.000Z</time>
      </trkpt>
      <trkpt lat="47.87799" lon="16.28075">
        <ele>295.525145</ele>
        <time>2026-07-07T11:00:26.000Z</time>
      </trkpt>
      <trkpt lat="47.87793" lon="16.28076">
        <ele>295.516809</ele>
        <time>2026-07-07T11:00:27.000Z</time>
      </trkpt>
      <trkpt lat="47.87787" lon="16.28077">
        <ele>295.508207</ele>
        <time>2026-07-07T11:00:28.000Z</time>
      </trkpt>
      <trkpt lat="47.87782" lon="16.28078">
        <ele>295.499882</ele>
        <time>2026-07-07T11:00:29.000Z</time>
      </trkpt>
      <trkpt lat="47.87776" lon="16.28078">
        <ele>295.491557</ele>
        <time>2026-07-07T11:00:30.000Z</time>
      </trkpt>
      <trkpt lat="47.87771" lon="16.28079">
        <ele>295.483091</ele>
        <time>2026-07-07T11:00:31.000Z</time>
      </trkpt>
      <trkpt lat="47.87765" lon="16.2808">
        <ele>295.474489</ele>
        <time>2026-07-07T11:00:32.000Z</time>
      </trkpt>
      <trkpt lat="47.87759" lon="16.2808">
        <ele>295.465873</ele>
        <time>2026-07-07T11:00:33.000Z</time>
      </trkpt>
      <trkpt lat="47.87754" lon="16.28081">
        <ele>295.457415</ele>
        <time>2026-07-07T11:00:34.000Z</time>
      </trkpt>
      <trkpt lat="47.87748" lon="16.28082">
        <ele>295.448498</ele>
        <time>2026-07-07T11:00:35.000Z</time>
      </trkpt>
      <trkpt lat="47.87742" lon="16.28082">
        <ele>295.440032</ele>
        <time>2026-07-07T11:00:36.000Z</time>
      </trkpt>
      <trkpt lat="47.87736" lon="16.28083">
        <ele>295.431107</ele>
        <time>2026-07-07T11:00:37.000Z</time>
      </trkpt>
      <trkpt lat="47.87731" lon="16.28084">
        <ele>295.422632</ele>
        <time>2026-07-07T11:00:38.000Z</time>
      </trkpt>
      <trkpt lat="47.87725" lon="16.28085">
        <ele>295.413997</ele>
        <time>2026-07-07T11:00:39.000Z</time>
      </trkpt>
      <trkpt lat="47.87719" lon="16.28085">
        <ele>295.405238</ele>
        <time>2026-07-07T11:00:40.000Z</time>
      </trkpt>
      <trkpt lat="47.87714" lon="16.28086">
        <ele>295.396903</ele>
        <time>2026-07-07T11:00:41.000Z</time>
      </trkpt>
      <trkpt lat="47.87708" lon="16.28087">
        <ele>295.388294</ele>
        <time>2026-07-07T11:00:42.000Z</time>
      </trkpt>
      <trkpt lat="47.87702" lon="16.28088">
        <ele>295.379678</ele>
        <time>2026-07-07T11:00:43.000Z</time>
      </trkpt>
      <trkpt lat="47.87697" lon="16.28088">
        <ele>295.371203</ele>
        <time>2026-07-07T11:00:44.000Z</time>
      </trkpt>
      <trkpt lat="47.87691" lon="16.28089">
        <ele>295.362587</ele>
        <time>2026-07-07T11:00:45.000Z</time>
      </trkpt>
      <trkpt lat="47.87685" lon="16.2809">
        <ele>295.353962</ele>
        <time>2026-07-07T11:00:46.000Z</time>
      </trkpt>
      <trkpt lat="47.8768" lon="16.28091">
        <ele>295.345477</ele>
        <time>2026-07-07T11:00:47.000Z</time>
      </trkpt>
      <trkpt lat="47.87674" lon="16.28092">
        <ele>295.336851</ele>
        <time>2026-07-07T11:00:48.000Z</time>
      </trkpt>
      <trkpt lat="47.87668" lon="16.28092">
        <ele>295.328076</ele>
        <time>2026-07-07T11:00:49.000Z</time>
      </trkpt>
      <trkpt lat="47.87663" lon="16.28093">
        <ele>295.31946</ele>
        <time>2026-07-07T11:00:50.000Z</time>
      </trkpt>
      <trkpt lat="47.87657" lon="16.28094">
        <ele>295.310685</ele>
        <time>2026-07-07T11:00:51.000Z</time>
      </trkpt>
      <trkpt lat="47.87651" lon="16.28095">
        <ele>295.302677</ele>
        <time>2026-07-07T11:00:52.000Z</time>
      </trkpt>
      <trkpt lat="47.87645" lon="16.28095">
        <ele>295.294957</ele>
        <time>2026-07-07T11:00:53.000Z</time>
      </trkpt>
      <trkpt lat="47.8764" lon="16.28096">
        <ele>295.287365</ele>
        <time>2026-07-07T11:00:54.000Z</time>
      </trkpt>
      <trkpt lat="47.87634" lon="16.28097">
        <ele>295.279369</ele>
        <time>2026-07-07T11:00:55.000Z</time>
      </trkpt>
      <trkpt lat="47.87628" lon="16.28098">
        <ele>295.271768</ele>
        <time>2026-07-07T11:00:56.000Z</time>
      </trkpt>
      <trkpt lat="47.87622" lon="16.28098">
        <ele>295.263772</ele>
        <time>2026-07-07T11:00:57.000Z</time>
      </trkpt>
      <trkpt lat="47.87616" lon="16.28099">
        <ele>295.255634</ele>
        <time>2026-07-07T11:00:58.000Z</time>
      </trkpt>
      <trkpt lat="47.87611" lon="16.281">
        <ele>295.247764</ele>
        <time>2026-07-07T11:00:59.000Z</time>
      </trkpt>
      <trkpt lat="47.87605" lon="16.28101">
        <ele>295.239903</ele>
        <time>2026-07-07T11:01:00.000Z</time>
      </trkpt>
      <trkpt lat="47.87599" lon="16.28101">
        <ele>295.231899</ele>
        <time>2026-07-07T11:01:01.000Z</time>
      </trkpt>
      <trkpt lat="47.87593" lon="16.28102">
        <ele>295.224279</ele>
        <time>2026-07-07T11:01:02.000Z</time>
      </trkpt>
      <trkpt lat="47.87588" lon="16.28103">
        <ele>295.216938</ele>
        <time>2026-07-07T11:01:03.000Z</time>
      </trkpt>
      <trkpt lat="47.87583" lon="16.28104">
        <ele>295.20972</ele>
        <time>2026-07-07T11:01:04.000Z</time>
      </trkpt>
      <trkpt lat="47.87578" lon="16.28105">
        <ele>295.203213</ele>
        <time>2026-07-07T11:01:05.000Z</time>
      </trkpt>
      <trkpt lat="47.87573" lon="16.28105">
        <ele>295.196577</ele>
        <time>2026-07-07T11:01:06.000Z</time>
      </trkpt>
      <trkpt lat="47.87568" lon="16.28106">
        <ele>295.189672</ele>
        <time>2026-07-07T11:01:07.000Z</time>
      </trkpt>
      <trkpt lat="47.87562" lon="16.28106">
        <ele>295.182233</ele>
        <time>2026-07-07T11:01:08.000Z</time>
      </trkpt>
      <trkpt lat="47.87556" lon="16.28107">
        <ele>295.174243</ele>
        <time>2026-07-07T11:01:09.000Z</time>
      </trkpt>
      <trkpt lat="47.87551" lon="16.28108">
        <ele>295.166381</ele>
        <time>2026-07-07T11:01:10.000Z</time>
      </trkpt>
      <trkpt lat="47.87545" lon="16.28108">
        <ele>295.158512</ele>
        <time>2026-07-07T11:01:11.000Z</time>
      </trkpt>
      <trkpt lat="47.87539" lon="16.28109">
        <ele>295.150516</ele>
        <time>2026-07-07T11:01:12.000Z</time>
      </trkpt>
      <trkpt lat="47.87533" lon="16.2811">
        <ele>295.142646</ele>
        <time>2026-07-07T11:01:13.000Z</time>
      </trkpt>
      <trkpt lat="47.87527" lon="16.28111">
        <ele>295.134768</ele>
        <time>2026-07-07T11:01:14.000Z</time>
      </trkpt>
      <trkpt lat="47.87522" lon="16.28112">
        <ele>295.127014</ele>
        <time>2026-07-07T11:01:15.000Z</time>
      </trkpt>
      <trkpt lat="47.87516" lon="16.28113">
        <ele>295.11926</ele>
        <time>2026-07-07T11:01:16.000Z</time>
      </trkpt>
      <trkpt lat="47.8751" lon="16.28114">
        <ele>295.11164</ele>
        <time>2026-07-07T11:01:17.000Z</time>
      </trkpt>
      <trkpt lat="47.87504" lon="16.28114">
        <ele>295.103651</ele>
        <time>2026-07-07T11:01:18.000Z</time>
      </trkpt>
      <trkpt lat="47.87499" lon="16.28115">
        <ele>295.095772</ele>
        <time>2026-07-07T11:01:19.000Z</time>
      </trkpt>
      <trkpt lat="47.87493" lon="16.28116">
        <ele>295.087918</ele>
        <time>2026-07-07T11:01:20.000Z</time>
      </trkpt>
      <trkpt lat="47.87487" lon="16.28116">
        <ele>295.080203</ele>
        <time>2026-07-07T11:01:21.000Z</time>
      </trkpt>
      <trkpt lat="47.87481" lon="16.28117">
        <ele>295.072342</ele>
        <time>2026-07-07T11:01:22.000Z</time>
      </trkpt>
      <trkpt lat="47.87475" lon="16.28118">
        <ele>295.064974</ele>
        <time>2026-07-07T11:01:23.000Z</time>
      </trkpt>
      <trkpt lat="47.8747" lon="16.28118">
        <ele>295.063438</ele>
        <time>2026-07-07T11:01:24.000Z</time>
      </trkpt>
      <trkpt lat="47.87464" lon="16.28119">
        <ele>295.061897</ele>
        <time>2026-07-07T11:01:25.000Z</time>
      </trkpt>
      <trkpt lat="47.87458" lon="16.2812">
        <ele>295.060381</ele>
        <time>2026-07-07T11:01:26.000Z</time>
      </trkpt>
      <trkpt lat="47.87452" lon="16.28121">
        <ele>295.058845</ele>
        <time>2026-07-07T11:01:27.000Z</time>
      </trkpt>
      <trkpt lat="47.87447" lon="16.28122">
        <ele>295.057333</ele>
        <time>2026-07-07T11:01:28.000Z</time>
      </trkpt>
      <trkpt lat="47.87441" lon="16.28123">
        <ele>295.055791</ele>
        <time>2026-07-07T11:01:29.000Z</time>
      </trkpt>
      <trkpt lat="47.87435" lon="16.28123">
        <ele>295.054279</ele>
        <time>2026-07-07T11:01:30.000Z</time>
      </trkpt>
      <trkpt lat="47.87429" lon="16.28124">
        <ele>295.052763</ele>
        <time>2026-07-07T11:01:31.000Z</time>
      </trkpt>
      <trkpt lat="47.87424" lon="16.28125">
        <ele>295.051224</ele>
        <time>2026-07-07T11:01:32.000Z</time>
      </trkpt>
      <trkpt lat="47.87418" lon="16.28126">
        <ele>295.049685</ele>
        <time>2026-07-07T11:01:33.000Z</time>
      </trkpt>
      <trkpt lat="47.87412" lon="16.28127">
        <ele>295.048121</ele>
        <time>2026-07-07T11:01:34.000Z</time>
      </trkpt>
      <trkpt lat="47.87406" lon="16.28127">
        <ele>295.046582</ele>
        <time>2026-07-07T11:01:35.000Z</time>
      </trkpt>
      <trkpt lat="47.874" lon="16.28128">
        <ele>295.045041</ele>
        <time>2026-07-07T11:01:36.000Z</time>
      </trkpt>
      <trkpt lat="47.87394" lon="16.28129">
        <ele>295.043479</ele>
        <time>2026-07-07T11:01:37.000Z</time>
      </trkpt>
      <trkpt lat="47.87389" lon="16.2813">
        <ele>295.041941</ele>
        <time>2026-07-07T11:01:38.000Z</time>
      </trkpt>
      <trkpt lat="47.87383" lon="16.2813">
        <ele>295.040402</ele>
        <time>2026-07-07T11:01:39.000Z</time>
      </trkpt>
      <trkpt lat="47.87377" lon="16.28131">
        <ele>295.038835</ele>
        <time>2026-07-07T11:01:40.000Z</time>
      </trkpt>
      <trkpt lat="47.87371" lon="16.28132">
        <ele>295.037292</ele>
        <time>2026-07-07T11:01:41.000Z</time>
      </trkpt>
      <trkpt lat="47.87365" lon="16.28133">
        <ele>295.035756</ele>
        <time>2026-07-07T11:01:42.000Z</time>
      </trkpt>
      <trkpt lat="47.87359" lon="16.28134">
        <ele>295.034192</ele>
        <time>2026-07-07T11:01:43.000Z</time>
      </trkpt>
      <trkpt lat="47.87354" lon="16.28134">
        <ele>295.03271</ele>
        <time>2026-07-07T11:01:44.000Z</time>
      </trkpt>
      <trkpt lat="47.87348" lon="16.28135">
        <ele>295.031146</ele>
        <time>2026-07-07T11:01:45.000Z</time>
      </trkpt>
      <trkpt lat="47.87342" lon="16.28135">
        <ele>295.02961</ele>
        <time>2026-07-07T11:01:46.000Z</time>
      </trkpt>
      <trkpt lat="47.87336" lon="16.28136">
        <ele>295.028069</ele>
        <time>2026-07-07T11:01:47.000Z</time>
      </trkpt>
      <trkpt lat="47.8733" lon="16.28137">
        <ele>295.026506</ele>
        <time>2026-07-07T11:01:48.000Z</time>
      </trkpt>
      <trkpt lat="47.87325" lon="16.28138">
        <ele>295.025018</ele>
        <time>2026-07-07T11:01:49.000Z</time>
      </trkpt>
      <trkpt lat="47.87319" lon="16.28139">
        <ele>295.023502</ele>
        <time>2026-07-07T11:01:50.000Z</time>
      </trkpt>
      <trkpt lat="47.87313" lon="16.2814">
        <ele>295.021962</ele>
        <time>2026-07-07T11:01:51.000Z</time>
      </trkpt>
      <trkpt lat="47.87307" lon="16.2814">
        <ele>295.020397</ele>
        <time>2026-07-07T11:01:52.000Z</time>
      </trkpt>
      <trkpt lat="47.87302" lon="16.28141">
        <ele>295.018912</ele>
        <time>2026-07-07T11:01:53.000Z</time>
      </trkpt>
      <trkpt lat="47.87296" lon="16.28142">
        <ele>295.019887</ele>
        <time>2026-07-07T11:01:54.000Z</time>
      </trkpt>
      <trkpt lat="47.8729" lon="16.28143">
        <ele>295.033751</ele>
        <time>2026-07-07T11:01:55.000Z</time>
      </trkpt>
      <trkpt lat="47.87284" lon="16.28144">
        <ele>295.047647</ele>
        <time>2026-07-07T11:01:56.000Z</time>
      </trkpt>
      <trkpt lat="47.87278" lon="16.28144">
        <ele>295.061748</ele>
        <time>2026-07-07T11:01:57.000Z</time>
      </trkpt>
      <trkpt lat="47.87273" lon="16.28145">
        <ele>295.075627</ele>
        <time>2026-07-07T11:01:58.000Z</time>
      </trkpt>
      <trkpt lat="47.87267" lon="16.28146">
        <ele>295.089491</ele>
        <time>2026-07-07T11:01:59.000Z</time>
      </trkpt>
      <trkpt lat="47.87261" lon="16.28147">
        <ele>295.103815</ele>
        <time>2026-07-07T11:02:00.000Z</time>
      </trkpt>
      <trkpt lat="47.87255" lon="16.28147">
        <ele>295.117881</ele>
        <time>2026-07-07T11:02:01.000Z</time>
      </trkpt>
      <trkpt lat="47.87249" lon="16.28148">
        <ele>295.131718</ele>
        <time>2026-07-07T11:02:02.000Z</time>
      </trkpt>
      <trkpt lat="47.87243" lon="16.28148">
        <ele>295.145538</ele>
        <time>2026-07-07T11:02:03.000Z</time>
      </trkpt>
      <trkpt lat="47.87237" lon="16.28149">
        <ele>295.159589</ele>
        <time>2026-07-07T11:02:04.000Z</time>
      </trkpt>
      <trkpt lat="47.87232" lon="16.28149">
        <ele>295.173402</ele>
        <time>2026-07-07T11:02:05.000Z</time>
      </trkpt>
      <trkpt lat="47.87226" lon="16.28149">
        <ele>295.187686</ele>
        <time>2026-07-07T11:02:06.000Z</time>
      </trkpt>
      <trkpt lat="47.8722" lon="16.28149">
        <ele>295.201256</ele>
        <time>2026-07-07T11:02:07.000Z</time>
      </trkpt>
      <trkpt lat="47.87214" lon="16.28149">
        <ele>295.215061</ele>
        <time>2026-07-07T11:02:08.000Z</time>
      </trkpt>
      <trkpt lat="47.87208" lon="16.28149">
        <ele>295.229343</ele>
        <time>2026-07-07T11:02:09.000Z</time>
      </trkpt>
      <trkpt lat="47.87202" lon="16.2815">
        <ele>295.243151</ele>
        <time>2026-07-07T11:02:10.000Z</time>
      </trkpt>
      <trkpt lat="47.87196" lon="16.2815">
        <ele>295.257197</ele>
        <time>2026-07-07T11:02:11.000Z</time>
      </trkpt>
      <trkpt lat="47.8719" lon="16.2815">
        <ele>295.271481</ele>
        <time>2026-07-07T11:02:12.000Z</time>
      </trkpt>
      <trkpt lat="47.87185" lon="16.2815">
        <ele>295.28529</ele>
        <time>2026-07-07T11:02:13.000Z</time>
      </trkpt>
      <trkpt lat="47.87179" lon="16.2815">
        <ele>295.299103</ele>
        <time>2026-07-07T11:02:14.000Z</time>
      </trkpt>
      <trkpt lat="47.87173" lon="16.2815">
        <ele>295.312673</ele>
        <time>2026-07-07T11:02:15.000Z</time>
      </trkpt>
      <trkpt lat="47.87167" lon="16.2815">
        <ele>295.326479</ele>
        <time>2026-07-07T11:02:16.000Z</time>
      </trkpt>
      <trkpt lat="47.87161" lon="16.28151">
        <ele>295.340525</ele>
        <time>2026-07-07T11:02:17.000Z</time>
      </trkpt>
      <trkpt lat="47.87156" lon="16.28151">
        <ele>295.35433</ele>
        <time>2026-07-07T11:02:18.000Z</time>
      </trkpt>
      <trkpt lat="47.8715" lon="16.28151">
        <ele>295.368134</ele>
        <time>2026-07-07T11:02:19.000Z</time>
      </trkpt>
      <trkpt lat="47.87144" lon="16.28151">
        <ele>295.382177</ele>
        <time>2026-07-07T11:02:20.000Z</time>
      </trkpt>
      <trkpt lat="47.87138" lon="16.28151">
        <ele>295.395985</ele>
        <time>2026-07-07T11:02:21.000Z</time>
      </trkpt>
      <trkpt lat="47.87132" lon="16.28151">
        <ele>295.40979</ele>
        <time>2026-07-07T11:02:22.000Z</time>
      </trkpt>
      <trkpt lat="47.87127" lon="16.28151">
        <ele>295.423357</ele>
        <time>2026-07-07T11:02:23.000Z</time>
      </trkpt>
      <trkpt lat="47.87121" lon="16.28151">
        <ele>295.437161</ele>
        <time>2026-07-07T11:02:24.000Z</time>
      </trkpt>
      <trkpt lat="47.87115" lon="16.28151">
        <ele>295.451515</ele>
        <time>2026-07-07T11:02:25.000Z</time>
      </trkpt>
      <trkpt lat="47.87109" lon="16.28151">
        <ele>295.465736</ele>
        <time>2026-07-07T11:02:26.000Z</time>
      </trkpt>
      <trkpt lat="47.87103" lon="16.28151">
        <ele>295.479716</ele>
        <time>2026-07-07T11:02:27.000Z</time>
      </trkpt>
      <trkpt lat="47.87097" lon="16.28151">
        <ele>295.49418</ele>
        <time>2026-07-07T11:02:28.000Z</time>
      </trkpt>
      <trkpt lat="47.87091" lon="16.28151">
        <ele>295.508164</ele>
        <time>2026-07-07T11:02:29.000Z</time>
      </trkpt>
      <trkpt lat="47.87085" lon="16.28151">
        <ele>295.522634</ele>
        <time>2026-07-07T11:02:30.000Z</time>
      </trkpt>
      <trkpt lat="47.87079" lon="16.28151">
        <ele>295.537096</ele>
        <time>2026-07-07T11:02:31.000Z</time>
      </trkpt>
      <trkpt lat="47.87073" lon="16.28151">
        <ele>295.551317</ele>
        <time>2026-07-07T11:02:32.000Z</time>
      </trkpt>
      <trkpt lat="47.87067" lon="16.28152">
        <ele>295.565783</ele>
        <time>2026-07-07T11:02:33.000Z</time>
      </trkpt>
      <trkpt lat="47.87061" lon="16.28152">
        <ele>295.580487</ele>
        <time>2026-07-07T11:02:34.000Z</time>
      </trkpt>
      <trkpt lat="47.87055" lon="16.28152">
        <ele>295.594708</ele>
        <time>2026-07-07T11:02:35.000Z</time>
      </trkpt>
      <trkpt lat="47.87049" lon="16.28152">
        <ele>295.609174</ele>
        <time>2026-07-07T11:02:36.000Z</time>
      </trkpt>
      <trkpt lat="47.87044" lon="16.28152">
        <ele>295.623155</ele>
        <time>2026-07-07T11:02:37.000Z</time>
      </trkpt>
      <trkpt lat="47.87038" lon="16.28152">
        <ele>295.637135</ele>
        <time>2026-07-07T11:02:38.000Z</time>
      </trkpt>
      <trkpt lat="47.87032" lon="16.28152">
        <ele>295.651597</ele>
        <time>2026-07-07T11:02:39.000Z</time>
      </trkpt>
      <trkpt lat="47.87026" lon="16.28152">
        <ele>295.665822</ele>
        <time>2026-07-07T11:02:40.000Z</time>
      </trkpt>
      <trkpt lat="47.8702" lon="16.28152">
        <ele>295.680284</ele>
        <time>2026-07-07T11:02:41.000Z</time>
      </trkpt>
      <trkpt lat="47.87014" lon="16.28152">
        <ele>295.694747</ele>
        <time>2026-07-07T11:02:42.000Z</time>
      </trkpt>
      <trkpt lat="47.87008" lon="16.28152">
        <ele>295.708727</ele>
        <time>2026-07-07T11:02:43.000Z</time>
      </trkpt>
      <trkpt lat="47.87002" lon="16.28152">
        <ele>295.722707</ele>
        <time>2026-07-07T11:02:44.000Z</time>
      </trkpt>
      <trkpt lat="47.86996" lon="16.28152">
        <ele>295.737169</ele>
        <time>2026-07-07T11:02:45.000Z</time>
      </trkpt>
      <trkpt lat="47.8699" lon="16.28152">
        <ele>295.752117</ele>
        <time>2026-07-07T11:02:46.000Z</time>
      </trkpt>
      <trkpt lat="47.86984" lon="16.28152">
        <ele>295.76658</ele>
        <time>2026-07-07T11:02:47.000Z</time>
      </trkpt>
      <trkpt lat="47.86978" lon="16.28152">
        <ele>295.781043</ele>
        <time>2026-07-07T11:02:48.000Z</time>
      </trkpt>
      <trkpt lat="47.86972" lon="16.28152">
        <ele>295.795506</ele>
        <time>2026-07-07T11:02:49.000Z</time>
      </trkpt>
      <trkpt lat="47.86966" lon="16.28152">
        <ele>295.809487</ele>
        <time>2026-07-07T11:02:50.000Z</time>
      </trkpt>
      <trkpt lat="47.8696" lon="16.28153">
        <ele>295.823952</ele>
        <time>2026-07-07T11:02:51.000Z</time>
      </trkpt>
      <trkpt lat="47.86954" lon="16.28153">
        <ele>295.838415</ele>
        <time>2026-07-07T11:02:52.000Z</time>
      </trkpt>
      <trkpt lat="47.86948" lon="16.28153">
        <ele>295.852877</ele>
        <time>2026-07-07T11:02:53.000Z</time>
      </trkpt>
      <trkpt lat="47.86942" lon="16.28153">
        <ele>295.867339</ele>
        <time>2026-07-07T11:02:54.000Z</time>
      </trkpt>
      <trkpt lat="47.86936" lon="16.28153">
        <ele>295.878624</ele>
        <time>2026-07-07T11:02:55.000Z</time>
      </trkpt>
      <trkpt lat="47.8693" lon="16.28153">
        <ele>295.875148</ele>
        <time>2026-07-07T11:02:56.000Z</time>
      </trkpt>
      <trkpt lat="47.86924" lon="16.28153">
        <ele>295.871671</ele>
        <time>2026-07-07T11:02:57.000Z</time>
      </trkpt>
      <trkpt lat="47.86918" lon="16.28153">
        <ele>295.868253</ele>
        <time>2026-07-07T11:02:58.000Z</time>
      </trkpt>
      <trkpt lat="47.86913" lon="16.28153">
        <ele>295.864892</ele>
        <time>2026-07-07T11:02:59.000Z</time>
      </trkpt>
      <trkpt lat="47.86907" lon="16.28153">
        <ele>295.861532</ele>
        <time>2026-07-07T11:03:00.000Z</time>
      </trkpt>
      <trkpt lat="47.86901" lon="16.28153">
        <ele>295.858056</ele>
        <time>2026-07-07T11:03:01.000Z</time>
      </trkpt>
      <trkpt lat="47.86895" lon="16.28153">
        <ele>295.854638</ele>
        <time>2026-07-07T11:03:02.000Z</time>
      </trkpt>
      <trkpt lat="47.86889" lon="16.28153">
        <ele>295.851277</ele>
        <time>2026-07-07T11:03:03.000Z</time>
      </trkpt>
      <trkpt lat="47.86883" lon="16.28153">
        <ele>295.847917</ele>
        <time>2026-07-07T11:03:04.000Z</time>
      </trkpt>
      <trkpt lat="47.86877" lon="16.28153">
        <ele>295.844499</ele>
        <time>2026-07-07T11:03:05.000Z</time>
      </trkpt>
      <trkpt lat="47.86872" lon="16.28153">
        <ele>295.841139</ele>
        <time>2026-07-07T11:03:06.000Z</time>
      </trkpt>
      <trkpt lat="47.86866" lon="16.28153">
        <ele>295.837663</ele>
        <time>2026-07-07T11:03:07.000Z</time>
      </trkpt>
      <trkpt lat="47.8686" lon="16.28153">
        <ele>295.834303</ele>
        <time>2026-07-07T11:03:08.000Z</time>
      </trkpt>
      <trkpt lat="47.86854" lon="16.28153">
        <ele>295.830885</ele>
        <time>2026-07-07T11:03:09.000Z</time>
      </trkpt>
      <trkpt lat="47.86848" lon="16.28153">
        <ele>295.827409</ele>
        <time>2026-07-07T11:03:10.000Z</time>
      </trkpt>
      <trkpt lat="47.86842" lon="16.28153">
        <ele>295.824049</ele>
        <time>2026-07-07T11:03:11.000Z</time>
      </trkpt>
      <trkpt lat="47.86836" lon="16.28154">
        <ele>295.820688</ele>
        <time>2026-07-07T11:03:12.000Z</time>
      </trkpt>
      <trkpt lat="47.8683" lon="16.28154">
        <ele>295.817269</ele>
        <time>2026-07-07T11:03:13.000Z</time>
      </trkpt>
      <trkpt lat="47.86825" lon="16.28154">
        <ele>295.813909</ele>
        <time>2026-07-07T11:03:14.000Z</time>
      </trkpt>
      <trkpt lat="47.86819" lon="16.28154">
        <ele>295.810548</ele>
        <time>2026-07-07T11:03:15.000Z</time>
      </trkpt>
      <trkpt lat="47.86813" lon="16.28154">
        <ele>295.807072</ele>
        <time>2026-07-07T11:03:16.000Z</time>
      </trkpt>
      <trkpt lat="47.86807" lon="16.28154">
        <ele>295.803653</ele>
        <time>2026-07-07T11:03:17.000Z</time>
      </trkpt>
      <trkpt lat="47.86801" lon="16.28154">
        <ele>295.800177</ele>
        <time>2026-07-07T11:03:18.000Z</time>
      </trkpt>
      <trkpt lat="47.86795" lon="16.28154">
        <ele>295.796701</ele>
        <time>2026-07-07T11:03:19.000Z</time>
      </trkpt>
      <trkpt lat="47.86789" lon="16.28155">
        <ele>295.79334</ele>
        <time>2026-07-07T11:03:20.000Z</time>
      </trkpt>
      <trkpt lat="47.86783" lon="16.28155">
        <ele>295.78998</ele>
        <time>2026-07-07T11:03:21.000Z</time>
      </trkpt>
      <trkpt lat="47.86777" lon="16.28155">
        <ele>295.786561</ele>
        <time>2026-07-07T11:03:22.000Z</time>
      </trkpt>
      <trkpt lat="47.86772" lon="16.28155">
        <ele>295.783196</ele>
        <time>2026-07-07T11:03:23.000Z</time>
      </trkpt>
      <trkpt lat="47.86766" lon="16.28156">
        <ele>295.779834</ele>
        <time>2026-07-07T11:03:24.000Z</time>
      </trkpt>
      <trkpt lat="47.8676" lon="16.28156">
        <ele>295.776415</ele>
        <time>2026-07-07T11:03:25.000Z</time>
      </trkpt>
      <trkpt lat="47.86754" lon="16.28156">
        <ele>295.77424</ele>
        <time>2026-07-07T11:03:26.000Z</time>
      </trkpt>
      <trkpt lat="47.86749" lon="16.28156">
        <ele>295.772826</ele>
        <time>2026-07-07T11:03:27.000Z</time>
      </trkpt>
      <trkpt lat="47.86743" lon="16.28156">
        <ele>295.771411</ele>
        <time>2026-07-07T11:03:28.000Z</time>
      </trkpt>
      <trkpt lat="47.86737" lon="16.28156">
        <ele>295.770047</ele>
        <time>2026-07-07T11:03:29.000Z</time>
      </trkpt>
      <trkpt lat="47.86732" lon="16.28156">
        <ele>295.768682</ele>
        <time>2026-07-07T11:03:30.000Z</time>
      </trkpt>
      <trkpt lat="47.86726" lon="16.28157">
        <ele>295.767292</ele>
        <time>2026-07-07T11:03:31.000Z</time>
      </trkpt>
      <trkpt lat="47.86721" lon="16.28157">
        <ele>295.765878</ele>
        <time>2026-07-07T11:03:32.000Z</time>
      </trkpt>
      <trkpt lat="47.86715" lon="16.28157">
        <ele>295.764439</ele>
        <time>2026-07-07T11:03:33.000Z</time>
      </trkpt>
      <trkpt lat="47.86709" lon="16.28157">
        <ele>295.762975</ele>
        <time>2026-07-07T11:03:34.000Z</time>
      </trkpt>
      <trkpt lat="47.86703" lon="16.28157">
        <ele>295.761535</ele>
        <time>2026-07-07T11:03:35.000Z</time>
      </trkpt>
      <trkpt lat="47.86697" lon="16.28157">
        <ele>295.760096</ele>
        <time>2026-07-07T11:03:36.000Z</time>
      </trkpt>
      <trkpt lat="47.86691" lon="16.28157">
        <ele>295.758632</ele>
        <time>2026-07-07T11:03:37.000Z</time>
      </trkpt>
      <trkpt lat="47.86686" lon="16.28157">
        <ele>295.757192</ele>
        <time>2026-07-07T11:03:38.000Z</time>
      </trkpt>
      <trkpt lat="47.8668" lon="16.28157">
        <ele>295.755703</ele>
        <time>2026-07-07T11:03:39.000Z</time>
      </trkpt>
      <trkpt lat="47.86674" lon="16.28158">
        <ele>295.754214</ele>
        <time>2026-07-07T11:03:40.000Z</time>
      </trkpt>
      <trkpt lat="47.86668" lon="16.28157">
        <ele>295.752725</ele>
        <time>2026-07-07T11:03:41.000Z</time>
      </trkpt>
      <trkpt lat="47.86662" lon="16.28157">
        <ele>295.751236</ele>
        <time>2026-07-07T11:03:42.000Z</time>
      </trkpt>
      <trkpt lat="47.86656" lon="16.28157">
        <ele>295.749747</ele>
        <time>2026-07-07T11:03:43.000Z</time>
      </trkpt>
      <trkpt lat="47.8665" lon="16.28157">
        <ele>295.748308</ele>
        <time>2026-07-07T11:03:44.000Z</time>
      </trkpt>
      <trkpt lat="47.86644" lon="16.28157">
        <ele>295.746819</ele>
        <time>2026-07-07T11:03:45.000Z</time>
      </trkpt>
      <trkpt lat="47.86638" lon="16.28157">
        <ele>295.745355</ele>
        <time>2026-07-07T11:03:46.000Z</time>
      </trkpt>
      <trkpt lat="47.86632" lon="16.28157">
        <ele>295.743867</ele>
        <time>2026-07-07T11:03:47.000Z</time>
      </trkpt>
      <trkpt lat="47.86626" lon="16.28157">
        <ele>295.742378</ele>
        <time>2026-07-07T11:03:48.000Z</time>
      </trkpt>
      <trkpt lat="47.8662" lon="16.28157">
        <ele>295.740864</ele>
        <time>2026-07-07T11:03:49.000Z</time>
      </trkpt>
      <trkpt lat="47.86614" lon="16.28157">
        <ele>295.739376</ele>
        <time>2026-07-07T11:03:50.000Z</time>
      </trkpt>
      <trkpt lat="47.86608" lon="16.28157">
        <ele>295.737838</ele>
        <time>2026-07-07T11:03:51.000Z</time>
      </trkpt>
      <trkpt lat="47.86602" lon="16.28157">
        <ele>295.736349</ele>
        <time>2026-07-07T11:03:52.000Z</time>
      </trkpt>
      <trkpt lat="47.86596" lon="16.28157">
        <ele>295.73486</ele>
        <time>2026-07-07T11:03:53.000Z</time>
      </trkpt>
      <trkpt lat="47.8659" lon="16.28157">
        <ele>295.733372</ele>
        <time>2026-07-07T11:03:54.000Z</time>
      </trkpt>
      <trkpt lat="47.86584" lon="16.28157">
        <ele>295.731883</ele>
        <time>2026-07-07T11:03:55.000Z</time>
      </trkpt>
      <trkpt lat="47.86578" lon="16.28157">
        <ele>295.730444</ele>
        <time>2026-07-07T11:03:56.000Z</time>
      </trkpt>
      <trkpt lat="47.86572" lon="16.28157">
        <ele>295.709035</ele>
        <time>2026-07-07T11:03:57.000Z</time>
      </trkpt>
      <trkpt lat="47.86566" lon="16.28157">
        <ele>295.687271</ele>
        <time>2026-07-07T11:03:58.000Z</time>
      </trkpt>
      <trkpt lat="47.8656" lon="16.28157">
        <ele>295.66587</ele>
        <time>2026-07-07T11:03:59.000Z</time>
      </trkpt>
      <trkpt lat="47.86554" lon="16.28157">
        <ele>295.644101</ele>
        <time>2026-07-07T11:04:00.000Z</time>
      </trkpt>
      <trkpt lat="47.86548" lon="16.28157">
        <ele>295.623058</ele>
        <time>2026-07-07T11:04:01.000Z</time>
      </trkpt>
      <trkpt lat="47.86542" lon="16.28157">
        <ele>295.601294</ele>
        <time>2026-07-07T11:04:02.000Z</time>
      </trkpt>
      <trkpt lat="47.86536" lon="16.28157">
        <ele>295.58025</ele>
        <time>2026-07-07T11:04:03.000Z</time>
      </trkpt>
      <trkpt lat="47.8653" lon="16.28157">
        <ele>295.55885</ele>
        <time>2026-07-07T11:04:04.000Z</time>
      </trkpt>
      <trkpt lat="47.86524" lon="16.28157">
        <ele>295.537086</ele>
        <time>2026-07-07T11:04:05.000Z</time>
      </trkpt>
      <trkpt lat="47.86519" lon="16.28157">
        <ele>295.516048</ele>
        <time>2026-07-07T11:04:06.000Z</time>
      </trkpt>
      <trkpt lat="47.86513" lon="16.28157">
        <ele>295.494285</ele>
        <time>2026-07-07T11:04:07.000Z</time>
      </trkpt>
      <trkpt lat="47.86507" lon="16.28157">
        <ele>295.473247</ele>
        <time>2026-07-07T11:04:08.000Z</time>
      </trkpt>
      <trkpt lat="47.86501" lon="16.28157">
        <ele>295.45184</ele>
        <time>2026-07-07T11:04:09.000Z</time>
      </trkpt>
      <trkpt lat="47.86495" lon="16.28157">
        <ele>295.430796</ele>
        <time>2026-07-07T11:04:10.000Z</time>
      </trkpt>
      <trkpt lat="47.86489" lon="16.28157">
        <ele>295.409753</ele>
        <time>2026-07-07T11:04:11.000Z</time>
      </trkpt>
      <trkpt lat="47.86483" lon="16.28157">
        <ele>295.388346</ele>
        <time>2026-07-07T11:04:12.000Z</time>
      </trkpt>
      <trkpt lat="47.86478" lon="16.28157">
        <ele>295.367307</ele>
        <time>2026-07-07T11:04:13.000Z</time>
      </trkpt>
      <trkpt lat="47.86472" lon="16.28158">
        <ele>295.346626</ele>
        <time>2026-07-07T11:04:14.000Z</time>
      </trkpt>
      <trkpt lat="47.86466" lon="16.28158">
        <ele>295.325582</ele>
        <time>2026-07-07T11:04:15.000Z</time>
      </trkpt>
      <trkpt lat="47.8646" lon="16.28158">
        <ele>295.304544</ele>
        <time>2026-07-07T11:04:16.000Z</time>
      </trkpt>
      <trkpt lat="47.86454" lon="16.28158">
        <ele>295.283143</ele>
        <time>2026-07-07T11:04:17.000Z</time>
      </trkpt>
      <trkpt lat="47.86449" lon="16.28158">
        <ele>295.262829</ele>
        <time>2026-07-07T11:04:18.000Z</time>
      </trkpt>
      <trkpt lat="47.86443" lon="16.28158">
        <ele>295.241429</ele>
        <time>2026-07-07T11:04:19.000Z</time>
      </trkpt>
      <trkpt lat="47.86437" lon="16.28158">
        <ele>295.22039</ele>
        <time>2026-07-07T11:04:20.000Z</time>
      </trkpt>
      <trkpt lat="47.86431" lon="16.28158">
        <ele>295.198626</ele>
        <time>2026-07-07T11:04:21.000Z</time>
      </trkpt>
      <trkpt lat="47.86425" lon="16.28158">
        <ele>295.177587</ele>
        <time>2026-07-07T11:04:22.000Z</time>
      </trkpt>
      <trkpt lat="47.86419" lon="16.28158">
        <ele>295.156174</ele>
        <time>2026-07-07T11:04:23.000Z</time>
      </trkpt>
      <trkpt lat="47.86414" lon="16.28158">
        <ele>295.135131</ele>
        <time>2026-07-07T11:04:24.000Z</time>
      </trkpt>
      <trkpt lat="47.86408" lon="16.28158">
        <ele>295.114091</ele>
        <time>2026-07-07T11:04:25.000Z</time>
      </trkpt>
      <trkpt lat="47.86402" lon="16.28159">
        <ele>295.092685</ele>
        <time>2026-07-07T11:04:26.000Z</time>
      </trkpt>
      <trkpt lat="47.86396" lon="16.28159">
        <ele>295.075804</ele>
        <time>2026-07-07T11:04:27.000Z</time>
      </trkpt>
      <trkpt lat="47.8639" lon="16.28159">
        <ele>295.068278</ele>
        <time>2026-07-07T11:04:28.000Z</time>
      </trkpt>
      <trkpt lat="47.86384" lon="16.28159">
        <ele>295.061002</ele>
        <time>2026-07-07T11:04:29.000Z</time>
      </trkpt>
      <trkpt lat="47.86378" lon="16.28159">
        <ele>295.053598</ele>
        <time>2026-07-07T11:04:30.000Z</time>
      </trkpt>
      <trkpt lat="47.86373" lon="16.28159">
        <ele>295.046324</ele>
        <time>2026-07-07T11:04:31.000Z</time>
      </trkpt>
      <trkpt lat="47.86367" lon="16.28159">
        <ele>295.03905</ele>
        <time>2026-07-07T11:04:32.000Z</time>
      </trkpt>
      <trkpt lat="47.86361" lon="16.2816">
        <ele>295.031648</ele>
        <time>2026-07-07T11:04:33.000Z</time>
      </trkpt>
      <trkpt lat="47.86355" lon="16.28159">
        <ele>295.024121</ele>
        <time>2026-07-07T11:04:34.000Z</time>
      </trkpt>
      <trkpt lat="47.86349" lon="16.28159">
        <ele>295.016596</ele>
        <time>2026-07-07T11:04:35.000Z</time>
      </trkpt>
      <trkpt lat="47.86343" lon="16.28159">
        <ele>295.009071</ele>
        <time>2026-07-07T11:04:36.000Z</time>
      </trkpt>
      <trkpt lat="47.86337" lon="16.2816">
        <ele>295.001418</ele>
        <time>2026-07-07T11:04:37.000Z</time>
      </trkpt>
      <trkpt lat="47.86331" lon="16.2816">
        <ele>294.993893</ele>
        <time>2026-07-07T11:04:38.000Z</time>
      </trkpt>
      <trkpt lat="47.86325" lon="16.2816">
        <ele>294.986494</ele>
        <time>2026-07-07T11:04:39.000Z</time>
      </trkpt>
      <trkpt lat="47.86319" lon="16.2816">
        <ele>294.978969</ele>
        <time>2026-07-07T11:04:40.000Z</time>
      </trkpt>
      <trkpt lat="47.86313" lon="16.2816">
        <ele>294.971692</ele>
        <time>2026-07-07T11:04:41.000Z</time>
      </trkpt>
      <trkpt lat="47.86307" lon="16.2816">
        <ele>294.964167</ele>
        <time>2026-07-07T11:04:42.000Z</time>
      </trkpt>
      <trkpt lat="47.86301" lon="16.2816">
        <ele>294.956893</ele>
        <time>2026-07-07T11:04:43.000Z</time>
      </trkpt>
      <trkpt lat="47.86295" lon="16.2816">
        <ele>294.949368</ele>
        <time>2026-07-07T11:04:44.000Z</time>
      </trkpt>
      <trkpt lat="47.86289" lon="16.2816">
        <ele>294.941968</ele>
        <time>2026-07-07T11:04:45.000Z</time>
      </trkpt>
      <trkpt lat="47.86283" lon="16.2816">
        <ele>294.934443</ele>
        <time>2026-07-07T11:04:46.000Z</time>
      </trkpt>
      <trkpt lat="47.86277" lon="16.2816">
        <ele>294.926917</ele>
        <time>2026-07-07T11:04:47.000Z</time>
      </trkpt>
      <trkpt lat="47.86272" lon="16.2816">
        <ele>294.919641</ele>
        <time>2026-07-07T11:04:48.000Z</time>
      </trkpt>
      <trkpt lat="47.86266" lon="16.2816">
        <ele>294.912114</ele>
        <time>2026-07-07T11:04:49.000Z</time>
      </trkpt>
      <trkpt lat="47.8626" lon="16.2816">
        <ele>294.904589</ele>
        <time>2026-07-07T11:04:50.000Z</time>
      </trkpt>
      <trkpt lat="47.86254" lon="16.2816">
        <ele>294.897314</ele>
        <time>2026-07-07T11:04:51.000Z</time>
      </trkpt>
      <trkpt lat="47.86248" lon="16.2816">
        <ele>294.889789</ele>
        <time>2026-07-07T11:04:52.000Z</time>
      </trkpt>
      <trkpt lat="47.86242" lon="16.2816">
        <ele>294.882264</ele>
        <time>2026-07-07T11:04:53.000Z</time>
      </trkpt>
      <trkpt lat="47.86236" lon="16.2816">
        <ele>294.874739</ele>
        <time>2026-07-07T11:04:54.000Z</time>
      </trkpt>
      <trkpt lat="47.8623" lon="16.2816">
        <ele>294.867214</ele>
        <time>2026-07-07T11:04:55.000Z</time>
      </trkpt>
      <trkpt lat="47.86224" lon="16.28161">
        <ele>294.859687</ele>
        <time>2026-07-07T11:04:56.000Z</time>
      </trkpt>
      <trkpt lat="47.86218" lon="16.28161">
        <ele>294.852728</ele>
        <time>2026-07-07T11:04:57.000Z</time>
      </trkpt>
      <trkpt lat="47.86212" lon="16.28161">
        <ele>294.857241</ele>
        <time>2026-07-07T11:04:58.000Z</time>
      </trkpt>
      <trkpt lat="47.86206" lon="16.28161">
        <ele>294.861756</ele>
        <time>2026-07-07T11:04:59.000Z</time>
      </trkpt>
      <trkpt lat="47.862" lon="16.28161">
        <ele>294.866269</ele>
        <time>2026-07-07T11:05:00.000Z</time>
      </trkpt>
      <trkpt lat="47.86194" lon="16.28161">
        <ele>294.870783</ele>
        <time>2026-07-07T11:05:01.000Z</time>
      </trkpt>
      <trkpt lat="47.86188" lon="16.28161">
        <ele>294.875296</ele>
        <time>2026-07-07T11:05:02.000Z</time>
      </trkpt>
      <trkpt lat="47.86182" lon="16.28161">
        <ele>294.87981</ele>
        <time>2026-07-07T11:05:03.000Z</time>
      </trkpt>
      <trkpt lat="47.86176" lon="16.28162">
        <ele>294.884174</ele>
        <time>2026-07-07T11:05:04.000Z</time>
      </trkpt>
      <trkpt lat="47.8617" lon="16.28162">
        <ele>294.888688</ele>
        <time>2026-07-07T11:05:05.000Z</time>
      </trkpt>
      <trkpt lat="47.86164" lon="16.28162">
        <ele>294.893126</ele>
        <time>2026-07-07T11:05:06.000Z</time>
      </trkpt>
      <trkpt lat="47.86158" lon="16.28162">
        <ele>294.897488</ele>
        <time>2026-07-07T11:05:07.000Z</time>
      </trkpt>
      <trkpt lat="47.86152" lon="16.28162">
        <ele>294.902002</ele>
        <time>2026-07-07T11:05:08.000Z</time>
      </trkpt>
      <trkpt lat="47.86146" lon="16.28162">
        <ele>294.90629</ele>
        <time>2026-07-07T11:05:09.000Z</time>
      </trkpt>
      <trkpt lat="47.8614" lon="16.28162">
        <ele>294.910805</ele>
        <time>2026-07-07T11:05:10.000Z</time>
      </trkpt>
      <trkpt lat="47.86135" lon="16.28162">
        <ele>294.915169</ele>
        <time>2026-07-07T11:05:11.000Z</time>
      </trkpt>
      <trkpt lat="47.86129" lon="16.28162">
        <ele>294.919682</ele>
        <time>2026-07-07T11:05:12.000Z</time>
      </trkpt>
      <trkpt lat="47.86123" lon="16.28162">
        <ele>294.924196</ele>
        <time>2026-07-07T11:05:13.000Z</time>
      </trkpt>
      <trkpt lat="47.86117" lon="16.28163">
        <ele>294.92871</ele>
        <time>2026-07-07T11:05:14.000Z</time>
      </trkpt>
      <trkpt lat="47.86111" lon="16.28163">
        <ele>294.933223</ele>
        <time>2026-07-07T11:05:15.000Z</time>
      </trkpt>
      <trkpt lat="47.86105" lon="16.28163">
        <ele>294.937587</ele>
        <time>2026-07-07T11:05:16.000Z</time>
      </trkpt>
      <trkpt lat="47.86099" lon="16.28163">
        <ele>294.9421</ele>
        <time>2026-07-07T11:05:17.000Z</time>
      </trkpt>
      <trkpt lat="47.86093" lon="16.28163">
        <ele>294.946614</ele>
        <time>2026-07-07T11:05:18.000Z</time>
      </trkpt>
      <trkpt lat="47.86087" lon="16.28163">
        <ele>294.951128</ele>
        <time>2026-07-07T11:05:19.000Z</time>
      </trkpt>
      <trkpt lat="47.86081" lon="16.28163">
        <ele>294.955567</ele>
        <time>2026-07-07T11:05:20.000Z</time>
      </trkpt>
      <trkpt lat="47.86075" lon="16.28163">
        <ele>294.95993</ele>
        <time>2026-07-07T11:05:21.000Z</time>
      </trkpt>
      <trkpt lat="47.86069" lon="16.28163">
        <ele>294.964292</ele>
        <time>2026-07-07T11:05:22.000Z</time>
      </trkpt>
      <trkpt lat="47.86063" lon="16.28163">
        <ele>294.968806</ele>
        <time>2026-07-07T11:05:23.000Z</time>
      </trkpt>
      <trkpt lat="47.86057" lon="16.28164">
        <ele>294.973245</ele>
        <time>2026-07-07T11:05:24.000Z</time>
      </trkpt>
      <trkpt lat="47.86051" lon="16.28164">
        <ele>294.977759</ele>
        <time>2026-07-07T11:05:25.000Z</time>
      </trkpt>
      <trkpt lat="47.86046" lon="16.28164">
        <ele>294.982122</ele>
        <time>2026-07-07T11:05:26.000Z</time>
      </trkpt>
      <trkpt lat="47.8604" lon="16.28164">
        <ele>294.986485</ele>
        <time>2026-07-07T11:05:27.000Z</time>
      </trkpt>
      <trkpt lat="47.86034" lon="16.28164">
        <ele>294.992222</ele>
        <time>2026-07-07T11:05:28.000Z</time>
      </trkpt>
      <trkpt lat="47.86028" lon="16.28164">
        <ele>294.998416</ele>
        <time>2026-07-07T11:05:29.000Z</time>
      </trkpt>
      <trkpt lat="47.86022" lon="16.28164">
        <ele>295.004508</ele>
        <time>2026-07-07T11:05:30.000Z</time>
      </trkpt>
      <trkpt lat="47.86016" lon="16.28164">
        <ele>295.010704</ele>
        <time>2026-07-07T11:05:31.000Z</time>
      </trkpt>
      <trkpt lat="47.8601" lon="16.28164">
        <ele>295.016692</ele>
        <time>2026-07-07T11:05:32.000Z</time>
      </trkpt>
      <trkpt lat="47.86004" lon="16.28164">
        <ele>295.022888</ele>
        <time>2026-07-07T11:05:33.000Z</time>
      </trkpt>
      <trkpt lat="47.85998" lon="16.28164">
        <ele>295.028876</ele>
        <time>2026-07-07T11:05:34.000Z</time>
      </trkpt>
      <trkpt lat="47.85992" lon="16.28164">
        <ele>295.034967</ele>
        <time>2026-07-07T11:05:35.000Z</time>
      </trkpt>
      <trkpt lat="47.85986" lon="16.28164">
        <ele>295.041164</ele>
        <time>2026-07-07T11:05:36.000Z</time>
      </trkpt>
      <trkpt lat="47.8598" lon="16.28164">
        <ele>295.047362</ele>
        <time>2026-07-07T11:05:37.000Z</time>
      </trkpt>
      <trkpt lat="47.85975" lon="16.28163">
        <ele>295.05336</ele>
        <time>2026-07-07T11:05:38.000Z</time>
      </trkpt>
      <trkpt lat="47.85969" lon="16.28162">
        <ele>295.05938</ele>
        <time>2026-07-07T11:05:39.000Z</time>
      </trkpt>
      <trkpt lat="47.85963" lon="16.28161">
        <ele>295.065613</ele>
        <time>2026-07-07T11:05:40.000Z</time>
      </trkpt>
      <trkpt lat="47.85957" lon="16.2816">
        <ele>295.071752</ele>
        <time>2026-07-07T11:05:41.000Z</time>
      </trkpt>
      <trkpt lat="47.85951" lon="16.28159">
        <ele>295.077818</ele>
        <time>2026-07-07T11:05:42.000Z</time>
      </trkpt>
      <trkpt lat="47.85945" lon="16.28158">
        <ele>295.083874</ele>
        <time>2026-07-07T11:05:43.000Z</time>
      </trkpt>
      <trkpt lat="47.85939" lon="16.28156">
        <ele>295.090091</ele>
        <time>2026-07-07T11:05:44.000Z</time>
      </trkpt>
      <trkpt lat="47.85934" lon="16.28154">
        <ele>295.096021</ele>
        <time>2026-07-07T11:05:45.000Z</time>
      </trkpt>
      <trkpt lat="47.85928" lon="16.28152">
        <ele>295.102239</ele>
        <time>2026-07-07T11:05:46.000Z</time>
      </trkpt>
      <trkpt lat="47.85922" lon="16.2815">
        <ele>295.108355</ele>
        <time>2026-07-07T11:05:47.000Z</time>
      </trkpt>
      <trkpt lat="47.85916" lon="16.28148">
        <ele>295.114501</ele>
        <time>2026-07-07T11:05:48.000Z</time>
      </trkpt>
      <trkpt lat="47.8591" lon="16.28146">
        <ele>295.120748</ele>
        <time>2026-07-07T11:05:49.000Z</time>
      </trkpt>
      <trkpt lat="47.85905" lon="16.28144">
        <ele>295.126895</ele>
        <time>2026-07-07T11:05:50.000Z</time>
      </trkpt>
      <trkpt lat="47.85899" lon="16.28142">
        <ele>295.13294</ele>
        <time>2026-07-07T11:05:51.000Z</time>
      </trkpt>
      <trkpt lat="47.85893" lon="16.2814">
        <ele>295.13887</ele>
        <time>2026-07-07T11:05:52.000Z</time>
      </trkpt>
      <trkpt lat="47.85887" lon="16.28139">
        <ele>295.145087</ele>
        <time>2026-07-07T11:05:53.000Z</time>
      </trkpt>
      <trkpt lat="47.85882" lon="16.28137">
        <ele>295.151234</ele>
        <time>2026-07-07T11:05:54.000Z</time>
      </trkpt>
      <trkpt lat="47.85876" lon="16.28135">
        <ele>295.15738</ele>
        <time>2026-07-07T11:05:55.000Z</time>
      </trkpt>
      <trkpt lat="47.8587" lon="16.28133">
        <ele>295.163627</ele>
        <time>2026-07-07T11:05:56.000Z</time>
      </trkpt>
      <trkpt lat="47.85864" lon="16.2813">
        <ele>295.169606</ele>
        <time>2026-07-07T11:05:57.000Z</time>
      </trkpt>
      <trkpt lat="47.85858" lon="16.28128">
        <ele>295.173019</ele>
        <time>2026-07-07T11:05:58.000Z</time>
      </trkpt>
      <trkpt lat="47.85853" lon="16.28126">
        <ele>295.172033</ele>
        <time>2026-07-07T11:05:59.000Z</time>
      </trkpt>
      <trkpt lat="47.85847" lon="16.28125">
        <ele>295.171019</ele>
        <time>2026-07-07T11:06:00.000Z</time>
      </trkpt>
      <trkpt lat="47.85841" lon="16.28123">
        <ele>295.170034</ele>
        <time>2026-07-07T11:06:01.000Z</time>
      </trkpt>
      <trkpt lat="47.85835" lon="16.28121">
        <ele>295.169015</ele>
        <time>2026-07-07T11:06:02.000Z</time>
      </trkpt>
      <trkpt lat="47.85829" lon="16.28119">
        <ele>295.167997</ele>
        <time>2026-07-07T11:06:03.000Z</time>
      </trkpt>
      <trkpt lat="47.85823" lon="16.28117">
        <ele>295.166979</ele>
        <time>2026-07-07T11:06:04.000Z</time>
      </trkpt>
      <trkpt lat="47.85817" lon="16.28114">
        <ele>295.165972</ele>
        <time>2026-07-07T11:06:05.000Z</time>
      </trkpt>
      <trkpt lat="47.85811" lon="16.28112">
        <ele>295.164986</ele>
        <time>2026-07-07T11:06:06.000Z</time>
      </trkpt>
      <trkpt lat="47.85805" lon="16.28111">
        <ele>295.164005</ele>
        <time>2026-07-07T11:06:07.000Z</time>
      </trkpt>
      <trkpt lat="47.85799" lon="16.28109">
        <ele>295.162991</ele>
        <time>2026-07-07T11:06:08.000Z</time>
      </trkpt>
      <trkpt lat="47.85793" lon="16.28107">
        <ele>295.161984</ele>
        <time>2026-07-07T11:06:09.000Z</time>
      </trkpt>
      <trkpt lat="47.85787" lon="16.28104">
        <ele>295.160961</ele>
        <time>2026-07-07T11:06:10.000Z</time>
      </trkpt>
      <trkpt lat="47.85782" lon="16.28103">
        <ele>295.15998</ele>
        <time>2026-07-07T11:06:11.000Z</time>
      </trkpt>
      <trkpt lat="47.85776" lon="16.281">
        <ele>295.158957</ele>
        <time>2026-07-07T11:06:12.000Z</time>
      </trkpt>
      <trkpt lat="47.8577" lon="16.28098">
        <ele>295.157971</ele>
        <time>2026-07-07T11:06:13.000Z</time>
      </trkpt>
      <trkpt lat="47.85764" lon="16.28097">
        <ele>295.156974</ele>
        <time>2026-07-07T11:06:14.000Z</time>
      </trkpt>
      <trkpt lat="47.85758" lon="16.28094">
        <ele>295.155983</ele>
        <time>2026-07-07T11:06:15.000Z</time>
      </trkpt>
      <trkpt lat="47.85752" lon="16.28092">
        <ele>295.154997</ele>
        <time>2026-07-07T11:06:16.000Z</time>
      </trkpt>
      <trkpt lat="47.85746" lon="16.2809">
        <ele>295.153979</ele>
        <time>2026-07-07T11:06:17.000Z</time>
      </trkpt>
      <trkpt lat="47.85741" lon="16.28089">
        <ele>295.153014</ele>
        <time>2026-07-07T11:06:18.000Z</time>
      </trkpt>
      <trkpt lat="47.85735" lon="16.28087">
        <ele>295.152028</ele>
        <time>2026-07-07T11:06:19.000Z</time>
      </trkpt>
      <trkpt lat="47.85729" lon="16.28084">
        <ele>295.151021</ele>
        <time>2026-07-07T11:06:20.000Z</time>
      </trkpt>
      <trkpt lat="47.85723" lon="16.28082">
        <ele>295.150035</ele>
        <time>2026-07-07T11:06:21.000Z</time>
      </trkpt>
      <trkpt lat="47.85717" lon="16.28081">
        <ele>295.149021</ele>
        <time>2026-07-07T11:06:22.000Z</time>
      </trkpt>
      <trkpt lat="47.85711" lon="16.28079">
        <ele>295.14804</ele>
        <time>2026-07-07T11:06:23.000Z</time>
      </trkpt>
      <trkpt lat="47.85705" lon="16.28077">
        <ele>295.147038</ele>
        <time>2026-07-07T11:06:24.000Z</time>
      </trkpt>
      <trkpt lat="47.85699" lon="16.28075">
        <ele>295.14602</ele>
        <time>2026-07-07T11:06:25.000Z</time>
      </trkpt>
      <trkpt lat="47.85694" lon="16.28073">
        <ele>295.145041</ele>
        <time>2026-07-07T11:06:26.000Z</time>
      </trkpt>
      <trkpt lat="47.85688" lon="16.28071">
        <ele>295.144076</ele>
        <time>2026-07-07T11:06:27.000Z</time>
      </trkpt>
      <trkpt lat="47.85682" lon="16.28069">
        <ele>295.138294</ele>
        <time>2026-07-07T11:06:28.000Z</time>
      </trkpt>
      <trkpt lat="47.85677" lon="16.28068">
        <ele>295.128807</ele>
        <time>2026-07-07T11:06:29.000Z</time>
      </trkpt>
      <trkpt lat="47.85672" lon="16.28066">
        <ele>295.119651</ele>
        <time>2026-07-07T11:06:30.000Z</time>
      </trkpt>
      <trkpt lat="47.85668" lon="16.28065">
        <ele>295.111591</ele>
        <time>2026-07-07T11:06:31.000Z</time>
      </trkpt>
      <trkpt lat="47.85664" lon="16.28064">
        <ele>295.103786</ele>
        <time>2026-07-07T11:06:32.000Z</time>
      </trkpt>
      <trkpt lat="47.8566" lon="16.28063">
        <ele>295.096743</ele>
        <time>2026-07-07T11:06:33.000Z</time>
      </trkpt>
      <trkpt lat="47.85657" lon="16.2806">
        <ele>295.090641</ele>
        <time>2026-07-07T11:06:34.000Z</time>
      </trkpt>
      <trkpt lat="47.85655" lon="16.28057">
        <ele>295.085195</ele>
        <time>2026-07-07T11:06:35.000Z</time>
      </trkpt>
      <trkpt lat="47.85654" lon="16.28053">
        <ele>295.080132</ele>
        <time>2026-07-07T11:06:36.000Z</time>
      </trkpt>
      <trkpt lat="47.85655" lon="16.28049">
        <ele>295.07522</ele>
        <time>2026-07-07T11:06:37.000Z</time>
      </trkpt>
      <trkpt lat="47.85655" lon="16.28045">
        <ele>295.070237</ele>
        <time>2026-07-07T11:06:38.000Z</time>
      </trkpt>
      <trkpt lat="47.85655" lon="16.28041">
        <ele>295.065325</ele>
        <time>2026-07-07T11:06:39.000Z</time>
      </trkpt>
      <trkpt lat="47.85654" lon="16.28037">
        <ele>295.060158</ele>
        <time>2026-07-07T11:06:40.000Z</time>
      </trkpt>
      <trkpt lat="47.85652" lon="16.28035">
        <ele>295.055394</ele>
        <time>2026-07-07T11:06:41.000Z</time>
      </trkpt>
      <trkpt lat="47.8565" lon="16.28033">
        <ele>295.050389</ele>
        <time>2026-07-07T11:06:42.000Z</time>
      </trkpt>
      <trkpt lat="47.85646" lon="16.28033">
        <ele>295.044153</ele>
        <time>2026-07-07T11:06:43.000Z</time>
      </trkpt>
      <trkpt lat="47.85643" lon="16.28033">
        <ele>295.037578</ele>
        <time>2026-07-07T11:06:44.000Z</time>
      </trkpt>
      <trkpt lat="47.85639" lon="16.28032">
        <ele>295.030393</ele>
        <time>2026-07-07T11:06:45.000Z</time>
      </trkpt>
      <trkpt lat="47.85635" lon="16.2803">
        <ele>295.022894</ele>
        <time>2026-07-07T11:06:46.000Z</time>
      </trkpt>
      <trkpt lat="47.8563" lon="16.28029">
        <ele>295.01445</ele>
        <time>2026-07-07T11:06:47.000Z</time>
      </trkpt>
      <trkpt lat="47.85626" lon="16.28027">
        <ele>295.005738</ele>
        <time>2026-07-07T11:06:48.000Z</time>
      </trkpt>
      <trkpt lat="47.85621" lon="16.28025">
        <ele>294.996432</ele>
        <time>2026-07-07T11:06:49.000Z</time>
      </trkpt>
      <trkpt lat="47.85616" lon="16.28023">
        <ele>294.986917</ele>
        <time>2026-07-07T11:06:50.000Z</time>
      </trkpt>
      <trkpt lat="47.85611" lon="16.28021">
        <ele>294.976939</ele>
        <time>2026-07-07T11:06:51.000Z</time>
      </trkpt>
      <trkpt lat="47.85605" lon="16.28019">
        <ele>294.967137</ele>
        <time>2026-07-07T11:06:52.000Z</time>
      </trkpt>
      <trkpt lat="47.856" lon="16.28017">
        <ele>294.957158</ele>
        <time>2026-07-07T11:06:53.000Z</time>
      </trkpt>
      <trkpt lat="47.85595" lon="16.28015">
        <ele>294.947264</ele>
        <time>2026-07-07T11:06:54.000Z</time>
      </trkpt>
      <trkpt lat="47.85589" lon="16.28013">
        <ele>294.937108</ele>
        <time>2026-07-07T11:06:55.000Z</time>
      </trkpt>
      <trkpt lat="47.85584" lon="16.28011">
        <ele>294.927483</ele>
        <time>2026-07-07T11:06:56.000Z</time>
      </trkpt>
      <trkpt lat="47.85579" lon="16.28009">
        <ele>294.917434</ele>
        <time>2026-07-07T11:06:57.000Z</time>
      </trkpt>
      <trkpt lat="47.85574" lon="16.28008">
        <ele>294.90754</ele>
        <time>2026-07-07T11:06:58.000Z</time>
      </trkpt>
      <trkpt lat="47.85568" lon="16.28006">
        <ele>294.897645</ele>
        <time>2026-07-07T11:06:59.000Z</time>
      </trkpt>
      <trkpt lat="47.85558" lon="16.28003">
        <ele>294.878059</ele>
        <time>2026-07-07T11:07:01.000Z</time>
      </trkpt>
      <trkpt lat="47.85547" lon="16.27999">
        <ele>294.858422</ele>
        <time>2026-07-07T11:07:03.000Z</time>
      </trkpt>
      <trkpt lat="47.85537" lon="16.27996">
        <ele>294.838836</ele>
        <time>2026-07-07T11:07:04.000Z</time>
      </trkpt>
      <trkpt lat="47.85531" lon="16.27994">
        <ele>294.828763</ele>
        <time>2026-07-07T11:07:05.000Z</time>
      </trkpt>
      <trkpt lat="47.85526" lon="16.27992">
        <ele>294.818511</ele>
        <time>2026-07-07T11:07:06.000Z</time>
      </trkpt>
      <trkpt lat="47.8552" lon="16.27991">
        <ele>294.823301</ele>
        <time>2026-07-07T11:07:07.000Z</time>
      </trkpt>
      <trkpt lat="47.85515" lon="16.27989">
        <ele>294.834792</ele>
        <time>2026-07-07T11:07:08.000Z</time>
      </trkpt>
      <trkpt lat="47.85509" lon="16.27988">
        <ele>294.846337</ele>
        <time>2026-07-07T11:07:09.000Z</time>
      </trkpt>
      <trkpt lat="47.85504" lon="16.27986">
        <ele>294.857972</ele>
        <time>2026-07-07T11:07:10.000Z</time>
      </trkpt>
      <trkpt lat="47.85498" lon="16.27984">
        <ele>294.869545</ele>
        <time>2026-07-07T11:07:11.000Z</time>
      </trkpt>
      <trkpt lat="47.85493" lon="16.27982">
        <ele>294.88118</ele>
        <time>2026-07-07T11:07:12.000Z</time>
      </trkpt>
      <trkpt lat="47.85487" lon="16.2798">
        <ele>294.892815</ele>
        <time>2026-07-07T11:07:13.000Z</time>
      </trkpt>
      <trkpt lat="47.85482" lon="16.27978">
        <ele>294.904619</ele>
        <time>2026-07-07T11:07:14.000Z</time>
      </trkpt>
      <trkpt lat="47.85476" lon="16.27976">
        <ele>294.916192</ele>
        <time>2026-07-07T11:07:15.000Z</time>
      </trkpt>
      <trkpt lat="47.85471" lon="16.27974">
        <ele>294.927827</ele>
        <time>2026-07-07T11:07:16.000Z</time>
      </trkpt>
      <trkpt lat="47.85465" lon="16.27972">
        <ele>294.9394</ele>
        <time>2026-07-07T11:07:17.000Z</time>
      </trkpt>
      <trkpt lat="47.8546" lon="16.2797">
        <ele>294.951004</ele>
        <time>2026-07-07T11:07:18.000Z</time>
      </trkpt>
      <trkpt lat="47.85454" lon="16.27968">
        <ele>294.963039</ele>
        <time>2026-07-07T11:07:20.000Z</time>
      </trkpt>
      <trkpt lat="47.85449" lon="16.27966">
        <ele>294.974707</ele>
        <time>2026-07-07T11:07:21.000Z</time>
      </trkpt>
      <trkpt lat="47.85443" lon="16.27965">
        <ele>294.986251</ele>
        <time>2026-07-07T11:07:22.000Z</time>
      </trkpt>
      <trkpt lat="47.85437" lon="16.27963">
        <ele>294.998226</ele>
        <time>2026-07-07T11:07:23.000Z</time>
      </trkpt>
      <trkpt lat="47.85432" lon="16.27961">
        <ele>295.00993</ele>
        <time>2026-07-07T11:07:24.000Z</time>
      </trkpt>
      <trkpt lat="47.85426" lon="16.27959">
        <ele>295.021565</ele>
        <time>2026-07-07T11:07:25.000Z</time>
      </trkpt>
      <trkpt lat="47.85421" lon="16.27957">
        <ele>295.032737</ele>
        <time>2026-07-07T11:07:26.000Z</time>
      </trkpt>
      <trkpt lat="47.85416" lon="16.27955">
        <ele>295.044372</ele>
        <time>2026-07-07T11:07:27.000Z</time>
      </trkpt>
      <trkpt lat="47.8541" lon="16.27953">
        <ele>295.055576</ele>
        <time>2026-07-07T11:07:28.000Z</time>
      </trkpt>
      <trkpt lat="47.85405" lon="16.27951">
        <ele>295.067211</ele>
        <time>2026-07-07T11:07:29.000Z</time>
      </trkpt>
      <trkpt lat="47.85399" lon="16.27949">
        <ele>295.078647</ele>
        <time>2026-07-07T11:07:30.000Z</time>
      </trkpt>
      <trkpt lat="47.85394" lon="16.27947">
        <ele>295.089918</ele>
        <time>2026-07-07T11:07:31.000Z</time>
      </trkpt>
      <trkpt lat="47.85389" lon="16.27945">
        <ele>295.101621</ele>
        <time>2026-07-07T11:07:32.000Z</time>
      </trkpt>
      <trkpt lat="47.85383" lon="16.27943">
        <ele>295.113257</ele>
        <time>2026-07-07T11:07:33.000Z</time>
      </trkpt>
      <trkpt lat="47.85378" lon="16.27941">
        <ele>295.124892</ele>
        <time>2026-07-07T11:07:34.000Z</time>
      </trkpt>
      <trkpt lat="47.85372" lon="16.27939">
        <ele>295.136527</ele>
        <time>2026-07-07T11:07:35.000Z</time>
      </trkpt>
      <trkpt lat="47.85366" lon="16.27937">
        <ele>295.148562</ele>
        <time>2026-07-07T11:07:36.000Z</time>
      </trkpt>
      <trkpt lat="47.85361" lon="16.27935">
        <ele>295.160135</ele>
        <time>2026-07-07T11:07:37.000Z</time>
      </trkpt>
      <trkpt lat="47.85355" lon="16.27933">
        <ele>295.17197</ele>
        <time>2026-07-07T11:07:38.000Z</time>
      </trkpt>
      <trkpt lat="47.8535" lon="16.27931">
        <ele>295.183606</ele>
        <time>2026-07-07T11:07:39.000Z</time>
      </trkpt>
      <trkpt lat="47.85344" lon="16.27929">
        <ele>295.18812</ele>
        <time>2026-07-07T11:07:40.000Z</time>
      </trkpt>
      <trkpt lat="47.85338" lon="16.27927">
        <ele>295.191646</ele>
        <time>2026-07-07T11:07:41.000Z</time>
      </trkpt>
      <trkpt lat="47.85333" lon="16.27925">
        <ele>295.195229</ele>
        <time>2026-07-07T11:07:42.000Z</time>
      </trkpt>
      <trkpt lat="47.85327" lon="16.27923">
        <ele>295.198746</ele>
        <time>2026-07-07T11:07:43.000Z</time>
      </trkpt>
      <trkpt lat="47.85321" lon="16.27921">
        <ele>295.202212</ele>
        <time>2026-07-07T11:07:44.000Z</time>
      </trkpt>
      <trkpt lat="47.85316" lon="16.27919">
        <ele>295.205737</ele>
        <time>2026-07-07T11:07:45.000Z</time>
      </trkpt>
      <trkpt lat="47.8531" lon="16.27917">
        <ele>295.209127</ele>
        <time>2026-07-07T11:07:46.000Z</time>
      </trkpt>
      <trkpt lat="47.85304" lon="16.27915">
        <ele>295.212652</ele>
        <time>2026-07-07T11:07:47.000Z</time>
      </trkpt>
      <trkpt lat="47.85299" lon="16.27913">
        <ele>295.216042</ele>
        <time>2026-07-07T11:07:48.000Z</time>
      </trkpt>
      <trkpt lat="47.85293" lon="16.27911">
        <ele>295.219509</ele>
        <time>2026-07-07T11:07:49.000Z</time>
      </trkpt>
      <trkpt lat="47.85288" lon="16.27909">
        <ele>295.223025</ele>
        <time>2026-07-07T11:07:50.000Z</time>
      </trkpt>
      <trkpt lat="47.85282" lon="16.27907">
        <ele>295.22655</ele>
        <time>2026-07-07T11:07:51.000Z</time>
      </trkpt>
      <trkpt lat="47.85276" lon="16.27905">
        <ele>295.230134</ele>
        <time>2026-07-07T11:07:52.000Z</time>
      </trkpt>
      <trkpt lat="47.8527" lon="16.27904">
        <ele>295.233642</ele>
        <time>2026-07-07T11:07:53.000Z</time>
      </trkpt>
      <trkpt lat="47.85265" lon="16.27902">
        <ele>295.23709</ele>
        <time>2026-07-07T11:07:54.000Z</time>
      </trkpt>
      <trkpt lat="47.85259" lon="16.279">
        <ele>295.240607</ele>
        <time>2026-07-07T11:07:55.000Z</time>
      </trkpt>
      <trkpt lat="47.85254" lon="16.27898">
        <ele>295.243996</ele>
        <time>2026-07-07T11:07:56.000Z</time>
      </trkpt>
      <trkpt lat="47.85248" lon="16.27896">
        <ele>295.247269</ele>
        <time>2026-07-07T11:07:57.000Z</time>
      </trkpt>
      <trkpt lat="47.85243" lon="16.27895">
        <ele>295.25065</ele>
        <time>2026-07-07T11:07:58.000Z</time>
      </trkpt>
      <trkpt lat="47.85237" lon="16.27893">
        <ele>295.25404</ele>
        <time>2026-07-07T11:07:59.000Z</time>
      </trkpt>
      <trkpt lat="47.85232" lon="16.27891">
        <ele>295.257439</ele>
        <time>2026-07-07T11:08:00.000Z</time>
      </trkpt>
      <trkpt lat="47.85226" lon="16.27889">
        <ele>295.26077</ele>
        <time>2026-07-07T11:08:01.000Z</time>
      </trkpt>
      <trkpt lat="47.85221" lon="16.27887">
        <ele>295.26416</ele>
        <time>2026-07-07T11:08:02.000Z</time>
      </trkpt>
      <trkpt lat="47.85216" lon="16.27885">
        <ele>295.267335</ele>
        <time>2026-07-07T11:08:03.000Z</time>
      </trkpt>
      <trkpt lat="47.8521" lon="16.27883">
        <ele>295.270733</ele>
        <time>2026-07-07T11:08:04.000Z</time>
      </trkpt>
      <trkpt lat="47.85205" lon="16.27882">
        <ele>295.274241</ele>
        <time>2026-07-07T11:08:05.000Z</time>
      </trkpt>
      <trkpt lat="47.85199" lon="16.2788">
        <ele>295.277649</ele>
        <time>2026-07-07T11:08:06.000Z</time>
      </trkpt>
      <trkpt lat="47.85193" lon="16.27877">
        <ele>295.281194</ele>
        <time>2026-07-07T11:08:07.000Z</time>
      </trkpt>
      <trkpt lat="47.85188" lon="16.27875">
        <ele>295.28467</ele>
        <time>2026-07-07T11:08:08.000Z</time>
      </trkpt>
      <trkpt lat="47.85182" lon="16.27873">
        <ele>295.288236</ele>
        <time>2026-07-07T11:08:09.000Z</time>
      </trkpt>
      <trkpt lat="47.85176" lon="16.27871">
        <ele>295.29177</ele>
        <time>2026-07-07T11:08:10.000Z</time>
      </trkpt>
      <trkpt lat="47.85171" lon="16.27868">
        <ele>295.297046</ele>
        <time>2026-07-07T11:08:11.000Z</time>
      </trkpt>
      <trkpt lat="47.85165" lon="16.27866">
        <ele>295.303751</ele>
        <time>2026-07-07T11:08:12.000Z</time>
      </trkpt>
      <trkpt lat="47.8516" lon="16.27864">
        <ele>295.31028</ele>
        <time>2026-07-07T11:08:13.000Z</time>
      </trkpt>
      <trkpt lat="47.85154" lon="16.27861">
        <ele>295.316854</ele>
        <time>2026-07-07T11:08:14.000Z</time>
      </trkpt>
      <trkpt lat="47.85149" lon="16.27858">
        <ele>295.323406</ele>
        <time>2026-07-07T11:08:15.000Z</time>
      </trkpt>
      <trkpt lat="47.85143" lon="16.27855">
        <ele>295.33003</ele>
        <time>2026-07-07T11:08:16.000Z</time>
      </trkpt>
      <trkpt lat="47.85138" lon="16.27853">
        <ele>295.336629</ele>
        <time>2026-07-07T11:08:17.000Z</time>
      </trkpt>
      <trkpt lat="47.85132" lon="16.2785">
        <ele>295.343203</ele>
        <time>2026-07-07T11:08:18.000Z</time>
      </trkpt>
      <trkpt lat="47.85127" lon="16.27847">
        <ele>295.349853</ele>
        <time>2026-07-07T11:08:19.000Z</time>
      </trkpt>
      <trkpt lat="47.85121" lon="16.27844">
        <ele>295.356318</ele>
        <time>2026-07-07T11:08:20.000Z</time>
      </trkpt>
      <trkpt lat="47.85116" lon="16.27841">
        <ele>295.362942</ele>
        <time>2026-07-07T11:08:21.000Z</time>
      </trkpt>
      <trkpt lat="47.8511" lon="16.27838">
        <ele>295.369433</ele>
        <time>2026-07-07T11:08:22.000Z</time>
      </trkpt>
      <trkpt lat="47.85105" lon="16.27835">
        <ele>295.375926</ele>
        <time>2026-07-07T11:08:23.000Z</time>
      </trkpt>
      <trkpt lat="47.851" lon="16.27832">
        <ele>295.382602</ele>
        <time>2026-07-07T11:08:24.000Z</time>
      </trkpt>
      <trkpt lat="47.85094" lon="16.27829">
        <ele>295.389039</ele>
        <time>2026-07-07T11:08:25.000Z</time>
      </trkpt>
      <trkpt lat="47.85089" lon="16.27826">
        <ele>295.395689</ele>
        <time>2026-07-07T11:08:26.000Z</time>
      </trkpt>
      <trkpt lat="47.85083" lon="16.27823">
        <ele>295.402233</ele>
        <time>2026-07-07T11:08:27.000Z</time>
      </trkpt>
      <trkpt lat="47.85078" lon="16.2782">
        <ele>295.408936</ele>
        <time>2026-07-07T11:08:28.000Z</time>
      </trkpt>
      <trkpt lat="47.85073" lon="16.27817">
        <ele>295.415373</ele>
        <time>2026-07-07T11:08:29.000Z</time>
      </trkpt>
      <trkpt lat="47.85067" lon="16.27813">
        <ele>295.421866</ele>
        <time>2026-07-07T11:08:30.000Z</time>
      </trkpt>
      <trkpt lat="47.85062" lon="16.2781">
        <ele>295.428542</ele>
        <time>2026-07-07T11:08:31.000Z</time>
      </trkpt>
      <trkpt lat="47.85056" lon="16.27807">
        <ele>295.435166</ele>
        <time>2026-07-07T11:08:32.000Z</time>
      </trkpt>
      <trkpt lat="47.85051" lon="16.27804">
        <ele>295.441816</ele>
        <time>2026-07-07T11:08:33.000Z</time>
      </trkpt>
      <trkpt lat="47.85045" lon="16.27801">
        <ele>295.448493</ele>
        <time>2026-07-07T11:08:34.000Z</time>
      </trkpt>
      <trkpt lat="47.8504" lon="16.27798">
        <ele>295.455356</ele>
        <time>2026-07-07T11:08:35.000Z</time>
      </trkpt>
      <trkpt lat="47.85034" lon="16.27795">
        <ele>295.461849</ele>
        <time>2026-07-07T11:08:36.000Z</time>
      </trkpt>
      <trkpt lat="47.85029" lon="16.27792">
        <ele>295.468553</ele>
        <time>2026-07-07T11:08:37.000Z</time>
      </trkpt>
      <trkpt lat="47.85023" lon="16.27789">
        <ele>295.475416</ele>
        <time>2026-07-07T11:08:38.000Z</time>
      </trkpt>
      <trkpt lat="47.85018" lon="16.27786">
        <ele>295.482015</ele>
        <time>2026-07-07T11:08:39.000Z</time>
      </trkpt>
      <trkpt lat="47.85012" lon="16.27783">
        <ele>295.488931</ele>
        <time>2026-07-07T11:08:40.000Z</time>
      </trkpt>
      <trkpt lat="47.85006" lon="16.2778">
        <ele>295.495714</ele>
        <time>2026-07-07T11:08:41.000Z</time>
      </trkpt>
      <trkpt lat="47.85001" lon="16.27777">
        <ele>295.496859</ele>
        <time>2026-07-07T11:08:42.000Z</time>
      </trkpt>
      <trkpt lat="47.84995" lon="16.27773">
        <ele>295.496025</ele>
        <time>2026-07-07T11:08:43.000Z</time>
      </trkpt>
      <trkpt lat="47.8499" lon="16.2777">
        <ele>295.495195</ele>
        <time>2026-07-07T11:08:44.000Z</time>
      </trkpt>
      <trkpt lat="47.84984" lon="16.27767">
        <ele>295.494361</ele>
        <time>2026-07-07T11:08:45.000Z</time>
      </trkpt>
      <trkpt lat="47.84979" lon="16.27764">
        <ele>295.493527</ele>
        <time>2026-07-07T11:08:46.000Z</time>
      </trkpt>
      <trkpt lat="47.84973" lon="16.27761">
        <ele>295.492696</ele>
        <time>2026-07-07T11:08:47.000Z</time>
      </trkpt>
      <trkpt lat="47.84967" lon="16.27758">
        <ele>295.491845</ele>
        <time>2026-07-07T11:08:48.000Z</time>
      </trkpt>
      <trkpt lat="47.84962" lon="16.27755">
        <ele>295.491018</ele>
        <time>2026-07-07T11:08:49.000Z</time>
      </trkpt>
      <trkpt lat="47.84956" lon="16.27752">
        <ele>295.490187</ele>
        <time>2026-07-07T11:08:50.000Z</time>
      </trkpt>
      <trkpt lat="47.84951" lon="16.27749">
        <ele>295.489347</ele>
        <time>2026-07-07T11:08:51.000Z</time>
      </trkpt>
      <trkpt lat="47.84945" lon="16.27746">
        <ele>295.488519</ele>
        <time>2026-07-07T11:08:52.000Z</time>
      </trkpt>
      <trkpt lat="47.8494" lon="16.27743">
        <ele>295.487685</ele>
        <time>2026-07-07T11:08:53.000Z</time>
      </trkpt>
      <trkpt lat="47.84934" lon="16.27739">
        <ele>295.486825</ele>
        <time>2026-07-07T11:08:54.000Z</time>
      </trkpt>
      <trkpt lat="47.84929" lon="16.27737">
        <ele>295.486004</ele>
        <time>2026-07-07T11:08:55.000Z</time>
      </trkpt>
      <trkpt lat="47.84923" lon="16.27734">
        <ele>295.485176</ele>
        <time>2026-07-07T11:08:56.000Z</time>
      </trkpt>
      <trkpt lat="47.84918" lon="16.27731">
        <ele>295.484376</ele>
        <time>2026-07-07T11:08:57.000Z</time>
      </trkpt>
      <trkpt lat="47.84912" lon="16.27728">
        <ele>295.483548</ele>
        <time>2026-07-07T11:08:58.000Z</time>
      </trkpt>
      <trkpt lat="47.84907" lon="16.27725">
        <ele>295.482734</ele>
        <time>2026-07-07T11:08:59.000Z</time>
      </trkpt>
      <trkpt lat="47.84902" lon="16.27721">
        <ele>295.481926</ele>
        <time>2026-07-07T11:09:00.000Z</time>
      </trkpt>
      <trkpt lat="47.84896" lon="16.27718">
        <ele>295.481096</ele>
        <time>2026-07-07T11:09:01.000Z</time>
      </trkpt>
      <trkpt lat="47.84891" lon="16.27715">
        <ele>295.480295</ele>
        <time>2026-07-07T11:09:02.000Z</time>
      </trkpt>
      <trkpt lat="47.84885" lon="16.27712">
        <ele>295.479461</ele>
        <time>2026-07-07T11:09:03.000Z</time>
      </trkpt>
      <trkpt lat="47.8488" lon="16.27709">
        <ele>295.478633</ele>
        <time>2026-07-07T11:09:04.000Z</time>
      </trkpt>
      <trkpt lat="47.84874" lon="16.27706">
        <ele>295.477799</ele>
        <time>2026-07-07T11:09:05.000Z</time>
      </trkpt>
      <trkpt lat="47.84869" lon="16.27703">
        <ele>295.476969</ele>
        <time>2026-07-07T11:09:06.000Z</time>
      </trkpt>
      <trkpt lat="47.84863" lon="16.277">
        <ele>295.476141</ele>
        <time>2026-07-07T11:09:07.000Z</time>
      </trkpt>
      <trkpt lat="47.84858" lon="16.27696">
        <ele>295.4753</ele>
        <time>2026-07-07T11:09:08.000Z</time>
      </trkpt>
      <trkpt lat="47.84852" lon="16.27693">
        <ele>295.47447</ele>
        <time>2026-07-07T11:09:09.000Z</time>
      </trkpt>
      <trkpt lat="47.84847" lon="16.2769">
        <ele>295.473609</ele>
        <time>2026-07-07T11:09:10.000Z</time>
      </trkpt>
      <trkpt lat="47.84841" lon="16.27687">
        <ele>295.472782</ele>
        <time>2026-07-07T11:09:11.000Z</time>
      </trkpt>
      <trkpt lat="47.84835" lon="16.27684">
        <ele>295.473349</ele>
        <time>2026-07-07T11:09:12.000Z</time>
      </trkpt>
      <trkpt lat="47.8483" lon="16.27681">
        <ele>295.479536</ele>
        <time>2026-07-07T11:09:13.000Z</time>
      </trkpt>
      <trkpt lat="47.84824" lon="16.27678">
        <ele>295.485748</ele>
        <time>2026-07-07T11:09:14.000Z</time>
      </trkpt>
      <trkpt lat="47.84819" lon="16.27674">
        <ele>295.49196</ele>
        <time>2026-07-07T11:09:15.000Z</time>
      </trkpt>
      <trkpt lat="47.84813" lon="16.27671">
        <ele>295.498147</ele>
        <time>2026-07-07T11:09:16.000Z</time>
      </trkpt>
      <trkpt lat="47.84808" lon="16.27668">
        <ele>295.504285</ele>
        <time>2026-07-07T11:09:17.000Z</time>
      </trkpt>
      <trkpt lat="47.84802" lon="16.27665">
        <ele>295.510571</ele>
        <time>2026-07-07T11:09:18.000Z</time>
      </trkpt>
      <trkpt lat="47.84797" lon="16.27662">
        <ele>295.516783</ele>
        <time>2026-07-07T11:09:19.000Z</time>
      </trkpt>
      <trkpt lat="47.84791" lon="16.27659">
        <ele>295.522995</ele>
        <time>2026-07-07T11:09:20.000Z</time>
      </trkpt>
      <trkpt lat="47.84786" lon="16.27656">
        <ele>295.529234</ele>
        <time>2026-07-07T11:09:21.000Z</time>
      </trkpt>
      <trkpt lat="47.8478" lon="16.27653">
        <ele>295.535396</ele>
        <time>2026-07-07T11:09:22.000Z</time>
      </trkpt>
      <trkpt lat="47.84775" lon="16.2765">
        <ele>295.541558</ele>
        <time>2026-07-07T11:09:23.000Z</time>
      </trkpt>
      <trkpt lat="47.84769" lon="16.27647">
        <ele>295.54772</ele>
        <time>2026-07-07T11:09:24.000Z</time>
      </trkpt>
      <trkpt lat="47.84764" lon="16.27643">
        <ele>295.553933</ele>
        <time>2026-07-07T11:09:25.000Z</time>
      </trkpt>
      <trkpt lat="47.84758" lon="16.2764">
        <ele>295.560021</ele>
        <time>2026-07-07T11:09:26.000Z</time>
      </trkpt>
      <trkpt lat="47.84753" lon="16.27637">
        <ele>295.566282</ele>
        <time>2026-07-07T11:09:27.000Z</time>
      </trkpt>
      <trkpt lat="47.84747" lon="16.27634">
        <ele>295.572445</ele>
        <time>2026-07-07T11:09:28.000Z</time>
      </trkpt>
      <trkpt lat="47.84742" lon="16.27631">
        <ele>295.578657</ele>
        <time>2026-07-07T11:09:29.000Z</time>
      </trkpt>
      <trkpt lat="47.84736" lon="16.27628">
        <ele>295.584869</ele>
        <time>2026-07-07T11:09:30.000Z</time>
      </trkpt>
      <trkpt lat="47.84731" lon="16.27625">
        <ele>295.591056</ele>
        <time>2026-07-07T11:09:31.000Z</time>
      </trkpt>
      <trkpt lat="47.84725" lon="16.27621">
        <ele>295.597516</ele>
        <time>2026-07-07T11:09:32.000Z</time>
      </trkpt>
      <trkpt lat="47.84719" lon="16.27618">
        <ele>295.6039</ele>
        <time>2026-07-07T11:09:33.000Z</time>
      </trkpt>
      <trkpt lat="47.84714" lon="16.27615">
        <ele>295.61036</ele>
        <time>2026-07-07T11:09:34.000Z</time>
      </trkpt>
      <trkpt lat="47.84708" lon="16.27612">
        <ele>295.616769</ele>
        <time>2026-07-07T11:09:35.000Z</time>
      </trkpt>
      <trkpt lat="47.84702" lon="16.27609">
        <ele>295.623301</ele>
        <time>2026-07-07T11:09:36.000Z</time>
      </trkpt>
      <trkpt lat="47.84696" lon="16.27605">
        <ele>295.629787</ele>
        <time>2026-07-07T11:09:37.000Z</time>
      </trkpt>
      <trkpt lat="47.84691" lon="16.27602">
        <ele>295.636098</ele>
        <time>2026-07-07T11:09:38.000Z</time>
      </trkpt>
      <trkpt lat="47.84685" lon="16.27599">
        <ele>295.642532</ele>
        <time>2026-07-07T11:09:39.000Z</time>
      </trkpt>
      <trkpt lat="47.84679" lon="16.27595">
        <ele>295.648991</ele>
        <time>2026-07-07T11:09:40.000Z</time>
      </trkpt>
      <trkpt lat="47.84674" lon="16.27592">
        <ele>295.655277</ele>
        <time>2026-07-07T11:09:41.000Z</time>
      </trkpt>
      <trkpt lat="47.84668" lon="16.27589">
        <ele>295.660396</ele>
        <time>2026-07-07T11:09:42.000Z</time>
      </trkpt>
      <trkpt lat="47.84662" lon="16.27586">
        <ele>295.645371</ele>
        <time>2026-07-07T11:09:43.000Z</time>
      </trkpt>
      <trkpt lat="47.84657" lon="16.27583">
        <ele>295.630519</ele>
        <time>2026-07-07T11:09:44.000Z</time>
      </trkpt>
      <trkpt lat="47.84651" lon="16.27579">
        <ele>295.61538</ele>
        <time>2026-07-07T11:09:45.000Z</time>
      </trkpt>
      <trkpt lat="47.84645" lon="16.27576">
        <ele>295.600409</ele>
        <time>2026-07-07T11:09:46.000Z</time>
      </trkpt>
      <trkpt lat="47.84639" lon="16.27573">
        <ele>295.585669</ele>
        <time>2026-07-07T11:09:47.000Z</time>
      </trkpt>
      <trkpt lat="47.84634" lon="16.2757">
        <ele>295.570985</ele>
        <time>2026-07-07T11:09:48.000Z</time>
      </trkpt>
      <trkpt lat="47.84628" lon="16.27566">
        <ele>295.556587</ele>
        <time>2026-07-07T11:09:49.000Z</time>
      </trkpt>
      <trkpt lat="47.84623" lon="16.27563">
        <ele>295.541676</ele>
        <time>2026-07-07T11:09:50.000Z</time>
      </trkpt>
      <trkpt lat="47.84617" lon="16.2756">
        <ele>295.526824</ele>
        <time>2026-07-07T11:09:51.000Z</time>
      </trkpt>
      <trkpt lat="47.84611" lon="16.27557">
        <ele>295.512257</ele>
        <time>2026-07-07T11:09:52.000Z</time>
      </trkpt>
      <trkpt lat="47.84606" lon="16.27554">
        <ele>295.497404</ele>
        <time>2026-07-07T11:09:53.000Z</time>
      </trkpt>
      <trkpt lat="47.846" lon="16.27551">
        <ele>295.482664</ele>
        <time>2026-07-07T11:09:54.000Z</time>
      </trkpt>
      <trkpt lat="47.84594" lon="16.27548">
        <ele>295.468153</ele>
        <time>2026-07-07T11:09:55.000Z</time>
      </trkpt>
      <trkpt lat="47.84588" lon="16.27544">
        <ele>295.452843</ele>
        <time>2026-07-07T11:09:56.000Z</time>
      </trkpt>
      <trkpt lat="47.84583" lon="16.27541">
        <ele>295.438505</ele>
        <time>2026-07-07T11:09:57.000Z</time>
      </trkpt>
      <trkpt lat="47.84577" lon="16.27538">
        <ele>295.42376</ele>
        <time>2026-07-07T11:09:58.000Z</time>
      </trkpt>
      <trkpt lat="47.84572" lon="16.27535">
        <ele>295.408964</ele>
        <time>2026-07-07T11:09:59.000Z</time>
      </trkpt>
      <trkpt lat="47.84566" lon="16.27532">
        <ele>295.394111</ele>
        <time>2026-07-07T11:10:00.000Z</time>
      </trkpt>
      <trkpt lat="47.8456" lon="16.27528">
        <ele>295.379654</ele>
        <time>2026-07-07T11:10:01.000Z</time>
      </trkpt>
      <trkpt lat="47.84555" lon="16.27525">
        <ele>295.364846</ele>
        <time>2026-07-07T11:10:02.000Z</time>
      </trkpt>
      <trkpt lat="47.84549" lon="16.27521">
        <ele>295.349813</ele>
        <time>2026-07-07T11:10:03.000Z</time>
      </trkpt>
      <trkpt lat="47.84544" lon="16.27518">
        <ele>295.33523</ele>
        <time>2026-07-07T11:10:04.000Z</time>
      </trkpt>
      <trkpt lat="47.84538" lon="16.27514">
        <ele>295.320259</ele>
        <time>2026-07-07T11:10:05.000Z</time>
      </trkpt>
      <trkpt lat="47.84532" lon="16.27511">
        <ele>295.305234</ele>
        <time>2026-07-07T11:10:06.000Z</time>
      </trkpt>
      <trkpt lat="47.84526" lon="16.27508">
        <ele>295.290153</ele>
        <time>2026-07-07T11:10:07.000Z</time>
      </trkpt>
      <trkpt lat="47.8452" lon="16.27505">
        <ele>295.274822</ele>
        <time>2026-07-07T11:10:08.000Z</time>
      </trkpt>
      <trkpt lat="47.84514" lon="16.27502">
        <ele>295.259512</ele>
        <time>2026-07-07T11:10:09.000Z</time>
      </trkpt>
      <trkpt lat="47.84509" lon="16.27499">
        <ele>295.244704</ele>
        <time>2026-07-07T11:10:10.000Z</time>
      </trkpt>
      <trkpt lat="47.84503" lon="16.27496">
        <ele>295.228907</ele>
        <time>2026-07-07T11:10:11.000Z</time>
      </trkpt>
      <trkpt lat="47.84497" lon="16.27493">
        <ele>295.236598</ele>
        <time>2026-07-07T11:10:12.000Z</time>
      </trkpt>
      <trkpt lat="47.84491" lon="16.2749">
        <ele>295.259869</ele>
        <time>2026-07-07T11:10:13.000Z</time>
      </trkpt>
      <trkpt lat="47.84486" lon="16.27487">
        <ele>295.281823</ele>
        <time>2026-07-07T11:10:14.000Z</time>
      </trkpt>
      <trkpt lat="47.84481" lon="16.27484">
        <ele>295.303405</ele>
        <time>2026-07-07T11:10:15.000Z</time>
      </trkpt>
      <trkpt lat="47.84476" lon="16.27481">
        <ele>295.324888</ele>
        <time>2026-07-07T11:10:16.000Z</time>
      </trkpt>
      <trkpt lat="47.84472" lon="16.27479">
        <ele>295.344962</ele>
        <time>2026-07-07T11:10:17.000Z</time>
      </trkpt>
      <trkpt lat="47.84467" lon="16.27476">
        <ele>295.364944</ele>
        <time>2026-07-07T11:10:18.000Z</time>
      </trkpt>
      <trkpt lat="47.84462" lon="16.27474">
        <ele>295.384368</ele>
        <time>2026-07-07T11:10:19.000Z</time>
      </trkpt>
      <trkpt lat="47.84458" lon="16.27471">
        <ele>295.403598</ele>
        <time>2026-07-07T11:10:20.000Z</time>
      </trkpt>
      <trkpt lat="47.84454" lon="16.27468">
        <ele>295.422281</ele>
        <time>2026-07-07T11:10:21.000Z</time>
      </trkpt>
      <trkpt lat="47.84449" lon="16.27466">
        <ele>295.44107</ele>
        <time>2026-07-07T11:10:22.000Z</time>
      </trkpt>
      <trkpt lat="47.84445" lon="16.27463">
        <ele>295.460123</ele>
        <time>2026-07-07T11:10:23.000Z</time>
      </trkpt>
      <trkpt lat="47.8444" lon="16.2746">
        <ele>295.479353</ele>
        <time>2026-07-07T11:10:24.000Z</time>
      </trkpt>
      <trkpt lat="47.84436" lon="16.27458">
        <ele>295.498678</ele>
        <time>2026-07-07T11:10:25.000Z</time>
      </trkpt>
      <trkpt lat="47.84431" lon="16.27455">
        <ele>295.518474</ele>
        <time>2026-07-07T11:10:26.000Z</time>
      </trkpt>
      <trkpt lat="47.84427" lon="16.27453">
        <ele>295.538456</ele>
        <time>2026-07-07T11:10:27.000Z</time>
      </trkpt>
      <trkpt lat="47.84422" lon="16.2745">
        <ele>295.558723</ele>
        <time>2026-07-07T11:10:28.000Z</time>
      </trkpt>
      <trkpt lat="47.84417" lon="16.27447">
        <ele>295.578147</ele>
        <time>2026-07-07T11:10:29.000Z</time>
      </trkpt>
      <trkpt lat="47.84413" lon="16.27444">
        <ele>295.597943</ele>
        <time>2026-07-07T11:10:30.000Z</time>
      </trkpt>
      <trkpt lat="47.84408" lon="16.27442">
        <ele>295.61868</ele>
        <time>2026-07-07T11:10:31.000Z</time>
      </trkpt>
      <trkpt lat="47.84403" lon="16.27439">
        <ele>295.63913</ele>
        <time>2026-07-07T11:10:32.000Z</time>
      </trkpt>
      <trkpt lat="47.84398" lon="16.27436">
        <ele>295.659869</ele>
        <time>2026-07-07T11:10:33.000Z</time>
      </trkpt>
      <trkpt lat="47.84393" lon="16.27434">
        <ele>295.680607</ele>
        <time>2026-07-07T11:10:34.000Z</time>
      </trkpt>
      <trkpt lat="47.84389" lon="16.27431">
        <ele>295.700966</ele>
        <time>2026-07-07T11:10:35.000Z</time>
      </trkpt>
      <trkpt lat="47.84384" lon="16.27429">
        <ele>295.72104</ele>
        <time>2026-07-07T11:10:36.000Z</time>
      </trkpt>
      <trkpt lat="47.84379" lon="16.27426">
        <ele>295.740645</ele>
        <time>2026-07-07T11:10:37.000Z</time>
      </trkpt>
      <trkpt lat="47.84375" lon="16.27423">
        <ele>295.760276</ele>
        <time>2026-07-07T11:10:38.000Z</time>
      </trkpt>
      <trkpt lat="47.8437" lon="16.27421">
        <ele>295.780544</ele>
        <time>2026-07-07T11:10:39.000Z</time>
      </trkpt>
      <trkpt lat="47.84365" lon="16.27418">
        <ele>295.800712</ele>
        <time>2026-07-07T11:10:40.000Z</time>
      </trkpt>
      <trkpt lat="47.84361" lon="16.27415">
        <ele>295.821162</ele>
        <time>2026-07-07T11:10:41.000Z</time>
      </trkpt>
      <trkpt lat="47.84356" lon="16.27413">
        <ele>295.841705</ele>
        <time>2026-07-07T11:10:42.000Z</time>
      </trkpt>
      <trkpt lat="47.84351" lon="16.2741">
        <ele>295.862623</ele>
        <time>2026-07-07T11:10:43.000Z</time>
      </trkpt>
      <trkpt lat="47.84346" lon="16.27407">
        <ele>295.883073</ele>
        <time>2026-07-07T11:10:44.000Z</time>
      </trkpt>
      <trkpt lat="47.84341" lon="16.27404">
        <ele>295.903812</ele>
        <time>2026-07-07T11:10:45.000Z</time>
      </trkpt>
      <trkpt lat="47.84336" lon="16.27402">
        <ele>295.925199</ele>
        <time>2026-07-07T11:10:46.000Z</time>
      </trkpt>
      <trkpt lat="47.84331" lon="16.27399">
        <ele>295.94479</ele>
        <time>2026-07-07T11:10:47.000Z</time>
      </trkpt>
      <trkpt lat="47.84326" lon="16.27396">
        <ele>295.955888</ele>
        <time>2026-07-07T11:10:48.000Z</time>
      </trkpt>
      <trkpt lat="47.84321" lon="16.27392">
        <ele>295.967361</ele>
        <time>2026-07-07T11:10:49.000Z</time>
      </trkpt>
      <trkpt lat="47.84316" lon="16.27389">
        <ele>295.978514</ele>
        <time>2026-07-07T11:10:50.000Z</time>
      </trkpt>
      <trkpt lat="47.84311" lon="16.27386">
        <ele>295.989666</ele>
        <time>2026-07-07T11:10:51.000Z</time>
      </trkpt>
      <trkpt lat="47.84306" lon="16.27382">
        <ele>296.001052</ele>
        <time>2026-07-07T11:10:52.000Z</time>
      </trkpt>
      <trkpt lat="47.84301" lon="16.27378">
        <ele>296.012073</ele>
        <time>2026-07-07T11:10:53.000Z</time>
      </trkpt>
      <trkpt lat="47.84297" lon="16.27375">
        <ele>296.022851</ele>
        <time>2026-07-07T11:10:54.000Z</time>
      </trkpt>
      <trkpt lat="47.84292" lon="16.27371">
        <ele>296.033691</ele>
        <time>2026-07-07T11:10:55.000Z</time>
      </trkpt>
      <trkpt lat="47.84287" lon="16.27367">
        <ele>296.044352</ele>
        <time>2026-07-07T11:10:56.000Z</time>
      </trkpt>
      <trkpt lat="47.84283" lon="16.27364">
        <ele>296.055068</ele>
        <time>2026-07-07T11:10:57.000Z</time>
      </trkpt>
      <trkpt lat="47.84278" lon="16.2736">
        <ele>296.065484</ele>
        <time>2026-07-07T11:10:58.000Z</time>
      </trkpt>
      <trkpt lat="47.84274" lon="16.27356">
        <ele>296.075822</ele>
        <time>2026-07-07T11:10:59.000Z</time>
      </trkpt>
      <trkpt lat="47.8427" lon="16.27352">
        <ele>296.086293</ele>
        <time>2026-07-07T11:11:00.000Z</time>
      </trkpt>
      <trkpt lat="47.84265" lon="16.27347">
        <ele>296.096843</ele>
        <time>2026-07-07T11:11:01.000Z</time>
      </trkpt>
      <trkpt lat="47.84261" lon="16.27343">
        <ele>296.107181</ele>
        <time>2026-07-07T11:11:02.000Z</time>
      </trkpt>
      <trkpt lat="47.84257" lon="16.2734">
        <ele>296.117202</ele>
        <time>2026-07-07T11:11:03.000Z</time>
      </trkpt>
      <trkpt lat="47.84253" lon="16.27336">
        <ele>296.126691</ele>
        <time>2026-07-07T11:11:04.000Z</time>
      </trkpt>
      <trkpt lat="47.8425" lon="16.27332">
        <ele>296.13521</ele>
        <time>2026-07-07T11:11:05.000Z</time>
      </trkpt>
      <trkpt lat="47.84248" lon="16.27327">
        <ele>296.142736</ele>
        <time>2026-07-07T11:11:06.000Z</time>
      </trkpt>
      <trkpt lat="47.84246" lon="16.27323">
        <ele>296.150143</ele>
        <time>2026-07-07T11:11:07.000Z</time>
      </trkpt>
      <trkpt lat="47.84244" lon="16.27318">
        <ele>296.157451</ele>
        <time>2026-07-07T11:11:08.000Z</time>
      </trkpt>
      <trkpt lat="47.84243" lon="16.27313">
        <ele>296.164328</ele>
        <time>2026-07-07T11:11:09.000Z</time>
      </trkpt>
      <trkpt lat="47.8424" lon="16.2731">
        <ele>296.17041</ele>
        <time>2026-07-07T11:11:10.000Z</time>
      </trkpt>
      <trkpt lat="47.84238" lon="16.2731">
        <ele>296.175525</ele>
        <time>2026-07-07T11:11:11.000Z</time>
      </trkpt>
      <trkpt lat="47.84236" lon="16.27311">
        <ele>296.179922</ele>
        <time>2026-07-07T11:11:12.000Z</time>
      </trkpt>
      <trkpt lat="47.84234" lon="16.27314">
        <ele>296.185035</ele>
        <time>2026-07-07T11:11:13.000Z</time>
      </trkpt>
      <trkpt lat="47.84233" lon="16.27317">
        <ele>296.190719</ele>
        <time>2026-07-07T11:11:14.000Z</time>
      </trkpt>
      <trkpt lat="47.84232" lon="16.27321">
        <ele>296.196178</ele>
        <time>2026-07-07T11:11:15.000Z</time>
      </trkpt>
      <trkpt lat="47.8423" lon="16.27325">
        <ele>296.202016</ele>
        <time>2026-07-07T11:11:16.000Z</time>
      </trkpt>
      <trkpt lat="47.84229" lon="16.27329">
        <ele>296.208154</ele>
        <time>2026-07-07T11:11:17.000Z</time>
      </trkpt>
      <trkpt lat="47.84227" lon="16.27332">
        <ele>296.214409</ele>
        <time>2026-07-07T11:11:18.000Z</time>
      </trkpt>
      <trkpt lat="47.84224" lon="16.27335">
        <ele>296.221311</ele>
        <time>2026-07-07T11:11:19.000Z</time>
      </trkpt>
      <trkpt lat="47.8422" lon="16.27335">
        <ele>296.229701</ele>
        <time>2026-07-07T11:11:20.000Z</time>
      </trkpt>
      <trkpt lat="47.84215" lon="16.27333">
        <ele>296.239082</ele>
        <time>2026-07-07T11:11:21.000Z</time>
      </trkpt>
      <trkpt lat="47.84211" lon="16.2733">
        <ele>296.248586</ele>
        <time>2026-07-07T11:11:22.000Z</time>
      </trkpt>
      <trkpt lat="47.84207" lon="16.27326">
        <ele>296.258089</ele>
        <time>2026-07-07T11:11:23.000Z</time>
      </trkpt>
      <trkpt lat="47.84204" lon="16.27322">
        <ele>296.267499</ele>
        <time>2026-07-07T11:11:24.000Z</time>
      </trkpt>
      <trkpt lat="47.842" lon="16.27318">
        <ele>296.277324</ele>
        <time>2026-07-07T11:11:25.000Z</time>
      </trkpt>
      <trkpt lat="47.84196" lon="16.27315">
        <ele>296.286999</ele>
        <time>2026-07-07T11:11:26.000Z</time>
      </trkpt>
      <trkpt lat="47.84191" lon="16.27311">
        <ele>296.297164</ele>
        <time>2026-07-07T11:11:27.000Z</time>
      </trkpt>
      <trkpt lat="47.84187" lon="16.27306">
        <ele>296.30765</ele>
        <time>2026-07-07T11:11:28.000Z</time>
      </trkpt>
      <trkpt lat="47.84183" lon="16.27302">
        <ele>296.281624</ele>
        <time>2026-07-07T11:11:29.000Z</time>
      </trkpt>
      <trkpt lat="47.84179" lon="16.27298">
        <ele>296.246229</ele>
        <time>2026-07-07T11:11:30.000Z</time>
      </trkpt>
      <trkpt lat="47.84174" lon="16.27295">
        <ele>296.21168</ele>
        <time>2026-07-07T11:11:31.000Z</time>
      </trkpt>
      <trkpt lat="47.8417" lon="16.27291">
        <ele>296.176529</ele>
        <time>2026-07-07T11:11:32.000Z</time>
      </trkpt>
      <trkpt lat="47.84166" lon="16.27287">
        <ele>296.139925</ele>
        <time>2026-07-07T11:11:33.000Z</time>
      </trkpt>
      <trkpt lat="47.84161" lon="16.27283">
        <ele>296.104774</ele>
        <time>2026-07-07T11:11:34.000Z</time>
      </trkpt>
      <trkpt lat="47.84157" lon="16.27279">
        <ele>296.069208</ele>
        <time>2026-07-07T11:11:35.000Z</time>
      </trkpt>
      <trkpt lat="47.84153" lon="16.27275">
        <ele>296.033904</ele>
        <time>2026-07-07T11:11:36.000Z</time>
      </trkpt>
      <trkpt lat="47.84149" lon="16.27271">
        <ele>295.997753</ele>
        <time>2026-07-07T11:11:37.000Z</time>
      </trkpt>
      <trkpt lat="47.84144" lon="16.27267">
        <ele>295.96211</ele>
        <time>2026-07-07T11:11:38.000Z</time>
      </trkpt>
      <trkpt lat="47.8414" lon="16.27263">
        <ele>295.927062</ele>
        <time>2026-07-07T11:11:39.000Z</time>
      </trkpt>
      <trkpt lat="47.84136" lon="16.27259">
        <ele>295.89142</ele>
        <time>2026-07-07T11:11:40.000Z</time>
      </trkpt>
      <trkpt lat="47.84132" lon="16.27254">
        <ele>295.855854</ele>
        <time>2026-07-07T11:11:41.000Z</time>
      </trkpt>
      <trkpt lat="47.84127" lon="16.2725">
        <ele>295.820806</ele>
        <time>2026-07-07T11:11:42.000Z</time>
      </trkpt>
      <trkpt lat="47.84123" lon="16.27246">
        <ele>295.786935</ele>
        <time>2026-07-07T11:11:43.000Z</time>
      </trkpt>
      <trkpt lat="47.84119" lon="16.27243">
        <ele>295.754319</ele>
        <time>2026-07-07T11:11:44.000Z</time>
      </trkpt>
      <trkpt lat="47.84115" lon="16.27239">
        <ele>295.721462</ele>
        <time>2026-07-07T11:11:45.000Z</time>
      </trkpt>
      <trkpt lat="47.84111" lon="16.27236">
        <ele>295.688358</ele>
        <time>2026-07-07T11:11:46.000Z</time>
      </trkpt>
      <trkpt lat="47.84108" lon="16.27232">
        <ele>295.655645</ele>
        <time>2026-07-07T11:11:47.000Z</time>
      </trkpt>
      <trkpt lat="47.84103" lon="16.27228">
        <ele>295.620596</ele>
        <time>2026-07-07T11:11:48.000Z</time>
      </trkpt>
      <trkpt lat="47.84099" lon="16.27224">
        <ele>295.587242</ele>
        <time>2026-07-07T11:11:49.000Z</time>
      </trkpt>
      <trkpt lat="47.84095" lon="16.2722">
        <ele>295.552258</ele>
        <time>2026-07-07T11:11:50.000Z</time>
      </trkpt>
      <trkpt lat="47.84091" lon="16.27215">
        <ele>295.516692</ele>
        <time>2026-07-07T11:11:51.000Z</time>
      </trkpt>
      <trkpt lat="47.84087" lon="16.27211">
        <ele>295.480862</ele>
        <time>2026-07-07T11:11:52.000Z</time>
      </trkpt>
      <trkpt lat="47.84083" lon="16.27207">
        <ele>295.44471</ele>
        <time>2026-07-07T11:11:53.000Z</time>
      </trkpt>
      <trkpt lat="47.84078" lon="16.27203">
        <ele>295.409406</ele>
        <time>2026-07-07T11:11:54.000Z</time>
      </trkpt>
      <trkpt lat="47.84074" lon="16.27199">
        <ele>295.373255</ele>
        <time>2026-07-07T11:11:55.000Z</time>
      </trkpt>
      <trkpt lat="47.8407" lon="16.27195">
        <ele>295.338206</ele>
        <time>2026-07-07T11:11:56.000Z</time>
      </trkpt>
      <trkpt lat="47.84066" lon="16.27191">
        <ele>295.303749</ele>
        <time>2026-07-07T11:11:57.000Z</time>
      </trkpt>
      <trkpt lat="47.84062" lon="16.27187">
        <ele>295.2687</ele>
        <time>2026-07-07T11:11:58.000Z</time>
      </trkpt>
      <trkpt lat="47.84058" lon="16.27183">
        <ele>295.235597</ele>
        <time>2026-07-07T11:11:59.000Z</time>
      </trkpt>
      <trkpt lat="47.84054" lon="16.27179">
        <ele>295.202241</ele>
        <time>2026-07-07T11:12:00.000Z</time>
      </trkpt>
      <trkpt lat="47.8405" lon="16.27175">
        <ele>295.17091</ele>
        <time>2026-07-07T11:12:01.000Z</time>
      </trkpt>
      <trkpt lat="47.84046" lon="16.27171">
        <ele>295.139334</ele>
        <time>2026-07-07T11:12:02.000Z</time>
      </trkpt>
      <trkpt lat="47.84043" lon="16.27168">
        <ele>295.108263</ele>
        <time>2026-07-07T11:12:03.000Z</time>
      </trkpt>
      <trkpt lat="47.84039" lon="16.27164">
        <ele>295.076932</ele>
        <time>2026-07-07T11:12:04.000Z</time>
      </trkpt>
      <trkpt lat="47.84035" lon="16.2716">
        <ele>295.045092</ele>
        <time>2026-07-07T11:12:05.000Z</time>
      </trkpt>
      <trkpt lat="47.84031" lon="16.27157">
        <ele>295.041386</ele>
        <time>2026-07-07T11:12:06.000Z</time>
      </trkpt>
      <trkpt lat="47.84027" lon="16.27153">
        <ele>295.03758</ele>
        <time>2026-07-07T11:12:07.000Z</time>
      </trkpt>
      <trkpt lat="47.84024" lon="16.27149">
        <ele>295.03375</ele>
        <time>2026-07-07T11:12:08.000Z</time>
      </trkpt>
      <trkpt lat="47.8402" lon="16.27145">
        <ele>295.029875</ele>
        <time>2026-07-07T11:12:09.000Z</time>
      </trkpt>
      <trkpt lat="47.84015" lon="16.27142">
        <ele>295.025831</ele>
        <time>2026-07-07T11:12:10.000Z</time>
      </trkpt>
      <trkpt lat="47.84011" lon="16.27138">
        <ele>295.021797</ele>
        <time>2026-07-07T11:12:11.000Z</time>
      </trkpt>
      <trkpt lat="47.84007" lon="16.27133">
        <ele>295.017769</ele>
        <time>2026-07-07T11:12:12.000Z</time>
      </trkpt>
      <trkpt lat="47.84003" lon="16.27129">
        <ele>295.013574</ele>
        <time>2026-07-07T11:12:13.000Z</time>
      </trkpt>
      <trkpt lat="47.83999" lon="16.27125">
        <ele>295.00938</ele>
        <time>2026-07-07T11:12:14.000Z</time>
      </trkpt>
      <trkpt lat="47.83995" lon="16.27121">
        <ele>295.005207</ele>
        <time>2026-07-07T11:12:15.000Z</time>
      </trkpt>
      <trkpt lat="47.8399" lon="16.27117">
        <ele>295.000836</ele>
        <time>2026-07-07T11:12:16.000Z</time>
      </trkpt>
      <trkpt lat="47.83986" lon="16.27112">
        <ele>294.996673</ele>
        <time>2026-07-07T11:12:17.000Z</time>
      </trkpt>
      <trkpt lat="47.83982" lon="16.27108">
        <ele>294.99241</ele>
        <time>2026-07-07T11:12:18.000Z</time>
      </trkpt>
      <trkpt lat="47.83977" lon="16.27104">
        <ele>294.988247</ele>
        <time>2026-07-07T11:12:19.000Z</time>
      </trkpt>
      <trkpt lat="47.83973" lon="16.271">
        <ele>294.983934</ele>
        <time>2026-07-07T11:12:20.000Z</time>
      </trkpt>
      <trkpt lat="47.83969" lon="16.27096">
        <ele>294.979761</ele>
        <time>2026-07-07T11:12:21.000Z</time>
      </trkpt>
      <trkpt lat="47.83964" lon="16.27091">
        <ele>294.975503</ele>
        <time>2026-07-07T11:12:22.000Z</time>
      </trkpt>
      <trkpt lat="47.8396" lon="16.27087">
        <ele>294.971311</ele>
        <time>2026-07-07T11:12:23.000Z</time>
      </trkpt>
      <trkpt lat="47.83956" lon="16.27083">
        <ele>294.967117</ele>
        <time>2026-07-07T11:12:24.000Z</time>
      </trkpt>
      <trkpt lat="47.83952" lon="16.27078">
        <ele>294.962716</ele>
        <time>2026-07-07T11:12:25.000Z</time>
      </trkpt>
      <trkpt lat="47.83947" lon="16.27074">
        <ele>294.958346</ele>
        <time>2026-07-07T11:12:26.000Z</time>
      </trkpt>
      <trkpt lat="47.83943" lon="16.2707">
        <ele>294.954113</ele>
        <time>2026-07-07T11:12:27.000Z</time>
      </trkpt>
      <trkpt lat="47.83938" lon="16.27066">
        <ele>294.949713</ele>
        <time>2026-07-07T11:12:28.000Z</time>
      </trkpt>
      <trkpt lat="47.83934" lon="16.27061">
        <ele>294.945519</ele>
        <time>2026-07-07T11:12:29.000Z</time>
      </trkpt>
      <trkpt lat="47.8393" lon="16.27057">
        <ele>294.941286</ele>
        <time>2026-07-07T11:12:30.000Z</time>
      </trkpt>
      <trkpt lat="47.83925" lon="16.27053">
        <ele>294.936985</ele>
        <time>2026-07-07T11:12:31.000Z</time>
      </trkpt>
      <trkpt lat="47.83921" lon="16.27049">
        <ele>294.932921</ele>
        <time>2026-07-07T11:12:32.000Z</time>
      </trkpt>
      <trkpt lat="47.83917" lon="16.27045">
        <ele>294.928818</ele>
        <time>2026-07-07T11:12:33.000Z</time>
      </trkpt>
      <trkpt lat="47.83913" lon="16.27041">
        <ele>294.924645</ele>
        <time>2026-07-07T11:12:34.000Z</time>
      </trkpt>
      <trkpt lat="47.83909" lon="16.27037">
        <ele>294.920542</ele>
        <time>2026-07-07T11:12:35.000Z</time>
      </trkpt>
      <trkpt lat="47.83904" lon="16.27033">
        <ele>294.916379</ele>
        <time>2026-07-07T11:12:36.000Z</time>
      </trkpt>
      <trkpt lat="47.839" lon="16.27028">
        <ele>294.912283</ele>
        <time>2026-07-07T11:12:37.000Z</time>
      </trkpt>
      <trkpt lat="47.83896" lon="16.27024">
        <ele>294.908041</ele>
        <time>2026-07-07T11:12:38.000Z</time>
      </trkpt>
      <trkpt lat="47.83892" lon="16.2702">
        <ele>294.903778</ele>
        <time>2026-07-07T11:12:39.000Z</time>
      </trkpt>
      <trkpt lat="47.83887" lon="16.27016">
        <ele>294.899583</ele>
        <time>2026-07-07T11:12:40.000Z</time>
      </trkpt>
      <trkpt lat="47.83883" lon="16.27012">
        <ele>294.903661</ele>
        <time>2026-07-07T11:12:41.000Z</time>
      </trkpt>
      <trkpt lat="47.83879" lon="16.27007">
        <ele>294.918817</ele>
        <time>2026-07-07T11:12:42.000Z</time>
      </trkpt>
      <trkpt lat="47.83874" lon="16.27003">
        <ele>294.934365</ele>
        <time>2026-07-07T11:12:43.000Z</time>
      </trkpt>
      <trkpt lat="47.8387" lon="16.26999">
        <ele>294.949522</ele>
        <time>2026-07-07T11:12:44.000Z</time>
      </trkpt>
      <trkpt lat="47.83865" lon="16.26995">
        <ele>294.96528</ele>
        <time>2026-07-07T11:12:45.000Z</time>
      </trkpt>
      <trkpt lat="47.83861" lon="16.2699">
        <ele>294.9809</ele>
        <time>2026-07-07T11:12:46.000Z</time>
      </trkpt>
      <trkpt lat="47.83857" lon="16.26986">
        <ele>294.995949</ele>
        <time>2026-07-07T11:12:47.000Z</time>
      </trkpt>
      <trkpt lat="47.83852" lon="16.26982">
        <ele>295.011326</ele>
        <time>2026-07-07T11:12:48.000Z</time>
      </trkpt>
      <trkpt lat="47.83848" lon="16.26978">
        <ele>295.026837</ele>
        <time>2026-07-07T11:12:49.000Z</time>
      </trkpt>
      <trkpt lat="47.83844" lon="16.26973">
        <ele>295.042326</ele>
        <time>2026-07-07T11:12:50.000Z</time>
      </trkpt>
      <trkpt lat="47.83839" lon="16.26969">
        <ele>295.057592</ele>
        <time>2026-07-07T11:12:51.000Z</time>
      </trkpt>
      <trkpt lat="47.83835" lon="16.26964">
        <ele>295.072726</ele>
        <time>2026-07-07T11:12:52.000Z</time>
      </trkpt>
      <trkpt lat="47.83831" lon="16.2696">
        <ele>295.087528</ele>
        <time>2026-07-07T11:12:53.000Z</time>
      </trkpt>
      <trkpt lat="47.83827" lon="16.26956">
        <ele>295.102194</ele>
        <time>2026-07-07T11:12:54.000Z</time>
      </trkpt>
      <trkpt lat="47.83823" lon="16.26952">
        <ele>295.116734</ele>
        <time>2026-07-07T11:12:55.000Z</time>
      </trkpt>
      <trkpt lat="47.83819" lon="16.26947">
        <ele>295.131869</ele>
        <time>2026-07-07T11:12:56.000Z</time>
      </trkpt>
      <trkpt lat="47.83815" lon="16.26943">
        <ele>295.146643</ele>
        <time>2026-07-07T11:12:57.000Z</time>
      </trkpt>
      <trkpt lat="47.8381" lon="16.26939">
        <ele>295.161665</ele>
        <time>2026-07-07T11:12:58.000Z</time>
      </trkpt>
      <trkpt lat="47.83806" lon="16.26934">
        <ele>295.176676</ele>
        <time>2026-07-07T11:12:59.000Z</time>
      </trkpt>
      <trkpt lat="47.83802" lon="16.26929">
        <ele>295.19216</ele>
        <time>2026-07-07T11:13:00.000Z</time>
      </trkpt>
      <trkpt lat="47.83798" lon="16.26925">
        <ele>295.207525</ele>
        <time>2026-07-07T11:13:01.000Z</time>
      </trkpt>
      <trkpt lat="47.83794" lon="16.2692">
        <ele>295.223246</ele>
        <time>2026-07-07T11:13:02.000Z</time>
      </trkpt>
      <trkpt lat="47.83789" lon="16.26915">
        <ele>295.239084</ele>
        <time>2026-07-07T11:13:03.000Z</time>
      </trkpt>
      <trkpt lat="47.83785" lon="16.2691">
        <ele>295.255639</ele>
        <time>2026-07-07T11:13:04.000Z</time>
      </trkpt>
      <trkpt lat="47.8378" lon="16.26905">
        <ele>295.271953</ele>
        <time>2026-07-07T11:13:05.000Z</time>
      </trkpt>
      <trkpt lat="47.83776" lon="16.269">
        <ele>295.288383</ele>
        <time>2026-07-07T11:13:06.000Z</time>
      </trkpt>
      <trkpt lat="47.83771" lon="16.26896">
        <ele>295.304713</ele>
        <time>2026-07-07T11:13:07.000Z</time>
      </trkpt>
      <trkpt lat="47.83767" lon="16.26891">
        <ele>295.320906</ele>
        <time>2026-07-07T11:13:08.000Z</time>
      </trkpt>
      <trkpt lat="47.83762" lon="16.26886">
        <ele>295.337127</ele>
        <time>2026-07-07T11:13:09.000Z</time>
      </trkpt>
      <trkpt lat="47.83758" lon="16.26882">
        <ele>295.353596</ele>
        <time>2026-07-07T11:13:10.000Z</time>
      </trkpt>
      <trkpt lat="47.83753" lon="16.26877">
        <ele>295.370064</ele>
        <time>2026-07-07T11:13:11.000Z</time>
      </trkpt>
      <trkpt lat="47.83748" lon="16.26873">
        <ele>295.38604</ele>
        <time>2026-07-07T11:13:12.000Z</time>
      </trkpt>
      <trkpt lat="47.83744" lon="16.26868">
        <ele>295.40237</ele>
        <time>2026-07-07T11:13:13.000Z</time>
      </trkpt>
      <trkpt lat="47.83739" lon="16.26864">
        <ele>295.418839</ele>
        <time>2026-07-07T11:13:14.000Z</time>
      </trkpt>
      <trkpt lat="47.83735" lon="16.26859">
        <ele>295.42395</ele>
        <time>2026-07-07T11:13:15.000Z</time>
      </trkpt>
      <trkpt lat="47.8373" lon="16.26855">
        <ele>295.416923</ele>
        <time>2026-07-07T11:13:16.000Z</time>
      </trkpt>
      <trkpt lat="47.83726" lon="16.2685">
        <ele>295.409994</ele>
        <time>2026-07-07T11:13:17.000Z</time>
      </trkpt>
      <trkpt lat="47.83721" lon="16.26845">
        <ele>295.403175</ele>
        <time>2026-07-07T11:13:18.000Z</time>
      </trkpt>
      <trkpt lat="47.83717" lon="16.26841">
        <ele>295.396408</ele>
        <time>2026-07-07T11:13:19.000Z</time>
      </trkpt>
      <trkpt lat="47.83713" lon="16.26835">
        <ele>295.38962</ele>
        <time>2026-07-07T11:13:20.000Z</time>
      </trkpt>
      <trkpt lat="47.83709" lon="16.2683">
        <ele>295.382776</ele>
        <time>2026-07-07T11:13:21.000Z</time>
      </trkpt>
      <trkpt lat="47.83705" lon="16.26825">
        <ele>295.375739</ele>
        <time>2026-07-07T11:13:22.000Z</time>
      </trkpt>
      <trkpt lat="47.837" lon="16.26819">
        <ele>295.368351</ele>
        <time>2026-07-07T11:13:23.000Z</time>
      </trkpt>
      <trkpt lat="47.83696" lon="16.26814">
        <ele>295.360814</ele>
        <time>2026-07-07T11:13:24.000Z</time>
      </trkpt>
      <trkpt lat="47.83691" lon="16.26809">
        <ele>295.353374</ele>
        <time>2026-07-07T11:13:25.000Z</time>
      </trkpt>
      <trkpt lat="47.83686" lon="16.26805">
        <ele>295.345861</ele>
        <time>2026-07-07T11:13:26.000Z</time>
      </trkpt>
      <trkpt lat="47.83681" lon="16.26801">
        <ele>295.338298</ele>
        <time>2026-07-07T11:13:27.000Z</time>
      </trkpt>
      <trkpt lat="47.83676" lon="16.26797">
        <ele>295.331349</ele>
        <time>2026-07-07T11:13:28.000Z</time>
      </trkpt>
      <trkpt lat="47.83671" lon="16.26794">
        <ele>295.324156</ele>
        <time>2026-07-07T11:13:29.000Z</time>
      </trkpt>
      <trkpt lat="47.83666" lon="16.26791">
        <ele>295.317596</ele>
        <time>2026-07-07T11:13:30.000Z</time>
      </trkpt>
      <trkpt lat="47.83661" lon="16.26788">
        <ele>295.310946</ele>
        <time>2026-07-07T11:13:31.000Z</time>
      </trkpt>
      <trkpt lat="47.83656" lon="16.26785">
        <ele>295.304526</ele>
        <time>2026-07-07T11:13:32.000Z</time>
      </trkpt>
      <trkpt lat="47.83652" lon="16.26782">
        <ele>295.298151</ele>
        <time>2026-07-07T11:13:33.000Z</time>
      </trkpt>
      <trkpt lat="47.83647" lon="16.26779">
        <ele>295.29166</ele>
        <time>2026-07-07T11:13:34.000Z</time>
      </trkpt>
      <trkpt lat="47.83643" lon="16.26775">
        <ele>295.285501</ele>
        <time>2026-07-07T11:13:35.000Z</time>
      </trkpt>
      <trkpt lat="47.83639" lon="16.26771">
        <ele>295.279447</ele>
        <time>2026-07-07T11:13:36.000Z</time>
      </trkpt>
      <trkpt lat="47.83636" lon="16.26767">
        <ele>295.273596</ele>
        <time>2026-07-07T11:13:37.000Z</time>
      </trkpt>
      <trkpt lat="47.83632" lon="16.26763">
        <ele>295.267751</ele>
        <time>2026-07-07T11:13:38.000Z</time>
      </trkpt>
      <trkpt lat="47.83628" lon="16.26758">
        <ele>295.261896</ele>
        <time>2026-07-07T11:13:39.000Z</time>
      </trkpt>
      <trkpt lat="47.83625" lon="16.26753">
        <ele>295.255817</ele>
        <time>2026-07-07T11:13:40.000Z</time>
      </trkpt>
      <trkpt lat="47.83621" lon="16.26748">
        <ele>295.249487</ele>
        <time>2026-07-07T11:13:41.000Z</time>
      </trkpt>
      <trkpt lat="47.83617" lon="16.26744">
        <ele>295.243079</ele>
        <time>2026-07-07T11:13:42.000Z</time>
      </trkpt>
      <trkpt lat="47.83613" lon="16.26739">
        <ele>295.236512</ele>
        <time>2026-07-07T11:13:43.000Z</time>
      </trkpt>
      <trkpt lat="47.83609" lon="16.26734">
        <ele>295.229836</ele>
        <time>2026-07-07T11:13:44.000Z</time>
      </trkpt>
      <trkpt lat="47.83605" lon="16.26729">
        <ele>295.222992</ele>
        <time>2026-07-07T11:13:45.000Z</time>
      </trkpt>
      <trkpt lat="47.83601" lon="16.26723">
        <ele>295.216091</ele>
        <time>2026-07-07T11:13:46.000Z</time>
      </trkpt>
      <trkpt lat="47.83598" lon="16.26718">
        <ele>295.209498</ele>
        <time>2026-07-07T11:13:47.000Z</time>
      </trkpt>
      <trkpt lat="47.83594" lon="16.26712">
        <ele>295.202815</ele>
        <time>2026-07-07T11:13:48.000Z</time>
      </trkpt>
      <trkpt lat="47.8359" lon="16.26707">
        <ele>295.198</ele>
        <time>2026-07-07T11:13:49.000Z</time>
      </trkpt>
      <trkpt lat="47.83587" lon="16.26701">
        <ele>295.20203</ele>
        <time>2026-07-07T11:13:50.000Z</time>
      </trkpt>
      <trkpt lat="47.83583" lon="16.26695">
        <ele>295.206007</ele>
        <time>2026-07-07T11:13:51.000Z</time>
      </trkpt>
      <trkpt lat="47.8358" lon="16.2669">
        <ele>295.209946</ele>
        <time>2026-07-07T11:13:52.000Z</time>
      </trkpt>
      <trkpt lat="47.83576" lon="16.26684">
        <ele>295.213955</ele>
        <time>2026-07-07T11:13:53.000Z</time>
      </trkpt>
      <trkpt lat="47.83572" lon="16.26679">
        <ele>295.218037</ele>
        <time>2026-07-07T11:13:54.000Z</time>
      </trkpt>
      <trkpt lat="47.83569" lon="16.26673">
        <ele>295.221939</ele>
        <time>2026-07-07T11:13:55.000Z</time>
      </trkpt>
      <trkpt lat="47.83565" lon="16.26668">
        <ele>295.22582</ele>
        <time>2026-07-07T11:13:56.000Z</time>
      </trkpt>
      <trkpt lat="47.83561" lon="16.26662">
        <ele>295.229961</ele>
        <time>2026-07-07T11:13:57.000Z</time>
      </trkpt>
      <trkpt lat="47.83557" lon="16.26657">
        <ele>295.233941</ele>
        <time>2026-07-07T11:13:58.000Z</time>
      </trkpt>
      <trkpt lat="47.83554" lon="16.26652">
        <ele>295.237829</ele>
        <time>2026-07-07T11:13:59.000Z</time>
      </trkpt>
      <trkpt lat="47.8355" lon="16.26648">
        <ele>295.241736</ele>
        <time>2026-07-07T11:14:00.000Z</time>
      </trkpt>
      <trkpt lat="47.83546" lon="16.26643">
        <ele>295.245676</ele>
        <time>2026-07-07T11:14:01.000Z</time>
      </trkpt>
      <trkpt lat="47.83542" lon="16.26638">
        <ele>295.24953</ele>
        <time>2026-07-07T11:14:02.000Z</time>
      </trkpt>
      <trkpt lat="47.83538" lon="16.26633">
        <ele>295.25341</ele>
        <time>2026-07-07T11:14:03.000Z</time>
      </trkpt>
      <trkpt lat="47.83534" lon="16.26628">
        <ele>295.257185</ele>
        <time>2026-07-07T11:14:04.000Z</time>
      </trkpt>
      <trkpt lat="47.83531" lon="16.26623">
        <ele>295.261012</ele>
        <time>2026-07-07T11:14:05.000Z</time>
      </trkpt>
      <trkpt lat="47.83527" lon="16.26617">
        <ele>295.264862</ele>
        <time>2026-07-07T11:14:06.000Z</time>
      </trkpt>
      <trkpt lat="47.83524" lon="16.26612">
        <ele>295.268621</ele>
        <time>2026-07-07T11:14:07.000Z</time>
      </trkpt>
      <trkpt lat="47.83521" lon="16.26607">
        <ele>295.272449</ele>
        <time>2026-07-07T11:14:08.000Z</time>
      </trkpt>
      <trkpt lat="47.83517" lon="16.26601">
        <ele>295.27635</ele>
        <time>2026-07-07T11:14:09.000Z</time>
      </trkpt>
      <trkpt lat="47.83513" lon="16.26596">
        <ele>295.280125</ele>
        <time>2026-07-07T11:14:10.000Z</time>
      </trkpt>
      <trkpt lat="47.8351" lon="16.26591">
        <ele>295.283991</ele>
        <time>2026-07-07T11:14:11.000Z</time>
      </trkpt>
      <trkpt lat="47.83506" lon="16.26586">
        <ele>295.287964</ele>
        <time>2026-07-07T11:14:12.000Z</time>
      </trkpt>
      <trkpt lat="47.83503" lon="16.2658">
        <ele>295.291762</ele>
        <time>2026-07-07T11:14:13.000Z</time>
      </trkpt>
      <trkpt lat="47.83499" lon="16.26575">
        <ele>295.29556</ele>
        <time>2026-07-07T11:14:14.000Z</time>
      </trkpt>
      <trkpt lat="47.83496" lon="16.2657">
        <ele>295.299387</ele>
        <time>2026-07-07T11:14:15.000Z</time>
      </trkpt>
      <trkpt lat="47.83492" lon="16.26564">
        <ele>295.303215</ele>
        <time>2026-07-07T11:14:16.000Z</time>
      </trkpt>
      <trkpt lat="47.83489" lon="16.26559">
        <ele>295.307192</ele>
        <time>2026-07-07T11:14:17.000Z</time>
      </trkpt>
      <trkpt lat="47.83485" lon="16.26553">
        <ele>295.311094</ele>
        <time>2026-07-07T11:14:18.000Z</time>
      </trkpt>
      <trkpt lat="47.83482" lon="16.26548">
        <ele>295.31503</ele>
        <time>2026-07-07T11:14:19.000Z</time>
      </trkpt>
      <trkpt lat="47.83478" lon="16.26542">
        <ele>295.319166</ele>
        <time>2026-07-07T11:14:20.000Z</time>
      </trkpt>
      <trkpt lat="47.83474" lon="16.26537">
        <ele>295.323285</ele>
        <time>2026-07-07T11:14:21.000Z</time>
      </trkpt>
      <trkpt lat="47.8347" lon="16.26531">
        <ele>295.327278</ele>
        <time>2026-07-07T11:14:22.000Z</time>
      </trkpt>
      <trkpt lat="47.83466" lon="16.26526">
        <ele>295.33136</ele>
        <time>2026-07-07T11:14:23.000Z</time>
      </trkpt>
      <trkpt lat="47.83463" lon="16.2652">
        <ele>295.335079</ele>
        <time>2026-07-07T11:14:24.000Z</time>
      </trkpt>
      <trkpt lat="47.83459" lon="16.26515">
        <ele>295.319535</ele>
        <time>2026-07-07T11:14:25.000Z</time>
      </trkpt>
      <trkpt lat="47.83455" lon="16.2651">
        <ele>295.30346</ele>
        <time>2026-07-07T11:14:26.000Z</time>
      </trkpt>
      <trkpt lat="47.83452" lon="16.26504">
        <ele>295.288059</ele>
        <time>2026-07-07T11:14:27.000Z</time>
      </trkpt>
      <trkpt lat="47.83448" lon="16.265">
        <ele>295.272991</ele>
        <time>2026-07-07T11:14:28.000Z</time>
      </trkpt>
      <trkpt lat="47.83444" lon="16.26495">
        <ele>295.257649</ele>
        <time>2026-07-07T11:14:29.000Z</time>
      </trkpt>
      <trkpt lat="47.83441" lon="16.2649">
        <ele>295.242811</ele>
        <time>2026-07-07T11:14:30.000Z</time>
      </trkpt>
      <trkpt lat="47.83437" lon="16.26485">
        <ele>295.227629</ele>
        <time>2026-07-07T11:14:31.000Z</time>
      </trkpt>
      <trkpt lat="47.83434" lon="16.26479">
        <ele>295.212301</ele>
        <time>2026-07-07T11:14:32.000Z</time>
      </trkpt>
      <trkpt lat="47.8343" lon="16.26474">
        <ele>295.196632</ele>
        <time>2026-07-07T11:14:33.000Z</time>
      </trkpt>
      <trkpt lat="47.83426" lon="16.2647">
        <ele>295.181794</ele>
        <time>2026-07-07T11:14:34.000Z</time>
      </trkpt>
      <trkpt lat="47.83423" lon="16.26465">
        <ele>295.166452</ele>
        <time>2026-07-07T11:14:35.000Z</time>
      </trkpt>
      <trkpt lat="47.83419" lon="16.2646">
        <ele>295.151559</ele>
        <time>2026-07-07T11:14:36.000Z</time>
      </trkpt>
      <trkpt lat="47.83416" lon="16.26455">
        <ele>295.136665</ele>
        <time>2026-07-07T11:14:37.000Z</time>
      </trkpt>
      <trkpt lat="47.83412" lon="16.26449">
        <ele>295.121913</ele>
        <time>2026-07-07T11:14:38.000Z</time>
      </trkpt>
      <trkpt lat="47.83409" lon="16.26444">
        <ele>295.106799</ele>
        <time>2026-07-07T11:14:39.000Z</time>
      </trkpt>
      <trkpt lat="47.83406" lon="16.26439">
        <ele>295.091895</ele>
        <time>2026-07-07T11:14:40.000Z</time>
      </trkpt>
      <trkpt lat="47.83402" lon="16.26433">
        <ele>295.076271</ele>
        <time>2026-07-07T11:14:41.000Z</time>
      </trkpt>
      <trkpt lat="47.83398" lon="16.26428">
        <ele>295.060218</ele>
        <time>2026-07-07T11:14:42.000Z</time>
      </trkpt>
      <trkpt lat="47.83395" lon="16.26422">
        <ele>295.044527</ele>
        <time>2026-07-07T11:14:43.000Z</time>
      </trkpt>
      <trkpt lat="47.83391" lon="16.26417">
        <ele>295.029185</ele>
        <time>2026-07-07T11:14:44.000Z</time>
      </trkpt>
      <trkpt lat="47.83387" lon="16.26412">
        <ele>295.013614</ele>
        <time>2026-07-07T11:14:45.000Z</time>
      </trkpt>
      <trkpt lat="47.83384" lon="16.26407">
        <ele>294.997849</ele>
        <time>2026-07-07T11:14:46.000Z</time>
      </trkpt>
      <trkpt lat="47.8338" lon="16.26402">
        <ele>294.982225</ele>
        <time>2026-07-07T11:14:47.000Z</time>
      </trkpt>
      <trkpt lat="47.83376" lon="16.26396">
        <ele>294.96646</ele>
        <time>2026-07-07T11:14:48.000Z</time>
      </trkpt>
      <trkpt lat="47.83373" lon="16.26391">
        <ele>294.951344</ele>
        <time>2026-07-07T11:14:49.000Z</time>
      </trkpt>
      <trkpt lat="47.83369" lon="16.26386">
        <ele>294.935721</ele>
        <time>2026-07-07T11:14:50.000Z</time>
      </trkpt>
      <trkpt lat="47.83366" lon="16.26381">
        <ele>294.920828</ele>
        <time>2026-07-07T11:14:51.000Z</time>
      </trkpt>
      <trkpt lat="47.83362" lon="16.26376">
        <ele>294.905257</ele>
        <time>2026-07-07T11:14:52.000Z</time>
      </trkpt>
      <trkpt lat="47.83358" lon="16.26371">
        <ele>294.889043</ele>
        <time>2026-07-07T11:14:53.000Z</time>
      </trkpt>
      <trkpt lat="47.83354" lon="16.26365">
        <ele>294.872325</ele>
        <time>2026-07-07T11:14:54.000Z</time>
      </trkpt>
      <trkpt lat="47.8335" lon="16.2636">
        <ele>294.856488</ele>
        <time>2026-07-07T11:14:55.000Z</time>
      </trkpt>
      <trkpt lat="47.83346" lon="16.26354">
        <ele>294.839994</ele>
        <time>2026-07-07T11:14:56.000Z</time>
      </trkpt>
      <trkpt lat="47.83343" lon="16.26349">
        <ele>294.823859</ele>
        <time>2026-07-07T11:14:57.000Z</time>
      </trkpt>
      <trkpt lat="47.83339" lon="16.26343">
        <ele>294.807512</ele>
        <time>2026-07-07T11:14:58.000Z</time>
      </trkpt>
      <trkpt lat="47.83335" lon="16.26337">
        <ele>294.791313</ele>
        <time>2026-07-07T11:14:59.000Z</time>
      </trkpt>
      <trkpt lat="47.83332" lon="16.26332">
        <ele>294.785411</ele>
        <time>2026-07-07T11:15:00.000Z</time>
      </trkpt>
      <trkpt lat="47.83328" lon="16.26327">
        <ele>294.790608</ele>
        <time>2026-07-07T11:15:01.000Z</time>
      </trkpt>
      <trkpt lat="47.83324" lon="16.26322">
        <ele>294.795637</ele>
        <time>2026-07-07T11:15:02.000Z</time>
      </trkpt>
      <trkpt lat="47.8332" lon="16.26316">
        <ele>294.801062</ele>
        <time>2026-07-07T11:15:03.000Z</time>
      </trkpt>
      <trkpt lat="47.83316" lon="16.26311">
        <ele>294.806441</ele>
        <time>2026-07-07T11:15:04.000Z</time>
      </trkpt>
      <trkpt lat="47.83312" lon="16.26307">
        <ele>294.812056</ele>
        <time>2026-07-07T11:15:05.000Z</time>
      </trkpt>
      <trkpt lat="47.83307" lon="16.26302">
        <ele>294.817938</ele>
        <time>2026-07-07T11:15:06.000Z</time>
      </trkpt>
      <trkpt lat="47.83302" lon="16.26297">
        <ele>294.823676</ele>
        <time>2026-07-07T11:15:07.000Z</time>
      </trkpt>
      <trkpt lat="47.83298" lon="16.26292">
        <ele>294.829481</ele>
        <time>2026-07-07T11:15:08.000Z</time>
      </trkpt>
      <trkpt lat="47.83294" lon="16.26286">
        <ele>294.835281</ele>
        <time>2026-07-07T11:15:09.000Z</time>
      </trkpt>
      <trkpt lat="47.8329" lon="16.2628">
        <ele>294.84084</ele>
        <time>2026-07-07T11:15:10.000Z</time>
      </trkpt>
      <trkpt lat="47.83286" lon="16.26274">
        <ele>294.846591</ele>
        <time>2026-07-07T11:15:11.000Z</time>
      </trkpt>
      <trkpt lat="47.83282" lon="16.26268">
        <ele>294.852294</ele>
        <time>2026-07-07T11:15:12.000Z</time>
      </trkpt>
      <trkpt lat="47.83278" lon="16.26262">
        <ele>294.85795</ele>
        <time>2026-07-07T11:15:13.000Z</time>
      </trkpt>
      <trkpt lat="47.83274" lon="16.26257">
        <ele>294.863709</ele>
        <time>2026-07-07T11:15:14.000Z</time>
      </trkpt>
      <trkpt lat="47.8327" lon="16.26251">
        <ele>294.86959</ele>
        <time>2026-07-07T11:15:15.000Z</time>
      </trkpt>
      <trkpt lat="47.83265" lon="16.26245">
        <ele>294.875548</ele>
        <time>2026-07-07T11:15:16.000Z</time>
      </trkpt>
      <trkpt lat="47.83261" lon="16.2624">
        <ele>294.881339</ele>
        <time>2026-07-07T11:15:17.000Z</time>
      </trkpt>
      <trkpt lat="47.83256" lon="16.26235">
        <ele>294.887362</ele>
        <time>2026-07-07T11:15:18.000Z</time>
      </trkpt>
      <trkpt lat="47.83252" lon="16.26229">
        <ele>294.893064</ele>
        <time>2026-07-07T11:15:19.000Z</time>
      </trkpt>
      <trkpt lat="47.83248" lon="16.26224">
        <ele>294.899011</ele>
        <time>2026-07-07T11:15:20.000Z</time>
      </trkpt>
      <trkpt lat="47.83243" lon="16.26218">
        <ele>294.904758</ele>
        <time>2026-07-07T11:15:21.000Z</time>
      </trkpt>
      <trkpt lat="47.83239" lon="16.26213">
        <ele>294.910517</ele>
        <time>2026-07-07T11:15:22.000Z</time>
      </trkpt>
      <trkpt lat="47.83235" lon="16.26207">
        <ele>294.916268</ele>
        <time>2026-07-07T11:15:23.000Z</time>
      </trkpt>
      <trkpt lat="47.83231" lon="16.26201">
        <ele>294.921827</ele>
        <time>2026-07-07T11:15:24.000Z</time>
      </trkpt>
      <trkpt lat="47.83228" lon="16.26195">
        <ele>294.927415</ele>
        <time>2026-07-07T11:15:25.000Z</time>
      </trkpt>
      <trkpt lat="47.83224" lon="16.26189">
        <ele>294.933003</ele>
        <time>2026-07-07T11:15:26.000Z</time>
      </trkpt>
      <trkpt lat="47.8322" lon="16.26183">
        <ele>294.938661</ele>
        <time>2026-07-07T11:15:27.000Z</time>
      </trkpt>
      <trkpt lat="47.83217" lon="16.26177">
        <ele>294.944113</ele>
        <time>2026-07-07T11:15:28.000Z</time>
      </trkpt>
      <trkpt lat="47.83213" lon="16.26171">
        <ele>294.949803</ele>
        <time>2026-07-07T11:15:29.000Z</time>
      </trkpt>
      <trkpt lat="47.83209" lon="16.26165">
        <ele>294.955461</ele>
        <time>2026-07-07T11:15:30.000Z</time>
      </trkpt>
      <trkpt lat="47.83205" lon="16.26159">
        <ele>294.9611</ele>
        <time>2026-07-07T11:15:31.000Z</time>
      </trkpt>
      <trkpt lat="47.83201" lon="16.26153">
        <ele>294.964997</ele>
        <time>2026-07-07T11:15:32.000Z</time>
      </trkpt>
      <trkpt lat="47.83198" lon="16.26147">
        <ele>294.929763</ele>
        <time>2026-07-07T11:15:33.000Z</time>
      </trkpt>
      <trkpt lat="47.83194" lon="16.26141">
        <ele>294.894964</ele>
        <time>2026-07-07T11:15:34.000Z</time>
      </trkpt>
      <trkpt lat="47.8319" lon="16.26135">
        <ele>294.859858</ele>
        <time>2026-07-07T11:15:35.000Z</time>
      </trkpt>
      <trkpt lat="47.83185" lon="16.2613">
        <ele>294.823357</ele>
        <time>2026-07-07T11:15:36.000Z</time>
      </trkpt>
      <trkpt lat="47.83181" lon="16.26125">
        <ele>294.78712</ele>
        <time>2026-07-07T11:15:37.000Z</time>
      </trkpt>
      <trkpt lat="47.83176" lon="16.2612">
        <ele>294.751143</ele>
        <time>2026-07-07T11:15:38.000Z</time>
      </trkpt>
      <trkpt lat="47.83172" lon="16.26114">
        <ele>294.714107</ele>
        <time>2026-07-07T11:15:39.000Z</time>
      </trkpt>
      <trkpt lat="47.83167" lon="16.26109">
        <ele>294.67756</ele>
        <time>2026-07-07T11:15:40.000Z</time>
      </trkpt>
      <trkpt lat="47.83163" lon="16.26103">
        <ele>294.640363</ele>
        <time>2026-07-07T11:15:41.000Z</time>
      </trkpt>
      <trkpt lat="47.83159" lon="16.26097">
        <ele>294.602875</ele>
        <time>2026-07-07T11:15:42.000Z</time>
      </trkpt>
      <trkpt lat="47.83155" lon="16.26091">
        <ele>294.566756</ele>
        <time>2026-07-07T11:15:43.000Z</time>
      </trkpt>
      <trkpt lat="47.83151" lon="16.26085">
        <ele>294.530152</ele>
        <time>2026-07-07T11:15:44.000Z</time>
      </trkpt>
      <trkpt lat="47.83147" lon="16.26078">
        <ele>294.493976</ele>
        <time>2026-07-07T11:15:45.000Z</time>
      </trkpt>
      <trkpt lat="47.83143" lon="16.26072">
        <ele>294.458116</ele>
        <time>2026-07-07T11:15:46.000Z</time>
      </trkpt>
      <trkpt lat="47.83139" lon="16.26066">
        <ele>294.423052</ele>
        <time>2026-07-07T11:15:47.000Z</time>
      </trkpt>
      <trkpt lat="47.83136" lon="16.2606">
        <ele>294.388996</ele>
        <time>2026-07-07T11:15:48.000Z</time>
      </trkpt>
      <trkpt lat="47.83132" lon="16.26055">
        <ele>294.356336</ele>
        <time>2026-07-07T11:15:49.000Z</time>
      </trkpt>
      <trkpt lat="47.83129" lon="16.2605">
        <ele>294.32458</ele>
        <time>2026-07-07T11:15:50.000Z</time>
      </trkpt>
      <trkpt lat="47.83125" lon="16.26044">
        <ele>294.291321</ele>
        <time>2026-07-07T11:15:51.000Z</time>
      </trkpt>
      <trkpt lat="47.83121" lon="16.26039">
        <ele>294.25851</ele>
        <time>2026-07-07T11:15:52.000Z</time>
      </trkpt>
      <trkpt lat="47.83118" lon="16.26033">
        <ele>294.225252</ele>
        <time>2026-07-07T11:15:53.000Z</time>
      </trkpt>
      <trkpt lat="47.83114" lon="16.26028">
        <ele>294.19154</ele>
        <time>2026-07-07T11:15:54.000Z</time>
      </trkpt>
      <trkpt lat="47.8311" lon="16.26022">
        <ele>294.157672</ele>
        <time>2026-07-07T11:15:55.000Z</time>
      </trkpt>
      <trkpt lat="47.83106" lon="16.26016">
        <ele>294.123497</ele>
        <time>2026-07-07T11:15:56.000Z</time>
      </trkpt>
      <trkpt lat="47.83103" lon="16.2601">
        <ele>294.088482</ele>
        <time>2026-07-07T11:15:57.000Z</time>
      </trkpt>
      <trkpt lat="47.83099" lon="16.26004">
        <ele>294.053553</ele>
        <time>2026-07-07T11:15:58.000Z</time>
      </trkpt>
      <trkpt lat="47.83096" lon="16.25997">
        <ele>294.017678</ele>
        <time>2026-07-07T11:15:59.000Z</time>
      </trkpt>
      <trkpt lat="47.83092" lon="16.2599">
        <ele>293.981078</ele>
        <time>2026-07-07T11:16:00.000Z</time>
      </trkpt>
      <trkpt lat="47.83089" lon="16.25983">
        <ele>293.944137</ele>
        <time>2026-07-07T11:16:01.000Z</time>
      </trkpt>
      <trkpt lat="47.83085" lon="16.25977">
        <ele>293.907537</ele>
        <time>2026-07-07T11:16:02.000Z</time>
      </trkpt>
      <trkpt lat="47.83082" lon="16.2597">
        <ele>293.871697</ele>
        <time>2026-07-07T11:16:03.000Z</time>
      </trkpt>
      <trkpt lat="47.83078" lon="16.25963">
        <ele>293.833976</ele>
        <time>2026-07-07T11:16:04.000Z</time>
      </trkpt>
      <trkpt lat="47.83075" lon="16.25956">
        <ele>293.862245</ele>
        <time>2026-07-07T11:16:05.000Z</time>
      </trkpt>
      <trkpt lat="47.83071" lon="16.2595">
        <ele>293.925161</ele>
        <time>2026-07-07T11:16:06.000Z</time>
      </trkpt>
      <trkpt lat="47.83067" lon="16.25945">
        <ele>293.985218</ele>
        <time>2026-07-07T11:16:07.000Z</time>
      </trkpt>
      <trkpt lat="47.83062" lon="16.25942">
        <ele>294.041482</ele>
        <time>2026-07-07T11:16:08.000Z</time>
      </trkpt>
      <trkpt lat="47.83058" lon="16.25941">
        <ele>294.094936</ele>
        <time>2026-07-07T11:16:09.000Z</time>
      </trkpt>
      <trkpt lat="47.83053" lon="16.25944">
        <ele>294.151294</ele>
        <time>2026-07-07T11:16:10.000Z</time>
      </trkpt>
      <trkpt lat="47.83049" lon="16.25948">
        <ele>294.205535</ele>
        <time>2026-07-07T11:16:11.000Z</time>
      </trkpt>
      <trkpt lat="47.83045" lon="16.25952">
        <ele>294.257267</ele>
        <time>2026-07-07T11:16:12.000Z</time>
      </trkpt>
      <trkpt lat="47.83042" lon="16.25957">
        <ele>294.3097</ele>
        <time>2026-07-07T11:16:13.000Z</time>
      </trkpt>
      <trkpt lat="47.83039" lon="16.25962">
        <ele>294.360342</ele>
        <time>2026-07-07T11:16:14.000Z</time>
      </trkpt>
      <trkpt lat="47.83036" lon="16.25967">
        <ele>294.411741</ele>
        <time>2026-07-07T11:16:15.000Z</time>
      </trkpt>
      <trkpt lat="47.83032" lon="16.25972">
        <ele>294.462074</ele>
        <time>2026-07-07T11:16:16.000Z</time>
      </trkpt>
      <trkpt lat="47.83029" lon="16.25976">
        <ele>294.510182</ele>
        <time>2026-07-07T11:16:17.000Z</time>
      </trkpt>
      <trkpt lat="47.83026" lon="16.2598">
        <ele>294.559532</ele>
        <time>2026-07-07T11:16:18.000Z</time>
      </trkpt>
      <trkpt lat="47.83022" lon="16.25985">
        <ele>294.608619</ele>
        <time>2026-07-07T11:16:19.000Z</time>
      </trkpt>
      <trkpt lat="47.83019" lon="16.25989">
        <ele>294.656621</ele>
        <time>2026-07-07T11:16:20.000Z</time>
      </trkpt>
      <trkpt lat="47.83015" lon="16.25992">
        <ele>294.707868</ele>
        <time>2026-07-07T11:16:21.000Z</time>
      </trkpt>
      <trkpt lat="47.83011" lon="16.25996">
        <ele>294.754718</ele>
        <time>2026-07-07T11:16:22.000Z</time>
      </trkpt>
      <trkpt lat="47.83008" lon="16.25999">
        <ele>294.800234</ele>
        <time>2026-07-07T11:16:23.000Z</time>
      </trkpt>
      <trkpt lat="47.83004" lon="16.26">
        <ele>294.83948</ele>
        <time>2026-07-07T11:16:24.000Z</time>
      </trkpt>
      <trkpt lat="47.83002" lon="16.25997">
        <ele>294.875523</ele>
        <time>2026-07-07T11:16:25.000Z</time>
      </trkpt>
      <trkpt lat="47.83" lon="16.25993">
        <ele>294.913228</ele>
        <time>2026-07-07T11:16:26.000Z</time>
      </trkpt>
      <trkpt lat="47.82998" lon="16.25988">
        <ele>294.950358</ele>
        <time>2026-07-07T11:16:27.000Z</time>
      </trkpt>
      <trkpt lat="47.82996" lon="16.25984">
        <ele>294.988672</ele>
        <time>2026-07-07T11:16:28.000Z</time>
      </trkpt>
      <trkpt lat="47.82994" lon="16.25981">
        <ele>295.022752</ele>
        <time>2026-07-07T11:16:29.000Z</time>
      </trkpt>
      <trkpt lat="47.82991" lon="16.25979">
        <ele>295.05599</ele>
        <time>2026-07-07T11:16:30.000Z</time>
      </trkpt>
      <trkpt lat="47.82988" lon="16.25979">
        <ele>295.087246</ele>
        <time>2026-07-07T11:16:31.000Z</time>
      </trkpt>
      <trkpt lat="47.82986" lon="16.25979">
        <ele>295.117254</ele>
        <time>2026-07-07T11:16:32.000Z</time>
      </trkpt>
      <trkpt lat="47.82984" lon="16.2598">
        <ele>295.132135</ele>
        <time>2026-07-07T11:16:33.000Z</time>
      </trkpt>
      <trkpt lat="47.82984" lon="16.2598">
        <ele>295.136811</ele>
        <time>2026-07-07T11:16:34.000Z</time>
      </trkpt>
      <trkpt lat="47.82977" lon="16.25984">
        <ele>295.221209</ele>
        <time>2026-07-07T11:17:07.000Z</time>
      </trkpt>
      <trkpt lat="47.82974" lon="16.25985">
        <ele>295.249715</ele>
        <time>2026-07-07T11:17:08.000Z</time>
      </trkpt>
      <trkpt lat="47.82971" lon="16.25984">
        <ele>295.282707</ele>
        <time>2026-07-07T11:17:09.000Z</time>
      </trkpt>
      <trkpt lat="47.82969" lon="16.25981">
        <ele>295.313642</ele>
        <time>2026-07-07T11:17:10.000Z</time>
      </trkpt>
      <trkpt lat="47.82968" lon="16.25977">
        <ele>295.346442</ele>
        <time>2026-07-07T11:17:11.000Z</time>
      </trkpt>
      <trkpt lat="47.82967" lon="16.25973">
        <ele>295.376811</ele>
        <time>2026-07-07T11:17:12.000Z</time>
      </trkpt>
      <trkpt lat="47.82966" lon="16.2597">
        <ele>295.405113</ele>
        <time>2026-07-07T11:17:13.000Z</time>
      </trkpt>
      <trkpt lat="47.82965" lon="16.25966">
        <ele>295.436873</ele>
        <time>2026-07-07T11:17:14.000Z</time>
      </trkpt>
      <trkpt lat="47.82964" lon="16.25962">
        <ele>295.471285</ele>
        <time>2026-07-07T11:17:15.000Z</time>
      </trkpt>
      <trkpt lat="47.82962" lon="16.25957">
        <ele>295.506374</ele>
        <time>2026-07-07T11:17:16.000Z</time>
      </trkpt>
      <trkpt lat="47.8296" lon="16.25953">
        <ele>295.547196</ele>
        <time>2026-07-07T11:17:17.000Z</time>
      </trkpt>
      <trkpt lat="47.82959" lon="16.25948">
        <ele>295.58841</ele>
        <time>2026-07-07T11:17:18.000Z</time>
      </trkpt>
      <trkpt lat="47.82957" lon="16.25942">
        <ele>295.630522</ele>
        <time>2026-07-07T11:17:19.000Z</time>
      </trkpt>
      <trkpt lat="47.82956" lon="16.25937">
        <ele>295.671519</ele>
        <time>2026-07-07T11:17:20.000Z</time>
      </trkpt>
      <trkpt lat="47.82954" lon="16.25932">
        <ele>295.713079</ele>
        <time>2026-07-07T11:17:21.000Z</time>
      </trkpt>
      <trkpt lat="47.82952" lon="16.25927">
        <ele>295.755294</ele>
        <time>2026-07-07T11:17:22.000Z</time>
      </trkpt>
      <trkpt lat="47.82951" lon="16.25922">
        <ele>295.797662</ele>
        <time>2026-07-07T11:17:23.000Z</time>
      </trkpt>
      <trkpt lat="47.82949" lon="16.25917">
        <ele>295.826171</ele>
        <time>2026-07-07T11:17:24.000Z</time>
      </trkpt>
      <trkpt lat="47.82947" lon="16.25912">
        <ele>295.843467</ele>
        <time>2026-07-07T11:17:25.000Z</time>
      </trkpt>
      <trkpt lat="47.82946" lon="16.25907">
        <ele>295.861528</ele>
        <time>2026-07-07T11:17:26.000Z</time>
      </trkpt>
      <trkpt lat="47.82944" lon="16.25902">
        <ele>295.87903</ele>
        <time>2026-07-07T11:17:27.000Z</time>
      </trkpt>
      <trkpt lat="47.82942" lon="16.25897">
        <ele>295.894999</ele>
        <time>2026-07-07T11:17:28.000Z</time>
      </trkpt>
      <trkpt lat="47.82941" lon="16.25893">
        <ele>295.910297</ele>
        <time>2026-07-07T11:17:29.000Z</time>
      </trkpt>
      <trkpt lat="47.8294" lon="16.25889">
        <ele>295.924739</ele>
        <time>2026-07-07T11:17:30.000Z</time>
      </trkpt>
      <trkpt lat="47.82938" lon="16.25885">
        <ele>295.938825</ele>
        <time>2026-07-07T11:17:31.000Z</time>
      </trkpt>
      <trkpt lat="47.82937" lon="16.25881">
        <ele>295.951866</ele>
        <time>2026-07-07T11:17:32.000Z</time>
      </trkpt>
      <trkpt lat="47.82936" lon="16.25877">
        <ele>295.964979</ele>
        <time>2026-07-07T11:17:33.000Z</time>
      </trkpt>
      <trkpt lat="47.82935" lon="16.25873">
        <ele>295.977615</ele>
        <time>2026-07-07T11:17:34.000Z</time>
      </trkpt>
      <trkpt lat="47.82934" lon="16.2587">
        <ele>295.989335</ele>
        <time>2026-07-07T11:17:35.000Z</time>
      </trkpt>
      <trkpt lat="47.82932" lon="16.25867">
        <ele>295.999966</ele>
        <time>2026-07-07T11:17:36.000Z</time>
      </trkpt>
      <trkpt lat="47.82931" lon="16.25865">
        <ele>296.008342</ele>
        <time>2026-07-07T11:17:37.000Z</time>
      </trkpt>
      <trkpt lat="47.8293" lon="16.25864">
        <ele>296.013005</ele>
        <time>2026-07-07T11:17:38.000Z</time>
      </trkpt>
      <trkpt lat="47.8293" lon="16.25865">
        <ele>296.015413</ele>
        <time>2026-07-07T11:17:39.000Z</time>
      </trkpt>
      <trkpt lat="47.82927" lon="16.25857">
        <ele>296.042638</ele>
        <time>2026-07-07T11:19:33.000Z</time>
      </trkpt>
      <trkpt lat="47.82926" lon="16.25855">
        <ele>296.051097</ele>
        <time>2026-07-07T11:19:34.000Z</time>
      </trkpt>
      <trkpt lat="47.82925" lon="16.25852">
        <ele>296.059242</ele>
        <time>2026-07-07T11:19:35.000Z</time>
      </trkpt>
      <trkpt lat="47.82925" lon="16.25849">
        <ele>296.069322</ele>
        <time>2026-07-07T11:19:36.000Z</time>
      </trkpt>
      <trkpt lat="47.82923" lon="16.25846">
        <ele>296.07996</ele>
        <time>2026-07-07T11:19:37.000Z</time>
      </trkpt>
      <trkpt lat="47.82922" lon="16.25843">
        <ele>296.091908</ele>
        <time>2026-07-07T11:19:38.000Z</time>
      </trkpt>
      <trkpt lat="47.82921" lon="16.2584">
        <ele>296.104181</ele>
        <time>2026-07-07T11:19:39.000Z</time>
      </trkpt>
      <trkpt lat="47.8292" lon="16.25836">
        <ele>296.117103</ele>
        <time>2026-07-07T11:19:40.000Z</time>
      </trkpt>
      <trkpt lat="47.82918" lon="16.25832">
        <ele>296.130913</ele>
        <time>2026-07-07T11:19:41.000Z</time>
      </trkpt>
      <trkpt lat="47.82917" lon="16.25828">
        <ele>296.14492</ele>
        <time>2026-07-07T11:19:42.000Z</time>
      </trkpt>
      <trkpt lat="47.82915" lon="16.25824">
        <ele>296.15918</ele>
        <time>2026-07-07T11:19:43.000Z</time>
      </trkpt>
      <trkpt lat="47.82913" lon="16.2582">
        <ele>296.1737</ele>
        <time>2026-07-07T11:19:44.000Z</time>
      </trkpt>
      <trkpt lat="47.82912" lon="16.25816">
        <ele>296.188008</ele>
        <time>2026-07-07T11:19:45.000Z</time>
      </trkpt>
      <trkpt lat="47.8291" lon="16.25812">
        <ele>296.202817</ele>
        <time>2026-07-07T11:19:46.000Z</time>
      </trkpt>
      <trkpt lat="47.82908" lon="16.25808">
        <ele>296.218118</ele>
        <time>2026-07-07T11:19:47.000Z</time>
      </trkpt>
      <trkpt lat="47.82907" lon="16.25804">
        <ele>296.232974</ele>
        <time>2026-07-07T11:19:48.000Z</time>
      </trkpt>
      <trkpt lat="47.82905" lon="16.258">
        <ele>296.248106</ele>
        <time>2026-07-07T11:19:49.000Z</time>
      </trkpt>
      <trkpt lat="47.82904" lon="16.25795">
        <ele>296.263979</ele>
        <time>2026-07-07T11:19:50.000Z</time>
      </trkpt>
      <trkpt lat="47.82903" lon="16.2579">
        <ele>296.28023</ele>
        <time>2026-07-07T11:19:51.000Z</time>
      </trkpt>
      <trkpt lat="47.82901" lon="16.25786">
        <ele>296.295278</ele>
        <time>2026-07-07T11:19:52.000Z</time>
      </trkpt>
      <trkpt lat="47.82899" lon="16.25782">
        <ele>296.310316</ele>
        <time>2026-07-07T11:19:53.000Z</time>
      </trkpt>
      <trkpt lat="47.82897" lon="16.25778">
        <ele>296.326405</ele>
        <time>2026-07-07T11:19:54.000Z</time>
      </trkpt>
      <trkpt lat="47.82896" lon="16.25774">
        <ele>296.341988</ele>
        <time>2026-07-07T11:19:55.000Z</time>
      </trkpt>
      <trkpt lat="47.82894" lon="16.25769">
        <ele>296.358113</ele>
        <time>2026-07-07T11:19:56.000Z</time>
      </trkpt>
      <trkpt lat="47.82892" lon="16.25764">
        <ele>296.37501</ele>
        <time>2026-07-07T11:19:57.000Z</time>
      </trkpt>
      <trkpt lat="47.8289" lon="16.2576">
        <ele>296.392393</ele>
        <time>2026-07-07T11:19:58.000Z</time>
      </trkpt>
      <trkpt lat="47.82888" lon="16.25755">
        <ele>296.409507</ele>
        <time>2026-07-07T11:19:59.000Z</time>
      </trkpt>
      <trkpt lat="47.82886" lon="16.25751">
        <ele>296.426359</ele>
        <time>2026-07-07T11:20:00.000Z</time>
      </trkpt>
      <trkpt lat="47.82884" lon="16.25746">
        <ele>296.443212</ele>
        <time>2026-07-07T11:20:01.000Z</time>
      </trkpt>
      <trkpt lat="47.82882" lon="16.25742">
        <ele>296.460094</ele>
        <time>2026-07-07T11:20:02.000Z</time>
      </trkpt>
      <trkpt lat="47.82879" lon="16.25738">
        <ele>296.476977</ele>
        <time>2026-07-07T11:20:03.000Z</time>
      </trkpt>
      <trkpt lat="47.82877" lon="16.25734">
        <ele>296.493057</ele>
        <time>2026-07-07T11:20:04.000Z</time>
      </trkpt>
      <trkpt lat="47.82875" lon="16.25729">
        <ele>296.509137</ele>
        <time>2026-07-07T11:20:05.000Z</time>
      </trkpt>
      <trkpt lat="47.82874" lon="16.25726">
        <ele>296.523659</ele>
        <time>2026-07-07T11:20:06.000Z</time>
      </trkpt>
      <trkpt lat="47.82872" lon="16.25722">
        <ele>296.537928</ele>
        <time>2026-07-07T11:20:07.000Z</time>
      </trkpt>
      <trkpt lat="47.8287" lon="16.25718">
        <ele>296.551418</ele>
        <time>2026-07-07T11:20:08.000Z</time>
      </trkpt>
      <trkpt lat="47.82868" lon="16.25715">
        <ele>296.565678</ele>
        <time>2026-07-07T11:20:09.000Z</time>
      </trkpt>
      <trkpt lat="47.82867" lon="16.25711">
        <ele>296.579947</ele>
        <time>2026-07-07T11:20:10.000Z</time>
      </trkpt>
      <trkpt lat="47.82865" lon="16.25707">
        <ele>296.593178</ele>
        <time>2026-07-07T11:20:11.000Z</time>
      </trkpt>
      <trkpt lat="47.82863" lon="16.25704">
        <ele>296.607178</ele>
        <time>2026-07-07T11:20:12.000Z</time>
      </trkpt>
      <trkpt lat="47.82862" lon="16.257">
        <ele>296.620401</ele>
        <time>2026-07-07T11:20:13.000Z</time>
      </trkpt>
      <trkpt lat="47.8286" lon="16.25697">
        <ele>296.633741</ele>
        <time>2026-07-07T11:20:14.000Z</time>
      </trkpt>
      <trkpt lat="47.82858" lon="16.25694">
        <ele>296.646186</ele>
        <time>2026-07-07T11:20:15.000Z</time>
      </trkpt>
      <trkpt lat="47.82857" lon="16.2569">
        <ele>296.650365</ele>
        <time>2026-07-07T11:20:16.000Z</time>
      </trkpt>
      <trkpt lat="47.82856" lon="16.25687">
        <ele>296.646655</ele>
        <time>2026-07-07T11:20:17.000Z</time>
      </trkpt>
      <trkpt lat="47.82854" lon="16.25684">
        <ele>296.643031</ele>
        <time>2026-07-07T11:20:18.000Z</time>
      </trkpt>
      <trkpt lat="47.82853" lon="16.25681">
        <ele>296.63933</ele>
        <time>2026-07-07T11:20:19.000Z</time>
      </trkpt>
      <trkpt lat="47.82851" lon="16.25677">
        <ele>296.635298</ele>
        <time>2026-07-07T11:20:20.000Z</time>
      </trkpt>
      <trkpt lat="47.82849" lon="16.25674">
        <ele>296.630881</ele>
        <time>2026-07-07T11:20:21.000Z</time>
      </trkpt>
      <trkpt lat="47.82847" lon="16.2567">
        <ele>296.626466</ele>
        <time>2026-07-07T11:20:22.000Z</time>
      </trkpt>
      <trkpt lat="47.82844" lon="16.25666">
        <ele>296.621368</ele>
        <time>2026-07-07T11:20:23.000Z</time>
      </trkpt>
      <trkpt lat="47.82843" lon="16.25664">
        <ele>296.618227</ele>
        <time>2026-07-07T11:20:24.000Z</time>
      </trkpt>
      <trkpt lat="47.82841" lon="16.2566">
        <ele>296.613723</ele>
        <time>2026-07-07T11:20:25.000Z</time>
      </trkpt>
      <trkpt lat="47.82839" lon="16.25657">
        <ele>296.609364</ele>
        <time>2026-07-07T11:20:26.000Z</time>
      </trkpt>
      <trkpt lat="47.82837" lon="16.25653">
        <ele>296.605006</ele>
        <time>2026-07-07T11:20:27.000Z</time>
      </trkpt>
      <trkpt lat="47.82835" lon="16.2565">
        <ele>296.600929</ele>
        <time>2026-07-07T11:20:28.000Z</time>
      </trkpt>
      <trkpt lat="47.82833" lon="16.25647">
        <ele>296.59692</ele>
        <time>2026-07-07T11:20:29.000Z</time>
      </trkpt>
      <trkpt lat="47.82831" lon="16.25644">
        <ele>296.592633</ele>
        <time>2026-07-07T11:20:30.000Z</time>
      </trkpt>
      <trkpt lat="47.82829" lon="16.2564">
        <ele>296.588291</ele>
        <time>2026-07-07T11:20:31.000Z</time>
      </trkpt>
      <trkpt lat="47.82827" lon="16.25636">
        <ele>296.583637</ele>
        <time>2026-07-07T11:20:32.000Z</time>
      </trkpt>
      <trkpt lat="47.82825" lon="16.25633">
        <ele>296.579227</ele>
        <time>2026-07-07T11:20:33.000Z</time>
      </trkpt>
      <trkpt lat="47.82823" lon="16.25629">
        <ele>296.574648</ele>
        <time>2026-07-07T11:20:34.000Z</time>
      </trkpt>
      <trkpt lat="47.82821" lon="16.25625">
        <ele>296.570542</ele>
        <time>2026-07-07T11:20:35.000Z</time>
      </trkpt>
      <trkpt lat="47.8282" lon="16.25622">
        <ele>296.566446</ele>
        <time>2026-07-07T11:20:36.000Z</time>
      </trkpt>
      <trkpt lat="47.82818" lon="16.25619">
        <ele>296.562666</ele>
        <time>2026-07-07T11:20:37.000Z</time>
      </trkpt>
      <trkpt lat="47.82816" lon="16.25615">
        <ele>296.558797</ele>
        <time>2026-07-07T11:20:38.000Z</time>
      </trkpt>
      <trkpt lat="47.82815" lon="16.25613">
        <ele>296.555789</ele>
        <time>2026-07-07T11:20:39.000Z</time>
      </trkpt>
      <trkpt lat="47.82815" lon="16.2561">
        <ele>296.553449</ele>
        <time>2026-07-07T11:20:40.000Z</time>
      </trkpt>
      <trkpt lat="47.82814" lon="16.25608">
        <ele>296.551247</ele>
        <time>2026-07-07T11:20:41.000Z</time>
      </trkpt>
      <trkpt lat="47.82814" lon="16.25607">
        <ele>296.550014</ele>
        <time>2026-07-07T11:20:42.000Z</time>
      </trkpt>
      <trkpt lat="47.82814" lon="16.25606">
        <ele>296.549462</ele>
        <time>2026-07-07T11:20:43.000Z</time>
      </trkpt>
      <trkpt lat="47.82814" lon="16.25606">
        <ele>296.548894</ele>
        <time>2026-07-07T11:20:44.000Z</time>
      </trkpt>
      <trkpt lat="47.8282" lon="16.25596">
        <ele>296.536998</ele>
        <time>2026-07-07T11:20:48.000Z</time>
      </trkpt>
      <trkpt lat="47.82821" lon="16.25593">
        <ele>296.533303</ele>
        <time>2026-07-07T11:20:49.000Z</time>
      </trkpt>
      <trkpt lat="47.82821" lon="16.2559">
        <ele>296.530256</ele>
        <time>2026-07-07T11:20:50.000Z</time>
      </trkpt>
      <trkpt lat="47.82821" lon="16.25587">
        <ele>296.527567</ele>
        <time>2026-07-07T11:20:51.000Z</time>
      </trkpt>
      <trkpt lat="47.8282" lon="16.25585">
        <ele>296.525859</ele>
        <time>2026-07-07T11:20:52.000Z</time>
      </trkpt>
      <trkpt lat="47.8282" lon="16.25584">
        <ele>296.525071</ele>
        <time>2026-07-07T11:20:53.000Z</time>
      </trkpt>
      <trkpt lat="47.82816" lon="16.25576">
        <ele>296.515279</ele>
        <time>2026-07-07T11:21:03.000Z</time>
      </trkpt>
      <trkpt lat="47.82814" lon="16.25574">
        <ele>296.511769</ele>
        <time>2026-07-07T11:21:04.000Z</time>
      </trkpt>
      <trkpt lat="47.82813" lon="16.2557">
        <ele>296.508068</ele>
        <time>2026-07-07T11:21:05.000Z</time>
      </trkpt>
      <trkpt lat="47.82811" lon="16.25567">
        <ele>296.504024</ele>
        <time>2026-07-07T11:21:06.000Z</time>
      </trkpt>
      <trkpt lat="47.8281" lon="16.25563">
        <ele>296.499693</ele>
        <time>2026-07-07T11:21:07.000Z</time>
      </trkpt>
      <trkpt lat="47.82807" lon="16.25559">
        <ele>296.495147</ele>
        <time>2026-07-07T11:21:08.000Z</time>
      </trkpt>
      <trkpt lat="47.82805" lon="16.25556">
        <ele>296.490169</ele>
        <time>2026-07-07T11:21:09.000Z</time>
      </trkpt>
      <trkpt lat="47.82803" lon="16.25552">
        <ele>296.485175</ele>
        <time>2026-07-07T11:21:10.000Z</time>
      </trkpt>
      <trkpt lat="47.828" lon="16.25547">
        <ele>296.479812</ele>
        <time>2026-07-07T11:21:11.000Z</time>
      </trkpt>
      <trkpt lat="47.82798" lon="16.25542">
        <ele>296.474212</ele>
        <time>2026-07-07T11:21:12.000Z</time>
      </trkpt>
      <trkpt lat="47.82796" lon="16.25538">
        <ele>296.469015</ele>
        <time>2026-07-07T11:21:13.000Z</time>
      </trkpt>
      <trkpt lat="47.82794" lon="16.25533">
        <ele>296.463736</ele>
        <time>2026-07-07T11:21:14.000Z</time>
      </trkpt>
      <trkpt lat="47.82791" lon="16.25529">
        <ele>296.458759</ele>
        <time>2026-07-07T11:21:15.000Z</time>
      </trkpt>
      <trkpt lat="47.8279" lon="16.25525">
        <ele>296.454034</ele>
        <time>2026-07-07T11:21:16.000Z</time>
      </trkpt>
      <trkpt lat="47.82788" lon="16.25521">
        <ele>296.449704</ele>
        <time>2026-07-07T11:21:17.000Z</time>
      </trkpt>
      <trkpt lat="47.82786" lon="16.25518">
        <ele>296.445605</ele>
        <time>2026-07-07T11:21:18.000Z</time>
      </trkpt>
      <trkpt lat="47.82785" lon="16.25514">
        <ele>296.441272</ele>
        <time>2026-07-07T11:21:19.000Z</time>
      </trkpt>
      <trkpt lat="47.82783" lon="16.2551">
        <ele>296.437479</ele>
        <time>2026-07-07T11:21:20.000Z</time>
      </trkpt>
      <trkpt lat="47.82782" lon="16.25507">
        <ele>296.433784</ele>
        <time>2026-07-07T11:21:21.000Z</time>
      </trkpt>
      <trkpt lat="47.82781" lon="16.25503">
        <ele>296.430002</ele>
        <time>2026-07-07T11:21:22.000Z</time>
      </trkpt>
      <trkpt lat="47.8278" lon="16.255">
        <ele>296.426712</ele>
        <time>2026-07-07T11:21:23.000Z</time>
      </trkpt>
      <trkpt lat="47.8278" lon="16.25497">
        <ele>296.424</ele>
        <time>2026-07-07T11:21:24.000Z</time>
      </trkpt>
      <trkpt lat="47.82779" lon="16.25496">
        <ele>296.422496</ele>
        <time>2026-07-07T11:21:25.000Z</time>
      </trkpt>
      <trkpt lat="47.82779" lon="16.25496">
        <ele>296.422198</ele>
        <time>2026-07-07T11:21:26.000Z</time>
      </trkpt>
      <trkpt lat="47.82777" lon="16.25485">
        <ele>296.411809</ele>
        <time>2026-07-07T11:42:34.000Z</time>
      </trkpt>
      <trkpt lat="47.82776" lon="16.25483">
        <ele>296.409289</ele>
        <time>2026-07-07T11:42:35.000Z</time>
      </trkpt>
      <trkpt lat="47.82775" lon="16.25481">
        <ele>296.40653</ele>
        <time>2026-07-07T11:42:36.000Z</time>
      </trkpt>
      <trkpt lat="47.82774" lon="16.25478">
        <ele>296.403218</ele>
        <time>2026-07-07T11:42:37.000Z</time>
      </trkpt>
      <trkpt lat="47.82772" lon="16.25475">
        <ele>296.400068</ele>
        <time>2026-07-07T11:42:38.000Z</time>
      </trkpt>
      <trkpt lat="47.82771" lon="16.25472">
        <ele>296.398352</ele>
        <time>2026-07-07T11:42:39.000Z</time>
      </trkpt>
      <trkpt lat="47.8277" lon="16.2547">
        <ele>296.398646</ele>
        <time>2026-07-07T11:42:40.000Z</time>
      </trkpt>
      <trkpt lat="47.82768" lon="16.25467">
        <ele>296.398991</ele>
        <time>2026-07-07T11:42:41.000Z</time>
      </trkpt>
      <trkpt lat="47.82767" lon="16.25464">
        <ele>296.399378</ele>
        <time>2026-07-07T11:42:42.000Z</time>
      </trkpt>
      <trkpt lat="47.82765" lon="16.2546">
        <ele>296.399796</ele>
        <time>2026-07-07T11:42:43.000Z</time>
      </trkpt>
      <trkpt lat="47.82763" lon="16.25456">
        <ele>296.400246</ele>
        <time>2026-07-07T11:42:44.000Z</time>
      </trkpt>
      <trkpt lat="47.82761" lon="16.25452">
        <ele>296.400721</ele>
        <time>2026-07-07T11:42:45.000Z</time>
      </trkpt>
      <trkpt lat="47.82759" lon="16.25448">
        <ele>296.401179</ele>
        <time>2026-07-07T11:42:46.000Z</time>
      </trkpt>
      <trkpt lat="47.82757" lon="16.25444">
        <ele>296.401661</ele>
        <time>2026-07-07T11:42:47.000Z</time>
      </trkpt>
      <trkpt lat="47.82755" lon="16.2544">
        <ele>296.402182</ele>
        <time>2026-07-07T11:42:48.000Z</time>
      </trkpt>
      <trkpt lat="47.82753" lon="16.25435">
        <ele>296.40272</ele>
        <time>2026-07-07T11:42:49.000Z</time>
      </trkpt>
      <trkpt lat="47.8275" lon="16.25431">
        <ele>296.403267</ele>
        <time>2026-07-07T11:42:50.000Z</time>
      </trkpt>
      <trkpt lat="47.82748" lon="16.25427">
        <ele>296.40379</ele>
        <time>2026-07-07T11:42:51.000Z</time>
      </trkpt>
      <trkpt lat="47.82746" lon="16.25422">
        <ele>296.404343</ele>
        <time>2026-07-07T11:42:52.000Z</time>
      </trkpt>
      <trkpt lat="47.82744" lon="16.25418">
        <ele>296.404857</ele>
        <time>2026-07-07T11:42:53.000Z</time>
      </trkpt>
      <trkpt lat="47.82741" lon="16.25413">
        <ele>296.405364</ele>
        <time>2026-07-07T11:42:54.000Z</time>
      </trkpt>
      <trkpt lat="47.82739" lon="16.25409">
        <ele>296.405847</ele>
        <time>2026-07-07T11:42:55.000Z</time>
      </trkpt>
      <trkpt lat="47.82737" lon="16.25406">
        <ele>296.406306</ele>
        <time>2026-07-07T11:42:56.000Z</time>
      </trkpt>
      <trkpt lat="47.82735" lon="16.25402">
        <ele>296.406758</ele>
        <time>2026-07-07T11:42:57.000Z</time>
      </trkpt>
      <trkpt lat="47.82733" lon="16.25398">
        <ele>296.407208</ele>
        <time>2026-07-07T11:42:58.000Z</time>
      </trkpt>
      <trkpt lat="47.82732" lon="16.25394">
        <ele>296.40765</ele>
        <time>2026-07-07T11:42:59.000Z</time>
      </trkpt>
      <trkpt lat="47.8273" lon="16.2539">
        <ele>296.408117</ele>
        <time>2026-07-07T11:43:00.000Z</time>
      </trkpt>
      <trkpt lat="47.82728" lon="16.25387">
        <ele>296.408576</ele>
        <time>2026-07-07T11:43:01.000Z</time>
      </trkpt>
      <trkpt lat="47.82726" lon="16.25383">
        <ele>296.409013</ele>
        <time>2026-07-07T11:43:02.000Z</time>
      </trkpt>
      <trkpt lat="47.82723" lon="16.25379">
        <ele>296.409484</ele>
        <time>2026-07-07T11:43:03.000Z</time>
      </trkpt>
      <trkpt lat="47.82721" lon="16.25376">
        <ele>296.409928</ele>
        <time>2026-07-07T11:43:04.000Z</time>
      </trkpt>
      <trkpt lat="47.82719" lon="16.25372">
        <ele>296.410365</ele>
        <time>2026-07-07T11:43:05.000Z</time>
      </trkpt>
      <trkpt lat="47.82717" lon="16.25369">
        <ele>296.410817</ele>
        <time>2026-07-07T11:43:06.000Z</time>
      </trkpt>
      <trkpt lat="47.82715" lon="16.25365">
        <ele>296.411263</ele>
        <time>2026-07-07T11:43:07.000Z</time>
      </trkpt>
      <trkpt lat="47.82713" lon="16.25362">
        <ele>296.411719</ele>
        <time>2026-07-07T11:43:08.000Z</time>
      </trkpt>
      <trkpt lat="47.82711" lon="16.25358">
        <ele>296.412189</ele>
        <time>2026-07-07T11:43:09.000Z</time>
      </trkpt>
      <trkpt lat="47.82709" lon="16.25354">
        <ele>296.412643</ele>
        <time>2026-07-07T11:43:10.000Z</time>
      </trkpt>
      <trkpt lat="47.82707" lon="16.25351">
        <ele>296.413095</ele>
        <time>2026-07-07T11:43:11.000Z</time>
      </trkpt>
      <trkpt lat="47.82705" lon="16.25347">
        <ele>296.413532</ele>
        <time>2026-07-07T11:43:12.000Z</time>
      </trkpt>
      <trkpt lat="47.82703" lon="16.25344">
        <ele>296.413969</ele>
        <time>2026-07-07T11:43:13.000Z</time>
      </trkpt>
      <trkpt lat="47.82701" lon="16.2534">
        <ele>296.414375</ele>
        <time>2026-07-07T11:43:14.000Z</time>
      </trkpt>
      <trkpt lat="47.82699" lon="16.25337">
        <ele>296.414762</ele>
        <time>2026-07-07T11:43:15.000Z</time>
      </trkpt>
      <trkpt lat="47.82697" lon="16.25334">
        <ele>296.41519</ele>
        <time>2026-07-07T11:43:16.000Z</time>
      </trkpt>
      <trkpt lat="47.82696" lon="16.2533">
        <ele>296.41561</ele>
        <time>2026-07-07T11:43:17.000Z</time>
      </trkpt>
      <trkpt lat="47.82694" lon="16.25327">
        <ele>296.416029</ele>
        <time>2026-07-07T11:43:18.000Z</time>
      </trkpt>
      <trkpt lat="47.82692" lon="16.25323">
        <ele>296.416457</ele>
        <time>2026-07-07T11:43:19.000Z</time>
      </trkpt>
      <trkpt lat="47.8269" lon="16.2532">
        <ele>296.416861</ele>
        <time>2026-07-07T11:43:20.000Z</time>
      </trkpt>
      <trkpt lat="47.82688" lon="16.25317">
        <ele>296.417258</ele>
        <time>2026-07-07T11:43:21.000Z</time>
      </trkpt>
      <trkpt lat="47.82686" lon="16.25313">
        <ele>296.417672</ele>
        <time>2026-07-07T11:43:22.000Z</time>
      </trkpt>
      <trkpt lat="47.82685" lon="16.2531">
        <ele>296.418069</ele>
        <time>2026-07-07T11:43:23.000Z</time>
      </trkpt>
      <trkpt lat="47.82683" lon="16.25307">
        <ele>296.418473</ele>
        <time>2026-07-07T11:43:24.000Z</time>
      </trkpt>
      <trkpt lat="47.82681" lon="16.25304">
        <ele>296.418879</ele>
        <time>2026-07-07T11:43:25.000Z</time>
      </trkpt>
      <trkpt lat="47.82679" lon="16.253">
        <ele>296.419276</ele>
        <time>2026-07-07T11:43:26.000Z</time>
      </trkpt>
      <trkpt lat="47.82677" lon="16.25297">
        <ele>296.419657</ele>
        <time>2026-07-07T11:43:27.000Z</time>
      </trkpt>
      <trkpt lat="47.82676" lon="16.25294">
        <ele>296.420005</ele>
        <time>2026-07-07T11:43:28.000Z</time>
      </trkpt>
      <trkpt lat="47.82675" lon="16.25292">
        <ele>296.420291</ele>
        <time>2026-07-07T11:43:29.000Z</time>
      </trkpt>
      <trkpt lat="47.82673" lon="16.2529">
        <ele>296.420577</ele>
        <time>2026-07-07T11:43:30.000Z</time>
      </trkpt>
      <trkpt lat="47.82672" lon="16.25287">
        <ele>296.420943</ele>
        <time>2026-07-07T11:43:31.000Z</time>
      </trkpt>
      <trkpt lat="47.8267" lon="16.25284">
        <ele>296.421302</ele>
        <time>2026-07-07T11:43:32.000Z</time>
      </trkpt>
      <trkpt lat="47.82668" lon="16.25281">
        <ele>296.421699</ele>
        <time>2026-07-07T11:43:33.000Z</time>
      </trkpt>
      <trkpt lat="47.82666" lon="16.25278">
        <ele>296.422104</ele>
        <time>2026-07-07T11:43:34.000Z</time>
      </trkpt>
      <trkpt lat="47.82665" lon="16.25274">
        <ele>296.42253</ele>
        <time>2026-07-07T11:43:35.000Z</time>
      </trkpt>
      <trkpt lat="47.82663" lon="16.25271">
        <ele>296.422926</ele>
        <time>2026-07-07T11:43:36.000Z</time>
      </trkpt>
      <trkpt lat="47.82661" lon="16.25267">
        <ele>296.423328</ele>
        <time>2026-07-07T11:43:37.000Z</time>
      </trkpt>
      <trkpt lat="47.8266" lon="16.25264">
        <ele>296.423725</ele>
        <time>2026-07-07T11:43:38.000Z</time>
      </trkpt>
      <trkpt lat="47.82658" lon="16.2526">
        <ele>296.424165</ele>
        <time>2026-07-07T11:43:39.000Z</time>
      </trkpt>
      <trkpt lat="47.82657" lon="16.25257">
        <ele>296.424616</ele>
        <time>2026-07-07T11:43:40.000Z</time>
      </trkpt>
      <trkpt lat="47.82655" lon="16.25254">
        <ele>296.425061</ele>
        <time>2026-07-07T11:43:41.000Z</time>
      </trkpt>
      <trkpt lat="47.82653" lon="16.25252">
        <ele>296.42551</ele>
        <time>2026-07-07T11:43:42.000Z</time>
      </trkpt>
      <trkpt lat="47.82651" lon="16.25249">
        <ele>296.425924</ele>
        <time>2026-07-07T11:43:43.000Z</time>
      </trkpt>
      <trkpt lat="47.8265" lon="16.25246">
        <ele>296.426309</ele>
        <time>2026-07-07T11:43:44.000Z</time>
      </trkpt>
      <trkpt lat="47.82649" lon="16.25243">
        <ele>296.426683</ele>
        <time>2026-07-07T11:43:45.000Z</time>
      </trkpt>
      <trkpt lat="47.82647" lon="16.25241">
        <ele>296.42703</ele>
        <time>2026-07-07T11:43:46.000Z</time>
      </trkpt>
      <trkpt lat="47.82646" lon="16.25238">
        <ele>296.427413</ele>
        <time>2026-07-07T11:43:47.000Z</time>
      </trkpt>
      <trkpt lat="47.82645" lon="16.25235">
        <ele>296.427788</ele>
        <time>2026-07-07T11:43:48.000Z</time>
      </trkpt>
      <trkpt lat="47.82643" lon="16.25232">
        <ele>296.428261</ele>
        <time>2026-07-07T11:43:49.000Z</time>
      </trkpt>
      <trkpt lat="47.82641" lon="16.25229">
        <ele>296.42877</ele>
        <time>2026-07-07T11:43:50.000Z</time>
      </trkpt>
      <trkpt lat="47.82639" lon="16.25226">
        <ele>296.429232</ele>
        <time>2026-07-07T11:43:51.000Z</time>
      </trkpt>
      <trkpt lat="47.82637" lon="16.25222">
        <ele>296.42972</ele>
        <time>2026-07-07T11:43:52.000Z</time>
      </trkpt>
      <trkpt lat="47.82636" lon="16.25219">
        <ele>296.430163</ele>
        <time>2026-07-07T11:43:53.000Z</time>
      </trkpt>
      <trkpt lat="47.82634" lon="16.25217">
        <ele>296.430567</ele>
        <time>2026-07-07T11:43:54.000Z</time>
      </trkpt>
      <trkpt lat="47.82633" lon="16.25214">
        <ele>296.430945</ele>
        <time>2026-07-07T11:43:55.000Z</time>
      </trkpt>
      <trkpt lat="47.82631" lon="16.25212">
        <ele>296.431301</ele>
        <time>2026-07-07T11:43:56.000Z</time>
      </trkpt>
      <trkpt lat="47.8263" lon="16.25209">
        <ele>296.431651</ele>
        <time>2026-07-07T11:43:57.000Z</time>
      </trkpt>
      <trkpt lat="47.82629" lon="16.25207">
        <ele>296.431923</ele>
        <time>2026-07-07T11:43:58.000Z</time>
      </trkpt>
      <trkpt lat="47.82628" lon="16.25206">
        <ele>296.432101</ele>
        <time>2026-07-07T11:43:59.000Z</time>
      </trkpt>
      <trkpt lat="47.82628" lon="16.25206">
        <ele>296.432188</ele>
        <time>2026-07-07T11:44:00.000Z</time>
      </trkpt>
      <trkpt lat="47.82626" lon="16.25202">
        <ele>296.432638</ele>
        <time>2026-07-07T11:44:05.000Z</time>
      </trkpt>
      <trkpt lat="47.82624" lon="16.25199">
        <ele>296.433114</ele>
        <time>2026-07-07T11:44:06.000Z</time>
      </trkpt>
      <trkpt lat="47.82622" lon="16.25196">
        <ele>296.433658</ele>
        <time>2026-07-07T11:44:07.000Z</time>
      </trkpt>
      <trkpt lat="47.8262" lon="16.25192">
        <ele>296.434207</ele>
        <time>2026-07-07T11:44:08.000Z</time>
      </trkpt>
      <trkpt lat="47.82618" lon="16.25189">
        <ele>296.434775</ele>
        <time>2026-07-07T11:44:09.000Z</time>
      </trkpt>
      <trkpt lat="47.82615" lon="16.25185">
        <ele>296.435344</ele>
        <time>2026-07-07T11:44:10.000Z</time>
      </trkpt>
      <trkpt lat="47.82613" lon="16.25181">
        <ele>296.435892</ele>
        <time>2026-07-07T11:44:11.000Z</time>
      </trkpt>
      <trkpt lat="47.82611" lon="16.25177">
        <ele>296.436508</ele>
        <time>2026-07-07T11:44:12.000Z</time>
      </trkpt>
      <trkpt lat="47.82608" lon="16.25174">
        <ele>296.4371</ele>
        <time>2026-07-07T11:44:13.000Z</time>
      </trkpt>
      <trkpt lat="47.82606" lon="16.2517">
        <ele>296.437668</ele>
        <time>2026-07-07T11:44:14.000Z</time>
      </trkpt>
      <trkpt lat="47.82604" lon="16.25166">
        <ele>296.438234</ele>
        <time>2026-07-07T11:44:15.000Z</time>
      </trkpt>
      <trkpt lat="47.82601" lon="16.25162">
        <ele>296.438827</ele>
        <time>2026-07-07T11:44:16.000Z</time>
      </trkpt>
      <trkpt lat="47.82599" lon="16.25158">
        <ele>296.439384</ele>
        <time>2026-07-07T11:44:17.000Z</time>
      </trkpt>
      <trkpt lat="47.82597" lon="16.25155">
        <ele>296.439929</ele>
        <time>2026-07-07T11:44:18.000Z</time>
      </trkpt>
      <trkpt lat="47.82595" lon="16.25151">
        <ele>296.440494</ele>
        <time>2026-07-07T11:44:19.000Z</time>
      </trkpt>
      <trkpt lat="47.82593" lon="16.25147">
        <ele>296.441105</ele>
        <time>2026-07-07T11:44:20.000Z</time>
      </trkpt>
      <trkpt lat="47.8259" lon="16.25143">
        <ele>296.441721</ele>
        <time>2026-07-07T11:44:21.000Z</time>
      </trkpt>
      <trkpt lat="47.82588" lon="16.25138">
        <ele>296.442341</ele>
        <time>2026-07-07T11:44:22.000Z</time>
      </trkpt>
      <trkpt lat="47.82585" lon="16.25134">
        <ele>296.442962</ele>
        <time>2026-07-07T11:44:23.000Z</time>
      </trkpt>
      <trkpt lat="47.82583" lon="16.2513">
        <ele>296.443603</ele>
        <time>2026-07-07T11:44:24.000Z</time>
      </trkpt>
      <trkpt lat="47.8258" lon="16.25125">
        <ele>296.444273</ele>
        <time>2026-07-07T11:44:25.000Z</time>
      </trkpt>
      <trkpt lat="47.82578" lon="16.25121">
        <ele>296.444944</ele>
        <time>2026-07-07T11:44:26.000Z</time>
      </trkpt>
      <trkpt lat="47.82575" lon="16.25117">
        <ele>296.44562</ele>
        <time>2026-07-07T11:44:27.000Z</time>
      </trkpt>
      <trkpt lat="47.82572" lon="16.25112">
        <ele>296.446319</ele>
        <time>2026-07-07T11:44:28.000Z</time>
      </trkpt>
      <trkpt lat="47.82569" lon="16.25108">
        <ele>296.447035</ele>
        <time>2026-07-07T11:44:29.000Z</time>
      </trkpt>
      <trkpt lat="47.82565" lon="16.25104">
        <ele>296.447771</ele>
        <time>2026-07-07T11:44:30.000Z</time>
      </trkpt>
      <trkpt lat="47.82562" lon="16.251">
        <ele>296.448487</ele>
        <time>2026-07-07T11:44:31.000Z</time>
      </trkpt>
      <trkpt lat="47.82559" lon="16.25096">
        <ele>296.449201</ele>
        <time>2026-07-07T11:44:32.000Z</time>
      </trkpt>
      <trkpt lat="47.82555" lon="16.25092">
        <ele>296.449928</ele>
        <time>2026-07-07T11:44:33.000Z</time>
      </trkpt>
      <trkpt lat="47.82552" lon="16.25088">
        <ele>296.450664</ele>
        <time>2026-07-07T11:44:34.000Z</time>
      </trkpt>
      <trkpt lat="47.82548" lon="16.25085">
        <ele>296.4514</ele>
        <time>2026-07-07T11:44:35.000Z</time>
      </trkpt>
      <trkpt lat="47.82544" lon="16.25081">
        <ele>296.452122</ele>
        <time>2026-07-07T11:44:36.000Z</time>
      </trkpt>
      <trkpt lat="47.82541" lon="16.25078">
        <ele>296.452842</ele>
        <time>2026-07-07T11:44:37.000Z</time>
      </trkpt>
      <trkpt lat="47.82538" lon="16.25074">
        <ele>296.453522</ele>
        <time>2026-07-07T11:44:38.000Z</time>
      </trkpt>
      <trkpt lat="47.82534" lon="16.2507">
        <ele>296.458604</ele>
        <time>2026-07-07T11:44:39.000Z</time>
      </trkpt>
      <trkpt lat="47.82532" lon="16.25066">
        <ele>296.468839</ele>
        <time>2026-07-07T11:44:40.000Z</time>
      </trkpt>
      <trkpt lat="47.8253" lon="16.25062">
        <ele>296.478397</ele>
        <time>2026-07-07T11:44:41.000Z</time>
      </trkpt>
      <trkpt lat="47.82529" lon="16.25057">
        <ele>296.487299</ele>
        <time>2026-07-07T11:44:42.000Z</time>
      </trkpt>
      <trkpt lat="47.82528" lon="16.25052">
        <ele>296.496078</ele>
        <time>2026-07-07T11:44:43.000Z</time>
      </trkpt>
      <trkpt lat="47.82528" lon="16.25048">
        <ele>296.503735</ele>
        <time>2026-07-07T11:44:44.000Z</time>
      </trkpt>
      <trkpt lat="47.82527" lon="16.25044">
        <ele>296.510898</ele>
        <time>2026-07-07T11:44:45.000Z</time>
      </trkpt>
      <trkpt lat="47.82527" lon="16.2504">
        <ele>296.517147</ele>
        <time>2026-07-07T11:44:46.000Z</time>
      </trkpt>
      <trkpt lat="47.82527" lon="16.25037">
        <ele>296.52287</ele>
        <time>2026-07-07T11:44:47.000Z</time>
      </trkpt>
      <trkpt lat="47.82526" lon="16.25034">
        <ele>296.528287</ele>
        <time>2026-07-07T11:44:48.000Z</time>
      </trkpt>
      <trkpt lat="47.82526" lon="16.25032">
        <ele>296.532437</ele>
        <time>2026-07-07T11:44:49.000Z</time>
      </trkpt>
      <trkpt lat="47.82526" lon="16.2503">
        <ele>296.535669</ele>
        <time>2026-07-07T11:44:50.000Z</time>
      </trkpt>
      <trkpt lat="47.82526" lon="16.25029">
        <ele>296.536909</ele>
        <time>2026-07-07T11:44:51.000Z</time>
      </trkpt>
      <trkpt lat="47.82526" lon="16.25029">
        <ele>296.53735</ele>
        <time>2026-07-07T11:44:52.000Z</time>
      </trkpt>
      <trkpt lat="47.82524" lon="16.25027">
        <ele>296.543291</ele>
        <time>2026-07-07T11:45:04.000Z</time>
      </trkpt>
      <trkpt lat="47.82523" lon="16.25026">
        <ele>296.545739</ele>
        <time>2026-07-07T11:45:05.000Z</time>
      </trkpt>
      <trkpt lat="47.82522" lon="16.25026">
        <ele>296.54834</ele>
        <time>2026-07-07T11:45:06.000Z</time>
      </trkpt>
      <trkpt lat="47.82522" lon="16.25025">
        <ele>296.550151</ele>
        <time>2026-07-07T11:45:07.000Z</time>
      </trkpt>
      <trkpt lat="47.82521" lon="16.25025">
        <ele>296.551516</ele>
        <time>2026-07-07T11:45:08.000Z</time>
      </trkpt>
      <trkpt lat="47.82521" lon="16.25024">
        <ele>296.553105</ele>
        <time>2026-07-07T11:45:09.000Z</time>
      </trkpt>
      <trkpt lat="47.82521" lon="16.25025">
        <ele>296.553861</ele>
        <time>2026-07-07T11:45:10.000Z</time>
      </trkpt>
      <trkpt lat="47.82521" lon="16.25025">
        <ele>296.554303</ele>
        <time>2026-07-07T11:46:48.000Z</time>
      </trkpt>
      <trkpt lat="47.82521" lon="16.25025">
        <ele>296.555334</ele>
        <time>2026-07-07T11:46:49.000Z</time>
      </trkpt>
      <trkpt lat="47.82522" lon="16.25026">
        <ele>296.557558</ele>
        <time>2026-07-07T11:46:50.000Z</time>
      </trkpt>
      <trkpt lat="47.82523" lon="16.25028">
        <ele>296.563159</ele>
        <time>2026-07-07T11:46:53.000Z</time>
      </trkpt>
      <trkpt lat="47.82524" lon="16.25029">
        <ele>296.565486</ele>
        <time>2026-07-07T11:46:54.000Z</time>
      </trkpt>
      <trkpt lat="47.82524" lon="16.2503">
        <ele>296.567075</ele>
        <time>2026-07-07T11:46:55.000Z</time>
      </trkpt>
      <trkpt lat="47.82524" lon="16.2503">
        <ele>296.567429</ele>
        <time>2026-07-07T11:46:56.000Z</time>
      </trkpt>
      <trkpt lat="47.82525" lon="16.2503">
        <ele>296.56824</ele>
        <time>2026-07-07T11:46:57.000Z</time>
      </trkpt>
      <trkpt lat="47.82528" lon="16.25031">
        <ele>296.577292</ele>
        <time>2026-07-07T11:47:07.000Z</time>
      </trkpt>
      <trkpt lat="47.82529" lon="16.25032">
        <ele>296.579214</ele>
        <time>2026-07-07T11:47:08.000Z</time>
      </trkpt>
      <trkpt lat="47.82529" lon="16.25032">
        <ele>296.581756</ele>
        <time>2026-07-07T11:47:09.000Z</time>
      </trkpt>
      <trkpt lat="47.82531" lon="16.25034">
        <ele>296.586306</ele>
        <time>2026-07-07T11:47:10.000Z</time>
      </trkpt>
      <trkpt lat="47.82532" lon="16.25035">
        <ele>296.589562</ele>
        <time>2026-07-07T11:47:11.000Z</time>
      </trkpt>
      <trkpt lat="47.82532" lon="16.25036">
        <ele>296.59151</ele>
        <time>2026-07-07T11:47:12.000Z</time>
      </trkpt>
      <trkpt lat="47.82532" lon="16.25037">
        <ele>296.593189</ele>
        <time>2026-07-07T11:47:13.000Z</time>
      </trkpt>
      <trkpt lat="47.82532" lon="16.25035">
        <ele>296.598001</ele>
        <time>2026-07-07T11:47:14.000Z</time>
      </trkpt>
      <trkpt lat="47.82532" lon="16.25033">
        <ele>296.601058</ele>
        <time>2026-07-07T11:47:15.000Z</time>
      </trkpt>
      <trkpt lat="47.82532" lon="16.25032">
        <ele>296.602997</ele>
        <time>2026-07-07T11:47:16.000Z</time>
      </trkpt>
      <trkpt lat="47.82529" lon="16.25033">
        <ele>296.610337</ele>
        <time>2026-07-07T11:47:17.000Z</time>
      </trkpt>
      <trkpt lat="47.82543" lon="16.25024">
        <ele>296.64883</ele>
        <time>2026-07-07T11:48:27.000Z</time>
      </trkpt>
      <trkpt lat="47.82543" lon="16.25024">
        <ele>296.649621</ele>
        <time>2026-07-07T11:48:28.000Z</time>
      </trkpt>
      <trkpt lat="47.82544" lon="16.25024">
        <ele>296.651468</ele>
        <time>2026-07-07T11:48:29.000Z</time>
      </trkpt>
      <trkpt lat="47.82544" lon="16.25024">
        <ele>296.653051</ele>
        <time>2026-07-07T11:48:30.000Z</time>
      </trkpt>
      <trkpt lat="47.82545" lon="16.25024">
        <ele>296.654897</ele>
        <time>2026-07-07T11:48:31.000Z</time>
      </trkpt>
      <trkpt lat="47.82545" lon="16.25024">
        <ele>296.654897</ele>
        <time>2026-07-07T11:56:26.000Z</time>
      </trkpt>
      <trkpt lat="47.82545" lon="16.25024">
        <ele>296.654897</ele>
        <time>2026-07-07T11:56:29.000Z</time>
      </trkpt>
      <trkpt lat="47.82545" lon="16.25024">
        <ele>296.654897</ele>
        <time>2026-07-07T11:56:36.000Z</time>
      </trkpt>
      <trkpt lat="47.82545" lon="16.25024">
        <ele>296.654897</ele>
        <time>2026-07-07T12:03:04.000Z</time>
      </trkpt>
      <trkpt lat="47.82545" lon="16.25024">
        <ele>296.654897</ele>
        <time>2026-07-07T12:03:07.000Z</time>
      </trkpt>
      <trkpt lat="47.82545" lon="16.25024">
        <ele>296.654897</ele>
        <time>2026-07-07T12:03:14.000Z</time>
      </trkpt>
      <trkpt lat="47.82517" lon="16.25026">
        <ele>296.728058</ele>
        <time>2026-07-07T12:20:00.000Z</time>
      </trkpt>
      <trkpt lat="47.82516" lon="16.25025">
        <ele>296.732728</ele>
        <time>2026-07-07T12:20:01.000Z</time>
      </trkpt>
      <trkpt lat="47.82514" lon="16.25023">
        <ele>296.737495</ele>
        <time>2026-07-07T12:20:02.000Z</time>
      </trkpt>
      <trkpt lat="47.82513" lon="16.25022">
        <ele>296.741833</ele>
        <time>2026-07-07T12:20:03.000Z</time>
      </trkpt>
      <trkpt lat="47.82511" lon="16.25021">
        <ele>296.746663</ele>
        <time>2026-07-07T12:20:04.000Z</time>
      </trkpt>
      <trkpt lat="47.8251" lon="16.25021">
        <ele>296.750761</ele>
        <time>2026-07-07T12:20:05.000Z</time>
      </trkpt>
      <trkpt lat="47.82508" lon="16.25021">
        <ele>296.755249</ele>
        <time>2026-07-07T12:20:06.000Z</time>
      </trkpt>
      <trkpt lat="47.82506" lon="16.25022">
        <ele>296.760317</ele>
        <time>2026-07-07T12:20:07.000Z</time>
      </trkpt>
      <trkpt lat="47.82504" lon="16.25022">
        <ele>296.766121</ele>
        <time>2026-07-07T12:20:08.000Z</time>
      </trkpt>
      <trkpt lat="47.82502" lon="16.25021">
        <ele>296.772253</ele>
        <time>2026-07-07T12:20:09.000Z</time>
      </trkpt>
      <trkpt lat="47.82499" lon="16.25021">
        <ele>296.778869</ele>
        <time>2026-07-07T12:20:10.000Z</time>
      </trkpt>
      <trkpt lat="47.82497" lon="16.25021">
        <ele>296.785262</ele>
        <time>2026-07-07T12:20:11.000Z</time>
      </trkpt>
      <trkpt lat="47.82494" lon="16.2502">
        <ele>296.791867</ele>
        <time>2026-07-07T12:20:12.000Z</time>
      </trkpt>
      <trkpt lat="47.82492" lon="16.25021">
        <ele>296.797945</ele>
        <time>2026-07-07T12:20:13.000Z</time>
      </trkpt>
      <trkpt lat="47.8249" lon="16.25021">
        <ele>296.804013</ele>
        <time>2026-07-07T12:20:14.000Z</time>
      </trkpt>
      <trkpt lat="47.82487" lon="16.2502">
        <ele>296.810629</ele>
        <time>2026-07-07T12:20:15.000Z</time>
      </trkpt>
      <trkpt lat="47.82485" lon="16.25019">
        <ele>296.817969</ele>
        <time>2026-07-07T12:20:16.000Z</time>
      </trkpt>
      <trkpt lat="47.82482" lon="16.25017">
        <ele>296.825847</ele>
        <time>2026-07-07T12:20:17.000Z</time>
      </trkpt>
      <trkpt lat="47.8248" lon="16.25015">
        <ele>296.833464</ele>
        <time>2026-07-07T12:20:18.000Z</time>
      </trkpt>
      <trkpt lat="47.82477" lon="16.25012">
        <ele>296.841611</ele>
        <time>2026-07-07T12:20:19.000Z</time>
      </trkpt>
      <trkpt lat="47.82475" lon="16.25009">
        <ele>296.849131</ele>
        <time>2026-07-07T12:20:20.000Z</time>
      </trkpt>
      <trkpt lat="47.82473" lon="16.25007">
        <ele>296.856567</ele>
        <time>2026-07-07T12:20:21.000Z</time>
      </trkpt>
      <trkpt lat="47.8247" lon="16.25004">
        <ele>296.864832</ele>
        <time>2026-07-07T12:20:22.000Z</time>
      </trkpt>
      <trkpt lat="47.82468" lon="16.25001">
        <ele>296.873084</ele>
        <time>2026-07-07T12:20:23.000Z</time>
      </trkpt>
      <trkpt lat="47.82466" lon="16.24998">
        <ele>296.88081</ele>
        <time>2026-07-07T12:20:24.000Z</time>
      </trkpt>
      <trkpt lat="47.82463" lon="16.24995">
        <ele>296.888646</ele>
        <time>2026-07-07T12:20:25.000Z</time>
      </trkpt>
      <trkpt lat="47.82461" lon="16.24992">
        <ele>296.896799</ele>
        <time>2026-07-07T12:20:26.000Z</time>
      </trkpt>
      <trkpt lat="47.82459" lon="16.2499">
        <ele>296.904235</ele>
        <time>2026-07-07T12:20:27.000Z</time>
      </trkpt>
      <trkpt lat="47.82457" lon="16.24987">
        <ele>296.911755</ele>
        <time>2026-07-07T12:20:28.000Z</time>
      </trkpt>
      <trkpt lat="47.82454" lon="16.24984">
        <ele>296.919164</ele>
        <time>2026-07-07T12:20:29.000Z</time>
      </trkpt>
      <trkpt lat="47.82452" lon="16.24982">
        <ele>296.925723</ele>
        <time>2026-07-07T12:20:30.000Z</time>
      </trkpt>
      <trkpt lat="47.8245" lon="16.24981">
        <ele>296.933626</ele>
        <time>2026-07-07T12:20:31.000Z</time>
      </trkpt>
      <trkpt lat="47.82449" lon="16.24982">
        <ele>296.940673</ele>
        <time>2026-07-07T12:20:32.000Z</time>
      </trkpt>
      <trkpt lat="47.82448" lon="16.24984">
        <ele>296.945238</ele>
        <time>2026-07-07T12:20:33.000Z</time>
      </trkpt>
      <trkpt lat="47.82448" lon="16.24984">
        <ele>296.946828</ele>
        <time>2026-07-07T12:20:34.000Z</time>
      </trkpt>
      <trkpt lat="47.82443" lon="16.24992">
        <ele>296.981421</ele>
        <time>2026-07-07T12:20:44.000Z</time>
      </trkpt>
      <trkpt lat="47.82442" lon="16.24995">
        <ele>296.991545</ele>
        <time>2026-07-07T12:20:45.000Z</time>
      </trkpt>
      <trkpt lat="47.82441" lon="16.24998">
        <ele>297.00065</ele>
        <time>2026-07-07T12:20:46.000Z</time>
      </trkpt>
      <trkpt lat="47.82442" lon="16.25001">
        <ele>297.011256</ele>
        <time>2026-07-07T12:20:47.000Z</time>
      </trkpt>
      <trkpt lat="47.82443" lon="16.25005">
        <ele>297.024167</ele>
        <time>2026-07-07T12:20:48.000Z</time>
      </trkpt>
      <trkpt lat="47.82445" lon="16.25008">
        <ele>297.038452</ele>
        <time>2026-07-07T12:20:49.000Z</time>
      </trkpt>
      <trkpt lat="47.82448" lon="16.25011">
        <ele>297.053384</ele>
        <time>2026-07-07T12:20:50.000Z</time>
      </trkpt>
      <trkpt lat="47.82451" lon="16.25013">
        <ele>297.066883</ele>
        <time>2026-07-07T12:20:51.000Z</time>
      </trkpt>
      <trkpt lat="47.82453" lon="16.25016">
        <ele>297.079082</ele>
        <time>2026-07-07T12:20:52.000Z</time>
      </trkpt>
      <trkpt lat="47.82455" lon="16.25018">
        <ele>297.091284</ele>
        <time>2026-07-07T12:20:53.000Z</time>
      </trkpt>
      <trkpt lat="47.82457" lon="16.25021">
        <ele>297.102563</ele>
        <time>2026-07-07T12:20:54.000Z</time>
      </trkpt>
      <trkpt lat="47.82458" lon="16.25023">
        <ele>297.112177</ele>
        <time>2026-07-07T12:20:55.000Z</time>
      </trkpt>
      <trkpt lat="47.82458" lon="16.25025">
        <ele>297.117833</ele>
        <time>2026-07-07T12:20:56.000Z</time>
      </trkpt>
      <trkpt lat="47.82458" lon="16.25025">
        <ele>297.118853</ele>
        <time>2026-07-07T12:20:57.000Z</time>
      </trkpt>
      <trkpt lat="47.82458" lon="16.25026">
        <ele>297.119463</ele>
        <time>2026-07-07T12:20:58.000Z</time>
      </trkpt>
      <trkpt lat="47.82456" lon="16.25025">
        <ele>297.129013</ele>
        <time>2026-07-07T12:21:10.000Z</time>
      </trkpt>
      <trkpt lat="47.82456" lon="16.25026">
        <ele>297.132128</ele>
        <time>2026-07-07T12:21:11.000Z</time>
      </trkpt>
      <trkpt lat="47.82455" lon="16.25026">
        <ele>297.135363</ele>
        <time>2026-07-07T12:21:12.000Z</time>
      </trkpt>
      <trkpt lat="47.82455" lon="16.25027">
        <ele>297.13941</ele>
        <time>2026-07-07T12:21:13.000Z</time>
      </trkpt>
      <trkpt lat="47.82454" lon="16.25028">
        <ele>297.143237</ele>
        <time>2026-07-07T12:21:14.000Z</time>
      </trkpt>
      <trkpt lat="47.82453" lon="16.25029">
        <ele>297.146696</ele>
        <time>2026-07-07T12:21:15.000Z</time>
      </trkpt>
      <trkpt lat="47.82453" lon="16.25029">
        <ele>297.148537</ele>
        <time>2026-07-07T12:21:16.000Z</time>
      </trkpt>
      <trkpt lat="47.82452" lon="16.25029">
        <ele>297.152475</ele>
        <time>2026-07-07T12:21:17.000Z</time>
      </trkpt>
      <trkpt lat="47.82452" lon="16.2503">
        <ele>297.154793</ele>
        <time>2026-07-07T12:21:18.000Z</time>
      </trkpt>
      <trkpt lat="47.82452" lon="16.2503">
        <ele>297.155886</ele>
        <time>2026-07-07T12:21:19.000Z</time>
      </trkpt>
      <trkpt lat="47.82452" lon="16.2503">
        <ele>297.156844</ele>
        <time>2026-07-07T12:21:20.000Z</time>
      </trkpt>
      <trkpt lat="47.82449" lon="16.25034">
        <ele>297.174177</ele>
        <time>2026-07-07T12:21:42.000Z</time>
      </trkpt>
      <trkpt lat="47.8245" lon="16.25035">
        <ele>297.180201</ele>
        <time>2026-07-07T12:21:43.000Z</time>
      </trkpt>
      <trkpt lat="47.82452" lon="16.25036">
        <ele>297.185782</ele>
        <time>2026-07-07T12:21:44.000Z</time>
      </trkpt>
      <trkpt lat="47.82452" lon="16.25035">
        <ele>297.188515</ele>
        <time>2026-07-07T12:21:45.000Z</time>
      </trkpt>
      <trkpt lat="47.82452" lon="16.25035">
        <ele>297.191046</ele>
        <time>2026-07-07T12:21:46.000Z</time>
      </trkpt>
      <trkpt lat="47.82452" lon="16.25034">
        <ele>297.191655</ele>
        <time>2026-07-07T12:21:47.000Z</time>
      </trkpt>
      <trkpt lat="47.82453" lon="16.25034">
        <ele>297.192563</ele>
        <time>2026-07-07T12:21:48.000Z</time>
      </trkpt>
      <trkpt lat="47.82454" lon="16.25029">
        <ele>297.208461</ele>
        <time>2026-07-07T12:22:38.000Z</time>
      </trkpt>
      <trkpt lat="47.82454" lon="16.25029">
        <ele>297.208765</ele>
        <time>2026-07-07T12:22:39.000Z</time>
      </trkpt>
      <trkpt lat="47.82454" lon="16.25029">
        <ele>297.209859</ele>
        <time>2026-07-07T12:22:40.000Z</time>
      </trkpt>
      <trkpt lat="47.82454" lon="16.25029">
        <ele>297.210879</ele>
        <time>2026-07-07T12:22:41.000Z</time>
      </trkpt>
      <trkpt lat="47.82454" lon="16.25029">
        <ele>297.210879</ele>
        <time>2026-07-07T12:28:12.000Z</time>
      </trkpt>
      <trkpt lat="47.82454" lon="16.25029">
        <ele>297.210879</ele>
        <time>2026-07-07T12:28:19.000Z</time>
      </trkpt>
      <trkpt lat="47.82454" lon="16.25029">
        <ele>297.210879</ele>
        <time>2026-07-07T12:32:55.000Z</time>
      </trkpt>
      <trkpt lat="47.82454" lon="16.25029">
        <ele>297.210879</ele>
        <time>2026-07-07T12:32:56.000Z</time>
      </trkpt>
      <trkpt lat="47.82454" lon="16.25029">
        <ele>297.210879</ele>
        <time>2026-07-07T12:32:57.000Z</time>
      </trkpt>
      <trkpt lat="47.82454" lon="16.25029">
        <ele>297.210879</ele>
        <time>2026-07-07T12:32:59.000Z</time>
      </trkpt>
      <trkpt lat="47.82454" lon="16.25029">
        <ele>297.210879</ele>
        <time>2026-07-07T12:33:01.000Z</time>
      </trkpt>
      <trkpt lat="47.82456" lon="16.25089">
        <ele>297.394829</ele>
        <time>2026-07-07T12:33:03.000Z</time>
      </trkpt>
      <trkpt lat="47.82455" lon="16.25083">
        <ele>297.413253</ele>
        <time>2026-07-07T12:33:05.000Z</time>
      </trkpt>
      <trkpt lat="47.82453" lon="16.25084">
        <ele>297.42588</ele>
        <time>2026-07-07T12:33:06.000Z</time>
      </trkpt>
      <trkpt lat="47.82452" lon="16.25084">
        <ele>297.429404</ele>
        <time>2026-07-07T12:33:07.000Z</time>
      </trkpt>
      <trkpt lat="47.82451" lon="16.2508">
        <ele>297.440995</ele>
        <time>2026-07-07T12:33:08.000Z</time>
      </trkpt>
      <trkpt lat="47.8246" lon="16.25035">
        <ele>297.585156</ele>
        <time>2026-07-07T12:33:09.000Z</time>
      </trkpt>
      <trkpt lat="47.8246" lon="16.25022">
        <ele>297.624936</ele>
        <time>2026-07-07T12:33:10.000Z</time>
      </trkpt>
      <trkpt lat="47.82463" lon="16.25019">
        <ele>297.638273</ele>
        <time>2026-07-07T12:33:17.000Z</time>
      </trkpt>
      <trkpt lat="47.82462" lon="16.2502">
        <ele>297.64236</ele>
        <time>2026-07-07T12:33:18.000Z</time>
      </trkpt>
      <trkpt lat="47.82462" lon="16.25023">
        <ele>297.651464</ele>
        <time>2026-07-07T12:33:19.000Z</time>
      </trkpt>
      <trkpt lat="47.82461" lon="16.25023">
        <ele>297.653814</ele>
        <time>2026-07-07T12:33:20.000Z</time>
      </trkpt>
      <trkpt lat="47.82461" lon="16.25023">
        <ele>297.654771</ele>
        <time>2026-07-07T12:33:21.000Z</time>
      </trkpt>
      <trkpt lat="47.8246" lon="16.25023">
        <ele>297.659528</ele>
        <time>2026-07-07T12:33:22.000Z</time>
      </trkpt>
      <trkpt lat="47.82459" lon="16.25021">
        <ele>297.666297</ele>
        <time>2026-07-07T12:33:23.000Z</time>
      </trkpt>
      <trkpt lat="47.8246" lon="16.25022">
        <ele>297.67067</ele>
        <time>2026-07-07T12:33:24.000Z</time>
      </trkpt>
      <trkpt lat="47.8246" lon="16.25022">
        <ele>297.672032</ele>
        <time>2026-07-07T12:33:25.000Z</time>
      </trkpt>
      <trkpt lat="47.8246" lon="16.25022">
        <ele>297.675152</ele>
        <time>2026-07-07T12:33:26.000Z</time>
      </trkpt>
      <trkpt lat="47.8246" lon="16.25022">
        <ele>297.67611</ele>
        <time>2026-07-07T12:33:27.000Z</time>
      </trkpt>
      <trkpt lat="47.82461" lon="16.25025">
        <ele>297.687025</ele>
        <time>2026-07-07T12:33:28.000Z</time>
      </trkpt>
      <trkpt lat="47.82461" lon="16.25026">
        <ele>297.689463</ele>
        <time>2026-07-07T12:33:29.000Z</time>
      </trkpt>
      <trkpt lat="47.82455" lon="16.25026">
        <ele>297.718058</ele>
        <time>2026-07-07T12:33:33.000Z</time>
      </trkpt>
      <trkpt lat="47.82453" lon="16.25026">
        <ele>297.726873</ele>
        <time>2026-07-07T12:33:34.000Z</time>
      </trkpt>
      <trkpt lat="47.82452" lon="16.25027">
        <ele>297.731902</ele>
        <time>2026-07-07T12:33:35.000Z</time>
      </trkpt>
      <trkpt lat="47.82452" lon="16.25029">
        <ele>297.738147</ele>
        <time>2026-07-07T12:33:36.000Z</time>
      </trkpt>
      <trkpt lat="47.82452" lon="16.2503">
        <ele>297.742718</ele>
        <time>2026-07-07T12:33:37.000Z</time>
      </trkpt>
      <trkpt lat="47.82452" lon="16.25031">
        <ele>297.744427</ele>
        <time>2026-07-07T12:33:38.000Z</time>
      </trkpt>
      <trkpt lat="47.82452" lon="16.25032">
        <ele>297.743918</ele>
        <time>2026-07-07T12:33:39.000Z</time>
      </trkpt>
      <trkpt lat="47.82452" lon="16.25032">
        <ele>297.743496</ele>
        <time>2026-07-07T12:33:40.000Z</time>
      </trkpt>
      <trkpt lat="47.8245" lon="16.25026">
        <ele>297.738504</ele>
        <time>2026-07-07T12:36:16.000Z</time>
      </trkpt>
      <trkpt lat="47.82451" lon="16.25025">
        <ele>297.737503</ele>
        <time>2026-07-07T12:36:17.000Z</time>
      </trkpt>
      <trkpt lat="47.82452" lon="16.25024">
        <ele>297.736461</ele>
        <time>2026-07-07T12:36:18.000Z</time>
      </trkpt>
      <trkpt lat="47.82452" lon="16.25024">
        <ele>297.735621</ele>
        <time>2026-07-07T12:36:19.000Z</time>
      </trkpt>
      <trkpt lat="47.82453" lon="16.25023">
        <ele>297.734878</ele>
        <time>2026-07-07T12:36:20.000Z</time>
      </trkpt>
      <trkpt lat="47.82454" lon="16.25023">
        <ele>297.73409</ele>
        <time>2026-07-07T12:36:21.000Z</time>
      </trkpt>
      <trkpt lat="47.82454" lon="16.25023">
        <ele>297.733319</ele>
        <time>2026-07-07T12:36:22.000Z</time>
      </trkpt>
      <trkpt lat="47.82455" lon="16.25023">
        <ele>297.732669</ele>
        <time>2026-07-07T12:36:23.000Z</time>
      </trkpt>
      <trkpt lat="47.82455" lon="16.25023">
        <ele>297.732086</ele>
        <time>2026-07-07T12:36:24.000Z</time>
      </trkpt>
      <trkpt lat="47.82457" lon="16.25024">
        <ele>297.730407</ele>
        <time>2026-07-07T12:36:26.000Z</time>
      </trkpt>
      <trkpt lat="47.82457" lon="16.25024">
        <ele>297.730276</ele>
        <time>2026-07-07T12:36:28.000Z</time>
      </trkpt>
      <trkpt lat="47.82461" lon="16.25026">
        <ele>297.725851</ele>
        <time>2026-07-07T12:37:23.000Z</time>
      </trkpt>
      <trkpt lat="47.82462" lon="16.25028">
        <ele>297.724059</ele>
        <time>2026-07-07T12:37:24.000Z</time>
      </trkpt>
      <trkpt lat="47.82463" lon="16.2503">
        <ele>297.722038</ele>
        <time>2026-07-07T12:37:25.000Z</time>
      </trkpt>
      <trkpt lat="47.82465" lon="16.25032">
        <ele>297.71986</ele>
        <time>2026-07-07T12:37:26.000Z</time>
      </trkpt>
      <trkpt lat="47.82466" lon="16.25034">
        <ele>297.717645</ele>
        <time>2026-07-07T12:37:27.000Z</time>
      </trkpt>
      <trkpt lat="47.82468" lon="16.25036">
        <ele>297.715039</ele>
        <time>2026-07-07T12:37:28.000Z</time>
      </trkpt>
      <trkpt lat="47.8247" lon="16.25038">
        <ele>297.712473</ele>
        <time>2026-07-07T12:37:29.000Z</time>
      </trkpt>
      <trkpt lat="47.82472" lon="16.2504">
        <ele>297.709784</ele>
        <time>2026-07-07T12:37:30.000Z</time>
      </trkpt>
      <trkpt lat="47.82474" lon="16.25042">
        <ele>297.707137</ele>
        <time>2026-07-07T12:37:31.000Z</time>
      </trkpt>
      <trkpt lat="47.82477" lon="16.25044">
        <ele>297.704101</ele>
        <time>2026-07-07T12:37:32.000Z</time>
      </trkpt>
      <trkpt lat="47.82479" lon="16.25046">
        <ele>297.701031</ele>
        <time>2026-07-07T12:37:33.000Z</time>
      </trkpt>
      <trkpt lat="47.82482" lon="16.25048">
        <ele>297.697732</ele>
        <time>2026-07-07T12:37:34.000Z</time>
      </trkpt>
      <trkpt lat="47.82484" lon="16.2505">
        <ele>297.694662</ele>
        <time>2026-07-07T12:37:35.000Z</time>
      </trkpt>
      <trkpt lat="47.82487" lon="16.25052">
        <ele>297.6914</ele>
        <time>2026-07-07T12:37:36.000Z</time>
      </trkpt>
      <trkpt lat="47.82489" lon="16.25054">
        <ele>297.688443</ele>
        <time>2026-07-07T12:37:37.000Z</time>
      </trkpt>
      <trkpt lat="47.82492" lon="16.25057">
        <ele>297.685078</ele>
        <time>2026-07-07T12:37:38.000Z</time>
      </trkpt>
      <trkpt lat="47.82495" lon="16.25059">
        <ele>297.681719</ele>
        <time>2026-07-07T12:37:39.000Z</time>
      </trkpt>
      <trkpt lat="47.82498" lon="16.25061">
        <ele>297.67839</ele>
        <time>2026-07-07T12:37:40.000Z</time>
      </trkpt>
      <trkpt lat="47.825" lon="16.25063">
        <ele>297.675133</ele>
        <time>2026-07-07T12:37:41.000Z</time>
      </trkpt>
      <trkpt lat="47.82503" lon="16.25065">
        <ele>297.672028</ele>
        <time>2026-07-07T12:37:42.000Z</time>
      </trkpt>
      <trkpt lat="47.82505" lon="16.25067">
        <ele>297.669183</ele>
        <time>2026-07-07T12:37:43.000Z</time>
      </trkpt>
      <trkpt lat="47.82507" lon="16.25068">
        <ele>297.666487</ele>
        <time>2026-07-07T12:37:44.000Z</time>
      </trkpt>
      <trkpt lat="47.82509" lon="16.25068">
        <ele>297.664518</ele>
        <time>2026-07-07T12:37:45.000Z</time>
      </trkpt>
      <trkpt lat="47.82511" lon="16.25067">
        <ele>297.662541</ele>
        <time>2026-07-07T12:37:46.000Z</time>
      </trkpt>
      <trkpt lat="47.82513" lon="16.25067">
        <ele>297.660581</ele>
        <time>2026-07-07T12:37:47.000Z</time>
      </trkpt>
      <trkpt lat="47.82515" lon="16.25067">
        <ele>297.658132</ele>
        <time>2026-07-07T12:37:48.000Z</time>
      </trkpt>
      <trkpt lat="47.82517" lon="16.25069">
        <ele>297.655096</ele>
        <time>2026-07-07T12:37:49.000Z</time>
      </trkpt>
      <trkpt lat="47.8252" lon="16.25072">
        <ele>297.651838</ele>
        <time>2026-07-07T12:37:50.000Z</time>
      </trkpt>
      <trkpt lat="47.82522" lon="16.25074">
        <ele>297.648451</ele>
        <time>2026-07-07T12:37:51.000Z</time>
      </trkpt>
      <trkpt lat="47.82525" lon="16.25077">
        <ele>297.644659</ele>
        <time>2026-07-07T12:37:52.000Z</time>
      </trkpt>
      <trkpt lat="47.82528" lon="16.2508">
        <ele>297.64075</ele>
        <time>2026-07-07T12:37:53.000Z</time>
      </trkpt>
      <trkpt lat="47.82532" lon="16.25083">
        <ele>297.636581</ele>
        <time>2026-07-07T12:37:54.000Z</time>
      </trkpt>
      <trkpt lat="47.82535" lon="16.25086">
        <ele>297.63236</ele>
        <time>2026-07-07T12:37:55.000Z</time>
      </trkpt>
      <trkpt lat="47.82538" lon="16.2509">
        <ele>297.627889</ele>
        <time>2026-07-07T12:37:56.000Z</time>
      </trkpt>
      <trkpt lat="47.82541" lon="16.25094">
        <ele>297.623534</ele>
        <time>2026-07-07T12:37:57.000Z</time>
      </trkpt>
      <trkpt lat="47.82544" lon="16.25099">
        <ele>297.61897</ele>
        <time>2026-07-07T12:37:58.000Z</time>
      </trkpt>
      <trkpt lat="47.82547" lon="16.25103">
        <ele>297.614558</ele>
        <time>2026-07-07T12:37:59.000Z</time>
      </trkpt>
      <trkpt lat="47.82549" lon="16.25108">
        <ele>297.610065</ele>
        <time>2026-07-07T12:38:00.000Z</time>
      </trkpt>
      <trkpt lat="47.82552" lon="16.25113">
        <ele>297.605502</ele>
        <time>2026-07-07T12:38:01.000Z</time>
      </trkpt>
      <trkpt lat="47.82555" lon="16.25118">
        <ele>297.600841</ele>
        <time>2026-07-07T12:38:02.000Z</time>
      </trkpt>
      <trkpt lat="47.82558" lon="16.25123">
        <ele>297.596223</ele>
        <time>2026-07-07T12:38:03.000Z</time>
      </trkpt>
      <trkpt lat="47.82561" lon="16.25127">
        <ele>297.591513</ele>
        <time>2026-07-07T12:38:04.000Z</time>
      </trkpt>
      <trkpt lat="47.82564" lon="16.25132">
        <ele>297.586856</ele>
        <time>2026-07-07T12:38:05.000Z</time>
      </trkpt>
      <trkpt lat="47.82567" lon="16.25136">
        <ele>297.58225</ele>
        <time>2026-07-07T12:38:06.000Z</time>
      </trkpt>
      <trkpt lat="47.82569" lon="16.25141">
        <ele>297.577847</ele>
        <time>2026-07-07T12:38:07.000Z</time>
      </trkpt>
      <trkpt lat="47.82572" lon="16.25145">
        <ele>297.573343</ele>
        <time>2026-07-07T12:38:08.000Z</time>
      </trkpt>
      <trkpt lat="47.82575" lon="16.25149">
        <ele>297.568839</ele>
        <time>2026-07-07T12:38:09.000Z</time>
      </trkpt>
      <trkpt lat="47.82578" lon="16.25154">
        <ele>297.564456</ele>
        <time>2026-07-07T12:38:10.000Z</time>
      </trkpt>
      <trkpt lat="47.8258" lon="16.25158">
        <ele>297.560686</ele>
        <time>2026-07-07T12:38:11.000Z</time>
      </trkpt>
      <trkpt lat="47.82582" lon="16.25161">
        <ele>297.557529</ele>
        <time>2026-07-07T12:38:12.000Z</time>
      </trkpt>
      <trkpt lat="47.82584" lon="16.25164">
        <ele>297.554607</ele>
        <time>2026-07-07T12:38:13.000Z</time>
      </trkpt>
      <trkpt lat="47.82586" lon="16.25167">
        <ele>297.552061</ele>
        <time>2026-07-07T12:38:14.000Z</time>
      </trkpt>
      <trkpt lat="47.82587" lon="16.25169">
        <ele>297.54772</ele>
        <time>2026-07-07T12:38:15.000Z</time>
      </trkpt>
      <trkpt lat="47.82588" lon="16.25172">
        <ele>297.536099</ele>
        <time>2026-07-07T12:38:16.000Z</time>
      </trkpt>
      <trkpt lat="47.8259" lon="16.25174">
        <ele>297.524572</ele>
        <time>2026-07-07T12:38:17.000Z</time>
      </trkpt>
      <trkpt lat="47.82591" lon="16.25176">
        <ele>297.513705</ele>
        <time>2026-07-07T12:38:18.000Z</time>
      </trkpt>
      <trkpt lat="47.82592" lon="16.25178">
        <ele>297.504145</ele>
        <time>2026-07-07T12:38:19.000Z</time>
      </trkpt>
      <trkpt lat="47.82593" lon="16.25179">
        <ele>297.497384</ele>
        <time>2026-07-07T12:38:20.000Z</time>
      </trkpt>
      <trkpt lat="47.82593" lon="16.2518">
        <ele>297.496618</ele>
        <time>2026-07-07T12:38:21.000Z</time>
      </trkpt>
      <trkpt lat="47.82594" lon="16.25188">
        <ele>297.463665</ele>
        <time>2026-07-07T12:38:37.000Z</time>
      </trkpt>
      <trkpt lat="47.82595" lon="16.25192">
        <ele>297.44766</ele>
        <time>2026-07-07T12:38:38.000Z</time>
      </trkpt>
      <trkpt lat="47.82596" lon="16.25196">
        <ele>297.430173</ele>
        <time>2026-07-07T12:38:39.000Z</time>
      </trkpt>
      <trkpt lat="47.82594" lon="16.25201">
        <ele>297.41232</ele>
        <time>2026-07-07T12:38:40.000Z</time>
      </trkpt>
      <trkpt lat="47.82592" lon="16.25204">
        <ele>297.393452</ele>
        <time>2026-07-07T12:38:41.000Z</time>
      </trkpt>
      <trkpt lat="47.8259" lon="16.25208">
        <ele>297.373013</ele>
        <time>2026-07-07T12:38:42.000Z</time>
      </trkpt>
      <trkpt lat="47.82587" lon="16.25212">
        <ele>297.351122</ele>
        <time>2026-07-07T12:38:43.000Z</time>
      </trkpt>
      <trkpt lat="47.82584" lon="16.25215">
        <ele>297.329123</ele>
        <time>2026-07-07T12:38:44.000Z</time>
      </trkpt>
      <trkpt lat="47.82581" lon="16.25219">
        <ele>297.306386</ele>
        <time>2026-07-07T12:38:45.000Z</time>
      </trkpt>
      <trkpt lat="47.82578" lon="16.25223">
        <ele>297.283898</ele>
        <time>2026-07-07T12:38:46.000Z</time>
      </trkpt>
      <trkpt lat="47.82575" lon="16.25227">
        <ele>297.260765</ele>
        <time>2026-07-07T12:38:47.000Z</time>
      </trkpt>
      <trkpt lat="47.82571" lon="16.25231">
        <ele>297.236662</ele>
        <time>2026-07-07T12:38:48.000Z</time>
      </trkpt>
      <trkpt lat="47.82568" lon="16.25235">
        <ele>297.211371</ele>
        <time>2026-07-07T12:38:49.000Z</time>
      </trkpt>
      <trkpt lat="47.82565" lon="16.2524">
        <ele>297.184717</ele>
        <time>2026-07-07T12:38:50.000Z</time>
      </trkpt>
      <trkpt lat="47.82561" lon="16.25245">
        <ele>297.157808</ele>
        <time>2026-07-07T12:38:51.000Z</time>
      </trkpt>
      <trkpt lat="47.82557" lon="16.25249">
        <ele>297.13004</ele>
        <time>2026-07-07T12:38:52.000Z</time>
      </trkpt>
      <trkpt lat="47.82554" lon="16.25254">
        <ele>297.102872</ele>
        <time>2026-07-07T12:38:53.000Z</time>
      </trkpt>
      <trkpt lat="47.8255" lon="16.25259">
        <ele>297.074236</ele>
        <time>2026-07-07T12:38:54.000Z</time>
      </trkpt>
      <trkpt lat="47.82546" lon="16.25264">
        <ele>297.044852</ele>
        <time>2026-07-07T12:38:55.000Z</time>
      </trkpt>
      <trkpt lat="47.82543" lon="16.25269">
        <ele>297.015899</ele>
        <time>2026-07-07T12:38:56.000Z</time>
      </trkpt>
      <trkpt lat="47.82539" lon="16.25274">
        <ele>296.985832</ele>
        <time>2026-07-07T12:38:57.000Z</time>
      </trkpt>
      <trkpt lat="47.82535" lon="16.25279">
        <ele>296.956013</ele>
        <time>2026-07-07T12:38:58.000Z</time>
      </trkpt>
      <trkpt lat="47.82531" lon="16.25285">
        <ele>296.925696</ele>
        <time>2026-07-07T12:38:59.000Z</time>
      </trkpt>
      <trkpt lat="47.82527" lon="16.2529">
        <ele>296.895877</ele>
        <time>2026-07-07T12:39:00.000Z</time>
      </trkpt>
      <trkpt lat="47.82523" lon="16.25295">
        <ele>296.866058</ele>
        <time>2026-07-07T12:39:01.000Z</time>
      </trkpt>
      <trkpt lat="47.82519" lon="16.253">
        <ele>296.837105</ele>
        <time>2026-07-07T12:39:02.000Z</time>
      </trkpt>
      <trkpt lat="47.82515" lon="16.25305">
        <ele>296.805918</ele>
        <time>2026-07-07T12:39:03.000Z</time>
      </trkpt>
      <trkpt lat="47.8251" lon="16.2531">
        <ele>296.774485</ele>
        <time>2026-07-07T12:39:04.000Z</time>
      </trkpt>
      <trkpt lat="47.82506" lon="16.25316">
        <ele>296.742977</ele>
        <time>2026-07-07T12:39:05.000Z</time>
      </trkpt>
      <trkpt lat="47.82502" lon="16.25321">
        <ele>296.711366</ele>
        <time>2026-07-07T12:39:06.000Z</time>
      </trkpt>
      <trkpt lat="47.82498" lon="16.25327">
        <ele>296.679489</ele>
        <time>2026-07-07T12:39:07.000Z</time>
      </trkpt>
      <trkpt lat="47.82494" lon="16.25333">
        <ele>296.646523</ele>
        <time>2026-07-07T12:39:08.000Z</time>
      </trkpt>
      <trkpt lat="47.8249" lon="16.25339">
        <ele>296.615854</ele>
        <time>2026-07-07T12:39:09.000Z</time>
      </trkpt>
      <trkpt lat="47.82487" lon="16.25345">
        <ele>296.584785</ele>
        <time>2026-07-07T12:39:10.000Z</time>
      </trkpt>
      <trkpt lat="47.82482" lon="16.2535">
        <ele>296.553352</ele>
        <time>2026-07-07T12:39:11.000Z</time>
      </trkpt>
      <trkpt lat="47.82478" lon="16.25354">
        <ele>296.521152</ele>
        <time>2026-07-07T12:39:12.000Z</time>
      </trkpt>
      <trkpt lat="47.82473" lon="16.25359">
        <ele>296.489952</ele>
        <time>2026-07-07T12:39:13.000Z</time>
      </trkpt>
      <trkpt lat="47.82469" lon="16.25365">
        <ele>296.458075</ele>
        <time>2026-07-07T12:39:14.000Z</time>
      </trkpt>
      <trkpt lat="47.82466" lon="16.25372">
        <ele>296.425983</ele>
        <time>2026-07-07T12:39:15.000Z</time>
      </trkpt>
      <trkpt lat="47.82463" lon="16.25379">
        <ele>296.392817</ele>
        <time>2026-07-07T12:39:16.000Z</time>
      </trkpt>
      <trkpt lat="47.8246" lon="16.25387">
        <ele>296.359078</ele>
        <time>2026-07-07T12:39:17.000Z</time>
      </trkpt>
      <trkpt lat="47.82457" lon="16.25394">
        <ele>296.326329</ele>
        <time>2026-07-07T12:39:18.000Z</time>
      </trkpt>
      <trkpt lat="47.82454" lon="16.25401">
        <ele>296.293907</ele>
        <time>2026-07-07T12:39:19.000Z</time>
      </trkpt>
      <trkpt lat="47.82451" lon="16.25408">
        <ele>296.262784</ele>
        <time>2026-07-07T12:39:20.000Z</time>
      </trkpt>
      <trkpt lat="47.82448" lon="16.25414">
        <ele>296.232934</ele>
        <time>2026-07-07T12:39:21.000Z</time>
      </trkpt>
      <trkpt lat="47.82445" lon="16.2542">
        <ele>296.203093</ele>
        <time>2026-07-07T12:39:22.000Z</time>
      </trkpt>
      <trkpt lat="47.82442" lon="16.25427">
        <ele>296.173243</ele>
        <time>2026-07-07T12:39:23.000Z</time>
      </trkpt>
      <trkpt lat="47.82439" lon="16.25433">
        <ele>296.144331</ele>
        <time>2026-07-07T12:39:24.000Z</time>
      </trkpt>
      <trkpt lat="47.82436" lon="16.25438">
        <ele>296.116035</ele>
        <time>2026-07-07T12:39:25.000Z</time>
      </trkpt>
      <trkpt lat="47.82434" lon="16.25444">
        <ele>296.087796</ele>
        <time>2026-07-07T12:39:26.000Z</time>
      </trkpt>
      <trkpt lat="47.82431" lon="16.2545">
        <ele>296.059872</ele>
        <time>2026-07-07T12:39:27.000Z</time>
      </trkpt>
      <trkpt lat="47.82428" lon="16.25456">
        <ele>296.031924</ele>
        <time>2026-07-07T12:39:28.000Z</time>
      </trkpt>
      <trkpt lat="47.82425" lon="16.25462">
        <ele>296.004316</ele>
        <time>2026-07-07T12:39:29.000Z</time>
      </trkpt>
      <trkpt lat="47.82422" lon="16.25468">
        <ele>295.977356</ele>
        <time>2026-07-07T12:39:30.000Z</time>
      </trkpt>
      <trkpt lat="47.82419" lon="16.25473">
        <ele>295.949969</ele>
        <time>2026-07-07T12:39:31.000Z</time>
      </trkpt>
      <trkpt lat="47.82416" lon="16.25478">
        <ele>295.923093</ele>
        <time>2026-07-07T12:39:32.000Z</time>
      </trkpt>
      <trkpt lat="47.82413" lon="16.25483">
        <ele>295.896128</ele>
        <time>2026-07-07T12:39:33.000Z</time>
      </trkpt>
      <trkpt lat="47.8241" lon="16.25488">
        <ele>295.869252</ele>
        <time>2026-07-07T12:39:34.000Z</time>
      </trkpt>
      <trkpt lat="47.82407" lon="16.25494">
        <ele>295.842828</ele>
        <time>2026-07-07T12:39:35.000Z</time>
      </trkpt>
      <trkpt lat="47.82404" lon="16.25499">
        <ele>295.81746</ele>
        <time>2026-07-07T12:39:36.000Z</time>
      </trkpt>
      <trkpt lat="47.82402" lon="16.25504">
        <ele>295.79211</ele>
        <time>2026-07-07T12:39:37.000Z</time>
      </trkpt>
      <trkpt lat="47.82399" lon="16.25509">
        <ele>295.768016</ele>
        <time>2026-07-07T12:39:38.000Z</time>
      </trkpt>
      <trkpt lat="47.82396" lon="16.25514">
        <ele>295.74306</ele>
        <time>2026-07-07T12:39:39.000Z</time>
      </trkpt>
      <trkpt lat="47.82393" lon="16.25519">
        <ele>295.717997</ele>
        <time>2026-07-07T12:39:40.000Z</time>
      </trkpt>
      <trkpt lat="47.8239" lon="16.25523">
        <ele>295.69308</ele>
        <time>2026-07-07T12:39:41.000Z</time>
      </trkpt>
      <trkpt lat="47.82387" lon="16.25528">
        <ele>295.669525</ele>
        <time>2026-07-07T12:39:42.000Z</time>
      </trkpt>
      <trkpt lat="47.82385" lon="16.25532">
        <ele>295.647192</ele>
        <time>2026-07-07T12:39:43.000Z</time>
      </trkpt>
      <trkpt lat="47.82382" lon="16.25536">
        <ele>295.625499</ele>
        <time>2026-07-07T12:39:44.000Z</time>
      </trkpt>
      <trkpt lat="47.8238" lon="16.2554">
        <ele>295.603642</ele>
        <time>2026-07-07T12:39:45.000Z</time>
      </trkpt>
      <trkpt lat="47.82377" lon="16.25544">
        <ele>295.581911</ele>
        <time>2026-07-07T12:39:46.000Z</time>
      </trkpt>
      <trkpt lat="47.82373" lon="16.25546">
        <ele>295.559732</ele>
        <time>2026-07-07T12:39:47.000Z</time>
      </trkpt>
      <trkpt lat="47.8237" lon="16.25548">
        <ele>295.537873</ele>
        <time>2026-07-07T12:39:48.000Z</time>
      </trkpt>
      <trkpt lat="47.82366" lon="16.25551">
        <ele>295.513983</ele>
        <time>2026-07-07T12:39:49.000Z</time>
      </trkpt>
      <trkpt lat="47.82363" lon="16.25555">
        <ele>295.489432</ele>
        <time>2026-07-07T12:39:50.000Z</time>
      </trkpt>
      <trkpt lat="47.82361" lon="16.2556">
        <ele>295.484767</ele>
        <time>2026-07-07T12:39:51.000Z</time>
      </trkpt>
      <trkpt lat="47.82358" lon="16.25566">
        <ele>295.481323</ele>
        <time>2026-07-07T12:39:52.000Z</time>
      </trkpt>
      <trkpt lat="47.82356" lon="16.25572">
        <ele>295.477974</ele>
        <time>2026-07-07T12:39:53.000Z</time>
      </trkpt>
      <trkpt lat="47.82353" lon="16.25577">
        <ele>295.474665</ele>
        <time>2026-07-07T12:39:54.000Z</time>
      </trkpt>
      <trkpt lat="47.8235" lon="16.25581">
        <ele>295.47125</ele>
        <time>2026-07-07T12:39:55.000Z</time>
      </trkpt>
      <trkpt lat="47.82346" lon="16.25585">
        <ele>295.467802</ele>
        <time>2026-07-07T12:39:56.000Z</time>
      </trkpt>
      <trkpt lat="47.82342" lon="16.25589">
        <ele>295.464324</ele>
        <time>2026-07-07T12:39:57.000Z</time>
      </trkpt>
      <trkpt lat="47.82338" lon="16.25592">
        <ele>295.460863</ele>
        <time>2026-07-07T12:39:58.000Z</time>
      </trkpt>
      <trkpt lat="47.82335" lon="16.25596">
        <ele>295.457495</ele>
        <time>2026-07-07T12:39:59.000Z</time>
      </trkpt>
      <trkpt lat="47.82331" lon="16.25599">
        <ele>295.454072</ele>
        <time>2026-07-07T12:40:00.000Z</time>
      </trkpt>
      <trkpt lat="47.82327" lon="16.25603">
        <ele>295.450742</ele>
        <time>2026-07-07T12:40:01.000Z</time>
      </trkpt>
      <trkpt lat="47.82323" lon="16.25606">
        <ele>295.44749</ele>
        <time>2026-07-07T12:40:02.000Z</time>
      </trkpt>
      <trkpt lat="47.8232" lon="16.2561">
        <ele>295.444223</ele>
        <time>2026-07-07T12:40:03.000Z</time>
      </trkpt>
      <trkpt lat="47.82316" lon="16.25613">
        <ele>295.440892</ele>
        <time>2026-07-07T12:40:04.000Z</time>
      </trkpt>
      <trkpt lat="47.82312" lon="16.25617">
        <ele>295.437442</ele>
        <time>2026-07-07T12:40:05.000Z</time>
      </trkpt>
      <trkpt lat="47.82308" lon="16.2562">
        <ele>295.434034</ele>
        <time>2026-07-07T12:40:06.000Z</time>
      </trkpt>
      <trkpt lat="47.82304" lon="16.25623">
        <ele>295.43063</ele>
        <time>2026-07-07T12:40:07.000Z</time>
      </trkpt>
      <trkpt lat="47.82301" lon="16.25626">
        <ele>295.427544</ele>
        <time>2026-07-07T12:40:08.000Z</time>
      </trkpt>
      <trkpt lat="47.82297" lon="16.25629">
        <ele>295.424343</ele>
        <time>2026-07-07T12:40:09.000Z</time>
      </trkpt>
      <trkpt lat="47.82294" lon="16.25632">
        <ele>295.421274</ele>
        <time>2026-07-07T12:40:10.000Z</time>
      </trkpt>
      <trkpt lat="47.8229" lon="16.25635">
        <ele>295.418225</ele>
        <time>2026-07-07T12:40:11.000Z</time>
      </trkpt>
      <trkpt lat="47.82287" lon="16.25639">
        <ele>295.415177</ele>
        <time>2026-07-07T12:40:12.000Z</time>
      </trkpt>
      <trkpt lat="47.82284" lon="16.25643">
        <ele>295.411915</ele>
        <time>2026-07-07T12:40:13.000Z</time>
      </trkpt>
      <trkpt lat="47.8228" lon="16.25646">
        <ele>295.408585</ele>
        <time>2026-07-07T12:40:14.000Z</time>
      </trkpt>
      <trkpt lat="47.82276" lon="16.2565">
        <ele>295.405135</ele>
        <time>2026-07-07T12:40:15.000Z</time>
      </trkpt>
      <trkpt lat="47.82272" lon="16.25654">
        <ele>295.401656</ele>
        <time>2026-07-07T12:40:16.000Z</time>
      </trkpt>
      <trkpt lat="47.82268" lon="16.25657">
        <ele>295.398115</ele>
        <time>2026-07-07T12:40:17.000Z</time>
      </trkpt>
      <trkpt lat="47.82265" lon="16.25661">
        <ele>295.394732</ele>
        <time>2026-07-07T12:40:18.000Z</time>
      </trkpt>
      <trkpt lat="47.82261" lon="16.25665">
        <ele>295.391227</ele>
        <time>2026-07-07T12:40:19.000Z</time>
      </trkpt>
      <trkpt lat="47.82257" lon="16.25669">
        <ele>295.387753</ele>
        <time>2026-07-07T12:40:20.000Z</time>
      </trkpt>
      <trkpt lat="47.82254" lon="16.25673">
        <ele>295.384303</ele>
        <time>2026-07-07T12:40:21.000Z</time>
      </trkpt>
      <trkpt lat="47.8225" lon="16.25677">
        <ele>295.380853</ele>
        <time>2026-07-07T12:40:22.000Z</time>
      </trkpt>
      <trkpt lat="47.82246" lon="16.2568">
        <ele>295.377494</ele>
        <time>2026-07-07T12:40:23.000Z</time>
      </trkpt>
      <trkpt lat="47.82243" lon="16.25684">
        <ele>295.374142</ele>
        <time>2026-07-07T12:40:24.000Z</time>
      </trkpt>
      <trkpt lat="47.82239" lon="16.25688">
        <ele>295.37082</ele>
        <time>2026-07-07T12:40:25.000Z</time>
      </trkpt>
      <trkpt lat="47.82235" lon="16.25692">
        <ele>295.367543</ele>
        <time>2026-07-07T12:40:26.000Z</time>
      </trkpt>
      <trkpt lat="47.82232" lon="16.25694">
        <ele>295.364456</ele>
        <time>2026-07-07T12:40:27.000Z</time>
      </trkpt>
      <trkpt lat="47.82228" lon="16.25696">
        <ele>295.361356</ele>
        <time>2026-07-07T12:40:28.000Z</time>
      </trkpt>
      <trkpt lat="47.82224" lon="16.25695">
        <ele>295.358314</ele>
        <time>2026-07-07T12:40:29.000Z</time>
      </trkpt>
      <trkpt lat="47.8222" lon="16.25695">
        <ele>295.355108</ele>
        <time>2026-07-07T12:40:30.000Z</time>
      </trkpt>
      <trkpt lat="47.82216" lon="16.25696">
        <ele>295.352176</ele>
        <time>2026-07-07T12:40:31.000Z</time>
      </trkpt>
      <trkpt lat="47.82212" lon="16.25699">
        <ele>295.359464</ele>
        <time>2026-07-07T12:40:32.000Z</time>
      </trkpt>
      <trkpt lat="47.82209" lon="16.25703">
        <ele>295.372029</ele>
        <time>2026-07-07T12:40:33.000Z</time>
      </trkpt>
      <trkpt lat="47.82206" lon="16.25708">
        <ele>295.384913</ele>
        <time>2026-07-07T12:40:34.000Z</time>
      </trkpt>
      <trkpt lat="47.82203" lon="16.25713">
        <ele>295.397847</ele>
        <time>2026-07-07T12:40:35.000Z</time>
      </trkpt>
      <trkpt lat="47.82201" lon="16.25717">
        <ele>295.409985</ele>
        <time>2026-07-07T12:40:36.000Z</time>
      </trkpt>
      <trkpt lat="47.82198" lon="16.25721">
        <ele>295.422063</ele>
        <time>2026-07-07T12:40:37.000Z</time>
      </trkpt>
      <trkpt lat="47.82196" lon="16.25725">
        <ele>295.432889</ele>
        <time>2026-07-07T12:40:38.000Z</time>
      </trkpt>
      <trkpt lat="47.82193" lon="16.25729">
        <ele>295.443814</ele>
        <time>2026-07-07T12:40:39.000Z</time>
      </trkpt>
      <trkpt lat="47.82191" lon="16.25733">
        <ele>295.454595</ele>
        <time>2026-07-07T12:40:40.000Z</time>
      </trkpt>
      <trkpt lat="47.82188" lon="16.25737">
        <ele>295.465375</ele>
        <time>2026-07-07T12:40:41.000Z</time>
      </trkpt>
      <trkpt lat="47.82185" lon="16.25739">
        <ele>295.474969</ele>
        <time>2026-07-07T12:40:42.000Z</time>
      </trkpt>
      <trkpt lat="47.82183" lon="16.25742">
        <ele>295.483115</ele>
        <time>2026-07-07T12:40:43.000Z</time>
      </trkpt>
      <trkpt lat="47.82181" lon="16.25744">
        <ele>295.490619</ele>
        <time>2026-07-07T12:40:44.000Z</time>
      </trkpt>
      <trkpt lat="47.82179" lon="16.25746">
        <ele>295.498252</ele>
        <time>2026-07-07T12:40:45.000Z</time>
      </trkpt>
      <trkpt lat="47.82177" lon="16.25749">
        <ele>295.50625</ele>
        <time>2026-07-07T12:40:46.000Z</time>
      </trkpt>
      <trkpt lat="47.82176" lon="16.25753">
        <ele>295.515533</ele>
        <time>2026-07-07T12:40:47.000Z</time>
      </trkpt>
      <trkpt lat="47.82174" lon="16.25757">
        <ele>295.524782</ele>
        <time>2026-07-07T12:40:48.000Z</time>
      </trkpt>
      <trkpt lat="47.82173" lon="16.25761">
        <ele>295.534677</ele>
        <time>2026-07-07T12:40:49.000Z</time>
      </trkpt>
      <trkpt lat="47.82172" lon="16.25766">
        <ele>295.545467</ele>
        <time>2026-07-07T12:40:50.000Z</time>
      </trkpt>
      <trkpt lat="47.8217" lon="16.25771">
        <ele>295.556255</ele>
        <time>2026-07-07T12:40:51.000Z</time>
      </trkpt>
      <trkpt lat="47.82168" lon="16.25775">
        <ele>295.567372</ele>
        <time>2026-07-07T12:40:52.000Z</time>
      </trkpt>
      <trkpt lat="47.82165" lon="16.25779">
        <ele>295.578403</ele>
        <time>2026-07-07T12:40:53.000Z</time>
      </trkpt>
      <trkpt lat="47.82162" lon="16.25782">
        <ele>295.590385</ele>
        <time>2026-07-07T12:40:54.000Z</time>
      </trkpt>
      <trkpt lat="47.82159" lon="16.25785">
        <ele>295.602053</ele>
        <time>2026-07-07T12:40:55.000Z</time>
      </trkpt>
      <trkpt lat="47.82155" lon="16.25788">
        <ele>295.614577</ele>
        <time>2026-07-07T12:40:56.000Z</time>
      </trkpt>
      <trkpt lat="47.82151" lon="16.25791">
        <ele>295.627557</ele>
        <time>2026-07-07T12:40:57.000Z</time>
      </trkpt>
      <trkpt lat="47.82147" lon="16.25794">
        <ele>295.640895</ele>
        <time>2026-07-07T12:40:58.000Z</time>
      </trkpt>
      <trkpt lat="47.82143" lon="16.25796">
        <ele>295.653199</ele>
        <time>2026-07-07T12:40:59.000Z</time>
      </trkpt>
      <trkpt lat="47.82139" lon="16.25798">
        <ele>295.666334</ele>
        <time>2026-07-07T12:41:00.000Z</time>
      </trkpt>
      <trkpt lat="47.82135" lon="16.25799">
        <ele>295.6795</ele>
        <time>2026-07-07T12:41:01.000Z</time>
      </trkpt>
      <trkpt lat="47.8213" lon="16.258">
        <ele>295.693155</ele>
        <time>2026-07-07T12:41:02.000Z</time>
      </trkpt>
      <trkpt lat="47.82126" lon="16.258">
        <ele>295.706749</ele>
        <time>2026-07-07T12:41:03.000Z</time>
      </trkpt>
      <trkpt lat="47.82121" lon="16.258">
        <ele>295.720367</ele>
        <time>2026-07-07T12:41:04.000Z</time>
      </trkpt>
      <trkpt lat="47.82117" lon="16.25801">
        <ele>295.734574</ele>
        <time>2026-07-07T12:41:05.000Z</time>
      </trkpt>
      <trkpt lat="47.82112" lon="16.25801">
        <ele>295.748156</ele>
        <time>2026-07-07T12:41:06.000Z</time>
      </trkpt>
      <trkpt lat="47.82108" lon="16.25801">
        <ele>295.761172</ele>
        <time>2026-07-07T12:41:07.000Z</time>
      </trkpt>
      <trkpt lat="47.82104" lon="16.25802">
        <ele>295.773926</ele>
        <time>2026-07-07T12:41:08.000Z</time>
      </trkpt>
      <trkpt lat="47.82099" lon="16.25802">
        <ele>295.786917</ele>
        <time>2026-07-07T12:41:09.000Z</time>
      </trkpt>
      <trkpt lat="47.82095" lon="16.25803">
        <ele>295.799598</ele>
        <time>2026-07-07T12:41:10.000Z</time>
      </trkpt>
      <trkpt lat="47.82091" lon="16.25803">
        <ele>295.811677</ele>
        <time>2026-07-07T12:41:11.000Z</time>
      </trkpt>
      <trkpt lat="47.82087" lon="16.25803">
        <ele>295.82441</ele>
        <time>2026-07-07T12:41:12.000Z</time>
      </trkpt>
      <trkpt lat="47.82083" lon="16.25804">
        <ele>295.83665</ele>
        <time>2026-07-07T12:41:13.000Z</time>
      </trkpt>
      <trkpt lat="47.82079" lon="16.25805">
        <ele>295.84889</ele>
        <time>2026-07-07T12:41:14.000Z</time>
      </trkpt>
      <trkpt lat="47.82075" lon="16.25806">
        <ele>295.861045</ele>
        <time>2026-07-07T12:41:15.000Z</time>
      </trkpt>
      <trkpt lat="47.82071" lon="16.25806">
        <ele>295.873425</ele>
        <time>2026-07-07T12:41:16.000Z</time>
      </trkpt>
      <trkpt lat="47.82067" lon="16.25806">
        <ele>295.885498</ele>
        <time>2026-07-07T12:41:17.000Z</time>
      </trkpt>
      <trkpt lat="47.82063" lon="16.25807">
        <ele>295.900659</ele>
        <time>2026-07-07T12:41:18.000Z</time>
      </trkpt>
      <trkpt lat="47.82058" lon="16.25807">
        <ele>295.921105</ele>
        <time>2026-07-07T12:41:19.000Z</time>
      </trkpt>
      <trkpt lat="47.82054" lon="16.25808">
        <ele>295.940133</ele>
        <time>2026-07-07T12:41:20.000Z</time>
      </trkpt>
      <trkpt lat="47.8205" lon="16.25808">
        <ele>295.960046</ele>
        <time>2026-07-07T12:41:21.000Z</time>
      </trkpt>
      <trkpt lat="47.82046" lon="16.25808">
        <ele>295.97905</ele>
        <time>2026-07-07T12:41:22.000Z</time>
      </trkpt>
      <trkpt lat="47.82042" lon="16.25809">
        <ele>295.999123</ele>
        <time>2026-07-07T12:41:23.000Z</time>
      </trkpt>
      <trkpt lat="47.82038" lon="16.2581">
        <ele>296.018151</ele>
        <time>2026-07-07T12:41:24.000Z</time>
      </trkpt>
      <trkpt lat="47.82034" lon="16.2581">
        <ele>296.038656</ele>
        <time>2026-07-07T12:41:25.000Z</time>
      </trkpt>
      <trkpt lat="47.82029" lon="16.25811">
        <ele>296.059063</ele>
        <time>2026-07-07T12:41:26.000Z</time>
      </trkpt>
      <trkpt lat="47.82025" lon="16.25811">
        <ele>296.079981</ele>
        <time>2026-07-07T12:41:27.000Z</time>
      </trkpt>
      <trkpt lat="47.82021" lon="16.25811">
        <ele>296.100388</ele>
        <time>2026-07-07T12:41:28.000Z</time>
      </trkpt>
      <trkpt lat="47.82016" lon="16.25812">
        <ele>296.120834</ele>
        <time>2026-07-07T12:41:29.000Z</time>
      </trkpt>
      <trkpt lat="47.82012" lon="16.25812">
        <ele>296.14173</ele>
        <time>2026-07-07T12:41:30.000Z</time>
      </trkpt>
      <trkpt lat="47.82007" lon="16.25813">
        <ele>296.163148</ele>
        <time>2026-07-07T12:41:31.000Z</time>
      </trkpt>
      <trkpt lat="47.82003" lon="16.25813">
        <ele>296.183594</ele>
        <time>2026-07-07T12:41:32.000Z</time>
      </trkpt>
      <trkpt lat="47.81999" lon="16.25814">
        <ele>296.204935</ele>
        <time>2026-07-07T12:41:33.000Z</time>
      </trkpt>
      <trkpt lat="47.81994" lon="16.25814">
        <ele>296.226289</ele>
        <time>2026-07-07T12:41:34.000Z</time>
      </trkpt>
      <trkpt lat="47.8199" lon="16.25815">
        <ele>296.247812</ele>
        <time>2026-07-07T12:41:35.000Z</time>
      </trkpt>
      <trkpt lat="47.81985" lon="16.25816">
        <ele>296.269296</ele>
        <time>2026-07-07T12:41:36.000Z</time>
      </trkpt>
      <trkpt lat="47.81981" lon="16.25816">
        <ele>296.290744</ele>
        <time>2026-07-07T12:41:37.000Z</time>
      </trkpt>
      <trkpt lat="47.81976" lon="16.25817">
        <ele>296.312097</ele>
        <time>2026-07-07T12:41:38.000Z</time>
      </trkpt>
      <trkpt lat="47.81971" lon="16.25817">
        <ele>296.334398</ele>
        <time>2026-07-07T12:41:39.000Z</time>
      </trkpt>
      <trkpt lat="47.81967" lon="16.25817">
        <ele>296.356262</ele>
        <time>2026-07-07T12:41:40.000Z</time>
      </trkpt>
      <trkpt lat="47.81962" lon="16.25818">
        <ele>296.377653</ele>
        <time>2026-07-07T12:41:41.000Z</time>
      </trkpt>
      <trkpt lat="47.81958" lon="16.25818">
        <ele>296.399023</ele>
        <time>2026-07-07T12:41:42.000Z</time>
      </trkpt>
      <trkpt lat="47.81953" lon="16.25818">
        <ele>296.419883</ele>
        <time>2026-07-07T12:41:43.000Z</time>
      </trkpt>
      <trkpt lat="47.81949" lon="16.25819">
        <ele>296.441225</ele>
        <time>2026-07-07T12:41:44.000Z</time>
      </trkpt>
      <trkpt lat="47.81945" lon="16.25819">
        <ele>296.461631</ele>
        <time>2026-07-07T12:41:45.000Z</time>
      </trkpt>
      <trkpt lat="47.8194" lon="16.25819">
        <ele>296.482055</ele>
        <time>2026-07-07T12:41:46.000Z</time>
      </trkpt>
      <trkpt lat="47.81936" lon="16.2582">
        <ele>296.502974</ele>
        <time>2026-07-07T12:41:47.000Z</time>
      </trkpt>
      <trkpt lat="47.81932" lon="16.2582">
        <ele>296.52338</ele>
        <time>2026-07-07T12:41:48.000Z</time>
      </trkpt>
      <trkpt lat="47.81927" lon="16.2582">
        <ele>296.544712</ele>
        <time>2026-07-07T12:41:49.000Z</time>
      </trkpt>
      <trkpt lat="47.81923" lon="16.2582">
        <ele>296.566053</ele>
        <time>2026-07-07T12:41:50.000Z</time>
      </trkpt>
      <trkpt lat="47.81918" lon="16.25821">
        <ele>296.588354</ele>
        <time>2026-07-07T12:41:51.000Z</time>
      </trkpt>
      <trkpt lat="47.81913" lon="16.25821">
        <ele>296.609745</ele>
        <time>2026-07-07T12:41:52.000Z</time>
      </trkpt>
      <trkpt lat="47.81909" lon="16.25822">
        <ele>296.630251</ele>
        <time>2026-07-07T12:41:53.000Z</time>
      </trkpt>
      <trkpt lat="47.81905" lon="16.25822">
        <ele>296.651642</ele>
        <time>2026-07-07T12:41:54.000Z</time>
      </trkpt>
      <trkpt lat="47.819" lon="16.25823">
        <ele>296.673979</ele>
        <time>2026-07-07T12:41:55.000Z</time>
      </trkpt>
      <trkpt lat="47.81895" lon="16.25823">
        <ele>296.695843</ele>
        <time>2026-07-07T12:41:56.000Z</time>
      </trkpt>
      <trkpt lat="47.8189" lon="16.25824">
        <ele>296.719091</ele>
        <time>2026-07-07T12:41:57.000Z</time>
      </trkpt>
      <trkpt lat="47.81886" lon="16.25824">
        <ele>296.741865</ele>
        <time>2026-07-07T12:41:58.000Z</time>
      </trkpt>
      <trkpt lat="47.81881" lon="16.25824">
        <ele>296.760561</ele>
        <time>2026-07-07T12:41:59.000Z</time>
      </trkpt>
      <trkpt lat="47.81876" lon="16.25825">
        <ele>296.777913</ele>
        <time>2026-07-07T12:42:00.000Z</time>
      </trkpt>
      <trkpt lat="47.81872" lon="16.25825">
        <ele>296.79567</ele>
        <time>2026-07-07T12:42:01.000Z</time>
      </trkpt>
      <trkpt lat="47.81867" lon="16.25826">
        <ele>296.813427</ele>
        <time>2026-07-07T12:42:02.000Z</time>
      </trkpt>
      <trkpt lat="47.81862" lon="16.25826">
        <ele>296.830778</ele>
        <time>2026-07-07T12:42:03.000Z</time>
      </trkpt>
      <trkpt lat="47.81858" lon="16.25826">
        <ele>296.847783</ele>
        <time>2026-07-07T12:42:04.000Z</time>
      </trkpt>
      <trkpt lat="47.81853" lon="16.25827">
        <ele>296.864789</ele>
        <time>2026-07-07T12:42:05.000Z</time>
      </trkpt>
      <trkpt lat="47.81849" lon="16.25827">
        <ele>296.881777</ele>
        <time>2026-07-07T12:42:06.000Z</time>
      </trkpt>
      <trkpt lat="47.81844" lon="16.25828">
        <ele>296.899534</ele>
        <time>2026-07-07T12:42:07.000Z</time>
      </trkpt>
      <trkpt lat="47.8184" lon="16.25828">
        <ele>296.915756</ele>
        <time>2026-07-07T12:42:08.000Z</time>
      </trkpt>
      <trkpt lat="47.81835" lon="16.25828">
        <ele>296.932354</ele>
        <time>2026-07-07T12:42:09.000Z</time>
      </trkpt>
      <trkpt lat="47.81831" lon="16.25829">
        <ele>296.948608</ele>
        <time>2026-07-07T12:42:10.000Z</time>
      </trkpt>
      <trkpt lat="47.81827" lon="16.2583">
        <ele>296.964909</ele>
        <time>2026-07-07T12:42:11.000Z</time>
      </trkpt>
      <trkpt lat="47.81823" lon="16.2583">
        <ele>296.980755</ele>
        <time>2026-07-07T12:42:12.000Z</time>
      </trkpt>
      <trkpt lat="47.81818" lon="16.25831">
        <ele>296.997118</ele>
        <time>2026-07-07T12:42:13.000Z</time>
      </trkpt>
      <trkpt lat="47.81814" lon="16.25832">
        <ele>297.014197</ele>
        <time>2026-07-07T12:42:14.000Z</time>
      </trkpt>
      <trkpt lat="47.81809" lon="16.25832">
        <ele>297.031202</ele>
        <time>2026-07-07T12:42:15.000Z</time>
      </trkpt>
      <trkpt lat="47.81805" lon="16.25832">
        <ele>297.048167</ele>
        <time>2026-07-07T12:42:16.000Z</time>
      </trkpt>
      <trkpt lat="47.818" lon="16.25832">
        <ele>297.065881</ele>
        <time>2026-07-07T12:42:17.000Z</time>
      </trkpt>
      <trkpt lat="47.81795" lon="16.25833">
        <ele>297.0836</ele>
        <time>2026-07-07T12:42:18.000Z</time>
      </trkpt>
      <trkpt lat="47.81791" lon="16.25833">
        <ele>297.101733</ele>
        <time>2026-07-07T12:42:19.000Z</time>
      </trkpt>
      <trkpt lat="47.81786" lon="16.25834">
        <ele>297.119866</ele>
        <time>2026-07-07T12:42:20.000Z</time>
      </trkpt>
      <trkpt lat="47.81781" lon="16.25834">
        <ele>297.138374</ele>
        <time>2026-07-07T12:42:21.000Z</time>
      </trkpt>
      <trkpt lat="47.81776" lon="16.25835">
        <ele>297.155379</ele>
        <time>2026-07-07T12:42:22.000Z</time>
      </trkpt>
      <trkpt lat="47.81772" lon="16.25835">
        <ele>297.172385</ele>
        <time>2026-07-07T12:42:23.000Z</time>
      </trkpt>
      <trkpt lat="47.81767" lon="16.25836">
        <ele>297.189766</ele>
        <time>2026-07-07T12:42:24.000Z</time>
      </trkpt>
      <trkpt lat="47.81763" lon="16.25836">
        <ele>297.207477</ele>
        <time>2026-07-07T12:42:25.000Z</time>
      </trkpt>
      <trkpt lat="47.81758" lon="16.25835">
        <ele>297.224452</ele>
        <time>2026-07-07T12:42:26.000Z</time>
      </trkpt>
      <trkpt lat="47.81753" lon="16.25835">
        <ele>297.242209</ele>
        <time>2026-07-07T12:42:27.000Z</time>
      </trkpt>
      <trkpt lat="47.81749" lon="16.25834">
        <ele>297.258463</ele>
        <time>2026-07-07T12:42:28.000Z</time>
      </trkpt>
      <trkpt lat="47.81745" lon="16.25834">
        <ele>297.274764</ele>
        <time>2026-07-07T12:42:29.000Z</time>
      </trkpt>
      <trkpt lat="47.8174" lon="16.25833">
        <ele>297.291439</ele>
        <time>2026-07-07T12:42:30.000Z</time>
      </trkpt>
      <trkpt lat="47.81736" lon="16.25832">
        <ele>297.306965</ele>
        <time>2026-07-07T12:42:31.000Z</time>
      </trkpt>
      <trkpt lat="47.81732" lon="16.25831">
        <ele>297.322955</ele>
        <time>2026-07-07T12:42:32.000Z</time>
      </trkpt>
      <trkpt lat="47.81728" lon="16.25831">
        <ele>297.337418</ele>
        <time>2026-07-07T12:42:33.000Z</time>
      </trkpt>
      <trkpt lat="47.81725" lon="16.2583">
        <ele>297.350726</ele>
        <time>2026-07-07T12:42:34.000Z</time>
      </trkpt>
      <trkpt lat="47.81722" lon="16.2583">
        <ele>297.362787</ele>
        <time>2026-07-07T12:42:35.000Z</time>
      </trkpt>
      <trkpt lat="47.81719" lon="16.2583">
        <ele>297.373342</ele>
        <time>2026-07-07T12:42:36.000Z</time>
      </trkpt>
      <trkpt lat="47.81716" lon="16.25831">
        <ele>297.382558</ele>
        <time>2026-07-07T12:42:37.000Z</time>
      </trkpt>
      <trkpt lat="47.81714" lon="16.25831">
        <ele>297.390201</ele>
        <time>2026-07-07T12:42:38.000Z</time>
      </trkpt>
      <trkpt lat="47.81713" lon="16.25831">
        <ele>297.396984</ele>
        <time>2026-07-07T12:42:39.000Z</time>
      </trkpt>
      <trkpt lat="47.81711" lon="16.25831">
        <ele>297.402776</ele>
        <time>2026-07-07T12:42:40.000Z</time>
      </trkpt>
      <trkpt lat="47.8171" lon="16.2583">
        <ele>297.408781</ele>
        <time>2026-07-07T12:42:41.000Z</time>
      </trkpt>
      <trkpt lat="47.81708" lon="16.25829">
        <ele>297.413476</ele>
        <time>2026-07-07T12:42:42.000Z</time>
      </trkpt>
      <trkpt lat="47.81708" lon="16.25829">
        <ele>297.416657</ele>
        <time>2026-07-07T12:42:43.000Z</time>
      </trkpt>
      <trkpt lat="47.81707" lon="16.25829">
        <ele>297.417787</ele>
        <time>2026-07-07T12:42:44.000Z</time>
      </trkpt>
      <trkpt lat="47.81704" lon="16.25827">
        <ele>297.439043</ele>
        <time>2026-07-07T12:42:51.000Z</time>
      </trkpt>
      <trkpt lat="47.81701" lon="16.25826">
        <ele>297.455849</ele>
        <time>2026-07-07T12:42:52.000Z</time>
      </trkpt>
      <trkpt lat="47.81699" lon="16.25826">
        <ele>297.475159</ele>
        <time>2026-07-07T12:42:53.000Z</time>
      </trkpt>
      <trkpt lat="47.81696" lon="16.25825">
        <ele>297.494822</ele>
        <time>2026-07-07T12:42:54.000Z</time>
      </trkpt>
      <trkpt lat="47.81693" lon="16.25826">
        <ele>297.515251</ele>
        <time>2026-07-07T12:42:55.000Z</time>
      </trkpt>
      <trkpt lat="47.8169" lon="16.25826">
        <ele>297.533639</ele>
        <time>2026-07-07T12:42:56.000Z</time>
      </trkpt>
      <trkpt lat="47.81687" lon="16.25827">
        <ele>297.55403</ele>
        <time>2026-07-07T12:42:57.000Z</time>
      </trkpt>
      <trkpt lat="47.81684" lon="16.25827">
        <ele>297.576098</ele>
        <time>2026-07-07T12:42:58.000Z</time>
      </trkpt>
      <trkpt lat="47.81681" lon="16.25828">
        <ele>297.601012</ele>
        <time>2026-07-07T12:42:59.000Z</time>
      </trkpt>
      <trkpt lat="47.81677" lon="16.25829">
        <ele>297.626103</ele>
        <time>2026-07-07T12:43:00.000Z</time>
      </trkpt>
      <trkpt lat="47.81674" lon="16.25831">
        <ele>297.652664</ele>
        <time>2026-07-07T12:43:01.000Z</time>
      </trkpt>
      <trkpt lat="47.81669" lon="16.25832">
        <ele>297.683193</ele>
        <time>2026-07-07T12:43:02.000Z</time>
      </trkpt>
      <trkpt lat="47.81665" lon="16.25834">
        <ele>297.715645</ele>
        <time>2026-07-07T12:43:03.000Z</time>
      </trkpt>
      <trkpt lat="47.8166" lon="16.25836">
        <ele>297.749258</ele>
        <time>2026-07-07T12:43:04.000Z</time>
      </trkpt>
      <trkpt lat="47.81656" lon="16.25838">
        <ele>297.783184</ele>
        <time>2026-07-07T12:43:05.000Z</time>
      </trkpt>
      <trkpt lat="47.81651" lon="16.25839">
        <ele>297.817224</ele>
        <time>2026-07-07T12:43:06.000Z</time>
      </trkpt>
      <trkpt lat="47.81646" lon="16.25841">
        <ele>297.850468</ele>
        <time>2026-07-07T12:43:07.000Z</time>
      </trkpt>
      <trkpt lat="47.81641" lon="16.25843">
        <ele>297.885557</ele>
        <time>2026-07-07T12:43:08.000Z</time>
      </trkpt>
      <trkpt lat="47.81637" lon="16.25844">
        <ele>297.918802</ele>
        <time>2026-07-07T12:43:09.000Z</time>
      </trkpt>
      <trkpt lat="47.81632" lon="16.25846">
        <ele>297.953891</ele>
        <time>2026-07-07T12:43:10.000Z</time>
      </trkpt>
      <trkpt lat="47.81627" lon="16.25847">
        <ele>297.986732</ele>
        <time>2026-07-07T12:43:11.000Z</time>
      </trkpt>
      <trkpt lat="47.81623" lon="16.25849">
        <ele>298.020448</ele>
        <time>2026-07-07T12:43:12.000Z</time>
      </trkpt>
      <trkpt lat="47.81618" lon="16.2585">
        <ele>298.054164</ele>
        <time>2026-07-07T12:43:13.000Z</time>
      </trkpt>
      <trkpt lat="47.81613" lon="16.25852">
        <ele>298.087525</ele>
        <time>2026-07-07T12:43:14.000Z</time>
      </trkpt>
      <trkpt lat="47.81609" lon="16.25853">
        <ele>298.119871</ele>
        <time>2026-07-07T12:43:15.000Z</time>
      </trkpt>
      <trkpt lat="47.81604" lon="16.25855">
        <ele>298.153319</ele>
        <time>2026-07-07T12:43:16.000Z</time>
      </trkpt>
      <trkpt lat="47.816" lon="16.25856">
        <ele>298.185665</ele>
        <time>2026-07-07T12:43:17.000Z</time>
      </trkpt>
      <trkpt lat="47.81595" lon="16.25857">
        <ele>298.217818</ele>
        <time>2026-07-07T12:43:18.000Z</time>
      </trkpt>
      <trkpt lat="47.81591" lon="16.25858">
        <ele>298.249732</ele>
        <time>2026-07-07T12:43:19.000Z</time>
      </trkpt>
      <trkpt lat="47.81586" lon="16.2586">
        <ele>298.28318</ele>
        <time>2026-07-07T12:43:20.000Z</time>
      </trkpt>
      <trkpt lat="47.81581" lon="16.25861">
        <ele>298.315333</ele>
        <time>2026-07-07T12:43:21.000Z</time>
      </trkpt>
      <trkpt lat="47.81577" lon="16.25862">
        <ele>298.347679</ele>
        <time>2026-07-07T12:43:22.000Z</time>
      </trkpt>
      <trkpt lat="47.81572" lon="16.25864">
        <ele>298.380709</ele>
        <time>2026-07-07T12:43:23.000Z</time>
      </trkpt>
      <trkpt lat="47.81568" lon="16.25865">
        <ele>298.413055</ele>
        <time>2026-07-07T12:43:24.000Z</time>
      </trkpt>
      <trkpt lat="47.81563" lon="16.25867">
        <ele>298.444716</ele>
        <time>2026-07-07T12:43:25.000Z</time>
      </trkpt>
      <trkpt lat="47.81559" lon="16.25868">
        <ele>298.477649</ele>
        <time>2026-07-07T12:43:26.000Z</time>
      </trkpt>
      <trkpt lat="47.81554" lon="16.2587">
        <ele>298.509802</ele>
        <time>2026-07-07T12:43:27.000Z</time>
      </trkpt>
      <trkpt lat="47.8155" lon="16.25871">
        <ele>298.541955</ele>
        <time>2026-07-07T12:43:28.000Z</time>
      </trkpt>
      <trkpt lat="47.81545" lon="16.25872">
        <ele>298.575671</ele>
        <time>2026-07-07T12:43:29.000Z</time>
      </trkpt>
      <trkpt lat="47.81541" lon="16.25874">
        <ele>298.608016</ele>
        <time>2026-07-07T12:43:30.000Z</time>
      </trkpt>
      <trkpt lat="47.81536" lon="16.25875">
        <ele>298.638994</ele>
        <time>2026-07-07T12:43:31.000Z</time>
      </trkpt>
      <trkpt lat="47.81532" lon="16.25877">
        <ele>298.671129</ele>
        <time>2026-07-07T12:43:32.000Z</time>
      </trkpt>
      <trkpt lat="47.81528" lon="16.25879">
        <ele>298.686309</ele>
        <time>2026-07-07T12:43:33.000Z</time>
      </trkpt>
      <trkpt lat="47.81524" lon="16.2588">
        <ele>298.686923</ele>
        <time>2026-07-07T12:43:34.000Z</time>
      </trkpt>
      <trkpt lat="47.8152" lon="16.25882">
        <ele>298.687505</ele>
        <time>2026-07-07T12:43:35.000Z</time>
      </trkpt>
      <trkpt lat="47.81517" lon="16.25884">
        <ele>298.688028</ele>
        <time>2026-07-07T12:43:36.000Z</time>
      </trkpt>
      <trkpt lat="47.81514" lon="16.25886">
        <ele>298.688505</ele>
        <time>2026-07-07T12:43:37.000Z</time>
      </trkpt>
      <trkpt lat="47.81511" lon="16.25887">
        <ele>298.68891</ele>
        <time>2026-07-07T12:43:38.000Z</time>
      </trkpt>
      <trkpt lat="47.81509" lon="16.25888">
        <ele>298.689224</ele>
        <time>2026-07-07T12:43:39.000Z</time>
      </trkpt>
      <trkpt lat="47.81508" lon="16.25889">
        <ele>298.68941</ele>
        <time>2026-07-07T12:43:40.000Z</time>
      </trkpt>
      <trkpt lat="47.81507" lon="16.25889">
        <ele>298.689539</ele>
        <time>2026-07-07T12:43:41.000Z</time>
      </trkpt>
      <trkpt lat="47.81507" lon="16.25889">
        <ele>298.689569</ele>
        <time>2026-07-07T12:43:42.000Z</time>
      </trkpt>
      <trkpt lat="47.81505" lon="16.25896">
        <ele>298.690338</ele>
        <time>2026-07-07T12:43:46.000Z</time>
      </trkpt>
      <trkpt lat="47.81505" lon="16.259">
        <ele>298.69074</ele>
        <time>2026-07-07T12:43:47.000Z</time>
      </trkpt>
      <trkpt lat="47.81506" lon="16.25905">
        <ele>298.691202</ele>
        <time>2026-07-07T12:43:48.000Z</time>
      </trkpt>
      <trkpt lat="47.81506" lon="16.2591">
        <ele>298.691722</ele>
        <time>2026-07-07T12:43:49.000Z</time>
      </trkpt>
      <trkpt lat="47.81507" lon="16.25916">
        <ele>298.692311</ele>
        <time>2026-07-07T12:43:50.000Z</time>
      </trkpt>
      <trkpt lat="47.81508" lon="16.25922">
        <ele>298.692951</ele>
        <time>2026-07-07T12:43:51.000Z</time>
      </trkpt>
      <trkpt lat="47.81509" lon="16.25929">
        <ele>298.693678</ele>
        <time>2026-07-07T12:43:52.000Z</time>
      </trkpt>
      <trkpt lat="47.81509" lon="16.25937">
        <ele>298.694453</ele>
        <time>2026-07-07T12:43:53.000Z</time>
      </trkpt>
      <trkpt lat="47.8151" lon="16.25945">
        <ele>298.695244</ele>
        <time>2026-07-07T12:43:54.000Z</time>
      </trkpt>
      <trkpt lat="47.81511" lon="16.25952">
        <ele>298.69604</ele>
        <time>2026-07-07T12:43:55.000Z</time>
      </trkpt>
      <trkpt lat="47.81512" lon="16.2596">
        <ele>298.696853</ele>
        <time>2026-07-07T12:43:56.000Z</time>
      </trkpt>
      <trkpt lat="47.81514" lon="16.25968">
        <ele>298.697672</ele>
        <time>2026-07-07T12:43:57.000Z</time>
      </trkpt>
      <trkpt lat="47.81514" lon="16.25976">
        <ele>298.69848</ele>
        <time>2026-07-07T12:43:58.000Z</time>
      </trkpt>
      <trkpt lat="47.81516" lon="16.25984">
        <ele>298.699299</ele>
        <time>2026-07-07T12:43:59.000Z</time>
      </trkpt>
      <trkpt lat="47.81517" lon="16.25992">
        <ele>298.700109</ele>
        <time>2026-07-07T12:44:00.000Z</time>
      </trkpt>
      <trkpt lat="47.81518" lon="16.26">
        <ele>298.700902</ele>
        <time>2026-07-07T12:44:01.000Z</time>
      </trkpt>
      <trkpt lat="47.81519" lon="16.26007">
        <ele>298.701641</ele>
        <time>2026-07-07T12:44:02.000Z</time>
      </trkpt>
      <trkpt lat="47.81519" lon="16.26015">
        <ele>298.70237</ele>
        <time>2026-07-07T12:44:03.000Z</time>
      </trkpt>
      <trkpt lat="47.8152" lon="16.26022">
        <ele>298.703077</ele>
        <time>2026-07-07T12:44:04.000Z</time>
      </trkpt>
      <trkpt lat="47.81521" lon="16.26028">
        <ele>298.703765</ele>
        <time>2026-07-07T12:44:05.000Z</time>
      </trkpt>
      <trkpt lat="47.81522" lon="16.26035">
        <ele>298.704431</ele>
        <time>2026-07-07T12:44:06.000Z</time>
      </trkpt>
      <trkpt lat="47.81523" lon="16.26042">
        <ele>298.705131</ele>
        <time>2026-07-07T12:44:07.000Z</time>
      </trkpt>
      <trkpt lat="47.81523" lon="16.26049">
        <ele>298.705821</ele>
        <time>2026-07-07T12:44:08.000Z</time>
      </trkpt>
      <trkpt lat="47.81524" lon="16.26056">
        <ele>298.706533</ele>
        <time>2026-07-07T12:44:09.000Z</time>
      </trkpt>
      <trkpt lat="47.81525" lon="16.26063">
        <ele>298.707238</ele>
        <time>2026-07-07T12:44:10.000Z</time>
      </trkpt>
      <trkpt lat="47.81526" lon="16.2607">
        <ele>298.70795</ele>
        <time>2026-07-07T12:44:11.000Z</time>
      </trkpt>
      <trkpt lat="47.81526" lon="16.26077">
        <ele>298.708655</ele>
        <time>2026-07-07T12:44:12.000Z</time>
      </trkpt>
      <trkpt lat="47.81526" lon="16.26084">
        <ele>298.709355</ele>
        <time>2026-07-07T12:44:13.000Z</time>
      </trkpt>
      <trkpt lat="47.81526" lon="16.2609">
        <ele>298.710042</ele>
        <time>2026-07-07T12:44:14.000Z</time>
      </trkpt>
      <trkpt lat="47.81525" lon="16.26098">
        <ele>298.710771</ele>
        <time>2026-07-07T12:44:15.000Z</time>
      </trkpt>
      <trkpt lat="47.81524" lon="16.26105">
        <ele>298.711524</ele>
        <time>2026-07-07T12:44:16.000Z</time>
      </trkpt>
      <trkpt lat="47.81524" lon="16.26113">
        <ele>298.712294</ele>
        <time>2026-07-07T12:44:17.000Z</time>
      </trkpt>
      <trkpt lat="47.81525" lon="16.2612">
        <ele>298.713317</ele>
        <time>2026-07-07T12:44:18.000Z</time>
      </trkpt>
      <trkpt lat="47.81526" lon="16.26127">
        <ele>298.71474</ele>
        <time>2026-07-07T12:44:19.000Z</time>
      </trkpt>
      <trkpt lat="47.81527" lon="16.26135">
        <ele>298.716207</ele>
        <time>2026-07-07T12:44:20.000Z</time>
      </trkpt>
      <trkpt lat="47.81529" lon="16.26142">
        <ele>298.71768</ele>
        <time>2026-07-07T12:44:21.000Z</time>
      </trkpt>
      <trkpt lat="47.8153" lon="16.2615">
        <ele>298.719197</ele>
        <time>2026-07-07T12:44:22.000Z</time>
      </trkpt>
      <trkpt lat="47.81531" lon="16.26157">
        <ele>298.720648</ele>
        <time>2026-07-07T12:44:23.000Z</time>
      </trkpt>
      <trkpt lat="47.81532" lon="16.26165">
        <ele>298.722152</ele>
        <time>2026-07-07T12:44:24.000Z</time>
      </trkpt>
      <trkpt lat="47.81533" lon="16.26173">
        <ele>298.723612</ele>
        <time>2026-07-07T12:44:25.000Z</time>
      </trkpt>
      <trkpt lat="47.81535" lon="16.2618">
        <ele>298.725086</ele>
        <time>2026-07-07T12:44:26.000Z</time>
      </trkpt>
      <trkpt lat="47.81536" lon="16.26188">
        <ele>298.726603</ele>
        <time>2026-07-07T12:44:27.000Z</time>
      </trkpt>
      <trkpt lat="47.81536" lon="16.26196">
        <ele>298.728091</ele>
        <time>2026-07-07T12:44:28.000Z</time>
      </trkpt>
      <trkpt lat="47.81537" lon="16.26203">
        <ele>298.729538</ele>
        <time>2026-07-07T12:44:29.000Z</time>
      </trkpt>
      <trkpt lat="47.81538" lon="16.26211">
        <ele>298.730985</ele>
        <time>2026-07-07T12:44:30.000Z</time>
      </trkpt>
      <trkpt lat="47.81538" lon="16.26218">
        <ele>298.732368</ele>
        <time>2026-07-07T12:44:31.000Z</time>
      </trkpt>
      <trkpt lat="47.81539" lon="16.26225">
        <ele>298.733678</ele>
        <time>2026-07-07T12:44:32.000Z</time>
      </trkpt>
      <trkpt lat="47.8154" lon="16.26231">
        <ele>298.735002</ele>
        <time>2026-07-07T12:44:33.000Z</time>
      </trkpt>
      <trkpt lat="47.81541" lon="16.26238">
        <ele>298.736283</ele>
        <time>2026-07-07T12:44:34.000Z</time>
      </trkpt>
      <trkpt lat="47.81542" lon="16.26245">
        <ele>298.737588</ele>
        <time>2026-07-07T12:44:35.000Z</time>
      </trkpt>
      <trkpt lat="47.81543" lon="16.26251">
        <ele>298.738851</ele>
        <time>2026-07-07T12:44:36.000Z</time>
      </trkpt>
      <trkpt lat="47.81544" lon="16.26258">
        <ele>298.740162</ele>
        <time>2026-07-07T12:44:37.000Z</time>
      </trkpt>
      <trkpt lat="47.81545" lon="16.26264">
        <ele>298.741455</ele>
        <time>2026-07-07T12:44:38.000Z</time>
      </trkpt>
      <trkpt lat="47.81545" lon="16.26271">
        <ele>298.742812</ele>
        <time>2026-07-07T12:44:39.000Z</time>
      </trkpt>
      <trkpt lat="47.81546" lon="16.26278">
        <ele>298.744154</ele>
        <time>2026-07-07T12:44:40.000Z</time>
      </trkpt>
      <trkpt lat="47.81547" lon="16.26285">
        <ele>298.745473</ele>
        <time>2026-07-07T12:44:41.000Z</time>
      </trkpt>
      <trkpt lat="47.81548" lon="16.26292">
        <ele>298.746769</ele>
        <time>2026-07-07T12:44:42.000Z</time>
      </trkpt>
      <trkpt lat="47.81549" lon="16.26298">
        <ele>298.748043</ele>
        <time>2026-07-07T12:44:43.000Z</time>
      </trkpt>
      <trkpt lat="47.81549" lon="16.26304">
        <ele>298.749198</ele>
        <time>2026-07-07T12:44:44.000Z</time>
      </trkpt>
      <trkpt lat="47.81549" lon="16.26309">
        <ele>298.750183</ele>
        <time>2026-07-07T12:44:45.000Z</time>
      </trkpt>
      <trkpt lat="47.81547" lon="16.26313">
        <ele>298.75109</ele>
        <time>2026-07-07T12:44:46.000Z</time>
      </trkpt>
      <trkpt lat="47.81544" lon="16.26316">
        <ele>298.752098</ele>
        <time>2026-07-07T12:44:47.000Z</time>
      </trkpt>
      <trkpt lat="47.8154" lon="16.26318">
        <ele>298.753164</ele>
        <time>2026-07-07T12:44:48.000Z</time>
      </trkpt>
      <trkpt lat="47.81536" lon="16.26319">
        <ele>298.754287</ele>
        <time>2026-07-07T12:44:49.000Z</time>
      </trkpt>
      <trkpt lat="47.81532" lon="16.2632">
        <ele>298.755464</ele>
        <time>2026-07-07T12:44:50.000Z</time>
      </trkpt>
      <trkpt lat="47.81528" lon="16.26321">
        <ele>298.756736</ele>
        <time>2026-07-07T12:44:51.000Z</time>
      </trkpt>
      <trkpt lat="47.81523" lon="16.26322">
        <ele>298.758052</ele>
        <time>2026-07-07T12:44:52.000Z</time>
      </trkpt>
      <trkpt lat="47.81519" lon="16.26324">
        <ele>298.75936</ele>
        <time>2026-07-07T12:44:53.000Z</time>
      </trkpt>
      <trkpt lat="47.81514" lon="16.26325">
        <ele>298.760742</ele>
        <time>2026-07-07T12:44:54.000Z</time>
      </trkpt>
      <trkpt lat="47.81509" lon="16.26326">
        <ele>298.762093</ele>
        <time>2026-07-07T12:44:55.000Z</time>
      </trkpt>
      <trkpt lat="47.81505" lon="16.26327">
        <ele>298.763422</ele>
        <time>2026-07-07T12:44:56.000Z</time>
      </trkpt>
      <trkpt lat="47.815" lon="16.26328">
        <ele>298.774014</ele>
        <time>2026-07-07T12:44:57.000Z</time>
      </trkpt>
      <trkpt lat="47.81495" lon="16.26329">
        <ele>298.788947</ele>
        <time>2026-07-07T12:44:58.000Z</time>
      </trkpt>
      <trkpt lat="47.8149" lon="16.26331">
        <ele>298.803978</ele>
        <time>2026-07-07T12:44:59.000Z</time>
      </trkpt>
      <trkpt lat="47.81486" lon="16.26332">
        <ele>298.81888</ele>
        <time>2026-07-07T12:45:00.000Z</time>
      </trkpt>
      <trkpt lat="47.81481" lon="16.26334">
        <ele>298.833134</ele>
        <time>2026-07-07T12:45:01.000Z</time>
      </trkpt>
      <trkpt lat="47.81476" lon="16.26336">
        <ele>298.848139</ele>
        <time>2026-07-07T12:45:02.000Z</time>
      </trkpt>
      <trkpt lat="47.81472" lon="16.26337">
        <ele>298.862693</ele>
        <time>2026-07-07T12:45:03.000Z</time>
      </trkpt>
      <trkpt lat="47.81467" lon="16.26339">
        <ele>298.878194</ele>
        <time>2026-07-07T12:45:04.000Z</time>
      </trkpt>
      <trkpt lat="47.81462" lon="16.2634">
        <ele>298.893226</ele>
        <time>2026-07-07T12:45:05.000Z</time>
      </trkpt>
      <trkpt lat="47.81457" lon="16.26342">
        <ele>298.908336</ele>
        <time>2026-07-07T12:45:06.000Z</time>
      </trkpt>
      <trkpt lat="47.81452" lon="16.26344">
        <ele>298.923838</ele>
        <time>2026-07-07T12:45:07.000Z</time>
      </trkpt>
      <trkpt lat="47.81448" lon="16.26345">
        <ele>298.938491</ele>
        <time>2026-07-07T12:45:08.000Z</time>
      </trkpt>
      <trkpt lat="47.81443" lon="16.26347">
        <ele>298.953393</ele>
        <time>2026-07-07T12:45:09.000Z</time>
      </trkpt>
      <trkpt lat="47.81438" lon="16.26349">
        <ele>298.968295</ele>
        <time>2026-07-07T12:45:10.000Z</time>
      </trkpt>
      <trkpt lat="47.81434" lon="16.26351">
        <ele>298.982948</ele>
        <time>2026-07-07T12:45:11.000Z</time>
      </trkpt>
      <trkpt lat="47.81429" lon="16.26353">
        <ele>298.998128</ele>
        <time>2026-07-07T12:45:12.000Z</time>
      </trkpt>
      <trkpt lat="47.81424" lon="16.26355">
        <ele>299.013246</ele>
        <time>2026-07-07T12:45:13.000Z</time>
      </trkpt>
      <trkpt lat="47.8142" lon="16.26357">
        <ele>299.02801</ele>
        <time>2026-07-07T12:45:14.000Z</time>
      </trkpt>
      <trkpt lat="47.81415" lon="16.26359">
        <ele>299.043909</ele>
        <time>2026-07-07T12:45:15.000Z</time>
      </trkpt>
      <trkpt lat="47.8141" lon="16.2636">
        <ele>299.059244</ele>
        <time>2026-07-07T12:45:16.000Z</time>
      </trkpt>
      <trkpt lat="47.81405" lon="16.26362">
        <ele>299.075045</ele>
        <time>2026-07-07T12:45:17.000Z</time>
      </trkpt>
      <trkpt lat="47.814" lon="16.26364">
        <ele>299.091193</ele>
        <time>2026-07-07T12:45:18.000Z</time>
      </trkpt>
      <trkpt lat="47.81395" lon="16.26365">
        <ele>299.107642</ele>
        <time>2026-07-07T12:45:19.000Z</time>
      </trkpt>
      <trkpt lat="47.8139" lon="16.26367">
        <ele>299.123443</ele>
        <time>2026-07-07T12:45:20.000Z</time>
      </trkpt>
      <trkpt lat="47.81384" lon="16.26369">
        <ele>299.140147</ele>
        <time>2026-07-07T12:45:21.000Z</time>
      </trkpt>
      <trkpt lat="47.81379" lon="16.2637">
        <ele>299.155861</ele>
        <time>2026-07-07T12:45:22.000Z</time>
      </trkpt>
      <trkpt lat="47.81374" lon="16.26372">
        <ele>299.17171</ele>
        <time>2026-07-07T12:45:23.000Z</time>
      </trkpt>
      <trkpt lat="47.81369" lon="16.26374">
        <ele>299.187511</ele>
        <time>2026-07-07T12:45:24.000Z</time>
      </trkpt>
      <trkpt lat="47.81364" lon="16.26375">
        <ele>299.203268</ele>
        <time>2026-07-07T12:45:25.000Z</time>
      </trkpt>
      <trkpt lat="47.81359" lon="16.26377">
        <ele>299.219167</ele>
        <time>2026-07-07T12:45:26.000Z</time>
      </trkpt>
      <trkpt lat="47.81354" lon="16.26379">
        <ele>299.23482</ele>
        <time>2026-07-07T12:45:27.000Z</time>
      </trkpt>
      <trkpt lat="47.8135" lon="16.26381">
        <ele>299.249585</ele>
        <time>2026-07-07T12:45:28.000Z</time>
      </trkpt>
      <trkpt lat="47.81345" lon="16.26383">
        <ele>299.265294</ele>
        <time>2026-07-07T12:45:29.000Z</time>
      </trkpt>
      <trkpt lat="47.8134" lon="16.26386">
        <ele>299.28018</ele>
        <time>2026-07-07T12:45:30.000Z</time>
      </trkpt>
      <trkpt lat="47.81336" lon="16.26388">
        <ele>299.295422</ele>
        <time>2026-07-07T12:45:31.000Z</time>
      </trkpt>
      <trkpt lat="47.81331" lon="16.2639">
        <ele>299.310799</ele>
        <time>2026-07-07T12:45:32.000Z</time>
      </trkpt>
      <trkpt lat="47.81326" lon="16.26393">
        <ele>299.336019</ele>
        <time>2026-07-07T12:45:33.000Z</time>
      </trkpt>
      <trkpt lat="47.81321" lon="16.26394">
        <ele>299.368718</ele>
        <time>2026-07-07T12:45:34.000Z</time>
      </trkpt>
      <trkpt lat="47.81317" lon="16.26396">
        <ele>299.401006</ele>
        <time>2026-07-07T12:45:35.000Z</time>
      </trkpt>
      <trkpt lat="47.81312" lon="16.26399">
        <ele>299.432579</ele>
        <time>2026-07-07T12:45:36.000Z</time>
      </trkpt>
      <trkpt lat="47.81308" lon="16.26402">
        <ele>299.465799</ele>
        <time>2026-07-07T12:45:37.000Z</time>
      </trkpt>
      <trkpt lat="47.81304" lon="16.26405">
        <ele>299.497421</ele>
        <time>2026-07-07T12:45:38.000Z</time>
      </trkpt>
      <trkpt lat="47.81299" lon="16.26407">
        <ele>299.529782</ele>
        <time>2026-07-07T12:45:39.000Z</time>
      </trkpt>
      <trkpt lat="47.81295" lon="16.2641">
        <ele>299.562144</ele>
        <time>2026-07-07T12:45:40.000Z</time>
      </trkpt>
      <trkpt lat="47.8129" lon="16.26412">
        <ele>299.594057</ele>
        <time>2026-07-07T12:45:41.000Z</time>
      </trkpt>
      <trkpt lat="47.81286" lon="16.26413">
        <ele>299.624942</ele>
        <time>2026-07-07T12:45:42.000Z</time>
      </trkpt>
      <trkpt lat="47.81281" lon="16.26414">
        <ele>299.654419</ele>
        <time>2026-07-07T12:45:43.000Z</time>
      </trkpt>
      <trkpt lat="47.81277" lon="16.26416">
        <ele>299.684644</ele>
        <time>2026-07-07T12:45:44.000Z</time>
      </trkpt>
      <trkpt lat="47.81273" lon="16.26417">
        <ele>299.71462</ele>
        <time>2026-07-07T12:45:45.000Z</time>
      </trkpt>
      <trkpt lat="47.81268" lon="16.26419">
        <ele>299.745691</ele>
        <time>2026-07-07T12:45:46.000Z</time>
      </trkpt>
      <trkpt lat="47.81264" lon="16.2642">
        <ele>299.775554</ele>
        <time>2026-07-07T12:45:47.000Z</time>
      </trkpt>
      <trkpt lat="47.81259" lon="16.26422">
        <ele>299.806835</ele>
        <time>2026-07-07T12:45:48.000Z</time>
      </trkpt>
      <trkpt lat="47.81255" lon="16.26424">
        <ele>299.838116</ele>
        <time>2026-07-07T12:45:49.000Z</time>
      </trkpt>
      <trkpt lat="47.8125" lon="16.26425">
        <ele>299.86853</ele>
        <time>2026-07-07T12:45:50.000Z</time>
      </trkpt>
      <trkpt lat="47.81246" lon="16.26427">
        <ele>299.898287</ele>
        <time>2026-07-07T12:45:51.000Z</time>
      </trkpt>
      <trkpt lat="47.81242" lon="16.26428">
        <ele>299.929357</ele>
        <time>2026-07-07T12:45:52.000Z</time>
      </trkpt>
      <trkpt lat="47.81237" lon="16.2643">
        <ele>299.959114</ele>
        <time>2026-07-07T12:45:53.000Z</time>
      </trkpt>
      <trkpt lat="47.81233" lon="16.26431">
        <ele>299.990185</ele>
        <time>2026-07-07T12:45:54.000Z</time>
      </trkpt>
      <trkpt lat="47.81228" lon="16.26433">
        <ele>300.021256</ele>
        <time>2026-07-07T12:45:55.000Z</time>
      </trkpt>
      <trkpt lat="47.81224" lon="16.26434">
        <ele>300.052428</ele>
        <time>2026-07-07T12:45:56.000Z</time>
      </trkpt>
      <trkpt lat="47.81219" lon="16.26436">
        <ele>300.082744</ele>
        <time>2026-07-07T12:45:57.000Z</time>
      </trkpt>
      <trkpt lat="47.81215" lon="16.26437">
        <ele>300.113815</ele>
        <time>2026-07-07T12:45:58.000Z</time>
      </trkpt>
      <trkpt lat="47.8121" lon="16.26439">
        <ele>300.145362</ele>
        <time>2026-07-07T12:45:59.000Z</time>
      </trkpt>
      <trkpt lat="47.81206" lon="16.2644">
        <ele>300.177572</ele>
        <time>2026-07-07T12:46:00.000Z</time>
      </trkpt>
      <trkpt lat="47.81201" lon="16.26441">
        <ele>300.209959</ele>
        <time>2026-07-07T12:46:01.000Z</time>
      </trkpt>
      <trkpt lat="47.81196" lon="16.26443">
        <ele>300.241893</ele>
        <time>2026-07-07T12:46:02.000Z</time>
      </trkpt>
      <trkpt lat="47.81192" lon="16.26445">
        <ele>300.273174</ele>
        <time>2026-07-07T12:46:03.000Z</time>
      </trkpt>
      <trkpt lat="47.81187" lon="16.26446">
        <ele>300.303691</ele>
        <time>2026-07-07T12:46:04.000Z</time>
      </trkpt>
      <trkpt lat="47.81183" lon="16.26448">
        <ele>300.334762</ele>
        <time>2026-07-07T12:46:05.000Z</time>
      </trkpt>
      <trkpt lat="47.81178" lon="16.26449">
        <ele>300.365833</ele>
        <time>2026-07-07T12:46:06.000Z</time>
      </trkpt>
      <trkpt lat="47.81174" lon="16.26451">
        <ele>300.39559</ele>
        <time>2026-07-07T12:46:07.000Z</time>
      </trkpt>
      <trkpt lat="47.8117" lon="16.26453">
        <ele>300.425566</ele>
        <time>2026-07-07T12:46:08.000Z</time>
      </trkpt>
      <trkpt lat="47.81165" lon="16.26454">
        <ele>300.455791</ele>
        <time>2026-07-07T12:46:09.000Z</time>
      </trkpt>
      <trkpt lat="47.81161" lon="16.26456">
        <ele>300.485767</ele>
        <time>2026-07-07T12:46:10.000Z</time>
      </trkpt>
      <trkpt lat="47.81157" lon="16.26457">
        <ele>300.516838</ele>
        <time>2026-07-07T12:46:11.000Z</time>
      </trkpt>
      <trkpt lat="47.81152" lon="16.26458">
        <ele>300.544843</ele>
        <time>2026-07-07T12:46:12.000Z</time>
      </trkpt>
      <trkpt lat="47.81148" lon="16.2646">
        <ele>300.570794</ele>
        <time>2026-07-07T12:46:13.000Z</time>
      </trkpt>
      <trkpt lat="47.81143" lon="16.26461">
        <ele>300.597781</ele>
        <time>2026-07-07T12:46:14.000Z</time>
      </trkpt>
      <trkpt lat="47.81138" lon="16.26462">
        <ele>300.624212</ele>
        <time>2026-07-07T12:46:15.000Z</time>
      </trkpt>
      <trkpt lat="47.81134" lon="16.26464">
        <ele>300.651347</ele>
        <time>2026-07-07T12:46:16.000Z</time>
      </trkpt>
      <trkpt lat="47.81129" lon="16.26465">
        <ele>300.678482</ele>
        <time>2026-07-07T12:46:17.000Z</time>
      </trkpt>
      <trkpt lat="47.81124" lon="16.26467">
        <ele>300.705238</ele>
        <time>2026-07-07T12:46:18.000Z</time>
      </trkpt>
      <trkpt lat="47.8112" lon="16.26469">
        <ele>300.73127</ele>
        <time>2026-07-07T12:46:19.000Z</time>
      </trkpt>
      <trkpt lat="47.81115" lon="16.2647">
        <ele>300.758574</ele>
        <time>2026-07-07T12:46:20.000Z</time>
      </trkpt>
      <trkpt lat="47.81111" lon="16.26472">
        <ele>300.784606</ele>
        <time>2026-07-07T12:46:21.000Z</time>
      </trkpt>
      <trkpt lat="47.81106" lon="16.26473">
        <ele>300.810291</ele>
        <time>2026-07-07T12:46:22.000Z</time>
      </trkpt>
      <trkpt lat="47.81102" lon="16.26474">
        <ele>300.835975</ele>
        <time>2026-07-07T12:46:23.000Z</time>
      </trkpt>
      <trkpt lat="47.81097" lon="16.26475">
        <ele>300.862681</ele>
        <time>2026-07-07T12:46:24.000Z</time>
      </trkpt>
      <trkpt lat="47.81092" lon="16.26476">
        <ele>300.888365</ele>
        <time>2026-07-07T12:46:25.000Z</time>
      </trkpt>
      <trkpt lat="47.81088" lon="16.26477">
        <ele>300.914797</ele>
        <time>2026-07-07T12:46:26.000Z</time>
      </trkpt>
      <trkpt lat="47.81083" lon="16.26478">
        <ele>300.941599</ele>
        <time>2026-07-07T12:46:27.000Z</time>
      </trkpt>
      <trkpt lat="47.81079" lon="16.26479">
        <ele>300.96723</ele>
        <time>2026-07-07T12:46:28.000Z</time>
      </trkpt>
      <trkpt lat="47.81074" lon="16.2648">
        <ele>300.994646</ele>
        <time>2026-07-07T12:46:29.000Z</time>
      </trkpt>
      <trkpt lat="47.81069" lon="16.26481">
        <ele>301.021448</ele>
        <time>2026-07-07T12:46:30.000Z</time>
      </trkpt>
      <trkpt lat="47.81064" lon="16.26482">
        <ele>301.048368</ele>
        <time>2026-07-07T12:46:31.000Z</time>
      </trkpt>
      <trkpt lat="47.8106" lon="16.26483">
        <ele>301.074611</ele>
        <time>2026-07-07T12:46:32.000Z</time>
      </trkpt>
      <trkpt lat="47.81055" lon="16.26484">
        <ele>301.10153</ele>
        <time>2026-07-07T12:46:33.000Z</time>
      </trkpt>
      <trkpt lat="47.8105" lon="16.26486">
        <ele>301.129072</ele>
        <time>2026-07-07T12:46:34.000Z</time>
      </trkpt>
      <trkpt lat="47.81045" lon="16.26487">
        <ele>301.156992</ele>
        <time>2026-07-07T12:46:35.000Z</time>
      </trkpt>
      <trkpt lat="47.8104" lon="16.26488">
        <ele>301.185471</ele>
        <time>2026-07-07T12:46:36.000Z</time>
      </trkpt>
      <trkpt lat="47.81036" lon="16.26489">
        <ele>301.212948</ele>
        <time>2026-07-07T12:46:37.000Z</time>
      </trkpt>
      <trkpt lat="47.81031" lon="16.2649">
        <ele>301.24148</ele>
        <time>2026-07-07T12:46:38.000Z</time>
      </trkpt>
      <trkpt lat="47.81026" lon="16.26491">
        <ele>301.269092</ele>
        <time>2026-07-07T12:46:39.000Z</time>
      </trkpt>
      <trkpt lat="47.81021" lon="16.26492">
        <ele>301.297624</ele>
        <time>2026-07-07T12:46:40.000Z</time>
      </trkpt>
      <trkpt lat="47.81016" lon="16.26494">
        <ele>301.325657</ele>
        <time>2026-07-07T12:46:41.000Z</time>
      </trkpt>
      <trkpt lat="47.81011" lon="16.26495">
        <ele>301.354247</ele>
        <time>2026-07-07T12:46:42.000Z</time>
      </trkpt>
      <trkpt lat="47.81006" lon="16.26496">
        <ele>301.38278</ele>
        <time>2026-07-07T12:46:43.000Z</time>
      </trkpt>
      <trkpt lat="47.81001" lon="16.26497">
        <ele>301.41137</ele>
        <time>2026-07-07T12:46:44.000Z</time>
      </trkpt>
      <trkpt lat="47.80996" lon="16.26498">
        <ele>301.43996</ele>
        <time>2026-07-07T12:46:45.000Z</time>
      </trkpt>
      <trkpt lat="47.80991" lon="16.26499">
        <ele>301.467226</ele>
        <time>2026-07-07T12:46:46.000Z</time>
      </trkpt>
      <trkpt lat="47.80986" lon="16.265">
        <ele>301.495577</ele>
        <time>2026-07-07T12:46:47.000Z</time>
      </trkpt>
      <trkpt lat="47.80981" lon="16.265">
        <ele>301.523826</ele>
        <time>2026-07-07T12:46:48.000Z</time>
      </trkpt>
      <trkpt lat="47.80976" lon="16.265">
        <ele>301.550886</ele>
        <time>2026-07-07T12:46:49.000Z</time>
      </trkpt>
      <trkpt lat="47.80971" lon="16.26501">
        <ele>301.573248</ele>
        <time>2026-07-07T12:46:50.000Z</time>
      </trkpt>
      <trkpt lat="47.80966" lon="16.26501">
        <ele>301.596042</ele>
        <time>2026-07-07T12:46:51.000Z</time>
      </trkpt>
      <trkpt lat="47.80962" lon="16.26501">
        <ele>301.618377</ele>
        <time>2026-07-07T12:46:52.000Z</time>
      </trkpt>
      <trkpt lat="47.80957" lon="16.26501">
        <ele>301.640248</ele>
        <time>2026-07-07T12:46:53.000Z</time>
      </trkpt>
      <trkpt lat="47.80952" lon="16.26501">
        <ele>301.661646</ele>
        <time>2026-07-07T12:46:54.000Z</time>
      </trkpt>
      <trkpt lat="47.80947" lon="16.26501">
        <ele>301.684438</ele>
        <time>2026-07-07T12:46:55.000Z</time>
      </trkpt>
      <trkpt lat="47.80943" lon="16.26501">
        <ele>301.705837</ele>
        <time>2026-07-07T12:46:56.000Z</time>
      </trkpt>
      <trkpt lat="47.80938" lon="16.26501">
        <ele>301.728637</ele>
        <time>2026-07-07T12:46:57.000Z</time>
      </trkpt>
      <trkpt lat="47.80933" lon="16.26501">
        <ele>301.750972</ele>
        <time>2026-07-07T12:46:58.000Z</time>
      </trkpt>
      <trkpt lat="47.80928" lon="16.26501">
        <ele>301.773301</ele>
        <time>2026-07-07T12:46:59.000Z</time>
      </trkpt>
      <trkpt lat="47.80923" lon="16.26501">
        <ele>301.796101</ele>
        <time>2026-07-07T12:47:00.000Z</time>
      </trkpt>
      <trkpt lat="47.80918" lon="16.265">
        <ele>301.819367</ele>
        <time>2026-07-07T12:47:01.000Z</time>
      </trkpt>
      <trkpt lat="47.80913" lon="16.265">
        <ele>301.842626</ele>
        <time>2026-07-07T12:47:02.000Z</time>
      </trkpt>
      <trkpt lat="47.80909" lon="16.265">
        <ele>301.864961</ele>
        <time>2026-07-07T12:47:03.000Z</time>
      </trkpt>
      <trkpt lat="47.80904" lon="16.265">
        <ele>301.887307</ele>
        <time>2026-07-07T12:47:04.000Z</time>
      </trkpt>
      <trkpt lat="47.80899" lon="16.265">
        <ele>301.910108</ele>
        <time>2026-07-07T12:47:05.000Z</time>
      </trkpt>
      <trkpt lat="47.80894" lon="16.26499">
        <ele>301.933373</ele>
        <time>2026-07-07T12:47:06.000Z</time>
      </trkpt>
      <trkpt lat="47.80889" lon="16.26499">
        <ele>301.956682</ele>
        <time>2026-07-07T12:47:07.000Z</time>
      </trkpt>
      <trkpt lat="47.80884" lon="16.26499">
        <ele>301.979958</ele>
        <time>2026-07-07T12:47:08.000Z</time>
      </trkpt>
      <trkpt lat="47.80879" lon="16.26498">
        <ele>302.002293</ele>
        <time>2026-07-07T12:47:09.000Z</time>
      </trkpt>
      <trkpt lat="47.80874" lon="16.26498">
        <ele>302.02462</ele>
        <time>2026-07-07T12:47:10.000Z</time>
      </trkpt>
      <trkpt lat="47.80869" lon="16.26498">
        <ele>302.047877</ele>
        <time>2026-07-07T12:47:11.000Z</time>
      </trkpt>
      <trkpt lat="47.80864" lon="16.26499">
        <ele>302.070703</ele>
        <time>2026-07-07T12:47:12.000Z</time>
      </trkpt>
      <trkpt lat="47.80859" lon="16.26499">
        <ele>302.093978</ele>
        <time>2026-07-07T12:47:13.000Z</time>
      </trkpt>
      <trkpt lat="47.80854" lon="16.26499">
        <ele>302.117709</ele>
        <time>2026-07-07T12:47:14.000Z</time>
      </trkpt>
      <trkpt lat="47.80849" lon="16.26499">
        <ele>302.141896</ele>
        <time>2026-07-07T12:47:15.000Z</time>
      </trkpt>
      <trkpt lat="47.80844" lon="16.265">
        <ele>302.165172</ele>
        <time>2026-07-07T12:47:16.000Z</time>
      </trkpt>
      <trkpt lat="47.80839" lon="16.265">
        <ele>302.189409</ele>
        <time>2026-07-07T12:47:17.000Z</time>
      </trkpt>
      <trkpt lat="47.80834" lon="16.26501">
        <ele>302.213232</ele>
        <time>2026-07-07T12:47:18.000Z</time>
      </trkpt>
      <trkpt lat="47.80829" lon="16.26501">
        <ele>302.236541</ele>
        <time>2026-07-07T12:47:19.000Z</time>
      </trkpt>
      <trkpt lat="47.80824" lon="16.26502">
        <ele>302.260779</ele>
        <time>2026-07-07T12:47:20.000Z</time>
      </trkpt>
      <trkpt lat="47.80819" lon="16.26502">
        <ele>302.284111</ele>
        <time>2026-07-07T12:47:21.000Z</time>
      </trkpt>
      <trkpt lat="47.80813" lon="16.26503">
        <ele>302.308348</ele>
        <time>2026-07-07T12:47:22.000Z</time>
      </trkpt>
      <trkpt lat="47.80808" lon="16.26503">
        <ele>302.331658</ele>
        <time>2026-07-07T12:47:23.000Z</time>
      </trkpt>
      <trkpt lat="47.80803" lon="16.26504">
        <ele>302.355017</ele>
        <time>2026-07-07T12:47:24.000Z</time>
      </trkpt>
      <trkpt lat="47.80799" lon="16.26505">
        <ele>302.377451</ele>
        <time>2026-07-07T12:47:25.000Z</time>
      </trkpt>
      <trkpt lat="47.80794" lon="16.26505">
        <ele>302.384292</ele>
        <time>2026-07-07T12:47:26.000Z</time>
      </trkpt>
      <trkpt lat="47.80789" lon="16.26505">
        <ele>302.387347</ele>
        <time>2026-07-07T12:47:27.000Z</time>
      </trkpt>
      <trkpt lat="47.80784" lon="16.26506">
        <ele>302.390409</ele>
        <time>2026-07-07T12:47:28.000Z</time>
      </trkpt>
      <trkpt lat="47.80779" lon="16.26507">
        <ele>302.393478</ele>
        <time>2026-07-07T12:47:29.000Z</time>
      </trkpt>
      <trkpt lat="47.80774" lon="16.26507">
        <ele>302.396668</ele>
        <time>2026-07-07T12:47:30.000Z</time>
      </trkpt>
      <trkpt lat="47.80768" lon="16.26508">
        <ele>302.399848</ele>
        <time>2026-07-07T12:47:31.000Z</time>
      </trkpt>
      <trkpt lat="47.80763" lon="16.26508">
        <ele>302.402965</ele>
        <time>2026-07-07T12:47:32.000Z</time>
      </trkpt>
      <trkpt lat="47.80758" lon="16.26508">
        <ele>302.406144</ele>
        <time>2026-07-07T12:47:33.000Z</time>
      </trkpt>
      <trkpt lat="47.80753" lon="16.26508">
        <ele>302.4092</ele>
        <time>2026-07-07T12:47:34.000Z</time>
      </trkpt>
      <trkpt lat="47.80748" lon="16.26508">
        <ele>302.412255</ele>
        <time>2026-07-07T12:47:35.000Z</time>
      </trkpt>
      <trkpt lat="47.80743" lon="16.26508">
        <ele>302.41531</ele>
        <time>2026-07-07T12:47:36.000Z</time>
      </trkpt>
      <trkpt lat="47.80738" lon="16.26508">
        <ele>302.418244</ele>
        <time>2026-07-07T12:47:37.000Z</time>
      </trkpt>
      <trkpt lat="47.80733" lon="16.26508">
        <ele>302.421245</ele>
        <time>2026-07-07T12:47:38.000Z</time>
      </trkpt>
      <trkpt lat="47.80728" lon="16.26507">
        <ele>302.424314</ele>
        <time>2026-07-07T12:47:39.000Z</time>
      </trkpt>
      <trkpt lat="47.80723" lon="16.26506">
        <ele>302.427396</ele>
        <time>2026-07-07T12:47:40.000Z</time>
      </trkpt>
      <trkpt lat="47.80718" lon="16.26505">
        <ele>302.430545</ele>
        <time>2026-07-07T12:47:41.000Z</time>
      </trkpt>
      <trkpt lat="47.80713" lon="16.26503">
        <ele>302.433661</ele>
        <time>2026-07-07T12:47:42.000Z</time>
      </trkpt>
      <trkpt lat="47.80708" lon="16.26502">
        <ele>302.436898</ele>
        <time>2026-07-07T12:47:43.000Z</time>
      </trkpt>
      <trkpt lat="47.80703" lon="16.265">
        <ele>302.440051</ele>
        <time>2026-07-07T12:47:44.000Z</time>
      </trkpt>
      <trkpt lat="47.80698" lon="16.26498">
        <ele>302.443225</ele>
        <time>2026-07-07T12:47:45.000Z</time>
      </trkpt>
      <trkpt lat="47.80693" lon="16.26495">
        <ele>302.446274</ele>
        <time>2026-07-07T12:47:46.000Z</time>
      </trkpt>
      <trkpt lat="47.80689" lon="16.26492">
        <ele>302.449287</ele>
        <time>2026-07-07T12:47:47.000Z</time>
      </trkpt>
      <trkpt lat="47.80685" lon="16.26489">
        <ele>302.452122</ele>
        <time>2026-07-07T12:47:48.000Z</time>
      </trkpt>
      <trkpt lat="47.80681" lon="16.26485">
        <ele>302.454896</ele>
        <time>2026-07-07T12:47:49.000Z</time>
      </trkpt>
      <trkpt lat="47.80678" lon="16.26481">
        <ele>302.457518</ele>
        <time>2026-07-07T12:47:50.000Z</time>
      </trkpt>
      <trkpt lat="47.80674" lon="16.26477">
        <ele>302.460118</ele>
        <time>2026-07-07T12:47:51.000Z</time>
      </trkpt>
      <trkpt lat="47.80671" lon="16.26473">
        <ele>302.462698</ele>
        <time>2026-07-07T12:47:52.000Z</time>
      </trkpt>
      <trkpt lat="47.80668" lon="16.26469">
        <ele>302.465405</ele>
        <time>2026-07-07T12:47:53.000Z</time>
      </trkpt>
      <trkpt lat="47.80665" lon="16.26465">
        <ele>302.467848</ele>
        <time>2026-07-07T12:47:54.000Z</time>
      </trkpt>
      <trkpt lat="47.80663" lon="16.2646">
        <ele>302.470062</ele>
        <time>2026-07-07T12:47:55.000Z</time>
      </trkpt>
      <trkpt lat="47.80662" lon="16.26455">
        <ele>302.472106</ele>
        <time>2026-07-07T12:47:56.000Z</time>
      </trkpt>
      <trkpt lat="47.80662" lon="16.2645">
        <ele>302.474364</ele>
        <time>2026-07-07T12:47:57.000Z</time>
      </trkpt>
      <trkpt lat="47.80662" lon="16.26444">
        <ele>302.476663</ele>
        <time>2026-07-07T12:47:58.000Z</time>
      </trkpt>
      <trkpt lat="47.80661" lon="16.26438">
        <ele>302.479231</ele>
        <time>2026-07-07T12:47:59.000Z</time>
      </trkpt>
      <trkpt lat="47.80658" lon="16.26433">
        <ele>302.481789</ele>
        <time>2026-07-07T12:48:00.000Z</time>
      </trkpt>
      <trkpt lat="47.80656" lon="16.26429">
        <ele>302.484337</ele>
        <time>2026-07-07T12:48:01.000Z</time>
      </trkpt>
      <trkpt lat="47.8065" lon="16.2642">
        <ele>302.489367</ele>
        <time>2026-07-07T12:48:02.000Z</time>
      </trkpt>
      <trkpt lat="47.80647" lon="16.26416">
        <ele>302.491934</ele>
        <time>2026-07-07T12:48:04.000Z</time>
      </trkpt>
      <trkpt lat="47.80641" lon="16.26407">
        <ele>302.508362</ele>
        <time>2026-07-07T12:48:05.000Z</time>
      </trkpt>
      <trkpt lat="47.80639" lon="16.26402">
        <ele>302.516608</ele>
        <time>2026-07-07T12:48:07.000Z</time>
      </trkpt>
      <trkpt lat="47.80639" lon="16.26397">
        <ele>302.524539</ele>
        <time>2026-07-07T12:48:08.000Z</time>
      </trkpt>
      <trkpt lat="47.80639" lon="16.26391">
        <ele>302.532709</ele>
        <time>2026-07-07T12:48:09.000Z</time>
      </trkpt>
      <trkpt lat="47.80643" lon="16.2638">
        <ele>302.549248</ele>
        <time>2026-07-07T12:48:10.000Z</time>
      </trkpt>
      <trkpt lat="47.80644" lon="16.26374">
        <ele>302.557852</ele>
        <time>2026-07-07T12:48:11.000Z</time>
      </trkpt>
      <trkpt lat="47.80646" lon="16.26369">
        <ele>302.566042</ele>
        <time>2026-07-07T12:48:12.000Z</time>
      </trkpt>
      <trkpt lat="47.80648" lon="16.26363">
        <ele>302.574733</ele>
        <time>2026-07-07T12:48:13.000Z</time>
      </trkpt>
      <trkpt lat="47.80649" lon="16.26358">
        <ele>302.582927</ele>
        <time>2026-07-07T12:48:14.000Z</time>
      </trkpt>
      <trkpt lat="47.80651" lon="16.26352">
        <ele>302.59146</ele>
        <time>2026-07-07T12:48:15.000Z</time>
      </trkpt>
      <trkpt lat="47.80653" lon="16.26347">
        <ele>302.599729</ele>
        <time>2026-07-07T12:48:16.000Z</time>
      </trkpt>
      <trkpt lat="47.80655" lon="16.26341">
        <ele>302.608334</ele>
        <time>2026-07-07T12:48:17.000Z</time>
      </trkpt>
      <trkpt lat="47.80656" lon="16.26335">
        <ele>302.616652</ele>
        <time>2026-07-07T12:48:18.000Z</time>
      </trkpt>
      <trkpt lat="47.80658" lon="16.2633">
        <ele>302.625005</ele>
        <time>2026-07-07T12:48:19.000Z</time>
      </trkpt>
      <trkpt lat="47.80659" lon="16.26325">
        <ele>302.632897</ele>
        <time>2026-07-07T12:48:20.000Z</time>
      </trkpt>
      <trkpt lat="47.80661" lon="16.2632">
        <ele>302.640452</ele>
        <time>2026-07-07T12:48:21.000Z</time>
      </trkpt>
      <trkpt lat="47.80662" lon="16.26315">
        <ele>302.647132</ele>
        <time>2026-07-07T12:48:22.000Z</time>
      </trkpt>
      <trkpt lat="47.80663" lon="16.26311">
        <ele>302.652495</ele>
        <time>2026-07-07T12:48:23.000Z</time>
      </trkpt>
      <trkpt lat="47.80663" lon="16.26309">
        <ele>302.655999</ele>
        <time>2026-07-07T12:48:24.000Z</time>
      </trkpt>
      <trkpt lat="47.80662" lon="16.26308">
        <ele>302.657991</ele>
        <time>2026-07-07T12:48:25.000Z</time>
      </trkpt>
      <trkpt lat="47.80662" lon="16.26308">
        <ele>302.657991</ele>
        <time>2026-07-07T12:48:26.000Z</time>
      </trkpt>
      <trkpt lat="47.80654" lon="16.26301">
        <ele>302.6767</ele>
        <time>2026-07-07T12:49:42.000Z</time>
      </trkpt>
      <trkpt lat="47.80652" lon="16.26298">
        <ele>302.682385</ele>
        <time>2026-07-07T12:49:43.000Z</time>
      </trkpt>
      <trkpt lat="47.8065" lon="16.26296">
        <ele>302.687457</ele>
        <time>2026-07-07T12:49:44.000Z</time>
      </trkpt>
      <trkpt lat="47.80649" lon="16.26292">
        <ele>302.692705</ele>
        <time>2026-07-07T12:49:45.000Z</time>
      </trkpt>
      <trkpt lat="47.80648" lon="16.26288">
        <ele>302.698593</ele>
        <time>2026-07-07T12:49:46.000Z</time>
      </trkpt>
      <trkpt lat="47.80647" lon="16.26283">
        <ele>302.705336</ele>
        <time>2026-07-07T12:49:47.000Z</time>
      </trkpt>
      <trkpt lat="47.80646" lon="16.26279">
        <ele>302.712483</ele>
        <time>2026-07-07T12:49:48.000Z</time>
      </trkpt>
      <trkpt lat="47.80643" lon="16.26275">
        <ele>302.720022</ele>
        <time>2026-07-07T12:49:49.000Z</time>
      </trkpt>
      <trkpt lat="47.8064" lon="16.26271">
        <ele>302.727767</ele>
        <time>2026-07-07T12:49:50.000Z</time>
      </trkpt>
      <trkpt lat="47.80637" lon="16.26268">
        <ele>302.735957</ele>
        <time>2026-07-07T12:49:51.000Z</time>
      </trkpt>
      <trkpt lat="47.80634" lon="16.26265">
        <ele>302.74428</ele>
        <time>2026-07-07T12:49:52.000Z</time>
      </trkpt>
      <trkpt lat="47.8063" lon="16.26261">
        <ele>302.752935</ele>
        <time>2026-07-07T12:49:53.000Z</time>
      </trkpt>
      <trkpt lat="47.80627" lon="16.26257">
        <ele>302.761668</ele>
        <time>2026-07-07T12:49:54.000Z</time>
      </trkpt>
      <trkpt lat="47.80623" lon="16.26253">
        <ele>302.770566</ele>
        <time>2026-07-07T12:49:55.000Z</time>
      </trkpt>
      <trkpt lat="47.8062" lon="16.26249">
        <ele>302.77963</ele>
        <time>2026-07-07T12:49:56.000Z</time>
      </trkpt>
      <trkpt lat="47.80616" lon="16.26245">
        <ele>302.788857</ele>
        <time>2026-07-07T12:49:57.000Z</time>
      </trkpt>
      <trkpt lat="47.80613" lon="16.26241">
        <ele>302.79817</ele>
        <time>2026-07-07T12:49:58.000Z</time>
      </trkpt>
      <trkpt lat="47.80609" lon="16.26238">
        <ele>302.806908</ele>
        <time>2026-07-07T12:49:59.000Z</time>
      </trkpt>
      <trkpt lat="47.80606" lon="16.26234">
        <ele>302.815726</ele>
        <time>2026-07-07T12:50:00.000Z</time>
      </trkpt>
      <trkpt lat="47.80602" lon="16.2623">
        <ele>302.825119</ele>
        <time>2026-07-07T12:50:01.000Z</time>
      </trkpt>
      <trkpt lat="47.80598" lon="16.26226">
        <ele>302.834353</ele>
        <time>2026-07-07T12:50:02.000Z</time>
      </trkpt>
      <trkpt lat="47.80595" lon="16.26222">
        <ele>302.842871</ele>
        <time>2026-07-07T12:50:03.000Z</time>
      </trkpt>
      <trkpt lat="47.80592" lon="16.26218">
        <ele>302.851934</ele>
        <time>2026-07-07T12:50:04.000Z</time>
      </trkpt>
      <trkpt lat="47.80588" lon="16.26214">
        <ele>302.86169</ele>
        <time>2026-07-07T12:50:05.000Z</time>
      </trkpt>
      <trkpt lat="47.80584" lon="16.26209">
        <ele>302.882221</ele>
        <time>2026-07-07T12:50:06.000Z</time>
      </trkpt>
      <trkpt lat="47.80581" lon="16.26206">
        <ele>302.901335</ele>
        <time>2026-07-07T12:50:07.000Z</time>
      </trkpt>
      <trkpt lat="47.80577" lon="16.26202">
        <ele>302.920805</ele>
        <time>2026-07-07T12:50:08.000Z</time>
      </trkpt>
      <trkpt lat="47.80574" lon="16.26197">
        <ele>302.941211</ele>
        <time>2026-07-07T12:50:09.000Z</time>
      </trkpt>
      <trkpt lat="47.8057" lon="16.26193">
        <ele>302.961617</ele>
        <time>2026-07-07T12:50:10.000Z</time>
      </trkpt>
      <trkpt lat="47.80567" lon="16.26188">
        <ele>302.982358</ele>
        <time>2026-07-07T12:50:11.000Z</time>
      </trkpt>
      <trkpt lat="47.80563" lon="16.26184">
        <ele>303.004481</ele>
        <time>2026-07-07T12:50:12.000Z</time>
      </trkpt>
      <trkpt lat="47.80559" lon="16.26179">
        <ele>303.026253</ele>
        <time>2026-07-07T12:50:13.000Z</time>
      </trkpt>
      <trkpt lat="47.80555" lon="16.26174">
        <ele>303.048053</ele>
        <time>2026-07-07T12:50:14.000Z</time>
      </trkpt>
      <trkpt lat="47.80551" lon="16.2617">
        <ele>303.070175</ele>
        <time>2026-07-07T12:50:15.000Z</time>
      </trkpt>
      <trkpt lat="47.80547" lon="16.26165">
        <ele>303.091786</ele>
        <time>2026-07-07T12:50:16.000Z</time>
      </trkpt>
      <trkpt lat="47.80543" lon="16.26161">
        <ele>303.113385</ele>
        <time>2026-07-07T12:50:18.000Z</time>
      </trkpt>
      <trkpt lat="47.80539" lon="16.26157">
        <ele>303.135155</ele>
        <time>2026-07-07T12:50:19.000Z</time>
      </trkpt>
      <trkpt lat="47.80535" lon="16.26152">
        <ele>303.157278</ele>
        <time>2026-07-07T12:50:20.000Z</time>
      </trkpt>
      <trkpt lat="47.80531" lon="16.26148">
        <ele>303.179419</ele>
        <time>2026-07-07T12:50:21.000Z</time>
      </trkpt>
      <trkpt lat="47.80527" lon="16.26143">
        <ele>303.201904</ele>
        <time>2026-07-07T12:50:22.000Z</time>
      </trkpt>
      <trkpt lat="47.80523" lon="16.26138">
        <ele>303.224574</ele>
        <time>2026-07-07T12:50:23.000Z</time>
      </trkpt>
      <trkpt lat="47.80519" lon="16.26134">
        <ele>303.24705</ele>
        <time>2026-07-07T12:50:24.000Z</time>
      </trkpt>
      <trkpt lat="47.80515" lon="16.26129">
        <ele>303.269173</ele>
        <time>2026-07-07T12:50:25.000Z</time>
      </trkpt>
      <trkpt lat="47.80511" lon="16.26125">
        <ele>303.291296</ele>
        <time>2026-07-07T12:50:26.000Z</time>
      </trkpt>
      <trkpt lat="47.80507" lon="16.2612">
        <ele>303.31448</ele>
        <time>2026-07-07T12:50:27.000Z</time>
      </trkpt>
      <trkpt lat="47.80503" lon="16.26115">
        <ele>303.337313</ele>
        <time>2026-07-07T12:50:28.000Z</time>
      </trkpt>
      <trkpt lat="47.80499" lon="16.26111">
        <ele>303.359967</ele>
        <time>2026-07-07T12:50:29.000Z</time>
      </trkpt>
      <trkpt lat="47.80494" lon="16.26106">
        <ele>303.383723</ele>
        <time>2026-07-07T12:50:30.000Z</time>
      </trkpt>
      <trkpt lat="47.8049" lon="16.26102">
        <ele>303.407087</ele>
        <time>2026-07-07T12:50:31.000Z</time>
      </trkpt>
      <trkpt lat="47.80486" lon="16.26097">
        <ele>303.43045</ele>
        <time>2026-07-07T12:50:32.000Z</time>
      </trkpt>
      <trkpt lat="47.80482" lon="16.26092">
        <ele>303.453307</ele>
        <time>2026-07-07T12:50:33.000Z</time>
      </trkpt>
      <trkpt lat="47.80478" lon="16.26087">
        <ele>303.47561</ele>
        <time>2026-07-07T12:50:34.000Z</time>
      </trkpt>
      <trkpt lat="47.80474" lon="16.26083">
        <ele>303.498095</ele>
        <time>2026-07-07T12:50:35.000Z</time>
      </trkpt>
      <trkpt lat="47.8047" lon="16.26078">
        <ele>303.521111</ele>
        <time>2026-07-07T12:50:36.000Z</time>
      </trkpt>
      <trkpt lat="47.80466" lon="16.26073">
        <ele>303.543596</ele>
        <time>2026-07-07T12:50:37.000Z</time>
      </trkpt>
      <trkpt lat="47.80462" lon="16.26068">
        <ele>303.566266</ele>
        <time>2026-07-07T12:50:38.000Z</time>
      </trkpt>
      <trkpt lat="47.80458" lon="16.26063">
        <ele>303.588976</ele>
        <time>2026-07-07T12:50:39.000Z</time>
      </trkpt>
      <trkpt lat="47.80454" lon="16.26058">
        <ele>303.611159</ele>
        <time>2026-07-07T12:50:40.000Z</time>
      </trkpt>
      <trkpt lat="47.8045" lon="16.26054">
        <ele>303.633462</ele>
        <time>2026-07-07T12:50:41.000Z</time>
      </trkpt>
      <trkpt lat="47.80446" lon="16.26049">
        <ele>303.656781</ele>
        <time>2026-07-07T12:50:42.000Z</time>
      </trkpt>
      <trkpt lat="47.80442" lon="16.26044">
        <ele>303.686885</ele>
        <time>2026-07-07T12:50:43.000Z</time>
      </trkpt>
      <trkpt lat="47.80438" lon="16.2604">
        <ele>303.717236</ele>
        <time>2026-07-07T12:50:44.000Z</time>
      </trkpt>
      <trkpt lat="47.80434" lon="16.26035">
        <ele>303.748772</ele>
        <time>2026-07-07T12:50:45.000Z</time>
      </trkpt>
      <trkpt lat="47.8043" lon="16.2603">
        <ele>303.779122</ele>
        <time>2026-07-07T12:50:46.000Z</time>
      </trkpt>
      <trkpt lat="47.80426" lon="16.26025">
        <ele>303.810188</ele>
        <time>2026-07-07T12:50:47.000Z</time>
      </trkpt>
      <trkpt lat="47.80422" lon="16.2602">
        <ele>303.841969</ele>
        <time>2026-07-07T12:50:48.000Z</time>
      </trkpt>
      <trkpt lat="47.80418" lon="16.26016">
        <ele>303.872569</ele>
        <time>2026-07-07T12:50:49.000Z</time>
      </trkpt>
      <trkpt lat="47.80413" lon="16.26011">
        <ele>303.904105</ele>
        <time>2026-07-07T12:50:50.000Z</time>
      </trkpt>
      <trkpt lat="47.80409" lon="16.26006">
        <ele>303.935419</ele>
        <time>2026-07-07T12:50:51.000Z</time>
      </trkpt>
      <trkpt lat="47.80405" lon="16.26001">
        <ele>303.966019</ele>
        <time>2026-07-07T12:50:52.000Z</time>
      </trkpt>
      <trkpt lat="47.80401" lon="16.25996">
        <ele>303.997127</ele>
        <time>2026-07-07T12:50:53.000Z</time>
      </trkpt>
      <trkpt lat="47.80397" lon="16.25991">
        <ele>304.027477</ele>
        <time>2026-07-07T12:50:54.000Z</time>
      </trkpt>
      <trkpt lat="47.80393" lon="16.25987">
        <ele>304.058533</ele>
        <time>2026-07-07T12:50:55.000Z</time>
      </trkpt>
      <trkpt lat="47.80389" lon="16.25982">
        <ele>304.089385</ele>
        <time>2026-07-07T12:50:56.000Z</time>
      </trkpt>
      <trkpt lat="47.80385" lon="16.25977">
        <ele>304.119985</ele>
        <time>2026-07-07T12:50:57.000Z</time>
      </trkpt>
      <trkpt lat="47.80381" lon="16.25972">
        <ele>304.152015</ele>
        <time>2026-07-07T12:50:58.000Z</time>
      </trkpt>
      <trkpt lat="47.80377" lon="16.25967">
        <ele>304.182614</ele>
        <time>2026-07-07T12:50:59.000Z</time>
      </trkpt>
      <trkpt lat="47.80373" lon="16.25962">
        <ele>304.213467</ele>
        <time>2026-07-07T12:51:00.000Z</time>
      </trkpt>
      <trkpt lat="47.80369" lon="16.25957">
        <ele>304.245033</ele>
        <time>2026-07-07T12:51:01.000Z</time>
      </trkpt>
      <trkpt lat="47.80365" lon="16.25953">
        <ele>304.27657</ele>
        <time>2026-07-07T12:51:02.000Z</time>
      </trkpt>
      <trkpt lat="47.8036" lon="16.25948">
        <ele>304.308599</ele>
        <time>2026-07-07T12:51:03.000Z</time>
      </trkpt>
      <trkpt lat="47.80356" lon="16.25943">
        <ele>304.341096</ele>
        <time>2026-07-07T12:51:04.000Z</time>
      </trkpt>
      <trkpt lat="47.80352" lon="16.25938">
        <ele>304.372632</ele>
        <time>2026-07-07T12:51:05.000Z</time>
      </trkpt>
      <trkpt lat="47.80348" lon="16.25933">
        <ele>304.404885</ele>
        <time>2026-07-07T12:51:06.000Z</time>
      </trkpt>
      <trkpt lat="47.80343" lon="16.25928">
        <ele>304.436914</ele>
        <time>2026-07-07T12:51:07.000Z</time>
      </trkpt>
      <trkpt lat="47.80339" lon="16.25923">
        <ele>304.469411</ele>
        <time>2026-07-07T12:51:08.000Z</time>
      </trkpt>
      <trkpt lat="47.80335" lon="16.25918">
        <ele>304.501693</ele>
        <time>2026-07-07T12:51:09.000Z</time>
      </trkpt>
      <trkpt lat="47.80331" lon="16.25913">
        <ele>304.533259</ele>
        <time>2026-07-07T12:51:10.000Z</time>
      </trkpt>
      <trkpt lat="47.80327" lon="16.25908">
        <ele>304.564554</ele>
        <time>2026-07-07T12:51:11.000Z</time>
      </trkpt>
      <trkpt lat="47.80322" lon="16.25903">
        <ele>304.596564</ele>
        <time>2026-07-07T12:51:12.000Z</time>
      </trkpt>
      <trkpt lat="47.80318" lon="16.25899">
        <ele>304.628359</ele>
        <time>2026-07-07T12:51:13.000Z</time>
      </trkpt>
      <trkpt lat="47.80313" lon="16.25895">
        <ele>304.659993</ele>
        <time>2026-07-07T12:51:14.000Z</time>
      </trkpt>
      <trkpt lat="47.80309" lon="16.25891">
        <ele>304.691326</ele>
        <time>2026-07-07T12:51:15.000Z</time>
      </trkpt>
      <trkpt lat="47.80304" lon="16.25888">
        <ele>304.722108</ele>
        <time>2026-07-07T12:51:16.000Z</time>
      </trkpt>
      <trkpt lat="47.80299" lon="16.25885">
        <ele>304.753453</ele>
        <time>2026-07-07T12:51:17.000Z</time>
      </trkpt>
      <trkpt lat="47.80294" lon="16.25882">
        <ele>304.785616</ele>
        <time>2026-07-07T12:51:18.000Z</time>
      </trkpt>
      <trkpt lat="47.8029" lon="16.25879">
        <ele>304.815929</ele>
        <time>2026-07-07T12:51:19.000Z</time>
      </trkpt>
      <trkpt lat="47.80285" lon="16.25876">
        <ele>304.846658</ele>
        <time>2026-07-07T12:51:20.000Z</time>
      </trkpt>
      <trkpt lat="47.8028" lon="16.25874">
        <ele>304.877241</ele>
        <time>2026-07-07T12:51:21.000Z</time>
      </trkpt>
      <trkpt lat="47.80276" lon="16.25871">
        <ele>304.908539</ele>
        <time>2026-07-07T12:51:22.000Z</time>
      </trkpt>
      <trkpt lat="47.80271" lon="16.25868">
        <ele>304.939418</ele>
        <time>2026-07-07T12:51:23.000Z</time>
      </trkpt>
      <trkpt lat="47.80266" lon="16.25865">
        <ele>304.971015</ele>
        <time>2026-07-07T12:51:24.000Z</time>
      </trkpt>
      <trkpt lat="47.80261" lon="16.25863">
        <ele>305.001598</ele>
        <time>2026-07-07T12:51:25.000Z</time>
      </trkpt>
      <trkpt lat="47.80257" lon="16.2586">
        <ele>305.032897</ele>
        <time>2026-07-07T12:51:26.000Z</time>
      </trkpt>
      <trkpt lat="47.80252" lon="16.25857">
        <ele>305.063625</ele>
        <time>2026-07-07T12:51:27.000Z</time>
      </trkpt>
      <trkpt lat="47.80247" lon="16.25855">
        <ele>305.095071</ele>
        <time>2026-07-07T12:51:28.000Z</time>
      </trkpt>
      <trkpt lat="47.80243" lon="16.25852">
        <ele>305.124664</ele>
        <time>2026-07-07T12:51:29.000Z</time>
      </trkpt>
      <trkpt lat="47.80238" lon="16.25849">
        <ele>305.155857</ele>
        <time>2026-07-07T12:51:30.000Z</time>
      </trkpt>
      <trkpt lat="47.80233" lon="16.25846">
        <ele>305.185606</ele>
        <time>2026-07-07T12:51:31.000Z</time>
      </trkpt>
      <trkpt lat="47.80229" lon="16.25843">
        <ele>305.215766</ele>
        <time>2026-07-07T12:51:32.000Z</time>
      </trkpt>
      <trkpt lat="47.80224" lon="16.25841">
        <ele>305.24635</ele>
        <time>2026-07-07T12:51:33.000Z</time>
      </trkpt>
      <trkpt lat="47.80219" lon="16.25838">
        <ele>305.277078</ele>
        <time>2026-07-07T12:51:34.000Z</time>
      </trkpt>
      <trkpt lat="47.80215" lon="16.25836">
        <ele>305.306948</ele>
        <time>2026-07-07T12:51:35.000Z</time>
      </trkpt>
      <trkpt lat="47.8021" lon="16.25833">
        <ele>305.337826</ele>
        <time>2026-07-07T12:51:36.000Z</time>
      </trkpt>
      <trkpt lat="47.80205" lon="16.2583">
        <ele>305.368555</ele>
        <time>2026-07-07T12:51:37.000Z</time>
      </trkpt>
      <trkpt lat="47.80201" lon="16.25827">
        <ele>305.4</ele>
        <time>2026-07-07T12:51:38.000Z</time>
      </trkpt>
      <trkpt lat="47.80196" lon="16.25824">
        <ele>305.431597</ele>
        <time>2026-07-07T12:51:39.000Z</time>
      </trkpt>
      <trkpt lat="47.80191" lon="16.25822">
        <ele>305.463612</ele>
        <time>2026-07-07T12:51:40.000Z</time>
      </trkpt>
      <trkpt lat="47.80186" lon="16.25819">
        <ele>305.495365</ele>
        <time>2026-07-07T12:51:41.000Z</time>
      </trkpt>
      <trkpt lat="47.80181" lon="16.25816">
        <ele>305.526811</ele>
        <time>2026-07-07T12:51:42.000Z</time>
      </trkpt>
      <trkpt lat="47.80176" lon="16.25813">
        <ele>305.559253</ele>
        <time>2026-07-07T12:51:43.000Z</time>
      </trkpt>
      <trkpt lat="47.80171" lon="16.2581">
        <ele>305.591268</ele>
        <time>2026-07-07T12:51:44.000Z</time>
      </trkpt>
      <trkpt lat="47.80166" lon="16.25807">
        <ele>305.623999</ele>
        <time>2026-07-07T12:51:45.000Z</time>
      </trkpt>
      <trkpt lat="47.80162" lon="16.25805">
        <ele>305.655444</ele>
        <time>2026-07-07T12:51:46.000Z</time>
      </trkpt>
      <trkpt lat="47.80157" lon="16.25802">
        <ele>305.688029</ele>
        <time>2026-07-07T12:51:47.000Z</time>
      </trkpt>
      <trkpt lat="47.80152" lon="16.25799">
        <ele>305.719327</ele>
        <time>2026-07-07T12:51:48.000Z</time>
      </trkpt>
      <trkpt lat="47.80147" lon="16.25796">
        <ele>305.751912</ele>
        <time>2026-07-07T12:51:49.000Z</time>
      </trkpt>
      <trkpt lat="47.80142" lon="16.25793">
        <ele>305.784643</ele>
        <time>2026-07-07T12:51:50.000Z</time>
      </trkpt>
      <trkpt lat="47.80137" lon="16.2579">
        <ele>305.81696</ele>
        <time>2026-07-07T12:51:51.000Z</time>
      </trkpt>
      <trkpt lat="47.80132" lon="16.25788">
        <ele>305.839465</ele>
        <time>2026-07-07T12:51:52.000Z</time>
      </trkpt>
      <trkpt lat="47.80127" lon="16.25785">
        <ele>305.85967</ele>
        <time>2026-07-07T12:51:53.000Z</time>
      </trkpt>
      <trkpt lat="47.80122" lon="16.25782">
        <ele>305.878992</ele>
        <time>2026-07-07T12:51:54.000Z</time>
      </trkpt>
      <trkpt lat="47.80117" lon="16.25779">
        <ele>305.899197</ele>
        <time>2026-07-07T12:51:55.000Z</time>
      </trkpt>
      <trkpt lat="47.80112" lon="16.25776">
        <ele>305.919309</ele>
        <time>2026-07-07T12:51:56.000Z</time>
      </trkpt>
      <trkpt lat="47.80107" lon="16.25773">
        <ele>305.939514</ele>
        <time>2026-07-07T12:51:57.000Z</time>
      </trkpt>
      <trkpt lat="47.80102" lon="16.2577">
        <ele>305.959719</ele>
        <time>2026-07-07T12:51:58.000Z</time>
      </trkpt>
      <trkpt lat="47.80097" lon="16.25767">
        <ele>305.97957</ele>
        <time>2026-07-07T12:51:59.000Z</time>
      </trkpt>
      <trkpt lat="47.80092" lon="16.25764">
        <ele>305.998985</ele>
        <time>2026-07-07T12:52:00.000Z</time>
      </trkpt>
      <trkpt lat="47.80087" lon="16.25762">
        <ele>306.018836</ele>
        <time>2026-07-07T12:52:01.000Z</time>
      </trkpt>
      <trkpt lat="47.80082" lon="16.25759">
        <ele>306.038599</ele>
        <time>2026-07-07T12:52:02.000Z</time>
      </trkpt>
      <trkpt lat="47.80077" lon="16.25756">
        <ele>306.05845</ele>
        <time>2026-07-07T12:52:03.000Z</time>
      </trkpt>
      <trkpt lat="47.80073" lon="16.25753">
        <ele>306.077962</ele>
        <time>2026-07-07T12:52:04.000Z</time>
      </trkpt>
      <trkpt lat="47.80068" lon="16.25751">
        <ele>306.097896</ele>
        <time>2026-07-07T12:52:05.000Z</time>
      </trkpt>
      <trkpt lat="47.80063" lon="16.25748">
        <ele>306.117219</ele>
        <time>2026-07-07T12:52:06.000Z</time>
      </trkpt>
      <trkpt lat="47.80058" lon="16.25745">
        <ele>306.137331</ele>
        <time>2026-07-07T12:52:07.000Z</time>
      </trkpt>
      <trkpt lat="47.80053" lon="16.25742">
        <ele>306.157353</ele>
        <time>2026-07-07T12:52:08.000Z</time>
      </trkpt>
      <trkpt lat="47.80048" lon="16.25739">
        <ele>306.177288</ele>
        <time>2026-07-07T12:52:09.000Z</time>
      </trkpt>
      <trkpt lat="47.80043" lon="16.25737">
        <ele>306.19696</ele>
        <time>2026-07-07T12:52:10.000Z</time>
      </trkpt>
      <trkpt lat="47.80038" lon="16.25734">
        <ele>306.216283</ele>
        <time>2026-07-07T12:52:11.000Z</time>
      </trkpt>
      <trkpt lat="47.80033" lon="16.25731">
        <ele>306.236395</ele>
        <time>2026-07-07T12:52:12.000Z</time>
      </trkpt>
      <trkpt lat="47.80028" lon="16.25728">
        <ele>306.255717</ele>
        <time>2026-07-07T12:52:13.000Z</time>
      </trkpt>
      <trkpt lat="47.80023" lon="16.25725">
        <ele>306.275652</ele>
        <time>2026-07-07T12:52:14.000Z</time>
      </trkpt>
      <trkpt lat="47.80018" lon="16.25723">
        <ele>306.295149</ele>
        <time>2026-07-07T12:52:15.000Z</time>
      </trkpt>
      <trkpt lat="47.80014" lon="16.2572">
        <ele>306.314565</ele>
        <time>2026-07-07T12:52:16.000Z</time>
      </trkpt>
      <trkpt lat="47.80009" lon="16.25717">
        <ele>306.334077</ele>
        <time>2026-07-07T12:52:17.000Z</time>
      </trkpt>
      <trkpt lat="47.80004" lon="16.25714">
        <ele>306.353749</ele>
        <time>2026-07-07T12:52:18.000Z</time>
      </trkpt>
      <trkpt lat="47.79999" lon="16.25711">
        <ele>306.372571</ele>
        <time>2026-07-07T12:52:19.000Z</time>
      </trkpt>
      <trkpt lat="47.79995" lon="16.25708">
        <ele>306.391738</ele>
        <time>2026-07-07T12:52:20.000Z</time>
      </trkpt>
      <trkpt lat="47.7999" lon="16.25705">
        <ele>306.410905</ele>
        <time>2026-07-07T12:52:21.000Z</time>
      </trkpt>
      <trkpt lat="47.79985" lon="16.25702">
        <ele>306.429438</ele>
        <time>2026-07-07T12:52:22.000Z</time>
      </trkpt>
      <trkpt lat="47.7998" lon="16.25699">
        <ele>306.449295</ele>
        <time>2026-07-07T12:52:23.000Z</time>
      </trkpt>
      <trkpt lat="47.79976" lon="16.25697">
        <ele>306.468618</ele>
        <time>2026-07-07T12:52:24.000Z</time>
      </trkpt>
      <trkpt lat="47.79971" lon="16.25694">
        <ele>306.48794</ele>
        <time>2026-07-07T12:52:25.000Z</time>
      </trkpt>
      <trkpt lat="47.79966" lon="16.25691">
        <ele>306.511788</ele>
        <time>2026-07-07T12:52:26.000Z</time>
      </trkpt>
      <trkpt lat="47.79961" lon="16.25688">
        <ele>306.53889</ele>
        <time>2026-07-07T12:52:27.000Z</time>
      </trkpt>
      <trkpt lat="47.79956" lon="16.25685">
        <ele>306.565858</ele>
        <time>2026-07-07T12:52:28.000Z</time>
      </trkpt>
      <trkpt lat="47.79951" lon="16.25682">
        <ele>306.592939</ele>
        <time>2026-07-07T12:52:29.000Z</time>
      </trkpt>
      <trkpt lat="47.79947" lon="16.25679">
        <ele>306.619907</ele>
        <time>2026-07-07T12:52:30.000Z</time>
      </trkpt>
      <trkpt lat="47.79942" lon="16.25677">
        <ele>306.647717</ele>
        <time>2026-07-07T12:52:31.000Z</time>
      </trkpt>
      <trkpt lat="47.79937" lon="16.25674">
        <ele>306.674819</ele>
        <time>2026-07-07T12:52:32.000Z</time>
      </trkpt>
      <trkpt lat="47.79932" lon="16.25671">
        <ele>306.702629</ele>
        <time>2026-07-07T12:52:33.000Z</time>
      </trkpt>
      <trkpt lat="47.79927" lon="16.25668">
        <ele>306.730694</ele>
        <time>2026-07-07T12:52:34.000Z</time>
      </trkpt>
      <trkpt lat="47.79922" lon="16.25665">
        <ele>306.759027</ele>
        <time>2026-07-07T12:52:35.000Z</time>
      </trkpt>
      <trkpt lat="47.79917" lon="16.25662">
        <ele>306.787814</ele>
        <time>2026-07-07T12:52:36.000Z</time>
      </trkpt>
      <trkpt lat="47.79911" lon="16.25659">
        <ele>306.816722</ele>
        <time>2026-07-07T12:52:37.000Z</time>
      </trkpt>
      <trkpt lat="47.79906" lon="16.25656">
        <ele>306.844533</ele>
        <time>2026-07-07T12:52:38.000Z</time>
      </trkpt>
      <trkpt lat="47.79901" lon="16.25653">
        <ele>306.872343</ele>
        <time>2026-07-07T12:52:39.000Z</time>
      </trkpt>
      <trkpt lat="47.79896" lon="16.2565">
        <ele>306.900408</ele>
        <time>2026-07-07T12:52:40.000Z</time>
      </trkpt>
      <trkpt lat="47.79891" lon="16.25647">
        <ele>306.928472</ele>
        <time>2026-07-07T12:52:41.000Z</time>
      </trkpt>
      <trkpt lat="47.79886" lon="16.25644">
        <ele>306.956893</ele>
        <time>2026-07-07T12:52:42.000Z</time>
      </trkpt>
      <trkpt lat="47.79881" lon="16.25642">
        <ele>306.984704</ele>
        <time>2026-07-07T12:52:43.000Z</time>
      </trkpt>
      <trkpt lat="47.79876" lon="16.25639">
        <ele>307.013491</ele>
        <time>2026-07-07T12:52:44.000Z</time>
      </trkpt>
      <trkpt lat="47.79871" lon="16.25636">
        <ele>307.041427</ele>
        <time>2026-07-07T12:52:45.000Z</time>
      </trkpt>
      <trkpt lat="47.79866" lon="16.25633">
        <ele>307.070214</ele>
        <time>2026-07-07T12:52:46.000Z</time>
      </trkpt>
      <trkpt lat="47.79861" lon="16.2563">
        <ele>307.098025</ele>
        <time>2026-07-07T12:52:47.000Z</time>
      </trkpt>
      <trkpt lat="47.79856" lon="16.25627">
        <ele>307.126089</ele>
        <time>2026-07-07T12:52:48.000Z</time>
      </trkpt>
      <trkpt lat="47.79851" lon="16.25624">
        <ele>307.154153</ele>
        <time>2026-07-07T12:52:49.000Z</time>
      </trkpt>
      <trkpt lat="47.79846" lon="16.25622">
        <ele>307.181843</ele>
        <time>2026-07-07T12:52:50.000Z</time>
      </trkpt>
      <trkpt lat="47.79841" lon="16.25619">
        <ele>307.210022</ele>
        <time>2026-07-07T12:52:51.000Z</time>
      </trkpt>
      <trkpt lat="47.79836" lon="16.25616">
        <ele>307.237481</ele>
        <time>2026-07-07T12:52:52.000Z</time>
      </trkpt>
      <trkpt lat="47.79831" lon="16.25614">
        <ele>307.264446</ele>
        <time>2026-07-07T12:52:53.000Z</time>
      </trkpt>
      <trkpt lat="47.79826" lon="16.25611">
        <ele>307.291905</ele>
        <time>2026-07-07T12:52:54.000Z</time>
      </trkpt>
      <trkpt lat="47.79821" lon="16.25609">
        <ele>307.318379</ele>
        <time>2026-07-07T12:52:55.000Z</time>
      </trkpt>
      <trkpt lat="47.79816" lon="16.25607">
        <ele>307.344135</ele>
        <time>2026-07-07T12:52:56.000Z</time>
      </trkpt>
      <trkpt lat="47.79812" lon="16.25604">
        <ele>307.369288</ele>
        <time>2026-07-07T12:52:57.000Z</time>
      </trkpt>
      <trkpt lat="47.79807" lon="16.25602">
        <ele>307.394417</ele>
        <time>2026-07-07T12:52:58.000Z</time>
      </trkpt>
      <trkpt lat="47.79803" lon="16.25599">
        <ele>307.419675</ele>
        <time>2026-07-07T12:52:59.000Z</time>
      </trkpt>
      <trkpt lat="47.79798" lon="16.25596">
        <ele>307.43935</ele>
        <time>2026-07-07T12:53:00.000Z</time>
      </trkpt>
      <trkpt lat="47.79793" lon="16.25593">
        <ele>307.452203</ele>
        <time>2026-07-07T12:53:01.000Z</time>
      </trkpt>
      <trkpt lat="47.79788" lon="16.2559">
        <ele>307.464992</ele>
        <time>2026-07-07T12:53:02.000Z</time>
      </trkpt>
      <trkpt lat="47.79783" lon="16.25586">
        <ele>307.47855</ele>
        <time>2026-07-07T12:53:03.000Z</time>
      </trkpt>
      <trkpt lat="47.79778" lon="16.25583">
        <ele>307.491706</ele>
        <time>2026-07-07T12:53:04.000Z</time>
      </trkpt>
      <trkpt lat="47.79772" lon="16.2558">
        <ele>307.504746</ele>
        <time>2026-07-07T12:53:05.000Z</time>
      </trkpt>
      <trkpt lat="47.79767" lon="16.25577">
        <ele>307.517627</ele>
        <time>2026-07-07T12:53:06.000Z</time>
      </trkpt>
      <trkpt lat="47.79762" lon="16.25574">
        <ele>307.530667</ele>
        <time>2026-07-07T12:53:07.000Z</time>
      </trkpt>
      <trkpt lat="47.79757" lon="16.25571">
        <ele>307.543545</ele>
        <time>2026-07-07T12:53:08.000Z</time>
      </trkpt>
      <trkpt lat="47.79752" lon="16.25568">
        <ele>307.556367</ele>
        <time>2026-07-07T12:53:09.000Z</time>
      </trkpt>
      <trkpt lat="47.79747" lon="16.25565">
        <ele>307.569297</ele>
        <time>2026-07-07T12:53:10.000Z</time>
      </trkpt>
      <trkpt lat="47.79741" lon="16.25562">
        <ele>307.582337</ele>
        <time>2026-07-07T12:53:11.000Z</time>
      </trkpt>
      <trkpt lat="47.79736" lon="16.25559">
        <ele>307.595159</ele>
        <time>2026-07-07T12:53:12.000Z</time>
      </trkpt>
      <trkpt lat="47.79731" lon="16.25556">
        <ele>307.608316</ele>
        <time>2026-07-07T12:53:13.000Z</time>
      </trkpt>
      <trkpt lat="47.79726" lon="16.25553">
        <ele>307.621356</ele>
        <time>2026-07-07T12:53:14.000Z</time>
      </trkpt>
      <trkpt lat="47.79721" lon="16.2555">
        <ele>307.634297</ele>
        <time>2026-07-07T12:53:15.000Z</time>
      </trkpt>
      <trkpt lat="47.79716" lon="16.25547">
        <ele>307.647337</ele>
        <time>2026-07-07T12:53:16.000Z</time>
      </trkpt>
      <trkpt lat="47.79711" lon="16.25544">
        <ele>307.660126</ele>
        <time>2026-07-07T12:53:17.000Z</time>
      </trkpt>
      <trkpt lat="47.79705" lon="16.25541">
        <ele>307.673166</ele>
        <time>2026-07-07T12:53:18.000Z</time>
      </trkpt>
      <trkpt lat="47.797" lon="16.25538">
        <ele>307.685771</ele>
        <time>2026-07-07T12:53:19.000Z</time>
      </trkpt>
      <trkpt lat="47.79695" lon="16.25535">
        <ele>307.698262</ele>
        <time>2026-07-07T12:53:20.000Z</time>
      </trkpt>
      <trkpt lat="47.7969" lon="16.25532">
        <ele>307.710867</ele>
        <time>2026-07-07T12:53:21.000Z</time>
      </trkpt>
      <trkpt lat="47.79685" lon="16.25529">
        <ele>307.723414</ele>
        <time>2026-07-07T12:53:22.000Z</time>
      </trkpt>
      <trkpt lat="47.7968" lon="16.25526">
        <ele>307.736125</ele>
        <time>2026-07-07T12:53:23.000Z</time>
      </trkpt>
      <trkpt lat="47.79675" lon="16.25523">
        <ele>307.748616</ele>
        <time>2026-07-07T12:53:24.000Z</time>
      </trkpt>
      <trkpt lat="47.7967" lon="16.2552">
        <ele>307.7616</ele>
        <time>2026-07-07T12:53:25.000Z</time>
      </trkpt>
      <trkpt lat="47.79665" lon="16.25517">
        <ele>307.774205</ele>
        <time>2026-07-07T12:53:26.000Z</time>
      </trkpt>
      <trkpt lat="47.7966" lon="16.25515">
        <ele>307.787135</ele>
        <time>2026-07-07T12:53:27.000Z</time>
      </trkpt>
      <trkpt lat="47.79655" lon="16.25512">
        <ele>307.799957</ele>
        <time>2026-07-07T12:53:28.000Z</time>
      </trkpt>
      <trkpt lat="47.7965" lon="16.25509">
        <ele>307.812887</ele>
        <time>2026-07-07T12:53:29.000Z</time>
      </trkpt>
      <trkpt lat="47.79644" lon="16.25506">
        <ele>307.825927</ele>
        <time>2026-07-07T12:53:30.000Z</time>
      </trkpt>
      <trkpt lat="47.79639" lon="16.25503">
        <ele>307.839131</ele>
        <time>2026-07-07T12:53:31.000Z</time>
      </trkpt>
      <trkpt lat="47.79634" lon="16.255">
        <ele>307.852228</ele>
        <time>2026-07-07T12:53:32.000Z</time>
      </trkpt>
      <trkpt lat="47.79629" lon="16.25497">
        <ele>307.889852</ele>
        <time>2026-07-07T12:53:33.000Z</time>
      </trkpt>
      <trkpt lat="47.79624" lon="16.25493">
        <ele>307.932508</ele>
        <time>2026-07-07T12:53:34.000Z</time>
      </trkpt>
      <trkpt lat="47.7962" lon="16.25489">
        <ele>307.974707</ele>
        <time>2026-07-07T12:53:35.000Z</time>
      </trkpt>
      <trkpt lat="47.79615" lon="16.25484">
        <ele>308.016493</ele>
        <time>2026-07-07T12:53:36.000Z</time>
      </trkpt>
      <trkpt lat="47.79611" lon="16.25479">
        <ele>308.059227</ele>
        <time>2026-07-07T12:53:37.000Z</time>
      </trkpt>
      <trkpt lat="47.79607" lon="16.25474">
        <ele>308.099772</ele>
        <time>2026-07-07T12:53:38.000Z</time>
      </trkpt>
      <trkpt lat="47.79603" lon="16.25469">
        <ele>308.139101</ele>
        <time>2026-07-07T12:53:39.000Z</time>
      </trkpt>
      <trkpt lat="47.79599" lon="16.25465">
        <ele>308.1787</ele>
        <time>2026-07-07T12:53:40.000Z</time>
      </trkpt>
      <trkpt lat="47.79596" lon="16.2546">
        <ele>308.217688</ele>
        <time>2026-07-07T12:53:41.000Z</time>
      </trkpt>
      <trkpt lat="47.79592" lon="16.25455">
        <ele>308.256339</ele>
        <time>2026-07-07T12:53:42.000Z</time>
      </trkpt>
      <trkpt lat="47.79588" lon="16.25451">
        <ele>308.294724</ele>
        <time>2026-07-07T12:53:43.000Z</time>
      </trkpt>
      <trkpt lat="47.79584" lon="16.25446">
        <ele>308.334053</ele>
        <time>2026-07-07T12:53:44.000Z</time>
      </trkpt>
      <trkpt lat="47.7958" lon="16.25441">
        <ele>308.373651</ele>
        <time>2026-07-07T12:53:45.000Z</time>
      </trkpt>
      <trkpt lat="47.79577" lon="16.25437">
        <ele>308.411971</ele>
        <time>2026-07-07T12:53:46.000Z</time>
      </trkpt>
      <trkpt lat="47.79573" lon="16.25432">
        <ele>308.4513</ele>
        <time>2026-07-07T12:53:47.000Z</time>
      </trkpt>
      <trkpt lat="47.79569" lon="16.25427">
        <ele>308.490898</ele>
        <time>2026-07-07T12:53:48.000Z</time>
      </trkpt>
      <trkpt lat="47.79565" lon="16.25422">
        <ele>308.529886</ele>
        <time>2026-07-07T12:53:49.000Z</time>
      </trkpt>
      <trkpt lat="47.79561" lon="16.25418">
        <ele>308.569775</ele>
        <time>2026-07-07T12:53:50.000Z</time>
      </trkpt>
      <trkpt lat="47.79557" lon="16.25413">
        <ele>308.609798</ele>
        <time>2026-07-07T12:53:51.000Z</time>
      </trkpt>
      <trkpt lat="47.79553" lon="16.25408">
        <ele>308.649396</ele>
        <time>2026-07-07T12:53:52.000Z</time>
      </trkpt>
      <trkpt lat="47.7955" lon="16.25403">
        <ele>308.688726</ele>
        <time>2026-07-07T12:53:53.000Z</time>
      </trkpt>
      <trkpt lat="47.79546" lon="16.25398">
        <ele>308.729606</ele>
        <time>2026-07-07T12:53:54.000Z</time>
      </trkpt>
      <trkpt lat="47.79542" lon="16.25394">
        <ele>308.767649</ele>
        <time>2026-07-07T12:53:55.000Z</time>
      </trkpt>
      <trkpt lat="47.79538" lon="16.25389">
        <ele>308.806637</ele>
        <time>2026-07-07T12:53:56.000Z</time>
      </trkpt>
      <trkpt lat="47.79534" lon="16.25384">
        <ele>308.846072</ele>
        <time>2026-07-07T12:53:57.000Z</time>
      </trkpt>
      <trkpt lat="47.79531" lon="16.25379">
        <ele>308.885402</ele>
        <time>2026-07-07T12:53:58.000Z</time>
      </trkpt>
      <trkpt lat="47.79527" lon="16.25374">
        <ele>308.924837</ele>
        <time>2026-07-07T12:53:59.000Z</time>
      </trkpt>
      <trkpt lat="47.79523" lon="16.2537">
        <ele>308.963826</ele>
        <time>2026-07-07T12:54:00.000Z</time>
      </trkpt>
      <trkpt lat="47.79519" lon="16.25365">
        <ele>309.002814</ele>
        <time>2026-07-07T12:54:01.000Z</time>
      </trkpt>
      <trkpt lat="47.79515" lon="16.2536">
        <ele>309.042703</ele>
        <time>2026-07-07T12:54:02.000Z</time>
      </trkpt>
      <trkpt lat="47.79511" lon="16.25356">
        <ele>309.082301</ele>
        <time>2026-07-07T12:54:03.000Z</time>
      </trkpt>
      <trkpt lat="47.79508" lon="16.25351">
        <ele>309.12129</ele>
        <time>2026-07-07T12:54:04.000Z</time>
      </trkpt>
      <trkpt lat="47.79504" lon="16.25346">
        <ele>309.160619</ele>
        <time>2026-07-07T12:54:05.000Z</time>
      </trkpt>
      <trkpt lat="47.795" lon="16.25341">
        <ele>309.200553</ele>
        <time>2026-07-07T12:54:06.000Z</time>
      </trkpt>
      <trkpt lat="47.79496" lon="16.25336">
        <ele>309.240228</ele>
        <time>2026-07-07T12:54:07.000Z</time>
      </trkpt>
      <trkpt lat="47.79492" lon="16.25332">
        <ele>309.278588</ele>
        <time>2026-07-07T12:54:08.000Z</time>
      </trkpt>
      <trkpt lat="47.79488" lon="16.25327">
        <ele>309.310352</ele>
        <time>2026-07-07T12:54:09.000Z</time>
      </trkpt>
      <trkpt lat="47.79484" lon="16.25323">
        <ele>309.342376</ele>
        <time>2026-07-07T12:54:10.000Z</time>
      </trkpt>
      <trkpt lat="47.7948" lon="16.25318">
        <ele>309.374663</ele>
        <time>2026-07-07T12:54:11.000Z</time>
      </trkpt>
      <trkpt lat="47.79476" lon="16.25313">
        <ele>309.406256</ele>
        <time>2026-07-07T12:54:12.000Z</time>
      </trkpt>
      <trkpt lat="47.79472" lon="16.25308">
        <ele>309.437764</ele>
        <time>2026-07-07T12:54:13.000Z</time>
      </trkpt>
      <trkpt lat="47.79468" lon="16.25304">
        <ele>309.469528</ele>
        <time>2026-07-07T12:54:14.000Z</time>
      </trkpt>
      <trkpt lat="47.79465" lon="16.25299">
        <ele>309.500012</ele>
        <time>2026-07-07T12:54:15.000Z</time>
      </trkpt>
      <trkpt lat="47.79462" lon="16.25292">
        <ele>309.531917</ele>
        <time>2026-07-07T12:54:16.000Z</time>
      </trkpt>
      <trkpt lat="47.79461" lon="16.25285">
        <ele>309.562576</ele>
        <time>2026-07-07T12:54:17.000Z</time>
      </trkpt>
      <trkpt lat="47.79461" lon="16.25278">
        <ele>309.594263</ele>
        <time>2026-07-07T12:54:18.000Z</time>
      </trkpt>
      <trkpt lat="47.79461" lon="16.25271">
        <ele>309.625081</ele>
        <time>2026-07-07T12:54:19.000Z</time>
      </trkpt>
      <trkpt lat="47.79461" lon="16.25263">
        <ele>309.656768</ele>
        <time>2026-07-07T12:54:20.000Z</time>
      </trkpt>
      <trkpt lat="47.79461" lon="16.25256">
        <ele>309.687612</ele>
        <time>2026-07-07T12:54:21.000Z</time>
      </trkpt>
      <trkpt lat="47.7946" lon="16.25248">
        <ele>309.718877</ele>
        <time>2026-07-07T12:54:22.000Z</time>
      </trkpt>
      <trkpt lat="47.7946" lon="16.25241">
        <ele>309.749701</ele>
        <time>2026-07-07T12:54:23.000Z</time>
      </trkpt>
      <trkpt lat="47.7946" lon="16.25234">
        <ele>309.781463</ele>
        <time>2026-07-07T12:54:24.000Z</time>
      </trkpt>
      <trkpt lat="47.79459" lon="16.25226">
        <ele>309.81328</ele>
        <time>2026-07-07T12:54:25.000Z</time>
      </trkpt>
      <trkpt lat="47.79459" lon="16.25219">
        <ele>309.844999</ele>
        <time>2026-07-07T12:54:26.000Z</time>
      </trkpt>
      <trkpt lat="47.79459" lon="16.25211">
        <ele>309.876717</ele>
        <time>2026-07-07T12:54:27.000Z</time>
      </trkpt>
      <trkpt lat="47.79459" lon="16.25203">
        <ele>309.909247</ele>
        <time>2026-07-07T12:54:28.000Z</time>
      </trkpt>
      <trkpt lat="47.79458" lon="16.25196">
        <ele>309.941387</ele>
        <time>2026-07-07T12:54:29.000Z</time>
      </trkpt>
      <trkpt lat="47.79458" lon="16.25188">
        <ele>309.973205</ele>
        <time>2026-07-07T12:54:30.000Z</time>
      </trkpt>
      <trkpt lat="47.79457" lon="16.25181">
        <ele>310.004966</ele>
        <time>2026-07-07T12:54:31.000Z</time>
      </trkpt>
      <trkpt lat="47.79457" lon="16.25173">
        <ele>310.036213</ele>
        <time>2026-07-07T12:54:32.000Z</time>
      </trkpt>
      <trkpt lat="47.79457" lon="16.25166">
        <ele>310.067133</ele>
        <time>2026-07-07T12:54:33.000Z</time>
      </trkpt>
      <trkpt lat="47.79457" lon="16.25159">
        <ele>310.097587</ele>
        <time>2026-07-07T12:54:34.000Z</time>
      </trkpt>
      <trkpt lat="47.79456" lon="16.25152">
        <ele>310.127725</ele>
        <time>2026-07-07T12:54:35.000Z</time>
      </trkpt>
      <trkpt lat="47.79456" lon="16.25145">
        <ele>310.158282</ele>
        <time>2026-07-07T12:54:36.000Z</time>
      </trkpt>
      <trkpt lat="47.79455" lon="16.25137">
        <ele>310.189158</ele>
        <time>2026-07-07T12:54:37.000Z</time>
      </trkpt>
      <trkpt lat="47.79455" lon="16.2513">
        <ele>310.219715</ele>
        <time>2026-07-07T12:54:38.000Z</time>
      </trkpt>
      <trkpt lat="47.79454" lon="16.25123">
        <ele>310.250635</ele>
        <time>2026-07-07T12:54:39.000Z</time>
      </trkpt>
      <trkpt lat="47.79454" lon="16.25115">
        <ele>310.281932</ele>
        <time>2026-07-07T12:54:40.000Z</time>
      </trkpt>
      <trkpt lat="47.79454" lon="16.25108">
        <ele>310.312808</ele>
        <time>2026-07-07T12:54:41.000Z</time>
      </trkpt>
      <trkpt lat="47.79454" lon="16.25101">
        <ele>310.344495</ele>
        <time>2026-07-07T12:54:42.000Z</time>
      </trkpt>
      <trkpt lat="47.79453" lon="16.25093">
        <ele>310.37537</ele>
        <time>2026-07-07T12:54:43.000Z</time>
      </trkpt>
      <trkpt lat="47.79453" lon="16.25086">
        <ele>310.40451</ele>
        <time>2026-07-07T12:54:44.000Z</time>
      </trkpt>
      <trkpt lat="47.79453" lon="16.25079">
        <ele>310.408636</ele>
        <time>2026-07-07T12:54:45.000Z</time>
      </trkpt>
      <trkpt lat="47.79452" lon="16.25072">
        <ele>310.412856</ele>
        <time>2026-07-07T12:54:46.000Z</time>
      </trkpt>
      <trkpt lat="47.79451" lon="16.25064">
        <ele>310.41712</ele>
        <time>2026-07-07T12:54:47.000Z</time>
      </trkpt>
      <trkpt lat="47.79449" lon="16.25058">
        <ele>310.421299</ele>
        <time>2026-07-07T12:54:48.000Z</time>
      </trkpt>
      <trkpt lat="47.79447" lon="16.25051">
        <ele>310.425499</ele>
        <time>2026-07-07T12:54:49.000Z</time>
      </trkpt>
      <trkpt lat="47.79444" lon="16.25046">
        <ele>310.429699</ele>
        <time>2026-07-07T12:54:50.000Z</time>
      </trkpt>
      <trkpt lat="47.79441" lon="16.2504">
        <ele>310.434063</ele>
        <time>2026-07-07T12:54:51.000Z</time>
      </trkpt>
      <trkpt lat="47.79437" lon="16.25034">
        <ele>310.43834</ele>
        <time>2026-07-07T12:54:52.000Z</time>
      </trkpt>
      <trkpt lat="47.79434" lon="16.25029">
        <ele>310.442591</ele>
        <time>2026-07-07T12:54:53.000Z</time>
      </trkpt>
      <trkpt lat="47.79431" lon="16.25024">
        <ele>310.446623</ele>
        <time>2026-07-07T12:54:54.000Z</time>
      </trkpt>
      <trkpt lat="47.79427" lon="16.25019">
        <ele>310.450873</ele>
        <time>2026-07-07T12:54:55.000Z</time>
      </trkpt>
      <trkpt lat="47.79424" lon="16.25013">
        <ele>310.455037</ele>
        <time>2026-07-07T12:54:56.000Z</time>
      </trkpt>
      <trkpt lat="47.79421" lon="16.25008">
        <ele>310.45917</ele>
        <time>2026-07-07T12:54:57.000Z</time>
      </trkpt>
      <trkpt lat="47.79418" lon="16.25003">
        <ele>310.463358</ele>
        <time>2026-07-07T12:54:58.000Z</time>
      </trkpt>
      <trkpt lat="47.79414" lon="16.24998">
        <ele>310.467183</ele>
        <time>2026-07-07T12:54:59.000Z</time>
      </trkpt>
      <trkpt lat="47.79411" lon="16.24996">
        <ele>310.470388</ele>
        <time>2026-07-07T12:55:00.000Z</time>
      </trkpt>
      <trkpt lat="47.79407" lon="16.24995">
        <ele>310.473616</ele>
        <time>2026-07-07T12:55:01.000Z</time>
      </trkpt>
      <trkpt lat="47.79404" lon="16.24996">
        <ele>310.476563</ele>
        <time>2026-07-07T12:55:02.000Z</time>
      </trkpt>
      <trkpt lat="47.79402" lon="16.25">
        <ele>310.479526</ele>
        <time>2026-07-07T12:55:03.000Z</time>
      </trkpt>
      <trkpt lat="47.794" lon="16.25005">
        <ele>310.483076</ele>
        <time>2026-07-07T12:55:04.000Z</time>
      </trkpt>
      <trkpt lat="47.79399" lon="16.25012">
        <ele>310.486944</ele>
        <time>2026-07-07T12:55:05.000Z</time>
      </trkpt>
      <trkpt lat="47.79398" lon="16.25019">
        <ele>310.491044</ele>
        <time>2026-07-07T12:55:06.000Z</time>
      </trkpt>
      <trkpt lat="47.79397" lon="16.25026">
        <ele>310.495235</ele>
        <time>2026-07-07T12:55:07.000Z</time>
      </trkpt>
      <trkpt lat="47.79396" lon="16.25033">
        <ele>310.499556</ele>
        <time>2026-07-07T12:55:08.000Z</time>
      </trkpt>
      <trkpt lat="47.79395" lon="16.2504">
        <ele>310.50399</ele>
        <time>2026-07-07T12:55:09.000Z</time>
      </trkpt>
      <trkpt lat="47.79394" lon="16.25048">
        <ele>310.508425</ele>
        <time>2026-07-07T12:55:10.000Z</time>
      </trkpt>
      <trkpt lat="47.79393" lon="16.25056">
        <ele>310.512974</ele>
        <time>2026-07-07T12:55:11.000Z</time>
      </trkpt>
      <trkpt lat="47.79392" lon="16.25063">
        <ele>310.51755</ele>
        <time>2026-07-07T12:55:12.000Z</time>
      </trkpt>
      <trkpt lat="47.79391" lon="16.25071">
        <ele>310.522198</ele>
        <time>2026-07-07T12:55:13.000Z</time>
      </trkpt>
      <trkpt lat="47.7939" lon="16.25079">
        <ele>310.526889</ele>
        <time>2026-07-07T12:55:14.000Z</time>
      </trkpt>
      <trkpt lat="47.79389" lon="16.25087">
        <ele>310.531637</ele>
        <time>2026-07-07T12:55:15.000Z</time>
      </trkpt>
      <trkpt lat="47.79388" lon="16.25096">
        <ele>310.536618</ele>
        <time>2026-07-07T12:55:16.000Z</time>
      </trkpt>
      <trkpt lat="47.79387" lon="16.25104">
        <ele>310.541392</ele>
        <time>2026-07-07T12:55:17.000Z</time>
      </trkpt>
      <trkpt lat="47.79385" lon="16.25112">
        <ele>310.546265</ele>
        <time>2026-07-07T12:55:18.000Z</time>
      </trkpt>
      <trkpt lat="47.79384" lon="16.2512">
        <ele>310.551131</ele>
        <time>2026-07-07T12:55:19.000Z</time>
      </trkpt>
      <trkpt lat="47.79382" lon="16.25128">
        <ele>310.556082</ele>
        <time>2026-07-07T12:55:20.000Z</time>
      </trkpt>
      <trkpt lat="47.7938" lon="16.25136">
        <ele>310.55266</ele>
        <time>2026-07-07T12:55:21.000Z</time>
      </trkpt>
      <trkpt lat="47.79378" lon="16.25144">
        <ele>310.531021</ele>
        <time>2026-07-07T12:55:22.000Z</time>
      </trkpt>
      <trkpt lat="47.79376" lon="16.25152">
        <ele>310.509989</ele>
        <time>2026-07-07T12:55:23.000Z</time>
      </trkpt>
      <trkpt lat="47.79374" lon="16.2516">
        <ele>310.487863</ele>
        <time>2026-07-07T12:55:24.000Z</time>
      </trkpt>
      <trkpt lat="47.79373" lon="16.25168">
        <ele>310.466097</ele>
        <time>2026-07-07T12:55:25.000Z</time>
      </trkpt>
      <trkpt lat="47.79371" lon="16.25176">
        <ele>310.443596</ele>
        <time>2026-07-07T12:55:26.000Z</time>
      </trkpt>
      <trkpt lat="47.79369" lon="16.25184">
        <ele>310.421941</ele>
        <time>2026-07-07T12:55:27.000Z</time>
      </trkpt>
      <trkpt lat="47.79368" lon="16.25193">
        <ele>310.399744</ele>
        <time>2026-07-07T12:55:28.000Z</time>
      </trkpt>
      <trkpt lat="47.79366" lon="16.25201">
        <ele>310.377698</ele>
        <time>2026-07-07T12:55:29.000Z</time>
      </trkpt>
      <trkpt lat="47.79365" lon="16.25209">
        <ele>310.355653</ele>
        <time>2026-07-07T12:55:30.000Z</time>
      </trkpt>
      <trkpt lat="47.79363" lon="16.25218">
        <ele>310.333259</ele>
        <time>2026-07-07T12:55:31.000Z</time>
      </trkpt>
      <trkpt lat="47.79362" lon="16.25226">
        <ele>310.311214</ele>
        <time>2026-07-07T12:55:32.000Z</time>
      </trkpt>
      <trkpt lat="47.7936" lon="16.25235">
        <ele>310.288269</ele>
        <time>2026-07-07T12:55:33.000Z</time>
      </trkpt>
      <trkpt lat="47.79359" lon="16.25243">
        <ele>310.26548</ele>
        <time>2026-07-07T12:55:34.000Z</time>
      </trkpt>
      <trkpt lat="47.79357" lon="16.25252">
        <ele>310.242839</ele>
        <time>2026-07-07T12:55:35.000Z</time>
      </trkpt>
      <trkpt lat="47.79356" lon="16.2526">
        <ele>310.220298</ele>
        <time>2026-07-07T12:55:36.000Z</time>
      </trkpt>
      <trkpt lat="47.79354" lon="16.25269">
        <ele>310.197551</ele>
        <time>2026-07-07T12:55:37.000Z</time>
      </trkpt>
      <trkpt lat="47.79352" lon="16.25277">
        <ele>310.174692</ele>
        <time>2026-07-07T12:55:38.000Z</time>
      </trkpt>
      <trkpt lat="47.79351" lon="16.25286">
        <ele>310.151655</ele>
        <time>2026-07-07T12:55:39.000Z</time>
      </trkpt>
      <trkpt lat="47.79349" lon="16.25295">
        <ele>310.128617</ele>
        <time>2026-07-07T12:55:40.000Z</time>
      </trkpt>
      <trkpt lat="47.79348" lon="16.25303">
        <ele>310.105624</ele>
        <time>2026-07-07T12:55:41.000Z</time>
      </trkpt>
      <trkpt lat="47.79346" lon="16.25312">
        <ele>310.081645</ele>
        <time>2026-07-07T12:55:42.000Z</time>
      </trkpt>
      <trkpt lat="47.79344" lon="16.25321">
        <ele>310.058015</ele>
        <time>2026-07-07T12:55:43.000Z</time>
      </trkpt>
      <trkpt lat="47.79342" lon="16.2533">
        <ele>310.034307</ele>
        <time>2026-07-07T12:55:44.000Z</time>
      </trkpt>
      <trkpt lat="47.79341" lon="16.25339">
        <ele>310.010713</ele>
        <time>2026-07-07T12:55:45.000Z</time>
      </trkpt>
      <trkpt lat="47.79339" lon="16.25348">
        <ele>309.986734</ele>
        <time>2026-07-07T12:55:46.000Z</time>
      </trkpt>
      <trkpt lat="47.79337" lon="16.25357">
        <ele>309.962856</ele>
        <time>2026-07-07T12:55:47.000Z</time>
      </trkpt>
      <trkpt lat="47.79335" lon="16.25366">
        <ele>309.938169</ele>
        <time>2026-07-07T12:55:48.000Z</time>
      </trkpt>
      <trkpt lat="47.79334" lon="16.25375">
        <ele>309.914576</ele>
        <time>2026-07-07T12:55:49.000Z</time>
      </trkpt>
      <trkpt lat="47.79332" lon="16.25384">
        <ele>309.89049</ele>
        <time>2026-07-07T12:55:50.000Z</time>
      </trkpt>
      <trkpt lat="47.7933" lon="16.25393">
        <ele>309.870361</ele>
        <time>2026-07-07T12:55:51.000Z</time>
      </trkpt>
      <trkpt lat="47.79328" lon="16.25402">
        <ele>309.86124</ele>
        <time>2026-07-07T12:55:52.000Z</time>
      </trkpt>
      <trkpt lat="47.79326" lon="16.25411">
        <ele>309.852169</ele>
        <time>2026-07-07T12:55:53.000Z</time>
      </trkpt>
      <trkpt lat="47.79325" lon="16.2542">
        <ele>309.843033</ele>
        <time>2026-07-07T12:55:54.000Z</time>
      </trkpt>
      <trkpt lat="47.79323" lon="16.25429">
        <ele>309.833775</ele>
        <time>2026-07-07T12:55:55.000Z</time>
      </trkpt>
      <trkpt lat="47.79321" lon="16.25438">
        <ele>309.824675</ele>
        <time>2026-07-07T12:55:56.000Z</time>
      </trkpt>
      <trkpt lat="47.7932" lon="16.25447">
        <ele>309.815576</ele>
        <time>2026-07-07T12:55:57.000Z</time>
      </trkpt>
      <trkpt lat="47.79318" lon="16.25456">
        <ele>309.806476</ele>
        <time>2026-07-07T12:55:58.000Z</time>
      </trkpt>
      <trkpt lat="47.79317" lon="16.25465">
        <ele>309.79734</ele>
        <time>2026-07-07T12:55:59.000Z</time>
      </trkpt>
      <trkpt lat="47.79315" lon="16.25473">
        <ele>309.788354</ele>
        <time>2026-07-07T12:56:00.000Z</time>
      </trkpt>
      <trkpt lat="47.79313" lon="16.25482">
        <ele>309.77918</ele>
        <time>2026-07-07T12:56:01.000Z</time>
      </trkpt>
      <trkpt lat="47.79312" lon="16.25491">
        <ele>309.770139</ele>
        <time>2026-07-07T12:56:02.000Z</time>
      </trkpt>
      <trkpt lat="47.7931" lon="16.255">
        <ele>309.761153</ele>
        <time>2026-07-07T12:56:03.000Z</time>
      </trkpt>
      <trkpt lat="47.79308" lon="16.25509">
        <ele>309.752167</ele>
        <time>2026-07-07T12:56:04.000Z</time>
      </trkpt>
      <trkpt lat="47.79307" lon="16.25518">
        <ele>309.743067</ele>
        <time>2026-07-07T12:56:05.000Z</time>
      </trkpt>
      <trkpt lat="47.79305" lon="16.25527">
        <ele>309.734026</ele>
        <time>2026-07-07T12:56:06.000Z</time>
      </trkpt>
      <trkpt lat="47.79304" lon="16.25536">
        <ele>309.724852</ele>
        <time>2026-07-07T12:56:07.000Z</time>
      </trkpt>
      <trkpt lat="47.79302" lon="16.25545">
        <ele>309.715866</ele>
        <time>2026-07-07T12:56:08.000Z</time>
      </trkpt>
      <trkpt lat="47.793" lon="16.25553">
        <ele>309.70692</ele>
        <time>2026-07-07T12:56:09.000Z</time>
      </trkpt>
      <trkpt lat="47.79299" lon="16.25562">
        <ele>309.697915</ele>
        <time>2026-07-07T12:56:10.000Z</time>
      </trkpt>
      <trkpt lat="47.79297" lon="16.25571">
        <ele>309.689196</ele>
        <time>2026-07-07T12:56:11.000Z</time>
      </trkpt>
      <trkpt lat="47.79296" lon="16.2558">
        <ele>309.680116</ele>
        <time>2026-07-07T12:56:12.000Z</time>
      </trkpt>
      <trkpt lat="47.79294" lon="16.25588">
        <ele>309.6716</ele>
        <time>2026-07-07T12:56:13.000Z</time>
      </trkpt>
      <trkpt lat="47.79292" lon="16.25596">
        <ele>309.663499</ele>
        <time>2026-07-07T12:56:14.000Z</time>
      </trkpt>
      <trkpt lat="47.7929" lon="16.25603">
        <ele>309.656028</ele>
        <time>2026-07-07T12:56:15.000Z</time>
      </trkpt>
      <trkpt lat="47.79287" lon="16.25608">
        <ele>309.649488</ele>
        <time>2026-07-07T12:56:16.000Z</time>
      </trkpt>
      <trkpt lat="47.79283" lon="16.25611">
        <ele>309.643436</ele>
        <time>2026-07-07T12:56:17.000Z</time>
      </trkpt>
      <trkpt lat="47.79279" lon="16.25613">
        <ele>309.637052</ele>
        <time>2026-07-07T12:56:18.000Z</time>
      </trkpt>
      <trkpt lat="47.79275" lon="16.25613">
        <ele>309.630476</ele>
        <time>2026-07-07T12:56:19.000Z</time>
      </trkpt>
      <trkpt lat="47.7927" lon="16.25612">
        <ele>309.624085</ele>
        <time>2026-07-07T12:56:20.000Z</time>
      </trkpt>
      <trkpt lat="47.79266" lon="16.2561">
        <ele>309.617701</ele>
        <time>2026-07-07T12:56:21.000Z</time>
      </trkpt>
      <trkpt lat="47.79262" lon="16.25608">
        <ele>309.611844</ele>
        <time>2026-07-07T12:56:22.000Z</time>
      </trkpt>
      <trkpt lat="47.79259" lon="16.25606">
        <ele>309.616167</ele>
        <time>2026-07-07T12:56:23.000Z</time>
      </trkpt>
      <trkpt lat="47.79257" lon="16.25604">
        <ele>309.62394</ele>
        <time>2026-07-07T12:56:24.000Z</time>
      </trkpt>
      <trkpt lat="47.79255" lon="16.25603">
        <ele>309.629472</ele>
        <time>2026-07-07T12:56:25.000Z</time>
      </trkpt>
      <trkpt lat="47.79255" lon="16.25603">
        <ele>309.631388</ele>
        <time>2026-07-07T12:56:26.000Z</time>
      </trkpt>
      <trkpt lat="47.79255" lon="16.25602">
        <ele>309.632402</ele>
        <time>2026-07-07T12:56:27.000Z</time>
      </trkpt>
      <trkpt lat="47.79261" lon="16.25607">
        <ele>309.654275</ele>
        <time>2026-07-07T12:56:38.000Z</time>
      </trkpt>
      <trkpt lat="47.79263" lon="16.25608">
        <ele>309.660091</ele>
        <time>2026-07-07T12:56:39.000Z</time>
      </trkpt>
      <trkpt lat="47.79265" lon="16.25609">
        <ele>309.666827</ele>
        <time>2026-07-07T12:56:40.000Z</time>
      </trkpt>
      <trkpt lat="47.79267" lon="16.25609">
        <ele>309.673498</ele>
        <time>2026-07-07T12:56:41.000Z</time>
      </trkpt>
      <trkpt lat="47.79269" lon="16.25609">
        <ele>309.679082</ele>
        <time>2026-07-07T12:56:42.000Z</time>
      </trkpt>
      <trkpt lat="47.7927" lon="16.2561">
        <ele>309.683149</ele>
        <time>2026-07-07T12:56:43.000Z</time>
      </trkpt>
      <trkpt lat="47.79271" lon="16.25611">
        <ele>309.684243</ele>
        <time>2026-07-07T12:56:44.000Z</time>
      </trkpt>
      <trkpt lat="47.79277" lon="16.25612">
        <ele>309.703256</ele>
        <time>2026-07-07T12:57:00.000Z</time>
      </trkpt>
      <trkpt lat="47.79279" lon="16.25612">
        <ele>309.710217</ele>
        <time>2026-07-07T12:57:01.000Z</time>
      </trkpt>
      <trkpt lat="47.79282" lon="16.25611">
        <ele>309.718811</ele>
        <time>2026-07-07T12:57:02.000Z</time>
      </trkpt>
      <trkpt lat="47.79285" lon="16.2561">
        <ele>309.727401</ele>
        <time>2026-07-07T12:57:03.000Z</time>
      </trkpt>
      <trkpt lat="47.79287" lon="16.25608">
        <ele>309.736297</ele>
        <time>2026-07-07T12:57:04.000Z</time>
      </trkpt>
      <trkpt lat="47.79289" lon="16.25604">
        <ele>309.745486</ele>
        <time>2026-07-07T12:57:05.000Z</time>
      </trkpt>
      <trkpt lat="47.79291" lon="16.256">
        <ele>309.755111</ele>
        <time>2026-07-07T12:57:06.000Z</time>
      </trkpt>
      <trkpt lat="47.79292" lon="16.25596">
        <ele>309.764849</ele>
        <time>2026-07-07T12:57:07.000Z</time>
      </trkpt>
      <trkpt lat="47.79293" lon="16.25591">
        <ele>309.774694</ele>
        <time>2026-07-07T12:57:08.000Z</time>
      </trkpt>
      <trkpt lat="47.79294" lon="16.25587">
        <ele>309.784728</ele>
        <time>2026-07-07T12:57:09.000Z</time>
      </trkpt>
      <trkpt lat="47.79295" lon="16.25582">
        <ele>309.79518</ele>
        <time>2026-07-07T12:57:10.000Z</time>
      </trkpt>
      <trkpt lat="47.79296" lon="16.25577">
        <ele>309.805367</ele>
        <time>2026-07-07T12:57:11.000Z</time>
      </trkpt>
      <trkpt lat="47.79297" lon="16.25572">
        <ele>309.815029</ele>
        <time>2026-07-07T12:57:12.000Z</time>
      </trkpt>
      <trkpt lat="47.79298" lon="16.25567">
        <ele>309.826028</ele>
        <time>2026-07-07T12:57:13.000Z</time>
      </trkpt>
      <trkpt lat="47.79299" lon="16.25562">
        <ele>309.837222</ele>
        <time>2026-07-07T12:57:14.000Z</time>
      </trkpt>
      <trkpt lat="47.793" lon="16.25556">
        <ele>309.849202</ele>
        <time>2026-07-07T12:57:15.000Z</time>
      </trkpt>
      <trkpt lat="47.79301" lon="16.2555">
        <ele>309.861932</ele>
        <time>2026-07-07T12:57:16.000Z</time>
      </trkpt>
      <trkpt lat="47.79302" lon="16.25544">
        <ele>309.875139</ele>
        <time>2026-07-07T12:57:17.000Z</time>
      </trkpt>
      <trkpt lat="47.79303" lon="16.25538">
        <ele>309.888455</ele>
        <time>2026-07-07T12:57:18.000Z</time>
      </trkpt>
      <trkpt lat="47.79304" lon="16.25531">
        <ele>309.90248</ele>
        <time>2026-07-07T12:57:19.000Z</time>
      </trkpt>
      <trkpt lat="47.79306" lon="16.25524">
        <ele>309.916384</ele>
        <time>2026-07-07T12:57:20.000Z</time>
      </trkpt>
      <trkpt lat="47.79307" lon="16.25518">
        <ele>309.930484</ele>
        <time>2026-07-07T12:57:21.000Z</time>
      </trkpt>
      <trkpt lat="47.79308" lon="16.25511">
        <ele>309.944509</ele>
        <time>2026-07-07T12:57:22.000Z</time>
      </trkpt>
      <trkpt lat="47.79309" lon="16.25504">
        <ele>309.958413</ele>
        <time>2026-07-07T12:57:23.000Z</time>
      </trkpt>
      <trkpt lat="47.7931" lon="16.25498">
        <ele>309.972513</ele>
        <time>2026-07-07T12:57:24.000Z</time>
      </trkpt>
      <trkpt lat="47.79312" lon="16.25491">
        <ele>309.985914</ele>
        <time>2026-07-07T12:57:25.000Z</time>
      </trkpt>
      <trkpt lat="47.79313" lon="16.25485">
        <ele>310.000096</ele>
        <time>2026-07-07T12:57:26.000Z</time>
      </trkpt>
      <trkpt lat="47.79314" lon="16.25478">
        <ele>310.013803</ele>
        <time>2026-07-07T12:57:27.000Z</time>
      </trkpt>
      <trkpt lat="47.79315" lon="16.25472">
        <ele>310.027511</ele>
        <time>2026-07-07T12:57:28.000Z</time>
      </trkpt>
      <trkpt lat="47.79317" lon="16.25465">
        <ele>310.041301</ele>
        <time>2026-07-07T12:57:29.000Z</time>
      </trkpt>
      <trkpt lat="47.79318" lon="16.25458">
        <ele>310.055482</ele>
        <time>2026-07-07T12:57:30.000Z</time>
      </trkpt>
      <trkpt lat="47.79319" lon="16.25452">
        <ele>310.069556</ele>
        <time>2026-07-07T12:57:31.000Z</time>
      </trkpt>
      <trkpt lat="47.7932" lon="16.25445">
        <ele>310.083187</ele>
        <time>2026-07-07T12:57:32.000Z</time>
      </trkpt>
      <trkpt lat="47.79322" lon="16.25439">
        <ele>310.097287</ele>
        <time>2026-07-07T12:57:33.000Z</time>
      </trkpt>
      <trkpt lat="47.79323" lon="16.25432">
        <ele>310.111387</ele>
        <time>2026-07-07T12:57:34.000Z</time>
      </trkpt>
      <trkpt lat="47.79324" lon="16.25425">
        <ele>310.125373</ele>
        <time>2026-07-07T12:57:35.000Z</time>
      </trkpt>
      <trkpt lat="47.79325" lon="16.25419">
        <ele>310.139554</ele>
        <time>2026-07-07T12:57:36.000Z</time>
      </trkpt>
      <trkpt lat="47.79327" lon="16.25412">
        <ele>310.153822</ele>
        <time>2026-07-07T12:57:37.000Z</time>
      </trkpt>
      <trkpt lat="47.79328" lon="16.25405">
        <ele>310.175186</ele>
        <time>2026-07-07T12:57:38.000Z</time>
      </trkpt>
      <trkpt lat="47.79329" lon="16.25398">
        <ele>310.19674</ele>
        <time>2026-07-07T12:57:39.000Z</time>
      </trkpt>
      <trkpt lat="47.79331" lon="16.25392">
        <ele>310.217811</ele>
        <time>2026-07-07T12:57:40.000Z</time>
      </trkpt>
      <trkpt lat="47.79332" lon="16.25385">
        <ele>310.238881</ele>
        <time>2026-07-07T12:57:41.000Z</time>
      </trkpt>
      <trkpt lat="47.79334" lon="16.25379">
        <ele>310.259673</ele>
        <time>2026-07-07T12:57:42.000Z</time>
      </trkpt>
      <trkpt lat="47.79335" lon="16.25372">
        <ele>310.280744</ele>
        <time>2026-07-07T12:57:43.000Z</time>
      </trkpt>
      <trkpt lat="47.79336" lon="16.25366">
        <ele>310.302002</ele>
        <time>2026-07-07T12:57:44.000Z</time>
      </trkpt>
      <trkpt lat="47.79338" lon="16.25359">
        <ele>310.323382</ele>
        <time>2026-07-07T12:57:45.000Z</time>
      </trkpt>
      <trkpt lat="47.79339" lon="16.25352">
        <ele>310.344468</ele>
        <time>2026-07-07T12:57:46.000Z</time>
      </trkpt>
      <trkpt lat="47.7934" lon="16.25346">
        <ele>310.365979</ele>
        <time>2026-07-07T12:57:47.000Z</time>
      </trkpt>
      <trkpt lat="47.79341" lon="16.25339">
        <ele>310.387124</ele>
        <time>2026-07-07T12:57:48.000Z</time>
      </trkpt>
      <trkpt lat="47.79343" lon="16.25332">
        <ele>310.408343</ele>
        <time>2026-07-07T12:57:49.000Z</time>
      </trkpt>
      <trkpt lat="47.79344" lon="16.25326">
        <ele>310.429488</ele>
        <time>2026-07-07T12:57:50.000Z</time>
      </trkpt>
      <trkpt lat="47.79345" lon="16.25319">
        <ele>310.451293</ele>
        <time>2026-07-07T12:57:51.000Z</time>
      </trkpt>
      <trkpt lat="47.79347" lon="16.25312">
        <ele>310.472363</ele>
        <time>2026-07-07T12:57:52.000Z</time>
      </trkpt>
      <trkpt lat="47.79348" lon="16.25305">
        <ele>310.494104</ele>
        <time>2026-07-07T12:57:53.000Z</time>
      </trkpt>
      <trkpt lat="47.79349" lon="16.25299">
        <ele>310.515352</ele>
        <time>2026-07-07T12:57:54.000Z</time>
      </trkpt>
      <trkpt lat="47.7935" lon="16.25292">
        <ele>310.536795</ele>
        <time>2026-07-07T12:57:55.000Z</time>
      </trkpt>
      <trkpt lat="47.79351" lon="16.25285">
        <ele>310.558943</ele>
        <time>2026-07-07T12:57:56.000Z</time>
      </trkpt>
      <trkpt lat="47.79352" lon="16.25278">
        <ele>310.580795</ele>
        <time>2026-07-07T12:57:57.000Z</time>
      </trkpt>
      <trkpt lat="47.79354" lon="16.25271">
        <ele>310.602469</ele>
        <time>2026-07-07T12:57:58.000Z</time>
      </trkpt>
      <trkpt lat="47.79355" lon="16.25264">
        <ele>310.624412</ele>
        <time>2026-07-07T12:57:59.000Z</time>
      </trkpt>
      <trkpt lat="47.79356" lon="16.25257">
        <ele>310.646677</ele>
        <time>2026-07-07T12:58:00.000Z</time>
      </trkpt>
      <trkpt lat="47.79358" lon="16.2525">
        <ele>310.669203</ele>
        <time>2026-07-07T12:58:01.000Z</time>
      </trkpt>
      <trkpt lat="47.79359" lon="16.25243">
        <ele>310.691945</ele>
        <time>2026-07-07T12:58:02.000Z</time>
      </trkpt>
      <trkpt lat="47.7936" lon="16.25236">
        <ele>310.714093</ele>
        <time>2026-07-07T12:58:03.000Z</time>
      </trkpt>
      <trkpt lat="47.79362" lon="16.25229">
        <ele>310.736358</ele>
        <time>2026-07-07T12:58:04.000Z</time>
      </trkpt>
      <trkpt lat="47.79363" lon="16.25222">
        <ele>310.758033</ele>
        <time>2026-07-07T12:58:05.000Z</time>
      </trkpt>
      <trkpt lat="47.79364" lon="16.25215">
        <ele>310.780424</ele>
        <time>2026-07-07T12:58:06.000Z</time>
      </trkpt>
      <trkpt lat="47.79365" lon="16.25208">
        <ele>310.802166</ele>
        <time>2026-07-07T12:58:07.000Z</time>
      </trkpt>
      <trkpt lat="47.79367" lon="16.25202">
        <ele>310.823128</ele>
        <time>2026-07-07T12:58:08.000Z</time>
      </trkpt>
      <trkpt lat="47.79368" lon="16.25195">
        <ele>310.844508</ele>
        <time>2026-07-07T12:58:09.000Z</time>
      </trkpt>
      <trkpt lat="47.79369" lon="16.25189">
        <ele>310.864851</ele>
        <time>2026-07-07T12:58:10.000Z</time>
      </trkpt>
      <trkpt lat="47.79371" lon="16.25182">
        <ele>310.885922</ele>
        <time>2026-07-07T12:58:11.000Z</time>
      </trkpt>
      <trkpt lat="47.79372" lon="16.25176">
        <ele>310.906713</ele>
        <time>2026-07-07T12:58:12.000Z</time>
      </trkpt>
      <trkpt lat="47.79373" lon="16.25169">
        <ele>310.928093</ele>
        <time>2026-07-07T12:58:13.000Z</time>
      </trkpt>
      <trkpt lat="47.79375" lon="16.25162">
        <ele>310.949605</ele>
        <time>2026-07-07T12:58:14.000Z</time>
      </trkpt>
      <trkpt lat="47.79376" lon="16.25156">
        <ele>310.969809</ele>
        <time>2026-07-07T12:58:15.000Z</time>
      </trkpt>
      <trkpt lat="47.79377" lon="16.2515">
        <ele>310.984566</ele>
        <time>2026-07-07T12:58:16.000Z</time>
      </trkpt>
      <trkpt lat="47.79379" lon="16.25144">
        <ele>310.997224</ele>
        <time>2026-07-07T12:58:17.000Z</time>
      </trkpt>
      <trkpt lat="47.7938" lon="16.25138">
        <ele>311.009424</ele>
        <time>2026-07-07T12:58:18.000Z</time>
      </trkpt>
      <trkpt lat="47.79381" lon="16.25132">
        <ele>311.021256</ele>
        <time>2026-07-07T12:58:19.000Z</time>
      </trkpt>
      <trkpt lat="47.79383" lon="16.25126">
        <ele>311.033463</ele>
        <time>2026-07-07T12:58:20.000Z</time>
      </trkpt>
      <trkpt lat="47.79384" lon="16.2512">
        <ele>311.045578</ele>
        <time>2026-07-07T12:58:21.000Z</time>
      </trkpt>
      <trkpt lat="47.79385" lon="16.25114">
        <ele>311.05754</ele>
        <time>2026-07-07T12:58:22.000Z</time>
      </trkpt>
      <trkpt lat="47.79386" lon="16.25108">
        <ele>311.068998</ele>
        <time>2026-07-07T12:58:23.000Z</time>
      </trkpt>
      <trkpt lat="47.79387" lon="16.25102">
        <ele>311.080398</ele>
        <time>2026-07-07T12:58:24.000Z</time>
      </trkpt>
      <trkpt lat="47.79388" lon="16.25097">
        <ele>311.091612</ele>
        <time>2026-07-07T12:58:25.000Z</time>
      </trkpt>
      <trkpt lat="47.79389" lon="16.25091">
        <ele>311.103319</ele>
        <time>2026-07-07T12:58:26.000Z</time>
      </trkpt>
      <trkpt lat="47.7939" lon="16.25085">
        <ele>311.115157</ele>
        <time>2026-07-07T12:58:27.000Z</time>
      </trkpt>
      <trkpt lat="47.7939" lon="16.25079">
        <ele>311.127564</ele>
        <time>2026-07-07T12:58:28.000Z</time>
      </trkpt>
      <trkpt lat="47.79391" lon="16.25072">
        <ele>311.140028</ele>
        <time>2026-07-07T12:58:29.000Z</time>
      </trkpt>
      <trkpt lat="47.79392" lon="16.25066">
        <ele>311.152743</ele>
        <time>2026-07-07T12:58:30.000Z</time>
      </trkpt>
      <trkpt lat="47.79393" lon="16.25059">
        <ele>311.165531</ele>
        <time>2026-07-07T12:58:31.000Z</time>
      </trkpt>
      <trkpt lat="47.79394" lon="16.25053">
        <ele>311.178509</ele>
        <time>2026-07-07T12:58:32.000Z</time>
      </trkpt>
      <trkpt lat="47.79395" lon="16.25046">
        <ele>311.191791</ele>
        <time>2026-07-07T12:58:33.000Z</time>
      </trkpt>
      <trkpt lat="47.79396" lon="16.25039">
        <ele>311.205072</ele>
        <time>2026-07-07T12:58:34.000Z</time>
      </trkpt>
      <trkpt lat="47.79397" lon="16.25033">
        <ele>311.217976</ele>
        <time>2026-07-07T12:58:35.000Z</time>
      </trkpt>
      <trkpt lat="47.79398" lon="16.25027">
        <ele>311.23044</ele>
        <time>2026-07-07T12:58:36.000Z</time>
      </trkpt>
      <trkpt lat="47.79398" lon="16.2502">
        <ele>311.242469</ele>
        <time>2026-07-07T12:58:37.000Z</time>
      </trkpt>
      <trkpt lat="47.79398" lon="16.25014">
        <ele>311.25408</ele>
        <time>2026-07-07T12:58:38.000Z</time>
      </trkpt>
      <trkpt lat="47.79398" lon="16.25009">
        <ele>311.264758</ele>
        <time>2026-07-07T12:58:39.000Z</time>
      </trkpt>
      <trkpt lat="47.79399" lon="16.25004">
        <ele>311.274641</ele>
        <time>2026-07-07T12:58:40.000Z</time>
      </trkpt>
      <trkpt lat="47.79399" lon="16.24999">
        <ele>311.283392</ele>
        <time>2026-07-07T12:58:41.000Z</time>
      </trkpt>
      <trkpt lat="47.79399" lon="16.24996">
        <ele>311.290751</ele>
        <time>2026-07-07T12:58:42.000Z</time>
      </trkpt>
      <trkpt lat="47.79399" lon="16.24992">
        <ele>311.296971</ele>
        <time>2026-07-07T12:58:43.000Z</time>
      </trkpt>
      <trkpt lat="47.79399" lon="16.24991">
        <ele>311.30012</ele>
        <time>2026-07-07T12:58:44.000Z</time>
      </trkpt>
      <trkpt lat="47.79399" lon="16.2499">
        <ele>311.301505</ele>
        <time>2026-07-07T12:58:45.000Z</time>
      </trkpt>
      <trkpt lat="47.79401" lon="16.24984">
        <ele>311.314162</ele>
        <time>2026-07-07T13:01:32.000Z</time>
      </trkpt>
      <trkpt lat="47.79402" lon="16.24983">
        <ele>311.316938</ele>
        <time>2026-07-07T13:01:33.000Z</time>
      </trkpt>
      <trkpt lat="47.79402" lon="16.24983">
        <ele>311.319175</ele>
        <time>2026-07-07T13:01:34.000Z</time>
      </trkpt>
      <trkpt lat="47.79403" lon="16.24982">
        <ele>311.320472</ele>
        <time>2026-07-07T13:01:35.000Z</time>
      </trkpt>
      <trkpt lat="47.79403" lon="16.24982">
        <ele>311.32129</ele>
        <time>2026-07-07T13:01:36.000Z</time>
      </trkpt>
      <trkpt lat="47.79406" lon="16.24974">
        <ele>311.339162</ele>
        <time>2026-07-07T13:01:46.000Z</time>
      </trkpt>
      <trkpt lat="47.79407" lon="16.24971">
        <ele>311.345307</ele>
        <time>2026-07-07T13:01:47.000Z</time>
      </trkpt>
      <trkpt lat="47.79407" lon="16.24968">
        <ele>311.351271</ele>
        <time>2026-07-07T13:01:48.000Z</time>
      </trkpt>
      <trkpt lat="47.79408" lon="16.24965">
        <ele>311.356318</ele>
        <time>2026-07-07T13:01:49.000Z</time>
      </trkpt>
      <trkpt lat="47.79408" lon="16.24963">
        <ele>311.361455</ele>
        <time>2026-07-07T13:01:50.000Z</time>
      </trkpt>
      <trkpt lat="47.79409" lon="16.2496">
        <ele>311.367374</ele>
        <time>2026-07-07T13:01:51.000Z</time>
      </trkpt>
      <trkpt lat="47.79409" lon="16.24956">
        <ele>311.374202</ele>
        <time>2026-07-07T13:01:52.000Z</time>
      </trkpt>
      <trkpt lat="47.7941" lon="16.24952">
        <ele>311.382647</ele>
        <time>2026-07-07T13:01:53.000Z</time>
      </trkpt>
      <trkpt lat="47.7941" lon="16.24948">
        <ele>311.391585</ele>
        <time>2026-07-07T13:01:54.000Z</time>
      </trkpt>
      <trkpt lat="47.79411" lon="16.24943">
        <ele>311.401414</ele>
        <time>2026-07-07T13:01:55.000Z</time>
      </trkpt>
      <trkpt lat="47.79411" lon="16.24937">
        <ele>311.411771</ele>
        <time>2026-07-07T13:01:56.000Z</time>
      </trkpt>
      <trkpt lat="47.79412" lon="16.24932">
        <ele>311.422861</ele>
        <time>2026-07-07T13:01:57.000Z</time>
      </trkpt>
      <trkpt lat="47.79412" lon="16.24926">
        <ele>311.434561</ele>
        <time>2026-07-07T13:01:58.000Z</time>
      </trkpt>
      <trkpt lat="47.79413" lon="16.2492">
        <ele>311.44626</ele>
        <time>2026-07-07T13:01:59.000Z</time>
      </trkpt>
      <trkpt lat="47.79414" lon="16.24913">
        <ele>311.458668</ele>
        <time>2026-07-07T13:02:00.000Z</time>
      </trkpt>
      <trkpt lat="47.79414" lon="16.24907">
        <ele>311.471455</ele>
        <time>2026-07-07T13:02:01.000Z</time>
      </trkpt>
      <trkpt lat="47.79415" lon="16.249">
        <ele>311.484298</ele>
        <time>2026-07-07T13:02:02.000Z</time>
      </trkpt>
      <trkpt lat="47.79416" lon="16.24894">
        <ele>311.495215</ele>
        <time>2026-07-07T13:02:03.000Z</time>
      </trkpt>
      <trkpt lat="47.79416" lon="16.24887">
        <ele>311.501421</ele>
        <time>2026-07-07T13:02:04.000Z</time>
      </trkpt>
      <trkpt lat="47.79417" lon="16.2488">
        <ele>311.507824</ele>
        <time>2026-07-07T13:02:05.000Z</time>
      </trkpt>
      <trkpt lat="47.79418" lon="16.24873">
        <ele>311.514249</ele>
        <time>2026-07-07T13:02:06.000Z</time>
      </trkpt>
      <trkpt lat="47.79419" lon="16.24866">
        <ele>311.52061</ele>
        <time>2026-07-07T13:02:07.000Z</time>
      </trkpt>
      <trkpt lat="47.7942" lon="16.24859">
        <ele>311.527085</ele>
        <time>2026-07-07T13:02:08.000Z</time>
      </trkpt>
      <trkpt lat="47.79421" lon="16.24852">
        <ele>311.533384</ele>
        <time>2026-07-07T13:02:09.000Z</time>
      </trkpt>
      <trkpt lat="47.79422" lon="16.24845">
        <ele>311.539542</ele>
        <time>2026-07-07T13:02:10.000Z</time>
      </trkpt>
      <trkpt lat="47.79422" lon="16.24839">
        <ele>311.545588</ele>
        <time>2026-07-07T13:02:11.000Z</time>
      </trkpt>
      <trkpt lat="47.79423" lon="16.24832">
        <ele>311.551883</ele>
        <time>2026-07-07T13:02:12.000Z</time>
      </trkpt>
      <trkpt lat="47.79424" lon="16.24825">
        <ele>311.557977</ele>
        <time>2026-07-07T13:02:13.000Z</time>
      </trkpt>
      <trkpt lat="47.79424" lon="16.24819">
        <ele>311.564094</ele>
        <time>2026-07-07T13:02:14.000Z</time>
      </trkpt>
      <trkpt lat="47.79425" lon="16.24812">
        <ele>311.570193</ele>
        <time>2026-07-07T13:02:15.000Z</time>
      </trkpt>
      <trkpt lat="47.79425" lon="16.24805">
        <ele>311.576383</ele>
        <time>2026-07-07T13:02:16.000Z</time>
      </trkpt>
      <trkpt lat="47.79426" lon="16.24798">
        <ele>311.582573</ele>
        <time>2026-07-07T13:02:17.000Z</time>
      </trkpt>
      <trkpt lat="47.79427" lon="16.24792">
        <ele>311.588709</ele>
        <time>2026-07-07T13:02:18.000Z</time>
      </trkpt>
      <trkpt lat="47.79427" lon="16.24785">
        <ele>311.594933</ele>
        <time>2026-07-07T13:02:19.000Z</time>
      </trkpt>
      <trkpt lat="47.79428" lon="16.24778">
        <ele>311.601229</ele>
        <time>2026-07-07T13:02:20.000Z</time>
      </trkpt>
      <trkpt lat="47.79429" lon="16.24771">
        <ele>311.607678</ele>
        <time>2026-07-07T13:02:21.000Z</time>
      </trkpt>
      <trkpt lat="47.79429" lon="16.24764">
        <ele>311.614153</ele>
        <time>2026-07-07T13:02:22.000Z</time>
      </trkpt>
      <trkpt lat="47.7943" lon="16.24757">
        <ele>311.620602</ele>
        <time>2026-07-07T13:02:23.000Z</time>
      </trkpt>
      <trkpt lat="47.79431" lon="16.2475">
        <ele>311.626938</ele>
        <time>2026-07-07T13:02:24.000Z</time>
      </trkpt>
      <trkpt lat="47.79432" lon="16.24743">
        <ele>311.633308</ele>
        <time>2026-07-07T13:02:25.000Z</time>
      </trkpt>
      <trkpt lat="47.79432" lon="16.24736">
        <ele>311.639768</ele>
        <time>2026-07-07T13:02:26.000Z</time>
      </trkpt>
      <trkpt lat="47.79433" lon="16.24729">
        <ele>311.646082</ele>
        <time>2026-07-07T13:02:27.000Z</time>
      </trkpt>
      <trkpt lat="47.79434" lon="16.24722">
        <ele>311.65215</ele>
        <time>2026-07-07T13:02:28.000Z</time>
      </trkpt>
      <trkpt lat="47.79434" lon="16.24716">
        <ele>311.657863</ele>
        <time>2026-07-07T13:02:29.000Z</time>
      </trkpt>
      <trkpt lat="47.79435" lon="16.2471">
        <ele>311.663374</ele>
        <time>2026-07-07T13:02:30.000Z</time>
      </trkpt>
      <trkpt lat="47.79436" lon="16.24704">
        <ele>311.668779</ele>
        <time>2026-07-07T13:02:31.000Z</time>
      </trkpt>
      <trkpt lat="47.79437" lon="16.24699">
        <ele>311.673934</ele>
        <time>2026-07-07T13:02:32.000Z</time>
      </trkpt>
      <trkpt lat="47.79438" lon="16.24694">
        <ele>311.678954</ele>
        <time>2026-07-07T13:02:33.000Z</time>
      </trkpt>
      <trkpt lat="47.7944" lon="16.24689">
        <ele>311.683855</ele>
        <time>2026-07-07T13:02:34.000Z</time>
      </trkpt>
      <trkpt lat="47.79441" lon="16.24684">
        <ele>311.688646</ele>
        <time>2026-07-07T13:02:35.000Z</time>
      </trkpt>
      <trkpt lat="47.79443" lon="16.24679">
        <ele>311.693191</ele>
        <time>2026-07-07T13:02:36.000Z</time>
      </trkpt>
      <trkpt lat="47.79444" lon="16.24675">
        <ele>311.697737</ele>
        <time>2026-07-07T13:02:37.000Z</time>
      </trkpt>
      <trkpt lat="47.79446" lon="16.2467">
        <ele>311.702264</ele>
        <time>2026-07-07T13:02:38.000Z</time>
      </trkpt>
      <trkpt lat="47.79448" lon="16.24666">
        <ele>311.706779</ele>
        <time>2026-07-07T13:02:39.000Z</time>
      </trkpt>
      <trkpt lat="47.79449" lon="16.24662">
        <ele>311.711211</ele>
        <time>2026-07-07T13:02:40.000Z</time>
      </trkpt>
      <trkpt lat="47.79451" lon="16.24658">
        <ele>311.715494</ele>
        <time>2026-07-07T13:02:41.000Z</time>
      </trkpt>
      <trkpt lat="47.79453" lon="16.24654">
        <ele>311.720122</ele>
        <time>2026-07-07T13:02:42.000Z</time>
      </trkpt>
      <trkpt lat="47.79456" lon="16.24651">
        <ele>311.724405</ele>
        <time>2026-07-07T13:02:43.000Z</time>
      </trkpt>
      <trkpt lat="47.79458" lon="16.2465">
        <ele>311.727943</ele>
        <time>2026-07-07T13:02:44.000Z</time>
      </trkpt>
      <trkpt lat="47.79459" lon="16.24649">
        <ele>311.729805</ele>
        <time>2026-07-07T13:02:45.000Z</time>
      </trkpt>
      <trkpt lat="47.7946" lon="16.24649">
        <ele>311.730089</ele>
        <time>2026-07-07T13:02:46.000Z</time>
      </trkpt>
      <trkpt lat="47.79468" lon="16.24644">
        <ele>311.728498</ele>
        <time>2026-07-07T13:04:32.000Z</time>
      </trkpt>
      <trkpt lat="47.7947" lon="16.24643">
        <ele>311.724357</ele>
        <time>2026-07-07T13:04:33.000Z</time>
      </trkpt>
      <trkpt lat="47.79473" lon="16.24641">
        <ele>311.719724</ele>
        <time>2026-07-07T13:04:34.000Z</time>
      </trkpt>
      <trkpt lat="47.79475" lon="16.24637">
        <ele>311.714541</ele>
        <time>2026-07-07T13:04:35.000Z</time>
      </trkpt>
      <trkpt lat="47.79478" lon="16.24634">
        <ele>311.70874</ele>
        <time>2026-07-07T13:04:36.000Z</time>
      </trkpt>
      <trkpt lat="47.79481" lon="16.2463">
        <ele>311.70285</ele>
        <time>2026-07-07T13:04:37.000Z</time>
      </trkpt>
      <trkpt lat="47.79484" lon="16.24626">
        <ele>311.696593</ele>
        <time>2026-07-07T13:04:38.000Z</time>
      </trkpt>
      <trkpt lat="47.79487" lon="16.24622">
        <ele>311.690594</ele>
        <time>2026-07-07T13:04:39.000Z</time>
      </trkpt>
      <trkpt lat="47.7949" lon="16.24618">
        <ele>311.684632</ele>
        <time>2026-07-07T13:04:40.000Z</time>
      </trkpt>
      <trkpt lat="47.79493" lon="16.24613">
        <ele>311.678234</ele>
        <time>2026-07-07T13:04:41.000Z</time>
      </trkpt>
      <trkpt lat="47.79496" lon="16.24609">
        <ele>311.671471</ele>
        <time>2026-07-07T13:04:42.000Z</time>
      </trkpt>
      <trkpt lat="47.79499" lon="16.24604">
        <ele>311.664674</ele>
        <time>2026-07-07T13:04:43.000Z</time>
      </trkpt>
      <trkpt lat="47.79502" lon="16.24599">
        <ele>311.657546</ele>
        <time>2026-07-07T13:04:44.000Z</time>
      </trkpt>
      <trkpt lat="47.79506" lon="16.24595">
        <ele>311.650671</ele>
        <time>2026-07-07T13:04:45.000Z</time>
      </trkpt>
      <trkpt lat="47.79509" lon="16.24591">
        <ele>311.643933</ele>
        <time>2026-07-07T13:04:46.000Z</time>
      </trkpt>
      <trkpt lat="47.79512" lon="16.24586">
        <ele>311.637391</ele>
        <time>2026-07-07T13:04:47.000Z</time>
      </trkpt>
      <trkpt lat="47.79515" lon="16.24582">
        <ele>311.630628</ele>
        <time>2026-07-07T13:04:48.000Z</time>
      </trkpt>
      <trkpt lat="47.79518" lon="16.24577">
        <ele>311.624085</ele>
        <time>2026-07-07T13:04:49.000Z</time>
      </trkpt>
      <trkpt lat="47.79521" lon="16.24572">
        <ele>311.617106</ele>
        <time>2026-07-07T13:04:50.000Z</time>
      </trkpt>
      <trkpt lat="47.79524" lon="16.24567">
        <ele>311.610033</ele>
        <time>2026-07-07T13:04:51.000Z</time>
      </trkpt>
      <trkpt lat="47.79527" lon="16.24562">
        <ele>311.602623</ele>
        <time>2026-07-07T13:04:52.000Z</time>
      </trkpt>
      <trkpt lat="47.79531" lon="16.24556">
        <ele>311.594954</ele>
        <time>2026-07-07T13:04:53.000Z</time>
      </trkpt>
      <trkpt lat="47.79538" lon="16.24546">
        <ele>311.579105</ele>
        <time>2026-07-07T13:04:55.000Z</time>
      </trkpt>
      <trkpt lat="47.79545" lon="16.24535">
        <ele>311.563692</ele>
        <time>2026-07-07T13:04:56.000Z</time>
      </trkpt>
      <trkpt lat="47.79549" lon="16.2453">
        <ele>311.556022</ele>
        <time>2026-07-07T13:04:57.000Z</time>
      </trkpt>
      <trkpt lat="47.79552" lon="16.24525">
        <ele>311.548788</ele>
        <time>2026-07-07T13:04:58.000Z</time>
      </trkpt>
      <trkpt lat="47.79556" lon="16.2452">
        <ele>311.541336</ele>
        <time>2026-07-07T13:04:59.000Z</time>
      </trkpt>
      <trkpt lat="47.79559" lon="16.24515">
        <ele>311.53432</ele>
        <time>2026-07-07T13:05:01.000Z</time>
      </trkpt>
      <trkpt lat="47.79566" lon="16.24507">
        <ele>311.520929</ele>
        <time>2026-07-07T13:05:02.000Z</time>
      </trkpt>
      <trkpt lat="47.79569" lon="16.24503">
        <ele>311.51452</ele>
        <time>2026-07-07T13:05:03.000Z</time>
      </trkpt>
      <trkpt lat="47.79572" lon="16.24499">
        <ele>311.50805</ele>
        <time>2026-07-07T13:05:04.000Z</time>
      </trkpt>
      <trkpt lat="47.79576" lon="16.24496">
        <ele>311.501572</ele>
        <time>2026-07-07T13:05:05.000Z</time>
      </trkpt>
      <trkpt lat="47.79579" lon="16.24492">
        <ele>311.494967</ele>
        <time>2026-07-07T13:05:06.000Z</time>
      </trkpt>
      <trkpt lat="47.79583" lon="16.24488">
        <ele>311.487996</ele>
        <time>2026-07-07T13:05:07.000Z</time>
      </trkpt>
      <trkpt lat="47.79586" lon="16.24483">
        <ele>311.48109</ele>
        <time>2026-07-07T13:05:08.000Z</time>
      </trkpt>
      <trkpt lat="47.79589" lon="16.24478">
        <ele>311.473963</ele>
        <time>2026-07-07T13:05:09.000Z</time>
      </trkpt>
      <trkpt lat="47.79592" lon="16.24473">
        <ele>311.467165</ele>
        <time>2026-07-07T13:05:10.000Z</time>
      </trkpt>
      <trkpt lat="47.79595" lon="16.24469">
        <ele>311.460549</ele>
        <time>2026-07-07T13:05:11.000Z</time>
      </trkpt>
      <trkpt lat="47.79598" lon="16.24464">
        <ele>311.460805</ele>
        <time>2026-07-07T13:05:12.000Z</time>
      </trkpt>
      <trkpt lat="47.79601" lon="16.2446">
        <ele>311.462577</ele>
        <time>2026-07-07T13:05:13.000Z</time>
      </trkpt>
      <trkpt lat="47.79604" lon="16.24457">
        <ele>311.464171</ele>
        <time>2026-07-07T13:05:14.000Z</time>
      </trkpt>
      <trkpt lat="47.79606" lon="16.24453">
        <ele>311.465652</ele>
        <time>2026-07-07T13:05:15.000Z</time>
      </trkpt>
      <trkpt lat="47.79609" lon="16.2445">
        <ele>311.467075</ele>
        <time>2026-07-07T13:05:16.000Z</time>
      </trkpt>
      <trkpt lat="47.79611" lon="16.24447">
        <ele>311.468377</ele>
        <time>2026-07-07T13:05:17.000Z</time>
      </trkpt>
      <trkpt lat="47.79613" lon="16.24444">
        <ele>311.469575</ele>
        <time>2026-07-07T13:05:18.000Z</time>
      </trkpt>
      <trkpt lat="47.79615" lon="16.24441">
        <ele>311.470813</ele>
        <time>2026-07-07T13:05:19.000Z</time>
      </trkpt>
      <trkpt lat="47.79615" lon="16.24437">
        <ele>311.472011</ele>
        <time>2026-07-07T13:05:20.000Z</time>
      </trkpt>
      <trkpt lat="47.79614" lon="16.24434">
        <ele>311.473028</ele>
        <time>2026-07-07T13:05:21.000Z</time>
      </trkpt>
      <trkpt lat="47.79613" lon="16.24432">
        <ele>311.473922</ele>
        <time>2026-07-07T13:05:22.000Z</time>
      </trkpt>
      <trkpt lat="47.79612" lon="16.24431">
        <ele>311.474412</ele>
        <time>2026-07-07T13:05:23.000Z</time>
      </trkpt>
      <trkpt lat="47.79611" lon="16.24431">
        <ele>311.474599</ele>
        <time>2026-07-07T13:05:24.000Z</time>
      </trkpt>
      <trkpt lat="47.79605" lon="16.24427">
        <ele>311.47755</ele>
        <time>2026-07-07T13:05:56.000Z</time>
      </trkpt>
      <trkpt lat="47.79603" lon="16.24425">
        <ele>311.478651</ele>
        <time>2026-07-07T13:05:57.000Z</time>
      </trkpt>
      <trkpt lat="47.796" lon="16.24424">
        <ele>311.480085</ele>
        <time>2026-07-07T13:05:58.000Z</time>
      </trkpt>
      <trkpt lat="47.79597" lon="16.24421">
        <ele>311.48178</ele>
        <time>2026-07-07T13:05:59.000Z</time>
      </trkpt>
      <trkpt lat="47.79593" lon="16.24419">
        <ele>311.483727</ele>
        <time>2026-07-07T13:06:00.000Z</time>
      </trkpt>
      <trkpt lat="47.79588" lon="16.24416">
        <ele>311.485888</ele>
        <time>2026-07-07T13:06:01.000Z</time>
      </trkpt>
      <trkpt lat="47.79583" lon="16.24413">
        <ele>311.488142</ele>
        <time>2026-07-07T13:06:02.000Z</time>
      </trkpt>
      <trkpt lat="47.79578" lon="16.24411">
        <ele>311.490623</ele>
        <time>2026-07-07T13:06:03.000Z</time>
      </trkpt>
      <trkpt lat="47.79572" lon="16.2441">
        <ele>311.49313</ele>
        <time>2026-07-07T13:06:04.000Z</time>
      </trkpt>
      <trkpt lat="47.79566" lon="16.24409">
        <ele>311.49581</ele>
        <time>2026-07-07T13:06:05.000Z</time>
      </trkpt>
      <trkpt lat="47.7956" lon="16.24407">
        <ele>311.498621</ele>
        <time>2026-07-07T13:06:06.000Z</time>
      </trkpt>
      <trkpt lat="47.79554" lon="16.24404">
        <ele>311.501503</ele>
        <time>2026-07-07T13:06:07.000Z</time>
      </trkpt>
      <trkpt lat="47.79547" lon="16.24402">
        <ele>311.504564</ele>
        <time>2026-07-07T13:06:08.000Z</time>
      </trkpt>
      <trkpt lat="47.7954" lon="16.24399">
        <ele>311.507648</ele>
        <time>2026-07-07T13:06:09.000Z</time>
      </trkpt>
      <trkpt lat="47.79534" lon="16.24396">
        <ele>311.510809</ele>
        <time>2026-07-07T13:06:10.000Z</time>
      </trkpt>
      <trkpt lat="47.79527" lon="16.24393">
        <ele>311.513909</ele>
        <time>2026-07-07T13:06:11.000Z</time>
      </trkpt>
      <trkpt lat="47.7952" lon="16.2439">
        <ele>311.516934</ele>
        <time>2026-07-07T13:06:12.000Z</time>
      </trkpt>
      <trkpt lat="47.79514" lon="16.24387">
        <ele>311.519909</ele>
        <time>2026-07-07T13:06:13.000Z</time>
      </trkpt>
      <trkpt lat="47.79508" lon="16.24386">
        <ele>311.522659</ele>
        <time>2026-07-07T13:06:14.000Z</time>
      </trkpt>
      <trkpt lat="47.79502" lon="16.24385">
        <ele>311.525291</ele>
        <time>2026-07-07T13:06:15.000Z</time>
      </trkpt>
      <trkpt lat="47.79496" lon="16.24384">
        <ele>311.527958</ele>
        <time>2026-07-07T13:06:16.000Z</time>
      </trkpt>
      <trkpt lat="47.7949" lon="16.24383">
        <ele>311.530444</ele>
        <time>2026-07-07T13:06:17.000Z</time>
      </trkpt>
      <trkpt lat="47.79485" lon="16.24383">
        <ele>311.532884</ele>
        <time>2026-07-07T13:06:18.000Z</time>
      </trkpt>
      <trkpt lat="47.79479" lon="16.24383">
        <ele>311.535278</ele>
        <time>2026-07-07T13:06:19.000Z</time>
      </trkpt>
      <trkpt lat="47.79474" lon="16.24382">
        <ele>311.537636</ele>
        <time>2026-07-07T13:06:20.000Z</time>
      </trkpt>
      <trkpt lat="47.79469" lon="16.24382">
        <ele>311.564885</ele>
        <time>2026-07-07T13:06:21.000Z</time>
      </trkpt>
      <trkpt lat="47.79464" lon="16.24381">
        <ele>311.623806</ele>
        <time>2026-07-07T13:06:22.000Z</time>
      </trkpt>
      <trkpt lat="47.79459" lon="16.24381">
        <ele>311.685054</ele>
        <time>2026-07-07T13:06:23.000Z</time>
      </trkpt>
      <trkpt lat="47.79454" lon="16.24381">
        <ele>311.743837</ele>
        <time>2026-07-07T13:06:24.000Z</time>
      </trkpt>
      <trkpt lat="47.7945" lon="16.24381">
        <ele>311.801389</ele>
        <time>2026-07-07T13:06:25.000Z</time>
      </trkpt>
      <trkpt lat="47.79445" lon="16.24381">
        <ele>311.856517</ele>
        <time>2026-07-07T13:06:26.000Z</time>
      </trkpt>
      <trkpt lat="47.7944" lon="16.2438">
        <ele>311.914093</ele>
        <time>2026-07-07T13:06:27.000Z</time>
      </trkpt>
      <trkpt lat="47.79436" lon="16.2438">
        <ele>311.966978</ele>
        <time>2026-07-07T13:06:28.000Z</time>
      </trkpt>
      <trkpt lat="47.79432" lon="16.24379">
        <ele>312.022382</ele>
        <time>2026-07-07T13:06:29.000Z</time>
      </trkpt>
      <trkpt lat="47.79427" lon="16.24378">
        <ele>312.077877</ele>
        <time>2026-07-07T13:06:30.000Z</time>
      </trkpt>
      <trkpt lat="47.79423" lon="16.24378">
        <ele>312.130845</ele>
        <time>2026-07-07T13:06:31.000Z</time>
      </trkpt>
      <trkpt lat="47.79419" lon="16.24376">
        <ele>312.183213</ele>
        <time>2026-07-07T13:06:32.000Z</time>
      </trkpt>
      <trkpt lat="47.79415" lon="16.24374">
        <ele>312.235722</ele>
        <time>2026-07-07T13:06:33.000Z</time>
      </trkpt>
      <trkpt lat="47.79411" lon="16.24371">
        <ele>312.284403</ele>
        <time>2026-07-07T13:06:34.000Z</time>
      </trkpt>
      <trkpt lat="47.79408" lon="16.24367">
        <ele>312.336644</ele>
        <time>2026-07-07T13:06:35.000Z</time>
      </trkpt>
      <trkpt lat="47.79405" lon="16.24362">
        <ele>312.387074</ele>
        <time>2026-07-07T13:06:36.000Z</time>
      </trkpt>
      <trkpt lat="47.79402" lon="16.24358">
        <ele>312.440779</ele>
        <time>2026-07-07T13:06:37.000Z</time>
      </trkpt>
      <trkpt lat="47.79398" lon="16.24354">
        <ele>312.499723</ele>
        <time>2026-07-07T13:06:38.000Z</time>
      </trkpt>
      <trkpt lat="47.79393" lon="16.24351">
        <ele>312.560578</ele>
        <time>2026-07-07T13:06:39.000Z</time>
      </trkpt>
      <trkpt lat="47.79388" lon="16.2435">
        <ele>312.623035</ele>
        <time>2026-07-07T13:06:40.000Z</time>
      </trkpt>
      <trkpt lat="47.79383" lon="16.24349">
        <ele>312.690629</ele>
        <time>2026-07-07T13:06:41.000Z</time>
      </trkpt>
      <trkpt lat="47.79377" lon="16.24349">
        <ele>312.762918</ele>
        <time>2026-07-07T13:06:42.000Z</time>
      </trkpt>
      <trkpt lat="47.79371" lon="16.24348">
        <ele>312.833983</ele>
        <time>2026-07-07T13:06:43.000Z</time>
      </trkpt>
      <trkpt lat="47.79365" lon="16.24348">
        <ele>312.907528</ele>
        <time>2026-07-07T13:06:44.000Z</time>
      </trkpt>
      <trkpt lat="47.79359" lon="16.24347">
        <ele>312.978854</ele>
        <time>2026-07-07T13:06:45.000Z</time>
      </trkpt>
      <trkpt lat="47.79354" lon="16.24346">
        <ele>313.048889</ele>
        <time>2026-07-07T13:06:46.000Z</time>
      </trkpt>
      <trkpt lat="47.79348" lon="16.24346">
        <ele>313.12003</ele>
        <time>2026-07-07T13:06:47.000Z</time>
      </trkpt>
      <trkpt lat="47.79342" lon="16.24345">
        <ele>313.189949</ele>
        <time>2026-07-07T13:06:48.000Z</time>
      </trkpt>
      <trkpt lat="47.79336" lon="16.24345">
        <ele>313.259868</ele>
        <time>2026-07-07T13:06:49.000Z</time>
      </trkpt>
      <trkpt lat="47.79331" lon="16.24345">
        <ele>313.328485</ele>
        <time>2026-07-07T13:06:50.000Z</time>
      </trkpt>
      <trkpt lat="47.79325" lon="16.24344">
        <ele>313.398302</ele>
        <time>2026-07-07T13:06:51.000Z</time>
      </trkpt>
      <trkpt lat="47.79319" lon="16.24344">
        <ele>313.4681</ele>
        <time>2026-07-07T13:06:52.000Z</time>
      </trkpt>
      <trkpt lat="47.79314" lon="16.24344">
        <ele>313.536678</ele>
        <time>2026-07-07T13:06:53.000Z</time>
      </trkpt>
      <trkpt lat="47.79308" lon="16.24344">
        <ele>313.602822</ele>
        <time>2026-07-07T13:06:54.000Z</time>
      </trkpt>
      <trkpt lat="47.79303" lon="16.24344">
        <ele>313.667722</ele>
        <time>2026-07-07T13:06:55.000Z</time>
      </trkpt>
      <trkpt lat="47.79298" lon="16.24344">
        <ele>313.731418</ele>
        <time>2026-07-07T13:06:56.000Z</time>
      </trkpt>
      <trkpt lat="47.79293" lon="16.24345">
        <ele>313.76246</ele>
        <time>2026-07-07T13:06:57.000Z</time>
      </trkpt>
      <trkpt lat="47.79288" lon="16.24345">
        <ele>313.787241</ele>
        <time>2026-07-07T13:06:58.000Z</time>
      </trkpt>
      <trkpt lat="47.79284" lon="16.24346">
        <ele>313.811599</ele>
        <time>2026-07-07T13:06:59.000Z</time>
      </trkpt>
      <trkpt lat="47.79279" lon="16.24346">
        <ele>313.834949</ele>
        <time>2026-07-07T13:07:00.000Z</time>
      </trkpt>
      <trkpt lat="47.79275" lon="16.24347">
        <ele>313.857823</ele>
        <time>2026-07-07T13:07:01.000Z</time>
      </trkpt>
      <trkpt lat="47.79271" lon="16.24348">
        <ele>313.880049</ele>
        <time>2026-07-07T13:07:02.000Z</time>
      </trkpt>
      <trkpt lat="47.79267" lon="16.24348">
        <ele>313.901194</ele>
        <time>2026-07-07T13:07:03.000Z</time>
      </trkpt>
      <trkpt lat="47.79263" lon="16.24349">
        <ele>313.922277</ele>
        <time>2026-07-07T13:07:04.000Z</time>
      </trkpt>
      <trkpt lat="47.79259" lon="16.24349">
        <ele>313.942294</ele>
        <time>2026-07-07T13:07:05.000Z</time>
      </trkpt>
      <trkpt lat="47.79255" lon="16.24348">
        <ele>313.961941</ele>
        <time>2026-07-07T13:07:06.000Z</time>
      </trkpt>
      <trkpt lat="47.79252" lon="16.24347">
        <ele>313.979554</ele>
        <time>2026-07-07T13:07:07.000Z</time>
      </trkpt>
      <trkpt lat="47.79249" lon="16.24346">
        <ele>313.996778</ele>
        <time>2026-07-07T13:07:08.000Z</time>
      </trkpt>
      <trkpt lat="47.79246" lon="16.24345">
        <ele>314.010615</ele>
        <time>2026-07-07T13:07:09.000Z</time>
      </trkpt>
      <trkpt lat="47.79244" lon="16.24344">
        <ele>314.024252</ele>
        <time>2026-07-07T13:07:10.000Z</time>
      </trkpt>
      <trkpt lat="47.79241" lon="16.24343">
        <ele>314.038397</ele>
        <time>2026-07-07T13:07:11.000Z</time>
      </trkpt>
      <trkpt lat="47.79239" lon="16.24342">
        <ele>314.052899</ele>
        <time>2026-07-07T13:07:12.000Z</time>
      </trkpt>
      <trkpt lat="47.79236" lon="16.24342">
        <ele>314.067232</ele>
        <time>2026-07-07T13:07:13.000Z</time>
      </trkpt>
      <trkpt lat="47.79233" lon="16.24342">
        <ele>314.083035</ele>
        <time>2026-07-07T13:07:14.000Z</time>
      </trkpt>
      <trkpt lat="47.7923" lon="16.24342">
        <ele>314.100594</ele>
        <time>2026-07-07T13:07:15.000Z</time>
      </trkpt>
      <trkpt lat="47.79226" lon="16.24344">
        <ele>314.119108</ele>
        <time>2026-07-07T13:07:16.000Z</time>
      </trkpt>
      <trkpt lat="47.79223" lon="16.24347">
        <ele>314.139615</ele>
        <time>2026-07-07T13:07:17.000Z</time>
      </trkpt>
      <trkpt lat="47.7922" lon="16.24351">
        <ele>314.159922</ele>
        <time>2026-07-07T13:07:18.000Z</time>
      </trkpt>
      <trkpt lat="47.79216" lon="16.24353">
        <ele>314.180372</ele>
        <time>2026-07-07T13:07:20.000Z</time>
      </trkpt>
      <trkpt lat="47.79213" lon="16.24355">
        <ele>314.197989</ele>
        <time>2026-07-07T13:07:21.000Z</time>
      </trkpt>
      <trkpt lat="47.79211" lon="16.24357">
        <ele>314.212678</ele>
        <time>2026-07-07T13:07:22.000Z</time>
      </trkpt>
      <trkpt lat="47.79208" lon="16.24357">
        <ele>314.227058</ele>
        <time>2026-07-07T13:07:23.000Z</time>
      </trkpt>
      <trkpt lat="47.79206" lon="16.24358">
        <ele>314.240247</ele>
        <time>2026-07-07T13:07:24.000Z</time>
      </trkpt>
      <trkpt lat="47.79203" lon="16.24357">
        <ele>314.253459</ele>
        <time>2026-07-07T13:07:25.000Z</time>
      </trkpt>
      <trkpt lat="47.79201" lon="16.24357">
        <ele>314.265703</ele>
        <time>2026-07-07T13:07:26.000Z</time>
      </trkpt>
      <trkpt lat="47.79199" lon="16.24357">
        <ele>314.276238</ele>
        <time>2026-07-07T13:07:27.000Z</time>
      </trkpt>
      <trkpt lat="47.79198" lon="16.24358">
        <ele>314.282154</ele>
        <time>2026-07-07T13:07:28.000Z</time>
      </trkpt>
      <trkpt lat="47.79198" lon="16.24358">
        <ele>314.284342</ele>
        <time>2026-07-07T13:07:29.000Z</time>
      </trkpt>
      <trkpt lat="47.792" lon="16.24358">
        <ele>314.294878</ele>
        <time>2026-07-07T13:07:43.000Z</time>
      </trkpt>
      <trkpt lat="47.79201" lon="16.24358">
        <ele>314.300145</ele>
        <time>2026-07-07T13:07:44.000Z</time>
      </trkpt>
      <trkpt lat="47.79202" lon="16.24358">
        <ele>314.307075</ele>
        <time>2026-07-07T13:07:45.000Z</time>
      </trkpt>
      <trkpt lat="47.79203" lon="16.24358">
        <ele>314.313436</ele>
        <time>2026-07-07T13:07:46.000Z</time>
      </trkpt>
      <trkpt lat="47.79204" lon="16.24358">
        <ele>314.318704</ele>
        <time>2026-07-07T13:07:47.000Z</time>
      </trkpt>
      <trkpt lat="47.79205" lon="16.24358">
        <ele>314.321338</ele>
        <time>2026-07-07T13:07:48.000Z</time>
      </trkpt>
      <trkpt lat="47.79205" lon="16.24358">
        <ele>314.322391</ele>
        <time>2026-07-07T13:07:49.000Z</time>
      </trkpt>
      <trkpt lat="47.7921" lon="16.24357">
        <ele>314.350011</ele>
        <time>2026-07-07T13:08:02.000Z</time>
      </trkpt>
      <trkpt lat="47.79211" lon="16.24357">
        <ele>314.358108</ele>
        <time>2026-07-07T13:08:03.000Z</time>
      </trkpt>
      <trkpt lat="47.79212" lon="16.24359">
        <ele>314.365587</ele>
        <time>2026-07-07T13:08:04.000Z</time>
      </trkpt>
      <trkpt lat="47.79212" lon="16.2436">
        <ele>314.370895</ele>
        <time>2026-07-07T13:08:05.000Z</time>
      </trkpt>
      <trkpt lat="47.79212" lon="16.24361">
        <ele>314.374511</ele>
        <time>2026-07-07T13:08:06.000Z</time>
      </trkpt>
      <trkpt lat="47.79211" lon="16.24362">
        <ele>314.37986</ele>
        <time>2026-07-07T13:08:07.000Z</time>
      </trkpt>
      <trkpt lat="47.7921" lon="16.24362">
        <ele>314.384431</ele>
        <time>2026-07-07T13:08:08.000Z</time>
      </trkpt>
      <trkpt lat="47.79209" lon="16.24363">
        <ele>314.391357</ele>
        <time>2026-07-07T13:08:09.000Z</time>
      </trkpt>
      <trkpt lat="47.79208" lon="16.24364">
        <ele>314.398639</ele>
        <time>2026-07-07T13:08:10.000Z</time>
      </trkpt>
      <trkpt lat="47.79206" lon="16.24365">
        <ele>314.407033</ele>
        <time>2026-07-07T13:08:11.000Z</time>
      </trkpt>
      <trkpt lat="47.79205" lon="16.24365">
        <ele>314.414315</ele>
        <time>2026-07-07T13:08:12.000Z</time>
      </trkpt>
      <trkpt lat="47.79203" lon="16.24366">
        <ele>314.422215</ele>
        <time>2026-07-07T13:08:13.000Z</time>
      </trkpt>
      <trkpt lat="47.79203" lon="16.24367">
        <ele>314.427103</ele>
        <time>2026-07-07T13:08:14.000Z</time>
      </trkpt>
      <trkpt lat="47.79202" lon="16.24367">
        <ele>314.428156</ele>
        <time>2026-07-07T13:08:15.000Z</time>
      </trkpt>
      <trkpt lat="47.79197" lon="16.2437">
        <ele>314.456968</ele>
        <time>2026-07-07T13:08:49.000Z</time>
      </trkpt>
      <trkpt lat="47.79195" lon="16.24371">
        <ele>314.46959</ele>
        <time>2026-07-07T13:08:50.000Z</time>
      </trkpt>
      <trkpt lat="47.79193" lon="16.24372">
        <ele>314.48255</ele>
        <time>2026-07-07T13:08:51.000Z</time>
      </trkpt>
      <trkpt lat="47.7919" lon="16.24374">
        <ele>314.496129</ele>
        <time>2026-07-07T13:08:52.000Z</time>
      </trkpt>
      <trkpt lat="47.79188" lon="16.24375">
        <ele>314.510577</ele>
        <time>2026-07-07T13:08:53.000Z</time>
      </trkpt>
      <trkpt lat="47.79185" lon="16.24376">
        <ele>314.527036</ele>
        <time>2026-07-07T13:08:54.000Z</time>
      </trkpt>
      <trkpt lat="47.79182" lon="16.24378">
        <ele>314.544709</ele>
        <time>2026-07-07T13:08:55.000Z</time>
      </trkpt>
      <trkpt lat="47.79178" lon="16.2438">
        <ele>314.565107</ele>
        <time>2026-07-07T13:08:56.000Z</time>
      </trkpt>
      <trkpt lat="47.79174" lon="16.24381">
        <ele>314.585112</ele>
        <time>2026-07-07T13:08:57.000Z</time>
      </trkpt>
      <trkpt lat="47.7917" lon="16.24384">
        <ele>314.608566</ele>
        <time>2026-07-07T13:08:58.000Z</time>
      </trkpt>
      <trkpt lat="47.79166" lon="16.24386">
        <ele>314.63214</ele>
        <time>2026-07-07T13:08:59.000Z</time>
      </trkpt>
      <trkpt lat="47.79162" lon="16.24388">
        <ele>314.656332</ele>
        <time>2026-07-07T13:09:00.000Z</time>
      </trkpt>
      <trkpt lat="47.79157" lon="16.24391">
        <ele>314.682393</ele>
        <time>2026-07-07T13:09:01.000Z</time>
      </trkpt>
      <trkpt lat="47.79152" lon="16.24393">
        <ele>314.709538</ele>
        <time>2026-07-07T13:09:02.000Z</time>
      </trkpt>
      <trkpt lat="47.79147" lon="16.24395">
        <ele>314.736988</ele>
        <time>2026-07-07T13:09:03.000Z</time>
      </trkpt>
      <trkpt lat="47.79142" lon="16.24398">
        <ele>314.764841</ele>
        <time>2026-07-07T13:09:04.000Z</time>
      </trkpt>
      <trkpt lat="47.79138" lon="16.244">
        <ele>314.792409</ele>
        <time>2026-07-07T13:09:05.000Z</time>
      </trkpt>
      <trkpt lat="47.79133" lon="16.24403">
        <ele>314.819977</ele>
        <time>2026-07-07T13:09:06.000Z</time>
      </trkpt>
      <trkpt lat="47.79128" lon="16.24405">
        <ele>314.848057</ele>
        <time>2026-07-07T13:09:07.000Z</time>
      </trkpt>
      <trkpt lat="47.79123" lon="16.24408">
        <ele>314.875874</ele>
        <time>2026-07-07T13:09:08.000Z</time>
      </trkpt>
      <trkpt lat="47.79118" lon="16.2441">
        <ele>314.903564</ele>
        <time>2026-07-07T13:09:09.000Z</time>
      </trkpt>
      <trkpt lat="47.79113" lon="16.24413">
        <ele>314.932044</ele>
        <time>2026-07-07T13:09:10.000Z</time>
      </trkpt>
      <trkpt lat="47.79108" lon="16.24415">
        <ele>314.960124</ele>
        <time>2026-07-07T13:09:11.000Z</time>
      </trkpt>
      <trkpt lat="47.79103" lon="16.24418">
        <ele>314.988718</ele>
        <time>2026-07-07T13:09:12.000Z</time>
      </trkpt>
      <trkpt lat="47.79098" lon="16.2442">
        <ele>315.017088</ele>
        <time>2026-07-07T13:09:13.000Z</time>
      </trkpt>
      <trkpt lat="47.79093" lon="16.24423">
        <ele>315.046196</ele>
        <time>2026-07-07T13:09:14.000Z</time>
      </trkpt>
      <trkpt lat="47.79088" lon="16.24425">
        <ele>315.075604</ele>
        <time>2026-07-07T13:09:15.000Z</time>
      </trkpt>
      <trkpt lat="47.79083" lon="16.24427">
        <ele>315.105117</ele>
        <time>2026-07-07T13:09:16.000Z</time>
      </trkpt>
      <trkpt lat="47.79078" lon="16.24429">
        <ele>315.133803</ele>
        <time>2026-07-07T13:09:17.000Z</time>
      </trkpt>
      <trkpt lat="47.79073" lon="16.24432">
        <ele>315.161548</ele>
        <time>2026-07-07T13:09:18.000Z</time>
      </trkpt>
      <trkpt lat="47.79068" lon="16.24434">
        <ele>315.187527</ele>
        <time>2026-07-07T13:09:19.000Z</time>
      </trkpt>
      <trkpt lat="47.79064" lon="16.24436">
        <ele>315.212986</ele>
        <time>2026-07-07T13:09:20.000Z</time>
      </trkpt>
      <trkpt lat="47.79059" lon="16.24437">
        <ele>315.238154</ele>
        <time>2026-07-07T13:09:21.000Z</time>
      </trkpt>
      <trkpt lat="47.79055" lon="16.24439">
        <ele>315.264212</ele>
        <time>2026-07-07T13:09:22.000Z</time>
      </trkpt>
      <trkpt lat="47.7905" lon="16.24441">
        <ele>315.291046</ele>
        <time>2026-07-07T13:09:23.000Z</time>
      </trkpt>
      <trkpt lat="47.79045" lon="16.24442">
        <ele>315.318933</ele>
        <time>2026-07-07T13:09:24.000Z</time>
      </trkpt>
      <trkpt lat="47.7904" lon="16.24444">
        <ele>315.347794</ele>
        <time>2026-07-07T13:09:25.000Z</time>
      </trkpt>
      <trkpt lat="47.79034" lon="16.24445">
        <ele>315.376378</ele>
        <time>2026-07-07T13:09:26.000Z</time>
      </trkpt>
      <trkpt lat="47.79029" lon="16.24447">
        <ele>315.405625</ele>
        <time>2026-07-07T13:09:27.000Z</time>
      </trkpt>
      <trkpt lat="47.79024" lon="16.24448">
        <ele>315.434871</ele>
        <time>2026-07-07T13:09:28.000Z</time>
      </trkpt>
      <trkpt lat="47.79018" lon="16.2445">
        <ele>315.464469</ele>
        <time>2026-07-07T13:09:29.000Z</time>
      </trkpt>
      <trkpt lat="47.79013" lon="16.24451">
        <ele>315.49343</ele>
        <time>2026-07-07T13:09:30.000Z</time>
      </trkpt>
      <trkpt lat="47.79008" lon="16.24452">
        <ele>315.523468</ele>
        <time>2026-07-07T13:09:31.000Z</time>
      </trkpt>
      <trkpt lat="47.79002" lon="16.24452">
        <ele>315.553426</ele>
        <time>2026-07-07T13:09:32.000Z</time>
      </trkpt>
      <trkpt lat="47.78997" lon="16.24453">
        <ele>315.583297</ele>
        <time>2026-07-07T13:09:33.000Z</time>
      </trkpt>
      <trkpt lat="47.78991" lon="16.24454">
        <ele>315.614302</ele>
        <time>2026-07-07T13:09:34.000Z</time>
      </trkpt>
      <trkpt lat="47.78985" lon="16.24454">
        <ele>315.644766</ele>
        <time>2026-07-07T13:09:35.000Z</time>
      </trkpt>
      <trkpt lat="47.78979" lon="16.24455">
        <ele>315.654537</ele>
        <time>2026-07-07T13:09:36.000Z</time>
      </trkpt>
      <trkpt lat="47.78974" lon="16.24455">
        <ele>315.631273</ele>
        <time>2026-07-07T13:09:37.000Z</time>
      </trkpt>
      <trkpt lat="47.78968" lon="16.24456">
        <ele>315.608009</ele>
        <time>2026-07-07T13:09:38.000Z</time>
      </trkpt>
      <trkpt lat="47.78962" lon="16.24456">
        <ele>315.583959</ele>
        <time>2026-07-07T13:09:39.000Z</time>
      </trkpt>
      <trkpt lat="47.78956" lon="16.24457">
        <ele>315.559919</ele>
        <time>2026-07-07T13:09:40.000Z</time>
      </trkpt>
      <trkpt lat="47.7895" lon="16.24457">
        <ele>315.535855</ele>
        <time>2026-07-07T13:09:41.000Z</time>
      </trkpt>
      <trkpt lat="47.78944" lon="16.24457">
        <ele>315.511015</ele>
        <time>2026-07-07T13:09:42.000Z</time>
      </trkpt>
      <trkpt lat="47.78937" lon="16.24458">
        <ele>315.486152</ele>
        <time>2026-07-07T13:09:43.000Z</time>
      </trkpt>
      <trkpt lat="47.78931" lon="16.24458">
        <ele>315.460901</ele>
        <time>2026-07-07T13:09:44.000Z</time>
      </trkpt>
      <trkpt lat="47.78925" lon="16.24458">
        <ele>315.434872</ele>
        <time>2026-07-07T13:09:45.000Z</time>
      </trkpt>
      <trkpt lat="47.78918" lon="16.24458">
        <ele>315.408843</ele>
        <time>2026-07-07T13:09:46.000Z</time>
      </trkpt>
      <trkpt lat="47.78912" lon="16.24458">
        <ele>315.384003</ele>
        <time>2026-07-07T13:09:47.000Z</time>
      </trkpt>
      <trkpt lat="47.78906" lon="16.24458">
        <ele>315.35994</ele>
        <time>2026-07-07T13:09:48.000Z</time>
      </trkpt>
      <trkpt lat="47.789" lon="16.24457">
        <ele>315.334642</ele>
        <time>2026-07-07T13:09:49.000Z</time>
      </trkpt>
      <trkpt lat="47.78894" lon="16.24456">
        <ele>315.310466</ele>
        <time>2026-07-07T13:09:50.000Z</time>
      </trkpt>
      <trkpt lat="47.78888" lon="16.24455">
        <ele>315.28629</ele>
        <time>2026-07-07T13:09:51.000Z</time>
      </trkpt>
      <trkpt lat="47.78881" lon="16.24455">
        <ele>315.261449</ele>
        <time>2026-07-07T13:09:52.000Z</time>
      </trkpt>
      <trkpt lat="47.78875" lon="16.24455">
        <ele>315.237417</ele>
        <time>2026-07-07T13:09:53.000Z</time>
      </trkpt>
      <trkpt lat="47.78869" lon="16.24455">
        <ele>315.212985</ele>
        <time>2026-07-07T13:09:54.000Z</time>
      </trkpt>
      <trkpt lat="47.78863" lon="16.24454">
        <ele>315.188885</ele>
        <time>2026-07-07T13:09:55.000Z</time>
      </trkpt>
      <trkpt lat="47.78857" lon="16.24453">
        <ele>315.164763</ele>
        <time>2026-07-07T13:09:56.000Z</time>
      </trkpt>
      <trkpt lat="47.78851" lon="16.24452">
        <ele>315.140521</ele>
        <time>2026-07-07T13:09:57.000Z</time>
      </trkpt>
      <trkpt lat="47.78845" lon="16.2445">
        <ele>315.116553</ele>
        <time>2026-07-07T13:09:58.000Z</time>
      </trkpt>
      <trkpt lat="47.78839" lon="16.24449">
        <ele>315.09219</ele>
        <time>2026-07-07T13:09:59.000Z</time>
      </trkpt>
      <trkpt lat="47.78834" lon="16.24447">
        <ele>315.069356</ele>
        <time>2026-07-07T13:10:00.000Z</time>
      </trkpt>
      <trkpt lat="47.78828" lon="16.24445">
        <ele>315.046747</ele>
        <time>2026-07-07T13:10:01.000Z</time>
      </trkpt>
      <trkpt lat="47.78823" lon="16.24444">
        <ele>315.025369</ele>
        <time>2026-07-07T13:10:02.000Z</time>
      </trkpt>
      <trkpt lat="47.78818" lon="16.24442">
        <ele>315.005935</ele>
        <time>2026-07-07T13:10:03.000Z</time>
      </trkpt>
      <trkpt lat="47.78814" lon="16.2444">
        <ele>314.986819</ele>
        <time>2026-07-07T13:10:04.000Z</time>
      </trkpt>
      <trkpt lat="47.78809" lon="16.24438">
        <ele>314.967513</ele>
        <time>2026-07-07T13:10:05.000Z</time>
      </trkpt>
      <trkpt lat="47.78804" lon="16.24436">
        <ele>314.947938</ele>
        <time>2026-07-07T13:10:06.000Z</time>
      </trkpt>
      <trkpt lat="47.788" lon="16.24435">
        <ele>314.957813</ele>
        <time>2026-07-07T13:10:07.000Z</time>
      </trkpt>
      <trkpt lat="47.78795" lon="16.24433">
        <ele>314.975649</ele>
        <time>2026-07-07T13:10:08.000Z</time>
      </trkpt>
      <trkpt lat="47.7879" lon="16.24432">
        <ele>314.993945</ele>
        <time>2026-07-07T13:10:09.000Z</time>
      </trkpt>
      <trkpt lat="47.78785" lon="16.2443">
        <ele>315.010614</ele>
        <time>2026-07-07T13:10:10.000Z</time>
      </trkpt>
      <trkpt lat="47.78781" lon="16.24429">
        <ele>315.027238</ele>
        <time>2026-07-07T13:10:11.000Z</time>
      </trkpt>
      <trkpt lat="47.78777" lon="16.24428">
        <ele>315.042245</ele>
        <time>2026-07-07T13:10:12.000Z</time>
      </trkpt>
      <trkpt lat="47.78773" lon="16.24427">
        <ele>315.057951</ele>
        <time>2026-07-07T13:10:13.000Z</time>
      </trkpt>
      <trkpt lat="47.78769" lon="16.24425">
        <ele>315.073375</ele>
        <time>2026-07-07T13:10:14.000Z</time>
      </trkpt>
      <trkpt lat="47.78764" lon="16.24423">
        <ele>315.089411</ele>
        <time>2026-07-07T13:10:15.000Z</time>
      </trkpt>
      <trkpt lat="47.7876" lon="16.24421">
        <ele>315.105471</ele>
        <time>2026-07-07T13:10:16.000Z</time>
      </trkpt>
      <trkpt lat="47.78756" lon="16.24421">
        <ele>315.120752</ele>
        <time>2026-07-07T13:10:17.000Z</time>
      </trkpt>
      <trkpt lat="47.78752" lon="16.24421">
        <ele>315.135679</ele>
        <time>2026-07-07T13:10:18.000Z</time>
      </trkpt>
      <trkpt lat="47.78748" lon="16.24422">
        <ele>315.149142</ele>
        <time>2026-07-07T13:10:19.000Z</time>
      </trkpt>
      <trkpt lat="47.78745" lon="16.24421">
        <ele>315.161165</ele>
        <time>2026-07-07T13:10:20.000Z</time>
      </trkpt>
      <trkpt lat="47.78741" lon="16.24421">
        <ele>315.174007</ele>
        <time>2026-07-07T13:10:21.000Z</time>
      </trkpt>
      <trkpt lat="47.78738" lon="16.2442">
        <ele>315.187681</ele>
        <time>2026-07-07T13:10:22.000Z</time>
      </trkpt>
      <trkpt lat="47.78734" lon="16.24419">
        <ele>315.202431</ele>
        <time>2026-07-07T13:10:23.000Z</time>
      </trkpt>
      <trkpt lat="47.78729" lon="16.24418">
        <ele>315.218189</ele>
        <time>2026-07-07T13:10:24.000Z</time>
      </trkpt>
      <trkpt lat="47.78725" lon="16.24417">
        <ele>315.234734</ele>
        <time>2026-07-07T13:10:25.000Z</time>
      </trkpt>
      <trkpt lat="47.7872" lon="16.24416">
        <ele>315.252792</ele>
        <time>2026-07-07T13:10:26.000Z</time>
      </trkpt>
      <trkpt lat="47.78715" lon="16.24414">
        <ele>315.271249</ele>
        <time>2026-07-07T13:10:27.000Z</time>
      </trkpt>
      <trkpt lat="47.7871" lon="16.24413">
        <ele>315.28975</ele>
        <time>2026-07-07T13:10:28.000Z</time>
      </trkpt>
      <trkpt lat="47.78705" lon="16.24412">
        <ele>315.309283</ele>
        <time>2026-07-07T13:10:29.000Z</time>
      </trkpt>
      <trkpt lat="47.78699" lon="16.2441">
        <ele>315.329616</ele>
        <time>2026-07-07T13:10:30.000Z</time>
      </trkpt>
      <trkpt lat="47.78694" lon="16.24409">
        <ele>315.349949</ele>
        <time>2026-07-07T13:10:31.000Z</time>
      </trkpt>
      <trkpt lat="47.78688" lon="16.24407">
        <ele>315.370376</ele>
        <time>2026-07-07T13:10:32.000Z</time>
      </trkpt>
      <trkpt lat="47.78682" lon="16.24406">
        <ele>315.391345</ele>
        <time>2026-07-07T13:10:33.000Z</time>
      </trkpt>
      <trkpt lat="47.78677" lon="16.24404">
        <ele>315.411678</ele>
        <time>2026-07-07T13:10:34.000Z</time>
      </trkpt>
      <trkpt lat="47.78671" lon="16.24403">
        <ele>315.433007</ele>
        <time>2026-07-07T13:10:35.000Z</time>
      </trkpt>
      <trkpt lat="47.78665" lon="16.24401">
        <ele>315.454414</ele>
        <time>2026-07-07T13:10:36.000Z</time>
      </trkpt>
      <trkpt lat="47.78659" lon="16.244">
        <ele>315.47618</ele>
        <time>2026-07-07T13:10:37.000Z</time>
      </trkpt>
      <trkpt lat="47.78654" lon="16.24398">
        <ele>315.497676</ele>
        <time>2026-07-07T13:10:38.000Z</time>
      </trkpt>
      <trkpt lat="47.78648" lon="16.24397">
        <ele>315.519005</ele>
        <time>2026-07-07T13:10:39.000Z</time>
      </trkpt>
      <trkpt lat="47.78642" lon="16.24395">
        <ele>315.54109</ele>
        <time>2026-07-07T13:10:40.000Z</time>
      </trkpt>
      <trkpt lat="47.78636" lon="16.24394">
        <ele>315.563138</ele>
        <time>2026-07-07T13:10:41.000Z</time>
      </trkpt>
      <trkpt lat="47.7863" lon="16.24393">
        <ele>315.585152</ele>
        <time>2026-07-07T13:10:42.000Z</time>
      </trkpt>
      <trkpt lat="47.78624" lon="16.24392">
        <ele>315.621937</ele>
        <time>2026-07-07T13:10:43.000Z</time>
      </trkpt>
      <trkpt lat="47.78618" lon="16.24392">
        <ele>315.682543</ele>
        <time>2026-07-07T13:10:44.000Z</time>
      </trkpt>
      <trkpt lat="47.78612" lon="16.24392">
        <ele>315.742102</ele>
        <time>2026-07-07T13:10:45.000Z</time>
      </trkpt>
      <trkpt lat="47.78606" lon="16.24392">
        <ele>315.801657</ele>
        <time>2026-07-07T13:10:46.000Z</time>
      </trkpt>
      <trkpt lat="47.786" lon="16.24392">
        <ele>315.861212</ele>
        <time>2026-07-07T13:10:47.000Z</time>
      </trkpt>
      <trkpt lat="47.78594" lon="16.24392">
        <ele>315.920801</ele>
        <time>2026-07-07T13:10:48.000Z</time>
      </trkpt>
      <trkpt lat="47.78588" lon="16.24393">
        <ele>315.979549</ele>
        <time>2026-07-07T13:10:49.000Z</time>
      </trkpt>
      <trkpt lat="47.78582" lon="16.24393">
        <ele>316.039197</ele>
        <time>2026-07-07T13:10:50.000Z</time>
      </trkpt>
      <trkpt lat="47.78576" lon="16.24394">
        <ele>316.096864</ele>
        <time>2026-07-07T13:10:51.000Z</time>
      </trkpt>
      <trkpt lat="47.7857" lon="16.24394">
        <ele>316.156512</ele>
        <time>2026-07-07T13:10:52.000Z</time>
      </trkpt>
      <trkpt lat="47.78564" lon="16.24395">
        <ele>316.214221</ele>
        <time>2026-07-07T13:10:53.000Z</time>
      </trkpt>
      <trkpt lat="47.78558" lon="16.24395">
        <ele>316.273869</ele>
        <time>2026-07-07T13:10:54.000Z</time>
      </trkpt>
      <trkpt lat="47.78552" lon="16.24396">
        <ele>316.332527</ele>
        <time>2026-07-07T13:10:55.000Z</time>
      </trkpt>
      <trkpt lat="47.78547" lon="16.24396">
        <ele>316.390193</ele>
        <time>2026-07-07T13:10:56.000Z</time>
      </trkpt>
      <trkpt lat="47.78541" lon="16.24397">
        <ele>316.446963</ele>
        <time>2026-07-07T13:10:57.000Z</time>
      </trkpt>
      <trkpt lat="47.78535" lon="16.24398">
        <ele>316.504629</ele>
        <time>2026-07-07T13:10:58.000Z</time>
      </trkpt>
      <trkpt lat="47.78529" lon="16.24398">
        <ele>316.561305</ele>
        <time>2026-07-07T13:10:59.000Z</time>
      </trkpt>
      <trkpt lat="47.78524" lon="16.24399">
        <ele>316.616989</ele>
        <time>2026-07-07T13:11:00.000Z</time>
      </trkpt>
      <trkpt lat="47.78518" lon="16.24399">
        <ele>316.671618</ele>
        <time>2026-07-07T13:11:01.000Z</time>
      </trkpt>
      <trkpt lat="47.78513" lon="16.24399">
        <ele>316.728294</ele>
        <time>2026-07-07T13:11:02.000Z</time>
      </trkpt>
      <trkpt lat="47.78507" lon="16.244">
        <ele>316.782951</ele>
        <time>2026-07-07T13:11:03.000Z</time>
      </trkpt>
      <trkpt lat="47.78502" lon="16.244">
        <ele>316.837645</ele>
        <time>2026-07-07T13:11:04.000Z</time>
      </trkpt>
      <trkpt lat="47.78496" lon="16.24401">
        <ele>316.892274</ele>
        <time>2026-07-07T13:11:05.000Z</time>
      </trkpt>
      <trkpt lat="47.78491" lon="16.24401">
        <ele>316.944919</ele>
        <time>2026-07-07T13:11:06.000Z</time>
      </trkpt>
      <trkpt lat="47.78485" lon="16.24401">
        <ele>316.999613</ele>
        <time>2026-07-07T13:11:07.000Z</time>
      </trkpt>
      <trkpt lat="47.7848" lon="16.24402">
        <ele>317.054221</ele>
        <time>2026-07-07T13:11:08.000Z</time>
      </trkpt>
      <trkpt lat="47.78474" lon="16.24402">
        <ele>317.10885</ele>
        <time>2026-07-07T13:11:09.000Z</time>
      </trkpt>
      <trkpt lat="47.78469" lon="16.24402">
        <ele>317.163458</ele>
        <time>2026-07-07T13:11:10.000Z</time>
      </trkpt>
      <trkpt lat="47.78463" lon="16.24402">
        <ele>317.218051</ele>
        <time>2026-07-07T13:11:11.000Z</time>
      </trkpt>
      <trkpt lat="47.78458" lon="16.24402">
        <ele>317.274644</ele>
        <time>2026-07-07T13:11:12.000Z</time>
      </trkpt>
      <trkpt lat="47.78452" lon="16.24402">
        <ele>317.32924</ele>
        <time>2026-07-07T13:11:13.000Z</time>
      </trkpt>
      <trkpt lat="47.78447" lon="16.24401">
        <ele>317.384006</ele>
        <time>2026-07-07T13:11:14.000Z</time>
      </trkpt>
      <trkpt lat="47.78441" lon="16.24401">
        <ele>317.444184</ele>
        <time>2026-07-07T13:11:15.000Z</time>
      </trkpt>
      <trkpt lat="47.78436" lon="16.24401">
        <ele>317.503153</ele>
        <time>2026-07-07T13:11:16.000Z</time>
      </trkpt>
      <trkpt lat="47.78431" lon="16.244">
        <ele>317.563446</ele>
        <time>2026-07-07T13:11:17.000Z</time>
      </trkpt>
      <trkpt lat="47.78426" lon="16.24399">
        <ele>317.622494</ele>
        <time>2026-07-07T13:11:18.000Z</time>
      </trkpt>
      <trkpt lat="47.7842" lon="16.24399">
        <ele>317.682672</ele>
        <time>2026-07-07T13:11:19.000Z</time>
      </trkpt>
      <trkpt lat="47.78415" lon="16.24399">
        <ele>317.74164</ele>
        <time>2026-07-07T13:11:20.000Z</time>
      </trkpt>
      <trkpt lat="47.7841" lon="16.24398">
        <ele>317.801819</ele>
        <time>2026-07-07T13:11:21.000Z</time>
      </trkpt>
      <trkpt lat="47.78404" lon="16.24397">
        <ele>317.863241</ele>
        <time>2026-07-07T13:11:22.000Z</time>
      </trkpt>
      <trkpt lat="47.78399" lon="16.24397">
        <ele>317.923419</ele>
        <time>2026-07-07T13:11:23.000Z</time>
      </trkpt>
      <trkpt lat="47.78394" lon="16.24396">
        <ele>317.983597</ele>
        <time>2026-07-07T13:11:24.000Z</time>
      </trkpt>
      <trkpt lat="47.78389" lon="16.24396">
        <ele>318.042645</ele>
        <time>2026-07-07T13:11:25.000Z</time>
      </trkpt>
      <trkpt lat="47.78383" lon="16.24396">
        <ele>318.101613</ele>
        <time>2026-07-07T13:11:26.000Z</time>
      </trkpt>
      <trkpt lat="47.78378" lon="16.24395">
        <ele>318.159425</ele>
        <time>2026-07-07T13:11:27.000Z</time>
      </trkpt>
      <trkpt lat="47.78373" lon="16.24395">
        <ele>318.220658</ele>
        <time>2026-07-07T13:11:28.000Z</time>
      </trkpt>
      <trkpt lat="47.78367" lon="16.24395">
        <ele>318.283</ele>
        <time>2026-07-07T13:11:29.000Z</time>
      </trkpt>
      <trkpt lat="47.78362" lon="16.24395">
        <ele>318.345329</ele>
        <time>2026-07-07T13:11:30.000Z</time>
      </trkpt>
      <trkpt lat="47.78357" lon="16.24395">
        <ele>318.405386</ele>
        <time>2026-07-07T13:11:31.000Z</time>
      </trkpt>
      <trkpt lat="47.78351" lon="16.24395">
        <ele>318.464311</ele>
        <time>2026-07-07T13:11:32.000Z</time>
      </trkpt>
      <trkpt lat="47.78346" lon="16.24395">
        <ele>318.522147</ele>
        <time>2026-07-07T13:11:33.000Z</time>
      </trkpt>
      <trkpt lat="47.78341" lon="16.24395">
        <ele>318.578851</ele>
        <time>2026-07-07T13:11:34.000Z</time>
      </trkpt>
      <trkpt lat="47.78336" lon="16.24396">
        <ele>318.634632</ele>
        <time>2026-07-07T13:11:35.000Z</time>
      </trkpt>
      <trkpt lat="47.78331" lon="16.24397">
        <ele>318.691417</ele>
        <time>2026-07-07T13:11:36.000Z</time>
      </trkpt>
      <trkpt lat="47.78326" lon="16.24397">
        <ele>318.749254</ele>
        <time>2026-07-07T13:11:37.000Z</time>
      </trkpt>
      <trkpt lat="47.78321" lon="16.24397">
        <ele>318.808301</ele>
        <time>2026-07-07T13:11:38.000Z</time>
      </trkpt>
      <trkpt lat="47.78316" lon="16.24398">
        <ele>318.868479</ele>
        <time>2026-07-07T13:11:39.000Z</time>
      </trkpt>
      <trkpt lat="47.78311" lon="16.24398">
        <ele>318.927526</ele>
        <time>2026-07-07T13:11:40.000Z</time>
      </trkpt>
      <trkpt lat="47.78305" lon="16.24399">
        <ele>318.987661</ele>
        <time>2026-07-07T13:11:41.000Z</time>
      </trkpt>
      <trkpt lat="47.783" lon="16.24399">
        <ele>319.044365</ele>
        <time>2026-07-07T13:11:42.000Z</time>
      </trkpt>
      <trkpt lat="47.78295" lon="16.24399">
        <ele>319.103334</ele>
        <time>2026-07-07T13:11:43.000Z</time>
      </trkpt>
      <trkpt lat="47.7829" lon="16.244">
        <ele>319.162381</ele>
        <time>2026-07-07T13:11:44.000Z</time>
      </trkpt>
      <trkpt lat="47.78285" lon="16.244">
        <ele>319.220298</ele>
        <time>2026-07-07T13:11:45.000Z</time>
      </trkpt>
      <trkpt lat="47.7828" lon="16.24401">
        <ele>319.279345</ele>
        <time>2026-07-07T13:11:46.000Z</time>
      </trkpt>
      <trkpt lat="47.78274" lon="16.24401">
        <ele>319.338348</ele>
        <time>2026-07-07T13:11:47.000Z</time>
      </trkpt>
      <trkpt lat="47.78269" lon="16.24402">
        <ele>319.396185</ele>
        <time>2026-07-07T13:11:48.000Z</time>
      </trkpt>
      <trkpt lat="47.78264" lon="16.24402">
        <ele>319.431847</ele>
        <time>2026-07-07T13:11:49.000Z</time>
      </trkpt>
      <trkpt lat="47.78259" lon="16.24402">
        <ele>319.450232</ele>
        <time>2026-07-07T13:11:50.000Z</time>
      </trkpt>
      <trkpt lat="47.78254" lon="16.24403">
        <ele>319.468296</ele>
        <time>2026-07-07T13:11:51.000Z</time>
      </trkpt>
      <trkpt lat="47.78249" lon="16.24403">
        <ele>319.48607</ele>
        <time>2026-07-07T13:11:52.000Z</time>
      </trkpt>
      <trkpt lat="47.78244" lon="16.24404">
        <ele>319.504523</ele>
        <time>2026-07-07T13:11:53.000Z</time>
      </trkpt>
      <trkpt lat="47.78238" lon="16.24405">
        <ele>319.52294</ele>
        <time>2026-07-07T13:11:54.000Z</time>
      </trkpt>
      <trkpt lat="47.78233" lon="16.24405">
        <ele>319.541005</ele>
        <time>2026-07-07T13:11:55.000Z</time>
      </trkpt>
      <trkpt lat="47.78228" lon="16.24405">
        <ele>319.560104</ele>
        <time>2026-07-07T13:11:56.000Z</time>
      </trkpt>
      <trkpt lat="47.78223" lon="16.24406">
        <ele>319.578154</ele>
        <time>2026-07-07T13:11:57.000Z</time>
      </trkpt>
      <trkpt lat="47.78217" lon="16.24406">
        <ele>319.597276</ele>
        <time>2026-07-07T13:11:58.000Z</time>
      </trkpt>
      <trkpt lat="47.78212" lon="16.24407">
        <ele>319.616022</ele>
        <time>2026-07-07T13:11:59.000Z</time>
      </trkpt>
      <trkpt lat="47.78207" lon="16.24407">
        <ele>319.634415</ele>
        <time>2026-07-07T13:12:00.000Z</time>
      </trkpt>
      <trkpt lat="47.78202" lon="16.24407">
        <ele>319.653171</ele>
        <time>2026-07-07T13:12:01.000Z</time>
      </trkpt>
      <trkpt lat="47.78196" lon="16.24408">
        <ele>319.671563</ele>
        <time>2026-07-07T13:12:02.000Z</time>
      </trkpt>
      <trkpt lat="47.78191" lon="16.24408">
        <ele>319.689313</ele>
        <time>2026-07-07T13:12:03.000Z</time>
      </trkpt>
      <trkpt lat="47.78186" lon="16.24409">
        <ele>319.707378</ele>
        <time>2026-07-07T13:12:04.000Z</time>
      </trkpt>
      <trkpt lat="47.78181" lon="16.24409">
        <ele>319.7265</ele>
        <time>2026-07-07T13:12:05.000Z</time>
      </trkpt>
      <trkpt lat="47.78176" lon="16.2441">
        <ele>319.744539</ele>
        <time>2026-07-07T13:12:06.000Z</time>
      </trkpt>
      <trkpt lat="47.78171" lon="16.2441">
        <ele>319.762924</ele>
        <time>2026-07-07T13:12:07.000Z</time>
      </trkpt>
      <trkpt lat="47.78165" lon="16.2441">
        <ele>319.781658</ele>
        <time>2026-07-07T13:12:08.000Z</time>
      </trkpt>
      <trkpt lat="47.7816" lon="16.2441">
        <ele>319.800767</ele>
        <time>2026-07-07T13:12:09.000Z</time>
      </trkpt>
      <trkpt lat="47.78155" lon="16.2441">
        <ele>319.819505</ele>
        <time>2026-07-07T13:12:10.000Z</time>
      </trkpt>
      <trkpt lat="47.78149" lon="16.2441">
        <ele>319.838957</ele>
        <time>2026-07-07T13:12:11.000Z</time>
      </trkpt>
      <trkpt lat="47.78144" lon="16.24409">
        <ele>319.85842</ele>
        <time>2026-07-07T13:12:12.000Z</time>
      </trkpt>
      <trkpt lat="47.78138" lon="16.24409">
        <ele>319.877911</ele>
        <time>2026-07-07T13:12:13.000Z</time>
      </trkpt>
      <trkpt lat="47.78133" lon="16.24408">
        <ele>319.896764</ele>
        <time>2026-07-07T13:12:14.000Z</time>
      </trkpt>
      <trkpt lat="47.78127" lon="16.24407">
        <ele>319.916378</ele>
        <time>2026-07-07T13:12:15.000Z</time>
      </trkpt>
      <trkpt lat="47.78122" lon="16.24405">
        <ele>319.936141</ele>
        <time>2026-07-07T13:12:16.000Z</time>
      </trkpt>
      <trkpt lat="47.78116" lon="16.24404">
        <ele>319.955995</ele>
        <time>2026-07-07T13:12:17.000Z</time>
      </trkpt>
      <trkpt lat="47.78111" lon="16.24402">
        <ele>319.97541</ele>
        <time>2026-07-07T13:12:18.000Z</time>
      </trkpt>
      <trkpt lat="47.78106" lon="16.244">
        <ele>319.994572</ele>
        <time>2026-07-07T13:12:19.000Z</time>
      </trkpt>
      <trkpt lat="47.781" lon="16.24399">
        <ele>320.01364</ele>
        <time>2026-07-07T13:12:20.000Z</time>
      </trkpt>
      <trkpt lat="47.78095" lon="16.24397">
        <ele>320.0331</ele>
        <time>2026-07-07T13:12:21.000Z</time>
      </trkpt>
      <trkpt lat="47.7809" lon="16.24395">
        <ele>320.051682</ele>
        <time>2026-07-07T13:12:22.000Z</time>
      </trkpt>
      <trkpt lat="47.78084" lon="16.24394">
        <ele>320.091075</ele>
        <time>2026-07-07T13:12:23.000Z</time>
      </trkpt>
      <trkpt lat="47.78079" lon="16.24392">
        <ele>320.136907</ele>
        <time>2026-07-07T13:12:24.000Z</time>
      </trkpt>
      <trkpt lat="47.78074" lon="16.2439">
        <ele>320.182038</ele>
        <time>2026-07-07T13:12:25.000Z</time>
      </trkpt>
      <trkpt lat="47.78069" lon="16.24388">
        <ele>320.226219</ele>
        <time>2026-07-07T13:12:26.000Z</time>
      </trkpt>
      <trkpt lat="47.78064" lon="16.24387">
        <ele>320.271106</ele>
        <time>2026-07-07T13:12:27.000Z</time>
      </trkpt>
      <trkpt lat="47.78059" lon="16.24385">
        <ele>320.314223</ele>
        <time>2026-07-07T13:12:28.000Z</time>
      </trkpt>
      <trkpt lat="47.78054" lon="16.24384">
        <ele>320.35734</ele>
        <time>2026-07-07T13:12:29.000Z</time>
      </trkpt>
      <trkpt lat="47.78049" lon="16.24382">
        <ele>320.400696</ele>
        <time>2026-07-07T13:12:30.000Z</time>
      </trkpt>
      <trkpt lat="47.78043" lon="16.24381">
        <ele>320.445472</ele>
        <time>2026-07-07T13:12:31.000Z</time>
      </trkpt>
      <trkpt lat="47.78038" lon="16.24379">
        <ele>320.489418</ele>
        <time>2026-07-07T13:12:32.000Z</time>
      </trkpt>
      <trkpt lat="47.78033" lon="16.24377">
        <ele>320.536077</ele>
        <time>2026-07-07T13:12:33.000Z</time>
      </trkpt>
      <trkpt lat="47.78028" lon="16.24376">
        <ele>320.580137</ele>
        <time>2026-07-07T13:12:34.000Z</time>
      </trkpt>
      <trkpt lat="47.78023" lon="16.24374">
        <ele>320.625143</ele>
        <time>2026-07-07T13:12:35.000Z</time>
      </trkpt>
      <trkpt lat="47.78017" lon="16.24372">
        <ele>320.672628</ele>
        <time>2026-07-07T13:12:36.000Z</time>
      </trkpt>
      <trkpt lat="47.78012" lon="16.24371">
        <ele>320.719896</ele>
        <time>2026-07-07T13:12:37.000Z</time>
      </trkpt>
      <trkpt lat="47.78006" lon="16.24369">
        <ele>320.767164</ele>
        <time>2026-07-07T13:12:38.000Z</time>
      </trkpt>
      <trkpt lat="47.78001" lon="16.24368">
        <ele>320.814432</ele>
        <time>2026-07-07T13:12:39.000Z</time>
      </trkpt>
      <trkpt lat="47.77995" lon="16.24366">
        <ele>320.8617</ele>
        <time>2026-07-07T13:12:40.000Z</time>
      </trkpt>
      <trkpt lat="47.7799" lon="16.24365">
        <ele>320.908777</ele>
        <time>2026-07-07T13:12:41.000Z</time>
      </trkpt>
      <trkpt lat="47.77984" lon="16.24364">
        <ele>320.954095</ele>
        <time>2026-07-07T13:12:42.000Z</time>
      </trkpt>
      <trkpt lat="47.77979" lon="16.24363">
        <ele>321.000934</ele>
        <time>2026-07-07T13:12:43.000Z</time>
      </trkpt>
      <trkpt lat="47.77973" lon="16.24362">
        <ele>321.047553</ele>
        <time>2026-07-07T13:12:44.000Z</time>
      </trkpt>
      <trkpt lat="47.77967" lon="16.24362">
        <ele>321.097508</ele>
        <time>2026-07-07T13:12:45.000Z</time>
      </trkpt>
      <trkpt lat="47.77962" lon="16.24362">
        <ele>321.144861</ele>
        <time>2026-07-07T13:12:46.000Z</time>
      </trkpt>
      <trkpt lat="47.77956" lon="16.24362">
        <ele>321.194736</ele>
        <time>2026-07-07T13:12:47.000Z</time>
      </trkpt>
      <trkpt lat="47.7795" lon="16.24362">
        <ele>321.243766</ele>
        <time>2026-07-07T13:12:48.000Z</time>
      </trkpt>
      <trkpt lat="47.77944" lon="16.24362">
        <ele>321.292033</ele>
        <time>2026-07-07T13:12:49.000Z</time>
      </trkpt>
      <trkpt lat="47.77939" lon="16.24363">
        <ele>321.341391</ele>
        <time>2026-07-07T13:12:50.000Z</time>
      </trkpt>
      <trkpt lat="47.77933" lon="16.24364">
        <ele>321.390749</ele>
        <time>2026-07-07T13:12:51.000Z</time>
      </trkpt>
      <trkpt lat="47.77927" lon="16.24365">
        <ele>321.441087</ele>
        <time>2026-07-07T13:12:52.000Z</time>
      </trkpt>
      <trkpt lat="47.77921" lon="16.24366">
        <ele>321.487999</ele>
        <time>2026-07-07T13:12:53.000Z</time>
      </trkpt>
      <trkpt lat="47.77916" lon="16.24368">
        <ele>321.535826</ele>
        <time>2026-07-07T13:12:54.000Z</time>
      </trkpt>
      <trkpt lat="47.7791" lon="16.24369">
        <ele>321.579245</ele>
        <time>2026-07-07T13:12:55.000Z</time>
      </trkpt>
      <trkpt lat="47.77904" lon="16.2437">
        <ele>321.59172</ele>
        <time>2026-07-07T13:12:56.000Z</time>
      </trkpt>
      <trkpt lat="47.77899" lon="16.24371">
        <ele>321.604004</ele>
        <time>2026-07-07T13:12:57.000Z</time>
      </trkpt>
      <trkpt lat="47.77893" lon="16.24373">
        <ele>321.61589</ele>
        <time>2026-07-07T13:12:58.000Z</time>
      </trkpt>
      <trkpt lat="47.77887" lon="16.24374">
        <ele>321.628174</ele>
        <time>2026-07-07T13:12:59.000Z</time>
      </trkpt>
      <trkpt lat="47.77882" lon="16.24375">
        <ele>321.640248</ele>
        <time>2026-07-07T13:13:00.000Z</time>
      </trkpt>
      <trkpt lat="47.77876" lon="16.24377">
        <ele>321.652554</ele>
        <time>2026-07-07T13:13:01.000Z</time>
      </trkpt>
      <trkpt lat="47.7787" lon="16.24378">
        <ele>321.664885</ele>
        <time>2026-07-07T13:13:02.000Z</time>
      </trkpt>
      <trkpt lat="47.77865" lon="16.2438">
        <ele>321.676823</ele>
        <time>2026-07-07T13:13:03.000Z</time>
      </trkpt>
      <trkpt lat="47.77859" lon="16.24382">
        <ele>321.688851</ele>
        <time>2026-07-07T13:13:04.000Z</time>
      </trkpt>
      <trkpt lat="47.77854" lon="16.24384">
        <ele>321.701021</ele>
        <time>2026-07-07T13:13:05.000Z</time>
      </trkpt>
      <trkpt lat="47.77848" lon="16.24387">
        <ele>321.7135</ele>
        <time>2026-07-07T13:13:06.000Z</time>
      </trkpt>
      <trkpt lat="47.77843" lon="16.2439">
        <ele>321.725738</ele>
        <time>2026-07-07T13:13:07.000Z</time>
      </trkpt>
      <trkpt lat="47.77838" lon="16.24394">
        <ele>321.738033</ele>
        <time>2026-07-07T13:13:08.000Z</time>
      </trkpt>
      <trkpt lat="47.77833" lon="16.24397">
        <ele>321.749865</ele>
        <time>2026-07-07T13:13:09.000Z</time>
      </trkpt>
      <trkpt lat="47.77828" lon="16.24401">
        <ele>321.762144</ele>
        <time>2026-07-07T13:13:10.000Z</time>
      </trkpt>
      <trkpt lat="47.77822" lon="16.24405">
        <ele>321.774613</ele>
        <time>2026-07-07T13:13:11.000Z</time>
      </trkpt>
      <trkpt lat="47.77817" lon="16.24409">
        <ele>321.786573</ele>
        <time>2026-07-07T13:13:12.000Z</time>
      </trkpt>
      <trkpt lat="47.77812" lon="16.24412">
        <ele>321.798344</ele>
        <time>2026-07-07T13:13:13.000Z</time>
      </trkpt>
      <trkpt lat="47.77807" lon="16.24416">
        <ele>321.810559</ele>
        <time>2026-07-07T13:13:14.000Z</time>
      </trkpt>
      <trkpt lat="47.77802" lon="16.2442">
        <ele>321.822519</ele>
        <time>2026-07-07T13:13:15.000Z</time>
      </trkpt>
      <trkpt lat="47.77797" lon="16.24424">
        <ele>321.834478</ele>
        <time>2026-07-07T13:13:16.000Z</time>
      </trkpt>
      <trkpt lat="47.77792" lon="16.24428">
        <ele>321.846571</ele>
        <time>2026-07-07T13:13:17.000Z</time>
      </trkpt>
      <trkpt lat="47.77787" lon="16.24432">
        <ele>321.858617</ele>
        <time>2026-07-07T13:13:18.000Z</time>
      </trkpt>
      <trkpt lat="47.77783" lon="16.24436">
        <ele>321.870133</ele>
        <time>2026-07-07T13:13:19.000Z</time>
      </trkpt>
      <trkpt lat="47.77778" lon="16.24439">
        <ele>321.881784</ele>
        <time>2026-07-07T13:13:20.000Z</time>
      </trkpt>
      <trkpt lat="47.77773" lon="16.24442">
        <ele>321.892409</ele>
        <time>2026-07-07T13:13:21.000Z</time>
      </trkpt>
      <trkpt lat="47.77768" lon="16.24446">
        <ele>321.903479</ele>
        <time>2026-07-07T13:13:22.000Z</time>
      </trkpt>
      <trkpt lat="47.77764" lon="16.24449">
        <ele>321.914296</ele>
        <time>2026-07-07T13:13:23.000Z</time>
      </trkpt>
      <trkpt lat="47.77759" lon="16.24453">
        <ele>321.925112</ele>
        <time>2026-07-07T13:13:24.000Z</time>
      </trkpt>
      <trkpt lat="47.77755" lon="16.24456">
        <ele>321.935042</ele>
        <time>2026-07-07T13:13:25.000Z</time>
      </trkpt>
      <trkpt lat="47.77751" lon="16.24459">
        <ele>321.945094</ele>
        <time>2026-07-07T13:13:26.000Z</time>
      </trkpt>
      <trkpt lat="47.77747" lon="16.24462">
        <ele>321.954395</ele>
        <time>2026-07-07T13:13:27.000Z</time>
      </trkpt>
      <trkpt lat="47.77743" lon="16.24465">
        <ele>321.953479</ele>
        <time>2026-07-07T13:13:28.000Z</time>
      </trkpt>
      <trkpt lat="47.77739" lon="16.24469">
        <ele>321.933201</ele>
        <time>2026-07-07T13:13:29.000Z</time>
      </trkpt>
      <trkpt lat="47.77735" lon="16.24472">
        <ele>321.913201</ele>
        <time>2026-07-07T13:13:30.000Z</time>
      </trkpt>
      <trkpt lat="47.77731" lon="16.24474">
        <ele>321.893995</ele>
        <time>2026-07-07T13:13:31.000Z</time>
      </trkpt>
      <trkpt lat="47.77728" lon="16.24477">
        <ele>321.875061</ele>
        <time>2026-07-07T13:13:32.000Z</time>
      </trkpt>
      <trkpt lat="47.77724" lon="16.24481">
        <ele>321.854985</ele>
        <time>2026-07-07T13:13:33.000Z</time>
      </trkpt>
      <trkpt lat="47.77722" lon="16.24486">
        <ele>321.836044</ele>
        <time>2026-07-07T13:13:34.000Z</time>
      </trkpt>
      <trkpt lat="47.7772" lon="16.24493">
        <ele>321.816555</ele>
        <time>2026-07-07T13:13:35.000Z</time>
      </trkpt>
      <trkpt lat="47.77719" lon="16.24499">
        <ele>321.79546</ele>
        <time>2026-07-07T13:13:36.000Z</time>
      </trkpt>
      <trkpt lat="47.77718" lon="16.24507">
        <ele>321.772509</ele>
        <time>2026-07-07T13:13:37.000Z</time>
      </trkpt>
      <trkpt lat="47.77716" lon="16.24515">
        <ele>321.748165</ele>
        <time>2026-07-07T13:13:38.000Z</time>
      </trkpt>
      <trkpt lat="47.77715" lon="16.24523">
        <ele>321.722416</ele>
        <time>2026-07-07T13:13:39.000Z</time>
      </trkpt>
      <trkpt lat="47.77713" lon="16.24531">
        <ele>321.69724</ele>
        <time>2026-07-07T13:13:40.000Z</time>
      </trkpt>
      <trkpt lat="47.77711" lon="16.24539">
        <ele>321.67107</ele>
        <time>2026-07-07T13:13:41.000Z</time>
      </trkpt>
      <trkpt lat="47.77709" lon="16.24547">
        <ele>321.645034</ele>
        <time>2026-07-07T13:13:42.000Z</time>
      </trkpt>
      <trkpt lat="47.77708" lon="16.24556">
        <ele>321.618955</ele>
        <time>2026-07-07T13:13:43.000Z</time>
      </trkpt>
      <trkpt lat="47.77706" lon="16.24564">
        <ele>321.593165</ele>
        <time>2026-07-07T13:13:44.000Z</time>
      </trkpt>
      <trkpt lat="47.77705" lon="16.24572">
        <ele>321.567544</ele>
        <time>2026-07-07T13:13:45.000Z</time>
      </trkpt>
      <trkpt lat="47.77703" lon="16.2458">
        <ele>321.542084</ele>
        <time>2026-07-07T13:13:46.000Z</time>
      </trkpt>
      <trkpt lat="47.77701" lon="16.24588">
        <ele>321.517039</ele>
        <time>2026-07-07T13:13:47.000Z</time>
      </trkpt>
      <trkpt lat="47.777" lon="16.24596">
        <ele>321.492117</ele>
        <time>2026-07-07T13:13:48.000Z</time>
      </trkpt>
      <trkpt lat="47.77698" lon="16.24604">
        <ele>321.466374</ele>
        <time>2026-07-07T13:13:49.000Z</time>
      </trkpt>
      <trkpt lat="47.77696" lon="16.24612">
        <ele>321.440603</ele>
        <time>2026-07-07T13:13:50.000Z</time>
      </trkpt>
      <trkpt lat="47.77694" lon="16.2462">
        <ele>321.414991</ele>
        <time>2026-07-07T13:13:51.000Z</time>
      </trkpt>
      <trkpt lat="47.77692" lon="16.24628">
        <ele>321.389379</ele>
        <time>2026-07-07T13:13:52.000Z</time>
      </trkpt>
      <trkpt lat="47.7769" lon="16.24636">
        <ele>321.363442</ele>
        <time>2026-07-07T13:13:53.000Z</time>
      </trkpt>
      <trkpt lat="47.77687" lon="16.24644">
        <ele>321.337782</ele>
        <time>2026-07-07T13:13:54.000Z</time>
      </trkpt>
      <trkpt lat="47.77685" lon="16.24652">
        <ele>321.312732</ele>
        <time>2026-07-07T13:13:55.000Z</time>
      </trkpt>
      <trkpt lat="47.77683" lon="16.2466">
        <ele>321.287962</ele>
        <time>2026-07-07T13:13:56.000Z</time>
      </trkpt>
      <trkpt lat="47.77681" lon="16.24667">
        <ele>321.264135</ele>
        <time>2026-07-07T13:13:57.000Z</time>
      </trkpt>
      <trkpt lat="47.77679" lon="16.24674">
        <ele>321.240128</ele>
        <time>2026-07-07T13:13:58.000Z</time>
      </trkpt>
      <trkpt lat="47.77677" lon="16.24681">
        <ele>321.216941</ele>
        <time>2026-07-07T13:13:59.000Z</time>
      </trkpt>
      <trkpt lat="47.77675" lon="16.24689">
        <ele>321.193389</ele>
        <time>2026-07-07T13:14:00.000Z</time>
      </trkpt>
      <trkpt lat="47.77673" lon="16.24696">
        <ele>321.169383</ele>
        <time>2026-07-07T13:14:01.000Z</time>
      </trkpt>
      <trkpt lat="47.77671" lon="16.24703">
        <ele>321.146425</ele>
        <time>2026-07-07T13:14:02.000Z</time>
      </trkpt>
      <trkpt lat="47.77668" lon="16.2471">
        <ele>321.124084</ele>
        <time>2026-07-07T13:14:03.000Z</time>
      </trkpt>
      <trkpt lat="47.77666" lon="16.24717">
        <ele>321.101921</ele>
        <time>2026-07-07T13:14:04.000Z</time>
      </trkpt>
      <trkpt lat="47.77664" lon="16.24725">
        <ele>321.078593</ele>
        <time>2026-07-07T13:14:05.000Z</time>
      </trkpt>
      <trkpt lat="47.77662" lon="16.24732">
        <ele>321.054137</ele>
        <time>2026-07-07T13:14:06.000Z</time>
      </trkpt>
      <trkpt lat="47.7766" lon="16.2474">
        <ele>321.029147</ele>
        <time>2026-07-07T13:14:07.000Z</time>
      </trkpt>
      <trkpt lat="47.77658" lon="16.24748">
        <ele>321.004585</ele>
        <time>2026-07-07T13:14:08.000Z</time>
      </trkpt>
      <trkpt lat="47.77656" lon="16.24756">
        <ele>320.979327</ele>
        <time>2026-07-07T13:14:09.000Z</time>
      </trkpt>
      <trkpt lat="47.77653" lon="16.24765">
        <ele>320.953638</ele>
        <time>2026-07-07T13:14:10.000Z</time>
      </trkpt>
      <trkpt lat="47.77651" lon="16.24773">
        <ele>320.928309</ele>
        <time>2026-07-07T13:14:11.000Z</time>
      </trkpt>
      <trkpt lat="47.77649" lon="16.24781">
        <ele>320.90262</ele>
        <time>2026-07-07T13:14:12.000Z</time>
      </trkpt>
      <trkpt lat="47.77646" lon="16.24789">
        <ele>320.876825</ele>
        <time>2026-07-07T13:14:13.000Z</time>
      </trkpt>
      <trkpt lat="47.77644" lon="16.24797">
        <ele>320.851136</ele>
        <time>2026-07-07T13:14:14.000Z</time>
      </trkpt>
      <trkpt lat="47.77642" lon="16.24805">
        <ele>320.82598</ele>
        <time>2026-07-07T13:14:15.000Z</time>
      </trkpt>
      <trkpt lat="47.7764" lon="16.24813">
        <ele>320.800721</ele>
        <time>2026-07-07T13:14:16.000Z</time>
      </trkpt>
      <trkpt lat="47.77637" lon="16.24821">
        <ele>320.775731</ele>
        <time>2026-07-07T13:14:17.000Z</time>
      </trkpt>
      <trkpt lat="47.77635" lon="16.24829">
        <ele>320.75084</ele>
        <time>2026-07-07T13:14:18.000Z</time>
      </trkpt>
      <trkpt lat="47.77633" lon="16.24837">
        <ele>320.726384</ele>
        <time>2026-07-07T13:14:19.000Z</time>
      </trkpt>
      <trkpt lat="47.77631" lon="16.24845">
        <ele>320.702091</ele>
        <time>2026-07-07T13:14:20.000Z</time>
      </trkpt>
      <trkpt lat="47.77629" lon="16.24853">
        <ele>320.677901</ele>
        <time>2026-07-07T13:14:21.000Z</time>
      </trkpt>
      <trkpt lat="47.77626" lon="16.2486">
        <ele>320.653711</ele>
        <time>2026-07-07T13:14:22.000Z</time>
      </trkpt>
      <trkpt lat="47.77624" lon="16.24868">
        <ele>320.630221</ele>
        <time>2026-07-07T13:14:23.000Z</time>
      </trkpt>
      <trkpt lat="47.77622" lon="16.24875">
        <ele>320.606205</ele>
        <time>2026-07-07T13:14:24.000Z</time>
      </trkpt>
      <trkpt lat="47.7762" lon="16.24883">
        <ele>320.582714</ele>
        <time>2026-07-07T13:14:25.000Z</time>
      </trkpt>
      <trkpt lat="47.77618" lon="16.24891">
        <ele>320.558258</ele>
        <time>2026-07-07T13:14:26.000Z</time>
      </trkpt>
      <trkpt lat="47.77615" lon="16.24898">
        <ele>320.533802</ele>
        <time>2026-07-07T13:14:27.000Z</time>
      </trkpt>
      <trkpt lat="47.77613" lon="16.24906">
        <ele>320.508971</ele>
        <time>2026-07-07T13:14:28.000Z</time>
      </trkpt>
      <trkpt lat="47.77611" lon="16.24914">
        <ele>320.483981</ele>
        <time>2026-07-07T13:14:29.000Z</time>
      </trkpt>
      <trkpt lat="47.77609" lon="16.24923">
        <ele>320.45876</ele>
        <time>2026-07-07T13:14:30.000Z</time>
      </trkpt>
      <trkpt lat="47.77607" lon="16.24931">
        <ele>320.43377</ele>
        <time>2026-07-07T13:14:31.000Z</time>
      </trkpt>
      <trkpt lat="47.77605" lon="16.24939">
        <ele>320.4084</ele>
        <time>2026-07-07T13:14:32.000Z</time>
      </trkpt>
      <trkpt lat="47.77603" lon="16.24947">
        <ele>320.383943</ele>
        <time>2026-07-07T13:14:33.000Z</time>
      </trkpt>
      <trkpt lat="47.776" lon="16.24955">
        <ele>320.368765</ele>
        <time>2026-07-07T13:14:34.000Z</time>
      </trkpt>
      <trkpt lat="47.77598" lon="16.24963">
        <ele>320.354504</ele>
        <time>2026-07-07T13:14:35.000Z</time>
      </trkpt>
      <trkpt lat="47.77596" lon="16.2497">
        <ele>320.34015</ele>
        <time>2026-07-07T13:14:36.000Z</time>
      </trkpt>
      <trkpt lat="47.77594" lon="16.24978">
        <ele>320.325184</ele>
        <time>2026-07-07T13:14:37.000Z</time>
      </trkpt>
      <trkpt lat="47.77592" lon="16.24986">
        <ele>320.310671</ele>
        <time>2026-07-07T13:14:38.000Z</time>
      </trkpt>
      <trkpt lat="47.7759" lon="16.24994">
        <ele>320.295905</ele>
        <time>2026-07-07T13:14:39.000Z</time>
      </trkpt>
      <trkpt lat="47.77588" lon="16.25002">
        <ele>320.281324</ele>
        <time>2026-07-07T13:14:40.000Z</time>
      </trkpt>
      <trkpt lat="47.77585" lon="16.2501">
        <ele>320.266774</ele>
        <time>2026-07-07T13:14:41.000Z</time>
      </trkpt>
      <trkpt lat="47.77583" lon="16.25018">
        <ele>320.252512</ele>
        <time>2026-07-07T13:14:42.000Z</time>
      </trkpt>
      <trkpt lat="47.77581" lon="16.25026">
        <ele>320.237904</ele>
        <time>2026-07-07T13:14:43.000Z</time>
      </trkpt>
      <trkpt lat="47.77579" lon="16.25034">
        <ele>320.223643</ele>
        <time>2026-07-07T13:14:44.000Z</time>
      </trkpt>
      <trkpt lat="47.77577" lon="16.25041">
        <ele>320.209664</ele>
        <time>2026-07-07T13:14:45.000Z</time>
      </trkpt>
      <trkpt lat="47.77575" lon="16.25049">
        <ele>320.195468</ele>
        <time>2026-07-07T13:14:46.000Z</time>
      </trkpt>
      <trkpt lat="47.77572" lon="16.25056">
        <ele>320.181013</ele>
        <time>2026-07-07T13:14:47.000Z</time>
      </trkpt>
      <trkpt lat="47.7757" lon="16.25064">
        <ele>320.166203</ele>
        <time>2026-07-07T13:14:48.000Z</time>
      </trkpt>
      <trkpt lat="47.77568" lon="16.25072">
        <ele>320.151849</ele>
        <time>2026-07-07T13:14:49.000Z</time>
      </trkpt>
      <trkpt lat="47.77565" lon="16.2508">
        <ele>320.137195</ele>
        <time>2026-07-07T13:14:50.000Z</time>
      </trkpt>
      <trkpt lat="47.77563" lon="16.25088">
        <ele>320.122682</ele>
        <time>2026-07-07T13:14:51.000Z</time>
      </trkpt>
      <trkpt lat="47.77561" lon="16.25095">
        <ele>320.108703</ele>
        <time>2026-07-07T13:14:52.000Z</time>
      </trkpt>
      <trkpt lat="47.77559" lon="16.25103">
        <ele>320.094919</ele>
        <time>2026-07-07T13:14:53.000Z</time>
      </trkpt>
      <trkpt lat="47.77557" lon="16.2511">
        <ele>320.081925</ele>
        <time>2026-07-07T13:14:54.000Z</time>
      </trkpt>
      <trkpt lat="47.77555" lon="16.25117">
        <ele>320.068774</ele>
        <time>2026-07-07T13:14:55.000Z</time>
      </trkpt>
      <trkpt lat="47.77553" lon="16.25124">
        <ele>320.055149</ele>
        <time>2026-07-07T13:14:56.000Z</time>
      </trkpt>
      <trkpt lat="47.77551" lon="16.25132">
        <ele>320.041482</ele>
        <time>2026-07-07T13:14:57.000Z</time>
      </trkpt>
      <trkpt lat="47.77549" lon="16.25139">
        <ele>320.027917</ele>
        <time>2026-07-07T13:14:58.000Z</time>
      </trkpt>
      <trkpt lat="47.77547" lon="16.25146">
        <ele>320.013938</ele>
        <time>2026-07-07T13:14:59.000Z</time>
      </trkpt>
      <trkpt lat="47.77544" lon="16.25154">
        <ele>319.999645</ele>
        <time>2026-07-07T13:15:00.000Z</time>
      </trkpt>
      <trkpt lat="47.77542" lon="16.25162">
        <ele>319.985449</ele>
        <time>2026-07-07T13:15:01.000Z</time>
      </trkpt>
      <trkpt lat="47.7754" lon="16.2517">
        <ele>319.970795</ele>
        <time>2026-07-07T13:15:02.000Z</time>
      </trkpt>
      <trkpt lat="47.77538" lon="16.25178">
        <ele>319.956123</ele>
        <time>2026-07-07T13:15:03.000Z</time>
      </trkpt>
      <trkpt lat="47.77535" lon="16.25186">
        <ele>319.941157</ele>
        <time>2026-07-07T13:15:04.000Z</time>
      </trkpt>
      <trkpt lat="47.77533" lon="16.25193">
        <ele>319.926803</ele>
        <time>2026-07-07T13:15:05.000Z</time>
      </trkpt>
      <trkpt lat="47.77531" lon="16.25201">
        <ele>319.89897</ele>
        <time>2026-07-07T13:15:06.000Z</time>
      </trkpt>
      <trkpt lat="47.77529" lon="16.25209">
        <ele>319.870371</ele>
        <time>2026-07-07T13:15:07.000Z</time>
      </trkpt>
      <trkpt lat="47.77527" lon="16.25217">
        <ele>319.841962</ele>
        <time>2026-07-07T13:15:08.000Z</time>
      </trkpt>
      <trkpt lat="47.77524" lon="16.25225">
        <ele>319.813364</ele>
        <time>2026-07-07T13:15:09.000Z</time>
      </trkpt>
      <trkpt lat="47.77522" lon="16.25233">
        <ele>319.784068</ele>
        <time>2026-07-07T13:15:10.000Z</time>
      </trkpt>
      <trkpt lat="47.77519" lon="16.25241">
        <ele>319.755274</ele>
        <time>2026-07-07T13:15:11.000Z</time>
      </trkpt>
      <trkpt lat="47.77517" lon="16.2525">
        <ele>319.72607</ele>
        <time>2026-07-07T13:15:12.000Z</time>
      </trkpt>
      <trkpt lat="47.77515" lon="16.25258">
        <ele>319.697073</ele>
        <time>2026-07-07T13:15:13.000Z</time>
      </trkpt>
      <trkpt lat="47.77512" lon="16.25266">
        <ele>319.668475</ele>
        <time>2026-07-07T13:15:14.000Z</time>
      </trkpt>
      <trkpt lat="47.7751" lon="16.25274">
        <ele>319.639478</ele>
        <time>2026-07-07T13:15:15.000Z</time>
      </trkpt>
      <trkpt lat="47.77507" lon="16.25282">
        <ele>319.610684</ele>
        <time>2026-07-07T13:15:16.000Z</time>
      </trkpt>
      <trkpt lat="47.77505" lon="16.2529">
        <ele>319.582085</ele>
        <time>2026-07-07T13:15:17.000Z</time>
      </trkpt>
      <trkpt lat="47.77503" lon="16.25297">
        <ele>319.55409</ele>
        <time>2026-07-07T13:15:18.000Z</time>
      </trkpt>
      <trkpt lat="47.77501" lon="16.25305">
        <ele>319.52568</ele>
        <time>2026-07-07T13:15:19.000Z</time>
      </trkpt>
      <trkpt lat="47.77498" lon="16.25313">
        <ele>319.497271</ele>
        <time>2026-07-07T13:15:20.000Z</time>
      </trkpt>
      <trkpt lat="47.77496" lon="16.25321">
        <ele>319.468672</ele>
        <time>2026-07-07T13:15:21.000Z</time>
      </trkpt>
      <trkpt lat="47.77494" lon="16.25329">
        <ele>319.440263</ele>
        <time>2026-07-07T13:15:22.000Z</time>
      </trkpt>
      <trkpt lat="47.77492" lon="16.25337">
        <ele>319.412034</ele>
        <time>2026-07-07T13:15:23.000Z</time>
      </trkpt>
      <trkpt lat="47.7749" lon="16.25345">
        <ele>319.383625</ele>
        <time>2026-07-07T13:15:24.000Z</time>
      </trkpt>
      <trkpt lat="47.77487" lon="16.25354">
        <ele>319.354606</ele>
        <time>2026-07-07T13:15:25.000Z</time>
      </trkpt>
      <trkpt lat="47.77485" lon="16.25362">
        <ele>319.326552</ele>
        <time>2026-07-07T13:15:26.000Z</time>
      </trkpt>
      <trkpt lat="47.77483" lon="16.2537">
        <ele>319.298324</ele>
        <time>2026-07-07T13:15:27.000Z</time>
      </trkpt>
      <trkpt lat="47.77481" lon="16.25378">
        <ele>319.27027</ele>
        <time>2026-07-07T13:15:28.000Z</time>
      </trkpt>
      <trkpt lat="47.77479" lon="16.25386">
        <ele>319.242383</ele>
        <time>2026-07-07T13:15:29.000Z</time>
      </trkpt>
      <trkpt lat="47.77477" lon="16.25394">
        <ele>319.214329</ele>
        <time>2026-07-07T13:15:30.000Z</time>
      </trkpt>
      <trkpt lat="47.77475" lon="16.25402">
        <ele>319.185487</ele>
        <time>2026-07-07T13:15:31.000Z</time>
      </trkpt>
      <trkpt lat="47.77473" lon="16.2541">
        <ele>319.157433</ele>
        <time>2026-07-07T13:15:32.000Z</time>
      </trkpt>
      <trkpt lat="47.77471" lon="16.25418">
        <ele>319.129071</ele>
        <time>2026-07-07T13:15:33.000Z</time>
      </trkpt>
      <trkpt lat="47.77469" lon="16.25426">
        <ele>319.101017</ele>
        <time>2026-07-07T13:15:34.000Z</time>
      </trkpt>
      <trkpt lat="47.77467" lon="16.25434">
        <ele>319.073271</ele>
        <time>2026-07-07T13:15:35.000Z</time>
      </trkpt>
      <trkpt lat="47.77465" lon="16.25442">
        <ele>319.045196</ele>
        <time>2026-07-07T13:15:36.000Z</time>
      </trkpt>
      <trkpt lat="47.77464" lon="16.2545">
        <ele>319.013604</ele>
        <time>2026-07-07T13:15:37.000Z</time>
      </trkpt>
      <trkpt lat="47.77462" lon="16.25458">
        <ele>318.981997</ele>
        <time>2026-07-07T13:15:38.000Z</time>
      </trkpt>
      <trkpt lat="47.77459" lon="16.25466">
        <ele>318.949988</ele>
        <time>2026-07-07T13:15:39.000Z</time>
      </trkpt>
      <trkpt lat="47.77457" lon="16.25474">
        <ele>318.918381</ele>
        <time>2026-07-07T13:15:40.000Z</time>
      </trkpt>
      <trkpt lat="47.77455" lon="16.25482">
        <ele>318.886773</ele>
        <time>2026-07-07T13:15:41.000Z</time>
      </trkpt>
      <trkpt lat="47.77453" lon="16.2549">
        <ele>318.85497</ele>
        <time>2026-07-07T13:15:42.000Z</time>
      </trkpt>
      <trkpt lat="47.77451" lon="16.25498">
        <ele>318.823709</ele>
        <time>2026-07-07T13:15:43.000Z</time>
      </trkpt>
      <trkpt lat="47.77449" lon="16.25506">
        <ele>318.792289</ele>
        <time>2026-07-07T13:15:44.000Z</time>
      </trkpt>
      <trkpt lat="47.77447" lon="16.25514">
        <ele>318.761375</ele>
        <time>2026-07-07T13:15:45.000Z</time>
      </trkpt>
      <trkpt lat="47.77445" lon="16.25521">
        <ele>318.73046</ele>
        <time>2026-07-07T13:15:46.000Z</time>
      </trkpt>
      <trkpt lat="47.77443" lon="16.25529">
        <ele>318.6992</ele>
        <time>2026-07-07T13:15:47.000Z</time>
      </trkpt>
      <trkpt lat="47.77441" lon="16.25537">
        <ele>318.668285</ele>
        <time>2026-07-07T13:15:48.000Z</time>
      </trkpt>
      <trkpt lat="47.7744" lon="16.25545">
        <ele>318.637746</ele>
        <time>2026-07-07T13:15:49.000Z</time>
      </trkpt>
      <trkpt lat="47.77438" lon="16.25553">
        <ele>318.607029</ele>
        <time>2026-07-07T13:15:50.000Z</time>
      </trkpt>
      <trkpt lat="47.77436" lon="16.25561">
        <ele>318.57649</ele>
        <time>2026-07-07T13:15:51.000Z</time>
      </trkpt>
      <trkpt lat="47.77434" lon="16.25568">
        <ele>318.545575</ele>
        <time>2026-07-07T13:15:52.000Z</time>
      </trkpt>
      <trkpt lat="47.77432" lon="16.25576">
        <ele>318.513567</ele>
        <time>2026-07-07T13:15:53.000Z</time>
      </trkpt>
      <trkpt lat="47.7743" lon="16.25584">
        <ele>318.481763</ele>
        <time>2026-07-07T13:15:54.000Z</time>
      </trkpt>
      <trkpt lat="47.77428" lon="16.25592">
        <ele>318.449755</ele>
        <time>2026-07-07T13:15:55.000Z</time>
      </trkpt>
      <trkpt lat="47.77425" lon="16.25601">
        <ele>318.417059</ele>
        <time>2026-07-07T13:15:56.000Z</time>
      </trkpt>
      <trkpt lat="47.77423" lon="16.25609">
        <ele>318.385452</ele>
        <time>2026-07-07T13:15:57.000Z</time>
      </trkpt>
      <trkpt lat="47.77422" lon="16.25617">
        <ele>318.354211</ele>
        <time>2026-07-07T13:15:58.000Z</time>
      </trkpt>
      <trkpt lat="47.7742" lon="16.25624">
        <ele>318.323642</ele>
        <time>2026-07-07T13:15:59.000Z</time>
      </trkpt>
      <trkpt lat="47.77418" lon="16.25632">
        <ele>318.293418</ele>
        <time>2026-07-07T13:16:00.000Z</time>
      </trkpt>
      <trkpt lat="47.77416" lon="16.2564">
        <ele>318.263406</ele>
        <time>2026-07-07T13:16:01.000Z</time>
      </trkpt>
      <trkpt lat="47.77414" lon="16.25647">
        <ele>318.233217</ele>
        <time>2026-07-07T13:16:02.000Z</time>
      </trkpt>
      <trkpt lat="47.77412" lon="16.25655">
        <ele>318.202677</ele>
        <time>2026-07-07T13:16:03.000Z</time>
      </trkpt>
      <trkpt lat="47.7741" lon="16.25663">
        <ele>318.171258</ele>
        <time>2026-07-07T13:16:04.000Z</time>
      </trkpt>
      <trkpt lat="47.77408" lon="16.25671">
        <ele>318.13965</ele>
        <time>2026-07-07T13:16:05.000Z</time>
      </trkpt>
      <trkpt lat="47.77406" lon="16.25679">
        <ele>318.107347</ele>
        <time>2026-07-07T13:16:06.000Z</time>
      </trkpt>
      <trkpt lat="47.77404" lon="16.25687">
        <ele>318.075392</ele>
        <time>2026-07-07T13:16:07.000Z</time>
      </trkpt>
      <trkpt lat="47.77402" lon="16.25696">
        <ele>318.052204</ele>
        <time>2026-07-07T13:16:08.000Z</time>
      </trkpt>
      <trkpt lat="47.774" lon="16.25704">
        <ele>318.043078</ele>
        <time>2026-07-07T13:16:09.000Z</time>
      </trkpt>
      <trkpt lat="47.77398" lon="16.25712">
        <ele>318.033856</ele>
        <time>2026-07-07T13:16:10.000Z</time>
      </trkpt>
      <trkpt lat="47.77396" lon="16.2572">
        <ele>318.02469</ele>
        <time>2026-07-07T13:16:11.000Z</time>
      </trkpt>
      <trkpt lat="47.77394" lon="16.25729">
        <ele>318.015479</ele>
        <time>2026-07-07T13:16:12.000Z</time>
      </trkpt>
      <trkpt lat="47.77392" lon="16.25737">
        <ele>318.006257</ele>
        <time>2026-07-07T13:16:13.000Z</time>
      </trkpt>
      <trkpt lat="47.77389" lon="16.25745">
        <ele>317.997035</ele>
        <time>2026-07-07T13:16:14.000Z</time>
      </trkpt>
      <trkpt lat="47.77387" lon="16.25754">
        <ele>317.987726</ele>
        <time>2026-07-07T13:16:15.000Z</time>
      </trkpt>
      <trkpt lat="47.77385" lon="16.25762">
        <ele>317.97871</ele>
        <time>2026-07-07T13:16:16.000Z</time>
      </trkpt>
      <trkpt lat="47.77384" lon="16.2577">
        <ele>317.969695</ele>
        <time>2026-07-07T13:16:17.000Z</time>
      </trkpt>
      <trkpt lat="47.77381" lon="16.25779">
        <ele>317.960569</ele>
        <time>2026-07-07T13:16:18.000Z</time>
      </trkpt>
      <trkpt lat="47.77379" lon="16.25787">
        <ele>317.951499</ele>
        <time>2026-07-07T13:16:19.000Z</time>
      </trkpt>
      <trkpt lat="47.77377" lon="16.25795">
        <ele>317.942565</ele>
        <time>2026-07-07T13:16:20.000Z</time>
      </trkpt>
      <trkpt lat="47.77375" lon="16.25803">
        <ele>317.933743</ele>
        <time>2026-07-07T13:16:21.000Z</time>
      </trkpt>
      <trkpt lat="47.77373" lon="16.25811">
        <ele>317.925023</ele>
        <time>2026-07-07T13:16:22.000Z</time>
      </trkpt>
      <trkpt lat="47.77371" lon="16.25819">
        <ele>317.9162</ele>
        <time>2026-07-07T13:16:23.000Z</time>
      </trkpt>
      <trkpt lat="47.77369" lon="16.25827">
        <ele>317.907378</ele>
        <time>2026-07-07T13:16:24.000Z</time>
      </trkpt>
      <trkpt lat="47.77367" lon="16.25835">
        <ele>317.898802</ele>
        <time>2026-07-07T13:16:25.000Z</time>
      </trkpt>
      <trkpt lat="47.77365" lon="16.25842">
        <ele>317.890174</ele>
        <time>2026-07-07T13:16:26.000Z</time>
      </trkpt>
      <trkpt lat="47.77364" lon="16.2585">
        <ele>317.881552</ele>
        <time>2026-07-07T13:16:27.000Z</time>
      </trkpt>
      <trkpt lat="47.77362" lon="16.25858">
        <ele>317.873076</ele>
        <time>2026-07-07T13:16:28.000Z</time>
      </trkpt>
      <trkpt lat="47.7736" lon="16.25866">
        <ele>317.864447</ele>
        <time>2026-07-07T13:16:29.000Z</time>
      </trkpt>
      <trkpt lat="47.77358" lon="16.25874">
        <ele>317.856021</ele>
        <time>2026-07-07T13:16:30.000Z</time>
      </trkpt>
      <trkpt lat="47.77356" lon="16.25881">
        <ele>317.847488</ele>
        <time>2026-07-07T13:16:31.000Z</time>
      </trkpt>
      <trkpt lat="47.77354" lon="16.25889">
        <ele>317.839159</ele>
        <time>2026-07-07T13:16:32.000Z</time>
      </trkpt>
      <trkpt lat="47.77352" lon="16.25897">
        <ele>317.830681</ele>
        <time>2026-07-07T13:16:33.000Z</time>
      </trkpt>
      <trkpt lat="47.77351" lon="16.25904">
        <ele>317.822395</ele>
        <time>2026-07-07T13:16:34.000Z</time>
      </trkpt>
      <trkpt lat="47.77349" lon="16.25912">
        <ele>317.81387</ele>
        <time>2026-07-07T13:16:35.000Z</time>
      </trkpt>
      <trkpt lat="47.77347" lon="16.2592">
        <ele>317.805444</ele>
        <time>2026-07-07T13:16:36.000Z</time>
      </trkpt>
      <trkpt lat="47.77345" lon="16.25928">
        <ele>317.796815</ele>
        <time>2026-07-07T13:16:37.000Z</time>
      </trkpt>
      <trkpt lat="47.77343" lon="16.25936">
        <ele>317.787992</ele>
        <time>2026-07-07T13:16:38.000Z</time>
      </trkpt>
      <trkpt lat="47.77341" lon="16.25943">
        <ele>317.779363</ele>
        <time>2026-07-07T13:16:39.000Z</time>
      </trkpt>
      <trkpt lat="47.77339" lon="16.25951">
        <ele>317.764563</ele>
        <time>2026-07-07T13:16:40.000Z</time>
      </trkpt>
      <trkpt lat="47.77337" lon="16.25959">
        <ele>317.749548</ele>
        <time>2026-07-07T13:16:41.000Z</time>
      </trkpt>
      <trkpt lat="47.77335" lon="16.25967">
        <ele>317.734532</ele>
        <time>2026-07-07T13:16:42.000Z</time>
      </trkpt>
      <trkpt lat="47.77334" lon="16.25976">
        <ele>317.719356</ele>
        <time>2026-07-07T13:16:43.000Z</time>
      </trkpt>
      <trkpt lat="47.77332" lon="16.25984">
        <ele>317.704515</ele>
        <time>2026-07-07T13:16:44.000Z</time>
      </trkpt>
      <trkpt lat="47.7733" lon="16.25992">
        <ele>317.688983</ele>
        <time>2026-07-07T13:16:45.000Z</time>
      </trkpt>
      <trkpt lat="47.77328" lon="16.26">
        <ele>317.673974</ele>
        <time>2026-07-07T13:16:46.000Z</time>
      </trkpt>
      <trkpt lat="47.77326" lon="16.26008">
        <ele>317.659048</ele>
        <time>2026-07-07T13:16:47.000Z</time>
      </trkpt>
      <trkpt lat="47.77324" lon="16.26016">
        <ele>317.643872</ele>
        <time>2026-07-07T13:16:48.000Z</time>
      </trkpt>
      <trkpt lat="47.77322" lon="16.26024">
        <ele>317.628526</ele>
        <time>2026-07-07T13:16:49.000Z</time>
      </trkpt>
      <trkpt lat="47.7732" lon="16.26032">
        <ele>317.613518</ele>
        <time>2026-07-07T13:16:50.000Z</time>
      </trkpt>
      <trkpt lat="47.77319" lon="16.26041">
        <ele>317.598422</ele>
        <time>2026-07-07T13:16:51.000Z</time>
      </trkpt>
      <trkpt lat="47.77317" lon="16.26049">
        <ele>317.583246</ele>
        <time>2026-07-07T13:16:52.000Z</time>
      </trkpt>
      <trkpt lat="47.77315" lon="16.26057">
        <ele>317.568154</ele>
        <time>2026-07-07T13:16:53.000Z</time>
      </trkpt>
      <trkpt lat="47.77313" lon="16.26065">
        <ele>317.552978</ele>
        <time>2026-07-07T13:16:54.000Z</time>
      </trkpt>
      <trkpt lat="47.77311" lon="16.26073">
        <ele>317.537803</ele>
        <time>2026-07-07T13:16:55.000Z</time>
      </trkpt>
      <trkpt lat="47.77309" lon="16.26082">
        <ele>317.522291</ele>
        <time>2026-07-07T13:16:56.000Z</time>
      </trkpt>
      <trkpt lat="47.77307" lon="16.2609">
        <ele>317.507033</ele>
        <time>2026-07-07T13:16:57.000Z</time>
      </trkpt>
      <trkpt lat="47.77306" lon="16.26098">
        <ele>317.492024</ele>
        <time>2026-07-07T13:16:58.000Z</time>
      </trkpt>
      <trkpt lat="47.77304" lon="16.26106">
        <ele>317.476678</ele>
        <time>2026-07-07T13:16:59.000Z</time>
      </trkpt>
      <trkpt lat="47.77302" lon="16.26114">
        <ele>317.461503</ele>
        <time>2026-07-07T13:17:00.000Z</time>
      </trkpt>
      <trkpt lat="47.773" lon="16.26122">
        <ele>317.446576</ele>
        <time>2026-07-07T13:17:01.000Z</time>
      </trkpt>
      <trkpt lat="47.77298" lon="16.26131">
        <ele>317.431386</ele>
        <time>2026-07-07T13:17:02.000Z</time>
      </trkpt>
      <trkpt lat="47.77297" lon="16.26139">
        <ele>317.41629</ele>
        <time>2026-07-07T13:17:03.000Z</time>
      </trkpt>
      <trkpt lat="47.77295" lon="16.26147">
        <ele>317.401281</ele>
        <time>2026-07-07T13:17:04.000Z</time>
      </trkpt>
      <trkpt lat="47.77293" lon="16.26155">
        <ele>317.386022</ele>
        <time>2026-07-07T13:17:05.000Z</time>
      </trkpt>
      <trkpt lat="47.77291" lon="16.26163">
        <ele>317.371072</ele>
        <time>2026-07-07T13:17:06.000Z</time>
      </trkpt>
      <trkpt lat="47.7729" lon="16.26171">
        <ele>317.35622</ele>
        <time>2026-07-07T13:17:07.000Z</time>
      </trkpt>
      <trkpt lat="47.77288" lon="16.2618">
        <ele>317.341269</ele>
        <time>2026-07-07T13:17:08.000Z</time>
      </trkpt>
      <trkpt lat="47.77287" lon="16.26188">
        <ele>317.326319</ele>
        <time>2026-07-07T13:17:09.000Z</time>
      </trkpt>
      <trkpt lat="47.77285" lon="16.26196">
        <ele>317.311391</ele>
        <time>2026-07-07T13:17:10.000Z</time>
      </trkpt>
      <trkpt lat="47.77284" lon="16.26204">
        <ele>317.269834</ele>
        <time>2026-07-07T13:17:11.000Z</time>
      </trkpt>
      <trkpt lat="47.77282" lon="16.26213">
        <ele>317.222347</ele>
        <time>2026-07-07T13:17:12.000Z</time>
      </trkpt>
      <trkpt lat="47.77281" lon="16.26221">
        <ele>317.173792</ele>
        <time>2026-07-07T13:17:13.000Z</time>
      </trkpt>
      <trkpt lat="47.77279" lon="16.26229">
        <ele>317.126304</ele>
        <time>2026-07-07T13:17:14.000Z</time>
      </trkpt>
      <trkpt lat="47.77278" lon="16.26238">
        <ele>317.078678</ele>
        <time>2026-07-07T13:17:15.000Z</time>
      </trkpt>
      <trkpt lat="47.77276" lon="16.26246">
        <ele>317.030738</ele>
        <time>2026-07-07T13:17:16.000Z</time>
      </trkpt>
      <trkpt lat="47.77275" lon="16.26254">
        <ele>316.98365</ele>
        <time>2026-07-07T13:17:17.000Z</time>
      </trkpt>
      <trkpt lat="47.77273" lon="16.26263">
        <ele>316.935834</ele>
        <time>2026-07-07T13:17:18.000Z</time>
      </trkpt>
      <trkpt lat="47.77272" lon="16.26271">
        <ele>316.890176</ele>
        <time>2026-07-07T13:17:19.000Z</time>
      </trkpt>
      <trkpt lat="47.77271" lon="16.26279">
        <ele>316.844501</ele>
        <time>2026-07-07T13:17:20.000Z</time>
      </trkpt>
      <trkpt lat="47.7727" lon="16.26287">
        <ele>316.799925</ele>
        <time>2026-07-07T13:17:21.000Z</time>
      </trkpt>
      <trkpt lat="47.77269" lon="16.26295">
        <ele>316.755715</ele>
        <time>2026-07-07T13:17:22.000Z</time>
      </trkpt>
      <trkpt lat="47.77268" lon="16.26302">
        <ele>316.711842</ele>
        <time>2026-07-07T13:17:23.000Z</time>
      </trkpt>
      <trkpt lat="47.77266" lon="16.2631">
        <ele>316.668169</ele>
        <time>2026-07-07T13:17:24.000Z</time>
      </trkpt>
      <trkpt lat="47.77265" lon="16.26318">
        <ele>316.624304</ele>
        <time>2026-07-07T13:17:25.000Z</time>
      </trkpt>
      <trkpt lat="47.77264" lon="16.26326">
        <ele>316.579015</ele>
        <time>2026-07-07T13:17:26.000Z</time>
      </trkpt>
      <trkpt lat="47.77263" lon="16.26334">
        <ele>316.533513</ele>
        <time>2026-07-07T13:17:27.000Z</time>
      </trkpt>
      <trkpt lat="47.77262" lon="16.26342">
        <ele>316.486379</ele>
        <time>2026-07-07T13:17:28.000Z</time>
      </trkpt>
      <trkpt lat="47.77261" lon="16.26351">
        <ele>316.438553</ele>
        <time>2026-07-07T13:17:29.000Z</time>
      </trkpt>
      <trkpt lat="47.77259" lon="16.26359">
        <ele>316.3902</ele>
        <time>2026-07-07T13:17:30.000Z</time>
      </trkpt>
      <trkpt lat="47.77258" lon="16.26368">
        <ele>316.34096</ele>
        <time>2026-07-07T13:17:31.000Z</time>
      </trkpt>
      <trkpt lat="47.77256" lon="16.26376">
        <ele>316.292404</ele>
        <time>2026-07-07T13:17:32.000Z</time>
      </trkpt>
      <trkpt lat="47.77255" lon="16.26385">
        <ele>316.243849</ele>
        <time>2026-07-07T13:17:33.000Z</time>
      </trkpt>
      <trkpt lat="47.77253" lon="16.26393">
        <ele>316.195293</ele>
        <time>2026-07-07T13:17:34.000Z</time>
      </trkpt>
      <trkpt lat="47.77252" lon="16.26402">
        <ele>316.146737</ele>
        <time>2026-07-07T13:17:35.000Z</time>
      </trkpt>
      <trkpt lat="47.7725" lon="16.2641">
        <ele>316.097208</ele>
        <time>2026-07-07T13:17:36.000Z</time>
      </trkpt>
      <trkpt lat="47.77248" lon="16.26419">
        <ele>316.048437</ele>
        <time>2026-07-07T13:17:37.000Z</time>
      </trkpt>
      <trkpt lat="47.77247" lon="16.26427">
        <ele>315.999882</ele>
        <time>2026-07-07T13:17:38.000Z</time>
      </trkpt>
      <trkpt lat="47.77245" lon="16.26436">
        <ele>315.949822</ele>
        <time>2026-07-07T13:17:39.000Z</time>
      </trkpt>
      <trkpt lat="47.77244" lon="16.26445">
        <ele>315.901267</ele>
        <time>2026-07-07T13:17:40.000Z</time>
      </trkpt>
      <trkpt lat="47.77242" lon="16.26453">
        <ele>315.852027</ele>
        <time>2026-07-07T13:17:41.000Z</time>
      </trkpt>
      <trkpt lat="47.7724" lon="16.26462">
        <ele>315.842464</ele>
        <time>2026-07-07T13:17:42.000Z</time>
      </trkpt>
      <trkpt lat="47.77238" lon="16.2647">
        <ele>315.86412</ele>
        <time>2026-07-07T13:17:43.000Z</time>
      </trkpt>
      <trkpt lat="47.77237" lon="16.26477">
        <ele>315.884817</ele>
        <time>2026-07-07T13:17:44.000Z</time>
      </trkpt>
      <trkpt lat="47.77235" lon="16.26484">
        <ele>315.90388</ele>
        <time>2026-07-07T13:17:45.000Z</time>
      </trkpt>
      <trkpt lat="47.77234" lon="16.26491">
        <ele>315.920769</ele>
        <time>2026-07-07T13:17:46.000Z</time>
      </trkpt>
      <trkpt lat="47.77233" lon="16.26496">
        <ele>315.936759</ele>
        <time>2026-07-07T13:17:47.000Z</time>
      </trkpt>
      <trkpt lat="47.77232" lon="16.26501">
        <ele>315.950669</ele>
        <time>2026-07-07T13:17:48.000Z</time>
      </trkpt>
      <trkpt lat="47.77229" lon="16.26505">
        <ele>315.963401</ele>
        <time>2026-07-07T13:17:49.000Z</time>
      </trkpt>
      <trkpt lat="47.77226" lon="16.26505">
        <ele>315.975928</ele>
        <time>2026-07-07T13:17:50.000Z</time>
      </trkpt>
      <trkpt lat="47.77223" lon="16.26504">
        <ele>315.989497</ele>
        <time>2026-07-07T13:17:51.000Z</time>
      </trkpt>
      <trkpt lat="47.77219" lon="16.26501">
        <ele>316.004426</ele>
        <time>2026-07-07T13:17:52.000Z</time>
      </trkpt>
      <trkpt lat="47.77216" lon="16.26498">
        <ele>316.019768</ele>
        <time>2026-07-07T13:17:53.000Z</time>
      </trkpt>
      <trkpt lat="47.77212" lon="16.26495">
        <ele>316.035233</ele>
        <time>2026-07-07T13:17:54.000Z</time>
      </trkpt>
      <trkpt lat="47.77209" lon="16.26492">
        <ele>316.050222</ele>
        <time>2026-07-07T13:17:55.000Z</time>
      </trkpt>
      <trkpt lat="47.77205" lon="16.2649">
        <ele>316.06521</ele>
        <time>2026-07-07T13:17:56.000Z</time>
      </trkpt>
      <trkpt lat="47.77202" lon="16.26487">
        <ele>316.079286</ele>
        <time>2026-07-07T13:17:57.000Z</time>
      </trkpt>
      <trkpt lat="47.77199" lon="16.26484">
        <ele>316.093241</ele>
        <time>2026-07-07T13:17:58.000Z</time>
      </trkpt>
      <trkpt lat="47.77196" lon="16.26481">
        <ele>316.107052</ele>
        <time>2026-07-07T13:17:59.000Z</time>
      </trkpt>
      <trkpt lat="47.77193" lon="16.26478">
        <ele>316.121006</ele>
        <time>2026-07-07T13:18:00.000Z</time>
      </trkpt>
      <trkpt lat="47.7719" lon="16.26475">
        <ele>316.135107</ele>
        <time>2026-07-07T13:18:01.000Z</time>
      </trkpt>
      <trkpt lat="47.77187" lon="16.26472">
        <ele>316.148919</ele>
        <time>2026-07-07T13:18:02.000Z</time>
      </trkpt>
      <trkpt lat="47.77184" lon="16.26469">
        <ele>316.162873</ele>
        <time>2026-07-07T13:18:03.000Z</time>
      </trkpt>
      <trkpt lat="47.77181" lon="16.26466">
        <ele>316.176363</ele>
        <time>2026-07-07T13:18:04.000Z</time>
      </trkpt>
      <trkpt lat="47.77179" lon="16.26462">
        <ele>316.190252</ele>
        <time>2026-07-07T13:18:05.000Z</time>
      </trkpt>
      <trkpt lat="47.77176" lon="16.26459">
        <ele>316.204077</ele>
        <time>2026-07-07T13:18:06.000Z</time>
      </trkpt>
      <trkpt lat="47.77173" lon="16.26456">
        <ele>316.217397</ele>
        <time>2026-07-07T13:18:07.000Z</time>
      </trkpt>
      <trkpt lat="47.7717" lon="16.26453">
        <ele>316.233665</ele>
        <time>2026-07-07T13:18:08.000Z</time>
      </trkpt>
      <trkpt lat="47.77166" lon="16.2645">
        <ele>316.250058</ele>
        <time>2026-07-07T13:18:09.000Z</time>
      </trkpt>
      <trkpt lat="47.77163" lon="16.26446">
        <ele>316.265899</ele>
        <time>2026-07-07T13:18:10.000Z</time>
      </trkpt>
      <trkpt lat="47.7716" lon="16.26441">
        <ele>316.282717</ele>
        <time>2026-07-07T13:18:11.000Z</time>
      </trkpt>
      <trkpt lat="47.77157" lon="16.26436">
        <ele>316.29876</ele>
        <time>2026-07-07T13:18:12.000Z</time>
      </trkpt>
      <trkpt lat="47.77154" lon="16.26432">
        <ele>316.314412</ele>
        <time>2026-07-07T13:18:13.000Z</time>
      </trkpt>
      <trkpt lat="47.77152" lon="16.26427">
        <ele>316.32956</ele>
        <time>2026-07-07T13:18:14.000Z</time>
      </trkpt>
      <trkpt lat="47.77149" lon="16.26423">
        <ele>316.344709</ele>
        <time>2026-07-07T13:18:15.000Z</time>
      </trkpt>
      <trkpt lat="47.77147" lon="16.26419">
        <ele>316.359461</ele>
        <time>2026-07-07T13:18:16.000Z</time>
      </trkpt>
      <trkpt lat="47.77145" lon="16.26414">
        <ele>316.373253</ele>
        <time>2026-07-07T13:18:17.000Z</time>
      </trkpt>
      <trkpt lat="47.77143" lon="16.2641">
        <ele>316.387069</ele>
        <time>2026-07-07T13:18:18.000Z</time>
      </trkpt>
      <trkpt lat="47.77141" lon="16.26406">
        <ele>316.399593</ele>
        <time>2026-07-07T13:18:19.000Z</time>
      </trkpt>
      <trkpt lat="47.77138" lon="16.26403">
        <ele>316.411749</ele>
        <time>2026-07-07T13:18:20.000Z</time>
      </trkpt>
      <trkpt lat="47.77135" lon="16.26401">
        <ele>316.42388</ele>
        <time>2026-07-07T13:18:21.000Z</time>
      </trkpt>
      <trkpt lat="47.77132" lon="16.26401">
        <ele>316.435859</ele>
        <time>2026-07-07T13:18:22.000Z</time>
      </trkpt>
      <trkpt lat="47.77129" lon="16.26402">
        <ele>316.449349</ele>
        <time>2026-07-07T13:18:23.000Z</time>
      </trkpt>
      <trkpt lat="47.77126" lon="16.26405">
        <ele>316.46335</ele>
        <time>2026-07-07T13:18:24.000Z</time>
      </trkpt>
      <trkpt lat="47.77123" lon="16.2641">
        <ele>316.478498</ele>
        <time>2026-07-07T13:18:25.000Z</time>
      </trkpt>
      <trkpt lat="47.77121" lon="16.26415">
        <ele>316.49427</ele>
        <time>2026-07-07T13:18:26.000Z</time>
      </trkpt>
      <trkpt lat="47.77119" lon="16.26421">
        <ele>316.510953</ele>
        <time>2026-07-07T13:18:27.000Z</time>
      </trkpt>
      <trkpt lat="47.77117" lon="16.26427">
        <ele>316.524003</ele>
        <time>2026-07-07T13:18:28.000Z</time>
      </trkpt>
      <trkpt lat="47.77115" lon="16.26433">
        <ele>316.523645</ele>
        <time>2026-07-07T13:18:29.000Z</time>
      </trkpt>
      <trkpt lat="47.77113" lon="16.26439">
        <ele>316.523274</ele>
        <time>2026-07-07T13:18:30.000Z</time>
      </trkpt>
      <trkpt lat="47.77111" lon="16.26446">
        <ele>316.522888</ele>
        <time>2026-07-07T13:18:31.000Z</time>
      </trkpt>
      <trkpt lat="47.7711" lon="16.26453">
        <ele>316.522514</ele>
        <time>2026-07-07T13:18:32.000Z</time>
      </trkpt>
      <trkpt lat="47.77108" lon="16.2646">
        <ele>316.522136</ele>
        <time>2026-07-07T13:18:33.000Z</time>
      </trkpt>
      <trkpt lat="47.77106" lon="16.26467">
        <ele>316.521752</ele>
        <time>2026-07-07T13:18:34.000Z</time>
      </trkpt>
      <trkpt lat="47.77105" lon="16.26474">
        <ele>316.521381</ele>
        <time>2026-07-07T13:18:35.000Z</time>
      </trkpt>
      <trkpt lat="47.77103" lon="16.26481">
        <ele>316.520997</ele>
        <time>2026-07-07T13:18:36.000Z</time>
      </trkpt>
      <trkpt lat="47.77101" lon="16.26488">
        <ele>316.520628</ele>
        <time>2026-07-07T13:18:37.000Z</time>
      </trkpt>
      <trkpt lat="47.771" lon="16.26495">
        <ele>316.52025</ele>
        <time>2026-07-07T13:18:38.000Z</time>
      </trkpt>
      <trkpt lat="47.77098" lon="16.26501">
        <ele>316.519867</ele>
        <time>2026-07-07T13:18:39.000Z</time>
      </trkpt>
      <trkpt lat="47.77096" lon="16.26508">
        <ele>316.51947</ele>
        <time>2026-07-07T13:18:40.000Z</time>
      </trkpt>
      <trkpt lat="47.77093" lon="16.26515">
        <ele>316.519069</ele>
        <time>2026-07-07T13:18:41.000Z</time>
      </trkpt>
      <trkpt lat="47.77091" lon="16.26522">
        <ele>316.51868</ele>
        <time>2026-07-07T13:18:42.000Z</time>
      </trkpt>
      <trkpt lat="47.77089" lon="16.26529">
        <ele>316.518293</ele>
        <time>2026-07-07T13:18:43.000Z</time>
      </trkpt>
      <trkpt lat="47.77086" lon="16.26535">
        <ele>316.517907</ele>
        <time>2026-07-07T13:18:44.000Z</time>
      </trkpt>
      <trkpt lat="47.77084" lon="16.26542">
        <ele>316.517513</ele>
        <time>2026-07-07T13:18:45.000Z</time>
      </trkpt>
      <trkpt lat="47.77081" lon="16.26548">
        <ele>316.517128</ele>
        <time>2026-07-07T13:18:46.000Z</time>
      </trkpt>
      <trkpt lat="47.77078" lon="16.26554">
        <ele>316.51673</ele>
        <time>2026-07-07T13:18:47.000Z</time>
      </trkpt>
      <trkpt lat="47.77074" lon="16.2656">
        <ele>316.516336</ele>
        <time>2026-07-07T13:18:48.000Z</time>
      </trkpt>
      <trkpt lat="47.7707" lon="16.26565">
        <ele>316.515933</ele>
        <time>2026-07-07T13:18:49.000Z</time>
      </trkpt>
      <trkpt lat="47.77065" lon="16.26568">
        <ele>316.515523</ele>
        <time>2026-07-07T13:18:50.000Z</time>
      </trkpt>
      <trkpt lat="47.7706" lon="16.26571">
        <ele>316.51512</ele>
        <time>2026-07-07T13:18:51.000Z</time>
      </trkpt>
      <trkpt lat="47.77055" lon="16.26572">
        <ele>316.514727</ele>
        <time>2026-07-07T13:18:52.000Z</time>
      </trkpt>
      <trkpt lat="47.7705" lon="16.26571">
        <ele>316.514328</ele>
        <time>2026-07-07T13:18:53.000Z</time>
      </trkpt>
      <trkpt lat="47.77045" lon="16.2657">
        <ele>316.513914</ele>
        <time>2026-07-07T13:18:54.000Z</time>
      </trkpt>
      <trkpt lat="47.77039" lon="16.26568">
        <ele>316.513491</ele>
        <time>2026-07-07T13:18:55.000Z</time>
      </trkpt>
      <trkpt lat="47.77034" lon="16.26566">
        <ele>316.513078</ele>
        <time>2026-07-07T13:18:56.000Z</time>
      </trkpt>
      <trkpt lat="47.77029" lon="16.26565">
        <ele>316.512649</ele>
        <time>2026-07-07T13:18:57.000Z</time>
      </trkpt>
      <trkpt lat="47.77023" lon="16.26564">
        <ele>316.512237</ele>
        <time>2026-07-07T13:18:58.000Z</time>
      </trkpt>
      <trkpt lat="47.77018" lon="16.26562">
        <ele>316.51181</ele>
        <time>2026-07-07T13:18:59.000Z</time>
      </trkpt>
      <trkpt lat="47.77012" lon="16.26561">
        <ele>316.511384</ele>
        <time>2026-07-07T13:19:00.000Z</time>
      </trkpt>
      <trkpt lat="47.77007" lon="16.2656">
        <ele>316.510957</ele>
        <time>2026-07-07T13:19:01.000Z</time>
      </trkpt>
      <trkpt lat="47.77001" lon="16.26558">
        <ele>316.510529</ele>
        <time>2026-07-07T13:19:02.000Z</time>
      </trkpt>
      <trkpt lat="47.76996" lon="16.26557">
        <ele>316.50045</ele>
        <time>2026-07-07T13:19:03.000Z</time>
      </trkpt>
      <trkpt lat="47.7699" lon="16.26556">
        <ele>316.479121</ele>
        <time>2026-07-07T13:19:04.000Z</time>
      </trkpt>
      <trkpt lat="47.76985" lon="16.26555">
        <ele>316.458104</ele>
        <time>2026-07-07T13:19:05.000Z</time>
      </trkpt>
      <trkpt lat="47.7698" lon="16.26554">
        <ele>316.438228</ele>
        <time>2026-07-07T13:19:06.000Z</time>
      </trkpt>
      <trkpt lat="47.76975" lon="16.26553">
        <ele>316.418919</ele>
        <time>2026-07-07T13:19:07.000Z</time>
      </trkpt>
      <trkpt lat="47.7697" lon="16.26553">
        <ele>316.39997</ele>
        <time>2026-07-07T13:19:08.000Z</time>
      </trkpt>
      <trkpt lat="47.76965" lon="16.26551">
        <ele>316.382372</ele>
        <time>2026-07-07T13:19:09.000Z</time>
      </trkpt>
      <trkpt lat="47.76961" lon="16.2655">
        <ele>316.364187</ele>
        <time>2026-07-07T13:19:10.000Z</time>
      </trkpt>
      <trkpt lat="47.76956" lon="16.26548">
        <ele>316.344981</ele>
        <time>2026-07-07T13:19:11.000Z</time>
      </trkpt>
      <trkpt lat="47.76951" lon="16.26547">
        <ele>316.326101</ele>
        <time>2026-07-07T13:19:12.000Z</time>
      </trkpt>
      <trkpt lat="47.76946" lon="16.26546">
        <ele>316.306562</ele>
        <time>2026-07-07T13:19:13.000Z</time>
      </trkpt>
      <trkpt lat="47.76941" lon="16.26544">
        <ele>316.286068</ele>
        <time>2026-07-07T13:19:14.000Z</time>
      </trkpt>
      <trkpt lat="47.76936" lon="16.26542">
        <ele>316.266004</ele>
        <time>2026-07-07T13:19:15.000Z</time>
      </trkpt>
      <trkpt lat="47.7693" lon="16.26541">
        <ele>316.244859</ele>
        <time>2026-07-07T13:19:16.000Z</time>
      </trkpt>
      <trkpt lat="47.76925" lon="16.26539">
        <ele>316.224895</ele>
        <time>2026-07-07T13:19:17.000Z</time>
      </trkpt>
      <trkpt lat="47.7692" lon="16.26539">
        <ele>316.203684</ele>
        <time>2026-07-07T13:19:18.000Z</time>
      </trkpt>
      <trkpt lat="47.76914" lon="16.2654">
        <ele>316.182768</ele>
        <time>2026-07-07T13:19:19.000Z</time>
      </trkpt>
      <trkpt lat="47.76909" lon="16.26542">
        <ele>316.162591</ele>
        <time>2026-07-07T13:19:20.000Z</time>
      </trkpt>
      <trkpt lat="47.76904" lon="16.26544">
        <ele>316.140662</ele>
        <time>2026-07-07T13:19:21.000Z</time>
      </trkpt>
      <trkpt lat="47.76899" lon="16.26547">
        <ele>316.11991</ele>
        <time>2026-07-07T13:19:22.000Z</time>
      </trkpt>
      <trkpt lat="47.76893" lon="16.26549">
        <ele>316.097242</ele>
        <time>2026-07-07T13:19:23.000Z</time>
      </trkpt>
      <trkpt lat="47.76887" lon="16.26551">
        <ele>316.074812</ele>
        <time>2026-07-07T13:19:24.000Z</time>
      </trkpt>
      <trkpt lat="47.76882" lon="16.26553">
        <ele>316.053188</ele>
        <time>2026-07-07T13:19:25.000Z</time>
      </trkpt>
      <trkpt lat="47.76876" lon="16.26554">
        <ele>316.031409</ele>
        <time>2026-07-07T13:19:26.000Z</time>
      </trkpt>
      <trkpt lat="47.76871" lon="16.26555">
        <ele>316.010137</ele>
        <time>2026-07-07T13:19:27.000Z</time>
      </trkpt>
      <trkpt lat="47.76865" lon="16.26556">
        <ele>315.988807</ele>
        <time>2026-07-07T13:19:28.000Z</time>
      </trkpt>
      <trkpt lat="47.7686" lon="16.26556">
        <ele>315.967918</ele>
        <time>2026-07-07T13:19:29.000Z</time>
      </trkpt>
      <trkpt lat="47.76854" lon="16.26557">
        <ele>315.946589</ele>
        <time>2026-07-07T13:19:30.000Z</time>
      </trkpt>
      <trkpt lat="47.76849" lon="16.26559">
        <ele>315.92647</ele>
        <time>2026-07-07T13:19:31.000Z</time>
      </trkpt>
      <trkpt lat="47.76844" lon="16.26561">
        <ele>315.905169</ele>
        <time>2026-07-07T13:19:32.000Z</time>
      </trkpt>
      <trkpt lat="47.76839" lon="16.26563">
        <ele>315.884298</ele>
        <time>2026-07-07T13:19:33.000Z</time>
      </trkpt>
      <trkpt lat="47.76833" lon="16.26564">
        <ele>315.863747</ele>
        <time>2026-07-07T13:19:34.000Z</time>
      </trkpt>
      <trkpt lat="47.76828" lon="16.26566">
        <ele>315.842876</ele>
        <time>2026-07-07T13:19:35.000Z</time>
      </trkpt>
      <trkpt lat="47.76823" lon="16.26568">
        <ele>315.822325</ele>
        <time>2026-07-07T13:19:36.000Z</time>
      </trkpt>
      <trkpt lat="47.76818" lon="16.2657">
        <ele>315.824313</ele>
        <time>2026-07-07T13:19:37.000Z</time>
      </trkpt>
      <trkpt lat="47.76812" lon="16.26571">
        <ele>315.83293</ele>
        <time>2026-07-07T13:19:38.000Z</time>
      </trkpt>
      <trkpt lat="47.76807" lon="16.26573">
        <ele>315.841192</ele>
        <time>2026-07-07T13:19:39.000Z</time>
      </trkpt>
      <trkpt lat="47.76802" lon="16.26576">
        <ele>315.849932</ele>
        <time>2026-07-07T13:19:40.000Z</time>
      </trkpt>
      <trkpt lat="47.76797" lon="16.26578">
        <ele>315.858252</ele>
        <time>2026-07-07T13:19:41.000Z</time>
      </trkpt>
      <trkpt lat="47.76792" lon="16.2658">
        <ele>315.866692</ele>
        <time>2026-07-07T13:19:42.000Z</time>
      </trkpt>
      <trkpt lat="47.76786" lon="16.26582">
        <ele>315.875132</ele>
        <time>2026-07-07T13:19:43.000Z</time>
      </trkpt>
      <trkpt lat="47.76781" lon="16.26584">
        <ele>315.883315</ele>
        <time>2026-07-07T13:19:44.000Z</time>
      </trkpt>
      <trkpt lat="47.76776" lon="16.26586">
        <ele>315.891347</ele>
        <time>2026-07-07T13:19:45.000Z</time>
      </trkpt>
      <trkpt lat="47.76771" lon="16.26588">
        <ele>315.899354</ele>
        <time>2026-07-07T13:19:46.000Z</time>
      </trkpt>
      <trkpt lat="47.76766" lon="16.26589">
        <ele>315.907233</ele>
        <time>2026-07-07T13:19:47.000Z</time>
      </trkpt>
      <trkpt lat="47.76762" lon="16.26591">
        <ele>315.915015</ele>
        <time>2026-07-07T13:19:48.000Z</time>
      </trkpt>
      <trkpt lat="47.76757" lon="16.26593">
        <ele>315.922619</ele>
        <time>2026-07-07T13:19:49.000Z</time>
      </trkpt>
      <trkpt lat="47.76752" lon="16.26595">
        <ele>315.930347</ele>
        <time>2026-07-07T13:19:50.000Z</time>
      </trkpt>
      <trkpt lat="47.76747" lon="16.26597">
        <ele>315.938378</ele>
        <time>2026-07-07T13:19:51.000Z</time>
      </trkpt>
      <trkpt lat="47.76742" lon="16.26599">
        <ele>315.946435</ele>
        <time>2026-07-07T13:19:52.000Z</time>
      </trkpt>
      <trkpt lat="47.76737" lon="16.26601">
        <ele>315.954466</ele>
        <time>2026-07-07T13:19:53.000Z</time>
      </trkpt>
      <trkpt lat="47.76732" lon="16.26603">
        <ele>315.962549</ele>
        <time>2026-07-07T13:19:54.000Z</time>
      </trkpt>
      <trkpt lat="47.76727" lon="16.26605">
        <ele>315.97114</ele>
        <time>2026-07-07T13:19:55.000Z</time>
      </trkpt>
      <trkpt lat="47.76722" lon="16.26607">
        <ele>315.979551</ele>
        <time>2026-07-07T13:19:56.000Z</time>
      </trkpt>
      <trkpt lat="47.76717" lon="16.26609">
        <ele>315.987635</ele>
        <time>2026-07-07T13:19:57.000Z</time>
      </trkpt>
      <trkpt lat="47.76712" lon="16.26611">
        <ele>315.995691</ele>
        <time>2026-07-07T13:19:58.000Z</time>
      </trkpt>
      <trkpt lat="47.76707" lon="16.26613">
        <ele>316.003722</ele>
        <time>2026-07-07T13:19:59.000Z</time>
      </trkpt>
      <trkpt lat="47.76702" lon="16.26615">
        <ele>316.011863</ele>
        <time>2026-07-07T13:20:00.000Z</time>
      </trkpt>
      <trkpt lat="47.76697" lon="16.26617">
        <ele>316.019946</ele>
        <time>2026-07-07T13:20:01.000Z</time>
      </trkpt>
      <trkpt lat="47.76692" lon="16.26619">
        <ele>316.028057</ele>
        <time>2026-07-07T13:20:02.000Z</time>
      </trkpt>
      <trkpt lat="47.76686" lon="16.26621">
        <ele>316.036416</ele>
        <time>2026-07-07T13:20:03.000Z</time>
      </trkpt>
      <trkpt lat="47.76681" lon="16.26623">
        <ele>316.044736</ele>
        <time>2026-07-07T13:20:04.000Z</time>
      </trkpt>
      <trkpt lat="47.76676" lon="16.26625">
        <ele>316.052819</ele>
        <time>2026-07-07T13:20:05.000Z</time>
      </trkpt>
      <trkpt lat="47.76671" lon="16.26627">
        <ele>316.060752</ele>
        <time>2026-07-07T13:20:06.000Z</time>
      </trkpt>
      <trkpt lat="47.76667" lon="16.26629">
        <ele>316.068295</ele>
        <time>2026-07-07T13:20:07.000Z</time>
      </trkpt>
      <trkpt lat="47.76662" lon="16.26631">
        <ele>316.075927</ele>
        <time>2026-07-07T13:20:08.000Z</time>
      </trkpt>
      <trkpt lat="47.76657" lon="16.26633">
        <ele>316.083588</ele>
        <time>2026-07-07T13:20:09.000Z</time>
      </trkpt>
      <trkpt lat="47.76653" lon="16.26636">
        <ele>316.09143</ele>
        <time>2026-07-07T13:20:10.000Z</time>
      </trkpt>
      <trkpt lat="47.76647" lon="16.26638">
        <ele>316.10244</ele>
        <time>2026-07-07T13:20:11.000Z</time>
      </trkpt>
      <trkpt lat="47.76642" lon="16.2664">
        <ele>316.127589</ele>
        <time>2026-07-07T13:20:12.000Z</time>
      </trkpt>
      <trkpt lat="47.76636" lon="16.26642">
        <ele>316.153101</ele>
        <time>2026-07-07T13:20:13.000Z</time>
      </trkpt>
      <trkpt lat="47.76631" lon="16.26644">
        <ele>316.178542</ele>
        <time>2026-07-07T13:20:14.000Z</time>
      </trkpt>
      <trkpt lat="47.76626" lon="16.26645">
        <ele>316.202852</ele>
        <time>2026-07-07T13:20:15.000Z</time>
      </trkpt>
      <trkpt lat="47.7662" lon="16.26646">
        <ele>316.226477</ele>
        <time>2026-07-07T13:20:16.000Z</time>
      </trkpt>
      <trkpt lat="47.76615" lon="16.26646">
        <ele>316.250358</ele>
        <time>2026-07-07T13:20:17.000Z</time>
      </trkpt>
      <trkpt lat="47.7661" lon="16.26646">
        <ele>316.272938</ele>
        <time>2026-07-07T13:20:18.000Z</time>
      </trkpt>
      <trkpt lat="47.76605" lon="16.26644">
        <ele>316.295863</ele>
        <time>2026-07-07T13:20:19.000Z</time>
      </trkpt>
      <trkpt lat="47.766" lon="16.26642">
        <ele>316.319273</ele>
        <time>2026-07-07T13:20:20.000Z</time>
      </trkpt>
      <trkpt lat="47.76595" lon="16.2664">
        <ele>316.34324</ele>
        <time>2026-07-07T13:20:21.000Z</time>
      </trkpt>
      <trkpt lat="47.7659" lon="16.26636">
        <ele>316.366941</ele>
        <time>2026-07-07T13:20:22.000Z</time>
      </trkpt>
      <trkpt lat="47.76586" lon="16.26633">
        <ele>316.390358</ele>
        <time>2026-07-07T13:20:23.000Z</time>
      </trkpt>
      <trkpt lat="47.76581" lon="16.26629">
        <ele>316.413673</ele>
        <time>2026-07-07T13:20:24.000Z</time>
      </trkpt>
      <trkpt lat="47.76576" lon="16.26625">
        <ele>316.437922</ele>
        <time>2026-07-07T13:20:25.000Z</time>
      </trkpt>
      <trkpt lat="47.76572" lon="16.26621">
        <ele>316.461542</ele>
        <time>2026-07-07T13:20:26.000Z</time>
      </trkpt>
      <trkpt lat="47.76567" lon="16.26618">
        <ele>316.484857</ele>
        <time>2026-07-07T13:20:27.000Z</time>
      </trkpt>
      <trkpt lat="47.76563" lon="16.26614">
        <ele>316.508476</ele>
        <time>2026-07-07T13:20:28.000Z</time>
      </trkpt>
      <trkpt lat="47.76558" lon="16.2661">
        <ele>316.532096</ele>
        <time>2026-07-07T13:20:29.000Z</time>
      </trkpt>
      <trkpt lat="47.76554" lon="16.26606">
        <ele>316.555263</ele>
        <time>2026-07-07T13:20:30.000Z</time>
      </trkpt>
      <trkpt lat="47.76549" lon="16.26603">
        <ele>316.578274</ele>
        <time>2026-07-07T13:20:31.000Z</time>
      </trkpt>
      <trkpt lat="47.76545" lon="16.26599">
        <ele>316.601692</ele>
        <time>2026-07-07T13:20:32.000Z</time>
      </trkpt>
      <trkpt lat="47.7654" lon="16.26596">
        <ele>316.625392</ele>
        <time>2026-07-07T13:20:33.000Z</time>
      </trkpt>
      <trkpt lat="47.76535" lon="16.26593">
        <ele>316.649043</ele>
        <time>2026-07-07T13:20:34.000Z</time>
      </trkpt>
      <trkpt lat="47.7653" lon="16.26591">
        <ele>316.672166</ele>
        <time>2026-07-07T13:20:35.000Z</time>
      </trkpt>
      <trkpt lat="47.76525" lon="16.26589">
        <ele>316.696155</ele>
        <time>2026-07-07T13:20:36.000Z</time>
      </trkpt>
      <trkpt lat="47.7652" lon="16.26588">
        <ele>316.71947</ele>
        <time>2026-07-07T13:20:37.000Z</time>
      </trkpt>
      <trkpt lat="47.76514" lon="16.26587">
        <ele>316.743922</ele>
        <time>2026-07-07T13:20:38.000Z</time>
      </trkpt>
      <trkpt lat="47.76509" lon="16.26586">
        <ele>316.767834</ele>
        <time>2026-07-07T13:20:39.000Z</time>
      </trkpt>
      <trkpt lat="47.76504" lon="16.26586">
        <ele>316.791282</ele>
        <time>2026-07-07T13:20:40.000Z</time>
      </trkpt>
      <trkpt lat="47.76499" lon="16.26586">
        <ele>316.813829</ele>
        <time>2026-07-07T13:20:41.000Z</time>
      </trkpt>
      <trkpt lat="47.76494" lon="16.26586">
        <ele>316.836367</ele>
        <time>2026-07-07T13:20:42.000Z</time>
      </trkpt>
      <trkpt lat="47.76489" lon="16.26586">
        <ele>316.857995</ele>
        <time>2026-07-07T13:20:43.000Z</time>
      </trkpt>
      <trkpt lat="47.76484" lon="16.26585">
        <ele>316.879181</ele>
        <time>2026-07-07T13:20:44.000Z</time>
      </trkpt>
      <trkpt lat="47.7648" lon="16.26585">
        <ele>316.89946</ele>
        <time>2026-07-07T13:20:45.000Z</time>
      </trkpt>
      <trkpt lat="47.76475" lon="16.26585">
        <ele>316.940263</ele>
        <time>2026-07-07T13:20:46.000Z</time>
      </trkpt>
      <trkpt lat="47.76471" lon="16.26585">
        <ele>317.000092</ele>
        <time>2026-07-07T13:20:47.000Z</time>
      </trkpt>
      <trkpt lat="47.76466" lon="16.26585">
        <ele>317.059897</ele>
        <time>2026-07-07T13:20:48.000Z</time>
      </trkpt>
      <trkpt lat="47.76461" lon="16.26586">
        <ele>317.118734</ele>
        <time>2026-07-07T13:20:49.000Z</time>
      </trkpt>
      <trkpt lat="47.76457" lon="16.26587">
        <ele>317.179899</ele>
        <time>2026-07-07T13:20:50.000Z</time>
      </trkpt>
      <trkpt lat="47.76452" lon="16.26589">
        <ele>317.242342</ele>
        <time>2026-07-07T13:20:51.000Z</time>
      </trkpt>
      <trkpt lat="47.76447" lon="16.26591">
        <ele>317.30577</ele>
        <time>2026-07-07T13:20:52.000Z</time>
      </trkpt>
      <trkpt lat="47.76442" lon="16.26593">
        <ele>317.368553</ele>
        <time>2026-07-07T13:20:53.000Z</time>
      </trkpt>
      <trkpt lat="47.76437" lon="16.26595">
        <ele>317.432775</ele>
        <time>2026-07-07T13:20:54.000Z</time>
      </trkpt>
      <trkpt lat="47.76433" lon="16.26596">
        <ele>317.494709</ele>
        <time>2026-07-07T13:20:55.000Z</time>
      </trkpt>
      <trkpt lat="47.76428" lon="16.26597">
        <ele>317.556642</ele>
        <time>2026-07-07T13:20:56.000Z</time>
      </trkpt>
      <trkpt lat="47.76423" lon="16.26598">
        <ele>317.62063</ele>
        <time>2026-07-07T13:20:57.000Z</time>
      </trkpt>
      <trkpt lat="47.76418" lon="16.26599">
        <ele>317.684396</ele>
        <time>2026-07-07T13:20:58.000Z</time>
      </trkpt>
      <trkpt lat="47.76413" lon="16.26599">
        <ele>317.750562</ele>
        <time>2026-07-07T13:20:59.000Z</time>
      </trkpt>
      <trkpt lat="47.76408" lon="16.26598">
        <ele>317.814207</ele>
        <time>2026-07-07T13:21:00.000Z</time>
      </trkpt>
      <trkpt lat="47.76403" lon="16.26598">
        <ele>317.878036</ele>
        <time>2026-07-07T13:21:01.000Z</time>
      </trkpt>
      <trkpt lat="47.76397" lon="16.26597">
        <ele>317.944472</ele>
        <time>2026-07-07T13:21:02.000Z</time>
      </trkpt>
      <trkpt lat="47.76392" lon="16.26596">
        <ele>318.008667</ele>
        <time>2026-07-07T13:21:03.000Z</time>
      </trkpt>
      <trkpt lat="47.76387" lon="16.26595">
        <ele>318.074817</ele>
        <time>2026-07-07T13:21:04.000Z</time>
      </trkpt>
      <trkpt lat="47.76382" lon="16.26593">
        <ele>318.142751</ele>
        <time>2026-07-07T13:21:05.000Z</time>
      </trkpt>
      <trkpt lat="47.76377" lon="16.26591">
        <ele>318.211093</ele>
        <time>2026-07-07T13:21:06.000Z</time>
      </trkpt>
      <trkpt lat="47.76372" lon="16.26588">
        <ele>318.279157</ele>
        <time>2026-07-07T13:21:07.000Z</time>
      </trkpt>
      <trkpt lat="47.76367" lon="16.26586">
        <ele>318.34896</ele>
        <time>2026-07-07T13:21:08.000Z</time>
      </trkpt>
      <trkpt lat="47.76362" lon="16.26583">
        <ele>318.417246</ele>
        <time>2026-07-07T13:21:09.000Z</time>
      </trkpt>
      <trkpt lat="47.76356" lon="16.2658">
        <ele>318.488214</ele>
        <time>2026-07-07T13:21:10.000Z</time>
      </trkpt>
      <trkpt lat="47.76351" lon="16.26577">
        <ele>318.557386</ele>
        <time>2026-07-07T13:21:11.000Z</time>
      </trkpt>
      <trkpt lat="47.76346" lon="16.26574">
        <ele>318.628991</ele>
        <time>2026-07-07T13:21:12.000Z</time>
      </trkpt>
      <trkpt lat="47.76341" lon="16.26571">
        <ele>318.698592</ele>
        <time>2026-07-07T13:21:13.000Z</time>
      </trkpt>
      <trkpt lat="47.76336" lon="16.26567">
        <ele>318.767852</ele>
        <time>2026-07-07T13:21:14.000Z</time>
      </trkpt>
      <trkpt lat="47.76332" lon="16.26564">
        <ele>318.830952</ele>
        <time>2026-07-07T13:21:15.000Z</time>
      </trkpt>
      <trkpt lat="47.76327" lon="16.26561">
        <ele>318.891385</ele>
        <time>2026-07-07T13:21:16.000Z</time>
      </trkpt>
      <trkpt lat="47.76323" lon="16.26559">
        <ele>318.951948</ele>
        <time>2026-07-07T13:21:17.000Z</time>
      </trkpt>
      <trkpt lat="47.76319" lon="16.26556">
        <ele>319.009353</ele>
        <time>2026-07-07T13:21:18.000Z</time>
      </trkpt>
      <trkpt lat="47.76314" lon="16.26554">
        <ele>319.068874</ele>
        <time>2026-07-07T13:21:19.000Z</time>
      </trkpt>
      <trkpt lat="47.76309" lon="16.26553">
        <ele>319.132862</ele>
        <time>2026-07-07T13:21:20.000Z</time>
      </trkpt>
      <trkpt lat="47.76304" lon="16.26553">
        <ele>319.197626</ele>
        <time>2026-07-07T13:21:21.000Z</time>
      </trkpt>
      <trkpt lat="47.76298" lon="16.26553">
        <ele>319.193622</ele>
        <time>2026-07-07T13:21:22.000Z</time>
      </trkpt>
      <trkpt lat="47.76292" lon="16.26552">
        <ele>319.189312</ele>
        <time>2026-07-07T13:21:23.000Z</time>
      </trkpt>
      <trkpt lat="47.76286" lon="16.2655">
        <ele>319.184965</ele>
        <time>2026-07-07T13:21:24.000Z</time>
      </trkpt>
      <trkpt lat="47.7628" lon="16.26548">
        <ele>319.18063</ele>
        <time>2026-07-07T13:21:25.000Z</time>
      </trkpt>
      <trkpt lat="47.76275" lon="16.26546">
        <ele>319.176521</ele>
        <time>2026-07-07T13:21:26.000Z</time>
      </trkpt>
      <trkpt lat="47.7627" lon="16.26543">
        <ele>319.172433</ele>
        <time>2026-07-07T13:21:27.000Z</time>
      </trkpt>
      <trkpt lat="47.76265" lon="16.26539">
        <ele>319.168548</ele>
        <time>2026-07-07T13:21:28.000Z</time>
      </trkpt>
      <trkpt lat="47.7626" lon="16.26535">
        <ele>319.164577</ele>
        <time>2026-07-07T13:21:29.000Z</time>
      </trkpt>
      <trkpt lat="47.76255" lon="16.26531">
        <ele>319.160831</ele>
        <time>2026-07-07T13:21:30.000Z</time>
      </trkpt>
      <trkpt lat="47.76251" lon="16.26527">
        <ele>319.157085</ele>
        <time>2026-07-07T13:21:31.000Z</time>
      </trkpt>
      <trkpt lat="47.76246" lon="16.26523">
        <ele>319.153457</ele>
        <time>2026-07-07T13:21:32.000Z</time>
      </trkpt>
      <trkpt lat="47.76242" lon="16.2652">
        <ele>319.150005</ele>
        <time>2026-07-07T13:21:33.000Z</time>
      </trkpt>
      <trkpt lat="47.76238" lon="16.26515">
        <ele>319.146389</ele>
        <time>2026-07-07T13:21:34.000Z</time>
      </trkpt>
      <trkpt lat="47.76235" lon="16.2651">
        <ele>319.142812</ele>
        <time>2026-07-07T13:21:35.000Z</time>
      </trkpt>
      <trkpt lat="47.76233" lon="16.26503">
        <ele>319.1391</ele>
        <time>2026-07-07T13:21:36.000Z</time>
      </trkpt>
      <trkpt lat="47.76232" lon="16.26495">
        <ele>319.135263</ele>
        <time>2026-07-07T13:21:37.000Z</time>
      </trkpt>
      <trkpt lat="47.76231" lon="16.26487">
        <ele>319.131649</ele>
        <time>2026-07-07T13:21:38.000Z</time>
      </trkpt>
      <trkpt lat="47.76231" lon="16.26479">
        <ele>319.127805</ele>
        <time>2026-07-07T13:21:39.000Z</time>
      </trkpt>
      <trkpt lat="47.76231" lon="16.26471">
        <ele>319.123912</ele>
        <time>2026-07-07T13:21:40.000Z</time>
      </trkpt>
      <trkpt lat="47.76231" lon="16.26463">
        <ele>319.119824</ele>
        <time>2026-07-07T13:21:41.000Z</time>
      </trkpt>
      <trkpt lat="47.76229" lon="16.26454">
        <ele>319.115527</ele>
        <time>2026-07-07T13:21:42.000Z</time>
      </trkpt>
      <trkpt lat="47.76227" lon="16.26446">
        <ele>319.111435</ele>
        <time>2026-07-07T13:21:43.000Z</time>
      </trkpt>
      <trkpt lat="47.76221" lon="16.26432">
        <ele>319.103284</ele>
        <time>2026-07-07T13:21:44.000Z</time>
      </trkpt>
      <trkpt lat="47.76219" lon="16.26424">
        <ele>319.099079</ele>
        <time>2026-07-07T13:21:45.000Z</time>
      </trkpt>
      <trkpt lat="47.76217" lon="16.26416">
        <ele>319.095203</ele>
        <time>2026-07-07T13:21:47.000Z</time>
      </trkpt>
      <trkpt lat="47.76215" lon="16.26409">
        <ele>319.091401</ele>
        <time>2026-07-07T13:21:48.000Z</time>
      </trkpt>
      <trkpt lat="47.76212" lon="16.26395">
        <ele>319.084321</ele>
        <time>2026-07-07T13:21:49.000Z</time>
      </trkpt>
      <trkpt lat="47.76208" lon="16.2639">
        <ele>319.080802</ele>
        <time>2026-07-07T13:21:50.000Z</time>
      </trkpt>
      <trkpt lat="47.76204" lon="16.26385">
        <ele>319.07713</ele>
        <time>2026-07-07T13:21:51.000Z</time>
      </trkpt>
      <trkpt lat="47.762" lon="16.2638">
        <ele>319.073489</ele>
        <time>2026-07-07T13:21:52.000Z</time>
      </trkpt>
      <trkpt lat="47.76196" lon="16.26376">
        <ele>319.069641</ele>
        <time>2026-07-07T13:21:53.000Z</time>
      </trkpt>
      <trkpt lat="47.76191" lon="16.26372">
        <ele>319.078944</ele>
        <time>2026-07-07T13:21:54.000Z</time>
      </trkpt>
      <trkpt lat="47.76187" lon="16.26367">
        <ele>319.089792</ele>
        <time>2026-07-07T13:21:55.000Z</time>
      </trkpt>
      <trkpt lat="47.76182" lon="16.26363">
        <ele>319.100761</ele>
        <time>2026-07-07T13:21:56.000Z</time>
      </trkpt>
      <trkpt lat="47.76177" lon="16.26359">
        <ele>319.111799</ele>
        <time>2026-07-07T13:21:57.000Z</time>
      </trkpt>
      <trkpt lat="47.76173" lon="16.26355">
        <ele>319.122459</ele>
        <time>2026-07-07T13:21:58.000Z</time>
      </trkpt>
      <trkpt lat="47.76168" lon="16.26351">
        <ele>319.133226</ele>
        <time>2026-07-07T13:21:59.000Z</time>
      </trkpt>
      <trkpt lat="47.76163" lon="16.26347">
        <ele>319.14392</ele>
        <time>2026-07-07T13:22:00.000Z</time>
      </trkpt>
      <trkpt lat="47.76158" lon="16.26344">
        <ele>319.154863</ele>
        <time>2026-07-07T13:22:01.000Z</time>
      </trkpt>
      <trkpt lat="47.76153" lon="16.26341">
        <ele>319.165806</ele>
        <time>2026-07-07T13:22:02.000Z</time>
      </trkpt>
      <trkpt lat="47.76148" lon="16.26337">
        <ele>319.17717</ele>
        <time>2026-07-07T13:22:03.000Z</time>
      </trkpt>
      <trkpt lat="47.76143" lon="16.26334">
        <ele>319.18889</ele>
        <time>2026-07-07T13:22:04.000Z</time>
      </trkpt>
      <trkpt lat="47.76137" lon="16.26332">
        <ele>319.200217</ele>
        <time>2026-07-07T13:22:05.000Z</time>
      </trkpt>
      <trkpt lat="47.76132" lon="16.26331">
        <ele>319.211429</ele>
        <time>2026-07-07T13:22:06.000Z</time>
      </trkpt>
      <trkpt lat="47.76126" lon="16.26329">
        <ele>319.222222</ele>
        <time>2026-07-07T13:22:07.000Z</time>
      </trkpt>
      <trkpt lat="47.76121" lon="16.26328">
        <ele>319.233409</ele>
        <time>2026-07-07T13:22:08.000Z</time>
      </trkpt>
      <trkpt lat="47.76115" lon="16.26326">
        <ele>319.244647</ele>
        <time>2026-07-07T13:22:09.000Z</time>
      </trkpt>
      <trkpt lat="47.7611" lon="16.26324">
        <ele>319.255885</ele>
        <time>2026-07-07T13:22:10.000Z</time>
      </trkpt>
      <trkpt lat="47.76104" lon="16.26322">
        <ele>319.267018</ele>
        <time>2026-07-07T13:22:11.000Z</time>
      </trkpt>
      <trkpt lat="47.76099" lon="16.26321">
        <ele>319.278285</ele>
        <time>2026-07-07T13:22:12.000Z</time>
      </trkpt>
      <trkpt lat="47.76094" lon="16.26318">
        <ele>319.289027</ele>
        <time>2026-07-07T13:22:13.000Z</time>
      </trkpt>
      <trkpt lat="47.76089" lon="16.26315">
        <ele>319.300185</ele>
        <time>2026-07-07T13:22:14.000Z</time>
      </trkpt>
      <trkpt lat="47.76083" lon="16.26312">
        <ele>319.311343</ele>
        <time>2026-07-07T13:22:15.000Z</time>
      </trkpt>
      <trkpt lat="47.76078" lon="16.26309">
        <ele>319.322398</ele>
        <time>2026-07-07T13:22:16.000Z</time>
      </trkpt>
      <trkpt lat="47.76073" lon="16.26305">
        <ele>319.333756</ele>
        <time>2026-07-07T13:22:17.000Z</time>
      </trkpt>
      <trkpt lat="47.76068" lon="16.26301">
        <ele>319.345114</ele>
        <time>2026-07-07T13:22:18.000Z</time>
      </trkpt>
      <trkpt lat="47.76063" lon="16.26297">
        <ele>319.356347</ele>
        <time>2026-07-07T13:22:19.000Z</time>
      </trkpt>
      <trkpt lat="47.76058" lon="16.26293">
        <ele>319.367948</ele>
        <time>2026-07-07T13:22:20.000Z</time>
      </trkpt>
      <trkpt lat="47.76053" lon="16.2629">
        <ele>319.379293</ele>
        <time>2026-07-07T13:22:21.000Z</time>
      </trkpt>
      <trkpt lat="47.76047" lon="16.26288">
        <ele>319.390568</ele>
        <time>2026-07-07T13:22:22.000Z</time>
      </trkpt>
      <trkpt lat="47.76042" lon="16.26286">
        <ele>319.401928</ele>
        <time>2026-07-07T13:22:23.000Z</time>
      </trkpt>
      <trkpt lat="47.76036" lon="16.26284">
        <ele>319.413449</ele>
        <time>2026-07-07T13:22:24.000Z</time>
      </trkpt>
      <trkpt lat="47.76031" lon="16.26282">
        <ele>319.424843</ele>
        <time>2026-07-07T13:22:25.000Z</time>
      </trkpt>
      <trkpt lat="47.76025" lon="16.26279">
        <ele>319.449268</ele>
        <time>2026-07-07T13:22:26.000Z</time>
      </trkpt>
      <trkpt lat="47.7602" lon="16.26276">
        <ele>319.482103</ele>
        <time>2026-07-07T13:22:27.000Z</time>
      </trkpt>
      <trkpt lat="47.76015" lon="16.26272">
        <ele>319.514172</ele>
        <time>2026-07-07T13:22:28.000Z</time>
      </trkpt>
      <trkpt lat="47.7601" lon="16.26267">
        <ele>319.545451</ele>
        <time>2026-07-07T13:22:29.000Z</time>
      </trkpt>
      <trkpt lat="47.76006" lon="16.26262">
        <ele>319.576637</ele>
        <time>2026-07-07T13:22:30.000Z</time>
      </trkpt>
      <trkpt lat="47.76002" lon="16.26256">
        <ele>319.608457</ele>
        <time>2026-07-07T13:22:31.000Z</time>
      </trkpt>
      <trkpt lat="47.75998" lon="16.2625">
        <ele>319.639485</ele>
        <time>2026-07-07T13:22:32.000Z</time>
      </trkpt>
      <trkpt lat="47.75994" lon="16.26244">
        <ele>319.671573</ele>
        <time>2026-07-07T13:22:33.000Z</time>
      </trkpt>
      <trkpt lat="47.7599" lon="16.26239">
        <ele>319.702932</ele>
        <time>2026-07-07T13:22:34.000Z</time>
      </trkpt>
      <trkpt lat="47.75986" lon="16.26234">
        <ele>319.73466</ele>
        <time>2026-07-07T13:22:35.000Z</time>
      </trkpt>
      <trkpt lat="47.75981" lon="16.26229">
        <ele>319.766233</ele>
        <time>2026-07-07T13:22:36.000Z</time>
      </trkpt>
      <trkpt lat="47.75976" lon="16.26225">
        <ele>319.798801</ele>
        <time>2026-07-07T13:22:37.000Z</time>
      </trkpt>
      <trkpt lat="47.7597" lon="16.26222">
        <ele>319.832024</ele>
        <time>2026-07-07T13:22:38.000Z</time>
      </trkpt>
      <trkpt lat="47.75965" lon="16.26219">
        <ele>319.864987</ele>
        <time>2026-07-07T13:22:39.000Z</time>
      </trkpt>
      <trkpt lat="47.75959" lon="16.26217">
        <ele>319.896933</ele>
        <time>2026-07-07T13:22:40.000Z</time>
      </trkpt>
      <trkpt lat="47.75954" lon="16.26214">
        <ele>319.928458</ele>
        <time>2026-07-07T13:22:41.000Z</time>
      </trkpt>
      <trkpt lat="47.75949" lon="16.26211">
        <ele>319.960491</ele>
        <time>2026-07-07T13:22:42.000Z</time>
      </trkpt>
      <trkpt lat="47.75944" lon="16.26208">
        <ele>319.991238</ele>
        <time>2026-07-07T13:22:43.000Z</time>
      </trkpt>
      <trkpt lat="47.75939" lon="16.26205">
        <ele>320.021467</ele>
        <time>2026-07-07T13:22:44.000Z</time>
      </trkpt>
      <trkpt lat="47.75934" lon="16.26201">
        <ele>320.051663</ele>
        <time>2026-07-07T13:22:45.000Z</time>
      </trkpt>
      <trkpt lat="47.75929" lon="16.26198">
        <ele>320.081353</ele>
        <time>2026-07-07T13:22:46.000Z</time>
      </trkpt>
      <trkpt lat="47.75925" lon="16.26195">
        <ele>320.111223</ele>
        <time>2026-07-07T13:22:47.000Z</time>
      </trkpt>
      <trkpt lat="47.7592" lon="16.26191">
        <ele>320.140914</ele>
        <time>2026-07-07T13:22:48.000Z</time>
      </trkpt>
      <trkpt lat="47.75915" lon="16.26187">
        <ele>320.170453</ele>
        <time>2026-07-07T13:22:49.000Z</time>
      </trkpt>
      <trkpt lat="47.75911" lon="16.26184">
        <ele>320.199316</ele>
        <time>2026-07-07T13:22:50.000Z</time>
      </trkpt>
      <trkpt lat="47.75906" lon="16.2618">
        <ele>320.229903</ele>
        <time>2026-07-07T13:22:51.000Z</time>
      </trkpt>
      <trkpt lat="47.75901" lon="16.26176">
        <ele>320.260304</ele>
        <time>2026-07-07T13:22:52.000Z</time>
      </trkpt>
      <trkpt lat="47.75897" lon="16.26172">
        <ele>320.289665</ele>
        <time>2026-07-07T13:22:53.000Z</time>
      </trkpt>
      <trkpt lat="47.75892" lon="16.26169">
        <ele>320.319187</ele>
        <time>2026-07-07T13:22:54.000Z</time>
      </trkpt>
      <trkpt lat="47.75887" lon="16.26167">
        <ele>320.348435</ele>
        <time>2026-07-07T13:22:55.000Z</time>
      </trkpt>
      <trkpt lat="47.75882" lon="16.26167">
        <ele>320.377811</ele>
        <time>2026-07-07T13:22:56.000Z</time>
      </trkpt>
      <trkpt lat="47.75877" lon="16.26168">
        <ele>320.406921</ele>
        <time>2026-07-07T13:22:57.000Z</time>
      </trkpt>
      <trkpt lat="47.75871" lon="16.26169">
        <ele>320.437952</ele>
        <time>2026-07-07T13:22:58.000Z</time>
      </trkpt>
      <trkpt lat="47.75866" lon="16.26171">
        <ele>320.479031</ele>
        <time>2026-07-07T13:22:59.000Z</time>
      </trkpt>
      <trkpt lat="47.75861" lon="16.26171">
        <ele>320.523992</ele>
        <time>2026-07-07T13:23:00.000Z</time>
      </trkpt>
      <trkpt lat="47.75856" lon="16.26172">
        <ele>320.571393</ele>
        <time>2026-07-07T13:23:01.000Z</time>
      </trkpt>
      <trkpt lat="47.75851" lon="16.26171">
        <ele>320.618271</ele>
        <time>2026-07-07T13:23:02.000Z</time>
      </trkpt>
      <trkpt lat="47.75846" lon="16.26169">
        <ele>320.666297</ele>
        <time>2026-07-07T13:23:03.000Z</time>
      </trkpt>
      <trkpt lat="47.75841" lon="16.26168">
        <ele>320.711785</ele>
        <time>2026-07-07T13:23:04.000Z</time>
      </trkpt>
      <trkpt lat="47.75835" lon="16.26167">
        <ele>320.758929</ele>
        <time>2026-07-07T13:23:05.000Z</time>
      </trkpt>
      <trkpt lat="47.7583" lon="16.26166">
        <ele>320.806694</ele>
        <time>2026-07-07T13:23:06.000Z</time>
      </trkpt>
      <trkpt lat="47.75825" lon="16.26165">
        <ele>320.853282</ele>
        <time>2026-07-07T13:23:07.000Z</time>
      </trkpt>
      <trkpt lat="47.75819" lon="16.26165">
        <ele>320.902471</ele>
        <time>2026-07-07T13:23:08.000Z</time>
      </trkpt>
      <trkpt lat="47.75814" lon="16.26165">
        <ele>320.949871</ele>
        <time>2026-07-07T13:23:09.000Z</time>
      </trkpt>
      <trkpt lat="47.75809" lon="16.26164">
        <ele>320.996611</ele>
        <time>2026-07-07T13:23:10.000Z</time>
      </trkpt>
      <trkpt lat="47.75804" lon="16.26162">
        <ele>321.043617</ele>
        <time>2026-07-07T13:23:11.000Z</time>
      </trkpt>
      <trkpt lat="47.75799" lon="16.2616">
        <ele>321.089931</ele>
        <time>2026-07-07T13:23:12.000Z</time>
      </trkpt>
      <trkpt lat="47.75794" lon="16.26157">
        <ele>321.135082</ele>
        <time>2026-07-07T13:23:13.000Z</time>
      </trkpt>
      <trkpt lat="47.7579" lon="16.26153">
        <ele>321.182625</ele>
        <time>2026-07-07T13:23:14.000Z</time>
      </trkpt>
      <trkpt lat="47.75785" lon="16.2615">
        <ele>321.229902</ele>
        <time>2026-07-07T13:23:15.000Z</time>
      </trkpt>
      <trkpt lat="47.7578" lon="16.26146">
        <ele>321.277445</ele>
        <time>2026-07-07T13:23:16.000Z</time>
      </trkpt>
      <trkpt lat="47.75775" lon="16.26142">
        <ele>321.326466</ele>
        <time>2026-07-07T13:23:17.000Z</time>
      </trkpt>
      <trkpt lat="47.75771" lon="16.26138">
        <ele>321.373335</ele>
        <time>2026-07-07T13:23:18.000Z</time>
      </trkpt>
      <trkpt lat="47.75766" lon="16.26134">
        <ele>321.419531</ele>
        <time>2026-07-07T13:23:19.000Z</time>
      </trkpt>
      <trkpt lat="47.75762" lon="16.26131">
        <ele>321.465998</ele>
        <time>2026-07-07T13:23:20.000Z</time>
      </trkpt>
      <trkpt lat="47.75757" lon="16.26128">
        <ele>321.513792</ele>
        <time>2026-07-07T13:23:21.000Z</time>
      </trkpt>
      <trkpt lat="47.75752" lon="16.26124">
        <ele>321.563197</ele>
        <time>2026-07-07T13:23:22.000Z</time>
      </trkpt>
      <trkpt lat="47.75747" lon="16.26119">
        <ele>321.613092</ele>
        <time>2026-07-07T13:23:23.000Z</time>
      </trkpt>
      <trkpt lat="47.75743" lon="16.26113">
        <ele>321.663923</ele>
        <time>2026-07-07T13:23:24.000Z</time>
      </trkpt>
      <trkpt lat="47.75739" lon="16.26108">
        <ele>321.712602</ele>
        <time>2026-07-07T13:23:25.000Z</time>
      </trkpt>
      <trkpt lat="47.75735" lon="16.26102">
        <ele>321.762127</ele>
        <time>2026-07-07T13:23:26.000Z</time>
      </trkpt>
      <trkpt lat="47.75731" lon="16.26097">
        <ele>321.812746</ele>
        <time>2026-07-07T13:23:27.000Z</time>
      </trkpt>
      <trkpt lat="47.75726" lon="16.26092">
        <ele>321.864125</ele>
        <time>2026-07-07T13:23:28.000Z</time>
      </trkpt>
      <trkpt lat="47.75721" lon="16.26087">
        <ele>321.914098</ele>
        <time>2026-07-07T13:23:29.000Z</time>
      </trkpt>
      <trkpt lat="47.75717" lon="16.26083">
        <ele>321.962672</ele>
        <time>2026-07-07T13:23:30.000Z</time>
      </trkpt>
      <trkpt lat="47.75712" lon="16.26079">
        <ele>322.013537</ele>
        <time>2026-07-07T13:23:31.000Z</time>
      </trkpt>
      <trkpt lat="47.75707" lon="16.26074">
        <ele>322.056982</ele>
        <time>2026-07-07T13:23:32.000Z</time>
      </trkpt>
      <trkpt lat="47.75703" lon="16.26069">
        <ele>322.07664</ele>
        <time>2026-07-07T13:23:33.000Z</time>
      </trkpt>
      <trkpt lat="47.757" lon="16.26063">
        <ele>322.095439</ele>
        <time>2026-07-07T13:23:34.000Z</time>
      </trkpt>
      <trkpt lat="47.75697" lon="16.26056">
        <ele>322.114097</ele>
        <time>2026-07-07T13:23:35.000Z</time>
      </trkpt>
      <trkpt lat="47.75694" lon="16.2605">
        <ele>322.132766</ele>
        <time>2026-07-07T13:23:36.000Z</time>
      </trkpt>
      <trkpt lat="47.75691" lon="16.26043">
        <ele>322.151624</ele>
        <time>2026-07-07T13:23:37.000Z</time>
      </trkpt>
      <trkpt lat="47.75688" lon="16.26036">
        <ele>322.170093</ele>
        <time>2026-07-07T13:23:38.000Z</time>
      </trkpt>
      <trkpt lat="47.75685" lon="16.2603">
        <ele>322.188362</ele>
        <time>2026-07-07T13:23:39.000Z</time>
      </trkpt>
      <trkpt lat="47.75682" lon="16.26023">
        <ele>322.20702</ele>
        <time>2026-07-07T13:23:40.000Z</time>
      </trkpt>
      <trkpt lat="47.75679" lon="16.26017">
        <ele>322.226085</ele>
        <time>2026-07-07T13:23:41.000Z</time>
      </trkpt>
      <trkpt lat="47.75675" lon="16.26011">
        <ele>322.24594</ele>
        <time>2026-07-07T13:23:42.000Z</time>
      </trkpt>
      <trkpt lat="47.75671" lon="16.26005">
        <ele>322.266114</ele>
        <time>2026-07-07T13:23:43.000Z</time>
      </trkpt>
      <trkpt lat="47.75667" lon="16.25999">
        <ele>322.285923</ele>
        <time>2026-07-07T13:23:44.000Z</time>
      </trkpt>
      <trkpt lat="47.75662" lon="16.25995">
        <ele>322.3071</ele>
        <time>2026-07-07T13:23:45.000Z</time>
      </trkpt>
      <trkpt lat="47.75657" lon="16.25991">
        <ele>322.326468</ele>
        <time>2026-07-07T13:23:46.000Z</time>
      </trkpt>
      <trkpt lat="47.75652" lon="16.25988">
        <ele>322.345723</ele>
        <time>2026-07-07T13:23:47.000Z</time>
      </trkpt>
      <trkpt lat="47.75646" lon="16.25985">
        <ele>322.365853</ele>
        <time>2026-07-07T13:23:48.000Z</time>
      </trkpt>
      <trkpt lat="47.75641" lon="16.25982">
        <ele>322.385159</ele>
        <time>2026-07-07T13:23:49.000Z</time>
      </trkpt>
      <trkpt lat="47.75636" lon="16.25979">
        <ele>322.403996</ele>
        <time>2026-07-07T13:23:50.000Z</time>
      </trkpt>
      <trkpt lat="47.75632" lon="16.25976">
        <ele>322.422324</ele>
        <time>2026-07-07T13:23:51.000Z</time>
      </trkpt>
      <trkpt lat="47.75627" lon="16.25973">
        <ele>322.440651</ele>
        <time>2026-07-07T13:23:52.000Z</time>
      </trkpt>
      <trkpt lat="47.75622" lon="16.25969">
        <ele>322.459585</ele>
        <time>2026-07-07T13:23:53.000Z</time>
      </trkpt>
      <trkpt lat="47.75618" lon="16.25965">
        <ele>322.477314</ele>
        <time>2026-07-07T13:23:54.000Z</time>
      </trkpt>
      <trkpt lat="47.75613" lon="16.25961">
        <ele>322.495293</ele>
        <time>2026-07-07T13:23:55.000Z</time>
      </trkpt>
      <trkpt lat="47.75609" lon="16.25957">
        <ele>322.513956</ele>
        <time>2026-07-07T13:23:56.000Z</time>
      </trkpt>
      <trkpt lat="47.75605" lon="16.25953">
        <ele>322.531616</ele>
        <time>2026-07-07T13:23:57.000Z</time>
      </trkpt>
      <trkpt lat="47.756" lon="16.25948">
        <ele>322.550412</ele>
        <time>2026-07-07T13:23:58.000Z</time>
      </trkpt>
      <trkpt lat="47.75596" lon="16.25944">
        <ele>322.568348</ele>
        <time>2026-07-07T13:23:59.000Z</time>
      </trkpt>
      <trkpt lat="47.75592" lon="16.25939">
        <ele>322.58688</ele>
        <time>2026-07-07T13:24:00.000Z</time>
      </trkpt>
      <trkpt lat="47.75588" lon="16.25935">
        <ele>322.605101</ele>
        <time>2026-07-07T13:24:01.000Z</time>
      </trkpt>
      <trkpt lat="47.75584" lon="16.25929">
        <ele>322.623802</ele>
        <time>2026-07-07T13:24:02.000Z</time>
      </trkpt>
      <trkpt lat="47.7558" lon="16.25925">
        <ele>322.642446</ele>
        <time>2026-07-07T13:24:03.000Z</time>
      </trkpt>
      <trkpt lat="47.75576" lon="16.2592">
        <ele>322.659843</ele>
        <time>2026-07-07T13:24:04.000Z</time>
      </trkpt>
      <trkpt lat="47.75572" lon="16.25915">
        <ele>322.677641</ele>
        <time>2026-07-07T13:24:05.000Z</time>
      </trkpt>
      <trkpt lat="47.75568" lon="16.2591">
        <ele>322.703303</ele>
        <time>2026-07-07T13:24:06.000Z</time>
      </trkpt>
      <trkpt lat="47.75564" lon="16.25905">
        <ele>322.737074</ele>
        <time>2026-07-07T13:24:07.000Z</time>
      </trkpt>
      <trkpt lat="47.7556" lon="16.259">
        <ele>322.770844</ele>
        <time>2026-07-07T13:24:08.000Z</time>
      </trkpt>
      <trkpt lat="47.75556" lon="16.25895">
        <ele>322.804896</ele>
        <time>2026-07-07T13:24:09.000Z</time>
      </trkpt>
      <trkpt lat="47.75552" lon="16.25891">
        <ele>322.83783</ele>
        <time>2026-07-07T13:24:10.000Z</time>
      </trkpt>
      <trkpt lat="47.75548" lon="16.25886">
        <ele>322.871286</ele>
        <time>2026-07-07T13:24:11.000Z</time>
      </trkpt>
      <trkpt lat="47.75543" lon="16.25881">
        <ele>322.905786</ele>
        <time>2026-07-07T13:24:12.000Z</time>
      </trkpt>
      <trkpt lat="47.75539" lon="16.25877">
        <ele>322.93951</ele>
        <time>2026-07-07T13:24:13.000Z</time>
      </trkpt>
      <trkpt lat="47.75535" lon="16.25872">
        <ele>322.973744</ele>
        <time>2026-07-07T13:24:14.000Z</time>
      </trkpt>
      <trkpt lat="47.75531" lon="16.25867">
        <ele>323.008234</ele>
        <time>2026-07-07T13:24:15.000Z</time>
      </trkpt>
      <trkpt lat="47.75527" lon="16.25862">
        <ele>323.042468</ele>
        <time>2026-07-07T13:24:16.000Z</time>
      </trkpt>
      <trkpt lat="47.75522" lon="16.25858">
        <ele>323.076439</ele>
        <time>2026-07-07T13:24:17.000Z</time>
      </trkpt>
      <trkpt lat="47.75518" lon="16.25853">
        <ele>323.110163</ele>
        <time>2026-07-07T13:24:18.000Z</time>
      </trkpt>
      <trkpt lat="47.75514" lon="16.25848">
        <ele>323.143656</ele>
        <time>2026-07-07T13:24:19.000Z</time>
      </trkpt>
      <trkpt lat="47.7551" lon="16.25843">
        <ele>323.1778</ele>
        <time>2026-07-07T13:24:20.000Z</time>
      </trkpt>
      <trkpt lat="47.75507" lon="16.25837">
        <ele>323.211784</ele>
        <time>2026-07-07T13:24:21.000Z</time>
      </trkpt>
      <trkpt lat="47.75503" lon="16.25831">
        <ele>323.246889</ele>
        <time>2026-07-07T13:24:23.000Z</time>
      </trkpt>
      <trkpt lat="47.755" lon="16.25824">
        <ele>323.281149</ele>
        <time>2026-07-07T13:24:24.000Z</time>
      </trkpt>
      <trkpt lat="47.75498" lon="16.25817">
        <ele>323.31543</ele>
        <time>2026-07-07T13:24:25.000Z</time>
      </trkpt>
      <trkpt lat="47.75494" lon="16.25811">
        <ele>323.350438</ele>
        <time>2026-07-07T13:24:26.000Z</time>
      </trkpt>
      <trkpt lat="47.7549" lon="16.25805">
        <ele>323.385646</ele>
        <time>2026-07-07T13:24:27.000Z</time>
      </trkpt>
      <trkpt lat="47.75486" lon="16.258">
        <ele>323.419698</ele>
        <time>2026-07-07T13:24:28.000Z</time>
      </trkpt>
      <trkpt lat="47.75482" lon="16.25795">
        <ele>323.453469</ele>
        <time>2026-07-07T13:24:29.000Z</time>
      </trkpt>
      <trkpt lat="47.75478" lon="16.2579">
        <ele>323.487738</ele>
        <time>2026-07-07T13:24:30.000Z</time>
      </trkpt>
      <trkpt lat="47.75474" lon="16.25785">
        <ele>323.523264</ele>
        <time>2026-07-07T13:24:31.000Z</time>
      </trkpt>
      <trkpt lat="47.7547" lon="16.25781">
        <ele>323.556988</ele>
        <time>2026-07-07T13:24:32.000Z</time>
      </trkpt>
      <trkpt lat="47.75466" lon="16.25776">
        <ele>323.589404</ele>
        <time>2026-07-07T13:24:33.000Z</time>
      </trkpt>
      <trkpt lat="47.75462" lon="16.25771">
        <ele>323.622352</ele>
        <time>2026-07-07T13:24:34.000Z</time>
      </trkpt>
      <trkpt lat="47.75457" lon="16.25767">
        <ele>323.656865</ele>
        <time>2026-07-07T13:24:35.000Z</time>
      </trkpt>
      <trkpt lat="47.75453" lon="16.25762">
        <ele>323.692451</ele>
        <time>2026-07-07T13:24:36.000Z</time>
      </trkpt>
      <trkpt lat="47.75448" lon="16.25758">
        <ele>323.728579</ele>
        <time>2026-07-07T13:24:37.000Z</time>
      </trkpt>
      <trkpt lat="47.75443" lon="16.25754">
        <ele>323.764243</ele>
        <time>2026-07-07T13:24:38.000Z</time>
      </trkpt>
      <trkpt lat="47.75439" lon="16.25749">
        <ele>323.798814</ele>
        <time>2026-07-07T13:24:39.000Z</time>
      </trkpt>
      <trkpt lat="47.75435" lon="16.25745">
        <ele>323.832796</ele>
        <time>2026-07-07T13:24:40.000Z</time>
      </trkpt>
      <trkpt lat="47.7543" lon="16.2574">
        <ele>323.856305</ele>
        <time>2026-07-07T13:24:41.000Z</time>
      </trkpt>
      <trkpt lat="47.75426" lon="16.25736">
        <ele>323.870305</ele>
        <time>2026-07-07T13:24:42.000Z</time>
      </trkpt>
      <trkpt lat="47.75423" lon="16.25731">
        <ele>323.883997</ele>
        <time>2026-07-07T13:24:43.000Z</time>
      </trkpt>
      <trkpt lat="47.75419" lon="16.25726">
        <ele>323.898179</ele>
        <time>2026-07-07T13:24:44.000Z</time>
      </trkpt>
      <trkpt lat="47.75415" lon="16.2572">
        <ele>323.911897</ele>
        <time>2026-07-07T13:24:45.000Z</time>
      </trkpt>
      <trkpt lat="47.75412" lon="16.25715">
        <ele>323.926264</ele>
        <time>2026-07-07T13:24:46.000Z</time>
      </trkpt>
      <trkpt lat="47.75408" lon="16.25709">
        <ele>323.940518</ele>
        <time>2026-07-07T13:24:47.000Z</time>
      </trkpt>
      <trkpt lat="47.75405" lon="16.25703">
        <ele>323.954372</ele>
        <time>2026-07-07T13:24:48.000Z</time>
      </trkpt>
      <trkpt lat="47.75402" lon="16.25697">
        <ele>323.96864</ele>
        <time>2026-07-07T13:24:49.000Z</time>
      </trkpt>
      <trkpt lat="47.75399" lon="16.25691">
        <ele>323.982745</ele>
        <time>2026-07-07T13:24:50.000Z</time>
      </trkpt>
      <trkpt lat="47.75395" lon="16.25685">
        <ele>323.997136</ele>
        <time>2026-07-07T13:24:51.000Z</time>
      </trkpt>
      <trkpt lat="47.75391" lon="16.2568">
        <ele>324.012144</ele>
        <time>2026-07-07T13:24:52.000Z</time>
      </trkpt>
      <trkpt lat="47.75387" lon="16.25676">
        <ele>324.026834</ele>
        <time>2026-07-07T13:24:53.000Z</time>
      </trkpt>
      <trkpt lat="47.75382" lon="16.25671">
        <ele>324.040963</ele>
        <time>2026-07-07T13:24:54.000Z</time>
      </trkpt>
      <trkpt lat="47.75378" lon="16.25667">
        <ele>324.055629</ele>
        <time>2026-07-07T13:24:55.000Z</time>
      </trkpt>
      <trkpt lat="47.75374" lon="16.25662">
        <ele>324.069085</ele>
        <time>2026-07-07T13:24:56.000Z</time>
      </trkpt>
      <trkpt lat="47.7537" lon="16.25658">
        <ele>324.083085</ele>
        <time>2026-07-07T13:24:57.000Z</time>
      </trkpt>
      <trkpt lat="47.75366" lon="16.25653">
        <ele>324.097086</ele>
        <time>2026-07-07T13:24:58.000Z</time>
      </trkpt>
      <trkpt lat="47.75362" lon="16.25648">
        <ele>324.111411</ele>
        <time>2026-07-07T13:24:59.000Z</time>
      </trkpt>
      <trkpt lat="47.75358" lon="16.25644">
        <ele>324.125405</ele>
        <time>2026-07-07T13:25:00.000Z</time>
      </trkpt>
      <trkpt lat="47.75354" lon="16.25639">
        <ele>324.139069</ele>
        <time>2026-07-07T13:25:01.000Z</time>
      </trkpt>
      <trkpt lat="47.7535" lon="16.25635">
        <ele>324.152867</ele>
        <time>2026-07-07T13:25:02.000Z</time>
      </trkpt>
      <trkpt lat="47.75346" lon="16.25631">
        <ele>324.166531</ele>
        <time>2026-07-07T13:25:03.000Z</time>
      </trkpt>
      <trkpt lat="47.75342" lon="16.25626">
        <ele>324.179872</ele>
        <time>2026-07-07T13:25:04.000Z</time>
      </trkpt>
      <trkpt lat="47.75338" lon="16.25622">
        <ele>324.193427</ele>
        <time>2026-07-07T13:25:05.000Z</time>
      </trkpt>
      <trkpt lat="47.75334" lon="16.25618">
        <ele>324.206982</ele>
        <time>2026-07-07T13:25:06.000Z</time>
      </trkpt>
      <trkpt lat="47.7533" lon="16.25613">
        <ele>324.221198</ele>
        <time>2026-07-07T13:25:07.000Z</time>
      </trkpt>
      <trkpt lat="47.75325" lon="16.25609">
        <ele>324.235415</ele>
        <time>2026-07-07T13:25:08.000Z</time>
      </trkpt>
      <trkpt lat="47.75321" lon="16.25605">
        <ele>324.249088</ele>
        <time>2026-07-07T13:25:09.000Z</time>
      </trkpt>
      <trkpt lat="47.75317" lon="16.256">
        <ele>324.263447</ele>
        <time>2026-07-07T13:25:10.000Z</time>
      </trkpt>
      <trkpt lat="47.75313" lon="16.25596">
        <ele>324.277225</ele>
        <time>2026-07-07T13:25:11.000Z</time>
      </trkpt>
      <trkpt lat="47.75308" lon="16.25592">
        <ele>324.291891</ele>
        <time>2026-07-07T13:25:12.000Z</time>
      </trkpt>
      <trkpt lat="47.75304" lon="16.25587">
        <ele>324.305885</ele>
        <time>2026-07-07T13:25:13.000Z</time>
      </trkpt>
      <trkpt lat="47.753" lon="16.25582">
        <ele>324.320764</ele>
        <time>2026-07-07T13:25:14.000Z</time>
      </trkpt>
      <trkpt lat="47.75296" lon="16.25578">
        <ele>324.335094</ele>
        <time>2026-07-07T13:25:15.000Z</time>
      </trkpt>
      <trkpt lat="47.75291" lon="16.25573">
        <ele>324.35464</ele>
        <time>2026-07-07T13:25:16.000Z</time>
      </trkpt>
      <trkpt lat="47.75287" lon="16.25568">
        <ele>324.378994</ele>
        <time>2026-07-07T13:25:17.000Z</time>
      </trkpt>
      <trkpt lat="47.75282" lon="16.25563">
        <ele>324.402479</ele>
        <time>2026-07-07T13:25:18.000Z</time>
      </trkpt>
      <trkpt lat="47.75278" lon="16.25559">
        <ele>324.426158</ele>
        <time>2026-07-07T13:25:19.000Z</time>
      </trkpt>
      <trkpt lat="47.75273" lon="16.25554">
        <ele>324.4502</ele>
        <time>2026-07-07T13:25:20.000Z</time>
      </trkpt>
      <trkpt lat="47.75269" lon="16.2555">
        <ele>324.474609</ele>
        <time>2026-07-07T13:25:21.000Z</time>
      </trkpt>
      <trkpt lat="47.75264" lon="16.25545">
        <ele>324.499017</ele>
        <time>2026-07-07T13:25:22.000Z</time>
      </trkpt>
      <trkpt lat="47.75259" lon="16.25541">
        <ele>324.522696</ele>
        <time>2026-07-07T13:25:23.000Z</time>
      </trkpt>
      <trkpt lat="47.75255" lon="16.25536">
        <ele>324.544946</ele>
        <time>2026-07-07T13:25:24.000Z</time>
      </trkpt>
      <trkpt lat="47.75251" lon="16.25531">
        <ele>324.568256</ele>
        <time>2026-07-07T13:25:25.000Z</time>
      </trkpt>
      <trkpt lat="47.75247" lon="16.25526">
        <ele>324.591072</ele>
        <time>2026-07-07T13:25:26.000Z</time>
      </trkpt>
      <trkpt lat="47.75243" lon="16.25522">
        <ele>324.613515</ele>
        <time>2026-07-07T13:25:27.000Z</time>
      </trkpt>
      <trkpt lat="47.75239" lon="16.25517">
        <ele>324.636332</ele>
        <time>2026-07-07T13:25:28.000Z</time>
      </trkpt>
      <trkpt lat="47.75235" lon="16.25511">
        <ele>324.65908</ele>
        <time>2026-07-07T13:25:29.000Z</time>
      </trkpt>
      <trkpt lat="47.75232" lon="16.25506">
        <ele>324.681309</ele>
        <time>2026-07-07T13:25:30.000Z</time>
      </trkpt>
      <trkpt lat="47.75228" lon="16.25501">
        <ele>324.703857</ele>
        <time>2026-07-07T13:25:31.000Z</time>
      </trkpt>
      <trkpt lat="47.75224" lon="16.25496">
        <ele>324.726926</ele>
        <time>2026-07-07T13:25:32.000Z</time>
      </trkpt>
      <trkpt lat="47.7522" lon="16.2549">
        <ele>324.749474</ele>
        <time>2026-07-07T13:25:33.000Z</time>
      </trkpt>
      <trkpt lat="47.75216" lon="16.25485">
        <ele>324.771825</ele>
        <time>2026-07-07T13:25:34.000Z</time>
      </trkpt>
      <trkpt lat="47.75212" lon="16.2548">
        <ele>324.795023</ele>
        <time>2026-07-07T13:25:35.000Z</time>
      </trkpt>
      <trkpt lat="47.75208" lon="16.25475">
        <ele>324.818416</ele>
        <time>2026-07-07T13:25:36.000Z</time>
      </trkpt>
      <trkpt lat="47.75204" lon="16.2547">
        <ele>324.841615</ele>
        <time>2026-07-07T13:25:37.000Z</time>
      </trkpt>
      <trkpt lat="47.752" lon="16.25464">
        <ele>324.864814</ele>
        <time>2026-07-07T13:25:38.000Z</time>
      </trkpt>
      <trkpt lat="47.75196" lon="16.25459">
        <ele>324.888305</ele>
        <time>2026-07-07T13:25:39.000Z</time>
      </trkpt>
      <trkpt lat="47.75192" lon="16.25454">
        <ele>324.910135</ele>
        <time>2026-07-07T13:25:40.000Z</time>
      </trkpt>
      <trkpt lat="47.75189" lon="16.25449">
        <ele>324.93229</ele>
        <time>2026-07-07T13:25:41.000Z</time>
      </trkpt>
      <trkpt lat="47.75185" lon="16.25445">
        <ele>324.95373</ele>
        <time>2026-07-07T13:25:42.000Z</time>
      </trkpt>
      <trkpt lat="47.75181" lon="16.2544">
        <ele>324.974842</ele>
        <time>2026-07-07T13:25:43.000Z</time>
      </trkpt>
      <trkpt lat="47.75177" lon="16.25435">
        <ele>324.996396</ele>
        <time>2026-07-07T13:25:44.000Z</time>
      </trkpt>
      <trkpt lat="47.75174" lon="16.25431">
        <ele>325.017314</ele>
        <time>2026-07-07T13:25:45.000Z</time>
      </trkpt>
      <trkpt lat="47.7517" lon="16.25426">
        <ele>325.038561</ele>
        <time>2026-07-07T13:25:46.000Z</time>
      </trkpt>
      <trkpt lat="47.75166" lon="16.25421">
        <ele>325.060332</ele>
        <time>2026-07-07T13:25:47.000Z</time>
      </trkpt>
      <trkpt lat="47.75162" lon="16.25417">
        <ele>325.081886</ele>
        <time>2026-07-07T13:25:48.000Z</time>
      </trkpt>
      <trkpt lat="47.75159" lon="16.25412">
        <ele>325.103657</ele>
        <time>2026-07-07T13:25:49.000Z</time>
      </trkpt>
      <trkpt lat="47.75155" lon="16.25407">
        <ele>325.124904</ele>
        <time>2026-07-07T13:25:50.000Z</time>
      </trkpt>
      <trkpt lat="47.75151" lon="16.25402">
        <ele>325.151649</ele>
        <time>2026-07-07T13:25:51.000Z</time>
      </trkpt>
      <trkpt lat="47.75148" lon="16.25398">
        <ele>325.180484</ele>
        <time>2026-07-07T13:25:52.000Z</time>
      </trkpt>
      <trkpt lat="47.75144" lon="16.25393">
        <ele>325.208856</ele>
        <time>2026-07-07T13:25:53.000Z</time>
      </trkpt>
      <trkpt lat="47.7514" lon="16.25389">
        <ele>325.23769</ele>
        <time>2026-07-07T13:25:54.000Z</time>
      </trkpt>
      <trkpt lat="47.75136" lon="16.25384">
        <ele>325.266775</ele>
        <time>2026-07-07T13:25:55.000Z</time>
      </trkpt>
      <trkpt lat="47.75132" lon="16.2538">
        <ele>325.296076</ele>
        <time>2026-07-07T13:25:56.000Z</time>
      </trkpt>
      <trkpt lat="47.75128" lon="16.25375">
        <ele>325.325849</ele>
        <time>2026-07-07T13:25:57.000Z</time>
      </trkpt>
      <trkpt lat="47.75125" lon="16.25371">
        <ele>325.355187</ele>
        <time>2026-07-07T13:25:58.000Z</time>
      </trkpt>
      <trkpt lat="47.75121" lon="16.25366">
        <ele>325.384525</ele>
        <time>2026-07-07T13:25:59.000Z</time>
      </trkpt>
      <trkpt lat="47.75117" lon="16.25361">
        <ele>325.413827</ele>
        <time>2026-07-07T13:26:00.000Z</time>
      </trkpt>
      <trkpt lat="47.75113" lon="16.25357">
        <ele>325.442661</ele>
        <time>2026-07-07T13:26:01.000Z</time>
      </trkpt>
      <trkpt lat="47.75109" lon="16.25352">
        <ele>325.471496</ele>
        <time>2026-07-07T13:26:02.000Z</time>
      </trkpt>
      <trkpt lat="47.75105" lon="16.25348">
        <ele>325.500797</ele>
        <time>2026-07-07T13:26:03.000Z</time>
      </trkpt>
      <trkpt lat="47.75101" lon="16.25344">
        <ele>325.530095</ele>
        <time>2026-07-07T13:26:04.000Z</time>
      </trkpt>
      <trkpt lat="47.75098" lon="16.25339">
        <ele>325.558929</ele>
        <time>2026-07-07T13:26:05.000Z</time>
      </trkpt>
      <trkpt lat="47.75094" lon="16.25334">
        <ele>325.589439</ele>
        <time>2026-07-07T13:26:06.000Z</time>
      </trkpt>
      <trkpt lat="47.7509" lon="16.2533">
        <ele>325.618777</ele>
        <time>2026-07-07T13:26:07.000Z</time>
      </trkpt>
      <trkpt lat="47.75086" lon="16.25325">
        <ele>325.648828</ele>
        <time>2026-07-07T13:26:08.000Z</time>
      </trkpt>
      <trkpt lat="47.75082" lon="16.2532">
        <ele>325.677263</ele>
        <time>2026-07-07T13:26:09.000Z</time>
      </trkpt>
      <trkpt lat="47.75078" lon="16.25315">
        <ele>325.707061</ele>
        <time>2026-07-07T13:26:10.000Z</time>
      </trkpt>
      <trkpt lat="47.75075" lon="16.25311">
        <ele>325.735235</ele>
        <time>2026-07-07T13:26:11.000Z</time>
      </trkpt>
      <trkpt lat="47.75071" lon="16.25306">
        <ele>325.765032</ele>
        <time>2026-07-07T13:26:12.000Z</time>
      </trkpt>
      <trkpt lat="47.75067" lon="16.25302">
        <ele>325.793866</ele>
        <time>2026-07-07T13:26:13.000Z</time>
      </trkpt>
      <trkpt lat="47.75063" lon="16.25297">
        <ele>325.824127</ele>
        <time>2026-07-07T13:26:14.000Z</time>
      </trkpt>
      <trkpt lat="47.75059" lon="16.25292">
        <ele>325.852962</ele>
        <time>2026-07-07T13:26:15.000Z</time>
      </trkpt>
      <trkpt lat="47.75055" lon="16.25288">
        <ele>325.88251</ele>
        <time>2026-07-07T13:26:16.000Z</time>
      </trkpt>
      <trkpt lat="47.75052" lon="16.25283">
        <ele>325.911344</ele>
        <time>2026-07-07T13:26:17.000Z</time>
      </trkpt>
      <trkpt lat="47.75048" lon="16.25279">
        <ele>325.941605</ele>
        <time>2026-07-07T13:26:18.000Z</time>
      </trkpt>
      <trkpt lat="47.75044" lon="16.25274">
        <ele>325.970943</ele>
        <time>2026-07-07T13:26:19.000Z</time>
      </trkpt>
      <trkpt lat="47.7504" lon="16.25269">
        <ele>326.000994</ele>
        <time>2026-07-07T13:26:20.000Z</time>
      </trkpt>
      <trkpt lat="47.75036" lon="16.25264">
        <ele>326.030332</ele>
        <time>2026-07-07T13:26:21.000Z</time>
      </trkpt>
      <trkpt lat="47.75032" lon="16.2526">
        <ele>326.059928</ele>
        <time>2026-07-07T13:26:22.000Z</time>
      </trkpt>
      <trkpt lat="47.75028" lon="16.25255">
        <ele>326.089978</ele>
        <time>2026-07-07T13:26:23.000Z</time>
      </trkpt>
      <trkpt lat="47.75025" lon="16.2525">
        <ele>326.119316</ele>
        <time>2026-07-07T13:26:24.000Z</time>
      </trkpt>
      <trkpt lat="47.75021" lon="16.25245">
        <ele>326.149435</ele>
        <time>2026-07-07T13:26:25.000Z</time>
      </trkpt>
      <trkpt lat="47.75017" lon="16.2524">
        <ele>326.180452</ele>
        <time>2026-07-07T13:26:26.000Z</time>
      </trkpt>
      <trkpt lat="47.75013" lon="16.25235">
        <ele>326.214312</ele>
        <time>2026-07-07T13:26:27.000Z</time>
      </trkpt>
      <trkpt lat="47.75009" lon="16.2523">
        <ele>326.252746</ele>
        <time>2026-07-07T13:26:28.000Z</time>
      </trkpt>
      <trkpt lat="47.75004" lon="16.25225">
        <ele>326.291135</ele>
        <time>2026-07-07T13:26:29.000Z</time>
      </trkpt>
      <trkpt lat="47.75" lon="16.2522">
        <ele>326.327884</ele>
        <time>2026-07-07T13:26:30.000Z</time>
      </trkpt>
      <trkpt lat="47.74996" lon="16.25215">
        <ele>326.36572</ele>
        <time>2026-07-07T13:26:31.000Z</time>
      </trkpt>
      <trkpt lat="47.74992" lon="16.2521">
        <ele>326.403557</ele>
        <time>2026-07-07T13:26:32.000Z</time>
      </trkpt>
      <trkpt lat="47.74988" lon="16.25205">
        <ele>326.439705</ele>
        <time>2026-07-07T13:26:33.000Z</time>
      </trkpt>
      <trkpt lat="47.74984" lon="16.252">
        <ele>326.477602</ele>
        <time>2026-07-07T13:26:34.000Z</time>
      </trkpt>
      <trkpt lat="47.7498" lon="16.25195">
        <ele>326.514351</ele>
        <time>2026-07-07T13:26:35.000Z</time>
      </trkpt>
      <trkpt lat="47.74976" lon="16.2519">
        <ele>326.550564</ele>
        <time>2026-07-07T13:26:36.000Z</time>
      </trkpt>
      <trkpt lat="47.74972" lon="16.25185">
        <ele>326.584569</ele>
        <time>2026-07-07T13:26:37.000Z</time>
      </trkpt>
      <trkpt lat="47.74969" lon="16.2518">
        <ele>326.617734</ele>
        <time>2026-07-07T13:26:38.000Z</time>
      </trkpt>
      <trkpt lat="47.74965" lon="16.25176">
        <ele>326.650185</ele>
        <time>2026-07-07T13:26:39.000Z</time>
      </trkpt>
      <trkpt lat="47.74961" lon="16.25172">
        <ele>326.682356</ele>
        <time>2026-07-07T13:26:40.000Z</time>
      </trkpt>
      <trkpt lat="47.74958" lon="16.25168">
        <ele>326.711849</ele>
        <time>2026-07-07T13:26:41.000Z</time>
      </trkpt>
      <trkpt lat="47.74955" lon="16.25164">
        <ele>326.740186</ele>
        <time>2026-07-07T13:26:42.000Z</time>
      </trkpt>
      <trkpt lat="47.74952" lon="16.2516">
        <ele>326.770203</ele>
        <time>2026-07-07T13:26:43.000Z</time>
      </trkpt>
      <trkpt lat="47.74949" lon="16.25156">
        <ele>326.800445</ele>
        <time>2026-07-07T13:26:44.000Z</time>
      </trkpt>
      <trkpt lat="47.74945" lon="16.25152">
        <ele>326.832074</ele>
        <time>2026-07-07T13:26:45.000Z</time>
      </trkpt>
      <trkpt lat="47.74942" lon="16.25147">
        <ele>326.864003</ele>
        <time>2026-07-07T13:26:46.000Z</time>
      </trkpt>
      <trkpt lat="47.74938" lon="16.25143">
        <ele>326.897321</ele>
        <time>2026-07-07T13:26:47.000Z</time>
      </trkpt>
      <trkpt lat="47.74934" lon="16.25139">
        <ele>326.930903</ele>
        <time>2026-07-07T13:26:48.000Z</time>
      </trkpt>
      <trkpt lat="47.74931" lon="16.25134">
        <ele>326.963929</ele>
        <time>2026-07-07T13:26:49.000Z</time>
      </trkpt>
      <trkpt lat="47.74927" lon="16.2513">
        <ele>326.997799</ele>
        <time>2026-07-07T13:26:50.000Z</time>
      </trkpt>
      <trkpt lat="47.74923" lon="16.25126">
        <ele>327.032511</ele>
        <time>2026-07-07T13:26:51.000Z</time>
      </trkpt>
      <trkpt lat="47.74919" lon="16.25121">
        <ele>327.067815</ele>
        <time>2026-07-07T13:26:52.000Z</time>
      </trkpt>
      <trkpt lat="47.74915" lon="16.25116">
        <ele>327.102879</ele>
        <time>2026-07-07T13:26:53.000Z</time>
      </trkpt>
      <trkpt lat="47.74911" lon="16.25111">
        <ele>327.13764</ele>
        <time>2026-07-07T13:26:54.000Z</time>
      </trkpt>
      <trkpt lat="47.74907" lon="16.25107">
        <ele>327.172648</ele>
        <time>2026-07-07T13:26:55.000Z</time>
      </trkpt>
      <trkpt lat="47.74904" lon="16.25102">
        <ele>327.20678</ele>
        <time>2026-07-07T13:26:56.000Z</time>
      </trkpt>
      <trkpt lat="47.749" lon="16.25098">
        <ele>327.241009</ele>
        <time>2026-07-07T13:26:57.000Z</time>
      </trkpt>
      <trkpt lat="47.74895" lon="16.25094">
        <ele>327.276794</ele>
        <time>2026-07-07T13:26:58.000Z</time>
      </trkpt>
      <trkpt lat="47.74892" lon="16.2509">
        <ele>327.308974</ele>
        <time>2026-07-07T13:26:59.000Z</time>
      </trkpt>
      <trkpt lat="47.74888" lon="16.25086">
        <ele>327.342</ele>
        <time>2026-07-07T13:27:00.000Z</time>
      </trkpt>
      <trkpt lat="47.74884" lon="16.25081">
        <ele>327.375615</ele>
        <time>2026-07-07T13:27:01.000Z</time>
      </trkpt>
      <trkpt lat="47.7488" lon="16.25076">
        <ele>327.411468</ele>
        <time>2026-07-07T13:27:02.000Z</time>
      </trkpt>
      <trkpt lat="47.74878" lon="16.25071">
        <ele>327.44224</ele>
        <time>2026-07-07T13:27:03.000Z</time>
      </trkpt>
      <trkpt lat="47.74875" lon="16.25067">
        <ele>327.468958</ele>
        <time>2026-07-07T13:27:04.000Z</time>
      </trkpt>
      <trkpt lat="47.74873" lon="16.25062">
        <ele>327.488782</ele>
        <time>2026-07-07T13:27:05.000Z</time>
      </trkpt>
      <trkpt lat="47.74871" lon="16.25057">
        <ele>327.508625</ele>
        <time>2026-07-07T13:27:06.000Z</time>
      </trkpt>
      <trkpt lat="47.74869" lon="16.25052">
        <ele>327.528172</ele>
        <time>2026-07-07T13:27:07.000Z</time>
      </trkpt>
      <trkpt lat="47.74867" lon="16.25047">
        <ele>327.547454</ele>
        <time>2026-07-07T13:27:08.000Z</time>
      </trkpt>
      <trkpt lat="47.74865" lon="16.25042">
        <ele>327.568836</ele>
        <time>2026-07-07T13:27:09.000Z</time>
      </trkpt>
      <trkpt lat="47.74863" lon="16.25035">
        <ele>327.592641</ele>
        <time>2026-07-07T13:27:10.000Z</time>
      </trkpt>
      <trkpt lat="47.74862" lon="16.25029">
        <ele>327.616784</ele>
        <time>2026-07-07T13:27:11.000Z</time>
      </trkpt>
      <trkpt lat="47.7486" lon="16.25022">
        <ele>327.640573</ele>
        <time>2026-07-07T13:27:12.000Z</time>
      </trkpt>
      <trkpt lat="47.74859" lon="16.25016">
        <ele>327.664048</ele>
        <time>2026-07-07T13:27:13.000Z</time>
      </trkpt>
      <trkpt lat="47.74857" lon="16.25009">
        <ele>327.687838</ele>
        <time>2026-07-07T13:27:14.000Z</time>
      </trkpt>
      <trkpt lat="47.74855" lon="16.25004">
        <ele>327.710819</ele>
        <time>2026-07-07T13:27:15.000Z</time>
      </trkpt>
      <trkpt lat="47.74851" lon="16.24999">
        <ele>327.734866</ele>
        <time>2026-07-07T13:27:16.000Z</time>
      </trkpt>
      <trkpt lat="47.74847" lon="16.24995">
        <ele>327.760688</ele>
        <time>2026-07-07T13:27:17.000Z</time>
      </trkpt>
      <trkpt lat="47.74843" lon="16.2499">
        <ele>327.788823</ele>
        <time>2026-07-07T13:27:18.000Z</time>
      </trkpt>
      <trkpt lat="47.74839" lon="16.24984">
        <ele>327.818162</ele>
        <time>2026-07-07T13:27:19.000Z</time>
      </trkpt>
      <trkpt lat="47.74834" lon="16.24979">
        <ele>327.84837</ele>
        <time>2026-07-07T13:27:20.000Z</time>
      </trkpt>
      <trkpt lat="47.7483" lon="16.24972">
        <ele>327.877927</ele>
        <time>2026-07-07T13:27:21.000Z</time>
      </trkpt>
      <trkpt lat="47.74827" lon="16.24966">
        <ele>327.905686</ele>
        <time>2026-07-07T13:27:22.000Z</time>
      </trkpt>
      <trkpt lat="47.74824" lon="16.2496">
        <ele>327.93157</ele>
        <time>2026-07-07T13:27:23.000Z</time>
      </trkpt>
      <trkpt lat="47.74821" lon="16.24954">
        <ele>327.957453</ele>
        <time>2026-07-07T13:27:24.000Z</time>
      </trkpt>
      <trkpt lat="47.74818" lon="16.24948">
        <ele>327.982752</ele>
        <time>2026-07-07T13:27:25.000Z</time>
      </trkpt>
      <trkpt lat="47.74815" lon="16.24943">
        <ele>328.006634</ele>
        <time>2026-07-07T13:27:26.000Z</time>
      </trkpt>
      <trkpt lat="47.74812" lon="16.24938">
        <ele>328.031292</ele>
        <time>2026-07-07T13:27:27.000Z</time>
      </trkpt>
      <trkpt lat="47.74808" lon="16.24933">
        <ele>328.05557</ele>
        <time>2026-07-07T13:27:28.000Z</time>
      </trkpt>
      <trkpt lat="47.74805" lon="16.24929">
        <ele>328.07974</ele>
        <time>2026-07-07T13:27:29.000Z</time>
      </trkpt>
      <trkpt lat="47.74801" lon="16.24925">
        <ele>328.102893</ele>
        <time>2026-07-07T13:27:30.000Z</time>
      </trkpt>
      <trkpt lat="47.74797" lon="16.2492">
        <ele>328.127901</ele>
        <time>2026-07-07T13:27:31.000Z</time>
      </trkpt>
      <trkpt lat="47.74794" lon="16.24914">
        <ele>328.152959</ele>
        <time>2026-07-07T13:27:32.000Z</time>
      </trkpt>
      <trkpt lat="47.74791" lon="16.24908">
        <ele>328.178821</ele>
        <time>2026-07-07T13:27:33.000Z</time>
      </trkpt>
      <trkpt lat="47.7479" lon="16.24902">
        <ele>328.203266</ele>
        <time>2026-07-07T13:27:34.000Z</time>
      </trkpt>
      <trkpt lat="47.74789" lon="16.24895">
        <ele>328.227477</ele>
        <time>2026-07-07T13:27:35.000Z</time>
      </trkpt>
      <trkpt lat="47.74787" lon="16.24888">
        <ele>328.251696</ele>
        <time>2026-07-07T13:27:36.000Z</time>
      </trkpt>
      <trkpt lat="47.74784" lon="16.24882">
        <ele>328.276131</ele>
        <time>2026-07-07T13:27:37.000Z</time>
      </trkpt>
      <trkpt lat="47.74782" lon="16.24877">
        <ele>328.300012</ele>
        <time>2026-07-07T13:27:38.000Z</time>
      </trkpt>
      <trkpt lat="47.74778" lon="16.24872">
        <ele>328.324671</ele>
        <time>2026-07-07T13:27:39.000Z</time>
      </trkpt>
      <trkpt lat="47.74775" lon="16.24866">
        <ele>328.349515</ele>
        <time>2026-07-07T13:27:40.000Z</time>
      </trkpt>
      <trkpt lat="47.74772" lon="16.2486">
        <ele>328.37522</ele>
        <time>2026-07-07T13:27:41.000Z</time>
      </trkpt>
      <trkpt lat="47.74769" lon="16.24855">
        <ele>328.39881</ele>
        <time>2026-07-07T13:27:42.000Z</time>
      </trkpt>
      <trkpt lat="47.74766" lon="16.24849">
        <ele>328.420687</ele>
        <time>2026-07-07T13:27:43.000Z</time>
      </trkpt>
      <trkpt lat="47.74762" lon="16.24844">
        <ele>328.4429</ele>
        <time>2026-07-07T13:27:44.000Z</time>
      </trkpt>
      <trkpt lat="47.74758" lon="16.24839">
        <ele>328.467057</ele>
        <time>2026-07-07T13:27:45.000Z</time>
      </trkpt>
      <trkpt lat="47.74755" lon="16.24834">
        <ele>328.490059</ele>
        <time>2026-07-07T13:27:46.000Z</time>
      </trkpt>
      <trkpt lat="47.74751" lon="16.24829">
        <ele>328.512929</ele>
        <time>2026-07-07T13:27:47.000Z</time>
      </trkpt>
      <trkpt lat="47.74748" lon="16.24823">
        <ele>328.535276</ele>
        <time>2026-07-07T13:27:48.000Z</time>
      </trkpt>
      <trkpt lat="47.74745" lon="16.24817">
        <ele>328.55653</ele>
        <time>2026-07-07T13:27:49.000Z</time>
      </trkpt>
      <trkpt lat="47.74742" lon="16.24812">
        <ele>328.578118</ele>
        <time>2026-07-07T13:27:50.000Z</time>
      </trkpt>
      <trkpt lat="47.74738" lon="16.24807">
        <ele>328.60033</ele>
        <time>2026-07-07T13:27:51.000Z</time>
      </trkpt>
      <trkpt lat="47.74734" lon="16.24804">
        <ele>328.622951</ele>
        <time>2026-07-07T13:27:52.000Z</time>
      </trkpt>
      <trkpt lat="47.74729" lon="16.24801">
        <ele>328.646439</ele>
        <time>2026-07-07T13:27:53.000Z</time>
      </trkpt>
      <trkpt lat="47.74724" lon="16.24798">
        <ele>328.669068</ele>
        <time>2026-07-07T13:27:54.000Z</time>
      </trkpt>
      <trkpt lat="47.7472" lon="16.24795">
        <ele>328.692791</ele>
        <time>2026-07-07T13:27:55.000Z</time>
      </trkpt>
      <trkpt lat="47.74715" lon="16.24792">
        <ele>328.716102</ele>
        <time>2026-07-07T13:27:56.000Z</time>
      </trkpt>
      <trkpt lat="47.74711" lon="16.24788">
        <ele>328.738777</ele>
        <time>2026-07-07T13:27:57.000Z</time>
      </trkpt>
      <trkpt lat="47.74707" lon="16.24784">
        <ele>328.761387</ele>
        <time>2026-07-07T13:27:58.000Z</time>
      </trkpt>
      <trkpt lat="47.74703" lon="16.24779">
        <ele>328.784188</ele>
        <time>2026-07-07T13:27:59.000Z</time>
      </trkpt>
      <trkpt lat="47.74699" lon="16.24774">
        <ele>328.806517</ele>
        <time>2026-07-07T13:28:00.000Z</time>
      </trkpt>
      <trkpt lat="47.74696" lon="16.24768">
        <ele>328.828987</ele>
        <time>2026-07-07T13:28:01.000Z</time>
      </trkpt>
      <trkpt lat="47.74693" lon="16.24763">
        <ele>328.851415</ele>
        <time>2026-07-07T13:28:02.000Z</time>
      </trkpt>
      <trkpt lat="47.74689" lon="16.24758">
        <ele>328.874018</ele>
        <time>2026-07-07T13:28:03.000Z</time>
      </trkpt>
      <trkpt lat="47.74685" lon="16.24753">
        <ele>328.897733</ele>
        <time>2026-07-07T13:28:04.000Z</time>
      </trkpt>
      <trkpt lat="47.74682" lon="16.24746">
        <ele>328.922271</ele>
        <time>2026-07-07T13:28:05.000Z</time>
      </trkpt>
      <trkpt lat="47.7468" lon="16.24739">
        <ele>328.946432</ele>
        <time>2026-07-07T13:28:06.000Z</time>
      </trkpt>
      <trkpt lat="47.74677" lon="16.24732">
        <ele>328.970863</ele>
        <time>2026-07-07T13:28:07.000Z</time>
      </trkpt>
      <trkpt lat="47.74674" lon="16.24725">
        <ele>328.995911</ele>
        <time>2026-07-07T13:28:08.000Z</time>
      </trkpt>
      <trkpt lat="47.74671" lon="16.24719">
        <ele>329.020254</ele>
        <time>2026-07-07T13:28:09.000Z</time>
      </trkpt>
      <trkpt lat="47.74667" lon="16.24713">
        <ele>329.044173</ele>
        <time>2026-07-07T13:28:10.000Z</time>
      </trkpt>
      <trkpt lat="47.74664" lon="16.24707">
        <ele>329.066818</ele>
        <time>2026-07-07T13:28:11.000Z</time>
      </trkpt>
      <trkpt lat="47.7466" lon="16.24702">
        <ele>329.091932</ele>
        <time>2026-07-07T13:28:12.000Z</time>
      </trkpt>
      <trkpt lat="47.74656" lon="16.24696">
        <ele>329.116219</ele>
        <time>2026-07-07T13:28:13.000Z</time>
      </trkpt>
      <trkpt lat="47.74652" lon="16.24691">
        <ele>329.140777</ele>
        <time>2026-07-07T13:28:14.000Z</time>
      </trkpt>
      <trkpt lat="47.74647" lon="16.24688">
        <ele>329.165029</ele>
        <time>2026-07-07T13:28:15.000Z</time>
      </trkpt>
      <trkpt lat="47.74642" lon="16.24684">
        <ele>329.188876</ele>
        <time>2026-07-07T13:28:16.000Z</time>
      </trkpt>
      <trkpt lat="47.74637" lon="16.24682">
        <ele>329.218854</ele>
        <time>2026-07-07T13:28:17.000Z</time>
      </trkpt>
      <trkpt lat="47.74632" lon="16.24679">
        <ele>329.257165</ele>
        <time>2026-07-07T13:28:18.000Z</time>
      </trkpt>
      <trkpt lat="47.74627" lon="16.24676">
        <ele>329.293308</ele>
        <time>2026-07-07T13:28:19.000Z</time>
      </trkpt>
      <trkpt lat="47.74623" lon="16.24673">
        <ele>329.32785</ele>
        <time>2026-07-07T13:28:20.000Z</time>
      </trkpt>
      <trkpt lat="47.74619" lon="16.24668">
        <ele>329.363367</ele>
        <time>2026-07-07T13:28:21.000Z</time>
      </trkpt>
      <trkpt lat="47.74615" lon="16.24663">
        <ele>329.399055</ele>
        <time>2026-07-07T13:28:22.000Z</time>
      </trkpt>
      <trkpt lat="47.74612" lon="16.24658">
        <ele>329.434547</ele>
        <time>2026-07-07T13:28:23.000Z</time>
      </trkpt>
      <trkpt lat="47.74608" lon="16.24653">
        <ele>329.471122</ele>
        <time>2026-07-07T13:28:24.000Z</time>
      </trkpt>
      <trkpt lat="47.74606" lon="16.24647">
        <ele>329.505385</ele>
        <time>2026-07-07T13:28:25.000Z</time>
      </trkpt>
      <trkpt lat="47.74604" lon="16.2464">
        <ele>329.540572</ele>
        <time>2026-07-07T13:28:26.000Z</time>
      </trkpt>
      <trkpt lat="47.74602" lon="16.24633">
        <ele>329.578971</ele>
        <time>2026-07-07T13:28:27.000Z</time>
      </trkpt>
      <trkpt lat="47.74599" lon="16.24625">
        <ele>329.617234</ele>
        <time>2026-07-07T13:28:28.000Z</time>
      </trkpt>
      <trkpt lat="47.74596" lon="16.24618">
        <ele>329.657484</ele>
        <time>2026-07-07T13:28:29.000Z</time>
      </trkpt>
      <trkpt lat="47.74593" lon="16.24612">
        <ele>329.696153</ele>
        <time>2026-07-07T13:28:30.000Z</time>
      </trkpt>
      <trkpt lat="47.74589" lon="16.24606">
        <ele>329.733498</ele>
        <time>2026-07-07T13:28:31.000Z</time>
      </trkpt>
      <trkpt lat="47.74586" lon="16.24601">
        <ele>329.772027</ele>
        <time>2026-07-07T13:28:32.000Z</time>
      </trkpt>
      <trkpt lat="47.74581" lon="16.24595">
        <ele>329.812514</ele>
        <time>2026-07-07T13:28:33.000Z</time>
      </trkpt>
      <trkpt lat="47.74576" lon="16.2459">
        <ele>329.854935</ele>
        <time>2026-07-07T13:28:34.000Z</time>
      </trkpt>
      <trkpt lat="47.74571" lon="16.24587">
        <ele>329.895031</ele>
        <time>2026-07-07T13:28:35.000Z</time>
      </trkpt>
      <trkpt lat="47.74566" lon="16.24585">
        <ele>329.934081</ele>
        <time>2026-07-07T13:28:36.000Z</time>
      </trkpt>
      <trkpt lat="47.7456" lon="16.24585">
        <ele>329.974069</ele>
        <time>2026-07-07T13:28:37.000Z</time>
      </trkpt>
      <trkpt lat="47.74555" lon="16.24586">
        <ele>330.013518</ele>
        <time>2026-07-07T13:28:38.000Z</time>
      </trkpt>
      <trkpt lat="47.74549" lon="16.24587">
        <ele>330.052733</ele>
        <time>2026-07-07T13:28:39.000Z</time>
      </trkpt>
      <trkpt lat="47.74544" lon="16.24589">
        <ele>330.091246</ele>
        <time>2026-07-07T13:28:40.000Z</time>
      </trkpt>
      <trkpt lat="47.74539" lon="16.24589">
        <ele>330.125565</ele>
        <time>2026-07-07T13:28:41.000Z</time>
      </trkpt>
      <trkpt lat="47.74535" lon="16.24588">
        <ele>330.156291</ele>
        <time>2026-07-07T13:28:42.000Z</time>
      </trkpt>
      <trkpt lat="47.74531" lon="16.24585">
        <ele>330.187089</ele>
        <time>2026-07-07T13:28:43.000Z</time>
      </trkpt>
      <trkpt lat="47.74528" lon="16.2458">
        <ele>330.219707</ele>
        <time>2026-07-07T13:28:44.000Z</time>
      </trkpt>
      <trkpt lat="47.74525" lon="16.24575">
        <ele>330.250468</ele>
        <time>2026-07-07T13:28:45.000Z</time>
      </trkpt>
      <trkpt lat="47.74522" lon="16.24571">
        <ele>330.282429</ele>
        <time>2026-07-07T13:28:46.000Z</time>
      </trkpt>
      <trkpt lat="47.74518" lon="16.24567">
        <ele>330.315452</ele>
        <time>2026-07-07T13:28:47.000Z</time>
      </trkpt>
      <trkpt lat="47.74514" lon="16.24563">
        <ele>330.347532</ele>
        <time>2026-07-07T13:28:48.000Z</time>
      </trkpt>
      <trkpt lat="47.7451" lon="16.24558">
        <ele>330.384289</ele>
        <time>2026-07-07T13:28:49.000Z</time>
      </trkpt>
      <trkpt lat="47.74508" lon="16.24552">
        <ele>330.418562</ele>
        <time>2026-07-07T13:28:50.000Z</time>
      </trkpt>
      <trkpt lat="47.74505" lon="16.24546">
        <ele>330.456011</ele>
        <time>2026-07-07T13:28:51.000Z</time>
      </trkpt>
      <trkpt lat="47.74502" lon="16.2454">
        <ele>330.491122</ele>
        <time>2026-07-07T13:28:52.000Z</time>
      </trkpt>
      <trkpt lat="47.74499" lon="16.24533">
        <ele>330.519591</ele>
        <time>2026-07-07T13:28:53.000Z</time>
      </trkpt>
      <trkpt lat="47.74497" lon="16.24527">
        <ele>330.548786</ele>
        <time>2026-07-07T13:28:54.000Z</time>
      </trkpt>
      <trkpt lat="47.74494" lon="16.2452">
        <ele>330.577313</ele>
        <time>2026-07-07T13:28:55.000Z</time>
      </trkpt>
      <trkpt lat="47.74492" lon="16.24514">
        <ele>330.605506</ele>
        <time>2026-07-07T13:28:56.000Z</time>
      </trkpt>
      <trkpt lat="47.74489" lon="16.24508">
        <ele>330.633655</ele>
        <time>2026-07-07T13:28:57.000Z</time>
      </trkpt>
      <trkpt lat="47.74486" lon="16.24502">
        <ele>330.662763</ele>
        <time>2026-07-07T13:28:58.000Z</time>
      </trkpt>
      <trkpt lat="47.74483" lon="16.24496">
        <ele>330.69158</ele>
        <time>2026-07-07T13:28:59.000Z</time>
      </trkpt>
      <trkpt lat="47.7448" lon="16.2449">
        <ele>330.720742</ele>
        <time>2026-07-07T13:29:00.000Z</time>
      </trkpt>
      <trkpt lat="47.74477" lon="16.24484">
        <ele>330.750495</ele>
        <time>2026-07-07T13:29:01.000Z</time>
      </trkpt>
      <trkpt lat="47.74473" lon="16.24477">
        <ele>330.781992</ele>
        <time>2026-07-07T13:29:02.000Z</time>
      </trkpt>
      <trkpt lat="47.7447" lon="16.24471">
        <ele>330.811206</ele>
        <time>2026-07-07T13:29:03.000Z</time>
      </trkpt>
      <trkpt lat="47.74466" lon="16.24466">
        <ele>330.841599</ele>
        <time>2026-07-07T13:29:04.000Z</time>
      </trkpt>
      <trkpt lat="47.74462" lon="16.24461">
        <ele>330.872897</ele>
        <time>2026-07-07T13:29:05.000Z</time>
      </trkpt>
      <trkpt lat="47.74458" lon="16.24457">
        <ele>330.902567</ele>
        <time>2026-07-07T13:29:06.000Z</time>
      </trkpt>
      <trkpt lat="47.74453" lon="16.24453">
        <ele>330.931435</ele>
        <time>2026-07-07T13:29:07.000Z</time>
      </trkpt>
      <trkpt lat="47.74449" lon="16.24449">
        <ele>330.960598</ele>
        <time>2026-07-07T13:29:08.000Z</time>
      </trkpt>
      <trkpt lat="47.74445" lon="16.24445">
        <ele>330.989669</ele>
        <time>2026-07-07T13:29:09.000Z</time>
      </trkpt>
      <trkpt lat="47.7444" lon="16.24441">
        <ele>331.020332</ele>
        <time>2026-07-07T13:29:10.000Z</time>
      </trkpt>
      <trkpt lat="47.74435" lon="16.24437">
        <ele>331.051682</ele>
        <time>2026-07-07T13:29:11.000Z</time>
      </trkpt>
      <trkpt lat="47.74431" lon="16.24433">
        <ele>331.080959</ele>
        <time>2026-07-07T13:29:12.000Z</time>
      </trkpt>
      <trkpt lat="47.74426" lon="16.24429">
        <ele>331.111007</ele>
        <time>2026-07-07T13:29:13.000Z</time>
      </trkpt>
      <trkpt lat="47.74422" lon="16.24426">
        <ele>331.140479</ele>
        <time>2026-07-07T13:29:14.000Z</time>
      </trkpt>
      <trkpt lat="47.74417" lon="16.24421">
        <ele>331.172896</ele>
        <time>2026-07-07T13:29:15.000Z</time>
      </trkpt>
      <trkpt lat="47.74412" lon="16.24417">
        <ele>331.203438</ele>
        <time>2026-07-07T13:29:16.000Z</time>
      </trkpt>
      <trkpt lat="47.74408" lon="16.24413">
        <ele>331.233615</ele>
        <time>2026-07-07T13:29:17.000Z</time>
      </trkpt>
      <trkpt lat="47.74404" lon="16.24408">
        <ele>331.262192</ele>
        <time>2026-07-07T13:29:18.000Z</time>
      </trkpt>
      <trkpt lat="47.744" lon="16.24403">
        <ele>331.291371</ele>
        <time>2026-07-07T13:29:19.000Z</time>
      </trkpt>
      <trkpt lat="47.74397" lon="16.24397">
        <ele>331.32036</ele>
        <time>2026-07-07T13:29:20.000Z</time>
      </trkpt>
      <trkpt lat="47.74395" lon="16.24391">
        <ele>331.348555</ele>
        <time>2026-07-07T13:29:21.000Z</time>
      </trkpt>
      <trkpt lat="47.74392" lon="16.24385">
        <ele>331.37734</ele>
        <time>2026-07-07T13:29:22.000Z</time>
      </trkpt>
      <trkpt lat="47.74389" lon="16.24379">
        <ele>331.406133</ele>
        <time>2026-07-07T13:29:23.000Z</time>
      </trkpt>
      <trkpt lat="47.74386" lon="16.24373">
        <ele>331.433339</ele>
        <time>2026-07-07T13:29:24.000Z</time>
      </trkpt>
      <trkpt lat="47.74383" lon="16.24367">
        <ele>331.461958</ele>
        <time>2026-07-07T13:29:25.000Z</time>
      </trkpt>
      <trkpt lat="47.74379" lon="16.24362">
        <ele>331.492351</ele>
        <time>2026-07-07T13:29:26.000Z</time>
      </trkpt>
      <trkpt lat="47.74375" lon="16.24357">
        <ele>331.521431</ele>
        <time>2026-07-07T13:29:27.000Z</time>
      </trkpt>
      <trkpt lat="47.74372" lon="16.24351">
        <ele>331.547484</ele>
        <time>2026-07-07T13:29:28.000Z</time>
      </trkpt>
      <trkpt lat="47.74369" lon="16.24346">
        <ele>331.573536</ele>
        <time>2026-07-07T13:29:29.000Z</time>
      </trkpt>
      <trkpt lat="47.74365" lon="16.2434">
        <ele>331.601034</ele>
        <time>2026-07-07T13:29:30.000Z</time>
      </trkpt>
      <trkpt lat="47.74361" lon="16.24335">
        <ele>331.627703</ele>
        <time>2026-07-07T13:29:31.000Z</time>
      </trkpt>
      <trkpt lat="47.74357" lon="16.2433">
        <ele>331.655234</ele>
        <time>2026-07-07T13:29:32.000Z</time>
      </trkpt>
      <trkpt lat="47.74354" lon="16.24324">
        <ele>331.682362</ele>
        <time>2026-07-07T13:29:33.000Z</time>
      </trkpt>
      <trkpt lat="47.7435" lon="16.24319">
        <ele>331.709126</ele>
        <time>2026-07-07T13:29:34.000Z</time>
      </trkpt>
      <trkpt lat="47.74347" lon="16.24314">
        <ele>331.735382</ele>
        <time>2026-07-07T13:29:35.000Z</time>
      </trkpt>
      <trkpt lat="47.74343" lon="16.24308">
        <ele>331.761017</ele>
        <time>2026-07-07T13:29:36.000Z</time>
      </trkpt>
      <trkpt lat="47.7434" lon="16.24303">
        <ele>331.786526</ele>
        <time>2026-07-07T13:29:37.000Z</time>
      </trkpt>
      <trkpt lat="47.74337" lon="16.24299">
        <ele>331.810789</ele>
        <time>2026-07-07T13:29:38.000Z</time>
      </trkpt>
      <trkpt lat="47.74333" lon="16.24293">
        <ele>331.835703</ele>
        <time>2026-07-07T13:29:39.000Z</time>
      </trkpt>
      <trkpt lat="47.7433" lon="16.24288">
        <ele>331.861958</ele>
        <time>2026-07-07T13:29:40.000Z</time>
      </trkpt>
      <trkpt lat="47.74326" lon="16.24283">
        <ele>331.888213</ele>
        <time>2026-07-07T13:29:41.000Z</time>
      </trkpt>
      <trkpt lat="47.74323" lon="16.24277">
        <ele>331.915341</ele>
        <time>2026-07-07T13:29:42.000Z</time>
      </trkpt>
      <trkpt lat="47.74319" lon="16.24272">
        <ele>331.944083</ele>
        <time>2026-07-07T13:29:43.000Z</time>
      </trkpt>
      <trkpt lat="47.74315" lon="16.24266">
        <ele>331.971365</ele>
        <time>2026-07-07T13:29:44.000Z</time>
      </trkpt>
      <trkpt lat="47.74312" lon="16.2426">
        <ele>331.997002</ele>
        <time>2026-07-07T13:29:45.000Z</time>
      </trkpt>
      <trkpt lat="47.74309" lon="16.24255">
        <ele>332.025003</ele>
        <time>2026-07-07T13:29:46.000Z</time>
      </trkpt>
      <trkpt lat="47.74305" lon="16.24248">
        <ele>332.054567</ele>
        <time>2026-07-07T13:29:47.000Z</time>
      </trkpt>
      <trkpt lat="47.74301" lon="16.24242">
        <ele>332.08443</ele>
        <time>2026-07-07T13:29:48.000Z</time>
      </trkpt>
      <trkpt lat="47.74297" lon="16.24237">
        <ele>332.112799</ele>
        <time>2026-07-07T13:29:49.000Z</time>
      </trkpt>
      <trkpt lat="47.74293" lon="16.24231">
        <ele>332.141918</ele>
        <time>2026-07-07T13:29:50.000Z</time>
      </trkpt>
      <trkpt lat="47.74289" lon="16.24225">
        <ele>332.170793</ele>
        <time>2026-07-07T13:29:51.000Z</time>
      </trkpt>
      <trkpt lat="47.74285" lon="16.2422">
        <ele>332.199912</ele>
        <time>2026-07-07T13:29:52.000Z</time>
      </trkpt>
      <trkpt lat="47.74281" lon="16.24214">
        <ele>332.229277</ele>
        <time>2026-07-07T13:29:53.000Z</time>
      </trkpt>
      <trkpt lat="47.74277" lon="16.24208">
        <ele>332.259139</ele>
        <time>2026-07-07T13:29:54.000Z</time>
      </trkpt>
      <trkpt lat="47.74273" lon="16.24202">
        <ele>332.287654</ele>
        <time>2026-07-07T13:29:55.000Z</time>
      </trkpt>
      <trkpt lat="47.7427" lon="16.24196">
        <ele>332.315773</ele>
        <time>2026-07-07T13:29:56.000Z</time>
      </trkpt>
      <trkpt lat="47.74266" lon="16.2419">
        <ele>332.345385</ele>
        <time>2026-07-07T13:29:57.000Z</time>
      </trkpt>
      <trkpt lat="47.74262" lon="16.24185">
        <ele>332.374261</ele>
        <time>2026-07-07T13:29:58.000Z</time>
      </trkpt>
      <trkpt lat="47.74257" lon="16.24179">
        <ele>332.403676</ele>
        <time>2026-07-07T13:29:59.000Z</time>
      </trkpt>
      <trkpt lat="47.74253" lon="16.24174">
        <ele>332.43231</ele>
        <time>2026-07-07T13:30:00.000Z</time>
      </trkpt>
      <trkpt lat="47.74249" lon="16.24168">
        <ele>332.460945</ele>
        <time>2026-07-07T13:30:01.000Z</time>
      </trkpt>
      <trkpt lat="47.74246" lon="16.24163">
        <ele>332.487075</ele>
        <time>2026-07-07T13:30:02.000Z</time>
      </trkpt>
      <trkpt lat="47.74242" lon="16.24157">
        <ele>332.512596</ele>
        <time>2026-07-07T13:30:03.000Z</time>
      </trkpt>
      <trkpt lat="47.74238" lon="16.24152">
        <ele>332.538463</ele>
        <time>2026-07-07T13:30:04.000Z</time>
      </trkpt>
      <trkpt lat="47.74234" lon="16.24146">
        <ele>332.564007</ele>
        <time>2026-07-07T13:30:05.000Z</time>
      </trkpt>
      <trkpt lat="47.7423" lon="16.2414">
        <ele>332.590325</ele>
        <time>2026-07-07T13:30:06.000Z</time>
      </trkpt>
      <trkpt lat="47.74227" lon="16.24135">
        <ele>332.615164</ele>
        <time>2026-07-07T13:30:07.000Z</time>
      </trkpt>
      <trkpt lat="47.74223" lon="16.24129">
        <ele>332.639665</ele>
        <time>2026-07-07T13:30:08.000Z</time>
      </trkpt>
      <trkpt lat="47.7422" lon="16.24124">
        <ele>332.662571</ele>
        <time>2026-07-07T13:30:09.000Z</time>
      </trkpt>
      <trkpt lat="47.74217" lon="16.24119">
        <ele>332.684909</ele>
        <time>2026-07-07T13:30:10.000Z</time>
      </trkpt>
      <trkpt lat="47.74213" lon="16.24114">
        <ele>332.707248</ele>
        <time>2026-07-07T13:30:11.000Z</time>
      </trkpt>
      <trkpt lat="47.7421" lon="16.2411">
        <ele>332.727078</ele>
        <time>2026-07-07T13:30:12.000Z</time>
      </trkpt>
      <trkpt lat="47.74208" lon="16.24106">
        <ele>332.745082</ele>
        <time>2026-07-07T13:30:13.000Z</time>
      </trkpt>
      <trkpt lat="47.74205" lon="16.24102">
        <ele>332.762287</ele>
        <time>2026-07-07T13:30:14.000Z</time>
      </trkpt>
      <trkpt lat="47.74203" lon="16.24099">
        <ele>332.779957</ele>
        <time>2026-07-07T13:30:15.000Z</time>
      </trkpt>
      <trkpt lat="47.742" lon="16.24095">
        <ele>332.797628</ele>
        <time>2026-07-07T13:30:16.000Z</time>
      </trkpt>
      <trkpt lat="47.74198" lon="16.24091">
        <ele>332.812808</ele>
        <time>2026-07-07T13:30:17.000Z</time>
      </trkpt>
      <trkpt lat="47.74196" lon="16.24088">
        <ele>332.826781</ele>
        <time>2026-07-07T13:30:18.000Z</time>
      </trkpt>
      <trkpt lat="47.74195" lon="16.24085">
        <ele>332.839159</ele>
        <time>2026-07-07T13:30:19.000Z</time>
      </trkpt>
      <trkpt lat="47.74194" lon="16.24082">
        <ele>332.849995</ele>
        <time>2026-07-07T13:30:20.000Z</time>
      </trkpt>
      <trkpt lat="47.74193" lon="16.24079">
        <ele>332.858166</ele>
        <time>2026-07-07T13:30:21.000Z</time>
      </trkpt>
      <trkpt lat="47.74193" lon="16.24077">
        <ele>332.864482</ele>
        <time>2026-07-07T13:30:22.000Z</time>
      </trkpt>
      <trkpt lat="47.74193" lon="16.24076">
        <ele>332.869749</ele>
        <time>2026-07-07T13:30:23.000Z</time>
      </trkpt>
      <trkpt lat="47.74192" lon="16.24074">
        <ele>332.876352</ele>
        <time>2026-07-07T13:30:24.000Z</time>
      </trkpt>
      <trkpt lat="47.74191" lon="16.24072">
        <ele>332.884901</ele>
        <time>2026-07-07T13:30:25.000Z</time>
      </trkpt>
      <trkpt lat="47.74188" lon="16.24071">
        <ele>332.896738</ele>
        <time>2026-07-07T13:30:26.000Z</time>
      </trkpt>
      <trkpt lat="47.74186" lon="16.24072">
        <ele>332.91031</ele>
        <time>2026-07-07T13:30:27.000Z</time>
      </trkpt>
      <trkpt lat="47.74183" lon="16.24074">
        <ele>332.924128</ele>
        <time>2026-07-07T13:30:28.000Z</time>
      </trkpt>
      <trkpt lat="47.74181" lon="16.24077">
        <ele>332.938231</ele>
        <time>2026-07-07T13:30:29.000Z</time>
      </trkpt>
      <trkpt lat="47.74178" lon="16.24079">
        <ele>332.953101</ele>
        <time>2026-07-07T13:30:30.000Z</time>
      </trkpt>
      <trkpt lat="47.74176" lon="16.24082">
        <ele>332.968943</ele>
        <time>2026-07-07T13:30:31.000Z</time>
      </trkpt>
      <trkpt lat="47.74173" lon="16.24086">
        <ele>332.9877</ele>
        <time>2026-07-07T13:30:32.000Z</time>
      </trkpt>
      <trkpt lat="47.7417" lon="16.24089">
        <ele>333.006253</ele>
        <time>2026-07-07T13:30:33.000Z</time>
      </trkpt>
      <trkpt lat="47.74166" lon="16.24093">
        <ele>333.026165</ele>
        <time>2026-07-07T13:30:34.000Z</time>
      </trkpt>
      <trkpt lat="47.74163" lon="16.24097">
        <ele>333.046131</ele>
        <time>2026-07-07T13:30:35.000Z</time>
      </trkpt>
      <trkpt lat="47.7416" lon="16.24102">
        <ele>333.067106</ele>
        <time>2026-07-07T13:30:36.000Z</time>
      </trkpt>
      <trkpt lat="47.74157" lon="16.24106">
        <ele>333.087863</ele>
        <time>2026-07-07T13:30:37.000Z</time>
      </trkpt>
      <trkpt lat="47.74154" lon="16.2411">
        <ele>333.108979</ele>
        <time>2026-07-07T13:30:38.000Z</time>
      </trkpt>
      <trkpt lat="47.7415" lon="16.24115">
        <ele>333.129955</ele>
        <time>2026-07-07T13:30:39.000Z</time>
      </trkpt>
      <trkpt lat="47.74147" lon="16.24119">
        <ele>333.150444</ele>
        <time>2026-07-07T13:30:40.000Z</time>
      </trkpt>
      <trkpt lat="47.74143" lon="16.24123">
        <ele>333.172651</ele>
        <time>2026-07-07T13:30:41.000Z</time>
      </trkpt>
      <trkpt lat="47.7414" lon="16.24127">
        <ele>333.195078</ele>
        <time>2026-07-07T13:30:42.000Z</time>
      </trkpt>
      <trkpt lat="47.74136" lon="16.24132">
        <ele>333.218709</ele>
        <time>2026-07-07T13:30:43.000Z</time>
      </trkpt>
      <trkpt lat="47.74132" lon="16.24137">
        <ele>333.242704</ele>
        <time>2026-07-07T13:30:44.000Z</time>
      </trkpt>
      <trkpt lat="47.74128" lon="16.24142">
        <ele>333.268396</ele>
        <time>2026-07-07T13:30:45.000Z</time>
      </trkpt>
      <trkpt lat="47.74124" lon="16.24147">
        <ele>333.293889</ele>
        <time>2026-07-07T13:30:46.000Z</time>
      </trkpt>
      <trkpt lat="47.74119" lon="16.24151">
        <ele>333.320541</ele>
        <time>2026-07-07T13:30:47.000Z</time>
      </trkpt>
      <trkpt lat="47.74115" lon="16.24156">
        <ele>333.302863</ele>
        <time>2026-07-07T13:30:48.000Z</time>
      </trkpt>
      <trkpt lat="47.7411" lon="16.24161">
        <ele>333.26729</ele>
        <time>2026-07-07T13:30:49.000Z</time>
      </trkpt>
      <trkpt lat="47.74105" lon="16.24165">
        <ele>333.230034</ele>
        <time>2026-07-07T13:30:50.000Z</time>
      </trkpt>
      <trkpt lat="47.74101" lon="16.2417">
        <ele>333.193783</ele>
        <time>2026-07-07T13:30:51.000Z</time>
      </trkpt>
      <trkpt lat="47.74096" lon="16.24174">
        <ele>333.157533</ele>
        <time>2026-07-07T13:30:52.000Z</time>
      </trkpt>
      <trkpt lat="47.74091" lon="16.24178">
        <ele>333.11966</ele>
        <time>2026-07-07T13:30:53.000Z</time>
      </trkpt>
      <trkpt lat="47.74086" lon="16.24182">
        <ele>333.082511</ele>
        <time>2026-07-07T13:30:54.000Z</time>
      </trkpt>
      <trkpt lat="47.74081" lon="16.24186">
        <ele>333.046187</ele>
        <time>2026-07-07T13:30:55.000Z</time>
      </trkpt>
      <trkpt lat="47.74076" lon="16.2419">
        <ele>333.009662</ele>
        <time>2026-07-07T13:30:56.000Z</time>
      </trkpt>
      <trkpt lat="47.74071" lon="16.24194">
        <ele>332.972725</ele>
        <time>2026-07-07T13:30:57.000Z</time>
      </trkpt>
      <trkpt lat="47.74066" lon="16.24198">
        <ele>332.935576</ele>
        <time>2026-07-07T13:30:58.000Z</time>
      </trkpt>
      <trkpt lat="47.7406" lon="16.24202">
        <ele>332.898095</ele>
        <time>2026-07-07T13:30:59.000Z</time>
      </trkpt>
      <trkpt lat="47.74055" lon="16.24205">
        <ele>332.862346</ele>
        <time>2026-07-07T13:31:00.000Z</time>
      </trkpt>
      <trkpt lat="47.74051" lon="16.24209">
        <ele>332.826751</ele>
        <time>2026-07-07T13:31:01.000Z</time>
      </trkpt>
      <trkpt lat="47.74046" lon="16.24214">
        <ele>332.789602</ele>
        <time>2026-07-07T13:31:02.000Z</time>
      </trkpt>
      <trkpt lat="47.74041" lon="16.24218">
        <ele>332.75413</ele>
        <time>2026-07-07T13:31:03.000Z</time>
      </trkpt>
      <trkpt lat="47.74036" lon="16.24222">
        <ele>332.719658</ele>
        <time>2026-07-07T13:31:04.000Z</time>
      </trkpt>
      <trkpt lat="47.74032" lon="16.24226">
        <ele>332.685743</ele>
        <time>2026-07-07T13:31:05.000Z</time>
      </trkpt>
      <trkpt lat="47.74027" lon="16.2423">
        <ele>332.651683</ele>
        <time>2026-07-07T13:31:06.000Z</time>
      </trkpt>
      <trkpt lat="47.74023" lon="16.24235">
        <ele>332.617668</ele>
        <time>2026-07-07T13:31:07.000Z</time>
      </trkpt>
      <trkpt lat="47.74019" lon="16.24239">
        <ele>332.585221</ele>
        <time>2026-07-07T13:31:08.000Z</time>
      </trkpt>
      <trkpt lat="47.74015" lon="16.24244">
        <ele>332.553247</ele>
        <time>2026-07-07T13:31:09.000Z</time>
      </trkpt>
      <trkpt lat="47.74011" lon="16.24248">
        <ele>332.521819</ele>
        <time>2026-07-07T13:31:10.000Z</time>
      </trkpt>
      <trkpt lat="47.74007" lon="16.24251">
        <ele>332.490685</ele>
        <time>2026-07-07T13:31:11.000Z</time>
      </trkpt>
      <trkpt lat="47.74003" lon="16.24251">
        <ele>332.462784</ele>
        <time>2026-07-07T13:31:12.000Z</time>
      </trkpt>
      <trkpt lat="47.73998" lon="16.24249">
        <ele>332.433072</ele>
        <time>2026-07-07T13:31:13.000Z</time>
      </trkpt>
      <trkpt lat="47.73994" lon="16.24244">
        <ele>332.401139</ele>
        <time>2026-07-07T13:31:14.000Z</time>
      </trkpt>
      <trkpt lat="47.73991" lon="16.24239">
        <ele>332.368908</ele>
        <time>2026-07-07T13:31:15.000Z</time>
      </trkpt>
      <trkpt lat="47.73989" lon="16.24232">
        <ele>332.334928</ele>
        <time>2026-07-07T13:31:16.000Z</time>
      </trkpt>
      <trkpt lat="47.73986" lon="16.24225">
        <ele>332.299495</ele>
        <time>2026-07-07T13:31:17.000Z</time>
      </trkpt>
      <trkpt lat="47.73983" lon="16.24218">
        <ele>332.264839</ele>
        <time>2026-07-07T13:31:18.000Z</time>
      </trkpt>
      <trkpt lat="47.7398" lon="16.24212">
        <ele>332.229089</ele>
        <time>2026-07-07T13:31:19.000Z</time>
      </trkpt>
      <trkpt lat="47.73976" lon="16.24205">
        <ele>332.193539</ele>
        <time>2026-07-07T13:31:20.000Z</time>
      </trkpt>
      <trkpt lat="47.73973" lon="16.24199">
        <ele>332.172197</ele>
        <time>2026-07-07T13:31:21.000Z</time>
      </trkpt>
      <trkpt lat="47.73969" lon="16.24192">
        <ele>332.209048</ele>
        <time>2026-07-07T13:31:22.000Z</time>
      </trkpt>
      <trkpt lat="47.73966" lon="16.24186">
        <ele>332.245091</ele>
        <time>2026-07-07T13:31:23.000Z</time>
      </trkpt>
      <trkpt lat="47.73962" lon="16.2418">
        <ele>332.282108</ele>
        <time>2026-07-07T13:31:24.000Z</time>
      </trkpt>
      <trkpt lat="47.73959" lon="16.24173">
        <ele>332.318959</ele>
        <time>2026-07-07T13:31:25.000Z</time>
      </trkpt>
      <trkpt lat="47.73955" lon="16.24167">
        <ele>332.35581</ele>
        <time>2026-07-07T13:31:26.000Z</time>
      </trkpt>
      <trkpt lat="47.73952" lon="16.2416">
        <ele>332.392662</ele>
        <time>2026-07-07T13:31:27.000Z</time>
      </trkpt>
      <trkpt lat="47.73948" lon="16.24154">
        <ele>332.428705</ele>
        <time>2026-07-07T13:31:28.000Z</time>
      </trkpt>
      <trkpt lat="47.73945" lon="16.24147">
        <ele>332.464454</ele>
        <time>2026-07-07T13:31:29.000Z</time>
      </trkpt>
      <trkpt lat="47.73942" lon="16.24141">
        <ele>332.499447</ele>
        <time>2026-07-07T13:31:30.000Z</time>
      </trkpt>
      <trkpt lat="47.73938" lon="16.24135">
        <ele>332.535272</ele>
        <time>2026-07-07T13:31:31.000Z</time>
      </trkpt>
      <trkpt lat="47.73935" lon="16.24129">
        <ele>332.568894</ele>
        <time>2026-07-07T13:31:32.000Z</time>
      </trkpt>
      <trkpt lat="47.73931" lon="16.24123">
        <ele>332.603618</ele>
        <time>2026-07-07T13:31:33.000Z</time>
      </trkpt>
      <trkpt lat="47.73928" lon="16.24117">
        <ele>332.638611</ele>
        <time>2026-07-07T13:31:34.000Z</time>
      </trkpt>
      <trkpt lat="47.73925" lon="16.24111">
        <ele>332.673258</ele>
        <time>2026-07-07T13:31:35.000Z</time>
      </trkpt>
      <trkpt lat="47.73921" lon="16.24105">
        <ele>332.708663</ele>
        <time>2026-07-07T13:31:36.000Z</time>
      </trkpt>
      <trkpt lat="47.73918" lon="16.24099">
        <ele>332.742966</ele>
        <time>2026-07-07T13:31:37.000Z</time>
      </trkpt>
      <trkpt lat="47.73915" lon="16.24092">
        <ele>332.777555</ele>
        <time>2026-07-07T13:31:38.000Z</time>
      </trkpt>
      <trkpt lat="47.73912" lon="16.24086">
        <ele>332.811041</ele>
        <time>2026-07-07T13:31:39.000Z</time>
      </trkpt>
      <trkpt lat="47.73909" lon="16.2408">
        <ele>332.845562</ele>
        <time>2026-07-07T13:31:40.000Z</time>
      </trkpt>
      <trkpt lat="47.73906" lon="16.24073">
        <ele>332.880849</ele>
        <time>2026-07-07T13:31:41.000Z</time>
      </trkpt>
      <trkpt lat="47.73904" lon="16.24066">
        <ele>332.916711</ele>
        <time>2026-07-07T13:31:42.000Z</time>
      </trkpt>
      <trkpt lat="47.73901" lon="16.24058">
        <ele>332.952923</ele>
        <time>2026-07-07T13:31:43.000Z</time>
      </trkpt>
      <trkpt lat="47.739" lon="16.24051">
        <ele>332.988168</ele>
        <time>2026-07-07T13:31:44.000Z</time>
      </trkpt>
      <trkpt lat="47.73898" lon="16.24043">
        <ele>333.023223</ele>
        <time>2026-07-07T13:31:45.000Z</time>
      </trkpt>
      <trkpt lat="47.73896" lon="16.24036">
        <ele>333.05755</ele>
        <time>2026-07-07T13:31:46.000Z</time>
      </trkpt>
      <trkpt lat="47.73893" lon="16.2403">
        <ele>333.09146</ele>
        <time>2026-07-07T13:31:47.000Z</time>
      </trkpt>
      <trkpt lat="47.73891" lon="16.24023">
        <ele>333.126028</ele>
        <time>2026-07-07T13:31:48.000Z</time>
      </trkpt>
      <trkpt lat="47.73888" lon="16.24016">
        <ele>333.161316</ele>
        <time>2026-07-07T13:31:49.000Z</time>
      </trkpt>
      <trkpt lat="47.73885" lon="16.24009">
        <ele>333.196578</ele>
        <time>2026-07-07T13:31:50.000Z</time>
      </trkpt>
      <trkpt lat="47.73882" lon="16.24003">
        <ele>333.231834</ele>
        <time>2026-07-07T13:31:51.000Z</time>
      </trkpt>
      <trkpt lat="47.73879" lon="16.23996">
        <ele>333.2671</ele>
        <time>2026-07-07T13:31:52.000Z</time>
      </trkpt>
      <trkpt lat="47.73875" lon="16.2399">
        <ele>333.303544</ele>
        <time>2026-07-07T13:31:53.000Z</time>
      </trkpt>
      <trkpt lat="47.73872" lon="16.23983">
        <ele>333.33881</ele>
        <time>2026-07-07T13:31:54.000Z</time>
      </trkpt>
      <trkpt lat="47.73869" lon="16.23976">
        <ele>333.373112</ele>
        <time>2026-07-07T13:31:55.000Z</time>
      </trkpt>
      <trkpt lat="47.73866" lon="16.2397">
        <ele>333.40632</ele>
        <time>2026-07-07T13:31:56.000Z</time>
      </trkpt>
      <trkpt lat="47.73863" lon="16.23963">
        <ele>333.439945</ele>
        <time>2026-07-07T13:31:57.000Z</time>
      </trkpt>
      <trkpt lat="47.7386" lon="16.23956">
        <ele>333.473857</ele>
        <time>2026-07-07T13:31:58.000Z</time>
      </trkpt>
      <trkpt lat="47.73856" lon="16.2395">
        <ele>333.506465</ele>
        <time>2026-07-07T13:31:59.000Z</time>
      </trkpt>
      <trkpt lat="47.73853" lon="16.23944">
        <ele>333.539832</ele>
        <time>2026-07-07T13:32:00.000Z</time>
      </trkpt>
      <trkpt lat="47.73849" lon="16.23938">
        <ele>333.572887</ele>
        <time>2026-07-07T13:32:01.000Z</time>
      </trkpt>
      <trkpt lat="47.73846" lon="16.23932">
        <ele>333.606128</ele>
        <time>2026-07-07T13:32:02.000Z</time>
      </trkpt>
      <trkpt lat="47.73842" lon="16.23926">
        <ele>333.638477</ele>
        <time>2026-07-07T13:32:03.000Z</time>
      </trkpt>
      <trkpt lat="47.73838" lon="16.23921">
        <ele>333.670111</ele>
        <time>2026-07-07T13:32:04.000Z</time>
      </trkpt>
      <trkpt lat="47.73834" lon="16.23915">
        <ele>333.701877</ele>
        <time>2026-07-07T13:32:05.000Z</time>
      </trkpt>
      <trkpt lat="47.73831" lon="16.2391">
        <ele>333.733512</ele>
        <time>2026-07-07T13:32:06.000Z</time>
      </trkpt>
      <trkpt lat="47.73827" lon="16.23904">
        <ele>333.765427</ele>
        <time>2026-07-07T13:32:07.000Z</time>
      </trkpt>
      <trkpt lat="47.73823" lon="16.23899">
        <ele>333.796962</ele>
        <time>2026-07-07T13:32:08.000Z</time>
      </trkpt>
      <trkpt lat="47.73819" lon="16.23894">
        <ele>333.827502</ele>
        <time>2026-07-07T13:32:09.000Z</time>
      </trkpt>
      <trkpt lat="47.73815" lon="16.2389">
        <ele>333.858712</ele>
        <time>2026-07-07T13:32:10.000Z</time>
      </trkpt>
      <trkpt lat="47.73811" lon="16.23885">
        <ele>333.888723</ele>
        <time>2026-07-07T13:32:11.000Z</time>
      </trkpt>
      <trkpt lat="47.73807" lon="16.2388">
        <ele>333.920452</ele>
        <time>2026-07-07T13:32:12.000Z</time>
      </trkpt>
      <trkpt lat="47.73803" lon="16.23875">
        <ele>333.952181</ele>
        <time>2026-07-07T13:32:13.000Z</time>
      </trkpt>
      <trkpt lat="47.73799" lon="16.2387">
        <ele>333.982885</ele>
        <time>2026-07-07T13:32:14.000Z</time>
      </trkpt>
      <trkpt lat="47.73795" lon="16.23866">
        <ele>334.014317</ele>
        <time>2026-07-07T13:32:15.000Z</time>
      </trkpt>
      <trkpt lat="47.73791" lon="16.23862">
        <ele>334.0449</ele>
        <time>2026-07-07T13:32:16.000Z</time>
      </trkpt>
      <trkpt lat="47.73786" lon="16.23859">
        <ele>334.076119</ele>
        <time>2026-07-07T13:32:17.000Z</time>
      </trkpt>
      <trkpt lat="47.73781" lon="16.23856">
        <ele>334.107734</ele>
        <time>2026-07-07T13:32:18.000Z</time>
      </trkpt>
      <trkpt lat="47.73777" lon="16.23853">
        <ele>334.138021</ele>
        <time>2026-07-07T13:32:19.000Z</time>
      </trkpt>
      <trkpt lat="47.73772" lon="16.2385">
        <ele>334.167964</ele>
        <time>2026-07-07T13:32:20.000Z</time>
      </trkpt>
      <trkpt lat="47.73768" lon="16.23847">
        <ele>334.197132</ele>
        <time>2026-07-07T13:32:21.000Z</time>
      </trkpt>
      <trkpt lat="47.73763" lon="16.23845">
        <ele>334.22565</ele>
        <time>2026-07-07T13:32:22.000Z</time>
      </trkpt>
      <trkpt lat="47.73759" lon="16.23843">
        <ele>334.254168</ele>
        <time>2026-07-07T13:32:23.000Z</time>
      </trkpt>
      <trkpt lat="47.73754" lon="16.2384">
        <ele>334.283069</ele>
        <time>2026-07-07T13:32:24.000Z</time>
      </trkpt>
      <trkpt lat="47.7375" lon="16.23837">
        <ele>334.310997</ele>
        <time>2026-07-07T13:32:25.000Z</time>
      </trkpt>
      <trkpt lat="47.73747" lon="16.23834">
        <ele>334.336987</ele>
        <time>2026-07-07T13:32:26.000Z</time>
      </trkpt>
      <trkpt lat="47.73743" lon="16.2383">
        <ele>334.362082</ele>
        <time>2026-07-07T13:32:27.000Z</time>
      </trkpt>
      <trkpt lat="47.7374" lon="16.23826">
        <ele>334.387532</ele>
        <time>2026-07-07T13:32:28.000Z</time>
      </trkpt>
      <trkpt lat="47.73737" lon="16.23821">
        <ele>334.4152</ele>
        <time>2026-07-07T13:32:29.000Z</time>
      </trkpt>
      <trkpt lat="47.73735" lon="16.23815">
        <ele>334.44345</ele>
        <time>2026-07-07T13:32:30.000Z</time>
      </trkpt>
      <trkpt lat="47.73732" lon="16.23809">
        <ele>334.467967</ele>
        <time>2026-07-07T13:32:31.000Z</time>
      </trkpt>
      <trkpt lat="47.73729" lon="16.23804">
        <ele>334.492338</ele>
        <time>2026-07-07T13:32:32.000Z</time>
      </trkpt>
      <trkpt lat="47.73726" lon="16.23798">
        <ele>334.516526</ele>
        <time>2026-07-07T13:32:33.000Z</time>
      </trkpt>
      <trkpt lat="47.73722" lon="16.23793">
        <ele>334.542241</ele>
        <time>2026-07-07T13:32:34.000Z</time>
      </trkpt>
      <trkpt lat="47.73719" lon="16.23787">
        <ele>334.567956</ele>
        <time>2026-07-07T13:32:35.000Z</time>
      </trkpt>
      <trkpt lat="47.73715" lon="16.23782">
        <ele>334.593498</ele>
        <time>2026-07-07T13:32:36.000Z</time>
      </trkpt>
      <trkpt lat="47.73712" lon="16.23776">
        <ele>334.61971</ele>
        <time>2026-07-07T13:32:37.000Z</time>
      </trkpt>
      <trkpt lat="47.73708" lon="16.2377">
        <ele>334.646129</ele>
        <time>2026-07-07T13:32:38.000Z</time>
      </trkpt>
      <trkpt lat="47.73704" lon="16.23765">
        <ele>334.672789</ele>
        <time>2026-07-07T13:32:39.000Z</time>
      </trkpt>
      <trkpt lat="47.73701" lon="16.23759">
        <ele>334.699763</ele>
        <time>2026-07-07T13:32:40.000Z</time>
      </trkpt>
      <trkpt lat="47.73698" lon="16.23752">
        <ele>334.726032</ele>
        <time>2026-07-07T13:32:41.000Z</time>
      </trkpt>
      <trkpt lat="47.73697" lon="16.23745">
        <ele>334.751955</ele>
        <time>2026-07-07T13:32:42.000Z</time>
      </trkpt>
      <trkpt lat="47.73696" lon="16.23737">
        <ele>334.779241</ele>
        <time>2026-07-07T13:32:43.000Z</time>
      </trkpt>
      <trkpt lat="47.73696" lon="16.23729">
        <ele>334.806146</ele>
        <time>2026-07-07T13:32:44.000Z</time>
      </trkpt>
      <trkpt lat="47.73696" lon="16.23721">
        <ele>334.831961</ele>
        <time>2026-07-07T13:32:45.000Z</time>
      </trkpt>
      <trkpt lat="47.73696" lon="16.23714">
        <ele>334.858155</ele>
        <time>2026-07-07T13:32:46.000Z</time>
      </trkpt>
      <trkpt lat="47.73696" lon="16.23706">
        <ele>334.883645</ele>
        <time>2026-07-07T13:32:47.000Z</time>
      </trkpt>
      <trkpt lat="47.73696" lon="16.23699">
        <ele>334.909196</ele>
        <time>2026-07-07T13:32:48.000Z</time>
      </trkpt>
      <trkpt lat="47.73695" lon="16.23691">
        <ele>334.935162</ele>
        <time>2026-07-07T13:32:49.000Z</time>
      </trkpt>
      <trkpt lat="47.73693" lon="16.23684">
        <ele>334.961249</ele>
        <time>2026-07-07T13:32:50.000Z</time>
      </trkpt>
      <trkpt lat="47.73691" lon="16.23677">
        <ele>334.988165</ele>
        <time>2026-07-07T13:32:51.000Z</time>
      </trkpt>
      <trkpt lat="47.73688" lon="16.2367">
        <ele>335.014484</ele>
        <time>2026-07-07T13:32:52.000Z</time>
      </trkpt>
      <trkpt lat="47.73685" lon="16.23663">
        <ele>335.041889</ele>
        <time>2026-07-07T13:32:53.000Z</time>
      </trkpt>
      <trkpt lat="47.73683" lon="16.23656">
        <ele>335.068678</ele>
        <time>2026-07-07T13:32:54.000Z</time>
      </trkpt>
      <trkpt lat="47.7368" lon="16.2365">
        <ele>335.095179</ele>
        <time>2026-07-07T13:32:55.000Z</time>
      </trkpt>
      <trkpt lat="47.73677" lon="16.23643">
        <ele>335.121124</ele>
        <time>2026-07-07T13:32:56.000Z</time>
      </trkpt>
      <trkpt lat="47.73674" lon="16.23637">
        <ele>335.147618</ele>
        <time>2026-07-07T13:32:57.000Z</time>
      </trkpt>
      <trkpt lat="47.73671" lon="16.23631">
        <ele>335.173833</ele>
        <time>2026-07-07T13:32:58.000Z</time>
      </trkpt>
      <trkpt lat="47.73668" lon="16.23624">
        <ele>335.200049</ele>
        <time>2026-07-07T13:32:59.000Z</time>
      </trkpt>
      <trkpt lat="47.73665" lon="16.23618">
        <ele>335.226542</ele>
        <time>2026-07-07T13:33:00.000Z</time>
      </trkpt>
      <trkpt lat="47.73662" lon="16.23612">
        <ele>335.252548</ele>
        <time>2026-07-07T13:33:01.000Z</time>
      </trkpt>
      <trkpt lat="47.73659" lon="16.23606">
        <ele>335.278871</ele>
        <time>2026-07-07T13:33:02.000Z</time>
      </trkpt>
      <trkpt lat="47.73655" lon="16.236">
        <ele>335.304877</ele>
        <time>2026-07-07T13:33:03.000Z</time>
      </trkpt>
      <trkpt lat="47.73652" lon="16.23594">
        <ele>335.330163</ele>
        <time>2026-07-07T13:33:04.000Z</time>
      </trkpt>
      <trkpt lat="47.73649" lon="16.23588">
        <ele>335.352036</ele>
        <time>2026-07-07T13:33:05.000Z</time>
      </trkpt>
      <trkpt lat="47.73646" lon="16.23582">
        <ele>335.362841</ele>
        <time>2026-07-07T13:33:06.000Z</time>
      </trkpt>
      <trkpt lat="47.73642" lon="16.23576">
        <ele>335.373646</ele>
        <time>2026-07-07T13:33:07.000Z</time>
      </trkpt>
      <trkpt lat="47.73639" lon="16.2357">
        <ele>335.384323</ele>
        <time>2026-07-07T13:33:08.000Z</time>
      </trkpt>
      <trkpt lat="47.73636" lon="16.23564">
        <ele>335.395128</ele>
        <time>2026-07-07T13:33:09.000Z</time>
      </trkpt>
      <trkpt lat="47.73633" lon="16.23558">
        <ele>335.406156</ele>
        <time>2026-07-07T13:33:10.000Z</time>
      </trkpt>
      <trkpt lat="47.7363" lon="16.23552">
        <ele>335.41728</ele>
        <time>2026-07-07T13:33:11.000Z</time>
      </trkpt>
      <trkpt lat="47.73627" lon="16.23545">
        <ele>335.428172</ele>
        <time>2026-07-07T13:33:12.000Z</time>
      </trkpt>
      <trkpt lat="47.73624" lon="16.23539">
        <ele>335.439301</ele>
        <time>2026-07-07T13:33:13.000Z</time>
      </trkpt>
      <trkpt lat="47.73621" lon="16.23533">
        <ele>335.450073</ele>
        <time>2026-07-07T13:33:14.000Z</time>
      </trkpt>
      <trkpt lat="47.73618" lon="16.23526">
        <ele>335.461197</ele>
        <time>2026-07-07T13:33:15.000Z</time>
      </trkpt>
      <trkpt lat="47.73615" lon="16.2352">
        <ele>335.471853</ele>
        <time>2026-07-07T13:33:16.000Z</time>
      </trkpt>
      <trkpt lat="47.73612" lon="16.23513">
        <ele>335.482745</ele>
        <time>2026-07-07T13:33:17.000Z</time>
      </trkpt>
      <trkpt lat="47.73609" lon="16.23507">
        <ele>335.493869</ele>
        <time>2026-07-07T13:33:18.000Z</time>
      </trkpt>
      <trkpt lat="47.73606" lon="16.235">
        <ele>335.505111</ele>
        <time>2026-07-07T13:33:19.000Z</time>
      </trkpt>
      <trkpt lat="47.73603" lon="16.23494">
        <ele>335.516235</ele>
        <time>2026-07-07T13:33:20.000Z</time>
      </trkpt>
      <trkpt lat="47.736" lon="16.23487">
        <ele>335.527503</ele>
        <time>2026-07-07T13:33:21.000Z</time>
      </trkpt>
      <trkpt lat="47.73597" lon="16.23481">
        <ele>335.538925</ele>
        <time>2026-07-07T13:33:22.000Z</time>
      </trkpt>
      <trkpt lat="47.73593" lon="16.23475">
        <ele>335.550103</ele>
        <time>2026-07-07T13:33:23.000Z</time>
      </trkpt>
      <trkpt lat="47.73589" lon="16.2347">
        <ele>335.56123</ele>
        <time>2026-07-07T13:33:24.000Z</time>
      </trkpt>
      <trkpt lat="47.73585" lon="16.23465">
        <ele>335.572518</ele>
        <time>2026-07-07T13:33:25.000Z</time>
      </trkpt>
      <trkpt lat="47.73581" lon="16.2346">
        <ele>335.583466</ele>
        <time>2026-07-07T13:33:26.000Z</time>
      </trkpt>
      <trkpt lat="47.73577" lon="16.23455">
        <ele>335.594755</ele>
        <time>2026-07-07T13:33:27.000Z</time>
      </trkpt>
      <trkpt lat="47.73572" lon="16.2345">
        <ele>335.606043</ele>
        <time>2026-07-07T13:33:28.000Z</time>
      </trkpt>
      <trkpt lat="47.73568" lon="16.23445">
        <ele>335.617007</ele>
        <time>2026-07-07T13:33:29.000Z</time>
      </trkpt>
      <trkpt lat="47.73564" lon="16.2344">
        <ele>335.628248</ele>
        <time>2026-07-07T13:33:30.000Z</time>
      </trkpt>
      <trkpt lat="47.7356" lon="16.23435">
        <ele>335.639374</ele>
        <time>2026-07-07T13:33:31.000Z</time>
      </trkpt>
      <trkpt lat="47.73556" lon="16.2343">
        <ele>335.650908</ele>
        <time>2026-07-07T13:33:32.000Z</time>
      </trkpt>
      <trkpt lat="47.73552" lon="16.23425">
        <ele>335.662033</ele>
        <time>2026-07-07T13:33:33.000Z</time>
      </trkpt>
      <trkpt lat="47.73548" lon="16.2342">
        <ele>335.672817</ele>
        <time>2026-07-07T13:33:34.000Z</time>
      </trkpt>
      <trkpt lat="47.73544" lon="16.23415">
        <ele>335.683846</ele>
        <time>2026-07-07T13:33:35.000Z</time>
      </trkpt>
      <trkpt lat="47.7354" lon="16.23411">
        <ele>335.694202</ele>
        <time>2026-07-07T13:33:36.000Z</time>
      </trkpt>
      <trkpt lat="47.73536" lon="16.23407">
        <ele>335.704558</ele>
        <time>2026-07-07T13:33:37.000Z</time>
      </trkpt>
      <trkpt lat="47.73532" lon="16.23402">
        <ele>335.714453</ele>
        <time>2026-07-07T13:33:38.000Z</time>
      </trkpt>
      <trkpt lat="47.73528" lon="16.23397">
        <ele>335.724915</ele>
        <time>2026-07-07T13:33:39.000Z</time>
      </trkpt>
      <trkpt lat="47.73524" lon="16.23392">
        <ele>335.736356</ele>
        <time>2026-07-07T13:33:40.000Z</time>
      </trkpt>
      <trkpt lat="47.73521" lon="16.23387">
        <ele>335.747829</ele>
        <time>2026-07-07T13:33:41.000Z</time>
      </trkpt>
      <trkpt lat="47.73517" lon="16.23382">
        <ele>335.759446</ele>
        <time>2026-07-07T13:33:42.000Z</time>
      </trkpt>
      <trkpt lat="47.73513" lon="16.23376">
        <ele>335.771651</ele>
        <time>2026-07-07T13:33:43.000Z</time>
      </trkpt>
      <trkpt lat="47.7351" lon="16.23371">
        <ele>335.7835</ele>
        <time>2026-07-07T13:33:44.000Z</time>
      </trkpt>
      <trkpt lat="47.73506" lon="16.23364">
        <ele>335.795524</ele>
        <time>2026-07-07T13:33:45.000Z</time>
      </trkpt>
      <trkpt lat="47.73503" lon="16.23358">
        <ele>335.807288</ele>
        <time>2026-07-07T13:33:46.000Z</time>
      </trkpt>
      <trkpt lat="47.735" lon="16.23352">
        <ele>335.819151</ele>
        <time>2026-07-07T13:33:47.000Z</time>
      </trkpt>
      <trkpt lat="47.73497" lon="16.23346">
        <ele>335.831157</ele>
        <time>2026-07-07T13:33:48.000Z</time>
      </trkpt>
      <trkpt lat="47.73494" lon="16.2334">
        <ele>335.842662</ele>
        <time>2026-07-07T13:33:49.000Z</time>
      </trkpt>
      <trkpt lat="47.7349" lon="16.23334">
        <ele>335.854362</ele>
        <time>2026-07-07T13:33:50.000Z</time>
      </trkpt>
      <trkpt lat="47.73487" lon="16.23328">
        <ele>335.866326</ele>
        <time>2026-07-07T13:33:51.000Z</time>
      </trkpt>
      <trkpt lat="47.73483" lon="16.23322">
        <ele>335.878176</ele>
        <time>2026-07-07T13:33:52.000Z</time>
      </trkpt>
      <trkpt lat="47.7348" lon="16.23316">
        <ele>335.890178</ele>
        <time>2026-07-07T13:33:53.000Z</time>
      </trkpt>
      <trkpt lat="47.73476" lon="16.2331">
        <ele>335.902758</ele>
        <time>2026-07-07T13:33:54.000Z</time>
      </trkpt>
      <trkpt lat="47.73472" lon="16.23305">
        <ele>335.91518</ele>
        <time>2026-07-07T13:33:55.000Z</time>
      </trkpt>
      <trkpt lat="47.73468" lon="16.23299">
        <ele>335.927499</ele>
        <time>2026-07-07T13:33:56.000Z</time>
      </trkpt>
      <trkpt lat="47.73464" lon="16.23294">
        <ele>335.94019</ele>
        <time>2026-07-07T13:33:57.000Z</time>
      </trkpt>
      <trkpt lat="47.7346" lon="16.23288">
        <ele>335.952718</ele>
        <time>2026-07-07T13:33:58.000Z</time>
      </trkpt>
      <trkpt lat="47.73456" lon="16.23282">
        <ele>335.965372</ele>
        <time>2026-07-07T13:33:59.000Z</time>
      </trkpt>
      <trkpt lat="47.73452" lon="16.23277">
        <ele>335.977286</ele>
        <time>2026-07-07T13:34:00.000Z</time>
      </trkpt>
      <trkpt lat="47.73447" lon="16.23272">
        <ele>335.989841</ele>
        <time>2026-07-07T13:34:01.000Z</time>
      </trkpt>
      <trkpt lat="47.73444" lon="16.23266">
        <ele>336.001831</ele>
        <time>2026-07-07T13:34:02.000Z</time>
      </trkpt>
      <trkpt lat="47.7344" lon="16.23261">
        <ele>336.013822</ele>
        <time>2026-07-07T13:34:03.000Z</time>
      </trkpt>
      <trkpt lat="47.73436" lon="16.23255">
        <ele>336.026455</ele>
        <time>2026-07-07T13:34:04.000Z</time>
      </trkpt>
      <trkpt lat="47.73432" lon="16.23249">
        <ele>336.038982</ele>
        <time>2026-07-07T13:34:05.000Z</time>
      </trkpt>
      <trkpt lat="47.73427" lon="16.23244">
        <ele>336.051979</ele>
        <time>2026-07-07T13:34:06.000Z</time>
      </trkpt>
      <trkpt lat="47.73423" lon="16.23238">
        <ele>336.064775</ele>
        <time>2026-07-07T13:34:07.000Z</time>
      </trkpt>
      <trkpt lat="47.73419" lon="16.23232">
        <ele>336.077736</ele>
        <time>2026-07-07T13:34:08.000Z</time>
      </trkpt>
      <trkpt lat="47.73415" lon="16.23227">
        <ele>336.090055</ele>
        <time>2026-07-07T13:34:09.000Z</time>
      </trkpt>
      <trkpt lat="47.73411" lon="16.23221">
        <ele>336.102373</ele>
        <time>2026-07-07T13:34:10.000Z</time>
      </trkpt>
      <trkpt lat="47.73407" lon="16.23216">
        <ele>336.114096</ele>
        <time>2026-07-07T13:34:11.000Z</time>
      </trkpt>
      <trkpt lat="47.73404" lon="16.23211">
        <ele>336.125177</ele>
        <time>2026-07-07T13:34:12.000Z</time>
      </trkpt>
      <trkpt lat="47.734" lon="16.23206">
        <ele>336.140265</ele>
        <time>2026-07-07T13:34:13.000Z</time>
      </trkpt>
      <trkpt lat="47.73397" lon="16.23201">
        <ele>336.164063</ele>
        <time>2026-07-07T13:34:14.000Z</time>
      </trkpt>
      <trkpt lat="47.73394" lon="16.23197">
        <ele>336.187566</ele>
        <time>2026-07-07T13:34:15.000Z</time>
      </trkpt>
      <trkpt lat="47.7339" lon="16.23191">
        <ele>336.212298</ele>
        <time>2026-07-07T13:34:16.000Z</time>
      </trkpt>
      <trkpt lat="47.73387" lon="16.23186">
        <ele>336.23849</ele>
        <time>2026-07-07T13:34:17.000Z</time>
      </trkpt>
      <trkpt lat="47.73383" lon="16.23181">
        <ele>336.264183</ele>
        <time>2026-07-07T13:34:18.000Z</time>
      </trkpt>
      <trkpt lat="47.7338" lon="16.23176">
        <ele>336.289899</ele>
        <time>2026-07-07T13:34:19.000Z</time>
      </trkpt>
      <trkpt lat="47.73375" lon="16.23171">
        <ele>336.317226</ele>
        <time>2026-07-07T13:34:20.000Z</time>
      </trkpt>
      <trkpt lat="47.7337" lon="16.23169">
        <ele>336.344144</ele>
        <time>2026-07-07T13:34:21.000Z</time>
      </trkpt>
      <trkpt lat="47.73365" lon="16.23169">
        <ele>336.371423</ele>
        <time>2026-07-07T13:34:22.000Z</time>
      </trkpt>
      <trkpt lat="47.73359" lon="16.2317">
        <ele>336.399677</ele>
        <time>2026-07-07T13:34:23.000Z</time>
      </trkpt>
      <trkpt lat="47.73354" lon="16.23173">
        <ele>336.428381</ele>
        <time>2026-07-07T13:34:24.000Z</time>
      </trkpt>
      <trkpt lat="47.73349" lon="16.23176">
        <ele>336.457326</ele>
        <time>2026-07-07T13:34:25.000Z</time>
      </trkpt>
      <trkpt lat="47.73344" lon="16.23179">
        <ele>336.485933</ele>
        <time>2026-07-07T13:34:26.000Z</time>
      </trkpt>
      <trkpt lat="47.73338" lon="16.23182">
        <ele>336.515582</ele>
        <time>2026-07-07T13:34:27.000Z</time>
      </trkpt>
      <trkpt lat="47.73333" lon="16.23185">
        <ele>336.54475</ele>
        <time>2026-07-07T13:34:28.000Z</time>
      </trkpt>
      <trkpt lat="47.73328" lon="16.23189">
        <ele>336.57417</ele>
        <time>2026-07-07T13:34:29.000Z</time>
      </trkpt>
      <trkpt lat="47.73322" lon="16.23192">
        <ele>336.603819</ele>
        <time>2026-07-07T13:34:30.000Z</time>
      </trkpt>
      <trkpt lat="47.73317" lon="16.23195">
        <ele>336.63324</ele>
        <time>2026-07-07T13:34:31.000Z</time>
      </trkpt>
      <trkpt lat="47.73312" lon="16.23198">
        <ele>336.662319</ele>
        <time>2026-07-07T13:34:32.000Z</time>
      </trkpt>
      <trkpt lat="47.73307" lon="16.23201">
        <ele>336.691248</ele>
        <time>2026-07-07T13:34:33.000Z</time>
      </trkpt>
      <trkpt lat="47.73301" lon="16.23204">
        <ele>336.719577</ele>
        <time>2026-07-07T13:34:34.000Z</time>
      </trkpt>
      <trkpt lat="47.73296" lon="16.23206">
        <ele>336.747973</ele>
        <time>2026-07-07T13:34:35.000Z</time>
      </trkpt>
      <trkpt lat="47.73291" lon="16.23208">
        <ele>336.777454</ele>
        <time>2026-07-07T13:34:36.000Z</time>
      </trkpt>
      <trkpt lat="47.73285" lon="16.2321">
        <ele>336.80666</ele>
        <time>2026-07-07T13:34:37.000Z</time>
      </trkpt>
      <trkpt lat="47.7328" lon="16.23213">
        <ele>336.834961</ele>
        <time>2026-07-07T13:34:38.000Z</time>
      </trkpt>
      <trkpt lat="47.73274" lon="16.23215">
        <ele>336.864082</ele>
        <time>2026-07-07T13:34:39.000Z</time>
      </trkpt>
      <trkpt lat="47.73269" lon="16.23216">
        <ele>336.894053</ele>
        <time>2026-07-07T13:34:40.000Z</time>
      </trkpt>
      <trkpt lat="47.73263" lon="16.23218">
        <ele>336.922176</ele>
        <time>2026-07-07T13:34:41.000Z</time>
      </trkpt>
      <trkpt lat="47.73258" lon="16.2322">
        <ele>336.951068</ele>
        <time>2026-07-07T13:34:42.000Z</time>
      </trkpt>
      <trkpt lat="47.73252" lon="16.23222">
        <ele>336.980033</ele>
        <time>2026-07-07T13:34:43.000Z</time>
      </trkpt>
      <trkpt lat="47.73247" lon="16.23224">
        <ele>337.008831</ele>
        <time>2026-07-07T13:34:44.000Z</time>
      </trkpt>
      <trkpt lat="47.73241" lon="16.23226">
        <ele>337.037952</ele>
        <time>2026-07-07T13:34:45.000Z</time>
      </trkpt>
      <trkpt lat="47.73236" lon="16.23228">
        <ele>337.07615</ele>
        <time>2026-07-07T13:34:46.000Z</time>
      </trkpt>
      <trkpt lat="47.73231" lon="16.2323">
        <ele>337.141269</ele>
        <time>2026-07-07T13:34:47.000Z</time>
      </trkpt>
      <trkpt lat="47.73225" lon="16.23232">
        <ele>337.206741</ele>
        <time>2026-07-07T13:34:48.000Z</time>
      </trkpt>
      <trkpt lat="47.73219" lon="16.23234">
        <ele>337.274835</ele>
        <time>2026-07-07T13:34:49.000Z</time>
      </trkpt>
      <trkpt lat="47.73214" lon="16.23236">
        <ele>337.340693</ele>
        <time>2026-07-07T13:34:50.000Z</time>
      </trkpt>
      <trkpt lat="47.73208" lon="16.23238">
        <ele>337.406164</ele>
        <time>2026-07-07T13:34:51.000Z</time>
      </trkpt>
      <trkpt lat="47.73203" lon="16.2324">
        <ele>337.469392</ele>
        <time>2026-07-07T13:34:52.000Z</time>
      </trkpt>
      <trkpt lat="47.73198" lon="16.23242">
        <ele>337.531698</ele>
        <time>2026-07-07T13:34:53.000Z</time>
      </trkpt>
      <trkpt lat="47.73193" lon="16.23244">
        <ele>337.591372</ele>
        <time>2026-07-07T13:34:54.000Z</time>
      </trkpt>
      <trkpt lat="47.73188" lon="16.23246">
        <ele>337.650511</ele>
        <time>2026-07-07T13:34:55.000Z</time>
      </trkpt>
      <trkpt lat="47.73183" lon="16.23248">
        <ele>337.707567</ele>
        <time>2026-07-07T13:34:56.000Z</time>
      </trkpt>
      <trkpt lat="47.73178" lon="16.23249">
        <ele>337.763687</ele>
        <time>2026-07-07T13:34:57.000Z</time>
      </trkpt>
      <trkpt lat="47.73174" lon="16.23251">
        <ele>337.817779</ele>
        <time>2026-07-07T13:34:58.000Z</time>
      </trkpt>
      <trkpt lat="47.7317" lon="16.23253">
        <ele>337.867211</ele>
        <time>2026-07-07T13:34:59.000Z</time>
      </trkpt>
      <trkpt lat="47.73166" lon="16.23255">
        <ele>337.916009</ele>
        <time>2026-07-07T13:35:00.000Z</time>
      </trkpt>
      <trkpt lat="47.73162" lon="16.23257">
        <ele>337.964333</ele>
        <time>2026-07-07T13:35:01.000Z</time>
      </trkpt>
      <trkpt lat="47.73158" lon="16.23257">
        <ele>338.009429</ele>
        <time>2026-07-07T13:35:02.000Z</time>
      </trkpt>
      <trkpt lat="47.73155" lon="16.23254">
        <ele>338.050387</ele>
        <time>2026-07-07T13:35:03.000Z</time>
      </trkpt>
      <trkpt lat="47.73153" lon="16.23249">
        <ele>338.098228</ele>
        <time>2026-07-07T13:35:04.000Z</time>
      </trkpt>
      <trkpt lat="47.73151" lon="16.23243">
        <ele>338.149472</ele>
        <time>2026-07-07T13:35:05.000Z</time>
      </trkpt>
      <trkpt lat="47.7315" lon="16.23236">
        <ele>338.20478</ele>
        <time>2026-07-07T13:35:06.000Z</time>
      </trkpt>
      <trkpt lat="47.73149" lon="16.23229">
        <ele>338.259014</ele>
        <time>2026-07-07T13:35:07.000Z</time>
      </trkpt>
      <trkpt lat="47.73147" lon="16.23222">
        <ele>338.315492</ele>
        <time>2026-07-07T13:35:08.000Z</time>
      </trkpt>
      <trkpt lat="47.73146" lon="16.23215">
        <ele>338.37115</ele>
        <time>2026-07-07T13:35:09.000Z</time>
      </trkpt>
      <trkpt lat="47.73144" lon="16.23208">
        <ele>338.427203</ele>
        <time>2026-07-07T13:35:10.000Z</time>
      </trkpt>
      <trkpt lat="47.73143" lon="16.23201">
        <ele>338.483681</ele>
        <time>2026-07-07T13:35:11.000Z</time>
      </trkpt>
      <trkpt lat="47.73142" lon="16.23194">
        <ele>338.54091</ele>
        <time>2026-07-07T13:35:12.000Z</time>
      </trkpt>
      <trkpt lat="47.7314" lon="16.23187">
        <ele>338.599201</ele>
        <time>2026-07-07T13:35:13.000Z</time>
      </trkpt>
      <trkpt lat="47.73139" lon="16.2318">
        <ele>338.657383</ele>
        <time>2026-07-07T13:35:14.000Z</time>
      </trkpt>
      <trkpt lat="47.73138" lon="16.23172">
        <ele>338.717492</ele>
        <time>2026-07-07T13:35:15.000Z</time>
      </trkpt>
      <trkpt lat="47.73136" lon="16.23165">
        <ele>338.77429</ele>
        <time>2026-07-07T13:35:16.000Z</time>
      </trkpt>
      <trkpt lat="47.73135" lon="16.23158">
        <ele>338.831519</ele>
        <time>2026-07-07T13:35:17.000Z</time>
      </trkpt>
      <trkpt lat="47.73134" lon="16.23151">
        <ele>338.889499</ele>
        <time>2026-07-07T13:35:18.000Z</time>
      </trkpt>
      <trkpt lat="47.73133" lon="16.23144">
        <ele>338.947945</ele>
        <time>2026-07-07T13:35:19.000Z</time>
      </trkpt>
      <trkpt lat="47.73132" lon="16.23136">
        <ele>339.006648</ele>
        <time>2026-07-07T13:35:20.000Z</time>
      </trkpt>
      <trkpt lat="47.7313" lon="16.23129">
        <ele>339.065094</ele>
        <time>2026-07-07T13:35:21.000Z</time>
      </trkpt>
      <trkpt lat="47.73129" lon="16.23122">
        <ele>339.121573</ele>
        <time>2026-07-07T13:35:22.000Z</time>
      </trkpt>
      <trkpt lat="47.73128" lon="16.23115">
        <ele>339.151998</ele>
        <time>2026-07-07T13:35:23.000Z</time>
      </trkpt>
      <trkpt lat="47.73127" lon="16.23108">
        <ele>339.171031</ele>
        <time>2026-07-07T13:35:24.000Z</time>
      </trkpt>
      <trkpt lat="47.73125" lon="16.23102">
        <ele>339.189534</ele>
        <time>2026-07-07T13:35:25.000Z</time>
      </trkpt>
      <trkpt lat="47.73124" lon="16.23096">
        <ele>339.20544</ele>
        <time>2026-07-07T13:35:26.000Z</time>
      </trkpt>
      <trkpt lat="47.73123" lon="16.23091">
        <ele>339.220286</ele>
        <time>2026-07-07T13:35:27.000Z</time>
      </trkpt>
      <trkpt lat="47.73123" lon="16.23087">
        <ele>339.231002</ele>
        <time>2026-07-07T13:35:28.000Z</time>
      </trkpt>
      <trkpt lat="47.73122" lon="16.23084">
        <ele>339.239719</ele>
        <time>2026-07-07T13:35:29.000Z</time>
      </trkpt>
      <trkpt lat="47.73121" lon="16.23082">
        <ele>339.248915</ele>
        <time>2026-07-07T13:35:30.000Z</time>
      </trkpt>
      <trkpt lat="47.73118" lon="16.2308">
        <ele>339.260586</ele>
        <time>2026-07-07T13:35:31.000Z</time>
      </trkpt>
      <trkpt lat="47.73115" lon="16.2308">
        <ele>339.273265</ele>
        <time>2026-07-07T13:35:32.000Z</time>
      </trkpt>
      <trkpt lat="47.73111" lon="16.2308">
        <ele>339.289191</ele>
        <time>2026-07-07T13:35:33.000Z</time>
      </trkpt>
      <trkpt lat="47.73107" lon="16.2308">
        <ele>339.303887</ele>
        <time>2026-07-07T13:35:34.000Z</time>
      </trkpt>
      <trkpt lat="47.73104" lon="16.23079">
        <ele>339.3183</ele>
        <time>2026-07-07T13:35:35.000Z</time>
      </trkpt>
      <trkpt lat="47.731" lon="16.23078">
        <ele>339.332562</ele>
        <time>2026-07-07T13:35:36.000Z</time>
      </trkpt>
      <trkpt lat="47.73098" lon="16.23077">
        <ele>339.344315</ele>
        <time>2026-07-07T13:35:37.000Z</time>
      </trkpt>
      <trkpt lat="47.73095" lon="16.23076">
        <ele>339.355551</ele>
        <time>2026-07-07T13:35:38.000Z</time>
      </trkpt>
      <trkpt lat="47.73092" lon="16.23075">
        <ele>339.367188</ele>
        <time>2026-07-07T13:35:39.000Z</time>
      </trkpt>
      <trkpt lat="47.73089" lon="16.23074">
        <ele>339.380882</ele>
        <time>2026-07-07T13:35:40.000Z</time>
      </trkpt>
      <trkpt lat="47.73086" lon="16.23072">
        <ele>339.394367</ele>
        <time>2026-07-07T13:35:41.000Z</time>
      </trkpt>
      <trkpt lat="47.73082" lon="16.2307">
        <ele>339.409671</ele>
        <time>2026-07-07T13:35:42.000Z</time>
      </trkpt>
      <trkpt lat="47.73079" lon="16.23067">
        <ele>339.425534</ele>
        <time>2026-07-07T13:35:43.000Z</time>
      </trkpt>
      <trkpt lat="47.73076" lon="16.23064">
        <ele>339.44063</ele>
        <time>2026-07-07T13:35:44.000Z</time>
      </trkpt>
      <trkpt lat="47.73072" lon="16.23061">
        <ele>339.456628</ele>
        <time>2026-07-07T13:35:45.000Z</time>
      </trkpt>
      <trkpt lat="47.73069" lon="16.23059">
        <ele>339.471745</ele>
        <time>2026-07-07T13:35:46.000Z</time>
      </trkpt>
      <trkpt lat="47.73065" lon="16.23056">
        <ele>339.488332</ele>
        <time>2026-07-07T13:35:47.000Z</time>
      </trkpt>
      <trkpt lat="47.73062" lon="16.23054">
        <ele>339.50418</ele>
        <time>2026-07-07T13:35:48.000Z</time>
      </trkpt>
      <trkpt lat="47.73059" lon="16.23051">
        <ele>339.519741</ele>
        <time>2026-07-07T13:35:49.000Z</time>
      </trkpt>
      <trkpt lat="47.73056" lon="16.23046">
        <ele>339.536843</ele>
        <time>2026-07-07T13:35:50.000Z</time>
      </trkpt>
      <trkpt lat="47.73055" lon="16.2304">
        <ele>339.554716</ele>
        <time>2026-07-07T13:35:51.000Z</time>
      </trkpt>
      <trkpt lat="47.73053" lon="16.23033">
        <ele>339.573332</ele>
        <time>2026-07-07T13:35:52.000Z</time>
      </trkpt>
      <trkpt lat="47.73052" lon="16.23026">
        <ele>339.592854</ele>
        <time>2026-07-07T13:35:53.000Z</time>
      </trkpt>
      <trkpt lat="47.73051" lon="16.23019">
        <ele>339.612588</ele>
        <time>2026-07-07T13:35:54.000Z</time>
      </trkpt>
      <trkpt lat="47.7305" lon="16.23013">
        <ele>339.631621</ele>
        <time>2026-07-07T13:35:55.000Z</time>
      </trkpt>
      <trkpt lat="47.73048" lon="16.23006">
        <ele>339.650655</ele>
        <time>2026-07-07T13:35:56.000Z</time>
      </trkpt>
      <trkpt lat="47.73047" lon="16.22999">
        <ele>339.669271</ele>
        <time>2026-07-07T13:35:57.000Z</time>
      </trkpt>
      <trkpt lat="47.73046" lon="16.22993">
        <ele>339.688039</ele>
        <time>2026-07-07T13:35:58.000Z</time>
      </trkpt>
      <trkpt lat="47.73045" lon="16.22986">
        <ele>339.707684</ele>
        <time>2026-07-07T13:35:59.000Z</time>
      </trkpt>
      <trkpt lat="47.73044" lon="16.22978">
        <ele>339.728489</ele>
        <time>2026-07-07T13:36:00.000Z</time>
      </trkpt>
      <trkpt lat="47.73043" lon="16.22971">
        <ele>339.749652</ele>
        <time>2026-07-07T13:36:01.000Z</time>
      </trkpt>
      <trkpt lat="47.73041" lon="16.22963">
        <ele>339.771395</ele>
        <time>2026-07-07T13:36:02.000Z</time>
      </trkpt>
      <trkpt lat="47.7304" lon="16.22956">
        <ele>339.793093</ele>
        <time>2026-07-07T13:36:03.000Z</time>
      </trkpt>
      <trkpt lat="47.73039" lon="16.22948">
        <ele>339.813823</ele>
        <time>2026-07-07T13:36:04.000Z</time>
      </trkpt>
      <trkpt lat="47.73038" lon="16.22941">
        <ele>339.834006</ele>
        <time>2026-07-07T13:36:05.000Z</time>
      </trkpt>
      <trkpt lat="47.73036" lon="16.22934">
        <ele>339.853836</ele>
        <time>2026-07-07T13:36:06.000Z</time>
      </trkpt>
      <trkpt lat="47.73035" lon="16.22927">
        <ele>339.871988</ele>
        <time>2026-07-07T13:36:07.000Z</time>
      </trkpt>
      <trkpt lat="47.73034" lon="16.2292">
        <ele>339.873472</ele>
        <time>2026-07-07T13:36:08.000Z</time>
      </trkpt>
      <trkpt lat="47.73033" lon="16.22913">
        <ele>339.874929</ele>
        <time>2026-07-07T13:36:09.000Z</time>
      </trkpt>
      <trkpt lat="47.73032" lon="16.22906">
        <ele>339.87636</ele>
        <time>2026-07-07T13:36:10.000Z</time>
      </trkpt>
      <trkpt lat="47.7303" lon="16.22899">
        <ele>339.877813</ele>
        <time>2026-07-07T13:36:11.000Z</time>
      </trkpt>
      <trkpt lat="47.73029" lon="16.22892">
        <ele>339.879276</ele>
        <time>2026-07-07T13:36:12.000Z</time>
      </trkpt>
      <trkpt lat="47.73028" lon="16.22885">
        <ele>339.880707</ele>
        <time>2026-07-07T13:36:13.000Z</time>
      </trkpt>
      <trkpt lat="47.73027" lon="16.22877">
        <ele>339.882203</ele>
        <time>2026-07-07T13:36:14.000Z</time>
      </trkpt>
      <trkpt lat="47.73026" lon="16.2287">
        <ele>339.883679</ele>
        <time>2026-07-07T13:36:15.000Z</time>
      </trkpt>
      <trkpt lat="47.73025" lon="16.22863">
        <ele>339.885149</ele>
        <time>2026-07-07T13:36:16.000Z</time>
      </trkpt>
      <trkpt lat="47.73024" lon="16.22856">
        <ele>339.886606</ele>
        <time>2026-07-07T13:36:17.000Z</time>
      </trkpt>
      <trkpt lat="47.73022" lon="16.22848">
        <ele>339.888121</ele>
        <time>2026-07-07T13:36:18.000Z</time>
      </trkpt>
      <trkpt lat="47.73021" lon="16.22841">
        <ele>339.889571</ele>
        <time>2026-07-07T13:36:19.000Z</time>
      </trkpt>
      <trkpt lat="47.7302" lon="16.22834">
        <ele>339.891086</ele>
        <time>2026-07-07T13:36:20.000Z</time>
      </trkpt>
      <trkpt lat="47.73019" lon="16.22827">
        <ele>339.892589</ele>
        <time>2026-07-07T13:36:21.000Z</time>
      </trkpt>
      <trkpt lat="47.73018" lon="16.22819">
        <ele>339.894066</ele>
        <time>2026-07-07T13:36:22.000Z</time>
      </trkpt>
      <trkpt lat="47.73016" lon="16.22812">
        <ele>339.895562</ele>
        <time>2026-07-07T13:36:23.000Z</time>
      </trkpt>
      <trkpt lat="47.73015" lon="16.22805">
        <ele>339.897025</ele>
        <time>2026-07-07T13:36:24.000Z</time>
      </trkpt>
      <trkpt lat="47.73014" lon="16.22798">
        <ele>339.898417</ele>
        <time>2026-07-07T13:36:25.000Z</time>
      </trkpt>
      <trkpt lat="47.73014" lon="16.22791">
        <ele>339.899778</ele>
        <time>2026-07-07T13:36:26.000Z</time>
      </trkpt>
      <trkpt lat="47.73015" lon="16.22785">
        <ele>339.901055</ele>
        <time>2026-07-07T13:36:27.000Z</time>
      </trkpt>
      <trkpt lat="47.73018" lon="16.22781">
        <ele>339.902292</ele>
        <time>2026-07-07T13:36:28.000Z</time>
      </trkpt>
      <trkpt lat="47.73022" lon="16.22778">
        <ele>339.903673</ele>
        <time>2026-07-07T13:36:29.000Z</time>
      </trkpt>
      <trkpt lat="47.73027" lon="16.22776">
        <ele>339.90512</ele>
        <time>2026-07-07T13:36:30.000Z</time>
      </trkpt>
      <trkpt lat="47.73032" lon="16.22775">
        <ele>339.906547</ele>
        <time>2026-07-07T13:36:31.000Z</time>
      </trkpt>
      <trkpt lat="47.73036" lon="16.22773">
        <ele>339.90792</ele>
        <time>2026-07-07T13:36:32.000Z</time>
      </trkpt>
      <trkpt lat="47.7304" lon="16.22771">
        <ele>339.90915</ele>
        <time>2026-07-07T13:36:33.000Z</time>
      </trkpt>
      <trkpt lat="47.73043" lon="16.22767">
        <ele>339.910194</ele>
        <time>2026-07-07T13:36:34.000Z</time>
      </trkpt>
      <trkpt lat="47.73043" lon="16.22762">
        <ele>339.911161</ele>
        <time>2026-07-07T13:36:35.000Z</time>
      </trkpt>
      <trkpt lat="47.73042" lon="16.22757">
        <ele>339.912214</ele>
        <time>2026-07-07T13:36:36.000Z</time>
      </trkpt>
      <trkpt lat="47.73039" lon="16.22753">
        <ele>339.913323</ele>
        <time>2026-07-07T13:36:37.000Z</time>
      </trkpt>
      <trkpt lat="47.73036" lon="16.22748">
        <ele>339.914564</ele>
        <time>2026-07-07T13:36:38.000Z</time>
      </trkpt>
      <trkpt lat="47.73034" lon="16.22744">
        <ele>339.915828</ele>
        <time>2026-07-07T13:36:39.000Z</time>
      </trkpt>
      <trkpt lat="47.7303" lon="16.22739">
        <ele>339.917202</ele>
        <time>2026-07-07T13:36:40.000Z</time>
      </trkpt>
      <trkpt lat="47.73027" lon="16.22734">
        <ele>339.918596</ele>
        <time>2026-07-07T13:36:41.000Z</time>
      </trkpt>
      <trkpt lat="47.73024" lon="16.22728">
        <ele>339.919999</ele>
        <time>2026-07-07T13:36:42.000Z</time>
      </trkpt>
      <trkpt lat="47.73021" lon="16.22723">
        <ele>339.921408</ele>
        <time>2026-07-07T13:36:43.000Z</time>
      </trkpt>
      <trkpt lat="47.73017" lon="16.22718">
        <ele>339.922802</ele>
        <time>2026-07-07T13:36:44.000Z</time>
      </trkpt>
      <trkpt lat="47.73014" lon="16.22713">
        <ele>339.924245</ele>
        <time>2026-07-07T13:36:45.000Z</time>
      </trkpt>
      <trkpt lat="47.73011" lon="16.22708">
        <ele>339.934364</ele>
        <time>2026-07-07T13:36:46.000Z</time>
      </trkpt>
      <trkpt lat="47.73007" lon="16.22703">
        <ele>339.957619</ele>
        <time>2026-07-07T13:36:47.000Z</time>
      </trkpt>
      <trkpt lat="47.73004" lon="16.22697">
        <ele>339.981202</ele>
        <time>2026-07-07T13:36:48.000Z</time>
      </trkpt>
      <trkpt lat="47.73" lon="16.22692">
        <ele>340.005684</ele>
        <time>2026-07-07T13:36:49.000Z</time>
      </trkpt>
      <trkpt lat="47.72997" lon="16.22686">
        <ele>340.029737</ele>
        <time>2026-07-07T13:36:50.000Z</time>
      </trkpt>
      <trkpt lat="47.72993" lon="16.22681">
        <ele>340.053543</ele>
        <time>2026-07-07T13:36:51.000Z</time>
      </trkpt>
      <trkpt lat="47.7299" lon="16.22676">
        <ele>340.07723</ele>
        <time>2026-07-07T13:36:52.000Z</time>
      </trkpt>
      <trkpt lat="47.72986" lon="16.22671">
        <ele>340.100581</ele>
        <time>2026-07-07T13:36:53.000Z</time>
      </trkpt>
      <trkpt lat="47.72983" lon="16.22666">
        <ele>340.123818</ele>
        <time>2026-07-07T13:36:54.000Z</time>
      </trkpt>
      <trkpt lat="47.72979" lon="16.22661">
        <ele>340.146543</ele>
        <time>2026-07-07T13:36:55.000Z</time>
      </trkpt>
      <trkpt lat="47.72975" lon="16.22657">
        <ele>340.170176</ele>
        <time>2026-07-07T13:36:56.000Z</time>
      </trkpt>
      <trkpt lat="47.72971" lon="16.22652">
        <ele>340.194189</ele>
        <time>2026-07-07T13:36:57.000Z</time>
      </trkpt>
      <trkpt lat="47.72967" lon="16.22647">
        <ele>340.220126</ele>
        <time>2026-07-07T13:36:58.000Z</time>
      </trkpt>
      <trkpt lat="47.72963" lon="16.22642">
        <ele>340.245884</ele>
        <time>2026-07-07T13:36:59.000Z</time>
      </trkpt>
      <trkpt lat="47.72959" lon="16.22637">
        <ele>340.272217</ele>
        <time>2026-07-07T13:37:00.000Z</time>
      </trkpt>
      <trkpt lat="47.72955" lon="16.22632">
        <ele>340.298741</ele>
        <time>2026-07-07T13:37:01.000Z</time>
      </trkpt>
      <trkpt lat="47.72951" lon="16.22625">
        <ele>340.325672</ele>
        <time>2026-07-07T13:37:02.000Z</time>
      </trkpt>
      <trkpt lat="47.72947" lon="16.22619">
        <ele>340.352784</ele>
        <time>2026-07-07T13:37:03.000Z</time>
      </trkpt>
      <trkpt lat="47.72944" lon="16.22612">
        <ele>340.379344</ele>
        <time>2026-07-07T13:37:04.000Z</time>
      </trkpt>
      <trkpt lat="47.7294" lon="16.22606">
        <ele>340.405353</ele>
        <time>2026-07-07T13:37:05.000Z</time>
      </trkpt>
      <trkpt lat="47.72937" lon="16.226">
        <ele>340.431576</ele>
        <time>2026-07-07T13:37:06.000Z</time>
      </trkpt>
      <trkpt lat="47.72934" lon="16.22593">
        <ele>340.457639</ele>
        <time>2026-07-07T13:37:07.000Z</time>
      </trkpt>
      <trkpt lat="47.7293" lon="16.22587">
        <ele>340.483457</ele>
        <time>2026-07-07T13:37:08.000Z</time>
      </trkpt>
      <trkpt lat="47.72927" lon="16.22581">
        <ele>340.509521</ele>
        <time>2026-07-07T13:37:09.000Z</time>
      </trkpt>
      <trkpt lat="47.72923" lon="16.22575">
        <ele>340.535094</ele>
        <time>2026-07-07T13:37:10.000Z</time>
      </trkpt>
      <trkpt lat="47.7292" lon="16.22569">
        <ele>340.559946</ele>
        <time>2026-07-07T13:37:11.000Z</time>
      </trkpt>
      <trkpt lat="47.72916" lon="16.22564">
        <ele>340.584964</ele>
        <time>2026-07-07T13:37:12.000Z</time>
      </trkpt>
      <trkpt lat="47.72911" lon="16.2256">
        <ele>340.609937</ele>
        <time>2026-07-07T13:37:13.000Z</time>
      </trkpt>
      <trkpt lat="47.72907" lon="16.22555">
        <ele>340.635721</ele>
        <time>2026-07-07T13:37:14.000Z</time>
      </trkpt>
      <trkpt lat="47.72902" lon="16.22551">
        <ele>340.660987</ele>
        <time>2026-07-07T13:37:15.000Z</time>
      </trkpt>
      <trkpt lat="47.72898" lon="16.22547">
        <ele>340.68527</ele>
        <time>2026-07-07T13:37:16.000Z</time>
      </trkpt>
      <trkpt lat="47.72894" lon="16.22543">
        <ele>340.709552</ele>
        <time>2026-07-07T13:37:17.000Z</time>
      </trkpt>
      <trkpt lat="47.7289" lon="16.22539">
        <ele>340.73343</ele>
        <time>2026-07-07T13:37:18.000Z</time>
      </trkpt>
      <trkpt lat="47.72885" lon="16.22535">
        <ele>340.758061</ele>
        <time>2026-07-07T13:37:19.000Z</time>
      </trkpt>
      <trkpt lat="47.72881" lon="16.22531">
        <ele>340.78275</ele>
        <time>2026-07-07T13:37:20.000Z</time>
      </trkpt>
      <trkpt lat="47.72877" lon="16.22527">
        <ele>340.817979</ele>
        <time>2026-07-07T13:37:21.000Z</time>
      </trkpt>
      <trkpt lat="47.72873" lon="16.22522">
        <ele>340.856358</ele>
        <time>2026-07-07T13:37:22.000Z</time>
      </trkpt>
      <trkpt lat="47.72869" lon="16.22517">
        <ele>340.896879</ele>
        <time>2026-07-07T13:37:23.000Z</time>
      </trkpt>
      <trkpt lat="47.72864" lon="16.22512">
        <ele>340.937085</ele>
        <time>2026-07-07T13:37:24.000Z</time>
      </trkpt>
      <trkpt lat="47.7286" lon="16.22507">
        <ele>340.97702</ele>
        <time>2026-07-07T13:37:25.000Z</time>
      </trkpt>
      <trkpt lat="47.72856" lon="16.22502">
        <ele>341.017859</ele>
        <time>2026-07-07T13:37:26.000Z</time>
      </trkpt>
      <trkpt lat="47.72852" lon="16.22497">
        <ele>341.057447</ele>
        <time>2026-07-07T13:37:27.000Z</time>
      </trkpt>
      <trkpt lat="47.72849" lon="16.22491">
        <ele>341.09685</ele>
        <time>2026-07-07T13:37:28.000Z</time>
      </trkpt>
      <trkpt lat="47.72845" lon="16.22485">
        <ele>341.13708</ele>
        <time>2026-07-07T13:37:29.000Z</time>
      </trkpt>
      <trkpt lat="47.72842" lon="16.22479">
        <ele>341.176266</ele>
        <time>2026-07-07T13:37:30.000Z</time>
      </trkpt>
      <trkpt lat="47.72839" lon="16.22473">
        <ele>341.21419</ele>
        <time>2026-07-07T13:37:31.000Z</time>
      </trkpt>
      <trkpt lat="47.72836" lon="16.22468">
        <ele>341.250455</ele>
        <time>2026-07-07T13:37:32.000Z</time>
      </trkpt>
      <trkpt lat="47.72833" lon="16.22462">
        <ele>341.286324</ele>
        <time>2026-07-07T13:37:33.000Z</time>
      </trkpt>
      <trkpt lat="47.7283" lon="16.22457">
        <ele>341.320816</ele>
        <time>2026-07-07T13:37:34.000Z</time>
      </trkpt>
      <trkpt lat="47.72828" lon="16.22452">
        <ele>341.352374</ele>
        <time>2026-07-07T13:37:35.000Z</time>
      </trkpt>
      <trkpt lat="47.72825" lon="16.22447">
        <ele>341.383933</ele>
        <time>2026-07-07T13:37:36.000Z</time>
      </trkpt>
      <trkpt lat="47.72823" lon="16.22442">
        <ele>341.415459</ele>
        <time>2026-07-07T13:37:37.000Z</time>
      </trkpt>
      <trkpt lat="47.72821" lon="16.22436">
        <ele>341.448748</ele>
        <time>2026-07-07T13:37:38.000Z</time>
      </trkpt>
      <trkpt lat="47.72818" lon="16.2243">
        <ele>341.482854</ele>
        <time>2026-07-07T13:37:39.000Z</time>
      </trkpt>
      <trkpt lat="47.72816" lon="16.22424">
        <ele>341.518363</ele>
        <time>2026-07-07T13:37:40.000Z</time>
      </trkpt>
      <trkpt lat="47.72814" lon="16.22418">
        <ele>341.553424</ele>
        <time>2026-07-07T13:37:41.000Z</time>
      </trkpt>
      <trkpt lat="47.72812" lon="16.22412">
        <ele>341.588588</ele>
        <time>2026-07-07T13:37:42.000Z</time>
      </trkpt>
      <trkpt lat="47.72809" lon="16.22405">
        <ele>341.624824</ele>
        <time>2026-07-07T13:37:43.000Z</time>
      </trkpt>
      <trkpt lat="47.72807" lon="16.22399">
        <ele>341.660247</ele>
        <time>2026-07-07T13:37:44.000Z</time>
      </trkpt>
      <trkpt lat="47.72805" lon="16.22393">
        <ele>341.697107</ele>
        <time>2026-07-07T13:37:45.000Z</time>
      </trkpt>
      <trkpt lat="47.72803" lon="16.22386">
        <ele>341.73455</ele>
        <time>2026-07-07T13:37:46.000Z</time>
      </trkpt>
      <trkpt lat="47.72801" lon="16.2238">
        <ele>341.770508</ele>
        <time>2026-07-07T13:37:47.000Z</time>
      </trkpt>
      <trkpt lat="47.72798" lon="16.22373">
        <ele>341.807367</ele>
        <time>2026-07-07T13:37:48.000Z</time>
      </trkpt>
      <trkpt lat="47.72796" lon="16.22367">
        <ele>341.843439</ele>
        <time>2026-07-07T13:37:49.000Z</time>
      </trkpt>
      <trkpt lat="47.72794" lon="16.22361">
        <ele>341.878728</ele>
        <time>2026-07-07T13:37:50.000Z</time>
      </trkpt>
      <trkpt lat="47.72792" lon="16.22354">
        <ele>341.914964</ele>
        <time>2026-07-07T13:37:51.000Z</time>
      </trkpt>
      <trkpt lat="47.7279" lon="16.22348">
        <ele>341.951491</ele>
        <time>2026-07-07T13:37:52.000Z</time>
      </trkpt>
      <trkpt lat="47.72788" lon="16.22341">
        <ele>341.987699</ele>
        <time>2026-07-07T13:37:53.000Z</time>
      </trkpt>
      <trkpt lat="47.72786" lon="16.22335">
        <ele>342.025294</ele>
        <time>2026-07-07T13:37:54.000Z</time>
      </trkpt>
      <trkpt lat="47.72784" lon="16.22328">
        <ele>342.063518</ele>
        <time>2026-07-07T13:37:55.000Z</time>
      </trkpt>
      <trkpt lat="47.72782" lon="16.22321">
        <ele>342.100741</ele>
        <time>2026-07-07T13:37:56.000Z</time>
      </trkpt>
      <trkpt lat="47.7278" lon="16.22314">
        <ele>342.138192</ele>
        <time>2026-07-07T13:37:57.000Z</time>
      </trkpt>
      <trkpt lat="47.72779" lon="16.22307">
        <ele>342.143769</ele>
        <time>2026-07-07T13:37:58.000Z</time>
      </trkpt>
      <trkpt lat="47.72777" lon="16.223">
        <ele>342.146969</ele>
        <time>2026-07-07T13:37:59.000Z</time>
      </trkpt>
      <trkpt lat="47.72775" lon="16.22294">
        <ele>342.15011</ele>
        <time>2026-07-07T13:38:00.000Z</time>
      </trkpt>
      <trkpt lat="47.72773" lon="16.22288">
        <ele>342.153235</ele>
        <time>2026-07-07T13:38:01.000Z</time>
      </trkpt>
      <trkpt lat="47.72772" lon="16.22282">
        <ele>342.156157</ele>
        <time>2026-07-07T13:38:02.000Z</time>
      </trkpt>
      <trkpt lat="47.7277" lon="16.22276">
        <ele>342.158928</ele>
        <time>2026-07-07T13:38:03.000Z</time>
      </trkpt>
      <trkpt lat="47.72769" lon="16.2227">
        <ele>342.161633</ele>
        <time>2026-07-07T13:38:04.000Z</time>
      </trkpt>
      <trkpt lat="47.72768" lon="16.22265">
        <ele>342.164136</ele>
        <time>2026-07-07T13:38:05.000Z</time>
      </trkpt>
      <trkpt lat="47.72768" lon="16.2226">
        <ele>342.166536</ele>
        <time>2026-07-07T13:38:06.000Z</time>
      </trkpt>
      <trkpt lat="47.72769" lon="16.22255">
        <ele>342.168963</ele>
        <time>2026-07-07T13:38:07.000Z</time>
      </trkpt>
      <trkpt lat="47.72772" lon="16.2225">
        <ele>342.171784</ele>
        <time>2026-07-07T13:38:08.000Z</time>
      </trkpt>
      <trkpt lat="47.72776" lon="16.22246">
        <ele>342.174809</ele>
        <time>2026-07-07T13:38:09.000Z</time>
      </trkpt>
      <trkpt lat="47.7278" lon="16.22242">
        <ele>342.17798</ele>
        <time>2026-07-07T13:38:10.000Z</time>
      </trkpt>
      <trkpt lat="47.72784" lon="16.22239">
        <ele>342.181297</ele>
        <time>2026-07-07T13:38:11.000Z</time>
      </trkpt>
      <trkpt lat="47.72789" lon="16.22236">
        <ele>342.184616</ele>
        <time>2026-07-07T13:38:12.000Z</time>
      </trkpt>
      <trkpt lat="47.72793" lon="16.22233">
        <ele>342.187962</ele>
        <time>2026-07-07T13:38:13.000Z</time>
      </trkpt>
      <trkpt lat="47.72798" lon="16.2223">
        <ele>342.191441</ele>
        <time>2026-07-07T13:38:14.000Z</time>
      </trkpt>
      <trkpt lat="47.72803" lon="16.22227">
        <ele>342.194939</ele>
        <time>2026-07-07T13:38:15.000Z</time>
      </trkpt>
      <trkpt lat="47.72808" lon="16.22224">
        <ele>342.19848</ele>
        <time>2026-07-07T13:38:16.000Z</time>
      </trkpt>
      <trkpt lat="47.72812" lon="16.22221">
        <ele>342.201888</ele>
        <time>2026-07-07T13:38:17.000Z</time>
      </trkpt>
      <trkpt lat="47.72817" lon="16.22218">
        <ele>342.205189</ele>
        <time>2026-07-07T13:38:18.000Z</time>
      </trkpt>
      <trkpt lat="47.72821" lon="16.22215">
        <ele>342.208566</ele>
        <time>2026-07-07T13:38:19.000Z</time>
      </trkpt>
      <trkpt lat="47.72825" lon="16.2221">
        <ele>342.21174</ele>
        <time>2026-07-07T13:38:20.000Z</time>
      </trkpt>
      <trkpt lat="47.72827" lon="16.22204">
        <ele>342.214894</ele>
        <time>2026-07-07T13:38:21.000Z</time>
      </trkpt>
      <trkpt lat="47.72827" lon="16.22197">
        <ele>342.217999</ele>
        <time>2026-07-07T13:38:22.000Z</time>
      </trkpt>
      <trkpt lat="47.72827" lon="16.2219">
        <ele>342.22108</ele>
        <time>2026-07-07T13:38:23.000Z</time>
      </trkpt>
      <trkpt lat="47.72825" lon="16.22184">
        <ele>342.224193</ele>
        <time>2026-07-07T13:38:24.000Z</time>
      </trkpt>
      <trkpt lat="47.72822" lon="16.22178">
        <ele>342.227388</ele>
        <time>2026-07-07T13:38:25.000Z</time>
      </trkpt>
      <trkpt lat="47.72817" lon="16.22166">
        <ele>342.233965</ele>
        <time>2026-07-07T13:38:26.000Z</time>
      </trkpt>
      <trkpt lat="47.72814" lon="16.22159">
        <ele>342.237273</ele>
        <time>2026-07-07T13:38:27.000Z</time>
      </trkpt>
      <trkpt lat="47.72811" lon="16.22153">
        <ele>342.240655</ele>
        <time>2026-07-07T13:38:28.000Z</time>
      </trkpt>
      <trkpt lat="47.72809" lon="16.22147">
        <ele>342.243962</ele>
        <time>2026-07-07T13:38:29.000Z</time>
      </trkpt>
      <trkpt lat="47.72806" lon="16.22141">
        <ele>342.247274</ele>
        <time>2026-07-07T13:38:31.000Z</time>
      </trkpt>
      <trkpt lat="47.728" lon="16.22129">
        <ele>342.254003</ele>
        <time>2026-07-07T13:38:32.000Z</time>
      </trkpt>
      <trkpt lat="47.72797" lon="16.22123">
        <ele>342.257388</ele>
        <time>2026-07-07T13:38:33.000Z</time>
      </trkpt>
      <trkpt lat="47.72794" lon="16.22117">
        <ele>342.260772</ele>
        <time>2026-07-07T13:38:34.000Z</time>
      </trkpt>
      <trkpt lat="47.72792" lon="16.22111">
        <ele>342.269965</ele>
        <time>2026-07-07T13:38:35.000Z</time>
      </trkpt>
      <trkpt lat="47.72789" lon="16.22105">
        <ele>342.281679</ele>
        <time>2026-07-07T13:38:36.000Z</time>
      </trkpt>
      <trkpt lat="47.72785" lon="16.22099">
        <ele>342.293316</ele>
        <time>2026-07-07T13:38:37.000Z</time>
      </trkpt>
      <trkpt lat="47.72782" lon="16.22094">
        <ele>342.30468</ele>
        <time>2026-07-07T13:38:38.000Z</time>
      </trkpt>
      <trkpt lat="47.72779" lon="16.22088">
        <ele>342.316197</ele>
        <time>2026-07-07T13:38:39.000Z</time>
      </trkpt>
      <trkpt lat="47.72776" lon="16.22082">
        <ele>342.327911</ele>
        <time>2026-07-07T13:38:40.000Z</time>
      </trkpt>
      <trkpt lat="47.72773" lon="16.22077">
        <ele>342.339498</ele>
        <time>2026-07-07T13:38:41.000Z</time>
      </trkpt>
      <trkpt lat="47.7277" lon="16.22071">
        <ele>342.351064</ele>
        <time>2026-07-07T13:38:42.000Z</time>
      </trkpt>
      <trkpt lat="47.72767" lon="16.22064">
        <ele>342.363159</ele>
        <time>2026-07-07T13:38:43.000Z</time>
      </trkpt>
      <trkpt lat="47.72764" lon="16.22058">
        <ele>342.375</ele>
        <time>2026-07-07T13:38:44.000Z</time>
      </trkpt>
      <trkpt lat="47.72761" lon="16.22053">
        <ele>342.38688</ele>
        <time>2026-07-07T13:38:45.000Z</time>
      </trkpt>
      <trkpt lat="47.72758" lon="16.22047">
        <ele>342.398342</ele>
        <time>2026-07-07T13:38:46.000Z</time>
      </trkpt>
      <trkpt lat="47.72755" lon="16.22041">
        <ele>342.40993</ele>
        <time>2026-07-07T13:38:47.000Z</time>
      </trkpt>
      <trkpt lat="47.72752" lon="16.22035">
        <ele>342.421108</ele>
        <time>2026-07-07T13:38:48.000Z</time>
      </trkpt>
      <trkpt lat="47.7275" lon="16.22029">
        <ele>342.432286</ele>
        <time>2026-07-07T13:38:49.000Z</time>
      </trkpt>
      <trkpt lat="47.72747" lon="16.22023">
        <ele>342.443342</ele>
        <time>2026-07-07T13:38:50.000Z</time>
      </trkpt>
      <trkpt lat="47.72745" lon="16.22017">
        <ele>342.454417</ele>
        <time>2026-07-07T13:38:51.000Z</time>
      </trkpt>
      <trkpt lat="47.72743" lon="16.22011">
        <ele>342.465737</ele>
        <time>2026-07-07T13:38:52.000Z</time>
      </trkpt>
      <trkpt lat="47.72741" lon="16.22004">
        <ele>342.47712</ele>
        <time>2026-07-07T13:38:53.000Z</time>
      </trkpt>
      <trkpt lat="47.72739" lon="16.21998">
        <ele>342.48854</ele>
        <time>2026-07-07T13:38:54.000Z</time>
      </trkpt>
      <trkpt lat="47.72737" lon="16.21992">
        <ele>342.499782</ele>
        <time>2026-07-07T13:38:55.000Z</time>
      </trkpt>
      <trkpt lat="47.72734" lon="16.21985">
        <ele>342.511231</ele>
        <time>2026-07-07T13:38:56.000Z</time>
      </trkpt>
      <trkpt lat="47.72732" lon="16.21979">
        <ele>342.522168</ele>
        <time>2026-07-07T13:38:57.000Z</time>
      </trkpt>
      <trkpt lat="47.7273" lon="16.21974">
        <ele>342.532491</ele>
        <time>2026-07-07T13:38:58.000Z</time>
      </trkpt>
      <trkpt lat="47.72728" lon="16.21968">
        <ele>342.542813</ele>
        <time>2026-07-07T13:38:59.000Z</time>
      </trkpt>
      <trkpt lat="47.72726" lon="16.21962">
        <ele>342.552888</ele>
        <time>2026-07-07T13:39:00.000Z</time>
      </trkpt>
      <trkpt lat="47.72724" lon="16.21956">
        <ele>342.562816</ele>
        <time>2026-07-07T13:39:01.000Z</time>
      </trkpt>
      <trkpt lat="47.72723" lon="16.2195">
        <ele>342.572982</ele>
        <time>2026-07-07T13:39:02.000Z</time>
      </trkpt>
      <trkpt lat="47.72721" lon="16.21945">
        <ele>342.582823</ele>
        <time>2026-07-07T13:39:03.000Z</time>
      </trkpt>
      <trkpt lat="47.7272" lon="16.21939">
        <ele>342.592517</ele>
        <time>2026-07-07T13:39:04.000Z</time>
      </trkpt>
      <trkpt lat="47.72718" lon="16.21934">
        <ele>342.601154</ele>
        <time>2026-07-07T13:39:05.000Z</time>
      </trkpt>
      <trkpt lat="47.72717" lon="16.21929">
        <ele>342.609413</ele>
        <time>2026-07-07T13:39:06.000Z</time>
      </trkpt>
      <trkpt lat="47.72717" lon="16.21924">
        <ele>342.61703</ele>
        <time>2026-07-07T13:39:07.000Z</time>
      </trkpt>
      <trkpt lat="47.72718" lon="16.2192">
        <ele>342.624037</ele>
        <time>2026-07-07T13:39:08.000Z</time>
      </trkpt>
      <trkpt lat="47.72719" lon="16.21916">
        <ele>342.630874</ele>
        <time>2026-07-07T13:39:09.000Z</time>
      </trkpt>
      <trkpt lat="47.72722" lon="16.21914">
        <ele>342.637881</ele>
        <time>2026-07-07T13:39:10.000Z</time>
      </trkpt>
      <trkpt lat="47.72725" lon="16.21912">
        <ele>342.645556</ele>
        <time>2026-07-07T13:39:11.000Z</time>
      </trkpt>
      <trkpt lat="47.72729" lon="16.21911">
        <ele>342.654874</ele>
        <time>2026-07-07T13:39:12.000Z</time>
      </trkpt>
      <trkpt lat="47.72733" lon="16.2191">
        <ele>342.663961</ele>
        <time>2026-07-07T13:39:13.000Z</time>
      </trkpt>
      <trkpt lat="47.72737" lon="16.21909">
        <ele>342.673511</ele>
        <time>2026-07-07T13:39:14.000Z</time>
      </trkpt>
      <trkpt lat="47.7274" lon="16.21909">
        <ele>342.682547</ele>
        <time>2026-07-07T13:39:15.000Z</time>
      </trkpt>
      <trkpt lat="47.72744" lon="16.21908">
        <ele>342.713679</ele>
        <time>2026-07-07T13:39:16.000Z</time>
      </trkpt>
      <trkpt lat="47.72748" lon="16.21907">
        <ele>342.754523</ele>
        <time>2026-07-07T13:39:17.000Z</time>
      </trkpt>
      <trkpt lat="47.72752" lon="16.21906">
        <ele>342.79018</ele>
        <time>2026-07-07T13:39:18.000Z</time>
      </trkpt>
      <trkpt lat="47.72755" lon="16.21905">
        <ele>342.826068</ele>
        <time>2026-07-07T13:39:19.000Z</time>
      </trkpt>
      <trkpt lat="47.72759" lon="16.21904">
        <ele>342.85947</ele>
        <time>2026-07-07T13:39:20.000Z</time>
      </trkpt>
      <trkpt lat="47.72762" lon="16.21904">
        <ele>342.895031</ele>
        <time>2026-07-07T13:39:21.000Z</time>
      </trkpt>
      <trkpt lat="47.72765" lon="16.21903">
        <ele>342.928944</ele>
        <time>2026-07-07T13:39:22.000Z</time>
      </trkpt>
      <trkpt lat="47.72769" lon="16.21902">
        <ele>342.964832</ele>
        <time>2026-07-07T13:39:23.000Z</time>
      </trkpt>
      <trkpt lat="47.72773" lon="16.21901">
        <ele>343.00239</ele>
        <time>2026-07-07T13:39:24.000Z</time>
      </trkpt>
      <trkpt lat="47.72777" lon="16.219">
        <ele>343.04281</ele>
        <time>2026-07-07T13:39:25.000Z</time>
      </trkpt>
      <trkpt lat="47.72781" lon="16.219">
        <ele>343.0863</ele>
        <time>2026-07-07T13:39:26.000Z</time>
      </trkpt>
      <trkpt lat="47.72786" lon="16.21899">
        <ele>343.134017</ele>
        <time>2026-07-07T13:39:27.000Z</time>
      </trkpt>
      <trkpt lat="47.7279" lon="16.21898">
        <ele>343.179834</ele>
        <time>2026-07-07T13:39:28.000Z</time>
      </trkpt>
      <trkpt lat="47.72795" lon="16.21897">
        <ele>343.22565</ele>
        <time>2026-07-07T13:39:29.000Z</time>
      </trkpt>
      <trkpt lat="47.72799" lon="16.21896">
        <ele>343.271145</ele>
        <time>2026-07-07T13:39:30.000Z</time>
      </trkpt>
      <trkpt lat="47.72803" lon="16.21896">
        <ele>343.311446</ele>
        <time>2026-07-07T13:39:31.000Z</time>
      </trkpt>
      <trkpt lat="47.72806" lon="16.21894">
        <ele>343.343775</ele>
        <time>2026-07-07T13:39:32.000Z</time>
      </trkpt>
      <trkpt lat="47.72808" lon="16.2189">
        <ele>343.378079</ele>
        <time>2026-07-07T13:39:33.000Z</time>
      </trkpt>
      <trkpt lat="47.72809" lon="16.21885">
        <ele>343.412115</ele>
        <time>2026-07-07T13:39:34.000Z</time>
      </trkpt>
      <trkpt lat="47.72809" lon="16.2188">
        <ele>343.448704</ele>
        <time>2026-07-07T13:39:35.000Z</time>
      </trkpt>
      <trkpt lat="47.72808" lon="16.21875">
        <ele>343.484954</ele>
        <time>2026-07-07T13:39:36.000Z</time>
      </trkpt>
      <trkpt lat="47.72807" lon="16.21869">
        <ele>343.521322</ele>
        <time>2026-07-07T13:39:37.000Z</time>
      </trkpt>
      <trkpt lat="47.72806" lon="16.21865">
        <ele>343.555357</ele>
        <time>2026-07-07T13:39:38.000Z</time>
      </trkpt>
      <trkpt lat="47.72806" lon="16.2186">
        <ele>343.588426</ele>
        <time>2026-07-07T13:39:39.000Z</time>
      </trkpt>
      <trkpt lat="47.72805" lon="16.21855">
        <ele>343.620656</ele>
        <time>2026-07-07T13:39:40.000Z</time>
      </trkpt>
      <trkpt lat="47.72805" lon="16.21851">
        <ele>343.649122</ele>
        <time>2026-07-07T13:39:41.000Z</time>
      </trkpt>
      <trkpt lat="47.72806" lon="16.21846">
        <ele>343.682021</ele>
        <time>2026-07-07T13:39:42.000Z</time>
      </trkpt>
      <trkpt lat="47.72806" lon="16.21841">
        <ele>343.716259</ele>
        <time>2026-07-07T13:39:43.000Z</time>
      </trkpt>
      <trkpt lat="47.72806" lon="16.21836">
        <ele>343.74849</ele>
        <time>2026-07-07T13:39:44.000Z</time>
      </trkpt>
      <trkpt lat="47.72805" lon="16.21833">
        <ele>343.774716</ele>
        <time>2026-07-07T13:39:45.000Z</time>
      </trkpt>
      <trkpt lat="47.72806" lon="16.21829">
        <ele>343.796967</ele>
        <time>2026-07-07T13:39:46.000Z</time>
      </trkpt>
      <trkpt lat="47.72808" lon="16.21828">
        <ele>343.817983</ele>
        <time>2026-07-07T13:39:47.000Z</time>
      </trkpt>
      <trkpt lat="47.7281" lon="16.21826">
        <ele>343.84158</ele>
        <time>2026-07-07T13:39:48.000Z</time>
      </trkpt>
      <trkpt lat="47.72812" lon="16.21825">
        <ele>343.865909</ele>
        <time>2026-07-07T13:39:49.000Z</time>
      </trkpt>
      <trkpt lat="47.72815" lon="16.21824">
        <ele>343.893772</ele>
        <time>2026-07-07T13:39:50.000Z</time>
      </trkpt>
      <trkpt lat="47.72817" lon="16.21823">
        <ele>343.920815</ele>
        <time>2026-07-07T13:39:51.000Z</time>
      </trkpt>
      <trkpt lat="47.7282" lon="16.21822">
        <ele>343.951774</ele>
        <time>2026-07-07T13:39:52.000Z</time>
      </trkpt>
      <trkpt lat="47.72823" lon="16.21821">
        <ele>343.982887</ele>
        <time>2026-07-07T13:39:53.000Z</time>
      </trkpt>
      <trkpt lat="47.72827" lon="16.2182">
        <ele>344.018076</ele>
        <time>2026-07-07T13:39:54.000Z</time>
      </trkpt>
      <trkpt lat="47.7283" lon="16.21818">
        <ele>344.056111</ele>
        <time>2026-07-07T13:39:55.000Z</time>
      </trkpt>
      <trkpt lat="47.72835" lon="16.21816">
        <ele>344.100519</ele>
        <time>2026-07-07T13:39:56.000Z</time>
      </trkpt>
      <trkpt lat="47.72839" lon="16.21814">
        <ele>344.148012</ele>
        <time>2026-07-07T13:39:57.000Z</time>
      </trkpt>
      <trkpt lat="47.72844" lon="16.21812">
        <ele>344.197058</ele>
        <time>2026-07-07T13:39:58.000Z</time>
      </trkpt>
      <trkpt lat="47.72849" lon="16.2181">
        <ele>344.248272</ele>
        <time>2026-07-07T13:39:59.000Z</time>
      </trkpt>
      <trkpt lat="47.72853" lon="16.21807">
        <ele>344.297</ele>
        <time>2026-07-07T13:40:00.000Z</time>
      </trkpt>
      <trkpt lat="47.72857" lon="16.21803">
        <ele>344.344835</ele>
        <time>2026-07-07T13:40:01.000Z</time>
      </trkpt>
      <trkpt lat="47.72862" lon="16.218">
        <ele>344.395664</ele>
        <time>2026-07-07T13:40:02.000Z</time>
      </trkpt>
      <trkpt lat="47.72866" lon="16.21796">
        <ele>344.444147</ele>
        <time>2026-07-07T13:40:03.000Z</time>
      </trkpt>
      <trkpt lat="47.7287" lon="16.21793">
        <ele>344.492798</ele>
        <time>2026-07-07T13:40:04.000Z</time>
      </trkpt>
      <trkpt lat="47.72874" lon="16.21789">
        <ele>344.483709</ele>
        <time>2026-07-07T13:40:05.000Z</time>
      </trkpt>
      <trkpt lat="47.72878" lon="16.21785">
        <ele>344.46962</ele>
        <time>2026-07-07T13:40:06.000Z</time>
      </trkpt>
      <trkpt lat="47.72883" lon="16.21782">
        <ele>344.455378</ele>
        <time>2026-07-07T13:40:07.000Z</time>
      </trkpt>
      <trkpt lat="47.72887" lon="16.21778">
        <ele>344.440607</ele>
        <time>2026-07-07T13:40:08.000Z</time>
      </trkpt>
      <trkpt lat="47.72892" lon="16.21774">
        <ele>344.426422</ele>
        <time>2026-07-07T13:40:09.000Z</time>
      </trkpt>
      <trkpt lat="47.72896" lon="16.2177">
        <ele>344.411554</ele>
        <time>2026-07-07T13:40:10.000Z</time>
      </trkpt>
      <trkpt lat="47.729" lon="16.21766">
        <ele>344.397368</ele>
        <time>2026-07-07T13:40:11.000Z</time>
      </trkpt>
      <trkpt lat="47.72905" lon="16.21763">
        <ele>344.383033</ele>
        <time>2026-07-07T13:40:12.000Z</time>
      </trkpt>
      <trkpt lat="47.72909" lon="16.21759">
        <ele>344.368632</ele>
        <time>2026-07-07T13:40:13.000Z</time>
      </trkpt>
      <trkpt lat="47.72914" lon="16.21756">
        <ele>344.354996</ele>
        <time>2026-07-07T13:40:14.000Z</time>
      </trkpt>
      <trkpt lat="47.72918" lon="16.21753">
        <ele>344.341683</ele>
        <time>2026-07-07T13:40:15.000Z</time>
      </trkpt>
      <trkpt lat="47.72922" lon="16.2175">
        <ele>344.32847</ele>
        <time>2026-07-07T13:40:16.000Z</time>
      </trkpt>
      <trkpt lat="47.72926" lon="16.21747">
        <ele>344.315</ele>
        <time>2026-07-07T13:40:17.000Z</time>
      </trkpt>
      <trkpt lat="47.72931" lon="16.21744">
        <ele>344.301787</ele>
        <time>2026-07-07T13:40:18.000Z</time>
      </trkpt>
      <trkpt lat="47.72935" lon="16.21741">
        <ele>344.288734</ele>
        <time>2026-07-07T13:40:19.000Z</time>
      </trkpt>
      <trkpt lat="47.72939" lon="16.21738">
        <ele>344.275859</ele>
        <time>2026-07-07T13:40:20.000Z</time>
      </trkpt>
      <trkpt lat="47.72943" lon="16.21735">
        <ele>344.261794</ele>
        <time>2026-07-07T13:40:21.000Z</time>
      </trkpt>
      <trkpt lat="47.72948" lon="16.21732">
        <ele>344.24748</ele>
        <time>2026-07-07T13:40:22.000Z</time>
      </trkpt>
      <trkpt lat="47.72953" lon="16.21728">
        <ele>344.232573</ele>
        <time>2026-07-07T13:40:23.000Z</time>
      </trkpt>
      <trkpt lat="47.72957" lon="16.21725">
        <ele>344.21758</ele>
        <time>2026-07-07T13:40:24.000Z</time>
      </trkpt>
      <trkpt lat="47.72962" lon="16.21721">
        <ele>344.202272</ele>
        <time>2026-07-07T13:40:25.000Z</time>
      </trkpt>
      <trkpt lat="47.72966" lon="16.21716">
        <ele>344.187341</ele>
        <time>2026-07-07T13:40:26.000Z</time>
      </trkpt>
      <trkpt lat="47.7297" lon="16.21712">
        <ele>344.172889</ele>
        <time>2026-07-07T13:40:27.000Z</time>
      </trkpt>
      <trkpt lat="47.72974" lon="16.21708">
        <ele>344.159002</ele>
        <time>2026-07-07T13:40:28.000Z</time>
      </trkpt>
      <trkpt lat="47.72978" lon="16.21703">
        <ele>344.145685</ele>
        <time>2026-07-07T13:40:29.000Z</time>
      </trkpt>
      <trkpt lat="47.72982" lon="16.21699">
        <ele>344.132484</ele>
        <time>2026-07-07T13:40:30.000Z</time>
      </trkpt>
      <trkpt lat="47.72986" lon="16.21695">
        <ele>344.119602</ele>
        <time>2026-07-07T13:40:31.000Z</time>
      </trkpt>
      <trkpt lat="47.7299" lon="16.21692">
        <ele>344.106343</ele>
        <time>2026-07-07T13:40:32.000Z</time>
      </trkpt>
      <trkpt lat="47.72994" lon="16.21688">
        <ele>344.092778</ele>
        <time>2026-07-07T13:40:33.000Z</time>
      </trkpt>
      <trkpt lat="47.72998" lon="16.21684">
        <ele>344.078634</ele>
        <time>2026-07-07T13:40:34.000Z</time>
      </trkpt>
      <trkpt lat="47.73002" lon="16.2168">
        <ele>344.065319</ele>
        <time>2026-07-07T13:40:35.000Z</time>
      </trkpt>
      <trkpt lat="47.73005" lon="16.21676">
        <ele>344.051892</ele>
        <time>2026-07-07T13:40:36.000Z</time>
      </trkpt>
      <trkpt lat="47.73009" lon="16.21671">
        <ele>344.038005</ele>
        <time>2026-07-07T13:40:37.000Z</time>
      </trkpt>
      <trkpt lat="47.73013" lon="16.21667">
        <ele>344.024007</ele>
        <time>2026-07-07T13:40:38.000Z</time>
      </trkpt>
      <trkpt lat="47.73018" lon="16.21663">
        <ele>344.009327</ele>
        <time>2026-07-07T13:40:39.000Z</time>
      </trkpt>
      <trkpt lat="47.73022" lon="16.21658">
        <ele>343.994646</ele>
        <time>2026-07-07T13:40:40.000Z</time>
      </trkpt>
      <trkpt lat="47.73026" lon="16.21654">
        <ele>343.998458</ele>
        <time>2026-07-07T13:40:41.000Z</time>
      </trkpt>
      <trkpt lat="47.7303" lon="16.21649">
        <ele>344.026302</ele>
        <time>2026-07-07T13:40:42.000Z</time>
      </trkpt>
      <trkpt lat="47.73034" lon="16.21645">
        <ele>344.054138</ele>
        <time>2026-07-07T13:40:43.000Z</time>
      </trkpt>
      <trkpt lat="47.73039" lon="16.2164">
        <ele>344.082194</ele>
        <time>2026-07-07T13:40:44.000Z</time>
      </trkpt>
      <trkpt lat="47.73043" lon="16.21636">
        <ele>344.110483</ele>
        <time>2026-07-07T13:40:45.000Z</time>
      </trkpt>
      <trkpt lat="47.73047" lon="16.21631">
        <ele>344.137667</ele>
        <time>2026-07-07T13:40:46.000Z</time>
      </trkpt>
      <trkpt lat="47.73051" lon="16.21627">
        <ele>344.164851</ele>
        <time>2026-07-07T13:40:47.000Z</time>
      </trkpt>
      <trkpt lat="47.73055" lon="16.21622">
        <ele>344.192256</ele>
        <time>2026-07-07T13:40:48.000Z</time>
      </trkpt>
      <trkpt lat="47.73059" lon="16.21618">
        <ele>344.219009</ele>
        <time>2026-07-07T13:40:49.000Z</time>
      </trkpt>
      <trkpt lat="47.73062" lon="16.21613">
        <ele>344.244265</ele>
        <time>2026-07-07T13:40:50.000Z</time>
      </trkpt>
      <trkpt lat="47.73066" lon="16.21609">
        <ele>344.271019</ele>
        <time>2026-07-07T13:40:51.000Z</time>
      </trkpt>
      <trkpt lat="47.7307" lon="16.21605">
        <ele>344.296898</ele>
        <time>2026-07-07T13:40:52.000Z</time>
      </trkpt>
      <trkpt lat="47.73074" lon="16.216">
        <ele>344.323226</ele>
        <time>2026-07-07T13:40:53.000Z</time>
      </trkpt>
      <trkpt lat="47.73078" lon="16.21596">
        <ele>344.35041</ele>
        <time>2026-07-07T13:40:54.000Z</time>
      </trkpt>
      <trkpt lat="47.73082" lon="16.21591">
        <ele>344.378045</ele>
        <time>2026-07-07T13:40:55.000Z</time>
      </trkpt>
      <trkpt lat="47.73086" lon="16.21587">
        <ele>344.405011</ele>
        <time>2026-07-07T13:40:56.000Z</time>
      </trkpt>
      <trkpt lat="47.7309" lon="16.21583">
        <ele>344.431761</ele>
        <time>2026-07-07T13:40:57.000Z</time>
      </trkpt>
      <trkpt lat="47.73094" lon="16.21578">
        <ele>344.459816</ele>
        <time>2026-07-07T13:40:58.000Z</time>
      </trkpt>
      <trkpt lat="47.73098" lon="16.21574">
        <ele>344.486144</ele>
        <time>2026-07-07T13:40:59.000Z</time>
      </trkpt>
      <trkpt lat="47.73102" lon="16.21569">
        <ele>344.513328</ele>
        <time>2026-07-07T13:41:00.000Z</time>
      </trkpt>
      <trkpt lat="47.73106" lon="16.21565">
        <ele>344.540511</ele>
        <time>2026-07-07T13:41:01.000Z</time>
      </trkpt>
      <trkpt lat="47.7311" lon="16.2156">
        <ele>344.567695</ele>
        <time>2026-07-07T13:41:02.000Z</time>
      </trkpt>
      <trkpt lat="47.73114" lon="16.21556">
        <ele>344.594879</ele>
        <time>2026-07-07T13:41:03.000Z</time>
      </trkpt>
      <trkpt lat="47.73118" lon="16.21551">
        <ele>344.622062</ele>
        <time>2026-07-07T13:41:04.000Z</time>
      </trkpt>
      <trkpt lat="47.73122" lon="16.21547">
        <ele>344.649246</ele>
        <time>2026-07-07T13:41:05.000Z</time>
      </trkpt>
      <trkpt lat="47.73126" lon="16.21542">
        <ele>344.676342</ele>
        <time>2026-07-07T13:41:06.000Z</time>
      </trkpt>
      <trkpt lat="47.73129" lon="16.21536">
        <ele>344.703756</ele>
        <time>2026-07-07T13:41:07.000Z</time>
      </trkpt>
      <trkpt lat="47.73132" lon="16.2153">
        <ele>344.730985</ele>
        <time>2026-07-07T13:41:08.000Z</time>
      </trkpt>
      <trkpt lat="47.73134" lon="16.21523">
        <ele>344.757283</ele>
        <time>2026-07-07T13:41:09.000Z</time>
      </trkpt>
      <trkpt lat="47.73134" lon="16.21516">
        <ele>344.783164</ele>
        <time>2026-07-07T13:41:10.000Z</time>
      </trkpt>
      <trkpt lat="47.73134" lon="16.21509">
        <ele>344.80905</ele>
        <time>2026-07-07T13:41:11.000Z</time>
      </trkpt>
      <trkpt lat="47.73133" lon="16.21502">
        <ele>344.834669</ele>
        <time>2026-07-07T13:41:12.000Z</time>
      </trkpt>
      <trkpt lat="47.73132" lon="16.21495">
        <ele>344.860754</ele>
        <time>2026-07-07T13:41:13.000Z</time>
      </trkpt>
      <trkpt lat="47.73131" lon="16.21488">
        <ele>344.886838</ele>
        <time>2026-07-07T13:41:14.000Z</time>
      </trkpt>
      <trkpt lat="47.7313" lon="16.21481">
        <ele>344.913308</ele>
        <time>2026-07-07T13:41:15.000Z</time>
      </trkpt>
      <trkpt lat="47.73129" lon="16.21474">
        <ele>344.93964</ele>
        <time>2026-07-07T13:41:16.000Z</time>
      </trkpt>
      <trkpt lat="47.73128" lon="16.21467">
        <ele>344.96616</ele>
        <time>2026-07-07T13:41:17.000Z</time>
      </trkpt>
      <trkpt lat="47.73126" lon="16.2146">
        <ele>345.000346</ele>
        <time>2026-07-07T13:41:18.000Z</time>
      </trkpt>
      <trkpt lat="47.73125" lon="16.21453">
        <ele>345.033434</ele>
        <time>2026-07-07T13:41:19.000Z</time>
      </trkpt>
      <trkpt lat="47.73124" lon="16.21446">
        <ele>345.066968</ele>
        <time>2026-07-07T13:41:20.000Z</time>
      </trkpt>
      <trkpt lat="47.73123" lon="16.21438">
        <ele>345.100949</ele>
        <time>2026-07-07T13:41:21.000Z</time>
      </trkpt>
      <trkpt lat="47.73122" lon="16.21431">
        <ele>345.13359</ele>
        <time>2026-07-07T13:41:22.000Z</time>
      </trkpt>
      <trkpt lat="47.73121" lon="16.21424">
        <ele>345.167594</ele>
        <time>2026-07-07T13:41:23.000Z</time>
      </trkpt>
      <trkpt lat="47.7312" lon="16.21417">
        <ele>345.19966</ele>
        <time>2026-07-07T13:41:24.000Z</time>
      </trkpt>
      <trkpt lat="47.73118" lon="16.2141">
        <ele>345.232736</ele>
        <time>2026-07-07T13:41:26.000Z</time>
      </trkpt>
      <trkpt lat="47.73117" lon="16.21403">
        <ele>345.266247</ele>
        <time>2026-07-07T13:41:27.000Z</time>
      </trkpt>
      <trkpt lat="47.73116" lon="16.21397">
        <ele>345.298492</ele>
        <time>2026-07-07T13:41:28.000Z</time>
      </trkpt>
      <trkpt lat="47.73114" lon="16.2139">
        <ele>345.332002</ele>
        <time>2026-07-07T13:41:29.000Z</time>
      </trkpt>
      <trkpt lat="47.73113" lon="16.21383">
        <ele>345.364069</ele>
        <time>2026-07-07T13:41:30.000Z</time>
      </trkpt>
      <trkpt lat="47.73112" lon="16.21376">
        <ele>345.397192</ele>
        <time>2026-07-07T13:41:31.000Z</time>
      </trkpt>
      <trkpt lat="47.7311" lon="16.21369">
        <ele>345.4297</ele>
        <time>2026-07-07T13:41:32.000Z</time>
      </trkpt>
      <trkpt lat="47.73109" lon="16.21362">
        <ele>345.460559</ele>
        <time>2026-07-07T13:41:33.000Z</time>
      </trkpt>
      <trkpt lat="47.73108" lon="16.21356">
        <ele>345.490973</ele>
        <time>2026-07-07T13:41:34.000Z</time>
      </trkpt>
      <trkpt lat="47.73108" lon="16.21349">
        <ele>345.520448</ele>
        <time>2026-07-07T13:41:35.000Z</time>
      </trkpt>
      <trkpt lat="47.73107" lon="16.21343">
        <ele>345.548674</ele>
        <time>2026-07-07T13:41:36.000Z</time>
      </trkpt>
      <trkpt lat="47.73106" lon="16.21337">
        <ele>345.576427</ele>
        <time>2026-07-07T13:41:37.000Z</time>
      </trkpt>
      <trkpt lat="47.73106" lon="16.21332">
        <ele>345.602051</ele>
        <time>2026-07-07T13:41:38.000Z</time>
      </trkpt>
      <trkpt lat="47.73105" lon="16.21326">
        <ele>345.626831</ele>
        <time>2026-07-07T13:41:39.000Z</time>
      </trkpt>
      <trkpt lat="47.73106" lon="16.21321">
        <ele>345.65241</ele>
        <time>2026-07-07T13:41:40.000Z</time>
      </trkpt>
      <trkpt lat="47.73106" lon="16.21315">
        <ele>345.679356</ele>
        <time>2026-07-07T13:41:41.000Z</time>
      </trkpt>
      <trkpt lat="47.73106" lon="16.21309">
        <ele>345.708092</ele>
        <time>2026-07-07T13:41:42.000Z</time>
      </trkpt>
      <trkpt lat="47.73105" lon="16.21302">
        <ele>345.736956</ele>
        <time>2026-07-07T13:41:43.000Z</time>
      </trkpt>
      <trkpt lat="47.73105" lon="16.21296">
        <ele>345.766882</ele>
        <time>2026-07-07T13:41:44.000Z</time>
      </trkpt>
      <trkpt lat="47.73104" lon="16.21289">
        <ele>345.797563</ele>
        <time>2026-07-07T13:41:45.000Z</time>
      </trkpt>
      <trkpt lat="47.73105" lon="16.21283">
        <ele>345.826499</ele>
        <time>2026-07-07T13:41:46.000Z</time>
      </trkpt>
      <trkpt lat="47.73106" lon="16.21277">
        <ele>345.855696</ele>
        <time>2026-07-07T13:41:47.000Z</time>
      </trkpt>
      <trkpt lat="47.73109" lon="16.21271">
        <ele>345.887995</ele>
        <time>2026-07-07T13:41:48.000Z</time>
      </trkpt>
      <trkpt lat="47.73113" lon="16.21266">
        <ele>345.920107</ele>
        <time>2026-07-07T13:41:49.000Z</time>
      </trkpt>
      <trkpt lat="47.73116" lon="16.21262">
        <ele>345.951787</ele>
        <time>2026-07-07T13:41:50.000Z</time>
      </trkpt>
      <trkpt lat="47.7312" lon="16.21257">
        <ele>345.98377</ele>
        <time>2026-07-07T13:41:51.000Z</time>
      </trkpt>
      <trkpt lat="47.73123" lon="16.21253">
        <ele>346.014272</ele>
        <time>2026-07-07T13:41:52.000Z</time>
      </trkpt>
      <trkpt lat="47.73127" lon="16.21249">
        <ele>346.044489</ele>
        <time>2026-07-07T13:41:53.000Z</time>
      </trkpt>
      <trkpt lat="47.7313" lon="16.21245">
        <ele>346.072932</ele>
        <time>2026-07-07T13:41:54.000Z</time>
      </trkpt>
      <trkpt lat="47.73133" lon="16.2124">
        <ele>346.103202</ele>
        <time>2026-07-07T13:41:55.000Z</time>
      </trkpt>
      <trkpt lat="47.73136" lon="16.21236">
        <ele>346.131038</ele>
        <time>2026-07-07T13:41:56.000Z</time>
      </trkpt>
      <trkpt lat="47.7314" lon="16.21232">
        <ele>346.160597</ele>
        <time>2026-07-07T13:41:57.000Z</time>
      </trkpt>
      <trkpt lat="47.73143" lon="16.21228">
        <ele>346.181081</ele>
        <time>2026-07-07T13:41:58.000Z</time>
      </trkpt>
      <trkpt lat="47.73146" lon="16.21223">
        <ele>346.181996</ele>
        <time>2026-07-07T13:41:59.000Z</time>
      </trkpt>
      <trkpt lat="47.73149" lon="16.21219">
        <ele>346.182904</ele>
        <time>2026-07-07T13:42:00.000Z</time>
      </trkpt>
      <trkpt lat="47.73152" lon="16.21215">
        <ele>346.183813</ele>
        <time>2026-07-07T13:42:01.000Z</time>
      </trkpt>
      <trkpt lat="47.73155" lon="16.21211">
        <ele>346.184712</ele>
        <time>2026-07-07T13:42:02.000Z</time>
      </trkpt>
      <trkpt lat="47.73159" lon="16.21207">
        <ele>346.185653</ele>
        <time>2026-07-07T13:42:03.000Z</time>
      </trkpt>
      <trkpt lat="47.73163" lon="16.21205">
        <ele>346.186583</ele>
        <time>2026-07-07T13:42:04.000Z</time>
      </trkpt>
      <trkpt lat="47.73167" lon="16.21204">
        <ele>346.187519</ele>
        <time>2026-07-07T13:42:05.000Z</time>
      </trkpt>
      <trkpt lat="47.73171" lon="16.21202">
        <ele>346.188376</ele>
        <time>2026-07-07T13:42:06.000Z</time>
      </trkpt>
      <trkpt lat="47.73174" lon="16.21201">
        <ele>346.189167</ele>
        <time>2026-07-07T13:42:07.000Z</time>
      </trkpt>
      <trkpt lat="47.73178" lon="16.21201">
        <ele>346.189975</ele>
        <time>2026-07-07T13:42:08.000Z</time>
      </trkpt>
      <trkpt lat="47.73181" lon="16.21201">
        <ele>346.190704</ele>
        <time>2026-07-07T13:42:09.000Z</time>
      </trkpt>
      <trkpt lat="47.73184" lon="16.21203">
        <ele>346.191404</ele>
        <time>2026-07-07T13:42:10.000Z</time>
      </trkpt>
      <trkpt lat="47.73187" lon="16.21205">
        <ele>346.19211</ele>
        <time>2026-07-07T13:42:11.000Z</time>
      </trkpt>
      <trkpt lat="47.7319" lon="16.21207">
        <ele>346.192781</ele>
        <time>2026-07-07T13:42:12.000Z</time>
      </trkpt>
      <trkpt lat="47.73193" lon="16.21209">
        <ele>346.193446</ele>
        <time>2026-07-07T13:42:13.000Z</time>
      </trkpt>
      <trkpt lat="47.73196" lon="16.21212">
        <ele>346.194226</ele>
        <time>2026-07-07T13:42:14.000Z</time>
      </trkpt>
      <trkpt lat="47.73199" lon="16.21215">
        <ele>346.195059</ele>
        <time>2026-07-07T13:42:15.000Z</time>
      </trkpt>
      <trkpt lat="47.73202" lon="16.21218">
        <ele>346.195955</ele>
        <time>2026-07-07T13:42:16.000Z</time>
      </trkpt>
      <trkpt lat="47.73206" lon="16.21221">
        <ele>346.196878</ele>
        <time>2026-07-07T13:42:17.000Z</time>
      </trkpt>
      <trkpt lat="47.7321" lon="16.21225">
        <ele>346.197811</ele>
        <time>2026-07-07T13:42:18.000Z</time>
      </trkpt>
      <trkpt lat="47.73213" lon="16.21228">
        <ele>346.198752</ele>
        <time>2026-07-07T13:42:19.000Z</time>
      </trkpt>
      <trkpt lat="47.73217" lon="16.21231">
        <ele>346.199667</ele>
        <time>2026-07-07T13:42:20.000Z</time>
      </trkpt>
      <trkpt lat="47.73221" lon="16.21234">
        <ele>346.200646</ele>
        <time>2026-07-07T13:42:21.000Z</time>
      </trkpt>
      <trkpt lat="47.73224" lon="16.21238">
        <ele>346.2016</ele>
        <time>2026-07-07T13:42:22.000Z</time>
      </trkpt>
      <trkpt lat="47.73228" lon="16.21242">
        <ele>346.202598</ele>
        <time>2026-07-07T13:42:23.000Z</time>
      </trkpt>
      <trkpt lat="47.73232" lon="16.21246">
        <ele>346.203561</ele>
        <time>2026-07-07T13:42:24.000Z</time>
      </trkpt>
      <trkpt lat="47.73235" lon="16.2125">
        <ele>346.204551</ele>
        <time>2026-07-07T13:42:25.000Z</time>
      </trkpt>
      <trkpt lat="47.73238" lon="16.21255">
        <ele>346.205553</ele>
        <time>2026-07-07T13:42:26.000Z</time>
      </trkpt>
      <trkpt lat="47.73242" lon="16.2126">
        <ele>346.206591</ele>
        <time>2026-07-07T13:42:27.000Z</time>
      </trkpt>
      <trkpt lat="47.73245" lon="16.21264">
        <ele>346.207554</ele>
        <time>2026-07-07T13:42:28.000Z</time>
      </trkpt>
      <trkpt lat="47.73248" lon="16.21267">
        <ele>346.208307</ele>
        <time>2026-07-07T13:42:29.000Z</time>
      </trkpt>
      <trkpt lat="47.7325" lon="16.2127">
        <ele>346.208906</ele>
        <time>2026-07-07T13:42:30.000Z</time>
      </trkpt>
      <trkpt lat="47.73252" lon="16.21272">
        <ele>346.209414</ele>
        <time>2026-07-07T13:42:31.000Z</time>
      </trkpt>
      <trkpt lat="47.73254" lon="16.21274">
        <ele>346.209993</ele>
        <time>2026-07-07T13:42:32.000Z</time>
      </trkpt>
      <trkpt lat="47.73256" lon="16.21277">
        <ele>346.210614</ele>
        <time>2026-07-07T13:42:33.000Z</time>
      </trkpt>
      <trkpt lat="47.7326" lon="16.21279">
        <ele>346.211389</ele>
        <time>2026-07-07T13:42:34.000Z</time>
      </trkpt>
      <trkpt lat="47.73263" lon="16.2128">
        <ele>346.212209</ele>
        <time>2026-07-07T13:42:35.000Z</time>
      </trkpt>
      <trkpt lat="47.73267" lon="16.2128">
        <ele>346.213082</ele>
        <time>2026-07-07T13:42:36.000Z</time>
      </trkpt>
      <trkpt lat="47.73271" lon="16.21279">
        <ele>346.213958</ele>
        <time>2026-07-07T13:42:37.000Z</time>
      </trkpt>
      <trkpt lat="47.73276" lon="16.21279">
        <ele>346.2149</ele>
        <time>2026-07-07T13:42:38.000Z</time>
      </trkpt>
      <trkpt lat="47.7328" lon="16.21278">
        <ele>346.215825</ele>
        <time>2026-07-07T13:42:39.000Z</time>
      </trkpt>
      <trkpt lat="47.73284" lon="16.21277">
        <ele>346.216782</ele>
        <time>2026-07-07T13:42:40.000Z</time>
      </trkpt>
      <trkpt lat="47.73288" lon="16.21275">
        <ele>346.217724</ele>
        <time>2026-07-07T13:42:41.000Z</time>
      </trkpt>
      <trkpt lat="47.73292" lon="16.21273">
        <ele>346.218594</ele>
        <time>2026-07-07T13:42:42.000Z</time>
      </trkpt>
      <trkpt lat="47.73296" lon="16.21271">
        <ele>346.219468</ele>
        <time>2026-07-07T13:42:43.000Z</time>
      </trkpt>
      <trkpt lat="47.733" lon="16.2127">
        <ele>346.214604</ele>
        <time>2026-07-07T13:42:44.000Z</time>
      </trkpt>
      <trkpt lat="47.73304" lon="16.21268">
        <ele>346.200668</ele>
        <time>2026-07-07T13:42:45.000Z</time>
      </trkpt>
      <trkpt lat="47.73307" lon="16.21266">
        <ele>346.186457</ele>
        <time>2026-07-07T13:42:46.000Z</time>
      </trkpt>
      <trkpt lat="47.73311" lon="16.21264">
        <ele>346.172589</ele>
        <time>2026-07-07T13:42:47.000Z</time>
      </trkpt>
      <trkpt lat="47.73314" lon="16.2126">
        <ele>346.158729</ele>
        <time>2026-07-07T13:42:48.000Z</time>
      </trkpt>
      <trkpt lat="47.73316" lon="16.21255">
        <ele>346.145078</ele>
        <time>2026-07-07T13:42:49.000Z</time>
      </trkpt>
      <trkpt lat="47.73317" lon="16.21249">
        <ele>346.130611</ele>
        <time>2026-07-07T13:42:50.000Z</time>
      </trkpt>
      <trkpt lat="47.73317" lon="16.21243">
        <ele>346.116289</ele>
        <time>2026-07-07T13:42:51.000Z</time>
      </trkpt>
      <trkpt lat="47.73316" lon="16.21237">
        <ele>346.101239</ele>
        <time>2026-07-07T13:42:52.000Z</time>
      </trkpt>
      <trkpt lat="47.73315" lon="16.21231">
        <ele>346.086189</ele>
        <time>2026-07-07T13:42:53.000Z</time>
      </trkpt>
      <trkpt lat="47.73314" lon="16.21225">
        <ele>346.070705</ele>
        <time>2026-07-07T13:42:54.000Z</time>
      </trkpt>
      <trkpt lat="47.73313" lon="16.21218">
        <ele>346.054636</ele>
        <time>2026-07-07T13:42:55.000Z</time>
      </trkpt>
      <trkpt lat="47.73312" lon="16.21212">
        <ele>346.038647</ele>
        <time>2026-07-07T13:42:56.000Z</time>
      </trkpt>
      <trkpt lat="47.73312" lon="16.21204">
        <ele>346.021244</ele>
        <time>2026-07-07T13:42:57.000Z</time>
      </trkpt>
      <trkpt lat="47.73313" lon="16.21197">
        <ele>346.003988</ele>
        <time>2026-07-07T13:42:58.000Z</time>
      </trkpt>
      <trkpt lat="47.73313" lon="16.2119">
        <ele>345.986732</ele>
        <time>2026-07-07T13:42:59.000Z</time>
      </trkpt>
      <trkpt lat="47.73314" lon="16.21183">
        <ele>345.969238</ele>
        <time>2026-07-07T13:43:00.000Z</time>
      </trkpt>
      <trkpt lat="47.73315" lon="16.21175">
        <ele>345.951895</ele>
        <time>2026-07-07T13:43:01.000Z</time>
      </trkpt>
      <trkpt lat="47.73315" lon="16.21168">
        <ele>345.934968</ele>
        <time>2026-07-07T13:43:02.000Z</time>
      </trkpt>
      <trkpt lat="47.73316" lon="16.21161">
        <ele>345.917861</ele>
        <time>2026-07-07T13:43:03.000Z</time>
      </trkpt>
      <trkpt lat="47.73317" lon="16.21154">
        <ele>345.900933</ele>
        <time>2026-07-07T13:43:04.000Z</time>
      </trkpt>
      <trkpt lat="47.73318" lon="16.21147">
        <ele>345.883475</ele>
        <time>2026-07-07T13:43:05.000Z</time>
      </trkpt>
      <trkpt lat="47.73318" lon="16.2114">
        <ele>345.866652</ele>
        <time>2026-07-07T13:43:06.000Z</time>
      </trkpt>
      <trkpt lat="47.73319" lon="16.21133">
        <ele>345.84978</ele>
        <time>2026-07-07T13:43:07.000Z</time>
      </trkpt>
      <trkpt lat="47.7332" lon="16.21126">
        <ele>345.833472</ele>
        <time>2026-07-07T13:43:08.000Z</time>
      </trkpt>
      <trkpt lat="47.7332" lon="16.21119">
        <ele>345.816928</ele>
        <time>2026-07-07T13:43:09.000Z</time>
      </trkpt>
      <trkpt lat="47.73321" lon="16.21113">
        <ele>345.801174</ele>
        <time>2026-07-07T13:43:10.000Z</time>
      </trkpt>
      <trkpt lat="47.73322" lon="16.21107">
        <ele>345.786422</ele>
        <time>2026-07-07T13:43:11.000Z</time>
      </trkpt>
      <trkpt lat="47.73322" lon="16.21101">
        <ele>345.772245</ele>
        <time>2026-07-07T13:43:12.000Z</time>
      </trkpt>
      <trkpt lat="47.73323" lon="16.21095">
        <ele>345.758777</ele>
        <time>2026-07-07T13:43:13.000Z</time>
      </trkpt>
      <trkpt lat="47.73323" lon="16.2109">
        <ele>345.746255</ele>
        <time>2026-07-07T13:43:14.000Z</time>
      </trkpt>
      <trkpt lat="47.73323" lon="16.21086">
        <ele>345.735503</ele>
        <time>2026-07-07T13:43:15.000Z</time>
      </trkpt>
      <trkpt lat="47.73323" lon="16.21081">
        <ele>345.72549</ele>
        <time>2026-07-07T13:43:16.000Z</time>
      </trkpt>
      <trkpt lat="47.73323" lon="16.21078">
        <ele>345.716431</ele>
        <time>2026-07-07T13:43:17.000Z</time>
      </trkpt>
      <trkpt lat="47.73323" lon="16.21074">
        <ele>345.707262</ele>
        <time>2026-07-07T13:43:18.000Z</time>
      </trkpt>
      <trkpt lat="47.73322" lon="16.21071">
        <ele>345.69928</ele>
        <time>2026-07-07T13:43:19.000Z</time>
      </trkpt>
      <trkpt lat="47.73321" lon="16.21068">
        <ele>345.692142</ele>
        <time>2026-07-07T13:43:20.000Z</time>
      </trkpt>
      <trkpt lat="47.73323" lon="16.21066">
        <ele>345.685203</ele>
        <time>2026-07-07T13:43:21.000Z</time>
      </trkpt>
      <trkpt lat="47.73325" lon="16.21065">
        <ele>345.676186</ele>
        <time>2026-07-07T13:43:22.000Z</time>
      </trkpt>
      <trkpt lat="47.73328" lon="16.21067">
        <ele>345.665276</ele>
        <time>2026-07-07T13:43:23.000Z</time>
      </trkpt>
      <trkpt lat="47.73331" lon="16.2107">
        <ele>345.652616</ele>
        <time>2026-07-07T13:43:24.000Z</time>
      </trkpt>
      <trkpt lat="47.73334" lon="16.21074">
        <ele>345.638526</ele>
        <time>2026-07-07T13:43:25.000Z</time>
      </trkpt>
      <trkpt lat="47.73337" lon="16.21077">
        <ele>345.623303</ele>
        <time>2026-07-07T13:43:26.000Z</time>
      </trkpt>
      <trkpt lat="47.73341" lon="16.21081">
        <ele>345.608508</ele>
        <time>2026-07-07T13:43:27.000Z</time>
      </trkpt>
      <trkpt lat="47.73345" lon="16.21085">
        <ele>345.592142</ele>
        <time>2026-07-07T13:43:28.000Z</time>
      </trkpt>
      <trkpt lat="47.73349" lon="16.21089">
        <ele>345.582317</ele>
        <time>2026-07-07T13:43:29.000Z</time>
      </trkpt>
      <trkpt lat="47.73352" lon="16.21093">
        <ele>345.581953</ele>
        <time>2026-07-07T13:43:30.000Z</time>
      </trkpt>
      <trkpt lat="47.73357" lon="16.21097">
        <ele>345.581569</ele>
        <time>2026-07-07T13:43:31.000Z</time>
      </trkpt>
      <trkpt lat="47.73361" lon="16.211">
        <ele>345.581198</ele>
        <time>2026-07-07T13:43:32.000Z</time>
      </trkpt>
      <trkpt lat="47.73364" lon="16.21104">
        <ele>345.580837</ele>
        <time>2026-07-07T13:43:33.000Z</time>
      </trkpt>
      <trkpt lat="47.73368" lon="16.21108">
        <ele>345.58046</ele>
        <time>2026-07-07T13:43:34.000Z</time>
      </trkpt>
      <trkpt lat="47.73372" lon="16.21112">
        <ele>345.580089</ele>
        <time>2026-07-07T13:43:35.000Z</time>
      </trkpt>
      <trkpt lat="47.73376" lon="16.21116">
        <ele>345.579718</ele>
        <time>2026-07-07T13:43:36.000Z</time>
      </trkpt>
      <trkpt lat="47.7338" lon="16.2112">
        <ele>345.579347</ele>
        <time>2026-07-07T13:43:37.000Z</time>
      </trkpt>
      <trkpt lat="47.73384" lon="16.21124">
        <ele>345.578986</ele>
        <time>2026-07-07T13:43:38.000Z</time>
      </trkpt>
      <trkpt lat="47.73388" lon="16.21128">
        <ele>345.578628</ele>
        <time>2026-07-07T13:43:39.000Z</time>
      </trkpt>
      <trkpt lat="47.73392" lon="16.21132">
        <ele>345.578264</ele>
        <time>2026-07-07T13:43:40.000Z</time>
      </trkpt>
      <trkpt lat="47.73395" lon="16.21136">
        <ele>345.577907</ele>
        <time>2026-07-07T13:43:41.000Z</time>
      </trkpt>
      <trkpt lat="47.73399" lon="16.2114">
        <ele>345.57753</ele>
        <time>2026-07-07T13:43:42.000Z</time>
      </trkpt>
      <trkpt lat="47.73403" lon="16.21144">
        <ele>345.577172</ele>
        <time>2026-07-07T13:43:43.000Z</time>
      </trkpt>
      <trkpt lat="47.73407" lon="16.21147">
        <ele>345.576814</ele>
        <time>2026-07-07T13:43:44.000Z</time>
      </trkpt>
      <trkpt lat="47.73411" lon="16.21151">
        <ele>345.576454</ele>
        <time>2026-07-07T13:43:45.000Z</time>
      </trkpt>
      <trkpt lat="47.73415" lon="16.21154">
        <ele>345.576108</ele>
        <time>2026-07-07T13:43:46.000Z</time>
      </trkpt>
      <trkpt lat="47.73419" lon="16.21156">
        <ele>345.57576</ele>
        <time>2026-07-07T13:43:47.000Z</time>
      </trkpt>
      <trkpt lat="47.73423" lon="16.21157">
        <ele>345.575422</ele>
        <time>2026-07-07T13:43:48.000Z</time>
      </trkpt>
      <trkpt lat="47.73427" lon="16.21159">
        <ele>345.575094</ele>
        <time>2026-07-07T13:43:49.000Z</time>
      </trkpt>
      <trkpt lat="47.73431" lon="16.2116">
        <ele>345.574777</ele>
        <time>2026-07-07T13:43:50.000Z</time>
      </trkpt>
      <trkpt lat="47.73435" lon="16.2116">
        <ele>345.574486</ele>
        <time>2026-07-07T13:43:51.000Z</time>
      </trkpt>
      <trkpt lat="47.73438" lon="16.21159">
        <ele>345.574225</ele>
        <time>2026-07-07T13:43:52.000Z</time>
      </trkpt>
      <trkpt lat="47.73441" lon="16.21155">
        <ele>345.573956</ele>
        <time>2026-07-07T13:43:53.000Z</time>
      </trkpt>
      <trkpt lat="47.73442" lon="16.2115">
        <ele>345.573674</ele>
        <time>2026-07-07T13:43:54.000Z</time>
      </trkpt>
      <trkpt lat="47.73442" lon="16.21144">
        <ele>345.573367</ele>
        <time>2026-07-07T13:43:55.000Z</time>
      </trkpt>
      <trkpt lat="47.73443" lon="16.21138">
        <ele>345.573023</ele>
        <time>2026-07-07T13:43:56.000Z</time>
      </trkpt>
      <trkpt lat="47.73443" lon="16.21131">
        <ele>345.57267</ele>
        <time>2026-07-07T13:43:57.000Z</time>
      </trkpt>
      <trkpt lat="47.73443" lon="16.21124">
        <ele>345.572291</ele>
        <time>2026-07-07T13:43:58.000Z</time>
      </trkpt>
      <trkpt lat="47.73444" lon="16.21117">
        <ele>345.571917</ele>
        <time>2026-07-07T13:43:59.000Z</time>
      </trkpt>
      <trkpt lat="47.73444" lon="16.21109">
        <ele>345.571528</ele>
        <time>2026-07-07T13:44:00.000Z</time>
      </trkpt>
      <trkpt lat="47.73444" lon="16.21102">
        <ele>345.571143</ele>
        <time>2026-07-07T13:44:01.000Z</time>
      </trkpt>
      <trkpt lat="47.73445" lon="16.21095">
        <ele>345.570762</ele>
        <time>2026-07-07T13:44:02.000Z</time>
      </trkpt>
      <trkpt lat="47.73445" lon="16.21088">
        <ele>345.570377</ele>
        <time>2026-07-07T13:44:03.000Z</time>
      </trkpt>
      <trkpt lat="47.73446" lon="16.2108">
        <ele>345.569991</ele>
        <time>2026-07-07T13:44:04.000Z</time>
      </trkpt>
      <trkpt lat="47.73446" lon="16.21073">
        <ele>345.569601</ele>
        <time>2026-07-07T13:44:05.000Z</time>
      </trkpt>
      <trkpt lat="47.73446" lon="16.21065">
        <ele>345.569207</ele>
        <time>2026-07-07T13:44:06.000Z</time>
      </trkpt>
      <trkpt lat="47.73446" lon="16.21058">
        <ele>345.568832</ele>
        <time>2026-07-07T13:44:07.000Z</time>
      </trkpt>
      <trkpt lat="47.73447" lon="16.21051">
        <ele>345.568439</ele>
        <time>2026-07-07T13:44:08.000Z</time>
      </trkpt>
      <trkpt lat="47.73447" lon="16.21044">
        <ele>345.590084</ele>
        <time>2026-07-07T13:44:09.000Z</time>
      </trkpt>
      <trkpt lat="47.73448" lon="16.21036">
        <ele>345.613931</ele>
        <time>2026-07-07T13:44:10.000Z</time>
      </trkpt>
      <trkpt lat="47.73448" lon="16.21029">
        <ele>345.637425</ele>
        <time>2026-07-07T13:44:11.000Z</time>
      </trkpt>
      <trkpt lat="47.73449" lon="16.21022">
        <ele>345.661636</ele>
        <time>2026-07-07T13:44:12.000Z</time>
      </trkpt>
      <trkpt lat="47.73449" lon="16.21014">
        <ele>345.685846</ele>
        <time>2026-07-07T13:44:13.000Z</time>
      </trkpt>
      <trkpt lat="47.73449" lon="16.21007">
        <ele>345.709957</ele>
        <time>2026-07-07T13:44:14.000Z</time>
      </trkpt>
      <trkpt lat="47.7345" lon="16.20999">
        <ele>345.734168</ele>
        <time>2026-07-07T13:44:15.000Z</time>
      </trkpt>
      <trkpt lat="47.7345" lon="16.20992">
        <ele>345.758303</ele>
        <time>2026-07-07T13:44:16.000Z</time>
      </trkpt>
      <trkpt lat="47.73451" lon="16.20984">
        <ele>345.782513</ele>
        <time>2026-07-07T13:44:17.000Z</time>
      </trkpt>
      <trkpt lat="47.73451" lon="16.20977">
        <ele>345.806648</ele>
        <time>2026-07-07T13:44:18.000Z</time>
      </trkpt>
      <trkpt lat="47.73451" lon="16.20969">
        <ele>345.831457</ele>
        <time>2026-07-07T13:44:19.000Z</time>
      </trkpt>
      <trkpt lat="47.73451" lon="16.20962">
        <ele>345.854912</ele>
        <time>2026-07-07T13:44:20.000Z</time>
      </trkpt>
      <trkpt lat="47.73452" lon="16.20954">
        <ele>345.87908</ele>
        <time>2026-07-07T13:44:21.000Z</time>
      </trkpt>
      <trkpt lat="47.73452" lon="16.20947">
        <ele>345.903215</ele>
        <time>2026-07-07T13:44:22.000Z</time>
      </trkpt>
      <trkpt lat="47.73452" lon="16.20939">
        <ele>345.926708</ele>
        <time>2026-07-07T13:44:23.000Z</time>
      </trkpt>
      <trkpt lat="47.73453" lon="16.20932">
        <ele>345.949916</ele>
        <time>2026-07-07T13:44:24.000Z</time>
      </trkpt>
      <trkpt lat="47.73453" lon="16.20925">
        <ele>345.973089</ele>
        <time>2026-07-07T13:44:25.000Z</time>
      </trkpt>
      <trkpt lat="47.73453" lon="16.20918">
        <ele>345.995621</ele>
        <time>2026-07-07T13:44:26.000Z</time>
      </trkpt>
      <trkpt lat="47.73454" lon="16.20911">
        <ele>346.017548</ele>
        <time>2026-07-07T13:44:27.000Z</time>
      </trkpt>
      <trkpt lat="47.73454" lon="16.20904">
        <ele>346.039439</ele>
        <time>2026-07-07T13:44:28.000Z</time>
      </trkpt>
      <trkpt lat="47.73454" lon="16.20898">
        <ele>346.060368</ele>
        <time>2026-07-07T13:44:29.000Z</time>
      </trkpt>
      <trkpt lat="47.73455" lon="16.20891">
        <ele>346.082615</ele>
        <time>2026-07-07T13:44:30.000Z</time>
      </trkpt>
      <trkpt lat="47.73455" lon="16.20884">
        <ele>346.103865</ele>
        <time>2026-07-07T13:44:31.000Z</time>
      </trkpt>
      <trkpt lat="47.73455" lon="16.20877">
        <ele>346.126076</ele>
        <time>2026-07-07T13:44:32.000Z</time>
      </trkpt>
      <trkpt lat="47.73456" lon="16.20871">
        <ele>346.147299</ele>
        <time>2026-07-07T13:44:33.000Z</time>
      </trkpt>
      <trkpt lat="47.73456" lon="16.20864">
        <ele>346.168842</ele>
        <time>2026-07-07T13:44:34.000Z</time>
      </trkpt>
      <trkpt lat="47.73456" lon="16.20857">
        <ele>346.190686</ele>
        <time>2026-07-07T13:44:35.000Z</time>
      </trkpt>
      <trkpt lat="47.73456" lon="16.2085">
        <ele>346.212872</ele>
        <time>2026-07-07T13:44:36.000Z</time>
      </trkpt>
      <trkpt lat="47.73455" lon="16.20844">
        <ele>346.234207</ele>
        <time>2026-07-07T13:44:37.000Z</time>
      </trkpt>
      <trkpt lat="47.73454" lon="16.20837">
        <ele>346.256623</ele>
        <time>2026-07-07T13:44:38.000Z</time>
      </trkpt>
      <trkpt lat="47.73453" lon="16.2083">
        <ele>346.278356</ele>
        <time>2026-07-07T13:44:39.000Z</time>
      </trkpt>
      <trkpt lat="47.73452" lon="16.20823">
        <ele>346.301135</ele>
        <time>2026-07-07T13:44:40.000Z</time>
      </trkpt>
      <trkpt lat="47.73451" lon="16.20817">
        <ele>346.324123</ele>
        <time>2026-07-07T13:44:41.000Z</time>
      </trkpt>
      <trkpt lat="47.73449" lon="16.2081">
        <ele>346.346527</ele>
        <time>2026-07-07T13:44:42.000Z</time>
      </trkpt>
      <trkpt lat="47.73447" lon="16.20804">
        <ele>346.369107</ele>
        <time>2026-07-07T13:44:43.000Z</time>
      </trkpt>
      <trkpt lat="47.73445" lon="16.20798">
        <ele>346.391059</ele>
        <time>2026-07-07T13:44:44.000Z</time>
      </trkpt>
      <trkpt lat="47.73442" lon="16.20792">
        <ele>346.413218</ele>
        <time>2026-07-07T13:44:45.000Z</time>
      </trkpt>
      <trkpt lat="47.73439" lon="16.20787">
        <ele>346.431008</ele>
        <time>2026-07-07T13:44:46.000Z</time>
      </trkpt>
      <trkpt lat="47.73437" lon="16.20781">
        <ele>346.440543</ele>
        <time>2026-07-07T13:44:47.000Z</time>
      </trkpt>
      <trkpt lat="47.73434" lon="16.20776">
        <ele>346.450014</ele>
        <time>2026-07-07T13:44:48.000Z</time>
      </trkpt>
      <trkpt lat="47.7343" lon="16.20771">
        <ele>346.459356</ele>
        <time>2026-07-07T13:44:49.000Z</time>
      </trkpt>
      <trkpt lat="47.73427" lon="16.20767">
        <ele>346.468866</ele>
        <time>2026-07-07T13:44:50.000Z</time>
      </trkpt>
      <trkpt lat="47.73423" lon="16.20762">
        <ele>346.47811</ele>
        <time>2026-07-07T13:44:51.000Z</time>
      </trkpt>
      <trkpt lat="47.7342" lon="16.20759">
        <ele>346.48695</ele>
        <time>2026-07-07T13:44:52.000Z</time>
      </trkpt>
      <trkpt lat="47.73416" lon="16.20756">
        <ele>346.495361</ele>
        <time>2026-07-07T13:44:53.000Z</time>
      </trkpt>
      <trkpt lat="47.73412" lon="16.20754">
        <ele>346.503846</ele>
        <time>2026-07-07T13:44:54.000Z</time>
      </trkpt>
      <trkpt lat="47.73409" lon="16.20752">
        <ele>346.511986</ele>
        <time>2026-07-07T13:44:55.000Z</time>
      </trkpt>
      <trkpt lat="47.73406" lon="16.20748">
        <ele>346.519416</ele>
        <time>2026-07-07T13:44:56.000Z</time>
      </trkpt>
      <trkpt lat="47.73405" lon="16.20744">
        <ele>346.525444</ele>
        <time>2026-07-07T13:44:57.000Z</time>
      </trkpt>
      <trkpt lat="47.73405" lon="16.20739">
        <ele>346.532246</ele>
        <time>2026-07-07T13:44:58.000Z</time>
      </trkpt>
      <trkpt lat="47.73406" lon="16.20734">
        <ele>346.539584</ele>
        <time>2026-07-07T13:44:59.000Z</time>
      </trkpt>
      <trkpt lat="47.73407" lon="16.20729">
        <ele>346.546987</ele>
        <time>2026-07-07T13:45:00.000Z</time>
      </trkpt>
      <trkpt lat="47.73408" lon="16.20723">
        <ele>346.555322</ele>
        <time>2026-07-07T13:45:01.000Z</time>
      </trkpt>
      <trkpt lat="47.73406" lon="16.20718">
        <ele>346.563451</ele>
        <time>2026-07-07T13:45:02.000Z</time>
      </trkpt>
      <trkpt lat="47.73405" lon="16.20712">
        <ele>346.571527</ele>
        <time>2026-07-07T13:45:03.000Z</time>
      </trkpt>
      <trkpt lat="47.73403" lon="16.20707">
        <ele>346.579488</ele>
        <time>2026-07-07T13:45:04.000Z</time>
      </trkpt>
      <trkpt lat="47.73401" lon="16.20703">
        <ele>346.586944</ele>
        <time>2026-07-07T13:45:05.000Z</time>
      </trkpt>
      <trkpt lat="47.73398" lon="16.20699">
        <ele>346.594491</ele>
        <time>2026-07-07T13:45:06.000Z</time>
      </trkpt>
      <trkpt lat="47.73396" lon="16.20696">
        <ele>346.601584</ele>
        <time>2026-07-07T13:45:07.000Z</time>
      </trkpt>
      <trkpt lat="47.73393" lon="16.20693">
        <ele>346.608519</ele>
        <time>2026-07-07T13:45:08.000Z</time>
      </trkpt>
      <trkpt lat="47.7339" lon="16.20691">
        <ele>346.61521</ele>
        <time>2026-07-07T13:45:09.000Z</time>
      </trkpt>
      <trkpt lat="47.73387" lon="16.20691">
        <ele>346.621619</ele>
        <time>2026-07-07T13:45:10.000Z</time>
      </trkpt>
      <trkpt lat="47.73383" lon="16.20691">
        <ele>346.628641</ele>
        <time>2026-07-07T13:45:11.000Z</time>
      </trkpt>
      <trkpt lat="47.7338" lon="16.20692">
        <ele>346.636122</ele>
        <time>2026-07-07T13:45:12.000Z</time>
      </trkpt>
      <trkpt lat="47.73376" lon="16.20693">
        <ele>346.644368</ele>
        <time>2026-07-07T13:45:13.000Z</time>
      </trkpt>
      <trkpt lat="47.73372" lon="16.20696">
        <ele>346.652534</ele>
        <time>2026-07-07T13:45:14.000Z</time>
      </trkpt>
      <trkpt lat="47.73369" lon="16.207">
        <ele>346.661399</ele>
        <time>2026-07-07T13:45:15.000Z</time>
      </trkpt>
      <trkpt lat="47.73366" lon="16.20705">
        <ele>346.670589</ele>
        <time>2026-07-07T13:45:16.000Z</time>
      </trkpt>
      <trkpt lat="47.73364" lon="16.20711">
        <ele>346.679817</ele>
        <time>2026-07-07T13:45:17.000Z</time>
      </trkpt>
      <trkpt lat="47.73362" lon="16.20718">
        <ele>346.689825</ele>
        <time>2026-07-07T13:45:18.000Z</time>
      </trkpt>
      <trkpt lat="47.73359" lon="16.20724">
        <ele>346.699925</ele>
        <time>2026-07-07T13:45:19.000Z</time>
      </trkpt>
      <trkpt lat="47.73356" lon="16.20729">
        <ele>346.70977</ele>
        <time>2026-07-07T13:45:20.000Z</time>
      </trkpt>
      <trkpt lat="47.73352" lon="16.20734">
        <ele>346.719929</ele>
        <time>2026-07-07T13:45:21.000Z</time>
      </trkpt>
      <trkpt lat="47.73348" lon="16.20738">
        <ele>346.730034</ele>
        <time>2026-07-07T13:45:22.000Z</time>
      </trkpt>
      <trkpt lat="47.73344" lon="16.20741">
        <ele>346.740109</ele>
        <time>2026-07-07T13:45:23.000Z</time>
      </trkpt>
      <trkpt lat="47.73339" lon="16.20744">
        <ele>346.750733</ele>
        <time>2026-07-07T13:45:24.000Z</time>
      </trkpt>
      <trkpt lat="47.73334" lon="16.20747">
        <ele>346.761139</ele>
        <time>2026-07-07T13:45:25.000Z</time>
      </trkpt>
      <trkpt lat="47.7333" lon="16.2075">
        <ele>346.771687</ele>
        <time>2026-07-07T13:45:26.000Z</time>
      </trkpt>
      <trkpt lat="47.73325" lon="16.20752">
        <ele>346.782187</ele>
        <time>2026-07-07T13:45:27.000Z</time>
      </trkpt>
      <trkpt lat="47.7332" lon="16.20755">
        <ele>346.792542</ele>
        <time>2026-07-07T13:45:28.000Z</time>
      </trkpt>
      <trkpt lat="47.73315" lon="16.20758">
        <ele>346.827438</ele>
        <time>2026-07-07T13:45:29.000Z</time>
      </trkpt>
      <trkpt lat="47.73311" lon="16.20761">
        <ele>346.879063</ele>
        <time>2026-07-07T13:45:30.000Z</time>
      </trkpt>
      <trkpt lat="47.73306" lon="16.20764">
        <ele>346.930418</ele>
        <time>2026-07-07T13:45:31.000Z</time>
      </trkpt>
      <trkpt lat="47.73301" lon="16.20768">
        <ele>346.981409</ele>
        <time>2026-07-07T13:45:32.000Z</time>
      </trkpt>
      <trkpt lat="47.73296" lon="16.20771">
        <ele>347.034614</ele>
        <time>2026-07-07T13:45:33.000Z</time>
      </trkpt>
      <trkpt lat="47.73292" lon="16.20773">
        <ele>347.085679</ele>
        <time>2026-07-07T13:45:34.000Z</time>
      </trkpt>
      <trkpt lat="47.73287" lon="16.20776">
        <ele>347.135798</ele>
        <time>2026-07-07T13:45:35.000Z</time>
      </trkpt>
      <trkpt lat="47.73282" lon="16.20778">
        <ele>347.18623</ele>
        <time>2026-07-07T13:45:36.000Z</time>
      </trkpt>
      <trkpt lat="47.73277" lon="16.2078">
        <ele>347.236467</ele>
        <time>2026-07-07T13:45:37.000Z</time>
      </trkpt>
      <trkpt lat="47.73272" lon="16.20782">
        <ele>347.287859</ele>
        <time>2026-07-07T13:45:38.000Z</time>
      </trkpt>
      <trkpt lat="47.73267" lon="16.20784">
        <ele>347.339845</ele>
        <time>2026-07-07T13:45:39.000Z</time>
      </trkpt>
      <trkpt lat="47.73263" lon="16.20786">
        <ele>347.390277</ele>
        <time>2026-07-07T13:45:40.000Z</time>
      </trkpt>
      <trkpt lat="47.73258" lon="16.20788">
        <ele>347.440327</ele>
        <time>2026-07-07T13:45:41.000Z</time>
      </trkpt>
      <trkpt lat="47.73253" lon="16.2079">
        <ele>347.491345</ele>
        <time>2026-07-07T13:45:42.000Z</time>
      </trkpt>
      <trkpt lat="47.73248" lon="16.20792">
        <ele>347.541582</ele>
        <time>2026-07-07T13:45:43.000Z</time>
      </trkpt>
      <trkpt lat="47.73243" lon="16.20794">
        <ele>347.590667</ele>
        <time>2026-07-07T13:45:44.000Z</time>
      </trkpt>
      <trkpt lat="47.73239" lon="16.20796">
        <ele>347.638787</ele>
        <time>2026-07-07T13:45:45.000Z</time>
      </trkpt>
      <trkpt lat="47.73234" lon="16.20798">
        <ele>347.689805</ele>
        <time>2026-07-07T13:45:46.000Z</time>
      </trkpt>
      <trkpt lat="47.73229" lon="16.208">
        <ele>347.739677</ele>
        <time>2026-07-07T13:45:47.000Z</time>
      </trkpt>
      <trkpt lat="47.73224" lon="16.20802">
        <ele>347.78938</ele>
        <time>2026-07-07T13:45:48.000Z</time>
      </trkpt>
      <trkpt lat="47.73219" lon="16.20804">
        <ele>347.839899</ele>
        <time>2026-07-07T13:45:49.000Z</time>
      </trkpt>
      <trkpt lat="47.73215" lon="16.20805">
        <ele>347.887183</ele>
        <time>2026-07-07T13:45:50.000Z</time>
      </trkpt>
      <trkpt lat="47.7321" lon="16.20807">
        <ele>347.937158</ele>
        <time>2026-07-07T13:45:51.000Z</time>
      </trkpt>
      <trkpt lat="47.73205" lon="16.20808">
        <ele>347.984441</ele>
        <time>2026-07-07T13:45:52.000Z</time>
      </trkpt>
      <trkpt lat="47.73201" lon="16.20809">
        <ele>348.03244</ele>
        <time>2026-07-07T13:45:53.000Z</time>
      </trkpt>
      <trkpt lat="47.73196" lon="16.20811">
        <ele>348.081311</ele>
        <time>2026-07-07T13:45:54.000Z</time>
      </trkpt>
      <trkpt lat="47.73191" lon="16.20812">
        <ele>348.129191</ele>
        <time>2026-07-07T13:45:55.000Z</time>
      </trkpt>
      <trkpt lat="47.73186" lon="16.20813">
        <ele>348.176962</ele>
        <time>2026-07-07T13:45:56.000Z</time>
      </trkpt>
      <trkpt lat="47.73182" lon="16.20814">
        <ele>348.225832</ele>
        <time>2026-07-07T13:45:57.000Z</time>
      </trkpt>
      <trkpt lat="47.73177" lon="16.20815">
        <ele>348.27333</ele>
        <time>2026-07-07T13:45:58.000Z</time>
      </trkpt>
      <trkpt lat="47.73172" lon="16.20815">
        <ele>348.321642</ele>
        <time>2026-07-07T13:45:59.000Z</time>
      </trkpt>
      <trkpt lat="47.73167" lon="16.20816">
        <ele>348.369954</ele>
        <time>2026-07-07T13:46:00.000Z</time>
      </trkpt>
      <trkpt lat="47.73162" lon="16.20816">
        <ele>348.419267</ele>
        <time>2026-07-07T13:46:01.000Z</time>
      </trkpt>
      <trkpt lat="47.73157" lon="16.20817">
        <ele>348.469582</ele>
        <time>2026-07-07T13:46:02.000Z</time>
      </trkpt>
      <trkpt lat="47.73153" lon="16.20818">
        <ele>348.518007</ele>
        <time>2026-07-07T13:46:03.000Z</time>
      </trkpt>
      <trkpt lat="47.73148" lon="16.20818">
        <ele>348.56524</ele>
        <time>2026-07-07T13:46:04.000Z</time>
      </trkpt>
      <trkpt lat="47.73144" lon="16.20818">
        <ele>348.608309</ele>
        <time>2026-07-07T13:46:05.000Z</time>
      </trkpt>
      <trkpt lat="47.73139" lon="16.20818">
        <ele>348.649657</ele>
        <time>2026-07-07T13:46:06.000Z</time>
      </trkpt>
      <trkpt lat="47.73135" lon="16.20818">
        <ele>348.689053</ele>
        <time>2026-07-07T13:46:07.000Z</time>
      </trkpt>
      <trkpt lat="47.73132" lon="16.20817">
        <ele>348.726511</ele>
        <time>2026-07-07T13:46:08.000Z</time>
      </trkpt>
      <trkpt lat="47.73128" lon="16.20817">
        <ele>348.763922</ele>
        <time>2026-07-07T13:46:09.000Z</time>
      </trkpt>
      <trkpt lat="47.73124" lon="16.20818">
        <ele>348.802403</ele>
        <time>2026-07-07T13:46:10.000Z</time>
      </trkpt>
      <trkpt lat="47.7312" lon="16.20818">
        <ele>348.841782</ele>
        <time>2026-07-07T13:46:11.000Z</time>
      </trkpt>
      <trkpt lat="47.73116" lon="16.20818">
        <ele>348.881178</ele>
        <time>2026-07-07T13:46:12.000Z</time>
      </trkpt>
      <trkpt lat="47.73112" lon="16.20818">
        <ele>348.921672</ele>
        <time>2026-07-07T13:46:13.000Z</time>
      </trkpt>
      <trkpt lat="47.73107" lon="16.20816">
        <ele>348.966107</ele>
        <time>2026-07-07T13:46:14.000Z</time>
      </trkpt>
      <trkpt lat="47.73103" lon="16.20814">
        <ele>349.01234</ele>
        <time>2026-07-07T13:46:15.000Z</time>
      </trkpt>
      <trkpt lat="47.73098" lon="16.20812">
        <ele>349.059516</ele>
        <time>2026-07-07T13:46:16.000Z</time>
      </trkpt>
      <trkpt lat="47.73094" lon="16.2081">
        <ele>349.10802</ele>
        <time>2026-07-07T13:46:17.000Z</time>
      </trkpt>
      <trkpt lat="47.73089" lon="16.20807">
        <ele>349.156038</ele>
        <time>2026-07-07T13:46:18.000Z</time>
      </trkpt>
      <trkpt lat="47.73085" lon="16.20804">
        <ele>349.20514</ele>
        <time>2026-07-07T13:46:19.000Z</time>
      </trkpt>
      <trkpt lat="47.7308" lon="16.208">
        <ele>349.255131</ele>
        <time>2026-07-07T13:46:20.000Z</time>
      </trkpt>
      <trkpt lat="47.73076" lon="16.20797">
        <ele>349.303527</ele>
        <time>2026-07-07T13:46:21.000Z</time>
      </trkpt>
      <trkpt lat="47.73072" lon="16.20793">
        <ele>349.353457</ele>
        <time>2026-07-07T13:46:22.000Z</time>
      </trkpt>
      <trkpt lat="47.73067" lon="16.20789">
        <ele>349.402697</ele>
        <time>2026-07-07T13:46:23.000Z</time>
      </trkpt>
      <trkpt lat="47.73063" lon="16.20785">
        <ele>349.450148</ele>
        <time>2026-07-07T13:46:24.000Z</time>
      </trkpt>
      <trkpt lat="47.73059" lon="16.20781">
        <ele>349.498352</ele>
        <time>2026-07-07T13:46:25.000Z</time>
      </trkpt>
      <trkpt lat="47.73055" lon="16.20776">
        <ele>349.54694</ele>
        <time>2026-07-07T13:46:26.000Z</time>
      </trkpt>
      <trkpt lat="47.73051" lon="16.20772">
        <ele>349.595535</ele>
        <time>2026-07-07T13:46:27.000Z</time>
      </trkpt>
      <trkpt lat="47.73048" lon="16.20767">
        <ele>349.645049</ele>
        <time>2026-07-07T13:46:28.000Z</time>
      </trkpt>
      <trkpt lat="47.73044" lon="16.20762">
        <ele>349.694425</ele>
        <time>2026-07-07T13:46:29.000Z</time>
      </trkpt>
      <trkpt lat="47.7304" lon="16.20758">
        <ele>349.742662</ele>
        <time>2026-07-07T13:46:30.000Z</time>
      </trkpt>
      <trkpt lat="47.73036" lon="16.20753">
        <ele>349.793622</ele>
        <time>2026-07-07T13:46:31.000Z</time>
      </trkpt>
      <trkpt lat="47.73031" lon="16.20749">
        <ele>349.844197</ele>
        <time>2026-07-07T13:46:32.000Z</time>
      </trkpt>
      <trkpt lat="47.73027" lon="16.20744">
        <ele>349.894362</ele>
        <time>2026-07-07T13:46:33.000Z</time>
      </trkpt>
      <trkpt lat="47.73023" lon="16.2074">
        <ele>349.944559</ele>
        <time>2026-07-07T13:46:34.000Z</time>
      </trkpt>
      <trkpt lat="47.73019" lon="16.20736">
        <ele>349.994384</ele>
        <time>2026-07-07T13:46:35.000Z</time>
      </trkpt>
      <trkpt lat="47.73015" lon="16.20732">
        <ele>350.045394</ele>
        <time>2026-07-07T13:46:36.000Z</time>
      </trkpt>
      <trkpt lat="47.7301" lon="16.20727">
        <ele>350.095219</ele>
        <time>2026-07-07T13:46:37.000Z</time>
      </trkpt>
      <trkpt lat="47.73006" lon="16.20723">
        <ele>350.145503</ele>
        <time>2026-07-07T13:46:38.000Z</time>
      </trkpt>
      <trkpt lat="47.73002" lon="16.20719">
        <ele>350.195433</ele>
        <time>2026-07-07T13:46:39.000Z</time>
      </trkpt>
      <trkpt lat="47.72998" lon="16.20715">
        <ele>350.244177</ele>
        <time>2026-07-07T13:46:40.000Z</time>
      </trkpt>
      <trkpt lat="47.72993" lon="16.20712">
        <ele>350.293417</ele>
        <time>2026-07-07T13:46:41.000Z</time>
      </trkpt>
      <trkpt lat="47.72989" lon="16.20708">
        <ele>350.342515</ele>
        <time>2026-07-07T13:46:42.000Z</time>
      </trkpt>
      <trkpt lat="47.72985" lon="16.20704">
        <ele>350.379228</ele>
        <time>2026-07-07T13:46:43.000Z</time>
      </trkpt>
      <trkpt lat="47.72981" lon="16.207">
        <ele>350.394547</ele>
        <time>2026-07-07T13:46:44.000Z</time>
      </trkpt>
      <trkpt lat="47.72976" lon="16.20696">
        <ele>350.410126</ele>
        <time>2026-07-07T13:46:45.000Z</time>
      </trkpt>
      <trkpt lat="47.72972" lon="16.20691">
        <ele>350.426413</ele>
        <time>2026-07-07T13:46:46.000Z</time>
      </trkpt>
      <trkpt lat="47.72968" lon="16.20687">
        <ele>350.442564</ele>
        <time>2026-07-07T13:46:47.000Z</time>
      </trkpt>
      <trkpt lat="47.72963" lon="16.20682">
        <ele>350.458586</ele>
        <time>2026-07-07T13:46:48.000Z</time>
      </trkpt>
      <trkpt lat="47.72959" lon="16.20677">
        <ele>350.475138</ele>
        <time>2026-07-07T13:46:49.000Z</time>
      </trkpt>
      <trkpt lat="47.72955" lon="16.20672">
        <ele>350.491594</ele>
        <time>2026-07-07T13:46:50.000Z</time>
      </trkpt>
      <trkpt lat="47.72951" lon="16.20666">
        <ele>350.508392</ele>
        <time>2026-07-07T13:46:51.000Z</time>
      </trkpt>
      <trkpt lat="47.72948" lon="16.2066">
        <ele>350.525118</ele>
        <time>2026-07-07T13:46:52.000Z</time>
      </trkpt>
      <trkpt lat="47.72944" lon="16.20655">
        <ele>350.541698</ele>
        <time>2026-07-07T13:46:53.000Z</time>
      </trkpt>
      <trkpt lat="47.7294" lon="16.20649">
        <ele>350.558208</ele>
        <time>2026-07-07T13:46:54.000Z</time>
      </trkpt>
      <trkpt lat="47.72936" lon="16.20644">
        <ele>350.574497</ele>
        <time>2026-07-07T13:46:55.000Z</time>
      </trkpt>
      <trkpt lat="47.72932" lon="16.20638">
        <ele>350.590953</ele>
        <time>2026-07-07T13:46:56.000Z</time>
      </trkpt>
      <trkpt lat="47.72928" lon="16.20633">
        <ele>350.607971</ele>
        <time>2026-07-07T13:46:57.000Z</time>
      </trkpt>
      <trkpt lat="47.72924" lon="16.20627">
        <ele>350.624336</ele>
        <time>2026-07-07T13:46:58.000Z</time>
      </trkpt>
      <trkpt lat="47.72921" lon="16.20621">
        <ele>350.640339</ele>
        <time>2026-07-07T13:46:59.000Z</time>
      </trkpt>
      <trkpt lat="47.72917" lon="16.20616">
        <ele>350.656409</ele>
        <time>2026-07-07T13:47:00.000Z</time>
      </trkpt>
      <trkpt lat="47.72914" lon="16.2061">
        <ele>350.672051</ele>
        <time>2026-07-07T13:47:01.000Z</time>
      </trkpt>
      <trkpt lat="47.7291" lon="16.20605">
        <ele>350.688339</ele>
        <time>2026-07-07T13:47:02.000Z</time>
      </trkpt>
      <trkpt lat="47.72906" lon="16.20599">
        <ele>350.704849</ele>
        <time>2026-07-07T13:47:03.000Z</time>
      </trkpt>
      <trkpt lat="47.72902" lon="16.20594">
        <ele>350.721429</ele>
        <time>2026-07-07T13:47:04.000Z</time>
      </trkpt>
      <trkpt lat="47.72898" lon="16.20588">
        <ele>350.737886</ele>
        <time>2026-07-07T13:47:05.000Z</time>
      </trkpt>
      <trkpt lat="47.72894" lon="16.20583">
        <ele>350.754206</ele>
        <time>2026-07-07T13:47:06.000Z</time>
      </trkpt>
      <trkpt lat="47.7289" lon="16.20578">
        <ele>350.770662</ele>
        <time>2026-07-07T13:47:07.000Z</time>
      </trkpt>
      <trkpt lat="47.72886" lon="16.20572">
        <ele>350.787717</ele>
        <time>2026-07-07T13:47:08.000Z</time>
      </trkpt>
      <trkpt lat="47.72882" lon="16.20567">
        <ele>350.803768</ele>
        <time>2026-07-07T13:47:09.000Z</time>
      </trkpt>
      <trkpt lat="47.72878" lon="16.20562">
        <ele>350.820055</ele>
        <time>2026-07-07T13:47:10.000Z</time>
      </trkpt>
      <trkpt lat="47.72874" lon="16.20558">
        <ele>350.835843</ele>
        <time>2026-07-07T13:47:11.000Z</time>
      </trkpt>
      <trkpt lat="47.7287" lon="16.20553">
        <ele>350.852114</ele>
        <time>2026-07-07T13:47:12.000Z</time>
      </trkpt>
      <trkpt lat="47.72866" lon="16.20548">
        <ele>350.867976</ele>
        <time>2026-07-07T13:47:13.000Z</time>
      </trkpt>
      <trkpt lat="47.72862" lon="16.20543">
        <ele>350.884027</ele>
        <time>2026-07-07T13:47:14.000Z</time>
      </trkpt>
      <trkpt lat="47.72858" lon="16.20537">
        <ele>350.900117</ele>
        <time>2026-07-07T13:47:15.000Z</time>
      </trkpt>
      <trkpt lat="47.72854" lon="16.20532">
        <ele>350.915703</ele>
        <time>2026-07-07T13:47:16.000Z</time>
      </trkpt>
      <trkpt lat="47.7285" lon="16.20528">
        <ele>350.928832</ele>
        <time>2026-07-07T13:47:17.000Z</time>
      </trkpt>
      <trkpt lat="47.72847" lon="16.20523">
        <ele>350.93728</ele>
        <time>2026-07-07T13:47:18.000Z</time>
      </trkpt>
      <trkpt lat="47.72843" lon="16.20517">
        <ele>350.946223</ele>
        <time>2026-07-07T13:47:19.000Z</time>
      </trkpt>
      <trkpt lat="47.7284" lon="16.20512">
        <ele>350.954764</ele>
        <time>2026-07-07T13:47:20.000Z</time>
      </trkpt>
      <trkpt lat="47.72836" lon="16.20506">
        <ele>350.963596</ele>
        <time>2026-07-07T13:47:21.000Z</time>
      </trkpt>
      <trkpt lat="47.72833" lon="16.205">
        <ele>350.972453</ele>
        <time>2026-07-07T13:47:22.000Z</time>
      </trkpt>
      <trkpt lat="47.7283" lon="16.20494">
        <ele>350.981394</ele>
        <time>2026-07-07T13:47:23.000Z</time>
      </trkpt>
      <trkpt lat="47.72828" lon="16.20488">
        <ele>350.990338</ele>
        <time>2026-07-07T13:47:24.000Z</time>
      </trkpt>
      <trkpt lat="47.72825" lon="16.20481">
        <ele>350.999248</ele>
        <time>2026-07-07T13:47:25.000Z</time>
      </trkpt>
      <trkpt lat="47.72823" lon="16.20473">
        <ele>351.00872</ele>
        <time>2026-07-07T13:47:26.000Z</time>
      </trkpt>
      <trkpt lat="47.72821" lon="16.20466">
        <ele>351.018042</ele>
        <time>2026-07-07T13:47:27.000Z</time>
      </trkpt>
      <trkpt lat="47.7282" lon="16.20458">
        <ele>351.027864</ele>
        <time>2026-07-07T13:47:28.000Z</time>
      </trkpt>
      <trkpt lat="47.72818" lon="16.2045">
        <ele>351.037613</ele>
        <time>2026-07-07T13:47:29.000Z</time>
      </trkpt>
      <trkpt lat="47.72817" lon="16.20441">
        <ele>351.047687</ele>
        <time>2026-07-07T13:47:30.000Z</time>
      </trkpt>
      <trkpt lat="47.72817" lon="16.20433">
        <ele>351.057692</ele>
        <time>2026-07-07T13:47:31.000Z</time>
      </trkpt>
      <trkpt lat="47.72816" lon="16.20424">
        <ele>351.067681</ele>
        <time>2026-07-07T13:47:32.000Z</time>
      </trkpt>
      <trkpt lat="47.72816" lon="16.20416">
        <ele>351.077657</ele>
        <time>2026-07-07T13:47:33.000Z</time>
      </trkpt>
      <trkpt lat="47.72816" lon="16.20407">
        <ele>351.087621</ele>
        <time>2026-07-07T13:47:34.000Z</time>
      </trkpt>
      <trkpt lat="47.72815" lon="16.20399">
        <ele>351.097578</ele>
        <time>2026-07-07T13:47:35.000Z</time>
      </trkpt>
      <trkpt lat="47.72815" lon="16.2039">
        <ele>351.107451</ele>
        <time>2026-07-07T13:47:36.000Z</time>
      </trkpt>
      <trkpt lat="47.72814" lon="16.20382">
        <ele>351.117207</ele>
        <time>2026-07-07T13:47:37.000Z</time>
      </trkpt>
      <trkpt lat="47.72814" lon="16.20374">
        <ele>351.126962</ele>
        <time>2026-07-07T13:47:38.000Z</time>
      </trkpt>
      <trkpt lat="47.72814" lon="16.20365">
        <ele>351.13681</ele>
        <time>2026-07-07T13:47:39.000Z</time>
      </trkpt>
      <trkpt lat="47.72813" lon="16.20357">
        <ele>351.146371</ele>
        <time>2026-07-07T13:47:40.000Z</time>
      </trkpt>
      <trkpt lat="47.72812" lon="16.20349">
        <ele>351.156071</ele>
        <time>2026-07-07T13:47:41.000Z</time>
      </trkpt>
      <trkpt lat="47.72811" lon="16.20341">
        <ele>351.165597</ele>
        <time>2026-07-07T13:47:42.000Z</time>
      </trkpt>
      <trkpt lat="47.7281" lon="16.20333">
        <ele>351.175005</ele>
        <time>2026-07-07T13:47:43.000Z</time>
      </trkpt>
      <trkpt lat="47.72808" lon="16.20325">
        <ele>351.184615</ele>
        <time>2026-07-07T13:47:44.000Z</time>
      </trkpt>
      <trkpt lat="47.72807" lon="16.20318">
        <ele>351.193887</ele>
        <time>2026-07-07T13:47:45.000Z</time>
      </trkpt>
      <trkpt lat="47.72805" lon="16.2031">
        <ele>351.203153</ele>
        <time>2026-07-07T13:47:46.000Z</time>
      </trkpt>
      <trkpt lat="47.72803" lon="16.20303">
        <ele>351.212145</ele>
        <time>2026-07-07T13:47:47.000Z</time>
      </trkpt>
      <trkpt lat="47.72801" lon="16.20296">
        <ele>351.2212</ele>
        <time>2026-07-07T13:47:48.000Z</time>
      </trkpt>
      <trkpt lat="47.728" lon="16.20289">
        <ele>351.230302</ele>
        <time>2026-07-07T13:47:49.000Z</time>
      </trkpt>
      <trkpt lat="47.72798" lon="16.20281">
        <ele>351.237885</ele>
        <time>2026-07-07T13:47:50.000Z</time>
      </trkpt>
      <trkpt lat="47.72796" lon="16.20274">
        <ele>351.21702</ele>
        <time>2026-07-07T13:47:51.000Z</time>
      </trkpt>
      <trkpt lat="47.72794" lon="16.20266">
        <ele>351.196062</ele>
        <time>2026-07-07T13:47:52.000Z</time>
      </trkpt>
      <trkpt lat="47.72792" lon="16.20258">
        <ele>351.17498</ele>
        <time>2026-07-07T13:47:53.000Z</time>
      </trkpt>
      <trkpt lat="47.7279" lon="16.20251">
        <ele>351.154115</ele>
        <time>2026-07-07T13:47:54.000Z</time>
      </trkpt>
      <trkpt lat="47.72788" lon="16.20243">
        <ele>351.133402</ele>
        <time>2026-07-07T13:47:55.000Z</time>
      </trkpt>
      <trkpt lat="47.72787" lon="16.20236">
        <ele>351.1133</ele>
        <time>2026-07-07T13:47:56.000Z</time>
      </trkpt>
      <trkpt lat="47.72785" lon="16.20229">
        <ele>351.093393</ele>
        <time>2026-07-07T13:47:57.000Z</time>
      </trkpt>
      <trkpt lat="47.72782" lon="16.20223">
        <ele>351.074894</ele>
        <time>2026-07-07T13:47:58.000Z</time>
      </trkpt>
      <trkpt lat="47.72779" lon="16.20218">
        <ele>351.05787</ele>
        <time>2026-07-07T13:47:59.000Z</time>
      </trkpt>
      <trkpt lat="47.72775" lon="16.20216">
        <ele>351.041381</ele>
        <time>2026-07-07T13:48:00.000Z</time>
      </trkpt>
      <trkpt lat="47.72771" lon="16.20216">
        <ele>351.023303</ele>
        <time>2026-07-07T13:48:01.000Z</time>
      </trkpt>
      <trkpt lat="47.72766" lon="16.20217">
        <ele>351.004766</ele>
        <time>2026-07-07T13:48:02.000Z</time>
      </trkpt>
      <trkpt lat="47.72761" lon="16.2022">
        <ele>350.986022</ele>
        <time>2026-07-07T13:48:03.000Z</time>
      </trkpt>
      <trkpt lat="47.72756" lon="16.20223">
        <ele>350.964759</ele>
        <time>2026-07-07T13:48:04.000Z</time>
      </trkpt>
      <trkpt lat="47.72751" lon="16.20225">
        <ele>350.943133</ele>
        <time>2026-07-07T13:48:05.000Z</time>
      </trkpt>
      <trkpt lat="47.72745" lon="16.20228">
        <ele>350.921059</ele>
        <time>2026-07-07T13:48:06.000Z</time>
      </trkpt>
      <trkpt lat="47.7274" lon="16.20231">
        <ele>350.898707</ele>
        <time>2026-07-07T13:48:07.000Z</time>
      </trkpt>
      <trkpt lat="47.72734" lon="16.20234">
        <ele>350.876595</ele>
        <time>2026-07-07T13:48:08.000Z</time>
      </trkpt>
      <trkpt lat="47.72729" lon="16.20236">
        <ele>350.854483</ele>
        <time>2026-07-07T13:48:09.000Z</time>
      </trkpt>
      <trkpt lat="47.72724" lon="16.20238">
        <ele>350.833255</ele>
        <time>2026-07-07T13:48:10.000Z</time>
      </trkpt>
      <trkpt lat="47.72718" lon="16.20241">
        <ele>350.811877</ele>
        <time>2026-07-07T13:48:11.000Z</time>
      </trkpt>
      <trkpt lat="47.72713" lon="16.20243">
        <ele>350.790208</ele>
        <time>2026-07-07T13:48:12.000Z</time>
      </trkpt>
      <trkpt lat="47.72708" lon="16.20246">
        <ele>350.76898</ele>
        <time>2026-07-07T13:48:13.000Z</time>
      </trkpt>
      <trkpt lat="47.72702" lon="16.20248">
        <ele>350.747717</ele>
        <time>2026-07-07T13:48:14.000Z</time>
      </trkpt>
      <trkpt lat="47.72697" lon="16.20251">
        <ele>350.726903</ele>
        <time>2026-07-07T13:48:15.000Z</time>
      </trkpt>
      <trkpt lat="47.72692" lon="16.20254">
        <ele>350.705158</ele>
        <time>2026-07-07T13:48:16.000Z</time>
      </trkpt>
      <trkpt lat="47.72687" lon="16.20256">
        <ele>350.68393</ele>
        <time>2026-07-07T13:48:17.000Z</time>
      </trkpt>
      <trkpt lat="47.72681" lon="16.20258">
        <ele>350.662629</ele>
        <time>2026-07-07T13:48:18.000Z</time>
      </trkpt>
      <trkpt lat="47.72676" lon="16.20261">
        <ele>350.641032</ele>
        <time>2026-07-07T13:48:19.000Z</time>
      </trkpt>
      <trkpt lat="47.72671" lon="16.20263">
        <ele>350.620385</ele>
        <time>2026-07-07T13:48:20.000Z</time>
      </trkpt>
      <trkpt lat="47.72665" lon="16.20266">
        <ele>350.598641</ele>
        <time>2026-07-07T13:48:21.000Z</time>
      </trkpt>
      <trkpt lat="47.7266" lon="16.20268">
        <ele>350.5771</ele>
        <time>2026-07-07T13:48:22.000Z</time>
      </trkpt>
      <trkpt lat="47.72655" lon="16.20271">
        <ele>350.555475</ele>
        <time>2026-07-07T13:48:23.000Z</time>
      </trkpt>
      <trkpt lat="47.72649" lon="16.20274">
        <ele>350.540809</ele>
        <time>2026-07-07T13:48:24.000Z</time>
      </trkpt>
      <trkpt lat="47.72644" lon="16.20278">
        <ele>350.530201</ele>
        <time>2026-07-07T13:48:25.000Z</time>
      </trkpt>
      <trkpt lat="47.72639" lon="16.20282">
        <ele>350.519856</ele>
        <time>2026-07-07T13:48:26.000Z</time>
      </trkpt>
      <trkpt lat="47.72634" lon="16.20287">
        <ele>350.509593</ele>
        <time>2026-07-07T13:48:27.000Z</time>
      </trkpt>
      <trkpt lat="47.7263" lon="16.20291">
        <ele>350.499412</ele>
        <time>2026-07-07T13:48:28.000Z</time>
      </trkpt>
      <trkpt lat="47.72626" lon="16.20297">
        <ele>350.489509</ele>
        <time>2026-07-07T13:48:29.000Z</time>
      </trkpt>
      <trkpt lat="47.72622" lon="16.20302">
        <ele>350.479471</ele>
        <time>2026-07-07T13:48:30.000Z</time>
      </trkpt>
      <trkpt lat="47.72618" lon="16.20308">
        <ele>350.469461</ele>
        <time>2026-07-07T13:48:31.000Z</time>
      </trkpt>
      <trkpt lat="47.72614" lon="16.20315">
        <ele>350.45948</ele>
        <time>2026-07-07T13:48:32.000Z</time>
      </trkpt>
      <trkpt lat="47.72611" lon="16.20321">
        <ele>350.449445</ele>
        <time>2026-07-07T13:48:33.000Z</time>
      </trkpt>
      <trkpt lat="47.72608" lon="16.20328">
        <ele>350.439535</ele>
        <time>2026-07-07T13:48:34.000Z</time>
      </trkpt>
      <trkpt lat="47.72605" lon="16.20335">
        <ele>350.429221</ele>
        <time>2026-07-07T13:48:35.000Z</time>
      </trkpt>
      <trkpt lat="47.72601" lon="16.20342">
        <ele>350.418806</ele>
        <time>2026-07-07T13:48:36.000Z</time>
      </trkpt>
      <trkpt lat="47.72599" lon="16.20349">
        <ele>350.408671</ele>
        <time>2026-07-07T13:48:37.000Z</time>
      </trkpt>
      <trkpt lat="47.72596" lon="16.20357">
        <ele>350.398251</ele>
        <time>2026-07-07T13:48:38.000Z</time>
      </trkpt>
      <trkpt lat="47.72594" lon="16.20365">
        <ele>350.387943</ele>
        <time>2026-07-07T13:48:39.000Z</time>
      </trkpt>
      <trkpt lat="47.72592" lon="16.20372">
        <ele>350.377771</ele>
        <time>2026-07-07T13:48:40.000Z</time>
      </trkpt>
      <trkpt lat="47.7259" lon="16.2038">
        <ele>350.36749</ele>
        <time>2026-07-07T13:48:41.000Z</time>
      </trkpt>
      <trkpt lat="47.72588" lon="16.20389">
        <ele>350.356978</ele>
        <time>2026-07-07T13:48:42.000Z</time>
      </trkpt>
      <trkpt lat="47.72587" lon="16.20397">
        <ele>350.346754</ele>
        <time>2026-07-07T13:48:43.000Z</time>
      </trkpt>
      <trkpt lat="47.72585" lon="16.20404">
        <ele>350.336581</ele>
        <time>2026-07-07T13:48:44.000Z</time>
      </trkpt>
      <trkpt lat="47.72583" lon="16.20412">
        <ele>350.326294</ele>
        <time>2026-07-07T13:48:45.000Z</time>
      </trkpt>
      <trkpt lat="47.72581" lon="16.2042">
        <ele>350.316014</ele>
        <time>2026-07-07T13:48:46.000Z</time>
      </trkpt>
      <trkpt lat="47.72579" lon="16.20428">
        <ele>350.305673</ele>
        <time>2026-07-07T13:48:47.000Z</time>
      </trkpt>
      <trkpt lat="47.72577" lon="16.20436">
        <ele>350.295272</ele>
        <time>2026-07-07T13:48:48.000Z</time>
      </trkpt>
      <trkpt lat="47.72575" lon="16.20444">
        <ele>350.285048</ele>
        <time>2026-07-07T13:48:49.000Z</time>
      </trkpt>
      <trkpt lat="47.72573" lon="16.20452">
        <ele>350.274647</ele>
        <time>2026-07-07T13:48:50.000Z</time>
      </trkpt>
      <trkpt lat="47.72572" lon="16.2046">
        <ele>350.264482</ele>
        <time>2026-07-07T13:48:51.000Z</time>
      </trkpt>
      <trkpt lat="47.72569" lon="16.20468">
        <ele>350.254399</ele>
        <time>2026-07-07T13:48:52.000Z</time>
      </trkpt>
      <trkpt lat="47.72567" lon="16.20475">
        <ele>350.244685</ele>
        <time>2026-07-07T13:48:53.000Z</time>
      </trkpt>
      <trkpt lat="47.72564" lon="16.20482">
        <ele>350.234852</ele>
        <time>2026-07-07T13:48:54.000Z</time>
      </trkpt>
      <trkpt lat="47.72562" lon="16.20489">
        <ele>350.225319</ele>
        <time>2026-07-07T13:48:55.000Z</time>
      </trkpt>
      <trkpt lat="47.72559" lon="16.20495">
        <ele>350.236992</ele>
        <time>2026-07-07T13:48:56.000Z</time>
      </trkpt>
      <trkpt lat="47.72556" lon="16.20501">
        <ele>350.261716</ele>
        <time>2026-07-07T13:48:57.000Z</time>
      </trkpt>
      <trkpt lat="47.72552" lon="16.20506">
        <ele>350.284941</ele>
        <time>2026-07-07T13:48:58.000Z</time>
      </trkpt>
      <trkpt lat="47.72549" lon="16.2051">
        <ele>350.304892</ele>
        <time>2026-07-07T13:48:59.000Z</time>
      </trkpt>
      <trkpt lat="47.72546" lon="16.20512">
        <ele>350.321897</ele>
        <time>2026-07-07T13:49:00.000Z</time>
      </trkpt>
      <trkpt lat="47.72543" lon="16.20512">
        <ele>350.338759</ele>
        <time>2026-07-07T13:49:01.000Z</time>
      </trkpt>
      <trkpt lat="47.7254" lon="16.20509">
        <ele>350.357443</ele>
        <time>2026-07-07T13:49:02.000Z</time>
      </trkpt>
      <trkpt lat="47.72538" lon="16.20503">
        <ele>350.3779</ele>
        <time>2026-07-07T13:49:03.000Z</time>
      </trkpt>
      <trkpt lat="47.72535" lon="16.20497">
        <ele>350.400656</ele>
        <time>2026-07-07T13:49:04.000Z</time>
      </trkpt>
      <trkpt lat="47.72533" lon="16.20491">
        <ele>350.42318</ele>
        <time>2026-07-07T13:49:05.000Z</time>
      </trkpt>
      <trkpt lat="47.72531" lon="16.20485">
        <ele>350.44722</ele>
        <time>2026-07-07T13:49:06.000Z</time>
      </trkpt>
      <trkpt lat="47.72528" lon="16.20479">
        <ele>350.471537</ele>
        <time>2026-07-07T13:49:07.000Z</time>
      </trkpt>
      <trkpt lat="47.72525" lon="16.20473">
        <ele>350.497241</ele>
        <time>2026-07-07T13:49:08.000Z</time>
      </trkpt>
      <trkpt lat="47.72522" lon="16.20466">
        <ele>350.522681</ele>
        <time>2026-07-07T13:49:09.000Z</time>
      </trkpt>
      <trkpt lat="47.7252" lon="16.2046">
        <ele>350.548949</ele>
        <time>2026-07-07T13:49:10.000Z</time>
      </trkpt>
      <trkpt lat="47.72517" lon="16.20453">
        <ele>350.574389</ele>
        <time>2026-07-07T13:49:11.000Z</time>
      </trkpt>
      <trkpt lat="47.72514" lon="16.20446">
        <ele>350.600657</ele>
        <time>2026-07-07T13:49:12.000Z</time>
      </trkpt>
      <trkpt lat="47.72512" lon="16.2044">
        <ele>350.625881</ele>
        <time>2026-07-07T13:49:13.000Z</time>
      </trkpt>
      <trkpt lat="47.72509" lon="16.20433">
        <ele>350.652752</ele>
        <time>2026-07-07T13:49:14.000Z</time>
      </trkpt>
      <trkpt lat="47.72506" lon="16.20426">
        <ele>350.678511</ele>
        <time>2026-07-07T13:49:15.000Z</time>
      </trkpt>
      <trkpt lat="47.72504" lon="16.20419">
        <ele>350.70452</ele>
        <time>2026-07-07T13:49:16.000Z</time>
      </trkpt>
      <trkpt lat="47.72501" lon="16.20413">
        <ele>350.730816</ele>
        <time>2026-07-07T13:49:17.000Z</time>
      </trkpt>
      <trkpt lat="47.72498" lon="16.20406">
        <ele>350.756864</ele>
        <time>2026-07-07T13:49:18.000Z</time>
      </trkpt>
      <trkpt lat="47.72495" lon="16.20399">
        <ele>350.783959</ele>
        <time>2026-07-07T13:49:19.000Z</time>
      </trkpt>
      <trkpt lat="47.72493" lon="16.20392">
        <ele>350.81051</ele>
        <time>2026-07-07T13:49:20.000Z</time>
      </trkpt>
      <trkpt lat="47.7249" lon="16.20385">
        <ele>350.836805</ele>
        <time>2026-07-07T13:49:21.000Z</time>
      </trkpt>
      <trkpt lat="47.72487" lon="16.20378">
        <ele>350.862905</ele>
        <time>2026-07-07T13:49:22.000Z</time>
      </trkpt>
      <trkpt lat="47.72485" lon="16.20372">
        <ele>350.888953</ele>
        <time>2026-07-07T13:49:23.000Z</time>
      </trkpt>
      <trkpt lat="47.72482" lon="16.20365">
        <ele>350.915248</ele>
        <time>2026-07-07T13:49:24.000Z</time>
      </trkpt>
      <trkpt lat="47.7248" lon="16.20358">
        <ele>350.940763</ele>
        <time>2026-07-07T13:49:25.000Z</time>
      </trkpt>
      <trkpt lat="47.72477" lon="16.20351">
        <ele>350.967157</ele>
        <time>2026-07-07T13:49:26.000Z</time>
      </trkpt>
      <trkpt lat="47.72475" lon="16.20344">
        <ele>350.99355</ele>
        <time>2026-07-07T13:49:27.000Z</time>
      </trkpt>
      <trkpt lat="47.72472" lon="16.20337">
        <ele>351.020188</ele>
        <time>2026-07-07T13:49:28.000Z</time>
      </trkpt>
      <trkpt lat="47.7247" lon="16.2033">
        <ele>351.046732</ele>
        <time>2026-07-07T13:49:29.000Z</time>
      </trkpt>
      <trkpt lat="47.72468" lon="16.20322">
        <ele>351.073577</ele>
        <time>2026-07-07T13:49:30.000Z</time>
      </trkpt>
      <trkpt lat="47.72465" lon="16.20315">
        <ele>351.100337</ele>
        <time>2026-07-07T13:49:31.000Z</time>
      </trkpt>
      <trkpt lat="47.72463" lon="16.20308">
        <ele>351.132762</ele>
        <time>2026-07-07T13:49:32.000Z</time>
      </trkpt>
      <trkpt lat="47.72461" lon="16.20301">
        <ele>351.170159</ele>
        <time>2026-07-07T13:49:33.000Z</time>
      </trkpt>
      <trkpt lat="47.72459" lon="16.20294">
        <ele>351.208074</ele>
        <time>2026-07-07T13:49:34.000Z</time>
      </trkpt>
      <trkpt lat="47.72456" lon="16.20287">
        <ele>351.246263</ele>
        <time>2026-07-07T13:49:35.000Z</time>
      </trkpt>
      <trkpt lat="47.72453" lon="16.2028">
        <ele>351.282853</ele>
        <time>2026-07-07T13:49:36.000Z</time>
      </trkpt>
      <trkpt lat="47.72451" lon="16.20274">
        <ele>351.320218</ele>
        <time>2026-07-07T13:49:37.000Z</time>
      </trkpt>
      <trkpt lat="47.72448" lon="16.20267">
        <ele>351.35836</ele>
        <time>2026-07-07T13:49:38.000Z</time>
      </trkpt>
      <trkpt lat="47.72445" lon="16.2026">
        <ele>351.397665</ele>
        <time>2026-07-07T13:49:39.000Z</time>
      </trkpt>
      <trkpt lat="47.72442" lon="16.20253">
        <ele>351.437366</ele>
        <time>2026-07-07T13:49:40.000Z</time>
      </trkpt>
      <trkpt lat="47.72438" lon="16.20246">
        <ele>351.476677</ele>
        <time>2026-07-07T13:49:41.000Z</time>
      </trkpt>
      <trkpt lat="47.72435" lon="16.2024">
        <ele>351.516018</ele>
        <time>2026-07-07T13:49:42.000Z</time>
      </trkpt>
      <trkpt lat="47.72432" lon="16.20233">
        <ele>351.557361</ele>
        <time>2026-07-07T13:49:43.000Z</time>
      </trkpt>
      <trkpt lat="47.72428" lon="16.20226">
        <ele>351.597063</ele>
        <time>2026-07-07T13:49:44.000Z</time>
      </trkpt>
      <trkpt lat="47.72425" lon="16.20219">
        <ele>351.637177</ele>
        <time>2026-07-07T13:49:45.000Z</time>
      </trkpt>
      <trkpt lat="47.72422" lon="16.20213">
        <ele>351.676903</ele>
        <time>2026-07-07T13:49:46.000Z</time>
      </trkpt>
      <trkpt lat="47.72418" lon="16.20206">
        <ele>351.717054</ele>
        <time>2026-07-07T13:49:47.000Z</time>
      </trkpt>
      <trkpt lat="47.72415" lon="16.20199">
        <ele>351.755564</ele>
        <time>2026-07-07T13:49:48.000Z</time>
      </trkpt>
      <trkpt lat="47.72412" lon="16.20192">
        <ele>351.795659</ele>
        <time>2026-07-07T13:49:49.000Z</time>
      </trkpt>
      <trkpt lat="47.72409" lon="16.20186">
        <ele>351.834563</ele>
        <time>2026-07-07T13:49:50.000Z</time>
      </trkpt>
      <trkpt lat="47.72406" lon="16.20179">
        <ele>351.87427</ele>
        <time>2026-07-07T13:49:51.000Z</time>
      </trkpt>
      <trkpt lat="47.72403" lon="16.20172">
        <ele>351.913978</ele>
        <time>2026-07-07T13:49:52.000Z</time>
      </trkpt>
      <trkpt lat="47.724" lon="16.20165">
        <ele>351.954467</ele>
        <time>2026-07-07T13:49:53.000Z</time>
      </trkpt>
      <trkpt lat="47.72397" lon="16.20158">
        <ele>351.994175</ele>
        <time>2026-07-07T13:49:54.000Z</time>
      </trkpt>
      <trkpt lat="47.72394" lon="16.2015">
        <ele>352.034377</ele>
        <time>2026-07-07T13:49:55.000Z</time>
      </trkpt>
      <trkpt lat="47.72391" lon="16.20143">
        <ele>352.075711</ele>
        <time>2026-07-07T13:49:56.000Z</time>
      </trkpt>
      <trkpt lat="47.72388" lon="16.20136">
        <ele>352.115913</ele>
        <time>2026-07-07T13:49:57.000Z</time>
      </trkpt>
      <trkpt lat="47.72385" lon="16.20128">
        <ele>352.156431</ele>
        <time>2026-07-07T13:49:58.000Z</time>
      </trkpt>
      <trkpt lat="47.72382" lon="16.20121">
        <ele>352.196543</ele>
        <time>2026-07-07T13:49:59.000Z</time>
      </trkpt>
      <trkpt lat="47.72379" lon="16.20114">
        <ele>352.236691</ele>
        <time>2026-07-07T13:50:00.000Z</time>
      </trkpt>
      <trkpt lat="47.72377" lon="16.20107">
        <ele>352.276208</ele>
        <time>2026-07-07T13:50:01.000Z</time>
      </trkpt>
      <trkpt lat="47.72374" lon="16.201">
        <ele>352.316356</ele>
        <time>2026-07-07T13:50:02.000Z</time>
      </trkpt>
      <trkpt lat="47.72371" lon="16.20092">
        <ele>352.356143</ele>
        <time>2026-07-07T13:50:03.000Z</time>
      </trkpt>
      <trkpt lat="47.72368" lon="16.20086">
        <ele>352.394222</ele>
        <time>2026-07-07T13:50:04.000Z</time>
      </trkpt>
      <trkpt lat="47.72364" lon="16.20079">
        <ele>352.420383</ele>
        <time>2026-07-07T13:50:05.000Z</time>
      </trkpt>
      <trkpt lat="47.7236" lon="16.20073">
        <ele>352.446758</ele>
        <time>2026-07-07T13:50:06.000Z</time>
      </trkpt>
      <trkpt lat="47.72357" lon="16.20067">
        <ele>352.471739</ele>
        <time>2026-07-07T13:50:07.000Z</time>
      </trkpt>
      <trkpt lat="47.72354" lon="16.20061">
        <ele>352.495775</ele>
        <time>2026-07-07T13:50:08.000Z</time>
      </trkpt>
      <trkpt lat="47.72351" lon="16.20054">
        <ele>352.520013</ele>
        <time>2026-07-07T13:50:09.000Z</time>
      </trkpt>
      <trkpt lat="47.72348" lon="16.20047">
        <ele>352.545802</ele>
        <time>2026-07-07T13:50:10.000Z</time>
      </trkpt>
      <trkpt lat="47.72345" lon="16.2004">
        <ele>352.570874</ele>
        <time>2026-07-07T13:50:11.000Z</time>
      </trkpt>
      <trkpt lat="47.72342" lon="16.20033">
        <ele>352.596327</ele>
        <time>2026-07-07T13:50:12.000Z</time>
      </trkpt>
      <trkpt lat="47.7234" lon="16.20026">
        <ele>352.620997</ele>
        <time>2026-07-07T13:50:13.000Z</time>
      </trkpt>
      <trkpt lat="47.72339" lon="16.20018">
        <ele>352.645588</ele>
        <time>2026-07-07T13:50:14.000Z</time>
      </trkpt>
      <trkpt lat="47.72337" lon="16.20011">
        <ele>352.670497</ele>
        <time>2026-07-07T13:50:15.000Z</time>
      </trkpt>
      <trkpt lat="47.72336" lon="16.20003">
        <ele>352.695165</ele>
        <time>2026-07-07T13:50:16.000Z</time>
      </trkpt>
      <trkpt lat="47.72334" lon="16.19995">
        <ele>352.719649</ele>
        <time>2026-07-07T13:50:17.000Z</time>
      </trkpt>
      <trkpt lat="47.72333" lon="16.19988">
        <ele>352.744108</ele>
        <time>2026-07-07T13:50:18.000Z</time>
      </trkpt>
      <trkpt lat="47.72332" lon="16.1998">
        <ele>352.768781</ele>
        <time>2026-07-07T13:50:19.000Z</time>
      </trkpt>
      <trkpt lat="47.72331" lon="16.19972">
        <ele>352.793148</ele>
        <time>2026-07-07T13:50:20.000Z</time>
      </trkpt>
      <trkpt lat="47.7233" lon="16.19964">
        <ele>352.817738</ele>
        <time>2026-07-07T13:50:21.000Z</time>
      </trkpt>
      <trkpt lat="47.7233" lon="16.19956">
        <ele>352.842562</ele>
        <time>2026-07-07T13:50:22.000Z</time>
      </trkpt>
      <trkpt lat="47.72329" lon="16.19949">
        <ele>352.867078</ele>
        <time>2026-07-07T13:50:23.000Z</time>
      </trkpt>
      <trkpt lat="47.72328" lon="16.19941">
        <ele>352.892362</ele>
        <time>2026-07-07T13:50:24.000Z</time>
      </trkpt>
      <trkpt lat="47.72327" lon="16.19933">
        <ele>352.917565</ele>
        <time>2026-07-07T13:50:25.000Z</time>
      </trkpt>
      <trkpt lat="47.72326" lon="16.19925">
        <ele>352.942237</ele>
        <time>2026-07-07T13:50:26.000Z</time>
      </trkpt>
      <trkpt lat="47.72325" lon="16.19917">
        <ele>352.967215</ele>
        <time>2026-07-07T13:50:27.000Z</time>
      </trkpt>
      <trkpt lat="47.72324" lon="16.19909">
        <ele>352.991581</ele>
        <time>2026-07-07T13:50:28.000Z</time>
      </trkpt>
      <trkpt lat="47.72322" lon="16.19902">
        <ele>353.01649</ele>
        <time>2026-07-07T13:50:29.000Z</time>
      </trkpt>
      <trkpt lat="47.72321" lon="16.19894">
        <ele>353.041399</ele>
        <time>2026-07-07T13:50:30.000Z</time>
      </trkpt>
      <trkpt lat="47.72319" lon="16.19886">
        <ele>353.066009</ele>
        <time>2026-07-07T13:50:31.000Z</time>
      </trkpt>
      <trkpt lat="47.72318" lon="16.19879">
        <ele>353.090677</ele>
        <time>2026-07-07T13:50:32.000Z</time>
      </trkpt>
      <trkpt lat="47.72316" lon="16.19871">
        <ele>353.114989</ele>
        <time>2026-07-07T13:50:33.000Z</time>
      </trkpt>
      <trkpt lat="47.72315" lon="16.19863">
        <ele>353.139898</ele>
        <time>2026-07-07T13:50:34.000Z</time>
      </trkpt>
      <trkpt lat="47.72314" lon="16.19856">
        <ele>353.16457</ele>
        <time>2026-07-07T13:50:35.000Z</time>
      </trkpt>
      <trkpt lat="47.72313" lon="16.19848">
        <ele>353.189243</ele>
        <time>2026-07-07T13:50:36.000Z</time>
      </trkpt>
      <trkpt lat="47.72312" lon="16.1984">
        <ele>353.21431</ele>
        <time>2026-07-07T13:50:37.000Z</time>
      </trkpt>
      <trkpt lat="47.72312" lon="16.19832">
        <ele>353.23798</ele>
        <time>2026-07-07T13:50:38.000Z</time>
      </trkpt>
      <trkpt lat="47.72311" lon="16.19824">
        <ele>353.260991</ele>
        <time>2026-07-07T13:50:39.000Z</time>
      </trkpt>
      <trkpt lat="47.72312" lon="16.19816">
        <ele>353.284001</ele>
        <time>2026-07-07T13:50:40.000Z</time>
      </trkpt>
      <trkpt lat="47.72312" lon="16.19808">
        <ele>353.307095</ele>
        <time>2026-07-07T13:50:41.000Z</time>
      </trkpt>
      <trkpt lat="47.72313" lon="16.198">
        <ele>353.330284</ele>
        <time>2026-07-07T13:50:42.000Z</time>
      </trkpt>
      <trkpt lat="47.72313" lon="16.19792">
        <ele>353.35395</ele>
        <time>2026-07-07T13:50:43.000Z</time>
      </trkpt>
      <trkpt lat="47.72314" lon="16.19783">
        <ele>353.377902</ele>
        <time>2026-07-07T13:50:44.000Z</time>
      </trkpt>
      <trkpt lat="47.72314" lon="16.19775">
        <ele>353.402182</ele>
        <time>2026-07-07T13:50:45.000Z</time>
      </trkpt>
      <trkpt lat="47.72315" lon="16.19767">
        <ele>353.426135</ele>
        <time>2026-07-07T13:50:46.000Z</time>
      </trkpt>
      <trkpt lat="47.72315" lon="16.19758">
        <ele>353.45066</ele>
        <time>2026-07-07T13:50:47.000Z</time>
      </trkpt>
      <trkpt lat="47.72316" lon="16.1975">
        <ele>353.475185</ele>
        <time>2026-07-07T13:50:48.000Z</time>
      </trkpt>
      <trkpt lat="47.72316" lon="16.19741">
        <ele>353.499103</ele>
        <time>2026-07-07T13:50:49.000Z</time>
      </trkpt>
      <trkpt lat="47.72316" lon="16.19733">
        <ele>353.522688</ele>
        <time>2026-07-07T13:50:50.000Z</time>
      </trkpt>
      <trkpt lat="47.72316" lon="16.19725">
        <ele>353.546292</ele>
        <time>2026-07-07T13:50:51.000Z</time>
      </trkpt>
      <trkpt lat="47.72316" lon="16.19717">
        <ele>353.56959</ele>
        <time>2026-07-07T13:50:52.000Z</time>
      </trkpt>
      <trkpt lat="47.72315" lon="16.19709">
        <ele>353.593256</ele>
        <time>2026-07-07T13:50:53.000Z</time>
      </trkpt>
      <trkpt lat="47.72315" lon="16.197">
        <ele>353.616922</ele>
        <time>2026-07-07T13:50:54.000Z</time>
      </trkpt>
      <trkpt lat="47.72314" lon="16.19692">
        <ele>353.640593</ele>
        <time>2026-07-07T13:50:55.000Z</time>
      </trkpt>
      <trkpt lat="47.72313" lon="16.19684">
        <ele>353.665113</ele>
        <time>2026-07-07T13:50:56.000Z</time>
      </trkpt>
      <trkpt lat="47.72312" lon="16.19676">
        <ele>353.688644</ele>
        <time>2026-07-07T13:50:57.000Z</time>
      </trkpt>
      <trkpt lat="47.72311" lon="16.19668">
        <ele>353.712033</ele>
        <time>2026-07-07T13:50:58.000Z</time>
      </trkpt>
      <trkpt lat="47.7231" lon="16.1966">
        <ele>353.735421</ele>
        <time>2026-07-07T13:50:59.000Z</time>
      </trkpt>
      <trkpt lat="47.72309" lon="16.19652">
        <ele>353.759375</ele>
        <time>2026-07-07T13:51:00.000Z</time>
      </trkpt>
      <trkpt lat="47.72308" lon="16.19643">
        <ele>353.783496</ele>
        <time>2026-07-07T13:51:01.000Z</time>
      </trkpt>
      <trkpt lat="47.72307" lon="16.19635">
        <ele>353.807166</ele>
        <time>2026-07-07T13:51:02.000Z</time>
      </trkpt>
      <trkpt lat="47.72306" lon="16.19627">
        <ele>353.83112</ele>
        <time>2026-07-07T13:51:03.000Z</time>
      </trkpt>
      <trkpt lat="47.72305" lon="16.19619">
        <ele>353.855357</ele>
        <time>2026-07-07T13:51:04.000Z</time>
      </trkpt>
      <trkpt lat="47.72304" lon="16.19611">
        <ele>353.878604</ele>
        <time>2026-07-07T13:51:05.000Z</time>
      </trkpt>
      <trkpt lat="47.72303" lon="16.19603">
        <ele>353.902725</ele>
        <time>2026-07-07T13:51:06.000Z</time>
      </trkpt>
      <trkpt lat="47.72302" lon="16.19595">
        <ele>353.926113</ele>
        <time>2026-07-07T13:51:07.000Z</time>
      </trkpt>
      <trkpt lat="47.723" lon="16.19586">
        <ele>353.950234</ele>
        <time>2026-07-07T13:51:08.000Z</time>
      </trkpt>
      <trkpt lat="47.72299" lon="16.19578">
        <ele>353.973622</ele>
        <time>2026-07-07T13:51:09.000Z</time>
      </trkpt>
      <trkpt lat="47.72299" lon="16.1957">
        <ele>353.998582</ele>
        <time>2026-07-07T13:51:10.000Z</time>
      </trkpt>
      <trkpt lat="47.72298" lon="16.19562">
        <ele>354.027516</ele>
        <time>2026-07-07T13:51:11.000Z</time>
      </trkpt>
      <trkpt lat="47.72297" lon="16.19554">
        <ele>354.056617</ele>
        <time>2026-07-07T13:51:12.000Z</time>
      </trkpt>
      <trkpt lat="47.72296" lon="16.19546">
        <ele>354.085375</ele>
        <time>2026-07-07T13:51:13.000Z</time>
      </trkpt>
      <trkpt lat="47.72295" lon="16.19537">
        <ele>354.115164</ele>
        <time>2026-07-07T13:51:14.000Z</time>
      </trkpt>
      <trkpt lat="47.72294" lon="16.19529">
        <ele>354.143833</ele>
        <time>2026-07-07T13:51:15.000Z</time>
      </trkpt>
      <trkpt lat="47.72293" lon="16.19521">
        <ele>354.172934</ele>
        <time>2026-07-07T13:51:16.000Z</time>
      </trkpt>
      <trkpt lat="47.72292" lon="16.19513">
        <ele>354.202035</ele>
        <time>2026-07-07T13:51:17.000Z</time>
      </trkpt>
      <trkpt lat="47.72291" lon="16.19505">
        <ele>354.231315</ele>
        <time>2026-07-07T13:51:18.000Z</time>
      </trkpt>
      <trkpt lat="47.7229" lon="16.19496">
        <ele>354.260961</ele>
        <time>2026-07-07T13:51:19.000Z</time>
      </trkpt>
      <trkpt lat="47.72289" lon="16.19488">
        <ele>354.29075</ele>
        <time>2026-07-07T13:51:20.000Z</time>
      </trkpt>
      <trkpt lat="47.72288" lon="16.1948">
        <ele>354.320195</ele>
        <time>2026-07-07T13:51:21.000Z</time>
      </trkpt>
      <trkpt lat="47.72287" lon="16.19471">
        <ele>354.350328</ele>
        <time>2026-07-07T13:51:22.000Z</time>
      </trkpt>
      <trkpt lat="47.72286" lon="16.19463">
        <ele>354.380299</ele>
        <time>2026-07-07T13:51:23.000Z</time>
      </trkpt>
      <trkpt lat="47.72285" lon="16.19454">
        <ele>354.409745</ele>
        <time>2026-07-07T13:51:24.000Z</time>
      </trkpt>
      <trkpt lat="47.72284" lon="16.19446">
        <ele>354.43937</ele>
        <time>2026-07-07T13:51:25.000Z</time>
      </trkpt>
      <trkpt lat="47.72283" lon="16.19438">
        <ele>354.468728</ele>
        <time>2026-07-07T13:51:26.000Z</time>
      </trkpt>
      <trkpt lat="47.72283" lon="16.19429">
        <ele>354.498008</ele>
        <time>2026-07-07T13:51:27.000Z</time>
      </trkpt>
      <trkpt lat="47.72281" lon="16.19421">
        <ele>354.527996</ele>
        <time>2026-07-07T13:51:28.000Z</time>
      </trkpt>
      <trkpt lat="47.72281" lon="16.19412">
        <ele>354.557967</ele>
        <time>2026-07-07T13:51:29.000Z</time>
      </trkpt>
      <trkpt lat="47.7228" lon="16.19404">
        <ele>354.586725</ele>
        <time>2026-07-07T13:51:30.000Z</time>
      </trkpt>
      <trkpt lat="47.72279" lon="16.19396">
        <ele>354.616514</ele>
        <time>2026-07-07T13:51:31.000Z</time>
      </trkpt>
      <trkpt lat="47.72278" lon="16.19388">
        <ele>354.645103</ele>
        <time>2026-07-07T13:51:32.000Z</time>
      </trkpt>
      <trkpt lat="47.72277" lon="16.1938">
        <ele>354.674116</ele>
        <time>2026-07-07T13:51:33.000Z</time>
      </trkpt>
      <trkpt lat="47.72276" lon="16.19371">
        <ele>354.70305</ele>
        <time>2026-07-07T13:51:34.000Z</time>
      </trkpt>
      <trkpt lat="47.72275" lon="16.19363">
        <ele>354.731639</ele>
        <time>2026-07-07T13:51:35.000Z</time>
      </trkpt>
      <trkpt lat="47.72274" lon="16.19355">
        <ele>354.760741</ele>
        <time>2026-07-07T13:51:36.000Z</time>
      </trkpt>
      <trkpt lat="47.72273" lon="16.19347">
        <ele>354.790186</ele>
        <time>2026-07-07T13:51:37.000Z</time>
      </trkpt>
      <trkpt lat="47.72272" lon="16.19339">
        <ele>354.818808</ele>
        <time>2026-07-07T13:51:38.000Z</time>
      </trkpt>
      <trkpt lat="47.72271" lon="16.19331">
        <ele>354.848113</ele>
        <time>2026-07-07T13:51:39.000Z</time>
      </trkpt>
      <trkpt lat="47.7227" lon="16.19322">
        <ele>354.877215</ele>
        <time>2026-07-07T13:51:40.000Z</time>
      </trkpt>
      <trkpt lat="47.72269" lon="16.19314">
        <ele>354.906294</ele>
        <time>2026-07-07T13:51:41.000Z</time>
      </trkpt>
      <trkpt lat="47.72267" lon="16.19306">
        <ele>354.934256</ele>
        <time>2026-07-07T13:51:42.000Z</time>
      </trkpt>
      <trkpt lat="47.72266" lon="16.19298">
        <ele>354.960826</ele>
        <time>2026-07-07T13:51:43.000Z</time>
      </trkpt>
      <trkpt lat="47.72265" lon="16.1929">
        <ele>354.98708</ele>
        <time>2026-07-07T13:51:44.000Z</time>
      </trkpt>
      <trkpt lat="47.72264" lon="16.19283">
        <ele>355.012914</ele>
        <time>2026-07-07T13:51:45.000Z</time>
      </trkpt>
      <trkpt lat="47.72262" lon="16.19275">
        <ele>355.03877</ele>
        <time>2026-07-07T13:51:46.000Z</time>
      </trkpt>
      <trkpt lat="47.72261" lon="16.19267">
        <ele>355.063877</ele>
        <time>2026-07-07T13:51:47.000Z</time>
      </trkpt>
      <trkpt lat="47.7226" lon="16.1926">
        <ele>355.089926</ele>
        <time>2026-07-07T13:51:48.000Z</time>
      </trkpt>
      <trkpt lat="47.72259" lon="16.19252">
        <ele>355.115864</ele>
        <time>2026-07-07T13:51:49.000Z</time>
      </trkpt>
      <trkpt lat="47.72258" lon="16.19244">
        <ele>355.141923</ele>
        <time>2026-07-07T13:51:50.000Z</time>
      </trkpt>
      <trkpt lat="47.72256" lon="16.19236">
        <ele>355.168493</ele>
        <time>2026-07-07T13:51:51.000Z</time>
      </trkpt>
      <trkpt lat="47.72256" lon="16.19228">
        <ele>355.195032</ele>
        <time>2026-07-07T13:51:52.000Z</time>
      </trkpt>
      <trkpt lat="47.72255" lon="16.1922">
        <ele>355.222047</ele>
        <time>2026-07-07T13:51:53.000Z</time>
      </trkpt>
      <trkpt lat="47.72254" lon="16.19211">
        <ele>355.249062</ele>
        <time>2026-07-07T13:51:54.000Z</time>
      </trkpt>
      <trkpt lat="47.72253" lon="16.19203">
        <ele>355.27528</ele>
        <time>2026-07-07T13:51:55.000Z</time>
      </trkpt>
      <trkpt lat="47.72252" lon="16.19196">
        <ele>355.300934</ele>
        <time>2026-07-07T13:51:56.000Z</time>
      </trkpt>
      <trkpt lat="47.72251" lon="16.19188">
        <ele>355.326384</ele>
        <time>2026-07-07T13:51:57.000Z</time>
      </trkpt>
      <trkpt lat="47.7225" lon="16.1918">
        <ele>355.352638</ele>
        <time>2026-07-07T13:51:58.000Z</time>
      </trkpt>
      <trkpt lat="47.72249" lon="16.19172">
        <ele>355.378936</ele>
        <time>2026-07-07T13:51:59.000Z</time>
      </trkpt>
      <trkpt lat="47.72246" lon="16.19164">
        <ele>355.406952</ele>
        <time>2026-07-07T13:52:00.000Z</time>
      </trkpt>
      <trkpt lat="47.72244" lon="16.19156">
        <ele>355.434263</ele>
        <time>2026-07-07T13:52:01.000Z</time>
      </trkpt>
      <trkpt lat="47.72242" lon="16.19149">
        <ele>355.46187</ele>
        <time>2026-07-07T13:52:02.000Z</time>
      </trkpt>
      <trkpt lat="47.72239" lon="16.19141">
        <ele>355.489879</ele>
        <time>2026-07-07T13:52:03.000Z</time>
      </trkpt>
      <trkpt lat="47.72237" lon="16.19133">
        <ele>355.517595</ele>
        <time>2026-07-07T13:52:04.000Z</time>
      </trkpt>
      <trkpt lat="47.72235" lon="16.19125">
        <ele>355.545203</ele>
        <time>2026-07-07T13:52:05.000Z</time>
      </trkpt>
      <trkpt lat="47.72233" lon="16.19117">
        <ele>355.572322</ele>
        <time>2026-07-07T13:52:06.000Z</time>
      </trkpt>
      <trkpt lat="47.72231" lon="16.1911">
        <ele>355.598776</ele>
        <time>2026-07-07T13:52:07.000Z</time>
      </trkpt>
      <trkpt lat="47.72228" lon="16.19102">
        <ele>355.625003</ele>
        <time>2026-07-07T13:52:08.000Z</time>
      </trkpt>
      <trkpt lat="47.72226" lon="16.19095">
        <ele>355.649849</ele>
        <time>2026-07-07T13:52:09.000Z</time>
      </trkpt>
      <trkpt lat="47.72224" lon="16.19089">
        <ele>355.673907</ele>
        <time>2026-07-07T13:52:10.000Z</time>
      </trkpt>
      <trkpt lat="47.72223" lon="16.19082">
        <ele>355.697324</ele>
        <time>2026-07-07T13:52:11.000Z</time>
      </trkpt>
      <trkpt lat="47.72222" lon="16.19075">
        <ele>355.720341</ele>
        <time>2026-07-07T13:52:12.000Z</time>
      </trkpt>
      <trkpt lat="47.72222" lon="16.19068">
        <ele>355.742321</ele>
        <time>2026-07-07T13:52:13.000Z</time>
      </trkpt>
      <trkpt lat="47.72221" lon="16.19062">
        <ele>355.762467</ele>
        <time>2026-07-07T13:52:14.000Z</time>
      </trkpt>
      <trkpt lat="47.7222" lon="16.19056">
        <ele>355.781744</ele>
        <time>2026-07-07T13:52:15.000Z</time>
      </trkpt>
      <trkpt lat="47.7222" lon="16.1905">
        <ele>355.79603</ele>
        <time>2026-07-07T13:52:16.000Z</time>
      </trkpt>
      <trkpt lat="47.7222" lon="16.19046">
        <ele>355.804183</ele>
        <time>2026-07-07T13:52:17.000Z</time>
      </trkpt>
      <trkpt lat="47.72219" lon="16.19043">
        <ele>355.811283</ele>
        <time>2026-07-07T13:52:18.000Z</time>
      </trkpt>
      <trkpt lat="47.72218" lon="16.1904">
        <ele>355.816975</ele>
        <time>2026-07-07T13:52:19.000Z</time>
      </trkpt>
      <trkpt lat="47.72215" lon="16.19039">
        <ele>355.823841</ele>
        <time>2026-07-07T13:52:20.000Z</time>
      </trkpt>
      <trkpt lat="47.72212" lon="16.19039">
        <ele>355.83231</ele>
        <time>2026-07-07T13:52:21.000Z</time>
      </trkpt>
      <trkpt lat="47.72209" lon="16.19041">
        <ele>355.842016</ele>
        <time>2026-07-07T13:52:22.000Z</time>
      </trkpt>
      <trkpt lat="47.72206" lon="16.19044">
        <ele>355.853212</ele>
        <time>2026-07-07T13:52:23.000Z</time>
      </trkpt>
      <trkpt lat="47.72202" lon="16.19047">
        <ele>355.865665</ele>
        <time>2026-07-07T13:52:24.000Z</time>
      </trkpt>
      <trkpt lat="47.72197" lon="16.1905">
        <ele>355.87921</ele>
        <time>2026-07-07T13:52:25.000Z</time>
      </trkpt>
      <trkpt lat="47.72193" lon="16.19053">
        <ele>355.893007</ele>
        <time>2026-07-07T13:52:26.000Z</time>
      </trkpt>
      <trkpt lat="47.72188" lon="16.19057">
        <ele>355.907141</ele>
        <time>2026-07-07T13:52:27.000Z</time>
      </trkpt>
      <trkpt lat="47.72184" lon="16.1906">
        <ele>355.921447</ele>
        <time>2026-07-07T13:52:28.000Z</time>
      </trkpt>
      <trkpt lat="47.7218" lon="16.19064">
        <ele>355.934764</ele>
        <time>2026-07-07T13:52:29.000Z</time>
      </trkpt>
      <trkpt lat="47.72176" lon="16.19067">
        <ele>355.948145</ele>
        <time>2026-07-07T13:52:30.000Z</time>
      </trkpt>
      <trkpt lat="47.72172" lon="16.1907">
        <ele>355.961124</ele>
        <time>2026-07-07T13:52:31.000Z</time>
      </trkpt>
      <trkpt lat="47.72168" lon="16.19073">
        <ele>355.973744</ele>
        <time>2026-07-07T13:52:32.000Z</time>
      </trkpt>
      <trkpt lat="47.72164" lon="16.19076">
        <ele>355.986364</ele>
        <time>2026-07-07T13:52:33.000Z</time>
      </trkpt>
      <trkpt lat="47.72159" lon="16.19079">
        <ele>355.999329</ele>
        <time>2026-07-07T13:52:34.000Z</time>
      </trkpt>
      <trkpt lat="47.72155" lon="16.19081">
        <ele>356.011673</ele>
        <time>2026-07-07T13:52:35.000Z</time>
      </trkpt>
      <trkpt lat="47.72151" lon="16.19083">
        <ele>356.024902</ele>
        <time>2026-07-07T13:52:36.000Z</time>
      </trkpt>
      <trkpt lat="47.72146" lon="16.19084">
        <ele>356.038834</ele>
        <time>2026-07-07T13:52:37.000Z</time>
      </trkpt>
      <trkpt lat="47.72141" lon="16.19085">
        <ele>356.053792</ele>
        <time>2026-07-07T13:52:38.000Z</time>
      </trkpt>
      <trkpt lat="47.72136" lon="16.19084">
        <ele>356.067922</ele>
        <time>2026-07-07T13:52:39.000Z</time>
      </trkpt>
      <trkpt lat="47.7213" lon="16.19083">
        <ele>356.083084</ele>
        <time>2026-07-07T13:52:40.000Z</time>
      </trkpt>
      <trkpt lat="47.72125" lon="16.19081">
        <ele>356.098366</ele>
        <time>2026-07-07T13:52:41.000Z</time>
      </trkpt>
      <trkpt lat="47.7212" lon="16.19077">
        <ele>356.114551</ele>
        <time>2026-07-07T13:52:42.000Z</time>
      </trkpt>
      <trkpt lat="47.72115" lon="16.19073">
        <ele>356.130483</ele>
        <time>2026-07-07T13:52:43.000Z</time>
      </trkpt>
      <trkpt lat="47.7211" lon="16.19069">
        <ele>356.145983</ele>
        <time>2026-07-07T13:52:44.000Z</time>
      </trkpt>
      <trkpt lat="47.72105" lon="16.19065">
        <ele>356.161213</ele>
        <time>2026-07-07T13:52:45.000Z</time>
      </trkpt>
      <trkpt lat="47.72101" lon="16.19062">
        <ele>356.175095</ele>
        <time>2026-07-07T13:52:46.000Z</time>
      </trkpt>
      <trkpt lat="47.72097" lon="16.19059">
        <ele>356.187212</ele>
        <time>2026-07-07T13:52:47.000Z</time>
      </trkpt>
      <trkpt lat="47.72094" lon="16.19056">
        <ele>356.197671</ele>
        <time>2026-07-07T13:52:48.000Z</time>
      </trkpt>
      <trkpt lat="47.72091" lon="16.19054">
        <ele>356.207377</ele>
        <time>2026-07-07T13:52:49.000Z</time>
      </trkpt>
      <trkpt lat="47.72088" lon="16.19053">
        <ele>356.216449</ele>
        <time>2026-07-07T13:52:50.000Z</time>
      </trkpt>
      <trkpt lat="47.72085" lon="16.19051">
        <ele>356.224981</ele>
        <time>2026-07-07T13:52:51.000Z</time>
      </trkpt>
      <trkpt lat="47.72083" lon="16.19051">
        <ele>356.231594</ele>
        <time>2026-07-07T13:52:52.000Z</time>
      </trkpt>
      <trkpt lat="47.72081" lon="16.19051">
        <ele>356.23724</ele>
        <time>2026-07-07T13:52:53.000Z</time>
      </trkpt>
      <trkpt lat="47.72079" lon="16.19052">
        <ele>356.242908</ele>
        <time>2026-07-07T13:52:54.000Z</time>
      </trkpt>
      <trkpt lat="47.72079" lon="16.19055">
        <ele>356.248468</ele>
        <time>2026-07-07T13:52:55.000Z</time>
      </trkpt>
      <trkpt lat="47.72079" lon="16.19058">
        <ele>356.254664</ele>
        <time>2026-07-07T13:52:56.000Z</time>
      </trkpt>
      <trkpt lat="47.72082" lon="16.1906">
        <ele>356.262573</ele>
        <time>2026-07-07T13:52:57.000Z</time>
      </trkpt>
      <trkpt lat="47.72085" lon="16.19061">
        <ele>356.272497</ele>
        <time>2026-07-07T13:52:58.000Z</time>
      </trkpt>
      <trkpt lat="47.72089" lon="16.19062">
        <ele>356.283335</ele>
        <time>2026-07-07T13:52:59.000Z</time>
      </trkpt>
      <trkpt lat="47.72093" lon="16.19064">
        <ele>356.294569</ele>
        <time>2026-07-07T13:53:00.000Z</time>
      </trkpt>
      <trkpt lat="47.72097" lon="16.19066">
        <ele>356.300178</ele>
        <time>2026-07-07T13:53:01.000Z</time>
      </trkpt>
      <trkpt lat="47.72101" lon="16.19068">
        <ele>356.303577</ele>
        <time>2026-07-07T13:53:02.000Z</time>
      </trkpt>
      <trkpt lat="47.72104" lon="16.19069">
        <ele>356.306739</ele>
        <time>2026-07-07T13:53:03.000Z</time>
      </trkpt>
      <trkpt lat="47.72108" lon="16.19068">
        <ele>356.309817</ele>
        <time>2026-07-07T13:53:04.000Z</time>
      </trkpt>
      <trkpt lat="47.72111" lon="16.19065">
        <ele>356.312949</ele>
        <time>2026-07-07T13:53:05.000Z</time>
      </trkpt>
      <trkpt lat="47.72114" lon="16.19061">
        <ele>356.316245</ele>
        <time>2026-07-07T13:53:06.000Z</time>
      </trkpt>
      <trkpt lat="47.72116" lon="16.19056">
        <ele>356.319823</ele>
        <time>2026-07-07T13:53:07.000Z</time>
      </trkpt>
      <trkpt lat="47.72118" lon="16.1905">
        <ele>356.3236</ele>
        <time>2026-07-07T13:53:08.000Z</time>
      </trkpt>
      <trkpt lat="47.7212" lon="16.19044">
        <ele>356.327387</ele>
        <time>2026-07-07T13:53:09.000Z</time>
      </trkpt>
      <trkpt lat="47.72123" lon="16.19038">
        <ele>356.331164</ele>
        <time>2026-07-07T13:53:10.000Z</time>
      </trkpt>
      <trkpt lat="47.72125" lon="16.19032">
        <ele>356.334963</ele>
        <time>2026-07-07T13:53:11.000Z</time>
      </trkpt>
      <trkpt lat="47.72126" lon="16.19026">
        <ele>356.33881</ele>
        <time>2026-07-07T13:53:12.000Z</time>
      </trkpt>
      <trkpt lat="47.72126" lon="16.19019">
        <ele>356.342626</ele>
        <time>2026-07-07T13:53:13.000Z</time>
      </trkpt>
      <trkpt lat="47.72126" lon="16.19012">
        <ele>356.346528</ele>
        <time>2026-07-07T13:53:14.000Z</time>
      </trkpt>
      <trkpt lat="47.72124" lon="16.19005">
        <ele>356.350737</ele>
        <time>2026-07-07T13:53:15.000Z</time>
      </trkpt>
      <trkpt lat="47.72123" lon="16.18998">
        <ele>356.355021</ele>
        <time>2026-07-07T13:53:16.000Z</time>
      </trkpt>
      <trkpt lat="47.72122" lon="16.1899">
        <ele>356.35946</ele>
        <time>2026-07-07T13:53:17.000Z</time>
      </trkpt>
      <trkpt lat="47.72121" lon="16.18982">
        <ele>356.363908</ele>
        <time>2026-07-07T13:53:18.000Z</time>
      </trkpt>
      <trkpt lat="47.7212" lon="16.18975">
        <ele>356.368302</ele>
        <time>2026-07-07T13:53:19.000Z</time>
      </trkpt>
      <trkpt lat="47.72119" lon="16.18967">
        <ele>356.372834</ele>
        <time>2026-07-07T13:53:20.000Z</time>
      </trkpt>
      <trkpt lat="47.72118" lon="16.18959">
        <ele>356.377298</ele>
        <time>2026-07-07T13:53:21.000Z</time>
      </trkpt>
      <trkpt lat="47.72118" lon="16.18951">
        <ele>356.381726</ele>
        <time>2026-07-07T13:53:22.000Z</time>
      </trkpt>
      <trkpt lat="47.72118" lon="16.18943">
        <ele>356.386265</ele>
        <time>2026-07-07T13:53:23.000Z</time>
      </trkpt>
      <trkpt lat="47.72118" lon="16.18935">
        <ele>356.390759</ele>
        <time>2026-07-07T13:53:24.000Z</time>
      </trkpt>
      <trkpt lat="47.72119" lon="16.18928">
        <ele>356.395078</ele>
        <time>2026-07-07T13:53:25.000Z</time>
      </trkpt>
      <trkpt lat="47.72119" lon="16.1892">
        <ele>356.399354</ele>
        <time>2026-07-07T13:53:26.000Z</time>
      </trkpt>
      <trkpt lat="47.7212" lon="16.18913">
        <ele>356.40363</ele>
        <time>2026-07-07T13:53:27.000Z</time>
      </trkpt>
      <trkpt lat="47.7212" lon="16.18906">
        <ele>356.407736</ele>
        <time>2026-07-07T13:53:28.000Z</time>
      </trkpt>
      <trkpt lat="47.72121" lon="16.18898">
        <ele>356.411919</ele>
        <time>2026-07-07T13:53:29.000Z</time>
      </trkpt>
      <trkpt lat="47.72122" lon="16.18891">
        <ele>356.416059</ele>
        <time>2026-07-07T13:53:30.000Z</time>
      </trkpt>
      <trkpt lat="47.72122" lon="16.18884">
        <ele>356.419962</ele>
        <time>2026-07-07T13:53:31.000Z</time>
      </trkpt>
      <trkpt lat="47.72123" lon="16.18877">
        <ele>356.42399</ele>
        <time>2026-07-07T13:53:32.000Z</time>
      </trkpt>
      <trkpt lat="47.72124" lon="16.1887">
        <ele>356.428018</ele>
        <time>2026-07-07T13:53:33.000Z</time>
      </trkpt>
      <trkpt lat="47.72124" lon="16.18863">
        <ele>356.431955</ele>
        <time>2026-07-07T13:53:34.000Z</time>
      </trkpt>
      <trkpt lat="47.72125" lon="16.18857">
        <ele>356.435723</ele>
        <time>2026-07-07T13:53:35.000Z</time>
      </trkpt>
      <trkpt lat="47.72125" lon="16.1885">
        <ele>356.439426</ele>
        <time>2026-07-07T13:53:36.000Z</time>
      </trkpt>
      <trkpt lat="47.72126" lon="16.18844">
        <ele>356.443138</ele>
        <time>2026-07-07T13:53:37.000Z</time>
      </trkpt>
      <trkpt lat="47.72126" lon="16.18837">
        <ele>356.446777</ele>
        <time>2026-07-07T13:53:38.000Z</time>
      </trkpt>
      <trkpt lat="47.72127" lon="16.18831">
        <ele>356.455087</ele>
        <time>2026-07-07T13:53:39.000Z</time>
      </trkpt>
      <trkpt lat="47.72127" lon="16.18825">
        <ele>356.474011</ele>
        <time>2026-07-07T13:53:40.000Z</time>
      </trkpt>
      <trkpt lat="47.72127" lon="16.18819">
        <ele>356.493534</ele>
        <time>2026-07-07T13:53:41.000Z</time>
      </trkpt>
      <trkpt lat="47.72127" lon="16.18813">
        <ele>356.51335</ele>
        <time>2026-07-07T13:53:42.000Z</time>
      </trkpt>
      <trkpt lat="47.72127" lon="16.18806">
        <ele>356.533528</ele>
        <time>2026-07-07T13:53:43.000Z</time>
      </trkpt>
      <trkpt lat="47.72128" lon="16.188">
        <ele>356.553481</ele>
        <time>2026-07-07T13:53:44.000Z</time>
      </trkpt>
      <trkpt lat="47.72128" lon="16.18793">
        <ele>356.574575</ele>
        <time>2026-07-07T13:53:45.000Z</time>
      </trkpt>
      <trkpt lat="47.72128" lon="16.18787">
        <ele>356.595041</ele>
        <time>2026-07-07T13:53:46.000Z</time>
      </trkpt>
      <trkpt lat="47.72128" lon="16.1878">
        <ele>356.615485</ele>
        <time>2026-07-07T13:53:47.000Z</time>
      </trkpt>
      <trkpt lat="47.72129" lon="16.18774">
        <ele>356.635978</ele>
        <time>2026-07-07T13:53:48.000Z</time>
      </trkpt>
      <trkpt lat="47.72128" lon="16.18768">
        <ele>356.655187</ele>
        <time>2026-07-07T13:53:49.000Z</time>
      </trkpt>
      <trkpt lat="47.72129" lon="16.18761">
        <ele>356.675338</ele>
        <time>2026-07-07T13:53:50.000Z</time>
      </trkpt>
      <trkpt lat="47.72129" lon="16.18755">
        <ele>356.695831</ele>
        <time>2026-07-07T13:53:51.000Z</time>
      </trkpt>
      <trkpt lat="47.72129" lon="16.18749">
        <ele>356.715734</ele>
        <time>2026-07-07T13:53:52.000Z</time>
      </trkpt>
      <trkpt lat="47.72129" lon="16.18742">
        <ele>356.735555</ele>
        <time>2026-07-07T13:53:53.000Z</time>
      </trkpt>
      <trkpt lat="47.72129" lon="16.18736">
        <ele>356.755999</ele>
        <time>2026-07-07T13:53:54.000Z</time>
      </trkpt>
      <trkpt lat="47.72129" lon="16.18729">
        <ele>356.777073</ele>
        <time>2026-07-07T13:53:55.000Z</time>
      </trkpt>
      <trkpt lat="47.72129" lon="16.18722">
        <ele>356.798461</ele>
        <time>2026-07-07T13:53:56.000Z</time>
      </trkpt>
      <trkpt lat="47.7213" lon="16.18715">
        <ele>356.820244</ele>
        <time>2026-07-07T13:53:57.000Z</time>
      </trkpt>
      <trkpt lat="47.7213" lon="16.18709">
        <ele>356.841759</ele>
        <time>2026-07-07T13:53:58.000Z</time>
      </trkpt>
      <trkpt lat="47.7213" lon="16.18701">
        <ele>356.864724</ele>
        <time>2026-07-07T13:53:59.000Z</time>
      </trkpt>
      <trkpt lat="47.7213" lon="16.18694">
        <ele>356.888</ele>
        <time>2026-07-07T13:54:00.000Z</time>
      </trkpt>
      <trkpt lat="47.7213" lon="16.18687">
        <ele>356.91096</ele>
        <time>2026-07-07T13:54:01.000Z</time>
      </trkpt>
      <trkpt lat="47.7213" lon="16.18679">
        <ele>356.933611</ele>
        <time>2026-07-07T13:54:02.000Z</time>
      </trkpt>
      <trkpt lat="47.7213" lon="16.18672">
        <ele>356.955628</ele>
        <time>2026-07-07T13:54:03.000Z</time>
      </trkpt>
      <trkpt lat="47.7213" lon="16.18665">
        <ele>356.978608</ele>
        <time>2026-07-07T13:54:04.000Z</time>
      </trkpt>
      <trkpt lat="47.7213" lon="16.18658">
        <ele>357.001568</ele>
        <time>2026-07-07T13:54:05.000Z</time>
      </trkpt>
      <trkpt lat="47.7213" lon="16.1865">
        <ele>357.025158</ele>
        <time>2026-07-07T13:54:06.000Z</time>
      </trkpt>
      <trkpt lat="47.7213" lon="16.18643">
        <ele>357.047175</ele>
        <time>2026-07-07T13:54:07.000Z</time>
      </trkpt>
      <trkpt lat="47.7213" lon="16.18637">
        <ele>357.068248</ele>
        <time>2026-07-07T13:54:08.000Z</time>
      </trkpt>
      <trkpt lat="47.7213" lon="16.1863">
        <ele>357.090389</ele>
        <time>2026-07-07T13:54:09.000Z</time>
      </trkpt>
      <trkpt lat="47.72129" lon="16.18623">
        <ele>357.112648</ele>
        <time>2026-07-07T13:54:10.000Z</time>
      </trkpt>
      <trkpt lat="47.72128" lon="16.18615">
        <ele>357.13578</ele>
        <time>2026-07-07T13:54:11.000Z</time>
      </trkpt>
      <trkpt lat="47.72128" lon="16.18608">
        <ele>357.158661</ele>
        <time>2026-07-07T13:54:12.000Z</time>
      </trkpt>
      <trkpt lat="47.72127" lon="16.18601">
        <ele>357.180993</ele>
        <time>2026-07-07T13:54:13.000Z</time>
      </trkpt>
      <trkpt lat="47.72126" lon="16.18594">
        <ele>357.203105</ele>
        <time>2026-07-07T13:54:14.000Z</time>
      </trkpt>
      <trkpt lat="47.72124" lon="16.18587">
        <ele>357.226217</ele>
        <time>2026-07-07T13:54:15.000Z</time>
      </trkpt>
      <trkpt lat="47.72122" lon="16.18581">
        <ele>357.249201</ele>
        <time>2026-07-07T13:54:16.000Z</time>
      </trkpt>
      <trkpt lat="47.7212" lon="16.18574">
        <ele>357.272651</ele>
        <time>2026-07-07T13:54:17.000Z</time>
      </trkpt>
      <trkpt lat="47.72118" lon="16.18567">
        <ele>357.29636</ele>
        <time>2026-07-07T13:54:18.000Z</time>
      </trkpt>
      <trkpt lat="47.72115" lon="16.1856">
        <ele>357.319601</ele>
        <time>2026-07-07T13:54:19.000Z</time>
      </trkpt>
      <trkpt lat="47.72113" lon="16.18554">
        <ele>357.341789</ele>
        <time>2026-07-07T13:54:20.000Z</time>
      </trkpt>
      <trkpt lat="47.7211" lon="16.18548">
        <ele>357.362936</ele>
        <time>2026-07-07T13:54:21.000Z</time>
      </trkpt>
      <trkpt lat="47.72107" lon="16.18543">
        <ele>357.383858</ele>
        <time>2026-07-07T13:54:22.000Z</time>
      </trkpt>
      <trkpt lat="47.72104" lon="16.18538">
        <ele>357.4043</ele>
        <time>2026-07-07T13:54:23.000Z</time>
      </trkpt>
      <trkpt lat="47.72101" lon="16.18532">
        <ele>357.425779</ele>
        <time>2026-07-07T13:54:24.000Z</time>
      </trkpt>
      <trkpt lat="47.72098" lon="16.18526">
        <ele>357.447733</ele>
        <time>2026-07-07T13:54:25.000Z</time>
      </trkpt>
      <trkpt lat="47.72095" lon="16.18521">
        <ele>357.469448</ele>
        <time>2026-07-07T13:54:26.000Z</time>
      </trkpt>
      <trkpt lat="47.72092" lon="16.18516">
        <ele>357.491336</ele>
        <time>2026-07-07T13:54:27.000Z</time>
      </trkpt>
      <trkpt lat="47.72088" lon="16.18511">
        <ele>357.514362</ele>
        <time>2026-07-07T13:54:28.000Z</time>
      </trkpt>
      <trkpt lat="47.72084" lon="16.18506">
        <ele>357.53646</ele>
        <time>2026-07-07T13:54:29.000Z</time>
      </trkpt>
      <trkpt lat="47.7208" lon="16.18501">
        <ele>357.559832</ele>
        <time>2026-07-07T13:54:30.000Z</time>
      </trkpt>
      <trkpt lat="47.72076" lon="16.18497">
        <ele>357.58372</ele>
        <time>2026-07-07T13:54:31.000Z</time>
      </trkpt>
      <trkpt lat="47.72072" lon="16.18492">
        <ele>357.607787</ele>
        <time>2026-07-07T13:54:32.000Z</time>
      </trkpt>
      <trkpt lat="47.72067" lon="16.18488">
        <ele>357.632672</ele>
        <time>2026-07-07T13:54:33.000Z</time>
      </trkpt>
      <trkpt lat="47.72062" lon="16.18484">
        <ele>357.657194</ele>
        <time>2026-07-07T13:54:34.000Z</time>
      </trkpt>
      <trkpt lat="47.72057" lon="16.1848">
        <ele>357.682379</ele>
        <time>2026-07-07T13:54:35.000Z</time>
      </trkpt>
      <trkpt lat="47.72052" lon="16.18477">
        <ele>357.707299</ele>
        <time>2026-07-07T13:54:36.000Z</time>
      </trkpt>
      <trkpt lat="47.72047" lon="16.18473">
        <ele>357.732676</ele>
        <time>2026-07-07T13:54:37.000Z</time>
      </trkpt>
      <trkpt lat="47.72041" lon="16.18471">
        <ele>357.75889</ele>
        <time>2026-07-07T13:54:38.000Z</time>
      </trkpt>
      <trkpt lat="47.72036" lon="16.18468">
        <ele>357.784572</ele>
        <time>2026-07-07T13:54:39.000Z</time>
      </trkpt>
      <trkpt lat="47.7203" lon="16.18467">
        <ele>357.810285</ele>
        <time>2026-07-07T13:54:40.000Z</time>
      </trkpt>
      <trkpt lat="47.72025" lon="16.18465">
        <ele>357.836336</ele>
        <time>2026-07-07T13:54:41.000Z</time>
      </trkpt>
      <trkpt lat="47.72019" lon="16.18465">
        <ele>357.862152</ele>
        <time>2026-07-07T13:54:42.000Z</time>
      </trkpt>
      <trkpt lat="47.72013" lon="16.18464">
        <ele>357.88741</ele>
        <time>2026-07-07T13:54:43.000Z</time>
      </trkpt>
      <trkpt lat="47.72007" lon="16.18465">
        <ele>357.91402</ele>
        <time>2026-07-07T13:54:44.000Z</time>
      </trkpt>
      <trkpt lat="47.72002" lon="16.18465">
        <ele>357.938837</ele>
        <time>2026-07-07T13:54:45.000Z</time>
      </trkpt>
      <trkpt lat="47.71996" lon="16.18465">
        <ele>357.964133</ele>
        <time>2026-07-07T13:54:46.000Z</time>
      </trkpt>
      <trkpt lat="47.71991" lon="16.18466">
        <ele>357.989864</ele>
        <time>2026-07-07T13:54:47.000Z</time>
      </trkpt>
      <trkpt lat="47.71985" lon="16.18466">
        <ele>358.01561</ele>
        <time>2026-07-07T13:54:48.000Z</time>
      </trkpt>
      <trkpt lat="47.71979" lon="16.18467">
        <ele>358.040457</ele>
        <time>2026-07-07T13:54:49.000Z</time>
      </trkpt>
      <trkpt lat="47.71974" lon="16.18467">
        <ele>358.063525</ele>
        <time>2026-07-07T13:54:50.000Z</time>
      </trkpt>
      <trkpt lat="47.71969" lon="16.18468">
        <ele>358.08698</ele>
        <time>2026-07-07T13:54:51.000Z</time>
      </trkpt>
      <trkpt lat="47.71964" lon="16.18468">
        <ele>358.122711</ele>
        <time>2026-07-07T13:54:52.000Z</time>
      </trkpt>
      <trkpt lat="47.7196" lon="16.18468">
        <ele>358.183902</ele>
        <time>2026-07-07T13:54:53.000Z</time>
      </trkpt>
      <trkpt lat="47.71955" lon="16.18468">
        <ele>358.242465</ele>
        <time>2026-07-07T13:54:54.000Z</time>
      </trkpt>
      <trkpt lat="47.71951" lon="16.18468">
        <ele>358.301029</ele>
        <time>2026-07-07T13:54:55.000Z</time>
      </trkpt>
      <trkpt lat="47.71946" lon="16.18468">
        <ele>358.359598</ele>
        <time>2026-07-07T13:54:56.000Z</time>
      </trkpt>
      <trkpt lat="47.71942" lon="16.18468">
        <ele>358.418188</ele>
        <time>2026-07-07T13:54:57.000Z</time>
      </trkpt>
      <trkpt lat="47.71937" lon="16.18468">
        <ele>358.474148</ele>
        <time>2026-07-07T13:54:58.000Z</time>
      </trkpt>
      <trkpt lat="47.71933" lon="16.18468">
        <ele>358.535339</ele>
        <time>2026-07-07T13:54:59.000Z</time>
      </trkpt>
      <trkpt lat="47.71928" lon="16.18469">
        <ele>358.596662</ele>
        <time>2026-07-07T13:55:00.000Z</time>
      </trkpt>
      <trkpt lat="47.71923" lon="16.18469">
        <ele>358.656756</ele>
        <time>2026-07-07T13:55:01.000Z</time>
      </trkpt>
      <trkpt lat="47.71918" lon="16.1847">
        <ele>358.720819</ele>
        <time>2026-07-07T13:55:02.000Z</time>
      </trkpt>
      <trkpt lat="47.71914" lon="16.18471">
        <ele>358.781599</ele>
        <time>2026-07-07T13:55:03.000Z</time>
      </trkpt>
      <trkpt lat="47.71909" lon="16.18473">
        <ele>358.846706</ele>
        <time>2026-07-07T13:55:04.000Z</time>
      </trkpt>
      <trkpt lat="47.71904" lon="16.18474">
        <ele>358.910725</ele>
        <time>2026-07-07T13:55:05.000Z</time>
      </trkpt>
      <trkpt lat="47.71895" lon="16.18479">
        <ele>359.040484</ele>
        <time>2026-07-07T13:55:07.000Z</time>
      </trkpt>
      <trkpt lat="47.71885" lon="16.18484">
        <ele>359.17285</ele>
        <time>2026-07-07T13:55:08.000Z</time>
      </trkpt>
      <trkpt lat="47.7188" lon="16.18487">
        <ele>359.239767</ele>
        <time>2026-07-07T13:55:10.000Z</time>
      </trkpt>
      <trkpt lat="47.71876" lon="16.18491">
        <ele>359.304687</ele>
        <time>2026-07-07T13:55:11.000Z</time>
      </trkpt>
      <trkpt lat="47.71867" lon="16.18498">
        <ele>359.440351</ele>
        <time>2026-07-07T13:55:12.000Z</time>
      </trkpt>
      <trkpt lat="47.71862" lon="16.18501">
        <ele>359.507629</ele>
        <time>2026-07-07T13:55:13.000Z</time>
      </trkpt>
      <trkpt lat="47.71857" lon="16.18504">
        <ele>359.574735</ele>
        <time>2026-07-07T13:55:14.000Z</time>
      </trkpt>
      <trkpt lat="47.71852" lon="16.18506">
        <ele>359.640104</ele>
        <time>2026-07-07T13:55:16.000Z</time>
      </trkpt>
      <trkpt lat="47.71842" lon="16.18509">
        <ele>359.773804</ele>
        <time>2026-07-07T13:55:17.000Z</time>
      </trkpt>
      <trkpt lat="47.71837" lon="16.18511">
        <ele>359.840756</ele>
        <time>2026-07-07T13:55:18.000Z</time>
      </trkpt>
      <trkpt lat="47.71832" lon="16.18513">
        <ele>359.909691</ele>
        <time>2026-07-07T13:55:19.000Z</time>
      </trkpt>
      <trkpt lat="47.71827" lon="16.18514">
        <ele>359.975348</ele>
        <time>2026-07-07T13:55:20.000Z</time>
      </trkpt>
      <trkpt lat="47.71822" lon="16.18515">
        <ele>360.041406</ele>
        <time>2026-07-07T13:55:21.000Z</time>
      </trkpt>
      <trkpt lat="47.71817" lon="16.18516">
        <ele>360.107063</ele>
        <time>2026-07-07T13:55:22.000Z</time>
      </trkpt>
      <trkpt lat="47.71812" lon="16.18517">
        <ele>360.17272</ele>
        <time>2026-07-07T13:55:23.000Z</time>
      </trkpt>
      <trkpt lat="47.71807" lon="16.18518">
        <ele>360.235798</ele>
        <time>2026-07-07T13:55:24.000Z</time>
      </trkpt>
      <trkpt lat="47.71802" lon="16.18519">
        <ele>360.301343</ele>
        <time>2026-07-07T13:55:25.000Z</time>
      </trkpt>
      <trkpt lat="47.71797" lon="16.1852">
        <ele>360.366789</ele>
        <time>2026-07-07T13:55:26.000Z</time>
      </trkpt>
      <trkpt lat="47.71792" lon="16.1852">
        <ele>360.430942</ele>
        <time>2026-07-07T13:55:27.000Z</time>
      </trkpt>
      <trkpt lat="47.71788" lon="16.18521">
        <ele>360.459707</ele>
        <time>2026-07-07T13:55:28.000Z</time>
      </trkpt>
      <trkpt lat="47.71783" lon="16.18523">
        <ele>360.481335</ele>
        <time>2026-07-07T13:55:29.000Z</time>
      </trkpt>
      <trkpt lat="47.71778" lon="16.18524">
        <ele>360.503312</ele>
        <time>2026-07-07T13:55:30.000Z</time>
      </trkpt>
      <trkpt lat="47.71773" lon="16.18525">
        <ele>360.523969</ele>
        <time>2026-07-07T13:55:31.000Z</time>
      </trkpt>
      <trkpt lat="47.71769" lon="16.18525">
        <ele>360.544989</ele>
        <time>2026-07-07T13:55:32.000Z</time>
      </trkpt>
      <trkpt lat="47.71764" lon="16.18526">
        <ele>360.565165</ele>
        <time>2026-07-07T13:55:33.000Z</time>
      </trkpt>
      <trkpt lat="47.71759" lon="16.18527">
        <ele>360.586262</ele>
        <time>2026-07-07T13:55:34.000Z</time>
      </trkpt>
      <trkpt lat="47.71755" lon="16.18528">
        <ele>360.606399</ele>
        <time>2026-07-07T13:55:35.000Z</time>
      </trkpt>
      <trkpt lat="47.7175" lon="16.18529">
        <ele>360.62645</ele>
        <time>2026-07-07T13:55:36.000Z</time>
      </trkpt>
      <trkpt lat="47.71746" lon="16.18529">
        <ele>360.646555</ele>
        <time>2026-07-07T13:55:37.000Z</time>
      </trkpt>
      <trkpt lat="47.71742" lon="16.1853">
        <ele>360.664795</ele>
        <time>2026-07-07T13:55:38.000Z</time>
      </trkpt>
      <trkpt lat="47.71737" lon="16.1853">
        <ele>360.684355</ele>
        <time>2026-07-07T13:55:39.000Z</time>
      </trkpt>
      <trkpt lat="47.71733" lon="16.1853">
        <ele>360.702151</ele>
        <time>2026-07-07T13:55:40.000Z</time>
      </trkpt>
      <trkpt lat="47.71729" lon="16.18531">
        <ele>360.72043</ele>
        <time>2026-07-07T13:55:41.000Z</time>
      </trkpt>
      <trkpt lat="47.71725" lon="16.18531">
        <ele>360.740481</ele>
        <time>2026-07-07T13:55:42.000Z</time>
      </trkpt>
      <trkpt lat="47.7172" lon="16.18531">
        <ele>360.762272</ele>
        <time>2026-07-07T13:55:43.000Z</time>
      </trkpt>
      <trkpt lat="47.71715" lon="16.18531">
        <ele>360.782712</ele>
        <time>2026-07-07T13:55:44.000Z</time>
      </trkpt>
      <trkpt lat="47.71711" lon="16.18531">
        <ele>360.803673</ele>
        <time>2026-07-07T13:55:45.000Z</time>
      </trkpt>
      <trkpt lat="47.71706" lon="16.18529">
        <ele>360.825468</ele>
        <time>2026-07-07T13:55:46.000Z</time>
      </trkpt>
      <trkpt lat="47.71701" lon="16.18526">
        <ele>360.848079</ele>
        <time>2026-07-07T13:55:47.000Z</time>
      </trkpt>
      <trkpt lat="47.71697" lon="16.18523">
        <ele>360.870308</ele>
        <time>2026-07-07T13:55:48.000Z</time>
      </trkpt>
      <trkpt lat="47.71693" lon="16.18519">
        <ele>360.891703</ele>
        <time>2026-07-07T13:55:49.000Z</time>
      </trkpt>
      <trkpt lat="47.71688" lon="16.18516">
        <ele>360.913869</ele>
        <time>2026-07-07T13:55:50.000Z</time>
      </trkpt>
      <trkpt lat="47.71683" lon="16.18513">
        <ele>360.936598</ele>
        <time>2026-07-07T13:55:51.000Z</time>
      </trkpt>
      <trkpt lat="47.71679" lon="16.1851">
        <ele>360.959293</ele>
        <time>2026-07-07T13:55:52.000Z</time>
      </trkpt>
      <trkpt lat="47.71674" lon="16.18506">
        <ele>360.983197</ele>
        <time>2026-07-07T13:55:53.000Z</time>
      </trkpt>
      <trkpt lat="47.71669" lon="16.18503">
        <ele>361.006024</ele>
        <time>2026-07-07T13:55:54.000Z</time>
      </trkpt>
      <trkpt lat="47.71665" lon="16.185">
        <ele>361.028752</ele>
        <time>2026-07-07T13:55:55.000Z</time>
      </trkpt>
      <trkpt lat="47.7166" lon="16.18497">
        <ele>361.051665</ele>
        <time>2026-07-07T13:55:56.000Z</time>
      </trkpt>
      <trkpt lat="47.71655" lon="16.18494">
        <ele>361.074393</ele>
        <time>2026-07-07T13:55:57.000Z</time>
      </trkpt>
      <trkpt lat="47.7165" lon="16.18491">
        <ele>361.097121</ele>
        <time>2026-07-07T13:55:58.000Z</time>
      </trkpt>
      <trkpt lat="47.71646" lon="16.18488">
        <ele>361.117306</ele>
        <time>2026-07-07T13:55:59.000Z</time>
      </trkpt>
      <trkpt lat="47.71642" lon="16.18485">
        <ele>361.137612</ele>
        <time>2026-07-07T13:56:00.000Z</time>
      </trkpt>
      <trkpt lat="47.71638" lon="16.18482">
        <ele>361.156604</ele>
        <time>2026-07-07T13:56:01.000Z</time>
      </trkpt>
      <trkpt lat="47.71634" lon="16.1848">
        <ele>361.176125</ele>
        <time>2026-07-07T13:56:02.000Z</time>
      </trkpt>
      <trkpt lat="47.71631" lon="16.18477">
        <ele>361.194356</ele>
        <time>2026-07-07T13:56:03.000Z</time>
      </trkpt>
      <trkpt lat="47.71627" lon="16.18475">
        <ele>361.210427</ele>
        <time>2026-07-07T13:56:04.000Z</time>
      </trkpt>
      <trkpt lat="47.71624" lon="16.18473">
        <ele>361.227025</ele>
        <time>2026-07-07T13:56:05.000Z</time>
      </trkpt>
      <trkpt lat="47.71621" lon="16.18471">
        <ele>361.245926</ele>
        <time>2026-07-07T13:56:06.000Z</time>
      </trkpt>
      <trkpt lat="47.71618" lon="16.18469">
        <ele>361.286356</ele>
        <time>2026-07-07T13:56:07.000Z</time>
      </trkpt>
      <trkpt lat="47.71615" lon="16.18467">
        <ele>361.322081</ele>
        <time>2026-07-07T13:56:08.000Z</time>
      </trkpt>
      <trkpt lat="47.71613" lon="16.18464">
        <ele>361.351488</ele>
        <time>2026-07-07T13:56:09.000Z</time>
      </trkpt>
      <trkpt lat="47.71612" lon="16.18462">
        <ele>361.374833</ele>
        <time>2026-07-07T13:56:10.000Z</time>
      </trkpt>
      <trkpt lat="47.71613" lon="16.1846">
        <ele>361.392485</ele>
        <time>2026-07-07T13:56:12.000Z</time>
      </trkpt>
      <trkpt lat="47.71613" lon="16.18456">
        <ele>361.422365</ele>
        <time>2026-07-07T13:56:13.000Z</time>
      </trkpt>
      <trkpt lat="47.71614" lon="16.18454">
        <ele>361.439244</ele>
        <time>2026-07-07T13:56:14.000Z</time>
      </trkpt>
      <trkpt lat="47.71614" lon="16.18452">
        <ele>361.456895</ele>
        <time>2026-07-07T13:56:15.000Z</time>
      </trkpt>
      <trkpt lat="47.71615" lon="16.18451">
        <ele>361.47149</ele>
        <time>2026-07-07T13:56:16.000Z</time>
      </trkpt>
      <trkpt lat="47.71616" lon="16.18449">
        <ele>361.487509</ele>
        <time>2026-07-07T13:56:17.000Z</time>
      </trkpt>
      <trkpt lat="47.71616" lon="16.18449">
        <ele>361.495411</ele>
        <time>2026-07-07T13:56:18.000Z</time>
      </trkpt>
      <trkpt lat="47.71616" lon="16.18448">
        <ele>361.498942</ele>
        <time>2026-07-07T13:56:19.000Z</time>
      </trkpt>
      <trkpt lat="47.71616" lon="16.18448">
        <ele>361.500171</ele>
        <time>2026-07-07T13:56:20.000Z</time>
      </trkpt>
      <trkpt lat="47.71617" lon="16.18444">
        <ele>361.538936</ele>
        <time>2026-07-07T13:56:31.000Z</time>
      </trkpt>
      <trkpt lat="47.71617" lon="16.18443">
        <ele>361.543059</ele>
        <time>2026-07-07T13:56:32.000Z</time>
      </trkpt>
      <trkpt lat="47.71616" lon="16.1844">
        <ele>361.574649</ele>
        <time>2026-07-07T13:56:44.000Z</time>
      </trkpt>
      <trkpt lat="47.71615" lon="16.18439">
        <ele>361.589469</ele>
        <time>2026-07-07T13:56:45.000Z</time>
      </trkpt>
      <trkpt lat="47.71614" lon="16.18438">
        <ele>361.601408</ele>
        <time>2026-07-07T13:56:46.000Z</time>
      </trkpt>
      <trkpt lat="47.71614" lon="16.18438">
        <ele>361.60695</ele>
        <time>2026-07-07T13:56:47.000Z</time>
      </trkpt>
      <trkpt lat="47.7161" lon="16.18439">
        <ele>361.646851</ele>
        <time>2026-07-07T13:56:53.000Z</time>
      </trkpt>
      <trkpt lat="47.7161" lon="16.18439">
        <ele>361.653218</ele>
        <time>2026-07-07T13:56:54.000Z</time>
      </trkpt>
      <trkpt lat="47.7161" lon="16.18438">
        <ele>361.658174</ele>
        <time>2026-07-07T13:56:55.000Z</time>
      </trkpt>
      <trkpt lat="47.7161" lon="16.18438">
        <ele>361.660656</ele>
        <time>2026-07-07T13:56:56.000Z</time>
      </trkpt>
      <trkpt lat="47.7161" lon="16.18438">
        <ele>361.663138</ele>
        <time>2026-07-07T13:56:57.000Z</time>
      </trkpt>
      <trkpt lat="47.7161" lon="16.18438">
        <ele>361.663138</ele>
        <time>2026-07-07T14:21:02.000Z</time>
      </trkpt>
      <trkpt lat="47.71607" lon="16.18443">
        <ele>361.716787</ele>
        <time>2026-07-07T14:29:57.000Z</time>
      </trkpt>
      <trkpt lat="47.71607" lon="16.18446">
        <ele>361.739689</ele>
        <time>2026-07-07T14:29:58.000Z</time>
      </trkpt>
      <trkpt lat="47.71606" lon="16.18448">
        <ele>361.762592</ele>
        <time>2026-07-07T14:29:59.000Z</time>
      </trkpt>
      <trkpt lat="47.71605" lon="16.18451">
        <ele>361.787521</ele>
        <time>2026-07-07T14:30:00.000Z</time>
      </trkpt>
      <trkpt lat="47.71604" lon="16.18454">
        <ele>361.815219</ele>
        <time>2026-07-07T14:30:01.000Z</time>
      </trkpt>
      <trkpt lat="47.71604" lon="16.18457">
        <ele>361.841721</ele>
        <time>2026-07-07T14:30:02.000Z</time>
      </trkpt>
      <trkpt lat="47.71604" lon="16.18461">
        <ele>361.871322</ele>
        <time>2026-07-07T14:30:03.000Z</time>
      </trkpt>
      <trkpt lat="47.71604" lon="16.18464">
        <ele>361.901207</ele>
        <time>2026-07-07T14:30:04.000Z</time>
      </trkpt>
      <trkpt lat="47.71603" lon="16.18468">
        <ele>361.936509</ele>
        <time>2026-07-07T14:30:05.000Z</time>
      </trkpt>
      <trkpt lat="47.71602" lon="16.18473">
        <ele>361.97426</ele>
        <time>2026-07-07T14:30:06.000Z</time>
      </trkpt>
      <trkpt lat="47.716" lon="16.18477">
        <ele>362.014331</ele>
        <time>2026-07-07T14:30:07.000Z</time>
      </trkpt>
      <trkpt lat="47.71599" lon="16.18481">
        <ele>362.051082</ele>
        <time>2026-07-07T14:30:08.000Z</time>
      </trkpt>
      <trkpt lat="47.71598" lon="16.18484">
        <ele>362.07878</ele>
        <time>2026-07-07T14:30:09.000Z</time>
      </trkpt>
      <trkpt lat="47.71597" lon="16.18486">
        <ele>362.101683</ele>
        <time>2026-07-07T14:30:10.000Z</time>
      </trkpt>
      <trkpt lat="47.71596" lon="16.1849">
        <ele>362.13191</ele>
        <time>2026-07-07T14:30:11.000Z</time>
      </trkpt>
      <trkpt lat="47.71596" lon="16.18493">
        <ele>362.162491</ele>
        <time>2026-07-07T14:30:12.000Z</time>
      </trkpt>
      <trkpt lat="47.71595" lon="16.18498">
        <ele>362.199092</ele>
        <time>2026-07-07T14:30:13.000Z</time>
      </trkpt>
      <trkpt lat="47.71594" lon="16.18502">
        <ele>362.238299</ele>
        <time>2026-07-07T14:30:14.000Z</time>
      </trkpt>
      <trkpt lat="47.71592" lon="16.18506">
        <ele>362.27837</ele>
        <time>2026-07-07T14:30:15.000Z</time>
      </trkpt>
      <trkpt lat="47.71591" lon="16.18511">
        <ele>362.319568</ele>
        <time>2026-07-07T14:30:16.000Z</time>
      </trkpt>
      <trkpt lat="47.71589" lon="16.18515">
        <ele>362.362264</ele>
        <time>2026-07-07T14:30:17.000Z</time>
      </trkpt>
      <trkpt lat="47.71587" lon="16.1852">
        <ele>362.405841</ele>
        <time>2026-07-07T14:30:18.000Z</time>
      </trkpt>
      <trkpt lat="47.71586" lon="16.18524">
        <ele>362.44761</ele>
        <time>2026-07-07T14:30:19.000Z</time>
      </trkpt>
      <trkpt lat="47.71585" lon="16.18529">
        <ele>362.488125</ele>
        <time>2026-07-07T14:30:20.000Z</time>
      </trkpt>
      <trkpt lat="47.71583" lon="16.18533">
        <ele>362.529673</ele>
        <time>2026-07-07T14:30:21.000Z</time>
      </trkpt>
      <trkpt lat="47.71582" lon="16.18538">
        <ele>362.570481</ele>
        <time>2026-07-07T14:30:22.000Z</time>
      </trkpt>
      <trkpt lat="47.7158" lon="16.18542">
        <ele>362.607232</ele>
        <time>2026-07-07T14:30:23.000Z</time>
      </trkpt>
      <trkpt lat="47.71579" lon="16.18546">
        <ele>362.644534</ele>
        <time>2026-07-07T14:30:24.000Z</time>
      </trkpt>
      <trkpt lat="47.71578" lon="16.1855">
        <ele>362.678758</ele>
        <time>2026-07-07T14:30:25.000Z</time>
      </trkpt>
      <trkpt lat="47.71576" lon="16.18554">
        <ele>362.718278</ele>
        <time>2026-07-07T14:30:26.000Z</time>
      </trkpt>
      <trkpt lat="47.71575" lon="16.18558">
        <ele>362.759826</ele>
        <time>2026-07-07T14:30:27.000Z</time>
      </trkpt>
      <trkpt lat="47.71573" lon="16.18564">
        <ele>362.807131</ele>
        <time>2026-07-07T14:30:28.000Z</time>
      </trkpt>
      <trkpt lat="47.71571" lon="16.18568">
        <ele>362.856607</ele>
        <time>2026-07-07T14:30:29.000Z</time>
      </trkpt>
      <trkpt lat="47.71568" lon="16.18572">
        <ele>362.905495</ele>
        <time>2026-07-07T14:30:30.000Z</time>
      </trkpt>
      <trkpt lat="47.71564" lon="16.18574">
        <ele>362.95794</ele>
        <time>2026-07-07T14:30:31.000Z</time>
      </trkpt>
      <trkpt lat="47.71559" lon="16.18575">
        <ele>363.012101</ele>
        <time>2026-07-07T14:30:32.000Z</time>
      </trkpt>
      <trkpt lat="47.71555" lon="16.18574">
        <ele>363.06805</ele>
        <time>2026-07-07T14:30:33.000Z</time>
      </trkpt>
      <trkpt lat="47.71546" lon="16.18571">
        <ele>363.175475</ele>
        <time>2026-07-07T14:30:35.000Z</time>
      </trkpt>
      <trkpt lat="47.71538" lon="16.18568">
        <ele>363.285964</ele>
        <time>2026-07-07T14:30:36.000Z</time>
      </trkpt>
      <trkpt lat="47.71533" lon="16.18566">
        <ele>363.343267</ele>
        <time>2026-07-07T14:30:37.000Z</time>
      </trkpt>
      <trkpt lat="47.71529" lon="16.18564">
        <ele>363.401021</ele>
        <time>2026-07-07T14:30:38.000Z</time>
      </trkpt>
      <trkpt lat="47.71524" lon="16.18562">
        <ele>363.45389</ele>
        <time>2026-07-07T14:30:39.000Z</time>
      </trkpt>
      <trkpt lat="47.7152" lon="16.18558">
        <ele>363.466635</ele>
        <time>2026-07-07T14:30:40.000Z</time>
      </trkpt>
      <trkpt lat="47.71516" lon="16.18555">
        <ele>363.480178</ele>
        <time>2026-07-07T14:30:41.000Z</time>
      </trkpt>
      <trkpt lat="47.71511" lon="16.18551">
        <ele>363.493889</ele>
        <time>2026-07-07T14:30:42.000Z</time>
      </trkpt>
      <trkpt lat="47.71507" lon="16.18547">
        <ele>363.507271</ele>
        <time>2026-07-07T14:30:43.000Z</time>
      </trkpt>
      <trkpt lat="47.71503" lon="16.18543">
        <ele>363.52063</ele>
        <time>2026-07-07T14:30:44.000Z</time>
      </trkpt>
      <trkpt lat="47.71499" lon="16.18539">
        <ele>363.534013</ele>
        <time>2026-07-07T14:30:45.000Z</time>
      </trkpt>
      <trkpt lat="47.71494" lon="16.18535">
        <ele>363.547396</ele>
        <time>2026-07-07T14:30:46.000Z</time>
      </trkpt>
      <trkpt lat="47.7149" lon="16.18531">
        <ele>363.56033</ele>
        <time>2026-07-07T14:30:47.000Z</time>
      </trkpt>
      <trkpt lat="47.71486" lon="16.18527">
        <ele>363.573469</ele>
        <time>2026-07-07T14:30:48.000Z</time>
      </trkpt>
      <trkpt lat="47.71483" lon="16.18522">
        <ele>363.586504</ele>
        <time>2026-07-07T14:30:49.000Z</time>
      </trkpt>
      <trkpt lat="47.71479" lon="16.18518">
        <ele>363.599539</ele>
        <time>2026-07-07T14:30:50.000Z</time>
      </trkpt>
      <trkpt lat="47.71475" lon="16.18514">
        <ele>363.612251</ele>
        <time>2026-07-07T14:30:51.000Z</time>
      </trkpt>
      <trkpt lat="47.71471" lon="16.1851">
        <ele>363.625495</ele>
        <time>2026-07-07T14:30:52.000Z</time>
      </trkpt>
      <trkpt lat="47.71467" lon="16.18505">
        <ele>363.638739</ele>
        <time>2026-07-07T14:30:53.000Z</time>
      </trkpt>
      <trkpt lat="47.71463" lon="16.18501">
        <ele>363.652413</ele>
        <time>2026-07-07T14:30:54.000Z</time>
      </trkpt>
      <trkpt lat="47.71459" lon="16.18496">
        <ele>363.665659</ele>
        <time>2026-07-07T14:30:55.000Z</time>
      </trkpt>
      <trkpt lat="47.71455" lon="16.18492">
        <ele>363.678313</ele>
        <time>2026-07-07T14:30:56.000Z</time>
      </trkpt>
      <trkpt lat="47.71452" lon="16.18487">
        <ele>363.690956</ele>
        <time>2026-07-07T14:30:57.000Z</time>
      </trkpt>
      <trkpt lat="47.71449" lon="16.18481">
        <ele>363.703321</ele>
        <time>2026-07-07T14:30:58.000Z</time>
      </trkpt>
      <trkpt lat="47.71447" lon="16.18476">
        <ele>363.715452</ele>
        <time>2026-07-07T14:30:59.000Z</time>
      </trkpt>
      <trkpt lat="47.71444" lon="16.1847">
        <ele>363.728104</ele>
        <time>2026-07-07T14:31:00.000Z</time>
      </trkpt>
      <trkpt lat="47.71443" lon="16.18463">
        <ele>363.740293</ele>
        <time>2026-07-07T14:31:01.000Z</time>
      </trkpt>
      <trkpt lat="47.71441" lon="16.18457">
        <ele>363.752356</ele>
        <time>2026-07-07T14:31:02.000Z</time>
      </trkpt>
      <trkpt lat="47.7144" lon="16.18451">
        <ele>363.76476</ele>
        <time>2026-07-07T14:31:03.000Z</time>
      </trkpt>
      <trkpt lat="47.71438" lon="16.18445">
        <ele>363.776846</ele>
        <time>2026-07-07T14:31:04.000Z</time>
      </trkpt>
      <trkpt lat="47.71434" lon="16.18439">
        <ele>363.789567</ele>
        <time>2026-07-07T14:31:05.000Z</time>
      </trkpt>
      <trkpt lat="47.71431" lon="16.18436">
        <ele>363.801854</ele>
        <time>2026-07-07T14:31:06.000Z</time>
      </trkpt>
      <trkpt lat="47.71426" lon="16.18432">
        <ele>363.814755</ele>
        <time>2026-07-07T14:31:07.000Z</time>
      </trkpt>
      <trkpt lat="47.71422" lon="16.1843">
        <ele>363.827596</ele>
        <time>2026-07-07T14:31:08.000Z</time>
      </trkpt>
      <trkpt lat="47.71418" lon="16.18427">
        <ele>363.839856</ele>
        <time>2026-07-07T14:31:09.000Z</time>
      </trkpt>
      <trkpt lat="47.71413" lon="16.18423">
        <ele>363.853245</ele>
        <time>2026-07-07T14:31:10.000Z</time>
      </trkpt>
      <trkpt lat="47.7141" lon="16.18419">
        <ele>363.86628</ele>
        <time>2026-07-07T14:31:11.000Z</time>
      </trkpt>
      <trkpt lat="47.71406" lon="16.18413">
        <ele>363.879557</ele>
        <time>2026-07-07T14:31:12.000Z</time>
      </trkpt>
      <trkpt lat="47.71403" lon="16.18408">
        <ele>363.892763</ele>
        <time>2026-07-07T14:31:13.000Z</time>
      </trkpt>
      <trkpt lat="47.71401" lon="16.18401">
        <ele>363.906277</ele>
        <time>2026-07-07T14:31:14.000Z</time>
      </trkpt>
      <trkpt lat="47.71399" lon="16.18394">
        <ele>363.919673</ele>
        <time>2026-07-07T14:31:15.000Z</time>
      </trkpt>
      <trkpt lat="47.71397" lon="16.18387">
        <ele>363.933447</ele>
        <time>2026-07-07T14:31:16.000Z</time>
      </trkpt>
      <trkpt lat="47.71395" lon="16.1838">
        <ele>363.942622</ele>
        <time>2026-07-07T14:31:17.000Z</time>
      </trkpt>
      <trkpt lat="47.71393" lon="16.18373">
        <ele>363.951141</ele>
        <time>2026-07-07T14:31:18.000Z</time>
      </trkpt>
      <trkpt lat="47.71391" lon="16.18366">
        <ele>363.960009</ele>
        <time>2026-07-07T14:31:19.000Z</time>
      </trkpt>
      <trkpt lat="47.71389" lon="16.1836">
        <ele>363.968803</ele>
        <time>2026-07-07T14:31:20.000Z</time>
      </trkpt>
      <trkpt lat="47.71386" lon="16.18353">
        <ele>363.977154</ele>
        <time>2026-07-07T14:31:21.000Z</time>
      </trkpt>
      <trkpt lat="47.71384" lon="16.18347">
        <ele>363.985225</ele>
        <time>2026-07-07T14:31:22.000Z</time>
      </trkpt>
      <trkpt lat="47.71382" lon="16.1834">
        <ele>363.993324</ele>
        <time>2026-07-07T14:31:23.000Z</time>
      </trkpt>
      <trkpt lat="47.71381" lon="16.18334">
        <ele>364.001436</ele>
        <time>2026-07-07T14:31:24.000Z</time>
      </trkpt>
      <trkpt lat="47.71379" lon="16.18327">
        <ele>364.009324</ele>
        <time>2026-07-07T14:31:25.000Z</time>
      </trkpt>
      <trkpt lat="47.71377" lon="16.18321">
        <ele>364.017286</ele>
        <time>2026-07-07T14:31:26.000Z</time>
      </trkpt>
      <trkpt lat="47.71375" lon="16.18315">
        <ele>364.025001</ele>
        <time>2026-07-07T14:31:27.000Z</time>
      </trkpt>
      <trkpt lat="47.71373" lon="16.18309">
        <ele>364.032928</ele>
        <time>2026-07-07T14:31:28.000Z</time>
      </trkpt>
      <trkpt lat="47.71371" lon="16.18303">
        <ele>364.040973</ele>
        <time>2026-07-07T14:31:29.000Z</time>
      </trkpt>
      <trkpt lat="47.71369" lon="16.18296">
        <ele>364.048644</ele>
        <time>2026-07-07T14:31:30.000Z</time>
      </trkpt>
      <trkpt lat="47.71367" lon="16.1829">
        <ele>364.056744</ele>
        <time>2026-07-07T14:31:31.000Z</time>
      </trkpt>
      <trkpt lat="47.71366" lon="16.18283">
        <ele>364.064812</ele>
        <time>2026-07-07T14:31:32.000Z</time>
      </trkpt>
      <trkpt lat="47.71363" lon="16.18277">
        <ele>364.073164</ele>
        <time>2026-07-07T14:31:33.000Z</time>
      </trkpt>
      <trkpt lat="47.71361" lon="16.1827">
        <ele>364.081757</ele>
        <time>2026-07-07T14:31:34.000Z</time>
      </trkpt>
      <trkpt lat="47.71358" lon="16.18264">
        <ele>364.090338</ele>
        <time>2026-07-07T14:31:35.000Z</time>
      </trkpt>
      <trkpt lat="47.71356" lon="16.18258">
        <ele>364.098203</ele>
        <time>2026-07-07T14:31:36.000Z</time>
      </trkpt>
      <trkpt lat="47.71354" lon="16.18252">
        <ele>364.106232</ele>
        <time>2026-07-07T14:31:37.000Z</time>
      </trkpt>
      <trkpt lat="47.71352" lon="16.18246">
        <ele>364.113962</ele>
        <time>2026-07-07T14:31:38.000Z</time>
      </trkpt>
      <trkpt lat="47.7135" lon="16.18239">
        <ele>364.122007</ele>
        <time>2026-07-07T14:31:39.000Z</time>
      </trkpt>
      <trkpt lat="47.71347" lon="16.18234">
        <ele>364.129638</ele>
        <time>2026-07-07T14:31:40.000Z</time>
      </trkpt>
      <trkpt lat="47.71344" lon="16.18229">
        <ele>364.137074</ele>
        <time>2026-07-07T14:31:41.000Z</time>
      </trkpt>
      <trkpt lat="47.71341" lon="16.18226">
        <ele>364.143652</ele>
        <time>2026-07-07T14:31:42.000Z</time>
      </trkpt>
      <trkpt lat="47.71339" lon="16.18223">
        <ele>364.149411</ele>
        <time>2026-07-07T14:31:43.000Z</time>
      </trkpt>
      <trkpt lat="47.71336" lon="16.1822">
        <ele>364.155579</ele>
        <time>2026-07-07T14:31:44.000Z</time>
      </trkpt>
      <trkpt lat="47.71333" lon="16.18217">
        <ele>364.161748</ele>
        <time>2026-07-07T14:31:45.000Z</time>
      </trkpt>
      <trkpt lat="47.7133" lon="16.18213">
        <ele>364.168268</ele>
        <time>2026-07-07T14:31:46.000Z</time>
      </trkpt>
      <trkpt lat="47.71329" lon="16.18208">
        <ele>364.174306</ele>
        <time>2026-07-07T14:31:47.000Z</time>
      </trkpt>
      <trkpt lat="47.71329" lon="16.18202">
        <ele>364.180972</ele>
        <time>2026-07-07T14:31:48.000Z</time>
      </trkpt>
      <trkpt lat="47.71329" lon="16.18195">
        <ele>364.188785</ele>
        <time>2026-07-07T14:31:49.000Z</time>
      </trkpt>
      <trkpt lat="47.71329" lon="16.18189">
        <ele>364.196248</ele>
        <time>2026-07-07T14:31:50.000Z</time>
      </trkpt>
      <trkpt lat="47.71329" lon="16.18182">
        <ele>364.203594</ele>
        <time>2026-07-07T14:31:51.000Z</time>
      </trkpt>
      <trkpt lat="47.7133" lon="16.18176">
        <ele>364.211549</ele>
        <time>2026-07-07T14:31:52.000Z</time>
      </trkpt>
      <trkpt lat="47.7133" lon="16.18169">
        <ele>364.219028</ele>
        <time>2026-07-07T14:31:53.000Z</time>
      </trkpt>
      <trkpt lat="47.7133" lon="16.18163">
        <ele>364.226163</ele>
        <time>2026-07-07T14:31:54.000Z</time>
      </trkpt>
      <trkpt lat="47.71331" lon="16.18157">
        <ele>364.233173</ele>
        <time>2026-07-07T14:31:55.000Z</time>
      </trkpt>
      <trkpt lat="47.71331" lon="16.18151">
        <ele>364.240079</ele>
        <time>2026-07-07T14:31:56.000Z</time>
      </trkpt>
      <trkpt lat="47.71331" lon="16.18145">
        <ele>364.246007</ele>
        <time>2026-07-07T14:31:57.000Z</time>
      </trkpt>
      <trkpt lat="47.71331" lon="16.18141">
        <ele>364.251151</ele>
        <time>2026-07-07T14:31:58.000Z</time>
      </trkpt>
      <trkpt lat="47.71332" lon="16.18136">
        <ele>364.2562</ele>
        <time>2026-07-07T14:31:59.000Z</time>
      </trkpt>
      <trkpt lat="47.71332" lon="16.18131">
        <ele>364.261014</ele>
        <time>2026-07-07T14:32:00.000Z</time>
      </trkpt>
      <trkpt lat="47.71331" lon="16.18127">
        <ele>364.266184</ele>
        <time>2026-07-07T14:32:01.000Z</time>
      </trkpt>
      <trkpt lat="47.71328" lon="16.18123">
        <ele>364.271932</ele>
        <time>2026-07-07T14:32:02.000Z</time>
      </trkpt>
      <trkpt lat="47.71323" lon="16.18122">
        <ele>364.279182</ele>
        <time>2026-07-07T14:32:03.000Z</time>
      </trkpt>
      <trkpt lat="47.71319" lon="16.18121">
        <ele>364.28649</ele>
        <time>2026-07-07T14:32:04.000Z</time>
      </trkpt>
      <trkpt lat="47.71314" lon="16.18119">
        <ele>364.294668</ele>
        <time>2026-07-07T14:32:05.000Z</time>
      </trkpt>
      <trkpt lat="47.71309" lon="16.18116">
        <ele>364.302383</ele>
        <time>2026-07-07T14:32:06.000Z</time>
      </trkpt>
      <trkpt lat="47.71305" lon="16.18113">
        <ele>364.310316</ele>
        <time>2026-07-07T14:32:07.000Z</time>
      </trkpt>
      <trkpt lat="47.71301" lon="16.18108">
        <ele>364.318677</ele>
        <time>2026-07-07T14:32:08.000Z</time>
      </trkpt>
      <trkpt lat="47.71297" lon="16.18103">
        <ele>364.326985</ele>
        <time>2026-07-07T14:32:09.000Z</time>
      </trkpt>
      <trkpt lat="47.71293" lon="16.18099">
        <ele>364.334776</ele>
        <time>2026-07-07T14:32:10.000Z</time>
      </trkpt>
      <trkpt lat="47.71289" lon="16.18094">
        <ele>364.343134</ele>
        <time>2026-07-07T14:32:11.000Z</time>
      </trkpt>
      <trkpt lat="47.71285" lon="16.1809">
        <ele>364.351109</ele>
        <time>2026-07-07T14:32:12.000Z</time>
      </trkpt>
      <trkpt lat="47.71281" lon="16.18085">
        <ele>364.359084</ele>
        <time>2026-07-07T14:32:13.000Z</time>
      </trkpt>
      <trkpt lat="47.71277" lon="16.1808">
        <ele>364.366621</ele>
        <time>2026-07-07T14:32:14.000Z</time>
      </trkpt>
      <trkpt lat="47.71276" lon="16.18074">
        <ele>364.372958</ele>
        <time>2026-07-07T14:32:15.000Z</time>
      </trkpt>
      <trkpt lat="47.71276" lon="16.18068">
        <ele>364.37981</ele>
        <time>2026-07-07T14:32:16.000Z</time>
      </trkpt>
      <trkpt lat="47.71276" lon="16.18062">
        <ele>364.386549</ele>
        <time>2026-07-07T14:32:17.000Z</time>
      </trkpt>
      <trkpt lat="47.71276" lon="16.18055">
        <ele>364.393722</ele>
        <time>2026-07-07T14:32:18.000Z</time>
      </trkpt>
      <trkpt lat="47.71276" lon="16.18048">
        <ele>364.401216</ele>
        <time>2026-07-07T14:32:19.000Z</time>
      </trkpt>
      <trkpt lat="47.71275" lon="16.18041">
        <ele>364.408533</ele>
        <time>2026-07-07T14:32:20.000Z</time>
      </trkpt>
      <trkpt lat="47.71275" lon="16.18034">
        <ele>364.415822</ele>
        <time>2026-07-07T14:32:21.000Z</time>
      </trkpt>
      <trkpt lat="47.71275" lon="16.18028">
        <ele>364.423004</ele>
        <time>2026-07-07T14:32:22.000Z</time>
      </trkpt>
      <trkpt lat="47.71274" lon="16.18021">
        <ele>364.430305</ele>
        <time>2026-07-07T14:32:23.000Z</time>
      </trkpt>
      <trkpt lat="47.71274" lon="16.18014">
        <ele>364.437488</ele>
        <time>2026-07-07T14:32:24.000Z</time>
      </trkpt>
      <trkpt lat="47.71274" lon="16.18008">
        <ele>364.444136</ele>
        <time>2026-07-07T14:32:25.000Z</time>
      </trkpt>
      <trkpt lat="47.71273" lon="16.18002">
        <ele>364.450373</ele>
        <time>2026-07-07T14:32:26.000Z</time>
      </trkpt>
      <trkpt lat="47.71273" lon="16.17997">
        <ele>364.455723</ele>
        <time>2026-07-07T14:32:27.000Z</time>
      </trkpt>
      <trkpt lat="47.71273" lon="16.17992">
        <ele>364.460896</ele>
        <time>2026-07-07T14:32:28.000Z</time>
      </trkpt>
      <trkpt lat="47.71273" lon="16.17988">
        <ele>364.465924</ele>
        <time>2026-07-07T14:32:29.000Z</time>
      </trkpt>
      <trkpt lat="47.71272" lon="16.17983">
        <ele>364.470486</ele>
        <time>2026-07-07T14:32:30.000Z</time>
      </trkpt>
      <trkpt lat="47.71272" lon="16.1798">
        <ele>364.474578</ele>
        <time>2026-07-07T14:32:31.000Z</time>
      </trkpt>
      <trkpt lat="47.71272" lon="16.17976">
        <ele>364.478857</ele>
        <time>2026-07-07T14:32:32.000Z</time>
      </trkpt>
      <trkpt lat="47.71272" lon="16.17971">
        <ele>364.48336</ele>
        <time>2026-07-07T14:32:33.000Z</time>
      </trkpt>
      <trkpt lat="47.71272" lon="16.17967">
        <ele>364.487984</ele>
        <time>2026-07-07T14:32:34.000Z</time>
      </trkpt>
      <trkpt lat="47.71271" lon="16.17963">
        <ele>364.492863</ele>
        <time>2026-07-07T14:32:35.000Z</time>
      </trkpt>
      <trkpt lat="47.71271" lon="16.17958">
        <ele>364.497912</ele>
        <time>2026-07-07T14:32:36.000Z</time>
      </trkpt>
      <trkpt lat="47.7127" lon="16.17953">
        <ele>364.503108</ele>
        <time>2026-07-07T14:32:37.000Z</time>
      </trkpt>
      <trkpt lat="47.7127" lon="16.17948">
        <ele>364.508832</ele>
        <time>2026-07-07T14:32:38.000Z</time>
      </trkpt>
      <trkpt lat="47.71269" lon="16.17942">
        <ele>364.514749</ele>
        <time>2026-07-07T14:32:39.000Z</time>
      </trkpt>
      <trkpt lat="47.71269" lon="16.17937">
        <ele>364.520634</ele>
        <time>2026-07-07T14:32:40.000Z</time>
      </trkpt>
      <trkpt lat="47.71269" lon="16.17931">
        <ele>364.526739</ele>
        <time>2026-07-07T14:32:41.000Z</time>
      </trkpt>
      <trkpt lat="47.71269" lon="16.17926">
        <ele>364.540021</ele>
        <time>2026-07-07T14:32:42.000Z</time>
      </trkpt>
      <trkpt lat="47.71268" lon="16.1792">
        <ele>364.556838</ele>
        <time>2026-07-07T14:32:43.000Z</time>
      </trkpt>
      <trkpt lat="47.71269" lon="16.17915">
        <ele>364.574076</ele>
        <time>2026-07-07T14:32:44.000Z</time>
      </trkpt>
      <trkpt lat="47.7127" lon="16.17909">
        <ele>364.591319</ele>
        <time>2026-07-07T14:32:45.000Z</time>
      </trkpt>
      <trkpt lat="47.71273" lon="16.17904">
        <ele>364.609739</ele>
        <time>2026-07-07T14:32:46.000Z</time>
      </trkpt>
      <trkpt lat="47.71275" lon="16.17899">
        <ele>364.628904</ele>
        <time>2026-07-07T14:32:47.000Z</time>
      </trkpt>
      <trkpt lat="47.71278" lon="16.17894">
        <ele>364.64884</ele>
        <time>2026-07-07T14:32:48.000Z</time>
      </trkpt>
      <trkpt lat="47.71281" lon="16.17888">
        <ele>364.669047</ele>
        <time>2026-07-07T14:32:49.000Z</time>
      </trkpt>
      <trkpt lat="47.71283" lon="16.17882">
        <ele>364.689495</ele>
        <time>2026-07-07T14:32:50.000Z</time>
      </trkpt>
      <trkpt lat="47.71285" lon="16.17877">
        <ele>364.709399</ele>
        <time>2026-07-07T14:32:51.000Z</time>
      </trkpt>
      <trkpt lat="47.71288" lon="16.17872">
        <ele>364.729885</ele>
        <time>2026-07-07T14:32:52.000Z</time>
      </trkpt>
      <trkpt lat="47.71291" lon="16.17866">
        <ele>364.750719</ele>
        <time>2026-07-07T14:32:53.000Z</time>
      </trkpt>
      <trkpt lat="47.71294" lon="16.17861">
        <ele>364.770809</ele>
        <time>2026-07-07T14:32:54.000Z</time>
      </trkpt>
      <trkpt lat="47.71297" lon="16.17857">
        <ele>364.788446</ele>
        <time>2026-07-07T14:32:55.000Z</time>
      </trkpt>
      <trkpt lat="47.713" lon="16.17853">
        <ele>364.805019</ele>
        <time>2026-07-07T14:32:56.000Z</time>
      </trkpt>
      <trkpt lat="47.71302" lon="16.17849">
        <ele>364.820571</ele>
        <time>2026-07-07T14:32:57.000Z</time>
      </trkpt>
      <trkpt lat="47.71304" lon="16.17845">
        <ele>364.835516</ele>
        <time>2026-07-07T14:32:58.000Z</time>
      </trkpt>
      <trkpt lat="47.71306" lon="16.17841">
        <ele>364.850702</ele>
        <time>2026-07-07T14:32:59.000Z</time>
      </trkpt>
      <trkpt lat="47.71307" lon="16.17836">
        <ele>364.865138</ele>
        <time>2026-07-07T14:33:00.000Z</time>
      </trkpt>
      <trkpt lat="47.71306" lon="16.17831">
        <ele>364.880158</ele>
        <time>2026-07-07T14:33:01.000Z</time>
      </trkpt>
      <trkpt lat="47.71305" lon="16.17826">
        <ele>364.896219</ele>
        <time>2026-07-07T14:33:02.000Z</time>
      </trkpt>
      <trkpt lat="47.71304" lon="16.17821">
        <ele>364.913738</ele>
        <time>2026-07-07T14:33:03.000Z</time>
      </trkpt>
      <trkpt lat="47.71302" lon="16.17815">
        <ele>364.93271</ele>
        <time>2026-07-07T14:33:04.000Z</time>
      </trkpt>
      <trkpt lat="47.713" lon="16.17809">
        <ele>364.952789</ele>
        <time>2026-07-07T14:33:05.000Z</time>
      </trkpt>
      <trkpt lat="47.71298" lon="16.17803">
        <ele>364.972869</ele>
        <time>2026-07-07T14:33:06.000Z</time>
      </trkpt>
      <trkpt lat="47.71296" lon="16.17797">
        <ele>364.993488</ele>
        <time>2026-07-07T14:33:07.000Z</time>
      </trkpt>
      <trkpt lat="47.71294" lon="16.17791">
        <ele>365.013188</ele>
        <time>2026-07-07T14:33:08.000Z</time>
      </trkpt>
      <trkpt lat="47.71293" lon="16.17785">
        <ele>365.032988</ele>
        <time>2026-07-07T14:33:09.000Z</time>
      </trkpt>
      <trkpt lat="47.71291" lon="16.17779">
        <ele>365.053607</ele>
        <time>2026-07-07T14:33:10.000Z</time>
      </trkpt>
      <trkpt lat="47.71289" lon="16.17773">
        <ele>365.073151</ele>
        <time>2026-07-07T14:33:11.000Z</time>
      </trkpt>
      <trkpt lat="47.71286" lon="16.17767">
        <ele>365.093379</ele>
        <time>2026-07-07T14:33:12.000Z</time>
      </trkpt>
      <trkpt lat="47.71284" lon="16.17761">
        <ele>365.11313</ele>
        <time>2026-07-07T14:33:13.000Z</time>
      </trkpt>
      <trkpt lat="47.71282" lon="16.17755">
        <ele>365.133549</ele>
        <time>2026-07-07T14:33:14.000Z</time>
      </trkpt>
      <trkpt lat="47.71279" lon="16.1775">
        <ele>365.153454</ele>
        <time>2026-07-07T14:33:15.000Z</time>
      </trkpt>
      <trkpt lat="47.71277" lon="16.17744">
        <ele>365.172418</ele>
        <time>2026-07-07T14:33:16.000Z</time>
      </trkpt>
      <trkpt lat="47.71275" lon="16.17739">
        <ele>365.190958</ele>
        <time>2026-07-07T14:33:17.000Z</time>
      </trkpt>
      <trkpt lat="47.71274" lon="16.17733">
        <ele>365.208927</ele>
        <time>2026-07-07T14:33:18.000Z</time>
      </trkpt>
      <trkpt lat="47.71272" lon="16.17728">
        <ele>365.226806</ele>
        <time>2026-07-07T14:33:19.000Z</time>
      </trkpt>
      <trkpt lat="47.7127" lon="16.17723">
        <ele>365.243811</ele>
        <time>2026-07-07T14:33:20.000Z</time>
      </trkpt>
      <trkpt lat="47.71269" lon="16.17718">
        <ele>365.259549</ele>
        <time>2026-07-07T14:33:21.000Z</time>
      </trkpt>
      <trkpt lat="47.71267" lon="16.17714">
        <ele>365.274341</ele>
        <time>2026-07-07T14:33:22.000Z</time>
      </trkpt>
      <trkpt lat="47.71265" lon="16.1771">
        <ele>365.289297</ele>
        <time>2026-07-07T14:33:23.000Z</time>
      </trkpt>
      <trkpt lat="47.71263" lon="16.17705">
        <ele>365.305536</ele>
        <time>2026-07-07T14:33:24.000Z</time>
      </trkpt>
      <trkpt lat="47.7126" lon="16.17702">
        <ele>365.322936</ele>
        <time>2026-07-07T14:33:25.000Z</time>
      </trkpt>
      <trkpt lat="47.71256" lon="16.177">
        <ele>365.346994</ele>
        <time>2026-07-07T14:33:26.000Z</time>
      </trkpt>
      <trkpt lat="47.71252" lon="16.17698">
        <ele>365.376262</ele>
        <time>2026-07-07T14:33:27.000Z</time>
      </trkpt>
      <trkpt lat="47.71247" lon="16.17695">
        <ele>365.408232</ele>
        <time>2026-07-07T14:33:28.000Z</time>
      </trkpt>
      <trkpt lat="47.71242" lon="16.17692">
        <ele>365.441255</ele>
        <time>2026-07-07T14:33:29.000Z</time>
      </trkpt>
      <trkpt lat="47.71237" lon="16.17689">
        <ele>365.473847</ele>
        <time>2026-07-07T14:33:30.000Z</time>
      </trkpt>
      <trkpt lat="47.71233" lon="16.17686">
        <ele>365.505983</ele>
        <time>2026-07-07T14:33:31.000Z</time>
      </trkpt>
      <trkpt lat="47.71228" lon="16.17683">
        <ele>365.538511</ele>
        <time>2026-07-07T14:33:32.000Z</time>
      </trkpt>
      <trkpt lat="47.71224" lon="16.17679">
        <ele>365.57055</ele>
        <time>2026-07-07T14:33:33.000Z</time>
      </trkpt>
      <trkpt lat="47.7122" lon="16.17675">
        <ele>365.603503</ele>
        <time>2026-07-07T14:33:34.000Z</time>
      </trkpt>
      <trkpt lat="47.71216" lon="16.1767">
        <ele>365.635923</ele>
        <time>2026-07-07T14:33:35.000Z</time>
      </trkpt>
      <trkpt lat="47.71211" lon="16.17666">
        <ele>365.669082</ele>
        <time>2026-07-07T14:33:36.000Z</time>
      </trkpt>
      <trkpt lat="47.71207" lon="16.17661">
        <ele>365.702556</ele>
        <time>2026-07-07T14:33:37.000Z</time>
      </trkpt>
      <trkpt lat="47.71204" lon="16.17656">
        <ele>365.735008</ele>
        <time>2026-07-07T14:33:38.000Z</time>
      </trkpt>
      <trkpt lat="47.712" lon="16.17651">
        <ele>365.767994</ele>
        <time>2026-07-07T14:33:39.000Z</time>
      </trkpt>
      <trkpt lat="47.71196" lon="16.17646">
        <ele>365.800919</ele>
        <time>2026-07-07T14:33:40.000Z</time>
      </trkpt>
      <trkpt lat="47.71192" lon="16.17641">
        <ele>365.834117</ele>
        <time>2026-07-07T14:33:41.000Z</time>
      </trkpt>
      <trkpt lat="47.71188" lon="16.17637">
        <ele>365.866254</ele>
        <time>2026-07-07T14:33:42.000Z</time>
      </trkpt>
      <trkpt lat="47.71183" lon="16.17633">
        <ele>365.899835</ele>
        <time>2026-07-07T14:33:43.000Z</time>
      </trkpt>
      <trkpt lat="47.71179" lon="16.17629">
        <ele>365.933502</ele>
        <time>2026-07-07T14:33:44.000Z</time>
      </trkpt>
      <trkpt lat="47.71174" lon="16.17625">
        <ele>365.966438</ele>
        <time>2026-07-07T14:33:45.000Z</time>
      </trkpt>
      <trkpt lat="47.7117" lon="16.17622">
        <ele>365.998966</ele>
        <time>2026-07-07T14:33:46.000Z</time>
      </trkpt>
      <trkpt lat="47.71165" lon="16.17619">
        <ele>366.031724</ele>
        <time>2026-07-07T14:33:47.000Z</time>
      </trkpt>
      <trkpt lat="47.7116" lon="16.17617">
        <ele>366.064023</ele>
        <time>2026-07-07T14:33:48.000Z</time>
      </trkpt>
      <trkpt lat="47.71155" lon="16.17614">
        <ele>366.095581</ele>
        <time>2026-07-07T14:33:49.000Z</time>
      </trkpt>
      <trkpt lat="47.71151" lon="16.17612">
        <ele>366.127626</ele>
        <time>2026-07-07T14:33:50.000Z</time>
      </trkpt>
      <trkpt lat="47.71146" lon="16.1761">
        <ele>366.15882</ele>
        <time>2026-07-07T14:33:51.000Z</time>
      </trkpt>
      <trkpt lat="47.71141" lon="16.17609">
        <ele>366.189076</ele>
        <time>2026-07-07T14:33:52.000Z</time>
      </trkpt>
      <trkpt lat="47.71137" lon="16.17607">
        <ele>366.219036</ele>
        <time>2026-07-07T14:33:53.000Z</time>
      </trkpt>
      <trkpt lat="47.71132" lon="16.17605">
        <ele>366.249243</ele>
        <time>2026-07-07T14:33:54.000Z</time>
      </trkpt>
      <trkpt lat="47.71128" lon="16.17603">
        <ele>366.278973</ele>
        <time>2026-07-07T14:33:55.000Z</time>
      </trkpt>
      <trkpt lat="47.71123" lon="16.176">
        <ele>366.30945</ele>
        <time>2026-07-07T14:33:56.000Z</time>
      </trkpt>
      <trkpt lat="47.71119" lon="16.17598">
        <ele>366.340217</ele>
        <time>2026-07-07T14:33:57.000Z</time>
      </trkpt>
      <trkpt lat="47.71115" lon="16.17595">
        <ele>366.370112</ele>
        <time>2026-07-07T14:33:58.000Z</time>
      </trkpt>
      <trkpt lat="47.7111" lon="16.17592">
        <ele>366.400178</ele>
        <time>2026-07-07T14:33:59.000Z</time>
      </trkpt>
      <trkpt lat="47.71106" lon="16.1759">
        <ele>366.430665</ele>
        <time>2026-07-07T14:34:00.000Z</time>
      </trkpt>
      <trkpt lat="47.71101" lon="16.17587">
        <ele>366.461908</ele>
        <time>2026-07-07T14:34:01.000Z</time>
      </trkpt>
      <trkpt lat="47.71097" lon="16.17584">
        <ele>366.498778</ele>
        <time>2026-07-07T14:34:02.000Z</time>
      </trkpt>
      <trkpt lat="47.71092" lon="16.17582">
        <ele>366.546346</ele>
        <time>2026-07-07T14:34:03.000Z</time>
      </trkpt>
      <trkpt lat="47.71088" lon="16.17579">
        <ele>366.594144</ele>
        <time>2026-07-07T14:34:04.000Z</time>
      </trkpt>
      <trkpt lat="47.71084" lon="16.17577">
        <ele>366.640084</ele>
        <time>2026-07-07T14:34:05.000Z</time>
      </trkpt>
      <trkpt lat="47.71079" lon="16.17574">
        <ele>366.686271</ele>
        <time>2026-07-07T14:34:06.000Z</time>
      </trkpt>
      <trkpt lat="47.71075" lon="16.17572">
        <ele>366.73407</ele>
        <time>2026-07-07T14:34:07.000Z</time>
      </trkpt>
      <trkpt lat="47.7107" lon="16.17569">
        <ele>366.780937</ele>
        <time>2026-07-07T14:34:08.000Z</time>
      </trkpt>
      <trkpt lat="47.71066" lon="16.17567">
        <ele>366.826877</ele>
        <time>2026-07-07T14:34:09.000Z</time>
      </trkpt>
      <trkpt lat="47.71062" lon="16.17564">
        <ele>366.874675</ele>
        <time>2026-07-07T14:34:10.000Z</time>
      </trkpt>
      <trkpt lat="47.71057" lon="16.17562">
        <ele>366.922473</ele>
        <time>2026-07-07T14:34:11.000Z</time>
      </trkpt>
      <trkpt lat="47.71053" lon="16.17559">
        <ele>366.968173</ele>
        <time>2026-07-07T14:34:12.000Z</time>
      </trkpt>
      <trkpt lat="47.71048" lon="16.17557">
        <ele>367.015041</ele>
        <time>2026-07-07T14:34:13.000Z</time>
      </trkpt>
      <trkpt lat="47.71044" lon="16.17554">
        <ele>367.060981</ele>
        <time>2026-07-07T14:34:14.000Z</time>
      </trkpt>
      <trkpt lat="47.7104" lon="16.17552">
        <ele>367.108779</ele>
        <time>2026-07-07T14:34:15.000Z</time>
      </trkpt>
      <trkpt lat="47.71035" lon="16.17549">
        <ele>367.154719</ele>
        <time>2026-07-07T14:34:16.000Z</time>
      </trkpt>
      <trkpt lat="47.71031" lon="16.17547">
        <ele>367.202517</ele>
        <time>2026-07-07T14:34:17.000Z</time>
      </trkpt>
      <trkpt lat="47.71026" lon="16.17544">
        <ele>367.249385</ele>
        <time>2026-07-07T14:34:19.000Z</time>
      </trkpt>
      <trkpt lat="47.71022" lon="16.17542">
        <ele>367.296731</ele>
        <time>2026-07-07T14:34:20.000Z</time>
      </trkpt>
      <trkpt lat="47.71018" lon="16.1754">
        <ele>367.342671</ele>
        <time>2026-07-07T14:34:21.000Z</time>
      </trkpt>
      <trkpt lat="47.71013" lon="16.17537">
        <ele>367.389115</ele>
        <time>2026-07-07T14:34:22.000Z</time>
      </trkpt>
      <trkpt lat="47.71009" lon="16.17534">
        <ele>367.437152</ele>
        <time>2026-07-07T14:34:23.000Z</time>
      </trkpt>
      <trkpt lat="47.71005" lon="16.17532">
        <ele>367.482681</ele>
        <time>2026-07-07T14:34:24.000Z</time>
      </trkpt>
      <trkpt lat="47.71001" lon="16.17529">
        <ele>367.527259</ele>
        <time>2026-07-07T14:34:25.000Z</time>
      </trkpt>
      <trkpt lat="47.70997" lon="16.17526">
        <ele>367.570071</ele>
        <time>2026-07-07T14:34:26.000Z</time>
      </trkpt>
      <trkpt lat="47.70993" lon="16.17522">
        <ele>367.612663</ele>
        <time>2026-07-07T14:34:27.000Z</time>
      </trkpt>
      <trkpt lat="47.70989" lon="16.17519">
        <ele>367.657411</ele>
        <time>2026-07-07T14:34:28.000Z</time>
      </trkpt>
      <trkpt lat="47.70986" lon="16.17514">
        <ele>367.702169</ele>
        <time>2026-07-07T14:34:29.000Z</time>
      </trkpt>
      <trkpt lat="47.70983" lon="16.1751">
        <ele>367.747185</ele>
        <time>2026-07-07T14:34:30.000Z</time>
      </trkpt>
      <trkpt lat="47.70979" lon="16.17505">
        <ele>367.792899</ele>
        <time>2026-07-07T14:34:31.000Z</time>
      </trkpt>
      <trkpt lat="47.70976" lon="16.175">
        <ele>367.837748</ele>
        <time>2026-07-07T14:34:32.000Z</time>
      </trkpt>
      <trkpt lat="47.70973" lon="16.17495">
        <ele>367.883099</ele>
        <time>2026-07-07T14:34:33.000Z</time>
      </trkpt>
      <trkpt lat="47.7097" lon="16.1749">
        <ele>367.928616</ele>
        <time>2026-07-07T14:34:34.000Z</time>
      </trkpt>
      <trkpt lat="47.70967" lon="16.17485">
        <ele>367.974473</ele>
        <time>2026-07-07T14:34:35.000Z</time>
      </trkpt>
      <trkpt lat="47.70964" lon="16.17479">
        <ele>368.02165</ele>
        <time>2026-07-07T14:34:36.000Z</time>
      </trkpt>
      <trkpt lat="47.70961" lon="16.17474">
        <ele>368.067847</ele>
        <time>2026-07-07T14:34:37.000Z</time>
      </trkpt>
      <trkpt lat="47.70958" lon="16.17469">
        <ele>368.113198</ele>
        <time>2026-07-07T14:34:38.000Z</time>
      </trkpt>
      <trkpt lat="47.70955" lon="16.17464">
        <ele>368.160719</ele>
        <time>2026-07-07T14:34:39.000Z</time>
      </trkpt>
      <trkpt lat="47.70952" lon="16.17459">
        <ele>368.208392</ele>
        <time>2026-07-07T14:34:40.000Z</time>
      </trkpt>
      <trkpt lat="47.70948" lon="16.17453">
        <ele>368.256064</ele>
        <time>2026-07-07T14:34:41.000Z</time>
      </trkpt>
      <trkpt lat="47.70945" lon="16.17448">
        <ele>368.296169</ele>
        <time>2026-07-07T14:34:42.000Z</time>
      </trkpt>
      <trkpt lat="47.70942" lon="16.17442">
        <ele>368.33375</ele>
        <time>2026-07-07T14:34:43.000Z</time>
      </trkpt>
      <trkpt lat="47.70939" lon="16.17437">
        <ele>368.370446</ele>
        <time>2026-07-07T14:34:44.000Z</time>
      </trkpt>
      <trkpt lat="47.70935" lon="16.17432">
        <ele>368.407395</ele>
        <time>2026-07-07T14:34:45.000Z</time>
      </trkpt>
      <trkpt lat="47.70932" lon="16.17426">
        <ele>368.444842</ele>
        <time>2026-07-07T14:34:46.000Z</time>
      </trkpt>
      <trkpt lat="47.70929" lon="16.17421">
        <ele>368.481538</ele>
        <time>2026-07-07T14:34:47.000Z</time>
      </trkpt>
      <trkpt lat="47.70925" lon="16.17415">
        <ele>368.519492</ele>
        <time>2026-07-07T14:34:48.000Z</time>
      </trkpt>
      <trkpt lat="47.70922" lon="16.1741">
        <ele>368.55694</ele>
        <time>2026-07-07T14:34:49.000Z</time>
      </trkpt>
      <trkpt lat="47.70919" lon="16.17404">
        <ele>368.595409</ele>
        <time>2026-07-07T14:34:50.000Z</time>
      </trkpt>
      <trkpt lat="47.70915" lon="16.17399">
        <ele>368.633621</ele>
        <time>2026-07-07T14:34:51.000Z</time>
      </trkpt>
      <trkpt lat="47.70912" lon="16.17393">
        <ele>368.67233</ele>
        <time>2026-07-07T14:34:52.000Z</time>
      </trkpt>
      <trkpt lat="47.70909" lon="16.17387">
        <ele>368.709971</ele>
        <time>2026-07-07T14:34:53.000Z</time>
      </trkpt>
      <trkpt lat="47.70906" lon="16.17381">
        <ele>368.748779</ele>
        <time>2026-07-07T14:34:54.000Z</time>
      </trkpt>
      <trkpt lat="47.70903" lon="16.17374">
        <ele>368.788031</ele>
        <time>2026-07-07T14:34:55.000Z</time>
      </trkpt>
      <trkpt lat="47.70901" lon="16.17367">
        <ele>368.827619</ele>
        <time>2026-07-07T14:34:56.000Z</time>
      </trkpt>
      <trkpt lat="47.70899" lon="16.1736">
        <ele>368.86642</ele>
        <time>2026-07-07T14:34:57.000Z</time>
      </trkpt>
      <trkpt lat="47.70896" lon="16.17353">
        <ele>368.906008</ele>
        <time>2026-07-07T14:34:58.000Z</time>
      </trkpt>
      <trkpt lat="47.70894" lon="16.17347">
        <ele>368.944351</ele>
        <time>2026-07-07T14:34:59.000Z</time>
      </trkpt>
      <trkpt lat="47.70892" lon="16.1734">
        <ele>368.983613</ele>
        <time>2026-07-07T14:35:00.000Z</time>
      </trkpt>
      <trkpt lat="47.7089" lon="16.17333">
        <ele>369.022561</ele>
        <time>2026-07-07T14:35:01.000Z</time>
      </trkpt>
      <trkpt lat="47.70888" lon="16.17326">
        <ele>369.060904</ele>
        <time>2026-07-07T14:35:02.000Z</time>
      </trkpt>
      <trkpt lat="47.70886" lon="16.17319">
        <ele>369.098986</ele>
        <time>2026-07-07T14:35:03.000Z</time>
      </trkpt>
      <trkpt lat="47.70884" lon="16.17312">
        <ele>369.137788</ele>
        <time>2026-07-07T14:35:04.000Z</time>
      </trkpt>
      <trkpt lat="47.70882" lon="16.17305">
        <ele>369.174573</ele>
        <time>2026-07-07T14:35:05.000Z</time>
      </trkpt>
      <trkpt lat="47.7088" lon="16.17298">
        <ele>369.212181</ele>
        <time>2026-07-07T14:35:06.000Z</time>
      </trkpt>
      <trkpt lat="47.70878" lon="16.17292">
        <ele>369.248965</ele>
        <time>2026-07-07T14:35:07.000Z</time>
      </trkpt>
      <trkpt lat="47.70876" lon="16.17285">
        <ele>369.286851</ele>
        <time>2026-07-07T14:35:08.000Z</time>
      </trkpt>
      <trkpt lat="47.70873" lon="16.17279">
        <ele>369.323826</ele>
        <time>2026-07-07T14:35:09.000Z</time>
      </trkpt>
      <trkpt lat="47.70871" lon="16.17272">
        <ele>369.361387</ele>
        <time>2026-07-07T14:35:10.000Z</time>
      </trkpt>
      <trkpt lat="47.70869" lon="16.17265">
        <ele>369.398818</ele>
        <time>2026-07-07T14:35:11.000Z</time>
      </trkpt>
      <trkpt lat="47.70867" lon="16.17259">
        <ele>369.435139</ele>
        <time>2026-07-07T14:35:12.000Z</time>
      </trkpt>
      <trkpt lat="47.70865" lon="16.17252">
        <ele>369.472388</ele>
        <time>2026-07-07T14:35:13.000Z</time>
      </trkpt>
      <trkpt lat="47.70863" lon="16.17245">
        <ele>369.509636</ele>
        <time>2026-07-07T14:35:14.000Z</time>
      </trkpt>
      <trkpt lat="47.70861" lon="16.17239">
        <ele>369.546771</ele>
        <time>2026-07-07T14:35:15.000Z</time>
      </trkpt>
      <trkpt lat="47.70859" lon="16.17232">
        <ele>369.584484</ele>
        <time>2026-07-07T14:35:16.000Z</time>
      </trkpt>
      <trkpt lat="47.70857" lon="16.17225">
        <ele>369.623286</ele>
        <time>2026-07-07T14:35:17.000Z</time>
      </trkpt>
      <trkpt lat="47.70855" lon="16.17218">
        <ele>369.656537</ele>
        <time>2026-07-07T14:35:18.000Z</time>
      </trkpt>
      <trkpt lat="47.70853" lon="16.17211">
        <ele>369.68852</ele>
        <time>2026-07-07T14:35:19.000Z</time>
      </trkpt>
      <trkpt lat="47.70851" lon="16.17204">
        <ele>369.721159</ele>
        <time>2026-07-07T14:35:20.000Z</time>
      </trkpt>
      <trkpt lat="47.70848" lon="16.17197">
        <ele>369.754184</ele>
        <time>2026-07-07T14:35:21.000Z</time>
      </trkpt>
      <trkpt lat="47.70846" lon="16.1719">
        <ele>369.786693</ele>
        <time>2026-07-07T14:35:22.000Z</time>
      </trkpt>
      <trkpt lat="47.70844" lon="16.17183">
        <ele>369.819201</ele>
        <time>2026-07-07T14:35:23.000Z</time>
      </trkpt>
      <trkpt lat="47.70842" lon="16.17176">
        <ele>369.851964</ele>
        <time>2026-07-07T14:35:24.000Z</time>
      </trkpt>
      <trkpt lat="47.7084" lon="16.17169">
        <ele>369.884472</ele>
        <time>2026-07-07T14:35:25.000Z</time>
      </trkpt>
      <trkpt lat="47.70838" lon="16.17162">
        <ele>369.917498</ele>
        <time>2026-07-07T14:35:26.000Z</time>
      </trkpt>
      <trkpt lat="47.70836" lon="16.17156">
        <ele>369.949751</ele>
        <time>2026-07-07T14:35:27.000Z</time>
      </trkpt>
      <trkpt lat="47.70834" lon="16.17149">
        <ele>369.981734</ele>
        <time>2026-07-07T14:35:28.000Z</time>
      </trkpt>
      <trkpt lat="47.70832" lon="16.17142">
        <ele>370.01476</ele>
        <time>2026-07-07T14:35:29.000Z</time>
      </trkpt>
      <trkpt lat="47.7083" lon="16.17135">
        <ele>370.047269</ele>
        <time>2026-07-07T14:35:30.000Z</time>
      </trkpt>
      <trkpt lat="47.70827" lon="16.17128">
        <ele>370.081339</ele>
        <time>2026-07-07T14:35:31.000Z</time>
      </trkpt>
      <trkpt lat="47.70825" lon="16.17121">
        <ele>370.114365</ele>
        <time>2026-07-07T14:35:32.000Z</time>
      </trkpt>
      <trkpt lat="47.70823" lon="16.17113">
        <ele>370.147662</ele>
        <time>2026-07-07T14:35:33.000Z</time>
      </trkpt>
      <trkpt lat="47.70821" lon="16.17106">
        <ele>370.180688</ele>
        <time>2026-07-07T14:35:34.000Z</time>
      </trkpt>
      <trkpt lat="47.70819" lon="16.17099">
        <ele>370.21345</ele>
        <time>2026-07-07T14:35:35.000Z</time>
      </trkpt>
      <trkpt lat="47.70816" lon="16.17092">
        <ele>370.247034</ele>
        <time>2026-07-07T14:35:36.000Z</time>
      </trkpt>
      <trkpt lat="47.70814" lon="16.17085">
        <ele>370.280971</ele>
        <time>2026-07-07T14:35:37.000Z</time>
      </trkpt>
      <trkpt lat="47.70812" lon="16.17078">
        <ele>370.314664</ele>
        <time>2026-07-07T14:35:38.000Z</time>
      </trkpt>
      <trkpt lat="47.7081" lon="16.1707">
        <ele>370.34978</ele>
        <time>2026-07-07T14:35:39.000Z</time>
      </trkpt>
      <trkpt lat="47.70808" lon="16.17063">
        <ele>370.384236</ele>
        <time>2026-07-07T14:35:40.000Z</time>
      </trkpt>
      <trkpt lat="47.70805" lon="16.17056">
        <ele>370.419211</ele>
        <time>2026-07-07T14:35:41.000Z</time>
      </trkpt>
      <trkpt lat="47.70803" lon="16.17048">
        <ele>370.453667</ele>
        <time>2026-07-07T14:35:42.000Z</time>
      </trkpt>
      <trkpt lat="47.70801" lon="16.17041">
        <ele>370.486965</ele>
        <time>2026-07-07T14:35:43.000Z</time>
      </trkpt>
      <trkpt lat="47.70799" lon="16.17034">
        <ele>370.519991</ele>
        <time>2026-07-07T14:35:44.000Z</time>
      </trkpt>
      <trkpt lat="47.70797" lon="16.17027">
        <ele>370.552753</ele>
        <time>2026-07-07T14:35:45.000Z</time>
      </trkpt>
      <trkpt lat="47.70795" lon="16.1702">
        <ele>370.584477</ele>
        <time>2026-07-07T14:35:46.000Z</time>
      </trkpt>
      <trkpt lat="47.70793" lon="16.17013">
        <ele>370.616986</ele>
        <time>2026-07-07T14:35:47.000Z</time>
      </trkpt>
      <trkpt lat="47.70791" lon="16.17006">
        <ele>370.648856</ele>
        <time>2026-07-07T14:35:48.000Z</time>
      </trkpt>
      <trkpt lat="47.70789" lon="16.17">
        <ele>370.680092</ele>
        <time>2026-07-07T14:35:49.000Z</time>
      </trkpt>
      <trkpt lat="47.70787" lon="16.16993">
        <ele>370.710931</ele>
        <time>2026-07-07T14:35:50.000Z</time>
      </trkpt>
      <trkpt lat="47.70786" lon="16.16986">
        <ele>370.741941</ele>
        <time>2026-07-07T14:35:51.000Z</time>
      </trkpt>
      <trkpt lat="47.70784" lon="16.16979">
        <ele>370.772125</ele>
        <time>2026-07-07T14:35:52.000Z</time>
      </trkpt>
      <trkpt lat="47.70783" lon="16.16973">
        <ele>370.796796</ele>
        <time>2026-07-07T14:35:53.000Z</time>
      </trkpt>
      <trkpt lat="47.70781" lon="16.16966">
        <ele>370.822831</ele>
        <time>2026-07-07T14:35:54.000Z</time>
      </trkpt>
      <trkpt lat="47.70779" lon="16.16959">
        <ele>370.848514</ele>
        <time>2026-07-07T14:35:55.000Z</time>
      </trkpt>
      <trkpt lat="47.70778" lon="16.16952">
        <ele>370.874577</ele>
        <time>2026-07-07T14:35:56.000Z</time>
      </trkpt>
      <trkpt lat="47.70777" lon="16.16945">
        <ele>370.901628</ele>
        <time>2026-07-07T14:35:57.000Z</time>
      </trkpt>
      <trkpt lat="47.70775" lon="16.16938">
        <ele>370.928679</ele>
        <time>2026-07-07T14:35:58.000Z</time>
      </trkpt>
      <trkpt lat="47.70774" lon="16.16931">
        <ele>370.954363</ele>
        <time>2026-07-07T14:35:59.000Z</time>
      </trkpt>
      <trkpt lat="47.70772" lon="16.16924">
        <ele>370.980046</ele>
        <time>2026-07-07T14:36:00.000Z</time>
      </trkpt>
      <trkpt lat="47.70771" lon="16.16917">
        <ele>371.006412</ele>
        <time>2026-07-07T14:36:01.000Z</time>
      </trkpt>
      <trkpt lat="47.70769" lon="16.1691">
        <ele>371.032475</ele>
        <time>2026-07-07T14:36:02.000Z</time>
      </trkpt>
      <trkpt lat="47.70768" lon="16.16903">
        <ele>371.059373</ele>
        <time>2026-07-07T14:36:03.000Z</time>
      </trkpt>
      <trkpt lat="47.70767" lon="16.16896">
        <ele>371.086129</ele>
        <time>2026-07-07T14:36:04.000Z</time>
      </trkpt>
      <trkpt lat="47.70765" lon="16.16889">
        <ele>371.113231</ele>
        <time>2026-07-07T14:36:05.000Z</time>
      </trkpt>
      <trkpt lat="47.70764" lon="16.16881">
        <ele>371.140282</ele>
        <time>2026-07-07T14:36:06.000Z</time>
      </trkpt>
      <trkpt lat="47.70762" lon="16.16874">
        <ele>371.168364</ele>
        <time>2026-07-07T14:36:07.000Z</time>
      </trkpt>
      <trkpt lat="47.70761" lon="16.16867">
        <ele>371.195607</ele>
        <time>2026-07-07T14:36:08.000Z</time>
      </trkpt>
      <trkpt lat="47.70759" lon="16.16859">
        <ele>371.222658</ele>
        <time>2026-07-07T14:36:09.000Z</time>
      </trkpt>
      <trkpt lat="47.70758" lon="16.16852">
        <ele>371.249191</ele>
        <time>2026-07-07T14:36:10.000Z</time>
      </trkpt>
      <trkpt lat="47.70756" lon="16.16845">
        <ele>371.2759</ele>
        <time>2026-07-07T14:36:11.000Z</time>
      </trkpt>
      <trkpt lat="47.70755" lon="16.16838">
        <ele>371.302951</ele>
        <time>2026-07-07T14:36:12.000Z</time>
      </trkpt>
      <trkpt lat="47.70753" lon="16.16831">
        <ele>371.330003</ele>
        <time>2026-07-07T14:36:13.000Z</time>
      </trkpt>
      <trkpt lat="47.70752" lon="16.16824">
        <ele>371.356369</ele>
        <time>2026-07-07T14:36:14.000Z</time>
      </trkpt>
      <trkpt lat="47.7075" lon="16.16817">
        <ele>371.383764</ele>
        <time>2026-07-07T14:36:15.000Z</time>
      </trkpt>
      <trkpt lat="47.70749" lon="16.16809">
        <ele>371.410386</ele>
        <time>2026-07-07T14:36:16.000Z</time>
      </trkpt>
      <trkpt lat="47.70748" lon="16.16802">
        <ele>371.438054</ele>
        <time>2026-07-07T14:36:17.000Z</time>
      </trkpt>
      <trkpt lat="47.70746" lon="16.16794">
        <ele>371.466136</ele>
        <time>2026-07-07T14:36:18.000Z</time>
      </trkpt>
      <trkpt lat="47.70745" lon="16.16787">
        <ele>371.493691</ele>
        <time>2026-07-07T14:36:19.000Z</time>
      </trkpt>
      <trkpt lat="47.70743" lon="16.1678">
        <ele>371.521085</ele>
        <time>2026-07-07T14:36:20.000Z</time>
      </trkpt>
      <trkpt lat="47.70742" lon="16.16772">
        <ele>371.54902</ele>
        <time>2026-07-07T14:36:21.000Z</time>
      </trkpt>
      <trkpt lat="47.70741" lon="16.16765">
        <ele>371.577512</ele>
        <time>2026-07-07T14:36:22.000Z</time>
      </trkpt>
      <trkpt lat="47.70739" lon="16.16757">
        <ele>371.605309</ele>
        <time>2026-07-07T14:36:23.000Z</time>
      </trkpt>
      <trkpt lat="47.70738" lon="16.1675">
        <ele>371.633391</ele>
        <time>2026-07-07T14:36:24.000Z</time>
      </trkpt>
      <trkpt lat="47.70736" lon="16.16742">
        <ele>371.661115</ele>
        <time>2026-07-07T14:36:25.000Z</time>
      </trkpt>
      <trkpt lat="47.70734" lon="16.16735">
        <ele>371.690201</ele>
        <time>2026-07-07T14:36:26.000Z</time>
      </trkpt>
      <trkpt lat="47.70733" lon="16.16727">
        <ele>371.718971</ele>
        <time>2026-07-07T14:36:27.000Z</time>
      </trkpt>
      <trkpt lat="47.70732" lon="16.16719">
        <ele>371.744545</ele>
        <time>2026-07-07T14:36:28.000Z</time>
      </trkpt>
      <trkpt lat="47.7073" lon="16.16712">
        <ele>371.768579</ele>
        <time>2026-07-07T14:36:29.000Z</time>
      </trkpt>
      <trkpt lat="47.70728" lon="16.16704">
        <ele>371.792307</ele>
        <time>2026-07-07T14:36:30.000Z</time>
      </trkpt>
      <trkpt lat="47.70727" lon="16.16697">
        <ele>371.815766</ele>
        <time>2026-07-07T14:36:31.000Z</time>
      </trkpt>
      <trkpt lat="47.70725" lon="16.16689">
        <ele>371.839225</ele>
        <time>2026-07-07T14:36:32.000Z</time>
      </trkpt>
      <trkpt lat="47.70724" lon="16.16681">
        <ele>371.863027</ele>
        <time>2026-07-07T14:36:33.000Z</time>
      </trkpt>
      <trkpt lat="47.70723" lon="16.16674">
        <ele>371.886486</ele>
        <time>2026-07-07T14:36:34.000Z</time>
      </trkpt>
      <trkpt lat="47.70721" lon="16.16666">
        <ele>371.910232</ele>
        <time>2026-07-07T14:36:35.000Z</time>
      </trkpt>
      <trkpt lat="47.7072" lon="16.16659">
        <ele>371.934267</ele>
        <time>2026-07-07T14:36:36.000Z</time>
      </trkpt>
      <trkpt lat="47.70718" lon="16.16651">
        <ele>371.958564</ele>
        <time>2026-07-07T14:36:37.000Z</time>
      </trkpt>
      <trkpt lat="47.70716" lon="16.16643">
        <ele>371.982023</ele>
        <time>2026-07-07T14:36:38.000Z</time>
      </trkpt>
      <trkpt lat="47.70715" lon="16.16636">
        <ele>372.005769</ele>
        <time>2026-07-07T14:36:39.000Z</time>
      </trkpt>
      <trkpt lat="47.70713" lon="16.16628">
        <ele>372.029228</ele>
        <time>2026-07-07T14:36:40.000Z</time>
      </trkpt>
      <trkpt lat="47.70712" lon="16.16621">
        <ele>372.052687</ele>
        <time>2026-07-07T14:36:41.000Z</time>
      </trkpt>
      <trkpt lat="47.7071" lon="16.16613">
        <ele>372.076146</ele>
        <time>2026-07-07T14:36:42.000Z</time>
      </trkpt>
      <trkpt lat="47.70709" lon="16.16606">
        <ele>372.099738</ele>
        <time>2026-07-07T14:36:43.000Z</time>
      </trkpt>
      <trkpt lat="47.70707" lon="16.16598">
        <ele>372.123467</ele>
        <time>2026-07-07T14:36:44.000Z</time>
      </trkpt>
      <trkpt lat="47.70705" lon="16.16591">
        <ele>372.146926</ele>
        <time>2026-07-07T14:36:45.000Z</time>
      </trkpt>
      <trkpt lat="47.70704" lon="16.16583">
        <ele>372.170146</ele>
        <time>2026-07-07T14:36:46.000Z</time>
      </trkpt>
      <trkpt lat="47.70703" lon="16.16576">
        <ele>372.193893</ele>
        <time>2026-07-07T14:36:47.000Z</time>
      </trkpt>
      <trkpt lat="47.70701" lon="16.16568">
        <ele>372.217337</ele>
        <time>2026-07-07T14:36:48.000Z</time>
      </trkpt>
      <trkpt lat="47.70699" lon="16.16561">
        <ele>372.240927</ele>
        <time>2026-07-07T14:36:49.000Z</time>
      </trkpt>
      <trkpt lat="47.70698" lon="16.16554">
        <ele>372.263812</ele>
        <time>2026-07-07T14:36:50.000Z</time>
      </trkpt>
      <trkpt lat="47.70696" lon="16.16547">
        <ele>372.285707</ele>
        <time>2026-07-07T14:36:51.000Z</time>
      </trkpt>
      <trkpt lat="47.70695" lon="16.1654">
        <ele>372.307733</ele>
        <time>2026-07-07T14:36:52.000Z</time>
      </trkpt>
      <trkpt lat="47.70693" lon="16.16532">
        <ele>372.330332</ele>
        <time>2026-07-07T14:36:53.000Z</time>
      </trkpt>
      <trkpt lat="47.70692" lon="16.16525">
        <ele>372.353216</ele>
        <time>2026-07-07T14:36:54.000Z</time>
      </trkpt>
      <trkpt lat="47.7069" lon="16.16518">
        <ele>372.376806</ele>
        <time>2026-07-07T14:36:55.000Z</time>
      </trkpt>
      <trkpt lat="47.70689" lon="16.1651">
        <ele>372.400721</ele>
        <time>2026-07-07T14:36:56.000Z</time>
      </trkpt>
      <trkpt lat="47.70688" lon="16.16502">
        <ele>372.424232</ele>
        <time>2026-07-07T14:36:57.000Z</time>
      </trkpt>
      <trkpt lat="47.70686" lon="16.16495">
        <ele>372.448034</ele>
        <time>2026-07-07T14:36:58.000Z</time>
      </trkpt>
      <trkpt lat="47.70685" lon="16.16487">
        <ele>372.472024</ele>
        <time>2026-07-07T14:36:59.000Z</time>
      </trkpt>
      <trkpt lat="47.70684" lon="16.16479">
        <ele>372.496408</ele>
        <time>2026-07-07T14:37:00.000Z</time>
      </trkpt>
      <trkpt lat="47.70682" lon="16.16471">
        <ele>372.520155</ele>
        <time>2026-07-07T14:37:01.000Z</time>
      </trkpt>
      <trkpt lat="47.70681" lon="16.16464">
        <ele>372.547546</ele>
        <time>2026-07-07T14:37:02.000Z</time>
      </trkpt>
      <trkpt lat="47.70679" lon="16.16456">
        <ele>372.579612</ele>
        <time>2026-07-07T14:37:03.000Z</time>
      </trkpt>
      <trkpt lat="47.70678" lon="16.16449">
        <ele>372.611115</ele>
        <time>2026-07-07T14:37:04.000Z</time>
      </trkpt>
      <trkpt lat="47.70676" lon="16.16441">
        <ele>372.643181</ele>
        <time>2026-07-07T14:37:05.000Z</time>
      </trkpt>
      <trkpt lat="47.70675" lon="16.16434">
        <ele>372.674462</ele>
        <time>2026-07-07T14:37:06.000Z</time>
      </trkpt>
      <trkpt lat="47.70673" lon="16.16427">
        <ele>372.705744</ele>
        <time>2026-07-07T14:37:07.000Z</time>
      </trkpt>
      <trkpt lat="47.70672" lon="16.1642">
        <ele>372.736819</ele>
        <time>2026-07-07T14:37:08.000Z</time>
      </trkpt>
      <trkpt lat="47.7067" lon="16.16412">
        <ele>372.768885</ele>
        <time>2026-07-07T14:37:09.000Z</time>
      </trkpt>
      <trkpt lat="47.70669" lon="16.16405">
        <ele>372.799599</ele>
        <time>2026-07-07T14:37:10.000Z</time>
      </trkpt>
      <trkpt lat="47.70667" lon="16.16398">
        <ele>372.830881</ele>
        <time>2026-07-07T14:37:11.000Z</time>
      </trkpt>
      <trkpt lat="47.70666" lon="16.1639">
        <ele>372.862345</ele>
        <time>2026-07-07T14:37:12.000Z</time>
      </trkpt>
      <trkpt lat="47.70664" lon="16.16383">
        <ele>372.893848</ele>
        <time>2026-07-07T14:37:13.000Z</time>
      </trkpt>
      <trkpt lat="47.70663" lon="16.16376">
        <ele>372.924506</ele>
        <time>2026-07-07T14:37:14.000Z</time>
      </trkpt>
      <trkpt lat="47.70662" lon="16.16368">
        <ele>372.956572</ele>
        <time>2026-07-07T14:37:15.000Z</time>
      </trkpt>
      <trkpt lat="47.7066" lon="16.16361">
        <ele>372.987854</ele>
        <time>2026-07-07T14:37:16.000Z</time>
      </trkpt>
      <trkpt lat="47.70659" lon="16.16353">
        <ele>373.0199</ele>
        <time>2026-07-07T14:37:17.000Z</time>
      </trkpt>
      <trkpt lat="47.70657" lon="16.16346">
        <ele>373.051181</ele>
        <time>2026-07-07T14:37:18.000Z</time>
      </trkpt>
      <trkpt lat="47.70656" lon="16.16339">
        <ele>373.082462</ele>
        <time>2026-07-07T14:37:19.000Z</time>
      </trkpt>
      <trkpt lat="47.70654" lon="16.16331">
        <ele>373.114135</ele>
        <time>2026-07-07T14:37:20.000Z</time>
      </trkpt>
      <trkpt lat="47.70653" lon="16.16324">
        <ele>373.144634</ele>
        <time>2026-07-07T14:37:21.000Z</time>
      </trkpt>
      <trkpt lat="47.70651" lon="16.16317">
        <ele>373.175905</ele>
        <time>2026-07-07T14:37:22.000Z</time>
      </trkpt>
      <trkpt lat="47.70649" lon="16.1631">
        <ele>373.206013</ele>
        <time>2026-07-07T14:37:23.000Z</time>
      </trkpt>
      <trkpt lat="47.70648" lon="16.16303">
        <ele>373.236564</ele>
        <time>2026-07-07T14:37:24.000Z</time>
      </trkpt>
      <trkpt lat="47.70647" lon="16.16296">
        <ele>373.266672</ele>
        <time>2026-07-07T14:37:25.000Z</time>
      </trkpt>
      <trkpt lat="47.70645" lon="16.16289">
        <ele>373.295643</ele>
        <time>2026-07-07T14:37:26.000Z</time>
      </trkpt>
      <trkpt lat="47.70644" lon="16.16282">
        <ele>373.32497</ele>
        <time>2026-07-07T14:37:27.000Z</time>
      </trkpt>
      <trkpt lat="47.70642" lon="16.16275">
        <ele>373.354899</ele>
        <time>2026-07-07T14:37:28.000Z</time>
      </trkpt>
      <trkpt lat="47.70641" lon="16.16268">
        <ele>373.384659</ele>
        <time>2026-07-07T14:37:29.000Z</time>
      </trkpt>
      <trkpt lat="47.7064" lon="16.16261">
        <ele>373.41442</ele>
        <time>2026-07-07T14:37:30.000Z</time>
      </trkpt>
      <trkpt lat="47.70638" lon="16.16254">
        <ele>373.445135</ele>
        <time>2026-07-07T14:37:31.000Z</time>
      </trkpt>
      <trkpt lat="47.70637" lon="16.16247">
        <ele>373.475687</ele>
        <time>2026-07-07T14:37:32.000Z</time>
      </trkpt>
      <trkpt lat="47.70636" lon="16.1624">
        <ele>373.505794</ele>
        <time>2026-07-07T14:37:33.000Z</time>
      </trkpt>
      <trkpt lat="47.70634" lon="16.16233">
        <ele>373.53595</ele>
        <time>2026-07-07T14:37:34.000Z</time>
      </trkpt>
      <trkpt lat="47.70633" lon="16.16226">
        <ele>373.566058</ele>
        <time>2026-07-07T14:37:35.000Z</time>
      </trkpt>
      <trkpt lat="47.70631" lon="16.16219">
        <ele>373.596947</ele>
        <time>2026-07-07T14:37:36.000Z</time>
      </trkpt>
      <trkpt lat="47.7063" lon="16.16211">
        <ele>373.628229</ele>
        <time>2026-07-07T14:37:37.000Z</time>
      </trkpt>
      <trkpt lat="47.70628" lon="16.16204">
        <ele>373.659221</ele>
        <time>2026-07-07T14:37:38.000Z</time>
      </trkpt>
      <trkpt lat="47.70627" lon="16.16197">
        <ele>373.68966</ele>
        <time>2026-07-07T14:37:39.000Z</time>
      </trkpt>
      <trkpt lat="47.70625" lon="16.16189">
        <ele>373.721035</ele>
        <time>2026-07-07T14:37:40.000Z</time>
      </trkpt>
      <trkpt lat="47.70624" lon="16.16182">
        <ele>373.751642</ele>
        <time>2026-07-07T14:37:41.000Z</time>
      </trkpt>
      <trkpt lat="47.70623" lon="16.16174">
        <ele>373.782699</ele>
        <time>2026-07-07T14:37:42.000Z</time>
      </trkpt>
      <trkpt lat="47.70621" lon="16.16167">
        <ele>373.814533</ele>
        <time>2026-07-07T14:37:43.000Z</time>
      </trkpt>
      <trkpt lat="47.7062" lon="16.16159">
        <ele>373.845908</ele>
        <time>2026-07-07T14:37:44.000Z</time>
      </trkpt>
      <trkpt lat="47.70618" lon="16.16152">
        <ele>373.877643</ele>
        <time>2026-07-07T14:37:45.000Z</time>
      </trkpt>
      <trkpt lat="47.70617" lon="16.16144">
        <ele>373.909788</ele>
        <time>2026-07-07T14:37:46.000Z</time>
      </trkpt>
      <trkpt lat="47.70615" lon="16.16136">
        <ele>373.941548</ele>
        <time>2026-07-07T14:37:47.000Z</time>
      </trkpt>
      <trkpt lat="47.70614" lon="16.16128">
        <ele>373.97416</ele>
        <time>2026-07-07T14:37:48.000Z</time>
      </trkpt>
      <trkpt lat="47.70612" lon="16.16121">
        <ele>374.00592</ele>
        <time>2026-07-07T14:37:49.000Z</time>
      </trkpt>
      <trkpt lat="47.70611" lon="16.16113">
        <ele>374.038416</ele>
        <time>2026-07-07T14:37:50.000Z</time>
      </trkpt>
      <trkpt lat="47.70609" lon="16.16105">
        <ele>374.070561</ele>
        <time>2026-07-07T14:37:51.000Z</time>
      </trkpt>
      <trkpt lat="47.70607" lon="16.16098">
        <ele>374.102677</ele>
        <time>2026-07-07T14:37:52.000Z</time>
      </trkpt>
      <trkpt lat="47.70606" lon="16.1609">
        <ele>374.135593</ele>
        <time>2026-07-07T14:37:53.000Z</time>
      </trkpt>
      <trkpt lat="47.70604" lon="16.16082">
        <ele>374.167901</ele>
        <time>2026-07-07T14:37:54.000Z</time>
      </trkpt>
      <trkpt lat="47.70602" lon="16.16074">
        <ele>374.201347</ele>
        <time>2026-07-07T14:37:55.000Z</time>
      </trkpt>
      <trkpt lat="47.70601" lon="16.16066">
        <ele>374.234649</ele>
        <time>2026-07-07T14:37:56.000Z</time>
      </trkpt>
      <trkpt lat="47.70599" lon="16.16059">
        <ele>374.267179</ele>
        <time>2026-07-07T14:37:57.000Z</time>
      </trkpt>
      <trkpt lat="47.70598" lon="16.16051">
        <ele>374.300821</ele>
        <time>2026-07-07T14:37:58.000Z</time>
      </trkpt>
      <trkpt lat="47.70596" lon="16.16043">
        <ele>374.334123</ele>
        <time>2026-07-07T14:37:59.000Z</time>
      </trkpt>
      <trkpt lat="47.70595" lon="16.16035">
        <ele>374.367425</ele>
        <time>2026-07-07T14:38:00.000Z</time>
      </trkpt>
      <trkpt lat="47.70593" lon="16.16027">
        <ele>374.400727</ele>
        <time>2026-07-07T14:38:01.000Z</time>
      </trkpt>
      <trkpt lat="47.70592" lon="16.16019">
        <ele>374.434029</ele>
        <time>2026-07-07T14:38:02.000Z</time>
      </trkpt>
      <trkpt lat="47.7059" lon="16.16011">
        <ele>374.466907</ele>
        <time>2026-07-07T14:38:03.000Z</time>
      </trkpt>
      <trkpt lat="47.70588" lon="16.16003">
        <ele>374.499823</ele>
        <time>2026-07-07T14:38:04.000Z</time>
      </trkpt>
      <trkpt lat="47.70587" lon="16.15995">
        <ele>374.53289</ele>
        <time>2026-07-07T14:38:05.000Z</time>
      </trkpt>
      <trkpt lat="47.70585" lon="16.15987">
        <ele>374.565386</ele>
        <time>2026-07-07T14:38:06.000Z</time>
      </trkpt>
      <trkpt lat="47.70583" lon="16.1598">
        <ele>374.597146</ele>
        <time>2026-07-07T14:38:07.000Z</time>
      </trkpt>
      <trkpt lat="47.70582" lon="16.15972">
        <ele>374.630062</ele>
        <time>2026-07-07T14:38:08.000Z</time>
      </trkpt>
      <trkpt lat="47.70581" lon="16.15964">
        <ele>374.661507</ele>
        <time>2026-07-07T14:38:09.000Z</time>
      </trkpt>
      <trkpt lat="47.70579" lon="16.15956">
        <ele>374.69412</ele>
        <time>2026-07-07T14:38:10.000Z</time>
      </trkpt>
      <trkpt lat="47.70578" lon="16.15949">
        <ele>374.712785</ele>
        <time>2026-07-07T14:38:11.000Z</time>
      </trkpt>
      <trkpt lat="47.70577" lon="16.15941">
        <ele>374.728632</ele>
        <time>2026-07-07T14:38:12.000Z</time>
      </trkpt>
      <trkpt lat="47.70576" lon="16.15933">
        <ele>374.7443</ele>
        <time>2026-07-07T14:38:13.000Z</time>
      </trkpt>
      <trkpt lat="47.70575" lon="16.15925">
        <ele>374.759771</ele>
        <time>2026-07-07T14:38:14.000Z</time>
      </trkpt>
      <trkpt lat="47.70575" lon="16.15917">
        <ele>374.775186</ele>
        <time>2026-07-07T14:38:15.000Z</time>
      </trkpt>
      <trkpt lat="47.70575" lon="16.15908">
        <ele>374.790976</ele>
        <time>2026-07-07T14:38:16.000Z</time>
      </trkpt>
      <trkpt lat="47.70575" lon="16.159">
        <ele>374.806446</ele>
        <time>2026-07-07T14:38:17.000Z</time>
      </trkpt>
      <trkpt lat="47.70576" lon="16.15892">
        <ele>374.821893</ele>
        <time>2026-07-07T14:38:18.000Z</time>
      </trkpt>
      <trkpt lat="47.70576" lon="16.15885">
        <ele>374.836406</ele>
        <time>2026-07-07T14:38:19.000Z</time>
      </trkpt>
      <trkpt lat="47.70577" lon="16.15877">
        <ele>374.85111</ele>
        <time>2026-07-07T14:38:20.000Z</time>
      </trkpt>
      <trkpt lat="47.70577" lon="16.1587">
        <ele>374.865622</ele>
        <time>2026-07-07T14:38:21.000Z</time>
      </trkpt>
      <trkpt lat="47.70578" lon="16.15862">
        <ele>374.880548</ele>
        <time>2026-07-07T14:38:22.000Z</time>
      </trkpt>
      <trkpt lat="47.70578" lon="16.15855">
        <ele>374.895035</ele>
        <time>2026-07-07T14:38:23.000Z</time>
      </trkpt>
      <trkpt lat="47.70579" lon="16.15847">
        <ele>374.909548</ele>
        <time>2026-07-07T14:38:24.000Z</time>
      </trkpt>
      <trkpt lat="47.70579" lon="16.1584">
        <ele>374.923485</ele>
        <time>2026-07-07T14:38:25.000Z</time>
      </trkpt>
      <trkpt lat="47.70579" lon="16.15833">
        <ele>374.936582</ele>
        <time>2026-07-07T14:38:26.000Z</time>
      </trkpt>
      <trkpt lat="47.70579" lon="16.15827">
        <ele>374.948713</ele>
        <time>2026-07-07T14:38:27.000Z</time>
      </trkpt>
      <trkpt lat="47.7058" lon="16.15821">
        <ele>374.960666</ele>
        <time>2026-07-07T14:38:28.000Z</time>
      </trkpt>
      <trkpt lat="47.7058" lon="16.15815">
        <ele>374.972219</ele>
        <time>2026-07-07T14:38:29.000Z</time>
      </trkpt>
      <trkpt lat="47.7058" lon="16.15808">
        <ele>374.98435</ele>
        <time>2026-07-07T14:38:30.000Z</time>
      </trkpt>
      <trkpt lat="47.7058" lon="16.15801">
        <ele>374.997649</ele>
        <time>2026-07-07T14:38:31.000Z</time>
      </trkpt>
      <trkpt lat="47.7058" lon="16.15794">
        <ele>375.011155</ele>
        <time>2026-07-07T14:38:32.000Z</time>
      </trkpt>
      <trkpt lat="47.7058" lon="16.15787">
        <ele>375.024838</ele>
        <time>2026-07-07T14:38:33.000Z</time>
      </trkpt>
      <trkpt lat="47.7058" lon="16.1578">
        <ele>375.03832</ele>
        <time>2026-07-07T14:38:34.000Z</time>
      </trkpt>
      <trkpt lat="47.70581" lon="16.15773">
        <ele>375.051811</ele>
        <time>2026-07-07T14:38:35.000Z</time>
      </trkpt>
      <trkpt lat="47.70581" lon="16.15766">
        <ele>375.06511</ele>
        <time>2026-07-07T14:38:36.000Z</time>
      </trkpt>
      <trkpt lat="47.70581" lon="16.1576">
        <ele>375.07763</ele>
        <time>2026-07-07T14:38:37.000Z</time>
      </trkpt>
      <trkpt lat="47.70581" lon="16.15754">
        <ele>375.089815</ele>
        <time>2026-07-07T14:38:38.000Z</time>
      </trkpt>
      <trkpt lat="47.70582" lon="16.15748">
        <ele>375.1014</ele>
        <time>2026-07-07T14:38:39.000Z</time>
      </trkpt>
      <trkpt lat="47.70582" lon="16.15742">
        <ele>375.112568</ele>
        <time>2026-07-07T14:38:40.000Z</time>
      </trkpt>
      <trkpt lat="47.70582" lon="16.15736">
        <ele>375.123174</ele>
        <time>2026-07-07T14:38:41.000Z</time>
      </trkpt>
      <trkpt lat="47.70582" lon="16.15731">
        <ele>375.132802</ele>
        <time>2026-07-07T14:38:42.000Z</time>
      </trkpt>
      <trkpt lat="47.70581" lon="16.15726">
        <ele>375.142447</ele>
        <time>2026-07-07T14:38:43.000Z</time>
      </trkpt>
      <trkpt lat="47.7058" lon="16.15722">
        <ele>375.150845</ele>
        <time>2026-07-07T14:38:44.000Z</time>
      </trkpt>
      <trkpt lat="47.70578" lon="16.15719">
        <ele>375.159001</ele>
        <time>2026-07-07T14:38:45.000Z</time>
      </trkpt>
      <trkpt lat="47.70576" lon="16.15717">
        <ele>375.166725</ele>
        <time>2026-07-07T14:38:46.000Z</time>
      </trkpt>
      <trkpt lat="47.70573" lon="16.15717">
        <ele>375.175318</ele>
        <time>2026-07-07T14:38:47.000Z</time>
      </trkpt>
      <trkpt lat="47.7057" lon="16.15718">
        <ele>375.18504</ele>
        <time>2026-07-07T14:38:48.000Z</time>
      </trkpt>
      <trkpt lat="47.70566" lon="16.1572">
        <ele>375.195729</ele>
        <time>2026-07-07T14:38:49.000Z</time>
      </trkpt>
      <trkpt lat="47.70563" lon="16.15722">
        <ele>375.206603</ele>
        <time>2026-07-07T14:38:50.000Z</time>
      </trkpt>
      <trkpt lat="47.70559" lon="16.15722">
        <ele>375.218507</ele>
        <time>2026-07-07T14:38:51.000Z</time>
      </trkpt>
      <trkpt lat="47.70556" lon="16.15718">
        <ele>375.235248</ele>
        <time>2026-07-07T14:38:52.000Z</time>
      </trkpt>
      <trkpt lat="47.70553" lon="16.15713">
        <ele>375.252922</ele>
        <time>2026-07-07T14:38:53.000Z</time>
      </trkpt>
      <trkpt lat="47.70551" lon="16.15706">
        <ele>375.271668</ele>
        <time>2026-07-07T14:38:54.000Z</time>
      </trkpt>
      <trkpt lat="47.7055" lon="16.15699">
        <ele>375.291888</ele>
        <time>2026-07-07T14:38:55.000Z</time>
      </trkpt>
      <trkpt lat="47.70549" lon="16.15691">
        <ele>375.312118</ele>
        <time>2026-07-07T14:38:56.000Z</time>
      </trkpt>
      <trkpt lat="47.70549" lon="16.15683">
        <ele>375.332314</ele>
        <time>2026-07-07T14:38:57.000Z</time>
      </trkpt>
      <trkpt lat="47.70549" lon="16.15676">
        <ele>375.352263</ele>
        <time>2026-07-07T14:38:58.000Z</time>
      </trkpt>
      <trkpt lat="47.70549" lon="16.15668">
        <ele>375.37197</ele>
        <time>2026-07-07T14:38:59.000Z</time>
      </trkpt>
      <trkpt lat="47.70548" lon="16.15661">
        <ele>375.392226</ele>
        <time>2026-07-07T14:39:00.000Z</time>
      </trkpt>
      <trkpt lat="47.70548" lon="16.15653">
        <ele>375.411932</ele>
        <time>2026-07-07T14:39:01.000Z</time>
      </trkpt>
      <trkpt lat="47.70547" lon="16.15646">
        <ele>375.431792</ele>
        <time>2026-07-07T14:39:02.000Z</time>
      </trkpt>
      <trkpt lat="47.70547" lon="16.15638">
        <ele>375.451081</ele>
        <time>2026-07-07T14:39:03.000Z</time>
      </trkpt>
      <trkpt lat="47.70546" lon="16.15631">
        <ele>375.470682</ele>
        <time>2026-07-07T14:39:04.000Z</time>
      </trkpt>
      <trkpt lat="47.70545" lon="16.15623">
        <ele>375.490541</ele>
        <time>2026-07-07T14:39:05.000Z</time>
      </trkpt>
      <trkpt lat="47.70545" lon="16.15616">
        <ele>375.511133</ele>
        <time>2026-07-07T14:39:06.000Z</time>
      </trkpt>
      <trkpt lat="47.70544" lon="16.15608">
        <ele>375.531513</ele>
        <time>2026-07-07T14:39:07.000Z</time>
      </trkpt>
      <trkpt lat="47.70544" lon="16.156">
        <ele>375.552064</ele>
        <time>2026-07-07T14:39:08.000Z</time>
      </trkpt>
      <trkpt lat="47.70543" lon="16.15593">
        <ele>375.571981</ele>
        <time>2026-07-07T14:39:09.000Z</time>
      </trkpt>
      <trkpt lat="47.70542" lon="16.15585">
        <ele>375.592035</ele>
        <time>2026-07-07T14:39:10.000Z</time>
      </trkpt>
      <trkpt lat="47.7054" lon="16.15578">
        <ele>375.611944</ele>
        <time>2026-07-07T14:39:11.000Z</time>
      </trkpt>
      <trkpt lat="47.7054" lon="16.1557">
        <ele>375.631755</ele>
        <time>2026-07-07T14:39:12.000Z</time>
      </trkpt>
      <trkpt lat="47.7054" lon="16.15563">
        <ele>375.651199</ele>
        <time>2026-07-07T14:39:13.000Z</time>
      </trkpt>
      <trkpt lat="47.70542" lon="16.15556">
        <ele>375.671099</ele>
        <time>2026-07-07T14:39:14.000Z</time>
      </trkpt>
      <trkpt lat="47.70545" lon="16.1555">
        <ele>375.691129</ele>
        <time>2026-07-07T14:39:15.000Z</time>
      </trkpt>
      <trkpt lat="47.70549" lon="16.15544">
        <ele>375.711843</ele>
        <time>2026-07-07T14:39:16.000Z</time>
      </trkpt>
      <trkpt lat="47.70553" lon="16.1554">
        <ele>375.732085</ele>
        <time>2026-07-07T14:39:17.000Z</time>
      </trkpt>
      <trkpt lat="47.70558" lon="16.15536">
        <ele>375.751858</ele>
        <time>2026-07-07T14:39:18.000Z</time>
      </trkpt>
      <trkpt lat="47.70562" lon="16.15532">
        <ele>375.772357</ele>
        <time>2026-07-07T14:39:19.000Z</time>
      </trkpt>
      <trkpt lat="47.70566" lon="16.15527">
        <ele>375.793176</ele>
        <time>2026-07-07T14:39:20.000Z</time>
      </trkpt>
      <trkpt lat="47.70571" lon="16.15523">
        <ele>375.813674</ele>
        <time>2026-07-07T14:39:21.000Z</time>
      </trkpt>
      <trkpt lat="47.70575" lon="16.15518">
        <ele>375.835113</ele>
        <time>2026-07-07T14:39:22.000Z</time>
      </trkpt>
      <trkpt lat="47.7058" lon="16.15513">
        <ele>375.856551</ele>
        <time>2026-07-07T14:39:23.000Z</time>
      </trkpt>
      <trkpt lat="47.70584" lon="16.15509">
        <ele>375.877839</ele>
        <time>2026-07-07T14:39:24.000Z</time>
      </trkpt>
      <trkpt lat="47.70588" lon="16.15504">
        <ele>375.898959</ele>
        <time>2026-07-07T14:39:25.000Z</time>
      </trkpt>
      <trkpt lat="47.70593" lon="16.15499">
        <ele>375.921005</ele>
        <time>2026-07-07T14:39:26.000Z</time>
      </trkpt>
      <trkpt lat="47.70597" lon="16.15494">
        <ele>375.946915</ele>
        <time>2026-07-07T14:39:27.000Z</time>
      </trkpt>
      <trkpt lat="47.70601" lon="16.15489">
        <ele>375.973165</ele>
        <time>2026-07-07T14:39:28.000Z</time>
      </trkpt>
      <trkpt lat="47.70605" lon="16.15484">
        <ele>375.998824</ele>
        <time>2026-07-07T14:39:29.000Z</time>
      </trkpt>
      <trkpt lat="47.70609" lon="16.15479">
        <ele>376.023892</ele>
        <time>2026-07-07T14:39:30.000Z</time>
      </trkpt>
      <trkpt lat="47.70613" lon="16.15475">
        <ele>376.049541</ele>
        <time>2026-07-07T14:39:31.000Z</time>
      </trkpt>
      <trkpt lat="47.70617" lon="16.1547">
        <ele>376.074204</ele>
        <time>2026-07-07T14:39:32.000Z</time>
      </trkpt>
      <trkpt lat="47.70621" lon="16.15466">
        <ele>376.098669</ele>
        <time>2026-07-07T14:39:33.000Z</time>
      </trkpt>
      <trkpt lat="47.70625" lon="16.15462">
        <ele>376.12023</ele>
        <time>2026-07-07T14:39:34.000Z</time>
      </trkpt>
      <trkpt lat="47.70628" lon="16.15459">
        <ele>376.141024</ele>
        <time>2026-07-07T14:39:35.000Z</time>
      </trkpt>
      <trkpt lat="47.70631" lon="16.15455">
        <ele>376.160479</ele>
        <time>2026-07-07T14:39:36.000Z</time>
      </trkpt>
      <trkpt lat="47.70632" lon="16.15449">
        <ele>376.179292</ele>
        <time>2026-07-07T14:39:37.000Z</time>
      </trkpt>
      <trkpt lat="47.70631" lon="16.15444">
        <ele>376.196734</ele>
        <time>2026-07-07T14:39:38.000Z</time>
      </trkpt>
      <trkpt lat="47.7063" lon="16.15439">
        <ele>376.215492</ele>
        <time>2026-07-07T14:39:39.000Z</time>
      </trkpt>
      <trkpt lat="47.70628" lon="16.15434">
        <ele>376.236173</ele>
        <time>2026-07-07T14:39:40.000Z</time>
      </trkpt>
      <trkpt lat="47.70625" lon="16.15428">
        <ele>376.258777</ele>
        <time>2026-07-07T14:39:41.000Z</time>
      </trkpt>
      <trkpt lat="47.70623" lon="16.15421">
        <ele>376.282779</ele>
        <time>2026-07-07T14:39:42.000Z</time>
      </trkpt>
      <trkpt lat="47.70621" lon="16.15415">
        <ele>376.306974</ele>
        <time>2026-07-07T14:39:43.000Z</time>
      </trkpt>
      <trkpt lat="47.70618" lon="16.15409">
        <ele>376.331741</ele>
        <time>2026-07-07T14:39:44.000Z</time>
      </trkpt>
      <trkpt lat="47.70616" lon="16.15402">
        <ele>376.356918</ele>
        <time>2026-07-07T14:39:45.000Z</time>
      </trkpt>
      <trkpt lat="47.70613" lon="16.15395">
        <ele>376.382752</ele>
        <time>2026-07-07T14:39:46.000Z</time>
      </trkpt>
      <trkpt lat="47.70611" lon="16.15388">
        <ele>376.407712</ele>
        <time>2026-07-07T14:39:47.000Z</time>
      </trkpt>
      <trkpt lat="47.70609" lon="16.15381">
        <ele>376.433066</ele>
        <time>2026-07-07T14:39:48.000Z</time>
      </trkpt>
      <trkpt lat="47.70606" lon="16.15375">
        <ele>376.458175</ele>
        <time>2026-07-07T14:39:49.000Z</time>
      </trkpt>
      <trkpt lat="47.70604" lon="16.15368">
        <ele>376.483518</ele>
        <time>2026-07-07T14:39:50.000Z</time>
      </trkpt>
      <trkpt lat="47.70602" lon="16.15361">
        <ele>376.508695</ele>
        <time>2026-07-07T14:39:51.000Z</time>
      </trkpt>
      <trkpt lat="47.70599" lon="16.15354">
        <ele>376.534465</ele>
        <time>2026-07-07T14:39:52.000Z</time>
      </trkpt>
      <trkpt lat="47.70597" lon="16.15347">
        <ele>376.560624</ele>
        <time>2026-07-07T14:39:53.000Z</time>
      </trkpt>
      <trkpt lat="47.70595" lon="16.1534">
        <ele>376.586482</ele>
        <time>2026-07-07T14:39:54.000Z</time>
      </trkpt>
      <trkpt lat="47.70593" lon="16.15333">
        <ele>376.611891</ele>
        <time>2026-07-07T14:39:55.000Z</time>
      </trkpt>
      <trkpt lat="47.70592" lon="16.15325">
        <ele>376.637141</ele>
        <time>2026-07-07T14:39:56.000Z</time>
      </trkpt>
      <trkpt lat="47.7059" lon="16.15318">
        <ele>376.662441</ele>
        <time>2026-07-07T14:39:57.000Z</time>
      </trkpt>
      <trkpt lat="47.70589" lon="16.15311">
        <ele>376.686993</ele>
        <time>2026-07-07T14:39:58.000Z</time>
      </trkpt>
      <trkpt lat="47.70589" lon="16.15303">
        <ele>376.71146</ele>
        <time>2026-07-07T14:39:59.000Z</time>
      </trkpt>
      <trkpt lat="47.70588" lon="16.15296">
        <ele>376.737403</ele>
        <time>2026-07-07T14:40:00.000Z</time>
      </trkpt>
      <trkpt lat="47.70586" lon="16.15288">
        <ele>376.763549</ele>
        <time>2026-07-07T14:40:01.000Z</time>
      </trkpt>
      <trkpt lat="47.70585" lon="16.1528">
        <ele>376.78917</ele>
        <time>2026-07-07T14:40:02.000Z</time>
      </trkpt>
      <trkpt lat="47.70584" lon="16.15273">
        <ele>376.811978</ele>
        <time>2026-07-07T14:40:03.000Z</time>
      </trkpt>
      <trkpt lat="47.70582" lon="16.15266">
        <ele>376.832413</ele>
        <time>2026-07-07T14:40:04.000Z</time>
      </trkpt>
      <trkpt lat="47.70581" lon="16.15258">
        <ele>376.852358</ele>
        <time>2026-07-07T14:40:05.000Z</time>
      </trkpt>
      <trkpt lat="47.7058" lon="16.15251">
        <ele>376.872566</ele>
        <time>2026-07-07T14:40:06.000Z</time>
      </trkpt>
      <trkpt lat="47.70579" lon="16.15244">
        <ele>376.891986</ele>
        <time>2026-07-07T14:40:07.000Z</time>
      </trkpt>
      <trkpt lat="47.70578" lon="16.15236">
        <ele>376.912119</ele>
        <time>2026-07-07T14:40:08.000Z</time>
      </trkpt>
      <trkpt lat="47.70577" lon="16.15229">
        <ele>376.932589</ele>
        <time>2026-07-07T14:40:09.000Z</time>
      </trkpt>
      <trkpt lat="47.70576" lon="16.15222">
        <ele>376.952618</ele>
        <time>2026-07-07T14:40:10.000Z</time>
      </trkpt>
      <trkpt lat="47.70575" lon="16.15214">
        <ele>376.972737</ele>
        <time>2026-07-07T14:40:11.000Z</time>
      </trkpt>
      <trkpt lat="47.70574" lon="16.15207">
        <ele>376.993116</ele>
        <time>2026-07-07T14:40:12.000Z</time>
      </trkpt>
      <trkpt lat="47.70573" lon="16.15199">
        <ele>377.013586</ele>
        <time>2026-07-07T14:40:13.000Z</time>
      </trkpt>
      <trkpt lat="47.70571" lon="16.15192">
        <ele>377.034021</ele>
        <time>2026-07-07T14:40:14.000Z</time>
      </trkpt>
      <trkpt lat="47.7057" lon="16.15185">
        <ele>377.054576</ele>
        <time>2026-07-07T14:40:15.000Z</time>
      </trkpt>
      <trkpt lat="47.70568" lon="16.15178">
        <ele>377.075282</ele>
        <time>2026-07-07T14:40:16.000Z</time>
      </trkpt>
      <trkpt lat="47.70566" lon="16.1517">
        <ele>377.095846</ele>
        <time>2026-07-07T14:40:17.000Z</time>
      </trkpt>
      <trkpt lat="47.70564" lon="16.15163">
        <ele>377.116773</ele>
        <time>2026-07-07T14:40:18.000Z</time>
      </trkpt>
      <trkpt lat="47.70562" lon="16.15156">
        <ele>377.138123</ele>
        <time>2026-07-07T14:40:19.000Z</time>
      </trkpt>
      <trkpt lat="47.7056" lon="16.15149">
        <ele>377.159225</ele>
        <time>2026-07-07T14:40:20.000Z</time>
      </trkpt>
      <trkpt lat="47.70558" lon="16.15141">
        <ele>377.180327</ele>
        <time>2026-07-07T14:40:21.000Z</time>
      </trkpt>
      <trkpt lat="47.70556" lon="16.15134">
        <ele>377.201829</ele>
        <time>2026-07-07T14:40:22.000Z</time>
      </trkpt>
      <trkpt lat="47.70554" lon="16.15127">
        <ele>377.223244</ele>
        <time>2026-07-07T14:40:23.000Z</time>
      </trkpt>
      <trkpt lat="47.70551" lon="16.15119">
        <ele>377.244659</ele>
        <time>2026-07-07T14:40:24.000Z</time>
      </trkpt>
      <trkpt lat="47.70549" lon="16.15112">
        <ele>377.26616</ele>
        <time>2026-07-07T14:40:25.000Z</time>
      </trkpt>
      <trkpt lat="47.70547" lon="16.15105">
        <ele>377.287575</ele>
        <time>2026-07-07T14:40:26.000Z</time>
      </trkpt>
      <trkpt lat="47.70545" lon="16.15097">
        <ele>377.30899</ele>
        <time>2026-07-07T14:40:27.000Z</time>
      </trkpt>
      <trkpt lat="47.70543" lon="16.1509">
        <ele>377.331057</ele>
        <time>2026-07-07T14:40:28.000Z</time>
      </trkpt>
      <trkpt lat="47.7054" lon="16.15082">
        <ele>377.352716</ele>
        <time>2026-07-07T14:40:29.000Z</time>
      </trkpt>
      <trkpt lat="47.70538" lon="16.15075">
        <ele>377.37348</ele>
        <time>2026-07-07T14:40:30.000Z</time>
      </trkpt>
      <trkpt lat="47.70536" lon="16.15068">
        <ele>377.395385</ele>
        <time>2026-07-07T14:40:31.000Z</time>
      </trkpt>
      <trkpt lat="47.70534" lon="16.1506">
        <ele>377.417208</ele>
        <time>2026-07-07T14:40:32.000Z</time>
      </trkpt>
      <trkpt lat="47.70531" lon="16.15053">
        <ele>377.43896</ele>
        <time>2026-07-07T14:40:33.000Z</time>
      </trkpt>
      <trkpt lat="47.70529" lon="16.15046">
        <ele>377.460216</ele>
        <time>2026-07-07T14:40:34.000Z</time>
      </trkpt>
      <trkpt lat="47.70527" lon="16.15039">
        <ele>377.481728</ele>
        <time>2026-07-07T14:40:35.000Z</time>
      </trkpt>
      <trkpt lat="47.70525" lon="16.15032">
        <ele>377.502247</ele>
        <time>2026-07-07T14:40:36.000Z</time>
      </trkpt>
      <trkpt lat="47.70522" lon="16.15025">
        <ele>377.526604</ele>
        <time>2026-07-07T14:40:37.000Z</time>
      </trkpt>
      <trkpt lat="47.7052" lon="16.15018">
        <ele>377.557315</ele>
        <time>2026-07-07T14:40:38.000Z</time>
      </trkpt>
      <trkpt lat="47.70517" lon="16.15011">
        <ele>377.588889</ele>
        <time>2026-07-07T14:40:39.000Z</time>
      </trkpt>
      <trkpt lat="47.70514" lon="16.15004">
        <ele>377.61951</ele>
        <time>2026-07-07T14:40:40.000Z</time>
      </trkpt>
      <trkpt lat="47.70512" lon="16.14997">
        <ele>377.649949</ele>
        <time>2026-07-07T14:40:41.000Z</time>
      </trkpt>
      <trkpt lat="47.70509" lon="16.1499">
        <ele>377.679526</ele>
        <time>2026-07-07T14:40:42.000Z</time>
      </trkpt>
      <trkpt lat="47.70507" lon="16.14984">
        <ele>377.708215</ele>
        <time>2026-07-07T14:40:43.000Z</time>
      </trkpt>
      <trkpt lat="47.70503" lon="16.14978">
        <ele>377.737024</ele>
        <time>2026-07-07T14:40:44.000Z</time>
      </trkpt>
      <trkpt lat="47.705" lon="16.14972">
        <ele>377.764581</ele>
        <time>2026-07-07T14:40:45.000Z</time>
      </trkpt>
      <trkpt lat="47.70497" lon="16.14967">
        <ele>377.792028</ele>
        <time>2026-07-07T14:40:46.000Z</time>
      </trkpt>
      <trkpt lat="47.70495" lon="16.14961">
        <ele>377.817845</ele>
        <time>2026-07-07T14:40:47.000Z</time>
      </trkpt>
      <trkpt lat="47.70492" lon="16.14956">
        <ele>377.841436</ele>
        <time>2026-07-07T14:40:48.000Z</time>
      </trkpt>
      <trkpt lat="47.7049" lon="16.14951">
        <ele>377.864069</ele>
        <time>2026-07-07T14:40:49.000Z</time>
      </trkpt>
      <trkpt lat="47.70488" lon="16.14946">
        <ele>377.888616</ele>
        <time>2026-07-07T14:40:50.000Z</time>
      </trkpt>
      <trkpt lat="47.70485" lon="16.14941">
        <ele>377.915107</ele>
        <time>2026-07-07T14:40:51.000Z</time>
      </trkpt>
      <trkpt lat="47.70482" lon="16.14935">
        <ele>377.942902</ele>
        <time>2026-07-07T14:40:52.000Z</time>
      </trkpt>
      <trkpt lat="47.70479" lon="16.14929">
        <ele>377.971</ele>
        <time>2026-07-07T14:40:53.000Z</time>
      </trkpt>
      <trkpt lat="47.70476" lon="16.14923">
        <ele>378.000003</ele>
        <time>2026-07-07T14:40:54.000Z</time>
      </trkpt>
      <trkpt lat="47.70473" lon="16.14917">
        <ele>378.029024</ele>
        <time>2026-07-07T14:40:55.000Z</time>
      </trkpt>
      <trkpt lat="47.7047" lon="16.14911">
        <ele>378.057069</ele>
        <time>2026-07-07T14:40:56.000Z</time>
      </trkpt>
      <trkpt lat="47.70467" lon="16.14904">
        <ele>378.086391</ele>
        <time>2026-07-07T14:40:57.000Z</time>
      </trkpt>
      <trkpt lat="47.70464" lon="16.14898">
        <ele>378.116347</ele>
        <time>2026-07-07T14:40:58.000Z</time>
      </trkpt>
      <trkpt lat="47.70462" lon="16.14891">
        <ele>378.145391</ele>
        <time>2026-07-07T14:40:59.000Z</time>
      </trkpt>
      <trkpt lat="47.70459" lon="16.14884">
        <ele>378.175831</ele>
        <time>2026-07-07T14:41:00.000Z</time>
      </trkpt>
      <trkpt lat="47.70457" lon="16.14878">
        <ele>378.205594</ele>
        <time>2026-07-07T14:41:01.000Z</time>
      </trkpt>
      <trkpt lat="47.70454" lon="16.14871">
        <ele>378.235591</ele>
        <time>2026-07-07T14:41:02.000Z</time>
      </trkpt>
      <trkpt lat="47.70451" lon="16.14864">
        <ele>378.264931</ele>
        <time>2026-07-07T14:41:03.000Z</time>
      </trkpt>
      <trkpt lat="47.70449" lon="16.14858">
        <ele>378.292667</ele>
        <time>2026-07-07T14:41:04.000Z</time>
      </trkpt>
      <trkpt lat="47.70446" lon="16.14852">
        <ele>378.322303</ele>
        <time>2026-07-07T14:41:05.000Z</time>
      </trkpt>
      <trkpt lat="47.70443" lon="16.14845">
        <ele>378.351947</ele>
        <time>2026-07-07T14:41:06.000Z</time>
      </trkpt>
      <trkpt lat="47.7044" lon="16.14839">
        <ele>378.381592</ele>
        <time>2026-07-07T14:41:07.000Z</time>
      </trkpt>
      <trkpt lat="47.70437" lon="16.14833">
        <ele>378.41091</ele>
        <time>2026-07-07T14:41:08.000Z</time>
      </trkpt>
      <trkpt lat="47.70435" lon="16.14827">
        <ele>378.437679</ele>
        <time>2026-07-07T14:41:09.000Z</time>
      </trkpt>
      <trkpt lat="47.70432" lon="16.14821">
        <ele>378.465085</ele>
        <time>2026-07-07T14:41:10.000Z</time>
      </trkpt>
      <trkpt lat="47.70429" lon="16.14815">
        <ele>378.491547</ele>
        <time>2026-07-07T14:41:11.000Z</time>
      </trkpt>
      <trkpt lat="47.70427" lon="16.14809">
        <ele>378.518327</ele>
        <time>2026-07-07T14:41:12.000Z</time>
      </trkpt>
      <trkpt lat="47.70425" lon="16.14804">
        <ele>378.543979</ele>
        <time>2026-07-07T14:41:13.000Z</time>
      </trkpt>
      <trkpt lat="47.70422" lon="16.14798">
        <ele>378.578636</ele>
        <time>2026-07-07T14:41:14.000Z</time>
      </trkpt>
      <trkpt lat="47.7042" lon="16.14793">
        <ele>378.612006</ele>
        <time>2026-07-07T14:41:15.000Z</time>
      </trkpt>
      <trkpt lat="47.70418" lon="16.14788">
        <ele>378.642331</ele>
        <time>2026-07-07T14:41:16.000Z</time>
      </trkpt>
      <trkpt lat="47.70416" lon="16.14784">
        <ele>378.667457</ele>
        <time>2026-07-07T14:41:17.000Z</time>
      </trkpt>
      <trkpt lat="47.70414" lon="16.14781">
        <ele>378.687387</ele>
        <time>2026-07-07T14:41:18.000Z</time>
      </trkpt>
      <trkpt lat="47.70414" lon="16.14778">
        <ele>378.703525</ele>
        <time>2026-07-07T14:41:19.000Z</time>
      </trkpt>
      <trkpt lat="47.70414" lon="16.14775">
        <ele>378.716602</ele>
        <time>2026-07-07T14:41:20.000Z</time>
      </trkpt>
      <trkpt lat="47.70414" lon="16.14774">
        <ele>378.722346</ele>
        <time>2026-07-07T14:41:21.000Z</time>
      </trkpt>
      <trkpt lat="47.70408" lon="16.1477">
        <ele>378.772451</ele>
        <time>2026-07-07T14:41:26.000Z</time>
      </trkpt>
      <trkpt lat="47.70407" lon="16.14768">
        <ele>378.78697</ele>
        <time>2026-07-07T14:41:27.000Z</time>
      </trkpt>
      <trkpt lat="47.70405" lon="16.14765">
        <ele>378.805193</ele>
        <time>2026-07-07T14:41:28.000Z</time>
      </trkpt>
      <trkpt lat="47.70404" lon="16.14762">
        <ele>378.82516</ele>
        <time>2026-07-07T14:41:29.000Z</time>
      </trkpt>
      <trkpt lat="47.70403" lon="16.14759">
        <ele>378.846035</ele>
        <time>2026-07-07T14:41:30.000Z</time>
      </trkpt>
      <trkpt lat="47.70402" lon="16.14755">
        <ele>378.867481</ele>
        <time>2026-07-07T14:41:31.000Z</time>
      </trkpt>
      <trkpt lat="47.704" lon="16.14751">
        <ele>378.890827</ele>
        <time>2026-07-07T14:41:32.000Z</time>
      </trkpt>
      <trkpt lat="47.70399" lon="16.14746">
        <ele>378.917361</ele>
        <time>2026-07-07T14:41:33.000Z</time>
      </trkpt>
      <trkpt lat="47.70397" lon="16.14741">
        <ele>378.947548</ele>
        <time>2026-07-07T14:41:34.000Z</time>
      </trkpt>
      <trkpt lat="47.70396" lon="16.14736">
        <ele>378.977619</ele>
        <time>2026-07-07T14:41:35.000Z</time>
      </trkpt>
      <trkpt lat="47.70394" lon="16.1473">
        <ele>379.010263</ele>
        <time>2026-07-07T14:41:36.000Z</time>
      </trkpt>
      <trkpt lat="47.70391" lon="16.14725">
        <ele>379.043225</ele>
        <time>2026-07-07T14:41:37.000Z</time>
      </trkpt>
      <trkpt lat="47.70389" lon="16.1472">
        <ele>379.077021</ele>
        <time>2026-07-07T14:41:38.000Z</time>
      </trkpt>
      <trkpt lat="47.70387" lon="16.14714">
        <ele>379.110041</ele>
        <time>2026-07-07T14:41:39.000Z</time>
      </trkpt>
      <trkpt lat="47.70384" lon="16.14708">
        <ele>379.145568</ele>
        <time>2026-07-07T14:41:40.000Z</time>
      </trkpt>
      <trkpt lat="47.70381" lon="16.14703">
        <ele>379.181236</ele>
        <time>2026-07-07T14:41:41.000Z</time>
      </trkpt>
      <trkpt lat="47.70379" lon="16.14698">
        <ele>379.217247</ele>
        <time>2026-07-07T14:41:42.000Z</time>
      </trkpt>
      <trkpt lat="47.70376" lon="16.14692">
        <ele>379.251957</ele>
        <time>2026-07-07T14:41:43.000Z</time>
      </trkpt>
      <trkpt lat="47.70373" lon="16.14687">
        <ele>379.28902</ele>
        <time>2026-07-07T14:41:44.000Z</time>
      </trkpt>
      <trkpt lat="47.70369" lon="16.14682">
        <ele>379.32541</ele>
        <time>2026-07-07T14:41:45.000Z</time>
      </trkpt>
      <trkpt lat="47.70366" lon="16.14677">
        <ele>379.361979</ele>
        <time>2026-07-07T14:41:46.000Z</time>
      </trkpt>
      <trkpt lat="47.70363" lon="16.14672">
        <ele>379.398583</ele>
        <time>2026-07-07T14:41:47.000Z</time>
      </trkpt>
      <trkpt lat="47.70359" lon="16.14668">
        <ele>379.435682</ele>
        <time>2026-07-07T14:41:48.000Z</time>
      </trkpt>
      <trkpt lat="47.70356" lon="16.14664">
        <ele>379.469738</ele>
        <time>2026-07-07T14:41:49.000Z</time>
      </trkpt>
      <trkpt lat="47.70352" lon="16.14659">
        <ele>379.50565</ele>
        <time>2026-07-07T14:41:50.000Z</time>
      </trkpt>
      <trkpt lat="47.70349" lon="16.14655">
        <ele>379.53991</ele>
        <time>2026-07-07T14:41:51.000Z</time>
      </trkpt>
      <trkpt lat="47.70345" lon="16.14651">
        <ele>379.572304</ele>
        <time>2026-07-07T14:41:52.000Z</time>
      </trkpt>
      <trkpt lat="47.70342" lon="16.14648">
        <ele>379.605004</ele>
        <time>2026-07-07T14:41:53.000Z</time>
      </trkpt>
      <trkpt lat="47.70339" lon="16.14644">
        <ele>379.634077</ele>
        <time>2026-07-07T14:41:54.000Z</time>
      </trkpt>
      <trkpt lat="47.70336" lon="16.14641">
        <ele>379.660862</ele>
        <time>2026-07-07T14:41:55.000Z</time>
      </trkpt>
      <trkpt lat="47.70334" lon="16.14638">
        <ele>379.684538</ele>
        <time>2026-07-07T14:41:56.000Z</time>
      </trkpt>
      <trkpt lat="47.70332" lon="16.14636">
        <ele>379.704817</ele>
        <time>2026-07-07T14:41:57.000Z</time>
      </trkpt>
      <trkpt lat="47.7033" lon="16.14633">
        <ele>379.723237</ele>
        <time>2026-07-07T14:41:58.000Z</time>
      </trkpt>
      <trkpt lat="47.70329" lon="16.14632">
        <ele>379.736008</ele>
        <time>2026-07-07T14:41:59.000Z</time>
      </trkpt>
      <trkpt lat="47.70327" lon="16.14632">
        <ele>379.751562</ele>
        <time>2026-07-07T14:42:00.000Z</time>
      </trkpt>
      <trkpt lat="47.70325" lon="16.14633">
        <ele>379.769413</ele>
        <time>2026-07-07T14:42:01.000Z</time>
      </trkpt>
      <trkpt lat="47.70323" lon="16.14635">
        <ele>379.786852</ele>
        <time>2026-07-07T14:42:02.000Z</time>
      </trkpt>
      <trkpt lat="47.70321" lon="16.14637">
        <ele>379.806475</ele>
        <time>2026-07-07T14:42:03.000Z</time>
      </trkpt>
      <trkpt lat="47.70319" lon="16.14639">
        <ele>379.825783</ele>
        <time>2026-07-07T14:42:04.000Z</time>
      </trkpt>
      <trkpt lat="47.70317" lon="16.14641">
        <ele>379.845091</ele>
        <time>2026-07-07T14:42:05.000Z</time>
      </trkpt>
      <trkpt lat="47.70314" lon="16.14643">
        <ele>379.868738</ele>
        <time>2026-07-07T14:42:06.000Z</time>
      </trkpt>
      <trkpt lat="47.70311" lon="16.14646">
        <ele>379.89399</ele>
        <time>2026-07-07T14:42:07.000Z</time>
      </trkpt>
      <trkpt lat="47.70308" lon="16.14649">
        <ele>379.922644</ele>
        <time>2026-07-07T14:42:08.000Z</time>
      </trkpt>
      <trkpt lat="47.70305" lon="16.14653">
        <ele>379.939321</ele>
        <time>2026-07-07T14:42:09.000Z</time>
      </trkpt>
      <trkpt lat="47.70301" lon="16.14656">
        <ele>379.942305</ele>
        <time>2026-07-07T14:42:10.000Z</time>
      </trkpt>
      <trkpt lat="47.70297" lon="16.1466">
        <ele>379.945206</ele>
        <time>2026-07-07T14:42:11.000Z</time>
      </trkpt>
      <trkpt lat="47.70292" lon="16.14663">
        <ele>379.948166</ele>
        <time>2026-07-07T14:42:12.000Z</time>
      </trkpt>
      <trkpt lat="47.70288" lon="16.14667">
        <ele>379.951091</ele>
        <time>2026-07-07T14:42:13.000Z</time>
      </trkpt>
      <trkpt lat="47.70284" lon="16.1467">
        <ele>379.954016</ele>
        <time>2026-07-07T14:42:14.000Z</time>
      </trkpt>
      <trkpt lat="47.7028" lon="16.14674">
        <ele>379.957075</ele>
        <time>2026-07-07T14:42:15.000Z</time>
      </trkpt>
      <trkpt lat="47.70275" lon="16.14677">
        <ele>379.960241</ele>
        <time>2026-07-07T14:42:16.000Z</time>
      </trkpt>
      <trkpt lat="47.70271" lon="16.14681">
        <ele>379.96333</ele>
        <time>2026-07-07T14:42:17.000Z</time>
      </trkpt>
      <trkpt lat="47.70266" lon="16.14684">
        <ele>379.96653</ele>
        <time>2026-07-07T14:42:18.000Z</time>
      </trkpt>
      <trkpt lat="47.70261" lon="16.14687">
        <ele>379.969622</ele>
        <time>2026-07-07T14:42:19.000Z</time>
      </trkpt>
      <trkpt lat="47.70256" lon="16.14689">
        <ele>379.972774</ele>
        <time>2026-07-07T14:42:20.000Z</time>
      </trkpt>
      <trkpt lat="47.70252" lon="16.14691">
        <ele>379.975748</ele>
        <time>2026-07-07T14:42:21.000Z</time>
      </trkpt>
      <trkpt lat="47.70247" lon="16.14695">
        <ele>379.978948</ele>
        <time>2026-07-07T14:42:22.000Z</time>
      </trkpt>
      <trkpt lat="47.70243" lon="16.14698">
        <ele>379.982038</ele>
        <time>2026-07-07T14:42:23.000Z</time>
      </trkpt>
      <trkpt lat="47.70238" lon="16.14701">
        <ele>379.985164</ele>
        <time>2026-07-07T14:42:24.000Z</time>
      </trkpt>
      <trkpt lat="47.70234" lon="16.14705">
        <ele>379.988223</ele>
        <time>2026-07-07T14:42:25.000Z</time>
      </trkpt>
      <trkpt lat="47.70229" lon="16.14709">
        <ele>379.991356</ele>
        <time>2026-07-07T14:42:26.000Z</time>
      </trkpt>
      <trkpt lat="47.70225" lon="16.14713">
        <ele>379.994563</ele>
        <time>2026-07-07T14:42:27.000Z</time>
      </trkpt>
      <trkpt lat="47.70221" lon="16.14717">
        <ele>379.997538</ele>
        <time>2026-07-07T14:42:28.000Z</time>
      </trkpt>
      <trkpt lat="47.70216" lon="16.14721">
        <ele>380.000757</ele>
        <time>2026-07-07T14:42:29.000Z</time>
      </trkpt>
      <trkpt lat="47.70212" lon="16.14725">
        <ele>380.003985</ele>
        <time>2026-07-07T14:42:30.000Z</time>
      </trkpt>
      <trkpt lat="47.70207" lon="16.14728">
        <ele>380.007186</ele>
        <time>2026-07-07T14:42:31.000Z</time>
      </trkpt>
      <trkpt lat="47.70202" lon="16.14732">
        <ele>380.010569</ele>
        <time>2026-07-07T14:42:32.000Z</time>
      </trkpt>
      <trkpt lat="47.70198" lon="16.14735">
        <ele>380.013714</ele>
        <time>2026-07-07T14:42:33.000Z</time>
      </trkpt>
      <trkpt lat="47.70193" lon="16.14739">
        <ele>380.01688</ele>
        <time>2026-07-07T14:42:34.000Z</time>
      </trkpt>
      <trkpt lat="47.70189" lon="16.14743">
        <ele>380.020007</ele>
        <time>2026-07-07T14:42:35.000Z</time>
      </trkpt>
      <trkpt lat="47.70184" lon="16.14746">
        <ele>380.023281</ele>
        <time>2026-07-07T14:42:36.000Z</time>
      </trkpt>
      <trkpt lat="47.70179" lon="16.1475">
        <ele>380.026517</ele>
        <time>2026-07-07T14:42:37.000Z</time>
      </trkpt>
      <trkpt lat="47.70175" lon="16.14753">
        <ele>380.029773</ele>
        <time>2026-07-07T14:42:38.000Z</time>
      </trkpt>
      <trkpt lat="47.7017" lon="16.14757">
        <ele>380.033064</ele>
        <time>2026-07-07T14:42:39.000Z</time>
      </trkpt>
      <trkpt lat="47.70165" lon="16.1476">
        <ele>380.036358</ele>
        <time>2026-07-07T14:42:40.000Z</time>
      </trkpt>
      <trkpt lat="47.70161" lon="16.14765">
        <ele>380.039675</ele>
        <time>2026-07-07T14:42:41.000Z</time>
      </trkpt>
      <trkpt lat="47.70156" lon="16.14769">
        <ele>380.043014</ele>
        <time>2026-07-07T14:42:42.000Z</time>
      </trkpt>
      <trkpt lat="47.70152" lon="16.14774">
        <ele>380.046353</ele>
        <time>2026-07-07T14:42:43.000Z</time>
      </trkpt>
      <trkpt lat="47.70148" lon="16.14779">
        <ele>380.05055</ele>
        <time>2026-07-07T14:42:44.000Z</time>
      </trkpt>
      <trkpt lat="47.70144" lon="16.14785">
        <ele>380.057162</ele>
        <time>2026-07-07T14:42:45.000Z</time>
      </trkpt>
      <trkpt lat="47.70141" lon="16.14792">
        <ele>380.064015</ele>
        <time>2026-07-07T14:42:46.000Z</time>
      </trkpt>
      <trkpt lat="47.70138" lon="16.14798">
        <ele>380.070589</ele>
        <time>2026-07-07T14:42:47.000Z</time>
      </trkpt>
      <trkpt lat="47.70136" lon="16.14805">
        <ele>380.077165</ele>
        <time>2026-07-07T14:42:48.000Z</time>
      </trkpt>
      <trkpt lat="47.70133" lon="16.14811">
        <ele>380.083739</ele>
        <time>2026-07-07T14:42:49.000Z</time>
      </trkpt>
      <trkpt lat="47.7013" lon="16.14818">
        <ele>380.090245</ele>
        <time>2026-07-07T14:42:50.000Z</time>
      </trkpt>
      <trkpt lat="47.70127" lon="16.14824">
        <ele>380.09675</ele>
        <time>2026-07-07T14:42:51.000Z</time>
      </trkpt>
      <trkpt lat="47.70124" lon="16.14831">
        <ele>380.103061</ele>
        <time>2026-07-07T14:42:52.000Z</time>
      </trkpt>
      <trkpt lat="47.70122" lon="16.14837">
        <ele>380.109009</ele>
        <time>2026-07-07T14:42:53.000Z</time>
      </trkpt>
      <trkpt lat="47.70119" lon="16.14842">
        <ele>380.114899</ele>
        <time>2026-07-07T14:42:54.000Z</time>
      </trkpt>
      <trkpt lat="47.70116" lon="16.14847">
        <ele>380.120545</ele>
        <time>2026-07-07T14:42:55.000Z</time>
      </trkpt>
      <trkpt lat="47.70113" lon="16.14852">
        <ele>380.125973</ele>
        <time>2026-07-07T14:42:56.000Z</time>
      </trkpt>
      <trkpt lat="47.70109" lon="16.14856">
        <ele>380.131676</ele>
        <time>2026-07-07T14:42:57.000Z</time>
      </trkpt>
      <trkpt lat="47.70106" lon="16.14861">
        <ele>380.137406</ele>
        <time>2026-07-07T14:42:58.000Z</time>
      </trkpt>
      <trkpt lat="47.70103" lon="16.14866">
        <ele>380.143578</ele>
        <time>2026-07-07T14:42:59.000Z</time>
      </trkpt>
      <trkpt lat="47.70099" lon="16.14872">
        <ele>380.149778</ele>
        <time>2026-07-07T14:43:00.000Z</time>
      </trkpt>
      <trkpt lat="47.70096" lon="16.14877">
        <ele>380.156037</ele>
        <time>2026-07-07T14:43:01.000Z</time>
      </trkpt>
      <trkpt lat="47.70092" lon="16.14882">
        <ele>380.162325</ele>
        <time>2026-07-07T14:43:02.000Z</time>
      </trkpt>
      <trkpt lat="47.70089" lon="16.14887">
        <ele>380.168524</ele>
        <time>2026-07-07T14:43:03.000Z</time>
      </trkpt>
      <trkpt lat="47.70085" lon="16.14892">
        <ele>380.174845</ele>
        <time>2026-07-07T14:43:04.000Z</time>
      </trkpt>
      <trkpt lat="47.70081" lon="16.14897">
        <ele>380.181392</ele>
        <time>2026-07-07T14:43:05.000Z</time>
      </trkpt>
      <trkpt lat="47.70077" lon="16.14902">
        <ele>380.187885</ele>
        <time>2026-07-07T14:43:06.000Z</time>
      </trkpt>
      <trkpt lat="47.70073" lon="16.14907">
        <ele>380.194325</ele>
        <time>2026-07-07T14:43:07.000Z</time>
      </trkpt>
      <trkpt lat="47.70069" lon="16.14912">
        <ele>380.200765</ele>
        <time>2026-07-07T14:43:08.000Z</time>
      </trkpt>
      <trkpt lat="47.70065" lon="16.14917">
        <ele>380.207451</ele>
        <time>2026-07-07T14:43:09.000Z</time>
      </trkpt>
      <trkpt lat="47.7006" lon="16.14921">
        <ele>380.213912</ele>
        <time>2026-07-07T14:43:10.000Z</time>
      </trkpt>
      <trkpt lat="47.70056" lon="16.14924">
        <ele>380.220353</ele>
        <time>2026-07-07T14:43:11.000Z</time>
      </trkpt>
      <trkpt lat="47.70051" lon="16.14927">
        <ele>380.226531</ele>
        <time>2026-07-07T14:43:12.000Z</time>
      </trkpt>
      <trkpt lat="47.70047" lon="16.1493">
        <ele>380.232411</ele>
        <time>2026-07-07T14:43:13.000Z</time>
      </trkpt>
      <trkpt lat="47.70043" lon="16.14932">
        <ele>380.238107</ele>
        <time>2026-07-07T14:43:14.000Z</time>
      </trkpt>
      <trkpt lat="47.70038" lon="16.14934">
        <ele>380.243726</ele>
        <time>2026-07-07T14:43:15.000Z</time>
      </trkpt>
      <trkpt lat="47.70034" lon="16.14934">
        <ele>380.248878</ele>
        <time>2026-07-07T14:43:16.000Z</time>
      </trkpt>
      <trkpt lat="47.7003" lon="16.14934">
        <ele>380.253766</ele>
        <time>2026-07-07T14:43:17.000Z</time>
      </trkpt>
      <trkpt lat="47.70027" lon="16.14934">
        <ele>380.258313</ele>
        <time>2026-07-07T14:43:18.000Z</time>
      </trkpt>
      <trkpt lat="47.70023" lon="16.14932">
        <ele>380.262894</ele>
        <time>2026-07-07T14:43:19.000Z</time>
      </trkpt>
      <trkpt lat="47.70021" lon="16.14927">
        <ele>380.267304</ele>
        <time>2026-07-07T14:43:20.000Z</time>
      </trkpt>
      <trkpt lat="47.7002" lon="16.14922">
        <ele>380.272406</ele>
        <time>2026-07-07T14:43:21.000Z</time>
      </trkpt>
      <trkpt lat="47.70017" lon="16.14916">
        <ele>380.336453</ele>
        <time>2026-07-07T14:43:22.000Z</time>
      </trkpt>
      <trkpt lat="47.70015" lon="16.1491">
        <ele>380.429341</ele>
        <time>2026-07-07T14:43:23.000Z</time>
      </trkpt>
      <trkpt lat="47.70012" lon="16.14905">
        <ele>380.520167</ele>
        <time>2026-07-07T14:43:24.000Z</time>
      </trkpt>
      <trkpt lat="47.70009" lon="16.14899">
        <ele>380.613839</ele>
        <time>2026-07-07T14:43:25.000Z</time>
      </trkpt>
      <trkpt lat="47.70005" lon="16.14894">
        <ele>380.705013</ele>
        <time>2026-07-07T14:43:26.000Z</time>
      </trkpt>
      <trkpt lat="47.70002" lon="16.14889">
        <ele>380.798936</ele>
        <time>2026-07-07T14:43:27.000Z</time>
      </trkpt>
      <trkpt lat="47.69998" lon="16.14885">
        <ele>380.892262</ele>
        <time>2026-07-07T14:43:28.000Z</time>
      </trkpt>
      <trkpt lat="47.69994" lon="16.1488">
        <ele>380.983938</ele>
        <time>2026-07-07T14:43:29.000Z</time>
      </trkpt>
      <trkpt lat="47.69991" lon="16.14876">
        <ele>381.074025</ele>
        <time>2026-07-07T14:43:30.000Z</time>
      </trkpt>
      <trkpt lat="47.69987" lon="16.14873">
        <ele>381.162632</ele>
        <time>2026-07-07T14:43:31.000Z</time>
      </trkpt>
      <trkpt lat="47.69983" lon="16.14869">
        <ele>381.250769</ele>
        <time>2026-07-07T14:43:32.000Z</time>
      </trkpt>
      <trkpt lat="47.69979" lon="16.14866">
        <ele>381.337257</ele>
        <time>2026-07-07T14:43:33.000Z</time>
      </trkpt>
      <trkpt lat="47.69975" lon="16.14862">
        <ele>381.422106</ele>
        <time>2026-07-07T14:43:34.000Z</time>
      </trkpt>
      <trkpt lat="47.69972" lon="16.14859">
        <ele>381.50533</ele>
        <time>2026-07-07T14:43:35.000Z</time>
      </trkpt>
      <trkpt lat="47.69968" lon="16.14855">
        <ele>381.586942</ele>
        <time>2026-07-07T14:43:36.000Z</time>
      </trkpt>
      <trkpt lat="47.69965" lon="16.14851">
        <ele>381.667837</ele>
        <time>2026-07-07T14:43:37.000Z</time>
      </trkpt>
      <trkpt lat="47.69962" lon="16.14847">
        <ele>381.747625</ele>
        <time>2026-07-07T14:43:38.000Z</time>
      </trkpt>
      <trkpt lat="47.6996" lon="16.14842">
        <ele>381.825477</ele>
        <time>2026-07-07T14:43:39.000Z</time>
      </trkpt>
      <trkpt lat="47.69958" lon="16.14837">
        <ele>381.901202</ele>
        <time>2026-07-07T14:43:40.000Z</time>
      </trkpt>
      <trkpt lat="47.69956" lon="16.14832">
        <ele>381.979178</ele>
        <time>2026-07-07T14:43:41.000Z</time>
      </trkpt>
      <trkpt lat="47.69954" lon="16.14826">
        <ele>382.056468</ele>
        <time>2026-07-07T14:43:42.000Z</time>
      </trkpt>
      <trkpt lat="47.69952" lon="16.14821">
        <ele>382.132598</ele>
        <time>2026-07-07T14:43:43.000Z</time>
      </trkpt>
      <trkpt lat="47.69951" lon="16.14816">
        <ele>382.20986</ele>
        <time>2026-07-07T14:43:44.000Z</time>
      </trkpt>
      <trkpt lat="47.6995" lon="16.1481">
        <ele>382.291352</ele>
        <time>2026-07-07T14:43:45.000Z</time>
      </trkpt>
      <trkpt lat="47.69949" lon="16.14804">
        <ele>382.371828</ele>
        <time>2026-07-07T14:43:46.000Z</time>
      </trkpt>
      <trkpt lat="47.69948" lon="16.14798">
        <ele>382.452303</ele>
        <time>2026-07-07T14:43:47.000Z</time>
      </trkpt>
      <trkpt lat="47.69947" lon="16.14791">
        <ele>382.535309</ele>
        <time>2026-07-07T14:43:48.000Z</time>
      </trkpt>
      <trkpt lat="47.69946" lon="16.14785">
        <ele>382.615784</ele>
        <time>2026-07-07T14:43:49.000Z</time>
      </trkpt>
      <trkpt lat="47.69945" lon="16.14779">
        <ele>382.696348</ele>
        <time>2026-07-07T14:43:50.000Z</time>
      </trkpt>
      <trkpt lat="47.69944" lon="16.14773">
        <ele>382.774034</ele>
        <time>2026-07-07T14:43:51.000Z</time>
      </trkpt>
      <trkpt lat="47.69944" lon="16.14768">
        <ele>382.850751</ele>
        <time>2026-07-07T14:43:52.000Z</time>
      </trkpt>
      <trkpt lat="47.69943" lon="16.14762">
        <ele>382.927468</ele>
        <time>2026-07-07T14:43:53.000Z</time>
      </trkpt>
      <trkpt lat="47.69942" lon="16.14756">
        <ele>383.006441</ele>
        <time>2026-07-07T14:43:54.000Z</time>
      </trkpt>
      <trkpt lat="47.69942" lon="16.1475">
        <ele>383.083862</ele>
        <time>2026-07-07T14:43:55.000Z</time>
      </trkpt>
      <trkpt lat="47.69942" lon="16.14744">
        <ele>383.159473</ele>
        <time>2026-07-07T14:43:56.000Z</time>
      </trkpt>
      <trkpt lat="47.69942" lon="16.14738">
        <ele>383.233683</ele>
        <time>2026-07-07T14:43:57.000Z</time>
      </trkpt>
      <trkpt lat="47.69941" lon="16.14733">
        <ele>383.309294</ele>
        <time>2026-07-07T14:43:58.000Z</time>
      </trkpt>
      <trkpt lat="47.69941" lon="16.14727">
        <ele>383.388007</ele>
        <time>2026-07-07T14:43:59.000Z</time>
      </trkpt>
      <trkpt lat="47.69941" lon="16.14721">
        <ele>383.463742</ele>
        <time>2026-07-07T14:44:00.000Z</time>
      </trkpt>
      <trkpt lat="47.6994" lon="16.14715">
        <ele>383.542454</ele>
        <time>2026-07-07T14:44:01.000Z</time>
      </trkpt>
      <trkpt lat="47.69939" lon="16.14709">
        <ele>383.620453</ele>
        <time>2026-07-07T14:44:02.000Z</time>
      </trkpt>
      <trkpt lat="47.69939" lon="16.14703">
        <ele>383.694985</ele>
        <time>2026-07-07T14:44:03.000Z</time>
      </trkpt>
      <trkpt lat="47.69938" lon="16.14698">
        <ele>383.772684</ele>
        <time>2026-07-07T14:44:04.000Z</time>
      </trkpt>
      <trkpt lat="47.69936" lon="16.14692">
        <ele>383.860983</ele>
        <time>2026-07-07T14:44:05.000Z</time>
      </trkpt>
      <trkpt lat="47.69934" lon="16.14687">
        <ele>383.944898</ele>
        <time>2026-07-07T14:44:06.000Z</time>
      </trkpt>
      <trkpt lat="47.69932" lon="16.14682">
        <ele>384.028683</ele>
        <time>2026-07-07T14:44:07.000Z</time>
      </trkpt>
      <trkpt lat="47.6993" lon="16.14677">
        <ele>384.118456</ele>
        <time>2026-07-07T14:44:08.000Z</time>
      </trkpt>
      <trkpt lat="47.69927" lon="16.14672">
        <ele>384.208321</ele>
        <time>2026-07-07T14:44:09.000Z</time>
      </trkpt>
      <trkpt lat="47.69925" lon="16.14667">
        <ele>384.296924</ele>
        <time>2026-07-07T14:44:10.000Z</time>
      </trkpt>
      <trkpt lat="47.69922" lon="16.14662">
        <ele>384.38679</ele>
        <time>2026-07-07T14:44:11.000Z</time>
      </trkpt>
      <trkpt lat="47.6992" lon="16.14657">
        <ele>384.477949</ele>
        <time>2026-07-07T14:44:12.000Z</time>
      </trkpt>
      <trkpt lat="47.69917" lon="16.14652">
        <ele>384.570435</ele>
        <time>2026-07-07T14:44:13.000Z</time>
      </trkpt>
      <trkpt lat="47.69915" lon="16.14647">
        <ele>384.661463</ele>
        <time>2026-07-07T14:44:14.000Z</time>
      </trkpt>
      <trkpt lat="47.69912" lon="16.14642">
        <ele>384.751328</ele>
        <time>2026-07-07T14:44:15.000Z</time>
      </trkpt>
      <trkpt lat="47.69909" lon="16.14637">
        <ele>384.846082</ele>
        <time>2026-07-07T14:44:16.000Z</time>
      </trkpt>
      <trkpt lat="47.69907" lon="16.14631">
        <ele>384.940704</ele>
        <time>2026-07-07T14:44:17.000Z</time>
      </trkpt>
      <trkpt lat="47.69904" lon="16.14626">
        <ele>385.037759</ele>
        <time>2026-07-07T14:44:18.000Z</time>
      </trkpt>
      <trkpt lat="47.69902" lon="16.14621">
        <ele>385.131134</ele>
        <time>2026-07-07T14:44:19.000Z</time>
      </trkpt>
      <trkpt lat="47.69899" lon="16.14615">
        <ele>385.229712</ele>
        <time>2026-07-07T14:44:20.000Z</time>
      </trkpt>
      <trkpt lat="47.69898" lon="16.14608">
        <ele>385.328456</ele>
        <time>2026-07-07T14:44:21.000Z</time>
      </trkpt>
      <trkpt lat="47.69896" lon="16.14602">
        <ele>385.429056</ele>
        <time>2026-07-07T14:44:22.000Z</time>
      </trkpt>
      <trkpt lat="47.69895" lon="16.14595">
        <ele>385.530271</ele>
        <time>2026-07-07T14:44:23.000Z</time>
      </trkpt>
      <trkpt lat="47.69894" lon="16.14588">
        <ele>385.628369</ele>
        <time>2026-07-07T14:44:24.000Z</time>
      </trkpt>
      <trkpt lat="47.69893" lon="16.14582">
        <ele>385.726939</ele>
        <time>2026-07-07T14:44:25.000Z</time>
      </trkpt>
      <trkpt lat="47.69892" lon="16.14575">
        <ele>385.822272</ele>
        <time>2026-07-07T14:44:26.000Z</time>
      </trkpt>
      <trkpt lat="47.69891" lon="16.14569">
        <ele>385.90769</ele>
        <time>2026-07-07T14:44:27.000Z</time>
      </trkpt>
      <trkpt lat="47.6989" lon="16.14564">
        <ele>385.98097</ele>
        <time>2026-07-07T14:44:28.000Z</time>
      </trkpt>
      <trkpt lat="47.6989" lon="16.1456">
        <ele>386.04812</ele>
        <time>2026-07-07T14:44:29.000Z</time>
      </trkpt>
      <trkpt lat="47.69888" lon="16.14555">
        <ele>386.125453</ele>
        <time>2026-07-07T14:44:30.000Z</time>
      </trkpt>
      <trkpt lat="47.69886" lon="16.1455">
        <ele>386.212089</ele>
        <time>2026-07-07T14:44:31.000Z</time>
      </trkpt>
      <trkpt lat="47.69884" lon="16.14544">
        <ele>386.307973</ele>
        <time>2026-07-07T14:44:32.000Z</time>
      </trkpt>
      <trkpt lat="47.69881" lon="16.14538">
        <ele>386.410112</ele>
        <time>2026-07-07T14:44:33.000Z</time>
      </trkpt>
      <trkpt lat="47.69878" lon="16.14533">
        <ele>386.512251</ele>
        <time>2026-07-07T14:44:34.000Z</time>
      </trkpt>
      <trkpt lat="47.69875" lon="16.14527">
        <ele>386.611637</ele>
        <time>2026-07-07T14:44:35.000Z</time>
      </trkpt>
      <trkpt lat="47.69873" lon="16.14522">
        <ele>386.704379</ele>
        <time>2026-07-07T14:44:36.000Z</time>
      </trkpt>
      <trkpt lat="47.69872" lon="16.14517">
        <ele>386.786187</ele>
        <time>2026-07-07T14:44:37.000Z</time>
      </trkpt>
      <trkpt lat="47.69869" lon="16.14512">
        <ele>386.86771</ele>
        <time>2026-07-07T14:44:38.000Z</time>
      </trkpt>
      <trkpt lat="47.69867" lon="16.14507">
        <ele>386.947936</ele>
        <time>2026-07-07T14:44:39.000Z</time>
      </trkpt>
      <trkpt lat="47.69865" lon="16.14503">
        <ele>387.026946</ele>
        <time>2026-07-07T14:44:40.000Z</time>
      </trkpt>
      <trkpt lat="47.69863" lon="16.14498">
        <ele>387.109626</ele>
        <time>2026-07-07T14:44:41.000Z</time>
      </trkpt>
      <trkpt lat="47.69861" lon="16.14494">
        <ele>387.190221</ele>
        <time>2026-07-07T14:44:42.000Z</time>
      </trkpt>
      <trkpt lat="47.69858" lon="16.1449">
        <ele>387.270451</ele>
        <time>2026-07-07T14:44:43.000Z</time>
      </trkpt>
      <trkpt lat="47.69856" lon="16.14486">
        <ele>387.349189</ele>
        <time>2026-07-07T14:44:44.000Z</time>
      </trkpt>
      <trkpt lat="47.69853" lon="16.14482">
        <ele>387.423819</ele>
        <time>2026-07-07T14:44:45.000Z</time>
      </trkpt>
      <trkpt lat="47.6985" lon="16.14479">
        <ele>387.502557</ele>
        <time>2026-07-07T14:44:46.000Z</time>
      </trkpt>
      <trkpt lat="47.69848" lon="16.14475">
        <ele>387.578199</ele>
        <time>2026-07-07T14:44:47.000Z</time>
      </trkpt>
      <trkpt lat="47.69846" lon="16.14471">
        <ele>387.633371</ele>
        <time>2026-07-07T14:44:48.000Z</time>
      </trkpt>
      <trkpt lat="47.69843" lon="16.14468">
        <ele>387.676768</ele>
        <time>2026-07-07T14:44:49.000Z</time>
      </trkpt>
      <trkpt lat="47.69841" lon="16.14464">
        <ele>387.721347</ele>
        <time>2026-07-07T14:44:50.000Z</time>
      </trkpt>
      <trkpt lat="47.69838" lon="16.14461">
        <ele>387.767228</ele>
        <time>2026-07-07T14:44:51.000Z</time>
      </trkpt>
      <trkpt lat="47.69835" lon="16.14457">
        <ele>387.813644</ele>
        <time>2026-07-07T14:44:52.000Z</time>
      </trkpt>
      <trkpt lat="47.69833" lon="16.14453">
        <ele>387.860687</ele>
        <time>2026-07-07T14:44:53.000Z</time>
      </trkpt>
      <trkpt lat="47.6983" lon="16.14449">
        <ele>387.907731</ele>
        <time>2026-07-07T14:44:54.000Z</time>
      </trkpt>
      <trkpt lat="47.69828" lon="16.14445">
        <ele>387.952655</ele>
        <time>2026-07-07T14:44:55.000Z</time>
      </trkpt>
      <trkpt lat="47.69825" lon="16.14442">
        <ele>387.996348</ele>
        <time>2026-07-07T14:44:56.000Z</time>
      </trkpt>
      <trkpt lat="47.69823" lon="16.14439">
        <ele>388.040331</ele>
        <time>2026-07-07T14:44:57.000Z</time>
      </trkpt>
      <trkpt lat="47.6982" lon="16.14435">
        <ele>388.083738</ele>
        <time>2026-07-07T14:44:58.000Z</time>
      </trkpt>
      <trkpt lat="47.69818" lon="16.14432">
        <ele>388.126558</ele>
        <time>2026-07-07T14:44:59.000Z</time>
      </trkpt>
      <trkpt lat="47.69815" lon="16.14428">
        <ele>388.174399</ele>
        <time>2026-07-07T14:45:00.000Z</time>
      </trkpt>
      <trkpt lat="47.69812" lon="16.14425">
        <ele>388.22324</ele>
        <time>2026-07-07T14:45:01.000Z</time>
      </trkpt>
      <trkpt lat="47.69809" lon="16.14421">
        <ele>388.273095</ele>
        <time>2026-07-07T14:45:02.000Z</time>
      </trkpt>
      <trkpt lat="47.69805" lon="16.14418">
        <ele>388.327117</ele>
        <time>2026-07-07T14:45:03.000Z</time>
      </trkpt>
      <trkpt lat="47.69802" lon="16.14414">
        <ele>388.382119</ele>
        <time>2026-07-07T14:45:04.000Z</time>
      </trkpt>
      <trkpt lat="47.69798" lon="16.14411">
        <ele>388.439588</ele>
        <time>2026-07-07T14:45:05.000Z</time>
      </trkpt>
      <trkpt lat="47.69794" lon="16.14407">
        <ele>388.499029</ele>
        <time>2026-07-07T14:45:06.000Z</time>
      </trkpt>
      <trkpt lat="47.69789" lon="16.14404">
        <ele>388.563673</ele>
        <time>2026-07-07T14:45:07.000Z</time>
      </trkpt>
      <trkpt lat="47.69785" lon="16.14401">
        <ele>388.626829</ele>
        <time>2026-07-07T14:45:08.000Z</time>
      </trkpt>
      <trkpt lat="47.69781" lon="16.14398">
        <ele>388.684608</ele>
        <time>2026-07-07T14:45:09.000Z</time>
      </trkpt>
      <trkpt lat="47.69777" lon="16.14395">
        <ele>388.743206</ele>
        <time>2026-07-07T14:45:10.000Z</time>
      </trkpt>
      <trkpt lat="47.69773" lon="16.14392">
        <ele>388.798307</ele>
        <time>2026-07-07T14:45:11.000Z</time>
      </trkpt>
      <trkpt lat="47.69769" lon="16.14389">
        <ele>388.849386</ele>
        <time>2026-07-07T14:45:12.000Z</time>
      </trkpt>
      <trkpt lat="47.69766" lon="16.14386">
        <ele>388.898228</ele>
        <time>2026-07-07T14:45:13.000Z</time>
      </trkpt>
      <trkpt lat="47.69764" lon="16.14382">
        <ele>388.947407</ele>
        <time>2026-07-07T14:45:14.000Z</time>
      </trkpt>
      <trkpt lat="47.69761" lon="16.14377">
        <ele>388.99825</ele>
        <time>2026-07-07T14:45:15.000Z</time>
      </trkpt>
      <trkpt lat="47.69759" lon="16.14372">
        <ele>389.050557</ele>
        <time>2026-07-07T14:45:16.000Z</time>
      </trkpt>
      <trkpt lat="47.69757" lon="16.14367">
        <ele>389.104183</ele>
        <time>2026-07-07T14:45:17.000Z</time>
      </trkpt>
      <trkpt lat="47.69754" lon="16.14362">
        <ele>389.156388</ele>
        <time>2026-07-07T14:45:18.000Z</time>
      </trkpt>
      <trkpt lat="47.69752" lon="16.14357">
        <ele>389.208651</ele>
        <time>2026-07-07T14:45:19.000Z</time>
      </trkpt>
      <trkpt lat="47.6975" lon="16.14351">
        <ele>389.26299</ele>
        <time>2026-07-07T14:45:20.000Z</time>
      </trkpt>
      <trkpt lat="47.69747" lon="16.14346">
        <ele>389.316671</ele>
        <time>2026-07-07T14:45:21.000Z</time>
      </trkpt>
      <trkpt lat="47.69745" lon="16.14341">
        <ele>389.371124</ele>
        <time>2026-07-07T14:45:22.000Z</time>
      </trkpt>
      <trkpt lat="47.69742" lon="16.14337">
        <ele>389.423431</ele>
        <time>2026-07-07T14:45:23.000Z</time>
      </trkpt>
      <trkpt lat="47.6974" lon="16.14331">
        <ele>389.478505</ele>
        <time>2026-07-07T14:45:24.000Z</time>
      </trkpt>
      <trkpt lat="47.69737" lon="16.14327">
        <ele>389.533091</ele>
        <time>2026-07-07T14:45:25.000Z</time>
      </trkpt>
      <trkpt lat="47.69734" lon="16.14322">
        <ele>389.58741</ele>
        <time>2026-07-07T14:45:26.000Z</time>
      </trkpt>
      <trkpt lat="47.69731" lon="16.14317">
        <ele>389.641864</ele>
        <time>2026-07-07T14:45:27.000Z</time>
      </trkpt>
      <trkpt lat="47.69729" lon="16.14312">
        <ele>389.69711</ele>
        <time>2026-07-07T14:45:28.000Z</time>
      </trkpt>
      <trkpt lat="47.69726" lon="16.14307">
        <ele>389.752183</ele>
        <time>2026-07-07T14:45:29.000Z</time>
      </trkpt>
      <trkpt lat="47.69723" lon="16.14302">
        <ele>389.806096</ele>
        <time>2026-07-07T14:45:30.000Z</time>
      </trkpt>
      <trkpt lat="47.69721" lon="16.14297">
        <ele>389.85987</ele>
        <time>2026-07-07T14:45:31.000Z</time>
      </trkpt>
      <trkpt lat="47.69718" lon="16.14293">
        <ele>389.911878</ele>
        <time>2026-07-07T14:45:32.000Z</time>
      </trkpt>
      <trkpt lat="47.69716" lon="16.14288">
        <ele>389.9051</ele>
        <time>2026-07-07T14:45:33.000Z</time>
      </trkpt>
      <trkpt lat="47.69713" lon="16.14283">
        <ele>389.898128</ele>
        <time>2026-07-07T14:45:34.000Z</time>
      </trkpt>
      <trkpt lat="47.69711" lon="16.14277">
        <ele>389.891254</ele>
        <time>2026-07-07T14:45:35.000Z</time>
      </trkpt>
      <trkpt lat="47.69709" lon="16.14273">
        <ele>389.884637</ele>
        <time>2026-07-07T14:45:36.000Z</time>
      </trkpt>
      <trkpt lat="47.69706" lon="16.14268">
        <ele>389.877932</ele>
        <time>2026-07-07T14:45:37.000Z</time>
      </trkpt>
      <trkpt lat="47.69704" lon="16.14263">
        <ele>389.871227</ele>
        <time>2026-07-07T14:45:38.000Z</time>
      </trkpt>
      <trkpt lat="47.69701" lon="16.14259">
        <ele>389.86448</ele>
        <time>2026-07-07T14:45:39.000Z</time>
      </trkpt>
      <trkpt lat="47.69698" lon="16.14255">
        <ele>389.857783</ele>
        <time>2026-07-07T14:45:40.000Z</time>
      </trkpt>
      <trkpt lat="47.69695" lon="16.1425">
        <ele>389.850533</ele>
        <time>2026-07-07T14:45:41.000Z</time>
      </trkpt>
      <trkpt lat="47.69692" lon="16.14246">
        <ele>389.843234</ele>
        <time>2026-07-07T14:45:42.000Z</time>
      </trkpt>
      <trkpt lat="47.69688" lon="16.14241">
        <ele>389.835881</ele>
        <time>2026-07-07T14:45:43.000Z</time>
      </trkpt>
      <trkpt lat="47.69685" lon="16.14238">
        <ele>389.828538</ele>
        <time>2026-07-07T14:45:44.000Z</time>
      </trkpt>
      <trkpt lat="47.69681" lon="16.14234">
        <ele>389.821395</ele>
        <time>2026-07-07T14:45:45.000Z</time>
      </trkpt>
      <trkpt lat="47.69677" lon="16.1423">
        <ele>389.81376</ele>
        <time>2026-07-07T14:45:46.000Z</time>
      </trkpt>
      <trkpt lat="47.69674" lon="16.14227">
        <ele>389.806616</ele>
        <time>2026-07-07T14:45:47.000Z</time>
      </trkpt>
      <trkpt lat="47.6967" lon="16.14223">
        <ele>389.799297</ele>
        <time>2026-07-07T14:45:48.000Z</time>
      </trkpt>
      <trkpt lat="47.69666" lon="16.14221">
        <ele>389.791991</ele>
        <time>2026-07-07T14:45:49.000Z</time>
      </trkpt>
      <trkpt lat="47.69662" lon="16.14218">
        <ele>389.784381</ele>
        <time>2026-07-07T14:45:50.000Z</time>
      </trkpt>
      <trkpt lat="47.69658" lon="16.14215">
        <ele>389.776879</ele>
        <time>2026-07-07T14:45:51.000Z</time>
      </trkpt>
      <trkpt lat="47.69654" lon="16.14211">
        <ele>389.769199</ele>
        <time>2026-07-07T14:45:52.000Z</time>
      </trkpt>
      <trkpt lat="47.6965" lon="16.14207">
        <ele>389.76118</ele>
        <time>2026-07-07T14:45:53.000Z</time>
      </trkpt>
      <trkpt lat="47.69646" lon="16.14203">
        <ele>389.752884</ele>
        <time>2026-07-07T14:45:54.000Z</time>
      </trkpt>
      <trkpt lat="47.69641" lon="16.14199">
        <ele>389.744385</ele>
        <time>2026-07-07T14:45:55.000Z</time>
      </trkpt>
      <trkpt lat="47.69637" lon="16.14195">
        <ele>389.736008</ele>
        <time>2026-07-07T14:45:56.000Z</time>
      </trkpt>
      <trkpt lat="47.69633" lon="16.14192">
        <ele>389.727561</ele>
        <time>2026-07-07T14:45:57.000Z</time>
      </trkpt>
      <trkpt lat="47.69628" lon="16.14189">
        <ele>389.719216</ele>
        <time>2026-07-07T14:45:58.000Z</time>
      </trkpt>
      <trkpt lat="47.69624" lon="16.14185">
        <ele>389.711063</ele>
        <time>2026-07-07T14:45:59.000Z</time>
      </trkpt>
      <trkpt lat="47.69619" lon="16.14182">
        <ele>389.702763</ele>
        <time>2026-07-07T14:46:00.000Z</time>
      </trkpt>
      <trkpt lat="47.69615" lon="16.14178">
        <ele>389.6945</ele>
        <time>2026-07-07T14:46:01.000Z</time>
      </trkpt>
      <trkpt lat="47.69611" lon="16.14174">
        <ele>389.686204</ele>
        <time>2026-07-07T14:46:02.000Z</time>
      </trkpt>
      <trkpt lat="47.69607" lon="16.1417">
        <ele>389.678284</ele>
        <time>2026-07-07T14:46:03.000Z</time>
      </trkpt>
      <trkpt lat="47.69603" lon="16.14167">
        <ele>389.670449</ele>
        <time>2026-07-07T14:46:04.000Z</time>
      </trkpt>
      <trkpt lat="47.69598" lon="16.14163">
        <ele>389.661986</ele>
        <time>2026-07-07T14:46:05.000Z</time>
      </trkpt>
      <trkpt lat="47.69594" lon="16.14159">
        <ele>389.653608</ele>
        <time>2026-07-07T14:46:06.000Z</time>
      </trkpt>
      <trkpt lat="47.6959" lon="16.14155">
        <ele>389.6454</ele>
        <time>2026-07-07T14:46:07.000Z</time>
      </trkpt>
      <trkpt lat="47.69585" lon="16.14151">
        <ele>389.636737</ele>
        <time>2026-07-07T14:46:08.000Z</time>
      </trkpt>
      <trkpt lat="47.69581" lon="16.14148">
        <ele>389.627994</ele>
        <time>2026-07-07T14:46:09.000Z</time>
      </trkpt>
      <trkpt lat="47.69576" lon="16.14144">
        <ele>389.619548</ele>
        <time>2026-07-07T14:46:10.000Z</time>
      </trkpt>
      <trkpt lat="47.69572" lon="16.14141">
        <ele>389.609114</ele>
        <time>2026-07-07T14:46:11.000Z</time>
      </trkpt>
      <trkpt lat="47.69567" lon="16.14137">
        <ele>389.590655</ele>
        <time>2026-07-07T14:46:12.000Z</time>
      </trkpt>
      <trkpt lat="47.69562" lon="16.14133">
        <ele>389.572784</ele>
        <time>2026-07-07T14:46:13.000Z</time>
      </trkpt>
      <trkpt lat="47.69558" lon="16.14129">
        <ele>389.555494</ele>
        <time>2026-07-07T14:46:14.000Z</time>
      </trkpt>
      <trkpt lat="47.69554" lon="16.14125">
        <ele>389.537505</ele>
        <time>2026-07-07T14:46:15.000Z</time>
      </trkpt>
      <trkpt lat="47.69549" lon="16.14121">
        <ele>389.519394</ele>
        <time>2026-07-07T14:46:16.000Z</time>
      </trkpt>
      <trkpt lat="47.69545" lon="16.14117">
        <ele>389.502104</ele>
        <time>2026-07-07T14:46:17.000Z</time>
      </trkpt>
      <trkpt lat="47.6954" lon="16.14112">
        <ele>389.4839</ele>
        <time>2026-07-07T14:46:18.000Z</time>
      </trkpt>
      <trkpt lat="47.69536" lon="16.14108">
        <ele>389.467208</ele>
        <time>2026-07-07T14:46:19.000Z</time>
      </trkpt>
      <trkpt lat="47.69533" lon="16.14103">
        <ele>389.450647</ele>
        <time>2026-07-07T14:46:20.000Z</time>
      </trkpt>
      <trkpt lat="47.69529" lon="16.14099">
        <ele>389.435169</ele>
        <time>2026-07-07T14:46:21.000Z</time>
      </trkpt>
      <trkpt lat="47.69526" lon="16.14095">
        <ele>389.419395</ele>
        <time>2026-07-07T14:46:22.000Z</time>
      </trkpt>
      <trkpt lat="47.69522" lon="16.1409">
        <ele>389.403816</ele>
        <time>2026-07-07T14:46:23.000Z</time>
      </trkpt>
      <trkpt lat="47.69519" lon="16.14085">
        <ele>389.388642</ele>
        <time>2026-07-07T14:46:24.000Z</time>
      </trkpt>
      <trkpt lat="47.69516" lon="16.1408">
        <ele>389.373448</ele>
        <time>2026-07-07T14:46:25.000Z</time>
      </trkpt>
      <trkpt lat="47.69513" lon="16.14076">
        <ele>389.358274</ele>
        <time>2026-07-07T14:46:26.000Z</time>
      </trkpt>
      <trkpt lat="47.6951" lon="16.14072">
        <ele>389.343976</ele>
        <time>2026-07-07T14:46:27.000Z</time>
      </trkpt>
      <trkpt lat="47.69507" lon="16.14068">
        <ele>389.329724</ele>
        <time>2026-07-07T14:46:28.000Z</time>
      </trkpt>
      <trkpt lat="47.69503" lon="16.14063">
        <ele>389.314389</ele>
        <time>2026-07-07T14:46:29.000Z</time>
      </trkpt>
      <trkpt lat="47.695" lon="16.14059">
        <ele>389.299936</ele>
        <time>2026-07-07T14:46:30.000Z</time>
      </trkpt>
      <trkpt lat="47.69497" lon="16.14054">
        <ele>389.283858</ele>
        <time>2026-07-07T14:46:31.000Z</time>
      </trkpt>
      <trkpt lat="47.69493" lon="16.14049">
        <ele>389.268084</ele>
        <time>2026-07-07T14:46:32.000Z</time>
      </trkpt>
      <trkpt lat="47.69489" lon="16.14045">
        <ele>389.251533</ele>
        <time>2026-07-07T14:46:33.000Z</time>
      </trkpt>
      <trkpt lat="47.69486" lon="16.14041">
        <ele>389.235254</ele>
        <time>2026-07-07T14:46:34.000Z</time>
      </trkpt>
      <trkpt lat="47.69482" lon="16.14036">
        <ele>389.218707</ele>
        <time>2026-07-07T14:46:35.000Z</time>
      </trkpt>
      <trkpt lat="47.69479" lon="16.1403">
        <ele>389.201511</ele>
        <time>2026-07-07T14:46:36.000Z</time>
      </trkpt>
      <trkpt lat="47.69475" lon="16.14025">
        <ele>389.18495</ele>
        <time>2026-07-07T14:46:37.000Z</time>
      </trkpt>
      <trkpt lat="47.69472" lon="16.14021">
        <ele>389.169432</ele>
        <time>2026-07-07T14:46:38.000Z</time>
      </trkpt>
      <trkpt lat="47.69469" lon="16.14016">
        <ele>389.154473</ele>
        <time>2026-07-07T14:46:39.000Z</time>
      </trkpt>
      <trkpt lat="47.69466" lon="16.14012">
        <ele>389.140107</ele>
        <time>2026-07-07T14:46:40.000Z</time>
      </trkpt>
      <trkpt lat="47.69463" lon="16.14008">
        <ele>389.127487</ele>
        <time>2026-07-07T14:46:41.000Z</time>
      </trkpt>
      <trkpt lat="47.6946" lon="16.14005">
        <ele>389.11446</ele>
        <time>2026-07-07T14:46:42.000Z</time>
      </trkpt>
      <trkpt lat="47.69458" lon="16.14002">
        <ele>389.10643</ele>
        <time>2026-07-07T14:46:43.000Z</time>
      </trkpt>
      <trkpt lat="47.69457" lon="16.13999">
        <ele>389.098575</ele>
        <time>2026-07-07T14:46:44.000Z</time>
      </trkpt>
      <trkpt lat="47.69456" lon="16.13998">
        <ele>389.095337</ele>
        <time>2026-07-07T14:46:45.000Z</time>
      </trkpt>
      <trkpt lat="47.69456" lon="16.13998">
        <ele>389.094217</ele>
        <time>2026-07-07T14:46:46.000Z</time>
      </trkpt>
      <trkpt lat="47.69457" lon="16.13998">
        <ele>389.092452</ele>
        <time>2026-07-07T14:46:47.000Z</time>
      </trkpt>
      <trkpt lat="47.69451" lon="16.13986">
        <ele>389.058196</ele>
        <time>2026-07-07T14:48:56.000Z</time>
      </trkpt>
      <trkpt lat="47.6945" lon="16.13984">
        <ele>389.054322</ele>
        <time>2026-07-07T14:48:57.000Z</time>
      </trkpt>
      <trkpt lat="47.69449" lon="16.13983">
        <ele>389.049261</ele>
        <time>2026-07-07T14:48:58.000Z</time>
      </trkpt>
      <trkpt lat="47.69448" lon="16.13982">
        <ele>389.044778</ele>
        <time>2026-07-07T14:48:59.000Z</time>
      </trkpt>
      <trkpt lat="47.69447" lon="16.13981">
        <ele>389.040904</ele>
        <time>2026-07-07T14:49:00.000Z</time>
      </trkpt>
      <trkpt lat="47.69446" lon="16.1398">
        <ele>389.037895</ele>
        <time>2026-07-07T14:49:01.000Z</time>
      </trkpt>
      <trkpt lat="47.69446" lon="16.1398">
        <ele>389.037323</ele>
        <time>2026-07-07T14:49:02.000Z</time>
      </trkpt>
      <trkpt lat="47.69446" lon="16.1398">
        <ele>389.036501</ele>
        <time>2026-07-07T14:49:03.000Z</time>
      </trkpt>
      <trkpt lat="47.69442" lon="16.13976">
        <ele>389.019977</ele>
        <time>2026-07-07T14:49:52.000Z</time>
      </trkpt>
      <trkpt lat="47.69441" lon="16.13976">
        <ele>389.0171</ele>
        <time>2026-07-07T14:49:53.000Z</time>
      </trkpt>
      <trkpt lat="47.69441" lon="16.13976">
        <ele>389.016381</ele>
        <time>2026-07-07T14:49:54.000Z</time>
      </trkpt>
      <trkpt lat="47.69441" lon="16.13976">
        <ele>389.015922</ele>
        <time>2026-07-07T14:49:55.000Z</time>
      </trkpt>
      <trkpt lat="47.69433" lon="16.13969">
        <ele>389.005821</ele>
        <time>2026-07-07T14:50:17.000Z</time>
      </trkpt>
      <trkpt lat="47.69431" lon="16.13967">
        <ele>389.010144</ele>
        <time>2026-07-07T14:50:18.000Z</time>
      </trkpt>
      <trkpt lat="47.69428" lon="16.13964">
        <ele>389.015159</ele>
        <time>2026-07-07T14:50:19.000Z</time>
      </trkpt>
      <trkpt lat="47.69425" lon="16.13961">
        <ele>389.020363</ele>
        <time>2026-07-07T14:50:20.000Z</time>
      </trkpt>
      <trkpt lat="47.69421" lon="16.13958">
        <ele>389.02641</ele>
        <time>2026-07-07T14:50:21.000Z</time>
      </trkpt>
      <trkpt lat="47.69417" lon="16.13955">
        <ele>389.032973</ele>
        <time>2026-07-07T14:50:22.000Z</time>
      </trkpt>
      <trkpt lat="47.69413" lon="16.13951">
        <ele>389.039732</ele>
        <time>2026-07-07T14:50:23.000Z</time>
      </trkpt>
      <trkpt lat="47.69409" lon="16.13948">
        <ele>389.046503</ele>
        <time>2026-07-07T14:50:24.000Z</time>
      </trkpt>
      <trkpt lat="47.69405" lon="16.13945">
        <ele>389.053059</ele>
        <time>2026-07-07T14:50:25.000Z</time>
      </trkpt>
      <trkpt lat="47.69401" lon="16.13942">
        <ele>389.059875</ele>
        <time>2026-07-07T14:50:26.000Z</time>
      </trkpt>
      <trkpt lat="47.69397" lon="16.13938">
        <ele>389.066634</ele>
        <time>2026-07-07T14:50:27.000Z</time>
      </trkpt>
      <trkpt lat="47.69393" lon="16.13934">
        <ele>389.073445</ele>
        <time>2026-07-07T14:50:28.000Z</time>
      </trkpt>
      <trkpt lat="47.69389" lon="16.1393">
        <ele>389.080256</ele>
        <time>2026-07-07T14:50:29.000Z</time>
      </trkpt>
      <trkpt lat="47.69384" lon="16.13927">
        <ele>389.08726</ele>
        <time>2026-07-07T14:50:30.000Z</time>
      </trkpt>
      <trkpt lat="47.6938" lon="16.13922">
        <ele>389.094642</ele>
        <time>2026-07-07T14:50:31.000Z</time>
      </trkpt>
      <trkpt lat="47.69376" lon="16.13918">
        <ele>389.102127</ele>
        <time>2026-07-07T14:50:32.000Z</time>
      </trkpt>
      <trkpt lat="47.69372" lon="16.13913">
        <ele>389.109325</ele>
        <time>2026-07-07T14:50:33.000Z</time>
      </trkpt>
      <trkpt lat="47.69368" lon="16.13909">
        <ele>389.116351</ele>
        <time>2026-07-07T14:50:34.000Z</time>
      </trkpt>
      <trkpt lat="47.69364" lon="16.13905">
        <ele>389.123387</ele>
        <time>2026-07-07T14:50:35.000Z</time>
      </trkpt>
      <trkpt lat="47.69359" lon="16.13901">
        <ele>389.130688</ele>
        <time>2026-07-07T14:50:36.000Z</time>
      </trkpt>
      <trkpt lat="47.69355" lon="16.13898">
        <ele>389.137721</ele>
        <time>2026-07-07T14:50:37.000Z</time>
      </trkpt>
      <trkpt lat="47.69351" lon="16.13894">
        <ele>389.144709</ele>
        <time>2026-07-07T14:50:38.000Z</time>
      </trkpt>
      <trkpt lat="47.69346" lon="16.13891">
        <ele>389.151908</ele>
        <time>2026-07-07T14:50:39.000Z</time>
      </trkpt>
      <trkpt lat="47.69342" lon="16.13888">
        <ele>389.158978</ele>
        <time>2026-07-07T14:50:40.000Z</time>
      </trkpt>
      <trkpt lat="47.69338" lon="16.13884">
        <ele>389.166012</ele>
        <time>2026-07-07T14:50:41.000Z</time>
      </trkpt>
      <trkpt lat="47.69333" lon="16.13881">
        <ele>389.172873</ele>
        <time>2026-07-07T14:50:42.000Z</time>
      </trkpt>
      <trkpt lat="47.69329" lon="16.13877">
        <ele>389.179909</ele>
        <time>2026-07-07T14:50:43.000Z</time>
      </trkpt>
      <trkpt lat="47.69325" lon="16.13873">
        <ele>389.186826</ele>
        <time>2026-07-07T14:50:44.000Z</time>
      </trkpt>
      <trkpt lat="47.69321" lon="16.13869">
        <ele>389.19388</ele>
        <time>2026-07-07T14:50:45.000Z</time>
      </trkpt>
      <trkpt lat="47.69317" lon="16.13866">
        <ele>389.200539</ele>
        <time>2026-07-07T14:50:46.000Z</time>
      </trkpt>
      <trkpt lat="47.69313" lon="16.13862">
        <ele>389.207103</ele>
        <time>2026-07-07T14:50:47.000Z</time>
      </trkpt>
      <trkpt lat="47.69309" lon="16.13859">
        <ele>389.213874</ele>
        <time>2026-07-07T14:50:48.000Z</time>
      </trkpt>
      <trkpt lat="47.69305" lon="16.13856">
        <ele>389.220688</ele>
        <time>2026-07-07T14:50:49.000Z</time>
      </trkpt>
      <trkpt lat="47.693" lon="16.13853">
        <ele>389.227764</ele>
        <time>2026-07-07T14:50:50.000Z</time>
      </trkpt>
      <trkpt lat="47.69295" lon="16.1385">
        <ele>389.235612</ele>
        <time>2026-07-07T14:50:51.000Z</time>
      </trkpt>
      <trkpt lat="47.6929" lon="16.13847">
        <ele>389.243082</ele>
        <time>2026-07-07T14:50:52.000Z</time>
      </trkpt>
      <trkpt lat="47.69285" lon="16.13843">
        <ele>389.250967</ele>
        <time>2026-07-07T14:50:53.000Z</time>
      </trkpt>
      <trkpt lat="47.69281" lon="16.13839">
        <ele>389.259696</ele>
        <time>2026-07-07T14:50:54.000Z</time>
      </trkpt>
      <trkpt lat="47.69276" lon="16.13836">
        <ele>389.294762</ele>
        <time>2026-07-07T14:50:55.000Z</time>
      </trkpt>
      <trkpt lat="47.69272" lon="16.13832">
        <ele>389.329226</ele>
        <time>2026-07-07T14:50:56.000Z</time>
      </trkpt>
      <trkpt lat="47.69267" lon="16.13829">
        <ele>389.363689</ele>
        <time>2026-07-07T14:50:57.000Z</time>
      </trkpt>
      <trkpt lat="47.69263" lon="16.13825">
        <ele>389.397553</ele>
        <time>2026-07-07T14:50:58.000Z</time>
      </trkpt>
      <trkpt lat="47.69259" lon="16.13822">
        <ele>389.431269</ele>
        <time>2026-07-07T14:50:59.000Z</time>
      </trkpt>
      <trkpt lat="47.69254" lon="16.13818">
        <ele>389.463505</ele>
        <time>2026-07-07T14:51:00.000Z</time>
      </trkpt>
      <trkpt lat="47.6925" lon="16.13815">
        <ele>389.496054</ele>
        <time>2026-07-07T14:51:01.000Z</time>
      </trkpt>
      <trkpt lat="47.69246" lon="16.13811">
        <ele>389.528291</ele>
        <time>2026-07-07T14:51:02.000Z</time>
      </trkpt>
      <trkpt lat="47.69242" lon="16.13808">
        <ele>389.560317</ele>
        <time>2026-07-07T14:51:03.000Z</time>
      </trkpt>
      <trkpt lat="47.69238" lon="16.13805">
        <ele>389.591955</ele>
        <time>2026-07-07T14:51:04.000Z</time>
      </trkpt>
      <trkpt lat="47.69233" lon="16.13801">
        <ele>389.625606</ele>
        <time>2026-07-07T14:51:05.000Z</time>
      </trkpt>
      <trkpt lat="47.69229" lon="16.13798">
        <ele>389.659655</ele>
        <time>2026-07-07T14:51:06.000Z</time>
      </trkpt>
      <trkpt lat="47.69225" lon="16.13795">
        <ele>389.691739</ele>
        <time>2026-07-07T14:51:07.000Z</time>
      </trkpt>
      <trkpt lat="47.69221" lon="16.13791">
        <ele>389.724869</ele>
        <time>2026-07-07T14:51:08.000Z</time>
      </trkpt>
      <trkpt lat="47.69217" lon="16.13787">
        <ele>389.757084</ele>
        <time>2026-07-07T14:51:09.000Z</time>
      </trkpt>
      <trkpt lat="47.69213" lon="16.13783">
        <ele>389.787899</ele>
        <time>2026-07-07T14:51:10.000Z</time>
      </trkpt>
      <trkpt lat="47.6921" lon="16.13779">
        <ele>389.817861</ele>
        <time>2026-07-07T14:51:11.000Z</time>
      </trkpt>
      <trkpt lat="47.69206" lon="16.13775">
        <ele>389.848196</ele>
        <time>2026-07-07T14:51:12.000Z</time>
      </trkpt>
      <trkpt lat="47.69202" lon="16.13773">
        <ele>389.878006</ele>
        <time>2026-07-07T14:51:13.000Z</time>
      </trkpt>
      <trkpt lat="47.69198" lon="16.1377">
        <ele>389.909057</ele>
        <time>2026-07-07T14:51:14.000Z</time>
      </trkpt>
      <trkpt lat="47.69193" lon="16.13768">
        <ele>389.939026</ele>
        <time>2026-07-07T14:51:15.000Z</time>
      </trkpt>
      <trkpt lat="47.69189" lon="16.13767">
        <ele>389.969991</ele>
        <time>2026-07-07T14:51:16.000Z</time>
      </trkpt>
      <trkpt lat="47.69185" lon="16.13764">
        <ele>390.001665</ele>
        <time>2026-07-07T14:51:17.000Z</time>
      </trkpt>
      <trkpt lat="47.6918" lon="16.13761">
        <ele>390.033485</ele>
        <time>2026-07-07T14:51:18.000Z</time>
      </trkpt>
      <trkpt lat="47.69176" lon="16.13757">
        <ele>390.066034</ele>
        <time>2026-07-07T14:51:19.000Z</time>
      </trkpt>
      <trkpt lat="47.69172" lon="16.13753">
        <ele>390.098004</ele>
        <time>2026-07-07T14:51:21.000Z</time>
      </trkpt>
      <trkpt lat="47.69168" lon="16.13749">
        <ele>390.13072</ele>
        <time>2026-07-07T14:51:22.000Z</time>
      </trkpt>
      <trkpt lat="47.69164" lon="16.13746">
        <ele>390.16362</ele>
        <time>2026-07-07T14:51:23.000Z</time>
      </trkpt>
      <trkpt lat="47.6916" lon="16.13742">
        <ele>390.194888</ele>
        <time>2026-07-07T14:51:24.000Z</time>
      </trkpt>
      <trkpt lat="47.69156" lon="16.13739">
        <ele>390.224085</ele>
        <time>2026-07-07T14:51:25.000Z</time>
      </trkpt>
      <trkpt lat="47.69153" lon="16.13736">
        <ele>390.252907</ele>
        <time>2026-07-07T14:51:26.000Z</time>
      </trkpt>
      <trkpt lat="47.69149" lon="16.13733">
        <ele>390.282425</ele>
        <time>2026-07-07T14:51:27.000Z</time>
      </trkpt>
      <trkpt lat="47.69145" lon="16.13729">
        <ele>390.312761</ele>
        <time>2026-07-07T14:51:28.000Z</time>
      </trkpt>
      <trkpt lat="47.69141" lon="16.13726">
        <ele>390.342042</ele>
        <time>2026-07-07T14:51:29.000Z</time>
      </trkpt>
      <trkpt lat="47.69137" lon="16.13723">
        <ele>390.372445</ele>
        <time>2026-07-07T14:51:30.000Z</time>
      </trkpt>
      <trkpt lat="47.69134" lon="16.1372">
        <ele>390.401642</ele>
        <time>2026-07-07T14:51:31.000Z</time>
      </trkpt>
      <trkpt lat="47.6913" lon="16.13717">
        <ele>390.432044</ele>
        <time>2026-07-07T14:51:32.000Z</time>
      </trkpt>
      <trkpt lat="47.69126" lon="16.13714">
        <ele>390.462046</ele>
        <time>2026-07-07T14:51:33.000Z</time>
      </trkpt>
      <trkpt lat="47.69121" lon="16.13712">
        <ele>390.495346</ele>
        <time>2026-07-07T14:51:34.000Z</time>
      </trkpt>
      <trkpt lat="47.69117" lon="16.1371">
        <ele>390.530521</ele>
        <time>2026-07-07T14:51:35.000Z</time>
      </trkpt>
      <trkpt lat="47.69113" lon="16.13708">
        <ele>390.566294</ele>
        <time>2026-07-07T14:51:36.000Z</time>
      </trkpt>
      <trkpt lat="47.69109" lon="16.13706">
        <ele>390.602385</ele>
        <time>2026-07-07T14:51:37.000Z</time>
      </trkpt>
      <trkpt lat="47.69104" lon="16.13704">
        <ele>390.639705</ele>
        <time>2026-07-07T14:51:38.000Z</time>
      </trkpt>
      <trkpt lat="47.691" lon="16.13702">
        <ele>390.67594</ele>
        <time>2026-07-07T14:51:39.000Z</time>
      </trkpt>
      <trkpt lat="47.69096" lon="16.137">
        <ele>390.713884</ele>
        <time>2026-07-07T14:51:40.000Z</time>
      </trkpt>
      <trkpt lat="47.69091" lon="16.13698">
        <ele>390.75043</ele>
        <time>2026-07-07T14:51:41.000Z</time>
      </trkpt>
      <trkpt lat="47.69087" lon="16.13697">
        <ele>390.784029</ele>
        <time>2026-07-07T14:51:42.000Z</time>
      </trkpt>
      <trkpt lat="47.69083" lon="16.13695">
        <ele>390.817774</ele>
        <time>2026-07-07T14:51:43.000Z</time>
      </trkpt>
      <trkpt lat="47.6908" lon="16.13694">
        <ele>390.848491</ele>
        <time>2026-07-07T14:51:44.000Z</time>
      </trkpt>
      <trkpt lat="47.69076" lon="16.13693">
        <ele>390.877399</ele>
        <time>2026-07-07T14:51:45.000Z</time>
      </trkpt>
      <trkpt lat="47.69072" lon="16.13692">
        <ele>390.907902</ele>
        <time>2026-07-07T14:51:46.000Z</time>
      </trkpt>
      <trkpt lat="47.69069" lon="16.13691">
        <ele>390.937712</ele>
        <time>2026-07-07T14:51:47.000Z</time>
      </trkpt>
      <trkpt lat="47.69065" lon="16.1369">
        <ele>390.970016</ele>
        <time>2026-07-07T14:51:48.000Z</time>
      </trkpt>
      <trkpt lat="47.69061" lon="16.13688">
        <ele>391.003114</ele>
        <time>2026-07-07T14:51:49.000Z</time>
      </trkpt>
      <trkpt lat="47.69057" lon="16.13687">
        <ele>391.037118</ele>
        <time>2026-07-07T14:51:50.000Z</time>
      </trkpt>
      <trkpt lat="47.69052" lon="16.13685">
        <ele>391.075542</ele>
        <time>2026-07-07T14:51:51.000Z</time>
      </trkpt>
      <trkpt lat="47.69048" lon="16.13682">
        <ele>391.11622</ele>
        <time>2026-07-07T14:51:52.000Z</time>
      </trkpt>
      <trkpt lat="47.69043" lon="16.1368">
        <ele>391.15785</ele>
        <time>2026-07-07T14:51:53.000Z</time>
      </trkpt>
      <trkpt lat="47.69038" lon="16.13677">
        <ele>391.200836</ele>
        <time>2026-07-07T14:51:54.000Z</time>
      </trkpt>
      <trkpt lat="47.69033" lon="16.13674">
        <ele>391.245326</ele>
        <time>2026-07-07T14:51:55.000Z</time>
      </trkpt>
      <trkpt lat="47.69027" lon="16.1367">
        <ele>391.29248</ele>
        <time>2026-07-07T14:51:56.000Z</time>
      </trkpt>
      <trkpt lat="47.69022" lon="16.13667">
        <ele>391.339091</ele>
        <time>2026-07-07T14:51:57.000Z</time>
      </trkpt>
      <trkpt lat="47.69017" lon="16.13664">
        <ele>391.385493</ele>
        <time>2026-07-07T14:51:58.000Z</time>
      </trkpt>
      <trkpt lat="47.69011" lon="16.13661">
        <ele>391.432254</ele>
        <time>2026-07-07T14:51:59.000Z</time>
      </trkpt>
      <trkpt lat="47.69006" lon="16.13658">
        <ele>391.476744</ele>
        <time>2026-07-07T14:52:00.000Z</time>
      </trkpt>
      <trkpt lat="47.69001" lon="16.13655">
        <ele>391.521989</ele>
        <time>2026-07-07T14:52:01.000Z</time>
      </trkpt>
      <trkpt lat="47.68996" lon="16.13651">
        <ele>391.568293</ele>
        <time>2026-07-07T14:52:02.000Z</time>
      </trkpt>
      <trkpt lat="47.68991" lon="16.13648">
        <ele>391.611662</ele>
        <time>2026-07-07T14:52:03.000Z</time>
      </trkpt>
      <trkpt lat="47.68986" lon="16.13645">
        <ele>391.652734</ele>
        <time>2026-07-07T14:52:04.000Z</time>
      </trkpt>
      <trkpt lat="47.68982" lon="16.13643">
        <ele>391.68828</ele>
        <time>2026-07-07T14:52:05.000Z</time>
      </trkpt>
      <trkpt lat="47.68978" lon="16.1364">
        <ele>391.723179</ele>
        <time>2026-07-07T14:52:06.000Z</time>
      </trkpt>
      <trkpt lat="47.68975" lon="16.13638">
        <ele>391.754678</ele>
        <time>2026-07-07T14:52:07.000Z</time>
      </trkpt>
      <trkpt lat="47.68971" lon="16.13635">
        <ele>391.786177</ele>
        <time>2026-07-07T14:52:08.000Z</time>
      </trkpt>
      <trkpt lat="47.68968" lon="16.13633">
        <ele>391.818875</ele>
        <time>2026-07-07T14:52:09.000Z</time>
      </trkpt>
      <trkpt lat="47.68964" lon="16.13631">
        <ele>391.852774</ele>
        <time>2026-07-07T14:52:10.000Z</time>
      </trkpt>
      <trkpt lat="47.68959" lon="16.13629">
        <ele>391.888896</ele>
        <time>2026-07-07T14:52:11.000Z</time>
      </trkpt>
      <trkpt lat="47.68955" lon="16.13627">
        <ele>391.923572</ele>
        <time>2026-07-07T14:52:12.000Z</time>
      </trkpt>
      <trkpt lat="47.68951" lon="16.13625">
        <ele>391.953655</ele>
        <time>2026-07-07T14:52:13.000Z</time>
      </trkpt>
      <trkpt lat="47.68946" lon="16.13623">
        <ele>391.981887</ele>
        <time>2026-07-07T14:52:14.000Z</time>
      </trkpt>
      <trkpt lat="47.68941" lon="16.13621">
        <ele>392.01153</ele>
        <time>2026-07-07T14:52:15.000Z</time>
      </trkpt>
      <trkpt lat="47.68936" lon="16.13618">
        <ele>392.042726</ele>
        <time>2026-07-07T14:52:16.000Z</time>
      </trkpt>
      <trkpt lat="47.68931" lon="16.13615">
        <ele>392.07379</ele>
        <time>2026-07-07T14:52:17.000Z</time>
      </trkpt>
      <trkpt lat="47.68926" lon="16.13612">
        <ele>392.105381</ele>
        <time>2026-07-07T14:52:18.000Z</time>
      </trkpt>
      <trkpt lat="47.68921" lon="16.13609">
        <ele>392.13592</ele>
        <time>2026-07-07T14:52:19.000Z</time>
      </trkpt>
      <trkpt lat="47.68916" lon="16.13606">
        <ele>392.166459</ele>
        <time>2026-07-07T14:52:20.000Z</time>
      </trkpt>
      <trkpt lat="47.68911" lon="16.13603">
        <ele>392.196997</ele>
        <time>2026-07-07T14:52:21.000Z</time>
      </trkpt>
      <trkpt lat="47.68906" lon="16.13601">
        <ele>392.226201</ele>
        <time>2026-07-07T14:52:22.000Z</time>
      </trkpt>
      <trkpt lat="47.68901" lon="16.13598">
        <ele>392.257525</ele>
        <time>2026-07-07T14:52:23.000Z</time>
      </trkpt>
      <trkpt lat="47.68895" lon="16.13595">
        <ele>392.288477</ele>
        <time>2026-07-07T14:52:24.000Z</time>
      </trkpt>
      <trkpt lat="47.6889" lon="16.13592">
        <ele>392.318875</ele>
        <time>2026-07-07T14:52:25.000Z</time>
      </trkpt>
      <trkpt lat="47.68885" lon="16.13589">
        <ele>392.349414</ele>
        <time>2026-07-07T14:52:26.000Z</time>
      </trkpt>
      <trkpt lat="47.6888" lon="16.13586">
        <ele>392.379952</ele>
        <time>2026-07-07T14:52:27.000Z</time>
      </trkpt>
      <trkpt lat="47.68875" lon="16.13583">
        <ele>392.410636</ele>
        <time>2026-07-07T14:52:28.000Z</time>
      </trkpt>
      <trkpt lat="47.6887" lon="16.1358">
        <ele>392.441938</ele>
        <time>2026-07-07T14:52:29.000Z</time>
      </trkpt>
      <trkpt lat="47.68866" lon="16.13576">
        <ele>392.471563</ele>
        <time>2026-07-07T14:52:30.000Z</time>
      </trkpt>
      <trkpt lat="47.68861" lon="16.13572">
        <ele>392.501867</ele>
        <time>2026-07-07T14:52:31.000Z</time>
      </trkpt>
      <trkpt lat="47.68857" lon="16.13568">
        <ele>392.533019</ele>
        <time>2026-07-07T14:52:32.000Z</time>
      </trkpt>
      <trkpt lat="47.68853" lon="16.13562">
        <ele>392.563122</ele>
        <time>2026-07-07T14:52:33.000Z</time>
      </trkpt>
      <trkpt lat="47.68849" lon="16.13558">
        <ele>392.59137</ele>
        <time>2026-07-07T14:52:34.000Z</time>
      </trkpt>
      <trkpt lat="47.68845" lon="16.13553">
        <ele>392.619786</ele>
        <time>2026-07-07T14:52:35.000Z</time>
      </trkpt>
      <trkpt lat="47.68841" lon="16.13548">
        <ele>392.648226</ele>
        <time>2026-07-07T14:52:36.000Z</time>
      </trkpt>
      <trkpt lat="47.68837" lon="16.13545">
        <ele>392.67375</ele>
        <time>2026-07-07T14:52:37.000Z</time>
      </trkpt>
      <trkpt lat="47.68833" lon="16.13541">
        <ele>392.698873</ele>
        <time>2026-07-07T14:52:38.000Z</time>
      </trkpt>
      <trkpt lat="47.68829" lon="16.13538">
        <ele>392.724249</ele>
        <time>2026-07-07T14:52:39.000Z</time>
      </trkpt>
      <trkpt lat="47.68825" lon="16.13536">
        <ele>392.75032</ele>
        <time>2026-07-07T14:52:40.000Z</time>
      </trkpt>
      <trkpt lat="47.68821" lon="16.13533">
        <ele>392.77647</ele>
        <time>2026-07-07T14:52:41.000Z</time>
      </trkpt>
      <trkpt lat="47.68817" lon="16.13531">
        <ele>392.800761</ele>
        <time>2026-07-07T14:52:42.000Z</time>
      </trkpt>
      <trkpt lat="47.68813" lon="16.13528">
        <ele>392.825337</ele>
        <time>2026-07-07T14:52:43.000Z</time>
      </trkpt>
      <trkpt lat="47.68809" lon="16.13526">
        <ele>392.849913</ele>
        <time>2026-07-07T14:52:44.000Z</time>
      </trkpt>
      <trkpt lat="47.68805" lon="16.13524">
        <ele>392.873279</ele>
        <time>2026-07-07T14:52:45.000Z</time>
      </trkpt>
      <trkpt lat="47.68801" lon="16.13522">
        <ele>392.896643</ele>
        <time>2026-07-07T14:52:46.000Z</time>
      </trkpt>
      <trkpt lat="47.68797" lon="16.13521">
        <ele>392.919753</ele>
        <time>2026-07-07T14:52:47.000Z</time>
      </trkpt>
      <trkpt lat="47.68793" lon="16.1352">
        <ele>392.943171</ele>
        <time>2026-07-07T14:52:48.000Z</time>
      </trkpt>
      <trkpt lat="47.68788" lon="16.1352">
        <ele>392.952843</ele>
        <time>2026-07-07T14:52:49.000Z</time>
      </trkpt>
      <trkpt lat="47.68783" lon="16.13519">
        <ele>392.946701</ele>
        <time>2026-07-07T14:52:50.000Z</time>
      </trkpt>
      <trkpt lat="47.68778" lon="16.13519">
        <ele>392.939947</ele>
        <time>2026-07-07T14:52:51.000Z</time>
      </trkpt>
      <trkpt lat="47.68772" lon="16.13518">
        <ele>392.932807</ele>
        <time>2026-07-07T14:52:52.000Z</time>
      </trkpt>
      <trkpt lat="47.68766" lon="16.13517">
        <ele>392.925537</ele>
        <time>2026-07-07T14:52:53.000Z</time>
      </trkpt>
      <trkpt lat="47.6876" lon="16.13516">
        <ele>392.918398</ele>
        <time>2026-07-07T14:52:54.000Z</time>
      </trkpt>
      <trkpt lat="47.68754" lon="16.13515">
        <ele>392.91138</ele>
        <time>2026-07-07T14:52:55.000Z</time>
      </trkpt>
      <trkpt lat="47.68749" lon="16.13515">
        <ele>392.904492</ele>
        <time>2026-07-07T14:52:56.000Z</time>
      </trkpt>
      <trkpt lat="47.68743" lon="16.13514">
        <ele>392.897726</ele>
        <time>2026-07-07T14:52:57.000Z</time>
      </trkpt>
      <trkpt lat="47.68738" lon="16.13514">
        <ele>392.891347</ele>
        <time>2026-07-07T14:52:58.000Z</time>
      </trkpt>
      <trkpt lat="47.68733" lon="16.13514">
        <ele>392.884851</ele>
        <time>2026-07-07T14:52:59.000Z</time>
      </trkpt>
      <trkpt lat="47.68727" lon="16.13514">
        <ele>392.878097</ele>
        <time>2026-07-07T14:53:00.000Z</time>
      </trkpt>
      <trkpt lat="47.68722" lon="16.13515">
        <ele>392.871343</ele>
        <time>2026-07-07T14:53:01.000Z</time>
      </trkpt>
      <trkpt lat="47.68716" lon="16.13515">
        <ele>392.864356</ele>
        <time>2026-07-07T14:53:02.000Z</time>
      </trkpt>
      <trkpt lat="47.6871" lon="16.13514">
        <ele>392.857245</ele>
        <time>2026-07-07T14:53:03.000Z</time>
      </trkpt>
      <trkpt lat="47.68705" lon="16.13514">
        <ele>392.850255</ele>
        <time>2026-07-07T14:53:04.000Z</time>
      </trkpt>
      <trkpt lat="47.68699" lon="16.13514">
        <ele>392.843256</ele>
        <time>2026-07-07T14:53:05.000Z</time>
      </trkpt>
      <trkpt lat="47.68694" lon="16.13513">
        <ele>392.836747</ele>
        <time>2026-07-07T14:53:06.000Z</time>
      </trkpt>
      <trkpt lat="47.68688" lon="16.13513">
        <ele>392.83025</ele>
        <time>2026-07-07T14:53:07.000Z</time>
      </trkpt>
      <trkpt lat="47.68683" lon="16.13513">
        <ele>392.823509</ele>
        <time>2026-07-07T14:53:08.000Z</time>
      </trkpt>
      <trkpt lat="47.68677" lon="16.13513">
        <ele>392.816768</ele>
        <time>2026-07-07T14:53:09.000Z</time>
      </trkpt>
      <trkpt lat="47.68672" lon="16.13513">
        <ele>392.810147</ele>
        <time>2026-07-07T14:53:10.000Z</time>
      </trkpt>
      <trkpt lat="47.68667" lon="16.13513">
        <ele>392.80365</ele>
        <time>2026-07-07T14:53:11.000Z</time>
      </trkpt>
      <trkpt lat="47.68661" lon="16.13513">
        <ele>392.797153</ele>
        <time>2026-07-07T14:53:12.000Z</time>
      </trkpt>
      <trkpt lat="47.68656" lon="16.13513">
        <ele>392.790522</ele>
        <time>2026-07-07T14:53:13.000Z</time>
      </trkpt>
      <trkpt lat="47.68651" lon="16.13512">
        <ele>392.783983</ele>
        <time>2026-07-07T14:53:14.000Z</time>
      </trkpt>
      <trkpt lat="47.68645" lon="16.13511">
        <ele>392.777453</ele>
        <time>2026-07-07T14:53:15.000Z</time>
      </trkpt>
      <trkpt lat="47.6864" lon="16.1351">
        <ele>392.770662</ele>
        <time>2026-07-07T14:53:16.000Z</time>
      </trkpt>
      <trkpt lat="47.68634" lon="16.13509">
        <ele>392.763888</ele>
        <time>2026-07-07T14:53:17.000Z</time>
      </trkpt>
      <trkpt lat="47.68629" lon="16.13508">
        <ele>392.757096</ele>
        <time>2026-07-07T14:53:18.000Z</time>
      </trkpt>
      <trkpt lat="47.68623" lon="16.13507">
        <ele>392.750314</ele>
        <time>2026-07-07T14:53:19.000Z</time>
      </trkpt>
      <trkpt lat="47.68618" lon="16.13507">
        <ele>392.74331</ele>
        <time>2026-07-07T14:53:20.000Z</time>
      </trkpt>
      <trkpt lat="47.68612" lon="16.13506">
        <ele>392.736544</ele>
        <time>2026-07-07T14:53:21.000Z</time>
      </trkpt>
      <trkpt lat="47.68607" lon="16.13506">
        <ele>392.744059</ele>
        <time>2026-07-07T14:53:22.000Z</time>
      </trkpt>
      <trkpt lat="47.68601" lon="16.13505">
        <ele>392.754783</ele>
        <time>2026-07-07T14:53:23.000Z</time>
      </trkpt>
      <trkpt lat="47.68595" lon="16.13505">
        <ele>392.765126</ele>
        <time>2026-07-07T14:53:24.000Z</time>
      </trkpt>
      <trkpt lat="47.6859" lon="16.13505">
        <ele>392.77547</ele>
        <time>2026-07-07T14:53:25.000Z</time>
      </trkpt>
      <trkpt lat="47.68584" lon="16.13505">
        <ele>392.785811</ele>
        <time>2026-07-07T14:53:26.000Z</time>
      </trkpt>
      <trkpt lat="47.68579" lon="16.13505">
        <ele>392.796158</ele>
        <time>2026-07-07T14:53:27.000Z</time>
      </trkpt>
      <trkpt lat="47.68574" lon="16.13504">
        <ele>392.806143</ele>
        <time>2026-07-07T14:53:28.000Z</time>
      </trkpt>
      <trkpt lat="47.68568" lon="16.13503">
        <ele>392.816147</ele>
        <time>2026-07-07T14:53:29.000Z</time>
      </trkpt>
      <trkpt lat="47.68563" lon="16.13503">
        <ele>392.826307</ele>
        <time>2026-07-07T14:53:30.000Z</time>
      </trkpt>
      <trkpt lat="47.68558" lon="16.13503">
        <ele>392.835895</ele>
        <time>2026-07-07T14:53:31.000Z</time>
      </trkpt>
      <trkpt lat="47.68552" lon="16.13503">
        <ele>392.846236</ele>
        <time>2026-07-07T14:53:32.000Z</time>
      </trkpt>
      <trkpt lat="47.68547" lon="16.13503">
        <ele>392.856596</ele>
        <time>2026-07-07T14:53:33.000Z</time>
      </trkpt>
      <trkpt lat="47.68541" lon="16.13502">
        <ele>392.866756</ele>
        <time>2026-07-07T14:53:34.000Z</time>
      </trkpt>
      <trkpt lat="47.68536" lon="16.13502">
        <ele>392.877109</ele>
        <time>2026-07-07T14:53:35.000Z</time>
      </trkpt>
      <trkpt lat="47.6853" lon="16.13502">
        <ele>392.88745</ele>
        <time>2026-07-07T14:53:36.000Z</time>
      </trkpt>
      <trkpt lat="47.68525" lon="16.13501">
        <ele>392.897829</ele>
        <time>2026-07-07T14:53:37.000Z</time>
      </trkpt>
      <trkpt lat="47.6852" lon="16.135">
        <ele>392.907909</ele>
        <time>2026-07-07T14:53:38.000Z</time>
      </trkpt>
      <trkpt lat="47.68514" lon="16.13498">
        <ele>392.918077</ele>
        <time>2026-07-07T14:53:39.000Z</time>
      </trkpt>
      <trkpt lat="47.68509" lon="16.13497">
        <ele>392.928455</ele>
        <time>2026-07-07T14:53:40.000Z</time>
      </trkpt>
      <trkpt lat="47.68504" lon="16.13495">
        <ele>392.938311</ele>
        <time>2026-07-07T14:53:41.000Z</time>
      </trkpt>
      <trkpt lat="47.68499" lon="16.13493">
        <ele>392.947832</ele>
        <time>2026-07-07T14:53:42.000Z</time>
      </trkpt>
      <trkpt lat="47.68494" lon="16.13491">
        <ele>392.956594</ele>
        <time>2026-07-07T14:53:43.000Z</time>
      </trkpt>
      <trkpt lat="47.6849" lon="16.13489">
        <ele>392.965501</ele>
        <time>2026-07-07T14:53:44.000Z</time>
      </trkpt>
      <trkpt lat="47.68486" lon="16.13487">
        <ele>392.973806</ele>
        <time>2026-07-07T14:53:45.000Z</time>
      </trkpt>
      <trkpt lat="47.68481" lon="16.13486">
        <ele>392.982009</ele>
        <time>2026-07-07T14:53:46.000Z</time>
      </trkpt>
      <trkpt lat="47.68477" lon="16.13485">
        <ele>392.990605</ele>
        <time>2026-07-07T14:53:47.000Z</time>
      </trkpt>
      <trkpt lat="47.68472" lon="16.13484">
        <ele>392.999276</ele>
        <time>2026-07-07T14:53:48.000Z</time>
      </trkpt>
      <trkpt lat="47.68467" lon="16.13482">
        <ele>393.008766</ele>
        <time>2026-07-07T14:53:49.000Z</time>
      </trkpt>
      <trkpt lat="47.68462" lon="16.1348">
        <ele>393.01857</ele>
        <time>2026-07-07T14:53:50.000Z</time>
      </trkpt>
      <trkpt lat="47.68457" lon="16.13477">
        <ele>393.02875</ele>
        <time>2026-07-07T14:53:51.000Z</time>
      </trkpt>
      <trkpt lat="47.68452" lon="16.13474">
        <ele>393.039149</ele>
        <time>2026-07-07T14:53:52.000Z</time>
      </trkpt>
      <trkpt lat="47.68447" lon="16.13471">
        <ele>393.049202</ele>
        <time>2026-07-07T14:53:53.000Z</time>
      </trkpt>
      <trkpt lat="47.68443" lon="16.13467">
        <ele>393.059263</ele>
        <time>2026-07-07T14:53:54.000Z</time>
      </trkpt>
      <trkpt lat="47.68438" lon="16.13463">
        <ele>393.069385</ele>
        <time>2026-07-07T14:53:55.000Z</time>
      </trkpt>
      <trkpt lat="47.68433" lon="16.13459">
        <ele>393.097114</ele>
        <time>2026-07-07T14:53:56.000Z</time>
      </trkpt>
      <trkpt lat="47.68429" lon="16.13456">
        <ele>393.137233</ele>
        <time>2026-07-07T14:53:57.000Z</time>
      </trkpt>
      <trkpt lat="47.68425" lon="16.13452">
        <ele>393.177089</ele>
        <time>2026-07-07T14:53:58.000Z</time>
      </trkpt>
      <trkpt lat="47.6842" lon="16.13449">
        <ele>393.218151</ele>
        <time>2026-07-07T14:53:59.000Z</time>
      </trkpt>
      <trkpt lat="47.68416" lon="16.13446">
        <ele>393.25786</ele>
        <time>2026-07-07T14:54:00.000Z</time>
      </trkpt>
      <trkpt lat="47.68411" lon="16.13444">
        <ele>393.295508</ele>
        <time>2026-07-07T14:54:01.000Z</time>
      </trkpt>
      <trkpt lat="47.68407" lon="16.13443">
        <ele>393.334041</ele>
        <time>2026-07-07T14:54:02.000Z</time>
      </trkpt>
      <trkpt lat="47.68402" lon="16.13442">
        <ele>393.374374</ele>
        <time>2026-07-07T14:54:03.000Z</time>
      </trkpt>
      <trkpt lat="47.68397" lon="16.13442">
        <ele>393.413663</ele>
        <time>2026-07-07T14:54:04.000Z</time>
      </trkpt>
      <trkpt lat="47.68392" lon="16.13443">
        <ele>393.453125</ele>
        <time>2026-07-07T14:54:05.000Z</time>
      </trkpt>
      <trkpt lat="47.68387" lon="16.13443">
        <ele>393.494128</ele>
        <time>2026-07-07T14:54:06.000Z</time>
      </trkpt>
      <trkpt lat="47.68382" lon="16.13443">
        <ele>393.538324</ele>
        <time>2026-07-07T14:54:07.000Z</time>
      </trkpt>
      <trkpt lat="47.68377" lon="16.13443">
        <ele>393.581776</ele>
        <time>2026-07-07T14:54:08.000Z</time>
      </trkpt>
      <trkpt lat="47.68371" lon="16.13442">
        <ele>393.625489</ele>
        <time>2026-07-07T14:54:09.000Z</time>
      </trkpt>
      <trkpt lat="47.68366" lon="16.1344">
        <ele>393.669727</ele>
        <time>2026-07-07T14:54:10.000Z</time>
      </trkpt>
      <trkpt lat="47.68361" lon="16.13437">
        <ele>393.713448</ele>
        <time>2026-07-07T14:54:11.000Z</time>
      </trkpt>
      <trkpt lat="47.68356" lon="16.13434">
        <ele>393.757993</ele>
        <time>2026-07-07T14:54:12.000Z</time>
      </trkpt>
      <trkpt lat="47.68351" lon="16.13431">
        <ele>393.800601</ele>
        <time>2026-07-07T14:54:13.000Z</time>
      </trkpt>
      <trkpt lat="47.68347" lon="16.13427">
        <ele>393.842904</ele>
        <time>2026-07-07T14:54:14.000Z</time>
      </trkpt>
      <trkpt lat="47.68342" lon="16.13424">
        <ele>393.886171</ele>
        <time>2026-07-07T14:54:15.000Z</time>
      </trkpt>
      <trkpt lat="47.68338" lon="16.13419">
        <ele>393.928893</ele>
        <time>2026-07-07T14:54:16.000Z</time>
      </trkpt>
      <trkpt lat="47.68334" lon="16.13415">
        <ele>393.969707</ele>
        <time>2026-07-07T14:54:17.000Z</time>
      </trkpt>
      <trkpt lat="47.6833" lon="16.1341">
        <ele>394.010634</ele>
        <time>2026-07-07T14:54:18.000Z</time>
      </trkpt>
      <trkpt lat="47.68327" lon="16.13405">
        <ele>394.050366</ele>
        <time>2026-07-07T14:54:19.000Z</time>
      </trkpt>
      <trkpt lat="47.68323" lon="16.13401">
        <ele>394.086498</ele>
        <time>2026-07-07T14:54:20.000Z</time>
      </trkpt>
      <trkpt lat="47.6832" lon="16.13397">
        <ele>394.12102</ele>
        <time>2026-07-07T14:54:21.000Z</time>
      </trkpt>
      <trkpt lat="47.68316" lon="16.13394">
        <ele>394.155509</ele>
        <time>2026-07-07T14:54:22.000Z</time>
      </trkpt>
      <trkpt lat="47.68312" lon="16.13391">
        <ele>394.190122</ele>
        <time>2026-07-07T14:54:23.000Z</time>
      </trkpt>
      <trkpt lat="47.68308" lon="16.13389">
        <ele>394.224255</ele>
        <time>2026-07-07T14:54:24.000Z</time>
      </trkpt>
      <trkpt lat="47.68304" lon="16.13388">
        <ele>394.259866</ele>
        <time>2026-07-07T14:54:25.000Z</time>
      </trkpt>
      <trkpt lat="47.683" lon="16.13387">
        <ele>394.295156</ele>
        <time>2026-07-07T14:54:26.000Z</time>
      </trkpt>
      <trkpt lat="47.68295" lon="16.13387">
        <ele>394.333647</ele>
        <time>2026-07-07T14:54:27.000Z</time>
      </trkpt>
      <trkpt lat="47.6829" lon="16.13386">
        <ele>394.372982</ele>
        <time>2026-07-07T14:54:28.000Z</time>
      </trkpt>
      <trkpt lat="47.68285" lon="16.13386">
        <ele>394.413985</ele>
        <time>2026-07-07T14:54:29.000Z</time>
      </trkpt>
      <trkpt lat="47.6828" lon="16.13385">
        <ele>394.458509</ele>
        <time>2026-07-07T14:54:30.000Z</time>
      </trkpt>
      <trkpt lat="47.68274" lon="16.13383">
        <ele>394.505634</ele>
        <time>2026-07-07T14:54:31.000Z</time>
      </trkpt>
      <trkpt lat="47.68269" lon="16.1338">
        <ele>394.550982</ele>
        <time>2026-07-07T14:54:32.000Z</time>
      </trkpt>
      <trkpt lat="47.68263" lon="16.13378">
        <ele>394.588835</ele>
        <time>2026-07-07T14:54:33.000Z</time>
      </trkpt>
      <trkpt lat="47.68257" lon="16.13375">
        <ele>394.626307</ele>
        <time>2026-07-07T14:54:34.000Z</time>
      </trkpt>
      <trkpt lat="47.68252" lon="16.13372">
        <ele>394.662829</ele>
        <time>2026-07-07T14:54:35.000Z</time>
      </trkpt>
      <trkpt lat="47.68246" lon="16.1337">
        <ele>394.69922</ele>
        <time>2026-07-07T14:54:36.000Z</time>
      </trkpt>
      <trkpt lat="47.68241" lon="16.13367">
        <ele>394.734547</ele>
        <time>2026-07-07T14:54:37.000Z</time>
      </trkpt>
      <trkpt lat="47.68236" lon="16.13364">
        <ele>394.770308</ele>
        <time>2026-07-07T14:54:38.000Z</time>
      </trkpt>
      <trkpt lat="47.68231" lon="16.13361">
        <ele>394.805961</ele>
        <time>2026-07-07T14:54:39.000Z</time>
      </trkpt>
      <trkpt lat="47.68225" lon="16.13357">
        <ele>394.841955</ele>
        <time>2026-07-07T14:54:40.000Z</time>
      </trkpt>
      <trkpt lat="47.68221" lon="16.13354">
        <ele>394.874938</ele>
        <time>2026-07-07T14:54:41.000Z</time>
      </trkpt>
      <trkpt lat="47.68216" lon="16.1335">
        <ele>394.907575</ele>
        <time>2026-07-07T14:54:42.000Z</time>
      </trkpt>
      <trkpt lat="47.68212" lon="16.13345">
        <ele>394.939979</ele>
        <time>2026-07-07T14:54:43.000Z</time>
      </trkpt>
      <trkpt lat="47.68208" lon="16.13342">
        <ele>394.971526</ele>
        <time>2026-07-07T14:54:44.000Z</time>
      </trkpt>
      <trkpt lat="47.68203" lon="16.13338">
        <ele>395.004303</ele>
        <time>2026-07-07T14:54:45.000Z</time>
      </trkpt>
      <trkpt lat="47.68198" lon="16.13335">
        <ele>395.037832</ele>
        <time>2026-07-07T14:54:46.000Z</time>
      </trkpt>
      <trkpt lat="47.68194" lon="16.13332">
        <ele>395.069107</ele>
        <time>2026-07-07T14:54:47.000Z</time>
      </trkpt>
      <trkpt lat="47.68189" lon="16.13328">
        <ele>395.101134</ele>
        <time>2026-07-07T14:54:48.000Z</time>
      </trkpt>
      <trkpt lat="47.68185" lon="16.13325">
        <ele>395.132604</ele>
        <time>2026-07-07T14:54:49.000Z</time>
      </trkpt>
      <trkpt lat="47.68181" lon="16.13322">
        <ele>395.162927</ele>
        <time>2026-07-07T14:54:50.000Z</time>
      </trkpt>
      <trkpt lat="47.68176" lon="16.13318">
        <ele>395.193251</ele>
        <time>2026-07-07T14:54:51.000Z</time>
      </trkpt>
      <trkpt lat="47.68172" lon="16.13315">
        <ele>395.223776</ele>
        <time>2026-07-07T14:54:52.000Z</time>
      </trkpt>
      <trkpt lat="47.68167" lon="16.13313">
        <ele>395.253516</ele>
        <time>2026-07-07T14:54:53.000Z</time>
      </trkpt>
      <trkpt lat="47.68163" lon="16.13312">
        <ele>395.284628</ele>
        <time>2026-07-07T14:54:54.000Z</time>
      </trkpt>
      <trkpt lat="47.68158" lon="16.13311">
        <ele>395.315188</ele>
        <time>2026-07-07T14:54:55.000Z</time>
      </trkpt>
      <trkpt lat="47.68153" lon="16.1331">
        <ele>395.346373</ele>
        <time>2026-07-07T14:54:56.000Z</time>
      </trkpt>
      <trkpt lat="47.68148" lon="16.13309">
        <ele>395.37808</ele>
        <time>2026-07-07T14:54:57.000Z</time>
      </trkpt>
      <trkpt lat="47.68143" lon="16.13308">
        <ele>395.409744</ele>
        <time>2026-07-07T14:54:58.000Z</time>
      </trkpt>
      <trkpt lat="47.68138" lon="16.13307">
        <ele>395.441409</ele>
        <time>2026-07-07T14:54:59.000Z</time>
      </trkpt>
      <trkpt lat="47.68133" lon="16.13307">
        <ele>395.473665</ele>
        <time>2026-07-07T14:55:00.000Z</time>
      </trkpt>
      <trkpt lat="47.68128" lon="16.13306">
        <ele>395.506724</ele>
        <time>2026-07-07T14:55:01.000Z</time>
      </trkpt>
      <trkpt lat="47.68122" lon="16.13304">
        <ele>395.540911</ele>
        <time>2026-07-07T14:55:02.000Z</time>
      </trkpt>
      <trkpt lat="47.68117" lon="16.13302">
        <ele>395.575</ele>
        <time>2026-07-07T14:55:03.000Z</time>
      </trkpt>
      <trkpt lat="47.68112" lon="16.13299">
        <ele>395.608349</ele>
        <time>2026-07-07T14:55:04.000Z</time>
      </trkpt>
      <trkpt lat="47.68107" lon="16.13295">
        <ele>395.643006</ele>
        <time>2026-07-07T14:55:05.000Z</time>
      </trkpt>
      <trkpt lat="47.68103" lon="16.13291">
        <ele>395.676291</ele>
        <time>2026-07-07T14:55:06.000Z</time>
      </trkpt>
      <trkpt lat="47.68098" lon="16.13287">
        <ele>395.668262</ele>
        <time>2026-07-07T14:55:07.000Z</time>
      </trkpt>
      <trkpt lat="47.68094" lon="16.13283">
        <ele>395.655931</ele>
        <time>2026-07-07T14:55:08.000Z</time>
      </trkpt>
      <trkpt lat="47.68089" lon="16.1328">
        <ele>395.643921</ele>
        <time>2026-07-07T14:55:09.000Z</time>
      </trkpt>
      <trkpt lat="47.68084" lon="16.13278">
        <ele>395.631218</ele>
        <time>2026-07-07T14:55:10.000Z</time>
      </trkpt>
      <trkpt lat="47.68078" lon="16.13276">
        <ele>395.618607</ele>
        <time>2026-07-07T14:55:11.000Z</time>
      </trkpt>
      <trkpt lat="47.68073" lon="16.13275">
        <ele>395.606058</ele>
        <time>2026-07-07T14:55:12.000Z</time>
      </trkpt>
      <trkpt lat="47.68067" lon="16.13275">
        <ele>395.593144</ele>
        <time>2026-07-07T14:55:13.000Z</time>
      </trkpt>
      <trkpt lat="47.68062" lon="16.13276">
        <ele>395.580365</ele>
        <time>2026-07-07T14:55:14.000Z</time>
      </trkpt>
      <trkpt lat="47.68056" lon="16.13277">
        <ele>395.567587</ele>
        <time>2026-07-07T14:55:15.000Z</time>
      </trkpt>
      <trkpt lat="47.68051" lon="16.13277">
        <ele>395.554397</ele>
        <time>2026-07-07T14:55:16.000Z</time>
      </trkpt>
      <trkpt lat="47.68045" lon="16.13278">
        <ele>395.54169</ele>
        <time>2026-07-07T14:55:17.000Z</time>
      </trkpt>
      <trkpt lat="47.6804" lon="16.13278">
        <ele>395.529459</ele>
        <time>2026-07-07T14:55:18.000Z</time>
      </trkpt>
      <trkpt lat="47.68035" lon="16.13279">
        <ele>395.517442</ele>
        <time>2026-07-07T14:55:19.000Z</time>
      </trkpt>
      <trkpt lat="47.68029" lon="16.13279">
        <ele>395.505441</ele>
        <time>2026-07-07T14:55:20.000Z</time>
      </trkpt>
      <trkpt lat="47.68025" lon="16.13278">
        <ele>395.494302</ele>
        <time>2026-07-07T14:55:21.000Z</time>
      </trkpt>
      <trkpt lat="47.6802" lon="16.13276">
        <ele>395.483223</ele>
        <time>2026-07-07T14:55:22.000Z</time>
      </trkpt>
      <trkpt lat="47.68016" lon="16.13272">
        <ele>395.472849</ele>
        <time>2026-07-07T14:55:23.000Z</time>
      </trkpt>
      <trkpt lat="47.68014" lon="16.13267">
        <ele>395.462751</ele>
        <time>2026-07-07T14:55:24.000Z</time>
      </trkpt>
      <trkpt lat="47.68011" lon="16.13261">
        <ele>395.452818</ele>
        <time>2026-07-07T14:55:25.000Z</time>
      </trkpt>
      <trkpt lat="47.6801" lon="16.13256">
        <ele>395.443043</ele>
        <time>2026-07-07T14:55:26.000Z</time>
      </trkpt>
      <trkpt lat="47.68008" lon="16.1325">
        <ele>395.433928</ele>
        <time>2026-07-07T14:55:27.000Z</time>
      </trkpt>
      <trkpt lat="47.68006" lon="16.13245">
        <ele>395.424858</ele>
        <time>2026-07-07T14:55:28.000Z</time>
      </trkpt>
      <trkpt lat="47.68005" lon="16.1324">
        <ele>395.416122</ele>
        <time>2026-07-07T14:55:29.000Z</time>
      </trkpt>
      <trkpt lat="47.68003" lon="16.13235">
        <ele>395.407092</ele>
        <time>2026-07-07T14:55:30.000Z</time>
      </trkpt>
      <trkpt lat="47.68" lon="16.1323">
        <ele>395.397036</ele>
        <time>2026-07-07T14:55:31.000Z</time>
      </trkpt>
      <trkpt lat="47.67996" lon="16.13226">
        <ele>395.386295</ele>
        <time>2026-07-07T14:55:32.000Z</time>
      </trkpt>
      <trkpt lat="47.67991" lon="16.13225">
        <ele>395.37595</ele>
        <time>2026-07-07T14:55:33.000Z</time>
      </trkpt>
      <trkpt lat="47.67987" lon="16.13225">
        <ele>395.365331</ele>
        <time>2026-07-07T14:55:34.000Z</time>
      </trkpt>
      <trkpt lat="47.67982" lon="16.13227">
        <ele>395.35472</ele>
        <time>2026-07-07T14:55:35.000Z</time>
      </trkpt>
      <trkpt lat="47.67978" lon="16.1323">
        <ele>395.344248</ele>
        <time>2026-07-07T14:55:36.000Z</time>
      </trkpt>
      <trkpt lat="47.67974" lon="16.13234">
        <ele>395.33288</ele>
        <time>2026-07-07T14:55:37.000Z</time>
      </trkpt>
      <trkpt lat="47.6797" lon="16.13237">
        <ele>395.322199</ele>
        <time>2026-07-07T14:55:38.000Z</time>
      </trkpt>
      <trkpt lat="47.67965" lon="16.13239">
        <ele>395.311279</ele>
        <time>2026-07-07T14:55:39.000Z</time>
      </trkpt>
      <trkpt lat="47.67961" lon="16.13241">
        <ele>395.300226</ele>
        <time>2026-07-07T14:55:40.000Z</time>
      </trkpt>
      <trkpt lat="47.67956" lon="16.13243">
        <ele>395.28907</ele>
        <time>2026-07-07T14:55:41.000Z</time>
      </trkpt>
      <trkpt lat="47.67951" lon="16.13245">
        <ele>395.277877</ele>
        <time>2026-07-07T14:55:42.000Z</time>
      </trkpt>
      <trkpt lat="47.67947" lon="16.13247">
        <ele>395.266732</ele>
        <time>2026-07-07T14:55:43.000Z</time>
      </trkpt>
      <trkpt lat="47.67942" lon="16.1325">
        <ele>395.279264</ele>
        <time>2026-07-07T14:55:44.000Z</time>
      </trkpt>
      <trkpt lat="47.67938" lon="16.13252">
        <ele>395.297644</ele>
        <time>2026-07-07T14:55:45.000Z</time>
      </trkpt>
      <trkpt lat="47.67933" lon="16.13254">
        <ele>395.316925</ele>
        <time>2026-07-07T14:55:46.000Z</time>
      </trkpt>
      <trkpt lat="47.67929" lon="16.13257">
        <ele>395.33587</ele>
        <time>2026-07-07T14:55:47.000Z</time>
      </trkpt>
      <trkpt lat="47.67924" lon="16.1326">
        <ele>395.355151</ele>
        <time>2026-07-07T14:55:48.000Z</time>
      </trkpt>
      <trkpt lat="47.67919" lon="16.13263">
        <ele>395.374351</ele>
        <time>2026-07-07T14:55:49.000Z</time>
      </trkpt>
      <trkpt lat="47.67915" lon="16.13265">
        <ele>395.393814</ele>
        <time>2026-07-07T14:55:50.000Z</time>
      </trkpt>
      <trkpt lat="47.6791" lon="16.13268">
        <ele>395.413459</ele>
        <time>2026-07-07T14:55:51.000Z</time>
      </trkpt>
      <trkpt lat="47.67905" lon="16.1327">
        <ele>395.433919</ele>
        <time>2026-07-07T14:55:52.000Z</time>
      </trkpt>
      <trkpt lat="47.679" lon="16.13273">
        <ele>395.454213</ele>
        <time>2026-07-07T14:55:53.000Z</time>
      </trkpt>
      <trkpt lat="47.67895" lon="16.13275">
        <ele>395.474223</ele>
        <time>2026-07-07T14:55:54.000Z</time>
      </trkpt>
      <trkpt lat="47.6789" lon="16.13278">
        <ele>395.493141</ele>
        <time>2026-07-07T14:55:55.000Z</time>
      </trkpt>
      <trkpt lat="47.67885" lon="16.13281">
        <ele>395.513418</ele>
        <time>2026-07-07T14:55:56.000Z</time>
      </trkpt>
      <trkpt lat="47.67881" lon="16.13283">
        <ele>395.533335</ele>
        <time>2026-07-07T14:55:57.000Z</time>
      </trkpt>
      <trkpt lat="47.67876" lon="16.13286">
        <ele>395.553349</ele>
        <time>2026-07-07T14:55:58.000Z</time>
      </trkpt>
      <trkpt lat="47.67871" lon="16.13289">
        <ele>395.573809</ele>
        <time>2026-07-07T14:55:59.000Z</time>
      </trkpt>
      <trkpt lat="47.67866" lon="16.13292">
        <ele>395.594356</ele>
        <time>2026-07-07T14:56:00.000Z</time>
      </trkpt>
      <trkpt lat="47.67861" lon="16.13294">
        <ele>395.614541</ele>
        <time>2026-07-07T14:56:01.000Z</time>
      </trkpt>
      <trkpt lat="47.67856" lon="16.13297">
        <ele>395.635179</ele>
        <time>2026-07-07T14:56:02.000Z</time>
      </trkpt>
      <trkpt lat="47.67851" lon="16.133">
        <ele>395.654824</ele>
        <time>2026-07-07T14:56:03.000Z</time>
      </trkpt>
      <trkpt lat="47.67846" lon="16.13302">
        <ele>395.675779</ele>
        <time>2026-07-07T14:56:04.000Z</time>
      </trkpt>
      <trkpt lat="47.67841" lon="16.13304">
        <ele>395.696151</ele>
        <time>2026-07-07T14:56:05.000Z</time>
      </trkpt>
      <trkpt lat="47.67836" lon="16.13305">
        <ele>395.716475</ele>
        <time>2026-07-07T14:56:06.000Z</time>
      </trkpt>
      <trkpt lat="47.6783" lon="16.13305">
        <ele>395.736574</ele>
        <time>2026-07-07T14:56:07.000Z</time>
      </trkpt>
      <trkpt lat="47.67825" lon="16.13305">
        <ele>395.757058</ele>
        <time>2026-07-07T14:56:08.000Z</time>
      </trkpt>
      <trkpt lat="47.6782" lon="16.13304">
        <ele>395.777633</ele>
        <time>2026-07-07T14:56:09.000Z</time>
      </trkpt>
      <trkpt lat="47.67814" lon="16.13303">
        <ele>395.798619</ele>
        <time>2026-07-07T14:56:10.000Z</time>
      </trkpt>
      <trkpt lat="47.67809" lon="16.13302">
        <ele>395.819253</ele>
        <time>2026-07-07T14:56:11.000Z</time>
      </trkpt>
      <trkpt lat="47.67804" lon="16.13301">
        <ele>395.839922</ele>
        <time>2026-07-07T14:56:12.000Z</time>
      </trkpt>
      <trkpt lat="47.67798" lon="16.133">
        <ele>395.861093</ele>
        <time>2026-07-07T14:56:13.000Z</time>
      </trkpt>
      <trkpt lat="47.67793" lon="16.13299">
        <ele>395.881078</ele>
        <time>2026-07-07T14:56:14.000Z</time>
      </trkpt>
      <trkpt lat="47.67788" lon="16.13297">
        <ele>395.901444</ele>
        <time>2026-07-07T14:56:15.000Z</time>
      </trkpt>
      <trkpt lat="47.67783" lon="16.13296">
        <ele>395.921854</ele>
        <time>2026-07-07T14:56:16.000Z</time>
      </trkpt>
      <trkpt lat="47.67778" lon="16.13294">
        <ele>395.941986</ele>
        <time>2026-07-07T14:56:17.000Z</time>
      </trkpt>
      <trkpt lat="47.67772" lon="16.13293">
        <ele>395.968587</ele>
        <time>2026-07-07T14:56:18.000Z</time>
      </trkpt>
      <trkpt lat="47.67767" lon="16.13292">
        <ele>396.01473</ele>
        <time>2026-07-07T14:56:19.000Z</time>
      </trkpt>
      <trkpt lat="47.67762" lon="16.1329">
        <ele>396.061768</ele>
        <time>2026-07-07T14:56:20.000Z</time>
      </trkpt>
      <trkpt lat="47.67757" lon="16.13289">
        <ele>396.109605</ele>
        <time>2026-07-07T14:56:21.000Z</time>
      </trkpt>
      <trkpt lat="47.67752" lon="16.13288">
        <ele>396.158437</ele>
        <time>2026-07-07T14:56:22.000Z</time>
      </trkpt>
      <trkpt lat="47.67746" lon="16.13287">
        <ele>396.208071</ele>
        <time>2026-07-07T14:56:23.000Z</time>
      </trkpt>
      <trkpt lat="47.67741" lon="16.13285">
        <ele>396.256902</ele>
        <time>2026-07-07T14:56:24.000Z</time>
      </trkpt>
      <trkpt lat="47.67736" lon="16.13284">
        <ele>396.305303</ele>
        <time>2026-07-07T14:56:25.000Z</time>
      </trkpt>
      <trkpt lat="47.67731" lon="16.13282">
        <ele>396.354725</ele>
        <time>2026-07-07T14:56:26.000Z</time>
      </trkpt>
      <trkpt lat="47.67725" lon="16.1328">
        <ele>396.404015</ele>
        <time>2026-07-07T14:56:27.000Z</time>
      </trkpt>
      <trkpt lat="47.6772" lon="16.13278">
        <ele>396.454323</ele>
        <time>2026-07-07T14:56:28.000Z</time>
      </trkpt>
      <trkpt lat="47.67715" lon="16.13276">
        <ele>396.504874</ele>
        <time>2026-07-07T14:56:29.000Z</time>
      </trkpt>
      <trkpt lat="47.67709" lon="16.13273">
        <ele>396.555366</ele>
        <time>2026-07-07T14:56:30.000Z</time>
      </trkpt>
      <trkpt lat="47.67704" lon="16.1327">
        <ele>396.603941</ele>
        <time>2026-07-07T14:56:31.000Z</time>
      </trkpt>
      <trkpt lat="47.67699" lon="16.13267">
        <ele>396.654269</ele>
        <time>2026-07-07T14:56:32.000Z</time>
      </trkpt>
      <trkpt lat="47.67694" lon="16.13264">
        <ele>396.704006</ele>
        <time>2026-07-07T14:56:33.000Z</time>
      </trkpt>
      <trkpt lat="47.67689" lon="16.1326">
        <ele>396.753744</ele>
        <time>2026-07-07T14:56:34.000Z</time>
      </trkpt>
      <trkpt lat="47.67684" lon="16.13257">
        <ele>396.80317</ele>
        <time>2026-07-07T14:56:35.000Z</time>
      </trkpt>
      <trkpt lat="47.6768" lon="16.13253">
        <ele>396.853202</ele>
        <time>2026-07-07T14:56:36.000Z</time>
      </trkpt>
      <trkpt lat="47.67675" lon="16.13249">
        <ele>396.900875</ele>
        <time>2026-07-07T14:56:37.000Z</time>
      </trkpt>
      <trkpt lat="47.67671" lon="16.13244">
        <ele>396.950519</ele>
        <time>2026-07-07T14:56:38.000Z</time>
      </trkpt>
      <trkpt lat="47.67667" lon="16.13238">
        <ele>396.998979</ele>
        <time>2026-07-07T14:56:39.000Z</time>
      </trkpt>
      <trkpt lat="47.67664" lon="16.13232">
        <ele>397.047833</ele>
        <time>2026-07-07T14:56:40.000Z</time>
      </trkpt>
      <trkpt lat="47.67661" lon="16.13225">
        <ele>397.097081</ele>
        <time>2026-07-07T14:56:41.000Z</time>
      </trkpt>
      <trkpt lat="47.67658" lon="16.13218">
        <ele>397.146665</ele>
        <time>2026-07-07T14:56:42.000Z</time>
      </trkpt>
      <trkpt lat="47.67656" lon="16.1321">
        <ele>397.196039</ele>
        <time>2026-07-07T14:56:43.000Z</time>
      </trkpt>
      <trkpt lat="47.67655" lon="16.13203">
        <ele>397.242754</ele>
        <time>2026-07-07T14:56:44.000Z</time>
      </trkpt>
      <trkpt lat="47.67654" lon="16.13196">
        <ele>397.289937</ele>
        <time>2026-07-07T14:56:45.000Z</time>
      </trkpt>
      <trkpt lat="47.67653" lon="16.13188">
        <ele>397.334601</ele>
        <time>2026-07-07T14:56:46.000Z</time>
      </trkpt>
      <trkpt lat="47.67652" lon="16.13181">
        <ele>397.377916</ele>
        <time>2026-07-07T14:56:47.000Z</time>
      </trkpt>
      <trkpt lat="47.67651" lon="16.13175">
        <ele>397.420517</ele>
        <time>2026-07-07T14:56:48.000Z</time>
      </trkpt>
      <trkpt lat="47.6765" lon="16.13168">
        <ele>397.462166</ele>
        <time>2026-07-07T14:56:49.000Z</time>
      </trkpt>
      <trkpt lat="47.6765" lon="16.13161">
        <ele>397.502725</ele>
        <time>2026-07-07T14:56:50.000Z</time>
      </trkpt>
      <trkpt lat="47.6765" lon="16.13155">
        <ele>397.538883</ele>
        <time>2026-07-07T14:56:51.000Z</time>
      </trkpt>
      <trkpt lat="47.6765" lon="16.1315">
        <ele>397.574382</ele>
        <time>2026-07-07T14:56:52.000Z</time>
      </trkpt>
      <trkpt lat="47.6765" lon="16.13145">
        <ele>397.599606</ele>
        <time>2026-07-07T14:56:53.000Z</time>
      </trkpt>
      <trkpt lat="47.67651" lon="16.1314">
        <ele>397.612843</ele>
        <time>2026-07-07T14:56:54.000Z</time>
      </trkpt>
      <trkpt lat="47.67651" lon="16.13136">
        <ele>397.625124</ele>
        <time>2026-07-07T14:56:55.000Z</time>
      </trkpt>
      <trkpt lat="47.6765" lon="16.13132">
        <ele>397.637779</ele>
        <time>2026-07-07T14:56:56.000Z</time>
      </trkpt>
      <trkpt lat="47.67648" lon="16.13128">
        <ele>397.652005</ele>
        <time>2026-07-07T14:56:57.000Z</time>
      </trkpt>
      <trkpt lat="47.67646" lon="16.13125">
        <ele>397.667962</ele>
        <time>2026-07-07T14:56:58.000Z</time>
      </trkpt>
      <trkpt lat="47.67642" lon="16.13122">
        <ele>397.685215</ele>
        <time>2026-07-07T14:56:59.000Z</time>
      </trkpt>
      <trkpt lat="47.67639" lon="16.1312">
        <ele>397.703549</ele>
        <time>2026-07-07T14:57:00.000Z</time>
      </trkpt>
      <trkpt lat="47.67634" lon="16.13119">
        <ele>397.723427</ele>
        <time>2026-07-07T14:57:01.000Z</time>
      </trkpt>
      <trkpt lat="47.6763" lon="16.13117">
        <ele>397.742785</ele>
        <time>2026-07-07T14:57:02.000Z</time>
      </trkpt>
      <trkpt lat="47.67626" lon="16.13116">
        <ele>397.763633</ele>
        <time>2026-07-07T14:57:03.000Z</time>
      </trkpt>
      <trkpt lat="47.67621" lon="16.13114">
        <ele>397.784606</ele>
        <time>2026-07-07T14:57:04.000Z</time>
      </trkpt>
      <trkpt lat="47.67617" lon="16.13113">
        <ele>397.805579</ele>
        <time>2026-07-07T14:57:05.000Z</time>
      </trkpt>
      <trkpt lat="47.67612" lon="16.13111">
        <ele>397.828214</ele>
        <time>2026-07-07T14:57:06.000Z</time>
      </trkpt>
      <trkpt lat="47.67607" lon="16.1311">
        <ele>397.85035</ele>
        <time>2026-07-07T14:57:07.000Z</time>
      </trkpt>
      <trkpt lat="47.67602" lon="16.13108">
        <ele>397.873676</ele>
        <time>2026-07-07T14:57:08.000Z</time>
      </trkpt>
      <trkpt lat="47.67597" lon="16.13107">
        <ele>397.896935</ele>
        <time>2026-07-07T14:57:09.000Z</time>
      </trkpt>
      <trkpt lat="47.67592" lon="16.13105">
        <ele>397.920132</ele>
        <time>2026-07-07T14:57:10.000Z</time>
      </trkpt>
      <trkpt lat="47.67587" lon="16.13104">
        <ele>397.943329</ele>
        <time>2026-07-07T14:57:11.000Z</time>
      </trkpt>
      <trkpt lat="47.67582" lon="16.13102">
        <ele>397.966655</ele>
        <time>2026-07-07T14:57:12.000Z</time>
      </trkpt>
      <trkpt lat="47.67577" lon="16.131">
        <ele>397.990051</ele>
        <time>2026-07-07T14:57:13.000Z</time>
      </trkpt>
      <trkpt lat="47.67572" lon="16.13098">
        <ele>398.013521</ele>
        <time>2026-07-07T14:57:14.000Z</time>
      </trkpt>
      <trkpt lat="47.67567" lon="16.13097">
        <ele>398.035892</ele>
        <time>2026-07-07T14:57:15.000Z</time>
      </trkpt>
      <trkpt lat="47.67562" lon="16.13095">
        <ele>398.058775</ele>
        <time>2026-07-07T14:57:16.000Z</time>
      </trkpt>
      <trkpt lat="47.67558" lon="16.13094">
        <ele>398.080014</ele>
        <time>2026-07-07T14:57:17.000Z</time>
      </trkpt>
      <trkpt lat="47.67553" lon="16.13094">
        <ele>398.100023</ele>
        <time>2026-07-07T14:57:18.000Z</time>
      </trkpt>
      <trkpt lat="47.67549" lon="16.13096">
        <ele>398.119648</ele>
        <time>2026-07-07T14:57:19.000Z</time>
      </trkpt>
      <trkpt lat="47.67546" lon="16.131">
        <ele>398.13809</ele>
        <time>2026-07-07T14:57:20.000Z</time>
      </trkpt>
      <trkpt lat="47.67544" lon="16.13104">
        <ele>398.155881</ele>
        <time>2026-07-07T14:57:21.000Z</time>
      </trkpt>
      <trkpt lat="47.67542" lon="16.13109">
        <ele>398.172488</ele>
        <time>2026-07-07T14:57:22.000Z</time>
      </trkpt>
      <trkpt lat="47.67541" lon="16.13114">
        <ele>398.189759</ele>
        <time>2026-07-07T14:57:23.000Z</time>
      </trkpt>
      <trkpt lat="47.67539" lon="16.1312">
        <ele>398.209203</ele>
        <time>2026-07-07T14:57:24.000Z</time>
      </trkpt>
      <trkpt lat="47.67538" lon="16.13127">
        <ele>398.231549</ele>
        <time>2026-07-07T14:57:25.000Z</time>
      </trkpt>
      <trkpt lat="47.67536" lon="16.13135">
        <ele>398.255505</ele>
        <time>2026-07-07T14:57:26.000Z</time>
      </trkpt>
      <trkpt lat="47.67535" lon="16.13143">
        <ele>398.280223</ele>
        <time>2026-07-07T14:57:27.000Z</time>
      </trkpt>
      <trkpt lat="47.67534" lon="16.13151">
        <ele>398.305224</ele>
        <time>2026-07-07T14:57:28.000Z</time>
      </trkpt>
      <trkpt lat="47.67533" lon="16.13159">
        <ele>398.330741</ele>
        <time>2026-07-07T14:57:29.000Z</time>
      </trkpt>
      <trkpt lat="47.67532" lon="16.13167">
        <ele>398.355656</ele>
        <time>2026-07-07T14:57:30.000Z</time>
      </trkpt>
      <trkpt lat="47.67531" lon="16.13175">
        <ele>398.380491</ele>
        <time>2026-07-07T14:57:31.000Z</time>
      </trkpt>
      <trkpt lat="47.6753" lon="16.13183">
        <ele>398.405139</ele>
        <time>2026-07-07T14:57:32.000Z</time>
      </trkpt>
      <trkpt lat="47.67529" lon="16.13191">
        <ele>398.430427</ele>
        <time>2026-07-07T14:57:33.000Z</time>
      </trkpt>
      <trkpt lat="47.67528" lon="16.13199">
        <ele>398.456499</ele>
        <time>2026-07-07T14:57:34.000Z</time>
      </trkpt>
      <trkpt lat="47.67526" lon="16.13206">
        <ele>398.481497</ele>
        <time>2026-07-07T14:57:35.000Z</time>
      </trkpt>
      <trkpt lat="47.67524" lon="16.13213">
        <ele>398.504829</ele>
        <time>2026-07-07T14:57:36.000Z</time>
      </trkpt>
      <trkpt lat="47.6752" lon="16.13219">
        <ele>398.529516</ele>
        <time>2026-07-07T14:57:37.000Z</time>
      </trkpt>
      <trkpt lat="47.67516" lon="16.13223">
        <ele>398.552544</ele>
        <time>2026-07-07T14:57:38.000Z</time>
      </trkpt>
      <trkpt lat="47.67512" lon="16.13227">
        <ele>398.574752</ele>
        <time>2026-07-07T14:57:39.000Z</time>
      </trkpt>
      <trkpt lat="47.67508" lon="16.1323">
        <ele>398.597879</ele>
        <time>2026-07-07T14:57:40.000Z</time>
      </trkpt>
      <trkpt lat="47.67504" lon="16.13233">
        <ele>398.620031</ele>
        <time>2026-07-07T14:57:41.000Z</time>
      </trkpt>
      <trkpt lat="47.67499" lon="16.13236">
        <ele>398.643161</ele>
        <time>2026-07-07T14:57:42.000Z</time>
      </trkpt>
      <trkpt lat="47.67495" lon="16.1324">
        <ele>398.665875</ele>
        <time>2026-07-07T14:57:43.000Z</time>
      </trkpt>
      <trkpt lat="47.6749" lon="16.13244">
        <ele>398.689608</ele>
        <time>2026-07-07T14:57:44.000Z</time>
      </trkpt>
      <trkpt lat="47.67486" lon="16.13248">
        <ele>398.712481</ele>
        <time>2026-07-07T14:57:45.000Z</time>
      </trkpt>
      <trkpt lat="47.67482" lon="16.13252">
        <ele>398.737041</ele>
        <time>2026-07-07T14:57:46.000Z</time>
      </trkpt>
      <trkpt lat="47.67477" lon="16.13256">
        <ele>398.761823</ele>
        <time>2026-07-07T14:57:47.000Z</time>
      </trkpt>
      <trkpt lat="47.67473" lon="16.1326">
        <ele>398.787001</ele>
        <time>2026-07-07T14:57:48.000Z</time>
      </trkpt>
      <trkpt lat="47.67468" lon="16.13264">
        <ele>398.812416</ele>
        <time>2026-07-07T14:57:49.000Z</time>
      </trkpt>
      <trkpt lat="47.67463" lon="16.13269">
        <ele>398.838322</ele>
        <time>2026-07-07T14:57:50.000Z</time>
      </trkpt>
      <trkpt lat="47.67459" lon="16.13273">
        <ele>398.864006</ele>
        <time>2026-07-07T14:57:51.000Z</time>
      </trkpt>
      <trkpt lat="47.67454" lon="16.13278">
        <ele>398.89008</ele>
        <time>2026-07-07T14:57:52.000Z</time>
      </trkpt>
      <trkpt lat="47.67449" lon="16.13282">
        <ele>398.916218</ele>
        <time>2026-07-07T14:57:53.000Z</time>
      </trkpt>
      <trkpt lat="47.67445" lon="16.13286">
        <ele>398.941957</ele>
        <time>2026-07-07T14:57:54.000Z</time>
      </trkpt>
      <trkpt lat="47.6744" lon="16.13291">
        <ele>398.967863</ele>
        <time>2026-07-07T14:57:55.000Z</time>
      </trkpt>
      <trkpt lat="47.67435" lon="16.13296">
        <ele>398.994076</ele>
        <time>2026-07-07T14:57:56.000Z</time>
      </trkpt>
      <trkpt lat="47.67431" lon="16.133">
        <ele>399.019372</ele>
        <time>2026-07-07T14:57:57.000Z</time>
      </trkpt>
      <trkpt lat="47.67426" lon="16.13304">
        <ele>399.045752</ele>
        <time>2026-07-07T14:57:58.000Z</time>
      </trkpt>
      <trkpt lat="47.67421" lon="16.13309">
        <ele>399.071096</ele>
        <time>2026-07-07T14:57:59.000Z</time>
      </trkpt>
      <trkpt lat="47.67417" lon="16.13313">
        <ele>399.096929</ele>
        <time>2026-07-07T14:58:00.000Z</time>
      </trkpt>
      <trkpt lat="47.67412" lon="16.13319">
        <ele>399.124257</ele>
        <time>2026-07-07T14:58:01.000Z</time>
      </trkpt>
      <trkpt lat="47.67408" lon="16.13324">
        <ele>399.150462</ele>
        <time>2026-07-07T14:58:02.000Z</time>
      </trkpt>
      <trkpt lat="47.67403" lon="16.13329">
        <ele>399.177048</ele>
        <time>2026-07-07T14:58:03.000Z</time>
      </trkpt>
      <trkpt lat="47.67399" lon="16.13334">
        <ele>399.201789</ele>
        <time>2026-07-07T14:58:04.000Z</time>
      </trkpt>
      <trkpt lat="47.67396" lon="16.1334">
        <ele>399.226241</ele>
        <time>2026-07-07T14:58:05.000Z</time>
      </trkpt>
      <trkpt lat="47.67392" lon="16.13346">
        <ele>399.251814</ele>
        <time>2026-07-07T14:58:06.000Z</time>
      </trkpt>
      <trkpt lat="47.67388" lon="16.1335">
        <ele>399.329567</ele>
        <time>2026-07-07T14:58:07.000Z</time>
      </trkpt>
      <trkpt lat="47.67383" lon="16.13352">
        <ele>399.40511</ele>
        <time>2026-07-07T14:58:08.000Z</time>
      </trkpt>
      <trkpt lat="47.67377" lon="16.13352">
        <ele>399.486167</ele>
        <time>2026-07-07T14:58:09.000Z</time>
      </trkpt>
      <trkpt lat="47.67372" lon="16.13352">
        <ele>399.56428</ele>
        <time>2026-07-07T14:58:10.000Z</time>
      </trkpt>
      <trkpt lat="47.67366" lon="16.13352">
        <ele>399.651173</ele>
        <time>2026-07-07T14:58:11.000Z</time>
      </trkpt>
      <trkpt lat="47.6736" lon="16.13351">
        <ele>399.733797</ele>
        <time>2026-07-07T14:58:12.000Z</time>
      </trkpt>
      <trkpt lat="47.67355" lon="16.1335">
        <ele>399.815668</ele>
        <time>2026-07-07T14:58:13.000Z</time>
      </trkpt>
      <trkpt lat="47.6735" lon="16.13348">
        <ele>399.895576</ele>
        <time>2026-07-07T14:58:14.000Z</time>
      </trkpt>
      <trkpt lat="47.67345" lon="16.13345">
        <ele>399.974997</ele>
        <time>2026-07-07T14:58:15.000Z</time>
      </trkpt>
      <trkpt lat="47.6734" lon="16.13341">
        <ele>400.052898</ele>
        <time>2026-07-07T14:58:16.000Z</time>
      </trkpt>
      <trkpt lat="47.67335" lon="16.13337">
        <ele>400.131173</ele>
        <time>2026-07-07T14:58:17.000Z</time>
      </trkpt>
      <trkpt lat="47.67331" lon="16.13332">
        <ele>400.209225</ele>
        <time>2026-07-07T14:58:18.000Z</time>
      </trkpt>
      <trkpt lat="47.67327" lon="16.13327">
        <ele>400.288502</ele>
        <time>2026-07-07T14:58:19.000Z</time>
      </trkpt>
      <trkpt lat="47.67323" lon="16.13322">
        <ele>400.364868</ele>
        <time>2026-07-07T14:58:20.000Z</time>
      </trkpt>
      <trkpt lat="47.67319" lon="16.13318">
        <ele>400.440546</ele>
        <time>2026-07-07T14:58:21.000Z</time>
      </trkpt>
      <trkpt lat="47.67315" lon="16.13313">
        <ele>400.513857</ele>
        <time>2026-07-07T14:58:22.000Z</time>
      </trkpt>
      <trkpt lat="47.67311" lon="16.13309">
        <ele>400.59013</ele>
        <time>2026-07-07T14:58:23.000Z</time>
      </trkpt>
      <trkpt lat="47.67306" lon="16.13305">
        <ele>400.664153</ele>
        <time>2026-07-07T14:58:24.000Z</time>
      </trkpt>
      <trkpt lat="47.67302" lon="16.133">
        <ele>400.738653</ele>
        <time>2026-07-07T14:58:25.000Z</time>
      </trkpt>
      <trkpt lat="47.67298" lon="16.13296">
        <ele>400.813783</ele>
        <time>2026-07-07T14:58:26.000Z</time>
      </trkpt>
      <trkpt lat="47.67294" lon="16.13292">
        <ele>400.890057</ele>
        <time>2026-07-07T14:58:27.000Z</time>
      </trkpt>
      <trkpt lat="47.6729" lon="16.13287">
        <ele>400.963412</ele>
        <time>2026-07-07T14:58:28.000Z</time>
      </trkpt>
      <trkpt lat="47.67285" lon="16.13283">
        <ele>401.039914</ele>
        <time>2026-07-07T14:58:29.000Z</time>
      </trkpt>
      <trkpt lat="47.67281" lon="16.13279">
        <ele>401.117153</ele>
        <time>2026-07-07T14:58:30.000Z</time>
      </trkpt>
      <trkpt lat="47.67276" lon="16.13275">
        <ele>401.195429</ele>
        <time>2026-07-07T14:58:31.000Z</time>
      </trkpt>
      <trkpt lat="47.67272" lon="16.13271">
        <ele>401.269122</ele>
        <time>2026-07-07T14:58:32.000Z</time>
      </trkpt>
      <trkpt lat="47.67268" lon="16.13267">
        <ele>401.345857</ele>
        <time>2026-07-07T14:58:33.000Z</time>
      </trkpt>
      <trkpt lat="47.67263" lon="16.13263">
        <ele>401.420584</ele>
        <time>2026-07-07T14:58:34.000Z</time>
      </trkpt>
      <trkpt lat="47.67259" lon="16.1326">
        <ele>401.496823</ele>
        <time>2026-07-07T14:58:35.000Z</time>
      </trkpt>
      <trkpt lat="47.67255" lon="16.13256">
        <ele>401.568744</ele>
        <time>2026-07-07T14:58:36.000Z</time>
      </trkpt>
      <trkpt lat="47.6725" lon="16.13252">
        <ele>401.641443</ele>
        <time>2026-07-07T14:58:37.000Z</time>
      </trkpt>
      <trkpt lat="47.67246" lon="16.13248">
        <ele>401.711915</ele>
        <time>2026-07-07T14:58:38.000Z</time>
      </trkpt>
      <trkpt lat="47.67242" lon="16.13245">
        <ele>401.783335</ele>
        <time>2026-07-07T14:58:39.000Z</time>
      </trkpt>
      <trkpt lat="47.67238" lon="16.13241">
        <ele>401.855081</ele>
        <time>2026-07-07T14:58:40.000Z</time>
      </trkpt>
      <trkpt lat="47.67234" lon="16.13238">
        <ele>401.92946</ele>
        <time>2026-07-07T14:58:41.000Z</time>
      </trkpt>
      <trkpt lat="47.6723" lon="16.13235">
        <ele>402.023081</ele>
        <time>2026-07-07T14:58:42.000Z</time>
      </trkpt>
      <trkpt lat="47.67226" lon="16.13232">
        <ele>402.112498</ele>
        <time>2026-07-07T14:58:43.000Z</time>
      </trkpt>
      <trkpt lat="47.67222" lon="16.1323">
        <ele>402.201329</ele>
        <time>2026-07-07T14:58:44.000Z</time>
      </trkpt>
      <trkpt lat="47.67218" lon="16.13227">
        <ele>402.287779</ele>
        <time>2026-07-07T14:58:45.000Z</time>
      </trkpt>
      <trkpt lat="47.67214" lon="16.13224">
        <ele>402.377797</ele>
        <time>2026-07-07T14:58:46.000Z</time>
      </trkpt>
      <trkpt lat="47.67209" lon="16.13221">
        <ele>402.473958</ele>
        <time>2026-07-07T14:58:47.000Z</time>
      </trkpt>
      <trkpt lat="47.67205" lon="16.13218">
        <ele>402.56774</ele>
        <time>2026-07-07T14:58:48.000Z</time>
      </trkpt>
      <trkpt lat="47.67201" lon="16.13216">
        <ele>402.664254</ele>
        <time>2026-07-07T14:58:49.000Z</time>
      </trkpt>
      <trkpt lat="47.67196" lon="16.13213">
        <ele>402.763247</ele>
        <time>2026-07-07T14:58:50.000Z</time>
      </trkpt>
      <trkpt lat="47.67191" lon="16.13211">
        <ele>402.85992</ele>
        <time>2026-07-07T14:58:51.000Z</time>
      </trkpt>
      <trkpt lat="47.67187" lon="16.13209">
        <ele>402.958912</ele>
        <time>2026-07-07T14:58:52.000Z</time>
      </trkpt>
      <trkpt lat="47.67182" lon="16.13207">
        <ele>403.056415</ele>
        <time>2026-07-07T14:58:53.000Z</time>
      </trkpt>
      <trkpt lat="47.67177" lon="16.13206">
        <ele>403.151638</ele>
        <time>2026-07-07T14:58:54.000Z</time>
      </trkpt>
      <trkpt lat="47.67172" lon="16.13204">
        <ele>403.251399</ele>
        <time>2026-07-07T14:58:55.000Z</time>
      </trkpt>
      <trkpt lat="47.67168" lon="16.13204">
        <ele>403.348427</ele>
        <time>2026-07-07T14:58:56.000Z</time>
      </trkpt>
      <trkpt lat="47.67163" lon="16.13203">
        <ele>403.449313</ele>
        <time>2026-07-07T14:58:57.000Z</time>
      </trkpt>
      <trkpt lat="47.67158" lon="16.13203">
        <ele>403.545773</ele>
        <time>2026-07-07T14:58:58.000Z</time>
      </trkpt>
      <trkpt lat="47.67153" lon="16.13204">
        <ele>403.644798</ele>
        <time>2026-07-07T14:58:59.000Z</time>
      </trkpt>
      <trkpt lat="47.67148" lon="16.13205">
        <ele>403.743332</ele>
        <time>2026-07-07T14:59:00.000Z</time>
      </trkpt>
      <trkpt lat="47.67143" lon="16.13207">
        <ele>403.843121</ele>
        <time>2026-07-07T14:59:01.000Z</time>
      </trkpt>
      <trkpt lat="47.67139" lon="16.1321">
        <ele>403.942529</ele>
        <time>2026-07-07T14:59:02.000Z</time>
      </trkpt>
      <trkpt lat="47.67134" lon="16.13212">
        <ele>404.042816</ele>
        <time>2026-07-07T14:59:03.000Z</time>
      </trkpt>
      <trkpt lat="47.67129" lon="16.13215">
        <ele>404.142177</ele>
        <time>2026-07-07T14:59:04.000Z</time>
      </trkpt>
      <trkpt lat="47.67125" lon="16.13218">
        <ele>404.241264</ele>
        <time>2026-07-07T14:59:05.000Z</time>
      </trkpt>
      <trkpt lat="47.6712" lon="16.1322">
        <ele>404.338261</ele>
        <time>2026-07-07T14:59:06.000Z</time>
      </trkpt>
      <trkpt lat="47.67116" lon="16.13223">
        <ele>404.428662</ele>
        <time>2026-07-07T14:59:07.000Z</time>
      </trkpt>
      <trkpt lat="47.67112" lon="16.13225">
        <ele>404.516474</ele>
        <time>2026-07-07T14:59:08.000Z</time>
      </trkpt>
      <trkpt lat="47.67108" lon="16.13226">
        <ele>404.600435</ele>
        <time>2026-07-07T14:59:09.000Z</time>
      </trkpt>
      <trkpt lat="47.67104" lon="16.13228">
        <ele>404.685219</ele>
        <time>2026-07-07T14:59:10.000Z</time>
      </trkpt>
      <trkpt lat="47.671" lon="16.13231">
        <ele>404.76342</ele>
        <time>2026-07-07T14:59:11.000Z</time>
      </trkpt>
      <trkpt lat="47.67097" lon="16.13232">
        <ele>404.837393</ele>
        <time>2026-07-07T14:59:12.000Z</time>
      </trkpt>
      <trkpt lat="47.67093" lon="16.13234">
        <ele>404.915605</ele>
        <time>2026-07-07T14:59:13.000Z</time>
      </trkpt>
      <trkpt lat="47.6709" lon="16.13236">
        <ele>404.986226</ele>
        <time>2026-07-07T14:59:14.000Z</time>
      </trkpt>
      <trkpt lat="47.67086" lon="16.13237">
        <ele>405.059404</ele>
        <time>2026-07-07T14:59:15.000Z</time>
      </trkpt>
      <trkpt lat="47.67083" lon="16.13239">
        <ele>405.13028</ele>
        <time>2026-07-07T14:59:16.000Z</time>
      </trkpt>
      <trkpt lat="47.6708" lon="16.1324">
        <ele>405.195775</ele>
        <time>2026-07-07T14:59:17.000Z</time>
      </trkpt>
      <trkpt lat="47.67077" lon="16.13242">
        <ele>405.263603</ele>
        <time>2026-07-07T14:59:18.000Z</time>
      </trkpt>
      <trkpt lat="47.67073" lon="16.13244">
        <ele>405.333345</ele>
        <time>2026-07-07T14:59:19.000Z</time>
      </trkpt>
      <trkpt lat="47.6707" lon="16.13246">
        <ele>405.404444</ele>
        <time>2026-07-07T14:59:20.000Z</time>
      </trkpt>
      <trkpt lat="47.67067" lon="16.13248">
        <ele>405.476565</ele>
        <time>2026-07-07T14:59:21.000Z</time>
      </trkpt>
      <trkpt lat="47.67063" lon="16.13251">
        <ele>405.50279</ele>
        <time>2026-07-07T14:59:22.000Z</time>
      </trkpt>
      <trkpt lat="47.6706" lon="16.13254">
        <ele>405.484142</ele>
        <time>2026-07-07T14:59:23.000Z</time>
      </trkpt>
      <trkpt lat="47.67057" lon="16.13257">
        <ele>405.46578</ele>
        <time>2026-07-07T14:59:24.000Z</time>
      </trkpt>
      <trkpt lat="47.67053" lon="16.13261">
        <ele>405.445327</ele>
        <time>2026-07-07T14:59:25.000Z</time>
      </trkpt>
      <trkpt lat="47.6705" lon="16.13265">
        <ele>405.42411</ele>
        <time>2026-07-07T14:59:26.000Z</time>
      </trkpt>
      <trkpt lat="47.67047" lon="16.1327">
        <ele>405.402985</ele>
        <time>2026-07-07T14:59:27.000Z</time>
      </trkpt>
      <trkpt lat="47.67043" lon="16.13275">
        <ele>405.380521</ele>
        <time>2026-07-07T14:59:28.000Z</time>
      </trkpt>
      <trkpt lat="47.6704" lon="16.13279">
        <ele>405.358057</ele>
        <time>2026-07-07T14:59:29.000Z</time>
      </trkpt>
      <trkpt lat="47.67036" lon="16.13285">
        <ele>405.334259</ele>
        <time>2026-07-07T14:59:30.000Z</time>
      </trkpt>
      <trkpt lat="47.67033" lon="16.1329">
        <ele>405.31</ele>
        <time>2026-07-07T14:59:31.000Z</time>
      </trkpt>
      <trkpt lat="47.67029" lon="16.13296">
        <ele>405.285315</ele>
        <time>2026-07-07T14:59:32.000Z</time>
      </trkpt>
      <trkpt lat="47.67025" lon="16.13301">
        <ele>405.260299</ele>
        <time>2026-07-07T14:59:33.000Z</time>
      </trkpt>
      <trkpt lat="47.6702" lon="16.13305">
        <ele>405.235108</ele>
        <time>2026-07-07T14:59:34.000Z</time>
      </trkpt>
      <trkpt lat="47.67016" lon="16.1331">
        <ele>405.209135</ele>
        <time>2026-07-07T14:59:35.000Z</time>
      </trkpt>
      <trkpt lat="47.67011" lon="16.13314">
        <ele>405.183731</ele>
        <time>2026-07-07T14:59:36.000Z</time>
      </trkpt>
      <trkpt lat="47.67007" lon="16.13319">
        <ele>405.157701</ele>
        <time>2026-07-07T14:59:37.000Z</time>
      </trkpt>
      <trkpt lat="47.67002" lon="16.13323">
        <ele>405.131432</ele>
        <time>2026-07-07T14:59:38.000Z</time>
      </trkpt>
      <trkpt lat="47.66997" lon="16.13327">
        <ele>405.106199</ele>
        <time>2026-07-07T14:59:39.000Z</time>
      </trkpt>
      <trkpt lat="47.66992" lon="16.1333">
        <ele>405.081407</ele>
        <time>2026-07-07T14:59:40.000Z</time>
      </trkpt>
      <trkpt lat="47.66988" lon="16.13333">
        <ele>405.056852</ele>
        <time>2026-07-07T14:59:41.000Z</time>
      </trkpt>
      <trkpt lat="47.66983" lon="16.13336">
        <ele>405.032472</ele>
        <time>2026-07-07T14:59:42.000Z</time>
      </trkpt>
      <trkpt lat="47.66978" lon="16.13339">
        <ele>405.009082</ele>
        <time>2026-07-07T14:59:43.000Z</time>
      </trkpt>
      <trkpt lat="47.66974" lon="16.13342">
        <ele>404.985824</ele>
        <time>2026-07-07T14:59:44.000Z</time>
      </trkpt>
      <trkpt lat="47.66969" lon="16.13344">
        <ele>404.963224</ele>
        <time>2026-07-07T14:59:45.000Z</time>
      </trkpt>
      <trkpt lat="47.66964" lon="16.13346">
        <ele>404.939232</ele>
        <time>2026-07-07T14:59:46.000Z</time>
      </trkpt>
      <trkpt lat="47.66959" lon="16.13346">
        <ele>404.916074</ele>
        <time>2026-07-07T14:59:47.000Z</time>
      </trkpt>
      <trkpt lat="47.66955" lon="16.13346">
        <ele>404.894375</ele>
        <time>2026-07-07T14:59:48.000Z</time>
      </trkpt>
      <trkpt lat="47.6695" lon="16.13345">
        <ele>404.871832</ele>
        <time>2026-07-07T14:59:49.000Z</time>
      </trkpt>
      <trkpt lat="47.66945" lon="16.13344">
        <ele>404.849445</ele>
        <time>2026-07-07T14:59:50.000Z</time>
      </trkpt>
      <trkpt lat="47.66941" lon="16.13343">
        <ele>404.827697</ele>
        <time>2026-07-07T14:59:51.000Z</time>
      </trkpt>
      <trkpt lat="47.66936" lon="16.13343">
        <ele>404.805536</ele>
        <time>2026-07-07T14:59:52.000Z</time>
      </trkpt>
      <trkpt lat="47.66931" lon="16.13343">
        <ele>404.783365</ele>
        <time>2026-07-07T14:59:53.000Z</time>
      </trkpt>
      <trkpt lat="47.66927" lon="16.13343">
        <ele>404.760724</ele>
        <time>2026-07-07T14:59:54.000Z</time>
      </trkpt>
      <trkpt lat="47.66922" lon="16.13343">
        <ele>404.73856</ele>
        <time>2026-07-07T14:59:55.000Z</time>
      </trkpt>
      <trkpt lat="47.66917" lon="16.13344">
        <ele>404.716757</ele>
        <time>2026-07-07T14:59:56.000Z</time>
      </trkpt>
      <trkpt lat="47.66912" lon="16.13345">
        <ele>404.693436</ele>
        <time>2026-07-07T14:59:57.000Z</time>
      </trkpt>
      <trkpt lat="47.66908" lon="16.13346">
        <ele>404.670484</ele>
        <time>2026-07-07T14:59:58.000Z</time>
      </trkpt>
      <trkpt lat="47.66903" lon="16.13347">
        <ele>404.662602</ele>
        <time>2026-07-07T14:59:59.000Z</time>
      </trkpt>
      <trkpt lat="47.66898" lon="16.13349">
        <ele>404.659797</ele>
        <time>2026-07-07T15:00:00.000Z</time>
      </trkpt>
      <trkpt lat="47.66894" lon="16.1335">
        <ele>404.656908</ele>
        <time>2026-07-07T15:00:01.000Z</time>
      </trkpt>
      <trkpt lat="47.66889" lon="16.13352">
        <ele>404.654086</ele>
        <time>2026-07-07T15:00:02.000Z</time>
      </trkpt>
      <trkpt lat="47.66885" lon="16.13355">
        <ele>404.651082</ele>
        <time>2026-07-07T15:00:03.000Z</time>
      </trkpt>
      <trkpt lat="47.6688" lon="16.13357">
        <ele>404.648089</ele>
        <time>2026-07-07T15:00:04.000Z</time>
      </trkpt>
      <trkpt lat="47.66876" lon="16.1336">
        <ele>404.645063</ele>
        <time>2026-07-07T15:00:05.000Z</time>
      </trkpt>
      <trkpt lat="47.66871" lon="16.13364">
        <ele>404.641892</ele>
        <time>2026-07-07T15:00:06.000Z</time>
      </trkpt>
      <trkpt lat="47.66866" lon="16.13367">
        <ele>404.638703</ele>
        <time>2026-07-07T15:00:07.000Z</time>
      </trkpt>
      <trkpt lat="47.66862" lon="16.1337">
        <ele>404.635606</ele>
        <time>2026-07-07T15:00:08.000Z</time>
      </trkpt>
      <trkpt lat="47.66857" lon="16.13374">
        <ele>404.63249</ele>
        <time>2026-07-07T15:00:09.000Z</time>
      </trkpt>
      <trkpt lat="47.66853" lon="16.13377">
        <ele>404.62921</ele>
        <time>2026-07-07T15:00:10.000Z</time>
      </trkpt>
      <trkpt lat="47.66848" lon="16.13381">
        <ele>404.625966</ele>
        <time>2026-07-07T15:00:11.000Z</time>
      </trkpt>
      <trkpt lat="47.66843" lon="16.13384">
        <ele>404.622888</ele>
        <time>2026-07-07T15:00:12.000Z</time>
      </trkpt>
      <trkpt lat="47.66839" lon="16.13387">
        <ele>404.619772</ele>
        <time>2026-07-07T15:00:13.000Z</time>
      </trkpt>
      <trkpt lat="47.66834" lon="16.13392">
        <ele>404.616564</ele>
        <time>2026-07-07T15:00:14.000Z</time>
      </trkpt>
      <trkpt lat="47.6683" lon="16.13396">
        <ele>404.613508</ele>
        <time>2026-07-07T15:00:15.000Z</time>
      </trkpt>
      <trkpt lat="47.66826" lon="16.134">
        <ele>404.610425</ele>
        <time>2026-07-07T15:00:16.000Z</time>
      </trkpt>
      <trkpt lat="47.66822" lon="16.13404">
        <ele>404.607273</ele>
        <time>2026-07-07T15:00:17.000Z</time>
      </trkpt>
      <trkpt lat="47.66818" lon="16.13409">
        <ele>404.604292</ele>
        <time>2026-07-07T15:00:18.000Z</time>
      </trkpt>
      <trkpt lat="47.66814" lon="16.13413">
        <ele>404.60109</ele>
        <time>2026-07-07T15:00:19.000Z</time>
      </trkpt>
      <trkpt lat="47.6681" lon="16.13418">
        <ele>404.59791</ele>
        <time>2026-07-07T15:00:20.000Z</time>
      </trkpt>
      <trkpt lat="47.66806" lon="16.13423">
        <ele>404.594903</ele>
        <time>2026-07-07T15:00:21.000Z</time>
      </trkpt>
      <trkpt lat="47.66802" lon="16.13428">
        <ele>404.591789</ele>
        <time>2026-07-07T15:00:22.000Z</time>
      </trkpt>
      <trkpt lat="47.66798" lon="16.13433">
        <ele>404.588574</ele>
        <time>2026-07-07T15:00:23.000Z</time>
      </trkpt>
      <trkpt lat="47.66795" lon="16.13438">
        <ele>404.585493</ele>
        <time>2026-07-07T15:00:24.000Z</time>
      </trkpt>
      <trkpt lat="47.66791" lon="16.13444">
        <ele>404.582282</ele>
        <time>2026-07-07T15:00:25.000Z</time>
      </trkpt>
      <trkpt lat="47.66788" lon="16.13449">
        <ele>404.579303</ele>
        <time>2026-07-07T15:00:26.000Z</time>
      </trkpt>
      <trkpt lat="47.66784" lon="16.13454">
        <ele>404.576295</ele>
        <time>2026-07-07T15:00:27.000Z</time>
      </trkpt>
      <trkpt lat="47.66781" lon="16.1346">
        <ele>404.57323</ele>
        <time>2026-07-07T15:00:28.000Z</time>
      </trkpt>
      <trkpt lat="47.66778" lon="16.13465">
        <ele>404.570282</ele>
        <time>2026-07-07T15:00:29.000Z</time>
      </trkpt>
      <trkpt lat="47.66775" lon="16.13471">
        <ele>404.567404</ele>
        <time>2026-07-07T15:00:30.000Z</time>
      </trkpt>
      <trkpt lat="47.66773" lon="16.13477">
        <ele>404.564389</ele>
        <time>2026-07-07T15:00:31.000Z</time>
      </trkpt>
      <trkpt lat="47.66769" lon="16.13483">
        <ele>404.561252</ele>
        <time>2026-07-07T15:00:32.000Z</time>
      </trkpt>
      <trkpt lat="47.66766" lon="16.13489">
        <ele>404.558187</ele>
        <time>2026-07-07T15:00:33.000Z</time>
      </trkpt>
      <trkpt lat="47.66763" lon="16.13494">
        <ele>404.555166</ele>
        <time>2026-07-07T15:00:34.000Z</time>
      </trkpt>
      <trkpt lat="47.6676" lon="16.135">
        <ele>404.574185</ele>
        <time>2026-07-07T15:00:35.000Z</time>
      </trkpt>
      <trkpt lat="47.66757" lon="16.13506">
        <ele>404.600028</ele>
        <time>2026-07-07T15:00:36.000Z</time>
      </trkpt>
      <trkpt lat="47.66755" lon="16.13511">
        <ele>404.62495</ele>
        <time>2026-07-07T15:00:37.000Z</time>
      </trkpt>
      <trkpt lat="47.66751" lon="16.13516">
        <ele>404.651385</ele>
        <time>2026-07-07T15:00:38.000Z</time>
      </trkpt>
      <trkpt lat="47.66748" lon="16.13521">
        <ele>404.677158</ele>
        <time>2026-07-07T15:00:39.000Z</time>
      </trkpt>
      <trkpt lat="47.66745" lon="16.13525">
        <ele>404.701523</ele>
        <time>2026-07-07T15:00:40.000Z</time>
      </trkpt>
      <trkpt lat="47.66741" lon="16.13529">
        <ele>404.724926</ele>
        <time>2026-07-07T15:00:41.000Z</time>
      </trkpt>
      <trkpt lat="47.66738" lon="16.13533">
        <ele>404.748316</ele>
        <time>2026-07-07T15:00:42.000Z</time>
      </trkpt>
      <trkpt lat="47.66734" lon="16.13536">
        <ele>404.771044</ele>
        <time>2026-07-07T15:00:43.000Z</time>
      </trkpt>
      <trkpt lat="47.66731" lon="16.1354">
        <ele>404.793323</ele>
        <time>2026-07-07T15:00:44.000Z</time>
      </trkpt>
      <trkpt lat="47.66728" lon="16.13544">
        <ele>404.815604</ele>
        <time>2026-07-07T15:00:45.000Z</time>
      </trkpt>
      <trkpt lat="47.66725" lon="16.13547">
        <ele>404.838321</ele>
        <time>2026-07-07T15:00:46.000Z</time>
      </trkpt>
      <trkpt lat="47.66721" lon="16.13551">
        <ele>404.862033</ele>
        <time>2026-07-07T15:00:47.000Z</time>
      </trkpt>
      <trkpt lat="47.66717" lon="16.13554">
        <ele>404.888624</ele>
        <time>2026-07-07T15:00:48.000Z</time>
      </trkpt>
      <trkpt lat="47.66712" lon="16.13557">
        <ele>404.916035</ele>
        <time>2026-07-07T15:00:49.000Z</time>
      </trkpt>
      <trkpt lat="47.66707" lon="16.1356">
        <ele>404.94414</ele>
        <time>2026-07-07T15:00:50.000Z</time>
      </trkpt>
      <trkpt lat="47.66703" lon="16.13563">
        <ele>404.97155</ele>
        <time>2026-07-07T15:00:51.000Z</time>
      </trkpt>
      <trkpt lat="47.66698" lon="16.13567">
        <ele>404.999123</ele>
        <time>2026-07-07T15:00:52.000Z</time>
      </trkpt>
      <trkpt lat="47.66694" lon="16.1357">
        <ele>405.027518</ele>
        <time>2026-07-07T15:00:53.000Z</time>
      </trkpt>
      <trkpt lat="47.66689" lon="16.13573">
        <ele>405.057077</ele>
        <time>2026-07-07T15:00:54.000Z</time>
      </trkpt>
      <trkpt lat="47.66684" lon="16.13577">
        <ele>405.085473</ele>
        <time>2026-07-07T15:00:55.000Z</time>
      </trkpt>
      <trkpt lat="47.66679" lon="16.1358">
        <ele>405.115186</ele>
        <time>2026-07-07T15:00:56.000Z</time>
      </trkpt>
      <trkpt lat="47.66675" lon="16.13584">
        <ele>405.143752</ele>
        <time>2026-07-07T15:00:57.000Z</time>
      </trkpt>
      <trkpt lat="47.6667" lon="16.13587">
        <ele>405.173624</ele>
        <time>2026-07-07T15:00:58.000Z</time>
      </trkpt>
      <trkpt lat="47.66665" lon="16.13591">
        <ele>405.203836</ele>
        <time>2026-07-07T15:00:59.000Z</time>
      </trkpt>
      <trkpt lat="47.6666" lon="16.13594">
        <ele>405.231902</ele>
        <time>2026-07-07T15:01:00.000Z</time>
      </trkpt>
      <trkpt lat="47.66655" lon="16.13597">
        <ele>405.26126</ele>
        <time>2026-07-07T15:01:01.000Z</time>
      </trkpt>
      <trkpt lat="47.6665" lon="16.13599">
        <ele>405.290128</ele>
        <time>2026-07-07T15:01:02.000Z</time>
      </trkpt>
      <trkpt lat="47.66645" lon="16.13602">
        <ele>405.31836</ele>
        <time>2026-07-07T15:01:03.000Z</time>
      </trkpt>
      <trkpt lat="47.66641" lon="16.13604">
        <ele>405.346069</ele>
        <time>2026-07-07T15:01:04.000Z</time>
      </trkpt>
      <trkpt lat="47.66636" lon="16.13606">
        <ele>405.374249</ele>
        <time>2026-07-07T15:01:05.000Z</time>
      </trkpt>
      <trkpt lat="47.6663" lon="16.13607">
        <ele>405.403159</ele>
        <time>2026-07-07T15:01:06.000Z</time>
      </trkpt>
      <trkpt lat="47.66625" lon="16.13608">
        <ele>405.432426</ele>
        <time>2026-07-07T15:01:07.000Z</time>
      </trkpt>
      <trkpt lat="47.6662" lon="16.13608">
        <ele>405.461147</ele>
        <time>2026-07-07T15:01:08.000Z</time>
      </trkpt>
      <trkpt lat="47.66615" lon="16.1361">
        <ele>405.4906</ele>
        <time>2026-07-07T15:01:09.000Z</time>
      </trkpt>
      <trkpt lat="47.6661" lon="16.13611">
        <ele>405.518487</ele>
        <time>2026-07-07T15:01:10.000Z</time>
      </trkpt>
      <trkpt lat="47.66605" lon="16.13613">
        <ele>405.545422</ele>
        <time>2026-07-07T15:01:11.000Z</time>
      </trkpt>
      <trkpt lat="47.666" lon="16.13615">
        <ele>405.570315</ele>
        <time>2026-07-07T15:01:12.000Z</time>
      </trkpt>
      <trkpt lat="47.66595" lon="16.13617">
        <ele>405.595036</ele>
        <time>2026-07-07T15:01:13.000Z</time>
      </trkpt>
      <trkpt lat="47.6659" lon="16.1362">
        <ele>405.619654</ele>
        <time>2026-07-07T15:01:14.000Z</time>
      </trkpt>
      <trkpt lat="47.66585" lon="16.13622">
        <ele>405.645203</ele>
        <time>2026-07-07T15:01:15.000Z</time>
      </trkpt>
      <trkpt lat="47.6658" lon="16.13624">
        <ele>405.67019</ele>
        <time>2026-07-07T15:01:16.000Z</time>
      </trkpt>
      <trkpt lat="47.66576" lon="16.13627">
        <ele>405.695018</ele>
        <time>2026-07-07T15:01:17.000Z</time>
      </trkpt>
      <trkpt lat="47.66571" lon="16.13629">
        <ele>405.719071</ele>
        <time>2026-07-07T15:01:18.000Z</time>
      </trkpt>
      <trkpt lat="47.66566" lon="16.13631">
        <ele>405.743689</ele>
        <time>2026-07-07T15:01:19.000Z</time>
      </trkpt>
      <trkpt lat="47.66561" lon="16.13634">
        <ele>405.768057</ele>
        <time>2026-07-07T15:01:20.000Z</time>
      </trkpt>
      <trkpt lat="47.66557" lon="16.13636">
        <ele>405.791966</ele>
        <time>2026-07-07T15:01:21.000Z</time>
      </trkpt>
      <trkpt lat="47.66552" lon="16.13639">
        <ele>405.816684</ele>
        <time>2026-07-07T15:01:22.000Z</time>
      </trkpt>
      <trkpt lat="47.66547" lon="16.13641">
        <ele>405.841053</ele>
        <time>2026-07-07T15:01:23.000Z</time>
      </trkpt>
      <trkpt lat="47.66543" lon="16.13644">
        <ele>405.865774</ele>
        <time>2026-07-07T15:01:24.000Z</time>
      </trkpt>
      <trkpt lat="47.66538" lon="16.13646">
        <ele>405.890392</ele>
        <time>2026-07-07T15:01:25.000Z</time>
      </trkpt>
      <trkpt lat="47.66533" lon="16.13649">
        <ele>405.915681</ele>
        <time>2026-07-07T15:01:26.000Z</time>
      </trkpt>
      <trkpt lat="47.66528" lon="16.13651">
        <ele>405.940853</ele>
        <time>2026-07-07T15:01:27.000Z</time>
      </trkpt>
      <trkpt lat="47.66523" lon="16.13654">
        <ele>405.965695</ele>
        <time>2026-07-07T15:01:28.000Z</time>
      </trkpt>
      <trkpt lat="47.66519" lon="16.13657">
        <ele>405.98951</ele>
        <time>2026-07-07T15:01:29.000Z</time>
      </trkpt>
      <trkpt lat="47.66514" lon="16.1366">
        <ele>406.014033</ele>
        <time>2026-07-07T15:01:30.000Z</time>
      </trkpt>
      <trkpt lat="47.6651" lon="16.13663">
        <ele>406.038401</ele>
        <time>2026-07-07T15:01:31.000Z</time>
      </trkpt>
      <trkpt lat="47.66505" lon="16.13665">
        <ele>406.062769</ele>
        <time>2026-07-07T15:01:32.000Z</time>
      </trkpt>
      <trkpt lat="47.665" lon="16.13667">
        <ele>406.087387</ele>
        <time>2026-07-07T15:01:33.000Z</time>
      </trkpt>
      <trkpt lat="47.66495" lon="16.1367">
        <ele>406.111441</ele>
        <time>2026-07-07T15:01:34.000Z</time>
      </trkpt>
      <trkpt lat="47.66491" lon="16.13672">
        <ele>406.135132</ele>
        <time>2026-07-07T15:01:35.000Z</time>
      </trkpt>
      <trkpt lat="47.66486" lon="16.13674">
        <ele>406.158059</ele>
        <time>2026-07-07T15:01:36.000Z</time>
      </trkpt>
      <trkpt lat="47.66481" lon="16.13676">
        <ele>406.182778</ele>
        <time>2026-07-07T15:01:37.000Z</time>
      </trkpt>
      <trkpt lat="47.66477" lon="16.13678">
        <ele>406.207111</ele>
        <time>2026-07-07T15:01:38.000Z</time>
      </trkpt>
      <trkpt lat="47.66472" lon="16.1368">
        <ele>406.231445</ele>
        <time>2026-07-07T15:01:39.000Z</time>
      </trkpt>
      <trkpt lat="47.66467" lon="16.13682">
        <ele>406.256557</ele>
        <time>2026-07-07T15:01:40.000Z</time>
      </trkpt>
      <trkpt lat="47.66462" lon="16.13684">
        <ele>406.28164</ele>
        <time>2026-07-07T15:01:41.000Z</time>
      </trkpt>
      <trkpt lat="47.66457" lon="16.13686">
        <ele>406.305438</ele>
        <time>2026-07-07T15:01:42.000Z</time>
      </trkpt>
      <trkpt lat="47.66452" lon="16.13689">
        <ele>406.331296</ele>
        <time>2026-07-07T15:01:43.000Z</time>
      </trkpt>
      <trkpt lat="47.66447" lon="16.13692">
        <ele>406.357265</ele>
        <time>2026-07-07T15:01:44.000Z</time>
      </trkpt>
      <trkpt lat="47.66442" lon="16.13694">
        <ele>406.383016</ele>
        <time>2026-07-07T15:01:45.000Z</time>
      </trkpt>
      <trkpt lat="47.66437" lon="16.13697">
        <ele>406.409695</ele>
        <time>2026-07-07T15:01:46.000Z</time>
      </trkpt>
      <trkpt lat="47.66432" lon="16.13699">
        <ele>406.434926</ele>
        <time>2026-07-07T15:01:47.000Z</time>
      </trkpt>
      <trkpt lat="47.66427" lon="16.13702">
        <ele>406.459046</ele>
        <time>2026-07-07T15:01:48.000Z</time>
      </trkpt>
      <trkpt lat="47.66422" lon="16.13705">
        <ele>406.483567</ele>
        <time>2026-07-07T15:01:49.000Z</time>
      </trkpt>
      <trkpt lat="47.66417" lon="16.13709">
        <ele>406.507953</ele>
        <time>2026-07-07T15:01:50.000Z</time>
      </trkpt>
      <trkpt lat="47.66412" lon="16.13713">
        <ele>406.532083</ele>
        <time>2026-07-07T15:01:51.000Z</time>
      </trkpt>
      <trkpt lat="47.66408" lon="16.13716">
        <ele>406.55448</ele>
        <time>2026-07-07T15:01:52.000Z</time>
      </trkpt>
      <trkpt lat="47.66403" lon="16.13719">
        <ele>406.577981</ele>
        <time>2026-07-07T15:01:53.000Z</time>
      </trkpt>
      <trkpt lat="47.66397" lon="16.13721">
        <ele>406.601809</ele>
        <time>2026-07-07T15:01:54.000Z</time>
      </trkpt>
      <trkpt lat="47.66392" lon="16.13722">
        <ele>406.625592</ele>
        <time>2026-07-07T15:01:55.000Z</time>
      </trkpt>
      <trkpt lat="47.66387" lon="16.13723">
        <ele>406.649224</ele>
        <time>2026-07-07T15:01:56.000Z</time>
      </trkpt>
      <trkpt lat="47.66381" lon="16.13723">
        <ele>406.673651</ele>
        <time>2026-07-07T15:01:57.000Z</time>
      </trkpt>
      <trkpt lat="47.66376" lon="16.13723">
        <ele>406.697635</ele>
        <time>2026-07-07T15:01:58.000Z</time>
      </trkpt>
      <trkpt lat="47.66371" lon="16.13722">
        <ele>406.721266</ele>
        <time>2026-07-07T15:01:59.000Z</time>
      </trkpt>
      <trkpt lat="47.66365" lon="16.1372">
        <ele>406.744952</ele>
        <time>2026-07-07T15:02:00.000Z</time>
      </trkpt>
      <trkpt lat="47.6636" lon="16.13718">
        <ele>406.768356</ele>
        <time>2026-07-07T15:02:01.000Z</time>
      </trkpt>
      <trkpt lat="47.66355" lon="16.13715">
        <ele>406.792168</ele>
        <time>2026-07-07T15:02:02.000Z</time>
      </trkpt>
      <trkpt lat="47.6635" lon="16.13712">
        <ele>406.815571</ele>
        <time>2026-07-07T15:02:03.000Z</time>
      </trkpt>
      <trkpt lat="47.66345" lon="16.1371">
        <ele>406.838975</ele>
        <time>2026-07-07T15:02:04.000Z</time>
      </trkpt>
      <trkpt lat="47.66341" lon="16.13707">
        <ele>406.861852</ele>
        <time>2026-07-07T15:02:05.000Z</time>
      </trkpt>
      <trkpt lat="47.66336" lon="16.13704">
        <ele>406.884954</ele>
        <time>2026-07-07T15:02:06.000Z</time>
      </trkpt>
      <trkpt lat="47.66331" lon="16.13702">
        <ele>406.907101</ele>
        <time>2026-07-07T15:02:07.000Z</time>
      </trkpt>
      <trkpt lat="47.66327" lon="16.137">
        <ele>406.927559</ele>
        <time>2026-07-07T15:02:08.000Z</time>
      </trkpt>
      <trkpt lat="47.66322" lon="16.137">
        <ele>406.948428</ele>
        <time>2026-07-07T15:02:09.000Z</time>
      </trkpt>
      <trkpt lat="47.66318" lon="16.13699">
        <ele>406.966676</ele>
        <time>2026-07-07T15:02:10.000Z</time>
      </trkpt>
      <trkpt lat="47.66315" lon="16.13697">
        <ele>406.982319</ele>
        <time>2026-07-07T15:02:11.000Z</time>
      </trkpt>
      <trkpt lat="47.66313" lon="16.13694">
        <ele>406.99426</ele>
        <time>2026-07-07T15:02:12.000Z</time>
      </trkpt>
      <trkpt lat="47.66313" lon="16.13689">
        <ele>407.007229</ele>
        <time>2026-07-07T15:02:13.000Z</time>
      </trkpt>
      <trkpt lat="47.66313" lon="16.13685">
        <ele>407.02056</ele>
        <time>2026-07-07T15:02:14.000Z</time>
      </trkpt>
      <trkpt lat="47.66314" lon="16.1368">
        <ele>407.036143</ele>
        <time>2026-07-07T15:02:15.000Z</time>
      </trkpt>
      <trkpt lat="47.66315" lon="16.13674">
        <ele>407.053163</ele>
        <time>2026-07-07T15:02:16.000Z</time>
      </trkpt>
      <trkpt lat="47.66316" lon="16.13669">
        <ele>407.071049</ele>
        <time>2026-07-07T15:02:17.000Z</time>
      </trkpt>
      <trkpt lat="47.66317" lon="16.13663">
        <ele>407.088647</ele>
        <time>2026-07-07T15:02:18.000Z</time>
      </trkpt>
      <trkpt lat="47.66318" lon="16.13657">
        <ele>407.105955</ele>
        <time>2026-07-07T15:02:19.000Z</time>
      </trkpt>
      <trkpt lat="47.66319" lon="16.13652">
        <ele>407.123553</ele>
        <time>2026-07-07T15:02:20.000Z</time>
      </trkpt>
      <trkpt lat="47.66319" lon="16.13646">
        <ele>407.140932</ele>
        <time>2026-07-07T15:02:21.000Z</time>
      </trkpt>
      <trkpt lat="47.66318" lon="16.1364">
        <ele>407.157361</ele>
        <time>2026-07-07T15:02:22.000Z</time>
      </trkpt>
      <trkpt lat="47.66318" lon="16.13636">
        <ele>407.171265</ele>
        <time>2026-07-07T15:02:23.000Z</time>
      </trkpt>
      <trkpt lat="47.66316" lon="16.13632">
        <ele>407.184534</ele>
        <time>2026-07-07T15:02:24.000Z</time>
      </trkpt>
      <trkpt lat="47.66316" lon="16.13627">
        <ele>407.198875</ele>
        <time>2026-07-07T15:02:25.000Z</time>
      </trkpt>
      <trkpt lat="47.66315" lon="16.13622">
        <ele>407.215031</ele>
        <time>2026-07-07T15:02:26.000Z</time>
      </trkpt>
      <trkpt lat="47.66313" lon="16.13616">
        <ele>407.223135</ele>
        <time>2026-07-07T15:02:27.000Z</time>
      </trkpt>
      <trkpt lat="47.66312" lon="16.13608">
        <ele>407.229459</ele>
        <time>2026-07-07T15:02:28.000Z</time>
      </trkpt>
      <trkpt lat="47.6631" lon="16.136">
        <ele>407.236367</ele>
        <time>2026-07-07T15:02:29.000Z</time>
      </trkpt>
      <trkpt lat="47.66309" lon="16.13592">
        <ele>407.243109</ele>
        <time>2026-07-07T15:02:30.000Z</time>
      </trkpt>
      <trkpt lat="47.66308" lon="16.13585">
        <ele>407.249525</ele>
        <time>2026-07-07T15:02:31.000Z</time>
      </trkpt>
      <trkpt lat="47.66308" lon="16.13577">
        <ele>407.25576</ele>
        <time>2026-07-07T15:02:32.000Z</time>
      </trkpt>
      <trkpt lat="47.66306" lon="16.1357">
        <ele>407.261888</ele>
        <time>2026-07-07T15:02:33.000Z</time>
      </trkpt>
      <trkpt lat="47.66303" lon="16.13564">
        <ele>407.267625</ele>
        <time>2026-07-07T15:02:34.000Z</time>
      </trkpt>
      <trkpt lat="47.663" lon="16.1356">
        <ele>407.273128</ele>
        <time>2026-07-07T15:02:35.000Z</time>
      </trkpt>
      <trkpt lat="47.66296" lon="16.13557">
        <ele>407.278757</ele>
        <time>2026-07-07T15:02:36.000Z</time>
      </trkpt>
      <trkpt lat="47.66291" lon="16.13556">
        <ele>407.284396</ele>
        <time>2026-07-07T15:02:37.000Z</time>
      </trkpt>
      <trkpt lat="47.66286" lon="16.13555">
        <ele>407.290323</ele>
        <time>2026-07-07T15:02:38.000Z</time>
      </trkpt>
      <trkpt lat="47.66281" lon="16.13553">
        <ele>407.296424</ele>
        <time>2026-07-07T15:02:39.000Z</time>
      </trkpt>
      <trkpt lat="47.66276" lon="16.13552">
        <ele>407.302661</ele>
        <time>2026-07-07T15:02:40.000Z</time>
      </trkpt>
      <trkpt lat="47.66271" lon="16.1355">
        <ele>407.308952</ele>
        <time>2026-07-07T15:02:41.000Z</time>
      </trkpt>
      <trkpt lat="47.66266" lon="16.13548">
        <ele>407.315224</ele>
        <time>2026-07-07T15:02:42.000Z</time>
      </trkpt>
      <trkpt lat="47.66261" lon="16.13547">
        <ele>407.321461</ele>
        <time>2026-07-07T15:02:43.000Z</time>
      </trkpt>
      <trkpt lat="47.66256" lon="16.13545">
        <ele>407.327715</ele>
        <time>2026-07-07T15:02:44.000Z</time>
      </trkpt>
      <trkpt lat="47.66251" lon="16.13543">
        <ele>407.334025</ele>
        <time>2026-07-07T15:02:45.000Z</time>
      </trkpt>
      <trkpt lat="47.66246" lon="16.13542">
        <ele>407.340279</ele>
        <time>2026-07-07T15:02:46.000Z</time>
      </trkpt>
      <trkpt lat="47.66241" lon="16.1354">
        <ele>407.346551</ele>
        <time>2026-07-07T15:02:47.000Z</time>
      </trkpt>
      <trkpt lat="47.66236" lon="16.13538">
        <ele>407.352823</ele>
        <time>2026-07-07T15:02:48.000Z</time>
      </trkpt>
      <trkpt lat="47.66231" lon="16.13537">
        <ele>407.359077</ele>
        <time>2026-07-07T15:02:49.000Z</time>
      </trkpt>
      <trkpt lat="47.66227" lon="16.13535">
        <ele>407.365151</ele>
        <time>2026-07-07T15:02:50.000Z</time>
      </trkpt>
      <trkpt lat="47.66222" lon="16.13533">
        <ele>407.371551</ele>
        <time>2026-07-07T15:02:51.000Z</time>
      </trkpt>
      <trkpt lat="47.66217" lon="16.1353">
        <ele>407.377656</ele>
        <time>2026-07-07T15:02:52.000Z</time>
      </trkpt>
      <trkpt lat="47.66212" lon="16.13527">
        <ele>407.383687</ele>
        <time>2026-07-07T15:02:53.000Z</time>
      </trkpt>
      <trkpt lat="47.66208" lon="16.13523">
        <ele>407.389554</ele>
        <time>2026-07-07T15:02:54.000Z</time>
      </trkpt>
      <trkpt lat="47.66204" lon="16.13519">
        <ele>407.395497</ele>
        <time>2026-07-07T15:02:55.000Z</time>
      </trkpt>
      <trkpt lat="47.662" lon="16.13515">
        <ele>407.401536</ele>
        <time>2026-07-07T15:02:56.000Z</time>
      </trkpt>
      <trkpt lat="47.66197" lon="16.1351">
        <ele>407.407583</ele>
        <time>2026-07-07T15:02:57.000Z</time>
      </trkpt>
      <trkpt lat="47.66193" lon="16.13505">
        <ele>407.413872</ele>
        <time>2026-07-07T15:02:58.000Z</time>
      </trkpt>
      <trkpt lat="47.66189" lon="16.135">
        <ele>407.42008</ele>
        <time>2026-07-07T15:02:59.000Z</time>
      </trkpt>
      <trkpt lat="47.66185" lon="16.13495">
        <ele>407.42638</ele>
        <time>2026-07-07T15:03:00.000Z</time>
      </trkpt>
      <trkpt lat="47.66182" lon="16.1349">
        <ele>407.432385</ele>
        <time>2026-07-07T15:03:01.000Z</time>
      </trkpt>
      <trkpt lat="47.66178" lon="16.13484">
        <ele>407.438962</ele>
        <time>2026-07-07T15:03:02.000Z</time>
      </trkpt>
      <trkpt lat="47.66175" lon="16.13478">
        <ele>407.454663</ele>
        <time>2026-07-07T15:03:03.000Z</time>
      </trkpt>
      <trkpt lat="47.66172" lon="16.13472">
        <ele>407.471045</ele>
        <time>2026-07-07T15:03:04.000Z</time>
      </trkpt>
      <trkpt lat="47.66169" lon="16.13465">
        <ele>407.487594</ele>
        <time>2026-07-07T15:03:05.000Z</time>
      </trkpt>
      <trkpt lat="47.66166" lon="16.13459">
        <ele>407.504661</ele>
        <time>2026-07-07T15:03:06.000Z</time>
      </trkpt>
      <trkpt lat="47.66162" lon="16.13452">
        <ele>407.521714</ele>
        <time>2026-07-07T15:03:07.000Z</time>
      </trkpt>
      <trkpt lat="47.66159" lon="16.13445">
        <ele>407.538591</ele>
        <time>2026-07-07T15:03:08.000Z</time>
      </trkpt>
      <trkpt lat="47.66156" lon="16.13439">
        <ele>407.555678</ele>
        <time>2026-07-07T15:03:09.000Z</time>
      </trkpt>
      <trkpt lat="47.66153" lon="16.13432">
        <ele>407.572578</ele>
        <time>2026-07-07T15:03:10.000Z</time>
      </trkpt>
      <trkpt lat="47.66149" lon="16.13426">
        <ele>407.589462</ele>
        <time>2026-07-07T15:03:11.000Z</time>
      </trkpt>
      <trkpt lat="47.66146" lon="16.13419">
        <ele>407.606689</ele>
        <time>2026-07-07T15:03:12.000Z</time>
      </trkpt>
      <trkpt lat="47.66144" lon="16.13412">
        <ele>407.623592</ele>
        <time>2026-07-07T15:03:13.000Z</time>
      </trkpt>
      <trkpt lat="47.66141" lon="16.13405">
        <ele>407.640644</ele>
        <time>2026-07-07T15:03:14.000Z</time>
      </trkpt>
      <trkpt lat="47.66138" lon="16.13398">
        <ele>407.657176</ele>
        <time>2026-07-07T15:03:15.000Z</time>
      </trkpt>
      <trkpt lat="47.66134" lon="16.13392">
        <ele>407.673972</ele>
        <time>2026-07-07T15:03:16.000Z</time>
      </trkpt>
      <trkpt lat="47.6613" lon="16.13386">
        <ele>407.690623</ele>
        <time>2026-07-07T15:03:17.000Z</time>
      </trkpt>
      <trkpt lat="47.66126" lon="16.13382">
        <ele>407.707455</ele>
        <time>2026-07-07T15:03:18.000Z</time>
      </trkpt>
      <trkpt lat="47.66121" lon="16.13377">
        <ele>407.724211</ele>
        <time>2026-07-07T15:03:19.000Z</time>
      </trkpt>
      <trkpt lat="47.66117" lon="16.13373">
        <ele>407.740274</ele>
        <time>2026-07-07T15:03:20.000Z</time>
      </trkpt>
      <trkpt lat="47.66112" lon="16.13369">
        <ele>407.756974</ele>
        <time>2026-07-07T15:03:21.000Z</time>
      </trkpt>
      <trkpt lat="47.66107" lon="16.13366">
        <ele>407.773459</ele>
        <time>2026-07-07T15:03:22.000Z</time>
      </trkpt>
      <trkpt lat="47.66102" lon="16.13362">
        <ele>407.790221</ele>
        <time>2026-07-07T15:03:23.000Z</time>
      </trkpt>
      <trkpt lat="47.66098" lon="16.13359">
        <ele>407.806798</ele>
        <time>2026-07-07T15:03:24.000Z</time>
      </trkpt>
      <trkpt lat="47.66093" lon="16.13355">
        <ele>407.823283</ele>
        <time>2026-07-07T15:03:25.000Z</time>
      </trkpt>
      <trkpt lat="47.66088" lon="16.13352">
        <ele>407.839785</ele>
        <time>2026-07-07T15:03:26.000Z</time>
      </trkpt>
      <trkpt lat="47.66083" lon="16.13349">
        <ele>407.856005</ele>
        <time>2026-07-07T15:03:27.000Z</time>
      </trkpt>
      <trkpt lat="47.66078" lon="16.13346">
        <ele>407.872629</ele>
        <time>2026-07-07T15:03:28.000Z</time>
      </trkpt>
      <trkpt lat="47.66073" lon="16.13343">
        <ele>407.888241</ele>
        <time>2026-07-07T15:03:29.000Z</time>
      </trkpt>
      <trkpt lat="47.66069" lon="16.13341">
        <ele>407.903052</ele>
        <time>2026-07-07T15:03:30.000Z</time>
      </trkpt>
      <trkpt lat="47.66065" lon="16.13337">
        <ele>407.917059</ele>
        <time>2026-07-07T15:03:31.000Z</time>
      </trkpt>
      <trkpt lat="47.66062" lon="16.13334">
        <ele>407.929932</ele>
        <time>2026-07-07T15:03:32.000Z</time>
      </trkpt>
      <trkpt lat="47.66059" lon="16.1333">
        <ele>407.940814</ele>
        <time>2026-07-07T15:03:33.000Z</time>
      </trkpt>
      <trkpt lat="47.66057" lon="16.13327">
        <ele>407.948954</ele>
        <time>2026-07-07T15:03:34.000Z</time>
      </trkpt>
      <trkpt lat="47.66056" lon="16.13324">
        <ele>407.955512</ele>
        <time>2026-07-07T15:03:35.000Z</time>
      </trkpt>
      <trkpt lat="47.66055" lon="16.13322">
        <ele>407.961746</ele>
        <time>2026-07-07T15:03:36.000Z</time>
      </trkpt>
      <trkpt lat="47.66053" lon="16.1332">
        <ele>407.969173</ele>
        <time>2026-07-07T15:03:37.000Z</time>
      </trkpt>
      <trkpt lat="47.6605" lon="16.13318">
        <ele>407.97785</ele>
        <time>2026-07-07T15:03:38.000Z</time>
      </trkpt>
      <trkpt lat="47.66047" lon="16.13317">
        <ele>407.987748</ele>
        <time>2026-07-07T15:03:39.000Z</time>
      </trkpt>
      <trkpt lat="47.66044" lon="16.13314">
        <ele>408.006322</ele>
        <time>2026-07-07T15:03:40.000Z</time>
      </trkpt>
      <trkpt lat="47.6604" lon="16.13311">
        <ele>408.030609</ele>
        <time>2026-07-07T15:03:41.000Z</time>
      </trkpt>
      <trkpt lat="47.66036" lon="16.13308">
        <ele>408.057199</ele>
        <time>2026-07-07T15:03:42.000Z</time>
      </trkpt>
      <trkpt lat="47.66032" lon="16.13304">
        <ele>408.084587</ele>
        <time>2026-07-07T15:03:43.000Z</time>
      </trkpt>
      <trkpt lat="47.66028" lon="16.133">
        <ele>408.110419</ele>
        <time>2026-07-07T15:03:44.000Z</time>
      </trkpt>
      <trkpt lat="47.66024" lon="16.13297">
        <ele>408.13659</ele>
        <time>2026-07-07T15:03:45.000Z</time>
      </trkpt>
      <trkpt lat="47.6602" lon="16.13295">
        <ele>408.162444</ele>
        <time>2026-07-07T15:03:46.000Z</time>
      </trkpt>
      <trkpt lat="47.66015" lon="16.13293">
        <ele>408.188059</ele>
        <time>2026-07-07T15:03:47.000Z</time>
      </trkpt>
      <trkpt lat="47.66011" lon="16.13291">
        <ele>408.215651</ele>
        <time>2026-07-07T15:03:48.000Z</time>
      </trkpt>
      <trkpt lat="47.66006" lon="16.13289">
        <ele>408.243702</ele>
        <time>2026-07-07T15:03:49.000Z</time>
      </trkpt>
      <trkpt lat="47.66001" lon="16.13288">
        <ele>408.271113</ele>
        <time>2026-07-07T15:03:50.000Z</time>
      </trkpt>
      <trkpt lat="47.65996" lon="16.13286">
        <ele>408.299352</ele>
        <time>2026-07-07T15:03:51.000Z</time>
      </trkpt>
      <trkpt lat="47.65991" lon="16.13284">
        <ele>408.328598</ele>
        <time>2026-07-07T15:03:52.000Z</time>
      </trkpt>
      <trkpt lat="47.65986" lon="16.13282">
        <ele>408.357203</ele>
        <time>2026-07-07T15:03:53.000Z</time>
      </trkpt>
      <trkpt lat="47.65982" lon="16.13281">
        <ele>408.385168</ele>
        <time>2026-07-07T15:03:54.000Z</time>
      </trkpt>
      <trkpt lat="47.65977" lon="16.13279">
        <ele>408.414165</ele>
        <time>2026-07-07T15:03:55.000Z</time>
      </trkpt>
      <trkpt lat="47.65967" lon="16.13276">
        <ele>408.470412</ele>
        <time>2026-07-07T15:03:56.000Z</time>
      </trkpt>
      <trkpt lat="47.65962" lon="16.13275">
        <ele>408.499409</ele>
        <time>2026-07-07T15:03:57.000Z</time>
      </trkpt>
      <trkpt lat="47.65957" lon="16.13273">
        <ele>408.527374</ele>
        <time>2026-07-07T15:03:58.000Z</time>
      </trkpt>
      <trkpt lat="47.65952" lon="16.13272">
        <ele>408.555044</ele>
        <time>2026-07-07T15:03:59.000Z</time>
      </trkpt>
      <trkpt lat="47.65947" lon="16.13271">
        <ele>408.5839</ele>
        <time>2026-07-07T15:04:01.000Z</time>
      </trkpt>
      <trkpt lat="47.65937" lon="16.13268">
        <ele>408.641261</ele>
        <time>2026-07-07T15:04:02.000Z</time>
      </trkpt>
      <trkpt lat="47.65933" lon="16.13266">
        <ele>408.669145</ele>
        <time>2026-07-07T15:04:03.000Z</time>
      </trkpt>
      <trkpt lat="47.65928" lon="16.13265">
        <ele>408.698221</ele>
        <time>2026-07-07T15:04:04.000Z</time>
      </trkpt>
      <trkpt lat="47.65923" lon="16.13263">
        <ele>408.72646</ele>
        <time>2026-07-07T15:04:05.000Z</time>
      </trkpt>
      <trkpt lat="47.65918" lon="16.13261">
        <ele>408.754253</ele>
        <time>2026-07-07T15:04:06.000Z</time>
      </trkpt>
      <trkpt lat="47.65913" lon="16.13259">
        <ele>408.782218</ele>
        <time>2026-07-07T15:04:07.000Z</time>
      </trkpt>
      <trkpt lat="47.65909" lon="16.13258">
        <ele>408.809717</ele>
        <time>2026-07-07T15:04:08.000Z</time>
      </trkpt>
      <trkpt lat="47.65904" lon="16.13256">
        <ele>408.837308</ele>
        <time>2026-07-07T15:04:09.000Z</time>
      </trkpt>
      <trkpt lat="47.65899" lon="16.13254">
        <ele>408.864781</ele>
        <time>2026-07-07T15:04:10.000Z</time>
      </trkpt>
      <trkpt lat="47.65895" lon="16.13251">
        <ele>408.892794</ele>
        <time>2026-07-07T15:04:11.000Z</time>
      </trkpt>
      <trkpt lat="47.6589" lon="16.13249">
        <ele>408.920926</ele>
        <time>2026-07-07T15:04:12.000Z</time>
      </trkpt>
      <trkpt lat="47.65885" lon="16.13247">
        <ele>408.948173</ele>
        <time>2026-07-07T15:04:13.000Z</time>
      </trkpt>
      <trkpt lat="47.65881" lon="16.13245">
        <ele>408.975765</ele>
        <time>2026-07-07T15:04:14.000Z</time>
      </trkpt>
      <trkpt lat="47.65876" lon="16.13244">
        <ele>409.003435</ele>
        <time>2026-07-07T15:04:15.000Z</time>
      </trkpt>
      <trkpt lat="47.65871" lon="16.13243">
        <ele>409.035279</ele>
        <time>2026-07-07T15:04:16.000Z</time>
      </trkpt>
      <trkpt lat="47.65866" lon="16.13244">
        <ele>409.070485</ele>
        <time>2026-07-07T15:04:17.000Z</time>
      </trkpt>
      <trkpt lat="47.65861" lon="16.13245">
        <ele>409.104745</ele>
        <time>2026-07-07T15:04:18.000Z</time>
      </trkpt>
      <trkpt lat="47.65856" lon="16.13247">
        <ele>409.139835</ele>
        <time>2026-07-07T15:04:19.000Z</time>
      </trkpt>
      <trkpt lat="47.65852" lon="16.1325">
        <ele>409.173915</ele>
        <time>2026-07-07T15:04:20.000Z</time>
      </trkpt>
      <trkpt lat="47.65848" lon="16.13254">
        <ele>409.209136</ele>
        <time>2026-07-07T15:04:21.000Z</time>
      </trkpt>
      <trkpt lat="47.65844" lon="16.13259">
        <ele>409.244996</ele>
        <time>2026-07-07T15:04:22.000Z</time>
      </trkpt>
      <trkpt lat="47.65841" lon="16.13265">
        <ele>409.280098</ele>
        <time>2026-07-07T15:04:23.000Z</time>
      </trkpt>
      <trkpt lat="47.65838" lon="16.13271">
        <ele>409.315499</ele>
        <time>2026-07-07T15:04:24.000Z</time>
      </trkpt>
      <trkpt lat="47.65836" lon="16.13278">
        <ele>409.352422</ele>
        <time>2026-07-07T15:04:25.000Z</time>
      </trkpt>
      <trkpt lat="47.65833" lon="16.13285">
        <ele>409.38966</ele>
        <time>2026-07-07T15:04:26.000Z</time>
      </trkpt>
      <trkpt lat="47.65831" lon="16.13292">
        <ele>409.426857</ele>
        <time>2026-07-07T15:04:27.000Z</time>
      </trkpt>
      <trkpt lat="47.65829" lon="16.13299">
        <ele>409.464339</ele>
        <time>2026-07-07T15:04:28.000Z</time>
      </trkpt>
      <trkpt lat="47.65827" lon="16.13306">
        <ele>409.500386</ele>
        <time>2026-07-07T15:04:29.000Z</time>
      </trkpt>
      <trkpt lat="47.65825" lon="16.13313">
        <ele>409.536871</ele>
        <time>2026-07-07T15:04:30.000Z</time>
      </trkpt>
      <trkpt lat="47.65823" lon="16.13321">
        <ele>409.573281</ele>
        <time>2026-07-07T15:04:31.000Z</time>
      </trkpt>
      <trkpt lat="47.65821" lon="16.13327">
        <ele>409.608182</ele>
        <time>2026-07-07T15:04:32.000Z</time>
      </trkpt>
      <trkpt lat="47.6582" lon="16.13334">
        <ele>409.641883</ele>
        <time>2026-07-07T15:04:33.000Z</time>
      </trkpt>
      <trkpt lat="47.65818" lon="16.13341">
        <ele>409.675475</ele>
        <time>2026-07-07T15:04:34.000Z</time>
      </trkpt>
      <trkpt lat="47.65816" lon="16.13347">
        <ele>409.707918</ele>
        <time>2026-07-07T15:04:35.000Z</time>
      </trkpt>
      <trkpt lat="47.65815" lon="16.13353">
        <ele>409.738259</ele>
        <time>2026-07-07T15:04:36.000Z</time>
      </trkpt>
      <trkpt lat="47.65813" lon="16.13358">
        <ele>409.767891</ele>
        <time>2026-07-07T15:04:37.000Z</time>
      </trkpt>
      <trkpt lat="47.65809" lon="16.13362">
        <ele>409.797578</ele>
        <time>2026-07-07T15:04:38.000Z</time>
      </trkpt>
      <trkpt lat="47.65805" lon="16.13364">
        <ele>409.825935</ele>
        <time>2026-07-07T15:04:39.000Z</time>
      </trkpt>
      <trkpt lat="47.65801" lon="16.13363">
        <ele>409.8565</ele>
        <time>2026-07-07T15:04:40.000Z</time>
      </trkpt>
      <trkpt lat="47.65797" lon="16.13361">
        <ele>409.889303</ele>
        <time>2026-07-07T15:04:41.000Z</time>
      </trkpt>
      <trkpt lat="47.65792" lon="16.13359">
        <ele>409.922365</ele>
        <time>2026-07-07T15:04:42.000Z</time>
      </trkpt>
      <trkpt lat="47.65788" lon="16.13357">
        <ele>409.955168</ele>
        <time>2026-07-07T15:04:43.000Z</time>
      </trkpt>
      <trkpt lat="47.65783" lon="16.13356">
        <ele>409.989005</ele>
        <time>2026-07-07T15:04:44.000Z</time>
      </trkpt>
      <trkpt lat="47.65778" lon="16.13354">
        <ele>410.02397</ele>
        <time>2026-07-07T15:04:45.000Z</time>
      </trkpt>
      <trkpt lat="47.65773" lon="16.13352">
        <ele>410.058816</ele>
        <time>2026-07-07T15:04:46.000Z</time>
      </trkpt>
      <trkpt lat="47.65769" lon="16.1335">
        <ele>410.09298</ele>
        <time>2026-07-07T15:04:47.000Z</time>
      </trkpt>
      <trkpt lat="47.65764" lon="16.13349">
        <ele>410.127505</ele>
        <time>2026-07-07T15:04:48.000Z</time>
      </trkpt>
      <trkpt lat="47.65759" lon="16.13348">
        <ele>410.16246</ele>
        <time>2026-07-07T15:04:49.000Z</time>
      </trkpt>
      <trkpt lat="47.65754" lon="16.13347">
        <ele>410.196576</ele>
        <time>2026-07-07T15:04:50.000Z</time>
      </trkpt>
      <trkpt lat="47.65749" lon="16.13346">
        <ele>410.230523</ele>
        <time>2026-07-07T15:04:51.000Z</time>
      </trkpt>
      <trkpt lat="47.65744" lon="16.13346">
        <ele>410.265745</ele>
        <time>2026-07-07T15:04:52.000Z</time>
      </trkpt>
      <trkpt lat="47.65739" lon="16.13346">
        <ele>410.310195</ele>
        <time>2026-07-07T15:04:53.000Z</time>
      </trkpt>
      <trkpt lat="47.65734" lon="16.13347">
        <ele>410.358852</ele>
        <time>2026-07-07T15:04:54.000Z</time>
      </trkpt>
      <trkpt lat="47.65729" lon="16.13348">
        <ele>410.405908</ele>
        <time>2026-07-07T15:04:55.000Z</time>
      </trkpt>
      <trkpt lat="47.65725" lon="16.1335">
        <ele>410.452561</ele>
        <time>2026-07-07T15:04:56.000Z</time>
      </trkpt>
      <trkpt lat="47.6572" lon="16.13352">
        <ele>410.500642</ele>
        <time>2026-07-07T15:04:57.000Z</time>
      </trkpt>
      <trkpt lat="47.65715" lon="16.13354">
        <ele>410.550756</ele>
        <time>2026-07-07T15:04:58.000Z</time>
      </trkpt>
      <trkpt lat="47.6571" lon="16.13356">
        <ele>410.599766</ele>
        <time>2026-07-07T15:04:59.000Z</time>
      </trkpt>
      <trkpt lat="47.65705" lon="16.13357">
        <ele>410.645187</ele>
        <time>2026-07-07T15:05:00.000Z</time>
      </trkpt>
      <trkpt lat="47.657" lon="16.13359">
        <ele>410.693717</ele>
        <time>2026-07-07T15:05:01.000Z</time>
      </trkpt>
      <trkpt lat="47.65695" lon="16.13361">
        <ele>410.743186</ele>
        <time>2026-07-07T15:05:02.000Z</time>
      </trkpt>
      <trkpt lat="47.6569" lon="16.13362">
        <ele>410.793091</ele>
        <time>2026-07-07T15:05:03.000Z</time>
      </trkpt>
      <trkpt lat="47.65685" lon="16.13362">
        <ele>410.845207</ele>
        <time>2026-07-07T15:05:04.000Z</time>
      </trkpt>
      <trkpt lat="47.6568" lon="16.13361">
        <ele>410.894908</ele>
        <time>2026-07-07T15:05:05.000Z</time>
      </trkpt>
      <trkpt lat="47.65675" lon="16.13359">
        <ele>410.947426</ele>
        <time>2026-07-07T15:05:06.000Z</time>
      </trkpt>
      <trkpt lat="47.6567" lon="16.13356">
        <ele>410.996703</ele>
        <time>2026-07-07T15:05:07.000Z</time>
      </trkpt>
      <trkpt lat="47.65665" lon="16.13353">
        <ele>411.04782</ele>
        <time>2026-07-07T15:05:08.000Z</time>
      </trkpt>
      <trkpt lat="47.6566" lon="16.1335">
        <ele>411.097799</ele>
        <time>2026-07-07T15:05:09.000Z</time>
      </trkpt>
      <trkpt lat="47.65655" lon="16.13348">
        <ele>411.147536</ele>
        <time>2026-07-07T15:05:10.000Z</time>
      </trkpt>
      <trkpt lat="47.65651" lon="16.13344">
        <ele>411.197678</ele>
        <time>2026-07-07T15:05:11.000Z</time>
      </trkpt>
      <trkpt lat="47.65646" lon="16.13341">
        <ele>411.248984</ele>
        <time>2026-07-07T15:05:12.000Z</time>
      </trkpt>
      <trkpt lat="47.65641" lon="16.13337">
        <ele>411.299567</ele>
        <time>2026-07-07T15:05:13.000Z</time>
      </trkpt>
      <trkpt lat="47.65637" lon="16.13333">
        <ele>411.348506</ele>
        <time>2026-07-07T15:05:14.000Z</time>
      </trkpt>
      <trkpt lat="47.65633" lon="16.13329">
        <ele>411.397444</ele>
        <time>2026-07-07T15:05:15.000Z</time>
      </trkpt>
      <trkpt lat="47.65629" lon="16.13324">
        <ele>411.446282</ele>
        <time>2026-07-07T15:05:16.000Z</time>
      </trkpt>
      <trkpt lat="47.65624" lon="16.1332">
        <ele>411.494759</ele>
        <time>2026-07-07T15:05:17.000Z</time>
      </trkpt>
      <trkpt lat="47.6562" lon="16.13316">
        <ele>411.543356</ele>
        <time>2026-07-07T15:05:18.000Z</time>
      </trkpt>
      <trkpt lat="47.65616" lon="16.13313">
        <ele>411.590966</ele>
        <time>2026-07-07T15:05:19.000Z</time>
      </trkpt>
      <trkpt lat="47.65611" lon="16.1331">
        <ele>411.638218</ele>
        <time>2026-07-07T15:05:20.000Z</time>
      </trkpt>
      <trkpt lat="47.65607" lon="16.13307">
        <ele>411.684039</ele>
        <time>2026-07-07T15:05:21.000Z</time>
      </trkpt>
      <trkpt lat="47.65603" lon="16.13303">
        <ele>411.73049</ele>
        <time>2026-07-07T15:05:22.000Z</time>
      </trkpt>
      <trkpt lat="47.65599" lon="16.13299">
        <ele>411.778422</ele>
        <time>2026-07-07T15:05:23.000Z</time>
      </trkpt>
      <trkpt lat="47.65594" lon="16.13295">
        <ele>411.827709</ele>
        <time>2026-07-07T15:05:24.000Z</time>
      </trkpt>
      <trkpt lat="47.6559" lon="16.13291">
        <ele>411.877467</ele>
        <time>2026-07-07T15:05:25.000Z</time>
      </trkpt>
      <trkpt lat="47.65586" lon="16.13287">
        <ele>411.926664</ele>
        <time>2026-07-07T15:05:26.000Z</time>
      </trkpt>
      <trkpt lat="47.65582" lon="16.13281">
        <ele>411.976948</ele>
        <time>2026-07-07T15:05:27.000Z</time>
      </trkpt>
      <trkpt lat="47.65578" lon="16.13276">
        <ele>412.022155</ele>
        <time>2026-07-07T15:05:28.000Z</time>
      </trkpt>
      <trkpt lat="47.65574" lon="16.13271">
        <ele>412.047386</ele>
        <time>2026-07-07T15:05:29.000Z</time>
      </trkpt>
      <trkpt lat="47.6557" lon="16.13266">
        <ele>412.071886</ele>
        <time>2026-07-07T15:05:30.000Z</time>
      </trkpt>
      <trkpt lat="47.65566" lon="16.13261">
        <ele>412.097327</ele>
        <time>2026-07-07T15:05:31.000Z</time>
      </trkpt>
      <trkpt lat="47.65562" lon="16.13256">
        <ele>412.122363</ele>
        <time>2026-07-07T15:05:32.000Z</time>
      </trkpt>
      <trkpt lat="47.65559" lon="16.13251">
        <ele>412.146826</ele>
        <time>2026-07-07T15:05:33.000Z</time>
      </trkpt>
      <trkpt lat="47.65555" lon="16.13245">
        <ele>412.171634</ele>
        <time>2026-07-07T15:05:34.000Z</time>
      </trkpt>
      <trkpt lat="47.65552" lon="16.1324">
        <ele>412.19599</ele>
        <time>2026-07-07T15:05:35.000Z</time>
      </trkpt>
      <trkpt lat="47.65548" lon="16.13234">
        <ele>412.220864</ele>
        <time>2026-07-07T15:05:36.000Z</time>
      </trkpt>
      <trkpt lat="47.65545" lon="16.13228">
        <ele>412.24604</ele>
        <time>2026-07-07T15:05:37.000Z</time>
      </trkpt>
      <trkpt lat="47.65542" lon="16.13222">
        <ele>412.270715</ele>
        <time>2026-07-07T15:05:38.000Z</time>
      </trkpt>
      <trkpt lat="47.65538" lon="16.13216">
        <ele>412.296199</ele>
        <time>2026-07-07T15:05:39.000Z</time>
      </trkpt>
      <trkpt lat="47.65535" lon="16.1321">
        <ele>412.321295</ele>
        <time>2026-07-07T15:05:40.000Z</time>
      </trkpt>
      <trkpt lat="47.65532" lon="16.13204">
        <ele>412.346285</ele>
        <time>2026-07-07T15:05:41.000Z</time>
      </trkpt>
      <trkpt lat="47.65528" lon="16.13198">
        <ele>412.371594</ele>
        <time>2026-07-07T15:05:42.000Z</time>
      </trkpt>
      <trkpt lat="47.65525" lon="16.13192">
        <ele>412.397391</ele>
        <time>2026-07-07T15:05:43.000Z</time>
      </trkpt>
      <trkpt lat="47.65521" lon="16.13187">
        <ele>412.421747</ele>
        <time>2026-07-07T15:05:44.000Z</time>
      </trkpt>
      <trkpt lat="47.65518" lon="16.13182">
        <ele>412.446905</ele>
        <time>2026-07-07T15:05:45.000Z</time>
      </trkpt>
      <trkpt lat="47.65514" lon="16.13176">
        <ele>412.471841</ele>
        <time>2026-07-07T15:05:46.000Z</time>
      </trkpt>
      <trkpt lat="47.6551" lon="16.13171">
        <ele>412.498022</ele>
        <time>2026-07-07T15:05:47.000Z</time>
      </trkpt>
      <trkpt lat="47.65505" lon="16.13167">
        <ele>412.5234</ele>
        <time>2026-07-07T15:05:48.000Z</time>
      </trkpt>
      <trkpt lat="47.65501" lon="16.13162">
        <ele>412.547622</ele>
        <time>2026-07-07T15:05:49.000Z</time>
      </trkpt>
      <trkpt lat="47.65497" lon="16.13158">
        <ele>412.572764</ele>
        <time>2026-07-07T15:05:50.000Z</time>
      </trkpt>
      <trkpt lat="47.65492" lon="16.13154">
        <ele>412.597659</ele>
        <time>2026-07-07T15:05:51.000Z</time>
      </trkpt>
      <trkpt lat="47.65488" lon="16.1315">
        <ele>412.622966</ele>
        <time>2026-07-07T15:05:52.000Z</time>
      </trkpt>
      <trkpt lat="47.65484" lon="16.13146">
        <ele>412.647982</ele>
        <time>2026-07-07T15:05:53.000Z</time>
      </trkpt>
      <trkpt lat="47.65479" lon="16.13141">
        <ele>412.673557</ele>
        <time>2026-07-07T15:05:54.000Z</time>
      </trkpt>
      <trkpt lat="47.65475" lon="16.13136">
        <ele>412.69858</ele>
        <time>2026-07-07T15:05:55.000Z</time>
      </trkpt>
      <trkpt lat="47.65471" lon="16.13131">
        <ele>412.72445</ele>
        <time>2026-07-07T15:05:56.000Z</time>
      </trkpt>
      <trkpt lat="47.65467" lon="16.13126">
        <ele>412.750805</ele>
        <time>2026-07-07T15:05:57.000Z</time>
      </trkpt>
      <trkpt lat="47.65463" lon="16.13121">
        <ele>412.777193</ele>
        <time>2026-07-07T15:05:58.000Z</time>
      </trkpt>
      <trkpt lat="47.65459" lon="16.13116">
        <ele>412.80201</ele>
        <time>2026-07-07T15:05:59.000Z</time>
      </trkpt>
      <trkpt lat="47.65455" lon="16.13111">
        <ele>412.826624</ele>
        <time>2026-07-07T15:06:00.000Z</time>
      </trkpt>
      <trkpt lat="47.65451" lon="16.13107">
        <ele>412.850078</ele>
        <time>2026-07-07T15:06:01.000Z</time>
      </trkpt>
      <trkpt lat="47.65448" lon="16.13102">
        <ele>412.872419</ele>
        <time>2026-07-07T15:06:02.000Z</time>
      </trkpt>
      <trkpt lat="47.65444" lon="16.13098">
        <ele>412.890471</ele>
        <time>2026-07-07T15:06:03.000Z</time>
      </trkpt>
      <trkpt lat="47.6544" lon="16.13093">
        <ele>412.903812</ele>
        <time>2026-07-07T15:06:04.000Z</time>
      </trkpt>
      <trkpt lat="47.65437" lon="16.13089">
        <ele>412.916939</ele>
        <time>2026-07-07T15:06:05.000Z</time>
      </trkpt>
      <trkpt lat="47.65433" lon="16.13084">
        <ele>412.930489</ele>
        <time>2026-07-07T15:06:06.000Z</time>
      </trkpt>
      <trkpt lat="47.65428" lon="16.13081">
        <ele>412.944837</ele>
        <time>2026-07-07T15:06:07.000Z</time>
      </trkpt>
      <trkpt lat="47.65424" lon="16.13078">
        <ele>412.958446</ele>
        <time>2026-07-07T15:06:08.000Z</time>
      </trkpt>
      <trkpt lat="47.65419" lon="16.13075">
        <ele>412.972243</ele>
        <time>2026-07-07T15:06:09.000Z</time>
      </trkpt>
      <trkpt lat="47.65414" lon="16.13072">
        <ele>412.986822</ele>
        <time>2026-07-07T15:06:10.000Z</time>
      </trkpt>
      <trkpt lat="47.6541" lon="16.1307">
        <ele>413.00036</ele>
        <time>2026-07-07T15:06:11.000Z</time>
      </trkpt>
      <trkpt lat="47.65405" lon="16.13068">
        <ele>413.014286</ele>
        <time>2026-07-07T15:06:12.000Z</time>
      </trkpt>
      <trkpt lat="47.654" lon="16.13065">
        <ele>413.028211</ele>
        <time>2026-07-07T15:06:13.000Z</time>
      </trkpt>
      <trkpt lat="47.65396" lon="16.13063">
        <ele>413.040436</ele>
        <time>2026-07-07T15:06:14.000Z</time>
      </trkpt>
      <trkpt lat="47.65392" lon="16.13061">
        <ele>413.052683</ele>
        <time>2026-07-07T15:06:15.000Z</time>
      </trkpt>
      <trkpt lat="47.65388" lon="16.13059">
        <ele>413.064732</ele>
        <time>2026-07-07T15:06:16.000Z</time>
      </trkpt>
      <trkpt lat="47.65384" lon="16.13058">
        <ele>413.075161</ele>
        <time>2026-07-07T15:06:17.000Z</time>
      </trkpt>
      <trkpt lat="47.6538" lon="16.13057">
        <ele>413.08631</ele>
        <time>2026-07-07T15:06:18.000Z</time>
      </trkpt>
      <trkpt lat="47.65377" lon="16.13055">
        <ele>413.096602</ele>
        <time>2026-07-07T15:06:19.000Z</time>
      </trkpt>
      <trkpt lat="47.65373" lon="16.13054">
        <ele>413.107641</ele>
        <time>2026-07-07T15:06:20.000Z</time>
      </trkpt>
      <trkpt lat="47.65369" lon="16.13053">
        <ele>413.117892</ele>
        <time>2026-07-07T15:06:21.000Z</time>
      </trkpt>
      <trkpt lat="47.65366" lon="16.13052">
        <ele>413.128543</ele>
        <time>2026-07-07T15:06:22.000Z</time>
      </trkpt>
      <trkpt lat="47.65362" lon="16.13051">
        <ele>413.139068</ele>
        <time>2026-07-07T15:06:23.000Z</time>
      </trkpt>
      <trkpt lat="47.65358" lon="16.1305">
        <ele>413.149359</ele>
        <time>2026-07-07T15:06:24.000Z</time>
      </trkpt>
      <trkpt lat="47.65355" lon="16.13049">
        <ele>413.159849</ele>
        <time>2026-07-07T15:06:25.000Z</time>
      </trkpt>
      <trkpt lat="47.65351" lon="16.13048">
        <ele>413.170613</ele>
        <time>2026-07-07T15:06:26.000Z</time>
      </trkpt>
      <trkpt lat="47.65347" lon="16.13047">
        <ele>413.181652</ele>
        <time>2026-07-07T15:06:27.000Z</time>
      </trkpt>
      <trkpt lat="47.65343" lon="16.13045">
        <ele>413.192488</ele>
        <time>2026-07-07T15:06:28.000Z</time>
      </trkpt>
      <trkpt lat="47.65339" lon="16.13044">
        <ele>413.20391</ele>
        <time>2026-07-07T15:06:29.000Z</time>
      </trkpt>
      <trkpt lat="47.65335" lon="16.13043">
        <ele>413.214877</ele>
        <time>2026-07-07T15:06:30.000Z</time>
      </trkpt>
      <trkpt lat="47.65331" lon="16.13041">
        <ele>413.226535</ele>
        <time>2026-07-07T15:06:31.000Z</time>
      </trkpt>
      <trkpt lat="47.65328" lon="16.13039">
        <ele>413.237653</ele>
        <time>2026-07-07T15:06:32.000Z</time>
      </trkpt>
      <trkpt lat="47.65324" lon="16.13036">
        <ele>413.249099</ele>
        <time>2026-07-07T15:06:33.000Z</time>
      </trkpt>
      <trkpt lat="47.6532" lon="16.13034">
        <ele>413.261651</ele>
        <time>2026-07-07T15:06:34.000Z</time>
      </trkpt>
      <trkpt lat="47.65316" lon="16.13031">
        <ele>413.273831</ele>
        <time>2026-07-07T15:06:35.000Z</time>
      </trkpt>
      <trkpt lat="47.65311" lon="16.13029">
        <ele>413.286597</ele>
        <time>2026-07-07T15:06:36.000Z</time>
      </trkpt>
      <trkpt lat="47.65308" lon="16.13026">
        <ele>413.297933</ele>
        <time>2026-07-07T15:06:37.000Z</time>
      </trkpt>
      <trkpt lat="47.65304" lon="16.13022">
        <ele>413.309473</ele>
        <time>2026-07-07T15:06:38.000Z</time>
      </trkpt>
      <trkpt lat="47.65301" lon="16.13018">
        <ele>413.320721</ele>
        <time>2026-07-07T15:06:39.000Z</time>
      </trkpt>
      <trkpt lat="47.65299" lon="16.13014">
        <ele>413.332509</ele>
        <time>2026-07-07T15:06:40.000Z</time>
      </trkpt>
      <trkpt lat="47.65295" lon="16.13009">
        <ele>413.345198</ele>
        <time>2026-07-07T15:06:41.000Z</time>
      </trkpt>
      <trkpt lat="47.65292" lon="16.13005">
        <ele>413.357969</ele>
        <time>2026-07-07T15:06:42.000Z</time>
      </trkpt>
      <trkpt lat="47.65288" lon="16.13001">
        <ele>413.369534</ele>
        <time>2026-07-07T15:06:43.000Z</time>
      </trkpt>
      <trkpt lat="47.65284" lon="16.12998">
        <ele>413.382444</ele>
        <time>2026-07-07T15:06:44.000Z</time>
      </trkpt>
      <trkpt lat="47.6528" lon="16.12994">
        <ele>413.408205</ele>
        <time>2026-07-07T15:06:45.000Z</time>
      </trkpt>
      <trkpt lat="47.65276" lon="16.1299">
        <ele>413.438289</ele>
        <time>2026-07-07T15:06:46.000Z</time>
      </trkpt>
      <trkpt lat="47.65272" lon="16.12986">
        <ele>413.468318</ele>
        <time>2026-07-07T15:06:47.000Z</time>
      </trkpt>
      <trkpt lat="47.65268" lon="16.12981">
        <ele>413.500076</ele>
        <time>2026-07-07T15:06:48.000Z</time>
      </trkpt>
      <trkpt lat="47.65264" lon="16.12977">
        <ele>413.531131</ele>
        <time>2026-07-07T15:06:49.000Z</time>
      </trkpt>
      <trkpt lat="47.6526" lon="16.12973">
        <ele>413.560926</ele>
        <time>2026-07-07T15:06:50.000Z</time>
      </trkpt>
      <trkpt lat="47.65256" lon="16.12969">
        <ele>413.590491</ele>
        <time>2026-07-07T15:06:51.000Z</time>
      </trkpt>
      <trkpt lat="47.65252" lon="16.12965">
        <ele>413.622521</ele>
        <time>2026-07-07T15:06:52.000Z</time>
      </trkpt>
      <trkpt lat="47.65248" lon="16.12961">
        <ele>413.653527</ele>
        <time>2026-07-07T15:06:53.000Z</time>
      </trkpt>
      <trkpt lat="47.65243" lon="16.12957">
        <ele>413.684355</ele>
        <time>2026-07-07T15:06:54.000Z</time>
      </trkpt>
      <trkpt lat="47.65239" lon="16.12953">
        <ele>413.713574</ele>
        <time>2026-07-07T15:06:55.000Z</time>
      </trkpt>
      <trkpt lat="47.65235" lon="16.1295">
        <ele>413.744708</ele>
        <time>2026-07-07T15:06:56.000Z</time>
      </trkpt>
      <trkpt lat="47.6523" lon="16.12948">
        <ele>413.775031</ele>
        <time>2026-07-07T15:06:57.000Z</time>
      </trkpt>
      <trkpt lat="47.65225" lon="16.12946">
        <ele>413.805831</ele>
        <time>2026-07-07T15:06:58.000Z</time>
      </trkpt>
      <trkpt lat="47.6522" lon="16.12944">
        <ele>413.835924</ele>
        <time>2026-07-07T15:06:59.000Z</time>
      </trkpt>
      <trkpt lat="47.65216" lon="16.12943">
        <ele>413.865314</ele>
        <time>2026-07-07T15:07:00.000Z</time>
      </trkpt>
      <trkpt lat="47.65211" lon="16.12941">
        <ele>413.894106</ele>
        <time>2026-07-07T15:07:01.000Z</time>
      </trkpt>
      <trkpt lat="47.65207" lon="16.12939">
        <ele>413.923009</ele>
        <time>2026-07-07T15:07:02.000Z</time>
      </trkpt>
      <trkpt lat="47.65202" lon="16.12937">
        <ele>413.952151</ele>
        <time>2026-07-07T15:07:03.000Z</time>
      </trkpt>
      <trkpt lat="47.65197" lon="16.12935">
        <ele>413.983438</ele>
        <time>2026-07-07T15:07:04.000Z</time>
      </trkpt>
      <trkpt lat="47.65193" lon="16.12933">
        <ele>414.014024</ele>
        <time>2026-07-07T15:07:05.000Z</time>
      </trkpt>
      <trkpt lat="47.65188" lon="16.12931">
        <ele>414.046618</ele>
        <time>2026-07-07T15:07:06.000Z</time>
      </trkpt>
      <trkpt lat="47.65183" lon="16.12928">
        <ele>414.078225</ele>
        <time>2026-07-07T15:07:07.000Z</time>
      </trkpt>
      <trkpt lat="47.65179" lon="16.12924">
        <ele>414.109575</ele>
        <time>2026-07-07T15:07:08.000Z</time>
      </trkpt>
      <trkpt lat="47.65175" lon="16.1292">
        <ele>414.138913</ele>
        <time>2026-07-07T15:07:09.000Z</time>
      </trkpt>
      <trkpt lat="47.65171" lon="16.12916">
        <ele>414.16803</ele>
        <time>2026-07-07T15:07:10.000Z</time>
      </trkpt>
      <trkpt lat="47.65166" lon="16.12913">
        <ele>414.196305</ele>
        <time>2026-07-07T15:07:11.000Z</time>
      </trkpt>
      <trkpt lat="47.65162" lon="16.12912">
        <ele>414.22625</ele>
        <time>2026-07-07T15:07:12.000Z</time>
      </trkpt>
      <trkpt lat="47.65157" lon="16.12913">
        <ele>414.257151</ele>
        <time>2026-07-07T15:07:13.000Z</time>
      </trkpt>
      <trkpt lat="47.65151" lon="16.12913">
        <ele>414.289408</ele>
        <time>2026-07-07T15:07:14.000Z</time>
      </trkpt>
      <trkpt lat="47.65146" lon="16.12914">
        <ele>414.323478</ele>
        <time>2026-07-07T15:07:15.000Z</time>
      </trkpt>
      <trkpt lat="47.6514" lon="16.12915">
        <ele>414.358196</ele>
        <time>2026-07-07T15:07:16.000Z</time>
      </trkpt>
      <trkpt lat="47.65135" lon="16.12915">
        <ele>414.392198</ele>
        <time>2026-07-07T15:07:17.000Z</time>
      </trkpt>
      <trkpt lat="47.65129" lon="16.12915">
        <ele>414.428648</ele>
        <time>2026-07-07T15:07:18.000Z</time>
      </trkpt>
      <trkpt lat="47.65123" lon="16.12915">
        <ele>414.463266</ele>
        <time>2026-07-07T15:07:19.000Z</time>
      </trkpt>
      <trkpt lat="47.65117" lon="16.12914">
        <ele>414.499901</ele>
        <time>2026-07-07T15:07:20.000Z</time>
      </trkpt>
      <trkpt lat="47.65111" lon="16.12914">
        <ele>414.53225</ele>
        <time>2026-07-07T15:07:21.000Z</time>
      </trkpt>
      <trkpt lat="47.65105" lon="16.12913">
        <ele>414.564678</ele>
        <time>2026-07-07T15:07:22.000Z</time>
      </trkpt>
      <trkpt lat="47.65099" lon="16.12912">
        <ele>414.597075</ele>
        <time>2026-07-07T15:07:23.000Z</time>
      </trkpt>
      <trkpt lat="47.65093" lon="16.12912">
        <ele>414.628835</ele>
        <time>2026-07-07T15:07:24.000Z</time>
      </trkpt>
      <trkpt lat="47.65088" lon="16.12913">
        <ele>414.65855</ele>
        <time>2026-07-07T15:07:25.000Z</time>
      </trkpt>
      <trkpt lat="47.65083" lon="16.12913">
        <ele>414.687163</ele>
        <time>2026-07-07T15:07:26.000Z</time>
      </trkpt>
      <trkpt lat="47.65077" lon="16.12914">
        <ele>414.71573</ele>
        <time>2026-07-07T15:07:27.000Z</time>
      </trkpt>
      <trkpt lat="47.65072" lon="16.12914">
        <ele>414.744818</ele>
        <time>2026-07-07T15:07:28.000Z</time>
      </trkpt>
      <trkpt lat="47.65067" lon="16.12914">
        <ele>414.772293</ele>
        <time>2026-07-07T15:07:29.000Z</time>
      </trkpt>
      <trkpt lat="47.65062" lon="16.12915">
        <ele>414.799247</ele>
        <time>2026-07-07T15:07:30.000Z</time>
      </trkpt>
      <trkpt lat="47.65057" lon="16.12915">
        <ele>414.826223</ele>
        <time>2026-07-07T15:07:31.000Z</time>
      </trkpt>
      <trkpt lat="47.65052" lon="16.12916">
        <ele>414.85316</ele>
        <time>2026-07-07T15:07:32.000Z</time>
      </trkpt>
      <trkpt lat="47.65047" lon="16.12916">
        <ele>414.879547</ele>
        <time>2026-07-07T15:07:33.000Z</time>
      </trkpt>
      <trkpt lat="47.65042" lon="16.12916">
        <ele>414.905396</ele>
        <time>2026-07-07T15:07:34.000Z</time>
      </trkpt>
      <trkpt lat="47.65037" lon="16.12914">
        <ele>414.931661</ele>
        <time>2026-07-07T15:07:35.000Z</time>
      </trkpt>
      <trkpt lat="47.65033" lon="16.12912">
        <ele>414.958416</ele>
        <time>2026-07-07T15:07:36.000Z</time>
      </trkpt>
      <trkpt lat="47.65028" lon="16.12909">
        <ele>414.985121</ele>
        <time>2026-07-07T15:07:37.000Z</time>
      </trkpt>
      <trkpt lat="47.65024" lon="16.12905">
        <ele>415.010491</ele>
        <time>2026-07-07T15:07:38.000Z</time>
      </trkpt>
      <trkpt lat="47.6502" lon="16.12901">
        <ele>415.037245</ele>
        <time>2026-07-07T15:07:39.000Z</time>
      </trkpt>
      <trkpt lat="47.65016" lon="16.12898">
        <ele>415.061879</ele>
        <time>2026-07-07T15:07:40.000Z</time>
      </trkpt>
      <trkpt lat="47.65012" lon="16.12896">
        <ele>415.085242</ele>
        <time>2026-07-07T15:07:41.000Z</time>
      </trkpt>
      <trkpt lat="47.65008" lon="16.12894">
        <ele>415.107639</ele>
        <time>2026-07-07T15:07:42.000Z</time>
      </trkpt>
      <trkpt lat="47.65004" lon="16.12893">
        <ele>415.129366</ele>
        <time>2026-07-07T15:07:43.000Z</time>
      </trkpt>
      <trkpt lat="47.64999" lon="16.12892">
        <ele>415.153762</ele>
        <time>2026-07-07T15:07:44.000Z</time>
      </trkpt>
      <trkpt lat="47.64994" lon="16.12892">
        <ele>415.180179</ele>
        <time>2026-07-07T15:07:45.000Z</time>
      </trkpt>
      <trkpt lat="47.64989" lon="16.12892">
        <ele>415.207094</ele>
        <time>2026-07-07T15:07:46.000Z</time>
      </trkpt>
      <trkpt lat="47.64984" lon="16.12892">
        <ele>415.23455</ele>
        <time>2026-07-07T15:07:47.000Z</time>
      </trkpt>
      <trkpt lat="47.64979" lon="16.12891">
        <ele>415.2638</ele>
        <time>2026-07-07T15:07:48.000Z</time>
      </trkpt>
      <trkpt lat="47.64974" lon="16.1289">
        <ele>415.291656</ele>
        <time>2026-07-07T15:07:49.000Z</time>
      </trkpt>
      <trkpt lat="47.64969" lon="16.12888">
        <ele>415.319983</ele>
        <time>2026-07-07T15:07:50.000Z</time>
      </trkpt>
      <trkpt lat="47.64963" lon="16.12887">
        <ele>415.348369</ele>
        <time>2026-07-07T15:07:51.000Z</time>
      </trkpt>
      <trkpt lat="47.64958" lon="16.12886">
        <ele>415.376061</ele>
        <time>2026-07-07T15:07:52.000Z</time>
      </trkpt>
      <trkpt lat="47.64953" lon="16.12885">
        <ele>415.405986</ele>
        <time>2026-07-07T15:07:53.000Z</time>
      </trkpt>
      <trkpt lat="47.64948" lon="16.12884">
        <ele>415.434211</ele>
        <time>2026-07-07T15:07:54.000Z</time>
      </trkpt>
      <trkpt lat="47.64942" lon="16.12883">
        <ele>415.462971</ele>
        <time>2026-07-07T15:07:55.000Z</time>
      </trkpt>
      <trkpt lat="47.64937" lon="16.12882">
        <ele>415.491364</ele>
        <time>2026-07-07T15:07:56.000Z</time>
      </trkpt>
      <trkpt lat="47.64932" lon="16.12881">
        <ele>415.519738</ele>
        <time>2026-07-07T15:07:57.000Z</time>
      </trkpt>
      <trkpt lat="47.64927" lon="16.12881">
        <ele>415.546932</ele>
        <time>2026-07-07T15:07:58.000Z</time>
      </trkpt>
      <trkpt lat="47.64922" lon="16.12881">
        <ele>415.575756</ele>
        <time>2026-07-07T15:07:59.000Z</time>
      </trkpt>
      <trkpt lat="47.64916" lon="16.1288">
        <ele>415.604052</ele>
        <time>2026-07-07T15:08:00.000Z</time>
      </trkpt>
      <trkpt lat="47.64911" lon="16.12881">
        <ele>415.631778</ele>
        <time>2026-07-07T15:08:01.000Z</time>
      </trkpt>
      <trkpt lat="47.64906" lon="16.12881">
        <ele>415.661235</ele>
        <time>2026-07-07T15:08:02.000Z</time>
      </trkpt>
      <trkpt lat="47.64901" lon="16.12882">
        <ele>415.689191</ele>
        <time>2026-07-07T15:08:03.000Z</time>
      </trkpt>
      <trkpt lat="47.64896" lon="16.12883">
        <ele>415.717735</ele>
        <time>2026-07-07T15:08:04.000Z</time>
      </trkpt>
      <trkpt lat="47.6489" lon="16.12884">
        <ele>415.747848</ele>
        <time>2026-07-07T15:08:05.000Z</time>
      </trkpt>
      <trkpt lat="47.64885" lon="16.12886">
        <ele>415.776983</ele>
        <time>2026-07-07T15:08:06.000Z</time>
      </trkpt>
      <trkpt lat="47.64879" lon="16.12887">
        <ele>415.806712</ele>
        <time>2026-07-07T15:08:07.000Z</time>
      </trkpt>
      <trkpt lat="47.64874" lon="16.12888">
        <ele>415.835967</ele>
        <time>2026-07-07T15:08:08.000Z</time>
      </trkpt>
      <trkpt lat="47.64869" lon="16.1289">
        <ele>415.864624</ele>
        <time>2026-07-07T15:08:09.000Z</time>
      </trkpt>
      <trkpt lat="47.64864" lon="16.12891">
        <ele>415.893759</ele>
        <time>2026-07-07T15:08:10.000Z</time>
      </trkpt>
      <trkpt lat="47.64859" lon="16.12892">
        <ele>415.921228</ele>
        <time>2026-07-07T15:08:11.000Z</time>
      </trkpt>
      <trkpt lat="47.64853" lon="16.12893">
        <ele>415.949723</ele>
        <time>2026-07-07T15:08:12.000Z</time>
      </trkpt>
      <trkpt lat="47.64848" lon="16.12894">
        <ele>415.977557</ele>
        <time>2026-07-07T15:08:13.000Z</time>
      </trkpt>
      <trkpt lat="47.64843" lon="16.12894">
        <ele>416.005837</ele>
        <time>2026-07-07T15:08:14.000Z</time>
      </trkpt>
      <trkpt lat="47.64838" lon="16.12894">
        <ele>416.034098</ele>
        <time>2026-07-07T15:08:15.000Z</time>
      </trkpt>
      <trkpt lat="47.64833" lon="16.12893">
        <ele>416.061874</ele>
        <time>2026-07-07T15:08:16.000Z</time>
      </trkpt>
      <trkpt lat="47.64828" lon="16.12892">
        <ele>416.090324</ele>
        <time>2026-07-07T15:08:17.000Z</time>
      </trkpt>
      <trkpt lat="47.64822" lon="16.12891">
        <ele>416.118819</ele>
        <time>2026-07-07T15:08:18.000Z</time>
      </trkpt>
      <trkpt lat="47.64817" lon="16.12891">
        <ele>416.146689</ele>
        <time>2026-07-07T15:08:19.000Z</time>
      </trkpt>
      <trkpt lat="47.64812" lon="16.1289">
        <ele>416.175184</ele>
        <time>2026-07-07T15:08:20.000Z</time>
      </trkpt>
      <trkpt lat="47.64807" lon="16.12888">
        <ele>416.204319</ele>
        <time>2026-07-07T15:08:21.000Z</time>
      </trkpt>
      <trkpt lat="47.64802" lon="16.12887">
        <ele>416.232976</ele>
        <time>2026-07-07T15:08:22.000Z</time>
      </trkpt>
      <trkpt lat="47.64796" lon="16.12886">
        <ele>416.261764</ele>
        <time>2026-07-07T15:08:23.000Z</time>
      </trkpt>
      <trkpt lat="47.64791" lon="16.12884">
        <ele>416.290018</ele>
        <time>2026-07-07T15:08:25.000Z</time>
      </trkpt>
      <trkpt lat="47.64786" lon="16.12883">
        <ele>416.317604</ele>
        <time>2026-07-07T15:08:26.000Z</time>
      </trkpt>
      <trkpt lat="47.64781" lon="16.12882">
        <ele>416.344592</ele>
        <time>2026-07-07T15:08:27.000Z</time>
      </trkpt>
      <trkpt lat="47.64776" lon="16.12881">
        <ele>416.372462</ele>
        <time>2026-07-07T15:08:28.000Z</time>
      </trkpt>
      <trkpt lat="47.64771" lon="16.1288">
        <ele>416.399754</ele>
        <time>2026-07-07T15:08:29.000Z</time>
      </trkpt>
      <trkpt lat="47.64766" lon="16.12879">
        <ele>416.428129</ele>
        <time>2026-07-07T15:08:30.000Z</time>
      </trkpt>
      <trkpt lat="47.64761" lon="16.12879">
        <ele>416.455274</ele>
        <time>2026-07-07T15:08:31.000Z</time>
      </trkpt>
      <trkpt lat="47.64756" lon="16.12879">
        <ele>416.481301</ele>
        <time>2026-07-07T15:08:32.000Z</time>
      </trkpt>
      <trkpt lat="47.64751" lon="16.12879">
        <ele>416.50791</ele>
        <time>2026-07-07T15:08:33.000Z</time>
      </trkpt>
      <trkpt lat="47.64746" lon="16.12879">
        <ele>416.535022</ele>
        <time>2026-07-07T15:08:34.000Z</time>
      </trkpt>
      <trkpt lat="47.64741" lon="16.12879">
        <ele>416.562135</ele>
        <time>2026-07-07T15:08:35.000Z</time>
      </trkpt>
      <trkpt lat="47.64736" lon="16.12878">
        <ele>416.589286</ele>
        <time>2026-07-07T15:08:36.000Z</time>
      </trkpt>
      <trkpt lat="47.64731" lon="16.12878">
        <ele>416.618082</ele>
        <time>2026-07-07T15:08:37.000Z</time>
      </trkpt>
      <trkpt lat="47.64726" lon="16.12877">
        <ele>416.646362</ele>
        <time>2026-07-07T15:08:38.000Z</time>
      </trkpt>
      <trkpt lat="47.64721" lon="16.12877">
        <ele>416.674134</ele>
        <time>2026-07-07T15:08:39.000Z</time>
      </trkpt>
      <trkpt lat="47.64716" lon="16.12876">
        <ele>416.702389</ele>
        <time>2026-07-07T15:08:40.000Z</time>
      </trkpt>
      <trkpt lat="47.6471" lon="16.12876">
        <ele>416.731184</ele>
        <time>2026-07-07T15:08:41.000Z</time>
      </trkpt>
      <trkpt lat="47.64705" lon="16.12875">
        <ele>416.760522</ele>
        <time>2026-07-07T15:08:42.000Z</time>
      </trkpt>
      <trkpt lat="47.647" lon="16.12874">
        <ele>416.788293</ele>
        <time>2026-07-07T15:08:43.000Z</time>
      </trkpt>
      <trkpt lat="47.64694" lon="16.12874">
        <ele>416.817655</ele>
        <time>2026-07-07T15:08:44.000Z</time>
      </trkpt>
      <trkpt lat="47.64689" lon="16.12873">
        <ele>416.846451</ele>
        <time>2026-07-07T15:08:45.000Z</time>
      </trkpt>
      <trkpt lat="47.64684" lon="16.12873">
        <ele>416.875226</ele>
        <time>2026-07-07T15:08:46.000Z</time>
      </trkpt>
      <trkpt lat="47.64678" lon="16.12873">
        <ele>416.904508</ele>
        <time>2026-07-07T15:08:47.000Z</time>
      </trkpt>
      <trkpt lat="47.64673" lon="16.12873">
        <ele>416.933246</ele>
        <time>2026-07-07T15:08:48.000Z</time>
      </trkpt>
      <trkpt lat="47.64668" lon="16.12873">
        <ele>416.961444</ele>
        <time>2026-07-07T15:08:49.000Z</time>
      </trkpt>
      <trkpt lat="47.64663" lon="16.12873">
        <ele>416.9891</ele>
        <time>2026-07-07T15:08:50.000Z</time>
      </trkpt>
      <trkpt lat="47.64658" lon="16.12872">
        <ele>417.017334</ele>
        <time>2026-07-07T15:08:51.000Z</time>
      </trkpt>
      <trkpt lat="47.64652" lon="16.12872">
        <ele>417.046074</ele>
        <time>2026-07-07T15:08:52.000Z</time>
      </trkpt>
      <trkpt lat="47.64647" lon="16.12872">
        <ele>417.074272</ele>
        <time>2026-07-07T15:08:53.000Z</time>
      </trkpt>
      <trkpt lat="47.64642" lon="16.12872">
        <ele>417.101386</ele>
        <time>2026-07-07T15:08:54.000Z</time>
      </trkpt>
      <trkpt lat="47.64637" lon="16.12872">
        <ele>417.127453</ele>
        <time>2026-07-07T15:08:55.000Z</time>
      </trkpt>
      <trkpt lat="47.64633" lon="16.12872">
        <ele>417.152961</ele>
        <time>2026-07-07T15:08:56.000Z</time>
      </trkpt>
      <trkpt lat="47.64628" lon="16.12871">
        <ele>417.177536</ele>
        <time>2026-07-07T15:08:57.000Z</time>
      </trkpt>
      <trkpt lat="47.64624" lon="16.1287">
        <ele>417.201136</ele>
        <time>2026-07-07T15:08:58.000Z</time>
      </trkpt>
      <trkpt lat="47.64619" lon="16.12869">
        <ele>417.225219</ele>
        <time>2026-07-07T15:08:59.000Z</time>
      </trkpt>
      <trkpt lat="47.64615" lon="16.12868">
        <ele>417.248717</ele>
        <time>2026-07-07T15:09:00.000Z</time>
      </trkpt>
      <trkpt lat="47.64611" lon="16.12867">
        <ele>417.273251</ele>
        <time>2026-07-07T15:09:01.000Z</time>
      </trkpt>
      <trkpt lat="47.64606" lon="16.12867">
        <ele>417.297749</ele>
        <time>2026-07-07T15:09:02.000Z</time>
      </trkpt>
      <trkpt lat="47.64601" lon="16.12866">
        <ele>417.324031</ele>
        <time>2026-07-07T15:09:03.000Z</time>
      </trkpt>
      <trkpt lat="47.64596" lon="16.12864">
        <ele>417.351691</ele>
        <time>2026-07-07T15:09:04.000Z</time>
      </trkpt>
      <trkpt lat="47.64591" lon="16.12862">
        <ele>417.379676</ele>
        <time>2026-07-07T15:09:05.000Z</time>
      </trkpt>
      <trkpt lat="47.64586" lon="16.1286">
        <ele>417.407755</ele>
        <time>2026-07-07T15:09:06.000Z</time>
      </trkpt>
      <trkpt lat="47.64581" lon="16.12858">
        <ele>417.435041</ele>
        <time>2026-07-07T15:09:07.000Z</time>
      </trkpt>
      <trkpt lat="47.64576" lon="16.12857">
        <ele>417.461229</ele>
        <time>2026-07-07T15:09:08.000Z</time>
      </trkpt>
      <trkpt lat="47.64571" lon="16.12855">
        <ele>417.488425</ele>
        <time>2026-07-07T15:09:09.000Z</time>
      </trkpt>
      <trkpt lat="47.64566" lon="16.12853">
        <ele>417.51529</ele>
        <time>2026-07-07T15:09:10.000Z</time>
      </trkpt>
      <trkpt lat="47.64561" lon="16.12851">
        <ele>417.542345</ele>
        <time>2026-07-07T15:09:11.000Z</time>
      </trkpt>
      <trkpt lat="47.64556" lon="16.12848">
        <ele>417.570397</ele>
        <time>2026-07-07T15:09:12.000Z</time>
      </trkpt>
      <trkpt lat="47.64551" lon="16.12846">
        <ele>417.596564</ele>
        <time>2026-07-07T15:09:13.000Z</time>
      </trkpt>
      <trkpt lat="47.64546" lon="16.12844">
        <ele>417.62362</ele>
        <time>2026-07-07T15:09:14.000Z</time>
      </trkpt>
      <trkpt lat="47.64541" lon="16.12841">
        <ele>417.650991</ele>
        <time>2026-07-07T15:09:15.000Z</time>
      </trkpt>
      <trkpt lat="47.64536" lon="16.12839">
        <ele>417.679141</ele>
        <time>2026-07-07T15:09:16.000Z</time>
      </trkpt>
      <trkpt lat="47.64531" lon="16.12837">
        <ele>417.70729</ele>
        <time>2026-07-07T15:09:17.000Z</time>
      </trkpt>
      <trkpt lat="47.64526" lon="16.12835">
        <ele>417.735421</ele>
        <time>2026-07-07T15:09:18.000Z</time>
      </trkpt>
      <trkpt lat="47.6452" lon="16.12835">
        <ele>417.765011</ele>
        <time>2026-07-07T15:09:19.000Z</time>
      </trkpt>
      <trkpt lat="47.64514" lon="16.12836">
        <ele>417.794087</ele>
        <time>2026-07-07T15:09:20.000Z</time>
      </trkpt>
      <trkpt lat="47.64509" lon="16.1284">
        <ele>417.823092</ele>
        <time>2026-07-07T15:09:21.000Z</time>
      </trkpt>
      <trkpt lat="47.64504" lon="16.12843">
        <ele>417.851203</ele>
        <time>2026-07-07T15:09:22.000Z</time>
      </trkpt>
      <trkpt lat="47.64499" lon="16.12846">
        <ele>417.881773</ele>
        <time>2026-07-07T15:09:23.000Z</time>
      </trkpt>
      <trkpt lat="47.64494" lon="16.1285">
        <ele>417.911727</ele>
        <time>2026-07-07T15:09:24.000Z</time>
      </trkpt>
      <trkpt lat="47.64489" lon="16.12853">
        <ele>417.940115</ele>
        <time>2026-07-07T15:09:25.000Z</time>
      </trkpt>
      <trkpt lat="47.64483" lon="16.12857">
        <ele>417.970501</ele>
        <time>2026-07-07T15:09:26.000Z</time>
      </trkpt>
      <trkpt lat="47.64478" lon="16.1286">
        <ele>417.99918</ele>
        <time>2026-07-07T15:09:27.000Z</time>
      </trkpt>
      <trkpt lat="47.64473" lon="16.12864">
        <ele>418.02786</ele>
        <time>2026-07-07T15:09:28.000Z</time>
      </trkpt>
      <trkpt lat="47.64468" lon="16.12867">
        <ele>418.056248</ele>
        <time>2026-07-07T15:09:29.000Z</time>
      </trkpt>
      <trkpt lat="47.64463" lon="16.1287">
        <ele>418.084637</ele>
        <time>2026-07-07T15:09:30.000Z</time>
      </trkpt>
      <trkpt lat="47.64458" lon="16.12874">
        <ele>418.112698</ele>
        <time>2026-07-07T15:09:31.000Z</time>
      </trkpt>
      <trkpt lat="47.64454" lon="16.12877">
        <ele>418.139515</ele>
        <time>2026-07-07T15:09:32.000Z</time>
      </trkpt>
      <trkpt lat="47.64449" lon="16.12881">
        <ele>418.166954</ele>
        <time>2026-07-07T15:09:33.000Z</time>
      </trkpt>
      <trkpt lat="47.64444" lon="16.12885">
        <ele>418.194889</ele>
        <time>2026-07-07T15:09:34.000Z</time>
      </trkpt>
      <trkpt lat="47.6444" lon="16.12889">
        <ele>418.2222</ele>
        <time>2026-07-07T15:09:35.000Z</time>
      </trkpt>
      <trkpt lat="47.64435" lon="16.12892">
        <ele>418.249966</ele>
        <time>2026-07-07T15:09:36.000Z</time>
      </trkpt>
      <trkpt lat="47.6443" lon="16.12896">
        <ele>418.277901</ele>
        <time>2026-07-07T15:09:37.000Z</time>
      </trkpt>
      <trkpt lat="47.64426" lon="16.129">
        <ele>418.305113</ele>
        <time>2026-07-07T15:09:38.000Z</time>
      </trkpt>
      <trkpt lat="47.64421" lon="16.12904">
        <ele>418.333336</ele>
        <time>2026-07-07T15:09:39.000Z</time>
      </trkpt>
      <trkpt lat="47.64416" lon="16.12908">
        <ele>418.379452</ele>
        <time>2026-07-07T15:09:40.000Z</time>
      </trkpt>
      <trkpt lat="47.64412" lon="16.12912">
        <ele>418.454334</ele>
        <time>2026-07-07T15:09:41.000Z</time>
      </trkpt>
      <trkpt lat="47.64408" lon="16.12916">
        <ele>418.527821</ele>
        <time>2026-07-07T15:09:42.000Z</time>
      </trkpt>
      <trkpt lat="47.64403" lon="16.1292">
        <ele>418.601308</ele>
        <time>2026-07-07T15:09:43.000Z</time>
      </trkpt>
      <trkpt lat="47.64399" lon="16.12924">
        <ele>418.671529</ele>
        <time>2026-07-07T15:09:44.000Z</time>
      </trkpt>
      <trkpt lat="47.64395" lon="16.12928">
        <ele>418.741255</ele>
        <time>2026-07-07T15:09:45.000Z</time>
      </trkpt>
      <trkpt lat="47.64391" lon="16.12932">
        <ele>418.8113</ele>
        <time>2026-07-07T15:09:46.000Z</time>
      </trkpt>
      <trkpt lat="47.64387" lon="16.12936">
        <ele>418.880156</ele>
        <time>2026-07-07T15:09:47.000Z</time>
      </trkpt>
      <trkpt lat="47.64383" lon="16.1294">
        <ele>418.950664</ele>
        <time>2026-07-07T15:09:48.000Z</time>
      </trkpt>
      <trkpt lat="47.64379" lon="16.12945">
        <ele>419.021186</ele>
        <time>2026-07-07T15:09:49.000Z</time>
      </trkpt>
      <trkpt lat="47.64375" lon="16.12949">
        <ele>419.090586</ele>
        <time>2026-07-07T15:09:50.000Z</time>
      </trkpt>
      <trkpt lat="47.64371" lon="16.12954">
        <ele>419.163419</ele>
        <time>2026-07-07T15:09:51.000Z</time>
      </trkpt>
      <trkpt lat="47.64367" lon="16.12958">
        <ele>419.237369</ele>
        <time>2026-07-07T15:09:52.000Z</time>
      </trkpt>
      <trkpt lat="47.64363" lon="16.12962">
        <ele>419.310332</ele>
        <time>2026-07-07T15:09:53.000Z</time>
      </trkpt>
      <trkpt lat="47.64358" lon="16.12966">
        <ele>419.381059</ele>
        <time>2026-07-07T15:09:54.000Z</time>
      </trkpt>
      <trkpt lat="47.64354" lon="16.1297">
        <ele>419.454039</ele>
        <time>2026-07-07T15:09:55.000Z</time>
      </trkpt>
      <trkpt lat="47.6435" lon="16.12973">
        <ele>419.523594</ele>
        <time>2026-07-07T15:09:56.000Z</time>
      </trkpt>
      <trkpt lat="47.64345" lon="16.12977">
        <ele>419.592702</ele>
        <time>2026-07-07T15:09:57.000Z</time>
      </trkpt>
      <trkpt lat="47.64341" lon="16.1298">
        <ele>419.663937</ele>
        <time>2026-07-07T15:09:58.000Z</time>
      </trkpt>
      <trkpt lat="47.64337" lon="16.12983">
        <ele>419.72927</ele>
        <time>2026-07-07T15:09:59.000Z</time>
      </trkpt>
      <trkpt lat="47.64333" lon="16.12986">
        <ele>419.788466</ele>
        <time>2026-07-07T15:10:00.000Z</time>
      </trkpt>
      <trkpt lat="47.6433" lon="16.1299">
        <ele>419.842352</ele>
        <time>2026-07-07T15:10:01.000Z</time>
      </trkpt>
      <trkpt lat="47.64327" lon="16.12993">
        <ele>419.89452</ele>
        <time>2026-07-07T15:10:02.000Z</time>
      </trkpt>
      <trkpt lat="47.64325" lon="16.12996">
        <ele>419.94165</ele>
        <time>2026-07-07T15:10:03.000Z</time>
      </trkpt>
      <trkpt lat="47.64322" lon="16.12999">
        <ele>419.989849</ele>
        <time>2026-07-07T15:10:04.000Z</time>
      </trkpt>
      <trkpt lat="47.64319" lon="16.13002">
        <ele>420.043644</ele>
        <time>2026-07-07T15:10:05.000Z</time>
      </trkpt>
      <trkpt lat="47.64315" lon="16.13005">
        <ele>420.100406</ele>
        <time>2026-07-07T15:10:06.000Z</time>
      </trkpt>
      <trkpt lat="47.64312" lon="16.13007">
        <ele>420.159698</ele>
        <time>2026-07-07T15:10:07.000Z</time>
      </trkpt>
      <trkpt lat="47.64308" lon="16.13011">
        <ele>420.220833</ele>
        <time>2026-07-07T15:10:08.000Z</time>
      </trkpt>
      <trkpt lat="47.64304" lon="16.13014">
        <ele>420.282279</ele>
        <time>2026-07-07T15:10:09.000Z</time>
      </trkpt>
      <trkpt lat="47.643" lon="16.13017">
        <ele>420.343725</ele>
        <time>2026-07-07T15:10:10.000Z</time>
      </trkpt>
      <trkpt lat="47.64296" lon="16.1302">
        <ele>420.407344</ele>
        <time>2026-07-07T15:10:11.000Z</time>
      </trkpt>
      <trkpt lat="47.64293" lon="16.13023">
        <ele>420.469247</ele>
        <time>2026-07-07T15:10:12.000Z</time>
      </trkpt>
      <trkpt lat="47.64288" lon="16.13026">
        <ele>420.536646</ele>
        <time>2026-07-07T15:10:13.000Z</time>
      </trkpt>
      <trkpt lat="47.64284" lon="16.13029">
        <ele>420.601517</ele>
        <time>2026-07-07T15:10:14.000Z</time>
      </trkpt>
      <trkpt lat="47.6428" lon="16.13033">
        <ele>420.66685</ele>
        <time>2026-07-07T15:10:15.000Z</time>
      </trkpt>
      <trkpt lat="47.64276" lon="16.13036">
        <ele>420.734137</ele>
        <time>2026-07-07T15:10:16.000Z</time>
      </trkpt>
      <trkpt lat="47.64272" lon="16.1304">
        <ele>420.800426</ele>
        <time>2026-07-07T15:10:17.000Z</time>
      </trkpt>
      <trkpt lat="47.64269" lon="16.13043">
        <ele>420.861873</ele>
        <time>2026-07-07T15:10:18.000Z</time>
      </trkpt>
      <trkpt lat="47.64265" lon="16.13045">
        <ele>420.919121</ele>
        <time>2026-07-07T15:10:19.000Z</time>
      </trkpt>
      <trkpt lat="47.64261" lon="16.13044">
        <ele>420.931625</ele>
        <time>2026-07-07T15:10:20.000Z</time>
      </trkpt>
      <trkpt lat="47.64258" lon="16.13042">
        <ele>420.94372</ele>
        <time>2026-07-07T15:10:21.000Z</time>
      </trkpt>
      <trkpt lat="47.64255" lon="16.13037">
        <ele>420.955497</ele>
        <time>2026-07-07T15:10:22.000Z</time>
      </trkpt>
      <trkpt lat="47.64254" lon="16.13032">
        <ele>420.967817</ele>
        <time>2026-07-07T15:10:23.000Z</time>
      </trkpt>
      <trkpt lat="47.64253" lon="16.13027">
        <ele>420.980512</ele>
        <time>2026-07-07T15:10:24.000Z</time>
      </trkpt>
      <trkpt lat="47.64251" lon="16.13022">
        <ele>420.993238</ele>
        <time>2026-07-07T15:10:25.000Z</time>
      </trkpt>
      <trkpt lat="47.64249" lon="16.13016">
        <ele>421.006234</ele>
        <time>2026-07-07T15:10:26.000Z</time>
      </trkpt>
      <trkpt lat="47.64248" lon="16.13011">
        <ele>421.018098</ele>
        <time>2026-07-07T15:10:27.000Z</time>
      </trkpt>
      <trkpt lat="47.64247" lon="16.13008">
        <ele>421.026515</ele>
        <time>2026-07-07T15:10:28.000Z</time>
      </trkpt>
      <trkpt lat="47.64246" lon="16.13006">
        <ele>421.032781</ele>
        <time>2026-07-07T15:10:29.000Z</time>
      </trkpt>
      <trkpt lat="47.64244" lon="16.13005">
        <ele>421.037948</ele>
        <time>2026-07-07T15:10:30.000Z</time>
      </trkpt>
      <trkpt lat="47.64243" lon="16.13006">
        <ele>421.04377</ele>
        <time>2026-07-07T15:10:31.000Z</time>
      </trkpt>
      <trkpt lat="47.64242" lon="16.13009">
        <ele>421.051119</ele>
        <time>2026-07-07T15:10:32.000Z</time>
      </trkpt>
      <trkpt lat="47.64242" lon="16.13014">
        <ele>421.061216</ele>
        <time>2026-07-07T15:10:33.000Z</time>
      </trkpt>
      <trkpt lat="47.64241" lon="16.13019">
        <ele>421.072084</ele>
        <time>2026-07-07T15:10:34.000Z</time>
      </trkpt>
      <trkpt lat="47.64241" lon="16.13024">
        <ele>421.084264</ele>
        <time>2026-07-07T15:10:35.000Z</time>
      </trkpt>
      <trkpt lat="47.6424" lon="16.1303">
        <ele>421.096794</ele>
        <time>2026-07-07T15:10:36.000Z</time>
      </trkpt>
      <trkpt lat="47.64239" lon="16.13035">
        <ele>421.108956</ele>
        <time>2026-07-07T15:10:37.000Z</time>
      </trkpt>
      <trkpt lat="47.64236" lon="16.13039">
        <ele>421.121035</ele>
        <time>2026-07-07T15:10:38.000Z</time>
      </trkpt>
      <trkpt lat="47.64233" lon="16.13041">
        <ele>421.134099</ele>
        <time>2026-07-07T15:10:39.000Z</time>
      </trkpt>
      <trkpt lat="47.64228" lon="16.13044">
        <ele>421.148734</ele>
        <time>2026-07-07T15:10:40.000Z</time>
      </trkpt>
      <trkpt lat="47.64224" lon="16.13046">
        <ele>421.164302</ele>
        <time>2026-07-07T15:10:41.000Z</time>
      </trkpt>
      <trkpt lat="47.64219" lon="16.13048">
        <ele>421.180875</ele>
        <time>2026-07-07T15:10:42.000Z</time>
      </trkpt>
      <trkpt lat="47.64214" lon="16.1305">
        <ele>421.198075</ele>
        <time>2026-07-07T15:10:43.000Z</time>
      </trkpt>
      <trkpt lat="47.64209" lon="16.13053">
        <ele>421.216283</ele>
        <time>2026-07-07T15:10:44.000Z</time>
      </trkpt>
      <trkpt lat="47.64204" lon="16.13055">
        <ele>421.234243</ele>
        <time>2026-07-07T15:10:45.000Z</time>
      </trkpt>
      <trkpt lat="47.64198" lon="16.13058">
        <ele>421.252516</ele>
        <time>2026-07-07T15:10:46.000Z</time>
      </trkpt>
      <trkpt lat="47.64193" lon="16.1306">
        <ele>421.270859</ele>
        <time>2026-07-07T15:10:47.000Z</time>
      </trkpt>
      <trkpt lat="47.64188" lon="16.13062">
        <ele>421.28831</ele>
        <time>2026-07-07T15:10:48.000Z</time>
      </trkpt>
      <trkpt lat="47.64182" lon="16.13064">
        <ele>421.306598</ele>
        <time>2026-07-07T15:10:49.000Z</time>
      </trkpt>
      <trkpt lat="47.64177" lon="16.13066">
        <ele>421.323823</ele>
        <time>2026-07-07T15:10:50.000Z</time>
      </trkpt>
      <trkpt lat="47.64172" lon="16.13068">
        <ele>421.341419</ele>
        <time>2026-07-07T15:10:51.000Z</time>
      </trkpt>
      <trkpt lat="47.64167" lon="16.13069">
        <ele>421.358869</ele>
        <time>2026-07-07T15:10:52.000Z</time>
      </trkpt>
      <trkpt lat="47.64162" lon="16.13071">
        <ele>421.375952</ele>
        <time>2026-07-07T15:10:53.000Z</time>
      </trkpt>
      <trkpt lat="47.64157" lon="16.13072">
        <ele>421.393358</ele>
        <time>2026-07-07T15:10:54.000Z</time>
      </trkpt>
      <trkpt lat="47.64151" lon="16.13074">
        <ele>421.410724</ele>
        <time>2026-07-07T15:10:55.000Z</time>
      </trkpt>
      <trkpt lat="47.64146" lon="16.13075">
        <ele>421.42753</ele>
        <time>2026-07-07T15:10:56.000Z</time>
      </trkpt>
      <trkpt lat="47.64141" lon="16.13077">
        <ele>421.444614</ele>
        <time>2026-07-07T15:10:57.000Z</time>
      </trkpt>
      <trkpt lat="47.64136" lon="16.13078">
        <ele>421.462626</ele>
        <time>2026-07-07T15:10:58.000Z</time>
      </trkpt>
      <trkpt lat="47.64131" lon="16.13079">
        <ele>421.47956</ele>
        <time>2026-07-07T15:10:59.000Z</time>
      </trkpt>
      <trkpt lat="47.64125" lon="16.13081">
        <ele>421.497501</ele>
        <time>2026-07-07T15:11:00.000Z</time>
      </trkpt>
      <trkpt lat="47.6412" lon="16.13081">
        <ele>421.519592</ele>
        <time>2026-07-07T15:11:01.000Z</time>
      </trkpt>
      <trkpt lat="47.64115" lon="16.13082">
        <ele>421.55273</ele>
        <time>2026-07-07T15:11:02.000Z</time>
      </trkpt>
      <trkpt lat="47.64109" lon="16.13083">
        <ele>421.586065</ele>
        <time>2026-07-07T15:11:03.000Z</time>
      </trkpt>
      <trkpt lat="47.64104" lon="16.13085">
        <ele>421.618277</ele>
        <time>2026-07-07T15:11:04.000Z</time>
      </trkpt>
      <trkpt lat="47.64098" lon="16.13086">
        <ele>421.651504</ele>
        <time>2026-07-07T15:11:05.000Z</time>
      </trkpt>
      <trkpt lat="47.64093" lon="16.13087">
        <ele>421.684136</ele>
        <time>2026-07-07T15:11:06.000Z</time>
      </trkpt>
      <trkpt lat="47.64088" lon="16.13088">
        <ele>421.715165</ele>
        <time>2026-07-07T15:11:07.000Z</time>
      </trkpt>
      <trkpt lat="47.64083" lon="16.13089">
        <ele>421.745676</ele>
        <time>2026-07-07T15:11:08.000Z</time>
      </trkpt>
      <trkpt lat="47.64078" lon="16.13091">
        <ele>421.776115</ele>
        <time>2026-07-07T15:11:09.000Z</time>
      </trkpt>
      <trkpt lat="47.64073" lon="16.13092">
        <ele>421.807557</ele>
        <time>2026-07-07T15:11:10.000Z</time>
      </trkpt>
      <trkpt lat="47.64067" lon="16.13093">
        <ele>421.838999</ele>
        <time>2026-07-07T15:11:11.000Z</time>
      </trkpt>
      <trkpt lat="47.64062" lon="16.13094">
        <ele>421.869963</ele>
        <time>2026-07-07T15:11:12.000Z</time>
      </trkpt>
      <trkpt lat="47.64057" lon="16.13095">
        <ele>421.902647</ele>
        <time>2026-07-07T15:11:13.000Z</time>
      </trkpt>
      <trkpt lat="47.64051" lon="16.13096">
        <ele>421.935874</ele>
        <time>2026-07-07T15:11:14.000Z</time>
      </trkpt>
      <trkpt lat="47.64046" lon="16.13096">
        <ele>421.969514</ele>
        <time>2026-07-07T15:11:15.000Z</time>
      </trkpt>
      <trkpt lat="47.6404" lon="16.13097">
        <ele>422.005006</ele>
        <time>2026-07-07T15:11:16.000Z</time>
      </trkpt>
      <trkpt lat="47.64034" lon="16.13098">
        <ele>422.038828</ele>
        <time>2026-07-07T15:11:17.000Z</time>
      </trkpt>
      <trkpt lat="47.64029" lon="16.13099">
        <ele>422.073409</ele>
        <time>2026-07-07T15:11:18.000Z</time>
      </trkpt>
      <trkpt lat="47.64023" lon="16.13101">
        <ele>422.106871</ele>
        <time>2026-07-07T15:11:19.000Z</time>
      </trkpt>
      <trkpt lat="47.64018" lon="16.13102">
        <ele>422.138961</ele>
        <time>2026-07-07T15:11:20.000Z</time>
      </trkpt>
      <trkpt lat="47.64013" lon="16.13103">
        <ele>422.170517</ele>
        <time>2026-07-07T15:11:21.000Z</time>
      </trkpt>
      <trkpt lat="47.64007" lon="16.13104">
        <ele>422.201866</ele>
        <time>2026-07-07T15:11:22.000Z</time>
      </trkpt>
      <trkpt lat="47.64002" lon="16.13105">
        <ele>422.233854</ele>
        <time>2026-07-07T15:11:23.000Z</time>
      </trkpt>
      <trkpt lat="47.63997" lon="16.13106">
        <ele>422.265891</ele>
        <time>2026-07-07T15:11:24.000Z</time>
      </trkpt>
      <trkpt lat="47.63991" lon="16.13107">
        <ele>422.299118</ele>
        <time>2026-07-07T15:11:25.000Z</time>
      </trkpt>
      <trkpt lat="47.63986" lon="16.13108">
        <ele>422.332396</ele>
        <time>2026-07-07T15:11:26.000Z</time>
      </trkpt>
      <trkpt lat="47.6398" lon="16.13109">
        <ele>422.366918</ele>
        <time>2026-07-07T15:11:27.000Z</time>
      </trkpt>
      <trkpt lat="47.63975" lon="16.1311">
        <ele>422.400145</ele>
        <time>2026-07-07T15:11:28.000Z</time>
      </trkpt>
      <trkpt lat="47.63969" lon="16.13111">
        <ele>422.434667</ele>
        <time>2026-07-07T15:11:29.000Z</time>
      </trkpt>
      <trkpt lat="47.63963" lon="16.13112">
        <ele>422.46854</ele>
        <time>2026-07-07T15:11:30.000Z</time>
      </trkpt>
      <trkpt lat="47.63957" lon="16.13114">
        <ele>422.504249</ele>
        <time>2026-07-07T15:11:31.000Z</time>
      </trkpt>
      <trkpt lat="47.63952" lon="16.13115">
        <ele>422.539262</ele>
        <time>2026-07-07T15:11:32.000Z</time>
      </trkpt>
      <trkpt lat="47.63946" lon="16.13116">
        <ele>422.574276</ele>
        <time>2026-07-07T15:11:33.000Z</time>
      </trkpt>
      <trkpt lat="47.6394" lon="16.13117">
        <ele>422.626979</ele>
        <time>2026-07-07T15:11:34.000Z</time>
      </trkpt>
      <trkpt lat="47.63934" lon="16.13118">
        <ele>422.687172</ele>
        <time>2026-07-07T15:11:35.000Z</time>
      </trkpt>
      <trkpt lat="47.63929" lon="16.13119">
        <ele>422.746207</ele>
        <time>2026-07-07T15:11:36.000Z</time>
      </trkpt>
      <trkpt lat="47.63923" lon="16.1312">
        <ele>422.80409</ele>
        <time>2026-07-07T15:11:37.000Z</time>
      </trkpt>
      <trkpt lat="47.63918" lon="16.13122">
        <ele>422.861024</ele>
        <time>2026-07-07T15:11:38.000Z</time>
      </trkpt>
      <trkpt lat="47.63913" lon="16.13123">
        <ele>422.917761</ele>
        <time>2026-07-07T15:11:39.000Z</time>
      </trkpt>
      <trkpt lat="47.63908" lon="16.13124">
        <ele>422.973444</ele>
        <time>2026-07-07T15:11:40.000Z</time>
      </trkpt>
      <trkpt lat="47.63902" lon="16.13124">
        <ele>423.028961</ele>
        <time>2026-07-07T15:11:41.000Z</time>
      </trkpt>
      <trkpt lat="47.63897" lon="16.13125">
        <ele>423.083591</ele>
        <time>2026-07-07T15:11:42.000Z</time>
      </trkpt>
      <trkpt lat="47.63892" lon="16.13127">
        <ele>423.137378</ele>
        <time>2026-07-07T15:11:43.000Z</time>
      </trkpt>
      <trkpt lat="47.63887" lon="16.13128">
        <ele>423.193263</ele>
        <time>2026-07-07T15:11:44.000Z</time>
      </trkpt>
      <trkpt lat="47.63882" lon="16.13129">
        <ele>423.249043</ele>
        <time>2026-07-07T15:11:45.000Z</time>
      </trkpt>
      <trkpt lat="47.63877" lon="16.1313">
        <ele>423.30262</ele>
        <time>2026-07-07T15:11:46.000Z</time>
      </trkpt>
      <trkpt lat="47.63872" lon="16.13131">
        <ele>423.35725</ele>
        <time>2026-07-07T15:11:47.000Z</time>
      </trkpt>
      <trkpt lat="47.63866" lon="16.13132">
        <ele>423.41504</ele>
        <time>2026-07-07T15:11:48.000Z</time>
      </trkpt>
      <trkpt lat="47.63861" lon="16.13133">
        <ele>423.470118</ele>
        <time>2026-07-07T15:11:49.000Z</time>
      </trkpt>
      <trkpt lat="47.63856" lon="16.13134">
        <ele>423.525898</ele>
        <time>2026-07-07T15:11:50.000Z</time>
      </trkpt>
      <trkpt lat="47.63851" lon="16.13135">
        <ele>423.579231</ele>
        <time>2026-07-07T15:11:51.000Z</time>
      </trkpt>
      <trkpt lat="47.63846" lon="16.13135">
        <ele>423.629163</ele>
        <time>2026-07-07T15:11:52.000Z</time>
      </trkpt>
      <trkpt lat="47.63842" lon="16.13135">
        <ele>423.678018</ele>
        <time>2026-07-07T15:11:53.000Z</time>
      </trkpt>
      <trkpt lat="47.63837" lon="16.13136">
        <ele>423.72594</ele>
        <time>2026-07-07T15:11:54.000Z</time>
      </trkpt>
      <trkpt lat="47.63833" lon="16.13136">
        <ele>423.77598</ele>
        <time>2026-07-07T15:11:55.000Z</time>
      </trkpt>
      <trkpt lat="47.63828" lon="16.13137">
        <ele>423.823901</ele>
        <time>2026-07-07T15:11:56.000Z</time>
      </trkpt>
      <trkpt lat="47.63824" lon="16.13138">
        <ele>423.871951</ele>
        <time>2026-07-07T15:11:57.000Z</time>
      </trkpt>
      <trkpt lat="47.63819" lon="16.13138">
        <ele>423.92</ele>
        <time>2026-07-07T15:11:58.000Z</time>
      </trkpt>
      <trkpt lat="47.63814" lon="16.13139">
        <ele>423.970096</ele>
        <time>2026-07-07T15:11:59.000Z</time>
      </trkpt>
      <trkpt lat="47.6381" lon="16.1314">
        <ele>424.021569</ele>
        <time>2026-07-07T15:12:00.000Z</time>
      </trkpt>
      <trkpt lat="47.63805" lon="16.13141">
        <ele>424.075147</ele>
        <time>2026-07-07T15:12:01.000Z</time>
      </trkpt>
      <trkpt lat="47.63799" lon="16.13142">
        <ele>424.13083</ele>
        <time>2026-07-07T15:12:02.000Z</time>
      </trkpt>
      <trkpt lat="47.63794" lon="16.13143">
        <ele>424.18546</ele>
        <time>2026-07-07T15:12:03.000Z</time>
      </trkpt>
      <trkpt lat="47.63789" lon="16.13144">
        <ele>424.243166</ele>
        <time>2026-07-07T15:12:04.000Z</time>
      </trkpt>
      <trkpt lat="47.63784" lon="16.13145">
        <ele>424.299902</ele>
        <time>2026-07-07T15:12:05.000Z</time>
      </trkpt>
      <trkpt lat="47.63778" lon="16.13146">
        <ele>424.356733</ele>
        <time>2026-07-07T15:12:06.000Z</time>
      </trkpt>
      <trkpt lat="47.63773" lon="16.13147">
        <ele>424.415577</ele>
        <time>2026-07-07T15:12:07.000Z</time>
      </trkpt>
      <trkpt lat="47.63767" lon="16.13148">
        <ele>424.473562</ele>
        <time>2026-07-07T15:12:08.000Z</time>
      </trkpt>
      <trkpt lat="47.63762" lon="16.13149">
        <ele>424.521201</ele>
        <time>2026-07-07T15:12:09.000Z</time>
      </trkpt>
      <trkpt lat="47.63757" lon="16.13151">
        <ele>424.561594</ele>
        <time>2026-07-07T15:12:10.000Z</time>
      </trkpt>
      <trkpt lat="47.63753" lon="16.13152">
        <ele>424.600892</ele>
        <time>2026-07-07T15:12:11.000Z</time>
      </trkpt>
      <trkpt lat="47.63748" lon="16.13153">
        <ele>424.639395</ele>
        <time>2026-07-07T15:12:12.000Z</time>
      </trkpt>
      <trkpt lat="47.63743" lon="16.13154">
        <ele>424.676214</ele>
        <time>2026-07-07T15:12:13.000Z</time>
      </trkpt>
      <trkpt lat="47.63739" lon="16.13156">
        <ele>424.711539</ele>
        <time>2026-07-07T15:12:14.000Z</time>
      </trkpt>
      <trkpt lat="47.63735" lon="16.13157">
        <ele>424.746678</ele>
        <time>2026-07-07T15:12:15.000Z</time>
      </trkpt>
      <trkpt lat="47.63731" lon="16.13156">
        <ele>424.77899</ele>
        <time>2026-07-07T15:12:16.000Z</time>
      </trkpt>
      <trkpt lat="47.63728" lon="16.13154">
        <ele>424.806251</ele>
        <time>2026-07-07T15:12:17.000Z</time>
      </trkpt>
      <trkpt lat="47.63726" lon="16.1315">
        <ele>424.833563</ele>
        <time>2026-07-07T15:12:18.000Z</time>
      </trkpt>
      <trkpt lat="47.63726" lon="16.13144">
        <ele>424.862676</ele>
        <time>2026-07-07T15:12:19.000Z</time>
      </trkpt>
      <trkpt lat="47.63725" lon="16.13139">
        <ele>424.893125</ele>
        <time>2026-07-07T15:12:20.000Z</time>
      </trkpt>
      <trkpt lat="47.63724" lon="16.13133">
        <ele>424.924575</ele>
        <time>2026-07-07T15:12:21.000Z</time>
      </trkpt>
      <trkpt lat="47.63723" lon="16.13128">
        <ele>424.956249</ele>
        <time>2026-07-07T15:12:22.000Z</time>
      </trkpt>
      <trkpt lat="47.63723" lon="16.13122">
        <ele>424.988889</ele>
        <time>2026-07-07T15:12:23.000Z</time>
      </trkpt>
      <trkpt lat="47.63724" lon="16.13115">
        <ele>425.023624</ele>
        <time>2026-07-07T15:12:24.000Z</time>
      </trkpt>
      <trkpt lat="47.63725" lon="16.13109">
        <ele>425.059569</ele>
        <time>2026-07-07T15:12:25.000Z</time>
      </trkpt>
      <trkpt lat="47.63725" lon="16.13102">
        <ele>425.096453</ele>
        <time>2026-07-07T15:12:26.000Z</time>
      </trkpt>
      <trkpt lat="47.63726" lon="16.13095">
        <ele>425.134747</ele>
        <time>2026-07-07T15:12:27.000Z</time>
      </trkpt>
      <trkpt lat="47.63726" lon="16.13088">
        <ele>425.173134</ele>
        <time>2026-07-07T15:12:28.000Z</time>
      </trkpt>
      <trkpt lat="47.63727" lon="16.13081">
        <ele>425.210555</ele>
        <time>2026-07-07T15:12:29.000Z</time>
      </trkpt>
      <trkpt lat="47.63728" lon="16.13074">
        <ele>425.24895</ele>
        <time>2026-07-07T15:12:30.000Z</time>
      </trkpt>
      <trkpt lat="47.63729" lon="16.13068">
        <ele>425.285296</ele>
        <time>2026-07-07T15:12:31.000Z</time>
      </trkpt>
      <trkpt lat="47.63729" lon="16.13061">
        <ele>425.321967</ele>
        <time>2026-07-07T15:12:32.000Z</time>
      </trkpt>
      <trkpt lat="47.6373" lon="16.13055">
        <ele>425.35741</ele>
        <time>2026-07-07T15:12:33.000Z</time>
      </trkpt>
      <trkpt lat="47.63729" lon="16.13049">
        <ele>425.39014</ele>
        <time>2026-07-07T15:12:34.000Z</time>
      </trkpt>
      <trkpt lat="47.63727" lon="16.13044">
        <ele>425.421368</ele>
        <time>2026-07-07T15:12:35.000Z</time>
      </trkpt>
      <trkpt lat="47.63724" lon="16.1304">
        <ele>425.451195</ele>
        <time>2026-07-07T15:12:36.000Z</time>
      </trkpt>
      <trkpt lat="47.63721" lon="16.13039">
        <ele>425.47807</ele>
        <time>2026-07-07T15:12:37.000Z</time>
      </trkpt>
      <trkpt lat="47.63718" lon="16.13039">
        <ele>425.505541</ele>
        <time>2026-07-07T15:12:38.000Z</time>
      </trkpt>
      <trkpt lat="47.63714" lon="16.13041">
        <ele>425.53677</ele>
        <time>2026-07-07T15:12:39.000Z</time>
      </trkpt>
      <trkpt lat="47.63711" lon="16.13044">
        <ele>425.570057</ele>
        <time>2026-07-07T15:12:40.000Z</time>
      </trkpt>
      <trkpt lat="47.63707" lon="16.13047">
        <ele>425.604807</ele>
        <time>2026-07-07T15:12:41.000Z</time>
      </trkpt>
      <trkpt lat="47.63703" lon="16.1305">
        <ele>425.641052</ele>
        <time>2026-07-07T15:12:42.000Z</time>
      </trkpt>
      <trkpt lat="47.63699" lon="16.13053">
        <ele>425.677159</ele>
        <time>2026-07-07T15:12:43.000Z</time>
      </trkpt>
      <trkpt lat="47.63695" lon="16.13057">
        <ele>425.713266</ele>
        <time>2026-07-07T15:12:44.000Z</time>
      </trkpt>
      <trkpt lat="47.63691" lon="16.13061">
        <ele>425.750636</ele>
        <time>2026-07-07T15:12:45.000Z</time>
      </trkpt>
      <trkpt lat="47.63688" lon="16.13064">
        <ele>425.78599</ele>
        <time>2026-07-07T15:12:46.000Z</time>
      </trkpt>
      <trkpt lat="47.63684" lon="16.13068">
        <ele>425.821709</ele>
        <time>2026-07-07T15:12:47.000Z</time>
      </trkpt>
      <trkpt lat="47.6368" lon="16.13072">
        <ele>425.858401</ele>
        <time>2026-07-07T15:12:48.000Z</time>
      </trkpt>
      <trkpt lat="47.63677" lon="16.13076">
        <ele>425.895358</ele>
        <time>2026-07-07T15:12:49.000Z</time>
      </trkpt>
      <trkpt lat="47.63673" lon="16.1308">
        <ele>425.929758</ele>
        <time>2026-07-07T15:12:50.000Z</time>
      </trkpt>
      <trkpt lat="47.6367" lon="16.13083">
        <ele>425.953162</ele>
        <time>2026-07-07T15:12:51.000Z</time>
      </trkpt>
      <trkpt lat="47.63666" lon="16.13087">
        <ele>425.961001</ele>
        <time>2026-07-07T15:12:52.000Z</time>
      </trkpt>
      <trkpt lat="47.63663" lon="16.1309">
        <ele>425.968541</ele>
        <time>2026-07-07T15:12:53.000Z</time>
      </trkpt>
      <trkpt lat="47.63659" lon="16.13094">
        <ele>425.976081</ele>
        <time>2026-07-07T15:12:54.000Z</time>
      </trkpt>
      <trkpt lat="47.63656" lon="16.13097">
        <ele>425.98319</ele>
        <time>2026-07-07T15:12:55.000Z</time>
      </trkpt>
      <trkpt lat="47.63652" lon="16.13101">
        <ele>425.990723</ele>
        <time>2026-07-07T15:12:56.000Z</time>
      </trkpt>
      <trkpt lat="47.63649" lon="16.13104">
        <ele>425.997541</ele>
        <time>2026-07-07T15:12:57.000Z</time>
      </trkpt>
      <trkpt lat="47.63646" lon="16.13108">
        <ele>426.00451</ele>
        <time>2026-07-07T15:12:58.000Z</time>
      </trkpt>
      <trkpt lat="47.63644" lon="16.13111">
        <ele>426.01105</ele>
        <time>2026-07-07T15:12:59.000Z</time>
      </trkpt>
      <trkpt lat="47.63641" lon="16.13114">
        <ele>426.017076</ele>
        <time>2026-07-07T15:13:00.000Z</time>
      </trkpt>
      <trkpt lat="47.63638" lon="16.13117">
        <ele>426.022677</ele>
        <time>2026-07-07T15:13:01.000Z</time>
      </trkpt>
      <trkpt lat="47.63636" lon="16.1312">
        <ele>426.027778</ele>
        <time>2026-07-07T15:13:02.000Z</time>
      </trkpt>
      <trkpt lat="47.63634" lon="16.13122">
        <ele>426.032586</ele>
        <time>2026-07-07T15:13:03.000Z</time>
      </trkpt>
      <trkpt lat="47.63632" lon="16.13123">
        <ele>426.037074</ele>
        <time>2026-07-07T15:13:04.000Z</time>
      </trkpt>
      <trkpt lat="47.63629" lon="16.13124">
        <ele>426.041581</ele>
        <time>2026-07-07T15:13:05.000Z</time>
      </trkpt>
      <trkpt lat="47.63626" lon="16.13123">
        <ele>426.046675</ele>
        <time>2026-07-07T15:13:06.000Z</time>
      </trkpt>
      <trkpt lat="47.63623" lon="16.13122">
        <ele>426.052603</ele>
        <time>2026-07-07T15:13:07.000Z</time>
      </trkpt>
      <trkpt lat="47.6362" lon="16.13121">
        <ele>426.05862</ele>
        <time>2026-07-07T15:13:08.000Z</time>
      </trkpt>
      <trkpt lat="47.63616" lon="16.1312">
        <ele>426.065319</ele>
        <time>2026-07-07T15:13:09.000Z</time>
      </trkpt>
      <trkpt lat="47.63612" lon="16.13118">
        <ele>426.072354</ele>
        <time>2026-07-07T15:13:10.000Z</time>
      </trkpt>
      <trkpt lat="47.63609" lon="16.13114">
        <ele>426.080102</ele>
        <time>2026-07-07T15:13:11.000Z</time>
      </trkpt>
      <trkpt lat="47.63606" lon="16.13109">
        <ele>426.088115</ele>
        <time>2026-07-07T15:13:12.000Z</time>
      </trkpt>
      <trkpt lat="47.63604" lon="16.13103">
        <ele>426.096353</ele>
        <time>2026-07-07T15:13:13.000Z</time>
      </trkpt>
      <trkpt lat="47.63603" lon="16.13095">
        <ele>426.105282</ele>
        <time>2026-07-07T15:13:14.000Z</time>
      </trkpt>
      <trkpt lat="47.63602" lon="16.13088">
        <ele>426.11425</ele>
        <time>2026-07-07T15:13:15.000Z</time>
      </trkpt>
      <trkpt lat="47.63601" lon="16.13081">
        <ele>426.1231</ele>
        <time>2026-07-07T15:13:16.000Z</time>
      </trkpt>
      <trkpt lat="47.636" lon="16.13074">
        <ele>426.132004</ele>
        <time>2026-07-07T15:13:17.000Z</time>
      </trkpt>
      <trkpt lat="47.636" lon="16.13066">
        <ele>426.140762</ele>
        <time>2026-07-07T15:13:18.000Z</time>
      </trkpt>
      <trkpt lat="47.63599" lon="16.1306">
        <ele>426.149043</ele>
        <time>2026-07-07T15:13:19.000Z</time>
      </trkpt>
      <trkpt lat="47.63598" lon="16.13053">
        <ele>426.157299</ele>
        <time>2026-07-07T15:13:20.000Z</time>
      </trkpt>
      <trkpt lat="47.63598" lon="16.13046">
        <ele>426.165996</ele>
        <time>2026-07-07T15:13:21.000Z</time>
      </trkpt>
      <trkpt lat="47.63598" lon="16.13038">
        <ele>426.174666</ele>
        <time>2026-07-07T15:13:22.000Z</time>
      </trkpt>
      <trkpt lat="47.63598" lon="16.13031">
        <ele>426.18323</ele>
        <time>2026-07-07T15:13:23.000Z</time>
      </trkpt>
      <trkpt lat="47.63598" lon="16.13024">
        <ele>426.191665</ele>
        <time>2026-07-07T15:13:24.000Z</time>
      </trkpt>
      <trkpt lat="47.63599" lon="16.13018">
        <ele>426.199389</ele>
        <time>2026-07-07T15:13:25.000Z</time>
      </trkpt>
      <trkpt lat="47.63599" lon="16.13012">
        <ele>426.206621</ele>
        <time>2026-07-07T15:13:26.000Z</time>
      </trkpt>
      <trkpt lat="47.63599" lon="16.13006">
        <ele>426.213624</ele>
        <time>2026-07-07T15:13:27.000Z</time>
      </trkpt>
      <trkpt lat="47.63599" lon="16.13">
        <ele>426.221107</ele>
        <time>2026-07-07T15:13:28.000Z</time>
      </trkpt>
      <trkpt lat="47.636" lon="16.12994">
        <ele>426.228725</ele>
        <time>2026-07-07T15:13:29.000Z</time>
      </trkpt>
      <trkpt lat="47.636" lon="16.12987">
        <ele>426.23684</ele>
        <time>2026-07-07T15:13:30.000Z</time>
      </trkpt>
      <trkpt lat="47.63601" lon="16.1298">
        <ele>426.244913</ele>
        <time>2026-07-07T15:13:31.000Z</time>
      </trkpt>
      <trkpt lat="47.63602" lon="16.12974">
        <ele>426.253105</ele>
        <time>2026-07-07T15:13:32.000Z</time>
      </trkpt>
      <trkpt lat="47.63603" lon="16.12967">
        <ele>426.261447</ele>
        <time>2026-07-07T15:13:33.000Z</time>
      </trkpt>
      <trkpt lat="47.63603" lon="16.1296">
        <ele>426.269584</ele>
        <time>2026-07-07T15:13:34.000Z</time>
      </trkpt>
      <trkpt lat="47.63604" lon="16.12954">
        <ele>426.272836</ele>
        <time>2026-07-07T15:13:35.000Z</time>
      </trkpt>
      <trkpt lat="47.63605" lon="16.12947">
        <ele>426.274578</ele>
        <time>2026-07-07T15:13:36.000Z</time>
      </trkpt>
      <trkpt lat="47.63605" lon="16.12941">
        <ele>426.276195</ele>
        <time>2026-07-07T15:13:37.000Z</time>
      </trkpt>
      <trkpt lat="47.63605" lon="16.12936">
        <ele>426.277582</ele>
        <time>2026-07-07T15:13:38.000Z</time>
      </trkpt>
      <trkpt lat="47.63604" lon="16.12932">
        <ele>426.278741</ele>
        <time>2026-07-07T15:13:39.000Z</time>
      </trkpt>
      <trkpt lat="47.63602" lon="16.12931">
        <ele>426.279633</ele>
        <time>2026-07-07T15:13:40.000Z</time>
      </trkpt>
      <trkpt lat="47.636" lon="16.12931">
        <ele>426.280603</ele>
        <time>2026-07-07T15:13:41.000Z</time>
      </trkpt>
      <trkpt lat="47.63597" lon="16.12932">
        <ele>426.281634</ele>
        <time>2026-07-07T15:13:42.000Z</time>
      </trkpt>
      <trkpt lat="47.63594" lon="16.12933">
        <ele>426.282988</ele>
        <time>2026-07-07T15:13:43.000Z</time>
      </trkpt>
      <trkpt lat="47.6359" lon="16.12933">
        <ele>426.284688</ele>
        <time>2026-07-07T15:13:44.000Z</time>
      </trkpt>
      <trkpt lat="47.63585" lon="16.12933">
        <ele>426.286543</ele>
        <time>2026-07-07T15:13:45.000Z</time>
      </trkpt>
      <trkpt lat="47.6358" lon="16.12933">
        <ele>426.288647</ele>
        <time>2026-07-07T15:13:46.000Z</time>
      </trkpt>
      <trkpt lat="47.63575" lon="16.12931">
        <ele>426.290819</ele>
        <time>2026-07-07T15:13:47.000Z</time>
      </trkpt>
      <trkpt lat="47.63569" lon="16.1293">
        <ele>426.29304</ele>
        <time>2026-07-07T15:13:48.000Z</time>
      </trkpt>
      <trkpt lat="47.63564" lon="16.12929">
        <ele>426.295195</ele>
        <time>2026-07-07T15:13:49.000Z</time>
      </trkpt>
      <trkpt lat="47.63559" lon="16.12928">
        <ele>426.29735</ele>
        <time>2026-07-07T15:13:50.000Z</time>
      </trkpt>
      <trkpt lat="47.63554" lon="16.12927">
        <ele>426.299473</ele>
        <time>2026-07-07T15:13:51.000Z</time>
      </trkpt>
      <trkpt lat="47.63548" lon="16.12925">
        <ele>426.30164</ele>
        <time>2026-07-07T15:13:52.000Z</time>
      </trkpt>
      <trkpt lat="47.63543" lon="16.12924">
        <ele>426.303842</ele>
        <time>2026-07-07T15:13:53.000Z</time>
      </trkpt>
      <trkpt lat="47.63538" lon="16.12923">
        <ele>426.306005</ele>
        <time>2026-07-07T15:13:54.000Z</time>
      </trkpt>
      <trkpt lat="47.63532" lon="16.12922">
        <ele>426.308114</ele>
        <time>2026-07-07T15:13:55.000Z</time>
      </trkpt>
      <trkpt lat="47.63527" lon="16.12921">
        <ele>426.310263</ele>
        <time>2026-07-07T15:13:56.000Z</time>
      </trkpt>
      <trkpt lat="47.63522" lon="16.1292">
        <ele>426.312418</ele>
        <time>2026-07-07T15:13:57.000Z</time>
      </trkpt>
      <trkpt lat="47.63516" lon="16.12919">
        <ele>426.314669</ele>
        <time>2026-07-07T15:13:58.000Z</time>
      </trkpt>
      <trkpt lat="47.63511" lon="16.12918">
        <ele>426.316858</ele>
        <time>2026-07-07T15:13:59.000Z</time>
      </trkpt>
      <trkpt lat="47.63505" lon="16.12918">
        <ele>426.319081</ele>
        <time>2026-07-07T15:14:00.000Z</time>
      </trkpt>
      <trkpt lat="47.635" lon="16.12917">
        <ele>426.32122</ele>
        <time>2026-07-07T15:14:01.000Z</time>
      </trkpt>
      <trkpt lat="47.63495" lon="16.12917">
        <ele>426.323359</ele>
        <time>2026-07-07T15:14:02.000Z</time>
      </trkpt>
      <trkpt lat="47.63489" lon="16.12917">
        <ele>426.325538</ele>
        <time>2026-07-07T15:14:03.000Z</time>
      </trkpt>
      <trkpt lat="47.63484" lon="16.12917">
        <ele>426.327595</ele>
        <time>2026-07-07T15:14:04.000Z</time>
      </trkpt>
      <trkpt lat="47.63479" lon="16.12917">
        <ele>426.329693</ele>
        <time>2026-07-07T15:14:05.000Z</time>
      </trkpt>
      <trkpt lat="47.63474" lon="16.12917">
        <ele>426.331793</ele>
        <time>2026-07-07T15:14:06.000Z</time>
      </trkpt>
      <trkpt lat="47.63469" lon="16.12918">
        <ele>426.333857</ele>
        <time>2026-07-07T15:14:07.000Z</time>
      </trkpt>
      <trkpt lat="47.63464" lon="16.12919">
        <ele>426.335963</ele>
        <time>2026-07-07T15:14:08.000Z</time>
      </trkpt>
      <trkpt lat="47.63458" lon="16.12919">
        <ele>426.338072</ele>
        <time>2026-07-07T15:14:09.000Z</time>
      </trkpt>
      <trkpt lat="47.63453" lon="16.1292">
        <ele>426.340218</ele>
        <time>2026-07-07T15:14:10.000Z</time>
      </trkpt>
      <trkpt lat="47.63448" lon="16.12921">
        <ele>426.342327</ele>
        <time>2026-07-07T15:14:11.000Z</time>
      </trkpt>
      <trkpt lat="47.63443" lon="16.12922">
        <ele>426.350758</ele>
        <time>2026-07-07T15:14:12.000Z</time>
      </trkpt>
      <trkpt lat="47.63438" lon="16.12923">
        <ele>426.387371</ele>
        <time>2026-07-07T15:14:13.000Z</time>
      </trkpt>
      <trkpt lat="47.63433" lon="16.12924">
        <ele>426.425489</ele>
        <time>2026-07-07T15:14:14.000Z</time>
      </trkpt>
      <trkpt lat="47.63427" lon="16.12926">
        <ele>426.46353</ele>
        <time>2026-07-07T15:14:15.000Z</time>
      </trkpt>
      <trkpt lat="47.63422" lon="16.12927">
        <ele>426.502362</ele>
        <time>2026-07-07T15:14:16.000Z</time>
      </trkpt>
      <trkpt lat="47.63417" lon="16.12928">
        <ele>426.541276</ele>
        <time>2026-07-07T15:14:17.000Z</time>
      </trkpt>
      <trkpt lat="47.63412" lon="16.1293">
        <ele>426.580107</ele>
        <time>2026-07-07T15:14:18.000Z</time>
      </trkpt>
      <trkpt lat="47.63406" lon="16.12932">
        <ele>426.619063</ele>
        <time>2026-07-07T15:14:19.000Z</time>
      </trkpt>
      <trkpt lat="47.63401" lon="16.12935">
        <ele>426.659119</ele>
        <time>2026-07-07T15:14:20.000Z</time>
      </trkpt>
      <trkpt lat="47.63396" lon="16.12937">
        <ele>426.698342</ele>
        <time>2026-07-07T15:14:21.000Z</time>
      </trkpt>
      <trkpt lat="47.63391" lon="16.12939">
        <ele>426.738125</ele>
        <time>2026-07-07T15:14:22.000Z</time>
      </trkpt>
      <trkpt lat="47.63385" lon="16.12942">
        <ele>426.777348</ele>
        <time>2026-07-07T15:14:23.000Z</time>
      </trkpt>
      <trkpt lat="47.6338" lon="16.12944">
        <ele>426.815879</ele>
        <time>2026-07-07T15:14:24.000Z</time>
      </trkpt>
      <trkpt lat="47.63375" lon="16.12947">
        <ele>426.855702</ele>
        <time>2026-07-07T15:14:25.000Z</time>
      </trkpt>
      <trkpt lat="47.6337" lon="16.1295">
        <ele>426.893352</ele>
        <time>2026-07-07T15:14:26.000Z</time>
      </trkpt>
      <trkpt lat="47.63365" lon="16.12953">
        <ele>426.932908</ele>
        <time>2026-07-07T15:14:27.000Z</time>
      </trkpt>
      <trkpt lat="47.63361" lon="16.12956">
        <ele>426.970921</ele>
        <time>2026-07-07T15:14:28.000Z</time>
      </trkpt>
      <trkpt lat="47.63356" lon="16.1296">
        <ele>427.009368</ele>
        <time>2026-07-07T15:14:29.000Z</time>
      </trkpt>
      <trkpt lat="47.63351" lon="16.12963">
        <ele>427.048539</ele>
        <time>2026-07-07T15:14:30.000Z</time>
      </trkpt>
      <trkpt lat="47.63346" lon="16.12966">
        <ele>427.086673</ele>
        <time>2026-07-07T15:14:31.000Z</time>
      </trkpt>
      <trkpt lat="47.63341" lon="16.12969">
        <ele>427.125304</ele>
        <time>2026-07-07T15:14:32.000Z</time>
      </trkpt>
      <trkpt lat="47.63336" lon="16.12972">
        <ele>427.162954</ele>
        <time>2026-07-07T15:14:33.000Z</time>
      </trkpt>
      <trkpt lat="47.63331" lon="16.12975">
        <ele>427.200603</ele>
        <time>2026-07-07T15:14:34.000Z</time>
      </trkpt>
      <trkpt lat="47.63326" lon="16.12977">
        <ele>427.239234</ele>
        <time>2026-07-07T15:14:35.000Z</time>
      </trkpt>
      <trkpt lat="47.63321" lon="16.12981">
        <ele>427.278595</ele>
        <time>2026-07-07T15:14:36.000Z</time>
      </trkpt>
      <trkpt lat="47.63316" lon="16.12984">
        <ele>427.317493</ele>
        <time>2026-07-07T15:14:37.000Z</time>
      </trkpt>
      <trkpt lat="47.63312" lon="16.12988">
        <ele>427.356592</ele>
        <time>2026-07-07T15:14:38.000Z</time>
      </trkpt>
      <trkpt lat="47.63307" lon="16.12991">
        <ele>427.395252</ele>
        <time>2026-07-07T15:14:39.000Z</time>
      </trkpt>
      <trkpt lat="47.63302" lon="16.12994">
        <ele>427.434809</ele>
        <time>2026-07-07T15:14:40.000Z</time>
      </trkpt>
      <trkpt lat="47.63297" lon="16.12998">
        <ele>427.475641</ele>
        <time>2026-07-07T15:14:41.000Z</time>
      </trkpt>
      <trkpt lat="47.63292" lon="16.13002">
        <ele>427.514331</ele>
        <time>2026-07-07T15:14:42.000Z</time>
      </trkpt>
      <trkpt lat="47.63287" lon="16.13006">
        <ele>427.552791</ele>
        <time>2026-07-07T15:14:43.000Z</time>
      </trkpt>
      <trkpt lat="47.63283" lon="16.13009">
        <ele>427.589724</ele>
        <time>2026-07-07T15:14:44.000Z</time>
      </trkpt>
      <trkpt lat="47.63278" lon="16.13012">
        <ele>427.627104</ele>
        <time>2026-07-07T15:14:45.000Z</time>
      </trkpt>
      <trkpt lat="47.63273" lon="16.13015">
        <ele>427.667683</ele>
        <time>2026-07-07T15:14:46.000Z</time>
      </trkpt>
      <trkpt lat="47.63268" lon="16.13018">
        <ele>427.708963</ele>
        <time>2026-07-07T15:14:47.000Z</time>
      </trkpt>
      <trkpt lat="47.63263" lon="16.13021">
        <ele>427.749535</ele>
        <time>2026-07-07T15:14:48.000Z</time>
      </trkpt>
      <trkpt lat="47.63258" lon="16.13023">
        <ele>427.788826</ele>
        <time>2026-07-07T15:14:49.000Z</time>
      </trkpt>
      <trkpt lat="47.63253" lon="16.13026">
        <ele>427.830702</ele>
        <time>2026-07-07T15:14:50.000Z</time>
      </trkpt>
      <trkpt lat="47.63248" lon="16.13028">
        <ele>427.87066</ele>
        <time>2026-07-07T15:14:51.000Z</time>
      </trkpt>
      <trkpt lat="47.63243" lon="16.1303">
        <ele>427.91048</ele>
        <time>2026-07-07T15:14:52.000Z</time>
      </trkpt>
      <trkpt lat="47.63238" lon="16.13033">
        <ele>427.954175</ele>
        <time>2026-07-07T15:14:53.000Z</time>
      </trkpt>
      <trkpt lat="47.63233" lon="16.13035">
        <ele>427.994486</ele>
        <time>2026-07-07T15:14:54.000Z</time>
      </trkpt>
      <trkpt lat="47.63227" lon="16.13038">
        <ele>428.037983</ele>
        <time>2026-07-07T15:14:55.000Z</time>
      </trkpt>
      <trkpt lat="47.63222" lon="16.1304">
        <ele>428.082215</ele>
        <time>2026-07-07T15:14:56.000Z</time>
      </trkpt>
      <trkpt lat="47.63216" lon="16.13042">
        <ele>428.126017</ele>
        <time>2026-07-07T15:14:57.000Z</time>
      </trkpt>
      <trkpt lat="47.63211" lon="16.13045">
        <ele>428.170698</ele>
        <time>2026-07-07T15:14:58.000Z</time>
      </trkpt>
      <trkpt lat="47.63205" lon="16.13047">
        <ele>428.21493</ele>
        <time>2026-07-07T15:14:59.000Z</time>
      </trkpt>
      <trkpt lat="47.632" lon="16.13049">
        <ele>428.257727</ele>
        <time>2026-07-07T15:15:00.000Z</time>
      </trkpt>
      <trkpt lat="47.63194" lon="16.13051">
        <ele>428.301036</ele>
        <time>2026-07-07T15:15:01.000Z</time>
      </trkpt>
      <trkpt lat="47.63189" lon="16.13053">
        <ele>428.34446</ele>
        <time>2026-07-07T15:15:02.000Z</time>
      </trkpt>
      <trkpt lat="47.63184" lon="16.13054">
        <ele>428.386049</ele>
        <time>2026-07-07T15:15:03.000Z</time>
      </trkpt>
      <trkpt lat="47.63178" lon="16.13056">
        <ele>428.428959</ele>
        <time>2026-07-07T15:15:04.000Z</time>
      </trkpt>
      <trkpt lat="47.63173" lon="16.13057">
        <ele>428.471785</ele>
        <time>2026-07-07T15:15:05.000Z</time>
      </trkpt>
      <trkpt lat="47.63167" lon="16.13058">
        <ele>428.51428</ele>
        <time>2026-07-07T15:15:06.000Z</time>
      </trkpt>
      <trkpt lat="47.63162" lon="16.13059">
        <ele>428.555301</ele>
        <time>2026-07-07T15:15:07.000Z</time>
      </trkpt>
      <trkpt lat="47.63156" lon="16.13059">
        <ele>428.596941</ele>
        <time>2026-07-07T15:15:08.000Z</time>
      </trkpt>
      <trkpt lat="47.63151" lon="16.1306">
        <ele>428.637961</ele>
        <time>2026-07-07T15:15:09.000Z</time>
      </trkpt>
      <trkpt lat="47.63146" lon="16.13061">
        <ele>428.680457</ele>
        <time>2026-07-07T15:15:10.000Z</time>
      </trkpt>
      <trkpt lat="47.6314" lon="16.13062">
        <ele>428.721372</ele>
        <time>2026-07-07T15:15:11.000Z</time>
      </trkpt>
      <trkpt lat="47.63135" lon="16.13062">
        <ele>428.762899</ele>
        <time>2026-07-07T15:15:12.000Z</time>
      </trkpt>
      <trkpt lat="47.63129" lon="16.13062">
        <ele>428.80522</ele>
        <time>2026-07-07T15:15:13.000Z</time>
      </trkpt>
      <trkpt lat="47.63124" lon="16.13061">
        <ele>428.847592</ele>
        <time>2026-07-07T15:15:14.000Z</time>
      </trkpt>
      <trkpt lat="47.63118" lon="16.13061">
        <ele>428.889913</ele>
        <time>2026-07-07T15:15:15.000Z</time>
      </trkpt>
      <trkpt lat="47.63113" lon="16.1306">
        <ele>428.932257</ele>
        <time>2026-07-07T15:15:16.000Z</time>
      </trkpt>
      <trkpt lat="47.63107" lon="16.1306">
        <ele>428.974578</ele>
        <time>2026-07-07T15:15:17.000Z</time>
      </trkpt>
      <trkpt lat="47.63102" lon="16.13059">
        <ele>429.017026</ele>
        <time>2026-07-07T15:15:18.000Z</time>
      </trkpt>
      <trkpt lat="47.63097" lon="16.13059">
        <ele>429.057418</ele>
        <time>2026-07-07T15:15:19.000Z</time>
      </trkpt>
      <trkpt lat="47.63091" lon="16.13058">
        <ele>429.099174</ele>
        <time>2026-07-07T15:15:20.000Z</time>
      </trkpt>
      <trkpt lat="47.63086" lon="16.13058">
        <ele>429.141052</ele>
        <time>2026-07-07T15:15:21.000Z</time>
      </trkpt>
      <trkpt lat="47.6308" lon="16.13056">
        <ele>429.181759</ele>
        <time>2026-07-07T15:15:22.000Z</time>
      </trkpt>
      <trkpt lat="47.63075" lon="16.13055">
        <ele>429.225253</ele>
        <time>2026-07-07T15:15:23.000Z</time>
      </trkpt>
      <trkpt lat="47.63069" lon="16.13054">
        <ele>429.267243</ele>
        <time>2026-07-07T15:15:24.000Z</time>
      </trkpt>
      <trkpt lat="47.63064" lon="16.13053">
        <ele>429.309529</ele>
        <time>2026-07-07T15:15:25.000Z</time>
      </trkpt>
      <trkpt lat="47.63058" lon="16.13051">
        <ele>429.350514</ele>
        <time>2026-07-07T15:15:26.000Z</time>
      </trkpt>
      <trkpt lat="47.63053" lon="16.1305">
        <ele>429.393087</ele>
        <time>2026-07-07T15:15:27.000Z</time>
      </trkpt>
      <trkpt lat="47.63047" lon="16.13048">
        <ele>429.435659</ele>
        <time>2026-07-07T15:15:28.000Z</time>
      </trkpt>
      <trkpt lat="47.63042" lon="16.13046">
        <ele>429.478339</ele>
        <time>2026-07-07T15:15:29.000Z</time>
      </trkpt>
      <trkpt lat="47.63037" lon="16.13044">
        <ele>429.519045</ele>
        <time>2026-07-07T15:15:30.000Z</time>
      </trkpt>
      <trkpt lat="47.63031" lon="16.13042">
        <ele>429.56002</ele>
        <time>2026-07-07T15:15:31.000Z</time>
      </trkpt>
      <trkpt lat="47.63026" lon="16.1304">
        <ele>429.601865</ele>
        <time>2026-07-07T15:15:32.000Z</time>
      </trkpt>
      <trkpt lat="47.63021" lon="16.13037">
        <ele>429.643783</ele>
        <time>2026-07-07T15:15:33.000Z</time>
      </trkpt>
      <trkpt lat="47.63016" lon="16.13034">
        <ele>429.685356</ele>
        <time>2026-07-07T15:15:34.000Z</time>
      </trkpt>
      <trkpt lat="47.6301" lon="16.13031">
        <ele>429.72905</ele>
        <time>2026-07-07T15:15:35.000Z</time>
      </trkpt>
      <trkpt lat="47.63005" lon="16.13028">
        <ele>429.77241</ele>
        <time>2026-07-07T15:15:36.000Z</time>
      </trkpt>
      <trkpt lat="47.63" lon="16.13024">
        <ele>429.815267</ele>
        <time>2026-07-07T15:15:37.000Z</time>
      </trkpt>
      <trkpt lat="47.62995" lon="16.1302">
        <ele>429.855413</ele>
        <time>2026-07-07T15:15:38.000Z</time>
      </trkpt>
      <trkpt lat="47.62991" lon="16.13017">
        <ele>429.894648</ele>
        <time>2026-07-07T15:15:39.000Z</time>
      </trkpt>
      <trkpt lat="47.62987" lon="16.13012">
        <ele>429.931165</ele>
        <time>2026-07-07T15:15:40.000Z</time>
      </trkpt>
      <trkpt lat="47.62983" lon="16.13009">
        <ele>429.964061</ele>
        <time>2026-07-07T15:15:41.000Z</time>
      </trkpt>
      <trkpt lat="47.62979" lon="16.13006">
        <ele>429.998497</ele>
        <time>2026-07-07T15:15:42.000Z</time>
      </trkpt>
      <trkpt lat="47.62975" lon="16.13002">
        <ele>430.037482</ele>
        <time>2026-07-07T15:15:43.000Z</time>
      </trkpt>
      <trkpt lat="47.62968" lon="16.12999">
        <ele>430.094293</ele>
        <time>2026-07-07T15:15:44.000Z</time>
      </trkpt>
      <trkpt lat="47.6296" lon="16.12996">
        <ele>430.152433</ele>
        <time>2026-07-07T15:15:45.000Z</time>
      </trkpt>
      <trkpt lat="47.62955" lon="16.12993">
        <ele>430.192992</ele>
        <time>2026-07-07T15:15:46.000Z</time>
      </trkpt>
      <trkpt lat="47.6295" lon="16.12989">
        <ele>430.234255</ele>
        <time>2026-07-07T15:15:47.000Z</time>
      </trkpt>
      <trkpt lat="47.62946" lon="16.12985">
        <ele>430.274918</ele>
        <time>2026-07-07T15:15:48.000Z</time>
      </trkpt>
      <trkpt lat="47.62941" lon="16.12981">
        <ele>430.317799</ele>
        <time>2026-07-07T15:15:49.000Z</time>
      </trkpt>
      <trkpt lat="47.62936" lon="16.12977">
        <ele>430.356784</ele>
        <time>2026-07-07T15:15:50.000Z</time>
      </trkpt>
      <trkpt lat="47.62932" lon="16.12974">
        <ele>430.397171</ele>
        <time>2026-07-07T15:15:51.000Z</time>
      </trkpt>
      <trkpt lat="47.62927" lon="16.1297">
        <ele>430.437809</ele>
        <time>2026-07-07T15:15:52.000Z</time>
      </trkpt>
      <trkpt lat="47.62922" lon="16.12966">
        <ele>430.478224</ele>
        <time>2026-07-07T15:15:53.000Z</time>
      </trkpt>
      <trkpt lat="47.62917" lon="16.12962">
        <ele>430.517138</ele>
        <time>2026-07-07T15:15:54.000Z</time>
      </trkpt>
      <trkpt lat="47.62912" lon="16.12959">
        <ele>430.556475</ele>
        <time>2026-07-07T15:15:55.000Z</time>
      </trkpt>
      <trkpt lat="47.62907" lon="16.12955">
        <ele>430.596671</ele>
        <time>2026-07-07T15:15:56.000Z</time>
      </trkpt>
      <trkpt lat="47.62902" lon="16.12951">
        <ele>430.635811</ele>
        <time>2026-07-07T15:15:57.000Z</time>
      </trkpt>
      <trkpt lat="47.62897" lon="16.12948">
        <ele>430.674725</ele>
        <time>2026-07-07T15:15:58.000Z</time>
      </trkpt>
      <trkpt lat="47.62892" lon="16.12944">
        <ele>430.714501</ele>
        <time>2026-07-07T15:15:59.000Z</time>
      </trkpt>
      <trkpt lat="47.62888" lon="16.1294">
        <ele>430.753415</ele>
        <time>2026-07-07T15:16:00.000Z</time>
      </trkpt>
      <trkpt lat="47.62883" lon="16.12937">
        <ele>430.793188</ele>
        <time>2026-07-07T15:16:01.000Z</time>
      </trkpt>
      <trkpt lat="47.62878" lon="16.12933">
        <ele>430.832961</ele>
        <time>2026-07-07T15:16:02.000Z</time>
      </trkpt>
      <trkpt lat="47.62873" lon="16.12929">
        <ele>430.873157</ele>
        <time>2026-07-07T15:16:03.000Z</time>
      </trkpt>
      <trkpt lat="47.62867" lon="16.12926">
        <ele>430.914439</ele>
        <time>2026-07-07T15:16:04.000Z</time>
      </trkpt>
      <trkpt lat="47.62862" lon="16.12922">
        <ele>430.954663</ele>
        <time>2026-07-07T15:16:05.000Z</time>
      </trkpt>
      <trkpt lat="47.62857" lon="16.12919">
        <ele>430.994801</ele>
        <time>2026-07-07T15:16:06.000Z</time>
      </trkpt>
      <trkpt lat="47.62852" lon="16.12917">
        <ele>431.034598</ele>
        <time>2026-07-07T15:16:07.000Z</time>
      </trkpt>
      <trkpt lat="47.62847" lon="16.12914">
        <ele>431.074912</ele>
        <time>2026-07-07T15:16:08.000Z</time>
      </trkpt>
      <trkpt lat="47.62841" lon="16.12912">
        <ele>431.113949</ele>
        <time>2026-07-07T15:16:09.000Z</time>
      </trkpt>
      <trkpt lat="47.62836" lon="16.1291">
        <ele>431.153293</ele>
        <time>2026-07-07T15:16:10.000Z</time>
      </trkpt>
      <trkpt lat="47.62831" lon="16.12908">
        <ele>431.192408</ele>
        <time>2026-07-07T15:16:11.000Z</time>
      </trkpt>
      <trkpt lat="47.62825" lon="16.12906">
        <ele>431.232555</ele>
        <time>2026-07-07T15:16:12.000Z</time>
      </trkpt>
      <trkpt lat="47.6282" lon="16.12905">
        <ele>431.272481</ele>
        <time>2026-07-07T15:16:13.000Z</time>
      </trkpt>
      <trkpt lat="47.62814" lon="16.12904">
        <ele>431.313774</ele>
        <time>2026-07-07T15:16:14.000Z</time>
      </trkpt>
      <trkpt lat="47.62809" lon="16.12903">
        <ele>431.353638</ele>
        <time>2026-07-07T15:16:15.000Z</time>
      </trkpt>
      <trkpt lat="47.62803" lon="16.12902">
        <ele>431.393446</ele>
        <time>2026-07-07T15:16:16.000Z</time>
      </trkpt>
      <trkpt lat="47.62798" lon="16.12902">
        <ele>431.431773</ele>
        <time>2026-07-07T15:16:17.000Z</time>
      </trkpt>
      <trkpt lat="47.62792" lon="16.12901">
        <ele>431.471368</ele>
        <time>2026-07-07T15:16:18.000Z</time>
      </trkpt>
      <trkpt lat="47.62787" lon="16.12901">
        <ele>431.51101</ele>
        <time>2026-07-07T15:16:19.000Z</time>
      </trkpt>
      <trkpt lat="47.62781" lon="16.129">
        <ele>431.549908</ele>
        <time>2026-07-07T15:16:20.000Z</time>
      </trkpt>
      <trkpt lat="47.62776" lon="16.129">
        <ele>431.589503</ele>
        <time>2026-07-07T15:16:21.000Z</time>
      </trkpt>
      <trkpt lat="47.62771" lon="16.129">
        <ele>431.627645</ele>
        <time>2026-07-07T15:16:22.000Z</time>
      </trkpt>
      <trkpt lat="47.62765" lon="16.129">
        <ele>431.665774</ele>
        <time>2026-07-07T15:16:23.000Z</time>
      </trkpt>
      <trkpt lat="47.6276" lon="16.129">
        <ele>431.703268</ele>
        <time>2026-07-07T15:16:24.000Z</time>
      </trkpt>
      <trkpt lat="47.62754" lon="16.12901">
        <ele>431.738286</ele>
        <time>2026-07-07T15:16:25.000Z</time>
      </trkpt>
      <trkpt lat="47.62749" lon="16.12902">
        <ele>431.772765</ele>
        <time>2026-07-07T15:16:26.000Z</time>
      </trkpt>
      <trkpt lat="47.62744" lon="16.12902">
        <ele>431.808533</ele>
        <time>2026-07-07T15:16:27.000Z</time>
      </trkpt>
      <trkpt lat="47.62738" lon="16.12904">
        <ele>431.844513</ele>
        <time>2026-07-07T15:16:28.000Z</time>
      </trkpt>
      <trkpt lat="47.62733" lon="16.12905">
        <ele>431.879608</ele>
        <time>2026-07-07T15:16:29.000Z</time>
      </trkpt>
      <trkpt lat="47.62727" lon="16.12907">
        <ele>431.91563</ele>
        <time>2026-07-07T15:16:30.000Z</time>
      </trkpt>
      <trkpt lat="47.62722" lon="16.1291">
        <ele>431.951624</ele>
        <time>2026-07-07T15:16:31.000Z</time>
      </trkpt>
      <trkpt lat="47.62717" lon="16.12912">
        <ele>431.987753</ele>
        <time>2026-07-07T15:16:32.000Z</time>
      </trkpt>
      <trkpt lat="47.62712" lon="16.12915">
        <ele>432.02219</ele>
        <time>2026-07-07T15:16:33.000Z</time>
      </trkpt>
      <trkpt lat="47.62707" lon="16.12918">
        <ele>432.057847</ele>
        <time>2026-07-07T15:16:34.000Z</time>
      </trkpt>
      <trkpt lat="47.62701" lon="16.1292">
        <ele>432.093362</ele>
        <time>2026-07-07T15:16:35.000Z</time>
      </trkpt>
      <trkpt lat="47.62696" lon="16.12923">
        <ele>432.128711</ele>
        <time>2026-07-07T15:16:36.000Z</time>
      </trkpt>
      <trkpt lat="47.62691" lon="16.12926">
        <ele>432.163018</ele>
        <time>2026-07-07T15:16:37.000Z</time>
      </trkpt>
      <trkpt lat="47.62687" lon="16.12929">
        <ele>432.196728</ele>
        <time>2026-07-07T15:16:38.000Z</time>
      </trkpt>
      <trkpt lat="47.62682" lon="16.12933">
        <ele>432.230967</ele>
        <time>2026-07-07T15:16:39.000Z</time>
      </trkpt>
      <trkpt lat="47.62677" lon="16.12936">
        <ele>432.265795</ele>
        <time>2026-07-07T15:16:40.000Z</time>
      </trkpt>
      <trkpt lat="47.62672" lon="16.1294">
        <ele>432.299093</ele>
        <time>2026-07-07T15:16:41.000Z</time>
      </trkpt>
      <trkpt lat="47.62668" lon="16.12943">
        <ele>432.33239</ele>
        <time>2026-07-07T15:16:42.000Z</time>
      </trkpt>
      <trkpt lat="47.62663" lon="16.12947">
        <ele>432.36546</ele>
        <time>2026-07-07T15:16:43.000Z</time>
      </trkpt>
      <trkpt lat="47.62659" lon="16.1295">
        <ele>432.397369</ele>
        <time>2026-07-07T15:16:44.000Z</time>
      </trkpt>
      <trkpt lat="47.62654" lon="16.12953">
        <ele>432.43063</ele>
        <time>2026-07-07T15:16:45.000Z</time>
      </trkpt>
      <trkpt lat="47.6265" lon="16.12957">
        <ele>432.464283</ele>
        <time>2026-07-07T15:16:46.000Z</time>
      </trkpt>
      <trkpt lat="47.62645" lon="16.12959">
        <ele>432.497665</ele>
        <time>2026-07-07T15:16:47.000Z</time>
      </trkpt>
      <trkpt lat="47.6264" lon="16.12962">
        <ele>432.531061</ele>
        <time>2026-07-07T15:16:48.000Z</time>
      </trkpt>
      <trkpt lat="47.62635" lon="16.12964">
        <ele>432.564578</ele>
        <time>2026-07-07T15:16:49.000Z</time>
      </trkpt>
      <trkpt lat="47.6263" lon="16.12965">
        <ele>432.597432</ele>
        <time>2026-07-07T15:16:50.000Z</time>
      </trkpt>
      <trkpt lat="47.62625" lon="16.12965">
        <ele>432.630466</ele>
        <time>2026-07-07T15:16:51.000Z</time>
      </trkpt>
      <trkpt lat="47.62619" lon="16.12965">
        <ele>432.665416</ele>
        <time>2026-07-07T15:16:52.000Z</time>
      </trkpt>
      <trkpt lat="47.62614" lon="16.12965">
        <ele>432.699818</ele>
        <time>2026-07-07T15:16:53.000Z</time>
      </trkpt>
      <trkpt lat="47.62609" lon="16.12963">
        <ele>432.73466</ele>
        <time>2026-07-07T15:16:54.000Z</time>
      </trkpt>
      <trkpt lat="47.62604" lon="16.12962">
        <ele>432.769031</ele>
        <time>2026-07-07T15:16:55.000Z</time>
      </trkpt>
      <trkpt lat="47.62598" lon="16.1296">
        <ele>432.803799</ele>
        <time>2026-07-07T15:16:56.000Z</time>
      </trkpt>
      <trkpt lat="47.62593" lon="16.12957">
        <ele>432.838428</ele>
        <time>2026-07-07T15:16:57.000Z</time>
      </trkpt>
      <trkpt lat="47.62588" lon="16.12955">
        <ele>432.872322</ele>
        <time>2026-07-07T15:16:58.000Z</time>
      </trkpt>
      <trkpt lat="47.62583" lon="16.12952">
        <ele>432.906548</ele>
        <time>2026-07-07T15:16:59.000Z</time>
      </trkpt>
      <trkpt lat="47.62578" lon="16.12949">
        <ele>432.94101</ele>
        <time>2026-07-07T15:17:00.000Z</time>
      </trkpt>
      <trkpt lat="47.62574" lon="16.12945">
        <ele>432.975156</ele>
        <time>2026-07-07T15:17:01.000Z</time>
      </trkpt>
      <trkpt lat="47.6257" lon="16.1294">
        <ele>433.008082</ele>
        <time>2026-07-07T15:17:02.000Z</time>
      </trkpt>
      <trkpt lat="47.62566" lon="16.12936">
        <ele>433.041029</ele>
        <time>2026-07-07T15:17:03.000Z</time>
      </trkpt>
      <trkpt lat="47.62562" lon="16.1293">
        <ele>433.073678</ele>
        <time>2026-07-07T15:17:04.000Z</time>
      </trkpt>
      <trkpt lat="47.62559" lon="16.12924">
        <ele>433.107929</ele>
        <time>2026-07-07T15:17:05.000Z</time>
      </trkpt>
      <trkpt lat="47.62555" lon="16.12918">
        <ele>433.140691</ele>
        <time>2026-07-07T15:17:06.000Z</time>
      </trkpt>
      <trkpt lat="47.62552" lon="16.12912">
        <ele>433.173379</ele>
        <time>2026-07-07T15:17:07.000Z</time>
      </trkpt>
      <trkpt lat="47.62549" lon="16.12906">
        <ele>433.206743</ele>
        <time>2026-07-07T15:17:08.000Z</time>
      </trkpt>
      <trkpt lat="47.62546" lon="16.129">
        <ele>433.24004</ele>
        <time>2026-07-07T15:17:09.000Z</time>
      </trkpt>
      <trkpt lat="47.62543" lon="16.12893">
        <ele>433.274821</ele>
        <time>2026-07-07T15:17:10.000Z</time>
      </trkpt>
      <trkpt lat="47.62539" lon="16.12887">
        <ele>433.310336</ele>
        <time>2026-07-07T15:17:11.000Z</time>
      </trkpt>
      <trkpt lat="47.62536" lon="16.1288">
        <ele>433.345461</ele>
        <time>2026-07-07T15:17:12.000Z</time>
      </trkpt>
      <trkpt lat="47.62533" lon="16.12874">
        <ele>433.380586</ele>
        <time>2026-07-07T15:17:13.000Z</time>
      </trkpt>
      <trkpt lat="47.6253" lon="16.12868">
        <ele>433.414636</ele>
        <time>2026-07-07T15:17:14.000Z</time>
      </trkpt>
      <trkpt lat="47.62526" lon="16.12861">
        <ele>433.449075</ele>
        <time>2026-07-07T15:17:15.000Z</time>
      </trkpt>
      <trkpt lat="47.62523" lon="16.12855">
        <ele>433.483576</ele>
        <time>2026-07-07T15:17:16.000Z</time>
      </trkpt>
      <trkpt lat="47.6252" lon="16.12849">
        <ele>433.517675</ele>
        <time>2026-07-07T15:17:17.000Z</time>
      </trkpt>
      <trkpt lat="47.62516" lon="16.12843">
        <ele>433.551278</ele>
        <time>2026-07-07T15:17:18.000Z</time>
      </trkpt>
      <trkpt lat="47.62512" lon="16.12838">
        <ele>433.584678</ele>
        <time>2026-07-07T15:17:19.000Z</time>
      </trkpt>
      <trkpt lat="47.62508" lon="16.12833">
        <ele>433.619711</ele>
        <time>2026-07-07T15:17:20.000Z</time>
      </trkpt>
      <trkpt lat="47.62504" lon="16.12827">
        <ele>433.654743</ele>
        <time>2026-07-07T15:17:21.000Z</time>
      </trkpt>
      <trkpt lat="47.625" lon="16.12823">
        <ele>433.689204</ele>
        <time>2026-07-07T15:17:22.000Z</time>
      </trkpt>
      <trkpt lat="47.62495" lon="16.12818">
        <ele>433.723251</ele>
        <time>2026-07-07T15:17:23.000Z</time>
      </trkpt>
      <trkpt lat="47.6249" lon="16.12814">
        <ele>433.758168</ele>
        <time>2026-07-07T15:17:24.000Z</time>
      </trkpt>
      <trkpt lat="47.62486" lon="16.1281">
        <ele>433.793424</ele>
        <time>2026-07-07T15:17:25.000Z</time>
      </trkpt>
      <trkpt lat="47.62481" lon="16.12806">
        <ele>433.829804</ele>
        <time>2026-07-07T15:17:26.000Z</time>
      </trkpt>
      <trkpt lat="47.62476" lon="16.12803">
        <ele>433.865586</ele>
        <time>2026-07-07T15:17:27.000Z</time>
      </trkpt>
      <trkpt lat="47.62471" lon="16.12799">
        <ele>433.900992</ele>
        <time>2026-07-07T15:17:28.000Z</time>
      </trkpt>
      <trkpt lat="47.62466" lon="16.12796">
        <ele>433.936398</ele>
        <time>2026-07-07T15:17:29.000Z</time>
      </trkpt>
      <trkpt lat="47.62461" lon="16.12792">
        <ele>433.971444</ele>
        <time>2026-07-07T15:17:30.000Z</time>
      </trkpt>
      <trkpt lat="47.62456" lon="16.12789">
        <ele>434.008789</ele>
        <time>2026-07-07T15:17:31.000Z</time>
      </trkpt>
      <trkpt lat="47.62451" lon="16.12785">
        <ele>434.052874</ele>
        <time>2026-07-07T15:17:32.000Z</time>
      </trkpt>
      <trkpt lat="47.62446" lon="16.12781">
        <ele>434.095775</ele>
        <time>2026-07-07T15:17:33.000Z</time>
      </trkpt>
      <trkpt lat="47.62442" lon="16.12777">
        <ele>434.137826</ele>
        <time>2026-07-07T15:17:34.000Z</time>
      </trkpt>
      <trkpt lat="47.62438" lon="16.12773">
        <ele>434.177793</ele>
        <time>2026-07-07T15:17:35.000Z</time>
      </trkpt>
      <trkpt lat="47.62434" lon="16.1277">
        <ele>434.215453</ele>
        <time>2026-07-07T15:17:36.000Z</time>
      </trkpt>
      <trkpt lat="47.62431" lon="16.12766">
        <ele>434.251061</ele>
        <time>2026-07-07T15:17:37.000Z</time>
      </trkpt>
      <trkpt lat="47.62427" lon="16.12762">
        <ele>434.286032</ele>
        <time>2026-07-07T15:17:38.000Z</time>
      </trkpt>
      <trkpt lat="47.62424" lon="16.12759">
        <ele>434.321801</ele>
        <time>2026-07-07T15:17:39.000Z</time>
      </trkpt>
      <trkpt lat="47.6242" lon="16.12755">
        <ele>434.357736</ele>
        <time>2026-07-07T15:17:40.000Z</time>
      </trkpt>
      <trkpt lat="47.62417" lon="16.12751">
        <ele>434.396849</ele>
        <time>2026-07-07T15:17:41.000Z</time>
      </trkpt>
      <trkpt lat="47.62414" lon="16.12745">
        <ele>434.433896</ele>
        <time>2026-07-07T15:17:42.000Z</time>
      </trkpt>
      <trkpt lat="47.62413" lon="16.12738">
        <ele>434.47261</ele>
        <time>2026-07-07T15:17:43.000Z</time>
      </trkpt>
      <trkpt lat="47.62414" lon="16.12731">
        <ele>434.512129</ele>
        <time>2026-07-07T15:17:44.000Z</time>
      </trkpt>
      <trkpt lat="47.62415" lon="16.12724">
        <ele>434.553148</ele>
        <time>2026-07-07T15:17:45.000Z</time>
      </trkpt>
      <trkpt lat="47.62416" lon="16.12717">
        <ele>434.593696</ele>
        <time>2026-07-07T15:17:46.000Z</time>
      </trkpt>
      <trkpt lat="47.62418" lon="16.1271">
        <ele>434.635657</ele>
        <time>2026-07-07T15:17:47.000Z</time>
      </trkpt>
      <trkpt lat="47.62418" lon="16.12703">
        <ele>434.678061</ele>
        <time>2026-07-07T15:17:48.000Z</time>
      </trkpt>
      <trkpt lat="47.62419" lon="16.12695">
        <ele>434.720344</ele>
        <time>2026-07-07T15:17:49.000Z</time>
      </trkpt>
      <trkpt lat="47.6242" lon="16.12688">
        <ele>434.762627</ele>
        <time>2026-07-07T15:17:50.000Z</time>
      </trkpt>
      <trkpt lat="47.6242" lon="16.1268">
        <ele>434.805699</ele>
        <time>2026-07-07T15:17:51.000Z</time>
      </trkpt>
      <trkpt lat="47.62421" lon="16.12672">
        <ele>434.847786</ele>
        <time>2026-07-07T15:17:52.000Z</time>
      </trkpt>
      <trkpt lat="47.62421" lon="16.12665">
        <ele>434.89026</ele>
        <time>2026-07-07T15:17:53.000Z</time>
      </trkpt>
      <trkpt lat="47.62421" lon="16.12657">
        <ele>434.932143</ele>
        <time>2026-07-07T15:17:54.000Z</time>
      </trkpt>
      <trkpt lat="47.62421" lon="16.1265">
        <ele>434.975175</ele>
        <time>2026-07-07T15:17:55.000Z</time>
      </trkpt>
      <trkpt lat="47.6242" lon="16.12642">
        <ele>435.017262</ele>
        <time>2026-07-07T15:17:56.000Z</time>
      </trkpt>
      <trkpt lat="47.6242" lon="16.12635">
        <ele>435.058238</ele>
        <time>2026-07-07T15:17:57.000Z</time>
      </trkpt>
      <trkpt lat="47.62419" lon="16.12627">
        <ele>435.09977</ele>
        <time>2026-07-07T15:17:58.000Z</time>
      </trkpt>
      <trkpt lat="47.62418" lon="16.1262">
        <ele>435.140947</ele>
        <time>2026-07-07T15:17:59.000Z</time>
      </trkpt>
      <trkpt lat="47.62418" lon="16.12613">
        <ele>435.182015</ele>
        <time>2026-07-07T15:18:00.000Z</time>
      </trkpt>
      <trkpt lat="47.62417" lon="16.12605">
        <ele>435.223547</ele>
        <time>2026-07-07T15:18:01.000Z</time>
      </trkpt>
      <trkpt lat="47.62417" lon="16.12598">
        <ele>435.263412</ele>
        <time>2026-07-07T15:18:02.000Z</time>
      </trkpt>
      <trkpt lat="47.62416" lon="16.12591">
        <ele>435.302722</ele>
        <time>2026-07-07T15:18:03.000Z</time>
      </trkpt>
      <trkpt lat="47.62415" lon="16.12585">
        <ele>435.341436</ele>
        <time>2026-07-07T15:18:04.000Z</time>
      </trkpt>
      <trkpt lat="47.62414" lon="16.12578">
        <ele>435.379299</ele>
        <time>2026-07-07T15:18:05.000Z</time>
      </trkpt>
      <trkpt lat="47.62412" lon="16.12571">
        <ele>435.419278</ele>
        <time>2026-07-07T15:18:06.000Z</time>
      </trkpt>
      <trkpt lat="47.6241" lon="16.12565">
        <ele>435.459181</ele>
        <time>2026-07-07T15:18:07.000Z</time>
      </trkpt>
      <trkpt lat="47.62408" lon="16.12559">
        <ele>435.506161</ele>
        <time>2026-07-07T15:18:08.000Z</time>
      </trkpt>
      <trkpt lat="47.62406" lon="16.12552">
        <ele>435.592811</ele>
        <time>2026-07-07T15:18:09.000Z</time>
      </trkpt>
      <trkpt lat="47.62403" lon="16.12546">
        <ele>435.674964</ele>
        <time>2026-07-07T15:18:10.000Z</time>
      </trkpt>
      <trkpt lat="47.62401" lon="16.12539">
        <ele>435.757381</ele>
        <time>2026-07-07T15:18:11.000Z</time>
      </trkpt>
      <trkpt lat="47.62399" lon="16.12533">
        <ele>435.838011</ele>
        <time>2026-07-07T15:18:12.000Z</time>
      </trkpt>
      <trkpt lat="47.62397" lon="16.12527">
        <ele>435.918641</ele>
        <time>2026-07-07T15:18:13.000Z</time>
      </trkpt>
      <trkpt lat="47.62395" lon="16.12521">
        <ele>435.998225</ele>
        <time>2026-07-07T15:18:14.000Z</time>
      </trkpt>
      <trkpt lat="47.62393" lon="16.12515">
        <ele>436.075727</ele>
        <time>2026-07-07T15:18:15.000Z</time>
      </trkpt>
      <trkpt lat="47.62391" lon="16.12509">
        <ele>436.152785</ele>
        <time>2026-07-07T15:18:16.000Z</time>
      </trkpt>
      <trkpt lat="47.62389" lon="16.12504">
        <ele>436.226741</ele>
        <time>2026-07-07T15:18:17.000Z</time>
      </trkpt>
      <trkpt lat="47.62385" lon="16.12499">
        <ele>436.306129</ele>
        <time>2026-07-07T15:18:18.000Z</time>
      </trkpt>
      <trkpt lat="47.62382" lon="16.12494">
        <ele>436.387587</ele>
        <time>2026-07-07T15:18:19.000Z</time>
      </trkpt>
      <trkpt lat="47.62378" lon="16.12491">
        <ele>436.467955</ele>
        <time>2026-07-07T15:18:20.000Z</time>
      </trkpt>
      <trkpt lat="47.62373" lon="16.12488">
        <ele>436.549063</ele>
        <time>2026-07-07T15:18:21.000Z</time>
      </trkpt>
      <trkpt lat="47.62369" lon="16.12485">
        <ele>436.633813</ele>
        <time>2026-07-07T15:18:22.000Z</time>
      </trkpt>
      <trkpt lat="47.62364" lon="16.12482">
        <ele>436.71764</ele>
        <time>2026-07-07T15:18:23.000Z</time>
      </trkpt>
      <trkpt lat="47.6236" lon="16.12479">
        <ele>436.802621</ele>
        <time>2026-07-07T15:18:24.000Z</time>
      </trkpt>
      <trkpt lat="47.62355" lon="16.12476">
        <ele>436.886448</ele>
        <time>2026-07-07T15:18:25.000Z</time>
      </trkpt>
      <trkpt lat="47.62351" lon="16.12473">
        <ele>436.969157</ele>
        <time>2026-07-07T15:18:26.000Z</time>
      </trkpt>
      <trkpt lat="47.62347" lon="16.12471">
        <ele>437.045754</ele>
        <time>2026-07-07T15:18:27.000Z</time>
      </trkpt>
      <trkpt lat="47.62343" lon="16.12468">
        <ele>437.115596</ele>
        <time>2026-07-07T15:18:28.000Z</time>
      </trkpt>
      <trkpt lat="47.6234" lon="16.12466">
        <ele>437.171146</ele>
        <time>2026-07-07T15:18:29.000Z</time>
      </trkpt>
      <trkpt lat="47.62338" lon="16.12464">
        <ele>437.218883</ele>
        <time>2026-07-07T15:18:30.000Z</time>
      </trkpt>
      <trkpt lat="47.62336" lon="16.12462">
        <ele>437.258479</ele>
        <time>2026-07-07T15:18:31.000Z</time>
      </trkpt>
      <trkpt lat="47.62334" lon="16.12461">
        <ele>437.295452</ele>
        <time>2026-07-07T15:18:32.000Z</time>
      </trkpt>
      <trkpt lat="47.62332" lon="16.12459">
        <ele>437.327965</ele>
        <time>2026-07-07T15:18:33.000Z</time>
      </trkpt>
      <trkpt lat="47.62331" lon="16.12458">
        <ele>437.361943</ele>
        <time>2026-07-07T15:18:34.000Z</time>
      </trkpt>
      <trkpt lat="47.62329" lon="16.12456">
        <ele>437.396527</ele>
        <time>2026-07-07T15:18:35.000Z</time>
      </trkpt>
      <trkpt lat="47.62327" lon="16.12455">
        <ele>437.430334</ele>
        <time>2026-07-07T15:18:36.000Z</time>
      </trkpt>
      <trkpt lat="47.62325" lon="16.12453">
        <ele>437.470519</ele>
        <time>2026-07-07T15:18:37.000Z</time>
      </trkpt>
      <trkpt lat="47.62323" lon="16.12451">
        <ele>437.516845</ele>
        <time>2026-07-07T15:18:38.000Z</time>
      </trkpt>
      <trkpt lat="47.6232" lon="16.1245">
        <ele>437.569604</ele>
        <time>2026-07-07T15:18:39.000Z</time>
      </trkpt>
      <trkpt lat="47.62317" lon="16.12448">
        <ele>437.627091</ele>
        <time>2026-07-07T15:18:40.000Z</time>
      </trkpt>
      <trkpt lat="47.62314" lon="16.12445">
        <ele>437.686423</ele>
        <time>2026-07-07T15:18:41.000Z</time>
      </trkpt>
      <trkpt lat="47.62311" lon="16.12441">
        <ele>437.749319</ele>
        <time>2026-07-07T15:18:42.000Z</time>
      </trkpt>
      <trkpt lat="47.62308" lon="16.12438">
        <ele>437.813538</ele>
        <time>2026-07-07T15:18:43.000Z</time>
      </trkpt>
      <trkpt lat="47.62305" lon="16.12434">
        <ele>437.882617</ele>
        <time>2026-07-07T15:18:44.000Z</time>
      </trkpt>
      <trkpt lat="47.62302" lon="16.1243">
        <ele>437.952311</ele>
        <time>2026-07-07T15:18:45.000Z</time>
      </trkpt>
      <trkpt lat="47.62299" lon="16.12426">
        <ele>438.026138</ele>
        <time>2026-07-07T15:18:46.000Z</time>
      </trkpt>
      <trkpt lat="47.62295" lon="16.12423">
        <ele>438.103442</ele>
        <time>2026-07-07T15:18:47.000Z</time>
      </trkpt>
      <trkpt lat="47.62291" lon="16.12419">
        <ele>438.180705</ele>
        <time>2026-07-07T15:18:48.000Z</time>
      </trkpt>
      <trkpt lat="47.62288" lon="16.12414">
        <ele>438.261445</ele>
        <time>2026-07-07T15:18:49.000Z</time>
      </trkpt>
      <trkpt lat="47.62284" lon="16.1241">
        <ele>438.34082</ele>
        <time>2026-07-07T15:18:50.000Z</time>
      </trkpt>
      <trkpt lat="47.6228" lon="16.12407">
        <ele>438.41912</ele>
        <time>2026-07-07T15:18:51.000Z</time>
      </trkpt>
      <trkpt lat="47.62276" lon="16.12404">
        <ele>438.496645</ele>
        <time>2026-07-07T15:18:52.000Z</time>
      </trkpt>
      <trkpt lat="47.62272" lon="16.12401">
        <ele>438.572137</ele>
        <time>2026-07-07T15:18:53.000Z</time>
      </trkpt>
      <trkpt lat="47.62268" lon="16.12399">
        <ele>438.573321</ele>
        <time>2026-07-07T15:18:54.000Z</time>
      </trkpt>
      <trkpt lat="47.62264" lon="16.12397">
        <ele>438.565262</ele>
        <time>2026-07-07T15:18:55.000Z</time>
      </trkpt>
      <trkpt lat="47.6226" lon="16.12396">
        <ele>438.557149</ele>
        <time>2026-07-07T15:18:56.000Z</time>
      </trkpt>
      <trkpt lat="47.62256" lon="16.12395">
        <ele>438.549481</ele>
        <time>2026-07-07T15:18:57.000Z</time>
      </trkpt>
      <trkpt lat="47.62251" lon="16.12394">
        <ele>438.541278</ele>
        <time>2026-07-07T15:18:58.000Z</time>
      </trkpt>
      <trkpt lat="47.62247" lon="16.12393">
        <ele>438.532375</ele>
        <time>2026-07-07T15:18:59.000Z</time>
      </trkpt>
      <trkpt lat="47.62242" lon="16.12392">
        <ele>438.523847</ele>
        <time>2026-07-07T15:19:00.000Z</time>
      </trkpt>
      <trkpt lat="47.62237" lon="16.12391">
        <ele>438.514898</ele>
        <time>2026-07-07T15:19:01.000Z</time>
      </trkpt>
      <trkpt lat="47.62233" lon="16.1239">
        <ele>438.506116</ele>
        <time>2026-07-07T15:19:02.000Z</time>
      </trkpt>
      <trkpt lat="47.62228" lon="16.12389">
        <ele>438.49657</ele>
        <time>2026-07-07T15:19:03.000Z</time>
      </trkpt>
      <trkpt lat="47.62223" lon="16.12388">
        <ele>438.487003</ele>
        <time>2026-07-07T15:19:04.000Z</time>
      </trkpt>
      <trkpt lat="47.62218" lon="16.12386">
        <ele>438.477598</ele>
        <time>2026-07-07T15:19:05.000Z</time>
      </trkpt>
      <trkpt lat="47.62213" lon="16.12385">
        <ele>438.468031</ele>
        <time>2026-07-07T15:19:06.000Z</time>
      </trkpt>
      <trkpt lat="47.62208" lon="16.12384">
        <ele>438.458416</ele>
        <time>2026-07-07T15:19:07.000Z</time>
      </trkpt>
      <trkpt lat="47.62203" lon="16.12382">
        <ele>438.448663</ele>
        <time>2026-07-07T15:19:08.000Z</time>
      </trkpt>
      <trkpt lat="47.62198" lon="16.12381">
        <ele>438.439117</ele>
        <time>2026-07-07T15:19:09.000Z</time>
      </trkpt>
      <trkpt lat="47.62193" lon="16.1238">
        <ele>438.429757</ele>
        <time>2026-07-07T15:19:10.000Z</time>
      </trkpt>
      <trkpt lat="47.62188" lon="16.12379">
        <ele>438.420687</ele>
        <time>2026-07-07T15:19:11.000Z</time>
      </trkpt>
      <trkpt lat="47.62183" lon="16.1238">
        <ele>438.411626</ele>
        <time>2026-07-07T15:19:12.000Z</time>
      </trkpt>
      <trkpt lat="47.62178" lon="16.12381">
        <ele>438.402335</ele>
        <time>2026-07-07T15:19:13.000Z</time>
      </trkpt>
      <trkpt lat="47.62173" lon="16.12381">
        <ele>438.392857</ele>
        <time>2026-07-07T15:19:14.000Z</time>
      </trkpt>
      <trkpt lat="47.62169" lon="16.12382">
        <ele>438.383721</ele>
        <time>2026-07-07T15:19:15.000Z</time>
      </trkpt>
      <trkpt lat="47.62164" lon="16.12384">
        <ele>438.374547</ele>
        <time>2026-07-07T15:19:16.000Z</time>
      </trkpt>
      <trkpt lat="47.62159" lon="16.12385">
        <ele>438.365486</ele>
        <time>2026-07-07T15:19:17.000Z</time>
      </trkpt>
      <trkpt lat="47.62154" lon="16.12387">
        <ele>438.356368</ele>
        <time>2026-07-07T15:19:18.000Z</time>
      </trkpt>
      <trkpt lat="47.6215" lon="16.12388">
        <ele>438.347676</ele>
        <time>2026-07-07T15:19:19.000Z</time>
      </trkpt>
      <trkpt lat="47.62145" lon="16.1239">
        <ele>438.338799</ele>
        <time>2026-07-07T15:19:20.000Z</time>
      </trkpt>
      <trkpt lat="47.62141" lon="16.12391">
        <ele>438.330077</ele>
        <time>2026-07-07T15:19:21.000Z</time>
      </trkpt>
      <trkpt lat="47.62136" lon="16.12393">
        <ele>438.321259</ele>
        <time>2026-07-07T15:19:22.000Z</time>
      </trkpt>
      <trkpt lat="47.62132" lon="16.12395">
        <ele>438.312538</ele>
        <time>2026-07-07T15:19:23.000Z</time>
      </trkpt>
      <trkpt lat="47.62127" lon="16.12397">
        <ele>438.30342</ele>
        <time>2026-07-07T15:19:24.000Z</time>
      </trkpt>
      <trkpt lat="47.62122" lon="16.12398">
        <ele>438.294174</ele>
        <time>2026-07-07T15:19:25.000Z</time>
      </trkpt>
      <trkpt lat="47.62118" lon="16.124">
        <ele>438.285026</ele>
        <time>2026-07-07T15:19:26.000Z</time>
      </trkpt>
      <trkpt lat="47.62113" lon="16.12402">
        <ele>438.27581</ele>
        <time>2026-07-07T15:19:27.000Z</time>
      </trkpt>
      <trkpt lat="47.62108" lon="16.12404">
        <ele>438.266811</ele>
        <time>2026-07-07T15:19:28.000Z</time>
      </trkpt>
      <trkpt lat="47.62104" lon="16.12405">
        <ele>438.257722</ele>
        <time>2026-07-07T15:19:29.000Z</time>
      </trkpt>
      <trkpt lat="47.62099" lon="16.12407">
        <ele>438.248421</ele>
        <time>2026-07-07T15:19:30.000Z</time>
      </trkpt>
      <trkpt lat="47.62094" lon="16.12409">
        <ele>438.242751</ele>
        <time>2026-07-07T15:19:31.000Z</time>
      </trkpt>
      <trkpt lat="47.62089" lon="16.12411">
        <ele>438.24896</ele>
        <time>2026-07-07T15:19:32.000Z</time>
      </trkpt>
      <trkpt lat="47.62084" lon="16.12413">
        <ele>438.255381</ele>
        <time>2026-07-07T15:19:33.000Z</time>
      </trkpt>
      <trkpt lat="47.6208" lon="16.12415">
        <ele>438.261469</ele>
        <time>2026-07-07T15:19:34.000Z</time>
      </trkpt>
      <trkpt lat="47.62075" lon="16.12418">
        <ele>438.267821</ele>
        <time>2026-07-07T15:19:35.000Z</time>
      </trkpt>
      <trkpt lat="47.6207" lon="16.12421">
        <ele>438.274492</ele>
        <time>2026-07-07T15:19:36.000Z</time>
      </trkpt>
      <trkpt lat="47.62066" lon="16.12425">
        <ele>438.280985</ele>
        <time>2026-07-07T15:19:37.000Z</time>
      </trkpt>
      <trkpt lat="47.62061" lon="16.12429">
        <ele>438.287593</ele>
        <time>2026-07-07T15:19:38.000Z</time>
      </trkpt>
      <trkpt lat="47.62057" lon="16.12434">
        <ele>438.294153</ele>
        <time>2026-07-07T15:19:39.000Z</time>
      </trkpt>
      <trkpt lat="47.62053" lon="16.1244">
        <ele>438.300823</ele>
        <time>2026-07-07T15:19:40.000Z</time>
      </trkpt>
      <trkpt lat="47.6205" lon="16.12445">
        <ele>438.307184</ele>
        <time>2026-07-07T15:19:41.000Z</time>
      </trkpt>
      <trkpt lat="47.62046" lon="16.1245">
        <ele>438.31376</ele>
        <time>2026-07-07T15:19:42.000Z</time>
      </trkpt>
      <trkpt lat="47.62042" lon="16.12455">
        <ele>438.319972</ele>
        <time>2026-07-07T15:19:43.000Z</time>
      </trkpt>
      <trkpt lat="47.62039" lon="16.1246">
        <ele>438.326215</ele>
        <time>2026-07-07T15:19:44.000Z</time>
      </trkpt>
      <trkpt lat="47.62035" lon="16.12466">
        <ele>438.332461</ele>
        <time>2026-07-07T15:19:45.000Z</time>
      </trkpt>
      <trkpt lat="47.62032" lon="16.12471">
        <ele>438.338734</ele>
        <time>2026-07-07T15:19:46.000Z</time>
      </trkpt>
      <trkpt lat="47.62029" lon="16.12476">
        <ele>438.344771</ele>
        <time>2026-07-07T15:19:47.000Z</time>
      </trkpt>
      <trkpt lat="47.62025" lon="16.12481">
        <ele>438.350924</ele>
        <time>2026-07-07T15:19:48.000Z</time>
      </trkpt>
      <trkpt lat="47.62022" lon="16.12487">
        <ele>438.356961</ele>
        <time>2026-07-07T15:19:49.000Z</time>
      </trkpt>
      <trkpt lat="47.62018" lon="16.12492">
        <ele>438.363055</ele>
        <time>2026-07-07T15:19:50.000Z</time>
      </trkpt>
      <trkpt lat="47.62015" lon="16.12497">
        <ele>438.369179</ele>
        <time>2026-07-07T15:19:51.000Z</time>
      </trkpt>
      <trkpt lat="47.62012" lon="16.12502">
        <ele>438.374975</ele>
        <time>2026-07-07T15:19:52.000Z</time>
      </trkpt>
      <trkpt lat="47.62008" lon="16.12506">
        <ele>438.380713</ele>
        <time>2026-07-07T15:19:53.000Z</time>
      </trkpt>
      <trkpt lat="47.62005" lon="16.1251">
        <ele>438.386015</ele>
        <time>2026-07-07T15:19:54.000Z</time>
      </trkpt>
      <trkpt lat="47.62002" lon="16.12514">
        <ele>438.391307</ele>
        <time>2026-07-07T15:19:55.000Z</time>
      </trkpt>
      <trkpt lat="47.61999" lon="16.12518">
        <ele>438.396254</ele>
        <time>2026-07-07T15:19:56.000Z</time>
      </trkpt>
      <trkpt lat="47.61995" lon="16.12522">
        <ele>438.401696</ele>
        <time>2026-07-07T15:19:57.000Z</time>
      </trkpt>
      <trkpt lat="47.61992" lon="16.12526">
        <ele>438.407492</ele>
        <time>2026-07-07T15:19:58.000Z</time>
      </trkpt>
      <trkpt lat="47.61988" lon="16.1253">
        <ele>438.413234</ele>
        <time>2026-07-07T15:19:59.000Z</time>
      </trkpt>
      <trkpt lat="47.61984" lon="16.12534">
        <ele>438.419276</ele>
        <time>2026-07-07T15:20:00.000Z</time>
      </trkpt>
      <trkpt lat="47.61979" lon="16.12536">
        <ele>438.425628</ele>
        <time>2026-07-07T15:20:01.000Z</time>
      </trkpt>
      <trkpt lat="47.61974" lon="16.12538">
        <ele>438.431837</ele>
        <time>2026-07-07T15:20:02.000Z</time>
      </trkpt>
      <trkpt lat="47.61969" lon="16.1254">
        <ele>438.43829</ele>
        <time>2026-07-07T15:20:03.000Z</time>
      </trkpt>
      <trkpt lat="47.61964" lon="16.12542">
        <ele>438.444723</ele>
        <time>2026-07-07T15:20:04.000Z</time>
      </trkpt>
      <trkpt lat="47.61959" lon="16.12543">
        <ele>438.451337</ele>
        <time>2026-07-07T15:20:05.000Z</time>
      </trkpt>
      <trkpt lat="47.61954" lon="16.12544">
        <ele>438.457981</ele>
        <time>2026-07-07T15:20:06.000Z</time>
      </trkpt>
      <trkpt lat="47.61949" lon="16.12546">
        <ele>438.464485</ele>
        <time>2026-07-07T15:20:07.000Z</time>
      </trkpt>
      <trkpt lat="47.61944" lon="16.12547">
        <ele>438.493929</ele>
        <time>2026-07-07T15:20:08.000Z</time>
      </trkpt>
      <trkpt lat="47.61939" lon="16.12548">
        <ele>438.535327</ele>
        <time>2026-07-07T15:20:09.000Z</time>
      </trkpt>
      <trkpt lat="47.61934" lon="16.1255">
        <ele>438.57693</ele>
        <time>2026-07-07T15:20:10.000Z</time>
      </trkpt>
      <trkpt lat="47.61929" lon="16.12551">
        <ele>438.618533</ele>
        <time>2026-07-07T15:20:11.000Z</time>
      </trkpt>
      <trkpt lat="47.61924" lon="16.12553">
        <ele>438.658232</ele>
        <time>2026-07-07T15:20:12.000Z</time>
      </trkpt>
      <trkpt lat="47.61919" lon="16.12553">
        <ele>438.699245</ele>
        <time>2026-07-07T15:20:13.000Z</time>
      </trkpt>
      <trkpt lat="47.61914" lon="16.12554">
        <ele>438.740322</ele>
        <time>2026-07-07T15:20:14.000Z</time>
      </trkpt>
      <trkpt lat="47.61909" lon="16.12555">
        <ele>438.781233</ele>
        <time>2026-07-07T15:20:15.000Z</time>
      </trkpt>
      <trkpt lat="47.61904" lon="16.12556">
        <ele>438.822191</ele>
        <time>2026-07-07T15:20:16.000Z</time>
      </trkpt>
      <trkpt lat="47.61899" lon="16.12556">
        <ele>438.864774</ele>
        <time>2026-07-07T15:20:17.000Z</time>
      </trkpt>
      <trkpt lat="47.61893" lon="16.12557">
        <ele>438.90741</ele>
        <time>2026-07-07T15:20:18.000Z</time>
      </trkpt>
      <trkpt lat="47.61888" lon="16.12558">
        <ele>438.948557</ele>
        <time>2026-07-07T15:20:19.000Z</time>
      </trkpt>
      <trkpt lat="47.61883" lon="16.12559">
        <ele>438.989515</ele>
        <time>2026-07-07T15:20:20.000Z</time>
      </trkpt>
      <trkpt lat="47.61879" lon="16.12559">
        <ele>439.028758</ele>
        <time>2026-07-07T15:20:21.000Z</time>
      </trkpt>
      <trkpt lat="47.61874" lon="16.1256">
        <ele>439.069628</ele>
        <time>2026-07-07T15:20:22.000Z</time>
      </trkpt>
      <trkpt lat="47.61869" lon="16.1256">
        <ele>439.108913</ele>
        <time>2026-07-07T15:20:23.000Z</time>
      </trkpt>
      <trkpt lat="47.61864" lon="16.12561">
        <ele>439.149872</ele>
        <time>2026-07-07T15:20:24.000Z</time>
      </trkpt>
      <trkpt lat="47.61859" lon="16.12562">
        <ele>439.190019</ele>
        <time>2026-07-07T15:20:25.000Z</time>
      </trkpt>
      <trkpt lat="47.61854" lon="16.12562">
        <ele>439.230929</ele>
        <time>2026-07-07T15:20:26.000Z</time>
      </trkpt>
      <trkpt lat="47.61849" lon="16.12563">
        <ele>439.272006</ele>
        <time>2026-07-07T15:20:27.000Z</time>
      </trkpt>
      <trkpt lat="47.61844" lon="16.12564">
        <ele>439.312916</ele>
        <time>2026-07-07T15:20:28.000Z</time>
      </trkpt>
      <trkpt lat="47.61839" lon="16.12564">
        <ele>439.3546</ele>
        <time>2026-07-07T15:20:29.000Z</time>
      </trkpt>
      <trkpt lat="47.61834" lon="16.12565">
        <ele>439.397098</ele>
        <time>2026-07-07T15:20:30.000Z</time>
      </trkpt>
      <trkpt lat="47.61828" lon="16.12565">
        <ele>439.439595</ele>
        <time>2026-07-07T15:20:31.000Z</time>
      </trkpt>
      <trkpt lat="47.61823" lon="16.12566">
        <ele>439.481279</ele>
        <time>2026-07-07T15:20:32.000Z</time>
      </trkpt>
      <trkpt lat="47.61818" lon="16.12567">
        <ele>439.523862</ele>
        <time>2026-07-07T15:20:33.000Z</time>
      </trkpt>
      <trkpt lat="47.61813" lon="16.12567">
        <ele>439.564876</ele>
        <time>2026-07-07T15:20:34.000Z</time>
      </trkpt>
      <trkpt lat="47.61808" lon="16.12568">
        <ele>439.607572</ele>
        <time>2026-07-07T15:20:35.000Z</time>
      </trkpt>
      <trkpt lat="47.61803" lon="16.12569">
        <ele>439.649527</ele>
        <time>2026-07-07T15:20:36.000Z</time>
      </trkpt>
      <trkpt lat="47.61797" lon="16.1257">
        <ele>439.693908</ele>
        <time>2026-07-07T15:20:37.000Z</time>
      </trkpt>
      <trkpt lat="47.61792" lon="16.12572">
        <ele>439.736111</ele>
        <time>2026-07-07T15:20:38.000Z</time>
      </trkpt>
      <trkpt lat="47.61787" lon="16.12573">
        <ele>439.779117</ele>
        <time>2026-07-07T15:20:39.000Z</time>
      </trkpt>
      <trkpt lat="47.61782" lon="16.12575">
        <ele>439.82334</ele>
        <time>2026-07-07T15:20:40.000Z</time>
      </trkpt>
      <trkpt lat="47.61776" lon="16.12576">
        <ele>439.868478</ele>
        <time>2026-07-07T15:20:41.000Z</time>
      </trkpt>
      <trkpt lat="47.61771" lon="16.12578">
        <ele>439.911362</ele>
        <time>2026-07-07T15:20:42.000Z</time>
      </trkpt>
      <trkpt lat="47.61766" lon="16.1258">
        <ele>439.957962</ele>
        <time>2026-07-07T15:20:43.000Z</time>
      </trkpt>
      <trkpt lat="47.61756" lon="16.12584">
        <ele>440.05389</ele>
        <time>2026-07-07T15:20:44.000Z</time>
      </trkpt>
      <trkpt lat="47.61751" lon="16.12585">
        <ele>440.101927</ele>
        <time>2026-07-07T15:20:45.000Z</time>
      </trkpt>
      <trkpt lat="47.61746" lon="16.12587">
        <ele>440.150116</ele>
        <time>2026-07-07T15:20:46.000Z</time>
      </trkpt>
      <trkpt lat="47.61741" lon="16.12589">
        <ele>440.198465</ele>
        <time>2026-07-07T15:20:47.000Z</time>
      </trkpt>
      <trkpt lat="47.61736" lon="16.12591">
        <ele>440.244397</ele>
        <time>2026-07-07T15:20:48.000Z</time>
      </trkpt>
      <trkpt lat="47.61731" lon="16.12593">
        <ele>440.292587</ele>
        <time>2026-07-07T15:20:49.000Z</time>
      </trkpt>
      <trkpt lat="47.61726" lon="16.12594">
        <ele>440.33943</ele>
        <time>2026-07-07T15:20:50.000Z</time>
      </trkpt>
      <trkpt lat="47.61721" lon="16.12596">
        <ele>440.387323</ele>
        <time>2026-07-07T15:20:51.000Z</time>
      </trkpt>
      <trkpt lat="47.61716" lon="16.12598">
        <ele>440.435215</ele>
        <time>2026-07-07T15:20:52.000Z</time>
      </trkpt>
      <trkpt lat="47.61712" lon="16.12599">
        <ele>440.481013</ele>
        <time>2026-07-07T15:20:53.000Z</time>
      </trkpt>
      <trkpt lat="47.61707" lon="16.126">
        <ele>440.52636</ele>
        <time>2026-07-07T15:20:54.000Z</time>
      </trkpt>
      <trkpt lat="47.61702" lon="16.12601">
        <ele>440.57069</ele>
        <time>2026-07-07T15:20:55.000Z</time>
      </trkpt>
      <trkpt lat="47.61698" lon="16.12602">
        <ele>440.606441</ele>
        <time>2026-07-07T15:20:56.000Z</time>
      </trkpt>
      <trkpt lat="47.61695" lon="16.12603">
        <ele>440.637417</ele>
        <time>2026-07-07T15:20:57.000Z</time>
      </trkpt>
      <trkpt lat="47.61692" lon="16.12605">
        <ele>440.666427</ele>
        <time>2026-07-07T15:20:58.000Z</time>
      </trkpt>
      <trkpt lat="47.61689" lon="16.12604">
        <ele>440.693049</ele>
        <time>2026-07-07T15:20:59.000Z</time>
      </trkpt>
      <trkpt lat="47.61688" lon="16.12601">
        <ele>440.718691</ele>
        <time>2026-07-07T15:21:00.000Z</time>
      </trkpt>
      <trkpt lat="47.61688" lon="16.12597">
        <ele>440.743865</ele>
        <time>2026-07-07T15:21:01.000Z</time>
      </trkpt>
      <trkpt lat="47.61689" lon="16.12594">
        <ele>440.766887</ele>
        <time>2026-07-07T15:21:02.000Z</time>
      </trkpt>
      <trkpt lat="47.61692" lon="16.12593">
        <ele>440.790161</ele>
        <time>2026-07-07T15:21:03.000Z</time>
      </trkpt>
      <trkpt lat="47.61694" lon="16.12593">
        <ele>440.813713</ele>
        <time>2026-07-07T15:21:04.000Z</time>
      </trkpt>
      <trkpt lat="47.61697" lon="16.12592">
        <ele>440.835417</ele>
        <time>2026-07-07T15:21:05.000Z</time>
      </trkpt>
      <trkpt lat="47.61698" lon="16.12591">
        <ele>440.854108</ele>
        <time>2026-07-07T15:21:06.000Z</time>
      </trkpt>
      <trkpt lat="47.617" lon="16.12589">
        <ele>440.870654</ele>
        <time>2026-07-07T15:21:07.000Z</time>
      </trkpt>
      <trkpt lat="47.61701" lon="16.12589">
        <ele>440.882937</ele>
        <time>2026-07-07T15:21:08.000Z</time>
      </trkpt>
      <trkpt lat="47.61702" lon="16.12589">
        <ele>440.887972</ele>
        <time>2026-07-07T15:21:09.000Z</time>
      </trkpt>
      <trkpt lat="47.61702" lon="16.12589">
        <ele>440.893602</ele>
        <time>2026-07-07T15:21:10.000Z</time>
      </trkpt>
      <trkpt lat="47.61702" lon="16.1259">
        <ele>440.894861</ele>
        <time>2026-07-07T15:21:12.000Z</time>
      </trkpt>
      <trkpt lat="47.61702" lon="16.12595">
        <ele>440.929525</ele>
        <time>2026-07-07T15:27:03.000Z</time>
      </trkpt>
      <trkpt lat="47.61701" lon="16.12597">
        <ele>440.944176</ele>
        <time>2026-07-07T15:27:04.000Z</time>
      </trkpt>
      <trkpt lat="47.617" lon="16.12598">
        <ele>440.959552</ele>
        <time>2026-07-07T15:27:05.000Z</time>
      </trkpt>
      <trkpt lat="47.61696" lon="16.126">
        <ele>440.994441</ele>
        <time>2026-07-07T15:27:07.000Z</time>
      </trkpt>
      <trkpt lat="47.61695" lon="16.12602">
        <ele>441.012865</ele>
        <time>2026-07-07T15:27:08.000Z</time>
      </trkpt>
      <trkpt lat="47.61692" lon="16.12603">
        <ele>441.035845</ele>
        <time>2026-07-07T15:27:09.000Z</time>
      </trkpt>
      <trkpt lat="47.6169" lon="16.12605">
        <ele>441.064021</ele>
        <time>2026-07-07T15:27:10.000Z</time>
      </trkpt>
      <trkpt lat="47.61687" lon="16.12607">
        <ele>441.091823</ele>
        <time>2026-07-07T15:27:11.000Z</time>
      </trkpt>
      <trkpt lat="47.61684" lon="16.12609">
        <ele>441.121116</ele>
        <time>2026-07-07T15:27:12.000Z</time>
      </trkpt>
      <trkpt lat="47.61682" lon="16.12611">
        <ele>441.146792</ele>
        <time>2026-07-07T15:27:13.000Z</time>
      </trkpt>
      <trkpt lat="47.6168" lon="16.12613">
        <ele>441.169398</ele>
        <time>2026-07-07T15:27:14.000Z</time>
      </trkpt>
      <trkpt lat="47.61678" lon="16.12614">
        <ele>441.188539</ele>
        <time>2026-07-07T15:27:15.000Z</time>
      </trkpt>
      <trkpt lat="47.61676" lon="16.12616">
        <ele>441.209463</ele>
        <time>2026-07-07T15:27:16.000Z</time>
      </trkpt>
      <trkpt lat="47.61674" lon="16.12617">
        <ele>441.231504</ele>
        <time>2026-07-07T15:27:17.000Z</time>
      </trkpt>
      <trkpt lat="47.61672" lon="16.12619">
        <ele>441.254023</ele>
        <time>2026-07-07T15:27:18.000Z</time>
      </trkpt>
      <trkpt lat="47.61669" lon="16.12621">
        <ele>441.279422</ele>
        <time>2026-07-07T15:27:19.000Z</time>
      </trkpt>
      <trkpt lat="47.61667" lon="16.12623">
        <ele>441.3037</ele>
        <time>2026-07-07T15:27:20.000Z</time>
      </trkpt>
      <trkpt lat="47.61664" lon="16.12626">
        <ele>441.333416</ele>
        <time>2026-07-07T15:27:21.000Z</time>
      </trkpt>
      <trkpt lat="47.61661" lon="16.12628">
        <ele>441.364944</ele>
        <time>2026-07-07T15:27:22.000Z</time>
      </trkpt>
      <trkpt lat="47.61659" lon="16.1263">
        <ele>441.39289</ele>
        <time>2026-07-07T15:27:23.000Z</time>
      </trkpt>
      <trkpt lat="47.61656" lon="16.12632">
        <ele>441.421959</ele>
        <time>2026-07-07T15:27:24.000Z</time>
      </trkpt>
      <trkpt lat="47.61654" lon="16.12635">
        <ele>441.449761</ele>
        <time>2026-07-07T15:27:25.000Z</time>
      </trkpt>
      <trkpt lat="47.61651" lon="16.12637">
        <ele>441.478224</ele>
        <time>2026-07-07T15:27:26.000Z</time>
      </trkpt>
      <trkpt lat="47.61648" lon="16.12639">
        <ele>441.509469</ele>
        <time>2026-07-07T15:27:27.000Z</time>
      </trkpt>
      <trkpt lat="47.61645" lon="16.12641">
        <ele>441.540713</ele>
        <time>2026-07-07T15:27:28.000Z</time>
      </trkpt>
      <trkpt lat="47.61642" lon="16.12644">
        <ele>441.573074</ele>
        <time>2026-07-07T15:27:29.000Z</time>
      </trkpt>
      <trkpt lat="47.61639" lon="16.12646">
        <ele>441.603475</ele>
        <time>2026-07-07T15:27:30.000Z</time>
      </trkpt>
      <trkpt lat="47.61636" lon="16.12649">
        <ele>441.632162</ele>
        <time>2026-07-07T15:27:31.000Z</time>
      </trkpt>
      <trkpt lat="47.61633" lon="16.12651">
        <ele>441.660373</ele>
        <time>2026-07-07T15:27:32.000Z</time>
      </trkpt>
      <trkpt lat="47.61629" lon="16.12653">
        <ele>441.693512</ele>
        <time>2026-07-07T15:27:33.000Z</time>
      </trkpt>
      <trkpt lat="47.61625" lon="16.12655">
        <ele>441.726269</ele>
        <time>2026-07-07T15:27:34.000Z</time>
      </trkpt>
      <trkpt lat="47.61622" lon="16.12657">
        <ele>441.753704</ele>
        <time>2026-07-07T15:27:35.000Z</time>
      </trkpt>
      <trkpt lat="47.6162" lon="16.12659">
        <ele>441.778999</ele>
        <time>2026-07-07T15:27:36.000Z</time>
      </trkpt>
      <trkpt lat="47.61617" lon="16.12661">
        <ele>441.802074</ele>
        <time>2026-07-07T15:27:37.000Z</time>
      </trkpt>
      <trkpt lat="47.61615" lon="16.12663">
        <ele>441.822486</ele>
        <time>2026-07-07T15:27:38.000Z</time>
      </trkpt>
      <trkpt lat="47.61612" lon="16.12664">
        <ele>441.845722</ele>
        <time>2026-07-07T15:27:39.000Z</time>
      </trkpt>
      <trkpt lat="47.6161" lon="16.12666">
        <ele>441.867631</ele>
        <time>2026-07-07T15:27:40.000Z</time>
      </trkpt>
      <trkpt lat="47.61607" lon="16.12667">
        <ele>441.891252</ele>
        <time>2026-07-07T15:27:41.000Z</time>
      </trkpt>
      <trkpt lat="47.61605" lon="16.1267">
        <ele>441.912138</ele>
        <time>2026-07-07T15:27:42.000Z</time>
      </trkpt>
      <trkpt lat="47.61603" lon="16.12672">
        <ele>441.930465</ele>
        <time>2026-07-07T15:27:43.000Z</time>
      </trkpt>
      <trkpt lat="47.61601" lon="16.12674">
        <ele>441.948438</ele>
        <time>2026-07-07T15:27:44.000Z</time>
      </trkpt>
      <trkpt lat="47.616" lon="16.12676">
        <ele>441.965299</ele>
        <time>2026-07-07T15:27:45.000Z</time>
      </trkpt>
      <trkpt lat="47.61598" lon="16.12679">
        <ele>441.984746</ele>
        <time>2026-07-07T15:27:46.000Z</time>
      </trkpt>
      <trkpt lat="47.61597" lon="16.12681">
        <ele>442.001131</ele>
        <time>2026-07-07T15:27:47.000Z</time>
      </trkpt>
      <trkpt lat="47.61595" lon="16.12682">
        <ele>442.018179</ele>
        <time>2026-07-07T15:27:48.000Z</time>
      </trkpt>
      <trkpt lat="47.61593" lon="16.12684">
        <ele>442.038376</ele>
        <time>2026-07-07T15:27:49.000Z</time>
      </trkpt>
      <trkpt lat="47.6159" lon="16.12685">
        <ele>442.061438</ele>
        <time>2026-07-07T15:27:50.000Z</time>
      </trkpt>
      <trkpt lat="47.61587" lon="16.12687">
        <ele>442.087528</ele>
        <time>2026-07-07T15:27:51.000Z</time>
      </trkpt>
      <trkpt lat="47.61584" lon="16.1269">
        <ele>442.114961</ele>
        <time>2026-07-07T15:27:52.000Z</time>
      </trkpt>
      <trkpt lat="47.61582" lon="16.12693">
        <ele>442.145197</ele>
        <time>2026-07-07T15:27:53.000Z</time>
      </trkpt>
      <trkpt lat="47.61579" lon="16.12699">
        <ele>442.178819</ele>
        <time>2026-07-07T15:27:54.000Z</time>
      </trkpt>
      <trkpt lat="47.61578" lon="16.12704">
        <ele>442.213787</ele>
        <time>2026-07-07T15:27:55.000Z</time>
      </trkpt>
      <trkpt lat="47.61576" lon="16.12711">
        <ele>442.250443</ele>
        <time>2026-07-07T15:27:56.000Z</time>
      </trkpt>
      <trkpt lat="47.61574" lon="16.12717">
        <ele>442.287916</ele>
        <time>2026-07-07T15:27:57.000Z</time>
      </trkpt>
      <trkpt lat="47.61572" lon="16.12723">
        <ele>442.327635</ele>
        <time>2026-07-07T15:27:58.000Z</time>
      </trkpt>
      <trkpt lat="47.61569" lon="16.12729">
        <ele>442.367143</ele>
        <time>2026-07-07T15:27:59.000Z</time>
      </trkpt>
      <trkpt lat="47.61566" lon="16.12735">
        <ele>442.405044</ele>
        <time>2026-07-07T15:28:00.000Z</time>
      </trkpt>
      <trkpt lat="47.61562" lon="16.12738">
        <ele>442.441295</ele>
        <time>2026-07-07T15:28:01.000Z</time>
      </trkpt>
      <trkpt lat="47.61558" lon="16.1274">
        <ele>442.478541</ele>
        <time>2026-07-07T15:28:02.000Z</time>
      </trkpt>
      <trkpt lat="47.61553" lon="16.12739">
        <ele>442.5153</ele>
        <time>2026-07-07T15:28:03.000Z</time>
      </trkpt>
      <trkpt lat="47.61549" lon="16.12737">
        <ele>442.553949</ele>
        <time>2026-07-07T15:28:04.000Z</time>
      </trkpt>
      <trkpt lat="47.61544" lon="16.12735">
        <ele>442.59185</ele>
        <time>2026-07-07T15:28:05.000Z</time>
      </trkpt>
      <trkpt lat="47.6154" lon="16.12732">
        <ele>442.629784</ele>
        <time>2026-07-07T15:28:06.000Z</time>
      </trkpt>
      <trkpt lat="47.61536" lon="16.1273">
        <ele>442.668452</ele>
        <time>2026-07-07T15:28:07.000Z</time>
      </trkpt>
      <trkpt lat="47.61531" lon="16.12727">
        <ele>442.707888</ele>
        <time>2026-07-07T15:28:08.000Z</time>
      </trkpt>
      <trkpt lat="47.61527" lon="16.12724">
        <ele>442.746246</ele>
        <time>2026-07-07T15:28:09.000Z</time>
      </trkpt>
      <trkpt lat="47.61523" lon="16.1272">
        <ele>442.784677</ele>
        <time>2026-07-07T15:28:10.000Z</time>
      </trkpt>
      <trkpt lat="47.61519" lon="16.12717">
        <ele>442.822789</ele>
        <time>2026-07-07T15:28:11.000Z</time>
      </trkpt>
      <trkpt lat="47.61514" lon="16.12715">
        <ele>442.861827</ele>
        <time>2026-07-07T15:28:12.000Z</time>
      </trkpt>
      <trkpt lat="47.6151" lon="16.12713">
        <ele>442.899297</ele>
        <time>2026-07-07T15:28:13.000Z</time>
      </trkpt>
      <trkpt lat="47.61505" lon="16.12712">
        <ele>442.936442</ele>
        <time>2026-07-07T15:28:14.000Z</time>
      </trkpt>
      <trkpt lat="47.61501" lon="16.12711">
        <ele>442.972329</ele>
        <time>2026-07-07T15:28:15.000Z</time>
      </trkpt>
      <trkpt lat="47.61497" lon="16.12709">
        <ele>443.007697</ele>
        <time>2026-07-07T15:28:16.000Z</time>
      </trkpt>
      <trkpt lat="47.61492" lon="16.12707">
        <ele>443.042926</ele>
        <time>2026-07-07T15:28:17.000Z</time>
      </trkpt>
      <trkpt lat="47.61488" lon="16.12706">
        <ele>443.078535</ele>
        <time>2026-07-07T15:28:18.000Z</time>
      </trkpt>
      <trkpt lat="47.61484" lon="16.12704">
        <ele>443.14578</ele>
        <time>2026-07-07T15:28:19.000Z</time>
      </trkpt>
      <trkpt lat="47.6148" lon="16.12702">
        <ele>443.215788</ele>
        <time>2026-07-07T15:28:20.000Z</time>
      </trkpt>
      <trkpt lat="47.61476" lon="16.12701">
        <ele>443.283916</ele>
        <time>2026-07-07T15:28:21.000Z</time>
      </trkpt>
      <trkpt lat="47.61472" lon="16.12699">
        <ele>443.352713</ele>
        <time>2026-07-07T15:28:22.000Z</time>
      </trkpt>
      <trkpt lat="47.61468" lon="16.12697">
        <ele>443.424607</ele>
        <time>2026-07-07T15:28:23.000Z</time>
      </trkpt>
      <trkpt lat="47.61464" lon="16.12695">
        <ele>443.496501</ele>
        <time>2026-07-07T15:28:24.000Z</time>
      </trkpt>
      <trkpt lat="47.6146" lon="16.12693">
        <ele>443.569948</ele>
        <time>2026-07-07T15:28:25.000Z</time>
      </trkpt>
      <trkpt lat="47.61455" lon="16.12691">
        <ele>443.642769</ele>
        <time>2026-07-07T15:28:26.000Z</time>
      </trkpt>
      <trkpt lat="47.61451" lon="16.12689">
        <ele>443.716874</ele>
        <time>2026-07-07T15:28:27.000Z</time>
      </trkpt>
      <trkpt lat="47.61446" lon="16.12687">
        <ele>443.792837</ele>
        <time>2026-07-07T15:28:28.000Z</time>
      </trkpt>
      <trkpt lat="47.61442" lon="16.12685">
        <ele>443.87006</ele>
        <time>2026-07-07T15:28:29.000Z</time>
      </trkpt>
      <trkpt lat="47.61438" lon="16.12683">
        <ele>443.944195</ele>
        <time>2026-07-07T15:28:30.000Z</time>
      </trkpt>
      <trkpt lat="47.61433" lon="16.12681">
        <ele>444.020759</ele>
        <time>2026-07-07T15:28:31.000Z</time>
      </trkpt>
      <trkpt lat="47.61429" lon="16.12679">
        <ele>444.097323</ele>
        <time>2026-07-07T15:28:32.000Z</time>
      </trkpt>
      <trkpt lat="47.61424" lon="16.12677">
        <ele>444.171107</ele>
        <time>2026-07-07T15:28:33.000Z</time>
      </trkpt>
      <trkpt lat="47.6142" lon="16.12675">
        <ele>444.246111</ele>
        <time>2026-07-07T15:28:34.000Z</time>
      </trkpt>
      <trkpt lat="47.61416" lon="16.12673">
        <ele>444.31612</ele>
        <time>2026-07-07T15:28:35.000Z</time>
      </trkpt>
      <trkpt lat="47.61412" lon="16.12671">
        <ele>444.381785</ele>
        <time>2026-07-07T15:28:36.000Z</time>
      </trkpt>
      <trkpt lat="47.61408" lon="16.1267">
        <ele>444.44903</ele>
        <time>2026-07-07T15:28:37.000Z</time>
      </trkpt>
      <trkpt lat="47.61404" lon="16.12668">
        <ele>444.510281</ele>
        <time>2026-07-07T15:28:38.000Z</time>
      </trkpt>
      <trkpt lat="47.61401" lon="16.12667">
        <ele>444.573412</ele>
        <time>2026-07-07T15:28:39.000Z</time>
      </trkpt>
      <trkpt lat="47.61397" lon="16.12665">
        <ele>444.63279</ele>
        <time>2026-07-07T15:28:40.000Z</time>
      </trkpt>
      <trkpt lat="47.61393" lon="16.12664">
        <ele>444.695305</ele>
        <time>2026-07-07T15:28:41.000Z</time>
      </trkpt>
      <trkpt lat="47.6139" lon="16.12662">
        <ele>444.755681</ele>
        <time>2026-07-07T15:28:42.000Z</time>
      </trkpt>
      <trkpt lat="47.61386" lon="16.1266">
        <ele>444.818335</ele>
        <time>2026-07-07T15:28:43.000Z</time>
      </trkpt>
      <trkpt lat="47.61383" lon="16.12658">
        <ele>444.881466</ele>
        <time>2026-07-07T15:28:44.000Z</time>
      </trkpt>
      <trkpt lat="47.61379" lon="16.12657">
        <ele>444.943982</ele>
        <time>2026-07-07T15:28:45.000Z</time>
      </trkpt>
      <trkpt lat="47.61375" lon="16.12655">
        <ele>445.011226</ele>
        <time>2026-07-07T15:28:46.000Z</time>
      </trkpt>
      <trkpt lat="47.61371" lon="16.12654">
        <ele>445.075316</ele>
        <time>2026-07-07T15:28:47.000Z</time>
      </trkpt>
      <trkpt lat="47.61367" lon="16.12652">
        <ele>445.141829</ele>
        <time>2026-07-07T15:28:48.000Z</time>
      </trkpt>
      <trkpt lat="47.61363" lon="16.12651">
        <ele>445.209074</ele>
        <time>2026-07-07T15:28:49.000Z</time>
      </trkpt>
      <trkpt lat="47.61359" lon="16.12649">
        <ele>445.276596</ele>
        <time>2026-07-07T15:28:50.000Z</time>
      </trkpt>
      <trkpt lat="47.61355" lon="16.12647">
        <ele>445.345394</ele>
        <time>2026-07-07T15:28:51.000Z</time>
      </trkpt>
      <trkpt lat="47.61351" lon="16.12645">
        <ele>445.413849</ele>
        <time>2026-07-07T15:28:52.000Z</time>
      </trkpt>
      <trkpt lat="47.61347" lon="16.12644">
        <ele>445.481371</ele>
        <time>2026-07-07T15:28:53.000Z</time>
      </trkpt>
      <trkpt lat="47.61343" lon="16.12642">
        <ele>445.549188</ele>
        <time>2026-07-07T15:28:54.000Z</time>
      </trkpt>
      <trkpt lat="47.61339" lon="16.12641">
        <ele>445.619116</ele>
        <time>2026-07-07T15:28:55.000Z</time>
      </trkpt>
      <trkpt lat="47.61335" lon="16.12639">
        <ele>445.68946</ele>
        <time>2026-07-07T15:28:56.000Z</time>
      </trkpt>
      <trkpt lat="47.6133" lon="16.12636">
        <ele>445.765867</ele>
        <time>2026-07-07T15:28:57.000Z</time>
      </trkpt>
      <trkpt lat="47.61326" lon="16.12634">
        <ele>445.840367</ele>
        <time>2026-07-07T15:28:58.000Z</time>
      </trkpt>
      <trkpt lat="47.61321" lon="16.12632">
        <ele>445.921031</ele>
        <time>2026-07-07T15:28:59.000Z</time>
      </trkpt>
      <trkpt lat="47.61317" lon="16.1263">
        <ele>446.002913</ele>
        <time>2026-07-07T15:29:00.000Z</time>
      </trkpt>
      <trkpt lat="47.61312" lon="16.12627">
        <ele>446.01588</ele>
        <time>2026-07-07T15:29:01.000Z</time>
      </trkpt>
      <trkpt lat="47.61306" lon="16.12625">
        <ele>446.02659</ele>
        <time>2026-07-07T15:29:02.000Z</time>
      </trkpt>
      <trkpt lat="47.61301" lon="16.12623">
        <ele>446.036954</ele>
        <time>2026-07-07T15:29:03.000Z</time>
      </trkpt>
      <trkpt lat="47.61296" lon="16.12621">
        <ele>446.047547</ele>
        <time>2026-07-07T15:29:04.000Z</time>
      </trkpt>
      <trkpt lat="47.61291" lon="16.12618">
        <ele>446.058789</ele>
        <time>2026-07-07T15:29:05.000Z</time>
      </trkpt>
      <trkpt lat="47.61286" lon="16.12616">
        <ele>446.069344</ele>
        <time>2026-07-07T15:29:06.000Z</time>
      </trkpt>
      <trkpt lat="47.61281" lon="16.12614">
        <ele>446.080089</ele>
        <time>2026-07-07T15:29:07.000Z</time>
      </trkpt>
      <trkpt lat="47.61275" lon="16.12612">
        <ele>446.090957</ele>
        <time>2026-07-07T15:29:08.000Z</time>
      </trkpt>
      <trkpt lat="47.6127" lon="16.1261">
        <ele>446.101569</ele>
        <time>2026-07-07T15:29:09.000Z</time>
      </trkpt>
      <trkpt lat="47.61265" lon="16.12608">
        <ele>446.111763</ele>
        <time>2026-07-07T15:29:10.000Z</time>
      </trkpt>
      <trkpt lat="47.6126" lon="16.12607">
        <ele>446.121988</ele>
        <time>2026-07-07T15:29:11.000Z</time>
      </trkpt>
      <trkpt lat="47.61255" lon="16.12605">
        <ele>446.132182</ele>
        <time>2026-07-07T15:29:12.000Z</time>
      </trkpt>
      <trkpt lat="47.6125" lon="16.12603">
        <ele>446.142406</ele>
        <time>2026-07-07T15:29:13.000Z</time>
      </trkpt>
      <trkpt lat="47.61245" lon="16.12601">
        <ele>446.152698</ele>
        <time>2026-07-07T15:29:14.000Z</time>
      </trkpt>
      <trkpt lat="47.6124" lon="16.12599">
        <ele>446.163062</ele>
        <time>2026-07-07T15:29:15.000Z</time>
      </trkpt>
      <trkpt lat="47.61235" lon="16.12597">
        <ele>446.173086</ele>
        <time>2026-07-07T15:29:16.000Z</time>
      </trkpt>
      <trkpt lat="47.6123" lon="16.12594">
        <ele>446.18345</ele>
        <time>2026-07-07T15:29:17.000Z</time>
      </trkpt>
      <trkpt lat="47.61225" lon="16.12592">
        <ele>446.19355</ele>
        <time>2026-07-07T15:29:18.000Z</time>
      </trkpt>
      <trkpt lat="47.61221" lon="16.12591">
        <ele>446.203389</ele>
        <time>2026-07-07T15:29:19.000Z</time>
      </trkpt>
      <trkpt lat="47.61216" lon="16.12589">
        <ele>446.213477</ele>
        <time>2026-07-07T15:29:20.000Z</time>
      </trkpt>
      <trkpt lat="47.61211" lon="16.12588">
        <ele>446.223542</ele>
        <time>2026-07-07T15:29:21.000Z</time>
      </trkpt>
      <trkpt lat="47.61205" lon="16.12587">
        <ele>446.234</ele>
        <time>2026-07-07T15:29:22.000Z</time>
      </trkpt>
      <trkpt lat="47.612" lon="16.12586">
        <ele>446.244045</ele>
        <time>2026-07-07T15:29:23.000Z</time>
      </trkpt>
      <trkpt lat="47.61195" lon="16.12584">
        <ele>446.254157</ele>
        <time>2026-07-07T15:29:24.000Z</time>
      </trkpt>
      <trkpt lat="47.61191" lon="16.12583">
        <ele>446.263934</ele>
        <time>2026-07-07T15:29:25.000Z</time>
      </trkpt>
      <trkpt lat="47.61186" lon="16.12581">
        <ele>446.273741</ele>
        <time>2026-07-07T15:29:26.000Z</time>
      </trkpt>
      <trkpt lat="47.61181" lon="16.12579">
        <ele>446.283741</ele>
        <time>2026-07-07T15:29:27.000Z</time>
      </trkpt>
      <trkpt lat="47.61176" lon="16.12578">
        <ele>446.293829</ele>
        <time>2026-07-07T15:29:28.000Z</time>
      </trkpt>
      <trkpt lat="47.61171" lon="16.12577">
        <ele>446.303895</ele>
        <time>2026-07-07T15:29:29.000Z</time>
      </trkpt>
      <trkpt lat="47.61166" lon="16.12576">
        <ele>446.314118</ele>
        <time>2026-07-07T15:29:30.000Z</time>
      </trkpt>
      <trkpt lat="47.61161" lon="16.12575">
        <ele>446.324473</ele>
        <time>2026-07-07T15:29:31.000Z</time>
      </trkpt>
      <trkpt lat="47.61156" lon="16.12574">
        <ele>446.334499</ele>
        <time>2026-07-07T15:29:32.000Z</time>
      </trkpt>
      <trkpt lat="47.61151" lon="16.12573">
        <ele>446.344544</ele>
        <time>2026-07-07T15:29:33.000Z</time>
      </trkpt>
      <trkpt lat="47.61145" lon="16.12572">
        <ele>446.354965</ele>
        <time>2026-07-07T15:29:34.000Z</time>
      </trkpt>
      <trkpt lat="47.6114" lon="16.12571">
        <ele>446.365974</ele>
        <time>2026-07-07T15:29:35.000Z</time>
      </trkpt>
      <trkpt lat="47.61135" lon="16.1257">
        <ele>446.381854</ele>
        <time>2026-07-07T15:29:36.000Z</time>
      </trkpt>
      <trkpt lat="47.6113" lon="16.1257">
        <ele>446.397654</ele>
        <time>2026-07-07T15:29:37.000Z</time>
      </trkpt>
      <trkpt lat="47.61125" lon="16.12569">
        <ele>446.413455</ele>
        <time>2026-07-07T15:29:38.000Z</time>
      </trkpt>
      <trkpt lat="47.6112" lon="16.12569">
        <ele>446.429271</ele>
        <time>2026-07-07T15:29:39.000Z</time>
      </trkpt>
      <trkpt lat="47.61116" lon="16.12568">
        <ele>446.444525</ele>
        <time>2026-07-07T15:29:40.000Z</time>
      </trkpt>
      <trkpt lat="47.61111" lon="16.12567">
        <ele>446.460341</ele>
        <time>2026-07-07T15:29:41.000Z</time>
      </trkpt>
      <trkpt lat="47.61106" lon="16.12566">
        <ele>446.475595</ele>
        <time>2026-07-07T15:29:42.000Z</time>
      </trkpt>
      <trkpt lat="47.61101" lon="16.12565">
        <ele>446.490566</ele>
        <time>2026-07-07T15:29:43.000Z</time>
      </trkpt>
      <trkpt lat="47.61096" lon="16.12564">
        <ele>446.505848</ele>
        <time>2026-07-07T15:29:44.000Z</time>
      </trkpt>
      <trkpt lat="47.61092" lon="16.12563">
        <ele>446.520818</ele>
        <time>2026-07-07T15:29:45.000Z</time>
      </trkpt>
      <trkpt lat="47.61087" lon="16.12562">
        <ele>446.535789</ele>
        <time>2026-07-07T15:29:46.000Z</time>
      </trkpt>
      <trkpt lat="47.61082" lon="16.12561">
        <ele>446.551255</ele>
        <time>2026-07-07T15:29:47.000Z</time>
      </trkpt>
      <trkpt lat="47.61077" lon="16.1256">
        <ele>446.566329</ele>
        <time>2026-07-07T15:29:48.000Z</time>
      </trkpt>
      <trkpt lat="47.61073" lon="16.12558">
        <ele>446.581676</ele>
        <time>2026-07-07T15:29:49.000Z</time>
      </trkpt>
      <trkpt lat="47.61068" lon="16.12557">
        <ele>446.596678</ele>
        <time>2026-07-07T15:29:50.000Z</time>
      </trkpt>
      <trkpt lat="47.61063" lon="16.12556">
        <ele>446.611961</ele>
        <time>2026-07-07T15:29:51.000Z</time>
      </trkpt>
      <trkpt lat="47.61058" lon="16.12555">
        <ele>446.627308</ele>
        <time>2026-07-07T15:29:52.000Z</time>
      </trkpt>
      <trkpt lat="47.61054" lon="16.12554">
        <ele>446.642382</ele>
        <time>2026-07-07T15:29:53.000Z</time>
      </trkpt>
      <trkpt lat="47.61049" lon="16.12552">
        <ele>446.65754</ele>
        <time>2026-07-07T15:29:54.000Z</time>
      </trkpt>
      <trkpt lat="47.61044" lon="16.12551">
        <ele>446.673006</ele>
        <time>2026-07-07T15:29:55.000Z</time>
      </trkpt>
      <trkpt lat="47.61039" lon="16.1255">
        <ele>446.688353</ele>
        <time>2026-07-07T15:29:56.000Z</time>
      </trkpt>
      <trkpt lat="47.61035" lon="16.12549">
        <ele>446.7027</ele>
        <time>2026-07-07T15:29:57.000Z</time>
      </trkpt>
      <trkpt lat="47.6103" lon="16.12548">
        <ele>446.716734</ele>
        <time>2026-07-07T15:29:58.000Z</time>
      </trkpt>
      <trkpt lat="47.61026" lon="16.12547">
        <ele>446.72946</ele>
        <time>2026-07-07T15:29:59.000Z</time>
      </trkpt>
      <trkpt lat="47.61023" lon="16.12545">
        <ele>446.741286</ele>
        <time>2026-07-07T15:30:00.000Z</time>
      </trkpt>
      <trkpt lat="47.61021" lon="16.12541">
        <ele>446.75154</ele>
        <time>2026-07-07T15:30:01.000Z</time>
      </trkpt>
      <trkpt lat="47.61021" lon="16.12535">
        <ele>446.763235</ele>
        <time>2026-07-07T15:30:02.000Z</time>
      </trkpt>
      <trkpt lat="47.61022" lon="16.12529">
        <ele>446.775679</ele>
        <time>2026-07-07T15:30:03.000Z</time>
      </trkpt>
      <trkpt lat="47.61023" lon="16.12523">
        <ele>446.788895</ele>
        <time>2026-07-07T15:30:04.000Z</time>
      </trkpt>
      <trkpt lat="47.61025" lon="16.12517">
        <ele>446.803715</ele>
        <time>2026-07-07T15:30:05.000Z</time>
      </trkpt>
      <trkpt lat="47.61027" lon="16.1251">
        <ele>446.819327</ele>
        <time>2026-07-07T15:30:06.000Z</time>
      </trkpt>
      <trkpt lat="47.61028" lon="16.12502">
        <ele>446.835919</ele>
        <time>2026-07-07T15:30:07.000Z</time>
      </trkpt>
      <trkpt lat="47.61027" lon="16.12494">
        <ele>446.853395</ele>
        <time>2026-07-07T15:30:08.000Z</time>
      </trkpt>
      <trkpt lat="47.61026" lon="16.12487">
        <ele>446.870023</ele>
        <time>2026-07-07T15:30:09.000Z</time>
      </trkpt>
      <trkpt lat="47.61023" lon="16.12481">
        <ele>446.885562</ele>
        <time>2026-07-07T15:30:10.000Z</time>
      </trkpt>
      <trkpt lat="47.61019" lon="16.12477">
        <ele>446.899371</ele>
        <time>2026-07-07T15:30:11.000Z</time>
      </trkpt>
      <trkpt lat="47.61015" lon="16.12474">
        <ele>446.913222</ele>
        <time>2026-07-07T15:30:12.000Z</time>
      </trkpt>
      <trkpt lat="47.61011" lon="16.12472">
        <ele>446.927564</ele>
        <time>2026-07-07T15:30:13.000Z</time>
      </trkpt>
      <trkpt lat="47.61006" lon="16.1247">
        <ele>446.93987</ele>
        <time>2026-07-07T15:30:14.000Z</time>
      </trkpt>
      <trkpt lat="47.61001" lon="16.12469">
        <ele>446.952667</ele>
        <time>2026-07-07T15:30:15.000Z</time>
      </trkpt>
      <trkpt lat="47.60995" lon="16.12469">
        <ele>446.966325</ele>
        <time>2026-07-07T15:30:16.000Z</time>
      </trkpt>
      <trkpt lat="47.60989" lon="16.1247">
        <ele>446.980948</ele>
        <time>2026-07-07T15:30:17.000Z</time>
      </trkpt>
      <trkpt lat="47.60983" lon="16.12471">
        <ele>446.995167</ele>
        <time>2026-07-07T15:30:18.000Z</time>
      </trkpt>
      <trkpt lat="47.60977" lon="16.12472">
        <ele>447.009424</ele>
        <time>2026-07-07T15:30:19.000Z</time>
      </trkpt>
      <trkpt lat="47.60971" lon="16.12473">
        <ele>447.023216</ele>
        <time>2026-07-07T15:30:20.000Z</time>
      </trkpt>
      <trkpt lat="47.60966" lon="16.12474">
        <ele>447.036265</ele>
        <time>2026-07-07T15:30:21.000Z</time>
      </trkpt>
      <trkpt lat="47.6096" lon="16.12475">
        <ele>447.049252</ele>
        <time>2026-07-07T15:30:22.000Z</time>
      </trkpt>
      <trkpt lat="47.60955" lon="16.12476">
        <ele>447.062302</ele>
        <time>2026-07-07T15:30:23.000Z</time>
      </trkpt>
      <trkpt lat="47.60949" lon="16.12477">
        <ele>447.07498</ele>
        <time>2026-07-07T15:30:24.000Z</time>
      </trkpt>
      <trkpt lat="47.60944" lon="16.12479">
        <ele>447.087455</ele>
        <time>2026-07-07T15:30:25.000Z</time>
      </trkpt>
      <trkpt lat="47.60939" lon="16.1248">
        <ele>447.099825</ele>
        <time>2026-07-07T15:30:26.000Z</time>
      </trkpt>
      <trkpt lat="47.60934" lon="16.12482">
        <ele>447.111905</ele>
        <time>2026-07-07T15:30:27.000Z</time>
      </trkpt>
      <trkpt lat="47.60929" lon="16.12483">
        <ele>447.123985</ele>
        <time>2026-07-07T15:30:28.000Z</time>
      </trkpt>
      <trkpt lat="47.60924" lon="16.12485">
        <ele>447.136181</ele>
        <time>2026-07-07T15:30:29.000Z</time>
      </trkpt>
      <trkpt lat="47.60919" lon="16.12487">
        <ele>447.148419</ele>
        <time>2026-07-07T15:30:30.000Z</time>
      </trkpt>
      <trkpt lat="47.60914" lon="16.12489">
        <ele>447.160574</ele>
        <time>2026-07-07T15:30:31.000Z</time>
      </trkpt>
      <trkpt lat="47.60909" lon="16.1249">
        <ele>447.171888</ele>
        <time>2026-07-07T15:30:32.000Z</time>
      </trkpt>
      <trkpt lat="47.60905" lon="16.12487">
        <ele>447.183046</ele>
        <time>2026-07-07T15:30:33.000Z</time>
      </trkpt>
      <trkpt lat="47.60901" lon="16.12483">
        <ele>447.193711</ele>
        <time>2026-07-07T15:30:34.000Z</time>
      </trkpt>
      <trkpt lat="47.60898" lon="16.12477">
        <ele>447.205444</ele>
        <time>2026-07-07T15:30:35.000Z</time>
      </trkpt>
      <trkpt lat="47.60895" lon="16.12471">
        <ele>447.217099</ele>
        <time>2026-07-07T15:30:36.000Z</time>
      </trkpt>
      <trkpt lat="47.60892" lon="16.12465">
        <ele>447.229245</ele>
        <time>2026-07-07T15:30:37.000Z</time>
      </trkpt>
      <trkpt lat="47.60889" lon="16.1246">
        <ele>447.241174</ele>
        <time>2026-07-07T15:30:38.000Z</time>
      </trkpt>
      <trkpt lat="47.60885" lon="16.12454">
        <ele>447.253103</ele>
        <time>2026-07-07T15:30:39.000Z</time>
      </trkpt>
      <trkpt lat="47.60882" lon="16.12448">
        <ele>447.264951</ele>
        <time>2026-07-07T15:30:40.000Z</time>
      </trkpt>
      <trkpt lat="47.60879" lon="16.12443">
        <ele>447.276174</ele>
        <time>2026-07-07T15:30:41.000Z</time>
      </trkpt>
      <trkpt lat="47.60875" lon="16.12438">
        <ele>447.287352</ele>
        <time>2026-07-07T15:30:42.000Z</time>
      </trkpt>
      <trkpt lat="47.60872" lon="16.12433">
        <ele>447.297906</ele>
        <time>2026-07-07T15:30:43.000Z</time>
      </trkpt>
      <trkpt lat="47.60869" lon="16.12429">
        <ele>447.308688</ele>
        <time>2026-07-07T15:30:44.000Z</time>
      </trkpt>
      <trkpt lat="47.60865" lon="16.12426">
        <ele>447.318774</ele>
        <time>2026-07-07T15:30:45.000Z</time>
      </trkpt>
      <trkpt lat="47.60861" lon="16.12423">
        <ele>447.329771</ele>
        <time>2026-07-07T15:30:46.000Z</time>
      </trkpt>
      <trkpt lat="47.60856" lon="16.12422">
        <ele>447.34143</ele>
        <time>2026-07-07T15:30:47.000Z</time>
      </trkpt>
      <trkpt lat="47.60851" lon="16.1242">
        <ele>447.353849</ele>
        <time>2026-07-07T15:30:48.000Z</time>
      </trkpt>
      <trkpt lat="47.60845" lon="16.1242">
        <ele>447.412438</ele>
        <time>2026-07-07T15:30:49.000Z</time>
      </trkpt>
      <trkpt lat="47.6084" lon="16.1242">
        <ele>447.470429</ele>
        <time>2026-07-07T15:30:50.000Z</time>
      </trkpt>
      <trkpt lat="47.60835" lon="16.12421">
        <ele>447.529887</ele>
        <time>2026-07-07T15:30:51.000Z</time>
      </trkpt>
      <trkpt lat="47.60829" lon="16.12422">
        <ele>447.590449</ele>
        <time>2026-07-07T15:30:52.000Z</time>
      </trkpt>
      <trkpt lat="47.60824" lon="16.12423">
        <ele>447.647802</ele>
        <time>2026-07-07T15:30:53.000Z</time>
      </trkpt>
      <trkpt lat="47.60819" lon="16.12425">
        <ele>447.704573</ele>
        <time>2026-07-07T15:30:54.000Z</time>
      </trkpt>
      <trkpt lat="47.60814" lon="16.12426">
        <ele>447.759618</ele>
        <time>2026-07-07T15:30:55.000Z</time>
      </trkpt>
      <trkpt lat="47.60809" lon="16.12426">
        <ele>447.816454</ele>
        <time>2026-07-07T15:30:56.000Z</time>
      </trkpt>
      <trkpt lat="47.60804" lon="16.12426">
        <ele>447.872098</ele>
        <time>2026-07-07T15:30:57.000Z</time>
      </trkpt>
      <trkpt lat="47.60799" lon="16.12426">
        <ele>447.929967</ele>
        <time>2026-07-07T15:30:58.000Z</time>
      </trkpt>
      <trkpt lat="47.60794" lon="16.12426">
        <ele>447.985632</ele>
        <time>2026-07-07T15:30:59.000Z</time>
      </trkpt>
      <trkpt lat="47.60789" lon="16.12426">
        <ele>448.041296</ele>
        <time>2026-07-07T15:31:00.000Z</time>
      </trkpt>
      <trkpt lat="47.60784" lon="16.12426">
        <ele>448.096939</ele>
        <time>2026-07-07T15:31:01.000Z</time>
      </trkpt>
      <trkpt lat="47.60779" lon="16.12426">
        <ele>448.154809</ele>
        <time>2026-07-07T15:31:02.000Z</time>
      </trkpt>
      <trkpt lat="47.60774" lon="16.12426">
        <ele>448.210453</ele>
        <time>2026-07-07T15:31:03.000Z</time>
      </trkpt>
      <trkpt lat="47.60769" lon="16.12426">
        <ele>448.267215</ele>
        <time>2026-07-07T15:31:04.000Z</time>
      </trkpt>
      <trkpt lat="47.60764" lon="16.12426">
        <ele>448.322879</ele>
        <time>2026-07-07T15:31:05.000Z</time>
      </trkpt>
      <trkpt lat="47.60759" lon="16.12426">
        <ele>448.375184</ele>
        <time>2026-07-07T15:31:06.000Z</time>
      </trkpt>
      <trkpt lat="47.60754" lon="16.12426">
        <ele>448.42865</ele>
        <time>2026-07-07T15:31:07.000Z</time>
      </trkpt>
      <trkpt lat="47.60749" lon="16.12427">
        <ele>448.483694</ele>
        <time>2026-07-07T15:31:08.000Z</time>
      </trkpt>
      <trkpt lat="47.60745" lon="16.12428">
        <ele>448.537866</ele>
        <time>2026-07-07T15:31:09.000Z</time>
      </trkpt>
      <trkpt lat="47.6074" lon="16.12428">
        <ele>448.593555</ele>
        <time>2026-07-07T15:31:10.000Z</time>
      </trkpt>
      <trkpt lat="47.60734" lon="16.12428">
        <ele>448.65143</ele>
        <time>2026-07-07T15:31:11.000Z</time>
      </trkpt>
      <trkpt lat="47.60729" lon="16.12428">
        <ele>448.7072</ele>
        <time>2026-07-07T15:31:12.000Z</time>
      </trkpt>
      <trkpt lat="47.60724" lon="16.12427">
        <ele>448.764199</ele>
        <time>2026-07-07T15:31:13.000Z</time>
      </trkpt>
      <trkpt lat="47.60719" lon="16.12426">
        <ele>448.820692</ele>
        <time>2026-07-07T15:31:14.000Z</time>
      </trkpt>
      <trkpt lat="47.60714" lon="16.12424">
        <ele>448.876225</ele>
        <time>2026-07-07T15:31:15.000Z</time>
      </trkpt>
      <trkpt lat="47.6071" lon="16.12423">
        <ele>448.930168</ele>
        <time>2026-07-07T15:31:16.000Z</time>
      </trkpt>
      <trkpt lat="47.60705" lon="16.12422">
        <ele>448.983008</ele>
        <time>2026-07-07T15:31:17.000Z</time>
      </trkpt>
      <trkpt lat="47.607" lon="16.12421">
        <ele>449.03706</ele>
        <time>2026-07-07T15:31:18.000Z</time>
      </trkpt>
      <trkpt lat="47.60695" lon="16.1242">
        <ele>449.089901</ele>
        <time>2026-07-07T15:31:19.000Z</time>
      </trkpt>
      <trkpt lat="47.60691" lon="16.12419">
        <ele>449.143843</ele>
        <time>2026-07-07T15:31:20.000Z</time>
      </trkpt>
      <trkpt lat="47.60686" lon="16.12418">
        <ele>449.197346</ele>
        <time>2026-07-07T15:31:21.000Z</time>
      </trkpt>
      <trkpt lat="47.60681" lon="16.12416">
        <ele>449.249761</ele>
        <time>2026-07-07T15:31:22.000Z</time>
      </trkpt>
      <trkpt lat="47.60677" lon="16.12415">
        <ele>449.303599</ele>
        <time>2026-07-07T15:31:23.000Z</time>
      </trkpt>
      <trkpt lat="47.60672" lon="16.12413">
        <ele>449.359844</ele>
        <time>2026-07-07T15:31:24.000Z</time>
      </trkpt>
      <trkpt lat="47.60667" lon="16.12412">
        <ele>449.462555</ele>
        <time>2026-07-07T15:31:25.000Z</time>
      </trkpt>
      <trkpt lat="47.60662" lon="16.12412">
        <ele>449.562476</ele>
        <time>2026-07-07T15:31:26.000Z</time>
      </trkpt>
      <trkpt lat="47.60657" lon="16.12413">
        <ele>449.660716</ele>
        <time>2026-07-07T15:31:27.000Z</time>
      </trkpt>
      <trkpt lat="47.60653" lon="16.12415">
        <ele>449.751742</ele>
        <time>2026-07-07T15:31:28.000Z</time>
      </trkpt>
      <trkpt lat="47.6065" lon="16.12418">
        <ele>449.839399</ele>
        <time>2026-07-07T15:31:29.000Z</time>
      </trkpt>
      <trkpt lat="47.60646" lon="16.12423">
        <ele>449.934674</ele>
        <time>2026-07-07T15:31:30.000Z</time>
      </trkpt>
      <trkpt lat="47.60643" lon="16.12427">
        <ele>450.027289</ele>
        <time>2026-07-07T15:31:31.000Z</time>
      </trkpt>
      <trkpt lat="47.60639" lon="16.12431">
        <ele>450.125753</ele>
        <time>2026-07-07T15:31:32.000Z</time>
      </trkpt>
      <trkpt lat="47.60635" lon="16.12435">
        <ele>450.221713</ele>
        <time>2026-07-07T15:31:33.000Z</time>
      </trkpt>
      <trkpt lat="47.60631" lon="16.12439">
        <ele>450.316791</ele>
        <time>2026-07-07T15:31:34.000Z</time>
      </trkpt>
      <trkpt lat="47.60628" lon="16.12443">
        <ele>450.414371</ele>
        <time>2026-07-07T15:31:35.000Z</time>
      </trkpt>
      <trkpt lat="47.60624" lon="16.12447">
        <ele>450.512782</ele>
        <time>2026-07-07T15:31:36.000Z</time>
      </trkpt>
      <trkpt lat="47.6062" lon="16.12451">
        <ele>450.611246</ele>
        <time>2026-07-07T15:31:37.000Z</time>
      </trkpt>
      <trkpt lat="47.60616" lon="16.12455">
        <ele>450.713017</ele>
        <time>2026-07-07T15:31:38.000Z</time>
      </trkpt>
      <trkpt lat="47.60612" lon="16.1246">
        <ele>450.81169</ele>
        <time>2026-07-07T15:31:39.000Z</time>
      </trkpt>
      <trkpt lat="47.60609" lon="16.12465">
        <ele>450.913107</ele>
        <time>2026-07-07T15:31:40.000Z</time>
      </trkpt>
      <trkpt lat="47.60606" lon="16.1247">
        <ele>451.011343</ele>
        <time>2026-07-07T15:31:41.000Z</time>
      </trkpt>
      <trkpt lat="47.60603" lon="16.12476">
        <ele>451.111999</ele>
        <time>2026-07-07T15:31:42.000Z</time>
      </trkpt>
      <trkpt lat="47.60599" lon="16.12481">
        <ele>451.211609</ele>
        <time>2026-07-07T15:31:43.000Z</time>
      </trkpt>
      <trkpt lat="47.60596" lon="16.12486">
        <ele>451.307428</ele>
        <time>2026-07-07T15:31:44.000Z</time>
      </trkpt>
      <trkpt lat="47.60593" lon="16.12491">
        <ele>451.403567</ele>
        <time>2026-07-07T15:31:45.000Z</time>
      </trkpt>
      <trkpt lat="47.6059" lon="16.12497">
        <ele>451.499387</ele>
        <time>2026-07-07T15:31:46.000Z</time>
      </trkpt>
      <trkpt lat="47.60587" lon="16.12502">
        <ele>451.595207</ele>
        <time>2026-07-07T15:31:47.000Z</time>
      </trkpt>
      <trkpt lat="47.60585" lon="16.12507">
        <ele>451.688212</ele>
        <time>2026-07-07T15:31:48.000Z</time>
      </trkpt>
      <trkpt lat="47.60582" lon="16.12513">
        <ele>451.783466</ele>
        <time>2026-07-07T15:31:49.000Z</time>
      </trkpt>
      <trkpt lat="47.60579" lon="16.12518">
        <ele>451.878671</ele>
        <time>2026-07-07T15:31:50.000Z</time>
      </trkpt>
      <trkpt lat="47.60577" lon="16.12524">
        <ele>451.972705</ele>
        <time>2026-07-07T15:31:51.000Z</time>
      </trkpt>
      <trkpt lat="47.60574" lon="16.12529">
        <ele>452.062124</ele>
        <time>2026-07-07T15:31:52.000Z</time>
      </trkpt>
      <trkpt lat="47.60572" lon="16.12534">
        <ele>452.143434</ele>
        <time>2026-07-07T15:31:53.000Z</time>
      </trkpt>
      <trkpt lat="47.6057" lon="16.12537">
        <ele>452.209886</ele>
        <time>2026-07-07T15:31:54.000Z</time>
      </trkpt>
      <trkpt lat="47.60567" lon="16.12539">
        <ele>452.276299</ele>
        <time>2026-07-07T15:31:55.000Z</time>
      </trkpt>
      <trkpt lat="47.60564" lon="16.12539">
        <ele>452.338659</ele>
        <time>2026-07-07T15:31:56.000Z</time>
      </trkpt>
      <trkpt lat="47.60561" lon="16.12537">
        <ele>452.398321</ele>
        <time>2026-07-07T15:31:57.000Z</time>
      </trkpt>
      <trkpt lat="47.6056" lon="16.12534">
        <ele>452.4541</ele>
        <time>2026-07-07T15:31:58.000Z</time>
      </trkpt>
      <trkpt lat="47.60558" lon="16.1253">
        <ele>452.520496</ele>
        <time>2026-07-07T15:31:59.000Z</time>
      </trkpt>
      <trkpt lat="47.60556" lon="16.12526">
        <ele>452.584506</ele>
        <time>2026-07-07T15:32:00.000Z</time>
      </trkpt>
      <trkpt lat="47.60554" lon="16.12522">
        <ele>452.650678</ele>
        <time>2026-07-07T15:32:01.000Z</time>
      </trkpt>
      <trkpt lat="47.60553" lon="16.12518">
        <ele>452.714112</ele>
        <time>2026-07-07T15:32:02.000Z</time>
      </trkpt>
      <trkpt lat="47.60552" lon="16.12514">
        <ele>452.777979</ele>
        <time>2026-07-07T15:32:03.000Z</time>
      </trkpt>
      <trkpt lat="47.60551" lon="16.1251">
        <ele>452.837692</ele>
        <time>2026-07-07T15:32:04.000Z</time>
      </trkpt>
      <trkpt lat="47.60551" lon="16.12506">
        <ele>452.898218</ele>
        <time>2026-07-07T15:32:05.000Z</time>
      </trkpt>
      <trkpt lat="47.60553" lon="16.12502">
        <ele>452.959869</ele>
        <time>2026-07-07T15:32:06.000Z</time>
      </trkpt>
      <trkpt lat="47.60556" lon="16.12498">
        <ele>453.03342</ele>
        <time>2026-07-07T15:32:07.000Z</time>
      </trkpt>
      <trkpt lat="47.60558" lon="16.12495">
        <ele>453.09851</ele>
        <time>2026-07-07T15:32:08.000Z</time>
      </trkpt>
      <trkpt lat="47.6056" lon="16.1249">
        <ele>453.133364</ele>
        <time>2026-07-07T15:32:09.000Z</time>
      </trkpt>
      <trkpt lat="47.60562" lon="16.12485">
        <ele>453.169027</ele>
        <time>2026-07-07T15:32:10.000Z</time>
      </trkpt>
      <trkpt lat="47.60564" lon="16.1248">
        <ele>453.205635</ele>
        <time>2026-07-07T15:32:11.000Z</time>
      </trkpt>
      <trkpt lat="47.60565" lon="16.12475">
        <ele>453.241656</ele>
        <time>2026-07-07T15:32:12.000Z</time>
      </trkpt>
      <trkpt lat="47.60566" lon="16.1247">
        <ele>453.277262</ele>
        <time>2026-07-07T15:32:13.000Z</time>
      </trkpt>
      <trkpt lat="47.60567" lon="16.12464">
        <ele>453.312745</ele>
        <time>2026-07-07T15:32:14.000Z</time>
      </trkpt>
      <trkpt lat="47.60567" lon="16.12458">
        <ele>453.349243</ele>
        <time>2026-07-07T15:32:15.000Z</time>
      </trkpt>
      <trkpt lat="47.60567" lon="16.12453">
        <ele>453.384271</ele>
        <time>2026-07-07T15:32:16.000Z</time>
      </trkpt>
      <trkpt lat="47.60567" lon="16.12448">
        <ele>453.418236</ele>
        <time>2026-07-07T15:32:17.000Z</time>
      </trkpt>
      <trkpt lat="47.60566" lon="16.12442">
        <ele>453.453719</ele>
        <time>2026-07-07T15:32:18.000Z</time>
      </trkpt>
      <trkpt lat="47.60565" lon="16.12437">
        <ele>453.489379</ele>
        <time>2026-07-07T15:32:19.000Z</time>
      </trkpt>
      <trkpt lat="47.60563" lon="16.12432">
        <ele>453.524232</ele>
        <time>2026-07-07T15:32:20.000Z</time>
      </trkpt>
      <trkpt lat="47.60562" lon="16.12427">
        <ele>453.55948</ele>
        <time>2026-07-07T15:32:21.000Z</time>
      </trkpt>
      <trkpt lat="47.6056" lon="16.12422">
        <ele>453.593806</ele>
        <time>2026-07-07T15:32:22.000Z</time>
      </trkpt>
      <trkpt lat="47.60557" lon="16.12418">
        <ele>453.628386</ele>
        <time>2026-07-07T15:32:23.000Z</time>
      </trkpt>
      <trkpt lat="47.60555" lon="16.12414">
        <ele>453.663315</ele>
        <time>2026-07-07T15:32:24.000Z</time>
      </trkpt>
      <trkpt lat="47.60552" lon="16.12411">
        <ele>453.699766</ele>
        <time>2026-07-07T15:32:25.000Z</time>
      </trkpt>
      <trkpt lat="47.60549" lon="16.12407">
        <ele>453.73582</ele>
        <time>2026-07-07T15:32:26.000Z</time>
      </trkpt>
      <trkpt lat="47.60545" lon="16.12404">
        <ele>453.774005</ele>
        <time>2026-07-07T15:32:27.000Z</time>
      </trkpt>
      <trkpt lat="47.60542" lon="16.12402">
        <ele>453.812151</ele>
        <time>2026-07-07T15:32:28.000Z</time>
      </trkpt>
      <trkpt lat="47.60538" lon="16.124">
        <ele>453.851123</ele>
        <time>2026-07-07T15:32:29.000Z</time>
      </trkpt>
      <trkpt lat="47.60533" lon="16.12399">
        <ele>453.891304</ele>
        <time>2026-07-07T15:32:30.000Z</time>
      </trkpt>
      <trkpt lat="47.60529" lon="16.12399">
        <ele>453.930037</ele>
        <time>2026-07-07T15:32:31.000Z</time>
      </trkpt>
      <trkpt lat="47.60525" lon="16.12399">
        <ele>453.971604</ele>
        <time>2026-07-07T15:32:32.000Z</time>
      </trkpt>
      <trkpt lat="47.60521" lon="16.124">
        <ele>454.012624</ele>
        <time>2026-07-07T15:32:33.000Z</time>
      </trkpt>
      <trkpt lat="47.60516" lon="16.12402">
        <ele>454.053584</ele>
        <time>2026-07-07T15:32:34.000Z</time>
      </trkpt>
      <trkpt lat="47.60512" lon="16.12404">
        <ele>454.093258</ele>
        <time>2026-07-07T15:32:35.000Z</time>
      </trkpt>
      <trkpt lat="47.60508" lon="16.12406">
        <ele>454.133131</ele>
        <time>2026-07-07T15:32:36.000Z</time>
      </trkpt>
      <trkpt lat="47.60504" lon="16.12408">
        <ele>454.173655</ele>
        <time>2026-07-07T15:32:37.000Z</time>
      </trkpt>
      <trkpt lat="47.605" lon="16.12411">
        <ele>454.215528</ele>
        <time>2026-07-07T15:32:38.000Z</time>
      </trkpt>
      <trkpt lat="47.60496" lon="16.12413">
        <ele>454.259024</ele>
        <time>2026-07-07T15:32:39.000Z</time>
      </trkpt>
      <trkpt lat="47.60492" lon="16.12416">
        <ele>454.303131</ele>
        <time>2026-07-07T15:32:40.000Z</time>
      </trkpt>
      <trkpt lat="47.60487" lon="16.12418">
        <ele>454.349881</ele>
        <time>2026-07-07T15:32:41.000Z</time>
      </trkpt>
      <trkpt lat="47.60482" lon="16.1242">
        <ele>454.400468</ele>
        <time>2026-07-07T15:32:42.000Z</time>
      </trkpt>
      <trkpt lat="47.60476" lon="16.12421">
        <ele>454.453827</ele>
        <time>2026-07-07T15:32:43.000Z</time>
      </trkpt>
      <trkpt lat="47.6047" lon="16.12422">
        <ele>454.509572</ele>
        <time>2026-07-07T15:32:44.000Z</time>
      </trkpt>
      <trkpt lat="47.60464" lon="16.12421">
        <ele>454.569421</ele>
        <time>2026-07-07T15:32:45.000Z</time>
      </trkpt>
      <trkpt lat="47.60458" lon="16.12419">
        <ele>454.630278</ele>
        <time>2026-07-07T15:32:46.000Z</time>
      </trkpt>
      <trkpt lat="47.60451" lon="16.12416">
        <ele>454.69603</ele>
        <time>2026-07-07T15:32:47.000Z</time>
      </trkpt>
      <trkpt lat="47.60445" lon="16.12412">
        <ele>454.762504</ele>
        <time>2026-07-07T15:32:48.000Z</time>
      </trkpt>
      <trkpt lat="47.60438" lon="16.12407">
        <ele>454.762092</ele>
        <time>2026-07-07T15:32:49.000Z</time>
      </trkpt>
      <trkpt lat="47.60432" lon="16.12402">
        <ele>454.714721</ele>
        <time>2026-07-07T15:32:50.000Z</time>
      </trkpt>
      <trkpt lat="47.60425" lon="16.12396">
        <ele>454.668446</ele>
        <time>2026-07-07T15:32:51.000Z</time>
      </trkpt>
      <trkpt lat="47.60419" lon="16.12391">
        <ele>454.621493</ele>
        <time>2026-07-07T15:32:52.000Z</time>
      </trkpt>
      <trkpt lat="47.60412" lon="16.12386">
        <ele>454.5753</ele>
        <time>2026-07-07T15:32:53.000Z</time>
      </trkpt>
      <trkpt lat="47.60406" lon="16.12381">
        <ele>454.531182</ele>
        <time>2026-07-07T15:32:54.000Z</time>
      </trkpt>
      <trkpt lat="47.604" lon="16.12376">
        <ele>454.487617</ele>
        <time>2026-07-07T15:32:55.000Z</time>
      </trkpt>
      <trkpt lat="47.60394" lon="16.12371">
        <ele>454.445224</ele>
        <time>2026-07-07T15:32:56.000Z</time>
      </trkpt>
      <trkpt lat="47.60389" lon="16.12366">
        <ele>454.404907</ele>
        <time>2026-07-07T15:32:57.000Z</time>
      </trkpt>
      <trkpt lat="47.60383" lon="16.12362">
        <ele>454.364032</ele>
        <time>2026-07-07T15:32:58.000Z</time>
      </trkpt>
      <trkpt lat="47.60378" lon="16.12357">
        <ele>454.325375</ele>
        <time>2026-07-07T15:32:59.000Z</time>
      </trkpt>
      <trkpt lat="47.60373" lon="16.12353">
        <ele>454.288096</ele>
        <time>2026-07-07T15:33:00.000Z</time>
      </trkpt>
      <trkpt lat="47.60367" lon="16.12349">
        <ele>454.251016</ele>
        <time>2026-07-07T15:33:01.000Z</time>
      </trkpt>
      <trkpt lat="47.60362" lon="16.12345">
        <ele>454.213564</ele>
        <time>2026-07-07T15:33:02.000Z</time>
      </trkpt>
      <trkpt lat="47.60357" lon="16.12341">
        <ele>454.177603</ele>
        <time>2026-07-07T15:33:03.000Z</time>
      </trkpt>
      <trkpt lat="47.60352" lon="16.12337">
        <ele>454.140325</ele>
        <time>2026-07-07T15:33:04.000Z</time>
      </trkpt>
      <trkpt lat="47.60347" lon="16.12333">
        <ele>454.104564</ele>
        <time>2026-07-07T15:33:05.000Z</time>
      </trkpt>
      <trkpt lat="47.60342" lon="16.1233">
        <ele>454.068811</ele>
        <time>2026-07-07T15:33:06.000Z</time>
      </trkpt>
      <trkpt lat="47.60337" lon="16.12326">
        <ele>454.032664</ele>
        <time>2026-07-07T15:33:07.000Z</time>
      </trkpt>
      <trkpt lat="47.60332" lon="16.12323">
        <ele>453.997846</ele>
        <time>2026-07-07T15:33:08.000Z</time>
      </trkpt>
      <trkpt lat="47.60326" lon="16.1232">
        <ele>453.961782</ele>
        <time>2026-07-07T15:33:09.000Z</time>
      </trkpt>
      <trkpt lat="47.60321" lon="16.12316">
        <ele>453.926783</ele>
        <time>2026-07-07T15:33:10.000Z</time>
      </trkpt>
      <trkpt lat="47.60316" lon="16.12312">
        <ele>453.891582</ele>
        <time>2026-07-07T15:33:11.000Z</time>
      </trkpt>
      <trkpt lat="47.60311" lon="16.12308">
        <ele>453.855416</ele>
        <time>2026-07-07T15:33:12.000Z</time>
      </trkpt>
      <trkpt lat="47.60307" lon="16.12304">
        <ele>453.820564</ele>
        <time>2026-07-07T15:33:13.000Z</time>
      </trkpt>
      <trkpt lat="47.60302" lon="16.123">
        <ele>453.785919</ele>
        <time>2026-07-07T15:33:14.000Z</time>
      </trkpt>
      <trkpt lat="47.60297" lon="16.12297">
        <ele>453.751305</ele>
        <time>2026-07-07T15:33:15.000Z</time>
      </trkpt>
      <trkpt lat="47.60292" lon="16.12293">
        <ele>453.717447</ele>
        <time>2026-07-07T15:33:16.000Z</time>
      </trkpt>
      <trkpt lat="47.60287" lon="16.1229">
        <ele>453.684156</ele>
        <time>2026-07-07T15:33:17.000Z</time>
      </trkpt>
      <trkpt lat="47.60283" lon="16.12286">
        <ele>453.652438</ele>
        <time>2026-07-07T15:33:18.000Z</time>
      </trkpt>
      <trkpt lat="47.60278" lon="16.12282">
        <ele>453.689575</ele>
        <time>2026-07-07T15:33:19.000Z</time>
      </trkpt>
      <trkpt lat="47.60273" lon="16.12279">
        <ele>453.725271</ele>
        <time>2026-07-07T15:33:20.000Z</time>
      </trkpt>
      <trkpt lat="47.60269" lon="16.12275">
        <ele>453.762801</ele>
        <time>2026-07-07T15:33:21.000Z</time>
      </trkpt>
      <trkpt lat="47.60264" lon="16.12272">
        <ele>453.798877</ele>
        <time>2026-07-07T15:33:22.000Z</time>
      </trkpt>
      <trkpt lat="47.60259" lon="16.12269">
        <ele>453.836296</ele>
        <time>2026-07-07T15:33:23.000Z</time>
      </trkpt>
      <trkpt lat="47.60254" lon="16.12266">
        <ele>453.873715</ele>
        <time>2026-07-07T15:33:24.000Z</time>
      </trkpt>
      <trkpt lat="47.60249" lon="16.12263">
        <ele>453.910793</ele>
        <time>2026-07-07T15:33:25.000Z</time>
      </trkpt>
      <trkpt lat="47.60244" lon="16.1226">
        <ele>453.947303</ele>
        <time>2026-07-07T15:33:26.000Z</time>
      </trkpt>
      <trkpt lat="47.60239" lon="16.12256">
        <ele>453.983813</ele>
        <time>2026-07-07T15:33:27.000Z</time>
      </trkpt>
      <trkpt lat="47.60235" lon="16.12252">
        <ele>454.018696</ele>
        <time>2026-07-07T15:33:28.000Z</time>
      </trkpt>
      <trkpt lat="47.60232" lon="16.12247">
        <ele>454.052788</ele>
        <time>2026-07-07T15:33:29.000Z</time>
      </trkpt>
      <trkpt lat="47.60229" lon="16.12241">
        <ele>454.085825</ele>
        <time>2026-07-07T15:33:30.000Z</time>
      </trkpt>
      <trkpt lat="47.60228" lon="16.12234">
        <ele>454.118438</ele>
        <time>2026-07-07T15:33:31.000Z</time>
      </trkpt>
      <trkpt lat="47.60228" lon="16.12227">
        <ele>454.152649</ele>
        <time>2026-07-07T15:33:32.000Z</time>
      </trkpt>
      <trkpt lat="47.60228" lon="16.1222">
        <ele>454.186586</ele>
        <time>2026-07-07T15:33:33.000Z</time>
      </trkpt>
      <trkpt lat="47.6023" lon="16.12213">
        <ele>454.220741</ele>
        <time>2026-07-07T15:33:34.000Z</time>
      </trkpt>
      <trkpt lat="47.60231" lon="16.12205">
        <ele>454.255275</ele>
        <time>2026-07-07T15:33:35.000Z</time>
      </trkpt>
      <trkpt lat="47.60232" lon="16.12198">
        <ele>454.289204</ele>
        <time>2026-07-07T15:33:36.000Z</time>
      </trkpt>
      <trkpt lat="47.60233" lon="16.12191">
        <ele>454.322539</ele>
        <time>2026-07-07T15:33:37.000Z</time>
      </trkpt>
      <trkpt lat="47.60234" lon="16.12184">
        <ele>454.355553</ele>
        <time>2026-07-07T15:33:38.000Z</time>
      </trkpt>
      <trkpt lat="47.60235" lon="16.12178">
        <ele>454.387196</ele>
        <time>2026-07-07T15:33:39.000Z</time>
      </trkpt>
      <trkpt lat="47.60236" lon="16.12171">
        <ele>454.419947</ele>
        <time>2026-07-07T15:33:40.000Z</time>
      </trkpt>
      <trkpt lat="47.60236" lon="16.12164">
        <ele>454.451315</ele>
        <time>2026-07-07T15:33:41.000Z</time>
      </trkpt>
      <trkpt lat="47.60237" lon="16.12158">
        <ele>454.481645</ele>
        <time>2026-07-07T15:33:42.000Z</time>
      </trkpt>
      <trkpt lat="47.60238" lon="16.12152">
        <ele>454.510589</ele>
        <time>2026-07-07T15:33:43.000Z</time>
      </trkpt>
      <trkpt lat="47.60238" lon="16.12146">
        <ele>454.538963</ele>
        <time>2026-07-07T15:33:44.000Z</time>
      </trkpt>
      <trkpt lat="47.60238" lon="16.1214">
        <ele>454.564691</ele>
        <time>2026-07-07T15:33:45.000Z</time>
      </trkpt>
      <trkpt lat="47.60237" lon="16.12135">
        <ele>454.589864</ele>
        <time>2026-07-07T15:33:46.000Z</time>
      </trkpt>
      <trkpt lat="47.60235" lon="16.12132">
        <ele>454.610093</ele>
        <time>2026-07-07T15:33:47.000Z</time>
      </trkpt>
      <trkpt lat="47.60233" lon="16.1213">
        <ele>454.627994</ele>
        <time>2026-07-07T15:33:48.000Z</time>
      </trkpt>
      <trkpt lat="47.60232" lon="16.12129">
        <ele>454.637862</ele>
        <time>2026-07-07T15:33:49.000Z</time>
      </trkpt>
      <trkpt lat="47.60231" lon="16.12128">
        <ele>454.641356</ele>
        <time>2026-07-07T15:33:50.000Z</time>
      </trkpt>
      <trkpt lat="47.60228" lon="16.12127">
        <ele>454.662012</ele>
        <time>2026-07-07T15:34:15.000Z</time>
      </trkpt>
      <trkpt lat="47.60229" lon="16.1213">
        <ele>454.674813</ele>
        <time>2026-07-07T15:34:21.000Z</time>
      </trkpt>
      <trkpt lat="47.60231" lon="16.12129">
        <ele>454.68669</ele>
        <time>2026-07-07T15:34:22.000Z</time>
      </trkpt>
      <trkpt lat="47.60233" lon="16.12129">
        <ele>454.697356</ele>
        <time>2026-07-07T15:34:23.000Z</time>
      </trkpt>
      <trkpt lat="47.60234" lon="16.12128">
        <ele>454.710061</ele>
        <time>2026-07-07T15:34:24.000Z</time>
      </trkpt>
      <trkpt lat="47.60237" lon="16.12128">
        <ele>454.725502</ele>
        <time>2026-07-07T15:34:25.000Z</time>
      </trkpt>
      <trkpt lat="47.60239" lon="16.12126">
        <ele>454.743767</ele>
        <time>2026-07-07T15:34:26.000Z</time>
      </trkpt>
      <trkpt lat="47.60241" lon="16.12123">
        <ele>454.765846</ele>
        <time>2026-07-07T15:34:27.000Z</time>
      </trkpt>
      <trkpt lat="47.60244" lon="16.12118">
        <ele>454.791889</ele>
        <time>2026-07-07T15:34:28.000Z</time>
      </trkpt>
      <trkpt lat="47.60246" lon="16.12113">
        <ele>454.820211</ele>
        <time>2026-07-07T15:34:29.000Z</time>
      </trkpt>
      <trkpt lat="47.60248" lon="16.12108">
        <ele>454.850595</ele>
        <time>2026-07-07T15:34:30.000Z</time>
      </trkpt>
      <trkpt lat="47.6025" lon="16.12102">
        <ele>454.881318</ele>
        <time>2026-07-07T15:34:31.000Z</time>
      </trkpt>
      <trkpt lat="47.60253" lon="16.12096">
        <ele>454.903185</ele>
        <time>2026-07-07T15:34:32.000Z</time>
      </trkpt>
      <trkpt lat="47.60255" lon="16.1209">
        <ele>454.912675</ele>
        <time>2026-07-07T15:34:33.000Z</time>
      </trkpt>
      <trkpt lat="47.60257" lon="16.12084">
        <ele>454.921884</ele>
        <time>2026-07-07T15:34:34.000Z</time>
      </trkpt>
      <trkpt lat="47.60259" lon="16.12078">
        <ele>454.931124</ele>
        <time>2026-07-07T15:34:35.000Z</time>
      </trkpt>
      <trkpt lat="47.60261" lon="16.12072">
        <ele>454.940402</ele>
        <time>2026-07-07T15:34:36.000Z</time>
      </trkpt>
      <trkpt lat="47.60263" lon="16.12066">
        <ele>454.949446</ele>
        <time>2026-07-07T15:34:37.000Z</time>
      </trkpt>
      <trkpt lat="47.60265" lon="16.1206">
        <ele>454.958476</ele>
        <time>2026-07-07T15:34:38.000Z</time>
      </trkpt>
      <trkpt lat="47.60267" lon="16.12055">
        <ele>454.96685</ele>
        <time>2026-07-07T15:34:39.000Z</time>
      </trkpt>
      <trkpt lat="47.60269" lon="16.12049">
        <ele>454.975548</ele>
        <time>2026-07-07T15:34:40.000Z</time>
      </trkpt>
      <trkpt lat="47.60272" lon="16.12043">
        <ele>454.985041</ele>
        <time>2026-07-07T15:34:41.000Z</time>
      </trkpt>
      <trkpt lat="47.60274" lon="16.12037">
        <ele>454.994561</ele>
        <time>2026-07-07T15:34:42.000Z</time>
      </trkpt>
      <trkpt lat="47.60276" lon="16.12031">
        <ele>455.004348</ele>
        <time>2026-07-07T15:34:43.000Z</time>
      </trkpt>
      <trkpt lat="47.60278" lon="16.12024">
        <ele>455.014081</ele>
        <time>2026-07-07T15:34:44.000Z</time>
      </trkpt>
      <trkpt lat="47.6028" lon="16.12018">
        <ele>455.023814</ele>
        <time>2026-07-07T15:34:45.000Z</time>
      </trkpt>
      <trkpt lat="47.60282" lon="16.12012">
        <ele>455.033024</ele>
        <time>2026-07-07T15:34:46.000Z</time>
      </trkpt>
      <trkpt lat="47.60284" lon="16.12006">
        <ele>455.042054</ele>
        <time>2026-07-07T15:34:47.000Z</time>
      </trkpt>
      <trkpt lat="47.60286" lon="16.12">
        <ele>455.051172</ele>
        <time>2026-07-07T15:34:48.000Z</time>
      </trkpt>
      <trkpt lat="47.60288" lon="16.11994">
        <ele>455.060502</ele>
        <time>2026-07-07T15:34:49.000Z</time>
      </trkpt>
      <trkpt lat="47.60291" lon="16.11987">
        <ele>455.070288</ele>
        <time>2026-07-07T15:34:50.000Z</time>
      </trkpt>
      <trkpt lat="47.60292" lon="16.11981">
        <ele>455.080168</ele>
        <time>2026-07-07T15:34:51.000Z</time>
      </trkpt>
      <trkpt lat="47.60293" lon="16.11973">
        <ele>455.090243</ele>
        <time>2026-07-07T15:34:52.000Z</time>
      </trkpt>
      <trkpt lat="47.60293" lon="16.11966">
        <ele>455.100375</ele>
        <time>2026-07-07T15:34:53.000Z</time>
      </trkpt>
      <trkpt lat="47.60291" lon="16.11959">
        <ele>455.110481</ele>
        <time>2026-07-07T15:34:54.000Z</time>
      </trkpt>
      <trkpt lat="47.60288" lon="16.11953">
        <ele>455.120657</ele>
        <time>2026-07-07T15:34:55.000Z</time>
      </trkpt>
      <trkpt lat="47.60284" lon="16.11948">
        <ele>455.13092</ele>
        <time>2026-07-07T15:34:56.000Z</time>
      </trkpt>
      <trkpt lat="47.60279" lon="16.11944">
        <ele>455.14152</ele>
        <time>2026-07-07T15:34:57.000Z</time>
      </trkpt>
      <trkpt lat="47.60275" lon="16.1194">
        <ele>455.151739</ele>
        <time>2026-07-07T15:34:58.000Z</time>
      </trkpt>
      <trkpt lat="47.6027" lon="16.11937">
        <ele>455.162006</ele>
        <time>2026-07-07T15:34:59.000Z</time>
      </trkpt>
      <trkpt lat="47.60266" lon="16.11933">
        <ele>455.172272</ele>
        <time>2026-07-07T15:35:00.000Z</time>
      </trkpt>
      <trkpt lat="47.60261" lon="16.1193">
        <ele>455.182414</ele>
        <time>2026-07-07T15:35:01.000Z</time>
      </trkpt>
      <trkpt lat="47.60257" lon="16.11927">
        <ele>455.192196</ele>
        <time>2026-07-07T15:35:02.000Z</time>
      </trkpt>
      <trkpt lat="47.60253" lon="16.11923">
        <ele>455.2024</ele>
        <time>2026-07-07T15:35:03.000Z</time>
      </trkpt>
      <trkpt lat="47.60248" lon="16.1192">
        <ele>455.212059</ele>
        <time>2026-07-07T15:35:04.000Z</time>
      </trkpt>
      <trkpt lat="47.60244" lon="16.11917">
        <ele>455.222263</ele>
        <time>2026-07-07T15:35:05.000Z</time>
      </trkpt>
      <trkpt lat="47.60239" lon="16.11914">
        <ele>455.232225</ele>
        <time>2026-07-07T15:35:06.000Z</time>
      </trkpt>
      <trkpt lat="47.60235" lon="16.1191">
        <ele>455.242007</ele>
        <time>2026-07-07T15:35:07.000Z</time>
      </trkpt>
      <trkpt lat="47.60231" lon="16.11907">
        <ele>455.25209</ele>
        <time>2026-07-07T15:35:08.000Z</time>
      </trkpt>
      <trkpt lat="47.60226" lon="16.11904">
        <ele>455.26181</ele>
        <time>2026-07-07T15:35:09.000Z</time>
      </trkpt>
      <trkpt lat="47.60222" lon="16.11901">
        <ele>455.307481</ele>
        <time>2026-07-07T15:35:10.000Z</time>
      </trkpt>
      <trkpt lat="47.60217" lon="16.11898">
        <ele>455.356344</ele>
        <time>2026-07-07T15:35:11.000Z</time>
      </trkpt>
      <trkpt lat="47.60213" lon="16.11894">
        <ele>455.403449</ele>
        <time>2026-07-07T15:35:12.000Z</time>
      </trkpt>
      <trkpt lat="47.60209" lon="16.11891">
        <ele>455.452601</ele>
        <time>2026-07-07T15:35:13.000Z</time>
      </trkpt>
      <trkpt lat="47.60204" lon="16.11888">
        <ele>455.499706</ele>
        <time>2026-07-07T15:35:14.000Z</time>
      </trkpt>
      <trkpt lat="47.602" lon="16.11885">
        <ele>455.547401</ele>
        <time>2026-07-07T15:35:15.000Z</time>
      </trkpt>
      <trkpt lat="47.60196" lon="16.11882">
        <ele>455.594505</ele>
        <time>2026-07-07T15:35:16.000Z</time>
      </trkpt>
      <trkpt lat="47.60191" lon="16.11879">
        <ele>455.640487</ele>
        <time>2026-07-07T15:35:17.000Z</time>
      </trkpt>
      <trkpt lat="47.60187" lon="16.11876">
        <ele>455.687309</ele>
        <time>2026-07-07T15:35:18.000Z</time>
      </trkpt>
      <trkpt lat="47.60182" lon="16.11875">
        <ele>455.731999</ele>
        <time>2026-07-07T15:35:19.000Z</time>
      </trkpt>
      <trkpt lat="47.60178" lon="16.11873">
        <ele>455.773681</ele>
        <time>2026-07-07T15:35:20.000Z</time>
      </trkpt>
      <trkpt lat="47.60174" lon="16.11872">
        <ele>455.818233</ele>
        <time>2026-07-07T15:35:21.000Z</time>
      </trkpt>
      <trkpt lat="47.60169" lon="16.11872">
        <ele>455.862338</ele>
        <time>2026-07-07T15:35:22.000Z</time>
      </trkpt>
      <trkpt lat="47.60165" lon="16.11872">
        <ele>455.906417</ele>
        <time>2026-07-07T15:35:23.000Z</time>
      </trkpt>
      <trkpt lat="47.6016" lon="16.11872">
        <ele>455.950477</ele>
        <time>2026-07-07T15:35:24.000Z</time>
      </trkpt>
      <trkpt lat="47.60155" lon="16.11871">
        <ele>455.998676</ele>
        <time>2026-07-07T15:35:25.000Z</time>
      </trkpt>
      <trkpt lat="47.60151" lon="16.1187">
        <ele>456.046705</ele>
        <time>2026-07-07T15:35:26.000Z</time>
      </trkpt>
      <trkpt lat="47.60146" lon="16.11867">
        <ele>456.095164</ele>
        <time>2026-07-07T15:35:27.000Z</time>
      </trkpt>
      <trkpt lat="47.60141" lon="16.11865">
        <ele>456.143602</ele>
        <time>2026-07-07T15:35:28.000Z</time>
      </trkpt>
      <trkpt lat="47.60137" lon="16.11861">
        <ele>456.192465</ele>
        <time>2026-07-07T15:35:29.000Z</time>
      </trkpt>
      <trkpt lat="47.60132" lon="16.11858">
        <ele>456.241667</ele>
        <time>2026-07-07T15:35:30.000Z</time>
      </trkpt>
      <trkpt lat="47.60128" lon="16.11853">
        <ele>456.292818</ele>
        <time>2026-07-07T15:35:31.000Z</time>
      </trkpt>
      <trkpt lat="47.60124" lon="16.11848">
        <ele>456.343892</ele>
        <time>2026-07-07T15:35:32.000Z</time>
      </trkpt>
      <trkpt lat="47.60121" lon="16.11842">
        <ele>456.395635</ele>
        <time>2026-07-07T15:35:33.000Z</time>
      </trkpt>
      <trkpt lat="47.60118" lon="16.11836">
        <ele>456.446554</ele>
        <time>2026-07-07T15:35:34.000Z</time>
      </trkpt>
      <trkpt lat="47.60115" lon="16.1183">
        <ele>456.496935</ele>
        <time>2026-07-07T15:35:35.000Z</time>
      </trkpt>
      <trkpt lat="47.60111" lon="16.11824">
        <ele>456.546864</ele>
        <time>2026-07-07T15:35:36.000Z</time>
      </trkpt>
      <trkpt lat="47.60107" lon="16.11819">
        <ele>456.597243</ele>
        <time>2026-07-07T15:35:37.000Z</time>
      </trkpt>
      <trkpt lat="47.60103" lon="16.11815">
        <ele>456.646942</ele>
        <time>2026-07-07T15:35:38.000Z</time>
      </trkpt>
      <trkpt lat="47.60099" lon="16.11812">
        <ele>456.69732</ele>
        <time>2026-07-07T15:35:39.000Z</time>
      </trkpt>
      <trkpt lat="47.60094" lon="16.11808">
        <ele>456.748022</ele>
        <time>2026-07-07T15:35:40.000Z</time>
      </trkpt>
      <trkpt lat="47.60089" lon="16.11804">
        <ele>456.799516</ele>
        <time>2026-07-07T15:35:41.000Z</time>
      </trkpt>
      <trkpt lat="47.60085" lon="16.11801">
        <ele>456.850136</ele>
        <time>2026-07-07T15:35:42.000Z</time>
      </trkpt>
      <trkpt lat="47.6008" lon="16.11797">
        <ele>456.90163</ele>
        <time>2026-07-07T15:35:43.000Z</time>
      </trkpt>
      <trkpt lat="47.60075" lon="16.11794">
        <ele>456.953124</ele>
        <time>2026-07-07T15:35:44.000Z</time>
      </trkpt>
      <trkpt lat="47.60071" lon="16.11791">
        <ele>457.004124</ele>
        <time>2026-07-07T15:35:45.000Z</time>
      </trkpt>
      <trkpt lat="47.60066" lon="16.11788">
        <ele>457.040631</ele>
        <time>2026-07-07T15:35:46.000Z</time>
      </trkpt>
      <trkpt lat="47.60061" lon="16.11784">
        <ele>457.068436</ele>
        <time>2026-07-07T15:35:47.000Z</time>
      </trkpt>
      <trkpt lat="47.60056" lon="16.11781">
        <ele>457.096086</ele>
        <time>2026-07-07T15:35:48.000Z</time>
      </trkpt>
      <trkpt lat="47.60052" lon="16.11778">
        <ele>457.123104</ele>
        <time>2026-07-07T15:35:49.000Z</time>
      </trkpt>
      <trkpt lat="47.60048" lon="16.11774">
        <ele>457.149538</ele>
        <time>2026-07-07T15:35:50.000Z</time>
      </trkpt>
      <trkpt lat="47.60043" lon="16.1177">
        <ele>457.176556</ele>
        <time>2026-07-07T15:35:51.000Z</time>
      </trkpt>
      <trkpt lat="47.60038" lon="16.11768">
        <ele>457.203378</ele>
        <time>2026-07-07T15:35:52.000Z</time>
      </trkpt>
      <trkpt lat="47.60033" lon="16.11767">
        <ele>457.229785</ele>
        <time>2026-07-07T15:35:53.000Z</time>
      </trkpt>
      <trkpt lat="47.60028" lon="16.11767">
        <ele>457.25694</ele>
        <time>2026-07-07T15:35:54.000Z</time>
      </trkpt>
      <trkpt lat="47.60023" lon="16.11769">
        <ele>457.284476</ele>
        <time>2026-07-07T15:35:55.000Z</time>
      </trkpt>
      <trkpt lat="47.60019" lon="16.11773">
        <ele>457.311663</ele>
        <time>2026-07-07T15:35:56.000Z</time>
      </trkpt>
      <trkpt lat="47.60015" lon="16.11778">
        <ele>457.339479</ele>
        <time>2026-07-07T15:35:57.000Z</time>
      </trkpt>
      <trkpt lat="47.60011" lon="16.11784">
        <ele>457.367579</ele>
        <time>2026-07-07T15:35:58.000Z</time>
      </trkpt>
      <trkpt lat="47.60008" lon="16.1179">
        <ele>457.395525</ele>
        <time>2026-07-07T15:35:59.000Z</time>
      </trkpt>
      <trkpt lat="47.60005" lon="16.11797">
        <ele>457.423178</ele>
        <time>2026-07-07T15:36:00.000Z</time>
      </trkpt>
      <trkpt lat="47.60002" lon="16.11803">
        <ele>457.450539</ele>
        <time>2026-07-07T15:36:01.000Z</time>
      </trkpt>
      <trkpt lat="47.59999" lon="16.11809">
        <ele>457.477925</ele>
        <time>2026-07-07T15:36:02.000Z</time>
      </trkpt>
      <trkpt lat="47.59996" lon="16.11814">
        <ele>457.503289</ele>
        <time>2026-07-07T15:36:03.000Z</time>
      </trkpt>
      <trkpt lat="47.59993" lon="16.11819">
        <ele>457.528882</ele>
        <time>2026-07-07T15:36:04.000Z</time>
      </trkpt>
      <trkpt lat="47.59988" lon="16.11823">
        <ele>457.555099</ele>
        <time>2026-07-07T15:36:05.000Z</time>
      </trkpt>
      <trkpt lat="47.59984" lon="16.11825">
        <ele>457.580588</ele>
        <time>2026-07-07T15:36:06.000Z</time>
      </trkpt>
      <trkpt lat="47.59979" lon="16.11824">
        <ele>457.607183</ele>
        <time>2026-07-07T15:36:07.000Z</time>
      </trkpt>
      <trkpt lat="47.59974" lon="16.11823">
        <ele>457.634025</ele>
        <time>2026-07-07T15:36:08.000Z</time>
      </trkpt>
      <trkpt lat="47.59969" lon="16.11819">
        <ele>457.660561</ele>
        <time>2026-07-07T15:36:09.000Z</time>
      </trkpt>
      <trkpt lat="47.59965" lon="16.11815">
        <ele>457.68755</ele>
        <time>2026-07-07T15:36:10.000Z</time>
      </trkpt>
      <trkpt lat="47.59961" lon="16.11811">
        <ele>457.715127</ele>
        <time>2026-07-07T15:36:11.000Z</time>
      </trkpt>
      <trkpt lat="47.59957" lon="16.11807">
        <ele>457.742061</ele>
        <time>2026-07-07T15:36:12.000Z</time>
      </trkpt>
      <trkpt lat="47.59952" lon="16.11803">
        <ele>457.769243</ele>
        <time>2026-07-07T15:36:13.000Z</time>
      </trkpt>
      <trkpt lat="47.59948" lon="16.11799">
        <ele>457.795303</ele>
        <time>2026-07-07T15:36:14.000Z</time>
      </trkpt>
      <trkpt lat="47.59944" lon="16.11794">
        <ele>457.822238</ele>
        <time>2026-07-07T15:36:15.000Z</time>
      </trkpt>
      <trkpt lat="47.5994" lon="16.1179">
        <ele>457.848093</ele>
        <time>2026-07-07T15:36:16.000Z</time>
      </trkpt>
      <trkpt lat="47.59936" lon="16.11786">
        <ele>457.874634</ele>
        <time>2026-07-07T15:36:17.000Z</time>
      </trkpt>
      <trkpt lat="47.59932" lon="16.11782">
        <ele>457.900694</ele>
        <time>2026-07-07T15:36:18.000Z</time>
      </trkpt>
      <trkpt lat="47.59928" lon="16.11778">
        <ele>457.925952</ele>
        <time>2026-07-07T15:36:19.000Z</time>
      </trkpt>
      <trkpt lat="47.59924" lon="16.11775">
        <ele>457.951472</ele>
        <time>2026-07-07T15:36:20.000Z</time>
      </trkpt>
      <trkpt lat="47.59919" lon="16.11771">
        <ele>457.978367</ele>
        <time>2026-07-07T15:36:21.000Z</time>
      </trkpt>
      <trkpt lat="47.59915" lon="16.11767">
        <ele>458.01994</ele>
        <time>2026-07-07T15:36:22.000Z</time>
      </trkpt>
      <trkpt lat="47.59911" lon="16.11763">
        <ele>458.063811</ele>
        <time>2026-07-07T15:36:23.000Z</time>
      </trkpt>
      <trkpt lat="47.59907" lon="16.11759">
        <ele>458.109064</ele>
        <time>2026-07-07T15:36:24.000Z</time>
      </trkpt>
      <trkpt lat="47.59903" lon="16.11755">
        <ele>458.152934</ele>
        <time>2026-07-07T15:36:25.000Z</time>
      </trkpt>
      <trkpt lat="47.59898" lon="16.11751">
        <ele>458.197128</ele>
        <time>2026-07-07T15:36:26.000Z</time>
      </trkpt>
      <trkpt lat="47.59894" lon="16.11747">
        <ele>458.239939</ele>
        <time>2026-07-07T15:36:27.000Z</time>
      </trkpt>
      <trkpt lat="47.5989" lon="16.11743">
        <ele>458.285611</ele>
        <time>2026-07-07T15:36:28.000Z</time>
      </trkpt>
      <trkpt lat="47.59886" lon="16.11739">
        <ele>458.329407</ele>
        <time>2026-07-07T15:36:29.000Z</time>
      </trkpt>
      <trkpt lat="47.59882" lon="16.11734">
        <ele>458.373534</ele>
        <time>2026-07-07T15:36:30.000Z</time>
      </trkpt>
      <trkpt lat="47.59878" lon="16.1173">
        <ele>458.41839</ele>
        <time>2026-07-07T15:36:31.000Z</time>
      </trkpt>
      <trkpt lat="47.59873" lon="16.11726">
        <ele>458.463644</ele>
        <time>2026-07-07T15:36:32.000Z</time>
      </trkpt>
      <trkpt lat="47.59869" lon="16.11722">
        <ele>458.5081</ele>
        <time>2026-07-07T15:36:33.000Z</time>
      </trkpt>
      <trkpt lat="47.59864" lon="16.11719">
        <ele>458.552508</ele>
        <time>2026-07-07T15:36:34.000Z</time>
      </trkpt>
      <trkpt lat="47.5986" lon="16.11715">
        <ele>458.598469</ele>
        <time>2026-07-07T15:36:35.000Z</time>
      </trkpt>
      <trkpt lat="47.59855" lon="16.11712">
        <ele>458.643129</ele>
        <time>2026-07-07T15:36:36.000Z</time>
      </trkpt>
      <trkpt lat="47.59851" lon="16.11708">
        <ele>458.687742</ele>
        <time>2026-07-07T15:36:37.000Z</time>
      </trkpt>
      <trkpt lat="47.59847" lon="16.11704">
        <ele>458.732598</ele>
        <time>2026-07-07T15:36:38.000Z</time>
      </trkpt>
      <trkpt lat="47.59842" lon="16.11699">
        <ele>458.77712</ele>
        <time>2026-07-07T15:36:39.000Z</time>
      </trkpt>
      <trkpt lat="47.59838" lon="16.11695">
        <ele>458.820254</ele>
        <time>2026-07-07T15:36:40.000Z</time>
      </trkpt>
      <trkpt lat="47.59834" lon="16.11691">
        <ele>458.864125</ele>
        <time>2026-07-07T15:36:41.000Z</time>
      </trkpt>
      <trkpt lat="47.5983" lon="16.11687">
        <ele>458.908981</ele>
        <time>2026-07-07T15:36:42.000Z</time>
      </trkpt>
      <trkpt lat="47.59826" lon="16.11683">
        <ele>458.954235</ele>
        <time>2026-07-07T15:36:43.000Z</time>
      </trkpt>
      <trkpt lat="47.59821" lon="16.11679">
        <ele>458.997476</ele>
        <time>2026-07-07T15:36:44.000Z</time>
      </trkpt>
      <trkpt lat="47.59817" lon="16.11675">
        <ele>459.039659</ele>
        <time>2026-07-07T15:36:45.000Z</time>
      </trkpt>
      <trkpt lat="47.59813" lon="16.11672">
        <ele>459.080673</ele>
        <time>2026-07-07T15:36:46.000Z</time>
      </trkpt>
      <trkpt lat="47.5981" lon="16.11667">
        <ele>459.123413</ele>
        <time>2026-07-07T15:36:47.000Z</time>
      </trkpt>
      <trkpt lat="47.59806" lon="16.11662">
        <ele>459.166232</ele>
        <time>2026-07-07T15:36:48.000Z</time>
      </trkpt>
      <trkpt lat="47.59802" lon="16.11658">
        <ele>459.209344</ele>
        <time>2026-07-07T15:36:49.000Z</time>
      </trkpt>
      <trkpt lat="47.59798" lon="16.11653">
        <ele>459.253603</ele>
        <time>2026-07-07T15:36:50.000Z</time>
      </trkpt>
      <trkpt lat="47.59794" lon="16.11648">
        <ele>459.29773</ele>
        <time>2026-07-07T15:36:51.000Z</time>
      </trkpt>
      <trkpt lat="47.5979" lon="16.11644">
        <ele>459.341924</ele>
        <time>2026-07-07T15:36:52.000Z</time>
      </trkpt>
      <trkpt lat="47.59786" lon="16.11641">
        <ele>459.383358</ele>
        <time>2026-07-07T15:36:53.000Z</time>
      </trkpt>
      <trkpt lat="47.59782" lon="16.11637">
        <ele>459.425133</ele>
        <time>2026-07-07T15:36:54.000Z</time>
      </trkpt>
      <trkpt lat="47.59778" lon="16.11634">
        <ele>459.462969</ele>
        <time>2026-07-07T15:36:55.000Z</time>
      </trkpt>
      <trkpt lat="47.59774" lon="16.11631">
        <ele>459.500806</ele>
        <time>2026-07-07T15:36:56.000Z</time>
      </trkpt>
      <trkpt lat="47.59771" lon="16.11628">
        <ele>459.536469</ele>
        <time>2026-07-07T15:36:57.000Z</time>
      </trkpt>
      <trkpt lat="47.59769" lon="16.11623">
        <ele>459.572438</ele>
        <time>2026-07-07T15:36:58.000Z</time>
      </trkpt>
      <trkpt lat="47.59768" lon="16.11617">
        <ele>459.610479</ele>
        <time>2026-07-07T15:36:59.000Z</time>
      </trkpt>
      <trkpt lat="47.5977" lon="16.11612">
        <ele>459.647833</ele>
        <time>2026-07-07T15:37:00.000Z</time>
      </trkpt>
      <trkpt lat="47.59772" lon="16.11607">
        <ele>459.68621</ele>
        <time>2026-07-07T15:37:01.000Z</time>
      </trkpt>
      <trkpt lat="47.59774" lon="16.11604">
        <ele>459.720616</ele>
        <time>2026-07-07T15:37:02.000Z</time>
      </trkpt>
      <trkpt lat="47.59776" lon="16.11601">
        <ele>459.749538</ele>
        <time>2026-07-07T15:37:03.000Z</time>
      </trkpt>
      <trkpt lat="47.59778" lon="16.11599">
        <ele>459.772731</ele>
        <time>2026-07-07T15:37:04.000Z</time>
      </trkpt>
      <trkpt lat="47.59779" lon="16.11597">
        <ele>459.790926</ele>
        <time>2026-07-07T15:37:05.000Z</time>
      </trkpt>
      <trkpt lat="47.5978" lon="16.11595">
        <ele>459.806939</ele>
        <time>2026-07-07T15:37:06.000Z</time>
      </trkpt>
      <trkpt lat="47.59781" lon="16.11593">
        <ele>459.821275</ele>
        <time>2026-07-07T15:37:07.000Z</time>
      </trkpt>
      <trkpt lat="47.59782" lon="16.11592">
        <ele>459.833029</ele>
        <time>2026-07-07T15:37:08.000Z</time>
      </trkpt>
      <trkpt lat="47.59783" lon="16.11591">
        <ele>459.847365</ele>
        <time>2026-07-07T15:37:09.000Z</time>
      </trkpt>
      <trkpt lat="47.59784" lon="16.11589">
        <ele>459.864287</ele>
        <time>2026-07-07T15:37:10.000Z</time>
      </trkpt>
      <trkpt lat="47.59785" lon="16.11586">
        <ele>459.88401</ele>
        <time>2026-07-07T15:37:11.000Z</time>
      </trkpt>
      <trkpt lat="47.59786" lon="16.11584">
        <ele>459.905092</ele>
        <time>2026-07-07T15:37:12.000Z</time>
      </trkpt>
      <trkpt lat="47.59786" lon="16.1158">
        <ele>459.928901</ele>
        <time>2026-07-07T15:37:13.000Z</time>
      </trkpt>
      <trkpt lat="47.59786" lon="16.11576">
        <ele>459.957606</ele>
        <time>2026-07-07T15:37:14.000Z</time>
      </trkpt>
      <trkpt lat="47.59786" lon="16.11571">
        <ele>459.990616</ele>
        <time>2026-07-07T15:37:15.000Z</time>
      </trkpt>
      <trkpt lat="47.59785" lon="16.11566">
        <ele>460.029331</ele>
        <time>2026-07-07T15:37:16.000Z</time>
      </trkpt>
      <trkpt lat="47.59783" lon="16.1156">
        <ele>460.070917</ele>
        <time>2026-07-07T15:37:17.000Z</time>
      </trkpt>
      <trkpt lat="47.5978" lon="16.11554">
        <ele>460.117154</ele>
        <time>2026-07-07T15:37:18.000Z</time>
      </trkpt>
      <trkpt lat="47.59777" lon="16.1155">
        <ele>460.165947</ele>
        <time>2026-07-07T15:37:19.000Z</time>
      </trkpt>
      <trkpt lat="47.59773" lon="16.11545">
        <ele>460.215752</ele>
        <time>2026-07-07T15:37:20.000Z</time>
      </trkpt>
      <trkpt lat="47.59769" lon="16.11541">
        <ele>460.267162</ele>
        <time>2026-07-07T15:37:21.000Z</time>
      </trkpt>
      <trkpt lat="47.59764" lon="16.11536">
        <ele>460.319902</ele>
        <time>2026-07-07T15:37:22.000Z</time>
      </trkpt>
      <trkpt lat="47.5976" lon="16.11532">
        <ele>460.373857</ele>
        <time>2026-07-07T15:37:23.000Z</time>
      </trkpt>
      <trkpt lat="47.59756" lon="16.11528">
        <ele>460.42613</ele>
        <time>2026-07-07T15:37:24.000Z</time>
      </trkpt>
      <trkpt lat="47.59751" lon="16.11524">
        <ele>460.47972</ele>
        <time>2026-07-07T15:37:25.000Z</time>
      </trkpt>
      <trkpt lat="47.59747" lon="16.11519">
        <ele>460.53116</ele>
        <time>2026-07-07T15:37:26.000Z</time>
      </trkpt>
      <trkpt lat="47.59739" lon="16.11511">
        <ele>460.632439</ele>
        <time>2026-07-07T15:37:27.000Z</time>
      </trkpt>
      <trkpt lat="47.59734" lon="16.11507">
        <ele>460.683119</ele>
        <time>2026-07-07T15:37:28.000Z</time>
      </trkpt>
      <trkpt lat="47.5973" lon="16.11503">
        <ele>460.733343</ele>
        <time>2026-07-07T15:37:29.000Z</time>
      </trkpt>
      <trkpt lat="47.59726" lon="16.11498">
        <ele>460.7844</ele>
        <time>2026-07-07T15:37:31.000Z</time>
      </trkpt>
      <trkpt lat="47.59717" lon="16.1149">
        <ele>460.888665</ele>
        <time>2026-07-07T15:37:32.000Z</time>
      </trkpt>
      <trkpt lat="47.59713" lon="16.11486">
        <ele>460.942255</ele>
        <time>2026-07-07T15:37:33.000Z</time>
      </trkpt>
      <trkpt lat="47.59708" lon="16.11482">
        <ele>460.995486</ele>
        <time>2026-07-07T15:37:34.000Z</time>
      </trkpt>
      <trkpt lat="47.59704" lon="16.11477">
        <ele>461.049813</ele>
        <time>2026-07-07T15:37:35.000Z</time>
      </trkpt>
      <trkpt lat="47.597" lon="16.11473">
        <ele>461.102086</ele>
        <time>2026-07-07T15:37:36.000Z</time>
      </trkpt>
      <trkpt lat="47.59695" lon="16.11469">
        <ele>461.153246</ele>
        <time>2026-07-07T15:37:37.000Z</time>
      </trkpt>
      <trkpt lat="47.59691" lon="16.11465">
        <ele>461.206125</ele>
        <time>2026-07-07T15:37:38.000Z</time>
      </trkpt>
      <trkpt lat="47.59686" lon="16.11461">
        <ele>461.257444</ele>
        <time>2026-07-07T15:37:39.000Z</time>
      </trkpt>
      <trkpt lat="47.59682" lon="16.11457">
        <ele>461.308605</ele>
        <time>2026-07-07T15:37:40.000Z</time>
      </trkpt>
      <trkpt lat="47.59678" lon="16.11453">
        <ele>461.361484</ele>
        <time>2026-07-07T15:37:41.000Z</time>
      </trkpt>
      <trkpt lat="47.59673" lon="16.11449">
        <ele>461.422122</ele>
        <time>2026-07-07T15:37:42.000Z</time>
      </trkpt>
      <trkpt lat="47.59669" lon="16.11445">
        <ele>461.48218</ele>
        <time>2026-07-07T15:37:43.000Z</time>
      </trkpt>
      <trkpt lat="47.59664" lon="16.1144">
        <ele>461.544172</ele>
        <time>2026-07-07T15:37:44.000Z</time>
      </trkpt>
      <trkpt lat="47.5966" lon="16.11436">
        <ele>461.605626</ele>
        <time>2026-07-07T15:37:45.000Z</time>
      </trkpt>
      <trkpt lat="47.59656" lon="16.11432">
        <ele>461.665685</ele>
        <time>2026-07-07T15:37:46.000Z</time>
      </trkpt>
      <trkpt lat="47.59651" lon="16.11427">
        <ele>461.727543</ele>
        <time>2026-07-07T15:37:47.000Z</time>
      </trkpt>
      <trkpt lat="47.59647" lon="16.11422">
        <ele>461.789885</ele>
        <time>2026-07-07T15:37:48.000Z</time>
      </trkpt>
      <trkpt lat="47.59643" lon="16.11418">
        <ele>461.848953</ele>
        <time>2026-07-07T15:37:49.000Z</time>
      </trkpt>
      <trkpt lat="47.59639" lon="16.11413">
        <ele>461.908955</ele>
        <time>2026-07-07T15:37:50.000Z</time>
      </trkpt>
      <trkpt lat="47.59634" lon="16.11409">
        <ele>461.968504</ele>
        <time>2026-07-07T15:37:51.000Z</time>
      </trkpt>
      <trkpt lat="47.5963" lon="16.11404">
        <ele>462.027572</ele>
        <time>2026-07-07T15:37:52.000Z</time>
      </trkpt>
      <trkpt lat="47.59626" lon="16.114">
        <ele>462.087575</ele>
        <time>2026-07-07T15:37:53.000Z</time>
      </trkpt>
      <trkpt lat="47.59622" lon="16.11396">
        <ele>462.144786</ele>
        <time>2026-07-07T15:37:54.000Z</time>
      </trkpt>
      <trkpt lat="47.59618" lon="16.11391">
        <ele>462.203447</ele>
        <time>2026-07-07T15:37:55.000Z</time>
      </trkpt>
      <trkpt lat="47.59614" lon="16.11387">
        <ele>462.260658</ele>
        <time>2026-07-07T15:37:56.000Z</time>
      </trkpt>
      <trkpt lat="47.5961" lon="16.11383">
        <ele>462.317869</ele>
        <time>2026-07-07T15:37:57.000Z</time>
      </trkpt>
      <trkpt lat="47.59606" lon="16.11378">
        <ele>462.376937</ele>
        <time>2026-07-07T15:37:58.000Z</time>
      </trkpt>
      <trkpt lat="47.59602" lon="16.11374">
        <ele>462.436486</ele>
        <time>2026-07-07T15:37:59.000Z</time>
      </trkpt>
      <trkpt lat="47.59597" lon="16.11369">
        <ele>462.496489</ele>
        <time>2026-07-07T15:38:00.000Z</time>
      </trkpt>
      <trkpt lat="47.59593" lon="16.11365">
        <ele>462.555557</ele>
        <time>2026-07-07T15:38:01.000Z</time>
      </trkpt>
      <trkpt lat="47.59589" lon="16.1136">
        <ele>462.617452</ele>
        <time>2026-07-07T15:38:02.000Z</time>
      </trkpt>
      <trkpt lat="47.59585" lon="16.11356">
        <ele>462.676521</ele>
        <time>2026-07-07T15:38:03.000Z</time>
      </trkpt>
      <trkpt lat="47.5958" lon="16.11352">
        <ele>462.737542</ele>
        <time>2026-07-07T15:38:04.000Z</time>
      </trkpt>
      <trkpt lat="47.59576" lon="16.11347">
        <ele>462.795695</ele>
        <time>2026-07-07T15:38:05.000Z</time>
      </trkpt>
      <trkpt lat="47.59572" lon="16.11343">
        <ele>462.856626</ele>
        <time>2026-07-07T15:38:06.000Z</time>
      </trkpt>
      <trkpt lat="47.59568" lon="16.11338">
        <ele>462.914431</ele>
        <time>2026-07-07T15:38:07.000Z</time>
      </trkpt>
      <trkpt lat="47.59564" lon="16.11333">
        <ele>462.97603</ele>
        <time>2026-07-07T15:38:08.000Z</time>
      </trkpt>
      <trkpt lat="47.5956" lon="16.11328">
        <ele>463.036961</ele>
        <time>2026-07-07T15:38:09.000Z</time>
      </trkpt>
      <trkpt lat="47.59556" lon="16.11324">
        <ele>463.096063</ele>
        <time>2026-07-07T15:38:10.000Z</time>
      </trkpt>
      <trkpt lat="47.59552" lon="16.11319">
        <ele>463.156074</ele>
        <time>2026-07-07T15:38:11.000Z</time>
      </trkpt>
      <trkpt lat="47.59548" lon="16.11314">
        <ele>463.21566</ele>
        <time>2026-07-07T15:38:12.000Z</time>
      </trkpt>
      <trkpt lat="47.59544" lon="16.11309">
        <ele>463.276242</ele>
        <time>2026-07-07T15:38:13.000Z</time>
      </trkpt>
      <trkpt lat="47.5954" lon="16.11304">
        <ele>463.338612</ele>
        <time>2026-07-07T15:38:14.000Z</time>
      </trkpt>
      <trkpt lat="47.59535" lon="16.11299">
        <ele>463.400471</ele>
        <time>2026-07-07T15:38:15.000Z</time>
      </trkpt>
      <trkpt lat="47.59531" lon="16.11295">
        <ele>463.461815</ele>
        <time>2026-07-07T15:38:16.000Z</time>
      </trkpt>
      <trkpt lat="47.59527" lon="16.1129">
        <ele>463.53535</ele>
        <time>2026-07-07T15:38:17.000Z</time>
      </trkpt>
      <trkpt lat="47.59523" lon="16.11285">
        <ele>463.607782</ele>
        <time>2026-07-07T15:38:18.000Z</time>
      </trkpt>
      <trkpt lat="47.59518" lon="16.11281">
        <ele>463.679659</ele>
        <time>2026-07-07T15:38:19.000Z</time>
      </trkpt>
      <trkpt lat="47.59514" lon="16.11276">
        <ele>463.749913</ele>
        <time>2026-07-07T15:38:20.000Z</time>
      </trkpt>
      <trkpt lat="47.5951" lon="16.11271">
        <ele>463.821822</ele>
        <time>2026-07-07T15:38:21.000Z</time>
      </trkpt>
      <trkpt lat="47.59506" lon="16.11267">
        <ele>463.894254</ele>
        <time>2026-07-07T15:38:22.000Z</time>
      </trkpt>
      <trkpt lat="47.59502" lon="16.11262">
        <ele>463.964508</ele>
        <time>2026-07-07T15:38:23.000Z</time>
      </trkpt>
      <trkpt lat="47.59498" lon="16.11257">
        <ele>464.034189</ele>
        <time>2026-07-07T15:38:24.000Z</time>
      </trkpt>
      <trkpt lat="47.59494" lon="16.11252">
        <ele>464.10351</ele>
        <time>2026-07-07T15:38:25.000Z</time>
      </trkpt>
      <trkpt lat="47.5949" lon="16.11248">
        <ele>464.173192</ele>
        <time>2026-07-07T15:38:26.000Z</time>
      </trkpt>
      <trkpt lat="47.59486" lon="16.11243">
        <ele>464.242372</ele>
        <time>2026-07-07T15:38:27.000Z</time>
      </trkpt>
      <trkpt lat="47.59483" lon="16.11238">
        <ele>464.31049</ele>
        <time>2026-07-07T15:38:28.000Z</time>
      </trkpt>
      <trkpt lat="47.59479" lon="16.11234">
        <ele>464.379205</ele>
        <time>2026-07-07T15:38:29.000Z</time>
      </trkpt>
      <trkpt lat="47.59475" lon="16.11229">
        <ele>464.449459</ele>
        <time>2026-07-07T15:38:30.000Z</time>
      </trkpt>
      <trkpt lat="47.59471" lon="16.11224">
        <ele>464.519229</ele>
        <time>2026-07-07T15:38:31.000Z</time>
      </trkpt>
      <trkpt lat="47.59467" lon="16.11219">
        <ele>464.587945</ele>
        <time>2026-07-07T15:38:32.000Z</time>
      </trkpt>
      <trkpt lat="47.59463" lon="16.11214">
        <ele>464.659962</ele>
        <time>2026-07-07T15:38:33.000Z</time>
      </trkpt>
      <trkpt lat="47.59459" lon="16.11209">
        <ele>464.729896</ele>
        <time>2026-07-07T15:38:34.000Z</time>
      </trkpt>
      <trkpt lat="47.59455" lon="16.11204">
        <ele>464.801318</ele>
        <time>2026-07-07T15:38:35.000Z</time>
      </trkpt>
      <trkpt lat="47.59452" lon="16.11199">
        <ele>464.870229</ele>
        <time>2026-07-07T15:38:36.000Z</time>
      </trkpt>
      <trkpt lat="47.59448" lon="16.11195">
        <ele>464.937756</ele>
        <time>2026-07-07T15:38:37.000Z</time>
      </trkpt>
      <trkpt lat="47.59444" lon="16.1119">
        <ele>465.00092</ele>
        <time>2026-07-07T15:38:38.000Z</time>
      </trkpt>
      <trkpt lat="47.59441" lon="16.11186">
        <ele>465.058534</ele>
        <time>2026-07-07T15:38:39.000Z</time>
      </trkpt>
      <trkpt lat="47.59438" lon="16.11183">
        <ele>465.112847</ele>
        <time>2026-07-07T15:38:40.000Z</time>
      </trkpt>
      <trkpt lat="47.59435" lon="16.11179">
        <ele>465.163259</ele>
        <time>2026-07-07T15:38:41.000Z</time>
      </trkpt>
      <trkpt lat="47.59433" lon="16.11175">
        <ele>465.213867</ele>
        <time>2026-07-07T15:38:42.000Z</time>
      </trkpt>
      <trkpt lat="47.5943" lon="16.11172">
        <ele>465.265111</ele>
        <time>2026-07-07T15:38:43.000Z</time>
      </trkpt>
      <trkpt lat="47.59427" lon="16.11168">
        <ele>465.314717</ele>
        <time>2026-07-07T15:38:44.000Z</time>
      </trkpt>
      <trkpt lat="47.59424" lon="16.11164">
        <ele>465.370254</ele>
        <time>2026-07-07T15:38:45.000Z</time>
      </trkpt>
      <trkpt lat="47.59421" lon="16.1116">
        <ele>465.429701</ele>
        <time>2026-07-07T15:38:46.000Z</time>
      </trkpt>
      <trkpt lat="47.59418" lon="16.11155">
        <ele>465.49347</ele>
        <time>2026-07-07T15:38:47.000Z</time>
      </trkpt>
      <trkpt lat="47.59414" lon="16.1115">
        <ele>465.562186</ele>
        <time>2026-07-07T15:38:48.000Z</time>
      </trkpt>
      <trkpt lat="47.5941" lon="16.11145">
        <ele>465.633156</ele>
        <time>2026-07-07T15:38:49.000Z</time>
      </trkpt>
      <trkpt lat="47.59406" lon="16.1114">
        <ele>465.706384</ele>
        <time>2026-07-07T15:38:50.000Z</time>
      </trkpt>
      <trkpt lat="47.59402" lon="16.11135">
        <ele>465.780652</ele>
        <time>2026-07-07T15:38:51.000Z</time>
      </trkpt>
      <trkpt lat="47.59398" lon="16.1113">
        <ele>465.85538</ele>
        <time>2026-07-07T15:38:52.000Z</time>
      </trkpt>
      <trkpt lat="47.59393" lon="16.11124">
        <ele>465.931903</ele>
        <time>2026-07-07T15:38:53.000Z</time>
      </trkpt>
      <trkpt lat="47.59389" lon="16.11119">
        <ele>465.997763</ele>
        <time>2026-07-07T15:38:54.000Z</time>
      </trkpt>
      <trkpt lat="47.59385" lon="16.11113">
        <ele>466.064082</ele>
        <time>2026-07-07T15:38:55.000Z</time>
      </trkpt>
      <trkpt lat="47.59381" lon="16.11108">
        <ele>466.13006</ele>
        <time>2026-07-07T15:38:56.000Z</time>
      </trkpt>
      <trkpt lat="47.59376" lon="16.11102">
        <ele>466.198643</ele>
        <time>2026-07-07T15:38:57.000Z</time>
      </trkpt>
      <trkpt lat="47.59372" lon="16.11096">
        <ele>466.264449</ele>
        <time>2026-07-07T15:38:58.000Z</time>
      </trkpt>
      <trkpt lat="47.59368" lon="16.11091">
        <ele>466.329382</ele>
        <time>2026-07-07T15:38:59.000Z</time>
      </trkpt>
      <trkpt lat="47.59364" lon="16.11086">
        <ele>466.391544</ele>
        <time>2026-07-07T15:39:00.000Z</time>
      </trkpt>
      <trkpt lat="47.5936" lon="16.1108">
        <ele>466.453706</ele>
        <time>2026-07-07T15:39:01.000Z</time>
      </trkpt>
      <trkpt lat="47.59356" lon="16.11075">
        <ele>466.513627</ele>
        <time>2026-07-07T15:39:02.000Z</time>
      </trkpt>
      <trkpt lat="47.59352" lon="16.1107">
        <ele>466.572702</ele>
        <time>2026-07-07T15:39:03.000Z</time>
      </trkpt>
      <trkpt lat="47.59348" lon="16.11065">
        <ele>466.632317</ele>
        <time>2026-07-07T15:39:04.000Z</time>
      </trkpt>
      <trkpt lat="47.59345" lon="16.1106">
        <ele>466.689476</ele>
        <time>2026-07-07T15:39:05.000Z</time>
      </trkpt>
      <trkpt lat="47.59341" lon="16.11055">
        <ele>466.747487</ele>
        <time>2026-07-07T15:39:06.000Z</time>
      </trkpt>
      <trkpt lat="47.59337" lon="16.1105">
        <ele>466.803945</ele>
        <time>2026-07-07T15:39:07.000Z</time>
      </trkpt>
      <trkpt lat="47.59334" lon="16.11045">
        <ele>466.860048</ele>
        <time>2026-07-07T15:39:08.000Z</time>
      </trkpt>
      <trkpt lat="47.5933" lon="16.1104">
        <ele>466.915538</ele>
        <time>2026-07-07T15:39:09.000Z</time>
      </trkpt>
      <trkpt lat="47.59327" lon="16.11035">
        <ele>466.971858</ele>
        <time>2026-07-07T15:39:10.000Z</time>
      </trkpt>
      <trkpt lat="47.59323" lon="16.1103">
        <ele>467.028177</ele>
        <time>2026-07-07T15:39:11.000Z</time>
      </trkpt>
      <trkpt lat="47.5932" lon="16.11025">
        <ele>467.084497</ele>
        <time>2026-07-07T15:39:12.000Z</time>
      </trkpt>
      <trkpt lat="47.59316" lon="16.1102">
        <ele>467.141911</ele>
        <time>2026-07-07T15:39:13.000Z</time>
      </trkpt>
      <trkpt lat="47.59313" lon="16.11015">
        <ele>467.198776</ele>
        <time>2026-07-07T15:39:14.000Z</time>
      </trkpt>
      <trkpt lat="47.59309" lon="16.1101">
        <ele>467.258697</ele>
        <time>2026-07-07T15:39:15.000Z</time>
      </trkpt>
      <trkpt lat="47.59305" lon="16.11004">
        <ele>467.318312</ele>
        <time>2026-07-07T15:39:16.000Z</time>
      </trkpt>
      <trkpt lat="47.59302" lon="16.10999">
        <ele>467.378234</ele>
        <time>2026-07-07T15:39:17.000Z</time>
      </trkpt>
      <trkpt lat="47.59298" lon="16.10994">
        <ele>467.438688</ele>
        <time>2026-07-07T15:39:18.000Z</time>
      </trkpt>
      <trkpt lat="47.59294" lon="16.10988">
        <ele>467.498849</ele>
        <time>2026-07-07T15:39:19.000Z</time>
      </trkpt>
      <trkpt lat="47.5929" lon="16.10983">
        <ele>467.560116</ele>
        <time>2026-07-07T15:39:20.000Z</time>
      </trkpt>
      <trkpt lat="47.59287" lon="16.10977">
        <ele>467.619457</ele>
        <time>2026-07-07T15:39:21.000Z</time>
      </trkpt>
      <trkpt lat="47.59283" lon="16.10972">
        <ele>467.68076</ele>
        <time>2026-07-07T15:39:22.000Z</time>
      </trkpt>
      <trkpt lat="47.59279" lon="16.10967">
        <ele>467.73708</ele>
        <time>2026-07-07T15:39:23.000Z</time>
      </trkpt>
      <trkpt lat="47.59276" lon="16.10962">
        <ele>467.792327</ele>
        <time>2026-07-07T15:39:24.000Z</time>
      </trkpt>
      <trkpt lat="47.59272" lon="16.10958">
        <ele>467.8455</ele>
        <time>2026-07-07T15:39:25.000Z</time>
      </trkpt>
      <trkpt lat="47.59269" lon="16.10954">
        <ele>467.894892</ele>
        <time>2026-07-07T15:39:26.000Z</time>
      </trkpt>
      <trkpt lat="47.59266" lon="16.1095">
        <ele>467.940972</ele>
        <time>2026-07-07T15:39:27.000Z</time>
      </trkpt>
      <trkpt lat="47.59263" lon="16.10948">
        <ele>467.98205</ele>
        <time>2026-07-07T15:39:28.000Z</time>
      </trkpt>
      <trkpt lat="47.5926" lon="16.10945">
        <ele>468.017618</ele>
        <time>2026-07-07T15:39:29.000Z</time>
      </trkpt>
      <trkpt lat="47.59258" lon="16.10941">
        <ele>468.035052</ele>
        <time>2026-07-07T15:39:30.000Z</time>
      </trkpt>
      <trkpt lat="47.59257" lon="16.10937">
        <ele>468.051305</ele>
        <time>2026-07-07T15:39:31.000Z</time>
      </trkpt>
      <trkpt lat="47.59258" lon="16.10933">
        <ele>468.067559</ele>
        <time>2026-07-07T15:39:32.000Z</time>
      </trkpt>
      <trkpt lat="47.5926" lon="16.10929">
        <ele>468.084837</ele>
        <time>2026-07-07T15:39:33.000Z</time>
      </trkpt>
      <trkpt lat="47.59262" lon="16.10926">
        <ele>468.101877</ele>
        <time>2026-07-07T15:39:34.000Z</time>
      </trkpt>
      <trkpt lat="47.59265" lon="16.10922">
        <ele>468.120065</ele>
        <time>2026-07-07T15:39:35.000Z</time>
      </trkpt>
      <trkpt lat="47.59267" lon="16.10918">
        <ele>468.140007</ele>
        <time>2026-07-07T15:39:36.000Z</time>
      </trkpt>
      <trkpt lat="47.59268" lon="16.10912">
        <ele>468.162663</ele>
        <time>2026-07-07T15:39:37.000Z</time>
      </trkpt>
      <trkpt lat="47.59268" lon="16.10905">
        <ele>468.186372</ele>
        <time>2026-07-07T15:39:38.000Z</time>
      </trkpt>
      <trkpt lat="47.59268" lon="16.10898">
        <ele>468.211659</ele>
        <time>2026-07-07T15:39:39.000Z</time>
      </trkpt>
      <trkpt lat="47.59266" lon="16.10892">
        <ele>468.237413</ele>
        <time>2026-07-07T15:39:40.000Z</time>
      </trkpt>
      <trkpt lat="47.59265" lon="16.10885">
        <ele>468.263136</ele>
        <time>2026-07-07T15:39:41.000Z</time>
      </trkpt>
      <trkpt lat="47.59263" lon="16.10878">
        <ele>468.289561</ele>
        <time>2026-07-07T15:39:42.000Z</time>
      </trkpt>
      <trkpt lat="47.59261" lon="16.10871">
        <ele>468.316671</ele>
        <time>2026-07-07T15:39:43.000Z</time>
      </trkpt>
      <trkpt lat="47.5926" lon="16.10864">
        <ele>468.343433</ele>
        <time>2026-07-07T15:39:44.000Z</time>
      </trkpt>
      <trkpt lat="47.59258" lon="16.10857">
        <ele>468.370892</ele>
        <time>2026-07-07T15:39:45.000Z</time>
      </trkpt>
      <trkpt lat="47.59257" lon="16.1085">
        <ele>468.398403</ele>
        <time>2026-07-07T15:39:46.000Z</time>
      </trkpt>
      <trkpt lat="47.59256" lon="16.10842">
        <ele>468.425781</ele>
        <time>2026-07-07T15:39:47.000Z</time>
      </trkpt>
      <trkpt lat="47.59255" lon="16.10835">
        <ele>468.452566</ele>
        <time>2026-07-07T15:39:48.000Z</time>
      </trkpt>
      <trkpt lat="47.59254" lon="16.10828">
        <ele>468.478436</ele>
        <time>2026-07-07T15:39:49.000Z</time>
      </trkpt>
      <trkpt lat="47.59253" lon="16.10821">
        <ele>468.503141</ele>
        <time>2026-07-07T15:39:50.000Z</time>
      </trkpt>
      <trkpt lat="47.59253" lon="16.10815">
        <ele>468.525603</ele>
        <time>2026-07-07T15:39:51.000Z</time>
      </trkpt>
      <trkpt lat="47.59251" lon="16.1081">
        <ele>468.545681</ele>
        <time>2026-07-07T15:39:52.000Z</time>
      </trkpt>
      <trkpt lat="47.59249" lon="16.10806">
        <ele>468.565113</ele>
        <time>2026-07-07T15:39:53.000Z</time>
      </trkpt>
      <trkpt lat="47.59246" lon="16.10804">
        <ele>468.585006</ele>
        <time>2026-07-07T15:39:54.000Z</time>
      </trkpt>
      <trkpt lat="47.59243" lon="16.10802">
        <ele>468.602112</ele>
        <time>2026-07-07T15:39:55.000Z</time>
      </trkpt>
      <trkpt lat="47.59239" lon="16.10801">
        <ele>468.620178</ele>
        <time>2026-07-07T15:39:56.000Z</time>
      </trkpt>
      <trkpt lat="47.59236" lon="16.10801">
        <ele>468.640222</ele>
        <time>2026-07-07T15:39:57.000Z</time>
      </trkpt>
      <trkpt lat="47.59232" lon="16.10801">
        <ele>468.661837</ele>
        <time>2026-07-07T15:39:58.000Z</time>
      </trkpt>
      <trkpt lat="47.59227" lon="16.10801">
        <ele>468.68453</ele>
        <time>2026-07-07T15:39:59.000Z</time>
      </trkpt>
      <trkpt lat="47.59223" lon="16.10801">
        <ele>468.708911</ele>
        <time>2026-07-07T15:40:00.000Z</time>
      </trkpt>
      <trkpt lat="47.59218" lon="16.10803">
        <ele>468.733914</ele>
        <time>2026-07-07T15:40:01.000Z</time>
      </trkpt>
      <trkpt lat="47.59214" lon="16.10806">
        <ele>468.761651</ele>
        <time>2026-07-07T15:40:02.000Z</time>
      </trkpt>
      <trkpt lat="47.59208" lon="16.10809">
        <ele>468.793314</ele>
        <time>2026-07-07T15:40:03.000Z</time>
      </trkpt>
      <trkpt lat="47.59202" lon="16.1081">
        <ele>468.824955</ele>
        <time>2026-07-07T15:40:04.000Z</time>
      </trkpt>
      <trkpt lat="47.59196" lon="16.10808">
        <ele>468.858104</ele>
        <time>2026-07-07T15:40:05.000Z</time>
      </trkpt>
      <trkpt lat="47.59191" lon="16.10803">
        <ele>468.890688</ele>
        <time>2026-07-07T15:40:06.000Z</time>
      </trkpt>
      <trkpt lat="47.59187" lon="16.10797">
        <ele>468.922986</ele>
        <time>2026-07-07T15:40:07.000Z</time>
      </trkpt>
      <trkpt lat="47.59183" lon="16.10791">
        <ele>468.953602</ele>
        <time>2026-07-07T15:40:08.000Z</time>
      </trkpt>
      <trkpt lat="47.59179" lon="16.10785">
        <ele>468.98383</ele>
        <time>2026-07-07T15:40:09.000Z</time>
      </trkpt>
      <trkpt lat="47.59175" lon="16.10779">
        <ele>468.999634</ele>
        <time>2026-07-07T15:40:10.000Z</time>
      </trkpt>
      <trkpt lat="47.59171" lon="16.10774">
        <ele>469.012757</ele>
        <time>2026-07-07T15:40:11.000Z</time>
      </trkpt>
      <trkpt lat="47.59167" lon="16.10768">
        <ele>469.026051</ele>
        <time>2026-07-07T15:40:12.000Z</time>
      </trkpt>
      <trkpt lat="47.59164" lon="16.10762">
        <ele>469.038718</ele>
        <time>2026-07-07T15:40:13.000Z</time>
      </trkpt>
      <trkpt lat="47.5916" lon="16.10757">
        <ele>469.051784</ele>
        <time>2026-07-07T15:40:14.000Z</time>
      </trkpt>
      <trkpt lat="47.59156" lon="16.10751">
        <ele>469.064676</ele>
        <time>2026-07-07T15:40:15.000Z</time>
      </trkpt>
      <trkpt lat="47.59152" lon="16.10746">
        <ele>469.077798</ele>
        <time>2026-07-07T15:40:16.000Z</time>
      </trkpt>
      <trkpt lat="47.59148" lon="16.1074">
        <ele>469.091092</ele>
        <time>2026-07-07T15:40:17.000Z</time>
      </trkpt>
      <trkpt lat="47.59145" lon="16.10734">
        <ele>469.104332</ele>
        <time>2026-07-07T15:40:18.000Z</time>
      </trkpt>
      <trkpt lat="47.59141" lon="16.10728">
        <ele>469.117571</ele>
        <time>2026-07-07T15:40:19.000Z</time>
      </trkpt>
      <trkpt lat="47.59137" lon="16.10722">
        <ele>469.131215</ele>
        <time>2026-07-07T15:40:20.000Z</time>
      </trkpt>
      <trkpt lat="47.59133" lon="16.10716">
        <ele>469.144241</ele>
        <time>2026-07-07T15:40:21.000Z</time>
      </trkpt>
      <trkpt lat="47.59129" lon="16.1071">
        <ele>469.158003</ele>
        <time>2026-07-07T15:40:22.000Z</time>
      </trkpt>
      <trkpt lat="47.59126" lon="16.10704">
        <ele>469.171361</ele>
        <time>2026-07-07T15:40:23.000Z</time>
      </trkpt>
      <trkpt lat="47.59122" lon="16.10698">
        <ele>469.184837</ele>
        <time>2026-07-07T15:40:24.000Z</time>
      </trkpt>
      <trkpt lat="47.59118" lon="16.10693">
        <ele>469.198247</ele>
        <time>2026-07-07T15:40:25.000Z</time>
      </trkpt>
      <trkpt lat="47.59114" lon="16.10686">
        <ele>469.211963</ele>
        <time>2026-07-07T15:40:26.000Z</time>
      </trkpt>
      <trkpt lat="47.5911" lon="16.1068">
        <ele>469.225275</ele>
        <time>2026-07-07T15:40:27.000Z</time>
      </trkpt>
      <trkpt lat="47.59107" lon="16.10675">
        <ele>469.23818</ele>
        <time>2026-07-07T15:40:28.000Z</time>
      </trkpt>
      <trkpt lat="47.59103" lon="16.10669">
        <ele>469.251994</ele>
        <time>2026-07-07T15:40:29.000Z</time>
      </trkpt>
      <trkpt lat="47.59099" lon="16.10663">
        <ele>469.265637</ele>
        <time>2026-07-07T15:40:30.000Z</time>
      </trkpt>
      <trkpt lat="47.59095" lon="16.10657">
        <ele>469.279105</ele>
        <time>2026-07-07T15:40:31.000Z</time>
      </trkpt>
      <trkpt lat="47.59091" lon="16.10651">
        <ele>469.292112</ele>
        <time>2026-07-07T15:40:32.000Z</time>
      </trkpt>
      <trkpt lat="47.59087" lon="16.10646">
        <ele>469.304666</ele>
        <time>2026-07-07T15:40:33.000Z</time>
      </trkpt>
      <trkpt lat="47.59083" lon="16.10641">
        <ele>469.317909</ele>
        <time>2026-07-07T15:40:34.000Z</time>
      </trkpt>
      <trkpt lat="47.59079" lon="16.10635">
        <ele>469.331843</ele>
        <time>2026-07-07T15:40:35.000Z</time>
      </trkpt>
      <trkpt lat="47.59075" lon="16.10629">
        <ele>469.346755</ele>
        <time>2026-07-07T15:40:36.000Z</time>
      </trkpt>
      <trkpt lat="47.5907" lon="16.10622">
        <ele>469.361316</ele>
        <time>2026-07-07T15:40:37.000Z</time>
      </trkpt>
      <trkpt lat="47.59066" lon="16.10617">
        <ele>469.374899</ele>
        <time>2026-07-07T15:40:38.000Z</time>
      </trkpt>
      <trkpt lat="47.59062" lon="16.10611">
        <ele>469.388481</ele>
        <time>2026-07-07T15:40:39.000Z</time>
      </trkpt>
      <trkpt lat="47.59058" lon="16.10605">
        <ele>469.402007</ele>
        <time>2026-07-07T15:40:40.000Z</time>
      </trkpt>
      <trkpt lat="47.59055" lon="16.10599">
        <ele>469.415247</ele>
        <time>2026-07-07T15:40:41.000Z</time>
      </trkpt>
      <trkpt lat="47.59051" lon="16.10593">
        <ele>469.438614</ele>
        <time>2026-07-07T15:40:42.000Z</time>
      </trkpt>
      <trkpt lat="47.59047" lon="16.10587">
        <ele>469.490108</ele>
        <time>2026-07-07T15:40:43.000Z</time>
      </trkpt>
      <trkpt lat="47.59043" lon="16.10581">
        <ele>469.541171</ele>
        <time>2026-07-07T15:40:44.000Z</time>
      </trkpt>
      <trkpt lat="47.59039" lon="16.10575">
        <ele>469.591805</ele>
        <time>2026-07-07T15:40:45.000Z</time>
      </trkpt>
      <trkpt lat="47.59035" lon="16.10569">
        <ele>469.643705</ele>
        <time>2026-07-07T15:40:46.000Z</time>
      </trkpt>
      <trkpt lat="47.59031" lon="16.10563">
        <ele>469.694339</ele>
        <time>2026-07-07T15:40:47.000Z</time>
      </trkpt>
      <trkpt lat="47.59027" lon="16.10557">
        <ele>469.744548</ele>
        <time>2026-07-07T15:40:48.000Z</time>
      </trkpt>
      <trkpt lat="47.59023" lon="16.10551">
        <ele>469.793079</ele>
        <time>2026-07-07T15:40:49.000Z</time>
      </trkpt>
      <trkpt lat="47.59019" lon="16.10546">
        <ele>469.841625</ele>
        <time>2026-07-07T15:40:50.000Z</time>
      </trkpt>
      <trkpt lat="47.59015" lon="16.10541">
        <ele>469.887418</ele>
        <time>2026-07-07T15:40:51.000Z</time>
      </trkpt>
      <trkpt lat="47.59011" lon="16.10536">
        <ele>469.931394</ele>
        <time>2026-07-07T15:40:52.000Z</time>
      </trkpt>
      <trkpt lat="47.59007" lon="16.10532">
        <ele>469.974672</ele>
        <time>2026-07-07T15:40:53.000Z</time>
      </trkpt>
      <trkpt lat="47.59004" lon="16.10527">
        <ele>470.015897</ele>
        <time>2026-07-07T15:40:54.000Z</time>
      </trkpt>
      <trkpt lat="47.59" lon="16.10523">
        <ele>470.057918</ele>
        <time>2026-07-07T15:40:55.000Z</time>
      </trkpt>
      <trkpt lat="47.58997" lon="16.10518">
        <ele>470.098638</ele>
        <time>2026-07-07T15:40:56.000Z</time>
      </trkpt>
      <trkpt lat="47.58993" lon="16.10513">
        <ele>470.140259</ele>
        <time>2026-07-07T15:40:57.000Z</time>
      </trkpt>
      <trkpt lat="47.5899" lon="16.10509">
        <ele>470.180816</ele>
        <time>2026-07-07T15:40:58.000Z</time>
      </trkpt>
      <trkpt lat="47.58987" lon="16.10504">
        <ele>470.220714</ele>
        <time>2026-07-07T15:40:59.000Z</time>
      </trkpt>
      <trkpt lat="47.58983" lon="16.105">
        <ele>470.261433</ele>
        <time>2026-07-07T15:41:00.000Z</time>
      </trkpt>
      <trkpt lat="47.5898" lon="16.10494">
        <ele>470.304901</ele>
        <time>2026-07-07T15:41:01.000Z</time>
      </trkpt>
      <trkpt lat="47.58976" lon="16.10489">
        <ele>470.34942</ele>
        <time>2026-07-07T15:41:02.000Z</time>
      </trkpt>
      <trkpt lat="47.58973" lon="16.10484">
        <ele>470.394566</ele>
        <time>2026-07-07T15:41:03.000Z</time>
      </trkpt>
      <trkpt lat="47.58969" lon="16.10478">
        <ele>470.44119</ele>
        <time>2026-07-07T15:41:04.000Z</time>
      </trkpt>
      <trkpt lat="47.58965" lon="16.10473">
        <ele>470.487391</ele>
        <time>2026-07-07T15:41:05.000Z</time>
      </trkpt>
      <trkpt lat="47.58962" lon="16.10468">
        <ele>470.533817</ele>
        <time>2026-07-07T15:41:06.000Z</time>
      </trkpt>
      <trkpt lat="47.58958" lon="16.10462">
        <ele>470.580243</ele>
        <time>2026-07-07T15:41:07.000Z</time>
      </trkpt>
      <trkpt lat="47.58954" lon="16.10457">
        <ele>470.626444</ele>
        <time>2026-07-07T15:41:08.000Z</time>
      </trkpt>
      <trkpt lat="47.5895" lon="16.10451">
        <ele>470.6737</ele>
        <time>2026-07-07T15:41:09.000Z</time>
      </trkpt>
      <trkpt lat="47.58946" lon="16.10446">
        <ele>470.721597</ele>
        <time>2026-07-07T15:41:10.000Z</time>
      </trkpt>
      <trkpt lat="47.58943" lon="16.1044">
        <ele>470.767597</ele>
        <time>2026-07-07T15:41:11.000Z</time>
      </trkpt>
      <trkpt lat="47.58939" lon="16.10435">
        <ele>470.81342</ele>
        <time>2026-07-07T15:41:12.000Z</time>
      </trkpt>
      <trkpt lat="47.58936" lon="16.10429">
        <ele>470.860044</ele>
        <time>2026-07-07T15:41:13.000Z</time>
      </trkpt>
      <trkpt lat="47.58932" lon="16.10424">
        <ele>470.907525</ele>
        <time>2026-07-07T15:41:14.000Z</time>
      </trkpt>
      <trkpt lat="47.58928" lon="16.10418">
        <ele>470.954394</ele>
        <time>2026-07-07T15:41:15.000Z</time>
      </trkpt>
      <trkpt lat="47.58924" lon="16.10412">
        <ele>471.002707</ele>
        <time>2026-07-07T15:41:16.000Z</time>
      </trkpt>
      <trkpt lat="47.58921" lon="16.10406">
        <ele>471.053223</ele>
        <time>2026-07-07T15:41:17.000Z</time>
      </trkpt>
      <trkpt lat="47.58917" lon="16.10401">
        <ele>471.105976</ele>
        <time>2026-07-07T15:41:18.000Z</time>
      </trkpt>
      <trkpt lat="47.58912" lon="16.10395">
        <ele>471.160968</ele>
        <time>2026-07-07T15:41:19.000Z</time>
      </trkpt>
      <trkpt lat="47.58909" lon="16.10388">
        <ele>471.214244</ele>
        <time>2026-07-07T15:41:20.000Z</time>
      </trkpt>
      <trkpt lat="47.58905" lon="16.10382">
        <ele>471.267051</ele>
        <time>2026-07-07T15:41:21.000Z</time>
      </trkpt>
      <trkpt lat="47.58901" lon="16.10376">
        <ele>471.320702</ele>
        <time>2026-07-07T15:41:22.000Z</time>
      </trkpt>
      <trkpt lat="47.58897" lon="16.1037">
        <ele>471.374352</ele>
        <time>2026-07-07T15:41:23.000Z</time>
      </trkpt>
      <trkpt lat="47.58893" lon="16.10364">
        <ele>471.426888</ele>
        <time>2026-07-07T15:41:24.000Z</time>
      </trkpt>
      <trkpt lat="47.58889" lon="16.10359">
        <ele>471.475628</ele>
        <time>2026-07-07T15:41:25.000Z</time>
      </trkpt>
      <trkpt lat="47.58885" lon="16.10353">
        <ele>471.526378</ele>
        <time>2026-07-07T15:41:26.000Z</time>
      </trkpt>
      <trkpt lat="47.58882" lon="16.10348">
        <ele>471.574213</ele>
        <time>2026-07-07T15:41:27.000Z</time>
      </trkpt>
      <trkpt lat="47.58878" lon="16.10343">
        <ele>471.622301</ele>
        <time>2026-07-07T15:41:28.000Z</time>
      </trkpt>
      <trkpt lat="47.58875" lon="16.10337">
        <ele>471.669472</ele>
        <time>2026-07-07T15:41:29.000Z</time>
      </trkpt>
      <trkpt lat="47.58871" lon="16.10332">
        <ele>471.71619</ele>
        <time>2026-07-07T15:41:30.000Z</time>
      </trkpt>
      <trkpt lat="47.58868" lon="16.10327">
        <ele>471.762248</ele>
        <time>2026-07-07T15:41:31.000Z</time>
      </trkpt>
      <trkpt lat="47.58865" lon="16.10322">
        <ele>471.805836</ele>
        <time>2026-07-07T15:41:32.000Z</time>
      </trkpt>
      <trkpt lat="47.58861" lon="16.10317">
        <ele>471.848307</ele>
        <time>2026-07-07T15:41:33.000Z</time>
      </trkpt>
      <trkpt lat="47.58858" lon="16.10313">
        <ele>471.888999</ele>
        <time>2026-07-07T15:41:34.000Z</time>
      </trkpt>
      <trkpt lat="47.58855" lon="16.10308">
        <ele>471.931085</ele>
        <time>2026-07-07T15:41:35.000Z</time>
      </trkpt>
      <trkpt lat="47.58852" lon="16.10303">
        <ele>471.973359</ele>
        <time>2026-07-07T15:41:36.000Z</time>
      </trkpt>
      <trkpt lat="47.58849" lon="16.10299">
        <ele>472.01704</ele>
        <time>2026-07-07T15:41:37.000Z</time>
      </trkpt>
      <trkpt lat="47.58845" lon="16.10295">
        <ele>472.061367</ele>
        <time>2026-07-07T15:41:38.000Z</time>
      </trkpt>
      <trkpt lat="47.58841" lon="16.1029">
        <ele>472.10949</ele>
        <time>2026-07-07T15:41:39.000Z</time>
      </trkpt>
      <trkpt lat="47.58837" lon="16.10285">
        <ele>472.158821</ele>
        <time>2026-07-07T15:41:40.000Z</time>
      </trkpt>
      <trkpt lat="47.58833" lon="16.1028">
        <ele>472.21011</ele>
        <time>2026-07-07T15:41:41.000Z</time>
      </trkpt>
      <trkpt lat="47.58829" lon="16.10274">
        <ele>472.262421</ele>
        <time>2026-07-07T15:41:42.000Z</time>
      </trkpt>
      <trkpt lat="47.58825" lon="16.10269">
        <ele>472.312164</ele>
        <time>2026-07-07T15:41:43.000Z</time>
      </trkpt>
      <trkpt lat="47.58821" lon="16.10264">
        <ele>472.360364</ele>
        <time>2026-07-07T15:41:44.000Z</time>
      </trkpt>
      <trkpt lat="47.58817" lon="16.10259">
        <ele>472.40622</ele>
        <time>2026-07-07T15:41:45.000Z</time>
      </trkpt>
      <trkpt lat="47.58813" lon="16.10255">
        <ele>472.451293</ele>
        <time>2026-07-07T15:41:46.000Z</time>
      </trkpt>
      <trkpt lat="47.58809" lon="16.10251">
        <ele>472.497889</ele>
        <time>2026-07-07T15:41:47.000Z</time>
      </trkpt>
      <trkpt lat="47.58806" lon="16.10246">
        <ele>472.542579</ele>
        <time>2026-07-07T15:41:48.000Z</time>
      </trkpt>
      <trkpt lat="47.58802" lon="16.10242">
        <ele>472.589166</ele>
        <time>2026-07-07T15:41:49.000Z</time>
      </trkpt>
      <trkpt lat="47.58798" lon="16.10238">
        <ele>472.635752</ele>
        <time>2026-07-07T15:41:50.000Z</time>
      </trkpt>
      <trkpt lat="47.58793" lon="16.10234">
        <ele>472.682819</ele>
        <time>2026-07-07T15:41:51.000Z</time>
      </trkpt>
      <trkpt lat="47.58789" lon="16.1023">
        <ele>472.731355</ele>
        <time>2026-07-07T15:41:52.000Z</time>
      </trkpt>
      <trkpt lat="47.58785" lon="16.10226">
        <ele>472.791086</ele>
        <time>2026-07-07T15:41:53.000Z</time>
      </trkpt>
      <trkpt lat="47.58781" lon="16.10222">
        <ele>472.850689</ele>
        <time>2026-07-07T15:41:54.000Z</time>
      </trkpt>
      <trkpt lat="47.58777" lon="16.10218">
        <ele>472.911909</ele>
        <time>2026-07-07T15:41:55.000Z</time>
      </trkpt>
      <trkpt lat="47.58773" lon="16.10214">
        <ele>472.972691</ele>
        <time>2026-07-07T15:41:56.000Z</time>
      </trkpt>
      <trkpt lat="47.58769" lon="16.1021">
        <ele>473.032421</ele>
        <time>2026-07-07T15:41:57.000Z</time>
      </trkpt>
      <trkpt lat="47.58765" lon="16.10207">
        <ele>473.092773</ele>
        <time>2026-07-07T15:41:58.000Z</time>
      </trkpt>
      <trkpt lat="47.5876" lon="16.10203">
        <ele>473.153372</ele>
        <time>2026-07-07T15:41:59.000Z</time>
      </trkpt>
      <trkpt lat="47.58756" lon="16.102">
        <ele>473.21289</ele>
        <time>2026-07-07T15:42:00.000Z</time>
      </trkpt>
      <trkpt lat="47.58752" lon="16.10196">
        <ele>473.271224</ele>
        <time>2026-07-07T15:42:01.000Z</time>
      </trkpt>
      <trkpt lat="47.58748" lon="16.10193">
        <ele>473.33029</ele>
        <time>2026-07-07T15:42:02.000Z</time>
      </trkpt>
      <trkpt lat="47.58743" lon="16.1019">
        <ele>473.388625</ele>
        <time>2026-07-07T15:42:03.000Z</time>
      </trkpt>
      <trkpt lat="47.58739" lon="16.10187">
        <ele>473.446256</ele>
        <time>2026-07-07T15:42:04.000Z</time>
      </trkpt>
      <trkpt lat="47.58735" lon="16.10183">
        <ele>473.50755</ele>
        <time>2026-07-07T15:42:05.000Z</time>
      </trkpt>
      <trkpt lat="47.58731" lon="16.1018">
        <ele>473.566257</ele>
        <time>2026-07-07T15:42:06.000Z</time>
      </trkpt>
      <trkpt lat="47.58726" lon="16.10177">
        <ele>473.627555</ele>
        <time>2026-07-07T15:42:07.000Z</time>
      </trkpt>
      <trkpt lat="47.58722" lon="16.10174">
        <ele>473.686262</ele>
        <time>2026-07-07T15:42:08.000Z</time>
      </trkpt>
      <trkpt lat="47.58717" lon="16.10171">
        <ele>473.746877</ele>
        <time>2026-07-07T15:42:09.000Z</time>
      </trkpt>
      <trkpt lat="47.58713" lon="16.10169">
        <ele>473.80539</ele>
        <time>2026-07-07T15:42:10.000Z</time>
      </trkpt>
      <trkpt lat="47.58709" lon="16.10166">
        <ele>473.863077</ele>
        <time>2026-07-07T15:42:11.000Z</time>
      </trkpt>
      <trkpt lat="47.58704" lon="16.10163">
        <ele>473.920669</ele>
        <time>2026-07-07T15:42:12.000Z</time>
      </trkpt>
      <trkpt lat="47.587" lon="16.1016">
        <ele>473.978356</ele>
        <time>2026-07-07T15:42:13.000Z</time>
      </trkpt>
      <trkpt lat="47.58696" lon="16.10158">
        <ele>474.034266</ele>
        <time>2026-07-07T15:42:14.000Z</time>
      </trkpt>
      <trkpt lat="47.58692" lon="16.10156">
        <ele>474.090737</ele>
        <time>2026-07-07T15:42:15.000Z</time>
      </trkpt>
      <trkpt lat="47.58687" lon="16.10153">
        <ele>474.146047</ele>
        <time>2026-07-07T15:42:16.000Z</time>
      </trkpt>
      <trkpt lat="47.58683" lon="16.10151">
        <ele>474.199912</ele>
        <time>2026-07-07T15:42:17.000Z</time>
      </trkpt>
      <trkpt lat="47.58679" lon="16.10149">
        <ele>474.257274</ele>
        <time>2026-07-07T15:42:18.000Z</time>
      </trkpt>
      <trkpt lat="47.58675" lon="16.10147">
        <ele>474.312947</ele>
        <time>2026-07-07T15:42:19.000Z</time>
      </trkpt>
      <trkpt lat="47.5867" lon="16.10145">
        <ele>474.371226</ele>
        <time>2026-07-07T15:42:20.000Z</time>
      </trkpt>
      <trkpt lat="47.58666" lon="16.10143">
        <ele>474.429261</ele>
        <time>2026-07-07T15:42:21.000Z</time>
      </trkpt>
      <trkpt lat="47.58661" lon="16.10141">
        <ele>474.487295</ele>
        <time>2026-07-07T15:42:22.000Z</time>
      </trkpt>
      <trkpt lat="47.58657" lon="16.10139">
        <ele>474.54533</ele>
        <time>2026-07-07T15:42:23.000Z</time>
      </trkpt>
      <trkpt lat="47.58652" lon="16.10137">
        <ele>474.602308</ele>
        <time>2026-07-07T15:42:24.000Z</time>
      </trkpt>
      <trkpt lat="47.58648" lon="16.10136">
        <ele>474.659109</ele>
        <time>2026-07-07T15:42:25.000Z</time>
      </trkpt>
      <trkpt lat="47.58643" lon="16.10134">
        <ele>474.716087</ele>
        <time>2026-07-07T15:42:27.000Z</time>
      </trkpt>
      <trkpt lat="47.58639" lon="16.10133">
        <ele>474.770854</ele>
        <time>2026-07-07T15:42:28.000Z</time>
      </trkpt>
      <trkpt lat="47.58634" lon="16.10131">
        <ele>474.827025</ele>
        <time>2026-07-07T15:42:29.000Z</time>
      </trkpt>
      <trkpt lat="47.5863" lon="16.1013">
        <ele>474.881595</ele>
        <time>2026-07-07T15:42:30.000Z</time>
      </trkpt>
      <trkpt lat="47.58626" lon="16.10128">
        <ele>474.936571</ele>
        <time>2026-07-07T15:42:31.000Z</time>
      </trkpt>
      <trkpt lat="47.58621" lon="16.10126">
        <ele>475.007267</ele>
        <time>2026-07-07T15:42:32.000Z</time>
      </trkpt>
      <trkpt lat="47.58617" lon="16.10125">
        <ele>475.074885</ele>
        <time>2026-07-07T15:42:33.000Z</time>
      </trkpt>
      <trkpt lat="47.58613" lon="16.10124">
        <ele>475.140703</ele>
        <time>2026-07-07T15:42:34.000Z</time>
      </trkpt>
      <trkpt lat="47.58609" lon="16.10123">
        <ele>475.206745</ele>
        <time>2026-07-07T15:42:35.000Z</time>
      </trkpt>
      <trkpt lat="47.58605" lon="16.10121">
        <ele>475.271212</ele>
        <time>2026-07-07T15:42:36.000Z</time>
      </trkpt>
      <trkpt lat="47.58601" lon="16.1012">
        <ele>475.336633</ele>
        <time>2026-07-07T15:42:37.000Z</time>
      </trkpt>
      <trkpt lat="47.58598" lon="16.10119">
        <ele>475.398876</ele>
        <time>2026-07-07T15:42:38.000Z</time>
      </trkpt>
      <trkpt lat="47.58594" lon="16.10118">
        <ele>475.465159</ele>
        <time>2026-07-07T15:42:39.000Z</time>
      </trkpt>
      <trkpt lat="47.58589" lon="16.10117">
        <ele>475.533763</ele>
        <time>2026-07-07T15:42:40.000Z</time>
      </trkpt>
      <trkpt lat="47.58585" lon="16.10116">
        <ele>475.600456</ele>
        <time>2026-07-07T15:42:41.000Z</time>
      </trkpt>
      <trkpt lat="47.58581" lon="16.10115">
        <ele>475.668749</ele>
        <time>2026-07-07T15:42:42.000Z</time>
      </trkpt>
      <trkpt lat="47.58577" lon="16.10115">
        <ele>475.736702</ele>
        <time>2026-07-07T15:42:43.000Z</time>
      </trkpt>
      <trkpt lat="47.58573" lon="16.10114">
        <ele>475.803049</ele>
        <time>2026-07-07T15:42:44.000Z</time>
      </trkpt>
      <trkpt lat="47.58569" lon="16.10114">
        <ele>475.867705</ele>
        <time>2026-07-07T15:42:45.000Z</time>
      </trkpt>
      <trkpt lat="47.58564" lon="16.10114">
        <ele>475.938667</ele>
        <time>2026-07-07T15:42:46.000Z</time>
      </trkpt>
      <trkpt lat="47.5856" lon="16.10114">
        <ele>476.004799</ele>
        <time>2026-07-07T15:42:47.000Z</time>
      </trkpt>
      <trkpt lat="47.58556" lon="16.10113">
        <ele>476.075893</ele>
        <time>2026-07-07T15:42:48.000Z</time>
      </trkpt>
      <trkpt lat="47.58552" lon="16.10113">
        <ele>476.140403</ele>
        <time>2026-07-07T15:42:49.000Z</time>
      </trkpt>
      <trkpt lat="47.58548" lon="16.10113">
        <ele>476.202035</ele>
        <time>2026-07-07T15:42:50.000Z</time>
      </trkpt>
      <trkpt lat="47.58544" lon="16.10112">
        <ele>476.261954</ele>
        <time>2026-07-07T15:42:51.000Z</time>
      </trkpt>
      <trkpt lat="47.58541" lon="16.10112">
        <ele>476.320176</ele>
        <time>2026-07-07T15:42:52.000Z</time>
      </trkpt>
      <trkpt lat="47.58537" lon="16.10112">
        <ele>476.379858</ele>
        <time>2026-07-07T15:42:53.000Z</time>
      </trkpt>
      <trkpt lat="47.58533" lon="16.10111">
        <ele>476.439688</ele>
        <time>2026-07-07T15:42:54.000Z</time>
      </trkpt>
      <trkpt lat="47.5853" lon="16.10111">
        <ele>476.497747</ele>
        <time>2026-07-07T15:42:55.000Z</time>
      </trkpt>
      <trkpt lat="47.58526" lon="16.10111">
        <ele>476.557419</ele>
        <time>2026-07-07T15:42:56.000Z</time>
      </trkpt>
      <trkpt lat="47.58522" lon="16.10111">
        <ele>476.618714</ele>
        <time>2026-07-07T15:42:57.000Z</time>
      </trkpt>
      <trkpt lat="47.58518" lon="16.10111">
        <ele>476.681611</ele>
        <time>2026-07-07T15:42:58.000Z</time>
      </trkpt>
      <trkpt lat="47.58515" lon="16.10112">
        <ele>476.742983</ele>
        <time>2026-07-07T15:42:59.000Z</time>
      </trkpt>
      <trkpt lat="47.58511" lon="16.10112">
        <ele>476.807493</ele>
        <time>2026-07-07T15:43:00.000Z</time>
      </trkpt>
      <trkpt lat="47.58507" lon="16.10112">
        <ele>476.868778</ele>
        <time>2026-07-07T15:43:01.000Z</time>
      </trkpt>
      <trkpt lat="47.58503" lon="16.10111">
        <ele>476.931713</ele>
        <time>2026-07-07T15:43:02.000Z</time>
      </trkpt>
      <trkpt lat="47.58499" lon="16.10112">
        <ele>476.989935</ele>
        <time>2026-07-07T15:43:03.000Z</time>
      </trkpt>
      <trkpt lat="47.58496" lon="16.10112">
        <ele>477.046643</ele>
        <time>2026-07-07T15:43:04.000Z</time>
      </trkpt>
      <trkpt lat="47.58492" lon="16.10112">
        <ele>477.101487</ele>
        <time>2026-07-07T15:43:05.000Z</time>
      </trkpt>
      <trkpt lat="47.58489" lon="16.10112">
        <ele>477.151483</ele>
        <time>2026-07-07T15:43:06.000Z</time>
      </trkpt>
      <trkpt lat="47.58486" lon="16.10113">
        <ele>477.20819</ele>
        <time>2026-07-07T15:43:07.000Z</time>
      </trkpt>
      <trkpt lat="47.58482" lon="16.10114">
        <ele>477.26866</ele>
        <time>2026-07-07T15:43:08.000Z</time>
      </trkpt>
      <trkpt lat="47.58478" lon="16.10115">
        <ele>477.334081</ele>
        <time>2026-07-07T15:43:09.000Z</time>
      </trkpt>
      <trkpt lat="47.58474" lon="16.10116">
        <ele>477.399502</ele>
        <time>2026-07-07T15:43:10.000Z</time>
      </trkpt>
      <trkpt lat="47.5847" lon="16.10117">
        <ele>477.469394</ele>
        <time>2026-07-07T15:43:11.000Z</time>
      </trkpt>
      <trkpt lat="47.58465" lon="16.10117">
        <ele>477.542488</ele>
        <time>2026-07-07T15:43:12.000Z</time>
      </trkpt>
      <trkpt lat="47.5846" lon="16.10118">
        <ele>477.622259</ele>
        <time>2026-07-07T15:43:13.000Z</time>
      </trkpt>
      <trkpt lat="47.58456" lon="16.10119">
        <ele>477.700431</ele>
        <time>2026-07-07T15:43:14.000Z</time>
      </trkpt>
      <trkpt lat="47.58451" lon="16.1012">
        <ele>477.7818</ele>
        <time>2026-07-07T15:43:15.000Z</time>
      </trkpt>
      <trkpt lat="47.58446" lon="16.10122">
        <ele>477.849717</ele>
        <time>2026-07-07T15:43:16.000Z</time>
      </trkpt>
      <trkpt lat="47.58441" lon="16.10123">
        <ele>477.875835</ele>
        <time>2026-07-07T15:43:17.000Z</time>
      </trkpt>
      <trkpt lat="47.58437" lon="16.10124">
        <ele>477.900754</ele>
        <time>2026-07-07T15:43:18.000Z</time>
      </trkpt>
      <trkpt lat="47.58432" lon="16.10124">
        <ele>477.925498</ele>
        <time>2026-07-07T15:43:19.000Z</time>
      </trkpt>
      <trkpt lat="47.58428" lon="16.10125">
        <ele>477.950186</ele>
        <time>2026-07-07T15:43:20.000Z</time>
      </trkpt>
      <trkpt lat="47.58423" lon="16.10125">
        <ele>477.97376</ele>
        <time>2026-07-07T15:43:21.000Z</time>
      </trkpt>
      <trkpt lat="47.58419" lon="16.10126">
        <ele>477.997927</ele>
        <time>2026-07-07T15:43:22.000Z</time>
      </trkpt>
      <trkpt lat="47.58415" lon="16.10126">
        <ele>478.020574</ele>
        <time>2026-07-07T15:43:23.000Z</time>
      </trkpt>
      <trkpt lat="47.58411" lon="16.10127">
        <ele>478.043814</ele>
        <time>2026-07-07T15:43:24.000Z</time>
      </trkpt>
      <trkpt lat="47.58406" lon="16.10128">
        <ele>478.06711</ele>
        <time>2026-07-07T15:43:25.000Z</time>
      </trkpt>
      <trkpt lat="47.58402" lon="16.10129">
        <ele>478.090947</ele>
        <time>2026-07-07T15:43:26.000Z</time>
      </trkpt>
      <trkpt lat="47.58398" lon="16.1013">
        <ele>478.11569</ele>
        <time>2026-07-07T15:43:27.000Z</time>
      </trkpt>
      <trkpt lat="47.58393" lon="16.1013">
        <ele>478.141472</ele>
        <time>2026-07-07T15:43:28.000Z</time>
      </trkpt>
      <trkpt lat="47.58388" lon="16.10131">
        <ele>478.167782</ele>
        <time>2026-07-07T15:43:29.000Z</time>
      </trkpt>
      <trkpt lat="47.58383" lon="16.10131">
        <ele>478.193545</ele>
        <time>2026-07-07T15:43:30.000Z</time>
      </trkpt>
      <trkpt lat="47.58379" lon="16.10132">
        <ele>478.218324</ele>
        <time>2026-07-07T15:43:31.000Z</time>
      </trkpt>
      <trkpt lat="47.58374" lon="16.10133">
        <ele>478.243243</ele>
        <time>2026-07-07T15:43:32.000Z</time>
      </trkpt>
      <trkpt lat="47.5837" lon="16.10134">
        <ele>478.267615</ele>
        <time>2026-07-07T15:43:33.000Z</time>
      </trkpt>
      <trkpt lat="47.58366" lon="16.10136">
        <ele>478.291894</ele>
        <time>2026-07-07T15:43:34.000Z</time>
      </trkpt>
      <trkpt lat="47.58361" lon="16.10137">
        <ele>478.316933</ele>
        <time>2026-07-07T15:43:35.000Z</time>
      </trkpt>
      <trkpt lat="47.58357" lon="16.10138">
        <ele>478.342802</ele>
        <time>2026-07-07T15:43:36.000Z</time>
      </trkpt>
      <trkpt lat="47.58352" lon="16.10138">
        <ele>478.369112</ele>
        <time>2026-07-07T15:43:37.000Z</time>
      </trkpt>
      <trkpt lat="47.58347" lon="16.10138">
        <ele>478.395969</ele>
        <time>2026-07-07T15:43:38.000Z</time>
      </trkpt>
      <trkpt lat="47.58342" lon="16.10139">
        <ele>478.421172</ele>
        <time>2026-07-07T15:43:39.000Z</time>
      </trkpt>
      <trkpt lat="47.58337" lon="16.10139">
        <ele>478.448016</ele>
        <time>2026-07-07T15:43:40.000Z</time>
      </trkpt>
      <trkpt lat="47.58333" lon="16.10139">
        <ele>478.474306</ele>
        <time>2026-07-07T15:43:41.000Z</time>
      </trkpt>
      <trkpt lat="47.58328" lon="16.10139">
        <ele>478.500658</ele>
        <time>2026-07-07T15:43:42.000Z</time>
      </trkpt>
      <trkpt lat="47.58323" lon="16.1014">
        <ele>478.52666</ele>
        <time>2026-07-07T15:43:43.000Z</time>
      </trkpt>
      <trkpt lat="47.58319" lon="16.10141">
        <ele>478.55158</ele>
        <time>2026-07-07T15:43:44.000Z</time>
      </trkpt>
      <trkpt lat="47.58314" lon="16.10142">
        <ele>478.575416</ele>
        <time>2026-07-07T15:43:45.000Z</time>
      </trkpt>
      <trkpt lat="47.5831" lon="16.10143">
        <ele>478.600336</ele>
        <time>2026-07-07T15:43:46.000Z</time>
      </trkpt>
      <trkpt lat="47.58305" lon="16.10144">
        <ele>478.625255</ele>
        <time>2026-07-07T15:43:47.000Z</time>
      </trkpt>
      <trkpt lat="47.58301" lon="16.10145">
        <ele>478.649632</ele>
        <time>2026-07-07T15:43:48.000Z</time>
      </trkpt>
      <trkpt lat="47.58296" lon="16.10146">
        <ele>478.674346</ele>
        <time>2026-07-07T15:43:49.000Z</time>
      </trkpt>
      <trkpt lat="47.58292" lon="16.10146">
        <ele>478.698989</ele>
        <time>2026-07-07T15:43:50.000Z</time>
      </trkpt>
      <trkpt lat="47.58287" lon="16.10146">
        <ele>478.723678</ele>
        <time>2026-07-07T15:43:51.000Z</time>
      </trkpt>
      <trkpt lat="47.58283" lon="16.10147">
        <ele>478.748937</ele>
        <time>2026-07-07T15:43:52.000Z</time>
      </trkpt>
      <trkpt lat="47.58278" lon="16.10147">
        <ele>478.7747</ele>
        <time>2026-07-07T15:43:53.000Z</time>
      </trkpt>
      <trkpt lat="47.58274" lon="16.10148">
        <ele>478.799479</ele>
        <time>2026-07-07T15:43:54.000Z</time>
      </trkpt>
      <trkpt lat="47.58269" lon="16.10148">
        <ele>478.824222</ele>
        <time>2026-07-07T15:43:55.000Z</time>
      </trkpt>
      <trkpt lat="47.58265" lon="16.10149">
        <ele>478.877149</ele>
        <time>2026-07-07T15:43:56.000Z</time>
      </trkpt>
      <trkpt lat="47.58261" lon="16.10149">
        <ele>478.933472</ele>
        <time>2026-07-07T15:43:57.000Z</time>
      </trkpt>
      <trkpt lat="47.58257" lon="16.10149">
        <ele>478.985575</ele>
        <time>2026-07-07T15:43:58.000Z</time>
      </trkpt>
      <trkpt lat="47.58254" lon="16.10149">
        <ele>479.032014</ele>
        <time>2026-07-07T15:43:59.000Z</time>
      </trkpt>
      <trkpt lat="47.58251" lon="16.10149">
        <ele>479.077086</ele>
        <time>2026-07-07T15:44:00.000Z</time>
      </trkpt>
      <trkpt lat="47.58248" lon="16.10149">
        <ele>479.115082</ele>
        <time>2026-07-07T15:44:01.000Z</time>
      </trkpt>
      <trkpt lat="47.58245" lon="16.10149">
        <ele>479.151671</ele>
        <time>2026-07-07T15:44:02.000Z</time>
      </trkpt>
      <trkpt lat="47.58242" lon="16.10149">
        <ele>479.193899</ele>
        <time>2026-07-07T15:44:03.000Z</time>
      </trkpt>
      <trkpt lat="47.58239" lon="16.1015">
        <ele>479.243381</ele>
        <time>2026-07-07T15:44:04.000Z</time>
      </trkpt>
      <trkpt lat="47.58235" lon="16.10151">
        <ele>479.300316</ele>
        <time>2026-07-07T15:44:05.000Z</time>
      </trkpt>
      <trkpt lat="47.58231" lon="16.10151">
        <ele>479.359695</ele>
        <time>2026-07-07T15:44:06.000Z</time>
      </trkpt>
      <trkpt lat="47.58226" lon="16.10152">
        <ele>479.423135</ele>
        <time>2026-07-07T15:44:07.000Z</time>
      </trkpt>
      <trkpt lat="47.58222" lon="16.10152">
        <ele>479.486639</ele>
        <time>2026-07-07T15:44:08.000Z</time>
      </trkpt>
      <trkpt lat="47.58217" lon="16.10153">
        <ele>479.553215</ele>
        <time>2026-07-07T15:44:09.000Z</time>
      </trkpt>
      <trkpt lat="47.58212" lon="16.10154">
        <ele>479.616995</ele>
        <time>2026-07-07T15:44:10.000Z</time>
      </trkpt>
      <trkpt lat="47.58208" lon="16.10155">
        <ele>479.680895</ele>
        <time>2026-07-07T15:44:11.000Z</time>
      </trkpt>
      <trkpt lat="47.58204" lon="16.10156">
        <ele>479.73909</ele>
        <time>2026-07-07T15:44:12.000Z</time>
      </trkpt>
      <trkpt lat="47.58199" lon="16.10156">
        <ele>479.801191</ele>
        <time>2026-07-07T15:44:13.000Z</time>
      </trkpt>
      <trkpt lat="47.58195" lon="16.10156">
        <ele>479.86177</ele>
        <time>2026-07-07T15:44:14.000Z</time>
      </trkpt>
      <trkpt lat="47.58191" lon="16.10157">
        <ele>479.925444</ele>
        <time>2026-07-07T15:44:15.000Z</time>
      </trkpt>
      <trkpt lat="47.58186" lon="16.10158">
        <ele>479.98632</ele>
        <time>2026-07-07T15:44:16.000Z</time>
      </trkpt>
      <trkpt lat="47.58182" lon="16.10158">
        <ele>480.048421</ele>
        <time>2026-07-07T15:44:17.000Z</time>
      </trkpt>
      <trkpt lat="47.58177" lon="16.10159">
        <ele>480.111925</ele>
        <time>2026-07-07T15:44:18.000Z</time>
      </trkpt>
      <trkpt lat="47.58173" lon="16.10159">
        <ele>480.172704</ele>
        <time>2026-07-07T15:44:19.000Z</time>
      </trkpt>
      <trkpt lat="47.58169" lon="16.1016">
        <ele>480.236208</ele>
        <time>2026-07-07T15:44:20.000Z</time>
      </trkpt>
      <trkpt lat="47.58164" lon="16.1016">
        <ele>480.296839</ele>
        <time>2026-07-07T15:44:21.000Z</time>
      </trkpt>
      <trkpt lat="47.5816" lon="16.10161">
        <ele>480.358824</ele>
        <time>2026-07-07T15:44:22.000Z</time>
      </trkpt>
      <trkpt lat="47.58156" lon="16.10161">
        <ele>480.416716</ele>
        <time>2026-07-07T15:44:23.000Z</time>
      </trkpt>
      <trkpt lat="47.58152" lon="16.10161">
        <ele>480.47589</ele>
        <time>2026-07-07T15:44:24.000Z</time>
      </trkpt>
      <trkpt lat="47.58148" lon="16.10162">
        <ele>480.532212</ele>
        <time>2026-07-07T15:44:25.000Z</time>
      </trkpt>
      <trkpt lat="47.58143" lon="16.10162">
        <ele>480.591385</ele>
        <time>2026-07-07T15:44:26.000Z</time>
      </trkpt>
      <trkpt lat="47.58139" lon="16.10162">
        <ele>480.652083</ele>
        <time>2026-07-07T15:44:27.000Z</time>
      </trkpt>
      <trkpt lat="47.58135" lon="16.10163">
        <ele>480.708405</ele>
        <time>2026-07-07T15:44:28.000Z</time>
      </trkpt>
      <trkpt lat="47.58131" lon="16.10163">
        <ele>480.769103</ele>
        <time>2026-07-07T15:44:29.000Z</time>
      </trkpt>
      <trkpt lat="47.58127" lon="16.10164">
        <ele>480.828398</ele>
        <time>2026-07-07T15:44:30.000Z</time>
      </trkpt>
      <trkpt lat="47.58123" lon="16.10164">
        <ele>480.885079</ele>
        <time>2026-07-07T15:44:31.000Z</time>
      </trkpt>
      <trkpt lat="47.58119" lon="16.10165">
        <ele>480.941569</ele>
        <time>2026-07-07T15:44:32.000Z</time>
      </trkpt>
      <trkpt lat="47.58115" lon="16.10165">
        <ele>480.997932</ele>
        <time>2026-07-07T15:44:33.000Z</time>
      </trkpt>
      <trkpt lat="47.5811" lon="16.10166">
        <ele>481.057227</ele>
        <time>2026-07-07T15:44:34.000Z</time>
      </trkpt>
      <trkpt lat="47.58106" lon="16.10166">
        <ele>481.113589</ele>
        <time>2026-07-07T15:44:35.000Z</time>
      </trkpt>
      <trkpt lat="47.58102" lon="16.10167">
        <ele>481.170524</ele>
        <time>2026-07-07T15:44:36.000Z</time>
      </trkpt>
      <trkpt lat="47.58098" lon="16.10167">
        <ele>481.228502</ele>
        <time>2026-07-07T15:44:37.000Z</time>
      </trkpt>
      <trkpt lat="47.58094" lon="16.10168">
        <ele>481.288221</ele>
        <time>2026-07-07T15:44:38.000Z</time>
      </trkpt>
      <trkpt lat="47.5809" lon="16.10169">
        <ele>481.347599</ele>
        <time>2026-07-07T15:44:39.000Z</time>
      </trkpt>
      <trkpt lat="47.58086" lon="16.1017">
        <ele>481.390215</ele>
        <time>2026-07-07T15:44:40.000Z</time>
      </trkpt>
      <trkpt lat="47.58081" lon="16.10171">
        <ele>481.427998</ele>
        <time>2026-07-07T15:44:41.000Z</time>
      </trkpt>
      <trkpt lat="47.58077" lon="16.10172">
        <ele>481.469215</ele>
        <time>2026-07-07T15:44:42.000Z</time>
      </trkpt>
      <trkpt lat="47.58072" lon="16.10173">
        <ele>481.510282</ele>
        <time>2026-07-07T15:44:43.000Z</time>
      </trkpt>
      <trkpt lat="47.58067" lon="16.10174">
        <ele>481.552358</ele>
        <time>2026-07-07T15:44:44.000Z</time>
      </trkpt>
      <trkpt lat="47.58062" lon="16.10175">
        <ele>481.596326</ele>
        <time>2026-07-07T15:44:45.000Z</time>
      </trkpt>
      <trkpt lat="47.58057" lon="16.10175">
        <ele>481.637276</ele>
        <time>2026-07-07T15:44:46.000Z</time>
      </trkpt>
      <trkpt lat="47.58053" lon="16.10176">
        <ele>481.679144</ele>
        <time>2026-07-07T15:44:47.000Z</time>
      </trkpt>
      <trkpt lat="47.58048" lon="16.10176">
        <ele>481.720848</ele>
        <time>2026-07-07T15:44:48.000Z</time>
      </trkpt>
      <trkpt lat="47.58043" lon="16.10177">
        <ele>481.763483</ele>
        <time>2026-07-07T15:44:49.000Z</time>
      </trkpt>
      <trkpt lat="47.58038" lon="16.10177">
        <ele>481.803483</ele>
        <time>2026-07-07T15:44:50.000Z</time>
      </trkpt>
      <trkpt lat="47.58033" lon="16.10178">
        <ele>481.846118</ele>
        <time>2026-07-07T15:44:51.000Z</time>
      </trkpt>
      <trkpt lat="47.58029" lon="16.10178">
        <ele>481.886087</ele>
        <time>2026-07-07T15:44:52.000Z</time>
      </trkpt>
      <trkpt lat="47.58024" lon="16.10179">
        <ele>481.926991</ele>
        <time>2026-07-07T15:44:53.000Z</time>
      </trkpt>
      <trkpt lat="47.5802" lon="16.10179">
        <ele>481.966268</ele>
        <time>2026-07-07T15:44:54.000Z</time>
      </trkpt>
      <trkpt lat="47.58015" lon="16.1018">
        <ele>482.007105</ele>
        <time>2026-07-07T15:44:55.000Z</time>
      </trkpt>
      <trkpt lat="47.5801" lon="16.1018">
        <ele>482.047074</ele>
        <time>2026-07-07T15:44:56.000Z</time>
      </trkpt>
      <trkpt lat="47.58005" lon="16.10181">
        <ele>482.089806</ele>
        <time>2026-07-07T15:44:57.000Z</time>
      </trkpt>
      <trkpt lat="47.58001" lon="16.10181">
        <ele>482.129083</ele>
        <time>2026-07-07T15:44:58.000Z</time>
      </trkpt>
      <trkpt lat="47.57996" lon="16.10182">
        <ele>482.169168</ele>
        <time>2026-07-07T15:44:59.000Z</time>
      </trkpt>
      <trkpt lat="47.57992" lon="16.10182">
        <ele>482.210072</ele>
        <time>2026-07-07T15:45:00.000Z</time>
      </trkpt>
      <trkpt lat="47.57987" lon="16.10183">
        <ele>482.250976</ele>
        <time>2026-07-07T15:45:01.000Z</time>
      </trkpt>
      <trkpt lat="47.57982" lon="16.10183">
        <ele>482.290975</ele>
        <time>2026-07-07T15:45:02.000Z</time>
      </trkpt>
      <trkpt lat="47.57978" lon="16.10184">
        <ele>482.330147</ele>
        <time>2026-07-07T15:45:03.000Z</time>
      </trkpt>
      <trkpt lat="47.57973" lon="16.10184">
        <ele>482.372827</ele>
        <time>2026-07-07T15:45:04.000Z</time>
      </trkpt>
      <trkpt lat="47.57968" lon="16.10185">
        <ele>482.412865</ele>
        <time>2026-07-07T15:45:05.000Z</time>
      </trkpt>
      <trkpt lat="47.57963" lon="16.10185">
        <ele>482.4555</ele>
        <time>2026-07-07T15:45:06.000Z</time>
      </trkpt>
      <trkpt lat="47.57959" lon="16.10186">
        <ele>482.497368</ele>
        <time>2026-07-07T15:45:07.000Z</time>
      </trkpt>
      <trkpt lat="47.57954" lon="16.10187">
        <ele>482.539236</ele>
        <time>2026-07-07T15:45:08.000Z</time>
      </trkpt>
      <trkpt lat="47.57949" lon="16.10187">
        <ele>482.581872</ele>
        <time>2026-07-07T15:45:09.000Z</time>
      </trkpt>
      <trkpt lat="47.57944" lon="16.10188">
        <ele>482.62191</ele>
        <time>2026-07-07T15:45:10.000Z</time>
      </trkpt>
      <trkpt lat="47.57939" lon="16.10188">
        <ele>482.664545</ele>
        <time>2026-07-07T15:45:11.000Z</time>
      </trkpt>
      <trkpt lat="47.57935" lon="16.10189">
        <ele>482.706315</ele>
        <time>2026-07-07T15:45:12.000Z</time>
      </trkpt>
      <trkpt lat="47.5793" lon="16.10189">
        <ele>482.748085</ele>
        <time>2026-07-07T15:45:13.000Z</time>
      </trkpt>
      <trkpt lat="47.57925" lon="16.1019">
        <ele>482.788988</ele>
        <time>2026-07-07T15:45:14.000Z</time>
      </trkpt>
      <trkpt lat="47.5792" lon="16.1019">
        <ele>482.829892</ele>
        <time>2026-07-07T15:45:15.000Z</time>
      </trkpt>
      <trkpt lat="47.57916" lon="16.10191">
        <ele>482.86993</ele>
        <time>2026-07-07T15:45:16.000Z</time>
      </trkpt>
      <trkpt lat="47.57911" lon="16.10192">
        <ele>482.912722</ele>
        <time>2026-07-07T15:45:17.000Z</time>
      </trkpt>
      <trkpt lat="47.57906" lon="16.10192">
        <ele>482.973455</ele>
        <time>2026-07-07T15:45:18.000Z</time>
      </trkpt>
      <trkpt lat="47.57901" lon="16.10193">
        <ele>483.044217</ele>
        <time>2026-07-07T15:45:19.000Z</time>
      </trkpt>
      <trkpt lat="47.57897" lon="16.10193">
        <ele>483.110939</ele>
        <time>2026-07-07T15:45:20.000Z</time>
      </trkpt>
      <trkpt lat="47.57892" lon="16.10194">
        <ele>483.17893</ele>
        <time>2026-07-07T15:45:21.000Z</time>
      </trkpt>
      <trkpt lat="47.57887" lon="16.10194">
        <ele>483.24825</ele>
        <time>2026-07-07T15:45:22.000Z</time>
      </trkpt>
      <trkpt lat="47.57883" lon="16.10195">
        <ele>483.316408</ele>
        <time>2026-07-07T15:45:23.000Z</time>
      </trkpt>
      <trkpt lat="47.57878" lon="16.10195">
        <ele>483.38152</ele>
        <time>2026-07-07T15:45:24.000Z</time>
      </trkpt>
      <trkpt lat="47.57873" lon="16.10196">
        <ele>483.449511</ele>
        <time>2026-07-07T15:45:25.000Z</time>
      </trkpt>
      <trkpt lat="47.57869" lon="16.10196">
        <ele>483.516062</ele>
        <time>2026-07-07T15:45:26.000Z</time>
      </trkpt>
      <trkpt lat="47.57864" lon="16.10197">
        <ele>483.584129</ele>
        <time>2026-07-07T15:45:27.000Z</time>
      </trkpt>
      <trkpt lat="47.57859" lon="16.10198">
        <ele>483.65394</ele>
        <time>2026-07-07T15:45:28.000Z</time>
      </trkpt>
      <trkpt lat="47.57855" lon="16.10199">
        <ele>483.722451</ele>
        <time>2026-07-07T15:45:29.000Z</time>
      </trkpt>
      <trkpt lat="47.5785" lon="16.10199">
        <ele>483.790442</ele>
        <time>2026-07-07T15:45:30.000Z</time>
      </trkpt>
      <trkpt lat="47.57845" lon="16.102">
        <ele>483.856879</ele>
        <time>2026-07-07T15:45:31.000Z</time>
      </trkpt>
      <trkpt lat="47.57841" lon="16.102">
        <ele>483.924724</ele>
        <time>2026-07-07T15:45:32.000Z</time>
      </trkpt>
      <trkpt lat="47.57836" lon="16.102">
        <ele>483.992714</ele>
        <time>2026-07-07T15:45:33.000Z</time>
      </trkpt>
      <trkpt lat="47.57831" lon="16.10201">
        <ele>484.057907</ele>
        <time>2026-07-07T15:45:34.000Z</time>
      </trkpt>
      <trkpt lat="47.57827" lon="16.10202">
        <ele>484.120567</ele>
        <time>2026-07-07T15:45:35.000Z</time>
      </trkpt>
      <trkpt lat="47.57823" lon="16.10203">
        <ele>484.183098</ele>
        <time>2026-07-07T15:45:36.000Z</time>
      </trkpt>
      <trkpt lat="47.57819" lon="16.10203">
        <ele>484.243731</ele>
        <time>2026-07-07T15:45:37.000Z</time>
      </trkpt>
      <trkpt lat="47.57814" lon="16.10203">
        <ele>484.305775</ele>
        <time>2026-07-07T15:45:38.000Z</time>
      </trkpt>
      <trkpt lat="47.5781" lon="16.10203">
        <ele>484.369263</ele>
        <time>2026-07-07T15:45:39.000Z</time>
      </trkpt>
      <trkpt lat="47.57806" lon="16.10203">
        <ele>484.431338</ele>
        <time>2026-07-07T15:45:40.000Z</time>
      </trkpt>
      <trkpt lat="47.57801" lon="16.10202">
        <ele>484.493413</ele>
        <time>2026-07-07T15:45:41.000Z</time>
      </trkpt>
      <trkpt lat="47.57797" lon="16.10202">
        <ele>484.558351</ele>
        <time>2026-07-07T15:45:42.000Z</time>
      </trkpt>
      <trkpt lat="47.57792" lon="16.10202">
        <ele>484.621838</ele>
        <time>2026-07-07T15:45:43.000Z</time>
      </trkpt>
      <trkpt lat="47.57788" lon="16.10202">
        <ele>484.686776</ele>
        <time>2026-07-07T15:45:44.000Z</time>
      </trkpt>
      <trkpt lat="47.57783" lon="16.10202">
        <ele>484.751714</ele>
        <time>2026-07-07T15:45:45.000Z</time>
      </trkpt>
      <trkpt lat="47.57779" lon="16.10202">
        <ele>484.816673</ele>
        <time>2026-07-07T15:45:46.000Z</time>
      </trkpt>
      <trkpt lat="47.57774" lon="16.10202">
        <ele>484.881633</ele>
        <time>2026-07-07T15:45:47.000Z</time>
      </trkpt>
      <trkpt lat="47.5777" lon="16.10202">
        <ele>484.943685</ele>
        <time>2026-07-07T15:45:48.000Z</time>
      </trkpt>
      <trkpt lat="47.57766" lon="16.10202">
        <ele>485.004318</ele>
        <time>2026-07-07T15:45:49.000Z</time>
      </trkpt>
      <trkpt lat="47.57762" lon="16.10201">
        <ele>485.059226</ele>
        <time>2026-07-07T15:45:50.000Z</time>
      </trkpt>
      <trkpt lat="47.57758" lon="16.10201">
        <ele>485.114056</ele>
        <time>2026-07-07T15:45:51.000Z</time>
      </trkpt>
      <trkpt lat="47.57754" lon="16.10201">
        <ele>485.171804</ele>
        <time>2026-07-07T15:45:52.000Z</time>
      </trkpt>
      <trkpt lat="47.5775" lon="16.10201">
        <ele>485.229725</ele>
        <time>2026-07-07T15:45:53.000Z</time>
      </trkpt>
      <trkpt lat="47.57746" lon="16.102">
        <ele>485.290825</ele>
        <time>2026-07-07T15:45:54.000Z</time>
      </trkpt>
      <trkpt lat="47.57742" lon="16.10199">
        <ele>485.353629</ele>
        <time>2026-07-07T15:45:55.000Z</time>
      </trkpt>
      <trkpt lat="47.57737" lon="16.10197">
        <ele>485.419973</ele>
        <time>2026-07-07T15:45:56.000Z</time>
      </trkpt>
      <trkpt lat="47.57733" lon="16.10196">
        <ele>485.485781</ele>
        <time>2026-07-07T15:45:57.000Z</time>
      </trkpt>
      <trkpt lat="47.57728" lon="16.10195">
        <ele>485.540162</ele>
        <time>2026-07-07T15:45:58.000Z</time>
      </trkpt>
      <trkpt lat="47.57724" lon="16.10194">
        <ele>485.586123</ele>
        <time>2026-07-07T15:45:59.000Z</time>
      </trkpt>
      <trkpt lat="47.57719" lon="16.10192">
        <ele>485.632207</ele>
        <time>2026-07-07T15:46:00.000Z</time>
      </trkpt>
      <trkpt lat="47.57714" lon="16.10191">
        <ele>485.678897</ele>
        <time>2026-07-07T15:46:01.000Z</time>
      </trkpt>
      <trkpt lat="47.5771" lon="16.1019">
        <ele>485.72285</ele>
        <time>2026-07-07T15:46:02.000Z</time>
      </trkpt>
      <trkpt lat="47.57705" lon="16.10189">
        <ele>485.766803</ele>
        <time>2026-07-07T15:46:03.000Z</time>
      </trkpt>
      <trkpt lat="47.57701" lon="16.10188">
        <ele>485.808049</ele>
        <time>2026-07-07T15:46:04.000Z</time>
      </trkpt>
      <trkpt lat="47.57697" lon="16.10186">
        <ele>485.850236</ele>
        <time>2026-07-07T15:46:05.000Z</time>
      </trkpt>
      <trkpt lat="47.57692" lon="16.10185">
        <ele>485.893978</ele>
        <time>2026-07-07T15:46:06.000Z</time>
      </trkpt>
      <trkpt lat="47.57688" lon="16.10184">
        <ele>485.935819</ele>
        <time>2026-07-07T15:46:07.000Z</time>
      </trkpt>
      <trkpt lat="47.57683" lon="16.10183">
        <ele>485.978826</ele>
        <time>2026-07-07T15:46:08.000Z</time>
      </trkpt>
      <trkpt lat="47.57679" lon="16.10182">
        <ele>486.023519</ele>
        <time>2026-07-07T15:46:09.000Z</time>
      </trkpt>
      <trkpt lat="47.57674" lon="16.10181">
        <ele>486.069365</ele>
        <time>2026-07-07T15:46:10.000Z</time>
      </trkpt>
      <trkpt lat="47.57669" lon="16.1018">
        <ele>486.11501</ele>
        <time>2026-07-07T15:46:11.000Z</time>
      </trkpt>
      <trkpt lat="47.57665" lon="16.10179">
        <ele>486.159533</ele>
        <time>2026-07-07T15:46:12.000Z</time>
      </trkpt>
      <trkpt lat="47.5766" lon="16.10178">
        <ele>486.205177</ele>
        <time>2026-07-07T15:46:13.000Z</time>
      </trkpt>
      <trkpt lat="47.57655" lon="16.10177">
        <ele>486.250821</ele>
        <time>2026-07-07T15:46:14.000Z</time>
      </trkpt>
      <trkpt lat="47.57651" lon="16.10176">
        <ele>486.29439</ele>
        <time>2026-07-07T15:46:15.000Z</time>
      </trkpt>
      <trkpt lat="47.57646" lon="16.10176">
        <ele>486.338728</ele>
        <time>2026-07-07T15:46:16.000Z</time>
      </trkpt>
      <trkpt lat="47.57642" lon="16.10176">
        <ele>486.381045</ele>
        <time>2026-07-07T15:46:17.000Z</time>
      </trkpt>
      <trkpt lat="47.57638" lon="16.10176">
        <ele>486.422427</ele>
        <time>2026-07-07T15:46:18.000Z</time>
      </trkpt>
      <trkpt lat="47.57633" lon="16.10176">
        <ele>486.467683</ele>
        <time>2026-07-07T15:46:19.000Z</time>
      </trkpt>
      <trkpt lat="47.57628" lon="16.10177">
        <ele>486.510985</ele>
        <time>2026-07-07T15:46:20.000Z</time>
      </trkpt>
      <trkpt lat="47.57624" lon="16.10177">
        <ele>486.552367</ele>
        <time>2026-07-07T15:46:21.000Z</time>
      </trkpt>
      <trkpt lat="47.5762" lon="16.10177">
        <ele>486.595747</ele>
        <time>2026-07-07T15:46:22.000Z</time>
      </trkpt>
      <trkpt lat="47.57615" lon="16.10178">
        <ele>486.639025</ele>
        <time>2026-07-07T15:46:23.000Z</time>
      </trkpt>
      <trkpt lat="47.57611" lon="16.10178">
        <ele>486.682283</ele>
        <time>2026-07-07T15:46:24.000Z</time>
      </trkpt>
      <trkpt lat="47.57606" lon="16.10177">
        <ele>486.728444</ele>
        <time>2026-07-07T15:46:25.000Z</time>
      </trkpt>
      <trkpt lat="47.57601" lon="16.10177">
        <ele>486.77363</ele>
        <time>2026-07-07T15:46:26.000Z</time>
      </trkpt>
      <trkpt lat="47.57596" lon="16.10177">
        <ele>486.821804</ele>
        <time>2026-07-07T15:46:27.000Z</time>
      </trkpt>
      <trkpt lat="47.57591" lon="16.10176">
        <ele>486.867212</ele>
        <time>2026-07-07T15:46:28.000Z</time>
      </trkpt>
      <trkpt lat="47.57587" lon="16.10175">
        <ele>486.910954</ele>
        <time>2026-07-07T15:46:29.000Z</time>
      </trkpt>
      <trkpt lat="47.57583" lon="16.10174">
        <ele>486.952796</ele>
        <time>2026-07-07T15:46:30.000Z</time>
      </trkpt>
      <trkpt lat="47.57578" lon="16.10173">
        <ele>486.994041</ele>
        <time>2026-07-07T15:46:31.000Z</time>
      </trkpt>
      <trkpt lat="47.57574" lon="16.10171">
        <ele>487.036363</ele>
        <time>2026-07-07T15:46:32.000Z</time>
      </trkpt>
      <trkpt lat="47.5757" lon="16.1017">
        <ele>487.07855</ele>
        <time>2026-07-07T15:46:33.000Z</time>
      </trkpt>
      <trkpt lat="47.57565" lon="16.10169">
        <ele>487.122888</ele>
        <time>2026-07-07T15:46:34.000Z</time>
      </trkpt>
      <trkpt lat="47.57561" lon="16.10167">
        <ele>487.168849</ele>
        <time>2026-07-07T15:46:35.000Z</time>
      </trkpt>
      <trkpt lat="47.57556" lon="16.10166">
        <ele>487.212802</ele>
        <time>2026-07-07T15:46:36.000Z</time>
      </trkpt>
      <trkpt lat="47.57552" lon="16.10165">
        <ele>487.258492</ele>
        <time>2026-07-07T15:46:37.000Z</time>
      </trkpt>
      <trkpt lat="47.57547" lon="16.10163">
        <ele>487.309302</ele>
        <time>2026-07-07T15:46:38.000Z</time>
      </trkpt>
      <trkpt lat="47.57543" lon="16.10162">
        <ele>487.36044</ele>
        <time>2026-07-07T15:46:39.000Z</time>
      </trkpt>
      <trkpt lat="47.57538" lon="16.1016">
        <ele>487.411756</ele>
        <time>2026-07-07T15:46:40.000Z</time>
      </trkpt>
      <trkpt lat="47.57534" lon="16.10158">
        <ele>487.463073</ele>
        <time>2026-07-07T15:46:41.000Z</time>
      </trkpt>
      <trkpt lat="47.57529" lon="16.10157">
        <ele>487.514042</ele>
        <time>2026-07-07T15:46:42.000Z</time>
      </trkpt>
      <trkpt lat="47.57525" lon="16.10155">
        <ele>487.565548</ele>
        <time>2026-07-07T15:46:43.000Z</time>
      </trkpt>
      <trkpt lat="47.5752" lon="16.10153">
        <ele>487.617462</ele>
        <time>2026-07-07T15:46:44.000Z</time>
      </trkpt>
      <trkpt lat="47.57516" lon="16.10151">
        <ele>487.666837</ele>
        <time>2026-07-07T15:46:45.000Z</time>
      </trkpt>
      <trkpt lat="47.57511" lon="16.10149">
        <ele>487.717694</ele>
        <time>2026-07-07T15:46:46.000Z</time>
      </trkpt>
      <trkpt lat="47.57507" lon="16.10147">
        <ele>487.764343</ele>
        <time>2026-07-07T15:46:47.000Z</time>
      </trkpt>
      <trkpt lat="47.57503" lon="16.10146">
        <ele>487.810325</ele>
        <time>2026-07-07T15:46:48.000Z</time>
      </trkpt>
      <trkpt lat="47.57499" lon="16.10144">
        <ele>487.856974</ele>
        <time>2026-07-07T15:46:49.000Z</time>
      </trkpt>
      <trkpt lat="47.57496" lon="16.10142">
        <ele>487.897913</ele>
        <time>2026-07-07T15:46:50.000Z</time>
      </trkpt>
      <trkpt lat="47.57492" lon="16.1014">
        <ele>487.940396</ele>
        <time>2026-07-07T15:46:51.000Z</time>
      </trkpt>
      <trkpt lat="47.57488" lon="16.10138">
        <ele>487.987045</ele>
        <time>2026-07-07T15:46:52.000Z</time>
      </trkpt>
      <trkpt lat="47.57484" lon="16.10136">
        <ele>488.036937</ele>
        <time>2026-07-07T15:46:53.000Z</time>
      </trkpt>
      <trkpt lat="47.5748" lon="16.10134">
        <ele>488.084406</ele>
        <time>2026-07-07T15:46:54.000Z</time>
      </trkpt>
      <trkpt lat="47.57475" lon="16.10132">
        <ele>488.135263</ele>
        <time>2026-07-07T15:46:55.000Z</time>
      </trkpt>
      <trkpt lat="47.57471" lon="16.10131">
        <ele>488.184638</ele>
        <time>2026-07-07T15:46:56.000Z</time>
      </trkpt>
      <trkpt lat="47.57467" lon="16.10129">
        <ele>488.234439</ele>
        <time>2026-07-07T15:46:57.000Z</time>
      </trkpt>
      <trkpt lat="47.57462" lon="16.10127">
        <ele>488.285945</ele>
        <time>2026-07-07T15:46:58.000Z</time>
      </trkpt>
      <trkpt lat="47.57458" lon="16.10125">
        <ele>488.337859</ele>
        <time>2026-07-07T15:46:59.000Z</time>
      </trkpt>
      <trkpt lat="47.57454" lon="16.10123">
        <ele>488.387084</ele>
        <time>2026-07-07T15:47:00.000Z</time>
      </trkpt>
      <trkpt lat="47.57449" lon="16.10121">
        <ele>488.43859</ele>
        <time>2026-07-07T15:47:01.000Z</time>
      </trkpt>
      <trkpt lat="47.57445" lon="16.10119">
        <ele>488.489907</ele>
        <time>2026-07-07T15:47:02.000Z</time>
      </trkpt>
      <trkpt lat="47.5744" lon="16.10118">
        <ele>488.540875</ele>
        <time>2026-07-07T15:47:03.000Z</time>
      </trkpt>
      <trkpt lat="47.57436" lon="16.10116">
        <ele>488.588987</ele>
        <time>2026-07-07T15:47:04.000Z</time>
      </trkpt>
      <trkpt lat="47.57432" lon="16.10114">
        <ele>488.637978</ele>
        <time>2026-07-07T15:47:05.000Z</time>
      </trkpt>
      <trkpt lat="47.57427" lon="16.10112">
        <ele>488.687561</ele>
        <time>2026-07-07T15:47:06.000Z</time>
      </trkpt>
      <trkpt lat="47.57423" lon="16.10111">
        <ele>488.735481</ele>
        <time>2026-07-07T15:47:07.000Z</time>
      </trkpt>
      <trkpt lat="47.57419" lon="16.10109">
        <ele>488.784659</ele>
        <time>2026-07-07T15:47:08.000Z</time>
      </trkpt>
      <trkpt lat="47.57415" lon="16.10107">
        <ele>488.833407</ele>
        <time>2026-07-07T15:47:09.000Z</time>
      </trkpt>
      <trkpt lat="47.5741" lon="16.10105">
        <ele>488.883675</ele>
        <time>2026-07-07T15:47:10.000Z</time>
      </trkpt>
      <trkpt lat="47.57406" lon="16.10103">
        <ele>488.93559</ele>
        <time>2026-07-07T15:47:11.000Z</time>
      </trkpt>
      <trkpt lat="47.57402" lon="16.10101">
        <ele>488.98333</ele>
        <time>2026-07-07T15:47:12.000Z</time>
      </trkpt>
      <trkpt lat="47.57397" lon="16.101">
        <ele>489.03107</ele>
        <time>2026-07-07T15:47:13.000Z</time>
      </trkpt>
      <trkpt lat="47.57393" lon="16.10099">
        <ele>489.077402</ele>
        <time>2026-07-07T15:47:14.000Z</time>
      </trkpt>
      <trkpt lat="47.57389" lon="16.10097">
        <ele>489.122996</ele>
        <time>2026-07-07T15:47:15.000Z</time>
      </trkpt>
      <trkpt lat="47.57385" lon="16.10096">
        <ele>489.170736</ele>
        <time>2026-07-07T15:47:16.000Z</time>
      </trkpt>
      <trkpt lat="47.57381" lon="16.10094">
        <ele>489.218149</ele>
        <time>2026-07-07T15:47:17.000Z</time>
      </trkpt>
      <trkpt lat="47.57377" lon="16.10093">
        <ele>489.262292</ele>
        <time>2026-07-07T15:47:18.000Z</time>
      </trkpt>
      <trkpt lat="47.57373" lon="16.10092">
        <ele>489.305849</ele>
        <time>2026-07-07T15:47:19.000Z</time>
      </trkpt>
      <trkpt lat="47.57368" lon="16.1009">
        <ele>489.349969</ele>
        <time>2026-07-07T15:47:20.000Z</time>
      </trkpt>
      <trkpt lat="47.57364" lon="16.10089">
        <ele>489.393096</ele>
        <time>2026-07-07T15:47:21.000Z</time>
      </trkpt>
      <trkpt lat="47.5736" lon="16.10088">
        <ele>489.438785</ele>
        <time>2026-07-07T15:47:22.000Z</time>
      </trkpt>
      <trkpt lat="47.57356" lon="16.10086">
        <ele>489.48347</ele>
        <time>2026-07-07T15:47:23.000Z</time>
      </trkpt>
      <trkpt lat="47.57351" lon="16.10085">
        <ele>489.527921</ele>
        <time>2026-07-07T15:47:24.000Z</time>
      </trkpt>
      <trkpt lat="47.57347" lon="16.10084">
        <ele>489.574498</ele>
        <time>2026-07-07T15:47:25.000Z</time>
      </trkpt>
      <trkpt lat="47.57342" lon="16.10083">
        <ele>489.621455</ele>
        <time>2026-07-07T15:47:26.000Z</time>
      </trkpt>
      <trkpt lat="47.57338" lon="16.10082">
        <ele>489.667025</ele>
        <time>2026-07-07T15:47:27.000Z</time>
      </trkpt>
      <trkpt lat="47.57333" lon="16.10081">
        <ele>489.713719</ele>
        <time>2026-07-07T15:47:28.000Z</time>
      </trkpt>
      <trkpt lat="47.57329" lon="16.10079">
        <ele>489.761418</ele>
        <time>2026-07-07T15:47:29.000Z</time>
      </trkpt>
      <trkpt lat="47.57324" lon="16.10078">
        <ele>489.807995</ele>
        <time>2026-07-07T15:47:30.000Z</time>
      </trkpt>
      <trkpt lat="47.5732" lon="16.10077">
        <ele>489.853684</ele>
        <time>2026-07-07T15:47:31.000Z</time>
      </trkpt>
      <trkpt lat="47.57315" lon="16.10076">
        <ele>489.899969</ele>
        <time>2026-07-07T15:47:32.000Z</time>
      </trkpt>
      <trkpt lat="47.57311" lon="16.10076">
        <ele>489.944147</ele>
        <time>2026-07-07T15:47:33.000Z</time>
      </trkpt>
      <trkpt lat="47.57307" lon="16.10075">
        <ele>489.988597</ele>
        <time>2026-07-07T15:47:34.000Z</time>
      </trkpt>
      <trkpt lat="47.57302" lon="16.10073">
        <ele>490.035291</ele>
        <time>2026-07-07T15:47:35.000Z</time>
      </trkpt>
      <trkpt lat="47.57298" lon="16.10073">
        <ele>490.081577</ele>
        <time>2026-07-07T15:47:36.000Z</time>
      </trkpt>
      <trkpt lat="47.57293" lon="16.10072">
        <ele>490.126848</ele>
        <time>2026-07-07T15:47:37.000Z</time>
      </trkpt>
      <trkpt lat="47.57289" lon="16.10071">
        <ele>490.173057</ele>
        <time>2026-07-07T15:47:38.000Z</time>
      </trkpt>
      <trkpt lat="47.57284" lon="16.1007">
        <ele>490.219342</ele>
        <time>2026-07-07T15:47:39.000Z</time>
      </trkpt>
      <trkpt lat="47.5728" lon="16.1007">
        <ele>490.26352</ele>
        <time>2026-07-07T15:47:40.000Z</time>
      </trkpt>
      <trkpt lat="47.57276" lon="16.10069">
        <ele>490.307697</ele>
        <time>2026-07-07T15:47:41.000Z</time>
      </trkpt>
      <trkpt lat="47.57271" lon="16.10069">
        <ele>490.35268</ele>
        <time>2026-07-07T15:47:42.000Z</time>
      </trkpt>
      <trkpt lat="47.57267" lon="16.10068">
        <ele>490.396642</ele>
        <time>2026-07-07T15:47:43.000Z</time>
      </trkpt>
      <trkpt lat="47.57263" lon="16.10068">
        <ele>490.437584</ele>
        <time>2026-07-07T15:47:44.000Z</time>
      </trkpt>
      <trkpt lat="47.57259" lon="16.10068">
        <ele>490.475377</ele>
        <time>2026-07-07T15:47:45.000Z</time>
      </trkpt>
      <trkpt lat="47.57256" lon="16.10067">
        <ele>490.514337</ele>
        <time>2026-07-07T15:47:46.000Z</time>
      </trkpt>
      <trkpt lat="47.57252" lon="16.10067">
        <ele>490.553169</ele>
        <time>2026-07-07T15:47:47.000Z</time>
      </trkpt>
      <trkpt lat="47.57247" lon="16.10067">
        <ele>490.598151</ele>
        <time>2026-07-07T15:47:48.000Z</time>
      </trkpt>
      <trkpt lat="47.57243" lon="16.10066">
        <ele>490.642328</ele>
        <time>2026-07-07T15:47:49.000Z</time>
      </trkpt>
      <trkpt lat="47.57239" lon="16.10066">
        <ele>490.686377</ele>
        <time>2026-07-07T15:47:50.000Z</time>
      </trkpt>
      <trkpt lat="47.57234" lon="16.10065">
        <ele>490.732354</ele>
        <time>2026-07-07T15:47:51.000Z</time>
      </trkpt>
      <trkpt lat="47.5723" lon="16.10065">
        <ele>490.778315</ele>
        <time>2026-07-07T15:47:52.000Z</time>
      </trkpt>
      <trkpt lat="47.57225" lon="16.10065">
        <ele>490.826392</ele>
        <time>2026-07-07T15:47:53.000Z</time>
      </trkpt>
      <trkpt lat="47.57221" lon="16.10065">
        <ele>490.872354</ele>
        <time>2026-07-07T15:47:54.000Z</time>
      </trkpt>
      <trkpt lat="47.57216" lon="16.10065">
        <ele>490.920372</ele>
        <time>2026-07-07T15:47:55.000Z</time>
      </trkpt>
      <trkpt lat="47.57211" lon="16.10065">
        <ele>490.967395</ele>
        <time>2026-07-07T15:47:56.000Z</time>
      </trkpt>
      <trkpt lat="47.57207" lon="16.10065">
        <ele>491.013351</ele>
        <time>2026-07-07T15:47:57.000Z</time>
      </trkpt>
      <trkpt lat="47.57202" lon="16.10065">
        <ele>491.061394</ele>
        <time>2026-07-07T15:47:58.000Z</time>
      </trkpt>
      <trkpt lat="47.57197" lon="16.10064">
        <ele>491.111629</ele>
        <time>2026-07-07T15:47:59.000Z</time>
      </trkpt>
      <trkpt lat="47.57193" lon="16.10064">
        <ele>491.16107</ele>
        <time>2026-07-07T15:48:00.000Z</time>
      </trkpt>
      <trkpt lat="47.57188" lon="16.10064">
        <ele>491.210511</ele>
        <time>2026-07-07T15:48:01.000Z</time>
      </trkpt>
      <trkpt lat="47.57183" lon="16.10064">
        <ele>491.257844</ele>
        <time>2026-07-07T15:48:02.000Z</time>
      </trkpt>
      <trkpt lat="47.57179" lon="16.10064">
        <ele>491.306228</ele>
        <time>2026-07-07T15:48:03.000Z</time>
      </trkpt>
      <trkpt lat="47.57174" lon="16.10064">
        <ele>491.35356</ele>
        <time>2026-07-07T15:48:04.000Z</time>
      </trkpt>
      <trkpt lat="47.5717" lon="16.10064">
        <ele>491.400898</ele>
        <time>2026-07-07T15:48:05.000Z</time>
      </trkpt>
      <trkpt lat="47.57165" lon="16.10064">
        <ele>491.447184</ele>
        <time>2026-07-07T15:48:06.000Z</time>
      </trkpt>
      <trkpt lat="47.57161" lon="16.10065">
        <ele>491.492435</ele>
        <time>2026-07-07T15:48:07.000Z</time>
      </trkpt>
      <trkpt lat="47.57157" lon="16.10065">
        <ele>491.537714</ele>
        <time>2026-07-07T15:48:08.000Z</time>
      </trkpt>
      <trkpt lat="47.57153" lon="16.10065">
        <ele>491.579937</ele>
        <time>2026-07-07T15:48:09.000Z</time>
      </trkpt>
      <trkpt lat="47.57149" lon="16.10066">
        <ele>491.621452</ele>
        <time>2026-07-07T15:48:10.000Z</time>
      </trkpt>
      <trkpt lat="47.57145" lon="16.10067">
        <ele>491.66495</ele>
        <time>2026-07-07T15:48:11.000Z</time>
      </trkpt>
      <trkpt lat="47.57141" lon="16.10068">
        <ele>491.70994</ele>
        <time>2026-07-07T15:48:12.000Z</time>
      </trkpt>
      <trkpt lat="47.57137" lon="16.1007">
        <ele>491.751303</ele>
        <time>2026-07-07T15:48:13.000Z</time>
      </trkpt>
      <trkpt lat="47.57133" lon="16.10072">
        <ele>491.794267</ele>
        <time>2026-07-07T15:48:14.000Z</time>
      </trkpt>
      <trkpt lat="47.57129" lon="16.10074">
        <ele>491.837441</ele>
        <time>2026-07-07T15:48:15.000Z</time>
      </trkpt>
      <trkpt lat="47.57126" lon="16.10077">
        <ele>491.879616</ele>
        <time>2026-07-07T15:48:16.000Z</time>
      </trkpt>
      <trkpt lat="47.57122" lon="16.10081">
        <ele>491.923646</ele>
        <time>2026-07-07T15:48:17.000Z</time>
      </trkpt>
      <trkpt lat="47.5712" lon="16.10085">
        <ele>491.966232</ele>
        <time>2026-07-07T15:48:18.000Z</time>
      </trkpt>
      <trkpt lat="47.57118" lon="16.10091">
        <ele>492.009163</ele>
        <time>2026-07-07T15:48:19.000Z</time>
      </trkpt>
      <trkpt lat="47.57117" lon="16.10096">
        <ele>492.051262</ele>
        <time>2026-07-07T15:48:20.000Z</time>
      </trkpt>
      <trkpt lat="47.57115" lon="16.10102">
        <ele>492.09336</ele>
        <time>2026-07-07T15:48:21.000Z</time>
      </trkpt>
      <trkpt lat="47.57113" lon="16.10106">
        <ele>492.131601</ele>
        <time>2026-07-07T15:48:22.000Z</time>
      </trkpt>
      <trkpt lat="47.5711" lon="16.10109">
        <ele>492.164009</ele>
        <time>2026-07-07T15:48:23.000Z</time>
      </trkpt>
      <trkpt lat="47.57107" lon="16.10109">
        <ele>492.196646</ele>
        <time>2026-07-07T15:48:24.000Z</time>
      </trkpt>
      <trkpt lat="47.57104" lon="16.10107">
        <ele>492.231948</ele>
        <time>2026-07-07T15:48:25.000Z</time>
      </trkpt>
      <trkpt lat="47.57102" lon="16.10105">
        <ele>492.263669</ele>
        <time>2026-07-07T15:48:26.000Z</time>
      </trkpt>
      <trkpt lat="47.571" lon="16.10102">
        <ele>492.288419</ele>
        <time>2026-07-07T15:48:27.000Z</time>
      </trkpt>
      <trkpt lat="47.571" lon="16.10099">
        <ele>492.312636</ele>
        <time>2026-07-07T15:48:28.000Z</time>
      </trkpt>
      <trkpt lat="47.57098" lon="16.10096">
        <ele>492.33339</ele>
        <time>2026-07-07T15:48:29.000Z</time>
      </trkpt>
      <trkpt lat="47.57096" lon="16.10096">
        <ele>492.354724</ele>
        <time>2026-07-07T15:48:30.000Z</time>
      </trkpt>
      <trkpt lat="47.57095" lon="16.10098">
        <ele>492.375946</ele>
        <time>2026-07-07T15:48:31.000Z</time>
      </trkpt>
      <trkpt lat="47.57095" lon="16.10101">
        <ele>492.395364</ele>
        <time>2026-07-07T15:48:32.000Z</time>
      </trkpt>
      <trkpt lat="47.57096" lon="16.10103">
        <ele>492.419485</ele>
        <time>2026-07-07T15:48:33.000Z</time>
      </trkpt>
      <trkpt lat="47.57099" lon="16.10106">
        <ele>492.452021</ele>
        <time>2026-07-07T15:48:34.000Z</time>
      </trkpt>
      <trkpt lat="47.57102" lon="16.10109">
        <ele>492.488937</ele>
        <time>2026-07-07T15:48:35.000Z</time>
      </trkpt>
      <trkpt lat="47.57105" lon="16.10112">
        <ele>492.529941</ele>
        <time>2026-07-07T15:48:36.000Z</time>
      </trkpt>
      <trkpt lat="47.57108" lon="16.10117">
        <ele>492.574436</ele>
        <time>2026-07-07T15:48:37.000Z</time>
      </trkpt>
      <trkpt lat="47.57111" lon="16.10122">
        <ele>492.622705</ele>
        <time>2026-07-07T15:48:38.000Z</time>
      </trkpt>
      <trkpt lat="47.57112" lon="16.10129">
        <ele>492.672567</ele>
        <time>2026-07-07T15:48:39.000Z</time>
      </trkpt>
      <trkpt lat="47.57114" lon="16.10136">
        <ele>492.722446</ele>
        <time>2026-07-07T15:48:40.000Z</time>
      </trkpt>
      <trkpt lat="47.57114" lon="16.10143">
        <ele>492.774068</ele>
        <time>2026-07-07T15:48:41.000Z</time>
      </trkpt>
      <trkpt lat="47.57114" lon="16.1015">
        <ele>492.824464</ele>
        <time>2026-07-07T15:48:42.000Z</time>
      </trkpt>
      <trkpt lat="47.57114" lon="16.10157">
        <ele>492.87344</ele>
        <time>2026-07-07T15:48:43.000Z</time>
      </trkpt>
      <trkpt lat="47.57114" lon="16.10164">
        <ele>492.921982</ele>
        <time>2026-07-07T15:48:44.000Z</time>
      </trkpt>
      <trkpt lat="47.57113" lon="16.1017">
        <ele>492.97049</ele>
        <time>2026-07-07T15:48:45.000Z</time>
      </trkpt>
      <trkpt lat="47.57112" lon="16.10177">
        <ele>493.018214</ele>
        <time>2026-07-07T15:48:46.000Z</time>
      </trkpt>
      <trkpt lat="47.57111" lon="16.10183">
        <ele>493.064304</ele>
        <time>2026-07-07T15:48:47.000Z</time>
      </trkpt>
      <trkpt lat="47.5711" lon="16.1019">
        <ele>493.112296</ele>
        <time>2026-07-07T15:48:48.000Z</time>
      </trkpt>
      <trkpt lat="47.57108" lon="16.10196">
        <ele>493.160577</ele>
        <time>2026-07-07T15:48:49.000Z</time>
      </trkpt>
      <trkpt lat="47.57107" lon="16.10202">
        <ele>493.207814</ele>
        <time>2026-07-07T15:48:50.000Z</time>
      </trkpt>
      <trkpt lat="47.57105" lon="16.10208">
        <ele>493.252309</ele>
        <time>2026-07-07T15:48:51.000Z</time>
      </trkpt>
      <trkpt lat="47.57102" lon="16.10211">
        <ele>493.290516</ele>
        <time>2026-07-07T15:48:52.000Z</time>
      </trkpt>
      <trkpt lat="47.57098" lon="16.10213">
        <ele>493.332626</ele>
        <time>2026-07-07T15:48:53.000Z</time>
      </trkpt>
      <trkpt lat="47.57094" lon="16.10213">
        <ele>493.37701</ele>
        <time>2026-07-07T15:48:54.000Z</time>
      </trkpt>
      <trkpt lat="47.5709" lon="16.1021">
        <ele>493.424524</ele>
        <time>2026-07-07T15:48:55.000Z</time>
      </trkpt>
      <trkpt lat="47.57086" lon="16.10208">
        <ele>493.472174</ele>
        <time>2026-07-07T15:48:56.000Z</time>
      </trkpt>
      <trkpt lat="47.57082" lon="16.10205">
        <ele>493.519494</ele>
        <time>2026-07-07T15:48:57.000Z</time>
      </trkpt>
      <trkpt lat="47.57078" lon="16.10202">
        <ele>493.565874</ele>
        <time>2026-07-07T15:48:58.000Z</time>
      </trkpt>
      <trkpt lat="47.57074" lon="16.10199">
        <ele>493.608788</ele>
        <time>2026-07-07T15:48:59.000Z</time>
      </trkpt>
      <trkpt lat="47.57071" lon="16.10196">
        <ele>493.653305</ele>
        <time>2026-07-07T15:49:00.000Z</time>
      </trkpt>
      <trkpt lat="47.57067" lon="16.10193">
        <ele>493.695982</ele>
        <time>2026-07-07T15:49:01.000Z</time>
      </trkpt>
      <trkpt lat="47.57064" lon="16.1019">
        <ele>493.737608</ele>
        <time>2026-07-07T15:49:02.000Z</time>
      </trkpt>
      <trkpt lat="47.57061" lon="16.10187">
        <ele>493.776832</ele>
        <time>2026-07-07T15:49:03.000Z</time>
      </trkpt>
      <trkpt lat="47.57057" lon="16.10184">
        <ele>493.817538</ele>
        <time>2026-07-07T15:49:04.000Z</time>
      </trkpt>
      <trkpt lat="47.57054" lon="16.10182">
        <ele>493.857133</ele>
        <time>2026-07-07T15:49:05.000Z</time>
      </trkpt>
      <trkpt lat="47.5705" lon="16.1018">
        <ele>493.897546</ele>
        <time>2026-07-07T15:49:06.000Z</time>
      </trkpt>
      <trkpt lat="47.57046" lon="16.10178">
        <ele>493.940468</ele>
        <time>2026-07-07T15:49:07.000Z</time>
      </trkpt>
      <trkpt lat="47.57043" lon="16.10175">
        <ele>493.983055</ele>
        <time>2026-07-07T15:49:08.000Z</time>
      </trkpt>
      <trkpt lat="47.57039" lon="16.10172">
        <ele>494.028878</ele>
        <time>2026-07-07T15:49:09.000Z</time>
      </trkpt>
      <trkpt lat="47.57035" lon="16.1017">
        <ele>494.074981</ele>
        <time>2026-07-07T15:49:10.000Z</time>
      </trkpt>
      <trkpt lat="47.57031" lon="16.10167">
        <ele>494.121376</ele>
        <time>2026-07-07T15:49:11.000Z</time>
      </trkpt>
      <trkpt lat="47.57027" lon="16.10164">
        <ele>494.169699</ele>
        <time>2026-07-07T15:49:12.000Z</time>
      </trkpt>
      <trkpt lat="47.57022" lon="16.10162">
        <ele>494.216961</ele>
        <time>2026-07-07T15:49:13.000Z</time>
      </trkpt>
      <trkpt lat="47.57018" lon="16.1016">
        <ele>494.265215</ele>
        <time>2026-07-07T15:49:14.000Z</time>
      </trkpt>
      <trkpt lat="47.57014" lon="16.10157">
        <ele>494.312729</ele>
        <time>2026-07-07T15:49:15.000Z</time>
      </trkpt>
      <trkpt lat="47.5701" lon="16.10155">
        <ele>494.358832</ele>
        <time>2026-07-07T15:49:16.000Z</time>
      </trkpt>
      <trkpt lat="47.57006" lon="16.10152">
        <ele>494.403314</ele>
        <time>2026-07-07T15:49:17.000Z</time>
      </trkpt>
      <trkpt lat="47.57002" lon="16.10149">
        <ele>494.446846</ele>
        <time>2026-07-07T15:49:18.000Z</time>
      </trkpt>
      <trkpt lat="47.56998" lon="16.10147">
        <ele>494.49295</ele>
        <time>2026-07-07T15:49:19.000Z</time>
      </trkpt>
      <trkpt lat="47.56994" lon="16.10144">
        <ele>494.539344</ele>
        <time>2026-07-07T15:49:20.000Z</time>
      </trkpt>
      <trkpt lat="47.5699" lon="16.10142">
        <ele>494.586141</ele>
        <time>2026-07-07T15:49:21.000Z</time>
      </trkpt>
      <trkpt lat="47.56986" lon="16.10139">
        <ele>494.633403</ele>
        <time>2026-07-07T15:49:22.000Z</time>
      </trkpt>
      <trkpt lat="47.56982" lon="16.10137">
        <ele>494.681903</ele>
        <time>2026-07-07T15:49:23.000Z</time>
      </trkpt>
      <trkpt lat="47.56977" lon="16.10135">
        <ele>494.730483</ele>
        <time>2026-07-07T15:49:24.000Z</time>
      </trkpt>
      <trkpt lat="47.56973" lon="16.10133">
        <ele>494.779682</ele>
        <time>2026-07-07T15:49:25.000Z</time>
      </trkpt>
      <trkpt lat="47.56969" lon="16.10131">
        <ele>494.827253</ele>
        <time>2026-07-07T15:49:26.000Z</time>
      </trkpt>
      <trkpt lat="47.56964" lon="16.10129">
        <ele>494.877884</ele>
        <time>2026-07-07T15:49:27.000Z</time>
      </trkpt>
      <trkpt lat="47.5696" lon="16.10128">
        <ele>494.939505</ele>
        <time>2026-07-07T15:49:28.000Z</time>
      </trkpt>
      <trkpt lat="47.56955" lon="16.10126">
        <ele>494.999037</ele>
        <time>2026-07-07T15:49:29.000Z</time>
      </trkpt>
      <trkpt lat="47.56951" lon="16.10125">
        <ele>495.059707</ele>
        <time>2026-07-07T15:49:30.000Z</time>
      </trkpt>
      <trkpt lat="47.56947" lon="16.10124">
        <ele>495.117939</ele>
        <time>2026-07-07T15:49:31.000Z</time>
      </trkpt>
      <trkpt lat="47.56942" lon="16.10123">
        <ele>495.178609</ele>
        <time>2026-07-07T15:49:32.000Z</time>
      </trkpt>
      <trkpt lat="47.56938" lon="16.10121">
        <ele>495.235365</ele>
        <time>2026-07-07T15:49:33.000Z</time>
      </trkpt>
      <trkpt lat="47.56934" lon="16.1012">
        <ele>495.2905</ele>
        <time>2026-07-07T15:49:34.000Z</time>
      </trkpt>
      <trkpt lat="47.5693" lon="16.1012">
        <ele>495.343848</ele>
        <time>2026-07-07T15:49:35.000Z</time>
      </trkpt>
      <trkpt lat="47.56926" lon="16.1012">
        <ele>495.395628</ele>
        <time>2026-07-07T15:49:36.000Z</time>
      </trkpt>
      <trkpt lat="47.56922" lon="16.1012">
        <ele>495.443397</ele>
        <time>2026-07-07T15:49:37.000Z</time>
      </trkpt>
      <trkpt lat="47.56919" lon="16.1012">
        <ele>495.489916</ele>
        <time>2026-07-07T15:49:38.000Z</time>
      </trkpt>
      <trkpt lat="47.56916" lon="16.1012">
        <ele>495.532528</ele>
        <time>2026-07-07T15:49:39.000Z</time>
      </trkpt>
      <trkpt lat="47.56913" lon="16.10121">
        <ele>495.572426</ele>
        <time>2026-07-07T15:49:40.000Z</time>
      </trkpt>
      <trkpt lat="47.5691" lon="16.10121">
        <ele>495.608353</ele>
        <time>2026-07-07T15:49:41.000Z</time>
      </trkpt>
      <trkpt lat="47.56907" lon="16.10122">
        <ele>495.642113</ele>
        <time>2026-07-07T15:49:42.000Z</time>
      </trkpt>
      <trkpt lat="47.56905" lon="16.10123">
        <ele>495.676472</ele>
        <time>2026-07-07T15:49:43.000Z</time>
      </trkpt>
      <trkpt lat="47.56902" lon="16.10124">
        <ele>495.712115</ele>
        <time>2026-07-07T15:49:44.000Z</time>
      </trkpt>
      <trkpt lat="47.56899" lon="16.10125">
        <ele>495.754126</ele>
        <time>2026-07-07T15:49:45.000Z</time>
      </trkpt>
      <trkpt lat="47.56896" lon="16.10127">
        <ele>495.799542</ele>
        <time>2026-07-07T15:49:46.000Z</time>
      </trkpt>
      <trkpt lat="47.56893" lon="16.10129">
        <ele>495.849001</ele>
        <time>2026-07-07T15:49:47.000Z</time>
      </trkpt>
      <trkpt lat="47.56889" lon="16.10131">
        <ele>495.901574</ele>
        <time>2026-07-07T15:49:48.000Z</time>
      </trkpt>
      <trkpt lat="47.56885" lon="16.10133">
        <ele>495.953127</ele>
        <time>2026-07-07T15:49:49.000Z</time>
      </trkpt>
      <trkpt lat="47.56882" lon="16.10136">
        <ele>496.008294</ele>
        <time>2026-07-07T15:49:50.000Z</time>
      </trkpt>
      <trkpt lat="47.56878" lon="16.10138">
        <ele>496.063461</ele>
        <time>2026-07-07T15:49:51.000Z</time>
      </trkpt>
      <trkpt lat="47.56874" lon="16.10141">
        <ele>496.120722</ele>
        <time>2026-07-07T15:49:52.000Z</time>
      </trkpt>
      <trkpt lat="47.5687" lon="16.10143">
        <ele>496.176737</ele>
        <time>2026-07-07T15:49:53.000Z</time>
      </trkpt>
      <trkpt lat="47.56866" lon="16.10145">
        <ele>496.232752</ele>
        <time>2026-07-07T15:49:54.000Z</time>
      </trkpt>
      <trkpt lat="47.56862" lon="16.10147">
        <ele>496.291288</ele>
        <time>2026-07-07T15:49:55.000Z</time>
      </trkpt>
      <trkpt lat="47.56857" lon="16.10149">
        <ele>496.349302</ele>
        <time>2026-07-07T15:49:56.000Z</time>
      </trkpt>
      <trkpt lat="47.56853" lon="16.1015">
        <ele>496.405338</ele>
        <time>2026-07-07T15:49:57.000Z</time>
      </trkpt>
      <trkpt lat="47.56849" lon="16.10151">
        <ele>496.462094</ele>
        <time>2026-07-07T15:49:58.000Z</time>
      </trkpt>
      <trkpt lat="47.56845" lon="16.10152">
        <ele>496.519404</ele>
        <time>2026-07-07T15:49:59.000Z</time>
      </trkpt>
      <trkpt lat="47.5684" lon="16.10152">
        <ele>496.579115</ele>
        <time>2026-07-07T15:50:00.000Z</time>
      </trkpt>
      <trkpt lat="47.56836" lon="16.10151">
        <ele>496.637745</ele>
        <time>2026-07-07T15:50:01.000Z</time>
      </trkpt>
      <trkpt lat="47.56832" lon="16.1015">
        <ele>496.696362</ele>
        <time>2026-07-07T15:50:02.000Z</time>
      </trkpt>
      <trkpt lat="47.56827" lon="16.10148">
        <ele>496.754898</ele>
        <time>2026-07-07T15:50:03.000Z</time>
      </trkpt>
      <trkpt lat="47.56823" lon="16.10145">
        <ele>496.812158</ele>
        <time>2026-07-07T15:50:04.000Z</time>
      </trkpt>
      <trkpt lat="47.56819" lon="16.10143">
        <ele>496.869719</ele>
        <time>2026-07-07T15:50:05.000Z</time>
      </trkpt>
      <trkpt lat="47.56815" lon="16.10141">
        <ele>496.928255</ele>
        <time>2026-07-07T15:50:06.000Z</time>
      </trkpt>
      <trkpt lat="47.56811" lon="16.10139">
        <ele>496.986791</ele>
        <time>2026-07-07T15:50:07.000Z</time>
      </trkpt>
      <trkpt lat="47.56807" lon="16.10137">
        <ele>497.044065</ele>
        <time>2026-07-07T15:50:08.000Z</time>
      </trkpt>
      <trkpt lat="47.56803" lon="16.10135">
        <ele>497.103174</ele>
        <time>2026-07-07T15:50:09.000Z</time>
      </trkpt>
      <trkpt lat="47.56799" lon="16.10133">
        <ele>497.159787</ele>
        <time>2026-07-07T15:50:10.000Z</time>
      </trkpt>
      <trkpt lat="47.56795" lon="16.10131">
        <ele>497.2136</ele>
        <time>2026-07-07T15:50:11.000Z</time>
      </trkpt>
      <trkpt lat="47.56791" lon="16.10128">
        <ele>497.281414</ele>
        <time>2026-07-07T15:50:12.000Z</time>
      </trkpt>
      <trkpt lat="47.56787" lon="16.10126">
        <ele>497.364713</ele>
        <time>2026-07-07T15:50:13.000Z</time>
      </trkpt>
      <trkpt lat="47.56783" lon="16.10123">
        <ele>497.455396</ele>
        <time>2026-07-07T15:50:14.000Z</time>
      </trkpt>
      <trkpt lat="47.56779" lon="16.10121">
        <ele>497.539828</ele>
        <time>2026-07-07T15:50:15.000Z</time>
      </trkpt>
      <trkpt lat="47.56775" lon="16.10118">
        <ele>497.626091</ele>
        <time>2026-07-07T15:50:16.000Z</time>
      </trkpt>
      <trkpt lat="47.56771" lon="16.10115">
        <ele>497.714128</ele>
        <time>2026-07-07T15:50:17.000Z</time>
      </trkpt>
      <trkpt lat="47.56768" lon="16.10111">
        <ele>497.80237</ele>
        <time>2026-07-07T15:50:18.000Z</time>
      </trkpt>
      <trkpt lat="47.56764" lon="16.10108">
        <ele>497.89201</ele>
        <time>2026-07-07T15:50:19.000Z</time>
      </trkpt>
      <trkpt lat="47.5676" lon="16.10104">
        <ele>497.986272</ele>
        <time>2026-07-07T15:50:20.000Z</time>
      </trkpt>
      <trkpt lat="47.56756" lon="16.101">
        <ele>498.073283</ele>
        <time>2026-07-07T15:50:21.000Z</time>
      </trkpt>
      <trkpt lat="47.56753" lon="16.10096">
        <ele>498.16425</ele>
        <time>2026-07-07T15:50:22.000Z</time>
      </trkpt>
      <trkpt lat="47.56749" lon="16.10093">
        <ele>498.256095</ele>
        <time>2026-07-07T15:50:23.000Z</time>
      </trkpt>
      <trkpt lat="47.56745" lon="16.10089">
        <ele>498.344647</ele>
        <time>2026-07-07T15:50:24.000Z</time>
      </trkpt>
      <trkpt lat="47.56742" lon="16.10084">
        <ele>498.434876</ele>
        <time>2026-07-07T15:50:25.000Z</time>
      </trkpt>
      <trkpt lat="47.56738" lon="16.1008">
        <ele>498.52185</ele>
        <time>2026-07-07T15:50:26.000Z</time>
      </trkpt>
      <trkpt lat="47.56735" lon="16.10076">
        <ele>498.611997</ele>
        <time>2026-07-07T15:50:27.000Z</time>
      </trkpt>
      <trkpt lat="47.56731" lon="16.10073">
        <ele>498.698924</ele>
        <time>2026-07-07T15:50:28.000Z</time>
      </trkpt>
      <trkpt lat="47.56728" lon="16.10069">
        <ele>498.785852</ele>
        <time>2026-07-07T15:50:29.000Z</time>
      </trkpt>
      <trkpt lat="47.56724" lon="16.10065">
        <ele>498.87528</ele>
        <time>2026-07-07T15:50:30.000Z</time>
      </trkpt>
      <trkpt lat="47.5672" lon="16.10062">
        <ele>498.962847</ele>
        <time>2026-07-07T15:50:31.000Z</time>
      </trkpt>
      <trkpt lat="47.56716" lon="16.10059">
        <ele>499.051479</ele>
        <time>2026-07-07T15:50:32.000Z</time>
      </trkpt>
      <trkpt lat="47.56712" lon="16.10057">
        <ele>499.138456</ele>
        <time>2026-07-07T15:50:33.000Z</time>
      </trkpt>
      <trkpt lat="47.56708" lon="16.10054">
        <ele>499.224419</ele>
        <time>2026-07-07T15:50:34.000Z</time>
      </trkpt>
      <trkpt lat="47.56704" lon="16.10052">
        <ele>499.308577</ele>
        <time>2026-07-07T15:50:35.000Z</time>
      </trkpt>
      <trkpt lat="47.567" lon="16.10051">
        <ele>499.390623</ele>
        <time>2026-07-07T15:50:36.000Z</time>
      </trkpt>
      <trkpt lat="47.56696" lon="16.1005">
        <ele>499.475852</ele>
        <time>2026-07-07T15:50:37.000Z</time>
      </trkpt>
      <trkpt lat="47.56692" lon="16.10049">
        <ele>499.556721</ele>
        <time>2026-07-07T15:50:38.000Z</time>
      </trkpt>
      <trkpt lat="47.56688" lon="16.10048">
        <ele>499.637782</ele>
        <time>2026-07-07T15:50:39.000Z</time>
      </trkpt>
      <trkpt lat="47.56684" lon="16.10047">
        <ele>499.719829</ele>
        <time>2026-07-07T15:50:40.000Z</time>
      </trkpt>
      <trkpt lat="47.5668" lon="16.10046">
        <ele>499.797673</ele>
        <time>2026-07-07T15:50:41.000Z</time>
      </trkpt>
      <trkpt lat="47.56676" lon="16.10045">
        <ele>499.882902</ele>
        <time>2026-07-07T15:50:42.000Z</time>
      </trkpt>
      <trkpt lat="47.56672" lon="16.10044">
        <ele>499.963771</ele>
        <time>2026-07-07T15:50:43.000Z</time>
      </trkpt>
      <trkpt lat="47.56668" lon="16.10043">
        <ele>500.04947</ele>
        <time>2026-07-07T15:50:44.000Z</time>
      </trkpt>
      <trkpt lat="47.56664" lon="16.10041">
        <ele>500.135951</ele>
        <time>2026-07-07T15:50:45.000Z</time>
      </trkpt>
      <trkpt lat="47.5666" lon="16.10039">
        <ele>500.221914</ele>
        <time>2026-07-07T15:50:46.000Z</time>
      </trkpt>
      <trkpt lat="47.56656" lon="16.10036">
        <ele>500.312597</ele>
        <time>2026-07-07T15:50:47.000Z</time>
      </trkpt>
      <trkpt lat="47.56651" lon="16.10033">
        <ele>500.404322</ele>
        <time>2026-07-07T15:50:48.000Z</time>
      </trkpt>
      <trkpt lat="47.56647" lon="16.1003">
        <ele>500.49476</ele>
        <time>2026-07-07T15:50:49.000Z</time>
      </trkpt>
      <trkpt lat="47.56644" lon="16.10027">
        <ele>500.585857</ele>
        <time>2026-07-07T15:50:50.000Z</time>
      </trkpt>
      <trkpt lat="47.5664" lon="16.10023">
        <ele>500.682536</ele>
        <time>2026-07-07T15:50:51.000Z</time>
      </trkpt>
      <trkpt lat="47.56636" lon="16.10018">
        <ele>500.775914</ele>
        <time>2026-07-07T15:50:52.000Z</time>
      </trkpt>
      <trkpt lat="47.56632" lon="16.10014">
        <ele>500.870988</ele>
        <time>2026-07-07T15:50:53.000Z</time>
      </trkpt>
      <trkpt lat="47.56629" lon="16.1001">
        <ele>500.976909</ele>
        <time>2026-07-07T15:50:54.000Z</time>
      </trkpt>
      <trkpt lat="47.56625" lon="16.10005">
        <ele>501.083194</ele>
        <time>2026-07-07T15:50:55.000Z</time>
      </trkpt>
      <trkpt lat="47.56622" lon="16.1">
        <ele>501.185681</ele>
        <time>2026-07-07T15:50:56.000Z</time>
      </trkpt>
      <trkpt lat="47.56619" lon="16.09995">
        <ele>501.292387</ele>
        <time>2026-07-07T15:50:57.000Z</time>
      </trkpt>
      <trkpt lat="47.56616" lon="16.0999">
        <ele>501.397916</ele>
        <time>2026-07-07T15:50:58.000Z</time>
      </trkpt>
      <trkpt lat="47.56613" lon="16.09984">
        <ele>501.501974</ele>
        <time>2026-07-07T15:50:59.000Z</time>
      </trkpt>
      <trkpt lat="47.5661" lon="16.09979">
        <ele>501.606335</ele>
        <time>2026-07-07T15:51:00.000Z</time>
      </trkpt>
      <trkpt lat="47.56607" lon="16.09975">
        <ele>501.707713</ele>
        <time>2026-07-07T15:51:01.000Z</time>
      </trkpt>
      <trkpt lat="47.56604" lon="16.0997">
        <ele>501.813635</ele>
        <time>2026-07-07T15:51:02.000Z</time>
      </trkpt>
      <trkpt lat="47.566" lon="16.09966">
        <ele>501.922056</ele>
        <time>2026-07-07T15:51:03.000Z</time>
      </trkpt>
      <trkpt lat="47.56596" lon="16.09963">
        <ele>502.028243</ele>
        <time>2026-07-07T15:51:04.000Z</time>
      </trkpt>
      <trkpt lat="47.56592" lon="16.09959">
        <ele>502.134898</ele>
        <time>2026-07-07T15:51:05.000Z</time>
      </trkpt>
      <trkpt lat="47.56588" lon="16.09957">
        <ele>502.239553</ele>
        <time>2026-07-07T15:51:06.000Z</time>
      </trkpt>
      <trkpt lat="47.56583" lon="16.09955">
        <ele>502.339499</ele>
        <time>2026-07-07T15:51:07.000Z</time>
      </trkpt>
      <trkpt lat="47.56579" lon="16.09954">
        <ele>502.442657</ele>
        <time>2026-07-07T15:51:08.000Z</time>
      </trkpt>
      <trkpt lat="47.56575" lon="16.09955">
        <ele>502.541389</ele>
        <time>2026-07-07T15:51:09.000Z</time>
      </trkpt>
      <trkpt lat="47.5657" lon="16.09956">
        <ele>502.642031</ele>
        <time>2026-07-07T15:51:10.000Z</time>
      </trkpt>
      <trkpt lat="47.56566" lon="16.09958">
        <ele>502.744594</ele>
        <time>2026-07-07T15:51:11.000Z</time>
      </trkpt>
      <trkpt lat="47.56562" lon="16.09959">
        <ele>502.846329</ele>
        <time>2026-07-07T15:51:12.000Z</time>
      </trkpt>
      <trkpt lat="47.56557" lon="16.09961">
        <ele>502.947678</ele>
        <time>2026-07-07T15:51:13.000Z</time>
      </trkpt>
      <trkpt lat="47.56553" lon="16.09962">
        <ele>503.050888</ele>
        <time>2026-07-07T15:51:14.000Z</time>
      </trkpt>
      <trkpt lat="47.56548" lon="16.09964">
        <ele>503.15541</ele>
        <time>2026-07-07T15:51:15.000Z</time>
      </trkpt>
      <trkpt lat="47.56544" lon="16.09964">
        <ele>503.259017</ele>
        <time>2026-07-07T15:51:16.000Z</time>
      </trkpt>
      <trkpt lat="47.5654" lon="16.09965">
        <ele>503.354003</ele>
        <time>2026-07-07T15:51:17.000Z</time>
      </trkpt>
      <trkpt lat="47.56536" lon="16.09966">
        <ele>503.451246</ele>
        <time>2026-07-07T15:51:18.000Z</time>
      </trkpt>
      <trkpt lat="47.56531" lon="16.09967">
        <ele>503.548489</ele>
        <time>2026-07-07T15:51:19.000Z</time>
      </trkpt>
      <trkpt lat="47.56527" lon="16.09969">
        <ele>503.644025</ele>
        <time>2026-07-07T15:51:20.000Z</time>
      </trkpt>
      <trkpt lat="47.56523" lon="16.0997">
        <ele>503.741268</ele>
        <time>2026-07-07T15:51:21.000Z</time>
      </trkpt>
      <trkpt lat="47.56519" lon="16.09971">
        <ele>503.839351</ele>
        <time>2026-07-07T15:51:22.000Z</time>
      </trkpt>
      <trkpt lat="47.56515" lon="16.09973">
        <ele>503.937552</ele>
        <time>2026-07-07T15:51:23.000Z</time>
      </trkpt>
      <trkpt lat="47.5651" lon="16.09974">
        <ele>504.041119</ele>
        <time>2026-07-07T15:51:24.000Z</time>
      </trkpt>
      <trkpt lat="47.56506" lon="16.09976">
        <ele>504.137301</ele>
        <time>2026-07-07T15:51:25.000Z</time>
      </trkpt>
      <trkpt lat="47.56502" lon="16.09977">
        <ele>504.2348</ele>
        <time>2026-07-07T15:51:26.000Z</time>
      </trkpt>
      <trkpt lat="47.56498" lon="16.09978">
        <ele>504.33321</ele>
        <time>2026-07-07T15:51:27.000Z</time>
      </trkpt>
      <trkpt lat="47.56494" lon="16.0998">
        <ele>504.433533</ele>
        <time>2026-07-07T15:51:28.000Z</time>
      </trkpt>
      <trkpt lat="47.5649" lon="16.09981">
        <ele>504.522685</ele>
        <time>2026-07-07T15:51:29.000Z</time>
      </trkpt>
      <trkpt lat="47.56486" lon="16.09982">
        <ele>504.621095</ele>
        <time>2026-07-07T15:51:30.000Z</time>
      </trkpt>
      <trkpt lat="47.56481" lon="16.09984">
        <ele>504.719178</ele>
        <time>2026-07-07T15:51:31.000Z</time>
      </trkpt>
      <trkpt lat="47.56477" lon="16.09985">
        <ele>504.815718</ele>
        <time>2026-07-07T15:51:32.000Z</time>
      </trkpt>
      <trkpt lat="47.56473" lon="16.09987">
        <ele>504.915246</ele>
        <time>2026-07-07T15:51:33.000Z</time>
      </trkpt>
      <trkpt lat="47.56469" lon="16.09988">
        <ele>504.991092</ele>
        <time>2026-07-07T15:51:34.000Z</time>
      </trkpt>
      <trkpt lat="47.56465" lon="16.0999">
        <ele>505.051654</ele>
        <time>2026-07-07T15:51:35.000Z</time>
      </trkpt>
      <trkpt lat="47.56461" lon="16.09991">
        <ele>505.108167</ele>
        <time>2026-07-07T15:51:36.000Z</time>
      </trkpt>
      <trkpt lat="47.56457" lon="16.09992">
        <ele>505.165107</ele>
        <time>2026-07-07T15:51:37.000Z</time>
      </trkpt>
      <trkpt lat="47.56453" lon="16.09994">
        <ele>505.222047</ele>
        <time>2026-07-07T15:51:38.000Z</time>
      </trkpt>
      <trkpt lat="47.56449" lon="16.09995">
        <ele>505.278988</ele>
        <time>2026-07-07T15:51:39.000Z</time>
      </trkpt>
      <trkpt lat="47.56445" lon="16.09997">
        <ele>505.335308</ele>
        <time>2026-07-07T15:51:40.000Z</time>
      </trkpt>
      <trkpt lat="47.56441" lon="16.09998">
        <ele>505.391628</ele>
        <time>2026-07-07T15:51:41.000Z</time>
      </trkpt>
      <trkpt lat="47.56437" lon="16.09999">
        <ele>505.447771</ele>
        <time>2026-07-07T15:51:42.000Z</time>
      </trkpt>
      <trkpt lat="47.56433" lon="16.1">
        <ele>505.50224</ele>
        <time>2026-07-07T15:51:43.000Z</time>
      </trkpt>
      <trkpt lat="47.56429" lon="16.1">
        <ele>505.557637</ele>
        <time>2026-07-07T15:51:44.000Z</time>
      </trkpt>
      <trkpt lat="47.56425" lon="16.1">
        <ele>505.612845</ele>
        <time>2026-07-07T15:51:45.000Z</time>
      </trkpt>
      <trkpt lat="47.56421" lon="16.1">
        <ele>505.668046</ele>
        <time>2026-07-07T15:51:46.000Z</time>
      </trkpt>
      <trkpt lat="47.56417" lon="16.1">
        <ele>505.723254</ele>
        <time>2026-07-07T15:51:47.000Z</time>
      </trkpt>
      <trkpt lat="47.56413" lon="16.1">
        <ele>505.77858</ele>
        <time>2026-07-07T15:51:48.000Z</time>
      </trkpt>
      <trkpt lat="47.56409" lon="16.09999">
        <ele>505.834063</ele>
        <time>2026-07-07T15:51:49.000Z</time>
      </trkpt>
      <trkpt lat="47.56405" lon="16.09998">
        <ele>505.890383</ele>
        <time>2026-07-07T15:51:50.000Z</time>
      </trkpt>
      <trkpt lat="47.56401" lon="16.09996">
        <ele>505.947809</ele>
        <time>2026-07-07T15:51:51.000Z</time>
      </trkpt>
      <trkpt lat="47.56397" lon="16.09994">
        <ele>506.006371</ele>
        <time>2026-07-07T15:51:52.000Z</time>
      </trkpt>
      <trkpt lat="47.56393" lon="16.09992">
        <ele>506.063375</ele>
        <time>2026-07-07T15:51:53.000Z</time>
      </trkpt>
      <trkpt lat="47.56389" lon="16.09989">
        <ele>506.123284</ele>
        <time>2026-07-07T15:51:54.000Z</time>
      </trkpt>
      <trkpt lat="47.56385" lon="16.09987">
        <ele>506.185075</ele>
        <time>2026-07-07T15:51:55.000Z</time>
      </trkpt>
      <trkpt lat="47.56381" lon="16.09984">
        <ele>506.247374</ele>
        <time>2026-07-07T15:51:56.000Z</time>
      </trkpt>
      <trkpt lat="47.56377" lon="16.09981">
        <ele>506.312546</ele>
        <time>2026-07-07T15:51:57.000Z</time>
      </trkpt>
      <trkpt lat="47.56372" lon="16.09978">
        <ele>506.376887</ele>
        <time>2026-07-07T15:51:58.000Z</time>
      </trkpt>
      <trkpt lat="47.56368" lon="16.09975">
        <ele>506.442475</ele>
        <time>2026-07-07T15:51:59.000Z</time>
      </trkpt>
      <trkpt lat="47.56364" lon="16.09972">
        <ele>506.507291</ele>
        <time>2026-07-07T15:52:00.000Z</time>
      </trkpt>
      <trkpt lat="47.56359" lon="16.0997">
        <ele>506.572321</ele>
        <time>2026-07-07T15:52:01.000Z</time>
      </trkpt>
      <trkpt lat="47.56355" lon="16.09967">
        <ele>506.639621</ele>
        <time>2026-07-07T15:52:02.000Z</time>
      </trkpt>
      <trkpt lat="47.5635" lon="16.09965">
        <ele>506.703413</ele>
        <time>2026-07-07T15:52:03.000Z</time>
      </trkpt>
      <trkpt lat="47.56346" lon="16.09963">
        <ele>506.769734</ele>
        <time>2026-07-07T15:52:04.000Z</time>
      </trkpt>
      <trkpt lat="47.56342" lon="16.0996">
        <ele>506.832428</ele>
        <time>2026-07-07T15:52:05.000Z</time>
      </trkpt>
      <trkpt lat="47.56338" lon="16.09957">
        <ele>506.895242</ele>
        <time>2026-07-07T15:52:06.000Z</time>
      </trkpt>
      <trkpt lat="47.56333" lon="16.09955">
        <ele>506.957703</ele>
        <time>2026-07-07T15:52:07.000Z</time>
      </trkpt>
      <trkpt lat="47.56329" lon="16.09952">
        <ele>507.021447</ele>
        <time>2026-07-07T15:52:08.000Z</time>
      </trkpt>
      <trkpt lat="47.56325" lon="16.0995">
        <ele>507.085895</ele>
        <time>2026-07-07T15:52:09.000Z</time>
      </trkpt>
      <trkpt lat="47.5632" lon="16.09947">
        <ele>507.152215</ele>
        <time>2026-07-07T15:52:10.000Z</time>
      </trkpt>
      <trkpt lat="47.56316" lon="16.09945">
        <ele>507.218536</ele>
        <time>2026-07-07T15:52:11.000Z</time>
      </trkpt>
      <trkpt lat="47.56311" lon="16.09942">
        <ele>507.284256</ele>
        <time>2026-07-07T15:52:12.000Z</time>
      </trkpt>
      <trkpt lat="47.56307" lon="16.09939">
        <ele>507.35091</ele>
        <time>2026-07-07T15:52:13.000Z</time>
      </trkpt>
      <trkpt lat="47.56302" lon="16.09937">
        <ele>507.417231</ele>
        <time>2026-07-07T15:52:14.000Z</time>
      </trkpt>
      <trkpt lat="47.56298" lon="16.09934">
        <ele>507.468835</ele>
        <time>2026-07-07T15:52:15.000Z</time>
      </trkpt>
      <trkpt lat="47.56294" lon="16.09931">
        <ele>507.510891</ele>
        <time>2026-07-07T15:52:16.000Z</time>
      </trkpt>
      <trkpt lat="47.56289" lon="16.09928">
        <ele>507.554259</ele>
        <time>2026-07-07T15:52:17.000Z</time>
      </trkpt>
      <trkpt lat="47.56285" lon="16.09925">
        <ele>507.596816</ele>
        <time>2026-07-07T15:52:18.000Z</time>
      </trkpt>
      <trkpt lat="47.56281" lon="16.09922">
        <ele>507.639118</ele>
        <time>2026-07-07T15:52:19.000Z</time>
      </trkpt>
      <trkpt lat="47.56276" lon="16.0992">
        <ele>507.681533</ele>
        <time>2026-07-07T15:52:20.000Z</time>
      </trkpt>
      <trkpt lat="47.56272" lon="16.09917">
        <ele>507.72335</ele>
        <time>2026-07-07T15:52:21.000Z</time>
      </trkpt>
      <trkpt lat="47.56268" lon="16.09914">
        <ele>507.764588</ele>
        <time>2026-07-07T15:52:22.000Z</time>
      </trkpt>
      <trkpt lat="47.56264" lon="16.09911">
        <ele>507.80529</ele>
        <time>2026-07-07T15:52:23.000Z</time>
      </trkpt>
      <trkpt lat="47.5626" lon="16.09907">
        <ele>507.844867</ele>
        <time>2026-07-07T15:52:24.000Z</time>
      </trkpt>
      <trkpt lat="47.56257" lon="16.09903">
        <ele>507.885193</ele>
        <time>2026-07-07T15:52:25.000Z</time>
      </trkpt>
      <trkpt lat="47.56253" lon="16.09899">
        <ele>507.926683</ele>
        <time>2026-07-07T15:52:26.000Z</time>
      </trkpt>
      <trkpt lat="47.5625" lon="16.09894">
        <ele>507.969543</ele>
        <time>2026-07-07T15:52:27.000Z</time>
      </trkpt>
      <trkpt lat="47.56246" lon="16.0989">
        <ele>508.012751</ele>
        <time>2026-07-07T15:52:28.000Z</time>
      </trkpt>
      <trkpt lat="47.56242" lon="16.09886">
        <ele>508.054972</ele>
        <time>2026-07-07T15:52:29.000Z</time>
      </trkpt>
      <trkpt lat="47.56237" lon="16.09883">
        <ele>508.098901</ele>
        <time>2026-07-07T15:52:30.000Z</time>
      </trkpt>
      <trkpt lat="47.56233" lon="16.09879">
        <ele>508.143616</ele>
        <time>2026-07-07T15:52:31.000Z</time>
      </trkpt>
      <trkpt lat="47.56228" lon="16.09876">
        <ele>508.188574</ele>
        <time>2026-07-07T15:52:32.000Z</time>
      </trkpt>
      <trkpt lat="47.56224" lon="16.09873">
        <ele>508.233532</ele>
        <time>2026-07-07T15:52:33.000Z</time>
      </trkpt>
      <trkpt lat="47.56219" lon="16.0987">
        <ele>508.279946</ele>
        <time>2026-07-07T15:52:34.000Z</time>
      </trkpt>
      <trkpt lat="47.56214" lon="16.09867">
        <ele>508.325504</ele>
        <time>2026-07-07T15:52:35.000Z</time>
      </trkpt>
      <trkpt lat="47.5621" lon="16.09865">
        <ele>508.370425</ele>
        <time>2026-07-07T15:52:36.000Z</time>
      </trkpt>
      <trkpt lat="47.56205" lon="16.09862">
        <ele>508.415561</ele>
        <time>2026-07-07T15:52:37.000Z</time>
      </trkpt>
      <trkpt lat="47.562" lon="16.09859">
        <ele>508.461063</ele>
        <time>2026-07-07T15:52:38.000Z</time>
      </trkpt>
      <trkpt lat="47.56196" lon="16.09856">
        <ele>508.504688</ele>
        <time>2026-07-07T15:52:39.000Z</time>
      </trkpt>
      <trkpt lat="47.56192" lon="16.09852">
        <ele>508.548616</ele>
        <time>2026-07-07T15:52:40.000Z</time>
      </trkpt>
      <trkpt lat="47.56187" lon="16.09849">
        <ele>508.592545</ele>
        <time>2026-07-07T15:52:41.000Z</time>
      </trkpt>
      <trkpt lat="47.56183" lon="16.09846">
        <ele>508.636729</ele>
        <time>2026-07-07T15:52:42.000Z</time>
      </trkpt>
      <trkpt lat="47.56178" lon="16.09843">
        <ele>508.680668</ele>
        <time>2026-07-07T15:52:43.000Z</time>
      </trkpt>
      <trkpt lat="47.56174" lon="16.0984">
        <ele>508.725589</ele>
        <time>2026-07-07T15:52:44.000Z</time>
      </trkpt>
      <trkpt lat="47.56169" lon="16.09837">
        <ele>508.769528</ele>
        <time>2026-07-07T15:52:45.000Z</time>
      </trkpt>
      <trkpt lat="47.56164" lon="16.09835">
        <ele>508.81445</ele>
        <time>2026-07-07T15:52:46.000Z</time>
      </trkpt>
      <trkpt lat="47.5616" lon="16.09832">
        <ele>508.858389</ele>
        <time>2026-07-07T15:52:47.000Z</time>
      </trkpt>
      <trkpt lat="47.56156" lon="16.09829">
        <ele>508.900445</ele>
        <time>2026-07-07T15:52:48.000Z</time>
      </trkpt>
      <trkpt lat="47.56151" lon="16.09826">
        <ele>508.943917</ele>
        <time>2026-07-07T15:52:49.000Z</time>
      </trkpt>
      <trkpt lat="47.56147" lon="16.09824">
        <ele>508.985973</ele>
        <time>2026-07-07T15:52:50.000Z</time>
      </trkpt>
      <trkpt lat="47.56142" lon="16.09821">
        <ele>509.029341</ele>
        <time>2026-07-07T15:52:51.000Z</time>
      </trkpt>
      <trkpt lat="47.56138" lon="16.09818">
        <ele>509.088883</ele>
        <time>2026-07-07T15:52:52.000Z</time>
      </trkpt>
      <trkpt lat="47.56134" lon="16.09815">
        <ele>509.176164</ele>
        <time>2026-07-07T15:52:53.000Z</time>
      </trkpt>
      <trkpt lat="47.5613" lon="16.09813">
        <ele>509.260337</ele>
        <time>2026-07-07T15:52:54.000Z</time>
      </trkpt>
      <trkpt lat="47.56126" lon="16.09811">
        <ele>509.340106</ele>
        <time>2026-07-07T15:52:55.000Z</time>
      </trkpt>
      <trkpt lat="47.56122" lon="16.09809">
        <ele>509.410987</ele>
        <time>2026-07-07T15:52:56.000Z</time>
      </trkpt>
      <trkpt lat="47.56119" lon="16.09807">
        <ele>509.47819</ele>
        <time>2026-07-07T15:52:57.000Z</time>
      </trkpt>
      <trkpt lat="47.56116" lon="16.09804">
        <ele>509.544512</ele>
        <time>2026-07-07T15:52:58.000Z</time>
      </trkpt>
      <trkpt lat="47.56113" lon="16.09801">
        <ele>509.612456</ele>
        <time>2026-07-07T15:52:59.000Z</time>
      </trkpt>
      <trkpt lat="47.5611" lon="16.098">
        <ele>509.673613</ele>
        <time>2026-07-07T15:53:00.000Z</time>
      </trkpt>
      <trkpt lat="47.56107" lon="16.09798">
        <ele>509.737032</ele>
        <time>2026-07-07T15:53:01.000Z</time>
      </trkpt>
      <trkpt lat="47.56104" lon="16.09796">
        <ele>509.798189</ele>
        <time>2026-07-07T15:53:02.000Z</time>
      </trkpt>
      <trkpt lat="47.561" lon="16.09794">
        <ele>509.868221</ele>
        <time>2026-07-07T15:53:03.000Z</time>
      </trkpt>
      <trkpt lat="47.56097" lon="16.09791">
        <ele>509.942347</ele>
        <time>2026-07-07T15:53:04.000Z</time>
      </trkpt>
      <trkpt lat="47.56093" lon="16.09788">
        <ele>510.022537</ele>
        <time>2026-07-07T15:53:05.000Z</time>
      </trkpt>
      <trkpt lat="47.56089" lon="16.09785">
        <ele>510.105591</ele>
        <time>2026-07-07T15:53:06.000Z</time>
      </trkpt>
      <trkpt lat="47.56085" lon="16.09783">
        <ele>510.19434</ele>
        <time>2026-07-07T15:53:07.000Z</time>
      </trkpt>
      <trkpt lat="47.5608" lon="16.0978">
        <ele>510.284327</ele>
        <time>2026-07-07T15:53:08.000Z</time>
      </trkpt>
      <trkpt lat="47.56076" lon="16.09777">
        <ele>510.375592</ele>
        <time>2026-07-07T15:53:09.000Z</time>
      </trkpt>
      <trkpt lat="47.56072" lon="16.09774">
        <ele>510.464862</ele>
        <time>2026-07-07T15:53:10.000Z</time>
      </trkpt>
      <trkpt lat="47.56067" lon="16.09772">
        <ele>510.557084</ele>
        <time>2026-07-07T15:53:11.000Z</time>
      </trkpt>
      <trkpt lat="47.56063" lon="16.09769">
        <ele>510.649305</ele>
        <time>2026-07-07T15:53:12.000Z</time>
      </trkpt>
      <trkpt lat="47.56058" lon="16.09766">
        <ele>510.741041</ele>
        <time>2026-07-07T15:53:13.000Z</time>
      </trkpt>
      <trkpt lat="47.56054" lon="16.09763">
        <ele>510.833263</ele>
        <time>2026-07-07T15:53:14.000Z</time>
      </trkpt>
      <trkpt lat="47.56049" lon="16.0976">
        <ele>510.926501</ele>
        <time>2026-07-07T15:53:15.000Z</time>
      </trkpt>
      <trkpt lat="47.56045" lon="16.09757">
        <ele>511.017423</ele>
        <time>2026-07-07T15:53:16.000Z</time>
      </trkpt>
      <trkpt lat="47.56041" lon="16.09754">
        <ele>511.107249</ele>
        <time>2026-07-07T15:53:17.000Z</time>
      </trkpt>
      <trkpt lat="47.56036" lon="16.09751">
        <ele>511.199972</ele>
        <time>2026-07-07T15:53:18.000Z</time>
      </trkpt>
      <trkpt lat="47.56032" lon="16.09748">
        <ele>511.288072</ele>
        <time>2026-07-07T15:53:19.000Z</time>
      </trkpt>
      <trkpt lat="47.56028" lon="16.09745">
        <ele>511.375046</ele>
        <time>2026-07-07T15:53:20.000Z</time>
      </trkpt>
      <trkpt lat="47.56024" lon="16.09741">
        <ele>511.465477</ele>
        <time>2026-07-07T15:53:21.000Z</time>
      </trkpt>
      <trkpt lat="47.5602" lon="16.09738">
        <ele>511.550772</ele>
        <time>2026-07-07T15:53:22.000Z</time>
      </trkpt>
      <trkpt lat="47.56015" lon="16.09735">
        <ele>511.640578</ele>
        <time>2026-07-07T15:53:23.000Z</time>
      </trkpt>
      <trkpt lat="47.56011" lon="16.09733">
        <ele>511.732313</ele>
        <time>2026-07-07T15:53:24.000Z</time>
      </trkpt>
      <trkpt lat="47.56006" lon="16.09731">
        <ele>511.819277</ele>
        <time>2026-07-07T15:53:25.000Z</time>
      </trkpt>
      <trkpt lat="47.56002" lon="16.09729">
        <ele>511.902749</ele>
        <time>2026-07-07T15:53:26.000Z</time>
      </trkpt>
      <trkpt lat="47.55997" lon="16.09728">
        <ele>511.993595</ele>
        <time>2026-07-07T15:53:27.000Z</time>
      </trkpt>
      <trkpt lat="47.55993" lon="16.09727">
        <ele>512.079576</ele>
        <time>2026-07-07T15:53:28.000Z</time>
      </trkpt>
      <trkpt lat="47.55988" lon="16.09726">
        <ele>512.165216</ele>
        <time>2026-07-07T15:53:29.000Z</time>
      </trkpt>
      <trkpt lat="47.55984" lon="16.09725">
        <ele>512.251613</ele>
        <time>2026-07-07T15:53:30.000Z</time>
      </trkpt>
      <trkpt lat="47.55979" lon="16.09723">
        <ele>512.339869</ele>
        <time>2026-07-07T15:53:31.000Z</time>
      </trkpt>
      <trkpt lat="47.55975" lon="16.09722">
        <ele>512.4265</ele>
        <time>2026-07-07T15:53:32.000Z</time>
      </trkpt>
      <trkpt lat="47.5597" lon="16.0972">
        <ele>512.504351</ele>
        <time>2026-07-07T15:53:33.000Z</time>
      </trkpt>
      <trkpt lat="47.55966" lon="16.09719">
        <ele>512.576234</ele>
        <time>2026-07-07T15:53:34.000Z</time>
      </trkpt>
      <trkpt lat="47.55962" lon="16.09717">
        <ele>512.646533</ele>
        <time>2026-07-07T15:53:35.000Z</time>
      </trkpt>
      <trkpt lat="47.55957" lon="16.09716">
        <ele>512.720748</ele>
        <time>2026-07-07T15:53:36.000Z</time>
      </trkpt>
      <trkpt lat="47.55953" lon="16.09715">
        <ele>512.791948</ele>
        <time>2026-07-07T15:53:37.000Z</time>
      </trkpt>
      <trkpt lat="47.55949" lon="16.09714">
        <ele>512.867002</ele>
        <time>2026-07-07T15:53:38.000Z</time>
      </trkpt>
      <trkpt lat="47.55944" lon="16.09712">
        <ele>512.93942</ele>
        <time>2026-07-07T15:53:39.000Z</time>
      </trkpt>
      <trkpt lat="47.5594" lon="16.0971">
        <ele>513.014474</ele>
        <time>2026-07-07T15:53:40.000Z</time>
      </trkpt>
      <trkpt lat="47.55935" lon="16.09709">
        <ele>513.087942</ele>
        <time>2026-07-07T15:53:41.000Z</time>
      </trkpt>
      <trkpt lat="47.55931" lon="16.09708">
        <ele>513.162156</ele>
        <time>2026-07-07T15:53:42.000Z</time>
      </trkpt>
      <trkpt lat="47.55926" lon="16.09706">
        <ele>513.238799</ele>
        <time>2026-07-07T15:53:43.000Z</time>
      </trkpt>
      <trkpt lat="47.55922" lon="16.09705">
        <ele>513.313853</ele>
        <time>2026-07-07T15:53:44.000Z</time>
      </trkpt>
      <trkpt lat="47.55917" lon="16.09704">
        <ele>513.388254</ele>
        <time>2026-07-07T15:53:45.000Z</time>
      </trkpt>
      <trkpt lat="47.55913" lon="16.09702">
        <ele>513.461261</ele>
        <time>2026-07-07T15:53:46.000Z</time>
      </trkpt>
      <trkpt lat="47.55909" lon="16.09701">
        <ele>513.5329</ele>
        <time>2026-07-07T15:53:47.000Z</time>
      </trkpt>
      <trkpt lat="47.55904" lon="16.097">
        <ele>513.604312</ele>
        <time>2026-07-07T15:53:48.000Z</time>
      </trkpt>
      <trkpt lat="47.559" lon="16.09698">
        <ele>513.678303</ele>
        <time>2026-07-07T15:53:49.000Z</time>
      </trkpt>
      <trkpt lat="47.55896" lon="16.09696">
        <ele>513.747022</ele>
        <time>2026-07-07T15:53:50.000Z</time>
      </trkpt>
      <trkpt lat="47.55891" lon="16.09695">
        <ele>513.820744</ele>
        <time>2026-07-07T15:53:51.000Z</time>
      </trkpt>
      <trkpt lat="47.55887" lon="16.09693">
        <ele>513.892627</ele>
        <time>2026-07-07T15:53:52.000Z</time>
      </trkpt>
      <trkpt lat="47.55883" lon="16.09692">
        <ele>513.965044</ele>
        <time>2026-07-07T15:53:53.000Z</time>
      </trkpt>
      <trkpt lat="47.55878" lon="16.0969">
        <ele>514.038512</ele>
        <time>2026-07-07T15:53:54.000Z</time>
      </trkpt>
      <trkpt lat="47.55874" lon="16.09689">
        <ele>514.112913</ele>
        <time>2026-07-07T15:53:55.000Z</time>
      </trkpt>
      <trkpt lat="47.55869" lon="16.09688">
        <ele>514.186956</ele>
        <time>2026-07-07T15:53:56.000Z</time>
      </trkpt>
      <trkpt lat="47.55865" lon="16.09687">
        <ele>514.26156</ele>
        <time>2026-07-07T15:53:57.000Z</time>
      </trkpt>
      <trkpt lat="47.55861" lon="16.09685">
        <ele>514.332971</ele>
        <time>2026-07-07T15:53:58.000Z</time>
      </trkpt>
      <trkpt lat="47.55856" lon="16.09684">
        <ele>514.404172</ele>
        <time>2026-07-07T15:53:59.000Z</time>
      </trkpt>
      <trkpt lat="47.55852" lon="16.09682">
        <ele>514.478447</ele>
        <time>2026-07-07T15:54:00.000Z</time>
      </trkpt>
      <trkpt lat="47.55848" lon="16.0968">
        <ele>514.55444</ele>
        <time>2026-07-07T15:54:01.000Z</time>
      </trkpt>
      <trkpt lat="47.55844" lon="16.09676">
        <ele>514.628936</ele>
        <time>2026-07-07T15:54:02.000Z</time>
      </trkpt>
      <trkpt lat="47.5584" lon="16.09672">
        <ele>514.704153</ele>
        <time>2026-07-07T15:54:03.000Z</time>
      </trkpt>
      <trkpt lat="47.55836" lon="16.09668">
        <ele>514.775482</ele>
        <time>2026-07-07T15:54:04.000Z</time>
      </trkpt>
      <trkpt lat="47.55833" lon="16.09664">
        <ele>514.847718</ele>
        <time>2026-07-07T15:54:05.000Z</time>
      </trkpt>
      <trkpt lat="47.5583" lon="16.0966">
        <ele>514.915724</ele>
        <time>2026-07-07T15:54:06.000Z</time>
      </trkpt>
      <trkpt lat="47.55826" lon="16.09657">
        <ele>514.981265</ele>
        <time>2026-07-07T15:54:07.000Z</time>
      </trkpt>
      <trkpt lat="47.55821" lon="16.09651">
        <ele>515.096998</ele>
        <time>2026-07-07T15:54:08.000Z</time>
      </trkpt>
      <trkpt lat="47.55818" lon="16.09648">
        <ele>515.148336</ele>
        <time>2026-07-07T15:54:10.000Z</time>
      </trkpt>
      <trkpt lat="47.55816" lon="16.09644">
        <ele>515.199274</ele>
        <time>2026-07-07T15:54:11.000Z</time>
      </trkpt>
      <trkpt lat="47.55811" lon="16.09638">
        <ele>515.308967</ele>
        <time>2026-07-07T15:54:13.000Z</time>
      </trkpt>
      <trkpt lat="47.55805" lon="16.09631">
        <ele>515.449772</ele>
        <time>2026-07-07T15:54:15.000Z</time>
      </trkpt>
      <trkpt lat="47.55798" lon="16.09624">
        <ele>515.621874</ele>
        <time>2026-07-07T15:54:16.000Z</time>
      </trkpt>
      <trkpt lat="47.55795" lon="16.0962">
        <ele>515.706533</ele>
        <time>2026-07-07T15:54:17.000Z</time>
      </trkpt>
      <trkpt lat="47.55792" lon="16.09616">
        <ele>515.789649</ele>
        <time>2026-07-07T15:54:18.000Z</time>
      </trkpt>
      <trkpt lat="47.55789" lon="16.09612">
        <ele>515.87561</ele>
        <time>2026-07-07T15:54:19.000Z</time>
      </trkpt>
      <trkpt lat="47.55786" lon="16.09607">
        <ele>515.964579</ele>
        <time>2026-07-07T15:54:20.000Z</time>
      </trkpt>
      <trkpt lat="47.55782" lon="16.09603">
        <ele>516.054486</ele>
        <time>2026-07-07T15:54:21.000Z</time>
      </trkpt>
      <trkpt lat="47.55779" lon="16.09599">
        <ele>516.145519</ele>
        <time>2026-07-07T15:54:22.000Z</time>
      </trkpt>
      <trkpt lat="47.55775" lon="16.09595">
        <ele>516.236551</ele>
        <time>2026-07-07T15:54:23.000Z</time>
      </trkpt>
      <trkpt lat="47.55772" lon="16.09591">
        <ele>516.322625</ele>
        <time>2026-07-07T15:54:24.000Z</time>
      </trkpt>
      <trkpt lat="47.55769" lon="16.09587">
        <ele>516.413657</ele>
        <time>2026-07-07T15:54:25.000Z</time>
      </trkpt>
      <trkpt lat="47.55765" lon="16.09583">
        <ele>516.50325</ele>
        <time>2026-07-07T15:54:26.000Z</time>
      </trkpt>
      <trkpt lat="47.55762" lon="16.09579">
        <ele>516.593532</ele>
        <time>2026-07-07T15:54:27.000Z</time>
      </trkpt>
      <trkpt lat="47.55759" lon="16.09575">
        <ele>516.680465</ele>
        <time>2026-07-07T15:54:28.000Z</time>
      </trkpt>
      <trkpt lat="47.55756" lon="16.09571">
        <ele>516.756814</ele>
        <time>2026-07-07T15:54:29.000Z</time>
      </trkpt>
      <trkpt lat="47.55753" lon="16.09568">
        <ele>516.835629</ele>
        <time>2026-07-07T15:54:30.000Z</time>
      </trkpt>
      <trkpt lat="47.5575" lon="16.09564">
        <ele>516.912579</ele>
        <time>2026-07-07T15:54:31.000Z</time>
      </trkpt>
      <trkpt lat="47.55747" lon="16.09561">
        <ele>516.983741</ele>
        <time>2026-07-07T15:54:32.000Z</time>
      </trkpt>
      <trkpt lat="47.55744" lon="16.09558">
        <ele>517.054948</ele>
        <time>2026-07-07T15:54:33.000Z</time>
      </trkpt>
      <trkpt lat="47.55742" lon="16.09555">
        <ele>517.125454</ele>
        <time>2026-07-07T15:54:34.000Z</time>
      </trkpt>
      <trkpt lat="47.55739" lon="16.09551">
        <ele>517.196783</ele>
        <time>2026-07-07T15:54:35.000Z</time>
      </trkpt>
      <trkpt lat="47.55737" lon="16.09548">
        <ele>517.262719</ele>
        <time>2026-07-07T15:54:36.000Z</time>
      </trkpt>
      <trkpt lat="47.55735" lon="16.09545">
        <ele>517.328974</ele>
        <time>2026-07-07T15:54:37.000Z</time>
      </trkpt>
      <trkpt lat="47.55732" lon="16.09542">
        <ele>517.398478</ele>
        <time>2026-07-07T15:54:38.000Z</time>
      </trkpt>
      <trkpt lat="47.55729" lon="16.09539">
        <ele>517.46964</ele>
        <time>2026-07-07T15:54:39.000Z</time>
      </trkpt>
      <trkpt lat="47.55726" lon="16.09536">
        <ele>517.542467</ele>
        <time>2026-07-07T15:54:40.000Z</time>
      </trkpt>
      <trkpt lat="47.55723" lon="16.09532">
        <ele>517.621105</ele>
        <time>2026-07-07T15:54:41.000Z</time>
      </trkpt>
      <trkpt lat="47.5572" lon="16.09529">
        <ele>517.698055</ele>
        <time>2026-07-07T15:54:42.000Z</time>
      </trkpt>
      <trkpt lat="47.55717" lon="16.09525">
        <ele>517.779969</ele>
        <time>2026-07-07T15:54:43.000Z</time>
      </trkpt>
      <trkpt lat="47.55714" lon="16.09522">
        <ele>517.859478</ele>
        <time>2026-07-07T15:54:44.000Z</time>
      </trkpt>
      <trkpt lat="47.55711" lon="16.09519">
        <ele>517.939215</ele>
        <time>2026-07-07T15:54:45.000Z</time>
      </trkpt>
      <trkpt lat="47.55707" lon="16.09516">
        <ele>518.021208</ele>
        <time>2026-07-07T15:54:46.000Z</time>
      </trkpt>
      <trkpt lat="47.55704" lon="16.09513">
        <ele>518.102707</ele>
        <time>2026-07-07T15:54:47.000Z</time>
      </trkpt>
      <trkpt lat="47.557" lon="16.0951">
        <ele>518.183974</ele>
        <time>2026-07-07T15:54:48.000Z</time>
      </trkpt>
      <trkpt lat="47.55697" lon="16.09508">
        <ele>518.269604</ele>
        <time>2026-07-07T15:54:49.000Z</time>
      </trkpt>
      <trkpt lat="47.55693" lon="16.09505">
        <ele>518.353628</ele>
        <time>2026-07-07T15:54:50.000Z</time>
      </trkpt>
      <trkpt lat="47.55689" lon="16.09503">
        <ele>518.441028</ele>
        <time>2026-07-07T15:54:51.000Z</time>
      </trkpt>
      <trkpt lat="47.55685" lon="16.09501">
        <ele>518.529907</ele>
        <time>2026-07-07T15:54:52.000Z</time>
      </trkpt>
      <trkpt lat="47.55681" lon="16.09498">
        <ele>518.617984</ele>
        <time>2026-07-07T15:54:53.000Z</time>
      </trkpt>
      <trkpt lat="47.55677" lon="16.09496">
        <ele>518.703613</ele>
        <time>2026-07-07T15:54:54.000Z</time>
      </trkpt>
      <trkpt lat="47.55673" lon="16.09493">
        <ele>518.788556</ele>
        <time>2026-07-07T15:54:55.000Z</time>
      </trkpt>
      <trkpt lat="47.5567" lon="16.09491">
        <ele>518.874185</ele>
        <time>2026-07-07T15:54:56.000Z</time>
      </trkpt>
      <trkpt lat="47.55666" lon="16.09488">
        <ele>518.958725</ele>
        <time>2026-07-07T15:54:57.000Z</time>
      </trkpt>
      <trkpt lat="47.55662" lon="16.09486">
        <ele>519.04191</ele>
        <time>2026-07-07T15:54:58.000Z</time>
      </trkpt>
      <trkpt lat="47.55658" lon="16.09484">
        <ele>519.117707</ele>
        <time>2026-07-07T15:54:59.000Z</time>
      </trkpt>
      <trkpt lat="47.55655" lon="16.09481">
        <ele>519.182305</ele>
        <time>2026-07-07T15:55:00.000Z</time>
      </trkpt>
      <trkpt lat="47.55651" lon="16.09479">
        <ele>519.246465</ele>
        <time>2026-07-07T15:55:01.000Z</time>
      </trkpt>
      <trkpt lat="47.55648" lon="16.09477">
        <ele>519.316651</ele>
        <time>2026-07-07T15:55:02.000Z</time>
      </trkpt>
      <trkpt lat="47.55644" lon="16.09474">
        <ele>519.385746</ele>
        <time>2026-07-07T15:55:03.000Z</time>
      </trkpt>
      <trkpt lat="47.5564" lon="16.09472">
        <ele>519.454829</ele>
        <time>2026-07-07T15:55:04.000Z</time>
      </trkpt>
      <trkpt lat="47.55636" lon="16.09469">
        <ele>519.528463</ele>
        <time>2026-07-07T15:55:05.000Z</time>
      </trkpt>
      <trkpt lat="47.55633" lon="16.09466">
        <ele>519.598649</ele>
        <time>2026-07-07T15:55:06.000Z</time>
      </trkpt>
      <trkpt lat="47.55629" lon="16.09464">
        <ele>519.670754</ele>
        <time>2026-07-07T15:55:07.000Z</time>
      </trkpt>
      <trkpt lat="47.55625" lon="16.09462">
        <ele>519.742359</ele>
        <time>2026-07-07T15:55:08.000Z</time>
      </trkpt>
      <trkpt lat="47.55621" lon="16.09459">
        <ele>519.816122</ele>
        <time>2026-07-07T15:55:09.000Z</time>
      </trkpt>
      <trkpt lat="47.55617" lon="16.09457">
        <ele>519.892203</ele>
        <time>2026-07-07T15:55:10.000Z</time>
      </trkpt>
      <trkpt lat="47.55613" lon="16.09454">
        <ele>519.963808</ele>
        <time>2026-07-07T15:55:11.000Z</time>
      </trkpt>
      <trkpt lat="47.55609" lon="16.09452">
        <ele>520.032903</ele>
        <time>2026-07-07T15:55:12.000Z</time>
      </trkpt>
      <trkpt lat="47.55605" lon="16.09449">
        <ele>520.104508</ele>
        <time>2026-07-07T15:55:13.000Z</time>
      </trkpt>
      <trkpt lat="47.55601" lon="16.09447">
        <ele>520.177411</ele>
        <time>2026-07-07T15:55:14.000Z</time>
      </trkpt>
      <trkpt lat="47.55597" lon="16.09444">
        <ele>520.250313</ele>
        <time>2026-07-07T15:55:15.000Z</time>
      </trkpt>
      <trkpt lat="47.55593" lon="16.09442">
        <ele>520.322066</ele>
        <time>2026-07-07T15:55:16.000Z</time>
      </trkpt>
      <trkpt lat="47.55589" lon="16.09439">
        <ele>520.397233</ele>
        <time>2026-07-07T15:55:17.000Z</time>
      </trkpt>
      <trkpt lat="47.55586" lon="16.09436">
        <ele>520.463016</ele>
        <time>2026-07-07T15:55:18.000Z</time>
      </trkpt>
      <trkpt lat="47.55582" lon="16.09434">
        <ele>520.534745</ele>
        <time>2026-07-07T15:55:19.000Z</time>
      </trkpt>
      <trkpt lat="47.55578" lon="16.09432">
        <ele>520.607648</ele>
        <time>2026-07-07T15:55:20.000Z</time>
      </trkpt>
      <trkpt lat="47.55574" lon="16.09429">
        <ele>520.681411</ele>
        <time>2026-07-07T15:55:21.000Z</time>
      </trkpt>
      <trkpt lat="47.5557" lon="16.09427">
        <ele>520.756095</ele>
        <time>2026-07-07T15:55:22.000Z</time>
      </trkpt>
      <trkpt lat="47.55566" lon="16.09424">
        <ele>520.833885</ele>
        <time>2026-07-07T15:55:23.000Z</time>
      </trkpt>
      <trkpt lat="47.55562" lon="16.09421">
        <ele>520.908101</ele>
        <time>2026-07-07T15:55:24.000Z</time>
      </trkpt>
      <trkpt lat="47.55558" lon="16.09419">
        <ele>520.986586</ele>
        <time>2026-07-07T15:55:25.000Z</time>
      </trkpt>
      <trkpt lat="47.55553" lon="16.09416">
        <ele>521.063071</ele>
        <time>2026-07-07T15:55:26.000Z</time>
      </trkpt>
      <trkpt lat="47.55549" lon="16.09414">
        <ele>521.138847</ele>
        <time>2026-07-07T15:55:27.000Z</time>
      </trkpt>
      <trkpt lat="47.55545" lon="16.09411">
        <ele>521.215752</ele>
        <time>2026-07-07T15:55:28.000Z</time>
      </trkpt>
      <trkpt lat="47.55541" lon="16.09408">
        <ele>521.291416</ele>
        <time>2026-07-07T15:55:29.000Z</time>
      </trkpt>
      <trkpt lat="47.55537" lon="16.09406">
        <ele>521.362534</ele>
        <time>2026-07-07T15:55:30.000Z</time>
      </trkpt>
      <trkpt lat="47.55533" lon="16.09403">
        <ele>521.438197</ele>
        <time>2026-07-07T15:55:31.000Z</time>
      </trkpt>
      <trkpt lat="47.55529" lon="16.094">
        <ele>521.512414</ele>
        <time>2026-07-07T15:55:32.000Z</time>
      </trkpt>
      <trkpt lat="47.55525" lon="16.09398">
        <ele>521.589319</ele>
        <time>2026-07-07T15:55:33.000Z</time>
      </trkpt>
      <trkpt lat="47.55521" lon="16.09395">
        <ele>521.663083</ele>
        <time>2026-07-07T15:55:34.000Z</time>
      </trkpt>
      <trkpt lat="47.55517" lon="16.09393">
        <ele>521.737767</ele>
        <time>2026-07-07T15:55:35.000Z</time>
      </trkpt>
      <trkpt lat="47.55513" lon="16.0939">
        <ele>521.815557</ele>
        <time>2026-07-07T15:55:36.000Z</time>
      </trkpt>
      <trkpt lat="47.55509" lon="16.09387">
        <ele>521.88932</ele>
        <time>2026-07-07T15:55:37.000Z</time>
      </trkpt>
      <trkpt lat="47.55505" lon="16.09385">
        <ele>521.966997</ele>
        <time>2026-07-07T15:55:38.000Z</time>
      </trkpt>
      <trkpt lat="47.555" lon="16.09383">
        <ele>522.043902</ele>
        <time>2026-07-07T15:55:39.000Z</time>
      </trkpt>
      <trkpt lat="47.55496" lon="16.0938">
        <ele>522.119234</ele>
        <time>2026-07-07T15:55:40.000Z</time>
      </trkpt>
      <trkpt lat="47.55492" lon="16.09378">
        <ele>522.212053</ele>
        <time>2026-07-07T15:55:41.000Z</time>
      </trkpt>
      <trkpt lat="47.55488" lon="16.09375">
        <ele>522.313424</ele>
        <time>2026-07-07T15:55:42.000Z</time>
      </trkpt>
      <trkpt lat="47.55484" lon="16.09373">
        <ele>522.412755</ele>
        <time>2026-07-07T15:55:43.000Z</time>
      </trkpt>
      <trkpt lat="47.5548" lon="16.0937">
        <ele>522.506391</ele>
        <time>2026-07-07T15:55:44.000Z</time>
      </trkpt>
      <trkpt lat="47.55476" lon="16.09368">
        <ele>522.599521</ele>
        <time>2026-07-07T15:55:45.000Z</time>
      </trkpt>
      <trkpt lat="47.55472" lon="16.09366">
        <ele>522.687535</ele>
        <time>2026-07-07T15:55:46.000Z</time>
      </trkpt>
      <trkpt lat="47.55468" lon="16.09365">
        <ele>522.776343</ele>
        <time>2026-07-07T15:55:47.000Z</time>
      </trkpt>
      <trkpt lat="47.55465" lon="16.09363">
        <ele>522.855756</ele>
        <time>2026-07-07T15:55:48.000Z</time>
      </trkpt>
      <trkpt lat="47.55462" lon="16.09359">
        <ele>522.928791</ele>
        <time>2026-07-07T15:55:49.000Z</time>
      </trkpt>
      <trkpt lat="47.55461" lon="16.09355">
        <ele>523.001516</ele>
        <time>2026-07-07T15:55:50.000Z</time>
      </trkpt>
      <trkpt lat="47.5546" lon="16.0935">
        <ele>523.075301</ele>
        <time>2026-07-07T15:55:51.000Z</time>
      </trkpt>
      <trkpt lat="47.5546" lon="16.09345">
        <ele>523.149486</ele>
        <time>2026-07-07T15:55:52.000Z</time>
      </trkpt>
      <trkpt lat="47.55461" lon="16.0934">
        <ele>523.222474</ele>
        <time>2026-07-07T15:55:53.000Z</time>
      </trkpt>
      <trkpt lat="47.55463" lon="16.09336">
        <ele>523.290249</ele>
        <time>2026-07-07T15:55:54.000Z</time>
      </trkpt>
      <trkpt lat="47.55464" lon="16.09332">
        <ele>523.358685</ele>
        <time>2026-07-07T15:55:55.000Z</time>
      </trkpt>
      <trkpt lat="47.55464" lon="16.09328">
        <ele>523.419568</ele>
        <time>2026-07-07T15:55:56.000Z</time>
      </trkpt>
      <trkpt lat="47.55463" lon="16.09324">
        <ele>523.477112</ele>
        <time>2026-07-07T15:55:57.000Z</time>
      </trkpt>
      <trkpt lat="47.55461" lon="16.09322">
        <ele>523.531776</ele>
        <time>2026-07-07T15:55:58.000Z</time>
      </trkpt>
      <trkpt lat="47.55458" lon="16.0932">
        <ele>523.599688</ele>
        <time>2026-07-07T15:55:59.000Z</time>
      </trkpt>
      <trkpt lat="47.55456" lon="16.09318">
        <ele>523.663309</ele>
        <time>2026-07-07T15:56:00.000Z</time>
      </trkpt>
      <trkpt lat="47.55453" lon="16.09316">
        <ele>523.737437</ele>
        <time>2026-07-07T15:56:01.000Z</time>
      </trkpt>
      <trkpt lat="47.5545" lon="16.09314">
        <ele>523.814854</ele>
        <time>2026-07-07T15:56:02.000Z</time>
      </trkpt>
      <trkpt lat="47.55446" lon="16.09312">
        <ele>523.901807</ele>
        <time>2026-07-07T15:56:03.000Z</time>
      </trkpt>
      <trkpt lat="47.55442" lon="16.09309">
        <ele>523.988403</ele>
        <time>2026-07-07T15:56:04.000Z</time>
      </trkpt>
      <trkpt lat="47.55439" lon="16.09306">
        <ele>524.077631</ele>
        <time>2026-07-07T15:56:05.000Z</time>
      </trkpt>
      <trkpt lat="47.55435" lon="16.09304">
        <ele>524.1721</ele>
        <time>2026-07-07T15:56:06.000Z</time>
      </trkpt>
      <trkpt lat="47.55431" lon="16.09301">
        <ele>524.263345</ele>
        <time>2026-07-07T15:56:07.000Z</time>
      </trkpt>
      <trkpt lat="47.55427" lon="16.09298">
        <ele>524.355831</ele>
        <time>2026-07-07T15:56:08.000Z</time>
      </trkpt>
      <trkpt lat="47.55423" lon="16.09296">
        <ele>524.450937</ele>
        <time>2026-07-07T15:56:09.000Z</time>
      </trkpt>
      <trkpt lat="47.5542" lon="16.09293">
        <ele>524.541579</ele>
        <time>2026-07-07T15:56:10.000Z</time>
      </trkpt>
      <trkpt lat="47.55417" lon="16.0929">
        <ele>524.617115</ele>
        <time>2026-07-07T15:56:11.000Z</time>
      </trkpt>
      <trkpt lat="47.55414" lon="16.09287">
        <ele>524.698672</ele>
        <time>2026-07-07T15:56:12.000Z</time>
      </trkpt>
      <trkpt lat="47.5541" lon="16.09284">
        <ele>524.785959</ele>
        <time>2026-07-07T15:56:13.000Z</time>
      </trkpt>
      <trkpt lat="47.55407" lon="16.0928">
        <ele>524.878625</ele>
        <time>2026-07-07T15:56:14.000Z</time>
      </trkpt>
      <trkpt lat="47.55404" lon="16.09277">
        <ele>524.965983</ele>
        <time>2026-07-07T15:56:15.000Z</time>
      </trkpt>
      <trkpt lat="47.554" lon="16.09273">
        <ele>525.056839</ele>
        <time>2026-07-07T15:56:16.000Z</time>
      </trkpt>
      <trkpt lat="47.55397" lon="16.09269">
        <ele>525.156627</ele>
        <time>2026-07-07T15:56:17.000Z</time>
      </trkpt>
      <trkpt lat="47.55393" lon="16.09266">
        <ele>525.255424</ele>
        <time>2026-07-07T15:56:18.000Z</time>
      </trkpt>
      <trkpt lat="47.55389" lon="16.09262">
        <ele>525.350648</ele>
        <time>2026-07-07T15:56:19.000Z</time>
      </trkpt>
      <trkpt lat="47.55386" lon="16.09258">
        <ele>525.447651</ele>
        <time>2026-07-07T15:56:20.000Z</time>
      </trkpt>
      <trkpt lat="47.55383" lon="16.09254">
        <ele>525.541218</ele>
        <time>2026-07-07T15:56:21.000Z</time>
      </trkpt>
      <trkpt lat="47.5538" lon="16.0925">
        <ele>525.625014</ele>
        <time>2026-07-07T15:56:22.000Z</time>
      </trkpt>
      <trkpt lat="47.55377" lon="16.09248">
        <ele>525.702045</ele>
        <time>2026-07-07T15:56:23.000Z</time>
      </trkpt>
      <trkpt lat="47.55374" lon="16.09245">
        <ele>525.767372</ele>
        <time>2026-07-07T15:56:24.000Z</time>
      </trkpt>
      <trkpt lat="47.55372" lon="16.09242">
        <ele>525.830063</ele>
        <time>2026-07-07T15:56:25.000Z</time>
      </trkpt>
      <trkpt lat="47.5537" lon="16.09239">
        <ele>525.899303</ele>
        <time>2026-07-07T15:56:26.000Z</time>
      </trkpt>
      <trkpt lat="47.55367" lon="16.09235">
        <ele>525.983093</ele>
        <time>2026-07-07T15:56:27.000Z</time>
      </trkpt>
      <trkpt lat="47.55364" lon="16.09231">
        <ele>526.06845</ele>
        <time>2026-07-07T15:56:28.000Z</time>
      </trkpt>
      <trkpt lat="47.55361" lon="16.09227">
        <ele>526.151546</ele>
        <time>2026-07-07T15:56:29.000Z</time>
      </trkpt>
      <trkpt lat="47.55357" lon="16.09223">
        <ele>526.234096</ele>
        <time>2026-07-07T15:56:30.000Z</time>
      </trkpt>
      <trkpt lat="47.55354" lon="16.09218">
        <ele>526.313857</ele>
        <time>2026-07-07T15:56:31.000Z</time>
      </trkpt>
      <trkpt lat="47.5535" lon="16.09214">
        <ele>526.392872</ele>
        <time>2026-07-07T15:56:32.000Z</time>
      </trkpt>
      <trkpt lat="47.55347" lon="16.0921">
        <ele>526.470427</ele>
        <time>2026-07-07T15:56:33.000Z</time>
      </trkpt>
      <trkpt lat="47.55343" lon="16.09207">
        <ele>526.545881</ele>
        <time>2026-07-07T15:56:34.000Z</time>
      </trkpt>
      <trkpt lat="47.5534" lon="16.09203">
        <ele>526.62066</ele>
        <time>2026-07-07T15:56:35.000Z</time>
      </trkpt>
      <trkpt lat="47.55336" lon="16.092">
        <ele>526.695439</ele>
        <time>2026-07-07T15:56:36.000Z</time>
      </trkpt>
      <trkpt lat="47.55333" lon="16.09196">
        <ele>526.770218</ele>
        <time>2026-07-07T15:56:37.000Z</time>
      </trkpt>
      <trkpt lat="47.55329" lon="16.09193">
        <ele>526.843052</ele>
        <time>2026-07-07T15:56:38.000Z</time>
      </trkpt>
      <trkpt lat="47.55326" lon="16.0919">
        <ele>526.910397</ele>
        <time>2026-07-07T15:56:39.000Z</time>
      </trkpt>
      <trkpt lat="47.55323" lon="16.09188">
        <ele>526.974463</ele>
        <time>2026-07-07T15:56:40.000Z</time>
      </trkpt>
      <trkpt lat="47.5532" lon="16.09185">
        <ele>527.030223</ele>
        <time>2026-07-07T15:56:41.000Z</time>
      </trkpt>
      <trkpt lat="47.55318" lon="16.09183">
        <ele>527.07793</ele>
        <time>2026-07-07T15:56:42.000Z</time>
      </trkpt>
      <trkpt lat="47.55316" lon="16.0918">
        <ele>527.12427</ele>
        <time>2026-07-07T15:56:43.000Z</time>
      </trkpt>
      <trkpt lat="47.55314" lon="16.09178">
        <ele>527.17337</ele>
        <time>2026-07-07T15:56:44.000Z</time>
      </trkpt>
      <trkpt lat="47.55311" lon="16.09175">
        <ele>527.228869</ele>
        <time>2026-07-07T15:56:45.000Z</time>
      </trkpt>
      <trkpt lat="47.55308" lon="16.09172">
        <ele>527.291659</ele>
        <time>2026-07-07T15:56:46.000Z</time>
      </trkpt>
      <trkpt lat="47.55305" lon="16.09169">
        <ele>527.355095</ele>
        <time>2026-07-07T15:56:47.000Z</time>
      </trkpt>
      <trkpt lat="47.55302" lon="16.09166">
        <ele>527.426702</ele>
        <time>2026-07-07T15:56:48.000Z</time>
      </trkpt>
      <trkpt lat="47.55298" lon="16.09163">
        <ele>527.504443</ele>
        <time>2026-07-07T15:56:49.000Z</time>
      </trkpt>
      <trkpt lat="47.55295" lon="16.09159">
        <ele>527.582268</ele>
        <time>2026-07-07T15:56:50.000Z</time>
      </trkpt>
      <trkpt lat="47.55291" lon="16.09154">
        <ele>527.664164</ele>
        <time>2026-07-07T15:56:51.000Z</time>
      </trkpt>
      <trkpt lat="47.55287" lon="16.09149">
        <ele>527.754719</ele>
        <time>2026-07-07T15:56:52.000Z</time>
      </trkpt>
      <trkpt lat="47.55283" lon="16.09144">
        <ele>527.843663</ele>
        <time>2026-07-07T15:56:53.000Z</time>
      </trkpt>
      <trkpt lat="47.55279" lon="16.0914">
        <ele>527.929799</ele>
        <time>2026-07-07T15:56:54.000Z</time>
      </trkpt>
      <trkpt lat="47.55276" lon="16.09136">
        <ele>528.015207</ele>
        <time>2026-07-07T15:56:55.000Z</time>
      </trkpt>
      <trkpt lat="47.55272" lon="16.09132">
        <ele>528.099355</ele>
        <time>2026-07-07T15:56:56.000Z</time>
      </trkpt>
      <trkpt lat="47.55267" lon="16.09128">
        <ele>528.187775</ele>
        <time>2026-07-07T15:56:57.000Z</time>
      </trkpt>
      <trkpt lat="47.55264" lon="16.09124">
        <ele>528.268964</ele>
        <time>2026-07-07T15:56:58.000Z</time>
      </trkpt>
      <trkpt lat="47.5526" lon="16.0912">
        <ele>528.352922</ele>
        <time>2026-07-07T15:56:59.000Z</time>
      </trkpt>
      <trkpt lat="47.55256" lon="16.09116">
        <ele>528.434035</ele>
        <time>2026-07-07T15:57:00.000Z</time>
      </trkpt>
      <trkpt lat="47.55252" lon="16.09112">
        <ele>528.515148</ele>
        <time>2026-07-07T15:57:01.000Z</time>
      </trkpt>
      <trkpt lat="47.55249" lon="16.09108">
        <ele>528.59491</ele>
        <time>2026-07-07T15:57:02.000Z</time>
      </trkpt>
      <trkpt lat="47.55245" lon="16.09104">
        <ele>528.676099</ele>
        <time>2026-07-07T15:57:03.000Z</time>
      </trkpt>
      <trkpt lat="47.55241" lon="16.09101">
        <ele>528.753839</ele>
        <time>2026-07-07T15:57:04.000Z</time>
      </trkpt>
      <trkpt lat="47.55238" lon="16.09097">
        <ele>528.832118</ele>
        <time>2026-07-07T15:57:05.000Z</time>
      </trkpt>
      <trkpt lat="47.55234" lon="16.09093">
        <ele>528.909003</ele>
        <time>2026-07-07T15:57:06.000Z</time>
      </trkpt>
      <trkpt lat="47.55231" lon="16.09089">
        <ele>528.988765</ele>
        <time>2026-07-07T15:57:07.000Z</time>
      </trkpt>
      <trkpt lat="47.55227" lon="16.09085">
        <ele>529.063545</ele>
        <time>2026-07-07T15:57:08.000Z</time>
      </trkpt>
      <trkpt lat="47.55224" lon="16.09082">
        <ele>529.138514</ele>
        <time>2026-07-07T15:57:09.000Z</time>
      </trkpt>
      <trkpt lat="47.5522" lon="16.09078">
        <ele>529.214656</ele>
        <time>2026-07-07T15:57:10.000Z</time>
      </trkpt>
      <trkpt lat="47.55217" lon="16.09074">
        <ele>529.303816</ele>
        <time>2026-07-07T15:57:11.000Z</time>
      </trkpt>
      <trkpt lat="47.55214" lon="16.0907">
        <ele>529.474259</ele>
        <time>2026-07-07T15:57:12.000Z</time>
      </trkpt>
      <trkpt lat="47.5521" lon="16.09066">
        <ele>529.646149</ele>
        <time>2026-07-07T15:57:13.000Z</time>
      </trkpt>
      <trkpt lat="47.55207" lon="16.09063">
        <ele>529.811993</ele>
        <time>2026-07-07T15:57:14.000Z</time>
      </trkpt>
      <trkpt lat="47.55203" lon="16.0906">
        <ele>529.981223</ele>
        <time>2026-07-07T15:57:15.000Z</time>
      </trkpt>
      <trkpt lat="47.552" lon="16.09056">
        <ele>530.153102</ele>
        <time>2026-07-07T15:57:16.000Z</time>
      </trkpt>
      <trkpt lat="47.55196" lon="16.09052">
        <ele>530.326657</ele>
        <time>2026-07-07T15:57:17.000Z</time>
      </trkpt>
      <trkpt lat="47.55193" lon="16.09048">
        <ele>530.494583</ele>
        <time>2026-07-07T15:57:18.000Z</time>
      </trkpt>
      <trkpt lat="47.5519" lon="16.09044">
        <ele>530.669828</ele>
        <time>2026-07-07T15:57:19.000Z</time>
      </trkpt>
      <trkpt lat="47.55186" lon="16.0904">
        <ele>530.844977</ele>
        <time>2026-07-07T15:57:20.000Z</time>
      </trkpt>
      <trkpt lat="47.55183" lon="16.09036">
        <ele>531.021681</ele>
        <time>2026-07-07T15:57:21.000Z</time>
      </trkpt>
      <trkpt lat="47.55179" lon="16.09032">
        <ele>531.201653</ele>
        <time>2026-07-07T15:57:22.000Z</time>
      </trkpt>
      <trkpt lat="47.55176" lon="16.09028">
        <ele>531.375562</ele>
        <time>2026-07-07T15:57:23.000Z</time>
      </trkpt>
      <trkpt lat="47.55172" lon="16.09024">
        <ele>531.549118</ele>
        <time>2026-07-07T15:57:24.000Z</time>
      </trkpt>
      <trkpt lat="47.55169" lon="16.09021">
        <ele>531.714962</ele>
        <time>2026-07-07T15:57:25.000Z</time>
      </trkpt>
      <trkpt lat="47.55165" lon="16.09018">
        <ele>531.876605</ele>
        <time>2026-07-07T15:57:26.000Z</time>
      </trkpt>
      <trkpt lat="47.55162" lon="16.09015">
        <ele>532.027642</ele>
        <time>2026-07-07T15:57:27.000Z</time>
      </trkpt>
      <trkpt lat="47.5516" lon="16.0901">
        <ele>532.166328</ele>
        <time>2026-07-07T15:57:28.000Z</time>
      </trkpt>
      <trkpt lat="47.5516" lon="16.09005">
        <ele>532.302177</ele>
        <time>2026-07-07T15:57:29.000Z</time>
      </trkpt>
      <trkpt lat="47.55161" lon="16.09001">
        <ele>532.431399</ele>
        <time>2026-07-07T15:57:30.000Z</time>
      </trkpt>
      <trkpt lat="47.55163" lon="16.08997">
        <ele>532.558876</ele>
        <time>2026-07-07T15:57:31.000Z</time>
      </trkpt>
      <trkpt lat="47.55165" lon="16.08993">
        <ele>532.692624</ele>
        <time>2026-07-07T15:57:32.000Z</time>
      </trkpt>
      <trkpt lat="47.55167" lon="16.0899">
        <ele>532.833882</ele>
        <time>2026-07-07T15:57:33.000Z</time>
      </trkpt>
      <trkpt lat="47.5517" lon="16.08985">
        <ele>532.987011</ele>
        <time>2026-07-07T15:57:34.000Z</time>
      </trkpt>
      <trkpt lat="47.55172" lon="16.08981">
        <ele>533.146026</ele>
        <time>2026-07-07T15:57:35.000Z</time>
      </trkpt>
      <trkpt lat="47.55175" lon="16.08976">
        <ele>533.302662</ele>
        <time>2026-07-07T15:57:36.000Z</time>
      </trkpt>
      <trkpt lat="47.55177" lon="16.08972">
        <ele>533.45579</ele>
        <time>2026-07-07T15:57:37.000Z</time>
      </trkpt>
      <trkpt lat="47.5518" lon="16.08967">
        <ele>533.614252</ele>
        <time>2026-07-07T15:57:38.000Z</time>
      </trkpt>
      <trkpt lat="47.55182" lon="16.08963">
        <ele>533.766552</ele>
        <time>2026-07-07T15:57:39.000Z</time>
      </trkpt>
      <trkpt lat="47.55185" lon="16.08959">
        <ele>533.917646</ele>
        <time>2026-07-07T15:57:40.000Z</time>
      </trkpt>
      <trkpt lat="47.55187" lon="16.08955">
        <ele>534.052726</ele>
        <time>2026-07-07T15:57:41.000Z</time>
      </trkpt>
      <trkpt lat="47.55189" lon="16.08951">
        <ele>534.188446</ele>
        <time>2026-07-07T15:57:42.000Z</time>
      </trkpt>
      <trkpt lat="47.55191" lon="16.08948">
        <ele>534.30717</ele>
        <time>2026-07-07T15:57:43.000Z</time>
      </trkpt>
      <trkpt lat="47.55193" lon="16.08944">
        <ele>534.417046</ele>
        <time>2026-07-07T15:57:44.000Z</time>
      </trkpt>
      <trkpt lat="47.55194" lon="16.08941">
        <ele>534.529055</ele>
        <time>2026-07-07T15:57:45.000Z</time>
      </trkpt>
      <trkpt lat="47.55196" lon="16.08938">
        <ele>534.632219</ele>
        <time>2026-07-07T15:57:46.000Z</time>
      </trkpt>
      <trkpt lat="47.55197" lon="16.08935">
        <ele>534.728671</ele>
        <time>2026-07-07T15:57:47.000Z</time>
      </trkpt>
      <trkpt lat="47.55199" lon="16.08932">
        <ele>534.82725</ele>
        <time>2026-07-07T15:57:48.000Z</time>
      </trkpt>
      <trkpt lat="47.552" lon="16.0893">
        <ele>534.912234</ele>
        <time>2026-07-07T15:57:49.000Z</time>
      </trkpt>
      <trkpt lat="47.55201" lon="16.08927">
        <ele>535.006324</ele>
        <time>2026-07-07T15:57:50.000Z</time>
      </trkpt>
      <trkpt lat="47.55202" lon="16.08924">
        <ele>535.103216</ele>
        <time>2026-07-07T15:57:51.000Z</time>
      </trkpt>
      <trkpt lat="47.55204" lon="16.0892">
        <ele>535.201986</ele>
        <time>2026-07-07T15:57:52.000Z</time>
      </trkpt>
      <trkpt lat="47.55204" lon="16.08917">
        <ele>535.291532</ele>
        <time>2026-07-07T15:57:53.000Z</time>
      </trkpt>
      <trkpt lat="47.55205" lon="16.08914">
        <ele>535.377652</ele>
        <time>2026-07-07T15:57:54.000Z</time>
      </trkpt>
      <trkpt lat="47.55206" lon="16.08911">
        <ele>535.462073</ele>
        <time>2026-07-07T15:57:55.000Z</time>
      </trkpt>
      <trkpt lat="47.55207" lon="16.08908">
        <ele>535.550652</ele>
        <time>2026-07-07T15:57:56.000Z</time>
      </trkpt>
      <trkpt lat="47.55207" lon="16.08906">
        <ele>535.629914</ele>
        <time>2026-07-07T15:57:57.000Z</time>
      </trkpt>
      <trkpt lat="47.55208" lon="16.08902">
        <ele>535.720674</ele>
        <time>2026-07-07T15:57:58.000Z</time>
      </trkpt>
      <trkpt lat="47.55209" lon="16.08899">
        <ele>535.806317</ele>
        <time>2026-07-07T15:57:59.000Z</time>
      </trkpt>
      <trkpt lat="47.55209" lon="16.08896">
        <ele>535.890738</ele>
        <time>2026-07-07T15:58:00.000Z</time>
      </trkpt>
      <trkpt lat="47.5521" lon="16.08893">
        <ele>535.991792</ele>
        <time>2026-07-07T15:58:01.000Z</time>
      </trkpt>
      <trkpt lat="47.55211" lon="16.0889">
        <ele>536.076214</ele>
        <time>2026-07-07T15:58:02.000Z</time>
      </trkpt>
      <trkpt lat="47.55212" lon="16.08887">
        <ele>536.161856</ele>
        <time>2026-07-07T15:58:03.000Z</time>
      </trkpt>
      <trkpt lat="47.55212" lon="16.08884">
        <ele>536.255187</ele>
        <time>2026-07-07T15:58:04.000Z</time>
      </trkpt>
      <trkpt lat="47.55213" lon="16.0888">
        <ele>536.352618</ele>
        <time>2026-07-07T15:58:05.000Z</time>
      </trkpt>
      <trkpt lat="47.55214" lon="16.08877">
        <ele>536.445948</ele>
        <time>2026-07-07T15:58:06.000Z</time>
      </trkpt>
      <trkpt lat="47.55215" lon="16.08873">
        <ele>536.477047</ele>
        <time>2026-07-07T15:58:07.000Z</time>
      </trkpt>
      <trkpt lat="47.55217" lon="16.08869">
        <ele>536.493879</ele>
        <time>2026-07-07T15:58:08.000Z</time>
      </trkpt>
      <trkpt lat="47.55218" lon="16.08866">
        <ele>536.509486</ele>
        <time>2026-07-07T15:58:09.000Z</time>
      </trkpt>
      <trkpt lat="47.5522" lon="16.08862">
        <ele>536.5258</ele>
        <time>2026-07-07T15:58:10.000Z</time>
      </trkpt>
      <trkpt lat="47.55221" lon="16.08858">
        <ele>536.542111</ele>
        <time>2026-07-07T15:58:11.000Z</time>
      </trkpt>
      <trkpt lat="47.55222" lon="16.08853">
        <ele>536.558958</ele>
        <time>2026-07-07T15:58:12.000Z</time>
      </trkpt>
      <trkpt lat="47.55223" lon="16.08849">
        <ele>536.576139</ele>
        <time>2026-07-07T15:58:13.000Z</time>
      </trkpt>
      <trkpt lat="47.55224" lon="16.08844">
        <ele>536.593468</ele>
        <time>2026-07-07T15:58:14.000Z</time>
      </trkpt>
      <trkpt lat="47.55226" lon="16.0884">
        <ele>536.610986</ele>
        <time>2026-07-07T15:58:15.000Z</time>
      </trkpt>
      <trkpt lat="47.55227" lon="16.08836">
        <ele>536.628045</ele>
        <time>2026-07-07T15:58:16.000Z</time>
      </trkpt>
      <trkpt lat="47.55228" lon="16.08831">
        <ele>536.644892</ele>
        <time>2026-07-07T15:58:17.000Z</time>
      </trkpt>
      <trkpt lat="47.55229" lon="16.08827">
        <ele>536.661621</ele>
        <time>2026-07-07T15:58:18.000Z</time>
      </trkpt>
      <trkpt lat="47.55231" lon="16.08823">
        <ele>536.678134</ele>
        <time>2026-07-07T15:58:19.000Z</time>
      </trkpt>
      <trkpt lat="47.55232" lon="16.08819">
        <ele>536.693451</ele>
        <time>2026-07-07T15:58:20.000Z</time>
      </trkpt>
      <trkpt lat="47.55234" lon="16.08816">
        <ele>536.70668</ele>
        <time>2026-07-07T15:58:21.000Z</time>
      </trkpt>
      <trkpt lat="47.55235" lon="16.08814">
        <ele>536.717787</ele>
        <time>2026-07-07T15:58:22.000Z</time>
      </trkpt>
      <trkpt lat="47.55236" lon="16.08811">
        <ele>536.730171</ele>
        <time>2026-07-07T15:58:23.000Z</time>
      </trkpt>
      <trkpt lat="47.55238" lon="16.08808">
        <ele>536.745438</ele>
        <time>2026-07-07T15:58:24.000Z</time>
      </trkpt>
      <trkpt lat="47.55241" lon="16.08805">
        <ele>536.761876</ele>
        <time>2026-07-07T15:58:25.000Z</time>
      </trkpt>
      <trkpt lat="47.55243" lon="16.08802">
        <ele>536.78008</ele>
        <time>2026-07-07T15:58:26.000Z</time>
      </trkpt>
      <trkpt lat="47.55246" lon="16.08798">
        <ele>536.799732</ele>
        <time>2026-07-07T15:58:27.000Z</time>
      </trkpt>
      <trkpt lat="47.55249" lon="16.08794">
        <ele>536.820986</ele>
        <time>2026-07-07T15:58:28.000Z</time>
      </trkpt>
      <trkpt lat="47.55251" lon="16.08791">
        <ele>536.839437</ele>
        <time>2026-07-07T15:58:29.000Z</time>
      </trkpt>
      <trkpt lat="47.55254" lon="16.08788">
        <ele>536.855822</ele>
        <time>2026-07-07T15:58:30.000Z</time>
      </trkpt>
      <trkpt lat="47.55255" lon="16.08787">
        <ele>536.86579</ele>
        <time>2026-07-07T15:58:31.000Z</time>
      </trkpt>
      <trkpt lat="47.55256" lon="16.08786">
        <ele>536.870128</ele>
        <time>2026-07-07T15:58:32.000Z</time>
      </trkpt>
      <trkpt lat="47.55256" lon="16.08786">
        <ele>536.871778</ele>
        <time>2026-07-07T15:58:33.000Z</time>
      </trkpt>
      <trkpt lat="47.55255" lon="16.08785">
        <ele>536.879888</ele>
        <time>2026-07-07T15:59:26.000Z</time>
      </trkpt>
      <trkpt lat="47.55253" lon="16.08785">
        <ele>536.888008</ele>
        <time>2026-07-07T15:59:27.000Z</time>
      </trkpt>
      <trkpt lat="47.55252" lon="16.08787">
        <ele>536.899459</ele>
        <time>2026-07-07T15:59:29.000Z</time>
      </trkpt>
      <trkpt lat="47.5525" lon="16.08789">
        <ele>536.911528</ele>
        <time>2026-07-07T15:59:30.000Z</time>
      </trkpt>
      <trkpt lat="47.55248" lon="16.08791">
        <ele>536.924891</ele>
        <time>2026-07-07T15:59:31.000Z</time>
      </trkpt>
      <trkpt lat="47.55245" lon="16.08793">
        <ele>536.939662</ele>
        <time>2026-07-07T15:59:32.000Z</time>
      </trkpt>
      <trkpt lat="47.55243" lon="16.08795">
        <ele>536.955079</ele>
        <time>2026-07-07T15:59:33.000Z</time>
      </trkpt>
      <trkpt lat="47.55241" lon="16.08797">
        <ele>536.969385</ele>
        <time>2026-07-07T15:59:34.000Z</time>
      </trkpt>
      <trkpt lat="47.55238" lon="16.08799">
        <ele>536.982695</ele>
        <time>2026-07-07T15:59:35.000Z</time>
      </trkpt>
      <trkpt lat="47.55237" lon="16.088">
        <ele>536.992315</ele>
        <time>2026-07-07T15:59:36.000Z</time>
      </trkpt>
      <trkpt lat="47.55235" lon="16.088">
        <ele>537.000133</ele>
        <time>2026-07-07T15:59:37.000Z</time>
      </trkpt>
      <trkpt lat="47.55235" lon="16.088">
        <ele>537.00444</ele>
        <time>2026-07-07T15:59:38.000Z</time>
      </trkpt>
      <trkpt lat="47.55235" lon="16.088">
        <ele>537.00444</ele>
        <time>2026-07-07T15:59:39.000Z</time>
      </trkpt>
      <trkpt lat="47.55236" lon="16.08806">
        <ele>537.026342</ele>
        <time>2026-07-07T16:00:23.000Z</time>
      </trkpt>
      <trkpt lat="47.55238" lon="16.08806">
        <ele>537.036239</ele>
        <time>2026-07-07T16:00:24.000Z</time>
      </trkpt>
      <trkpt lat="47.55239" lon="16.08806">
        <ele>537.043213</ele>
        <time>2026-07-07T16:00:25.000Z</time>
      </trkpt>
      <trkpt lat="47.5524" lon="16.08807">
        <ele>537.045991</ele>
        <time>2026-07-07T16:00:26.000Z</time>
      </trkpt>
      <trkpt lat="47.5524" lon="16.08807">
        <ele>537.046528</ele>
        <time>2026-07-07T16:00:27.000Z</time>
      </trkpt>
      <trkpt lat="47.55242" lon="16.08805">
        <ele>537.059542</ele>
        <time>2026-07-07T16:00:34.000Z</time>
      </trkpt>
      <trkpt lat="47.55242" lon="16.08805">
        <ele>537.060837</ele>
        <time>2026-07-07T16:00:35.000Z</time>
      </trkpt>
      <trkpt lat="47.55242" lon="16.08804">
        <ele>537.061561</ele>
        <time>2026-07-07T16:00:36.000Z</time>
      </trkpt>
      <trkpt lat="47.55245" lon="16.08796">
        <ele>537.095574</ele>
        <time>2026-07-07T16:02:00.000Z</time>
      </trkpt>
      <trkpt lat="47.55248" lon="16.08792">
        <ele>537.116057</ele>
        <time>2026-07-07T16:02:01.000Z</time>
      </trkpt>
      <trkpt lat="47.55251" lon="16.08789">
        <ele>537.139334</ele>
        <time>2026-07-07T16:02:02.000Z</time>
      </trkpt>
      <trkpt lat="47.55255" lon="16.08784">
        <ele>537.164984</ele>
        <time>2026-07-07T16:02:03.000Z</time>
      </trkpt>
      <trkpt lat="47.55259" lon="16.0878">
        <ele>537.193224</ele>
        <time>2026-07-07T16:02:04.000Z</time>
      </trkpt>
      <trkpt lat="47.55264" lon="16.08775">
        <ele>537.223243</ele>
        <time>2026-07-07T16:02:05.000Z</time>
      </trkpt>
      <trkpt lat="47.55269" lon="16.0877">
        <ele>537.25471</ele>
        <time>2026-07-07T16:02:06.000Z</time>
      </trkpt>
      <trkpt lat="47.55273" lon="16.08765">
        <ele>537.285323</ele>
        <time>2026-07-07T16:02:07.000Z</time>
      </trkpt>
      <trkpt lat="47.55277" lon="16.08759">
        <ele>537.314993</ele>
        <time>2026-07-07T16:02:08.000Z</time>
      </trkpt>
      <trkpt lat="47.55281" lon="16.08754">
        <ele>537.344514</ele>
        <time>2026-07-07T16:02:09.000Z</time>
      </trkpt>
      <trkpt lat="47.55285" lon="16.08748">
        <ele>537.375567</ele>
        <time>2026-07-07T16:02:10.000Z</time>
      </trkpt>
      <trkpt lat="47.55289" lon="16.08741">
        <ele>537.407191</ele>
        <time>2026-07-07T16:02:11.000Z</time>
      </trkpt>
      <trkpt lat="47.55293" lon="16.08733">
        <ele>537.419727</ele>
        <time>2026-07-07T16:02:12.000Z</time>
      </trkpt>
      <trkpt lat="47.55297" lon="16.08725">
        <ele>537.39015</ele>
        <time>2026-07-07T16:02:13.000Z</time>
      </trkpt>
      <trkpt lat="47.55301" lon="16.08717">
        <ele>537.360585</ele>
        <time>2026-07-07T16:02:14.000Z</time>
      </trkpt>
      <trkpt lat="47.55305" lon="16.08709">
        <ele>537.330262</ele>
        <time>2026-07-07T16:02:15.000Z</time>
      </trkpt>
      <trkpt lat="47.55309" lon="16.087">
        <ele>537.298204</ele>
        <time>2026-07-07T16:02:16.000Z</time>
      </trkpt>
      <trkpt lat="47.55313" lon="16.08692">
        <ele>537.266367</ele>
        <time>2026-07-07T16:02:17.000Z</time>
      </trkpt>
      <trkpt lat="47.55317" lon="16.08684">
        <ele>537.235801</ele>
        <time>2026-07-07T16:02:18.000Z</time>
      </trkpt>
      <trkpt lat="47.55321" lon="16.08676">
        <ele>537.207212</ele>
        <time>2026-07-07T16:02:19.000Z</time>
      </trkpt>
      <trkpt lat="47.55324" lon="16.08668">
        <ele>537.180619</ele>
        <time>2026-07-07T16:02:20.000Z</time>
      </trkpt>
      <trkpt lat="47.55327" lon="16.08661">
        <ele>537.154286</ele>
        <time>2026-07-07T16:02:21.000Z</time>
      </trkpt>
      <trkpt lat="47.5533" lon="16.08654">
        <ele>537.128381</ele>
        <time>2026-07-07T16:02:22.000Z</time>
      </trkpt>
      <trkpt lat="47.55332" lon="16.08645">
        <ele>537.102096</ele>
        <time>2026-07-07T16:02:23.000Z</time>
      </trkpt>
      <trkpt lat="47.55333" lon="16.08637">
        <ele>537.075941</ele>
        <time>2026-07-07T16:02:24.000Z</time>
      </trkpt>
      <trkpt lat="47.55333" lon="16.08628">
        <ele>537.049264</ele>
        <time>2026-07-07T16:02:25.000Z</time>
      </trkpt>
      <trkpt lat="47.55332" lon="16.08619">
        <ele>537.023405</ele>
        <time>2026-07-07T16:02:26.000Z</time>
      </trkpt>
      <trkpt lat="47.5533" lon="16.08612">
        <ele>536.999115</ele>
        <time>2026-07-07T16:02:27.000Z</time>
      </trkpt>
      <trkpt lat="47.55329" lon="16.08604">
        <ele>536.975259</ele>
        <time>2026-07-07T16:02:28.000Z</time>
      </trkpt>
      <trkpt lat="47.55327" lon="16.08597">
        <ele>536.951924</ele>
        <time>2026-07-07T16:02:29.000Z</time>
      </trkpt>
      <trkpt lat="47.55324" lon="16.08591">
        <ele>536.930931</ele>
        <time>2026-07-07T16:02:30.000Z</time>
      </trkpt>
      <trkpt lat="47.55322" lon="16.08585">
        <ele>536.911284</ele>
        <time>2026-07-07T16:02:31.000Z</time>
      </trkpt>
      <trkpt lat="47.5532" lon="16.0858">
        <ele>536.891604</ele>
        <time>2026-07-07T16:02:32.000Z</time>
      </trkpt>
      <trkpt lat="47.55318" lon="16.08574">
        <ele>536.873285</ele>
        <time>2026-07-07T16:02:33.000Z</time>
      </trkpt>
      <trkpt lat="47.55316" lon="16.08568">
        <ele>536.853765</ele>
        <time>2026-07-07T16:02:34.000Z</time>
      </trkpt>
      <trkpt lat="47.55314" lon="16.08563">
        <ele>536.835371</ele>
        <time>2026-07-07T16:02:35.000Z</time>
      </trkpt>
      <trkpt lat="47.55312" lon="16.08558">
        <ele>536.817721</ele>
        <time>2026-07-07T16:02:36.000Z</time>
      </trkpt>
      <trkpt lat="47.5531" lon="16.08553">
        <ele>536.800579</ele>
        <time>2026-07-07T16:02:37.000Z</time>
      </trkpt>
      <trkpt lat="47.55308" lon="16.08549">
        <ele>536.784928</ele>
        <time>2026-07-07T16:02:38.000Z</time>
      </trkpt>
      <trkpt lat="47.55306" lon="16.08545">
        <ele>536.769276</ele>
        <time>2026-07-07T16:02:39.000Z</time>
      </trkpt>
      <trkpt lat="47.55303" lon="16.0854">
        <ele>536.752865</ele>
        <time>2026-07-07T16:02:40.000Z</time>
      </trkpt>
      <trkpt lat="47.55301" lon="16.08536">
        <ele>536.737214</ele>
        <time>2026-07-07T16:02:41.000Z</time>
      </trkpt>
      <trkpt lat="47.55299" lon="16.08532">
        <ele>536.721808</ele>
        <time>2026-07-07T16:02:42.000Z</time>
      </trkpt>
      <trkpt lat="47.55298" lon="16.08528">
        <ele>536.707149</ele>
        <time>2026-07-07T16:02:43.000Z</time>
      </trkpt>
      <trkpt lat="47.55296" lon="16.08524">
        <ele>536.693235</ele>
        <time>2026-07-07T16:02:44.000Z</time>
      </trkpt>
      <trkpt lat="47.55294" lon="16.08521">
        <ele>536.681057</ele>
        <time>2026-07-07T16:02:45.000Z</time>
      </trkpt>
      <trkpt lat="47.55293" lon="16.08518">
        <ele>536.670343</ele>
        <time>2026-07-07T16:02:46.000Z</time>
      </trkpt>
      <trkpt lat="47.55292" lon="16.08516">
        <ele>536.662544</ele>
        <time>2026-07-07T16:02:47.000Z</time>
      </trkpt>
      <trkpt lat="47.55291" lon="16.08515">
        <ele>536.658258</ele>
        <time>2026-07-07T16:02:48.000Z</time>
      </trkpt>
      <trkpt lat="47.5529" lon="16.08515">
        <ele>536.656038</ele>
        <time>2026-07-07T16:02:49.000Z</time>
      </trkpt>
      <trkpt lat="47.5529" lon="16.08515">
        <ele>536.655292</ele>
        <time>2026-07-07T16:02:50.000Z</time>
      </trkpt>
      <trkpt lat="47.55289" lon="16.08511">
        <ele>536.641378</ele>
        <time>2026-07-07T16:03:40.000Z</time>
      </trkpt>
      <trkpt lat="47.55288" lon="16.08509">
        <ele>536.634919</ele>
        <time>2026-07-07T16:03:41.000Z</time>
      </trkpt>
      <trkpt lat="47.55287" lon="16.08507">
        <ele>536.713008</ele>
        <time>2026-07-07T16:03:42.000Z</time>
      </trkpt>
      <trkpt lat="47.55286" lon="16.08505">
        <ele>536.883442</ele>
        <time>2026-07-07T16:03:43.000Z</time>
      </trkpt>
      <trkpt lat="47.55285" lon="16.08503">
        <ele>537.051883</ele>
        <time>2026-07-07T16:03:44.000Z</time>
      </trkpt>
      <trkpt lat="47.55283" lon="16.08502">
        <ele>537.225127</ele>
        <time>2026-07-07T16:03:45.000Z</time>
      </trkpt>
      <trkpt lat="47.55282" lon="16.085">
        <ele>537.401789</ele>
        <time>2026-07-07T16:03:46.000Z</time>
      </trkpt>
      <trkpt lat="47.55281" lon="16.08498">
        <ele>537.599094</ele>
        <time>2026-07-07T16:03:47.000Z</time>
      </trkpt>
      <trkpt lat="47.55279" lon="16.08496">
        <ele>537.808617</ele>
        <time>2026-07-07T16:03:48.000Z</time>
      </trkpt>
      <trkpt lat="47.55277" lon="16.08495">
        <ele>538.018793</ele>
        <time>2026-07-07T16:03:49.000Z</time>
      </trkpt>
      <trkpt lat="47.55275" lon="16.08496">
        <ele>538.202565</ele>
        <time>2026-07-07T16:03:50.000Z</time>
      </trkpt>
      <trkpt lat="47.55273" lon="16.08496">
        <ele>538.412741</ele>
        <time>2026-07-07T16:03:51.000Z</time>
      </trkpt>
      <trkpt lat="47.55272" lon="16.08498">
        <ele>538.603788</ele>
        <time>2026-07-07T16:03:52.000Z</time>
      </trkpt>
      <trkpt lat="47.5527" lon="16.08499">
        <ele>538.770667</ele>
        <time>2026-07-07T16:03:53.000Z</time>
      </trkpt>
      <trkpt lat="47.55269" lon="16.08499">
        <ele>538.926655</ele>
        <time>2026-07-07T16:03:54.000Z</time>
      </trkpt>
      <trkpt lat="47.55267" lon="16.085">
        <ele>539.082642</ele>
        <time>2026-07-07T16:03:55.000Z</time>
      </trkpt>
      <trkpt lat="47.55266" lon="16.085">
        <ele>539.236206</ele>
        <time>2026-07-07T16:03:56.000Z</time>
      </trkpt>
      <trkpt lat="47.55264" lon="16.085">
        <ele>539.418826</ele>
        <time>2026-07-07T16:03:57.000Z</time>
      </trkpt>
      <trkpt lat="47.55262" lon="16.085">
        <ele>539.593462</ele>
        <time>2026-07-07T16:03:58.000Z</time>
      </trkpt>
      <trkpt lat="47.5526" lon="16.08501">
        <ele>539.777235</ele>
        <time>2026-07-07T16:03:59.000Z</time>
      </trkpt>
      <trkpt lat="47.55258" lon="16.08501">
        <ele>539.973017</ele>
        <time>2026-07-07T16:04:00.000Z</time>
      </trkpt>
      <trkpt lat="47.55257" lon="16.08502">
        <ele>540.129005</ele>
        <time>2026-07-07T16:04:01.000Z</time>
      </trkpt>
      <trkpt lat="47.55255" lon="16.08502">
        <ele>540.284992</ele>
        <time>2026-07-07T16:04:02.000Z</time>
      </trkpt>
      <trkpt lat="47.55254" lon="16.08503">
        <ele>540.45425</ele>
        <time>2026-07-07T16:04:03.000Z</time>
      </trkpt>
      <trkpt lat="47.55252" lon="16.08504">
        <ele>540.615993</ele>
        <time>2026-07-07T16:04:04.000Z</time>
      </trkpt>
      <trkpt lat="47.5525" lon="16.08504">
        <ele>540.811775</ele>
        <time>2026-07-07T16:04:05.000Z</time>
      </trkpt>
      <trkpt lat="47.55249" lon="16.08504">
        <ele>540.994909</ele>
        <time>2026-07-07T16:04:06.000Z</time>
      </trkpt>
      <trkpt lat="47.55247" lon="16.08505">
        <ele>541.170749</ele>
        <time>2026-07-07T16:04:07.000Z</time>
      </trkpt>
      <trkpt lat="47.55245" lon="16.08505">
        <ele>541.336649</ele>
        <time>2026-07-07T16:04:08.000Z</time>
      </trkpt>
      <trkpt lat="47.55244" lon="16.08506">
        <ele>541.51249</ele>
        <time>2026-07-07T16:04:09.000Z</time>
      </trkpt>
      <trkpt lat="47.55242" lon="16.08506">
        <ele>541.668477</ele>
        <time>2026-07-07T16:04:10.000Z</time>
      </trkpt>
      <trkpt lat="47.5524" lon="16.08507">
        <ele>541.845778</ele>
        <time>2026-07-07T16:04:11.000Z</time>
      </trkpt>
      <trkpt lat="47.55239" lon="16.08508">
        <ele>542.005331</ele>
        <time>2026-07-07T16:04:12.000Z</time>
      </trkpt>
      <trkpt lat="47.55237" lon="16.08509">
        <ele>542.17221</ele>
        <time>2026-07-07T16:04:13.000Z</time>
      </trkpt>
      <trkpt lat="47.55236" lon="16.0851">
        <ele>542.339378</ele>
        <time>2026-07-07T16:04:14.000Z</time>
      </trkpt>
      <trkpt lat="47.55234" lon="16.08512">
        <ele>542.54012</ele>
        <time>2026-07-07T16:04:15.000Z</time>
      </trkpt>
      <trkpt lat="47.55233" lon="16.08513">
        <ele>542.756686</ele>
        <time>2026-07-07T16:04:16.000Z</time>
      </trkpt>
      <trkpt lat="47.55231" lon="16.08515">
        <ele>542.969649</ele>
        <time>2026-07-07T16:04:17.000Z</time>
      </trkpt>
      <trkpt lat="47.55229" lon="16.08517">
        <ele>543.194836</ele>
        <time>2026-07-07T16:04:18.000Z</time>
      </trkpt>
      <trkpt lat="47.55227" lon="16.08518">
        <ele>543.413753</ele>
        <time>2026-07-07T16:04:19.000Z</time>
      </trkpt>
      <trkpt lat="47.55225" lon="16.08519">
        <ele>543.64118</ele>
        <time>2026-07-07T16:04:20.000Z</time>
      </trkpt>
      <trkpt lat="47.55223" lon="16.08521">
        <ele>543.837022</ele>
        <time>2026-07-07T16:04:21.000Z</time>
      </trkpt>
      <trkpt lat="47.55222" lon="16.08523">
        <ele>544.041753</ele>
        <time>2026-07-07T16:04:22.000Z</time>
      </trkpt>
      <trkpt lat="47.5522" lon="16.08524">
        <ele>544.269179</ele>
        <time>2026-07-07T16:04:23.000Z</time>
      </trkpt>
      <trkpt lat="47.55218" lon="16.08526">
        <ele>544.484467</ele>
        <time>2026-07-07T16:04:24.000Z</time>
      </trkpt>
      <trkpt lat="47.55216" lon="16.08527">
        <ele>544.687627</ele>
        <time>2026-07-07T16:04:25.000Z</time>
      </trkpt>
      <trkpt lat="47.55214" lon="16.08529">
        <ele>544.89715</ele>
        <time>2026-07-07T16:04:26.000Z</time>
      </trkpt>
      <trkpt lat="47.55213" lon="16.0853">
        <ele>545.080752</ele>
        <time>2026-07-07T16:04:27.000Z</time>
      </trkpt>
      <trkpt lat="47.55211" lon="16.08532">
        <ele>545.264397</ele>
        <time>2026-07-07T16:04:28.000Z</time>
      </trkpt>
      <trkpt lat="47.5521" lon="16.08534">
        <ele>545.460232</ele>
        <time>2026-07-07T16:04:29.000Z</time>
      </trkpt>
      <trkpt lat="47.55208" lon="16.08535">
        <ele>545.664051</ele>
        <time>2026-07-07T16:04:30.000Z</time>
      </trkpt>
      <trkpt lat="47.55207" lon="16.08537">
        <ele>545.872133</ele>
        <time>2026-07-07T16:04:31.000Z</time>
      </trkpt>
      <trkpt lat="47.55205" lon="16.08539">
        <ele>546.080215</ele>
        <time>2026-07-07T16:04:32.000Z</time>
      </trkpt>
      <trkpt lat="47.55203" lon="16.08541">
        <ele>546.276051</ele>
        <time>2026-07-07T16:04:33.000Z</time>
      </trkpt>
      <trkpt lat="47.55202" lon="16.08543">
        <ele>546.480782</ele>
        <time>2026-07-07T16:04:34.000Z</time>
      </trkpt>
      <trkpt lat="47.552" lon="16.08544">
        <ele>546.684602</ele>
        <time>2026-07-07T16:04:35.000Z</time>
      </trkpt>
      <trkpt lat="47.55199" lon="16.08546">
        <ele>546.900644</ele>
        <time>2026-07-07T16:04:36.000Z</time>
      </trkpt>
      <trkpt lat="47.55197" lon="16.08548">
        <ele>547.088162</ele>
        <time>2026-07-07T16:04:37.000Z</time>
      </trkpt>
      <trkpt lat="47.55196" lon="16.0855">
        <ele>547.273424</ele>
        <time>2026-07-07T16:04:38.000Z</time>
      </trkpt>
      <trkpt lat="47.55194" lon="16.08551">
        <ele>547.452807</ele>
        <time>2026-07-07T16:04:39.000Z</time>
      </trkpt>
      <trkpt lat="47.55193" lon="16.08553">
        <ele>547.632668</ele>
        <time>2026-07-07T16:04:40.000Z</time>
      </trkpt>
      <trkpt lat="47.55191" lon="16.08554">
        <ele>547.820186</ele>
        <time>2026-07-07T16:04:41.000Z</time>
      </trkpt>
      <trkpt lat="47.5519" lon="16.08556">
        <ele>548.011786</ele>
        <time>2026-07-07T16:04:42.000Z</time>
      </trkpt>
      <trkpt lat="47.55189" lon="16.08558">
        <ele>548.21201</ele>
        <time>2026-07-07T16:04:43.000Z</time>
      </trkpt>
      <trkpt lat="47.55187" lon="16.0856">
        <ele>548.407133</ele>
        <time>2026-07-07T16:04:44.000Z</time>
      </trkpt>
      <trkpt lat="47.55186" lon="16.08562">
        <ele>548.60444</ele>
        <time>2026-07-07T16:04:45.000Z</time>
      </trkpt>
      <trkpt lat="47.55184" lon="16.08564">
        <ele>548.809172</ele>
        <time>2026-07-07T16:04:46.000Z</time>
      </trkpt>
      <trkpt lat="47.55183" lon="16.08566">
        <ele>548.992774</ele>
        <time>2026-07-07T16:04:47.000Z</time>
      </trkpt>
      <trkpt lat="47.55181" lon="16.08567">
        <ele>549.184869</ele>
        <time>2026-07-07T16:04:48.000Z</time>
      </trkpt>
      <trkpt lat="47.5518" lon="16.08569">
        <ele>549.392952</ele>
        <time>2026-07-07T16:04:49.000Z</time>
      </trkpt>
      <trkpt lat="47.55178" lon="16.08571">
        <ele>549.602475</ele>
        <time>2026-07-07T16:04:50.000Z</time>
      </trkpt>
      <trkpt lat="47.55176" lon="16.08572">
        <ele>549.827663</ele>
        <time>2026-07-07T16:04:51.000Z</time>
      </trkpt>
      <trkpt lat="47.55174" lon="16.08574">
        <ele>550.030824</ele>
        <time>2026-07-07T16:04:52.000Z</time>
      </trkpt>
      <trkpt lat="47.55172" lon="16.08575">
        <ele>550.238906</ele>
        <time>2026-07-07T16:04:53.000Z</time>
      </trkpt>
      <trkpt lat="47.55171" lon="16.08577">
        <ele>550.422508</ele>
        <time>2026-07-07T16:04:54.000Z</time>
      </trkpt>
      <trkpt lat="47.55169" lon="16.08578">
        <ele>550.610027</ele>
        <time>2026-07-07T16:04:55.000Z</time>
      </trkpt>
      <trkpt lat="47.55168" lon="16.0858">
        <ele>550.810243</ele>
        <time>2026-07-07T16:04:56.000Z</time>
      </trkpt>
      <trkpt lat="47.55166" lon="16.08582">
        <ele>551.006079</ele>
        <time>2026-07-07T16:04:57.000Z</time>
      </trkpt>
      <trkpt lat="47.55165" lon="16.08584">
        <ele>551.197679</ele>
        <time>2026-07-07T16:04:58.000Z</time>
      </trkpt>
      <trkpt lat="47.55163" lon="16.08585">
        <ele>551.385198</ele>
        <time>2026-07-07T16:04:59.000Z</time>
      </trkpt>
      <trkpt lat="47.55162" lon="16.08587">
        <ele>551.577294</ele>
        <time>2026-07-07T16:05:00.000Z</time>
      </trkpt>
      <trkpt lat="47.5516" lon="16.08588">
        <ele>551.760896</ele>
        <time>2026-07-07T16:05:01.000Z</time>
      </trkpt>
      <trkpt lat="47.55159" lon="16.0859">
        <ele>551.940757</ele>
        <time>2026-07-07T16:05:02.000Z</time>
      </trkpt>
      <trkpt lat="47.55157" lon="16.08591">
        <ele>552.141156</ele>
        <time>2026-07-07T16:05:03.000Z</time>
      </trkpt>
      <trkpt lat="47.55155" lon="16.0859">
        <ele>552.344529</ele>
        <time>2026-07-07T16:05:04.000Z</time>
      </trkpt>
      <trkpt lat="47.55153" lon="16.0859">
        <ele>552.551558</ele>
        <time>2026-07-07T16:05:05.000Z</time>
      </trkpt>
      <trkpt lat="47.55152" lon="16.08588">
        <ele>552.727475</ele>
        <time>2026-07-07T16:05:06.000Z</time>
      </trkpt>
      <trkpt lat="47.55151" lon="16.08586">
        <ele>552.909099</ele>
        <time>2026-07-07T16:05:07.000Z</time>
      </trkpt>
      <trkpt lat="47.5515" lon="16.08584">
        <ele>553.074222</ele>
        <time>2026-07-07T16:05:08.000Z</time>
      </trkpt>
      <trkpt lat="47.55149" lon="16.08582">
        <ele>553.257464</ele>
        <time>2026-07-07T16:05:09.000Z</time>
      </trkpt>
      <trkpt lat="47.55147" lon="16.0858">
        <ele>553.435647</ele>
        <time>2026-07-07T16:05:10.000Z</time>
      </trkpt>
      <trkpt lat="47.55146" lon="16.08578">
        <ele>553.617671</ele>
        <time>2026-07-07T16:05:11.000Z</time>
      </trkpt>
      <trkpt lat="47.55145" lon="16.08576">
        <ele>553.817888</ele>
        <time>2026-07-07T16:05:12.000Z</time>
      </trkpt>
      <trkpt lat="47.55143" lon="16.08574">
        <ele>554.022621</ele>
        <time>2026-07-07T16:05:13.000Z</time>
      </trkpt>
      <trkpt lat="47.55142" lon="16.08572">
        <ele>554.221685</ele>
        <time>2026-07-07T16:05:14.000Z</time>
      </trkpt>
      <trkpt lat="47.55141" lon="16.08569">
        <ele>554.398862</ele>
        <time>2026-07-07T16:05:15.000Z</time>
      </trkpt>
      <trkpt lat="47.5514" lon="16.08567">
        <ele>554.563462</ele>
        <time>2026-07-07T16:05:16.000Z</time>
      </trkpt>
      <trkpt lat="47.55139" lon="16.08565">
        <ele>554.745086</ele>
        <time>2026-07-07T16:05:17.000Z</time>
      </trkpt>
      <trkpt lat="47.55138" lon="16.08563">
        <ele>554.936094</ele>
        <time>2026-07-07T16:05:18.000Z</time>
      </trkpt>
      <trkpt lat="47.55137" lon="16.08561">
        <ele>555.163509</ele>
        <time>2026-07-07T16:05:19.000Z</time>
      </trkpt>
      <trkpt lat="47.55136" lon="16.08559">
        <ele>555.388868</ele>
        <time>2026-07-07T16:05:20.000Z</time>
      </trkpt>
      <trkpt lat="47.55135" lon="16.08557">
        <ele>555.613109</ele>
        <time>2026-07-07T16:05:21.000Z</time>
      </trkpt>
      <trkpt lat="47.55134" lon="16.08554">
        <ele>555.830346</ele>
        <time>2026-07-07T16:05:22.000Z</time>
      </trkpt>
      <trkpt lat="47.55133" lon="16.08552">
        <ele>556.036986</ele>
        <time>2026-07-07T16:05:23.000Z</time>
      </trkpt>
      <trkpt lat="47.55133" lon="16.0855">
        <ele>556.227112</ele>
        <time>2026-07-07T16:05:24.000Z</time>
      </trkpt>
      <trkpt lat="47.55132" lon="16.08548">
        <ele>556.418938</ele>
        <time>2026-07-07T16:05:25.000Z</time>
      </trkpt>
      <trkpt lat="47.55131" lon="16.08545">
        <ele>556.628554</ele>
        <time>2026-07-07T16:05:26.000Z</time>
      </trkpt>
      <trkpt lat="47.55131" lon="16.08543">
        <ele>556.810936</ele>
        <time>2026-07-07T16:05:27.000Z</time>
      </trkpt>
      <trkpt lat="47.5513" lon="16.08541">
        <ele>557.013405</ele>
        <time>2026-07-07T16:05:28.000Z</time>
      </trkpt>
      <trkpt lat="47.5513" lon="16.08539">
        <ele>557.21131</ele>
        <time>2026-07-07T16:05:29.000Z</time>
      </trkpt>
      <trkpt lat="47.55129" lon="16.08536">
        <ele>557.424866</ele>
        <time>2026-07-07T16:05:30.000Z</time>
      </trkpt>
      <trkpt lat="47.55129" lon="16.08534">
        <ele>557.616725</ele>
        <time>2026-07-07T16:05:31.000Z</time>
      </trkpt>
      <trkpt lat="47.55128" lon="16.08532">
        <ele>557.815928</ele>
        <time>2026-07-07T16:05:32.000Z</time>
      </trkpt>
      <trkpt lat="47.55128" lon="16.08529">
        <ele>558.017884</ele>
        <time>2026-07-07T16:05:33.000Z</time>
      </trkpt>
      <trkpt lat="47.55127" lon="16.08527">
        <ele>558.20801</ele>
        <time>2026-07-07T16:05:34.000Z</time>
      </trkpt>
      <trkpt lat="47.55127" lon="16.08525">
        <ele>558.398135</ele>
        <time>2026-07-07T16:05:35.000Z</time>
      </trkpt>
      <trkpt lat="47.55126" lon="16.08523">
        <ele>558.592663</ele>
        <time>2026-07-07T16:05:36.000Z</time>
      </trkpt>
      <trkpt lat="47.55126" lon="16.0852">
        <ele>558.781428</ele>
        <time>2026-07-07T16:05:37.000Z</time>
      </trkpt>
      <trkpt lat="47.55126" lon="16.08518">
        <ele>558.978367</ele>
        <time>2026-07-07T16:05:38.000Z</time>
      </trkpt>
      <trkpt lat="47.55126" lon="16.08516">
        <ele>559.166742</ele>
        <time>2026-07-07T16:05:39.000Z</time>
      </trkpt>
      <trkpt lat="47.55127" lon="16.08513">
        <ele>559.348553</ele>
        <time>2026-07-07T16:05:40.000Z</time>
      </trkpt>
      <trkpt lat="47.55127" lon="16.08511">
        <ele>559.536927</ele>
        <time>2026-07-07T16:05:41.000Z</time>
      </trkpt>
      <trkpt lat="47.55126" lon="16.08509">
        <ele>559.726859</ele>
        <time>2026-07-07T16:05:42.000Z</time>
      </trkpt>
      <trkpt lat="47.55126" lon="16.08506">
        <ele>559.931973</ele>
        <time>2026-07-07T16:05:43.000Z</time>
      </trkpt>
      <trkpt lat="47.55126" lon="16.08504">
        <ele>560.13003</ele>
        <time>2026-07-07T16:05:44.000Z</time>
      </trkpt>
      <trkpt lat="47.55126" lon="16.08502">
        <ele>560.32189</ele>
        <time>2026-07-07T16:05:45.000Z</time>
      </trkpt>
      <trkpt lat="47.55125" lon="16.08499">
        <ele>560.508498</ele>
        <time>2026-07-07T16:05:46.000Z</time>
      </trkpt>
      <trkpt lat="47.55125" lon="16.08497">
        <ele>560.676299</ele>
        <time>2026-07-07T16:05:47.000Z</time>
      </trkpt>
      <trkpt lat="47.55125" lon="16.08495">
        <ele>560.841891</ele>
        <time>2026-07-07T16:05:48.000Z</time>
      </trkpt>
      <trkpt lat="47.55125" lon="16.08493">
        <ele>561.030265</ele>
        <time>2026-07-07T16:05:49.000Z</time>
      </trkpt>
      <trkpt lat="47.55125" lon="16.08491">
        <ele>561.224793</ele>
        <time>2026-07-07T16:05:50.000Z</time>
      </trkpt>
      <trkpt lat="47.55126" lon="16.08489">
        <ele>561.392594</ele>
        <time>2026-07-07T16:05:51.000Z</time>
      </trkpt>
      <trkpt lat="47.55126" lon="16.08487">
        <ele>561.552409</ele>
        <time>2026-07-07T16:05:52.000Z</time>
      </trkpt>
      <trkpt lat="47.55126" lon="16.08485">
        <ele>561.707618</ele>
        <time>2026-07-07T16:05:53.000Z</time>
      </trkpt>
      <trkpt lat="47.55127" lon="16.08483">
        <ele>561.875418</ele>
        <time>2026-07-07T16:05:54.000Z</time>
      </trkpt>
      <trkpt lat="47.55127" lon="16.08481">
        <ele>562.043219</ele>
        <time>2026-07-07T16:05:55.000Z</time>
      </trkpt>
      <trkpt lat="47.55128" lon="16.08479">
        <ele>562.264894</ele>
        <time>2026-07-07T16:05:56.000Z</time>
      </trkpt>
      <trkpt lat="47.55128" lon="16.08476">
        <ele>562.5064</ele>
        <time>2026-07-07T16:05:57.000Z</time>
      </trkpt>
      <trkpt lat="47.55129" lon="16.08474">
        <ele>562.661609</ele>
        <time>2026-07-07T16:05:58.000Z</time>
      </trkpt>
      <trkpt lat="47.55129" lon="16.08472">
        <ele>562.826032</ele>
        <time>2026-07-07T16:05:59.000Z</time>
      </trkpt>
      <trkpt lat="47.5513" lon="16.0847">
        <ele>562.996876</ele>
        <time>2026-07-07T16:06:00.000Z</time>
      </trkpt>
      <trkpt lat="47.5513" lon="16.08468">
        <ele>563.218011</ele>
        <time>2026-07-07T16:06:01.000Z</time>
      </trkpt>
      <trkpt lat="47.5513" lon="16.08466">
        <ele>563.361925</ele>
        <time>2026-07-07T16:06:02.000Z</time>
      </trkpt>
      <trkpt lat="47.5513" lon="16.08466">
        <ele>563.386496</ele>
        <time>2026-07-07T16:06:03.000Z</time>
      </trkpt>
      <trkpt lat="47.5513" lon="16.08465">
        <ele>563.415776</ele>
        <time>2026-07-07T16:06:04.000Z</time>
      </trkpt>
      <trkpt lat="47.5513" lon="16.08457">
        <ele>564.121803</ele>
        <time>2026-07-07T16:06:46.000Z</time>
      </trkpt>
      <trkpt lat="47.5513" lon="16.08455">
        <ele>564.285607</ele>
        <time>2026-07-07T16:06:47.000Z</time>
      </trkpt>
      <trkpt lat="47.5513" lon="16.08453">
        <ele>564.449859</ele>
        <time>2026-07-07T16:06:48.000Z</time>
      </trkpt>
      <trkpt lat="47.55131" lon="16.08451">
        <ele>564.615451</ele>
        <time>2026-07-07T16:06:49.000Z</time>
      </trkpt>
      <trkpt lat="47.55131" lon="16.08449">
        <ele>564.779255</ele>
        <time>2026-07-07T16:06:50.000Z</time>
      </trkpt>
      <trkpt lat="47.5513" lon="16.08447">
        <ele>564.920588</ele>
        <time>2026-07-07T16:06:51.000Z</time>
      </trkpt>
      <trkpt lat="47.5513" lon="16.08446">
        <ele>565.043441</ele>
        <time>2026-07-07T16:06:52.000Z</time>
      </trkpt>
      <trkpt lat="47.5513" lon="16.08444">
        <ele>565.207244</ele>
        <time>2026-07-07T16:06:53.000Z</time>
      </trkpt>
      <trkpt lat="47.5513" lon="16.08441">
        <ele>565.387837</ele>
        <time>2026-07-07T16:06:54.000Z</time>
      </trkpt>
      <trkpt lat="47.5513" lon="16.08439">
        <ele>565.553429</ele>
        <time>2026-07-07T16:06:55.000Z</time>
      </trkpt>
      <trkpt lat="47.5513" lon="16.08437">
        <ele>565.721229</ele>
        <time>2026-07-07T16:06:56.000Z</time>
      </trkpt>
      <trkpt lat="47.55129" lon="16.08435">
        <ele>565.919134</ele>
        <time>2026-07-07T16:06:57.000Z</time>
      </trkpt>
      <trkpt lat="47.55129" lon="16.08433">
        <ele>566.093814</ele>
        <time>2026-07-07T16:06:58.000Z</time>
      </trkpt>
      <trkpt lat="47.55128" lon="16.08431">
        <ele>566.268494</ele>
        <time>2026-07-07T16:06:59.000Z</time>
      </trkpt>
      <trkpt lat="47.55128" lon="16.08429">
        <ele>566.427915</ele>
        <time>2026-07-07T16:07:00.000Z</time>
      </trkpt>
      <trkpt lat="47.55127" lon="16.08427">
        <ele>566.602595</ele>
        <time>2026-07-07T16:07:01.000Z</time>
      </trkpt>
      <trkpt lat="47.55127" lon="16.08425">
        <ele>566.779883</ele>
        <time>2026-07-07T16:07:02.000Z</time>
      </trkpt>
      <trkpt lat="47.55126" lon="16.08424">
        <ele>566.950027</ele>
        <time>2026-07-07T16:07:03.000Z</time>
      </trkpt>
      <trkpt lat="47.55126" lon="16.08422">
        <ele>567.117828</ele>
        <time>2026-07-07T16:07:04.000Z</time>
      </trkpt>
      <trkpt lat="47.55125" lon="16.08419">
        <ele>567.301653</ele>
        <time>2026-07-07T16:07:05.000Z</time>
      </trkpt>
      <trkpt lat="47.55125" lon="16.08417">
        <ele>567.480365</ele>
        <time>2026-07-07T16:07:06.000Z</time>
      </trkpt>
      <trkpt lat="47.55125" lon="16.08415">
        <ele>567.648166</ele>
        <time>2026-07-07T16:07:07.000Z</time>
      </trkpt>
      <trkpt lat="47.55124" lon="16.08413">
        <ele>567.807981</ele>
        <time>2026-07-07T16:07:08.000Z</time>
      </trkpt>
      <trkpt lat="47.55124" lon="16.08411">
        <ele>567.978826</ele>
        <time>2026-07-07T16:07:09.000Z</time>
      </trkpt>
      <trkpt lat="47.55123" lon="16.08409">
        <ele>568.169236</ele>
        <time>2026-07-07T16:07:10.000Z</time>
      </trkpt>
      <trkpt lat="47.55122" lon="16.08408">
        <ele>568.339381</ele>
        <time>2026-07-07T16:07:11.000Z</time>
      </trkpt>
      <trkpt lat="47.55122" lon="16.08406">
        <ele>568.518637</ele>
        <time>2026-07-07T16:07:12.000Z</time>
      </trkpt>
      <trkpt lat="47.55121" lon="16.08403">
        <ele>568.708763</ele>
        <time>2026-07-07T16:07:13.000Z</time>
      </trkpt>
      <trkpt lat="47.55121" lon="16.08401">
        <ele>568.887476</ele>
        <time>2026-07-07T16:07:14.000Z</time>
      </trkpt>
      <trkpt lat="47.55121" lon="16.08399">
        <ele>569.071301</ele>
        <time>2026-07-07T16:07:15.000Z</time>
      </trkpt>
      <trkpt lat="47.5512" lon="16.08397">
        <ele>569.263161</ele>
        <time>2026-07-07T16:07:16.000Z</time>
      </trkpt>
      <trkpt lat="47.5512" lon="16.08395">
        <ele>569.453287</ele>
        <time>2026-07-07T16:07:17.000Z</time>
      </trkpt>
      <trkpt lat="47.55119" lon="16.08392">
        <ele>569.643413</ele>
        <time>2026-07-07T16:07:18.000Z</time>
      </trkpt>
      <trkpt lat="47.55119" lon="16.0839">
        <ele>569.814257</ele>
        <time>2026-07-07T16:07:19.000Z</time>
      </trkpt>
      <trkpt lat="47.55118" lon="16.08388">
        <ele>569.993514</ele>
        <time>2026-07-07T16:07:20.000Z</time>
      </trkpt>
      <trkpt lat="47.55118" lon="16.08386">
        <ele>570.164359</ele>
        <time>2026-07-07T16:07:21.000Z</time>
      </trkpt>
      <trkpt lat="47.55118" lon="16.08384">
        <ele>570.340164</ele>
        <time>2026-07-07T16:07:22.000Z</time>
      </trkpt>
      <trkpt lat="47.55117" lon="16.08382">
        <ele>570.53029</ele>
        <time>2026-07-07T16:07:23.000Z</time>
      </trkpt>
      <trkpt lat="47.55117" lon="16.0838">
        <ele>570.714115</ele>
        <time>2026-07-07T16:07:24.000Z</time>
      </trkpt>
      <trkpt lat="47.55116" lon="16.08378">
        <ele>570.896498</ele>
        <time>2026-07-07T16:07:25.000Z</time>
      </trkpt>
      <trkpt lat="47.55116" lon="16.08376">
        <ele>571.071178</ele>
        <time>2026-07-07T16:07:26.000Z</time>
      </trkpt>
      <trkpt lat="47.55115" lon="16.08374">
        <ele>571.242023</ele>
        <time>2026-07-07T16:07:27.000Z</time>
      </trkpt>
      <trkpt lat="47.55115" lon="16.08372">
        <ele>571.422208</ele>
        <time>2026-07-07T16:07:28.000Z</time>
      </trkpt>
      <trkpt lat="47.55116" lon="16.08369">
        <ele>571.616736</ele>
        <time>2026-07-07T16:07:29.000Z</time>
      </trkpt>
      <trkpt lat="47.55116" lon="16.08367">
        <ele>571.79692</ele>
        <time>2026-07-07T16:07:30.000Z</time>
      </trkpt>
      <trkpt lat="47.55115" lon="16.08365">
        <ele>572.010476</ele>
        <time>2026-07-07T16:07:31.000Z</time>
      </trkpt>
      <trkpt lat="47.55115" lon="16.08362">
        <ele>572.217117</ele>
        <time>2026-07-07T16:07:32.000Z</time>
      </trkpt>
      <trkpt lat="47.55114" lon="16.0836">
        <ele>572.416321</ele>
        <time>2026-07-07T16:07:33.000Z</time>
      </trkpt>
      <trkpt lat="47.55113" lon="16.08358">
        <ele>572.595578</ele>
        <time>2026-07-07T16:07:34.000Z</time>
      </trkpt>
      <trkpt lat="47.55112" lon="16.08356">
        <ele>572.772535</ele>
        <time>2026-07-07T16:07:35.000Z</time>
      </trkpt>
      <trkpt lat="47.55112" lon="16.08355">
        <ele>572.93562</ele>
        <time>2026-07-07T16:07:36.000Z</time>
      </trkpt>
      <trkpt lat="47.55111" lon="16.08353">
        <ele>573.134823</ele>
        <time>2026-07-07T16:07:37.000Z</time>
      </trkpt>
      <trkpt lat="47.5511" lon="16.08351">
        <ele>573.309504</ele>
        <time>2026-07-07T16:07:38.000Z</time>
      </trkpt>
      <trkpt lat="47.5511" lon="16.08349">
        <ele>573.477305</ele>
        <time>2026-07-07T16:07:39.000Z</time>
      </trkpt>
      <trkpt lat="47.5511" lon="16.08346">
        <ele>573.66113</ele>
        <time>2026-07-07T16:07:40.000Z</time>
      </trkpt>
      <trkpt lat="47.5511" lon="16.08344">
        <ele>573.834829</ele>
        <time>2026-07-07T16:07:41.000Z</time>
      </trkpt>
      <trkpt lat="47.55109" lon="16.08342">
        <ele>574.018655</ele>
        <time>2026-07-07T16:07:42.000Z</time>
      </trkpt>
      <trkpt lat="47.55109" lon="16.0834">
        <ele>574.200467</ele>
        <time>2026-07-07T16:07:43.000Z</time>
      </trkpt>
      <trkpt lat="47.55109" lon="16.08338">
        <ele>574.372461</ele>
        <time>2026-07-07T16:07:44.000Z</time>
      </trkpt>
      <trkpt lat="47.55109" lon="16.08335">
        <ele>574.570519</ele>
        <time>2026-07-07T16:07:45.000Z</time>
      </trkpt>
      <trkpt lat="47.55109" lon="16.08333">
        <ele>574.736112</ele>
        <time>2026-07-07T16:07:46.000Z</time>
      </trkpt>
      <trkpt lat="47.55109" lon="16.08331">
        <ele>574.908107</ele>
        <time>2026-07-07T16:07:47.000Z</time>
      </trkpt>
      <trkpt lat="47.55109" lon="16.08329">
        <ele>575.089919</ele>
        <time>2026-07-07T16:07:48.000Z</time>
      </trkpt>
      <trkpt lat="47.55108" lon="16.08327">
        <ele>575.280045</ele>
        <time>2026-07-07T16:07:49.000Z</time>
      </trkpt>
      <trkpt lat="47.55108" lon="16.08325">
        <ele>575.452467</ele>
        <time>2026-07-07T16:07:50.000Z</time>
      </trkpt>
      <trkpt lat="47.55108" lon="16.08323">
        <ele>575.623312</ele>
        <time>2026-07-07T16:07:51.000Z</time>
      </trkpt>
      <trkpt lat="47.55108" lon="16.08321">
        <ele>575.807138</ele>
        <time>2026-07-07T16:07:52.000Z</time>
      </trkpt>
      <trkpt lat="47.55107" lon="16.08318">
        <ele>575.98895</ele>
        <time>2026-07-07T16:07:53.000Z</time>
      </trkpt>
      <trkpt lat="47.55107" lon="16.08316">
        <ele>576.161372</ele>
        <time>2026-07-07T16:07:54.000Z</time>
      </trkpt>
      <trkpt lat="47.55107" lon="16.08314">
        <ele>576.347981</ele>
        <time>2026-07-07T16:07:55.000Z</time>
      </trkpt>
      <trkpt lat="47.55107" lon="16.08312">
        <ele>576.499833</ele>
        <time>2026-07-07T16:07:56.000Z</time>
      </trkpt>
      <trkpt lat="47.55106" lon="16.0831">
        <ele>576.657328</ele>
        <time>2026-07-07T16:07:57.000Z</time>
      </trkpt>
      <trkpt lat="47.55106" lon="16.08308">
        <ele>576.822777</ele>
        <time>2026-07-07T16:07:58.000Z</time>
      </trkpt>
      <trkpt lat="47.55105" lon="16.08306">
        <ele>576.998965</ele>
        <time>2026-07-07T16:07:59.000Z</time>
      </trkpt>
      <trkpt lat="47.55104" lon="16.08304">
        <ele>577.169369</ele>
        <time>2026-07-07T16:08:00.000Z</time>
      </trkpt>
      <trkpt lat="47.55104" lon="16.08303">
        <ele>577.301302</ele>
        <time>2026-07-07T16:08:01.000Z</time>
      </trkpt>
      <trkpt lat="47.55104" lon="16.08301">
        <ele>577.447895</ele>
        <time>2026-07-07T16:08:02.000Z</time>
      </trkpt>
      <trkpt lat="47.55104" lon="16.08299">
        <ele>577.594488</ele>
        <time>2026-07-07T16:08:03.000Z</time>
      </trkpt>
      <trkpt lat="47.55104" lon="16.08296">
        <ele>577.757196</ele>
        <time>2026-07-07T16:08:04.000Z</time>
      </trkpt>
      <trkpt lat="47.55104" lon="16.08294">
        <ele>577.903789</ele>
        <time>2026-07-07T16:08:05.000Z</time>
      </trkpt>
      <trkpt lat="47.55104" lon="16.08292">
        <ele>578.057711</ele>
        <time>2026-07-07T16:08:06.000Z</time>
      </trkpt>
      <trkpt lat="47.55104" lon="16.0829">
        <ele>578.205904</ele>
        <time>2026-07-07T16:08:07.000Z</time>
      </trkpt>
      <trkpt lat="47.55104" lon="16.08288">
        <ele>578.352497</ele>
        <time>2026-07-07T16:08:08.000Z</time>
      </trkpt>
      <trkpt lat="47.55104" lon="16.08286">
        <ele>578.513749</ele>
        <time>2026-07-07T16:08:09.000Z</time>
      </trkpt>
      <trkpt lat="47.55104" lon="16.08284">
        <ele>578.645683</ele>
        <time>2026-07-07T16:08:10.000Z</time>
      </trkpt>
      <trkpt lat="47.55104" lon="16.08282">
        <ele>578.792275</ele>
        <time>2026-07-07T16:08:11.000Z</time>
      </trkpt>
      <trkpt lat="47.55104" lon="16.0828">
        <ele>578.940468</ele>
        <time>2026-07-07T16:08:12.000Z</time>
      </trkpt>
      <trkpt lat="47.55104" lon="16.08278">
        <ele>579.080154</ele>
        <time>2026-07-07T16:08:13.000Z</time>
      </trkpt>
      <trkpt lat="47.55104" lon="16.08277">
        <ele>579.213864</ele>
        <time>2026-07-07T16:08:14.000Z</time>
      </trkpt>
      <trkpt lat="47.55103" lon="16.08275">
        <ele>579.347573</ele>
        <time>2026-07-07T16:08:15.000Z</time>
      </trkpt>
      <trkpt lat="47.55103" lon="16.08273">
        <ele>579.486836</ele>
        <time>2026-07-07T16:08:16.000Z</time>
      </trkpt>
      <trkpt lat="47.55103" lon="16.08271">
        <ele>579.633831</ele>
        <time>2026-07-07T16:08:17.000Z</time>
      </trkpt>
      <trkpt lat="47.55103" lon="16.08269">
        <ele>579.789278</ele>
        <time>2026-07-07T16:08:18.000Z</time>
      </trkpt>
      <trkpt lat="47.55103" lon="16.08267">
        <ele>579.930225</ele>
        <time>2026-07-07T16:08:19.000Z</time>
      </trkpt>
      <trkpt lat="47.55103" lon="16.08265">
        <ele>580.062605</ele>
        <time>2026-07-07T16:08:20.000Z</time>
      </trkpt>
      <trkpt lat="47.55103" lon="16.08263">
        <ele>580.209599</ele>
        <time>2026-07-07T16:08:21.000Z</time>
      </trkpt>
      <trkpt lat="47.55103" lon="16.08261">
        <ele>580.362493</ele>
        <time>2026-07-07T16:08:22.000Z</time>
      </trkpt>
      <trkpt lat="47.55103" lon="16.08259">
        <ele>580.509487</ele>
        <time>2026-07-07T16:08:23.000Z</time>
      </trkpt>
      <trkpt lat="47.55104" lon="16.08257">
        <ele>580.65768</ele>
        <time>2026-07-07T16:08:24.000Z</time>
      </trkpt>
      <trkpt lat="47.55103" lon="16.08255">
        <ele>580.784163</ele>
        <time>2026-07-07T16:08:25.000Z</time>
      </trkpt>
      <trkpt lat="47.55103" lon="16.08254">
        <ele>580.916543</ele>
        <time>2026-07-07T16:08:26.000Z</time>
      </trkpt>
      <trkpt lat="47.55103" lon="16.08252">
        <ele>581.050252</ele>
        <time>2026-07-07T16:08:27.000Z</time>
      </trkpt>
      <trkpt lat="47.55103" lon="16.08249">
        <ele>581.227499</ele>
        <time>2026-07-07T16:08:28.000Z</time>
      </trkpt>
      <trkpt lat="47.55103" lon="16.08247">
        <ele>581.381422</ele>
        <time>2026-07-07T16:08:29.000Z</time>
      </trkpt>
      <trkpt lat="47.55103" lon="16.08245">
        <ele>581.531591</ele>
        <time>2026-07-07T16:08:30.000Z</time>
      </trkpt>
      <trkpt lat="47.55102" lon="16.08244">
        <ele>581.660384</ele>
        <time>2026-07-07T16:08:31.000Z</time>
      </trkpt>
      <trkpt lat="47.55102" lon="16.08242">
        <ele>581.792343</ele>
        <time>2026-07-07T16:08:32.000Z</time>
      </trkpt>
      <trkpt lat="47.55101" lon="16.0824">
        <ele>581.921577</ele>
        <time>2026-07-07T16:08:33.000Z</time>
      </trkpt>
      <trkpt lat="47.55101" lon="16.08239">
        <ele>582.056031</ele>
        <time>2026-07-07T16:08:34.000Z</time>
      </trkpt>
      <trkpt lat="47.551" lon="16.08238">
        <ele>582.184977</ele>
        <time>2026-07-07T16:08:35.000Z</time>
      </trkpt>
      <trkpt lat="47.55099" lon="16.08236">
        <ele>582.346414</ele>
        <time>2026-07-07T16:08:36.000Z</time>
      </trkpt>
      <trkpt lat="47.55097" lon="16.08235">
        <ele>582.49593</ele>
        <time>2026-07-07T16:08:37.000Z</time>
      </trkpt>
      <trkpt lat="47.55096" lon="16.08235">
        <ele>582.646142</ele>
        <time>2026-07-07T16:08:38.000Z</time>
      </trkpt>
      <trkpt lat="47.55095" lon="16.08234">
        <ele>582.789022</ele>
        <time>2026-07-07T16:08:39.000Z</time>
      </trkpt>
      <trkpt lat="47.55093" lon="16.08234">
        <ele>582.951919</ele>
        <time>2026-07-07T16:08:40.000Z</time>
      </trkpt>
      <trkpt lat="47.55092" lon="16.08235">
        <ele>583.120648</ele>
        <time>2026-07-07T16:08:41.000Z</time>
      </trkpt>
      <trkpt lat="47.5509" lon="16.08236">
        <ele>583.299275</ele>
        <time>2026-07-07T16:08:42.000Z</time>
      </trkpt>
      <trkpt lat="47.55089" lon="16.08237">
        <ele>583.484401</ele>
        <time>2026-07-07T16:08:43.000Z</time>
      </trkpt>
      <trkpt lat="47.55088" lon="16.08238">
        <ele>583.641624</ele>
        <time>2026-07-07T16:08:44.000Z</time>
      </trkpt>
      <trkpt lat="47.55087" lon="16.0824">
        <ele>583.79616</ele>
        <time>2026-07-07T16:08:45.000Z</time>
      </trkpt>
      <trkpt lat="47.55086" lon="16.08242">
        <ele>583.96704</ele>
        <time>2026-07-07T16:08:46.000Z</time>
      </trkpt>
      <trkpt lat="47.55085" lon="16.08243">
        <ele>584.119308</ele>
        <time>2026-07-07T16:08:47.000Z</time>
      </trkpt>
      <trkpt lat="47.55084" lon="16.08245">
        <ele>584.308411</ele>
        <time>2026-07-07T16:08:48.000Z</time>
      </trkpt>
      <trkpt lat="47.55083" lon="16.08248">
        <ele>584.486684</ele>
        <time>2026-07-07T16:08:49.000Z</time>
      </trkpt>
      <trkpt lat="47.55083" lon="16.0825">
        <ele>584.634877</ele>
        <time>2026-07-07T16:08:50.000Z</time>
      </trkpt>
      <trkpt lat="47.55083" lon="16.08252">
        <ele>584.79613</ele>
        <time>2026-07-07T16:08:51.000Z</time>
      </trkpt>
      <trkpt lat="47.55084" lon="16.08254">
        <ele>584.967802</ele>
        <time>2026-07-07T16:08:52.000Z</time>
      </trkpt>
      <trkpt lat="47.55084" lon="16.08256">
        <ele>585.150969</ele>
        <time>2026-07-07T16:08:53.000Z</time>
      </trkpt>
      <trkpt lat="47.55085" lon="16.08258">
        <ele>585.32808</ele>
        <time>2026-07-07T16:08:54.000Z</time>
      </trkpt>
      <trkpt lat="47.55086" lon="16.0826">
        <ele>585.493212</ele>
        <time>2026-07-07T16:08:55.000Z</time>
      </trkpt>
      <trkpt lat="47.55086" lon="16.08263">
        <ele>585.663361</ele>
        <time>2026-07-07T16:08:56.000Z</time>
      </trkpt>
      <trkpt lat="47.55087" lon="16.08265">
        <ele>585.857773</ele>
        <time>2026-07-07T16:08:57.000Z</time>
      </trkpt>
      <trkpt lat="47.55088" lon="16.08267">
        <ele>586.047425</ele>
        <time>2026-07-07T16:08:58.000Z</time>
      </trkpt>
      <trkpt lat="47.55088" lon="16.0827">
        <ele>586.238542</ele>
        <time>2026-07-07T16:08:59.000Z</time>
      </trkpt>
      <trkpt lat="47.55089" lon="16.08272">
        <ele>586.429659</ele>
        <time>2026-07-07T16:09:00.000Z</time>
      </trkpt>
      <trkpt lat="47.55089" lon="16.08275">
        <ele>586.617979</ele>
        <time>2026-07-07T16:09:01.000Z</time>
      </trkpt>
      <trkpt lat="47.55089" lon="16.08277">
        <ele>586.766173</ele>
        <time>2026-07-07T16:09:02.000Z</time>
      </trkpt>
      <trkpt lat="47.55089" lon="16.08279">
        <ele>586.930684</ele>
        <time>2026-07-07T16:09:03.000Z</time>
      </trkpt>
      <trkpt lat="47.55088" lon="16.08281">
        <ele>587.104772</ele>
        <time>2026-07-07T16:09:04.000Z</time>
      </trkpt>
      <trkpt lat="47.55088" lon="16.08283">
        <ele>587.274922</ele>
        <time>2026-07-07T16:09:05.000Z</time>
      </trkpt>
      <trkpt lat="47.55087" lon="16.08285">
        <ele>587.435344</ele>
        <time>2026-07-07T16:09:06.000Z</time>
      </trkpt>
      <trkpt lat="47.55087" lon="16.08287">
        <ele>587.607015</ele>
        <time>2026-07-07T16:09:07.000Z</time>
      </trkpt>
      <trkpt lat="47.55086" lon="16.08289">
        <ele>587.777419</ele>
        <time>2026-07-07T16:09:08.000Z</time>
      </trkpt>
      <trkpt lat="47.55085" lon="16.08291">
        <ele>587.947558</ele>
        <time>2026-07-07T16:09:09.000Z</time>
      </trkpt>
      <trkpt lat="47.55084" lon="16.08293">
        <ele>588.118438</ele>
        <time>2026-07-07T16:09:10.000Z</time>
      </trkpt>
      <trkpt lat="47.55083" lon="16.08295">
        <ele>588.300875</ele>
        <time>2026-07-07T16:09:11.000Z</time>
      </trkpt>
      <trkpt lat="47.55082" lon="16.08297">
        <ele>588.478854</ele>
        <time>2026-07-07T16:09:12.000Z</time>
      </trkpt>
      <trkpt lat="47.55081" lon="16.08299">
        <ele>588.674998</ele>
        <time>2026-07-07T16:09:13.000Z</time>
      </trkpt>
      <trkpt lat="47.5508" lon="16.08301">
        <ele>588.857435</ele>
        <time>2026-07-07T16:09:14.000Z</time>
      </trkpt>
      <trkpt lat="47.55079" lon="16.08303">
        <ele>589.051847</ele>
        <time>2026-07-07T16:09:15.000Z</time>
      </trkpt>
      <trkpt lat="47.55078" lon="16.08305">
        <ele>589.222727</ele>
        <time>2026-07-07T16:09:16.000Z</time>
      </trkpt>
      <trkpt lat="47.55076" lon="16.08307">
        <ele>589.40303</ele>
        <time>2026-07-07T16:09:17.000Z</time>
      </trkpt>
      <trkpt lat="47.55075" lon="16.08308">
        <ele>589.581968</ele>
        <time>2026-07-07T16:09:18.000Z</time>
      </trkpt>
      <trkpt lat="47.55074" lon="16.08309">
        <ele>589.739191</ele>
        <time>2026-07-07T16:09:19.000Z</time>
      </trkpt>
      <trkpt lat="47.55072" lon="16.0831">
        <ele>589.920949</ele>
        <time>2026-07-07T16:09:20.000Z</time>
      </trkpt>
      <trkpt lat="47.55071" lon="16.08311">
        <ele>590.08002</ele>
        <time>2026-07-07T16:09:21.000Z</time>
      </trkpt>
      <trkpt lat="47.5507" lon="16.08312">
        <ele>590.250806</ele>
        <time>2026-07-07T16:09:22.000Z</time>
      </trkpt>
      <trkpt lat="47.55068" lon="16.08313">
        <ele>590.417775</ele>
        <time>2026-07-07T16:09:23.000Z</time>
      </trkpt>
      <trkpt lat="47.55067" lon="16.08313">
        <ele>590.560654</ele>
        <time>2026-07-07T16:09:24.000Z</time>
      </trkpt>
      <trkpt lat="47.55065" lon="16.08313">
        <ele>590.712868</ele>
        <time>2026-07-07T16:09:25.000Z</time>
      </trkpt>
      <trkpt lat="47.55064" lon="16.08312">
        <ele>590.858725</ele>
        <time>2026-07-07T16:09:26.000Z</time>
      </trkpt>
      <trkpt lat="47.55063" lon="16.08312">
        <ele>591.025694</ele>
        <time>2026-07-07T16:09:27.000Z</time>
      </trkpt>
      <trkpt lat="47.55061" lon="16.08311">
        <ele>591.191208</ele>
        <time>2026-07-07T16:09:28.000Z</time>
      </trkpt>
      <trkpt lat="47.5506" lon="16.08311">
        <ele>591.355582</ele>
        <time>2026-07-07T16:09:29.000Z</time>
      </trkpt>
      <trkpt lat="47.55058" lon="16.0831">
        <ele>591.549288</ele>
        <time>2026-07-07T16:09:30.000Z</time>
      </trkpt>
      <trkpt lat="47.55056" lon="16.0831">
        <ele>591.720074</ele>
        <time>2026-07-07T16:09:31.000Z</time>
      </trkpt>
      <trkpt lat="47.55055" lon="16.08309">
        <ele>591.893203</ele>
        <time>2026-07-07T16:09:32.000Z</time>
      </trkpt>
      <trkpt lat="47.55053" lon="16.08308">
        <ele>592.060172</ele>
        <time>2026-07-07T16:09:33.000Z</time>
      </trkpt>
      <trkpt lat="47.55052" lon="16.08308">
        <ele>592.230958</ele>
        <time>2026-07-07T16:09:34.000Z</time>
      </trkpt>
      <trkpt lat="47.55051" lon="16.08307">
        <ele>592.364032</ele>
        <time>2026-07-07T16:09:35.000Z</time>
      </trkpt>
      <trkpt lat="47.55049" lon="16.08306">
        <ele>592.529763</ele>
        <time>2026-07-07T16:09:36.000Z</time>
      </trkpt>
      <trkpt lat="47.55048" lon="16.08305">
        <ele>592.682634</ele>
        <time>2026-07-07T16:09:37.000Z</time>
      </trkpt>
      <trkpt lat="47.55047" lon="16.08304">
        <ele>592.848969</ele>
        <time>2026-07-07T16:09:38.000Z</time>
      </trkpt>
      <trkpt lat="47.55046" lon="16.08302">
        <ele>593.019471</ele>
        <time>2026-07-07T16:09:39.000Z</time>
      </trkpt>
      <trkpt lat="47.55044" lon="16.08301">
        <ele>593.172714</ele>
        <time>2026-07-07T16:09:40.000Z</time>
      </trkpt>
      <trkpt lat="47.55043" lon="16.083">
        <ele>593.312866</ele>
        <time>2026-07-07T16:09:41.000Z</time>
      </trkpt>
      <trkpt lat="47.55042" lon="16.08299">
        <ele>593.470089</ele>
        <time>2026-07-07T16:09:42.000Z</time>
      </trkpt>
      <trkpt lat="47.55041" lon="16.08298">
        <ele>593.609838</ele>
        <time>2026-07-07T16:09:43.000Z</time>
      </trkpt>
      <trkpt lat="47.5504" lon="16.08297">
        <ele>593.752741</ele>
        <time>2026-07-07T16:09:44.000Z</time>
      </trkpt>
      <trkpt lat="47.55039" lon="16.08296">
        <ele>593.892893</ele>
        <time>2026-07-07T16:09:45.000Z</time>
      </trkpt>
      <trkpt lat="47.55038" lon="16.08295">
        <ele>594.035795</ele>
        <time>2026-07-07T16:09:46.000Z</time>
      </trkpt>
      <trkpt lat="47.55036" lon="16.08294">
        <ele>594.185312</ele>
        <time>2026-07-07T16:09:47.000Z</time>
      </trkpt>
      <trkpt lat="47.55035" lon="16.08293">
        <ele>594.325061</ele>
        <time>2026-07-07T16:09:48.000Z</time>
      </trkpt>
      <trkpt lat="47.55034" lon="16.08292">
        <ele>594.456081</ele>
        <time>2026-07-07T16:09:49.000Z</time>
      </trkpt>
      <trkpt lat="47.55033" lon="16.08291">
        <ele>594.589154</ele>
        <time>2026-07-07T16:09:50.000Z</time>
      </trkpt>
      <trkpt lat="47.55032" lon="16.0829">
        <ele>594.738671</ele>
        <time>2026-07-07T16:09:51.000Z</time>
      </trkpt>
      <trkpt lat="47.55031" lon="16.08289">
        <ele>594.87842</ele>
        <time>2026-07-07T16:09:52.000Z</time>
      </trkpt>
      <trkpt lat="47.5503" lon="16.08288">
        <ele>595.01817</ele>
        <time>2026-07-07T16:09:53.000Z</time>
      </trkpt>
      <trkpt lat="47.55029" lon="16.08287">
        <ele>595.162645</ele>
        <time>2026-07-07T16:09:54.000Z</time>
      </trkpt>
      <trkpt lat="47.55028" lon="16.08285">
        <ele>595.302774</ele>
        <time>2026-07-07T16:09:55.000Z</time>
      </trkpt>
      <trkpt lat="47.55027" lon="16.08284">
        <ele>595.464212</ele>
        <time>2026-07-07T16:09:56.000Z</time>
      </trkpt>
      <trkpt lat="47.55026" lon="16.08283">
        <ele>595.603961</ele>
        <time>2026-07-07T16:09:57.000Z</time>
      </trkpt>
      <trkpt lat="47.55025" lon="16.08281">
        <ele>595.758498</ele>
        <time>2026-07-07T16:09:58.000Z</time>
      </trkpt>
      <trkpt lat="47.55024" lon="16.0828">
        <ele>595.902974</ele>
        <time>2026-07-07T16:09:59.000Z</time>
      </trkpt>
      <trkpt lat="47.55023" lon="16.08278">
        <ele>596.077505</ele>
        <time>2026-07-07T16:10:00.000Z</time>
      </trkpt>
      <trkpt lat="47.55022" lon="16.08277">
        <ele>596.208524</ele>
        <time>2026-07-07T16:10:01.000Z</time>
      </trkpt>
      <trkpt lat="47.55021" lon="16.08277">
        <ele>596.347712</ele>
        <time>2026-07-07T16:10:02.000Z</time>
      </trkpt>
      <trkpt lat="47.55019" lon="16.08276">
        <ele>596.500218</ele>
        <time>2026-07-07T16:10:03.000Z</time>
      </trkpt>
      <trkpt lat="47.55018" lon="16.08275">
        <ele>596.665661</ele>
        <time>2026-07-07T16:10:04.000Z</time>
      </trkpt>
      <trkpt lat="47.55016" lon="16.08274">
        <ele>596.844093</ele>
        <time>2026-07-07T16:10:05.000Z</time>
      </trkpt>
      <trkpt lat="47.55015" lon="16.08273">
        <ele>596.990415</ele>
        <time>2026-07-07T16:10:06.000Z</time>
      </trkpt>
      <trkpt lat="47.55014" lon="16.08272">
        <ele>597.147313</ele>
        <time>2026-07-07T16:10:07.000Z</time>
      </trkpt>
      <trkpt lat="47.55013" lon="16.0827">
        <ele>597.315126</ele>
        <time>2026-07-07T16:10:08.000Z</time>
      </trkpt>
      <trkpt lat="47.55012" lon="16.08269">
        <ele>597.464482</ele>
        <time>2026-07-07T16:10:09.000Z</time>
      </trkpt>
      <trkpt lat="47.55011" lon="16.08267">
        <ele>597.611164</ele>
        <time>2026-07-07T16:10:10.000Z</time>
      </trkpt>
      <trkpt lat="47.5501" lon="16.08266">
        <ele>597.762858</ele>
        <time>2026-07-07T16:10:11.000Z</time>
      </trkpt>
      <trkpt lat="47.55009" lon="16.08265">
        <ele>597.892098</ele>
        <time>2026-07-07T16:10:12.000Z</time>
      </trkpt>
      <trkpt lat="47.55008" lon="16.08265">
        <ele>598.046458</ele>
        <time>2026-07-07T16:10:13.000Z</time>
      </trkpt>
      <trkpt lat="47.55006" lon="16.08265">
        <ele>598.222869</ele>
        <time>2026-07-07T16:10:14.000Z</time>
      </trkpt>
      <trkpt lat="47.55005" lon="16.08265">
        <ele>598.412654</ele>
        <time>2026-07-07T16:10:15.000Z</time>
      </trkpt>
      <trkpt lat="47.55003" lon="16.08264">
        <ele>598.56786</ele>
        <time>2026-07-07T16:10:16.000Z</time>
      </trkpt>
      <trkpt lat="47.55002" lon="16.08263">
        <ele>598.719661</ele>
        <time>2026-07-07T16:10:17.000Z</time>
      </trkpt>
      <trkpt lat="47.55001" lon="16.08262">
        <ele>598.845179</ele>
        <time>2026-07-07T16:10:18.000Z</time>
      </trkpt>
      <trkpt lat="47.55" lon="16.08261">
        <ele>598.983765</ele>
        <time>2026-07-07T16:10:19.000Z</time>
      </trkpt>
      <trkpt lat="47.54999" lon="16.08259">
        <ele>599.130447</ele>
        <time>2026-07-07T16:10:20.000Z</time>
      </trkpt>
      <trkpt lat="47.54998" lon="16.08258">
        <ele>599.282141</ele>
        <time>2026-07-07T16:10:21.000Z</time>
      </trkpt>
      <trkpt lat="47.54997" lon="16.08257">
        <ele>599.428464</ele>
        <time>2026-07-07T16:10:22.000Z</time>
      </trkpt>
      <trkpt lat="47.54996" lon="16.08256">
        <ele>599.576758</ele>
        <time>2026-07-07T16:10:23.000Z</time>
      </trkpt>
      <trkpt lat="47.54995" lon="16.08255">
        <ele>599.716397</ele>
        <time>2026-07-07T16:10:24.000Z</time>
      </trkpt>
      <trkpt lat="47.54994" lon="16.08255">
        <ele>599.864482</ele>
        <time>2026-07-07T16:10:25.000Z</time>
      </trkpt>
      <trkpt lat="47.54992" lon="16.08254">
        <ele>600.001923</ele>
        <time>2026-07-07T16:10:26.000Z</time>
      </trkpt>
      <trkpt lat="47.54991" lon="16.08254">
        <ele>600.154429</ele>
        <time>2026-07-07T16:10:27.000Z</time>
      </trkpt>
      <trkpt lat="47.5499" lon="16.08253">
        <ele>600.323949</ele>
        <time>2026-07-07T16:10:28.000Z</time>
      </trkpt>
      <trkpt lat="47.54988" lon="16.08253">
        <ele>600.457091</ele>
        <time>2026-07-07T16:10:29.000Z</time>
      </trkpt>
      <trkpt lat="47.54987" lon="16.08253">
        <ele>600.600425</ele>
        <time>2026-07-07T16:10:30.000Z</time>
      </trkpt>
      <trkpt lat="47.54986" lon="16.08252">
        <ele>600.771732</ele>
        <time>2026-07-07T16:10:31.000Z</time>
      </trkpt>
      <trkpt lat="47.54984" lon="16.08251">
        <ele>600.929942</ele>
        <time>2026-07-07T16:10:32.000Z</time>
      </trkpt>
      <trkpt lat="47.54983" lon="16.0825">
        <ele>601.067265</ele>
        <time>2026-07-07T16:10:33.000Z</time>
      </trkpt>
      <trkpt lat="47.54982" lon="16.08249">
        <ele>601.240371</ele>
        <time>2026-07-07T16:10:34.000Z</time>
      </trkpt>
      <trkpt lat="47.54981" lon="16.08247">
        <ele>601.39727</ele>
        <time>2026-07-07T16:10:35.000Z</time>
      </trkpt>
      <trkpt lat="47.5498" lon="16.08246">
        <ele>601.548963</ele>
        <time>2026-07-07T16:10:36.000Z</time>
      </trkpt>
      <trkpt lat="47.54979" lon="16.08245">
        <ele>601.700764</ele>
        <time>2026-07-07T16:10:37.000Z</time>
      </trkpt>
      <trkpt lat="47.54978" lon="16.08244">
        <ele>601.85597</ele>
        <time>2026-07-07T16:10:38.000Z</time>
      </trkpt>
      <trkpt lat="47.54976" lon="16.08243">
        <ele>602.008477</ele>
        <time>2026-07-07T16:10:39.000Z</time>
      </trkpt>
      <trkpt lat="47.54975" lon="16.08243">
        <ele>602.169165</ele>
        <time>2026-07-07T16:10:40.000Z</time>
      </trkpt>
      <trkpt lat="47.54974" lon="16.08242">
        <ele>602.301161</ele>
        <time>2026-07-07T16:10:41.000Z</time>
      </trkpt>
      <trkpt lat="47.54972" lon="16.08241">
        <ele>602.466603</ele>
        <time>2026-07-07T16:10:42.000Z</time>
      </trkpt>
      <trkpt lat="47.54971" lon="16.0824">
        <ele>602.628105</ele>
        <time>2026-07-07T16:10:43.000Z</time>
      </trkpt>
      <trkpt lat="47.5497" lon="16.08239">
        <ele>602.776399</ele>
        <time>2026-07-07T16:10:44.000Z</time>
      </trkpt>
      <trkpt lat="47.54969" lon="16.08239">
        <ele>602.926527</ele>
        <time>2026-07-07T16:10:45.000Z</time>
      </trkpt>
      <trkpt lat="47.54967" lon="16.08238">
        <ele>603.084737</ele>
        <time>2026-07-07T16:10:46.000Z</time>
      </trkpt>
      <trkpt lat="47.54966" lon="16.08237">
        <ele>603.236538</ele>
        <time>2026-07-07T16:10:47.000Z</time>
      </trkpt>
      <trkpt lat="47.54965" lon="16.08236">
        <ele>603.4016</ele>
        <time>2026-07-07T16:10:48.000Z</time>
      </trkpt>
      <trkpt lat="47.54964" lon="16.08235">
        <ele>603.561225</ele>
        <time>2026-07-07T16:10:49.000Z</time>
      </trkpt>
      <trkpt lat="47.54962" lon="16.08233">
        <ele>603.72513</ele>
        <time>2026-07-07T16:10:50.000Z</time>
      </trkpt>
      <trkpt lat="47.54961" lon="16.08232">
        <ele>603.88334</ele>
        <time>2026-07-07T16:10:51.000Z</time>
      </trkpt>
      <trkpt lat="47.5496" lon="16.08232">
        <ele>604.028402</ele>
        <time>2026-07-07T16:10:52.000Z</time>
      </trkpt>
      <trkpt lat="47.54958" lon="16.08232">
        <ele>604.187183</ele>
        <time>2026-07-07T16:10:53.000Z</time>
      </trkpt>
      <trkpt lat="47.54957" lon="16.08231">
        <ele>604.314045</ele>
        <time>2026-07-07T16:10:54.000Z</time>
      </trkpt>
      <trkpt lat="47.54956" lon="16.0823">
        <ele>604.48744</ele>
        <time>2026-07-07T16:10:55.000Z</time>
      </trkpt>
      <trkpt lat="47.54955" lon="16.0823">
        <ele>604.624881</ele>
        <time>2026-07-07T16:10:56.000Z</time>
      </trkpt>
      <trkpt lat="47.54953" lon="16.08229">
        <ele>604.775009</ele>
        <time>2026-07-07T16:10:57.000Z</time>
      </trkpt>
      <trkpt lat="47.54952" lon="16.08228">
        <ele>604.916894</ele>
        <time>2026-07-07T16:10:58.000Z</time>
      </trkpt>
      <trkpt lat="47.54951" lon="16.08227">
        <ele>605.063577</ele>
        <time>2026-07-07T16:10:59.000Z</time>
      </trkpt>
      <trkpt lat="47.5495" lon="16.08225">
        <ele>605.236684</ele>
        <time>2026-07-07T16:11:00.000Z</time>
      </trkpt>
      <trkpt lat="47.54949" lon="16.08224">
        <ele>605.404498</ele>
        <time>2026-07-07T16:11:01.000Z</time>
      </trkpt>
      <trkpt lat="47.54947" lon="16.0822">
        <ele>605.725394</ele>
        <time>2026-07-07T16:11:02.000Z</time>
      </trkpt>
      <trkpt lat="47.54946" lon="16.08219">
        <ele>605.882292</ele>
        <time>2026-07-07T16:11:04.000Z</time>
      </trkpt>
      <trkpt lat="47.54944" lon="16.08216">
        <ele>606.205837</ele>
        <time>2026-07-07T16:11:05.000Z</time>
      </trkpt>
      <trkpt lat="47.54943" lon="16.08215">
        <ele>606.34316</ele>
        <time>2026-07-07T16:11:07.000Z</time>
      </trkpt>
      <trkpt lat="47.54941" lon="16.08213">
        <ele>606.605111</ele>
        <time>2026-07-07T16:11:08.000Z</time>
      </trkpt>
      <trkpt lat="47.5494" lon="16.08212">
        <ele>606.780886</ele>
        <time>2026-07-07T16:11:09.000Z</time>
      </trkpt>
      <trkpt lat="47.54938" lon="16.08211">
        <ele>606.942387</ele>
        <time>2026-07-07T16:11:10.000Z</time>
      </trkpt>
      <trkpt lat="47.54937" lon="16.0821">
        <ele>607.120718</ele>
        <time>2026-07-07T16:11:11.000Z</time>
      </trkpt>
      <trkpt lat="47.54936" lon="16.08208">
        <ele>607.302391</ele>
        <time>2026-07-07T16:11:12.000Z</time>
      </trkpt>
      <trkpt lat="47.54935" lon="16.08207">
        <ele>607.45929</ele>
        <time>2026-07-07T16:11:13.000Z</time>
      </trkpt>
      <trkpt lat="47.54934" lon="16.08205">
        <ele>607.607472</ele>
        <time>2026-07-07T16:11:14.000Z</time>
      </trkpt>
      <trkpt lat="47.54933" lon="16.08203">
        <ele>607.768559</ele>
        <time>2026-07-07T16:11:15.000Z</time>
      </trkpt>
      <trkpt lat="47.54932" lon="16.08201">
        <ele>607.936217</ele>
        <time>2026-07-07T16:11:16.000Z</time>
      </trkpt>
      <trkpt lat="47.54931" lon="16.082">
        <ele>608.093116</ele>
        <time>2026-07-07T16:11:17.000Z</time>
      </trkpt>
      <trkpt lat="47.54931" lon="16.08198">
        <ele>608.235387</ele>
        <time>2026-07-07T16:11:18.000Z</time>
      </trkpt>
      <trkpt lat="47.54929" lon="16.08197">
        <ele>608.408494</ele>
        <time>2026-07-07T16:11:19.000Z</time>
      </trkpt>
      <trkpt lat="47.54928" lon="16.08195">
        <ele>608.565394</ele>
        <time>2026-07-07T16:11:20.000Z</time>
      </trkpt>
      <trkpt lat="47.54927" lon="16.08194">
        <ele>608.712077</ele>
        <time>2026-07-07T16:11:21.000Z</time>
      </trkpt>
      <trkpt lat="47.54926" lon="16.08193">
        <ele>608.86269</ele>
        <time>2026-07-07T16:11:22.000Z</time>
      </trkpt>
      <trkpt lat="47.54925" lon="16.08192">
        <ele>609.026595</ele>
        <time>2026-07-07T16:11:23.000Z</time>
      </trkpt>
      <trkpt lat="47.54924" lon="16.0819">
        <ele>609.1905</ele>
        <time>2026-07-07T16:11:24.000Z</time>
      </trkpt>
      <trkpt lat="47.54923" lon="16.08189">
        <ele>609.342195</ele>
        <time>2026-07-07T16:11:25.000Z</time>
      </trkpt>
      <trkpt lat="47.54922" lon="16.08188">
        <ele>609.497336</ele>
        <time>2026-07-07T16:11:26.000Z</time>
      </trkpt>
      <trkpt lat="47.54921" lon="16.08186">
        <ele>609.67622</ele>
        <time>2026-07-07T16:11:27.000Z</time>
      </trkpt>
      <trkpt lat="47.5492" lon="16.08184">
        <ele>609.834939</ele>
        <time>2026-07-07T16:11:28.000Z</time>
      </trkpt>
      <trkpt lat="47.5492" lon="16.08182">
        <ele>609.993657</ele>
        <time>2026-07-07T16:11:29.000Z</time>
      </trkpt>
      <trkpt lat="47.54919" lon="16.0818">
        <ele>610.152376</ele>
        <time>2026-07-07T16:11:30.000Z</time>
      </trkpt>
      <trkpt lat="47.54919" lon="16.08178">
        <ele>610.315253</ele>
        <time>2026-07-07T16:11:31.000Z</time>
      </trkpt>
      <trkpt lat="47.54918" lon="16.08176">
        <ele>610.460107</ele>
        <time>2026-07-07T16:11:32.000Z</time>
      </trkpt>
      <trkpt lat="47.54918" lon="16.08174">
        <ele>610.627765</ele>
        <time>2026-07-07T16:11:33.000Z</time>
      </trkpt>
      <trkpt lat="47.54917" lon="16.08172">
        <ele>610.807067</ele>
        <time>2026-07-07T16:11:34.000Z</time>
      </trkpt>
      <trkpt lat="47.54915" lon="16.0817">
        <ele>610.985065</ele>
        <time>2026-07-07T16:11:35.000Z</time>
      </trkpt>
      <trkpt lat="47.54914" lon="16.08169">
        <ele>611.149899</ele>
        <time>2026-07-07T16:11:36.000Z</time>
      </trkpt>
      <trkpt lat="47.54913" lon="16.08167">
        <ele>611.340392</ele>
        <time>2026-07-07T16:11:37.000Z</time>
      </trkpt>
      <trkpt lat="47.54912" lon="16.08165">
        <ele>611.507044</ele>
        <time>2026-07-07T16:11:38.000Z</time>
      </trkpt>
      <trkpt lat="47.54911" lon="16.08163">
        <ele>611.680055</ele>
        <time>2026-07-07T16:11:39.000Z</time>
      </trkpt>
      <trkpt lat="47.54911" lon="16.08161">
        <ele>611.847714</ele>
        <time>2026-07-07T16:11:40.000Z</time>
      </trkpt>
      <trkpt lat="47.5491" lon="16.08159">
        <ele>612.000182</ele>
        <time>2026-07-07T16:11:41.000Z</time>
      </trkpt>
      <trkpt lat="47.5491" lon="16.08157">
        <ele>612.158901</ele>
        <time>2026-07-07T16:11:42.000Z</time>
      </trkpt>
      <trkpt lat="47.54909" lon="16.08156">
        <ele>612.303756</ele>
        <time>2026-07-07T16:11:43.000Z</time>
      </trkpt>
      <trkpt lat="47.54909" lon="16.08154">
        <ele>612.444783</ele>
        <time>2026-07-07T16:11:44.000Z</time>
      </trkpt>
      <trkpt lat="47.54909" lon="16.08152">
        <ele>612.589996</ele>
        <time>2026-07-07T16:11:45.000Z</time>
      </trkpt>
      <trkpt lat="47.54908" lon="16.0815">
        <ele>612.727973</ele>
        <time>2026-07-07T16:11:46.000Z</time>
      </trkpt>
      <trkpt lat="47.54908" lon="16.08148">
        <ele>612.883207</ele>
        <time>2026-07-07T16:11:47.000Z</time>
      </trkpt>
      <trkpt lat="47.54908" lon="16.08146">
        <ele>613.021184</ele>
        <time>2026-07-07T16:11:48.000Z</time>
      </trkpt>
      <trkpt lat="47.54907" lon="16.08145">
        <ele>613.16938</ele>
        <time>2026-07-07T16:11:49.000Z</time>
      </trkpt>
      <trkpt lat="47.54906" lon="16.08143">
        <ele>613.312145</ele>
        <time>2026-07-07T16:11:50.000Z</time>
      </trkpt>
      <trkpt lat="47.54906" lon="16.08141">
        <ele>613.45404</ele>
        <time>2026-07-07T16:11:51.000Z</time>
      </trkpt>
      <trkpt lat="47.54905" lon="16.0814">
        <ele>613.605735</ele>
        <time>2026-07-07T16:11:52.000Z</time>
      </trkpt>
      <trkpt lat="47.54903" lon="16.08138">
        <ele>613.778843</ele>
        <time>2026-07-07T16:11:53.000Z</time>
      </trkpt>
      <trkpt lat="47.54902" lon="16.08137">
        <ele>613.943677</ele>
        <time>2026-07-07T16:11:54.000Z</time>
      </trkpt>
      <trkpt lat="47.54901" lon="16.08135">
        <ele>614.098676</ele>
        <time>2026-07-07T16:11:55.000Z</time>
      </trkpt>
      <trkpt lat="47.54901" lon="16.08133">
        <ele>614.254782</ele>
        <time>2026-07-07T16:11:56.000Z</time>
      </trkpt>
      <trkpt lat="47.549" lon="16.08131">
        <ele>614.410016</ele>
        <time>2026-07-07T16:11:57.000Z</time>
      </trkpt>
      <trkpt lat="47.549" lon="16.08129">
        <ele>614.566296</ele>
        <time>2026-07-07T16:11:58.000Z</time>
      </trkpt>
      <trkpt lat="47.549" lon="16.08127">
        <ele>614.715542</ele>
        <time>2026-07-07T16:11:59.000Z</time>
      </trkpt>
      <trkpt lat="47.549" lon="16.08125">
        <ele>614.888296</ele>
        <time>2026-07-07T16:12:00.000Z</time>
      </trkpt>
      <trkpt lat="47.54899" lon="16.08123">
        <ele>615.047015</ele>
        <time>2026-07-07T16:12:01.000Z</time>
      </trkpt>
      <trkpt lat="47.54899" lon="16.08121">
        <ele>615.201612</ele>
        <time>2026-07-07T16:12:02.000Z</time>
      </trkpt>
      <trkpt lat="47.54898" lon="16.08119">
        <ele>615.360332</ele>
        <time>2026-07-07T16:12:03.000Z</time>
      </trkpt>
      <trkpt lat="47.54897" lon="16.08117">
        <ele>615.541333</ele>
        <time>2026-07-07T16:12:04.000Z</time>
      </trkpt>
      <trkpt lat="47.54897" lon="16.08115">
        <ele>615.690732</ele>
        <time>2026-07-07T16:12:05.000Z</time>
      </trkpt>
      <trkpt lat="47.54896" lon="16.08113">
        <ele>615.871734</ele>
        <time>2026-07-07T16:12:06.000Z</time>
      </trkpt>
      <trkpt lat="47.54895" lon="16.08111">
        <ele>616.039392</ele>
        <time>2026-07-07T16:12:07.000Z</time>
      </trkpt>
      <trkpt lat="47.54895" lon="16.08109">
        <ele>616.206243</ele>
        <time>2026-07-07T16:12:08.000Z</time>
      </trkpt>
      <trkpt lat="47.54894" lon="16.08107">
        <ele>616.372101</ele>
        <time>2026-07-07T16:12:09.000Z</time>
      </trkpt>
      <trkpt lat="47.54893" lon="16.08105">
        <ele>616.508131</ele>
        <time>2026-07-07T16:12:10.000Z</time>
      </trkpt>
      <trkpt lat="47.54893" lon="16.08103">
        <ele>616.657784</ele>
        <time>2026-07-07T16:12:11.000Z</time>
      </trkpt>
      <trkpt lat="47.54892" lon="16.08102">
        <ele>616.79665</ele>
        <time>2026-07-07T16:12:12.000Z</time>
      </trkpt>
      <trkpt lat="47.54892" lon="16.081">
        <ele>616.948808</ele>
        <time>2026-07-07T16:12:13.000Z</time>
      </trkpt>
      <trkpt lat="47.54891" lon="16.08098">
        <ele>617.100965</ele>
        <time>2026-07-07T16:12:14.000Z</time>
      </trkpt>
      <trkpt lat="47.54891" lon="16.08096">
        <ele>617.233262</ele>
        <time>2026-07-07T16:12:15.000Z</time>
      </trkpt>
      <trkpt lat="47.5489" lon="16.08094">
        <ele>617.381853</ele>
        <time>2026-07-07T16:12:16.000Z</time>
      </trkpt>
      <trkpt lat="47.54889" lon="16.08092">
        <ele>617.527342</ele>
        <time>2026-07-07T16:12:17.000Z</time>
      </trkpt>
      <trkpt lat="47.54888" lon="16.08091">
        <ele>617.685361</ele>
        <time>2026-07-07T16:12:18.000Z</time>
      </trkpt>
      <trkpt lat="47.54887" lon="16.08089">
        <ele>617.840931</ele>
        <time>2026-07-07T16:12:19.000Z</time>
      </trkpt>
      <trkpt lat="47.54886" lon="16.08088">
        <ele>617.99507</ele>
        <time>2026-07-07T16:12:20.000Z</time>
      </trkpt>
      <trkpt lat="47.54886" lon="16.08086">
        <ele>618.151214</ele>
        <time>2026-07-07T16:12:21.000Z</time>
      </trkpt>
      <trkpt lat="47.54885" lon="16.08084">
        <ele>618.303372</ele>
        <time>2026-07-07T16:12:22.000Z</time>
      </trkpt>
      <trkpt lat="47.54885" lon="16.08081">
        <ele>618.46592</ele>
        <time>2026-07-07T16:12:23.000Z</time>
      </trkpt>
      <trkpt lat="47.54884" lon="16.08079">
        <ele>618.622064</ele>
        <time>2026-07-07T16:12:24.000Z</time>
      </trkpt>
      <trkpt lat="47.54884" lon="16.08078">
        <ele>618.760931</ele>
        <time>2026-07-07T16:12:25.000Z</time>
      </trkpt>
      <trkpt lat="47.54883" lon="16.08076">
        <ele>618.903</ele>
        <time>2026-07-07T16:12:26.000Z</time>
      </trkpt>
      <trkpt lat="47.54883" lon="16.08074">
        <ele>619.035274</ele>
        <time>2026-07-07T16:12:27.000Z</time>
      </trkpt>
      <trkpt lat="47.54882" lon="16.08072">
        <ele>619.18348</ele>
        <time>2026-07-07T16:12:28.000Z</time>
      </trkpt>
      <trkpt lat="47.54881" lon="16.0807">
        <ele>619.349339</ele>
        <time>2026-07-07T16:12:29.000Z</time>
      </trkpt>
      <trkpt lat="47.54881" lon="16.08068">
        <ele>619.514952</ele>
        <time>2026-07-07T16:12:30.000Z</time>
      </trkpt>
      <trkpt lat="47.5488" lon="16.08066">
        <ele>619.680564</ele>
        <time>2026-07-07T16:12:31.000Z</time>
      </trkpt>
      <trkpt lat="47.5488" lon="16.08064">
        <ele>619.832722</ele>
        <time>2026-07-07T16:12:32.000Z</time>
      </trkpt>
      <trkpt lat="47.54879" lon="16.08062">
        <ele>619.988393</ele>
        <time>2026-07-07T16:12:33.000Z</time>
      </trkpt>
      <trkpt lat="47.54879" lon="16.0806">
        <ele>620.125255</ele>
        <time>2026-07-07T16:12:34.000Z</time>
      </trkpt>
      <trkpt lat="47.54878" lon="16.08058">
        <ele>620.286133</ele>
        <time>2026-07-07T16:12:35.000Z</time>
      </trkpt>
      <trkpt lat="47.54877" lon="16.08057">
        <ele>620.452085</ele>
        <time>2026-07-07T16:12:36.000Z</time>
      </trkpt>
      <trkpt lat="47.54876" lon="16.08055">
        <ele>620.629655</ele>
        <time>2026-07-07T16:12:37.000Z</time>
      </trkpt>
      <trkpt lat="47.54875" lon="16.08053">
        <ele>620.795514</ele>
        <time>2026-07-07T16:12:38.000Z</time>
      </trkpt>
      <trkpt lat="47.54874" lon="16.08051">
        <ele>620.951185</ele>
        <time>2026-07-07T16:12:39.000Z</time>
      </trkpt>
      <trkpt lat="47.54874" lon="16.08048">
        <ele>621.132338</ele>
        <time>2026-07-07T16:12:40.000Z</time>
      </trkpt>
      <trkpt lat="47.54874" lon="16.08045">
        <ele>621.340309</ele>
        <time>2026-07-07T16:12:41.000Z</time>
      </trkpt>
      <trkpt lat="47.54874" lon="16.08043">
        <ele>621.518666</ele>
        <time>2026-07-07T16:12:42.000Z</time>
      </trkpt>
      <trkpt lat="47.54874" lon="16.0804">
        <ele>621.697022</ele>
        <time>2026-07-07T16:12:43.000Z</time>
      </trkpt>
      <trkpt lat="47.54874" lon="16.08038">
        <ele>621.86145</ele>
        <time>2026-07-07T16:12:44.000Z</time>
      </trkpt>
      <trkpt lat="47.54874" lon="16.08036">
        <ele>622.025538</ele>
        <time>2026-07-07T16:12:45.000Z</time>
      </trkpt>
      <trkpt lat="47.54874" lon="16.08033">
        <ele>622.203895</ele>
        <time>2026-07-07T16:12:46.000Z</time>
      </trkpt>
      <trkpt lat="47.54874" lon="16.08031">
        <ele>622.3835</ele>
        <time>2026-07-07T16:12:47.000Z</time>
      </trkpt>
      <trkpt lat="47.54873" lon="16.08028">
        <ele>622.557634</ele>
        <time>2026-07-07T16:12:48.000Z</time>
      </trkpt>
      <trkpt lat="47.54873" lon="16.08026">
        <ele>622.723078</ele>
        <time>2026-07-07T16:12:49.000Z</time>
      </trkpt>
      <trkpt lat="47.54873" lon="16.08024">
        <ele>622.883203</ele>
        <time>2026-07-07T16:12:50.000Z</time>
      </trkpt>
      <trkpt lat="47.54872" lon="16.08022">
        <ele>623.063201</ele>
        <time>2026-07-07T16:12:51.000Z</time>
      </trkpt>
      <trkpt lat="47.54871" lon="16.08019">
        <ele>623.256295</ele>
        <time>2026-07-07T16:12:52.000Z</time>
      </trkpt>
      <trkpt lat="47.54871" lon="16.08017">
        <ele>623.434578</ele>
        <time>2026-07-07T16:12:53.000Z</time>
      </trkpt>
      <trkpt lat="47.5487" lon="16.08015">
        <ele>623.606967</ele>
        <time>2026-07-07T16:12:54.000Z</time>
      </trkpt>
      <trkpt lat="47.54869" lon="16.08012">
        <ele>623.780486</ele>
        <time>2026-07-07T16:12:55.000Z</time>
      </trkpt>
      <trkpt lat="47.54869" lon="16.0801">
        <ele>623.939354</ele>
        <time>2026-07-07T16:12:56.000Z</time>
      </trkpt>
      <trkpt lat="47.54869" lon="16.08008">
        <ele>624.096663</ele>
        <time>2026-07-07T16:12:57.000Z</time>
      </trkpt>
      <trkpt lat="47.54868" lon="16.08006">
        <ele>624.266111</ele>
        <time>2026-07-07T16:12:58.000Z</time>
      </trkpt>
      <trkpt lat="47.54868" lon="16.08003">
        <ele>624.440245</ele>
        <time>2026-07-07T16:12:59.000Z</time>
      </trkpt>
      <trkpt lat="47.54868" lon="16.08001">
        <ele>624.612634</ele>
        <time>2026-07-07T16:13:00.000Z</time>
      </trkpt>
      <trkpt lat="47.54867" lon="16.07999">
        <ele>624.793787</ele>
        <time>2026-07-07T16:13:01.000Z</time>
      </trkpt>
      <trkpt lat="47.54867" lon="16.07996">
        <ele>624.966176</ele>
        <time>2026-07-07T16:13:02.000Z</time>
      </trkpt>
      <trkpt lat="47.54866" lon="16.07994">
        <ele>625.14537</ele>
        <time>2026-07-07T16:13:03.000Z</time>
      </trkpt>
      <trkpt lat="47.54866" lon="16.07992">
        <ele>625.304237</ele>
        <time>2026-07-07T16:13:04.000Z</time>
      </trkpt>
      <trkpt lat="47.54865" lon="16.0799">
        <ele>625.477757</ele>
        <time>2026-07-07T16:13:05.000Z</time>
      </trkpt>
      <trkpt lat="47.54864" lon="16.07988">
        <ele>625.625964</ele>
        <time>2026-07-07T16:13:06.000Z</time>
      </trkpt>
      <trkpt lat="47.54864" lon="16.07986">
        <ele>625.775617</ele>
        <time>2026-07-07T16:13:07.000Z</time>
      </trkpt>
      <trkpt lat="47.54863" lon="16.07984">
        <ele>625.927775</ele>
        <time>2026-07-07T16:13:08.000Z</time>
      </trkpt>
      <trkpt lat="47.54863" lon="16.07982">
        <ele>626.079934</ele>
        <time>2026-07-07T16:13:09.000Z</time>
      </trkpt>
      <trkpt lat="47.54862" lon="16.0798">
        <ele>626.238802</ele>
        <time>2026-07-07T16:13:10.000Z</time>
      </trkpt>
      <trkpt lat="47.54862" lon="16.07978">
        <ele>626.39953</ele>
        <time>2026-07-07T16:13:11.000Z</time>
      </trkpt>
      <trkpt lat="47.54861" lon="16.07976">
        <ele>626.573049</ele>
        <time>2026-07-07T16:13:12.000Z</time>
      </trkpt>
      <trkpt lat="47.5486" lon="16.07974">
        <ele>626.725208</ele>
        <time>2026-07-07T16:13:13.000Z</time>
      </trkpt>
      <trkpt lat="47.5486" lon="16.07972">
        <ele>626.877366</ele>
        <time>2026-07-07T16:13:14.000Z</time>
      </trkpt>
      <trkpt lat="47.54859" lon="16.0797">
        <ele>627.016233</ele>
        <time>2026-07-07T16:13:15.000Z</time>
      </trkpt>
      <trkpt lat="47.54859" lon="16.07968">
        <ele>627.1624</ele>
        <time>2026-07-07T16:13:16.000Z</time>
      </trkpt>
      <trkpt lat="47.54858" lon="16.07966">
        <ele>627.31683</ele>
        <time>2026-07-07T16:13:17.000Z</time>
      </trkpt>
      <trkpt lat="47.54858" lon="16.07964">
        <ele>627.460053</ele>
        <time>2026-07-07T16:13:18.000Z</time>
      </trkpt>
      <trkpt lat="47.54857" lon="16.07962">
        <ele>627.614193</ele>
        <time>2026-07-07T16:13:19.000Z</time>
      </trkpt>
      <trkpt lat="47.54856" lon="16.07961">
        <ele>627.772213</ele>
        <time>2026-07-07T16:13:20.000Z</time>
      </trkpt>
      <trkpt lat="47.54855" lon="16.07959">
        <ele>627.942852</ele>
        <time>2026-07-07T16:13:21.000Z</time>
      </trkpt>
      <trkpt lat="47.54854" lon="16.07958">
        <ele>628.090703</ele>
        <time>2026-07-07T16:13:22.000Z</time>
      </trkpt>
      <trkpt lat="47.54853" lon="16.07956">
        <ele>628.223</ele>
        <time>2026-07-07T16:13:23.000Z</time>
      </trkpt>
      <trkpt lat="47.54853" lon="16.07954">
        <ele>628.33909</ele>
        <time>2026-07-07T16:13:24.000Z</time>
      </trkpt>
      <trkpt lat="47.54853" lon="16.07953">
        <ele>628.464449</ele>
        <time>2026-07-07T16:13:25.000Z</time>
      </trkpt>
      <trkpt lat="47.54852" lon="16.07951">
        <ele>628.613267</ele>
        <time>2026-07-07T16:13:26.000Z</time>
      </trkpt>
      <trkpt lat="47.54852" lon="16.07948">
        <ele>628.780392</ele>
        <time>2026-07-07T16:13:27.000Z</time>
      </trkpt>
      <trkpt lat="47.54852" lon="16.07946">
        <ele>628.946005</ele>
        <time>2026-07-07T16:13:28.000Z</time>
      </trkpt>
      <trkpt lat="47.54851" lon="16.07944">
        <ele>629.119525</ele>
        <time>2026-07-07T16:13:29.000Z</time>
      </trkpt>
      <trkpt lat="47.5485" lon="16.07942">
        <ele>629.282215</ele>
        <time>2026-07-07T16:13:30.000Z</time>
      </trkpt>
      <trkpt lat="47.54849" lon="16.0794">
        <ele>629.447816</ele>
        <time>2026-07-07T16:13:31.000Z</time>
      </trkpt>
      <trkpt lat="47.54848" lon="16.07938">
        <ele>629.631875</ele>
        <time>2026-07-07T16:13:32.000Z</time>
      </trkpt>
      <trkpt lat="47.54847" lon="16.07936">
        <ele>629.798197</ele>
        <time>2026-07-07T16:13:33.000Z</time>
      </trkpt>
      <trkpt lat="47.54846" lon="16.07935">
        <ele>629.980816</ele>
        <time>2026-07-07T16:13:34.000Z</time>
      </trkpt>
      <trkpt lat="47.54845" lon="16.07933">
        <ele>630.138836</ele>
        <time>2026-07-07T16:13:35.000Z</time>
      </trkpt>
      <trkpt lat="47.54843" lon="16.07932">
        <ele>630.313477</ele>
        <time>2026-07-07T16:13:36.000Z</time>
      </trkpt>
      <trkpt lat="47.54842" lon="16.0793">
        <ele>630.483351</ele>
        <time>2026-07-07T16:13:37.000Z</time>
      </trkpt>
      <trkpt lat="47.54841" lon="16.07929">
        <ele>630.661987</ele>
        <time>2026-07-07T16:13:38.000Z</time>
      </trkpt>
      <trkpt lat="47.5484" lon="16.07927">
        <ele>630.816127</ele>
        <time>2026-07-07T16:13:39.000Z</time>
      </trkpt>
      <trkpt lat="47.54839" lon="16.07925">
        <ele>630.977005</ele>
        <time>2026-07-07T16:13:40.000Z</time>
      </trkpt>
      <trkpt lat="47.54838" lon="16.07924">
        <ele>631.130762</ele>
        <time>2026-07-07T16:13:41.000Z</time>
      </trkpt>
      <trkpt lat="47.54837" lon="16.07922">
        <ele>631.278613</ele>
        <time>2026-07-07T16:13:42.000Z</time>
      </trkpt>
      <trkpt lat="47.54836" lon="16.0792">
        <ele>631.421797</ele>
        <time>2026-07-07T16:13:43.000Z</time>
      </trkpt>
      <trkpt lat="47.54836" lon="16.07919">
        <ele>631.55238</ele>
        <time>2026-07-07T16:13:44.000Z</time>
      </trkpt>
      <trkpt lat="47.54835" lon="16.07917">
        <ele>631.69787</ele>
        <time>2026-07-07T16:13:45.000Z</time>
      </trkpt>
      <trkpt lat="47.54834" lon="16.07915">
        <ele>631.857684</ele>
        <time>2026-07-07T16:13:46.000Z</time>
      </trkpt>
      <trkpt lat="47.54834" lon="16.07913">
        <ele>631.994548</ele>
        <time>2026-07-07T16:13:47.000Z</time>
      </trkpt>
      <trkpt lat="47.54833" lon="16.07912">
        <ele>632.165188</ele>
        <time>2026-07-07T16:13:48.000Z</time>
      </trkpt>
      <trkpt lat="47.54832" lon="16.0791">
        <ele>632.315602</ele>
        <time>2026-07-07T16:13:49.000Z</time>
      </trkpt>
      <trkpt lat="47.54831" lon="16.07909">
        <ele>632.47648</ele>
        <time>2026-07-07T16:13:50.000Z</time>
      </trkpt>
      <trkpt lat="47.54829" lon="16.07907">
        <ele>632.667764</ele>
        <time>2026-07-07T16:13:51.000Z</time>
      </trkpt>
      <trkpt lat="47.54828" lon="16.07906">
        <ele>632.841929</ele>
        <time>2026-07-07T16:13:52.000Z</time>
      </trkpt>
      <trkpt lat="47.54827" lon="16.07904">
        <ele>633.007881</ele>
        <time>2026-07-07T16:13:53.000Z</time>
      </trkpt>
      <trkpt lat="47.54826" lon="16.07903">
        <ele>633.148501</ele>
        <time>2026-07-07T16:13:54.000Z</time>
      </trkpt>
      <trkpt lat="47.54825" lon="16.07901">
        <ele>633.290572</ele>
        <time>2026-07-07T16:13:55.000Z</time>
      </trkpt>
      <trkpt lat="47.54824" lon="16.07899">
        <ele>633.442731</ele>
        <time>2026-07-07T16:13:56.000Z</time>
      </trkpt>
      <trkpt lat="47.54824" lon="16.07897">
        <ele>633.585418</ele>
        <time>2026-07-07T16:13:57.000Z</time>
      </trkpt>
      <trkpt lat="47.54824" lon="16.07895">
        <ele>633.742728</ele>
        <time>2026-07-07T16:13:58.000Z</time>
      </trkpt>
      <trkpt lat="47.54824" lon="16.07893">
        <ele>633.909823</ele>
        <time>2026-07-07T16:13:59.000Z</time>
      </trkpt>
      <trkpt lat="47.54823" lon="16.07891">
        <ele>634.081715</ele>
        <time>2026-07-07T16:14:00.000Z</time>
      </trkpt>
      <trkpt lat="47.54821" lon="16.07889">
        <ele>634.269789</ele>
        <time>2026-07-07T16:14:01.000Z</time>
      </trkpt>
      <trkpt lat="47.5482" lon="16.07888">
        <ele>634.44443</ele>
        <time>2026-07-07T16:14:02.000Z</time>
      </trkpt>
      <trkpt lat="47.54819" lon="16.07886">
        <ele>634.602451</ele>
        <time>2026-07-07T16:14:03.000Z</time>
      </trkpt>
      <trkpt lat="47.54818" lon="16.07884">
        <ele>634.791679</ele>
        <time>2026-07-07T16:14:04.000Z</time>
      </trkpt>
      <trkpt lat="47.54817" lon="16.07882">
        <ele>634.981349</ele>
        <time>2026-07-07T16:14:05.000Z</time>
      </trkpt>
      <trkpt lat="47.54816" lon="16.07879">
        <ele>635.16074</ele>
        <time>2026-07-07T16:14:06.000Z</time>
      </trkpt>
      <trkpt lat="47.54816" lon="16.07877">
        <ele>635.328275</ele>
        <time>2026-07-07T16:14:07.000Z</time>
      </trkpt>
      <trkpt lat="47.54816" lon="16.07875">
        <ele>635.495811</ele>
        <time>2026-07-07T16:14:08.000Z</time>
      </trkpt>
      <trkpt lat="47.54816" lon="16.07872">
        <ele>635.668758</ele>
        <time>2026-07-07T16:14:09.000Z</time>
      </trkpt>
      <trkpt lat="47.54815" lon="16.0787">
        <ele>635.820435</ele>
        <time>2026-07-07T16:14:10.000Z</time>
      </trkpt>
      <trkpt lat="47.54815" lon="16.07868">
        <ele>635.992406</ele>
        <time>2026-07-07T16:14:11.000Z</time>
      </trkpt>
      <trkpt lat="47.54815" lon="16.07865">
        <ele>636.171202</ele>
        <time>2026-07-07T16:14:12.000Z</time>
      </trkpt>
      <trkpt lat="47.54815" lon="16.07863">
        <ele>636.320386</ele>
        <time>2026-07-07T16:14:13.000Z</time>
      </trkpt>
      <trkpt lat="47.54815" lon="16.07861">
        <ele>636.466912</ele>
        <time>2026-07-07T16:14:14.000Z</time>
      </trkpt>
      <trkpt lat="47.54814" lon="16.07859">
        <ele>636.620428</ele>
        <time>2026-07-07T16:14:15.000Z</time>
      </trkpt>
      <trkpt lat="47.54814" lon="16.07857">
        <ele>636.769612</ele>
        <time>2026-07-07T16:14:16.000Z</time>
      </trkpt>
      <trkpt lat="47.54813" lon="16.07855">
        <ele>636.92614</ele>
        <time>2026-07-07T16:14:17.000Z</time>
      </trkpt>
      <trkpt lat="47.54813" lon="16.07853">
        <ele>637.071988</ele>
        <time>2026-07-07T16:14:18.000Z</time>
      </trkpt>
      <trkpt lat="47.54812" lon="16.07851">
        <ele>637.224521</ele>
        <time>2026-07-07T16:14:19.000Z</time>
      </trkpt>
      <trkpt lat="47.54812" lon="16.07849">
        <ele>637.392026</ele>
        <time>2026-07-07T16:14:20.000Z</time>
      </trkpt>
      <trkpt lat="47.54811" lon="16.07847">
        <ele>637.552182</ele>
        <time>2026-07-07T16:14:21.000Z</time>
      </trkpt>
      <trkpt lat="47.5481" lon="16.07846">
        <ele>637.691391</ele>
        <time>2026-07-07T16:14:22.000Z</time>
      </trkpt>
      <trkpt lat="47.5481" lon="16.07844">
        <ele>637.840575</ele>
        <time>2026-07-07T16:14:23.000Z</time>
      </trkpt>
      <trkpt lat="47.5481" lon="16.07841">
        <ele>637.997916</ele>
        <time>2026-07-07T16:14:24.000Z</time>
      </trkpt>
      <trkpt lat="47.5481" lon="16.07839">
        <ele>638.144442</ele>
        <time>2026-07-07T16:14:25.000Z</time>
      </trkpt>
      <trkpt lat="47.54809" lon="16.07838">
        <ele>638.283651</ele>
        <time>2026-07-07T16:14:26.000Z</time>
      </trkpt>
      <trkpt lat="47.54809" lon="16.07836">
        <ele>638.422859</ele>
        <time>2026-07-07T16:14:27.000Z</time>
      </trkpt>
      <trkpt lat="47.54808" lon="16.07834">
        <ele>638.595172</ele>
        <time>2026-07-07T16:14:28.000Z</time>
      </trkpt>
      <trkpt lat="47.54807" lon="16.07832">
        <ele>638.751125</ele>
        <time>2026-07-07T16:14:29.000Z</time>
      </trkpt>
      <trkpt lat="47.54806" lon="16.0783">
        <ele>638.923438</ele>
        <time>2026-07-07T16:14:30.000Z</time>
      </trkpt>
      <trkpt lat="47.54805" lon="16.07829">
        <ele>639.079391</ele>
        <time>2026-07-07T16:14:31.000Z</time>
      </trkpt>
      <trkpt lat="47.54804" lon="16.07827">
        <ele>639.240664</ele>
        <time>2026-07-07T16:14:32.000Z</time>
      </trkpt>
      <trkpt lat="47.54803" lon="16.07825">
        <ele>639.401938</ele>
        <time>2026-07-07T16:14:33.000Z</time>
      </trkpt>
      <trkpt lat="47.54802" lon="16.07824">
        <ele>639.544344</ele>
        <time>2026-07-07T16:14:34.000Z</time>
      </trkpt>
      <trkpt lat="47.54801" lon="16.07822">
        <ele>639.698863</ele>
        <time>2026-07-07T16:14:35.000Z</time>
      </trkpt>
      <trkpt lat="47.548" lon="16.0782">
        <ele>639.838071</ele>
        <time>2026-07-07T16:14:36.000Z</time>
      </trkpt>
      <trkpt lat="47.548" lon="16.07818">
        <ele>639.988093</ele>
        <time>2026-07-07T16:14:37.000Z</time>
      </trkpt>
      <trkpt lat="47.54799" lon="16.07817">
        <ele>640.127302</ele>
        <time>2026-07-07T16:14:38.000Z</time>
      </trkpt>
      <trkpt lat="47.54799" lon="16.07815">
        <ele>640.259925</ele>
        <time>2026-07-07T16:14:39.000Z</time>
      </trkpt>
      <trkpt lat="47.54798" lon="16.07813">
        <ele>640.390347</ele>
        <time>2026-07-07T16:14:40.000Z</time>
      </trkpt>
      <trkpt lat="47.54797" lon="16.07812">
        <ele>640.526712</ele>
        <time>2026-07-07T16:14:41.000Z</time>
      </trkpt>
      <trkpt lat="47.54796" lon="16.0781">
        <ele>640.677495</ele>
        <time>2026-07-07T16:14:42.000Z</time>
      </trkpt>
      <trkpt lat="47.54795" lon="16.07809">
        <ele>640.814242</ele>
        <time>2026-07-07T16:14:43.000Z</time>
      </trkpt>
      <trkpt lat="47.54794" lon="16.07808">
        <ele>640.967645</ele>
        <time>2026-07-07T16:14:44.000Z</time>
      </trkpt>
      <trkpt lat="47.54793" lon="16.07807">
        <ele>641.107074</ele>
        <time>2026-07-07T16:14:45.000Z</time>
      </trkpt>
      <trkpt lat="47.54792" lon="16.07806">
        <ele>641.243821</ele>
        <time>2026-07-07T16:14:46.000Z</time>
      </trkpt>
      <trkpt lat="47.54791" lon="16.07805">
        <ele>641.380175</ele>
        <time>2026-07-07T16:14:47.000Z</time>
      </trkpt>
      <trkpt lat="47.5479" lon="16.07804">
        <ele>641.530959</ele>
        <time>2026-07-07T16:14:48.000Z</time>
      </trkpt>
      <trkpt lat="47.54789" lon="16.07802">
        <ele>641.663582</ele>
        <time>2026-07-07T16:14:49.000Z</time>
      </trkpt>
      <trkpt lat="47.54789" lon="16.078">
        <ele>641.812154</ele>
        <time>2026-07-07T16:14:50.000Z</time>
      </trkpt>
      <trkpt lat="47.54788" lon="16.07798">
        <ele>641.944754</ele>
        <time>2026-07-07T16:14:51.000Z</time>
      </trkpt>
      <trkpt lat="47.54788" lon="16.07796">
        <ele>642.097288</ele>
        <time>2026-07-07T16:14:52.000Z</time>
      </trkpt>
      <trkpt lat="47.54787" lon="16.07794">
        <ele>642.263309</ele>
        <time>2026-07-07T16:14:53.000Z</time>
      </trkpt>
      <trkpt lat="47.54786" lon="16.07792">
        <ele>642.417828</ele>
        <time>2026-07-07T16:14:54.000Z</time>
      </trkpt>
      <trkpt lat="47.54786" lon="16.07791">
        <ele>642.554554</ele>
        <time>2026-07-07T16:14:55.000Z</time>
      </trkpt>
      <trkpt lat="47.54784" lon="16.07789">
        <ele>642.720914</ele>
        <time>2026-07-07T16:14:56.000Z</time>
      </trkpt>
      <trkpt lat="47.54783" lon="16.07788">
        <ele>642.861533</ele>
        <time>2026-07-07T16:14:57.000Z</time>
      </trkpt>
      <trkpt lat="47.54782" lon="16.07787">
        <ele>643.040503</ele>
        <time>2026-07-07T16:14:58.000Z</time>
      </trkpt>
      <trkpt lat="47.54781" lon="16.07785">
        <ele>643.191287</ele>
        <time>2026-07-07T16:14:59.000Z</time>
      </trkpt>
      <trkpt lat="47.5478" lon="16.07784">
        <ele>643.345423</ele>
        <time>2026-07-07T16:15:00.000Z</time>
      </trkpt>
      <trkpt lat="47.54779" lon="16.07782">
        <ele>643.493995</ele>
        <time>2026-07-07T16:15:01.000Z</time>
      </trkpt>
      <trkpt lat="47.54779" lon="16.0778">
        <ele>643.660016</ele>
        <time>2026-07-07T16:15:02.000Z</time>
      </trkpt>
      <trkpt lat="47.54778" lon="16.07777">
        <ele>643.829716</ele>
        <time>2026-07-07T16:15:03.000Z</time>
      </trkpt>
      <trkpt lat="47.54777" lon="16.07776">
        <ele>643.989924</ele>
        <time>2026-07-07T16:15:04.000Z</time>
      </trkpt>
      <trkpt lat="47.54777" lon="16.07774">
        <ele>644.127124</ele>
        <time>2026-07-07T16:15:05.000Z</time>
      </trkpt>
      <trkpt lat="47.54776" lon="16.07772">
        <ele>644.276081</ele>
        <time>2026-07-07T16:15:06.000Z</time>
      </trkpt>
      <trkpt lat="47.54775" lon="16.0777">
        <ele>644.44235</ele>
        <time>2026-07-07T16:15:07.000Z</time>
      </trkpt>
      <trkpt lat="47.54774" lon="16.07768">
        <ele>644.602507</ele>
        <time>2026-07-07T16:15:08.000Z</time>
      </trkpt>
      <trkpt lat="47.54774" lon="16.07767">
        <ele>644.741716</ele>
        <time>2026-07-07T16:15:09.000Z</time>
      </trkpt>
      <trkpt lat="47.54773" lon="16.07765">
        <ele>644.880926</ele>
        <time>2026-07-07T16:15:10.000Z</time>
      </trkpt>
      <trkpt lat="47.54773" lon="16.07763">
        <ele>645.025525</ele>
        <time>2026-07-07T16:15:11.000Z</time>
      </trkpt>
      <trkpt lat="47.54773" lon="16.07761">
        <ele>645.172052</ele>
        <time>2026-07-07T16:15:12.000Z</time>
      </trkpt>
      <trkpt lat="47.54772" lon="16.07759">
        <ele>645.321237</ele>
        <time>2026-07-07T16:15:13.000Z</time>
      </trkpt>
      <trkpt lat="47.54772" lon="16.07757">
        <ele>645.467086</ele>
        <time>2026-07-07T16:15:14.000Z</time>
      </trkpt>
      <trkpt lat="47.54771" lon="16.07755">
        <ele>645.621222</ele>
        <time>2026-07-07T16:15:15.000Z</time>
      </trkpt>
      <trkpt lat="47.5477" lon="16.07753">
        <ele>645.769794</ele>
        <time>2026-07-07T16:15:16.000Z</time>
      </trkpt>
      <trkpt lat="47.5477" lon="16.07751">
        <ele>645.929951</ele>
        <time>2026-07-07T16:15:17.000Z</time>
      </trkpt>
      <trkpt lat="47.54769" lon="16.0775">
        <ele>646.085904</ele>
        <time>2026-07-07T16:15:18.000Z</time>
      </trkpt>
      <trkpt lat="47.54768" lon="16.07748">
        <ele>646.234119</ele>
        <time>2026-07-07T16:15:19.000Z</time>
      </trkpt>
      <trkpt lat="47.54767" lon="16.07746">
        <ele>646.386653</ele>
        <time>2026-07-07T16:15:20.000Z</time>
      </trkpt>
      <trkpt lat="47.54767" lon="16.07744">
        <ele>646.535838</ele>
        <time>2026-07-07T16:15:21.000Z</time>
      </trkpt>
      <trkpt lat="47.54766" lon="16.07742">
        <ele>646.70186</ele>
        <time>2026-07-07T16:15:22.000Z</time>
      </trkpt>
      <trkpt lat="47.54766" lon="16.0774">
        <ele>646.84529</ele>
        <time>2026-07-07T16:15:23.000Z</time>
      </trkpt>
      <trkpt lat="47.54766" lon="16.07738">
        <ele>646.988329</ele>
        <time>2026-07-07T16:15:24.000Z</time>
      </trkpt>
      <trkpt lat="47.54766" lon="16.07736">
        <ele>647.131367</ele>
        <time>2026-07-07T16:15:25.000Z</time>
      </trkpt>
      <trkpt lat="47.54766" lon="16.07734">
        <ele>647.274405</ele>
        <time>2026-07-07T16:15:26.000Z</time>
      </trkpt>
      <trkpt lat="47.54766" lon="16.07732">
        <ele>647.417443</ele>
        <time>2026-07-07T16:15:27.000Z</time>
      </trkpt>
      <trkpt lat="47.54767" lon="16.0773">
        <ele>647.550044</ele>
        <time>2026-07-07T16:15:28.000Z</time>
      </trkpt>
      <trkpt lat="47.54767" lon="16.07728">
        <ele>647.671626</ele>
        <time>2026-07-07T16:15:29.000Z</time>
      </trkpt>
      <trkpt lat="47.54766" lon="16.07727">
        <ele>647.804227</ele>
        <time>2026-07-07T16:15:30.000Z</time>
      </trkpt>
      <trkpt lat="47.54766" lon="16.07725">
        <ele>647.934694</ele>
        <time>2026-07-07T16:15:31.000Z</time>
      </trkpt>
      <trkpt lat="47.54766" lon="16.07723">
        <ele>648.081221</ele>
        <time>2026-07-07T16:15:32.000Z</time>
      </trkpt>
      <trkpt lat="47.54765" lon="16.07721">
        <ele>648.22707</ele>
        <time>2026-07-07T16:15:33.000Z</time>
      </trkpt>
      <trkpt lat="47.54765" lon="16.07719">
        <ele>648.376255</ele>
        <time>2026-07-07T16:15:34.000Z</time>
      </trkpt>
      <trkpt lat="47.54765" lon="16.07717">
        <ele>648.519686</ele>
        <time>2026-07-07T16:15:35.000Z</time>
      </trkpt>
      <trkpt lat="47.54765" lon="16.07715">
        <ele>648.650152</ele>
        <time>2026-07-07T16:15:36.000Z</time>
      </trkpt>
      <trkpt lat="47.54765" lon="16.07713">
        <ele>648.793191</ele>
        <time>2026-07-07T16:15:37.000Z</time>
      </trkpt>
      <trkpt lat="47.54765" lon="16.07711">
        <ele>648.959213</ele>
        <time>2026-07-07T16:15:38.000Z</time>
      </trkpt>
      <trkpt lat="47.54766" lon="16.07709">
        <ele>649.098422</ele>
        <time>2026-07-07T16:15:39.000Z</time>
      </trkpt>
      <trkpt lat="47.54766" lon="16.07707">
        <ele>649.240842</ele>
        <time>2026-07-07T16:15:40.000Z</time>
      </trkpt>
      <trkpt lat="47.54767" lon="16.07706">
        <ele>649.383249</ele>
        <time>2026-07-07T16:15:41.000Z</time>
      </trkpt>
      <trkpt lat="47.54768" lon="16.07704">
        <ele>649.555563</ele>
        <time>2026-07-07T16:15:42.000Z</time>
      </trkpt>
      <trkpt lat="47.54769" lon="16.07702">
        <ele>649.694773</ele>
        <time>2026-07-07T16:15:43.000Z</time>
      </trkpt>
      <trkpt lat="47.54769" lon="16.077">
        <ele>649.853535</ele>
        <time>2026-07-07T16:15:44.000Z</time>
      </trkpt>
      <trkpt lat="47.54769" lon="16.07698">
        <ele>649.982705</ele>
        <time>2026-07-07T16:15:45.000Z</time>
      </trkpt>
      <trkpt lat="47.54769" lon="16.07696">
        <ele>650.13189</ele>
        <time>2026-07-07T16:15:46.000Z</time>
      </trkpt>
      <trkpt lat="47.5477" lon="16.07694">
        <ele>650.278417</ele>
        <time>2026-07-07T16:15:47.000Z</time>
      </trkpt>
      <trkpt lat="47.5477" lon="16.07692">
        <ele>650.407152</ele>
        <time>2026-07-07T16:15:48.000Z</time>
      </trkpt>
      <trkpt lat="47.5477" lon="16.0769">
        <ele>650.564494</ele>
        <time>2026-07-07T16:15:49.000Z</time>
      </trkpt>
      <trkpt lat="47.5477" lon="16.07688">
        <ele>650.711021</ele>
        <time>2026-07-07T16:15:50.000Z</time>
      </trkpt>
      <trkpt lat="47.5477" lon="16.07686">
        <ele>650.860206</ele>
        <time>2026-07-07T16:15:51.000Z</time>
      </trkpt>
      <trkpt lat="47.54771" lon="16.07684">
        <ele>651.026228</ele>
        <time>2026-07-07T16:15:52.000Z</time>
      </trkpt>
      <trkpt lat="47.54771" lon="16.07682">
        <ele>651.178762</ele>
        <time>2026-07-07T16:15:53.000Z</time>
      </trkpt>
      <trkpt lat="47.54772" lon="16.0768">
        <ele>651.32529</ele>
        <time>2026-07-07T16:15:54.000Z</time>
      </trkpt>
      <trkpt lat="47.54772" lon="16.07678">
        <ele>651.48455</ele>
        <time>2026-07-07T16:15:55.000Z</time>
      </trkpt>
      <trkpt lat="47.54773" lon="16.07676">
        <ele>651.650571</ele>
        <time>2026-07-07T16:15:56.000Z</time>
      </trkpt>
      <trkpt lat="47.54773" lon="16.07674">
        <ele>651.811696</ele>
        <time>2026-07-07T16:15:57.000Z</time>
      </trkpt>
      <trkpt lat="47.54774" lon="16.07672">
        <ele>651.96423</ele>
        <time>2026-07-07T16:15:58.000Z</time>
      </trkpt>
      <trkpt lat="47.54774" lon="16.0767">
        <ele>652.10143</ele>
        <time>2026-07-07T16:15:59.000Z</time>
      </trkpt>
      <trkpt lat="47.54775" lon="16.07668">
        <ele>652.22753</ele>
        <time>2026-07-07T16:16:00.000Z</time>
      </trkpt>
      <trkpt lat="47.54776" lon="16.07666">
        <ele>652.38234</ele>
        <time>2026-07-07T16:16:01.000Z</time>
      </trkpt>
      <trkpt lat="47.54776" lon="16.07664">
        <ele>652.528868</ele>
        <time>2026-07-07T16:16:02.000Z</time>
      </trkpt>
      <trkpt lat="47.54776" lon="16.07662">
        <ele>652.684923</ele>
        <time>2026-07-07T16:16:03.000Z</time>
      </trkpt>
      <trkpt lat="47.54777" lon="16.0766">
        <ele>652.845444</ele>
        <time>2026-07-07T16:16:04.000Z</time>
      </trkpt>
      <trkpt lat="47.54777" lon="16.07658">
        <ele>653.005964</ele>
        <time>2026-07-07T16:16:05.000Z</time>
      </trkpt>
      <trkpt lat="47.54777" lon="16.07656">
        <ele>653.170798</ele>
        <time>2026-07-07T16:16:06.000Z</time>
      </trkpt>
      <trkpt lat="47.54777" lon="16.07653">
        <ele>653.349909</ele>
        <time>2026-07-07T16:16:07.000Z</time>
      </trkpt>
      <trkpt lat="47.54777" lon="16.0765">
        <ele>653.547607</ele>
        <time>2026-07-07T16:16:08.000Z</time>
      </trkpt>
      <trkpt lat="47.54777" lon="16.07648">
        <ele>653.733556</ele>
        <time>2026-07-07T16:16:09.000Z</time>
      </trkpt>
      <trkpt lat="47.54778" lon="16.07645">
        <ele>653.920038</ele>
        <time>2026-07-07T16:16:10.000Z</time>
      </trkpt>
      <trkpt lat="47.54778" lon="16.07643">
        <ele>654.101638</ele>
        <time>2026-07-07T16:16:11.000Z</time>
      </trkpt>
      <trkpt lat="47.54778" lon="16.0764">
        <ele>654.266174</ele>
        <time>2026-07-07T16:16:12.000Z</time>
      </trkpt>
      <trkpt lat="47.54779" lon="16.07637">
        <ele>654.44189</ele>
        <time>2026-07-07T16:16:13.000Z</time>
      </trkpt>
      <trkpt lat="47.54779" lon="16.07634">
        <ele>654.608317</ele>
        <time>2026-07-07T16:16:14.000Z</time>
      </trkpt>
      <trkpt lat="47.5478" lon="16.07632">
        <ele>654.769196</ele>
        <time>2026-07-07T16:16:15.000Z</time>
      </trkpt>
      <trkpt lat="47.5478" lon="16.07629">
        <ele>654.915102</ele>
        <time>2026-07-07T16:16:16.000Z</time>
      </trkpt>
      <trkpt lat="47.5478" lon="16.07626">
        <ele>655.076892</ele>
        <time>2026-07-07T16:16:17.000Z</time>
      </trkpt>
      <trkpt lat="47.5478" lon="16.07624">
        <ele>655.232271</ele>
        <time>2026-07-07T16:16:18.000Z</time>
      </trkpt>
      <trkpt lat="47.54781" lon="16.07621">
        <ele>655.388348</ele>
        <time>2026-07-07T16:16:19.000Z</time>
      </trkpt>
      <trkpt lat="47.54781" lon="16.07618">
        <ele>655.538714</ele>
        <time>2026-07-07T16:16:20.000Z</time>
      </trkpt>
      <trkpt lat="47.54781" lon="16.07615">
        <ele>655.70557</ele>
        <time>2026-07-07T16:16:21.000Z</time>
      </trkpt>
      <trkpt lat="47.54781" lon="16.07613">
        <ele>655.860914</ele>
        <time>2026-07-07T16:16:22.000Z</time>
      </trkpt>
      <trkpt lat="47.54782" lon="16.0761">
        <ele>656.019753</ele>
        <time>2026-07-07T16:16:23.000Z</time>
      </trkpt>
      <trkpt lat="47.54782" lon="16.07608">
        <ele>656.16958</ele>
        <time>2026-07-07T16:16:24.000Z</time>
      </trkpt>
      <trkpt lat="47.54783" lon="16.07605">
        <ele>656.332486</ele>
        <time>2026-07-07T16:16:25.000Z</time>
      </trkpt>
      <trkpt lat="47.54783" lon="16.07602">
        <ele>656.50107</ele>
        <time>2026-07-07T16:16:26.000Z</time>
      </trkpt>
      <trkpt lat="47.54783" lon="16.07599">
        <ele>656.654301</ele>
        <time>2026-07-07T16:16:27.000Z</time>
      </trkpt>
      <trkpt lat="47.54784" lon="16.07596">
        <ele>656.822884</ele>
        <time>2026-07-07T16:16:28.000Z</time>
      </trkpt>
      <trkpt lat="47.54784" lon="16.07594">
        <ele>656.973251</ele>
        <time>2026-07-07T16:16:29.000Z</time>
      </trkpt>
      <trkpt lat="47.54784" lon="16.07591">
        <ele>657.141834</ele>
        <time>2026-07-07T16:16:31.000Z</time>
      </trkpt>
      <trkpt lat="47.54784" lon="16.07588">
        <ele>657.303624</ele>
        <time>2026-07-07T16:16:32.000Z</time>
      </trkpt>
      <trkpt lat="47.54784" lon="16.07585">
        <ele>657.464741</ele>
        <time>2026-07-07T16:16:33.000Z</time>
      </trkpt>
      <trkpt lat="47.54784" lon="16.07583">
        <ele>657.62012</ele>
        <time>2026-07-07T16:16:34.000Z</time>
      </trkpt>
      <trkpt lat="47.54784" lon="16.0758">
        <ele>657.775265</ele>
        <time>2026-07-07T16:16:35.000Z</time>
      </trkpt>
      <trkpt lat="47.54784" lon="16.07577">
        <ele>657.936382</ele>
        <time>2026-07-07T16:16:36.000Z</time>
      </trkpt>
      <trkpt lat="47.54785" lon="16.07574">
        <ele>658.109605</ele>
        <time>2026-07-07T16:16:37.000Z</time>
      </trkpt>
      <trkpt lat="47.54785" lon="16.07571">
        <ele>658.272511</ele>
        <time>2026-07-07T16:16:38.000Z</time>
      </trkpt>
      <trkpt lat="47.54785" lon="16.07568">
        <ele>658.439149</ele>
        <time>2026-07-07T16:16:39.000Z</time>
      </trkpt>
      <trkpt lat="47.54785" lon="16.07565">
        <ele>658.617482</ele>
        <time>2026-07-07T16:16:40.000Z</time>
      </trkpt>
      <trkpt lat="47.54785" lon="16.07562">
        <ele>658.790705</ele>
        <time>2026-07-07T16:16:41.000Z</time>
      </trkpt>
      <trkpt lat="47.54785" lon="16.07559">
        <ele>658.963088</ele>
        <time>2026-07-07T16:16:42.000Z</time>
      </trkpt>
      <trkpt lat="47.54784" lon="16.07556">
        <ele>659.136311</ele>
        <time>2026-07-07T16:16:43.000Z</time>
      </trkpt>
      <trkpt lat="47.54784" lon="16.07553">
        <ele>659.303166</ele>
        <time>2026-07-07T16:16:44.000Z</time>
      </trkpt>
      <trkpt lat="47.54784" lon="16.07551">
        <ele>659.464956</ele>
        <time>2026-07-07T16:16:45.000Z</time>
      </trkpt>
      <trkpt lat="47.54784" lon="16.07548">
        <ele>659.63734</ele>
        <time>2026-07-07T16:16:46.000Z</time>
      </trkpt>
      <trkpt lat="47.54784" lon="16.07545">
        <ele>659.79913</ele>
        <time>2026-07-07T16:16:47.000Z</time>
      </trkpt>
      <trkpt lat="47.54784" lon="16.07542">
        <ele>659.954276</ele>
        <time>2026-07-07T16:16:48.000Z</time>
      </trkpt>
      <trkpt lat="47.54784" lon="16.07539">
        <ele>660.110353</ele>
        <time>2026-07-07T16:16:49.000Z</time>
      </trkpt>
      <trkpt lat="47.54784" lon="16.07537">
        <ele>660.260719</ele>
        <time>2026-07-07T16:16:50.000Z</time>
      </trkpt>
      <trkpt lat="47.54784" lon="16.07534">
        <ele>660.417953</ele>
        <time>2026-07-07T16:16:51.000Z</time>
      </trkpt>
      <trkpt lat="47.54783" lon="16.07532">
        <ele>660.562611</ele>
        <time>2026-07-07T16:16:52.000Z</time>
      </trkpt>
      <trkpt lat="47.54783" lon="16.07529">
        <ele>660.708517</ele>
        <time>2026-07-07T16:16:53.000Z</time>
      </trkpt>
      <trkpt lat="47.54783" lon="16.07527">
        <ele>660.841906</ele>
        <time>2026-07-07T16:16:54.000Z</time>
      </trkpt>
      <trkpt lat="47.54782" lon="16.07525">
        <ele>660.976512</ele>
        <time>2026-07-07T16:16:55.000Z</time>
      </trkpt>
      <trkpt lat="47.54782" lon="16.07522">
        <ele>661.109765</ele>
        <time>2026-07-07T16:16:56.000Z</time>
      </trkpt>
      <trkpt lat="47.54782" lon="16.0752">
        <ele>661.24872</ele>
        <time>2026-07-07T16:16:57.000Z</time>
      </trkpt>
      <trkpt lat="47.54782" lon="16.07518">
        <ele>661.372061</ele>
        <time>2026-07-07T16:16:58.000Z</time>
      </trkpt>
      <trkpt lat="47.54781" lon="16.07516">
        <ele>661.50103</ele>
        <time>2026-07-07T16:16:59.000Z</time>
      </trkpt>
      <trkpt lat="47.54781" lon="16.07513">
        <ele>661.628587</ele>
        <time>2026-07-07T16:17:00.000Z</time>
      </trkpt>
      <trkpt lat="47.54781" lon="16.07511">
        <ele>661.751929</ele>
        <time>2026-07-07T16:17:01.000Z</time>
      </trkpt>
      <trkpt lat="47.54781" lon="16.07509">
        <ele>661.879485</ele>
        <time>2026-07-07T16:17:02.000Z</time>
      </trkpt>
      <trkpt lat="47.5478" lon="16.07507">
        <ele>662.014091</ele>
        <time>2026-07-07T16:17:03.000Z</time>
      </trkpt>
      <trkpt lat="47.5478" lon="16.07504">
        <ele>662.153046</ele>
        <time>2026-07-07T16:17:04.000Z</time>
      </trkpt>
      <trkpt lat="47.5478" lon="16.07502">
        <ele>662.296699</ele>
        <time>2026-07-07T16:17:05.000Z</time>
      </trkpt>
      <trkpt lat="47.5478" lon="16.075">
        <ele>662.418563</ele>
        <time>2026-07-07T16:17:06.000Z</time>
      </trkpt>
      <trkpt lat="47.5478" lon="16.07498">
        <ele>662.547532</ele>
        <time>2026-07-07T16:17:07.000Z</time>
      </trkpt>
      <trkpt lat="47.54779" lon="16.07495">
        <ele>662.680921</ele>
        <time>2026-07-07T16:17:08.000Z</time>
      </trkpt>
      <trkpt lat="47.54779" lon="16.07493">
        <ele>662.813082</ele>
        <time>2026-07-07T16:17:09.000Z</time>
      </trkpt>
      <trkpt lat="47.54779" lon="16.07491">
        <ele>662.947688</ele>
        <time>2026-07-07T16:17:10.000Z</time>
      </trkpt>
      <trkpt lat="47.54779" lon="16.07489">
        <ele>663.063865</ele>
        <time>2026-07-07T16:17:11.000Z</time>
      </trkpt>
      <trkpt lat="47.54778" lon="16.07487">
        <ele>663.192834</ele>
        <time>2026-07-07T16:17:12.000Z</time>
      </trkpt>
      <trkpt lat="47.54778" lon="16.07485">
        <ele>663.312696</ele>
        <time>2026-07-07T16:17:13.000Z</time>
      </trkpt>
      <trkpt lat="47.54777" lon="16.07482">
        <ele>663.446085</ele>
        <time>2026-07-07T16:17:14.000Z</time>
      </trkpt>
      <trkpt lat="47.54777" lon="16.0748">
        <ele>663.580691</ele>
        <time>2026-07-07T16:17:15.000Z</time>
      </trkpt>
      <trkpt lat="47.54777" lon="16.07478">
        <ele>663.71408</ele>
        <time>2026-07-07T16:17:16.000Z</time>
      </trkpt>
      <trkpt lat="47.54776" lon="16.07476">
        <ele>663.842036</ele>
        <time>2026-07-07T16:17:17.000Z</time>
      </trkpt>
      <trkpt lat="47.54775" lon="16.07474">
        <ele>663.966417</ele>
        <time>2026-07-07T16:17:18.000Z</time>
      </trkpt>
      <trkpt lat="47.54775" lon="16.07472">
        <ele>664.08897</ele>
        <time>2026-07-07T16:17:19.000Z</time>
      </trkpt>
      <trkpt lat="47.54774" lon="16.0747">
        <ele>664.216926</ele>
        <time>2026-07-07T16:17:20.000Z</time>
      </trkpt>
      <trkpt lat="47.54774" lon="16.07468">
        <ele>664.343341</ele>
        <time>2026-07-07T16:17:21.000Z</time>
      </trkpt>
      <trkpt lat="47.54775" lon="16.07465">
        <ele>664.474262</ele>
        <time>2026-07-07T16:17:22.000Z</time>
      </trkpt>
      <trkpt lat="47.54775" lon="16.07463">
        <ele>664.597604</ele>
        <time>2026-07-07T16:17:23.000Z</time>
      </trkpt>
      <trkpt lat="47.54775" lon="16.07461">
        <ele>664.736559</ele>
        <time>2026-07-07T16:17:24.000Z</time>
      </trkpt>
      <trkpt lat="47.54775" lon="16.07458">
        <ele>664.880464</ele>
        <time>2026-07-07T16:17:25.000Z</time>
      </trkpt>
      <trkpt lat="47.54776" lon="16.07456">
        <ele>665.013718</ele>
        <time>2026-07-07T16:17:26.000Z</time>
      </trkpt>
      <trkpt lat="47.54776" lon="16.07454">
        <ele>665.145879</ele>
        <time>2026-07-07T16:17:27.000Z</time>
      </trkpt>
      <trkpt lat="47.54775" lon="16.07452">
        <ele>665.273435</ele>
        <time>2026-07-07T16:17:28.000Z</time>
      </trkpt>
      <trkpt lat="47.54775" lon="16.07449">
        <ele>665.405871</ele>
        <time>2026-07-07T16:17:29.000Z</time>
      </trkpt>
      <trkpt lat="47.54775" lon="16.07447">
        <ele>665.536792</ele>
        <time>2026-07-07T16:17:30.000Z</time>
      </trkpt>
      <trkpt lat="47.54775" lon="16.07445">
        <ele>665.663493</ele>
        <time>2026-07-07T16:17:31.000Z</time>
      </trkpt>
      <trkpt lat="47.54775" lon="16.07443">
        <ele>665.796747</ele>
        <time>2026-07-07T16:17:32.000Z</time>
      </trkpt>
      <trkpt lat="47.54774" lon="16.07441">
        <ele>665.914473</ele>
        <time>2026-07-07T16:17:33.000Z</time>
      </trkpt>
      <trkpt lat="47.54774" lon="16.07438">
        <ele>666.05332</ele>
        <time>2026-07-07T16:17:34.000Z</time>
      </trkpt>
      <trkpt lat="47.54773" lon="16.07436">
        <ele>666.197647</ele>
        <time>2026-07-07T16:17:35.000Z</time>
      </trkpt>
      <trkpt lat="47.54773" lon="16.07433">
        <ele>666.345281</ele>
        <time>2026-07-07T16:17:36.000Z</time>
      </trkpt>
      <trkpt lat="47.54773" lon="16.07431">
        <ele>666.477716</ele>
        <time>2026-07-07T16:17:37.000Z</time>
      </trkpt>
      <trkpt lat="47.54773" lon="16.07429">
        <ele>666.605273</ele>
        <time>2026-07-07T16:17:38.000Z</time>
      </trkpt>
      <trkpt lat="47.54773" lon="16.07427">
        <ele>666.739879</ele>
        <time>2026-07-07T16:17:39.000Z</time>
      </trkpt>
      <trkpt lat="47.54773" lon="16.07424">
        <ele>666.8708</ele>
        <time>2026-07-07T16:17:40.000Z</time>
      </trkpt>
      <trkpt lat="47.54774" lon="16.07422">
        <ele>667.005407</ele>
        <time>2026-07-07T16:17:41.000Z</time>
      </trkpt>
      <trkpt lat="47.54774" lon="16.0742">
        <ele>667.140013</ele>
        <time>2026-07-07T16:17:42.000Z</time>
      </trkpt>
      <trkpt lat="47.54774" lon="16.07417">
        <ele>667.282062</ele>
        <time>2026-07-07T16:17:43.000Z</time>
      </trkpt>
      <trkpt lat="47.54775" lon="16.07415">
        <ele>667.427968</ele>
        <time>2026-07-07T16:17:44.000Z</time>
      </trkpt>
      <trkpt lat="47.54775" lon="16.07413">
        <ele>667.561222</ele>
        <time>2026-07-07T16:17:45.000Z</time>
      </trkpt>
      <trkpt lat="47.54775" lon="16.0741">
        <ele>667.687637</ele>
        <time>2026-07-07T16:17:46.000Z</time>
      </trkpt>
      <trkpt lat="47.54775" lon="16.07408">
        <ele>667.809501</ele>
        <time>2026-07-07T16:17:47.000Z</time>
      </trkpt>
      <trkpt lat="47.54775" lon="16.07406">
        <ele>667.947409</ele>
        <time>2026-07-07T16:17:48.000Z</time>
      </trkpt>
      <trkpt lat="47.54775" lon="16.07404">
        <ele>668.080662</ele>
        <time>2026-07-07T16:17:49.000Z</time>
      </trkpt>
      <trkpt lat="47.54775" lon="16.07401">
        <ele>668.207077</ele>
        <time>2026-07-07T16:17:50.000Z</time>
      </trkpt>
      <trkpt lat="47.54775" lon="16.07399">
        <ele>668.339512</ele>
        <time>2026-07-07T16:17:51.000Z</time>
      </trkpt>
      <trkpt lat="47.54775" lon="16.07397">
        <ele>668.472766</ele>
        <time>2026-07-07T16:17:52.000Z</time>
      </trkpt>
      <trkpt lat="47.54775" lon="16.07394">
        <ele>668.610673</ele>
        <time>2026-07-07T16:17:53.000Z</time>
      </trkpt>
      <trkpt lat="47.54775" lon="16.07392">
        <ele>668.745279</ele>
        <time>2026-07-07T16:17:54.000Z</time>
      </trkpt>
      <trkpt lat="47.54776" lon="16.0739">
        <ele>668.8762</ele>
        <time>2026-07-07T16:17:55.000Z</time>
      </trkpt>
      <trkpt lat="47.54776" lon="16.07388">
        <ele>668.997169</ele>
        <time>2026-07-07T16:17:56.000Z</time>
      </trkpt>
      <trkpt lat="47.54776" lon="16.07385">
        <ele>669.135077</ele>
        <time>2026-07-07T16:17:57.000Z</time>
      </trkpt>
      <trkpt lat="47.54776" lon="16.07383">
        <ele>669.26833</ele>
        <time>2026-07-07T16:17:58.000Z</time>
      </trkpt>
      <trkpt lat="47.54776" lon="16.07381">
        <ele>669.400491</ele>
        <time>2026-07-07T16:17:59.000Z</time>
      </trkpt>
      <trkpt lat="47.54776" lon="16.07378">
        <ele>669.522176</ele>
        <time>2026-07-07T16:18:00.000Z</time>
      </trkpt>
      <trkpt lat="47.54776" lon="16.07376">
        <ele>669.633731</ele>
        <time>2026-07-07T16:18:01.000Z</time>
      </trkpt>
      <trkpt lat="47.54777" lon="16.07373">
        <ele>669.748284</ele>
        <time>2026-07-07T16:18:02.000Z</time>
      </trkpt>
      <trkpt lat="47.54777" lon="16.07371">
        <ele>669.856891</ele>
        <time>2026-07-07T16:18:03.000Z</time>
      </trkpt>
      <trkpt lat="47.54778" lon="16.07368">
        <ele>669.968446</ele>
        <time>2026-07-07T16:18:04.000Z</time>
      </trkpt>
      <trkpt lat="47.54778" lon="16.07366">
        <ele>670.080001</ele>
        <time>2026-07-07T16:18:05.000Z</time>
      </trkpt>
      <trkpt lat="47.54778" lon="16.07363">
        <ele>670.198773</ele>
        <time>2026-07-07T16:18:06.000Z</time>
      </trkpt>
      <trkpt lat="47.54779" lon="16.07361">
        <ele>670.311649</ele>
        <time>2026-07-07T16:18:07.000Z</time>
      </trkpt>
      <trkpt lat="47.54779" lon="16.07358">
        <ele>670.440543</ele>
        <time>2026-07-07T16:18:08.000Z</time>
      </trkpt>
      <trkpt lat="47.54779" lon="16.07355">
        <ele>670.556426</ele>
        <time>2026-07-07T16:18:09.000Z</time>
      </trkpt>
      <trkpt lat="47.5478" lon="16.07353">
        <ele>670.669302</ele>
        <time>2026-07-07T16:18:10.000Z</time>
      </trkpt>
      <trkpt lat="47.5478" lon="16.0735">
        <ele>670.780857</ele>
        <time>2026-07-07T16:18:11.000Z</time>
      </trkpt>
      <trkpt lat="47.5478" lon="16.07348">
        <ele>670.892412</ele>
        <time>2026-07-07T16:18:12.000Z</time>
      </trkpt>
      <trkpt lat="47.54781" lon="16.07345">
        <ele>671.00276</ele>
        <time>2026-07-07T16:18:13.000Z</time>
      </trkpt>
      <trkpt lat="47.54781" lon="16.07343">
        <ele>671.119915</ele>
        <time>2026-07-07T16:18:14.000Z</time>
      </trkpt>
      <trkpt lat="47.54781" lon="16.0734">
        <ele>671.238713</ele>
        <time>2026-07-07T16:18:15.000Z</time>
      </trkpt>
      <trkpt lat="47.54782" lon="16.07338">
        <ele>671.349315</ele>
        <time>2026-07-07T16:18:16.000Z</time>
      </trkpt>
      <trkpt lat="47.54782" lon="16.07335">
        <ele>671.46087</ele>
        <time>2026-07-07T16:18:17.000Z</time>
      </trkpt>
      <trkpt lat="47.54783" lon="16.07333">
        <ele>671.579778</ele>
        <time>2026-07-07T16:18:18.000Z</time>
      </trkpt>
      <trkpt lat="47.54783" lon="16.0733">
        <ele>671.682693</ele>
        <time>2026-07-07T16:18:19.000Z</time>
      </trkpt>
      <trkpt lat="47.54783" lon="16.07328">
        <ele>671.795569</ele>
        <time>2026-07-07T16:18:20.000Z</time>
      </trkpt>
      <trkpt lat="47.54784" lon="16.07325">
        <ele>671.907124</ele>
        <time>2026-07-07T16:18:21.000Z</time>
      </trkpt>
      <trkpt lat="47.54784" lon="16.07323">
        <ele>672.02734</ele>
        <time>2026-07-07T16:18:22.000Z</time>
      </trkpt>
      <trkpt lat="47.54784" lon="16.0732">
        <ele>672.140216</ele>
        <time>2026-07-07T16:18:23.000Z</time>
      </trkpt>
      <trkpt lat="47.54785" lon="16.07317">
        <ele>672.260432</ele>
        <time>2026-07-07T16:18:24.000Z</time>
      </trkpt>
      <trkpt lat="47.54785" lon="16.07315">
        <ele>672.374985</ele>
        <time>2026-07-07T16:18:25.000Z</time>
      </trkpt>
      <trkpt lat="47.54786" lon="16.07312">
        <ele>672.497962</ele>
        <time>2026-07-07T16:18:26.000Z</time>
      </trkpt>
      <trkpt lat="47.54786" lon="16.0731">
        <ele>672.622845</ele>
        <time>2026-07-07T16:18:27.000Z</time>
      </trkpt>
      <trkpt lat="47.54787" lon="16.07307">
        <ele>672.742176</ele>
        <time>2026-07-07T16:18:28.000Z</time>
      </trkpt>
      <trkpt lat="47.54787" lon="16.07304">
        <ele>672.858059</ele>
        <time>2026-07-07T16:18:29.000Z</time>
      </trkpt>
      <trkpt lat="47.54788" lon="16.07302">
        <ele>672.985128</ele>
        <time>2026-07-07T16:18:30.000Z</time>
      </trkpt>
      <trkpt lat="47.54788" lon="16.07299">
        <ele>673.112372</ele>
        <time>2026-07-07T16:18:31.000Z</time>
      </trkpt>
      <trkpt lat="47.54789" lon="16.07296">
        <ele>673.243869</ele>
        <time>2026-07-07T16:18:32.000Z</time>
      </trkpt>
      <trkpt lat="47.54789" lon="16.07293">
        <ele>673.371114</ele>
        <time>2026-07-07T16:18:33.000Z</time>
      </trkpt>
      <trkpt lat="47.54789" lon="16.0729">
        <ele>673.502913</ele>
        <time>2026-07-07T16:18:34.000Z</time>
      </trkpt>
      <trkpt lat="47.54789" lon="16.07287">
        <ele>673.635353</ele>
        <time>2026-07-07T16:18:35.000Z</time>
      </trkpt>
      <trkpt lat="47.54789" lon="16.07284">
        <ele>673.767152</ele>
        <time>2026-07-07T16:18:36.000Z</time>
      </trkpt>
      <trkpt lat="47.54789" lon="16.07281">
        <ele>673.898951</ele>
        <time>2026-07-07T16:18:37.000Z</time>
      </trkpt>
      <trkpt lat="47.54789" lon="16.07278">
        <ele>674.031391</ele>
        <time>2026-07-07T16:18:38.000Z</time>
      </trkpt>
      <trkpt lat="47.54789" lon="16.07275">
        <ele>674.163191</ele>
        <time>2026-07-07T16:18:39.000Z</time>
      </trkpt>
      <trkpt lat="47.54789" lon="16.07272">
        <ele>674.298948</ele>
        <time>2026-07-07T16:18:40.000Z</time>
      </trkpt>
      <trkpt lat="47.54788" lon="16.07269">
        <ele>674.426193</ele>
        <time>2026-07-07T16:18:41.000Z</time>
      </trkpt>
      <trkpt lat="47.54788" lon="16.07266">
        <ele>674.56195</ele>
        <time>2026-07-07T16:18:42.000Z</time>
      </trkpt>
      <trkpt lat="47.54787" lon="16.07263">
        <ele>674.697708</ele>
        <time>2026-07-07T16:18:43.000Z</time>
      </trkpt>
      <trkpt lat="47.54787" lon="16.0726">
        <ele>674.838895</ele>
        <time>2026-07-07T16:18:44.000Z</time>
      </trkpt>
      <trkpt lat="47.54787" lon="16.07257">
        <ele>674.979631</ele>
        <time>2026-07-07T16:18:45.000Z</time>
      </trkpt>
      <trkpt lat="47.54786" lon="16.07254">
        <ele>675.113978</ele>
        <time>2026-07-07T16:18:46.000Z</time>
      </trkpt>
      <trkpt lat="47.54786" lon="16.07251">
        <ele>675.245937</ele>
        <time>2026-07-07T16:18:47.000Z</time>
      </trkpt>
      <trkpt lat="47.54786" lon="16.07248">
        <ele>675.381695</ele>
        <time>2026-07-07T16:18:48.000Z</time>
      </trkpt>
      <trkpt lat="47.54785" lon="16.07245">
        <ele>675.517453</ele>
        <time>2026-07-07T16:18:49.000Z</time>
      </trkpt>
      <trkpt lat="47.54785" lon="16.07242">
        <ele>675.64043</ele>
        <time>2026-07-07T16:18:50.000Z</time>
      </trkpt>
      <trkpt lat="47.54784" lon="16.0724">
        <ele>675.754983</ele>
        <time>2026-07-07T16:18:51.000Z</time>
      </trkpt>
      <trkpt lat="47.54784" lon="16.07237">
        <ele>675.883876</ele>
        <time>2026-07-07T16:18:52.000Z</time>
      </trkpt>
      <trkpt lat="47.54783" lon="16.07234">
        <ele>676.002648</ele>
        <time>2026-07-07T16:18:53.000Z</time>
      </trkpt>
      <trkpt lat="47.54783" lon="16.07232">
        <ele>676.129717</ele>
        <time>2026-07-07T16:18:54.000Z</time>
      </trkpt>
      <trkpt lat="47.54782" lon="16.07229">
        <ele>676.256961</ele>
        <time>2026-07-07T16:18:55.000Z</time>
      </trkpt>
      <trkpt lat="47.54781" lon="16.07226">
        <ele>676.392269</ele>
        <time>2026-07-07T16:18:56.000Z</time>
      </trkpt>
      <trkpt lat="47.54781" lon="16.07223">
        <ele>676.517804</ele>
        <time>2026-07-07T16:18:57.000Z</time>
      </trkpt>
      <trkpt lat="47.5478" lon="16.0722">
        <ele>676.653111</ele>
        <time>2026-07-07T16:18:58.000Z</time>
      </trkpt>
      <trkpt lat="47.54779" lon="16.07218">
        <ele>676.773829</ele>
        <time>2026-07-07T16:18:59.000Z</time>
      </trkpt>
      <trkpt lat="47.54779" lon="16.07215">
        <ele>676.900898</ele>
        <time>2026-07-07T16:19:00.000Z</time>
      </trkpt>
      <trkpt lat="47.54778" lon="16.07212">
        <ele>677.030443</ele>
        <time>2026-07-07T16:19:01.000Z</time>
      </trkpt>
      <trkpt lat="47.54777" lon="16.0721">
        <ele>677.15342</ele>
        <time>2026-07-07T16:19:02.000Z</time>
      </trkpt>
      <trkpt lat="47.54776" lon="16.07208">
        <ele>677.260274</ele>
        <time>2026-07-07T16:19:03.000Z</time>
      </trkpt>
      <trkpt lat="47.54776" lon="16.07206">
        <ele>677.353974</ele>
        <time>2026-07-07T16:19:04.000Z</time>
      </trkpt>
      <trkpt lat="47.54775" lon="16.07203">
        <ele>677.460131</ele>
        <time>2026-07-07T16:19:05.000Z</time>
      </trkpt>
      <trkpt lat="47.54775" lon="16.07201">
        <ele>677.576701</ele>
        <time>2026-07-07T16:19:06.000Z</time>
      </trkpt>
      <trkpt lat="47.54774" lon="16.07198">
        <ele>677.695609</ele>
        <time>2026-07-07T16:19:07.000Z</time>
      </trkpt>
      <trkpt lat="47.54773" lon="16.07196">
        <ele>677.81716</ele>
        <time>2026-07-07T16:19:08.000Z</time>
      </trkpt>
      <trkpt lat="47.54773" lon="16.07193">
        <ele>677.944228</ele>
        <time>2026-07-07T16:19:09.000Z</time>
      </trkpt>
      <trkpt lat="47.54772" lon="16.07191">
        <ele>678.047144</ele>
        <time>2026-07-07T16:19:10.000Z</time>
      </trkpt>
      <trkpt lat="47.54772" lon="16.07189">
        <ele>678.153998</ele>
        <time>2026-07-07T16:19:11.000Z</time>
      </trkpt>
      <trkpt lat="47.54771" lon="16.07187">
        <ele>678.252974</ele>
        <time>2026-07-07T16:19:12.000Z</time>
      </trkpt>
      <trkpt lat="47.5477" lon="16.07184">
        <ele>678.374525</ele>
        <time>2026-07-07T16:19:13.000Z</time>
      </trkpt>
      <trkpt lat="47.54769" lon="16.07182">
        <ele>678.493434</ele>
        <time>2026-07-07T16:19:14.000Z</time>
      </trkpt>
      <trkpt lat="47.54769" lon="16.07179">
        <ele>678.618317</ele>
        <time>2026-07-07T16:19:15.000Z</time>
      </trkpt>
      <trkpt lat="47.54768" lon="16.07176">
        <ele>678.741294</ele>
        <time>2026-07-07T16:19:16.000Z</time>
      </trkpt>
      <trkpt lat="47.54768" lon="16.07173">
        <ele>678.870188</ele>
        <time>2026-07-07T16:19:17.000Z</time>
      </trkpt>
      <trkpt lat="47.54767" lon="16.07171">
        <ele>679.001368</ele>
        <time>2026-07-07T16:19:18.000Z</time>
      </trkpt>
      <trkpt lat="47.54766" lon="16.07168">
        <ele>679.128437</ele>
        <time>2026-07-07T16:19:19.000Z</time>
      </trkpt>
      <trkpt lat="47.54766" lon="16.07165">
        <ele>679.249155</ele>
        <time>2026-07-07T16:19:20.000Z</time>
      </trkpt>
      <trkpt lat="47.54765" lon="16.07163">
        <ele>679.376224</ele>
        <time>2026-07-07T16:19:21.000Z</time>
      </trkpt>
      <trkpt lat="47.54764" lon="16.0716">
        <ele>679.507403</ele>
        <time>2026-07-07T16:19:22.000Z</time>
      </trkpt>
      <trkpt lat="47.54764" lon="16.07157">
        <ele>679.632286</ele>
        <time>2026-07-07T16:19:23.000Z</time>
      </trkpt>
      <trkpt lat="47.54763" lon="16.07154">
        <ele>679.763466</ele>
        <time>2026-07-07T16:19:24.000Z</time>
      </trkpt>
      <trkpt lat="47.54763" lon="16.07151">
        <ele>679.894963</ele>
        <time>2026-07-07T16:19:25.000Z</time>
      </trkpt>
      <trkpt lat="47.54762" lon="16.07149">
        <ele>680.017941</ele>
        <time>2026-07-07T16:19:26.000Z</time>
      </trkpt>
      <trkpt lat="47.54761" lon="16.07146">
        <ele>680.142824</ele>
        <time>2026-07-07T16:19:27.000Z</time>
      </trkpt>
      <trkpt lat="47.54761" lon="16.07143">
        <ele>680.27007</ele>
        <time>2026-07-07T16:19:28.000Z</time>
      </trkpt>
      <trkpt lat="47.5476" lon="16.07141">
        <ele>680.393073</ele>
        <time>2026-07-07T16:19:29.000Z</time>
      </trkpt>
      <trkpt lat="47.5476" lon="16.07138">
        <ele>680.516076</ele>
        <time>2026-07-07T16:19:30.000Z</time>
      </trkpt>
      <trkpt lat="47.54759" lon="16.07135">
        <ele>680.628953</ele>
        <time>2026-07-07T16:19:31.000Z</time>
      </trkpt>
      <trkpt lat="47.54759" lon="16.07133">
        <ele>680.745523</ele>
        <time>2026-07-07T16:19:32.000Z</time>
      </trkpt>
      <trkpt lat="47.54758" lon="16.0713">
        <ele>680.860076</ele>
        <time>2026-07-07T16:19:33.000Z</time>
      </trkpt>
      <trkpt lat="47.54758" lon="16.07128">
        <ele>680.977232</ele>
        <time>2026-07-07T16:19:34.000Z</time>
      </trkpt>
      <trkpt lat="47.54758" lon="16.07125">
        <ele>681.088787</ele>
        <time>2026-07-07T16:19:35.000Z</time>
      </trkpt>
      <trkpt lat="47.54757" lon="16.07123">
        <ele>681.2391</ele>
        <time>2026-07-07T16:19:36.000Z</time>
      </trkpt>
      <trkpt lat="47.54757" lon="16.0712">
        <ele>681.41952</ele>
        <time>2026-07-07T16:19:37.000Z</time>
      </trkpt>
      <trkpt lat="47.54757" lon="16.07117">
        <ele>681.612517</ele>
        <time>2026-07-07T16:19:38.000Z</time>
      </trkpt>
      <trkpt lat="47.54757" lon="16.07115">
        <ele>681.797556</ele>
        <time>2026-07-07T16:19:39.000Z</time>
      </trkpt>
      <trkpt lat="47.54757" lon="16.07112">
        <ele>682.004685</ele>
        <time>2026-07-07T16:19:40.000Z</time>
      </trkpt>
      <trkpt lat="47.54756" lon="16.07109">
        <ele>682.19062</ele>
        <time>2026-07-07T16:19:41.000Z</time>
      </trkpt>
      <trkpt lat="47.54756" lon="16.07107">
        <ele>682.385047</ele>
        <time>2026-07-07T16:19:42.000Z</time>
      </trkpt>
      <trkpt lat="47.54756" lon="16.07104">
        <ele>682.565467</ele>
        <time>2026-07-07T16:19:43.000Z</time>
      </trkpt>
      <trkpt lat="47.54755" lon="16.07101">
        <ele>682.761879</ele>
        <time>2026-07-07T16:19:44.000Z</time>
      </trkpt>
      <trkpt lat="47.54755" lon="16.07099">
        <ele>682.942298</ele>
        <time>2026-07-07T16:19:45.000Z</time>
      </trkpt>
      <trkpt lat="47.54755" lon="16.07096">
        <ele>683.121176</ele>
        <time>2026-07-07T16:19:46.000Z</time>
      </trkpt>
      <trkpt lat="47.54755" lon="16.07094">
        <ele>683.299122</ele>
        <time>2026-07-07T16:19:47.000Z</time>
      </trkpt>
      <trkpt lat="47.54754" lon="16.07091">
        <ele>683.4886</ele>
        <time>2026-07-07T16:19:48.000Z</time>
      </trkpt>
      <trkpt lat="47.54754" lon="16.07089">
        <ele>683.683027</ele>
        <time>2026-07-07T16:19:49.000Z</time>
      </trkpt>
      <trkpt lat="47.54754" lon="16.07086">
        <ele>683.877454</ele>
        <time>2026-07-07T16:19:50.000Z</time>
      </trkpt>
      <trkpt lat="47.54754" lon="16.07083">
        <ele>684.056331</ele>
        <time>2026-07-07T16:19:51.000Z</time>
      </trkpt>
      <trkpt lat="47.54753" lon="16.07081">
        <ele>684.236751</ele>
        <time>2026-07-07T16:19:52.000Z</time>
      </trkpt>
      <trkpt lat="47.54753" lon="16.07078">
        <ele>684.415629</ele>
        <time>2026-07-07T16:19:53.000Z</time>
      </trkpt>
      <trkpt lat="47.54753" lon="16.07076">
        <ele>684.594506</ele>
        <time>2026-07-07T16:19:54.000Z</time>
      </trkpt>
      <trkpt lat="47.54753" lon="16.07073">
        <ele>684.774926</ele>
        <time>2026-07-07T16:19:55.000Z</time>
      </trkpt>
      <trkpt lat="47.54752" lon="16.07071">
        <ele>684.953804</ele>
        <time>2026-07-07T16:19:56.000Z</time>
      </trkpt>
      <trkpt lat="47.54752" lon="16.07068">
        <ele>685.134224</ele>
        <time>2026-07-07T16:19:57.000Z</time>
      </trkpt>
      <trkpt lat="47.54752" lon="16.07066">
        <ele>685.319492</ele>
        <time>2026-07-07T16:19:58.000Z</time>
      </trkpt>
      <trkpt lat="47.54751" lon="16.07064">
        <ele>685.485939</ele>
        <time>2026-07-07T16:19:59.000Z</time>
      </trkpt>
      <trkpt lat="47.54751" lon="16.07061">
        <ele>685.668496</ele>
        <time>2026-07-07T16:20:00.000Z</time>
      </trkpt>
      <trkpt lat="47.54751" lon="16.07059">
        <ele>685.846131</ele>
        <time>2026-07-07T16:20:01.000Z</time>
      </trkpt>
      <trkpt lat="47.54751" lon="16.07056">
        <ele>686.038264</ele>
        <time>2026-07-07T16:20:02.000Z</time>
      </trkpt>
      <trkpt lat="47.54751" lon="16.07053">
        <ele>686.215899</ele>
        <time>2026-07-07T16:20:03.000Z</time>
      </trkpt>
      <trkpt lat="47.54751" lon="16.07051">
        <ele>686.401834</ele>
        <time>2026-07-07T16:20:04.000Z</time>
      </trkpt>
      <trkpt lat="47.5475" lon="16.07048">
        <ele>686.596262</ele>
        <time>2026-07-07T16:20:05.000Z</time>
      </trkpt>
      <trkpt lat="47.5475" lon="16.07046">
        <ele>686.765023</ele>
        <time>2026-07-07T16:20:06.000Z</time>
      </trkpt>
      <trkpt lat="47.5475" lon="16.07043">
        <ele>686.942969</ele>
        <time>2026-07-07T16:20:07.000Z</time>
      </trkpt>
      <trkpt lat="47.54749" lon="16.07041">
        <ele>687.11862</ele>
        <time>2026-07-07T16:20:08.000Z</time>
      </trkpt>
      <trkpt lat="47.54749" lon="16.07039">
        <ele>687.285067</ele>
        <time>2026-07-07T16:20:09.000Z</time>
      </trkpt>
      <trkpt lat="47.54749" lon="16.07036">
        <ele>687.444543</ele>
        <time>2026-07-07T16:20:10.000Z</time>
      </trkpt>
      <trkpt lat="47.54748" lon="16.07034">
        <ele>687.602768</ele>
        <time>2026-07-07T16:20:11.000Z</time>
      </trkpt>
      <trkpt lat="47.54748" lon="16.07032">
        <ele>687.778418</ele>
        <time>2026-07-07T16:20:12.000Z</time>
      </trkpt>
      <trkpt lat="47.54748" lon="16.0703">
        <ele>687.944866</ele>
        <time>2026-07-07T16:20:13.000Z</time>
      </trkpt>
      <trkpt lat="47.54747" lon="16.07027">
        <ele>688.109807</ele>
        <time>2026-07-07T16:20:14.000Z</time>
      </trkpt>
      <trkpt lat="47.54747" lon="16.07025">
        <ele>688.276255</ele>
        <time>2026-07-07T16:20:15.000Z</time>
      </trkpt>
      <trkpt lat="47.54747" lon="16.07023">
        <ele>688.441029</ele>
        <time>2026-07-07T16:20:16.000Z</time>
      </trkpt>
      <trkpt lat="47.54747" lon="16.07021">
        <ele>688.597348</ele>
        <time>2026-07-07T16:20:17.000Z</time>
      </trkpt>
      <trkpt lat="47.54746" lon="16.07018">
        <ele>688.756824</ele>
        <time>2026-07-07T16:20:18.000Z</time>
      </trkpt>
      <trkpt lat="47.54746" lon="16.07016">
        <ele>688.908366</ele>
        <time>2026-07-07T16:20:19.000Z</time>
      </trkpt>
      <trkpt lat="47.54745" lon="16.07014">
        <ele>689.068443</ele>
        <time>2026-07-07T16:20:20.000Z</time>
      </trkpt>
      <trkpt lat="47.54744" lon="16.07012">
        <ele>689.228519</ele>
        <time>2026-07-07T16:20:21.000Z</time>
      </trkpt>
      <trkpt lat="47.54744" lon="16.0701">
        <ele>689.386743</ele>
        <time>2026-07-07T16:20:22.000Z</time>
      </trkpt>
      <trkpt lat="47.54744" lon="16.07008">
        <ele>689.544473</ele>
        <time>2026-07-07T16:20:23.000Z</time>
      </trkpt>
      <trkpt lat="47.54745" lon="16.07006">
        <ele>689.696015</ele>
        <time>2026-07-07T16:20:24.000Z</time>
      </trkpt>
      <trkpt lat="47.54745" lon="16.07004">
        <ele>689.853745</ele>
        <time>2026-07-07T16:20:25.000Z</time>
      </trkpt>
      <trkpt lat="47.54744" lon="16.07001">
        <ele>690.036302</ele>
        <time>2026-07-07T16:20:26.000Z</time>
      </trkpt>
      <trkpt lat="47.54744" lon="16.06999">
        <ele>690.194526</ele>
        <time>2026-07-07T16:20:27.000Z</time>
      </trkpt>
      <trkpt lat="47.54743" lon="16.06997">
        <ele>690.372994</ele>
        <time>2026-07-07T16:20:28.000Z</time>
      </trkpt>
      <trkpt lat="47.54743" lon="16.06995">
        <ele>690.539441</ele>
        <time>2026-07-07T16:20:29.000Z</time>
      </trkpt>
      <trkpt lat="47.54743" lon="16.06992">
        <ele>690.705888</ele>
        <time>2026-07-07T16:20:30.000Z</time>
      </trkpt>
      <trkpt lat="47.54742" lon="16.0699">
        <ele>690.867779</ele>
        <time>2026-07-07T16:20:31.000Z</time>
      </trkpt>
      <trkpt lat="47.54742" lon="16.06988">
        <ele>691.032721</ele>
        <time>2026-07-07T16:20:32.000Z</time>
      </trkpt>
      <trkpt lat="47.54741" lon="16.06986">
        <ele>691.184263</ele>
        <time>2026-07-07T16:20:33.000Z</time>
      </trkpt>
      <trkpt lat="47.54741" lon="16.06984">
        <ele>691.342487</ele>
        <time>2026-07-07T16:20:34.000Z</time>
      </trkpt>
      <trkpt lat="47.5474" lon="16.06982">
        <ele>691.511084</ele>
        <time>2026-07-07T16:20:35.000Z</time>
      </trkpt>
      <trkpt lat="47.5474" lon="16.06979">
        <ele>691.6839</ele>
        <time>2026-07-07T16:20:36.000Z</time>
      </trkpt>
      <trkpt lat="47.54739" lon="16.06977">
        <ele>691.842124</ele>
        <time>2026-07-07T16:20:37.000Z</time>
      </trkpt>
      <trkpt lat="47.54739" lon="16.06975">
        <ele>692.020592</ele>
        <time>2026-07-07T16:20:38.000Z</time>
      </trkpt>
      <trkpt lat="47.54738" lon="16.06973">
        <ele>692.17311</ele>
        <time>2026-07-07T16:20:39.000Z</time>
      </trkpt>
      <trkpt lat="47.54738" lon="16.06971">
        <ele>692.330841</ele>
        <time>2026-07-07T16:20:40.000Z</time>
      </trkpt>
      <trkpt lat="47.54738" lon="16.06969">
        <ele>692.476415</ele>
        <time>2026-07-07T16:20:41.000Z</time>
      </trkpt>
      <trkpt lat="47.54737" lon="16.06967">
        <ele>692.627957</ele>
        <time>2026-07-07T16:20:42.000Z</time>
      </trkpt>
      <trkpt lat="47.54737" lon="16.06965">
        <ele>692.775564</ele>
        <time>2026-07-07T16:20:43.000Z</time>
      </trkpt>
      <trkpt lat="47.54736" lon="16.06963">
        <ele>692.9114</ele>
        <time>2026-07-07T16:20:44.000Z</time>
      </trkpt>
      <trkpt lat="47.54735" lon="16.06962">
        <ele>693.071625</ele>
        <time>2026-07-07T16:20:45.000Z</time>
      </trkpt>
      <trkpt lat="47.54734" lon="16.0696">
        <ele>693.219231</ele>
        <time>2026-07-07T16:20:46.000Z</time>
      </trkpt>
      <trkpt lat="47.54734" lon="16.06958">
        <ele>693.370774</ele>
        <time>2026-07-07T16:20:47.000Z</time>
      </trkpt>
      <trkpt lat="47.54733" lon="16.06956">
        <ele>693.530251</ele>
        <time>2026-07-07T16:20:48.000Z</time>
      </trkpt>
      <trkpt lat="47.54733" lon="16.06953">
        <ele>693.693675</ele>
        <time>2026-07-07T16:20:49.000Z</time>
      </trkpt>
      <trkpt lat="47.54733" lon="16.06951">
        <ele>693.851405</ele>
        <time>2026-07-07T16:20:50.000Z</time>
      </trkpt>
      <trkpt lat="47.54733" lon="16.06949">
        <ele>693.995064</ele>
        <time>2026-07-07T16:20:51.000Z</time>
      </trkpt>
      <trkpt lat="47.54733" lon="16.06947">
        <ele>694.140639</ele>
        <time>2026-07-07T16:20:52.000Z</time>
      </trkpt>
      <trkpt lat="47.54732" lon="16.06945">
        <ele>694.305826</ele>
        <time>2026-07-07T16:20:53.000Z</time>
      </trkpt>
      <trkpt lat="47.54731" lon="16.06943">
        <ele>694.466051</ele>
        <time>2026-07-07T16:20:54.000Z</time>
      </trkpt>
      <trkpt lat="47.5473" lon="16.06942">
        <ele>694.59837</ele>
        <time>2026-07-07T16:20:55.000Z</time>
      </trkpt>
      <trkpt lat="47.54729" lon="16.06941">
        <ele>694.748173</ele>
        <time>2026-07-07T16:20:56.000Z</time>
      </trkpt>
      <trkpt lat="47.54728" lon="16.06939">
        <ele>694.908398</ele>
        <time>2026-07-07T16:20:57.000Z</time>
      </trkpt>
      <trkpt lat="47.54727" lon="16.06937">
        <ele>695.044235</ele>
        <time>2026-07-07T16:20:58.000Z</time>
      </trkpt>
      <trkpt lat="47.54727" lon="16.06936">
        <ele>695.169514</ele>
        <time>2026-07-07T16:20:59.000Z</time>
      </trkpt>
      <trkpt lat="47.54726" lon="16.06934">
        <ele>695.323318</ele>
        <time>2026-07-07T16:21:00.000Z</time>
      </trkpt>
      <trkpt lat="47.54725" lon="16.06932">
        <ele>695.461623</ele>
        <time>2026-07-07T16:21:01.000Z</time>
      </trkpt>
      <trkpt lat="47.54725" lon="16.0693">
        <ele>695.599927</ele>
        <time>2026-07-07T16:21:02.000Z</time>
      </trkpt>
      <trkpt lat="47.54725" lon="16.06928">
        <ele>695.7566</ele>
        <time>2026-07-07T16:21:03.000Z</time>
      </trkpt>
      <trkpt lat="47.54724" lon="16.06926">
        <ele>695.891251</ele>
        <time>2026-07-07T16:21:04.000Z</time>
      </trkpt>
      <trkpt lat="47.54724" lon="16.06924">
        <ele>696.036826</ele>
        <time>2026-07-07T16:21:05.000Z</time>
      </trkpt>
      <trkpt lat="47.54724" lon="16.06922">
        <ele>696.182401</ele>
        <time>2026-07-07T16:21:06.000Z</time>
      </trkpt>
      <trkpt lat="47.54723" lon="16.0692">
        <ele>696.342478</ele>
        <time>2026-07-07T16:21:07.000Z</time>
      </trkpt>
      <trkpt lat="47.54722" lon="16.06919">
        <ele>696.489729</ele>
        <time>2026-07-07T16:21:08.000Z</time>
      </trkpt>
      <trkpt lat="47.54721" lon="16.06917">
        <ele>696.639532</ele>
        <time>2026-07-07T16:21:09.000Z</time>
      </trkpt>
      <trkpt lat="47.5472" lon="16.06916">
        <ele>696.789335</ele>
        <time>2026-07-07T16:21:10.000Z</time>
      </trkpt>
      <trkpt lat="47.54719" lon="16.06914">
        <ele>696.94956</ele>
        <time>2026-07-07T16:21:11.000Z</time>
      </trkpt>
      <trkpt lat="47.54718" lon="16.06912">
        <ele>697.092163</ele>
        <time>2026-07-07T16:21:12.000Z</time>
      </trkpt>
      <trkpt lat="47.54718" lon="16.06911">
        <ele>697.234806</ele>
        <time>2026-07-07T16:21:13.000Z</time>
      </trkpt>
      <trkpt lat="47.54717" lon="16.06909">
        <ele>697.382413</ele>
        <time>2026-07-07T16:21:14.000Z</time>
      </trkpt>
      <trkpt lat="47.54717" lon="16.06907">
        <ele>697.533955</ele>
        <time>2026-07-07T16:21:15.000Z</time>
      </trkpt>
      <trkpt lat="47.54716" lon="16.06905">
        <ele>697.672603</ele>
        <time>2026-07-07T16:21:16.000Z</time>
      </trkpt>
      <trkpt lat="47.54716" lon="16.06903">
        <ele>697.824146</ele>
        <time>2026-07-07T16:21:17.000Z</time>
      </trkpt>
      <trkpt lat="47.54715" lon="16.06901">
        <ele>697.972361</ele>
        <time>2026-07-07T16:21:18.000Z</time>
      </trkpt>
      <trkpt lat="47.54715" lon="16.06899">
        <ele>698.117936</ele>
        <time>2026-07-07T16:21:19.000Z</time>
      </trkpt>
      <trkpt lat="47.54715" lon="16.06897">
        <ele>698.269479</ele>
        <time>2026-07-07T16:21:20.000Z</time>
      </trkpt>
      <trkpt lat="47.54714" lon="16.06895">
        <ele>698.421022</ele>
        <time>2026-07-07T16:21:21.000Z</time>
      </trkpt>
      <trkpt lat="47.54714" lon="16.06893">
        <ele>698.572564</ele>
        <time>2026-07-07T16:21:22.000Z</time>
      </trkpt>
      <trkpt lat="47.54713" lon="16.06891">
        <ele>698.710869</ele>
        <time>2026-07-07T16:21:23.000Z</time>
      </trkpt>
      <trkpt lat="47.54713" lon="16.06889">
        <ele>698.842608</ele>
        <time>2026-07-07T16:21:24.000Z</time>
      </trkpt>
      <trkpt lat="47.54712" lon="16.06887">
        <ele>698.996412</ele>
        <time>2026-07-07T16:21:25.000Z</time>
      </trkpt>
      <trkpt lat="47.54711" lon="16.06886">
        <ele>699.132249</ele>
        <time>2026-07-07T16:21:26.000Z</time>
      </trkpt>
      <trkpt lat="47.5471" lon="16.06884">
        <ele>699.280238</ele>
        <time>2026-07-07T16:21:27.000Z</time>
      </trkpt>
      <trkpt lat="47.5471" lon="16.06883">
        <ele>699.427489</ele>
        <time>2026-07-07T16:21:28.000Z</time>
      </trkpt>
      <trkpt lat="47.54709" lon="16.06881">
        <ele>699.557064</ele>
        <time>2026-07-07T16:21:29.000Z</time>
      </trkpt>
      <trkpt lat="47.54708" lon="16.0688">
        <ele>699.706867</ele>
        <time>2026-07-07T16:21:30.000Z</time>
      </trkpt>
      <trkpt lat="47.54707" lon="16.06878">
        <ele>699.879396</ele>
        <time>2026-07-07T16:21:31.000Z</time>
      </trkpt>
      <trkpt lat="47.54706" lon="16.06876">
        <ele>700.0332</ele>
        <time>2026-07-07T16:21:32.000Z</time>
      </trkpt>
      <trkpt lat="47.54706" lon="16.06874">
        <ele>700.181185</ele>
        <time>2026-07-07T16:21:33.000Z</time>
      </trkpt>
      <trkpt lat="47.54705" lon="16.06872">
        <ele>700.328973</ele>
        <time>2026-07-07T16:21:34.000Z</time>
      </trkpt>
      <trkpt lat="47.54704" lon="16.0687">
        <ele>700.508522</ele>
        <time>2026-07-07T16:21:35.000Z</time>
      </trkpt>
      <trkpt lat="47.54704" lon="16.06869">
        <ele>700.656285</ele>
        <time>2026-07-07T16:21:36.000Z</time>
      </trkpt>
      <trkpt lat="47.54704" lon="16.06867">
        <ele>700.817419</ele>
        <time>2026-07-07T16:21:37.000Z</time>
      </trkpt>
      <trkpt lat="47.54704" lon="16.06864">
        <ele>700.996295</ele>
        <time>2026-07-07T16:21:38.000Z</time>
      </trkpt>
      <trkpt lat="47.54703" lon="16.06862">
        <ele>701.159577</ele>
        <time>2026-07-07T16:21:39.000Z</time>
      </trkpt>
      <trkpt lat="47.54703" lon="16.06861">
        <ele>701.300096</ele>
        <time>2026-07-07T16:21:40.000Z</time>
      </trkpt>
      <trkpt lat="47.54702" lon="16.06859">
        <ele>701.472608</ele>
        <time>2026-07-07T16:21:41.000Z</time>
      </trkpt>
      <trkpt lat="47.54701" lon="16.06857">
        <ele>701.631298</ele>
        <time>2026-07-07T16:21:42.000Z</time>
      </trkpt>
      <trkpt lat="47.54701" lon="16.06856">
        <ele>701.790003</ele>
        <time>2026-07-07T16:21:43.000Z</time>
      </trkpt>
      <trkpt lat="47.547" lon="16.06854">
        <ele>701.948708</ele>
        <time>2026-07-07T16:21:44.000Z</time>
      </trkpt>
      <trkpt lat="47.54699" lon="16.06852">
        <ele>702.087668</ele>
        <time>2026-07-07T16:21:45.000Z</time>
      </trkpt>
      <trkpt lat="47.54698" lon="16.06851">
        <ele>702.236082</ele>
        <time>2026-07-07T16:21:46.000Z</time>
      </trkpt>
      <trkpt lat="47.54697" lon="16.0685">
        <ele>702.393166</ele>
        <time>2026-07-07T16:21:47.000Z</time>
      </trkpt>
      <trkpt lat="47.54697" lon="16.06848">
        <ele>702.539356</ele>
        <time>2026-07-07T16:21:48.000Z</time>
      </trkpt>
      <trkpt lat="47.54696" lon="16.06847">
        <ele>702.698046</ele>
        <time>2026-07-07T16:21:49.000Z</time>
      </trkpt>
      <trkpt lat="47.54695" lon="16.06845">
        <ele>702.870558</ele>
        <time>2026-07-07T16:21:50.000Z</time>
      </trkpt>
      <trkpt lat="47.54695" lon="16.06843">
        <ele>703.011077</ele>
        <time>2026-07-07T16:21:51.000Z</time>
      </trkpt>
      <trkpt lat="47.54694" lon="16.06841">
        <ele>703.183589</ele>
        <time>2026-07-07T16:21:52.000Z</time>
      </trkpt>
      <trkpt lat="47.54693" lon="16.0684">
        <ele>703.329462</ele>
        <time>2026-07-07T16:21:53.000Z</time>
      </trkpt>
      <trkpt lat="47.54693" lon="16.06838">
        <ele>703.491989</ele>
        <time>2026-07-07T16:21:54.000Z</time>
      </trkpt>
      <trkpt lat="47.54692" lon="16.06836">
        <ele>703.658233</ele>
        <time>2026-07-07T16:21:55.000Z</time>
      </trkpt>
      <trkpt lat="47.54692" lon="16.06834">
        <ele>703.804106</ele>
        <time>2026-07-07T16:21:56.000Z</time>
      </trkpt>
      <trkpt lat="47.54691" lon="16.06833">
        <ele>703.951895</ele>
        <time>2026-07-07T16:21:57.000Z</time>
      </trkpt>
      <trkpt lat="47.54691" lon="16.06831">
        <ele>704.1106</ele>
        <time>2026-07-07T16:21:58.000Z</time>
      </trkpt>
      <trkpt lat="47.5469" lon="16.06829">
        <ele>704.276161</ele>
        <time>2026-07-07T16:21:59.000Z</time>
      </trkpt>
      <trkpt lat="47.54689" lon="16.06827">
        <ele>704.431289</ele>
        <time>2026-07-07T16:22:00.000Z</time>
      </trkpt>
      <trkpt lat="47.54689" lon="16.06825">
        <ele>704.583174</ele>
        <time>2026-07-07T16:22:01.000Z</time>
      </trkpt>
      <trkpt lat="47.54689" lon="16.06823">
        <ele>704.743005</ele>
        <time>2026-07-07T16:22:02.000Z</time>
      </trkpt>
      <trkpt lat="47.54689" lon="16.06822">
        <ele>704.890769</ele>
        <time>2026-07-07T16:22:03.000Z</time>
      </trkpt>
      <trkpt lat="47.54688" lon="16.0682">
        <ele>705.049474</ele>
        <time>2026-07-07T16:22:04.000Z</time>
      </trkpt>
      <trkpt lat="47.54688" lon="16.06818">
        <ele>705.208164</ele>
        <time>2026-07-07T16:22:05.000Z</time>
      </trkpt>
      <trkpt lat="47.54687" lon="16.06817">
        <ele>705.36687</ele>
        <time>2026-07-07T16:22:06.000Z</time>
      </trkpt>
      <trkpt lat="47.54686" lon="16.06815">
        <ele>705.534894</ele>
        <time>2026-07-07T16:22:07.000Z</time>
      </trkpt>
      <trkpt lat="47.54685" lon="16.06814">
        <ele>705.701036</ele>
        <time>2026-07-07T16:22:08.000Z</time>
      </trkpt>
      <trkpt lat="47.54684" lon="16.06813">
        <ele>705.852982</ele>
        <time>2026-07-07T16:22:09.000Z</time>
      </trkpt>
      <trkpt lat="47.54683" lon="16.06811">
        <ele>706.031508</ele>
        <time>2026-07-07T16:22:10.000Z</time>
      </trkpt>
      <trkpt lat="47.54683" lon="16.06808">
        <ele>706.223146</ele>
        <time>2026-07-07T16:22:11.000Z</time>
      </trkpt>
      <trkpt lat="47.54683" lon="16.06806">
        <ele>706.422389</ele>
        <time>2026-07-07T16:22:12.000Z</time>
      </trkpt>
      <trkpt lat="47.54683" lon="16.06804">
        <ele>706.591412</ele>
        <time>2026-07-07T16:22:13.000Z</time>
      </trkpt>
      <trkpt lat="47.54682" lon="16.06802">
        <ele>706.752546</ele>
        <time>2026-07-07T16:22:14.000Z</time>
      </trkpt>
      <trkpt lat="47.54682" lon="16.068">
        <ele>706.915073</ele>
        <time>2026-07-07T16:22:15.000Z</time>
      </trkpt>
      <trkpt lat="47.54681" lon="16.06798">
        <ele>707.073763</ele>
        <time>2026-07-07T16:22:16.000Z</time>
      </trkpt>
      <trkpt lat="47.5468" lon="16.06796">
        <ele>707.252234</ele>
        <time>2026-07-07T16:22:17.000Z</time>
      </trkpt>
      <trkpt lat="47.5468" lon="16.06795">
        <ele>707.404192</ele>
        <time>2026-07-07T16:22:18.000Z</time>
      </trkpt>
      <trkpt lat="47.54679" lon="16.06793">
        <ele>707.576705</ele>
        <time>2026-07-07T16:22:19.000Z</time>
      </trkpt>
      <trkpt lat="47.54678" lon="16.06791">
        <ele>707.7367</ele>
        <time>2026-07-07T16:22:20.000Z</time>
      </trkpt>
      <trkpt lat="47.54678" lon="16.06789">
        <ele>707.895405</ele>
        <time>2026-07-07T16:22:21.000Z</time>
      </trkpt>
      <trkpt lat="47.54677" lon="16.06788">
        <ele>708.054096</ele>
        <time>2026-07-07T16:22:22.000Z</time>
      </trkpt>
      <trkpt lat="47.54676" lon="16.06786">
        <ele>708.233645</ele>
        <time>2026-07-07T16:22:23.000Z</time>
      </trkpt>
      <trkpt lat="47.54675" lon="16.06784">
        <ele>708.413194</ele>
        <time>2026-07-07T16:22:24.000Z</time>
      </trkpt>
      <trkpt lat="47.54675" lon="16.06782">
        <ele>708.580372</ele>
        <time>2026-07-07T16:22:25.000Z</time>
      </trkpt>
      <trkpt lat="47.54674" lon="16.0678">
        <ele>708.7355</ele>
        <time>2026-07-07T16:22:26.000Z</time>
      </trkpt>
      <trkpt lat="47.54674" lon="16.06778">
        <ele>708.901061</ele>
        <time>2026-07-07T16:22:27.000Z</time>
      </trkpt>
      <trkpt lat="47.54673" lon="16.06776">
        <ele>709.071038</ele>
        <time>2026-07-07T16:22:28.000Z</time>
      </trkpt>
      <trkpt lat="47.54673" lon="16.06774">
        <ele>709.241015</ele>
        <time>2026-07-07T16:22:29.000Z</time>
      </trkpt>
      <trkpt lat="47.54672" lon="16.06772">
        <ele>709.410991</ele>
        <time>2026-07-07T16:22:30.000Z</time>
      </trkpt>
      <trkpt lat="47.54672" lon="16.0677">
        <ele>709.574275</ele>
        <time>2026-07-07T16:22:31.000Z</time>
      </trkpt>
      <trkpt lat="47.54671" lon="16.06768">
        <ele>709.744251</ele>
        <time>2026-07-07T16:22:32.000Z</time>
      </trkpt>
      <trkpt lat="47.54671" lon="16.06766">
        <ele>709.910496</ele>
        <time>2026-07-07T16:22:33.000Z</time>
      </trkpt>
      <trkpt lat="47.54671" lon="16.06764">
        <ele>710.07378</ele>
        <time>2026-07-07T16:22:34.000Z</time>
      </trkpt>
      <trkpt lat="47.5467" lon="16.06762">
        <ele>710.234915</ele>
        <time>2026-07-07T16:22:35.000Z</time>
      </trkpt>
      <trkpt lat="47.5467" lon="16.0676">
        <ele>710.394747</ele>
        <time>2026-07-07T16:22:36.000Z</time>
      </trkpt>
      <trkpt lat="47.5467" lon="16.06759">
        <ele>710.542536</ele>
        <time>2026-07-07T16:22:37.000Z</time>
      </trkpt>
      <trkpt lat="47.54669" lon="16.06757">
        <ele>710.721063</ele>
        <time>2026-07-07T16:22:38.000Z</time>
      </trkpt>
      <trkpt lat="47.54668" lon="16.06755">
        <ele>710.883589</ele>
        <time>2026-07-07T16:22:39.000Z</time>
      </trkpt>
      <trkpt lat="47.54668" lon="16.06753">
        <ele>711.024109</ele>
        <time>2026-07-07T16:22:40.000Z</time>
      </trkpt>
      <trkpt lat="47.54667" lon="16.06751">
        <ele>711.194085</ele>
        <time>2026-07-07T16:22:41.000Z</time>
      </trkpt>
      <trkpt lat="47.54667" lon="16.06749">
        <ele>711.361263</ele>
        <time>2026-07-07T16:22:42.000Z</time>
      </trkpt>
      <trkpt lat="47.54666" lon="16.06748">
        <ele>711.526825</ele>
        <time>2026-07-07T16:22:43.000Z</time>
      </trkpt>
      <trkpt lat="47.54666" lon="16.06746">
        <ele>711.674589</ele>
        <time>2026-07-07T16:22:44.000Z</time>
      </trkpt>
      <trkpt lat="47.54665" lon="16.06744">
        <ele>711.837116</ele>
        <time>2026-07-07T16:22:45.000Z</time>
      </trkpt>
      <trkpt lat="47.54665" lon="16.06742">
        <ele>711.988146</ele>
        <time>2026-07-07T16:22:46.000Z</time>
      </trkpt>
      <trkpt lat="47.54664" lon="16.0674">
        <ele>712.143275</ele>
        <time>2026-07-07T16:22:47.000Z</time>
      </trkpt>
      <trkpt lat="47.54664" lon="16.06738">
        <ele>712.298788</ele>
        <time>2026-07-07T16:22:48.000Z</time>
      </trkpt>
      <trkpt lat="47.54663" lon="16.06737">
        <ele>712.450747</ele>
        <time>2026-07-07T16:22:49.000Z</time>
      </trkpt>
      <trkpt lat="47.54662" lon="16.06735">
        <ele>712.613198</ele>
        <time>2026-07-07T16:22:50.000Z</time>
      </trkpt>
      <trkpt lat="47.54662" lon="16.06734">
        <ele>712.771889</ele>
        <time>2026-07-07T16:22:51.000Z</time>
      </trkpt>
      <trkpt lat="47.54661" lon="16.06732">
        <ele>712.927402</ele>
        <time>2026-07-07T16:22:52.000Z</time>
      </trkpt>
      <trkpt lat="47.54661" lon="16.0673">
        <ele>713.070858</ele>
        <time>2026-07-07T16:22:53.000Z</time>
      </trkpt>
      <trkpt lat="47.54661" lon="16.06728">
        <ele>713.230254</ele>
        <time>2026-07-07T16:22:54.000Z</time>
      </trkpt>
      <trkpt lat="47.54662" lon="16.06726">
        <ele>713.393537</ele>
        <time>2026-07-07T16:22:55.000Z</time>
      </trkpt>
      <trkpt lat="47.54661" lon="16.06724">
        <ele>713.570455</ele>
        <time>2026-07-07T16:22:56.000Z</time>
      </trkpt>
      <trkpt lat="47.54661" lon="16.06722">
        <ele>713.733739</ele>
        <time>2026-07-07T16:22:57.000Z</time>
      </trkpt>
      <trkpt lat="47.54661" lon="16.0672">
        <ele>713.897023</ele>
        <time>2026-07-07T16:22:58.000Z</time>
      </trkpt>
      <trkpt lat="47.5466" lon="16.06718">
        <ele>714.062585</ele>
        <time>2026-07-07T16:22:59.000Z</time>
      </trkpt>
      <trkpt lat="47.54659" lon="16.06716">
        <ele>714.227748</ele>
        <time>2026-07-07T16:23:00.000Z</time>
      </trkpt>
      <trkpt lat="47.54658" lon="16.06714">
        <ele>714.419318</ele>
        <time>2026-07-07T16:23:01.000Z</time>
      </trkpt>
      <trkpt lat="47.54658" lon="16.06713">
        <ele>714.513871</ele>
        <time>2026-07-07T16:23:02.000Z</time>
      </trkpt>
      <trkpt lat="47.54658" lon="16.06713">
        <ele>714.542362</ele>
        <time>2026-07-07T16:23:03.000Z</time>
      </trkpt>
      <trkpt lat="47.54656" lon="16.06707">
        <ele>715.066912</ele>
        <time>2026-07-07T16:27:37.000Z</time>
      </trkpt>
      <trkpt lat="47.54656" lon="16.06706">
        <ele>715.202398</ele>
        <time>2026-07-07T16:27:38.000Z</time>
      </trkpt>
      <trkpt lat="47.54656" lon="16.06704">
        <ele>715.338398</ele>
        <time>2026-07-07T16:27:39.000Z</time>
      </trkpt>
      <trkpt lat="47.54656" lon="16.06702">
        <ele>715.46646</ele>
        <time>2026-07-07T16:27:40.000Z</time>
      </trkpt>
      <trkpt lat="47.54655" lon="16.06701">
        <ele>715.614249</ele>
        <time>2026-07-07T16:27:41.000Z</time>
      </trkpt>
      <trkpt lat="47.54655" lon="16.06699">
        <ele>715.757731</ele>
        <time>2026-07-07T16:27:42.000Z</time>
      </trkpt>
      <trkpt lat="47.54655" lon="16.06697">
        <ele>715.885793</ele>
        <time>2026-07-07T16:27:43.000Z</time>
      </trkpt>
      <trkpt lat="47.54655" lon="16.06695">
        <ele>716.037219</ele>
        <time>2026-07-07T16:27:44.000Z</time>
      </trkpt>
      <trkpt lat="47.54655" lon="16.06694">
        <ele>716.169564</ele>
        <time>2026-07-07T16:27:45.000Z</time>
      </trkpt>
      <trkpt lat="47.54655" lon="16.06692">
        <ele>716.32282</ele>
        <time>2026-07-07T16:27:46.000Z</time>
      </trkpt>
      <trkpt lat="47.54655" lon="16.0669">
        <ele>716.473851</ele>
        <time>2026-07-07T16:27:47.000Z</time>
      </trkpt>
      <trkpt lat="47.54655" lon="16.06688">
        <ele>716.617792</ele>
        <time>2026-07-07T16:27:48.000Z</time>
      </trkpt>
      <trkpt lat="47.54655" lon="16.06687">
        <ele>716.753791</ele>
        <time>2026-07-07T16:27:49.000Z</time>
      </trkpt>
      <trkpt lat="47.54655" lon="16.06684">
        <ele>716.937096</ele>
        <time>2026-07-07T16:27:51.000Z</time>
      </trkpt>
      <trkpt lat="47.54653" lon="16.0668">
        <ele>717.321458</ele>
        <time>2026-07-07T16:28:02.000Z</time>
      </trkpt>
      <trkpt lat="47.54653" lon="16.06678">
        <ele>717.48702</ele>
        <time>2026-07-07T16:28:03.000Z</time>
      </trkpt>
      <trkpt lat="47.54652" lon="16.06676">
        <ele>717.649547</ele>
        <time>2026-07-07T16:28:04.000Z</time>
      </trkpt>
      <trkpt lat="47.54652" lon="16.06675">
        <ele>717.794934</ele>
        <time>2026-07-07T16:28:05.000Z</time>
      </trkpt>
      <trkpt lat="47.54652" lon="16.06673">
        <ele>717.93042</ele>
        <time>2026-07-07T16:28:06.000Z</time>
      </trkpt>
      <trkpt lat="47.54652" lon="16.06671">
        <ele>718.085549</ele>
        <time>2026-07-07T16:28:07.000Z</time>
      </trkpt>
      <trkpt lat="47.54653" lon="16.06669">
        <ele>718.23658</ele>
        <time>2026-07-07T16:28:08.000Z</time>
      </trkpt>
      <trkpt lat="47.54653" lon="16.06667">
        <ele>718.397715</ele>
        <time>2026-07-07T16:28:09.000Z</time>
      </trkpt>
      <trkpt lat="47.54652" lon="16.06665">
        <ele>718.550971</ele>
        <time>2026-07-07T16:28:10.000Z</time>
      </trkpt>
      <trkpt lat="47.54652" lon="16.06664">
        <ele>718.694912</ele>
        <time>2026-07-07T16:28:11.000Z</time>
      </trkpt>
      <trkpt lat="47.54652" lon="16.06662">
        <ele>718.854308</ele>
        <time>2026-07-07T16:28:12.000Z</time>
      </trkpt>
      <trkpt lat="47.54653" lon="16.0666">
        <ele>719.002073</ele>
        <time>2026-07-07T16:28:13.000Z</time>
      </trkpt>
      <trkpt lat="47.54653" lon="16.06658">
        <ele>719.161468</ele>
        <time>2026-07-07T16:28:14.000Z</time>
      </trkpt>
      <trkpt lat="47.54653" lon="16.06656">
        <ele>719.312894</ele>
        <time>2026-07-07T16:28:15.000Z</time>
      </trkpt>
      <trkpt lat="47.54653" lon="16.06654">
        <ele>719.47229</ele>
        <time>2026-07-07T16:28:16.000Z</time>
      </trkpt>
      <trkpt lat="47.54653" lon="16.06652">
        <ele>719.615746</ele>
        <time>2026-07-07T16:28:17.000Z</time>
      </trkpt>
      <trkpt lat="47.54653" lon="16.0665">
        <ele>719.751232</ele>
        <time>2026-07-07T16:28:18.000Z</time>
      </trkpt>
      <trkpt lat="47.54652" lon="16.06649">
        <ele>719.896619</ele>
        <time>2026-07-07T16:28:19.000Z</time>
      </trkpt>
      <trkpt lat="47.54652" lon="16.06647">
        <ele>720.032619</ele>
        <time>2026-07-07T16:28:20.000Z</time>
      </trkpt>
      <trkpt lat="47.54652" lon="16.06645">
        <ele>720.161157</ele>
        <time>2026-07-07T16:28:21.000Z</time>
      </trkpt>
      <trkpt lat="47.54652" lon="16.06644">
        <ele>720.308921</ele>
        <time>2026-07-07T16:28:22.000Z</time>
      </trkpt>
      <trkpt lat="47.54651" lon="16.06642">
        <ele>720.454308</ele>
        <time>2026-07-07T16:28:23.000Z</time>
      </trkpt>
      <trkpt lat="47.54651" lon="16.0664">
        <ele>720.589794</ele>
        <time>2026-07-07T16:28:24.000Z</time>
      </trkpt>
      <trkpt lat="47.54651" lon="16.06638">
        <ele>720.733736</ele>
        <time>2026-07-07T16:28:25.000Z</time>
      </trkpt>
      <trkpt lat="47.54651" lon="16.06636">
        <ele>720.885162</ele>
        <time>2026-07-07T16:28:26.000Z</time>
      </trkpt>
      <trkpt lat="47.54651" lon="16.06635">
        <ele>721.013224</ele>
        <time>2026-07-07T16:28:27.000Z</time>
      </trkpt>
      <trkpt lat="47.54652" lon="16.06633">
        <ele>721.156706</ele>
        <time>2026-07-07T16:28:28.000Z</time>
      </trkpt>
      <trkpt lat="47.54652" lon="16.06631">
        <ele>721.292706</ele>
        <time>2026-07-07T16:28:29.000Z</time>
      </trkpt>
      <trkpt lat="47.54652" lon="16.0663">
        <ele>721.418704</ele>
        <time>2026-07-07T16:28:30.000Z</time>
      </trkpt>
      <trkpt lat="47.54653" lon="16.06628">
        <ele>721.540244</ele>
        <time>2026-07-07T16:28:31.000Z</time>
      </trkpt>
      <trkpt lat="47.54653" lon="16.06626">
        <ele>721.659807</ele>
        <time>2026-07-07T16:28:32.000Z</time>
      </trkpt>
      <trkpt lat="47.54653" lon="16.06624">
        <ele>721.778182</ele>
        <time>2026-07-07T16:28:33.000Z</time>
      </trkpt>
      <trkpt lat="47.54653" lon="16.06623">
        <ele>721.891283</ele>
        <time>2026-07-07T16:28:34.000Z</time>
      </trkpt>
      <trkpt lat="47.54653" lon="16.06621">
        <ele>722.004385</ele>
        <time>2026-07-07T16:28:35.000Z</time>
      </trkpt>
      <trkpt lat="47.54653" lon="16.06619">
        <ele>722.12236</ele>
        <time>2026-07-07T16:28:36.000Z</time>
      </trkpt>
      <trkpt lat="47.54653" lon="16.06617">
        <ele>722.240735</ele>
        <time>2026-07-07T16:28:37.000Z</time>
      </trkpt>
      <trkpt lat="47.54653" lon="16.06616">
        <ele>722.352157</ele>
        <time>2026-07-07T16:28:38.000Z</time>
      </trkpt>
      <trkpt lat="47.54653" lon="16.06614">
        <ele>722.470133</ele>
        <time>2026-07-07T16:28:39.000Z</time>
      </trkpt>
      <trkpt lat="47.54653" lon="16.06612">
        <ele>722.594663</ele>
        <time>2026-07-07T16:28:40.000Z</time>
      </trkpt>
      <trkpt lat="47.54653" lon="16.0661">
        <ele>722.713037</ele>
        <time>2026-07-07T16:28:41.000Z</time>
      </trkpt>
      <trkpt lat="47.54653" lon="16.06608">
        <ele>722.85723</ele>
        <time>2026-07-07T16:28:42.000Z</time>
      </trkpt>
      <trkpt lat="47.54653" lon="16.06606">
        <ele>722.989745</ele>
        <time>2026-07-07T16:28:43.000Z</time>
      </trkpt>
      <trkpt lat="47.54653" lon="16.06604">
        <ele>723.120829</ele>
        <time>2026-07-07T16:28:44.000Z</time>
      </trkpt>
      <trkpt lat="47.54653" lon="16.06602">
        <ele>723.259831</ele>
        <time>2026-07-07T16:28:45.000Z</time>
      </trkpt>
      <trkpt lat="47.54653" lon="16.066">
        <ele>723.405325</ele>
        <time>2026-07-07T16:28:46.000Z</time>
      </trkpt>
      <trkpt lat="47.54653" lon="16.06597">
        <ele>723.55082</ele>
        <time>2026-07-07T16:28:47.000Z</time>
      </trkpt>
      <trkpt lat="47.54653" lon="16.06595">
        <ele>723.681904</ele>
        <time>2026-07-07T16:28:48.000Z</time>
      </trkpt>
      <trkpt lat="47.54654" lon="16.06594">
        <ele>723.791552</ele>
        <time>2026-07-07T16:28:49.000Z</time>
      </trkpt>
      <trkpt lat="47.54654" lon="16.06593">
        <ele>723.889618</ele>
        <time>2026-07-07T16:28:50.000Z</time>
      </trkpt>
      <trkpt lat="47.54654" lon="16.06591">
        <ele>724.020702</ele>
        <time>2026-07-07T16:28:51.000Z</time>
      </trkpt>
      <trkpt lat="47.54654" lon="16.06589">
        <ele>724.140265</ele>
        <time>2026-07-07T16:28:52.000Z</time>
      </trkpt>
      <trkpt lat="47.54654" lon="16.06587">
        <ele>724.264795</ele>
        <time>2026-07-07T16:28:53.000Z</time>
      </trkpt>
      <trkpt lat="47.54654" lon="16.06585">
        <ele>724.402434</ele>
        <time>2026-07-07T16:28:54.000Z</time>
      </trkpt>
      <trkpt lat="47.54654" lon="16.06582">
        <ele>724.559735</ele>
        <time>2026-07-07T16:28:55.000Z</time>
      </trkpt>
      <trkpt lat="47.54654" lon="16.0658">
        <ele>724.710482</ele>
        <time>2026-07-07T16:28:56.000Z</time>
      </trkpt>
      <trkpt lat="47.54654" lon="16.06578">
        <ele>724.855976</ele>
        <time>2026-07-07T16:28:57.000Z</time>
      </trkpt>
      <trkpt lat="47.54654" lon="16.06576">
        <ele>725.007969</ele>
        <time>2026-07-07T16:28:58.000Z</time>
      </trkpt>
      <trkpt lat="47.54654" lon="16.06573">
        <ele>725.155074</ele>
        <time>2026-07-07T16:28:59.000Z</time>
      </trkpt>
      <trkpt lat="47.54655" lon="16.06571">
        <ele>725.298088</ele>
        <time>2026-07-07T16:29:00.000Z</time>
      </trkpt>
      <trkpt lat="47.54655" lon="16.06569">
        <ele>725.455389</ele>
        <time>2026-07-07T16:29:01.000Z</time>
      </trkpt>
      <trkpt lat="47.54655" lon="16.06567">
        <ele>725.607381</ele>
        <time>2026-07-07T16:29:02.000Z</time>
      </trkpt>
      <trkpt lat="47.54655" lon="16.06564">
        <ele>725.759374</ele>
        <time>2026-07-07T16:29:03.000Z</time>
      </trkpt>
      <trkpt lat="47.54655" lon="16.06562">
        <ele>725.903893</ele>
        <time>2026-07-07T16:29:04.000Z</time>
      </trkpt>
      <trkpt lat="47.54655" lon="16.0656">
        <ele>726.034977</ele>
        <time>2026-07-07T16:29:05.000Z</time>
      </trkpt>
      <trkpt lat="47.54655" lon="16.06558">
        <ele>726.154541</ele>
        <time>2026-07-07T16:29:06.000Z</time>
      </trkpt>
      <trkpt lat="47.54655" lon="16.06556">
        <ele>726.300035</ele>
        <time>2026-07-07T16:29:07.000Z</time>
      </trkpt>
      <trkpt lat="47.54655" lon="16.06554">
        <ele>726.444228</ele>
        <time>2026-07-07T16:29:08.000Z</time>
      </trkpt>
      <trkpt lat="47.54656" lon="16.06552">
        <ele>726.584915</ele>
        <time>2026-07-07T16:29:09.000Z</time>
      </trkpt>
      <trkpt lat="47.54656" lon="16.0655">
        <ele>726.715999</ele>
        <time>2026-07-07T16:29:10.000Z</time>
      </trkpt>
      <trkpt lat="47.54656" lon="16.06548">
        <ele>726.847083</ele>
        <time>2026-07-07T16:29:11.000Z</time>
      </trkpt>
      <trkpt lat="47.54656" lon="16.06546">
        <ele>726.992578</ele>
        <time>2026-07-07T16:29:12.000Z</time>
      </trkpt>
      <trkpt lat="47.54656" lon="16.06544">
        <ele>727.123662</ele>
        <time>2026-07-07T16:29:13.000Z</time>
      </trkpt>
      <trkpt lat="47.54656" lon="16.06541">
        <ele>727.268181</ele>
        <time>2026-07-07T16:29:14.000Z</time>
      </trkpt>
      <trkpt lat="47.54656" lon="16.06539">
        <ele>727.399265</ele>
        <time>2026-07-07T16:29:15.000Z</time>
      </trkpt>
      <trkpt lat="47.54656" lon="16.06537">
        <ele>727.538267</ele>
        <time>2026-07-07T16:29:16.000Z</time>
      </trkpt>
      <trkpt lat="47.54656" lon="16.06535">
        <ele>727.670782</ele>
        <time>2026-07-07T16:29:17.000Z</time>
      </trkpt>
      <trkpt lat="47.54656" lon="16.06533">
        <ele>727.814974</ele>
        <time>2026-07-07T16:29:18.000Z</time>
      </trkpt>
      <trkpt lat="47.54656" lon="16.06531">
        <ele>727.946417</ele>
        <time>2026-07-07T16:29:19.000Z</time>
      </trkpt>
      <trkpt lat="47.54656" lon="16.06529">
        <ele>728.077501</ele>
        <time>2026-07-07T16:29:20.000Z</time>
      </trkpt>
      <trkpt lat="47.54657" lon="16.06527">
        <ele>728.210016</ele>
        <time>2026-07-07T16:29:21.000Z</time>
      </trkpt>
      <trkpt lat="47.54657" lon="16.06525">
        <ele>728.3411</ele>
        <time>2026-07-07T16:29:22.000Z</time>
      </trkpt>
      <trkpt lat="47.54657" lon="16.06523">
        <ele>728.485293</ele>
        <time>2026-07-07T16:29:23.000Z</time>
      </trkpt>
      <trkpt lat="47.54656" lon="16.06521">
        <ele>728.617808</ele>
        <time>2026-07-07T16:29:24.000Z</time>
      </trkpt>
      <trkpt lat="47.54656" lon="16.06519">
        <ele>728.755446</ele>
        <time>2026-07-07T16:29:25.000Z</time>
      </trkpt>
      <trkpt lat="47.54656" lon="16.06517">
        <ele>728.88653</ele>
        <time>2026-07-07T16:29:26.000Z</time>
      </trkpt>
      <trkpt lat="47.54656" lon="16.06515">
        <ele>729.033636</ele>
        <time>2026-07-07T16:29:27.000Z</time>
      </trkpt>
      <trkpt lat="47.54656" lon="16.06513">
        <ele>729.167918</ele>
        <time>2026-07-07T16:29:28.000Z</time>
      </trkpt>
      <trkpt lat="47.54656" lon="16.0651">
        <ele>729.31991</ele>
        <time>2026-07-07T16:29:29.000Z</time>
      </trkpt>
      <trkpt lat="47.54655" lon="16.06508">
        <ele>729.465405</ele>
        <time>2026-07-07T16:29:30.000Z</time>
      </trkpt>
      <trkpt lat="47.54655" lon="16.06506">
        <ele>729.609924</ele>
        <time>2026-07-07T16:29:31.000Z</time>
      </trkpt>
      <trkpt lat="47.54655" lon="16.06504">
        <ele>729.741008</ele>
        <time>2026-07-07T16:29:32.000Z</time>
      </trkpt>
      <trkpt lat="47.54655" lon="16.06502">
        <ele>729.872451</ele>
        <time>2026-07-07T16:29:33.000Z</time>
      </trkpt>
      <trkpt lat="47.54656" lon="16.065">
        <ele>730.004966</ele>
        <time>2026-07-07T16:29:34.000Z</time>
      </trkpt>
      <trkpt lat="47.54656" lon="16.06498">
        <ele>730.12453</ele>
        <time>2026-07-07T16:29:35.000Z</time>
      </trkpt>
      <trkpt lat="47.54656" lon="16.06496">
        <ele>730.252105</ele>
        <time>2026-07-07T16:29:36.000Z</time>
      </trkpt>
      <trkpt lat="47.54657" lon="16.06494">
        <ele>730.389589</ele>
        <time>2026-07-07T16:29:37.000Z</time>
      </trkpt>
      <trkpt lat="47.54658" lon="16.06493">
        <ele>730.525744</ele>
        <time>2026-07-07T16:29:38.000Z</time>
      </trkpt>
      <trkpt lat="47.54658" lon="16.06491">
        <ele>730.660026</ele>
        <time>2026-07-07T16:29:39.000Z</time>
      </trkpt>
      <trkpt lat="47.54658" lon="16.06489">
        <ele>730.792541</ele>
        <time>2026-07-07T16:29:40.000Z</time>
      </trkpt>
      <trkpt lat="47.54658" lon="16.06487">
        <ele>730.923625</ele>
        <time>2026-07-07T16:29:41.000Z</time>
      </trkpt>
      <trkpt lat="47.54658" lon="16.06485">
        <ele>731.054709</ele>
        <time>2026-07-07T16:29:42.000Z</time>
      </trkpt>
      <trkpt lat="47.54658" lon="16.06482">
        <ele>731.198902</ele>
        <time>2026-07-07T16:29:43.000Z</time>
      </trkpt>
      <trkpt lat="47.54658" lon="16.0648">
        <ele>731.33654</ele>
        <time>2026-07-07T16:29:44.000Z</time>
      </trkpt>
      <trkpt lat="47.54658" lon="16.06478">
        <ele>731.469055</ele>
        <time>2026-07-07T16:29:45.000Z</time>
      </trkpt>
      <trkpt lat="47.54658" lon="16.06476">
        <ele>731.613247</ele>
        <time>2026-07-07T16:29:46.000Z</time>
      </trkpt>
      <trkpt lat="47.54658" lon="16.06474">
        <ele>731.758742</ele>
        <time>2026-07-07T16:29:47.000Z</time>
      </trkpt>
      <trkpt lat="47.54658" lon="16.06472">
        <ele>731.893023</ele>
        <time>2026-07-07T16:29:48.000Z</time>
      </trkpt>
      <trkpt lat="47.54657" lon="16.0647">
        <ele>732.036037</ele>
        <time>2026-07-07T16:29:49.000Z</time>
      </trkpt>
      <trkpt lat="47.54657" lon="16.06468">
        <ele>732.183143</ele>
        <time>2026-07-07T16:29:50.000Z</time>
      </trkpt>
      <trkpt lat="47.54657" lon="16.06465">
        <ele>732.328637</ele>
        <time>2026-07-07T16:29:51.000Z</time>
      </trkpt>
      <trkpt lat="47.54657" lon="16.06463">
        <ele>732.479384</ele>
        <time>2026-07-07T16:29:52.000Z</time>
      </trkpt>
      <trkpt lat="47.54657" lon="16.06461">
        <ele>732.628716</ele>
        <time>2026-07-07T16:29:53.000Z</time>
      </trkpt>
      <trkpt lat="47.54658" lon="16.06459">
        <ele>732.762998</ele>
        <time>2026-07-07T16:29:54.000Z</time>
      </trkpt>
      <trkpt lat="47.54658" lon="16.06457">
        <ele>732.897279</ele>
        <time>2026-07-07T16:29:55.000Z</time>
      </trkpt>
      <trkpt lat="47.54658" lon="16.06455">
        <ele>733.043229</ele>
        <time>2026-07-07T16:29:56.000Z</time>
      </trkpt>
      <trkpt lat="47.54659" lon="16.06452">
        <ele>733.207852</ele>
        <time>2026-07-07T16:29:57.000Z</time>
      </trkpt>
      <trkpt lat="47.54659" lon="16.0645">
        <ele>733.346854</ele>
        <time>2026-07-07T16:29:58.000Z</time>
      </trkpt>
      <trkpt lat="47.54659" lon="16.06448">
        <ele>733.492348</ele>
        <time>2026-07-07T16:29:59.000Z</time>
      </trkpt>
      <trkpt lat="47.54659" lon="16.06446">
        <ele>733.623791</ele>
        <time>2026-07-07T16:30:00.000Z</time>
      </trkpt>
      <trkpt lat="47.54658" lon="16.06444">
        <ele>733.760509</ele>
        <time>2026-07-07T16:30:01.000Z</time>
      </trkpt>
      <trkpt lat="47.54658" lon="16.06442">
        <ele>733.907614</ele>
        <time>2026-07-07T16:30:02.000Z</time>
      </trkpt>
      <trkpt lat="47.54658" lon="16.0644">
        <ele>734.0474</ele>
        <time>2026-07-07T16:30:03.000Z</time>
      </trkpt>
      <trkpt lat="47.54657" lon="16.06438">
        <ele>734.188088</ele>
        <time>2026-07-07T16:30:04.000Z</time>
      </trkpt>
      <trkpt lat="47.54657" lon="16.06436">
        <ele>734.333582</ele>
        <time>2026-07-07T16:30:05.000Z</time>
      </trkpt>
      <trkpt lat="47.54657" lon="16.06434">
        <ele>734.467864</ele>
        <time>2026-07-07T16:30:06.000Z</time>
      </trkpt>
      <trkpt lat="47.54657" lon="16.06431">
        <ele>734.61861</ele>
        <time>2026-07-07T16:30:07.000Z</time>
      </trkpt>
      <trkpt lat="47.54657" lon="16.06429">
        <ele>734.775911</ele>
        <time>2026-07-07T16:30:08.000Z</time>
      </trkpt>
      <trkpt lat="47.54657" lon="16.06427">
        <ele>734.926658</ele>
        <time>2026-07-07T16:30:09.000Z</time>
      </trkpt>
      <trkpt lat="47.54657" lon="16.06424">
        <ele>735.071177</ele>
        <time>2026-07-07T16:30:10.000Z</time>
      </trkpt>
      <trkpt lat="47.54657" lon="16.06422">
        <ele>735.214191</ele>
        <time>2026-07-07T16:30:11.000Z</time>
      </trkpt>
      <trkpt lat="47.54658" lon="16.0642">
        <ele>735.366337</ele>
        <time>2026-07-07T16:30:12.000Z</time>
      </trkpt>
      <trkpt lat="47.54658" lon="16.06418">
        <ele>735.518484</ele>
        <time>2026-07-07T16:30:13.000Z</time>
      </trkpt>
      <trkpt lat="47.54659" lon="16.06416">
        <ele>735.67202</ele>
        <time>2026-07-07T16:30:14.000Z</time>
      </trkpt>
      <trkpt lat="47.54659" lon="16.06413">
        <ele>735.816212</ele>
        <time>2026-07-07T16:30:15.000Z</time>
      </trkpt>
      <trkpt lat="47.54659" lon="16.06411">
        <ele>735.966959</ele>
        <time>2026-07-07T16:30:16.000Z</time>
      </trkpt>
      <trkpt lat="47.54658" lon="16.06409">
        <ele>736.112453</ele>
        <time>2026-07-07T16:30:17.000Z</time>
      </trkpt>
      <trkpt lat="47.54658" lon="16.06407">
        <ele>736.263512</ele>
        <time>2026-07-07T16:30:18.000Z</time>
      </trkpt>
      <trkpt lat="47.54658" lon="16.06404">
        <ele>736.409007</ele>
        <time>2026-07-07T16:30:19.000Z</time>
      </trkpt>
      <trkpt lat="47.54658" lon="16.06402">
        <ele>736.549694</ele>
        <time>2026-07-07T16:30:20.000Z</time>
      </trkpt>
      <trkpt lat="47.54657" lon="16.064">
        <ele>736.686411</ele>
        <time>2026-07-07T16:30:21.000Z</time>
      </trkpt>
      <trkpt lat="47.54657" lon="16.06398">
        <ele>736.826197</ele>
        <time>2026-07-07T16:30:22.000Z</time>
      </trkpt>
      <trkpt lat="47.54656" lon="16.06396">
        <ele>736.978344</ele>
        <time>2026-07-07T16:30:23.000Z</time>
      </trkpt>
      <trkpt lat="47.54656" lon="16.06394">
        <ele>737.125449</ele>
        <time>2026-07-07T16:30:24.000Z</time>
      </trkpt>
      <trkpt lat="47.54656" lon="16.06392">
        <ele>737.276196</ele>
        <time>2026-07-07T16:30:25.000Z</time>
      </trkpt>
      <trkpt lat="47.54656" lon="16.06389">
        <ele>737.421691</ele>
        <time>2026-07-07T16:30:26.000Z</time>
      </trkpt>
      <trkpt lat="47.54656" lon="16.06387">
        <ele>737.57275</ele>
        <time>2026-07-07T16:30:27.000Z</time>
      </trkpt>
      <trkpt lat="47.54657" lon="16.06385">
        <ele>737.718244</ele>
        <time>2026-07-07T16:30:28.000Z</time>
      </trkpt>
      <trkpt lat="47.54657" lon="16.06383">
        <ele>737.87178</ele>
        <time>2026-07-07T16:30:29.000Z</time>
      </trkpt>
      <trkpt lat="47.54657" lon="16.0638">
        <ele>738.030152</ele>
        <time>2026-07-07T16:30:30.000Z</time>
      </trkpt>
      <trkpt lat="47.54658" lon="16.06378">
        <ele>738.175646</ele>
        <time>2026-07-07T16:30:31.000Z</time>
      </trkpt>
      <trkpt lat="47.54658" lon="16.06376">
        <ele>738.32114</ele>
        <time>2026-07-07T16:30:32.000Z</time>
      </trkpt>
      <trkpt lat="47.54658" lon="16.06374">
        <ele>738.4722</ele>
        <time>2026-07-07T16:30:33.000Z</time>
      </trkpt>
      <trkpt lat="47.54658" lon="16.06371">
        <ele>738.616392</ele>
        <time>2026-07-07T16:30:34.000Z</time>
      </trkpt>
      <trkpt lat="47.54658" lon="16.06369">
        <ele>738.767451</ele>
        <time>2026-07-07T16:30:35.000Z</time>
      </trkpt>
      <trkpt lat="47.54658" lon="16.06367">
        <ele>738.903801</ele>
        <time>2026-07-07T16:30:36.000Z</time>
      </trkpt>
      <trkpt lat="47.54658" lon="16.06365">
        <ele>739.032273</ele>
        <time>2026-07-07T16:30:37.000Z</time>
      </trkpt>
      <trkpt lat="47.54658" lon="16.06363">
        <ele>739.166863</ele>
        <time>2026-07-07T16:30:38.000Z</time>
      </trkpt>
      <trkpt lat="47.54658" lon="16.0636">
        <ele>739.302668</ele>
        <time>2026-07-07T16:30:39.000Z</time>
      </trkpt>
      <trkpt lat="47.54657" lon="16.06358">
        <ele>739.444538</ele>
        <time>2026-07-07T16:30:40.000Z</time>
      </trkpt>
      <trkpt lat="47.54657" lon="16.06356">
        <ele>739.585245</ele>
        <time>2026-07-07T16:30:41.000Z</time>
      </trkpt>
      <trkpt lat="47.54657" lon="16.06353">
        <ele>739.73235</ele>
        <time>2026-07-07T16:30:42.000Z</time>
      </trkpt>
      <trkpt lat="47.54657" lon="16.06351">
        <ele>739.87422</ele>
        <time>2026-07-07T16:30:43.000Z</time>
      </trkpt>
      <trkpt lat="47.54657" lon="16.06349">
        <ele>740.016091</ele>
        <time>2026-07-07T16:30:44.000Z</time>
      </trkpt>
      <trkpt lat="47.54656" lon="16.06347">
        <ele>740.158105</ele>
        <time>2026-07-07T16:30:45.000Z</time>
      </trkpt>
      <trkpt lat="47.54656" lon="16.06345">
        <ele>740.292</ele>
        <time>2026-07-07T16:30:46.000Z</time>
      </trkpt>
      <trkpt lat="47.54655" lon="16.06343">
        <ele>740.429825</ele>
        <time>2026-07-07T16:30:47.000Z</time>
      </trkpt>
      <trkpt lat="47.54655" lon="16.0634">
        <ele>740.571695</ele>
        <time>2026-07-07T16:30:48.000Z</time>
      </trkpt>
      <trkpt lat="47.54655" lon="16.06338">
        <ele>740.706285</ele>
        <time>2026-07-07T16:30:49.000Z</time>
      </trkpt>
      <trkpt lat="47.54655" lon="16.06336">
        <ele>740.829975</ele>
        <time>2026-07-07T16:30:50.000Z</time>
      </trkpt>
      <trkpt lat="47.54655" lon="16.06334">
        <ele>740.964564</ele>
        <time>2026-07-07T16:30:51.000Z</time>
      </trkpt>
      <trkpt lat="47.54655" lon="16.06332">
        <ele>741.088254</ele>
        <time>2026-07-07T16:30:52.000Z</time>
      </trkpt>
      <trkpt lat="47.54655" lon="16.0633">
        <ele>741.217046</ele>
        <time>2026-07-07T16:30:53.000Z</time>
      </trkpt>
      <trkpt lat="47.54656" lon="16.06328">
        <ele>741.352851</ele>
        <time>2026-07-07T16:30:54.000Z</time>
      </trkpt>
      <trkpt lat="47.54656" lon="16.06325">
        <ele>741.48744</ele>
        <time>2026-07-07T16:30:55.000Z</time>
      </trkpt>
      <trkpt lat="47.54655" lon="16.06323">
        <ele>741.61278</ele>
        <time>2026-07-07T16:30:56.000Z</time>
      </trkpt>
      <trkpt lat="47.54655" lon="16.06321">
        <ele>741.740392</ele>
        <time>2026-07-07T16:30:57.000Z</time>
      </trkpt>
      <trkpt lat="47.54655" lon="16.06319">
        <ele>741.87171</ele>
        <time>2026-07-07T16:30:58.000Z</time>
      </trkpt>
      <trkpt lat="47.54654" lon="16.06317">
        <ele>742.002187</ele>
        <time>2026-07-07T16:30:59.000Z</time>
      </trkpt>
      <trkpt lat="47.54654" lon="16.06315">
        <ele>742.132664</ele>
        <time>2026-07-07T16:31:00.000Z</time>
      </trkpt>
      <trkpt lat="47.54653" lon="16.06313">
        <ele>742.258003</ele>
        <time>2026-07-07T16:31:01.000Z</time>
      </trkpt>
      <trkpt lat="47.54653" lon="16.06311">
        <ele>742.38848</ele>
        <time>2026-07-07T16:31:02.000Z</time>
      </trkpt>
      <trkpt lat="47.54652" lon="16.06309">
        <ele>742.518957</ele>
        <time>2026-07-07T16:31:03.000Z</time>
      </trkpt>
      <trkpt lat="47.54652" lon="16.06307">
        <ele>742.649434</ele>
        <time>2026-07-07T16:31:04.000Z</time>
      </trkpt>
      <trkpt lat="47.54651" lon="16.06305">
        <ele>742.779911</ele>
        <time>2026-07-07T16:31:05.000Z</time>
      </trkpt>
      <trkpt lat="47.54651" lon="16.06303">
        <ele>742.904669</ele>
        <time>2026-07-07T16:31:06.000Z</time>
      </trkpt>
      <trkpt lat="47.5465" lon="16.06301">
        <ele>743.035146</ele>
        <time>2026-07-07T16:31:07.000Z</time>
      </trkpt>
      <trkpt lat="47.5465" lon="16.06299">
        <ele>743.165623</ele>
        <time>2026-07-07T16:31:08.000Z</time>
      </trkpt>
      <trkpt lat="47.54649" lon="16.06297">
        <ele>743.2961</ele>
        <time>2026-07-07T16:31:09.000Z</time>
      </trkpt>
      <trkpt lat="47.54649" lon="16.06296">
        <ele>743.415179</ele>
        <time>2026-07-07T16:31:10.000Z</time>
      </trkpt>
      <trkpt lat="47.54649" lon="16.06293">
        <ele>743.550984</ele>
        <time>2026-07-07T16:31:11.000Z</time>
      </trkpt>
      <trkpt lat="47.54649" lon="16.06291">
        <ele>743.679457</ele>
        <time>2026-07-07T16:31:12.000Z</time>
      </trkpt>
      <trkpt lat="47.54648" lon="16.06289">
        <ele>743.804796</ele>
        <time>2026-07-07T16:31:13.000Z</time>
      </trkpt>
      <trkpt lat="47.54648" lon="16.06287">
        <ele>743.929554</ele>
        <time>2026-07-07T16:31:14.000Z</time>
      </trkpt>
      <trkpt lat="47.54647" lon="16.06285">
        <ele>744.060031</ele>
        <time>2026-07-07T16:31:15.000Z</time>
      </trkpt>
      <trkpt lat="47.54647" lon="16.06284">
        <ele>744.187119</ele>
        <time>2026-07-07T16:31:16.000Z</time>
      </trkpt>
      <trkpt lat="47.54646" lon="16.06282">
        <ele>744.325071</ele>
        <time>2026-07-07T16:31:17.000Z</time>
      </trkpt>
      <trkpt lat="47.54645" lon="16.0628">
        <ele>744.45405</ele>
        <time>2026-07-07T16:31:18.000Z</time>
      </trkpt>
      <trkpt lat="47.54644" lon="16.06279">
        <ele>744.581138</ele>
        <time>2026-07-07T16:31:19.000Z</time>
      </trkpt>
      <trkpt lat="47.54643" lon="16.06277">
        <ele>744.711615</ele>
        <time>2026-07-07T16:31:20.000Z</time>
      </trkpt>
      <trkpt lat="47.54643" lon="16.06275">
        <ele>744.842092</ele>
        <time>2026-07-07T16:31:21.000Z</time>
      </trkpt>
      <trkpt lat="47.54642" lon="16.06273">
        <ele>744.97257</ele>
        <time>2026-07-07T16:31:22.000Z</time>
      </trkpt>
      <trkpt lat="47.54642" lon="16.06271">
        <ele>745.09526</ele>
        <time>2026-07-07T16:31:23.000Z</time>
      </trkpt>
      <trkpt lat="47.54642" lon="16.06268">
        <ele>745.23713</ele>
        <time>2026-07-07T16:31:24.000Z</time>
      </trkpt>
      <trkpt lat="47.54642" lon="16.06266">
        <ele>745.372936</ele>
        <time>2026-07-07T16:31:25.000Z</time>
      </trkpt>
      <trkpt lat="47.54642" lon="16.06264">
        <ele>745.507526</ele>
        <time>2026-07-07T16:31:26.000Z</time>
      </trkpt>
      <trkpt lat="47.54642" lon="16.06262">
        <ele>745.641015</ele>
        <time>2026-07-07T16:31:27.000Z</time>
      </trkpt>
      <trkpt lat="47.54642" lon="16.0626">
        <ele>745.766355</ele>
        <time>2026-07-07T16:31:28.000Z</time>
      </trkpt>
      <trkpt lat="47.54641" lon="16.06258">
        <ele>745.896832</ele>
        <time>2026-07-07T16:31:29.000Z</time>
      </trkpt>
      <trkpt lat="47.5464" lon="16.06256">
        <ele>746.039057</ele>
        <time>2026-07-07T16:31:30.000Z</time>
      </trkpt>
      <trkpt lat="47.54639" lon="16.06254">
        <ele>746.18611</ele>
        <time>2026-07-07T16:31:31.000Z</time>
      </trkpt>
      <trkpt lat="47.54639" lon="16.06252">
        <ele>746.323107</ele>
        <time>2026-07-07T16:31:32.000Z</time>
      </trkpt>
      <trkpt lat="47.54638" lon="16.0625">
        <ele>746.454954</ele>
        <time>2026-07-07T16:31:33.000Z</time>
      </trkpt>
      <trkpt lat="47.54637" lon="16.06248">
        <ele>746.591994</ele>
        <time>2026-07-07T16:31:34.000Z</time>
      </trkpt>
      <trkpt lat="47.54636" lon="16.06246">
        <ele>746.725889</ele>
        <time>2026-07-07T16:31:35.000Z</time>
      </trkpt>
      <trkpt lat="47.54636" lon="16.06244">
        <ele>746.87955</ele>
        <time>2026-07-07T16:31:36.000Z</time>
      </trkpt>
      <trkpt lat="47.54635" lon="16.06242">
        <ele>747.013039</ele>
        <time>2026-07-07T16:31:37.000Z</time>
      </trkpt>
      <trkpt lat="47.54635" lon="16.0624">
        <ele>747.155054</ele>
        <time>2026-07-07T16:31:38.000Z</time>
      </trkpt>
      <trkpt lat="47.54635" lon="16.06237">
        <ele>747.292364</ele>
        <time>2026-07-07T16:31:39.000Z</time>
      </trkpt>
      <trkpt lat="47.54634" lon="16.06235">
        <ele>747.428594</ele>
        <time>2026-07-07T16:31:40.000Z</time>
      </trkpt>
      <trkpt lat="47.54633" lon="16.06233">
        <ele>747.56642</ele>
        <time>2026-07-07T16:31:41.000Z</time>
      </trkpt>
      <trkpt lat="47.54633" lon="16.06231">
        <ele>747.700315</ele>
        <time>2026-07-07T16:31:42.000Z</time>
      </trkpt>
      <trkpt lat="47.54632" lon="16.06229">
        <ele>747.849109</ele>
        <time>2026-07-07T16:31:43.000Z</time>
      </trkpt>
      <trkpt lat="47.54632" lon="16.06227">
        <ele>747.968189</ele>
        <time>2026-07-07T16:31:44.000Z</time>
      </trkpt>
      <trkpt lat="47.54631" lon="16.06225">
        <ele>748.098666</ele>
        <time>2026-07-07T16:31:45.000Z</time>
      </trkpt>
      <trkpt lat="47.54631" lon="16.06223">
        <ele>748.235976</ele>
        <time>2026-07-07T16:31:46.000Z</time>
      </trkpt>
      <trkpt lat="47.5463" lon="16.06221">
        <ele>748.381279</ele>
        <time>2026-07-07T16:31:47.000Z</time>
      </trkpt>
      <trkpt lat="47.5463" lon="16.06218">
        <ele>748.530601</ele>
        <time>2026-07-07T16:31:48.000Z</time>
      </trkpt>
      <trkpt lat="47.5463" lon="16.06216">
        <ele>748.66192</ele>
        <time>2026-07-07T16:31:49.000Z</time>
      </trkpt>
      <trkpt lat="47.54629" lon="16.06214">
        <ele>748.813155</ele>
        <time>2026-07-07T16:31:50.000Z</time>
      </trkpt>
      <trkpt lat="47.54629" lon="16.06212">
        <ele>748.941947</ele>
        <time>2026-07-07T16:31:51.000Z</time>
      </trkpt>
      <trkpt lat="47.54629" lon="16.0621">
        <ele>749.06956</ele>
        <time>2026-07-07T16:31:52.000Z</time>
      </trkpt>
      <trkpt lat="47.54628" lon="16.06208">
        <ele>749.186921</ele>
        <time>2026-07-07T16:31:53.000Z</time>
      </trkpt>
      <trkpt lat="47.54627" lon="16.06206">
        <ele>749.324874</ele>
        <time>2026-07-07T16:31:54.000Z</time>
      </trkpt>
      <trkpt lat="47.54626" lon="16.06204">
        <ele>749.477141</ele>
        <time>2026-07-07T16:31:55.000Z</time>
      </trkpt>
      <trkpt lat="47.54626" lon="16.06202">
        <ele>749.620425</ele>
        <time>2026-07-07T16:31:56.000Z</time>
      </trkpt>
      <trkpt lat="47.54625" lon="16.062">
        <ele>749.76922</ele>
        <time>2026-07-07T16:31:57.000Z</time>
      </trkpt>
      <trkpt lat="47.54624" lon="16.06198">
        <ele>749.899697</ele>
        <time>2026-07-07T16:31:58.000Z</time>
      </trkpt>
      <trkpt lat="47.54624" lon="16.06196">
        <ele>750.037007</ele>
        <time>2026-07-07T16:31:59.000Z</time>
      </trkpt>
      <trkpt lat="47.54624" lon="16.06194">
        <ele>750.160697</ele>
        <time>2026-07-07T16:32:00.000Z</time>
      </trkpt>
      <trkpt lat="47.54623" lon="16.06192">
        <ele>750.296929</ele>
        <time>2026-07-07T16:32:01.000Z</time>
      </trkpt>
      <trkpt lat="47.54623" lon="16.0619">
        <ele>750.438944</ele>
        <time>2026-07-07T16:32:02.000Z</time>
      </trkpt>
      <trkpt lat="47.54622" lon="16.06187">
        <ele>750.584105</ele>
        <time>2026-07-07T16:32:03.000Z</time>
      </trkpt>
      <trkpt lat="47.54622" lon="16.06186">
        <ele>750.711193</ele>
        <time>2026-07-07T16:32:04.000Z</time>
      </trkpt>
      <trkpt lat="47.54621" lon="16.06184">
        <ele>750.841671</ele>
        <time>2026-07-07T16:32:05.000Z</time>
      </trkpt>
      <trkpt lat="47.5462" lon="16.06181">
        <ele>750.990466</ele>
        <time>2026-07-07T16:32:06.000Z</time>
      </trkpt>
      <trkpt lat="47.5462" lon="16.06179">
        <ele>751.124361</ele>
        <time>2026-07-07T16:32:07.000Z</time>
      </trkpt>
      <trkpt lat="47.54619" lon="16.06178">
        <ele>751.266983</ele>
        <time>2026-07-07T16:32:08.000Z</time>
      </trkpt>
      <trkpt lat="47.54618" lon="16.06176">
        <ele>751.409604</ele>
        <time>2026-07-07T16:32:09.000Z</time>
      </trkpt>
      <trkpt lat="47.54617" lon="16.06174">
        <ele>751.547557</ele>
        <time>2026-07-07T16:32:10.000Z</time>
      </trkpt>
      <trkpt lat="47.54616" lon="16.06172">
        <ele>751.685509</ele>
        <time>2026-07-07T16:32:11.000Z</time>
      </trkpt>
      <trkpt lat="47.54615" lon="16.06171">
        <ele>751.828131</ele>
        <time>2026-07-07T16:32:12.000Z</time>
      </trkpt>
      <trkpt lat="47.54614" lon="16.06169">
        <ele>751.965172</ele>
        <time>2026-07-07T16:32:13.000Z</time>
      </trkpt>
      <trkpt lat="47.54613" lon="16.06167">
        <ele>752.091954</ele>
        <time>2026-07-07T16:32:14.000Z</time>
      </trkpt>
      <trkpt lat="47.54612" lon="16.06165">
        <ele>752.234575</ele>
        <time>2026-07-07T16:32:15.000Z</time>
      </trkpt>
      <trkpt lat="47.54611" lon="16.06164">
        <ele>752.363555</ele>
        <time>2026-07-07T16:32:16.000Z</time>
      </trkpt>
      <trkpt lat="47.5461" lon="16.06162">
        <ele>752.500553</ele>
        <time>2026-07-07T16:32:17.000Z</time>
      </trkpt>
      <trkpt lat="47.54609" lon="16.0616">
        <ele>752.62797</ele>
        <time>2026-07-07T16:32:18.000Z</time>
      </trkpt>
      <trkpt lat="47.54608" lon="16.06158">
        <ele>752.775366</ele>
        <time>2026-07-07T16:32:19.000Z</time>
      </trkpt>
      <trkpt lat="47.54608" lon="16.06156">
        <ele>752.917592</ele>
        <time>2026-07-07T16:32:20.000Z</time>
      </trkpt>
      <trkpt lat="47.54607" lon="16.06154">
        <ele>753.059818</ele>
        <time>2026-07-07T16:32:21.000Z</time>
      </trkpt>
      <trkpt lat="47.54606" lon="16.06153">
        <ele>753.176465</ele>
        <time>2026-07-07T16:32:22.000Z</time>
      </trkpt>
      <trkpt lat="47.54605" lon="16.06151">
        <ele>753.323861</ele>
        <time>2026-07-07T16:32:23.000Z</time>
      </trkpt>
      <trkpt lat="47.54604" lon="16.06149">
        <ele>753.455709</ele>
        <time>2026-07-07T16:32:24.000Z</time>
      </trkpt>
      <trkpt lat="47.54603" lon="16.06147">
        <ele>753.59833</ele>
        <time>2026-07-07T16:32:25.000Z</time>
      </trkpt>
      <trkpt lat="47.54602" lon="16.06145">
        <ele>753.745384</ele>
        <time>2026-07-07T16:32:26.000Z</time>
      </trkpt>
      <trkpt lat="47.54602" lon="16.06143">
        <ele>753.879279</ele>
        <time>2026-07-07T16:32:27.000Z</time>
      </trkpt>
      <trkpt lat="47.54601" lon="16.06141">
        <ele>754.031547</ele>
        <time>2026-07-07T16:32:28.000Z</time>
      </trkpt>
      <trkpt lat="47.546" lon="16.0614">
        <ele>754.17385</ele>
        <time>2026-07-07T16:32:29.000Z</time>
      </trkpt>
      <trkpt lat="47.54598" lon="16.06138">
        <ele>754.323194</ele>
        <time>2026-07-07T16:32:30.000Z</time>
      </trkpt>
      <trkpt lat="47.54597" lon="16.06137">
        <ele>754.473678</ele>
        <time>2026-07-07T16:32:31.000Z</time>
      </trkpt>
      <trkpt lat="47.54596" lon="16.06135">
        <ele>754.623022</ele>
        <time>2026-07-07T16:32:32.000Z</time>
      </trkpt>
      <trkpt lat="47.54594" lon="16.06134">
        <ele>754.779616</ele>
        <time>2026-07-07T16:32:33.000Z</time>
      </trkpt>
      <trkpt lat="47.54593" lon="16.06132">
        <ele>754.936776</ele>
        <time>2026-07-07T16:32:34.000Z</time>
      </trkpt>
      <trkpt lat="47.54592" lon="16.0613">
        <ele>755.089955</ele>
        <time>2026-07-07T16:32:35.000Z</time>
      </trkpt>
      <trkpt lat="47.5459" lon="16.06129">
        <ele>755.242216</ele>
        <time>2026-07-07T16:32:36.000Z</time>
      </trkpt>
      <trkpt lat="47.54589" lon="16.06127">
        <ele>755.376207</ele>
        <time>2026-07-07T16:32:37.000Z</time>
      </trkpt>
      <trkpt lat="47.54589" lon="16.06125">
        <ele>755.514347</ele>
        <time>2026-07-07T16:32:38.000Z</time>
      </trkpt>
      <trkpt lat="47.54588" lon="16.06123">
        <ele>755.652488</ele>
        <time>2026-07-07T16:32:39.000Z</time>
      </trkpt>
      <trkpt lat="47.54587" lon="16.06121">
        <ele>755.786355</ele>
        <time>2026-07-07T16:32:40.000Z</time>
      </trkpt>
      <trkpt lat="47.54586" lon="16.06119">
        <ele>755.930876</ele>
        <time>2026-07-07T16:32:41.000Z</time>
      </trkpt>
      <trkpt lat="47.54586" lon="16.06117">
        <ele>756.069017</ele>
        <time>2026-07-07T16:32:42.000Z</time>
      </trkpt>
      <trkpt lat="47.54585" lon="16.06115">
        <ele>756.216911</ele>
        <time>2026-07-07T16:32:43.000Z</time>
      </trkpt>
      <trkpt lat="47.54583" lon="16.06113">
        <ele>756.36569</ele>
        <time>2026-07-07T16:32:44.000Z</time>
      </trkpt>
      <trkpt lat="47.54582" lon="16.06112">
        <ele>756.511852</ele>
        <time>2026-07-07T16:32:45.000Z</time>
      </trkpt>
      <trkpt lat="47.54581" lon="16.0611">
        <ele>756.645842</ele>
        <time>2026-07-07T16:32:46.000Z</time>
      </trkpt>
      <trkpt lat="47.5458" lon="16.06108">
        <ele>756.764158</ele>
        <time>2026-07-07T16:32:47.000Z</time>
      </trkpt>
      <trkpt lat="47.54579" lon="16.06106">
        <ele>756.907321</ele>
        <time>2026-07-07T16:32:48.000Z</time>
      </trkpt>
      <trkpt lat="47.54578" lon="16.06105">
        <ele>757.045846</ele>
        <time>2026-07-07T16:32:49.000Z</time>
      </trkpt>
      <trkpt lat="47.54577" lon="16.06103">
        <ele>757.179836</ele>
        <time>2026-07-07T16:32:50.000Z</time>
      </trkpt>
      <trkpt lat="47.54576" lon="16.06101">
        <ele>757.303594</ele>
        <time>2026-07-07T16:32:51.000Z</time>
      </trkpt>
      <trkpt lat="47.54575" lon="16.061">
        <ele>757.428868</ele>
        <time>2026-07-07T16:32:52.000Z</time>
      </trkpt>
      <trkpt lat="47.54575" lon="16.06098">
        <ele>757.542464</ele>
        <time>2026-07-07T16:32:53.000Z</time>
      </trkpt>
      <trkpt lat="47.54574" lon="16.06097">
        <ele>757.667739</ele>
        <time>2026-07-07T16:32:54.000Z</time>
      </trkpt>
      <trkpt lat="47.54573" lon="16.06095">
        <ele>757.79088</ele>
        <time>2026-07-07T16:32:55.000Z</time>
      </trkpt>
      <trkpt lat="47.54572" lon="16.06093">
        <ele>757.933709</ele>
        <time>2026-07-07T16:32:56.000Z</time>
      </trkpt>
      <trkpt lat="47.54571" lon="16.06091">
        <ele>758.07185</ele>
        <time>2026-07-07T16:32:57.000Z</time>
      </trkpt>
      <trkpt lat="47.5457" lon="16.06089">
        <ele>758.221768</ele>
        <time>2026-07-07T16:32:58.000Z</time>
      </trkpt>
      <trkpt lat="47.5457" lon="16.06087">
        <ele>758.359909</ele>
        <time>2026-07-07T16:32:59.000Z</time>
      </trkpt>
      <trkpt lat="47.54569" lon="16.06085">
        <ele>758.478236</ele>
        <time>2026-07-07T16:33:00.000Z</time>
      </trkpt>
      <trkpt lat="47.54568" lon="16.06083">
        <ele>758.616377</ele>
        <time>2026-07-07T16:33:01.000Z</time>
      </trkpt>
      <trkpt lat="47.54567" lon="16.06081">
        <ele>758.754903</ele>
        <time>2026-07-07T16:33:02.000Z</time>
      </trkpt>
      <trkpt lat="47.54566" lon="16.06079">
        <ele>758.88877</ele>
        <time>2026-07-07T16:33:03.000Z</time>
      </trkpt>
      <trkpt lat="47.54566" lon="16.06077">
        <ele>759.021834</ele>
        <time>2026-07-07T16:33:04.000Z</time>
      </trkpt>
      <trkpt lat="47.54565" lon="16.06075">
        <ele>759.155702</ele>
        <time>2026-07-07T16:33:05.000Z</time>
      </trkpt>
      <trkpt lat="47.54564" lon="16.06073">
        <ele>759.288021</ele>
        <time>2026-07-07T16:33:06.000Z</time>
      </trkpt>
      <trkpt lat="47.54564" lon="16.06071">
        <ele>759.425958</ele>
        <time>2026-07-07T16:33:07.000Z</time>
      </trkpt>
      <trkpt lat="47.54563" lon="16.06069">
        <ele>759.556008</ele>
        <time>2026-07-07T16:33:08.000Z</time>
      </trkpt>
      <trkpt lat="47.54562" lon="16.06067">
        <ele>759.689113</ele>
        <time>2026-07-07T16:33:09.000Z</time>
      </trkpt>
      <trkpt lat="47.54562" lon="16.06065">
        <ele>759.837602</ele>
        <time>2026-07-07T16:33:10.000Z</time>
      </trkpt>
      <trkpt lat="47.54561" lon="16.06063">
        <ele>759.975743</ele>
        <time>2026-07-07T16:33:11.000Z</time>
      </trkpt>
      <trkpt lat="47.5456" lon="16.06061">
        <ele>760.114269</ele>
        <time>2026-07-07T16:33:12.000Z</time>
      </trkpt>
      <trkpt lat="47.54559" lon="16.06059">
        <ele>760.273273</ele>
        <time>2026-07-07T16:33:13.000Z</time>
      </trkpt>
      <trkpt lat="47.54558" lon="16.06057">
        <ele>760.416437</ele>
        <time>2026-07-07T16:33:14.000Z</time>
      </trkpt>
      <trkpt lat="47.54557" lon="16.06055">
        <ele>760.555607</ele>
        <time>2026-07-07T16:33:15.000Z</time>
      </trkpt>
      <trkpt lat="47.54556" lon="16.06053">
        <ele>760.710543</ele>
        <time>2026-07-07T16:33:16.000Z</time>
      </trkpt>
      <trkpt lat="47.54556" lon="16.0605">
        <ele>760.86262</ele>
        <time>2026-07-07T16:33:17.000Z</time>
      </trkpt>
      <trkpt lat="47.54555" lon="16.06048">
        <ele>761.020592</ele>
        <time>2026-07-07T16:33:18.000Z</time>
      </trkpt>
      <trkpt lat="47.54554" lon="16.06045">
        <ele>761.186957</ele>
        <time>2026-07-07T16:33:19.000Z</time>
      </trkpt>
      <trkpt lat="47.54554" lon="16.06043">
        <ele>761.330538</ele>
        <time>2026-07-07T16:33:20.000Z</time>
      </trkpt>
      <trkpt lat="47.54553" lon="16.06041">
        <ele>761.479027</ele>
        <time>2026-07-07T16:33:21.000Z</time>
      </trkpt>
      <trkpt lat="47.54552" lon="16.06039">
        <ele>761.618197</ele>
        <time>2026-07-07T16:33:22.000Z</time>
      </trkpt>
      <trkpt lat="47.54552" lon="16.06036">
        <ele>761.777248</ele>
        <time>2026-07-07T16:33:23.000Z</time>
      </trkpt>
      <trkpt lat="47.54551" lon="16.06034">
        <ele>761.920534</ele>
        <time>2026-07-07T16:33:24.000Z</time>
      </trkpt>
      <trkpt lat="47.5455" lon="16.06032">
        <ele>762.068428</ele>
        <time>2026-07-07T16:33:25.000Z</time>
      </trkpt>
      <trkpt lat="47.54548" lon="16.06031">
        <ele>762.220524</ele>
        <time>2026-07-07T16:33:26.000Z</time>
      </trkpt>
      <trkpt lat="47.54547" lon="16.06029">
        <ele>762.362006</ele>
        <time>2026-07-07T16:33:27.000Z</time>
      </trkpt>
      <trkpt lat="47.54546" lon="16.06028">
        <ele>762.510786</ele>
        <time>2026-07-07T16:33:28.000Z</time>
      </trkpt>
      <trkpt lat="47.54544" lon="16.06026">
        <ele>762.662882</ele>
        <time>2026-07-07T16:33:30.000Z</time>
      </trkpt>
      <trkpt lat="47.54543" lon="16.06025">
        <ele>762.790542</ele>
        <time>2026-07-07T16:33:31.000Z</time>
      </trkpt>
      <trkpt lat="47.54542" lon="16.06024">
        <ele>762.901196</ele>
        <time>2026-07-07T16:33:32.000Z</time>
      </trkpt>
      <trkpt lat="47.54542" lon="16.06023">
        <ele>762.980698</ele>
        <time>2026-07-07T16:33:33.000Z</time>
      </trkpt>
      <trkpt lat="47.54541" lon="16.06022">
        <ele>763.020166</ele>
        <time>2026-07-07T16:33:34.000Z</time>
      </trkpt>
      <trkpt lat="47.54539" lon="16.06018">
        <ele>763.340318</ele>
        <time>2026-07-07T16:34:42.000Z</time>
      </trkpt>
      <trkpt lat="47.54539" lon="16.06017">
        <ele>763.422109</ele>
        <time>2026-07-07T16:34:43.000Z</time>
      </trkpt>
      <trkpt lat="47.54538" lon="16.06016">
        <ele>763.507713</ele>
        <time>2026-07-07T16:34:44.000Z</time>
      </trkpt>
      <trkpt lat="47.54538" lon="16.06015">
        <ele>763.58935</ele>
        <time>2026-07-07T16:34:45.000Z</time>
      </trkpt>
      <trkpt lat="47.54538" lon="16.06013">
        <ele>763.67254</ele>
        <time>2026-07-07T16:34:46.000Z</time>
      </trkpt>
      <trkpt lat="47.54538" lon="16.06012">
        <ele>763.763394</ele>
        <time>2026-07-07T16:34:47.000Z</time>
      </trkpt>
      <trkpt lat="47.54538" lon="16.0601">
        <ele>763.871792</ele>
        <time>2026-07-07T16:34:48.000Z</time>
      </trkpt>
      <trkpt lat="47.54538" lon="16.06009">
        <ele>763.949039</ele>
        <time>2026-07-07T16:34:49.000Z</time>
      </trkpt>
      <trkpt lat="47.54537" lon="16.06007">
        <ele>764.051578</ele>
        <time>2026-07-07T16:34:50.000Z</time>
      </trkpt>
      <trkpt lat="47.54537" lon="16.06005">
        <ele>764.170867</ele>
        <time>2026-07-07T16:34:51.000Z</time>
      </trkpt>
      <trkpt lat="47.54537" lon="16.06003">
        <ele>764.283767</ele>
        <time>2026-07-07T16:34:52.000Z</time>
      </trkpt>
      <trkpt lat="47.54537" lon="16.06002">
        <ele>764.382441</ele>
        <time>2026-07-07T16:34:53.000Z</time>
      </trkpt>
      <trkpt lat="47.54537" lon="16.06">
        <ele>764.475403</ele>
        <time>2026-07-07T16:34:54.000Z</time>
      </trkpt>
      <trkpt lat="47.54536" lon="16.05999">
        <ele>764.596522</ele>
        <time>2026-07-07T16:34:55.000Z</time>
      </trkpt>
      <trkpt lat="47.54535" lon="16.05997">
        <ele>764.715776</ele>
        <time>2026-07-07T16:34:56.000Z</time>
      </trkpt>
      <trkpt lat="47.54534" lon="16.05996">
        <ele>764.845346</ele>
        <time>2026-07-07T16:34:57.000Z</time>
      </trkpt>
      <trkpt lat="47.54533" lon="16.05994">
        <ele>764.975397</ele>
        <time>2026-07-07T16:34:58.000Z</time>
      </trkpt>
      <trkpt lat="47.54533" lon="16.05992">
        <ele>765.113335</ele>
        <time>2026-07-07T16:34:59.000Z</time>
      </trkpt>
      <trkpt lat="47.54532" lon="16.0599">
        <ele>765.22594</ele>
        <time>2026-07-07T16:35:00.000Z</time>
      </trkpt>
      <trkpt lat="47.54532" lon="16.05989">
        <ele>765.32616</ele>
        <time>2026-07-07T16:35:01.000Z</time>
      </trkpt>
      <trkpt lat="47.54531" lon="16.05987">
        <ele>765.434519</ele>
        <time>2026-07-07T16:35:02.000Z</time>
      </trkpt>
      <trkpt lat="47.54531" lon="16.05985">
        <ele>765.567887</ele>
        <time>2026-07-07T16:35:03.000Z</time>
      </trkpt>
      <trkpt lat="47.5453" lon="16.05983">
        <ele>765.681184</ele>
        <time>2026-07-07T16:35:04.000Z</time>
      </trkpt>
      <trkpt lat="47.54529" lon="16.05982">
        <ele>765.780592</ele>
        <time>2026-07-07T16:35:05.000Z</time>
      </trkpt>
      <trkpt lat="47.54529" lon="16.0598">
        <ele>765.884198</ele>
        <time>2026-07-07T16:35:06.000Z</time>
      </trkpt>
      <trkpt lat="47.54528" lon="16.05978">
        <ele>766.027029</ele>
        <time>2026-07-07T16:35:07.000Z</time>
      </trkpt>
      <trkpt lat="47.54527" lon="16.05976">
        <ele>766.180327</ele>
        <time>2026-07-07T16:35:08.000Z</time>
      </trkpt>
      <trkpt lat="47.54526" lon="16.05974">
        <ele>766.323157</ele>
        <time>2026-07-07T16:35:09.000Z</time>
      </trkpt>
      <trkpt lat="47.54525" lon="16.05972">
        <ele>766.475235</ele>
        <time>2026-07-07T16:35:10.000Z</time>
      </trkpt>
      <trkpt lat="47.54525" lon="16.0597">
        <ele>766.599185</ele>
        <time>2026-07-07T16:35:11.000Z</time>
      </trkpt>
      <trkpt lat="47.54524" lon="16.05968">
        <ele>766.698592</ele>
        <time>2026-07-07T16:35:12.000Z</time>
      </trkpt>
      <trkpt lat="47.54524" lon="16.05967">
        <ele>766.797266</ele>
        <time>2026-07-07T16:35:13.000Z</time>
      </trkpt>
      <trkpt lat="47.54523" lon="16.05965">
        <ele>766.931135</ele>
        <time>2026-07-07T16:35:14.000Z</time>
      </trkpt>
      <trkpt lat="47.54523" lon="16.05963">
        <ele>767.069277</ele>
        <time>2026-07-07T16:35:15.000Z</time>
      </trkpt>
      <trkpt lat="47.54522" lon="16.05961">
        <ele>767.207419</ele>
        <time>2026-07-07T16:35:16.000Z</time>
      </trkpt>
      <trkpt lat="47.54521" lon="16.05959">
        <ele>767.355314</ele>
        <time>2026-07-07T16:35:17.000Z</time>
      </trkpt>
      <trkpt lat="47.5452" lon="16.05957">
        <ele>767.498145</ele>
        <time>2026-07-07T16:35:18.000Z</time>
      </trkpt>
      <trkpt lat="47.54519" lon="16.05955">
        <ele>767.621286</ele>
        <time>2026-07-07T16:35:19.000Z</time>
      </trkpt>
      <trkpt lat="47.54518" lon="16.05953">
        <ele>767.749348</ele>
        <time>2026-07-07T16:35:20.000Z</time>
      </trkpt>
      <trkpt lat="47.54518" lon="16.05951">
        <ele>767.87608</ele>
        <time>2026-07-07T16:35:21.000Z</time>
      </trkpt>
      <trkpt lat="47.54517" lon="16.05949">
        <ele>768.009948</ele>
        <time>2026-07-07T16:35:22.000Z</time>
      </trkpt>
      <trkpt lat="47.54517" lon="16.05947">
        <ele>768.13668</ele>
        <time>2026-07-07T16:35:23.000Z</time>
      </trkpt>
      <trkpt lat="47.54516" lon="16.05945">
        <ele>768.263412</ele>
        <time>2026-07-07T16:35:24.000Z</time>
      </trkpt>
      <trkpt lat="47.54516" lon="16.05943">
        <ele>768.390144</ele>
        <time>2026-07-07T16:35:25.000Z</time>
      </trkpt>
      <trkpt lat="47.54515" lon="16.05942">
        <ele>768.508472</ele>
        <time>2026-07-07T16:35:26.000Z</time>
      </trkpt>
      <trkpt lat="47.54514" lon="16.0594">
        <ele>768.636533</ele>
        <time>2026-07-07T16:35:27.000Z</time>
      </trkpt>
      <trkpt lat="47.54513" lon="16.05938">
        <ele>768.759675</ele>
        <time>2026-07-07T16:35:28.000Z</time>
      </trkpt>
      <trkpt lat="47.54512" lon="16.05936">
        <ele>768.893667</ele>
        <time>2026-07-07T16:35:29.000Z</time>
      </trkpt>
      <trkpt lat="47.54511" lon="16.05935">
        <ele>769.023237</ele>
        <time>2026-07-07T16:35:30.000Z</time>
      </trkpt>
      <trkpt lat="47.5451" lon="16.05933">
        <ele>769.176099</ele>
        <time>2026-07-07T16:35:31.000Z</time>
      </trkpt>
      <trkpt lat="47.5451" lon="16.05931">
        <ele>769.30615</ele>
        <time>2026-07-07T16:35:32.000Z</time>
      </trkpt>
      <trkpt lat="47.54509" lon="16.05928">
        <ele>769.456069</ele>
        <time>2026-07-07T16:35:33.000Z</time>
      </trkpt>
      <trkpt lat="47.54509" lon="16.05926">
        <ele>769.594008</ele>
        <time>2026-07-07T16:35:34.000Z</time>
      </trkpt>
      <trkpt lat="47.54508" lon="16.05924">
        <ele>769.727877</ele>
        <time>2026-07-07T16:35:35.000Z</time>
      </trkpt>
      <trkpt lat="47.54507" lon="16.05922">
        <ele>769.857928</ele>
        <time>2026-07-07T16:35:36.000Z</time>
      </trkpt>
      <trkpt lat="47.54507" lon="16.0592">
        <ele>769.995867</ele>
        <time>2026-07-07T16:35:37.000Z</time>
      </trkpt>
      <trkpt lat="47.54506" lon="16.05918">
        <ele>770.122599</ele>
        <time>2026-07-07T16:35:38.000Z</time>
      </trkpt>
      <trkpt lat="47.54506" lon="16.05916">
        <ele>770.252257</ele>
        <time>2026-07-07T16:35:39.000Z</time>
      </trkpt>
      <trkpt lat="47.54505" lon="16.05914">
        <ele>770.390195</ele>
        <time>2026-07-07T16:35:40.000Z</time>
      </trkpt>
      <trkpt lat="47.54505" lon="16.05912">
        <ele>770.505857</ele>
        <time>2026-07-07T16:35:41.000Z</time>
      </trkpt>
      <trkpt lat="47.54504" lon="16.0591">
        <ele>770.630502</ele>
        <time>2026-07-07T16:35:42.000Z</time>
      </trkpt>
      <trkpt lat="47.54503" lon="16.05908">
        <ele>770.75426</ele>
        <time>2026-07-07T16:35:43.000Z</time>
      </trkpt>
      <trkpt lat="47.54503" lon="16.05907">
        <ele>770.877402</ele>
        <time>2026-07-07T16:35:44.000Z</time>
      </trkpt>
      <trkpt lat="47.54502" lon="16.05905">
        <ele>771.035525</ele>
        <time>2026-07-07T16:35:45.000Z</time>
      </trkpt>
      <trkpt lat="47.54501" lon="16.05903">
        <ele>771.171784</ele>
        <time>2026-07-07T16:35:46.000Z</time>
      </trkpt>
      <trkpt lat="47.545" lon="16.05901">
        <ele>771.319068</ele>
        <time>2026-07-07T16:35:47.000Z</time>
      </trkpt>
      <trkpt lat="47.54499" lon="16.05899">
        <ele>771.451064</ele>
        <time>2026-07-07T16:35:48.000Z</time>
      </trkpt>
      <trkpt lat="47.54499" lon="16.05897">
        <ele>771.593388</ele>
        <time>2026-07-07T16:35:49.000Z</time>
      </trkpt>
      <trkpt lat="47.54498" lon="16.05896">
        <ele>771.724307</ele>
        <time>2026-07-07T16:35:50.000Z</time>
      </trkpt>
      <trkpt lat="47.54497" lon="16.05894">
        <ele>771.86663</ele>
        <time>2026-07-07T16:35:51.000Z</time>
      </trkpt>
      <trkpt lat="47.54497" lon="16.05892">
        <ele>772.006862</ele>
        <time>2026-07-07T16:35:52.000Z</time>
      </trkpt>
      <trkpt lat="47.54496" lon="16.0589">
        <ele>772.15499</ele>
        <time>2026-07-07T16:35:53.000Z</time>
      </trkpt>
      <trkpt lat="47.54495" lon="16.05888">
        <ele>772.298895</ele>
        <time>2026-07-07T16:35:54.000Z</time>
      </trkpt>
      <trkpt lat="47.54495" lon="16.05886">
        <ele>772.45289</ele>
        <time>2026-07-07T16:35:55.000Z</time>
      </trkpt>
      <trkpt lat="47.54494" lon="16.05884">
        <ele>772.601018</ele>
        <time>2026-07-07T16:35:56.000Z</time>
      </trkpt>
      <trkpt lat="47.54493" lon="16.05882">
        <ele>772.75365</ele>
        <time>2026-07-07T16:35:57.000Z</time>
      </trkpt>
      <trkpt lat="47.54493" lon="16.0588">
        <ele>772.893881</ele>
        <time>2026-07-07T16:35:58.000Z</time>
      </trkpt>
      <trkpt lat="47.54492" lon="16.05878">
        <ele>773.034113</ele>
        <time>2026-07-07T16:35:59.000Z</time>
      </trkpt>
      <trkpt lat="47.54492" lon="16.05876">
        <ele>773.178018</ele>
        <time>2026-07-07T16:36:00.000Z</time>
      </trkpt>
      <trkpt lat="47.54491" lon="16.05874">
        <ele>773.326146</ele>
        <time>2026-07-07T16:36:01.000Z</time>
      </trkpt>
      <trkpt lat="47.5449" lon="16.05872">
        <ele>773.462735</ele>
        <time>2026-07-07T16:36:02.000Z</time>
      </trkpt>
      <trkpt lat="47.5449" lon="16.0587">
        <ele>773.600657</ele>
        <time>2026-07-07T16:36:03.000Z</time>
      </trkpt>
      <trkpt lat="47.54489" lon="16.05868">
        <ele>773.73781</ele>
        <time>2026-07-07T16:36:04.000Z</time>
      </trkpt>
      <trkpt lat="47.54489" lon="16.05866">
        <ele>773.87623</ele>
        <time>2026-07-07T16:36:05.000Z</time>
      </trkpt>
      <trkpt lat="47.54489" lon="16.05864">
        <ele>774.022189</ele>
        <time>2026-07-07T16:36:06.000Z</time>
      </trkpt>
      <trkpt lat="47.54489" lon="16.05862">
        <ele>774.155126</ele>
        <time>2026-07-07T16:36:07.000Z</time>
      </trkpt>
      <trkpt lat="47.54489" lon="16.0586">
        <ele>774.289837</ele>
        <time>2026-07-07T16:36:08.000Z</time>
      </trkpt>
      <trkpt lat="47.54488" lon="16.05858">
        <ele>774.430068</ele>
        <time>2026-07-07T16:36:09.000Z</time>
      </trkpt>
      <trkpt lat="47.54487" lon="16.05856">
        <ele>774.566657</ele>
        <time>2026-07-07T16:36:10.000Z</time>
      </trkpt>
      <trkpt lat="47.54487" lon="16.05854">
        <ele>774.702916</ele>
        <time>2026-07-07T16:36:11.000Z</time>
      </trkpt>
      <trkpt lat="47.54485" lon="16.05853">
        <ele>774.843942</ele>
        <time>2026-07-07T16:36:12.000Z</time>
      </trkpt>
      <trkpt lat="47.54484" lon="16.05851">
        <ele>774.989572</ele>
        <time>2026-07-07T16:36:13.000Z</time>
      </trkpt>
      <trkpt lat="47.54483" lon="16.05849">
        <ele>775.153221</ele>
        <time>2026-07-07T16:36:14.000Z</time>
      </trkpt>
      <trkpt lat="47.54482" lon="16.05847">
        <ele>775.311266</ele>
        <time>2026-07-07T16:36:15.000Z</time>
      </trkpt>
      <trkpt lat="47.54482" lon="16.05845">
        <ele>775.445976</ele>
        <time>2026-07-07T16:36:16.000Z</time>
      </trkpt>
      <trkpt lat="47.54482" lon="16.05843">
        <ele>775.577479</ele>
        <time>2026-07-07T16:36:17.000Z</time>
      </trkpt>
      <trkpt lat="47.54482" lon="16.05841">
        <ele>775.708981</ele>
        <time>2026-07-07T16:36:18.000Z</time>
      </trkpt>
      <trkpt lat="47.54482" lon="16.05839">
        <ele>775.848427</ele>
        <time>2026-07-07T16:36:19.000Z</time>
      </trkpt>
      <trkpt lat="47.54481" lon="16.05837">
        <ele>775.982512</ele>
        <time>2026-07-07T16:36:20.000Z</time>
      </trkpt>
      <trkpt lat="47.54481" lon="16.05836">
        <ele>776.110494</ele>
        <time>2026-07-07T16:36:21.000Z</time>
      </trkpt>
      <trkpt lat="47.5448" lon="16.05834">
        <ele>776.246753</ele>
        <time>2026-07-07T16:36:22.000Z</time>
      </trkpt>
      <trkpt lat="47.54479" lon="16.05832">
        <ele>776.390125</ele>
        <time>2026-07-07T16:36:23.000Z</time>
      </trkpt>
      <trkpt lat="47.54478" lon="16.05831">
        <ele>776.526384</ele>
        <time>2026-07-07T16:36:24.000Z</time>
      </trkpt>
      <trkpt lat="47.54478" lon="16.05829">
        <ele>776.674513</ele>
        <time>2026-07-07T16:36:25.000Z</time>
      </trkpt>
      <trkpt lat="47.54477" lon="16.05827">
        <ele>776.809224</ele>
        <time>2026-07-07T16:36:26.000Z</time>
      </trkpt>
      <trkpt lat="47.54477" lon="16.05825">
        <ele>776.946377</ele>
        <time>2026-07-07T16:36:27.000Z</time>
      </trkpt>
      <trkpt lat="47.54477" lon="16.05823">
        <ele>777.068283</ele>
        <time>2026-07-07T16:36:28.000Z</time>
      </trkpt>
      <trkpt lat="47.54476" lon="16.05821">
        <ele>777.202994</ele>
        <time>2026-07-07T16:36:29.000Z</time>
      </trkpt>
      <trkpt lat="47.54476" lon="16.05819">
        <ele>777.333926</ele>
        <time>2026-07-07T16:36:30.000Z</time>
      </trkpt>
      <trkpt lat="47.54475" lon="16.05817">
        <ele>777.482191</ele>
        <time>2026-07-07T16:36:31.000Z</time>
      </trkpt>
      <trkpt lat="47.54474" lon="16.05816">
        <ele>777.623894</ele>
        <time>2026-07-07T16:36:32.000Z</time>
      </trkpt>
      <trkpt lat="47.54473" lon="16.05814">
        <ele>777.751876</ele>
        <time>2026-07-07T16:36:33.000Z</time>
      </trkpt>
      <trkpt lat="47.54473" lon="16.05812">
        <ele>777.884814</ele>
        <time>2026-07-07T16:36:34.000Z</time>
      </trkpt>
      <trkpt lat="47.54473" lon="16.0581">
        <ele>778.019524</ele>
        <time>2026-07-07T16:36:35.000Z</time>
      </trkpt>
      <trkpt lat="47.54473" lon="16.05808">
        <ele>778.151027</ele>
        <time>2026-07-07T16:36:36.000Z</time>
      </trkpt>
      <trkpt lat="47.54473" lon="16.05806">
        <ele>778.285112</ele>
        <time>2026-07-07T16:36:37.000Z</time>
      </trkpt>
      <trkpt lat="47.54472" lon="16.05804">
        <ele>778.438395</ele>
        <time>2026-07-07T16:36:38.000Z</time>
      </trkpt>
      <trkpt lat="47.54471" lon="16.05802">
        <ele>778.593233</ele>
        <time>2026-07-07T16:36:39.000Z</time>
      </trkpt>
      <trkpt lat="47.5447" lon="16.058">
        <ele>778.756882</ele>
        <time>2026-07-07T16:36:40.000Z</time>
      </trkpt>
      <trkpt lat="47.54469" lon="16.05798">
        <ele>778.914928</ele>
        <time>2026-07-07T16:36:41.000Z</time>
      </trkpt>
      <trkpt lat="47.54469" lon="16.05796">
        <ele>779.049639</ele>
        <time>2026-07-07T16:36:42.000Z</time>
      </trkpt>
      <trkpt lat="47.54468" lon="16.05794">
        <ele>779.184349</ele>
        <time>2026-07-07T16:36:43.000Z</time>
      </trkpt>
      <trkpt lat="47.54468" lon="16.05793">
        <ele>779.30895</ele>
        <time>2026-07-07T16:36:44.000Z</time>
      </trkpt>
      <trkpt lat="47.54468" lon="16.0579">
        <ele>779.456526</ele>
        <time>2026-07-07T16:36:45.000Z</time>
      </trkpt>
      <trkpt lat="47.54467" lon="16.05789">
        <ele>779.584507</ele>
        <time>2026-07-07T16:36:46.000Z</time>
      </trkpt>
      <trkpt lat="47.54467" lon="16.05787">
        <ele>779.72474</ele>
        <time>2026-07-07T16:36:47.000Z</time>
      </trkpt>
      <trkpt lat="47.54466" lon="16.05785">
        <ele>779.855672</ele>
        <time>2026-07-07T16:36:48.000Z</time>
      </trkpt>
      <trkpt lat="47.54465" lon="16.05783">
        <ele>779.987669</ele>
        <time>2026-07-07T16:36:49.000Z</time>
      </trkpt>
      <trkpt lat="47.54465" lon="16.05781">
        <ele>780.124258</ele>
        <time>2026-07-07T16:36:50.000Z</time>
      </trkpt>
      <trkpt lat="47.54464" lon="16.0578">
        <ele>780.260517</ele>
        <time>2026-07-07T16:36:51.000Z</time>
      </trkpt>
      <trkpt lat="47.54463" lon="16.05778">
        <ele>780.408647</ele>
        <time>2026-07-07T16:36:52.000Z</time>
      </trkpt>
      <trkpt lat="47.54462" lon="16.05776">
        <ele>780.556776</ele>
        <time>2026-07-07T16:36:53.000Z</time>
      </trkpt>
      <trkpt lat="47.54462" lon="16.05774">
        <ele>780.684758</ele>
        <time>2026-07-07T16:36:54.000Z</time>
      </trkpt>
      <trkpt lat="47.54462" lon="16.05772">
        <ele>780.819468</ele>
        <time>2026-07-07T16:36:55.000Z</time>
      </trkpt>
      <trkpt lat="47.54461" lon="16.0577">
        <ele>780.954179</ele>
        <time>2026-07-07T16:36:56.000Z</time>
      </trkpt>
      <trkpt lat="47.54461" lon="16.05768">
        <ele>781.088265</ele>
        <time>2026-07-07T16:36:57.000Z</time>
      </trkpt>
      <trkpt lat="47.5446" lon="16.05766">
        <ele>781.216247</ele>
        <time>2026-07-07T16:36:58.000Z</time>
      </trkpt>
      <trkpt lat="47.5446" lon="16.05764">
        <ele>781.344229</ele>
        <time>2026-07-07T16:36:59.000Z</time>
      </trkpt>
      <trkpt lat="47.54459" lon="16.05762">
        <ele>781.486553</ele>
        <time>2026-07-07T16:37:00.000Z</time>
      </trkpt>
      <trkpt lat="47.54459" lon="16.0576">
        <ele>781.621264</ele>
        <time>2026-07-07T16:37:01.000Z</time>
      </trkpt>
      <trkpt lat="47.54458" lon="16.05758">
        <ele>781.758418</ele>
        <time>2026-07-07T16:37:02.000Z</time>
      </trkpt>
      <trkpt lat="47.54458" lon="16.05756">
        <ele>781.893129</ele>
        <time>2026-07-07T16:37:03.000Z</time>
      </trkpt>
      <trkpt lat="47.54458" lon="16.05754">
        <ele>782.02784</ele>
        <time>2026-07-07T16:37:04.000Z</time>
      </trkpt>
      <trkpt lat="47.54458" lon="16.05752">
        <ele>782.160778</ele>
        <time>2026-07-07T16:37:05.000Z</time>
      </trkpt>
      <trkpt lat="47.54457" lon="16.05751">
        <ele>782.276707</ele>
        <time>2026-07-07T16:37:06.000Z</time>
      </trkpt>
      <trkpt lat="47.54457" lon="16.05749">
        <ele>782.410793</ele>
        <time>2026-07-07T16:37:07.000Z</time>
      </trkpt>
      <trkpt lat="47.54456" lon="16.05747">
        <ele>782.545504</ele>
        <time>2026-07-07T16:37:08.000Z</time>
      </trkpt>
      <trkpt lat="47.54456" lon="16.05745">
        <ele>782.688974</ele>
        <time>2026-07-07T16:37:09.000Z</time>
      </trkpt>
      <trkpt lat="47.54456" lon="16.05743">
        <ele>782.814281</ele>
        <time>2026-07-07T16:37:10.000Z</time>
      </trkpt>
      <trkpt lat="47.54456" lon="16.05741">
        <ele>782.953727</ele>
        <time>2026-07-07T16:37:11.000Z</time>
      </trkpt>
      <trkpt lat="47.54455" lon="16.05739">
        <ele>783.082027</ele>
        <time>2026-07-07T16:37:12.000Z</time>
      </trkpt>
      <trkpt lat="47.54455" lon="16.05737">
        <ele>783.219181</ele>
        <time>2026-07-07T16:37:13.000Z</time>
      </trkpt>
      <trkpt lat="47.54455" lon="16.05735">
        <ele>783.353892</ele>
        <time>2026-07-07T16:37:14.000Z</time>
      </trkpt>
      <trkpt lat="47.54454" lon="16.05733">
        <ele>783.488603</ele>
        <time>2026-07-07T16:37:15.000Z</time>
      </trkpt>
      <trkpt lat="47.54454" lon="16.05731">
        <ele>783.616585</ele>
        <time>2026-07-07T16:37:16.000Z</time>
      </trkpt>
      <trkpt lat="47.54453" lon="16.05729">
        <ele>783.753739</ele>
        <time>2026-07-07T16:37:17.000Z</time>
      </trkpt>
      <trkpt lat="47.54453" lon="16.05727">
        <ele>783.885603</ele>
        <time>2026-07-07T16:37:18.000Z</time>
      </trkpt>
      <trkpt lat="47.54453" lon="16.05725">
        <ele>784.005548</ele>
        <time>2026-07-07T16:37:19.000Z</time>
      </trkpt>
      <trkpt lat="47.54453" lon="16.05723">
        <ele>784.138487</ele>
        <time>2026-07-07T16:37:20.000Z</time>
      </trkpt>
      <trkpt lat="47.54452" lon="16.05721">
        <ele>784.272573</ele>
        <time>2026-07-07T16:37:21.000Z</time>
      </trkpt>
      <trkpt lat="47.54452" lon="16.0572">
        <ele>784.392919</ele>
        <time>2026-07-07T16:37:22.000Z</time>
      </trkpt>
      <trkpt lat="47.54451" lon="16.05718">
        <ele>784.545538</ele>
        <time>2026-07-07T16:37:23.000Z</time>
      </trkpt>
      <trkpt lat="47.5445" lon="16.05716">
        <ele>784.687241</ele>
        <time>2026-07-07T16:37:24.000Z</time>
      </trkpt>
      <trkpt lat="47.54449" lon="16.05714">
        <ele>784.823831</ele>
        <time>2026-07-07T16:37:25.000Z</time>
      </trkpt>
      <trkpt lat="47.54449" lon="16.05712">
        <ele>784.961754</ele>
        <time>2026-07-07T16:37:26.000Z</time>
      </trkpt>
      <trkpt lat="47.54448" lon="16.0571">
        <ele>785.101986</ele>
        <time>2026-07-07T16:37:27.000Z</time>
      </trkpt>
      <trkpt lat="47.54448" lon="16.05708">
        <ele>785.242219</ele>
        <time>2026-07-07T16:37:28.000Z</time>
      </trkpt>
      <trkpt lat="47.54447" lon="16.05707">
        <ele>785.366821</ele>
        <time>2026-07-07T16:37:29.000Z</time>
      </trkpt>
      <trkpt lat="47.54447" lon="16.05705">
        <ele>785.498684</ele>
        <time>2026-07-07T16:37:30.000Z</time>
      </trkpt>
      <trkpt lat="47.54447" lon="16.05703">
        <ele>785.630187</ele>
        <time>2026-07-07T16:37:31.000Z</time>
      </trkpt>
      <trkpt lat="47.54447" lon="16.05701">
        <ele>785.748941</ele>
        <time>2026-07-07T16:37:32.000Z</time>
      </trkpt>
      <trkpt lat="47.54448" lon="16.05699">
        <ele>785.875379</ele>
        <time>2026-07-07T16:37:33.000Z</time>
      </trkpt>
      <trkpt lat="47.54448" lon="16.05697">
        <ele>786.006882</ele>
        <time>2026-07-07T16:37:34.000Z</time>
      </trkpt>
      <trkpt lat="47.54448" lon="16.05695">
        <ele>786.112085</ele>
        <time>2026-07-07T16:37:35.000Z</time>
      </trkpt>
      <trkpt lat="47.54447" lon="16.05693">
        <ele>786.240385</ele>
        <time>2026-07-07T16:37:36.000Z</time>
      </trkpt>
      <trkpt lat="47.54447" lon="16.05692">
        <ele>786.368367</ele>
        <time>2026-07-07T16:37:37.000Z</time>
      </trkpt>
      <trkpt lat="47.54446" lon="16.0569">
        <ele>786.499301</ele>
        <time>2026-07-07T16:37:38.000Z</time>
      </trkpt>
      <trkpt lat="47.54445" lon="16.05688">
        <ele>786.63589</ele>
        <time>2026-07-07T16:37:39.000Z</time>
      </trkpt>
      <trkpt lat="47.54445" lon="16.05686">
        <ele>786.767887</ele>
        <time>2026-07-07T16:37:40.000Z</time>
      </trkpt>
      <trkpt lat="47.54444" lon="16.05684">
        <ele>786.910212</ele>
        <time>2026-07-07T16:37:41.000Z</time>
      </trkpt>
      <trkpt lat="47.54444" lon="16.05683">
        <ele>787.038194</ele>
        <time>2026-07-07T16:37:42.000Z</time>
      </trkpt>
      <trkpt lat="47.54443" lon="16.05681">
        <ele>787.172905</ele>
        <time>2026-07-07T16:37:43.000Z</time>
      </trkpt>
      <trkpt lat="47.54443" lon="16.05679">
        <ele>787.291258</ele>
        <time>2026-07-07T16:37:44.000Z</time>
      </trkpt>
      <trkpt lat="47.54443" lon="16.05677">
        <ele>787.416187</ele>
        <time>2026-07-07T16:37:45.000Z</time>
      </trkpt>
      <trkpt lat="47.54443" lon="16.05675">
        <ele>787.53494</ele>
        <time>2026-07-07T16:37:46.000Z</time>
      </trkpt>
      <trkpt lat="47.54444" lon="16.05673">
        <ele>787.672094</ele>
        <time>2026-07-07T16:37:47.000Z</time>
      </trkpt>
      <trkpt lat="47.54444" lon="16.05671">
        <ele>787.790847</ele>
        <time>2026-07-07T16:37:48.000Z</time>
      </trkpt>
      <trkpt lat="47.54444" lon="16.05669">
        <ele>787.923786</ele>
        <time>2026-07-07T16:37:49.000Z</time>
      </trkpt>
      <trkpt lat="47.54444" lon="16.05667">
        <ele>788.056724</ele>
        <time>2026-07-07T16:37:50.000Z</time>
      </trkpt>
      <trkpt lat="47.54443" lon="16.05665">
        <ele>788.194648</ele>
        <time>2026-07-07T16:37:51.000Z</time>
      </trkpt>
      <trkpt lat="47.54443" lon="16.05664">
        <ele>788.320015</ele>
        <time>2026-07-07T16:37:52.000Z</time>
      </trkpt>
      <trkpt lat="47.54442" lon="16.05662">
        <ele>788.466643</ele>
        <time>2026-07-07T16:37:53.000Z</time>
      </trkpt>
      <trkpt lat="47.54441" lon="16.0566">
        <ele>788.594728</ele>
        <time>2026-07-07T16:37:54.000Z</time>
      </trkpt>
      <trkpt lat="47.54441" lon="16.05658">
        <ele>788.716152</ele>
        <time>2026-07-07T16:37:55.000Z</time>
      </trkpt>
      <trkpt lat="47.54441" lon="16.05656">
        <ele>788.836264</ele>
        <time>2026-07-07T16:37:56.000Z</time>
      </trkpt>
      <trkpt lat="47.54441" lon="16.05654">
        <ele>788.969581</ele>
        <time>2026-07-07T16:37:57.000Z</time>
      </trkpt>
      <trkpt lat="47.54441" lon="16.05652">
        <ele>789.096948</ele>
        <time>2026-07-07T16:37:58.000Z</time>
      </trkpt>
      <trkpt lat="47.54441" lon="16.0565">
        <ele>789.211402</ele>
        <time>2026-07-07T16:37:59.000Z</time>
      </trkpt>
      <trkpt lat="47.54442" lon="16.05648">
        <ele>789.320958</ele>
        <time>2026-07-07T16:38:00.000Z</time>
      </trkpt>
      <trkpt lat="47.54441" lon="16.05646">
        <ele>789.442381</ele>
        <time>2026-07-07T16:38:01.000Z</time>
      </trkpt>
      <trkpt lat="47.54441" lon="16.05644">
        <ele>789.562945</ele>
        <time>2026-07-07T16:38:02.000Z</time>
      </trkpt>
      <trkpt lat="47.5444" lon="16.05643">
        <ele>789.710667</ele>
        <time>2026-07-07T16:38:03.000Z</time>
      </trkpt>
      <trkpt lat="47.54439" lon="16.05641">
        <ele>789.835124</ele>
        <time>2026-07-07T16:38:04.000Z</time>
      </trkpt>
      <trkpt lat="47.54438" lon="16.05639">
        <ele>789.975782</ele>
        <time>2026-07-07T16:38:05.000Z</time>
      </trkpt>
      <trkpt lat="47.54438" lon="16.05637">
        <ele>790.109099</ele>
        <time>2026-07-07T16:38:06.000Z</time>
      </trkpt>
      <trkpt lat="47.54438" lon="16.05635">
        <ele>790.229211</ele>
        <time>2026-07-07T16:38:07.000Z</time>
      </trkpt>
      <trkpt lat="47.54438" lon="16.05633">
        <ele>790.349653</ele>
        <time>2026-07-07T16:38:08.000Z</time>
      </trkpt>
      <trkpt lat="47.54438" lon="16.0563">
        <ele>790.48297</ele>
        <time>2026-07-07T16:38:09.000Z</time>
      </trkpt>
      <trkpt lat="47.54438" lon="16.05628">
        <ele>790.603082</ele>
        <time>2026-07-07T16:38:10.000Z</time>
      </trkpt>
      <trkpt lat="47.54438" lon="16.05626">
        <ele>790.729201</ele>
        <time>2026-07-07T16:38:11.000Z</time>
      </trkpt>
      <trkpt lat="47.54438" lon="16.05624">
        <ele>790.850624</ele>
        <time>2026-07-07T16:38:12.000Z</time>
      </trkpt>
      <trkpt lat="47.54438" lon="16.05622">
        <ele>790.970737</ele>
        <time>2026-07-07T16:38:13.000Z</time>
      </trkpt>
      <trkpt lat="47.54438" lon="16.0562">
        <ele>791.084844</ele>
        <time>2026-07-07T16:38:14.000Z</time>
      </trkpt>
      <trkpt lat="47.54437" lon="16.05618">
        <ele>791.215887</ele>
        <time>2026-07-07T16:38:15.000Z</time>
      </trkpt>
      <trkpt lat="47.54437" lon="16.05616">
        <ele>791.343973</ele>
        <time>2026-07-07T16:38:16.000Z</time>
      </trkpt>
      <trkpt lat="47.54436" lon="16.05614">
        <ele>791.483591</ele>
        <time>2026-07-07T16:38:17.000Z</time>
      </trkpt>
      <trkpt lat="47.54436" lon="16.05613">
        <ele>791.589118</ele>
        <time>2026-07-07T16:38:18.000Z</time>
      </trkpt>
      <trkpt lat="47.54435" lon="16.05611">
        <ele>791.678975</ele>
        <time>2026-07-07T16:38:19.000Z</time>
      </trkpt>
      <trkpt lat="47.54435" lon="16.0561">
        <ele>791.788492</ele>
        <time>2026-07-07T16:38:20.000Z</time>
      </trkpt>
      <trkpt lat="47.54434" lon="16.05608">
        <ele>791.899858</ele>
        <time>2026-07-07T16:38:21.000Z</time>
      </trkpt>
      <trkpt lat="47.54434" lon="16.05606">
        <ele>792.009414</ele>
        <time>2026-07-07T16:38:22.000Z</time>
      </trkpt>
      <trkpt lat="47.54434" lon="16.05604">
        <ele>792.129527</ele>
        <time>2026-07-07T16:38:23.000Z</time>
      </trkpt>
      <trkpt lat="47.54434" lon="16.05602">
        <ele>792.24964</ele>
        <time>2026-07-07T16:38:24.000Z</time>
      </trkpt>
      <trkpt lat="47.54434" lon="16.056">
        <ele>792.363747</ele>
        <time>2026-07-07T16:38:25.000Z</time>
      </trkpt>
      <trkpt lat="47.54434" lon="16.05599">
        <ele>792.459837</ele>
        <time>2026-07-07T16:38:26.000Z</time>
      </trkpt>
      <trkpt lat="47.54434" lon="16.05597">
        <ele>792.574291</ele>
        <time>2026-07-07T16:38:27.000Z</time>
      </trkpt>
      <trkpt lat="47.54434" lon="16.05595">
        <ele>792.682392</ele>
        <time>2026-07-07T16:38:28.000Z</time>
      </trkpt>
      <trkpt lat="47.54434" lon="16.05593">
        <ele>792.791948</ele>
        <time>2026-07-07T16:38:29.000Z</time>
      </trkpt>
      <trkpt lat="47.54433" lon="16.05592">
        <ele>792.895583</ele>
        <time>2026-07-07T16:38:30.000Z</time>
      </trkpt>
      <trkpt lat="47.54433" lon="16.0559">
        <ele>793.015696</ele>
        <time>2026-07-07T16:38:31.000Z</time>
      </trkpt>
      <trkpt lat="47.54433" lon="16.05588">
        <ele>793.136138</ele>
        <time>2026-07-07T16:38:32.000Z</time>
      </trkpt>
      <trkpt lat="47.54433" lon="16.05586">
        <ele>793.257561</ele>
        <time>2026-07-07T16:38:33.000Z</time>
      </trkpt>
      <trkpt lat="47.54433" lon="16.05584">
        <ele>793.378985</ele>
        <time>2026-07-07T16:38:34.000Z</time>
      </trkpt>
      <trkpt lat="47.54433" lon="16.05582">
        <ele>793.488541</ele>
        <time>2026-07-07T16:38:35.000Z</time>
      </trkpt>
      <trkpt lat="47.54433" lon="16.0558">
        <ele>793.602648</ele>
        <time>2026-07-07T16:38:36.000Z</time>
      </trkpt>
      <trkpt lat="47.54433" lon="16.05578">
        <ele>793.700372</ele>
        <time>2026-07-07T16:38:37.000Z</time>
      </trkpt>
      <trkpt lat="47.54433" lon="16.05577">
        <ele>793.804007</ele>
        <time>2026-07-07T16:38:38.000Z</time>
      </trkpt>
      <trkpt lat="47.54433" lon="16.05575">
        <ele>793.913563</ele>
        <time>2026-07-07T16:38:39.000Z</time>
      </trkpt>
      <trkpt lat="47.54433" lon="16.05573">
        <ele>794.036606</ele>
        <time>2026-07-07T16:38:40.000Z</time>
      </trkpt>
      <trkpt lat="47.54432" lon="16.05571">
        <ele>794.171399</ele>
        <time>2026-07-07T16:38:41.000Z</time>
      </trkpt>
      <trkpt lat="47.54432" lon="16.05569">
        <ele>794.296673</ele>
        <time>2026-07-07T16:38:42.000Z</time>
      </trkpt>
      <trkpt lat="47.54432" lon="16.05567">
        <ele>794.419716</ele>
        <time>2026-07-07T16:38:43.000Z</time>
      </trkpt>
      <trkpt lat="47.54432" lon="16.05565">
        <ele>794.539829</ele>
        <time>2026-07-07T16:38:44.000Z</time>
      </trkpt>
      <trkpt lat="47.54432" lon="16.05563">
        <ele>794.661252</ele>
        <time>2026-07-07T16:38:45.000Z</time>
      </trkpt>
      <trkpt lat="47.54432" lon="16.05561">
        <ele>794.769719</ele>
        <time>2026-07-07T16:38:46.000Z</time>
      </trkpt>
      <trkpt lat="47.54432" lon="16.05559">
        <ele>794.889832</ele>
        <time>2026-07-07T16:38:47.000Z</time>
      </trkpt>
      <trkpt lat="47.54432" lon="16.05557">
        <ele>795.009945</ele>
        <time>2026-07-07T16:38:48.000Z</time>
      </trkpt>
      <trkpt lat="47.54432" lon="16.05555">
        <ele>795.143262</ele>
        <time>2026-07-07T16:38:49.000Z</time>
      </trkpt>
      <trkpt lat="47.54432" lon="16.05552">
        <ele>795.275386</ele>
        <time>2026-07-07T16:38:50.000Z</time>
      </trkpt>
      <trkpt lat="47.54432" lon="16.0555">
        <ele>795.395499</ele>
        <time>2026-07-07T16:38:51.000Z</time>
      </trkpt>
      <trkpt lat="47.54432" lon="16.05548">
        <ele>795.521617</ele>
        <time>2026-07-07T16:38:52.000Z</time>
      </trkpt>
      <trkpt lat="47.54432" lon="16.05546">
        <ele>795.65641</ele>
        <time>2026-07-07T16:38:53.000Z</time>
      </trkpt>
      <trkpt lat="47.54432" lon="16.05544">
        <ele>795.788535</ele>
        <time>2026-07-07T16:38:54.000Z</time>
      </trkpt>
      <trkpt lat="47.54432" lon="16.05542">
        <ele>795.915902</ele>
        <time>2026-07-07T16:38:55.000Z</time>
      </trkpt>
      <trkpt lat="47.54432" lon="16.0554">
        <ele>796.036015</ele>
        <time>2026-07-07T16:38:56.000Z</time>
      </trkpt>
      <trkpt lat="47.54432" lon="16.05538">
        <ele>796.157439</ele>
        <time>2026-07-07T16:38:57.000Z</time>
      </trkpt>
      <trkpt lat="47.54432" lon="16.05536">
        <ele>796.271546</ele>
        <time>2026-07-07T16:38:58.000Z</time>
      </trkpt>
      <trkpt lat="47.54431" lon="16.05534">
        <ele>796.39682</ele>
        <time>2026-07-07T16:38:59.000Z</time>
      </trkpt>
      <trkpt lat="47.54431" lon="16.05532">
        <ele>796.519863</ele>
        <time>2026-07-07T16:39:00.000Z</time>
      </trkpt>
      <trkpt lat="47.54431" lon="16.0553">
        <ele>796.639975</ele>
        <time>2026-07-07T16:39:01.000Z</time>
      </trkpt>
      <trkpt lat="47.54431" lon="16.05528">
        <ele>796.779247</ele>
        <time>2026-07-07T16:39:02.000Z</time>
      </trkpt>
      <trkpt lat="47.54431" lon="16.05525">
        <ele>796.917376</ele>
        <time>2026-07-07T16:39:03.000Z</time>
      </trkpt>
      <trkpt lat="47.54431" lon="16.05523">
        <ele>797.061512</ele>
        <time>2026-07-07T16:39:04.000Z</time>
      </trkpt>
      <trkpt lat="47.54431" lon="16.05521">
        <ele>797.200783</ele>
        <time>2026-07-07T16:39:05.000Z</time>
      </trkpt>
      <trkpt lat="47.54432" lon="16.05519">
        <ele>797.31768</ele>
        <time>2026-07-07T16:39:06.000Z</time>
      </trkpt>
      <trkpt lat="47.54432" lon="16.05517">
        <ele>797.434867</ele>
        <time>2026-07-07T16:39:07.000Z</time>
      </trkpt>
      <trkpt lat="47.54432" lon="16.05515">
        <ele>797.540755</ele>
        <time>2026-07-07T16:39:08.000Z</time>
      </trkpt>
      <trkpt lat="47.54433" lon="16.05513">
        <ele>797.677588</ele>
        <time>2026-07-07T16:39:09.000Z</time>
      </trkpt>
      <trkpt lat="47.54433" lon="16.05511">
        <ele>797.79803</ele>
        <time>2026-07-07T16:39:10.000Z</time>
      </trkpt>
      <trkpt lat="47.54433" lon="16.05509">
        <ele>797.948171</ele>
        <time>2026-07-07T16:39:11.000Z</time>
      </trkpt>
      <trkpt lat="47.54433" lon="16.05506">
        <ele>798.081488</ele>
        <time>2026-07-07T16:39:12.000Z</time>
      </trkpt>
      <trkpt lat="47.54434" lon="16.05504">
        <ele>798.226604</ele>
        <time>2026-07-07T16:39:13.000Z</time>
      </trkpt>
      <trkpt lat="47.54434" lon="16.05502">
        <ele>798.337952</ele>
        <time>2026-07-07T16:39:14.000Z</time>
      </trkpt>
      <trkpt lat="47.54434" lon="16.055">
        <ele>798.474785</ele>
        <time>2026-07-07T16:39:15.000Z</time>
      </trkpt>
      <trkpt lat="47.54434" lon="16.05498">
        <ele>798.6132</ele>
        <time>2026-07-07T16:39:16.000Z</time>
      </trkpt>
      <trkpt lat="47.54435" lon="16.05496">
        <ele>798.738474</ele>
        <time>2026-07-07T16:39:17.000Z</time>
      </trkpt>
      <trkpt lat="47.54435" lon="16.05494">
        <ele>798.852928</ele>
        <time>2026-07-07T16:39:18.000Z</time>
      </trkpt>
      <trkpt lat="47.54435" lon="16.05492">
        <ele>798.995568</ele>
        <time>2026-07-07T16:39:19.000Z</time>
      </trkpt>
      <trkpt lat="47.54435" lon="16.05489">
        <ele>799.127992</ele>
        <time>2026-07-07T16:39:20.000Z</time>
      </trkpt>
      <trkpt lat="47.54435" lon="16.05487">
        <ele>799.278133</ele>
        <time>2026-07-07T16:39:21.000Z</time>
      </trkpt>
      <trkpt lat="47.54435" lon="16.05485">
        <ele>799.416262</ele>
        <time>2026-07-07T16:39:22.000Z</time>
      </trkpt>
      <trkpt lat="47.54436" lon="16.05482">
        <ele>799.555533</ele>
        <time>2026-07-07T16:39:23.000Z</time>
      </trkpt>
      <trkpt lat="47.54436" lon="16.0548">
        <ele>799.706725</ele>
        <time>2026-07-07T16:39:24.000Z</time>
      </trkpt>
      <trkpt lat="47.54436" lon="16.05477">
        <ele>799.851134</ele>
        <time>2026-07-07T16:39:25.000Z</time>
      </trkpt>
      <trkpt lat="47.54436" lon="16.05475">
        <ele>800.011285</ele>
        <time>2026-07-07T16:39:26.000Z</time>
      </trkpt>
      <trkpt lat="47.54436" lon="16.05472">
        <ele>800.185676</ele>
        <time>2026-07-07T16:39:27.000Z</time>
      </trkpt>
      <trkpt lat="47.54437" lon="16.05469">
        <ele>800.339977</ele>
        <time>2026-07-07T16:39:28.000Z</time>
      </trkpt>
      <trkpt lat="47.54437" lon="16.05467">
        <ele>800.492472</ele>
        <time>2026-07-07T16:39:29.000Z</time>
      </trkpt>
      <trkpt lat="47.54437" lon="16.05465">
        <ele>800.633156</ele>
        <time>2026-07-07T16:39:30.000Z</time>
      </trkpt>
      <trkpt lat="47.54438" lon="16.05462">
        <ele>800.775797</ele>
        <time>2026-07-07T16:39:31.000Z</time>
      </trkpt>
      <trkpt lat="47.54438" lon="16.0546">
        <ele>800.926641</ele>
        <time>2026-07-07T16:39:32.000Z</time>
      </trkpt>
      <trkpt lat="47.54438" lon="16.05457">
        <ele>801.077045</ele>
        <time>2026-07-07T16:39:33.000Z</time>
      </trkpt>
      <trkpt lat="47.54439" lon="16.05455">
        <ele>801.219685</ele>
        <time>2026-07-07T16:39:34.000Z</time>
      </trkpt>
      <trkpt lat="47.54439" lon="16.05453">
        <ele>801.358101</ele>
        <time>2026-07-07T16:39:35.000Z</time>
      </trkpt>
      <trkpt lat="47.54439" lon="16.0545">
        <ele>801.50333</ele>
        <time>2026-07-07T16:39:36.000Z</time>
      </trkpt>
      <trkpt lat="47.54439" lon="16.05448">
        <ele>801.644015</ele>
        <time>2026-07-07T16:39:37.000Z</time>
      </trkpt>
      <trkpt lat="47.5444" lon="16.05446">
        <ele>801.795535</ele>
        <time>2026-07-07T16:39:38.000Z</time>
      </trkpt>
      <trkpt lat="47.54441" lon="16.05443">
        <ele>801.95255</ele>
        <time>2026-07-07T16:39:39.000Z</time>
      </trkpt>
      <trkpt lat="47.54441" lon="16.05441">
        <ele>802.097666</ele>
        <time>2026-07-07T16:39:40.000Z</time>
      </trkpt>
      <trkpt lat="47.54442" lon="16.05439">
        <ele>802.240166</ele>
        <time>2026-07-07T16:39:41.000Z</time>
      </trkpt>
      <trkpt lat="47.54442" lon="16.05437">
        <ele>802.382807</ele>
        <time>2026-07-07T16:39:42.000Z</time>
      </trkpt>
      <trkpt lat="47.54443" lon="16.05434">
        <ele>802.523491</ele>
        <time>2026-07-07T16:39:43.000Z</time>
      </trkpt>
      <trkpt lat="47.54443" lon="16.05432">
        <ele>802.669558</ele>
        <time>2026-07-07T16:39:44.000Z</time>
      </trkpt>
      <trkpt lat="47.54444" lon="16.0543">
        <ele>802.808969</ele>
        <time>2026-07-07T16:39:45.000Z</time>
      </trkpt>
      <trkpt lat="47.54444" lon="16.05428">
        <ele>802.937881</ele>
        <time>2026-07-07T16:39:46.000Z</time>
      </trkpt>
      <trkpt lat="47.54444" lon="16.05425">
        <ele>803.084466</ele>
        <time>2026-07-07T16:39:47.000Z</time>
      </trkpt>
      <trkpt lat="47.54445" lon="16.05423">
        <ele>803.211834</ele>
        <time>2026-07-07T16:39:48.000Z</time>
      </trkpt>
      <trkpt lat="47.54445" lon="16.05421">
        <ele>803.334876</ele>
        <time>2026-07-07T16:39:49.000Z</time>
      </trkpt>
      <trkpt lat="47.54445" lon="16.05419">
        <ele>803.454988</ele>
        <time>2026-07-07T16:39:50.000Z</time>
      </trkpt>
      <trkpt lat="47.54445" lon="16.05417">
        <ele>803.57543</ele>
        <time>2026-07-07T16:39:51.000Z</time>
      </trkpt>
      <trkpt lat="47.54445" lon="16.05415">
        <ele>803.696853</ele>
        <time>2026-07-07T16:39:52.000Z</time>
      </trkpt>
      <trkpt lat="47.54445" lon="16.05413">
        <ele>803.818277</ele>
        <time>2026-07-07T16:39:53.000Z</time>
      </trkpt>
      <trkpt lat="47.54445" lon="16.05411">
        <ele>803.946362</ele>
        <time>2026-07-07T16:39:54.000Z</time>
      </trkpt>
      <trkpt lat="47.54446" lon="16.05409">
        <ele>804.069405</ele>
        <time>2026-07-07T16:39:55.000Z</time>
      </trkpt>
      <trkpt lat="47.54446" lon="16.05407">
        <ele>804.19749</ele>
        <time>2026-07-07T16:39:56.000Z</time>
      </trkpt>
      <trkpt lat="47.54447" lon="16.05405">
        <ele>804.332789</ele>
        <time>2026-07-07T16:39:57.000Z</time>
      </trkpt>
      <trkpt lat="47.54447" lon="16.05403">
        <ele>804.456572</ele>
        <time>2026-07-07T16:39:58.000Z</time>
      </trkpt>
      <trkpt lat="47.54447" lon="16.05401">
        <ele>804.600797</ele>
        <time>2026-07-07T16:39:59.000Z</time>
      </trkpt>
      <trkpt lat="47.54448" lon="16.05399">
        <ele>804.760901</ele>
        <time>2026-07-07T16:40:00.000Z</time>
      </trkpt>
      <trkpt lat="47.54448" lon="16.05397">
        <ele>804.893157</ele>
        <time>2026-07-07T16:40:01.000Z</time>
      </trkpt>
      <trkpt lat="47.54448" lon="16.05395">
        <ele>805.041955</ele>
        <time>2026-07-07T16:40:02.000Z</time>
      </trkpt>
      <trkpt lat="47.54448" lon="16.05393">
        <ele>805.184622</ele>
        <time>2026-07-07T16:40:03.000Z</time>
      </trkpt>
      <trkpt lat="47.54448" lon="16.05391">
        <ele>805.328846</ele>
        <time>2026-07-07T16:40:04.000Z</time>
      </trkpt>
      <trkpt lat="47.54448" lon="16.05389">
        <ele>805.466018</ele>
        <time>2026-07-07T16:40:05.000Z</time>
      </trkpt>
      <trkpt lat="47.54448" lon="16.05387">
        <ele>805.615818</ele>
        <time>2026-07-07T16:40:06.000Z</time>
      </trkpt>
      <trkpt lat="47.54448" lon="16.05385">
        <ele>805.772752</ele>
        <time>2026-07-07T16:40:07.000Z</time>
      </trkpt>
      <trkpt lat="47.54448" lon="16.05383">
        <ele>805.916976</ele>
        <time>2026-07-07T16:40:08.000Z</time>
      </trkpt>
      <trkpt lat="47.54448" lon="16.05381">
        <ele>806.059643</ele>
        <time>2026-07-07T16:40:09.000Z</time>
      </trkpt>
      <trkpt lat="47.54448" lon="16.05379">
        <ele>806.203868</ele>
        <time>2026-07-07T16:40:10.000Z</time>
      </trkpt>
      <trkpt lat="47.54448" lon="16.05377">
        <ele>806.346535</ele>
        <time>2026-07-07T16:40:11.000Z</time>
      </trkpt>
      <trkpt lat="47.54448" lon="16.05375">
        <ele>806.475369</ele>
        <time>2026-07-07T16:40:12.000Z</time>
      </trkpt>
      <trkpt lat="47.54449" lon="16.05373">
        <ele>806.627507</ele>
        <time>2026-07-07T16:40:13.000Z</time>
      </trkpt>
      <trkpt lat="47.5445" lon="16.05372">
        <ele>806.769555</ele>
        <time>2026-07-07T16:40:14.000Z</time>
      </trkpt>
      <trkpt lat="47.5445" lon="16.0537">
        <ele>806.917383</ele>
        <time>2026-07-07T16:40:15.000Z</time>
      </trkpt>
      <trkpt lat="47.54451" lon="16.05368">
        <ele>807.05623</ele>
        <time>2026-07-07T16:40:16.000Z</time>
      </trkpt>
      <trkpt lat="47.54451" lon="16.05366">
        <ele>807.205027</ele>
        <time>2026-07-07T16:40:17.000Z</time>
      </trkpt>
      <trkpt lat="47.54452" lon="16.05364">
        <ele>807.337283</ele>
        <time>2026-07-07T16:40:18.000Z</time>
      </trkpt>
      <trkpt lat="47.54452" lon="16.05362">
        <ele>807.476476</ele>
        <time>2026-07-07T16:40:19.000Z</time>
      </trkpt>
      <trkpt lat="47.54452" lon="16.0536">
        <ele>807.6207</ele>
        <time>2026-07-07T16:40:20.000Z</time>
      </trkpt>
      <trkpt lat="47.54452" lon="16.05359">
        <ele>807.750828</ele>
        <time>2026-07-07T16:40:21.000Z</time>
      </trkpt>
      <trkpt lat="47.54452" lon="16.05357">
        <ele>807.893886</ele>
        <time>2026-07-07T16:40:22.000Z</time>
      </trkpt>
      <trkpt lat="47.54452" lon="16.05355">
        <ele>808.024014</ele>
        <time>2026-07-07T16:40:23.000Z</time>
      </trkpt>
      <trkpt lat="47.54451" lon="16.05353">
        <ele>808.168238</ele>
        <time>2026-07-07T16:40:24.000Z</time>
      </trkpt>
      <trkpt lat="47.54452" lon="16.05351">
        <ele>808.30541</ele>
        <time>2026-07-07T16:40:25.000Z</time>
      </trkpt>
      <trkpt lat="47.54452" lon="16.05349">
        <ele>808.435538</ele>
        <time>2026-07-07T16:40:26.000Z</time>
      </trkpt>
      <trkpt lat="47.54452" lon="16.05348">
        <ele>808.559914</ele>
        <time>2026-07-07T16:40:27.000Z</time>
      </trkpt>
      <trkpt lat="47.54453" lon="16.05346">
        <ele>808.701962</ele>
        <time>2026-07-07T16:40:28.000Z</time>
      </trkpt>
      <trkpt lat="47.54454" lon="16.05344">
        <ele>808.837972</ele>
        <time>2026-07-07T16:40:29.000Z</time>
      </trkpt>
      <trkpt lat="47.54454" lon="16.05343">
        <ele>808.963314</ele>
        <time>2026-07-07T16:40:30.000Z</time>
      </trkpt>
      <trkpt lat="47.54454" lon="16.05341">
        <ele>809.093443</ele>
        <time>2026-07-07T16:40:31.000Z</time>
      </trkpt>
      <trkpt lat="47.54454" lon="16.05339">
        <ele>809.229388</ele>
        <time>2026-07-07T16:40:32.000Z</time>
      </trkpt>
      <trkpt lat="47.54454" lon="16.05337">
        <ele>809.373612</ele>
        <time>2026-07-07T16:40:33.000Z</time>
      </trkpt>
      <trkpt lat="47.54453" lon="16.05335">
        <ele>809.505868</ele>
        <time>2026-07-07T16:40:34.000Z</time>
      </trkpt>
      <trkpt lat="47.54453" lon="16.05333">
        <ele>809.634268</ele>
        <time>2026-07-07T16:40:35.000Z</time>
      </trkpt>
      <trkpt lat="47.54453" lon="16.05331">
        <ele>809.770213</ele>
        <time>2026-07-07T16:40:36.000Z</time>
      </trkpt>
      <trkpt lat="47.54454" lon="16.0533">
        <ele>809.900341</ele>
        <time>2026-07-07T16:40:37.000Z</time>
      </trkpt>
      <trkpt lat="47.54454" lon="16.05328">
        <ele>810.032598</ele>
        <time>2026-07-07T16:40:38.000Z</time>
      </trkpt>
      <trkpt lat="47.54454" lon="16.05326">
        <ele>810.17457</ele>
        <time>2026-07-07T16:40:39.000Z</time>
      </trkpt>
      <trkpt lat="47.54454" lon="16.05324">
        <ele>810.288704</ele>
        <time>2026-07-07T16:40:40.000Z</time>
      </trkpt>
      <trkpt lat="47.54454" lon="16.05322">
        <ele>810.424237</ele>
        <time>2026-07-07T16:40:41.000Z</time>
      </trkpt>
      <trkpt lat="47.54454" lon="16.05321">
        <ele>810.538859</ele>
        <time>2026-07-07T16:40:42.000Z</time>
      </trkpt>
      <trkpt lat="47.54455" lon="16.05319">
        <ele>810.661954</ele>
        <time>2026-07-07T16:40:43.000Z</time>
      </trkpt>
      <trkpt lat="47.54455" lon="16.05317">
        <ele>810.783221</ele>
        <time>2026-07-07T16:40:44.000Z</time>
      </trkpt>
      <trkpt lat="47.54455" lon="16.05316">
        <ele>810.901676</ele>
        <time>2026-07-07T16:40:45.000Z</time>
      </trkpt>
      <trkpt lat="47.54455" lon="16.05314">
        <ele>811.030099</ele>
        <time>2026-07-07T16:40:46.000Z</time>
      </trkpt>
      <trkpt lat="47.54456" lon="16.05313">
        <ele>811.141697</ele>
        <time>2026-07-07T16:40:47.000Z</time>
      </trkpt>
      <trkpt lat="47.54456" lon="16.05311">
        <ele>811.267039</ele>
        <time>2026-07-07T16:40:48.000Z</time>
      </trkpt>
      <trkpt lat="47.54456" lon="16.05309">
        <ele>811.381173</ele>
        <time>2026-07-07T16:40:49.000Z</time>
      </trkpt>
      <trkpt lat="47.54456" lon="16.05308">
        <ele>811.50244</ele>
        <time>2026-07-07T16:40:50.000Z</time>
      </trkpt>
      <trkpt lat="47.54456" lon="16.05306">
        <ele>811.632568</ele>
        <time>2026-07-07T16:40:51.000Z</time>
      </trkpt>
      <trkpt lat="47.54456" lon="16.05304">
        <ele>811.739568</ele>
        <time>2026-07-07T16:40:52.000Z</time>
      </trkpt>
      <trkpt lat="47.54456" lon="16.05303">
        <ele>811.846568</ele>
        <time>2026-07-07T16:40:53.000Z</time>
      </trkpt>
      <trkpt lat="47.54456" lon="16.05302">
        <ele>811.896501</ele>
        <time>2026-07-07T16:40:54.000Z</time>
      </trkpt>
      <trkpt lat="47.54457" lon="16.05295">
        <ele>812.438141</ele>
        <time>2026-07-07T16:41:42.000Z</time>
      </trkpt>
      <trkpt lat="47.54457" lon="16.05293">
        <ele>812.568269</ele>
        <time>2026-07-07T16:41:43.000Z</time>
      </trkpt>
      <trkpt lat="47.54457" lon="16.05291">
        <ele>812.712493</ele>
        <time>2026-07-07T16:41:44.000Z</time>
      </trkpt>
      <trkpt lat="47.54457" lon="16.05289">
        <ele>812.848438</ele>
        <time>2026-07-07T16:41:45.000Z</time>
      </trkpt>
      <trkpt lat="47.54458" lon="16.05287">
        <ele>812.992662</ele>
        <time>2026-07-07T16:41:46.000Z</time>
      </trkpt>
      <trkpt lat="47.54458" lon="16.05285">
        <ele>813.14578</ele>
        <time>2026-07-07T16:41:47.000Z</time>
      </trkpt>
      <trkpt lat="47.54458" lon="16.05283">
        <ele>813.290004</ele>
        <time>2026-07-07T16:41:48.000Z</time>
      </trkpt>
      <trkpt lat="47.54459" lon="16.05281">
        <ele>813.435473</ele>
        <time>2026-07-07T16:41:49.000Z</time>
      </trkpt>
      <trkpt lat="47.54459" lon="16.05279">
        <ele>813.596177</ele>
        <time>2026-07-07T16:41:50.000Z</time>
      </trkpt>
      <trkpt lat="47.5446" lon="16.05277">
        <ele>813.742324</ele>
        <time>2026-07-07T16:41:51.000Z</time>
      </trkpt>
      <trkpt lat="47.5446" lon="16.05275">
        <ele>813.886548</ele>
        <time>2026-07-07T16:41:52.000Z</time>
      </trkpt>
      <trkpt lat="47.5446" lon="16.05273">
        <ele>814.029215</ele>
        <time>2026-07-07T16:41:53.000Z</time>
      </trkpt>
      <trkpt lat="47.5446" lon="16.05271">
        <ele>814.158049</ele>
        <time>2026-07-07T16:41:54.000Z</time>
      </trkpt>
      <trkpt lat="47.5446" lon="16.05269">
        <ele>814.301107</ele>
        <time>2026-07-07T16:41:55.000Z</time>
      </trkpt>
      <trkpt lat="47.5446" lon="16.05267">
        <ele>814.431235</ele>
        <time>2026-07-07T16:41:56.000Z</time>
      </trkpt>
      <trkpt lat="47.5446" lon="16.05265">
        <ele>814.573902</ele>
        <time>2026-07-07T16:41:57.000Z</time>
      </trkpt>
      <trkpt lat="47.5446" lon="16.05263">
        <ele>814.732252</ele>
        <time>2026-07-07T16:41:58.000Z</time>
      </trkpt>
      <trkpt lat="47.5446" lon="16.05261">
        <ele>814.884389</ele>
        <time>2026-07-07T16:41:59.000Z</time>
      </trkpt>
      <trkpt lat="47.54461" lon="16.05259">
        <ele>815.040511</ele>
        <time>2026-07-07T16:42:00.000Z</time>
      </trkpt>
      <trkpt lat="47.54462" lon="16.05257">
        <ele>815.201216</ele>
        <time>2026-07-07T16:42:01.000Z</time>
      </trkpt>
      <trkpt lat="47.54462" lon="16.05255">
        <ele>815.347362</ele>
        <time>2026-07-07T16:42:02.000Z</time>
      </trkpt>
      <trkpt lat="47.54462" lon="16.05253">
        <ele>815.47749</ele>
        <time>2026-07-07T16:42:03.000Z</time>
      </trkpt>
      <trkpt lat="47.54462" lon="16.05251">
        <ele>815.621714</ele>
        <time>2026-07-07T16:42:04.000Z</time>
      </trkpt>
      <trkpt lat="47.54462" lon="16.05249">
        <ele>815.764381</ele>
        <time>2026-07-07T16:42:05.000Z</time>
      </trkpt>
      <trkpt lat="47.54462" lon="16.05247">
        <ele>815.899914</ele>
        <time>2026-07-07T16:42:06.000Z</time>
      </trkpt>
      <trkpt lat="47.54462" lon="16.05245">
        <ele>816.042581</ele>
        <time>2026-07-07T16:42:07.000Z</time>
      </trkpt>
      <trkpt lat="47.54462" lon="16.05244">
        <ele>816.172709</ele>
        <time>2026-07-07T16:42:08.000Z</time>
      </trkpt>
      <trkpt lat="47.54462" lon="16.05242">
        <ele>816.316933</ele>
        <time>2026-07-07T16:42:09.000Z</time>
      </trkpt>
      <trkpt lat="47.54462" lon="16.0524">
        <ele>816.45999</ele>
        <time>2026-07-07T16:42:10.000Z</time>
      </trkpt>
      <trkpt lat="47.54462" lon="16.05238">
        <ele>816.603048</ele>
        <time>2026-07-07T16:42:11.000Z</time>
      </trkpt>
      <trkpt lat="47.54462" lon="16.05236">
        <ele>816.741895</ele>
        <time>2026-07-07T16:42:12.000Z</time>
      </trkpt>
      <trkpt lat="47.54463" lon="16.05234">
        <ele>816.896302</ele>
        <time>2026-07-07T16:42:13.000Z</time>
      </trkpt>
      <trkpt lat="47.54464" lon="16.05232">
        <ele>817.032311</ele>
        <time>2026-07-07T16:42:14.000Z</time>
      </trkpt>
      <trkpt lat="47.54464" lon="16.0523">
        <ele>817.184448</ele>
        <time>2026-07-07T16:42:15.000Z</time>
      </trkpt>
      <trkpt lat="47.54464" lon="16.05228">
        <ele>817.320393</ele>
        <time>2026-07-07T16:42:16.000Z</time>
      </trkpt>
      <trkpt lat="47.54465" lon="16.05227">
        <ele>817.455572</ele>
        <time>2026-07-07T16:42:17.000Z</time>
      </trkpt>
      <trkpt lat="47.54465" lon="16.05225">
        <ele>817.601718</ele>
        <time>2026-07-07T16:42:18.000Z</time>
      </trkpt>
      <trkpt lat="47.54465" lon="16.05223">
        <ele>817.733974</ele>
        <time>2026-07-07T16:42:19.000Z</time>
      </trkpt>
      <trkpt lat="47.54466" lon="16.05221">
        <ele>817.871146</ele>
        <time>2026-07-07T16:42:20.000Z</time>
      </trkpt>
      <trkpt lat="47.54465" lon="16.05219">
        <ele>818.001273</ele>
        <time>2026-07-07T16:42:21.000Z</time>
      </trkpt>
      <trkpt lat="47.54465" lon="16.05217">
        <ele>818.123</ele>
        <time>2026-07-07T16:42:22.000Z</time>
      </trkpt>
      <trkpt lat="47.54465" lon="16.05216">
        <ele>818.237133</ele>
        <time>2026-07-07T16:42:23.000Z</time>
      </trkpt>
      <trkpt lat="47.54465" lon="16.05214">
        <ele>818.374304</ele>
        <time>2026-07-07T16:42:24.000Z</time>
      </trkpt>
      <trkpt lat="47.54465" lon="16.05212">
        <ele>818.504432</ele>
        <time>2026-07-07T16:42:25.000Z</time>
      </trkpt>
      <trkpt lat="47.54465" lon="16.0521">
        <ele>818.633266</ele>
        <time>2026-07-07T16:42:26.000Z</time>
      </trkpt>
      <trkpt lat="47.54465" lon="16.05209">
        <ele>818.758609</ele>
        <time>2026-07-07T16:42:27.000Z</time>
      </trkpt>
      <trkpt lat="47.54466" lon="16.05207">
        <ele>818.897456</ele>
        <time>2026-07-07T16:42:28.000Z</time>
      </trkpt>
      <trkpt lat="47.54466" lon="16.05205">
        <ele>819.042924</ele>
        <time>2026-07-07T16:42:29.000Z</time>
      </trkpt>
      <trkpt lat="47.54467" lon="16.05203">
        <ele>819.168695</ele>
        <time>2026-07-07T16:42:30.000Z</time>
      </trkpt>
      <trkpt lat="47.54467" lon="16.05201">
        <ele>819.314164</ele>
        <time>2026-07-07T16:42:31.000Z</time>
      </trkpt>
      <trkpt lat="47.54467" lon="16.052">
        <ele>819.44642</ele>
        <time>2026-07-07T16:42:32.000Z</time>
      </trkpt>
      <trkpt lat="47.54468" lon="16.05198">
        <ele>819.576548</ele>
        <time>2026-07-07T16:42:33.000Z</time>
      </trkpt>
      <trkpt lat="47.54468" lon="16.05196">
        <ele>819.733481</ele>
        <time>2026-07-07T16:42:34.000Z</time>
      </trkpt>
      <trkpt lat="47.54467" lon="16.05194">
        <ele>819.863609</ele>
        <time>2026-07-07T16:42:35.000Z</time>
      </trkpt>
      <trkpt lat="47.54467" lon="16.05192">
        <ele>819.999553</ele>
        <time>2026-07-07T16:42:36.000Z</time>
      </trkpt>
      <trkpt lat="47.54467" lon="16.0519">
        <ele>820.143777</ele>
        <time>2026-07-07T16:42:37.000Z</time>
      </trkpt>
      <trkpt lat="47.54467" lon="16.05188">
        <ele>820.273905</ele>
        <time>2026-07-07T16:42:38.000Z</time>
      </trkpt>
      <trkpt lat="47.54467" lon="16.05186">
        <ele>820.395172</ele>
        <time>2026-07-07T16:42:39.000Z</time>
      </trkpt>
      <trkpt lat="47.54468" lon="16.05185">
        <ele>820.543356</ele>
        <time>2026-07-07T16:42:40.000Z</time>
      </trkpt>
      <trkpt lat="47.54468" lon="16.05183">
        <ele>820.685404</ele>
        <time>2026-07-07T16:42:41.000Z</time>
      </trkpt>
      <trkpt lat="47.54469" lon="16.05181">
        <ele>820.815967</ele>
        <time>2026-07-07T16:42:42.000Z</time>
      </trkpt>
      <trkpt lat="47.54469" lon="16.05179">
        <ele>820.957939</ele>
        <time>2026-07-07T16:42:43.000Z</time>
      </trkpt>
      <trkpt lat="47.54469" lon="16.05177">
        <ele>821.102163</ele>
        <time>2026-07-07T16:42:44.000Z</time>
      </trkpt>
      <trkpt lat="47.54469" lon="16.05175">
        <ele>821.246387</ele>
        <time>2026-07-07T16:42:45.000Z</time>
      </trkpt>
      <trkpt lat="47.54469" lon="16.05173">
        <ele>821.396186</ele>
        <time>2026-07-07T16:42:46.000Z</time>
      </trkpt>
      <trkpt lat="47.54469" lon="16.05171">
        <ele>821.554537</ele>
        <time>2026-07-07T16:42:47.000Z</time>
      </trkpt>
      <trkpt lat="47.54469" lon="16.05169">
        <ele>821.684664</ele>
        <time>2026-07-07T16:42:48.000Z</time>
      </trkpt>
      <trkpt lat="47.54469" lon="16.05167">
        <ele>821.820609</ele>
        <time>2026-07-07T16:42:49.000Z</time>
      </trkpt>
      <trkpt lat="47.5447" lon="16.05165">
        <ele>821.969406</ele>
        <time>2026-07-07T16:42:50.000Z</time>
      </trkpt>
      <trkpt lat="47.5447" lon="16.05164">
        <ele>822.108253</ele>
        <time>2026-07-07T16:42:51.000Z</time>
      </trkpt>
      <trkpt lat="47.54471" lon="16.05162">
        <ele>822.245095</ele>
        <time>2026-07-07T16:42:52.000Z</time>
      </trkpt>
      <trkpt lat="47.54471" lon="16.0516">
        <ele>822.393892</ele>
        <time>2026-07-07T16:42:53.000Z</time>
      </trkpt>
      <trkpt lat="47.54472" lon="16.05158">
        <ele>822.526148</ele>
        <time>2026-07-07T16:42:54.000Z</time>
      </trkpt>
      <trkpt lat="47.54472" lon="16.05156">
        <ele>822.670372</ele>
        <time>2026-07-07T16:42:55.000Z</time>
      </trkpt>
      <trkpt lat="47.54472" lon="16.05154">
        <ele>822.798771</ele>
        <time>2026-07-07T16:42:56.000Z</time>
      </trkpt>
      <trkpt lat="47.54472" lon="16.05152">
        <ele>822.941438</ele>
        <time>2026-07-07T16:42:57.000Z</time>
      </trkpt>
      <trkpt lat="47.54472" lon="16.0515">
        <ele>823.098726</ele>
        <time>2026-07-07T16:42:58.000Z</time>
      </trkpt>
      <trkpt lat="47.54472" lon="16.05148">
        <ele>823.247523</ele>
        <time>2026-07-07T16:42:59.000Z</time>
      </trkpt>
      <trkpt lat="47.54472" lon="16.05146">
        <ele>823.375923</ele>
        <time>2026-07-07T16:43:00.000Z</time>
      </trkpt>
      <trkpt lat="47.54472" lon="16.05144">
        <ele>823.516494</ele>
        <time>2026-07-07T16:43:01.000Z</time>
      </trkpt>
      <trkpt lat="47.54472" lon="16.05142">
        <ele>823.672139</ele>
        <time>2026-07-07T16:43:02.000Z</time>
      </trkpt>
      <trkpt lat="47.54471" lon="16.0514">
        <ele>823.8077</ele>
        <time>2026-07-07T16:43:03.000Z</time>
      </trkpt>
      <trkpt lat="47.54472" lon="16.05138">
        <ele>823.947561</ele>
        <time>2026-07-07T16:43:04.000Z</time>
      </trkpt>
      <trkpt lat="47.54472" lon="16.05136">
        <ele>824.094306</ele>
        <time>2026-07-07T16:43:05.000Z</time>
      </trkpt>
      <trkpt lat="47.54473" lon="16.05134">
        <ele>824.224814</ele>
        <time>2026-07-07T16:43:06.000Z</time>
      </trkpt>
      <trkpt lat="47.54473" lon="16.05132">
        <ele>824.361545</ele>
        <time>2026-07-07T16:43:07.000Z</time>
      </trkpt>
      <trkpt lat="47.54474" lon="16.05131">
        <ele>824.492053</ele>
        <time>2026-07-07T16:43:08.000Z</time>
      </trkpt>
      <trkpt lat="47.54474" lon="16.05129">
        <ele>824.607755</ele>
        <time>2026-07-07T16:43:09.000Z</time>
      </trkpt>
      <trkpt lat="47.54474" lon="16.05127">
        <ele>824.732067</ele>
        <time>2026-07-07T16:43:10.000Z</time>
      </trkpt>
      <trkpt lat="47.54474" lon="16.05125">
        <ele>824.867629</ele>
        <time>2026-07-07T16:43:11.000Z</time>
      </trkpt>
      <trkpt lat="47.54474" lon="16.05123">
        <ele>824.989941</ele>
        <time>2026-07-07T16:43:12.000Z</time>
      </trkpt>
      <trkpt lat="47.54474" lon="16.05121">
        <ele>825.124406</ele>
        <time>2026-07-07T16:43:13.000Z</time>
      </trkpt>
      <trkpt lat="47.54474" lon="16.05119">
        <ele>825.257851</ele>
        <time>2026-07-07T16:43:14.000Z</time>
      </trkpt>
      <trkpt lat="47.54475" lon="16.05118">
        <ele>825.380573</ele>
        <time>2026-07-07T16:43:15.000Z</time>
      </trkpt>
      <trkpt lat="47.54476" lon="16.05116">
        <ele>825.502841</ele>
        <time>2026-07-07T16:43:16.000Z</time>
      </trkpt>
      <trkpt lat="47.54476" lon="16.05114">
        <ele>825.633673</ele>
        <time>2026-07-07T16:43:17.000Z</time>
      </trkpt>
      <trkpt lat="47.54476" lon="16.05112">
        <ele>825.769235</ele>
        <time>2026-07-07T16:43:18.000Z</time>
      </trkpt>
      <trkpt lat="47.54476" lon="16.0511">
        <ele>825.904796</ele>
        <time>2026-07-07T16:43:19.000Z</time>
      </trkpt>
      <trkpt lat="47.54476" lon="16.05108">
        <ele>826.039261</ele>
        <time>2026-07-07T16:43:20.000Z</time>
      </trkpt>
      <trkpt lat="47.54476" lon="16.05106">
        <ele>826.173727</ele>
        <time>2026-07-07T16:43:21.000Z</time>
      </trkpt>
      <trkpt lat="47.54476" lon="16.05104">
        <ele>826.309288</ele>
        <time>2026-07-07T16:43:22.000Z</time>
      </trkpt>
      <trkpt lat="47.54476" lon="16.05102">
        <ele>826.443386</ele>
        <time>2026-07-07T16:43:23.000Z</time>
      </trkpt>
      <trkpt lat="47.54476" lon="16.051">
        <ele>826.580755</ele>
        <time>2026-07-07T16:43:24.000Z</time>
      </trkpt>
      <trkpt lat="47.54477" lon="16.05099">
        <ele>826.720399</ele>
        <time>2026-07-07T16:43:25.000Z</time>
      </trkpt>
      <trkpt lat="47.54478" lon="16.05097">
        <ele>826.851231</ele>
        <time>2026-07-07T16:43:26.000Z</time>
      </trkpt>
      <trkpt lat="47.54478" lon="16.05095">
        <ele>826.986792</ele>
        <time>2026-07-07T16:43:27.000Z</time>
      </trkpt>
      <trkpt lat="47.54478" lon="16.05093">
        <ele>827.127595</ele>
        <time>2026-07-07T16:43:28.000Z</time>
      </trkpt>
      <trkpt lat="47.54478" lon="16.0509">
        <ele>827.288818</ele>
        <time>2026-07-07T16:43:29.000Z</time>
      </trkpt>
      <trkpt lat="47.54478" lon="16.05088">
        <ele>827.428679</ele>
        <time>2026-07-07T16:43:30.000Z</time>
      </trkpt>
      <trkpt lat="47.54479" lon="16.05087">
        <ele>827.559186</ele>
        <time>2026-07-07T16:43:31.000Z</time>
      </trkpt>
      <trkpt lat="47.54479" lon="16.05085">
        <ele>827.693787</ele>
        <time>2026-07-07T16:43:32.000Z</time>
      </trkpt>
      <trkpt lat="47.5448" lon="16.05083">
        <ele>827.833648</ele>
        <time>2026-07-07T16:43:33.000Z</time>
      </trkpt>
      <trkpt lat="47.5448" lon="16.05081">
        <ele>827.968113</ele>
        <time>2026-07-07T16:43:34.000Z</time>
      </trkpt>
      <trkpt lat="47.5448" lon="16.05079">
        <ele>828.102211</ele>
        <time>2026-07-07T16:43:35.000Z</time>
      </trkpt>
      <trkpt lat="47.5448" lon="16.05077">
        <ele>828.237772</ele>
        <time>2026-07-07T16:43:36.000Z</time>
      </trkpt>
      <trkpt lat="47.5448" lon="16.05075">
        <ele>828.365165</ele>
        <time>2026-07-07T16:43:37.000Z</time>
      </trkpt>
      <trkpt lat="47.5448" lon="16.05073">
        <ele>828.499263</ele>
        <time>2026-07-07T16:43:38.000Z</time>
      </trkpt>
      <trkpt lat="47.5448" lon="16.05071">
        <ele>828.619951</ele>
        <time>2026-07-07T16:43:39.000Z</time>
      </trkpt>
      <trkpt lat="47.5448" lon="16.05069">
        <ele>828.740639</ele>
        <time>2026-07-07T16:43:40.000Z</time>
      </trkpt>
      <trkpt lat="47.5448" lon="16.05067">
        <ele>828.874737</ele>
        <time>2026-07-07T16:43:41.000Z</time>
      </trkpt>
      <trkpt lat="47.5448" lon="16.05065">
        <ele>829.008834</ele>
        <time>2026-07-07T16:43:42.000Z</time>
      </trkpt>
      <trkpt lat="47.5448" lon="16.05063">
        <ele>829.142932</ele>
        <time>2026-07-07T16:43:43.000Z</time>
      </trkpt>
      <trkpt lat="47.5448" lon="16.05061">
        <ele>829.278494</ele>
        <time>2026-07-07T16:43:44.000Z</time>
      </trkpt>
      <trkpt lat="47.5448" lon="16.05059">
        <ele>829.414055</ele>
        <time>2026-07-07T16:43:45.000Z</time>
      </trkpt>
      <trkpt lat="47.5448" lon="16.05057">
        <ele>829.548153</ele>
        <time>2026-07-07T16:43:46.000Z</time>
      </trkpt>
      <trkpt lat="47.5448" lon="16.05055">
        <ele>829.678984</ele>
        <time>2026-07-07T16:43:47.000Z</time>
      </trkpt>
      <trkpt lat="47.54481" lon="16.05054">
        <ele>829.793384</ele>
        <time>2026-07-07T16:43:48.000Z</time>
      </trkpt>
      <trkpt lat="47.54481" lon="16.05052">
        <ele>829.927849</ele>
        <time>2026-07-07T16:43:49.000Z</time>
      </trkpt>
      <trkpt lat="47.54481" lon="16.0505">
        <ele>830.056782</ele>
        <time>2026-07-07T16:43:50.000Z</time>
      </trkpt>
      <trkpt lat="47.54481" lon="16.05048">
        <ele>830.190879</ele>
        <time>2026-07-07T16:43:51.000Z</time>
      </trkpt>
      <trkpt lat="47.54481" lon="16.05046">
        <ele>830.313192</ele>
        <time>2026-07-07T16:43:52.000Z</time>
      </trkpt>
      <trkpt lat="47.54481" lon="16.05044">
        <ele>830.43388</ele>
        <time>2026-07-07T16:43:53.000Z</time>
      </trkpt>
      <trkpt lat="47.54481" lon="16.05042">
        <ele>830.561659</ele>
        <time>2026-07-07T16:43:54.000Z</time>
      </trkpt>
      <trkpt lat="47.54482" lon="16.0504">
        <ele>830.69722</ele>
        <time>2026-07-07T16:43:55.000Z</time>
      </trkpt>
      <trkpt lat="47.54482" lon="16.05038">
        <ele>830.832782</ele>
        <time>2026-07-07T16:43:56.000Z</time>
      </trkpt>
      <trkpt lat="47.54482" lon="16.05036">
        <ele>830.970151</ele>
        <time>2026-07-07T16:43:57.000Z</time>
      </trkpt>
      <trkpt lat="47.54483" lon="16.05035">
        <ele>831.100658</ele>
        <time>2026-07-07T16:43:58.000Z</time>
      </trkpt>
      <trkpt lat="47.54483" lon="16.05033">
        <ele>831.234756</ele>
        <time>2026-07-07T16:43:59.000Z</time>
      </trkpt>
      <trkpt lat="47.54482" lon="16.05031">
        <ele>831.359068</ele>
        <time>2026-07-07T16:44:00.000Z</time>
      </trkpt>
      <trkpt lat="47.54482" lon="16.05029">
        <ele>831.493166</ele>
        <time>2026-07-07T16:44:01.000Z</time>
      </trkpt>
      <trkpt lat="47.54483" lon="16.05027">
        <ele>831.636165</ele>
        <time>2026-07-07T16:44:02.000Z</time>
      </trkpt>
      <trkpt lat="47.54483" lon="16.05025">
        <ele>831.784007</ele>
        <time>2026-07-07T16:44:03.000Z</time>
      </trkpt>
      <trkpt lat="47.54483" lon="16.05023">
        <ele>831.918472</ele>
        <time>2026-07-07T16:44:04.000Z</time>
      </trkpt>
      <trkpt lat="47.54483" lon="16.05021">
        <ele>832.032455</ele>
        <time>2026-07-07T16:44:05.000Z</time>
      </trkpt>
      <trkpt lat="47.54483" lon="16.0502">
        <ele>832.086094</ele>
        <time>2026-07-07T16:44:06.000Z</time>
      </trkpt>
      <trkpt lat="47.54483" lon="16.05016">
        <ele>832.374575</ele>
        <time>2026-07-07T16:44:13.000Z</time>
      </trkpt>
      <trkpt lat="47.54483" lon="16.05014">
        <ele>832.490277</ele>
        <time>2026-07-07T16:44:14.000Z</time>
      </trkpt>
      <trkpt lat="47.54483" lon="16.05013">
        <ele>832.59085</ele>
        <time>2026-07-07T16:44:15.000Z</time>
      </trkpt>
      <trkpt lat="47.54483" lon="16.05011">
        <ele>832.704833</ele>
        <time>2026-07-07T16:44:16.000Z</time>
      </trkpt>
      <trkpt lat="47.54483" lon="16.05009">
        <ele>832.80735</ele>
        <time>2026-07-07T16:44:17.000Z</time>
      </trkpt>
      <trkpt lat="47.54483" lon="16.05008">
        <ele>832.907923</ele>
        <time>2026-07-07T16:44:18.000Z</time>
      </trkpt>
      <trkpt lat="47.54483" lon="16.05006">
        <ele>833.01566</ele>
        <time>2026-07-07T16:44:19.000Z</time>
      </trkpt>
      <trkpt lat="47.54483" lon="16.05005">
        <ele>833.129643</ele>
        <time>2026-07-07T16:44:20.000Z</time>
      </trkpt>
      <trkpt lat="47.54483" lon="16.05003">
        <ele>833.243626</ele>
        <time>2026-07-07T16:44:21.000Z</time>
      </trkpt>
      <trkpt lat="47.54483" lon="16.05001">
        <ele>833.346143</ele>
        <time>2026-07-07T16:44:22.000Z</time>
      </trkpt>
      <trkpt lat="47.54483" lon="16.05">
        <ele>833.446716</ele>
        <time>2026-07-07T16:44:23.000Z</time>
      </trkpt>
      <trkpt lat="47.54482" lon="16.04998">
        <ele>833.551611</ele>
        <time>2026-07-07T16:44:24.000Z</time>
      </trkpt>
      <trkpt lat="47.54482" lon="16.04997">
        <ele>833.658889</ele>
        <time>2026-07-07T16:44:25.000Z</time>
      </trkpt>
      <trkpt lat="47.54482" lon="16.04995">
        <ele>833.761406</ele>
        <time>2026-07-07T16:44:26.000Z</time>
      </trkpt>
      <trkpt lat="47.54482" lon="16.04994">
        <ele>833.857353</ele>
        <time>2026-07-07T16:44:27.000Z</time>
      </trkpt>
      <trkpt lat="47.54482" lon="16.04992">
        <ele>833.962249</ele>
        <time>2026-07-07T16:44:28.000Z</time>
      </trkpt>
      <trkpt lat="47.54481" lon="16.04991">
        <ele>834.067144</ele>
        <time>2026-07-07T16:44:29.000Z</time>
      </trkpt>
      <trkpt lat="47.54481" lon="16.04988">
        <ele>834.274331</ele>
        <time>2026-07-07T16:44:31.000Z</time>
      </trkpt>
      <trkpt lat="47.5448" lon="16.04985">
        <ele>834.486726</ele>
        <time>2026-07-07T16:44:32.000Z</time>
      </trkpt>
      <trkpt lat="47.54479" lon="16.04984">
        <ele>834.598225</ele>
        <time>2026-07-07T16:44:33.000Z</time>
      </trkpt>
      <trkpt lat="47.54479" lon="16.04982">
        <ele>834.704422</ele>
        <time>2026-07-07T16:44:34.000Z</time>
      </trkpt>
      <trkpt lat="47.54478" lon="16.04981">
        <ele>834.81659</ele>
        <time>2026-07-07T16:44:35.000Z</time>
      </trkpt>
      <trkpt lat="47.54478" lon="16.04979">
        <ele>834.921485</ele>
        <time>2026-07-07T16:44:36.000Z</time>
      </trkpt>
      <trkpt lat="47.54478" lon="16.04978">
        <ele>834.991415</ele>
        <time>2026-07-07T16:44:37.000Z</time>
      </trkpt>
      <trkpt lat="47.54477" lon="16.04977">
        <ele>835.067798</ele>
        <time>2026-07-07T16:44:38.000Z</time>
      </trkpt>
      <trkpt lat="47.54477" lon="16.04976">
        <ele>835.153597</ele>
        <time>2026-07-07T16:44:39.000Z</time>
      </trkpt>
      <trkpt lat="47.54477" lon="16.04975">
        <ele>835.223527</ele>
        <time>2026-07-07T16:44:40.000Z</time>
      </trkpt>
      <trkpt lat="47.54477" lon="16.04974">
        <ele>835.291308</ele>
        <time>2026-07-07T16:44:41.000Z</time>
      </trkpt>
      <trkpt lat="47.54476" lon="16.04973">
        <ele>835.385861</ele>
        <time>2026-07-07T16:44:42.000Z</time>
      </trkpt>
      <trkpt lat="47.54476" lon="16.04972">
        <ele>835.452612</ele>
        <time>2026-07-07T16:44:43.000Z</time>
      </trkpt>
      <trkpt lat="47.54475" lon="16.04971">
        <ele>835.520946</ele>
        <time>2026-07-07T16:44:44.000Z</time>
      </trkpt>
      <trkpt lat="47.54475" lon="16.04971">
        <ele>835.574529</ele>
        <time>2026-07-07T16:44:45.000Z</time>
      </trkpt>
      <trkpt lat="47.54475" lon="16.04971">
        <ele>835.584462</ele>
        <time>2026-07-07T16:44:46.000Z</time>
      </trkpt>
      <trkpt lat="47.54473" lon="16.04968">
        <ele>835.832023</ele>
        <time>2026-07-07T16:44:53.000Z</time>
      </trkpt>
      <trkpt lat="47.54473" lon="16.04967">
        <ele>835.944191</ele>
        <time>2026-07-07T16:44:54.000Z</time>
      </trkpt>
      <trkpt lat="47.54472" lon="16.04965">
        <ele>836.056359</ele>
        <time>2026-07-07T16:44:55.000Z</time>
      </trkpt>
      <trkpt lat="47.54471" lon="16.04964">
        <ele>836.167858</ele>
        <time>2026-07-07T16:44:56.000Z</time>
      </trkpt>
      <trkpt lat="47.54471" lon="16.04963">
        <ele>836.280026</ele>
        <time>2026-07-07T16:44:57.000Z</time>
      </trkpt>
      <trkpt lat="47.5447" lon="16.04961">
        <ele>836.385617</ele>
        <time>2026-07-07T16:44:58.000Z</time>
      </trkpt>
      <trkpt lat="47.5447" lon="16.0496">
        <ele>836.502432</ele>
        <time>2026-07-07T16:44:59.000Z</time>
      </trkpt>
      <trkpt lat="47.54469" lon="16.04958">
        <ele>836.624701</ele>
        <time>2026-07-07T16:45:00.000Z</time>
      </trkpt>
      <trkpt lat="47.54468" lon="16.04957">
        <ele>836.725021</ele>
        <time>2026-07-07T16:45:01.000Z</time>
      </trkpt>
      <trkpt lat="47.54468" lon="16.04956">
        <ele>836.830612</ele>
        <time>2026-07-07T16:45:02.000Z</time>
      </trkpt>
      <trkpt lat="47.54467" lon="16.04954">
        <ele>836.947427</ele>
        <time>2026-07-07T16:45:03.000Z</time>
      </trkpt>
      <trkpt lat="47.54467" lon="16.04953">
        <ele>837.047747</ele>
        <time>2026-07-07T16:45:04.000Z</time>
      </trkpt>
      <trkpt lat="47.54466" lon="16.04952">
        <ele>837.159247</ele>
        <time>2026-07-07T16:45:05.000Z</time>
      </trkpt>
      <trkpt lat="47.54465" lon="16.0495">
        <ele>837.265444</ele>
        <time>2026-07-07T16:45:06.000Z</time>
      </trkpt>
      <trkpt lat="47.54465" lon="16.04949">
        <ele>837.354361</ele>
        <time>2026-07-07T16:45:07.000Z</time>
      </trkpt>
      <trkpt lat="47.54464" lon="16.04948">
        <ele>837.454489</ele>
        <time>2026-07-07T16:45:08.000Z</time>
      </trkpt>
      <trkpt lat="47.54464" lon="16.04947">
        <ele>837.549042</ele>
        <time>2026-07-07T16:45:09.000Z</time>
      </trkpt>
      <trkpt lat="47.54463" lon="16.04946">
        <ele>837.650403</ele>
        <time>2026-07-07T16:45:10.000Z</time>
      </trkpt>
      <trkpt lat="47.54462" lon="16.04945">
        <ele>837.756743</ele>
        <time>2026-07-07T16:45:11.000Z</time>
      </trkpt>
      <trkpt lat="47.54462" lon="16.04943">
        <ele>837.856871</ele>
        <time>2026-07-07T16:45:12.000Z</time>
      </trkpt>
      <trkpt lat="47.54461" lon="16.04942">
        <ele>837.958233</ele>
        <time>2026-07-07T16:45:13.000Z</time>
      </trkpt>
      <trkpt lat="47.54461" lon="16.04941">
        <ele>838.052786</ele>
        <time>2026-07-07T16:45:14.000Z</time>
      </trkpt>
      <trkpt lat="47.5446" lon="16.0494">
        <ele>838.164285</ele>
        <time>2026-07-07T16:45:15.000Z</time>
      </trkpt>
      <trkpt lat="47.54459" lon="16.04939">
        <ele>838.258838</ele>
        <time>2026-07-07T16:45:16.000Z</time>
      </trkpt>
      <trkpt lat="47.54459" lon="16.04937">
        <ele>838.353391</ele>
        <time>2026-07-07T16:45:17.000Z</time>
      </trkpt>
      <trkpt lat="47.54458" lon="16.04936">
        <ele>838.442308</ele>
        <time>2026-07-07T16:45:18.000Z</time>
      </trkpt>
      <trkpt lat="47.54458" lon="16.04935">
        <ele>838.536861</ele>
        <time>2026-07-07T16:45:19.000Z</time>
      </trkpt>
      <trkpt lat="47.54457" lon="16.04934">
        <ele>838.637181</ele>
        <time>2026-07-07T16:45:20.000Z</time>
      </trkpt>
      <trkpt lat="47.54457" lon="16.04933">
        <ele>838.737309</ele>
        <time>2026-07-07T16:45:21.000Z</time>
      </trkpt>
      <trkpt lat="47.54456" lon="16.04932">
        <ele>838.833901</ele>
        <time>2026-07-07T16:45:22.000Z</time>
      </trkpt>
      <trkpt lat="47.54456" lon="16.0493">
        <ele>838.934222</ele>
        <time>2026-07-07T16:45:23.000Z</time>
      </trkpt>
      <trkpt lat="47.54455" lon="16.04929">
        <ele>839.028775</ele>
        <time>2026-07-07T16:45:24.000Z</time>
      </trkpt>
      <trkpt lat="47.54455" lon="16.04928">
        <ele>839.123328</ele>
        <time>2026-07-07T16:45:25.000Z</time>
      </trkpt>
      <trkpt lat="47.54454" lon="16.04927">
        <ele>839.224689</ele>
        <time>2026-07-07T16:45:26.000Z</time>
      </trkpt>
      <trkpt lat="47.54453" lon="16.04926">
        <ele>839.319242</ele>
        <time>2026-07-07T16:45:27.000Z</time>
      </trkpt>
      <trkpt lat="47.54453" lon="16.04924">
        <ele>839.413795</ele>
        <time>2026-07-07T16:45:28.000Z</time>
      </trkpt>
      <trkpt lat="47.54452" lon="16.04923">
        <ele>839.508619</ele>
        <time>2026-07-07T16:45:29.000Z</time>
      </trkpt>
      <trkpt lat="47.54452" lon="16.04922">
        <ele>839.605212</ele>
        <time>2026-07-07T16:45:30.000Z</time>
      </trkpt>
      <trkpt lat="47.54451" lon="16.04921">
        <ele>839.701805</ele>
        <time>2026-07-07T16:45:31.000Z</time>
      </trkpt>
      <trkpt lat="47.5445" lon="16.0492">
        <ele>839.796358</ele>
        <time>2026-07-07T16:45:32.000Z</time>
      </trkpt>
      <trkpt lat="47.5445" lon="16.04919">
        <ele>839.896485</ele>
        <time>2026-07-07T16:45:33.000Z</time>
      </trkpt>
      <trkpt lat="47.54449" lon="16.04918">
        <ele>839.996806</ele>
        <time>2026-07-07T16:45:34.000Z</time>
      </trkpt>
      <trkpt lat="47.54449" lon="16.04916">
        <ele>840.103146</ele>
        <time>2026-07-07T16:45:35.000Z</time>
      </trkpt>
      <trkpt lat="47.54448" lon="16.04915">
        <ele>840.192063</ele>
        <time>2026-07-07T16:45:36.000Z</time>
      </trkpt>
      <trkpt lat="47.54448" lon="16.04914">
        <ele>840.286616</ele>
        <time>2026-07-07T16:45:37.000Z</time>
      </trkpt>
      <trkpt lat="47.54447" lon="16.04913">
        <ele>840.392956</ele>
        <time>2026-07-07T16:45:38.000Z</time>
      </trkpt>
      <trkpt lat="47.54446" lon="16.04912">
        <ele>840.476396</ele>
        <time>2026-07-07T16:45:39.000Z</time>
      </trkpt>
      <trkpt lat="47.54446" lon="16.04911">
        <ele>840.57122</ele>
        <time>2026-07-07T16:45:40.000Z</time>
      </trkpt>
      <trkpt lat="47.54445" lon="16.0491">
        <ele>840.665773</ele>
        <time>2026-07-07T16:45:41.000Z</time>
      </trkpt>
      <trkpt lat="47.54445" lon="16.04908">
        <ele>840.772113</ele>
        <time>2026-07-07T16:45:42.000Z</time>
      </trkpt>
      <trkpt lat="47.54444" lon="16.04907">
        <ele>840.855553</ele>
        <time>2026-07-07T16:45:43.000Z</time>
      </trkpt>
      <trkpt lat="47.54444" lon="16.04906">
        <ele>840.938993</ele>
        <time>2026-07-07T16:45:44.000Z</time>
      </trkpt>
      <trkpt lat="47.54443" lon="16.04905">
        <ele>841.027911</ele>
        <time>2026-07-07T16:45:45.000Z</time>
      </trkpt>
      <trkpt lat="47.54443" lon="16.04904">
        <ele>841.122464</ele>
        <time>2026-07-07T16:45:46.000Z</time>
      </trkpt>
      <trkpt lat="47.54442" lon="16.04903">
        <ele>841.219056</ele>
        <time>2026-07-07T16:45:47.000Z</time>
      </trkpt>
      <trkpt lat="47.54442" lon="16.04902">
        <ele>841.280417</ele>
        <time>2026-07-07T16:45:48.000Z</time>
      </trkpt>
      <trkpt lat="47.54441" lon="16.04902">
        <ele>841.304386</ele>
        <time>2026-07-07T16:45:49.000Z</time>
      </trkpt>
      <trkpt lat="47.54441" lon="16.04902">
        <ele>841.327463</ele>
        <time>2026-07-07T16:45:50.000Z</time>
      </trkpt>
      <trkpt lat="47.5444" lon="16.049">
        <ele>841.545231</ele>
        <time>2026-07-07T16:45:52.000Z</time>
      </trkpt>
      <trkpt lat="47.5444" lon="16.04899">
        <ele>841.661986</ele>
        <time>2026-07-07T16:45:53.000Z</time>
      </trkpt>
      <trkpt lat="47.54439" lon="16.04898">
        <ele>841.77874</ele>
        <time>2026-07-07T16:45:54.000Z</time>
      </trkpt>
      <trkpt lat="47.54439" lon="16.04897">
        <ele>841.895495</ele>
        <time>2026-07-07T16:45:55.000Z</time>
      </trkpt>
      <trkpt lat="47.54438" lon="16.04896">
        <ele>842.012249</ele>
        <time>2026-07-07T16:45:56.000Z</time>
      </trkpt>
      <trkpt lat="47.54438" lon="16.04895">
        <ele>842.129004</ele>
        <time>2026-07-07T16:45:57.000Z</time>
      </trkpt>
      <trkpt lat="47.54437" lon="16.04894">
        <ele>842.245758</ele>
        <time>2026-07-07T16:45:58.000Z</time>
      </trkpt>
      <trkpt lat="47.54437" lon="16.04893">
        <ele>842.331619</ele>
        <time>2026-07-07T16:45:59.000Z</time>
      </trkpt>
      <trkpt lat="47.54437" lon="16.04892">
        <ele>842.448373</ele>
        <time>2026-07-07T16:46:00.000Z</time>
      </trkpt>
      <trkpt lat="47.54436" lon="16.04891">
        <ele>842.565128</ele>
        <time>2026-07-07T16:46:01.000Z</time>
      </trkpt>
      <trkpt lat="47.54436" lon="16.0489">
        <ele>842.667416</ele>
        <time>2026-07-07T16:46:02.000Z</time>
      </trkpt>
      <trkpt lat="47.54435" lon="16.04889">
        <ele>842.761588</ele>
        <time>2026-07-07T16:46:03.000Z</time>
      </trkpt>
      <trkpt lat="47.54435" lon="16.04889">
        <ele>842.863876</ele>
        <time>2026-07-07T16:46:04.000Z</time>
      </trkpt>
      <trkpt lat="47.54434" lon="16.04888">
        <ele>842.966164</ele>
        <time>2026-07-07T16:46:05.000Z</time>
      </trkpt>
      <trkpt lat="47.54434" lon="16.04887">
        <ele>843.082918</ele>
        <time>2026-07-07T16:46:06.000Z</time>
      </trkpt>
      <trkpt lat="47.54433" lon="16.04886">
        <ele>843.199673</ele>
        <time>2026-07-07T16:46:07.000Z</time>
      </trkpt>
      <trkpt lat="47.54433" lon="16.04885">
        <ele>843.309031</ele>
        <time>2026-07-07T16:46:08.000Z</time>
      </trkpt>
      <trkpt lat="47.54432" lon="16.04884">
        <ele>843.402435</ele>
        <time>2026-07-07T16:46:09.000Z</time>
      </trkpt>
      <trkpt lat="47.54432" lon="16.04883">
        <ele>843.488295</ele>
        <time>2026-07-07T16:46:10.000Z</time>
      </trkpt>
      <trkpt lat="47.54432" lon="16.04882">
        <ele>843.597653</ele>
        <time>2026-07-07T16:46:11.000Z</time>
      </trkpt>
      <trkpt lat="47.54431" lon="16.04881">
        <ele>843.700322</ele>
        <time>2026-07-07T16:46:12.000Z</time>
      </trkpt>
      <trkpt lat="47.54431" lon="16.04881">
        <ele>843.80261</ele>
        <time>2026-07-07T16:46:13.000Z</time>
      </trkpt>
      <trkpt lat="47.5443" lon="16.0488">
        <ele>843.904898</ele>
        <time>2026-07-07T16:46:14.000Z</time>
      </trkpt>
      <trkpt lat="47.5443" lon="16.04879">
        <ele>844.014256</ele>
        <time>2026-07-07T16:46:15.000Z</time>
      </trkpt>
      <trkpt lat="47.54429" lon="16.04878">
        <ele>844.131011</ele>
        <time>2026-07-07T16:46:16.000Z</time>
      </trkpt>
      <trkpt lat="47.54429" lon="16.04877">
        <ele>844.253889</ele>
        <time>2026-07-07T16:46:17.000Z</time>
      </trkpt>
      <trkpt lat="47.54428" lon="16.04876">
        <ele>844.370644</ele>
        <time>2026-07-07T16:46:18.000Z</time>
      </trkpt>
      <trkpt lat="47.54428" lon="16.04875">
        <ele>844.487399</ele>
        <time>2026-07-07T16:46:19.000Z</time>
      </trkpt>
      <trkpt lat="47.54427" lon="16.04874">
        <ele>844.604153</ele>
        <time>2026-07-07T16:46:20.000Z</time>
      </trkpt>
      <trkpt lat="47.54427" lon="16.04873">
        <ele>844.720908</ele>
        <time>2026-07-07T16:46:21.000Z</time>
      </trkpt>
      <trkpt lat="47.54426" lon="16.04872">
        <ele>844.856067</ele>
        <time>2026-07-07T16:46:22.000Z</time>
      </trkpt>
      <trkpt lat="47.54426" lon="16.04871">
        <ele>844.976124</ele>
        <time>2026-07-07T16:46:23.000Z</time>
      </trkpt>
      <trkpt lat="47.54425" lon="16.0487">
        <ele>845.092879</ele>
        <time>2026-07-07T16:46:24.000Z</time>
      </trkpt>
      <trkpt lat="47.54425" lon="16.04869">
        <ele>845.195167</ele>
        <time>2026-07-07T16:46:25.000Z</time>
      </trkpt>
      <trkpt lat="47.54424" lon="16.04868">
        <ele>845.311922</ele>
        <time>2026-07-07T16:46:26.000Z</time>
      </trkpt>
      <trkpt lat="47.54424" lon="16.04867">
        <ele>845.397782</ele>
        <time>2026-07-07T16:46:27.000Z</time>
      </trkpt>
      <trkpt lat="47.54423" lon="16.04866">
        <ele>845.506838</ele>
        <time>2026-07-07T16:46:28.000Z</time>
      </trkpt>
      <trkpt lat="47.54423" lon="16.04865">
        <ele>845.616196</ele>
        <time>2026-07-07T16:46:29.000Z</time>
      </trkpt>
      <trkpt lat="47.54423" lon="16.04865">
        <ele>845.702057</ele>
        <time>2026-07-07T16:46:30.000Z</time>
      </trkpt>
      <trkpt lat="47.54422" lon="16.04864">
        <ele>845.804345</ele>
        <time>2026-07-07T16:46:31.000Z</time>
      </trkpt>
      <trkpt lat="47.54422" lon="16.04863">
        <ele>845.898517</ele>
        <time>2026-07-07T16:46:32.000Z</time>
      </trkpt>
      <trkpt lat="47.54421" lon="16.04862">
        <ele>846.000805</ele>
        <time>2026-07-07T16:46:33.000Z</time>
      </trkpt>
      <trkpt lat="47.54421" lon="16.04861">
        <ele>846.094209</ele>
        <time>2026-07-07T16:46:34.000Z</time>
      </trkpt>
      <trkpt lat="47.5442" lon="16.0486">
        <ele>846.203567</ele>
        <time>2026-07-07T16:46:35.000Z</time>
      </trkpt>
      <trkpt lat="47.5442" lon="16.0486">
        <ele>846.289428</ele>
        <time>2026-07-07T16:46:36.000Z</time>
      </trkpt>
      <trkpt lat="47.5442" lon="16.04859">
        <ele>846.391716</ele>
        <time>2026-07-07T16:46:37.000Z</time>
      </trkpt>
      <trkpt lat="47.54419" lon="16.04858">
        <ele>846.501074</ele>
        <time>2026-07-07T16:46:38.000Z</time>
      </trkpt>
      <trkpt lat="47.54419" lon="16.04857">
        <ele>846.603363</ele>
        <time>2026-07-07T16:46:39.000Z</time>
      </trkpt>
      <trkpt lat="47.54418" lon="16.04856">
        <ele>846.705651</ele>
        <time>2026-07-07T16:46:40.000Z</time>
      </trkpt>
      <trkpt lat="47.54418" lon="16.04855">
        <ele>846.808319</ele>
        <time>2026-07-07T16:46:41.000Z</time>
      </trkpt>
      <trkpt lat="47.54417" lon="16.04854">
        <ele>846.917678</ele>
        <time>2026-07-07T16:46:42.000Z</time>
      </trkpt>
      <trkpt lat="47.54417" lon="16.04854">
        <ele>846.996796</ele>
        <time>2026-07-07T16:46:43.000Z</time>
      </trkpt>
      <trkpt lat="47.54417" lon="16.04853">
        <ele>847.090968</ele>
        <time>2026-07-07T16:46:44.000Z</time>
      </trkpt>
      <trkpt lat="47.54416" lon="16.04852">
        <ele>847.176829</ele>
        <time>2026-07-07T16:46:45.000Z</time>
      </trkpt>
      <trkpt lat="47.54416" lon="16.04851">
        <ele>847.279117</ele>
        <time>2026-07-07T16:46:46.000Z</time>
      </trkpt>
      <trkpt lat="47.54415" lon="16.04851">
        <ele>847.374733</ele>
        <time>2026-07-07T16:46:47.000Z</time>
      </trkpt>
      <trkpt lat="47.54415" lon="16.0485">
        <ele>847.483789</ele>
        <time>2026-07-07T16:46:48.000Z</time>
      </trkpt>
      <trkpt lat="47.54415" lon="16.04849">
        <ele>847.569649</ele>
        <time>2026-07-07T16:46:49.000Z</time>
      </trkpt>
      <trkpt lat="47.54414" lon="16.04848">
        <ele>847.679008</ele>
        <time>2026-07-07T16:46:50.000Z</time>
      </trkpt>
      <trkpt lat="47.54414" lon="16.04847">
        <ele>847.781296</ele>
        <time>2026-07-07T16:46:51.000Z</time>
      </trkpt>
      <trkpt lat="47.54413" lon="16.04846">
        <ele>847.867157</ele>
        <time>2026-07-07T16:46:52.000Z</time>
      </trkpt>
      <trkpt lat="47.54413" lon="16.04845">
        <ele>847.983912</ele>
        <time>2026-07-07T16:46:53.000Z</time>
      </trkpt>
      <trkpt lat="47.54412" lon="16.04844">
        <ele>848.085009</ele>
        <time>2026-07-07T16:46:54.000Z</time>
      </trkpt>
      <trkpt lat="47.54412" lon="16.04844">
        <ele>848.187297</ele>
        <time>2026-07-07T16:46:55.000Z</time>
      </trkpt>
      <trkpt lat="47.54412" lon="16.04843">
        <ele>848.289966</ele>
        <time>2026-07-07T16:46:56.000Z</time>
      </trkpt>
      <trkpt lat="47.54411" lon="16.04842">
        <ele>848.392254</ele>
        <time>2026-07-07T16:46:57.000Z</time>
      </trkpt>
      <trkpt lat="47.54411" lon="16.04841">
        <ele>848.501613</ele>
        <time>2026-07-07T16:46:58.000Z</time>
      </trkpt>
      <trkpt lat="47.5441" lon="16.0484">
        <ele>848.604281</ele>
        <time>2026-07-07T16:46:59.000Z</time>
      </trkpt>
      <trkpt lat="47.5441" lon="16.04839">
        <ele>848.70657</ele>
        <time>2026-07-07T16:47:00.000Z</time>
      </trkpt>
      <trkpt lat="47.54409" lon="16.04838">
        <ele>848.799974</ele>
        <time>2026-07-07T16:47:01.000Z</time>
      </trkpt>
      <trkpt lat="47.54409" lon="16.04838">
        <ele>848.877766</ele>
        <time>2026-07-07T16:47:02.000Z</time>
      </trkpt>
      <trkpt lat="47.54409" lon="16.04837">
        <ele>848.963627</ele>
        <time>2026-07-07T16:47:03.000Z</time>
      </trkpt>
      <trkpt lat="47.54408" lon="16.04836">
        <ele>849.072986</ele>
        <time>2026-07-07T16:47:04.000Z</time>
      </trkpt>
      <trkpt lat="47.54408" lon="16.04835">
        <ele>849.16639</ele>
        <time>2026-07-07T16:47:05.000Z</time>
      </trkpt>
      <trkpt lat="47.54408" lon="16.04834">
        <ele>849.25225</ele>
        <time>2026-07-07T16:47:06.000Z</time>
      </trkpt>
      <trkpt lat="47.54407" lon="16.04833">
        <ele>849.361609</ele>
        <time>2026-07-07T16:47:07.000Z</time>
      </trkpt>
      <trkpt lat="47.54407" lon="16.04833">
        <ele>849.451042</ele>
        <time>2026-07-07T16:47:08.000Z</time>
      </trkpt>
      <trkpt lat="47.54406" lon="16.04832">
        <ele>849.545214</ele>
        <time>2026-07-07T16:47:09.000Z</time>
      </trkpt>
      <trkpt lat="47.54406" lon="16.04831">
        <ele>849.647503</ele>
        <time>2026-07-07T16:47:10.000Z</time>
      </trkpt>
      <trkpt lat="47.54405" lon="16.0483">
        <ele>849.749791</ele>
        <time>2026-07-07T16:47:11.000Z</time>
      </trkpt>
      <trkpt lat="47.54405" lon="16.04829">
        <ele>849.850888</ele>
        <time>2026-07-07T16:47:12.000Z</time>
      </trkpt>
      <trkpt lat="47.54404" lon="16.04829">
        <ele>849.953177</ele>
        <time>2026-07-07T16:47:13.000Z</time>
      </trkpt>
      <trkpt lat="47.54404" lon="16.04828">
        <ele>850.055845</ele>
        <time>2026-07-07T16:47:14.000Z</time>
      </trkpt>
      <trkpt lat="47.54404" lon="16.04827">
        <ele>850.151462</ele>
        <time>2026-07-07T16:47:15.000Z</time>
      </trkpt>
      <trkpt lat="47.54403" lon="16.04826">
        <ele>850.237323</ele>
        <time>2026-07-07T16:47:16.000Z</time>
      </trkpt>
      <trkpt lat="47.54403" lon="16.04825">
        <ele>850.339611</ele>
        <time>2026-07-07T16:47:17.000Z</time>
      </trkpt>
      <trkpt lat="47.54402" lon="16.04825">
        <ele>850.425658</ele>
        <time>2026-07-07T16:47:18.000Z</time>
      </trkpt>
      <trkpt lat="47.54402" lon="16.04824">
        <ele>850.521274</ele>
        <time>2026-07-07T16:47:19.000Z</time>
      </trkpt>
      <trkpt lat="47.54402" lon="16.04823">
        <ele>850.623943</ele>
        <time>2026-07-07T16:47:20.000Z</time>
      </trkpt>
      <trkpt lat="47.54401" lon="16.04822">
        <ele>850.713376</ele>
        <time>2026-07-07T16:47:21.000Z</time>
      </trkpt>
      <trkpt lat="47.54401" lon="16.04821">
        <ele>850.807549</ele>
        <time>2026-07-07T16:47:22.000Z</time>
      </trkpt>
      <trkpt lat="47.544" lon="16.04821">
        <ele>850.900953</ele>
        <time>2026-07-07T16:47:23.000Z</time>
      </trkpt>
      <trkpt lat="47.544" lon="16.0482">
        <ele>851.003241</ele>
        <time>2026-07-07T16:47:24.000Z</time>
      </trkpt>
      <trkpt lat="47.544" lon="16.04819">
        <ele>851.097414</ele>
        <time>2026-07-07T16:47:25.000Z</time>
      </trkpt>
      <trkpt lat="47.54399" lon="16.04818">
        <ele>851.214169</ele>
        <time>2026-07-07T16:47:26.000Z</time>
      </trkpt>
      <trkpt lat="47.54399" lon="16.04817">
        <ele>851.30003</ele>
        <time>2026-07-07T16:47:27.000Z</time>
      </trkpt>
      <trkpt lat="47.54399" lon="16.04817">
        <ele>851.339589</ele>
        <time>2026-07-07T16:47:28.000Z</time>
      </trkpt>
      <trkpt lat="47.54397" lon="16.04814">
        <ele>851.627394</ele>
        <time>2026-07-07T16:47:34.000Z</time>
      </trkpt>
      <trkpt lat="47.54397" lon="16.04813">
        <ele>851.736753</ele>
        <time>2026-07-07T16:47:35.000Z</time>
      </trkpt>
      <trkpt lat="47.54396" lon="16.04813">
        <ele>851.839041</ele>
        <time>2026-07-07T16:47:36.000Z</time>
      </trkpt>
      <trkpt lat="47.54396" lon="16.04812">
        <ele>851.955796</ele>
        <time>2026-07-07T16:47:37.000Z</time>
      </trkpt>
      <trkpt lat="47.54396" lon="16.04811">
        <ele>852.033589</ele>
        <time>2026-07-07T16:47:38.000Z</time>
      </trkpt>
      <trkpt lat="47.54395" lon="16.0481">
        <ele>852.096352</ele>
        <time>2026-07-07T16:47:39.000Z</time>
      </trkpt>
      <trkpt lat="47.54395" lon="16.04809">
        <ele>852.205408</ele>
        <time>2026-07-07T16:47:40.000Z</time>
      </trkpt>
      <trkpt lat="47.54395" lon="16.04809">
        <ele>852.291269</ele>
        <time>2026-07-07T16:47:41.000Z</time>
      </trkpt>
      <trkpt lat="47.54394" lon="16.04808">
        <ele>852.408024</ele>
        <time>2026-07-07T16:47:42.000Z</time>
      </trkpt>
      <trkpt lat="47.54394" lon="16.04807">
        <ele>852.510312</ele>
        <time>2026-07-07T16:47:43.000Z</time>
      </trkpt>
      <trkpt lat="47.54393" lon="16.04806">
        <ele>852.642618</ele>
        <time>2026-07-07T16:47:44.000Z</time>
      </trkpt>
      <trkpt lat="47.54393" lon="16.04804">
        <ele>852.774924</ele>
        <time>2026-07-07T16:47:45.000Z</time>
      </trkpt>
      <trkpt lat="47.54392" lon="16.04803">
        <ele>852.891679</ele>
        <time>2026-07-07T16:47:46.000Z</time>
      </trkpt>
      <trkpt lat="47.54392" lon="16.04802">
        <ele>853.008434</ele>
        <time>2026-07-07T16:47:47.000Z</time>
      </trkpt>
      <trkpt lat="47.54391" lon="16.04801">
        <ele>853.111103</ele>
        <time>2026-07-07T16:47:48.000Z</time>
      </trkpt>
      <trkpt lat="47.54391" lon="16.04801">
        <ele>853.213392</ele>
        <time>2026-07-07T16:47:49.000Z</time>
      </trkpt>
      <trkpt lat="47.5439" lon="16.048">
        <ele>853.31568</ele>
        <time>2026-07-07T16:47:50.000Z</time>
      </trkpt>
      <trkpt lat="47.5439" lon="16.04799">
        <ele>853.432435</ele>
        <time>2026-07-07T16:47:51.000Z</time>
      </trkpt>
      <trkpt lat="47.54389" lon="16.04798">
        <ele>853.541794</ele>
        <time>2026-07-07T16:47:52.000Z</time>
      </trkpt>
      <trkpt lat="47.54389" lon="16.04797">
        <ele>853.658549</ele>
        <time>2026-07-07T16:47:53.000Z</time>
      </trkpt>
      <trkpt lat="47.54388" lon="16.04796">
        <ele>853.767605</ele>
        <time>2026-07-07T16:47:54.000Z</time>
      </trkpt>
      <trkpt lat="47.54388" lon="16.04795">
        <ele>853.869894</ele>
        <time>2026-07-07T16:47:55.000Z</time>
      </trkpt>
      <trkpt lat="47.54387" lon="16.04794">
        <ele>853.986649</ele>
        <time>2026-07-07T16:47:56.000Z</time>
      </trkpt>
      <trkpt lat="47.54387" lon="16.04793">
        <ele>854.103404</ele>
        <time>2026-07-07T16:47:57.000Z</time>
      </trkpt>
      <trkpt lat="47.54387" lon="16.04792">
        <ele>854.189265</ele>
        <time>2026-07-07T16:47:58.000Z</time>
      </trkpt>
      <trkpt lat="47.54386" lon="16.04791">
        <ele>854.298624</ele>
        <time>2026-07-07T16:47:59.000Z</time>
      </trkpt>
      <trkpt lat="47.54386" lon="16.04791">
        <ele>854.384485</ele>
        <time>2026-07-07T16:48:00.000Z</time>
      </trkpt>
      <trkpt lat="47.54385" lon="16.0479">
        <ele>854.486773</ele>
        <time>2026-07-07T16:48:01.000Z</time>
      </trkpt>
      <trkpt lat="47.54385" lon="16.04789">
        <ele>854.587871</ele>
        <time>2026-07-07T16:48:02.000Z</time>
      </trkpt>
      <trkpt lat="47.54384" lon="16.04788">
        <ele>854.700067</ele>
        <time>2026-07-07T16:48:03.000Z</time>
      </trkpt>
      <trkpt lat="47.54384" lon="16.04787">
        <ele>854.802356</ele>
        <time>2026-07-07T16:48:04.000Z</time>
      </trkpt>
      <trkpt lat="47.54383" lon="16.04786">
        <ele>854.911412</ele>
        <time>2026-07-07T16:48:05.000Z</time>
      </trkpt>
      <trkpt lat="47.54383" lon="16.04785">
        <ele>855.005584</ele>
        <time>2026-07-07T16:48:06.000Z</time>
      </trkpt>
      <trkpt lat="47.54383" lon="16.04785">
        <ele>855.107873</ele>
        <time>2026-07-07T16:48:07.000Z</time>
      </trkpt>
      <trkpt lat="47.54382" lon="16.04784">
        <ele>855.193734</ele>
        <time>2026-07-07T16:48:08.000Z</time>
      </trkpt>
      <trkpt lat="47.54382" lon="16.04783">
        <ele>855.303093</ele>
        <time>2026-07-07T16:48:09.000Z</time>
      </trkpt>
      <trkpt lat="47.54381" lon="16.04782">
        <ele>855.396497</ele>
        <time>2026-07-07T16:48:10.000Z</time>
      </trkpt>
      <trkpt lat="47.54381" lon="16.04781">
        <ele>855.513252</ele>
        <time>2026-07-07T16:48:11.000Z</time>
      </trkpt>
      <trkpt lat="47.54381" lon="16.0478">
        <ele>855.599113</ele>
        <time>2026-07-07T16:48:12.000Z</time>
      </trkpt>
      <trkpt lat="47.5438" lon="16.04779">
        <ele>855.693286</ele>
        <time>2026-07-07T16:48:13.000Z</time>
      </trkpt>
      <trkpt lat="47.5438" lon="16.04779">
        <ele>855.795575</ele>
        <time>2026-07-07T16:48:14.000Z</time>
      </trkpt>
      <trkpt lat="47.54379" lon="16.04778">
        <ele>855.897863</ele>
        <time>2026-07-07T16:48:15.000Z</time>
      </trkpt>
      <trkpt lat="47.54379" lon="16.04777">
        <ele>856.014619</ele>
        <time>2026-07-07T16:48:16.000Z</time>
      </trkpt>
      <trkpt lat="47.54378" lon="16.04776">
        <ele>856.131374</ele>
        <time>2026-07-07T16:48:17.000Z</time>
      </trkpt>
      <trkpt lat="47.54378" lon="16.04775">
        <ele>856.248129</ele>
        <time>2026-07-07T16:48:18.000Z</time>
      </trkpt>
      <trkpt lat="47.54377" lon="16.04774">
        <ele>856.376954</ele>
        <time>2026-07-07T16:48:19.000Z</time>
      </trkpt>
      <trkpt lat="47.54377" lon="16.04773">
        <ele>856.493709</ele>
        <time>2026-07-07T16:48:20.000Z</time>
      </trkpt>
      <trkpt lat="47.54376" lon="16.04772">
        <ele>856.618129</ele>
        <time>2026-07-07T16:48:21.000Z</time>
      </trkpt>
      <trkpt lat="47.54376" lon="16.04771">
        <ele>856.734884</ele>
        <time>2026-07-07T16:48:22.000Z</time>
      </trkpt>
      <trkpt lat="47.54375" lon="16.0477">
        <ele>856.86719</ele>
        <time>2026-07-07T16:48:23.000Z</time>
      </trkpt>
      <trkpt lat="47.54375" lon="16.04768">
        <ele>856.999496</ele>
        <time>2026-07-07T16:48:24.000Z</time>
      </trkpt>
      <trkpt lat="47.54374" lon="16.04767">
        <ele>857.116252</ele>
        <time>2026-07-07T16:48:25.000Z</time>
      </trkpt>
      <trkpt lat="47.54374" lon="16.04766">
        <ele>857.240672</ele>
        <time>2026-07-07T16:48:26.000Z</time>
      </trkpt>
      <trkpt lat="47.54373" lon="16.04765">
        <ele>857.375831</ele>
        <time>2026-07-07T16:48:27.000Z</time>
      </trkpt>
      <trkpt lat="47.54372" lon="16.04764">
        <ele>857.508137</ele>
        <time>2026-07-07T16:48:28.000Z</time>
      </trkpt>
      <trkpt lat="47.54372" lon="16.04763">
        <ele>857.648244</ele>
        <time>2026-07-07T16:48:29.000Z</time>
      </trkpt>
      <trkpt lat="47.54371" lon="16.04762">
        <ele>857.772664</ele>
        <time>2026-07-07T16:48:30.000Z</time>
      </trkpt>
      <trkpt lat="47.54371" lon="16.04761">
        <ele>857.889419</ele>
        <time>2026-07-07T16:48:31.000Z</time>
      </trkpt>
      <trkpt lat="47.5437" lon="16.0476">
        <ele>858.006175</ele>
        <time>2026-07-07T16:48:32.000Z</time>
      </trkpt>
      <trkpt lat="47.5437" lon="16.04759">
        <ele>858.138481</ele>
        <time>2026-07-07T16:48:33.000Z</time>
      </trkpt>
      <trkpt lat="47.54369" lon="16.04757">
        <ele>858.270787</ele>
        <time>2026-07-07T16:48:34.000Z</time>
      </trkpt>
      <trkpt lat="47.54369" lon="16.04756">
        <ele>858.395207</ele>
        <time>2026-07-07T16:48:35.000Z</time>
      </trkpt>
      <trkpt lat="47.54368" lon="16.04755">
        <ele>858.511963</ele>
        <time>2026-07-07T16:48:36.000Z</time>
      </trkpt>
      <trkpt lat="47.54368" lon="16.04754">
        <ele>858.644269</ele>
        <time>2026-07-07T16:48:37.000Z</time>
      </trkpt>
      <trkpt lat="47.54367" lon="16.04753">
        <ele>858.776575</ele>
        <time>2026-07-07T16:48:38.000Z</time>
      </trkpt>
      <trkpt lat="47.54367" lon="16.04752">
        <ele>858.878864</ele>
        <time>2026-07-07T16:48:39.000Z</time>
      </trkpt>
      <trkpt lat="47.54366" lon="16.04751">
        <ele>858.995619</ele>
        <time>2026-07-07T16:48:40.000Z</time>
      </trkpt>
      <trkpt lat="47.54366" lon="16.0475">
        <ele>859.112375</ele>
        <time>2026-07-07T16:48:41.000Z</time>
      </trkpt>
      <trkpt lat="47.54365" lon="16.04749">
        <ele>859.22913</ele>
        <time>2026-07-07T16:48:42.000Z</time>
      </trkpt>
      <trkpt lat="47.54365" lon="16.04748">
        <ele>859.345886</ele>
        <time>2026-07-07T16:48:43.000Z</time>
      </trkpt>
      <trkpt lat="47.54364" lon="16.04747">
        <ele>859.462641</ele>
        <time>2026-07-07T16:48:44.000Z</time>
      </trkpt>
      <trkpt lat="47.54364" lon="16.04746">
        <ele>859.579397</ele>
        <time>2026-07-07T16:48:45.000Z</time>
      </trkpt>
      <trkpt lat="47.54363" lon="16.04745">
        <ele>859.688453</ele>
        <time>2026-07-07T16:48:46.000Z</time>
      </trkpt>
      <trkpt lat="47.54363" lon="16.04744">
        <ele>859.813979</ele>
        <time>2026-07-07T16:48:47.000Z</time>
      </trkpt>
      <trkpt lat="47.54362" lon="16.04743">
        <ele>859.916268</ele>
        <time>2026-07-07T16:48:48.000Z</time>
      </trkpt>
      <trkpt lat="47.54362" lon="16.04742">
        <ele>860.033024</ele>
        <time>2026-07-07T16:48:49.000Z</time>
      </trkpt>
      <trkpt lat="47.54361" lon="16.04741">
        <ele>860.16533</ele>
        <time>2026-07-07T16:48:50.000Z</time>
      </trkpt>
      <trkpt lat="47.54361" lon="16.0474">
        <ele>860.282086</ele>
        <time>2026-07-07T16:48:51.000Z</time>
      </trkpt>
      <trkpt lat="47.5436" lon="16.04739">
        <ele>860.398841</ele>
        <time>2026-07-07T16:48:52.000Z</time>
      </trkpt>
      <trkpt lat="47.5436" lon="16.04738">
        <ele>860.515597</ele>
        <time>2026-07-07T16:48:53.000Z</time>
      </trkpt>
      <trkpt lat="47.54359" lon="16.04737">
        <ele>860.632353</ele>
        <time>2026-07-07T16:48:54.000Z</time>
      </trkpt>
      <trkpt lat="47.54359" lon="16.04736">
        <ele>860.741409</ele>
        <time>2026-07-07T16:48:55.000Z</time>
      </trkpt>
      <trkpt lat="47.54358" lon="16.04735">
        <ele>860.843698</ele>
        <time>2026-07-07T16:48:56.000Z</time>
      </trkpt>
      <trkpt lat="47.54358" lon="16.04734">
        <ele>860.960453</ele>
        <time>2026-07-07T16:48:57.000Z</time>
      </trkpt>
      <trkpt lat="47.54357" lon="16.04733">
        <ele>861.077209</ele>
        <time>2026-07-07T16:48:58.000Z</time>
      </trkpt>
      <trkpt lat="47.54357" lon="16.04732">
        <ele>861.193965</ele>
        <time>2026-07-07T16:48:59.000Z</time>
      </trkpt>
      <trkpt lat="47.54356" lon="16.04731">
        <ele>861.31072</ele>
        <time>2026-07-07T16:49:00.000Z</time>
      </trkpt>
      <trkpt lat="47.54356" lon="16.0473">
        <ele>861.436247</ele>
        <time>2026-07-07T16:49:01.000Z</time>
      </trkpt>
      <trkpt lat="47.54355" lon="16.04729">
        <ele>861.568553</ele>
        <time>2026-07-07T16:49:02.000Z</time>
      </trkpt>
      <trkpt lat="47.54355" lon="16.04728">
        <ele>861.677609</ele>
        <time>2026-07-07T16:49:03.000Z</time>
      </trkpt>
      <trkpt lat="47.54355" lon="16.04727">
        <ele>861.780279</ele>
        <time>2026-07-07T16:49:04.000Z</time>
      </trkpt>
      <trkpt lat="47.54354" lon="16.04726">
        <ele>861.897035</ele>
        <time>2026-07-07T16:49:05.000Z</time>
      </trkpt>
      <trkpt lat="47.54354" lon="16.04725">
        <ele>862.013791</ele>
        <time>2026-07-07T16:49:06.000Z</time>
      </trkpt>
      <trkpt lat="47.54353" lon="16.04724">
        <ele>862.116079</ele>
        <time>2026-07-07T16:49:07.000Z</time>
      </trkpt>
      <trkpt lat="47.54352" lon="16.04723">
        <ele>862.251239</ele>
        <time>2026-07-07T16:49:08.000Z</time>
      </trkpt>
      <trkpt lat="47.54352" lon="16.04722">
        <ele>862.367995</ele>
        <time>2026-07-07T16:49:09.000Z</time>
      </trkpt>
      <trkpt lat="47.54351" lon="16.04721">
        <ele>862.508102</ele>
        <time>2026-07-07T16:49:10.000Z</time>
      </trkpt>
      <trkpt lat="47.54351" lon="16.0472">
        <ele>862.640408</ele>
        <time>2026-07-07T16:49:11.000Z</time>
      </trkpt>
      <trkpt lat="47.5435" lon="16.04719">
        <ele>862.764829</ele>
        <time>2026-07-07T16:49:12.000Z</time>
      </trkpt>
      <trkpt lat="47.5435" lon="16.04718">
        <ele>862.913628</ele>
        <time>2026-07-07T16:49:13.000Z</time>
      </trkpt>
      <trkpt lat="47.54349" lon="16.04716">
        <ele>863.033687</ele>
        <time>2026-07-07T16:49:14.000Z</time>
      </trkpt>
      <trkpt lat="47.54349" lon="16.04715">
        <ele>863.158107</ele>
        <time>2026-07-07T16:49:15.000Z</time>
      </trkpt>
      <trkpt lat="47.54348" lon="16.04714">
        <ele>863.286932</ele>
        <time>2026-07-07T16:49:16.000Z</time>
      </trkpt>
      <trkpt lat="47.54348" lon="16.04713">
        <ele>863.403688</ele>
        <time>2026-07-07T16:49:17.000Z</time>
      </trkpt>
      <trkpt lat="47.54347" lon="16.04713">
        <ele>863.505977</ele>
        <time>2026-07-07T16:49:18.000Z</time>
      </trkpt>
      <trkpt lat="47.54347" lon="16.04712">
        <ele>863.622732</ele>
        <time>2026-07-07T16:49:19.000Z</time>
      </trkpt>
      <trkpt lat="47.54346" lon="16.04711">
        <ele>863.757892</ele>
        <time>2026-07-07T16:49:20.000Z</time>
      </trkpt>
      <trkpt lat="47.54345" lon="16.0471">
        <ele>863.874648</ele>
        <time>2026-07-07T16:49:21.000Z</time>
      </trkpt>
      <trkpt lat="47.54345" lon="16.04708">
        <ele>864.014755</ele>
        <time>2026-07-07T16:49:22.000Z</time>
      </trkpt>
      <trkpt lat="47.54344" lon="16.04707">
        <ele>864.131511</ele>
        <time>2026-07-07T16:49:23.000Z</time>
      </trkpt>
      <trkpt lat="47.54344" lon="16.04706">
        <ele>864.248737</ele>
        <time>2026-07-07T16:49:24.000Z</time>
      </trkpt>
      <trkpt lat="47.54343" lon="16.04705">
        <ele>864.365493</ele>
        <time>2026-07-07T16:49:25.000Z</time>
      </trkpt>
      <trkpt lat="47.54343" lon="16.04704">
        <ele>864.491019</ele>
        <time>2026-07-07T16:49:26.000Z</time>
      </trkpt>
      <trkpt lat="47.54342" lon="16.04703">
        <ele>864.607775</ele>
        <time>2026-07-07T16:49:27.000Z</time>
      </trkpt>
      <trkpt lat="47.54342" lon="16.04702">
        <ele>864.724531</ele>
        <time>2026-07-07T16:49:28.000Z</time>
      </trkpt>
      <trkpt lat="47.54341" lon="16.04701">
        <ele>864.859691</ele>
        <time>2026-07-07T16:49:29.000Z</time>
      </trkpt>
      <trkpt lat="47.54341" lon="16.047">
        <ele>864.976447</ele>
        <time>2026-07-07T16:49:30.000Z</time>
      </trkpt>
      <trkpt lat="47.5434" lon="16.04699">
        <ele>865.093203</ele>
        <time>2026-07-07T16:49:31.000Z</time>
      </trkpt>
      <trkpt lat="47.54339" lon="16.04698">
        <ele>865.228363</ele>
        <time>2026-07-07T16:49:32.000Z</time>
      </trkpt>
      <trkpt lat="47.54339" lon="16.04697">
        <ele>865.360669</ele>
        <time>2026-07-07T16:49:33.000Z</time>
      </trkpt>
      <trkpt lat="47.54338" lon="16.04696">
        <ele>865.477425</ele>
        <time>2026-07-07T16:49:34.000Z</time>
      </trkpt>
      <trkpt lat="47.54338" lon="16.04695">
        <ele>865.579714</ele>
        <time>2026-07-07T16:49:35.000Z</time>
      </trkpt>
      <trkpt lat="47.54337" lon="16.04694">
        <ele>865.705241</ele>
        <time>2026-07-07T16:49:36.000Z</time>
      </trkpt>
      <trkpt lat="47.54337" lon="16.04693">
        <ele>865.837547</ele>
        <time>2026-07-07T16:49:37.000Z</time>
      </trkpt>
      <trkpt lat="47.54336" lon="16.04692">
        <ele>865.954303</ele>
        <time>2026-07-07T16:49:38.000Z</time>
      </trkpt>
      <trkpt lat="47.54336" lon="16.04691">
        <ele>866.071059</ele>
        <time>2026-07-07T16:49:39.000Z</time>
      </trkpt>
      <trkpt lat="47.54335" lon="16.0469">
        <ele>866.206219</ele>
        <time>2026-07-07T16:49:40.000Z</time>
      </trkpt>
      <trkpt lat="47.54335" lon="16.04689">
        <ele>866.322975</ele>
        <time>2026-07-07T16:49:41.000Z</time>
      </trkpt>
      <trkpt lat="47.54334" lon="16.04688">
        <ele>866.386899</ele>
        <time>2026-07-07T16:49:42.000Z</time>
      </trkpt>
      <trkpt lat="47.54334" lon="16.04687">
        <ele>866.442586</ele>
        <time>2026-07-07T16:49:43.000Z</time>
      </trkpt>
      <trkpt lat="47.54333" lon="16.04686">
        <ele>866.505914</ele>
        <time>2026-07-07T16:49:44.000Z</time>
      </trkpt>
      <trkpt lat="47.54333" lon="16.04685">
        <ele>866.569241</ele>
        <time>2026-07-07T16:49:45.000Z</time>
      </trkpt>
      <trkpt lat="47.54332" lon="16.04684">
        <ele>866.632568</ele>
        <time>2026-07-07T16:49:46.000Z</time>
      </trkpt>
      <trkpt lat="47.54332" lon="16.04683">
        <ele>866.695896</ele>
        <time>2026-07-07T16:49:47.000Z</time>
      </trkpt>
      <trkpt lat="47.54331" lon="16.04682">
        <ele>866.759223</ele>
        <time>2026-07-07T16:49:48.000Z</time>
      </trkpt>
      <trkpt lat="47.54331" lon="16.04681">
        <ele>866.82255</ele>
        <time>2026-07-07T16:49:49.000Z</time>
      </trkpt>
      <trkpt lat="47.5433" lon="16.0468">
        <ele>866.885878</ele>
        <time>2026-07-07T16:49:50.000Z</time>
      </trkpt>
      <trkpt lat="47.5433" lon="16.04679">
        <ele>866.941358</ele>
        <time>2026-07-07T16:49:51.000Z</time>
      </trkpt>
      <trkpt lat="47.54329" lon="16.04678">
        <ele>867.004686</ele>
        <time>2026-07-07T16:49:52.000Z</time>
      </trkpt>
      <trkpt lat="47.54329" lon="16.04677">
        <ele>867.068013</ele>
        <time>2026-07-07T16:49:53.000Z</time>
      </trkpt>
      <trkpt lat="47.54328" lon="16.04676">
        <ele>867.13134</ele>
        <time>2026-07-07T16:49:54.000Z</time>
      </trkpt>
      <trkpt lat="47.54328" lon="16.04675">
        <ele>867.190656</ele>
        <time>2026-07-07T16:49:55.000Z</time>
      </trkpt>
      <trkpt lat="47.54327" lon="16.04674">
        <ele>867.253983</ele>
        <time>2026-07-07T16:49:56.000Z</time>
      </trkpt>
      <trkpt lat="47.54327" lon="16.04673">
        <ele>867.317311</ele>
        <time>2026-07-07T16:49:57.000Z</time>
      </trkpt>
      <trkpt lat="47.54326" lon="16.04672">
        <ele>867.39062</ele>
        <time>2026-07-07T16:49:58.000Z</time>
      </trkpt>
      <trkpt lat="47.54326" lon="16.04671">
        <ele>867.453947</ele>
        <time>2026-07-07T16:49:59.000Z</time>
      </trkpt>
      <trkpt lat="47.54325" lon="16.0467">
        <ele>867.521432</ele>
        <time>2026-07-07T16:50:00.000Z</time>
      </trkpt>
      <trkpt lat="47.54325" lon="16.04669">
        <ele>867.584759</ele>
        <time>2026-07-07T16:50:01.000Z</time>
      </trkpt>
      <trkpt lat="47.54324" lon="16.04668">
        <ele>867.648087</ele>
        <time>2026-07-07T16:50:02.000Z</time>
      </trkpt>
      <trkpt lat="47.54323" lon="16.04667">
        <ele>867.721396</ele>
        <time>2026-07-07T16:50:03.000Z</time>
      </trkpt>
      <trkpt lat="47.54323" lon="16.04666">
        <ele>867.793158</ele>
        <time>2026-07-07T16:50:04.000Z</time>
      </trkpt>
      <trkpt lat="47.54323" lon="16.04665">
        <ele>867.858277</ele>
        <time>2026-07-07T16:50:05.000Z</time>
      </trkpt>
      <trkpt lat="47.54322" lon="16.04664">
        <ele>867.925762</ele>
        <time>2026-07-07T16:50:06.000Z</time>
      </trkpt>
      <trkpt lat="47.54321" lon="16.04663">
        <ele>867.999072</ele>
        <time>2026-07-07T16:50:07.000Z</time>
      </trkpt>
      <trkpt lat="47.54321" lon="16.04662">
        <ele>868.067156</ele>
        <time>2026-07-07T16:50:08.000Z</time>
      </trkpt>
      <trkpt lat="47.5432" lon="16.04661">
        <ele>868.138918</ele>
        <time>2026-07-07T16:50:09.000Z</time>
      </trkpt>
      <trkpt lat="47.5432" lon="16.0466">
        <ele>868.202245</ele>
        <time>2026-07-07T16:50:10.000Z</time>
      </trkpt>
      <trkpt lat="47.54319" lon="16.04659">
        <ele>868.275555</ele>
        <time>2026-07-07T16:50:11.000Z</time>
      </trkpt>
      <trkpt lat="47.54319" lon="16.04658">
        <ele>868.338882</ele>
        <time>2026-07-07T16:50:12.000Z</time>
      </trkpt>
      <trkpt lat="47.54318" lon="16.04657">
        <ele>868.412192</ele>
        <time>2026-07-07T16:50:13.000Z</time>
      </trkpt>
      <trkpt lat="47.54318" lon="16.04655">
        <ele>868.477311</ele>
        <time>2026-07-07T16:50:14.000Z</time>
      </trkpt>
      <trkpt lat="47.54317" lon="16.04654">
        <ele>868.544796</ele>
        <time>2026-07-07T16:50:15.000Z</time>
      </trkpt>
      <trkpt lat="47.54317" lon="16.04653">
        <ele>868.616558</ele>
        <time>2026-07-07T16:50:16.000Z</time>
      </trkpt>
      <trkpt lat="47.54316" lon="16.04652">
        <ele>868.679885</ele>
        <time>2026-07-07T16:50:17.000Z</time>
      </trkpt>
      <trkpt lat="47.54316" lon="16.04651">
        <ele>868.751647</ele>
        <time>2026-07-07T16:50:18.000Z</time>
      </trkpt>
      <trkpt lat="47.54315" lon="16.0465">
        <ele>868.814975</ele>
        <time>2026-07-07T16:50:19.000Z</time>
      </trkpt>
      <trkpt lat="47.54314" lon="16.04649">
        <ele>868.888284</ele>
        <time>2026-07-07T16:50:20.000Z</time>
      </trkpt>
      <trkpt lat="47.54314" lon="16.04648">
        <ele>868.955769</ele>
        <time>2026-07-07T16:50:21.000Z</time>
      </trkpt>
      <trkpt lat="47.54313" lon="16.04647">
        <ele>869.023854</ele>
        <time>2026-07-07T16:50:22.000Z</time>
      </trkpt>
      <trkpt lat="47.54313" lon="16.04646">
        <ele>869.095616</ele>
        <time>2026-07-07T16:50:23.000Z</time>
      </trkpt>
      <trkpt lat="47.54312" lon="16.04645">
        <ele>869.154767</ele>
        <time>2026-07-07T16:50:24.000Z</time>
      </trkpt>
      <trkpt lat="47.54312" lon="16.04643">
        <ele>869.226529</ele>
        <time>2026-07-07T16:50:25.000Z</time>
      </trkpt>
      <trkpt lat="47.54311" lon="16.04642">
        <ele>869.294014</ele>
        <time>2026-07-07T16:50:26.000Z</time>
      </trkpt>
      <trkpt lat="47.54311" lon="16.04641">
        <ele>869.357341</ele>
        <time>2026-07-07T16:50:27.000Z</time>
      </trkpt>
      <trkpt lat="47.5431" lon="16.0464">
        <ele>869.425426</ele>
        <time>2026-07-07T16:50:28.000Z</time>
      </trkpt>
      <trkpt lat="47.5431" lon="16.04639">
        <ele>869.488753</ele>
        <time>2026-07-07T16:50:29.000Z</time>
      </trkpt>
      <trkpt lat="47.54309" lon="16.04638">
        <ele>869.560516</ele>
        <time>2026-07-07T16:50:30.000Z</time>
      </trkpt>
      <trkpt lat="47.54309" lon="16.04637">
        <ele>869.623843</ele>
        <time>2026-07-07T16:50:31.000Z</time>
      </trkpt>
      <trkpt lat="47.54308" lon="16.04636">
        <ele>869.687171</ele>
        <time>2026-07-07T16:50:32.000Z</time>
      </trkpt>
      <trkpt lat="47.54308" lon="16.04635">
        <ele>869.750498</ele>
        <time>2026-07-07T16:50:34.000Z</time>
      </trkpt>
      <trkpt lat="47.54307" lon="16.04634">
        <ele>869.813826</ele>
        <time>2026-07-07T16:50:35.000Z</time>
      </trkpt>
      <trkpt lat="47.54307" lon="16.04633">
        <ele>869.887135</ele>
        <time>2026-07-07T16:50:36.000Z</time>
      </trkpt>
      <trkpt lat="47.54306" lon="16.04632">
        <ele>869.958897</ele>
        <time>2026-07-07T16:50:37.000Z</time>
      </trkpt>
      <trkpt lat="47.54305" lon="16.04631">
        <ele>870.032207</ele>
        <time>2026-07-07T16:50:38.000Z</time>
      </trkpt>
      <trkpt lat="47.54305" lon="16.0463">
        <ele>870.099692</ele>
        <time>2026-07-07T16:50:39.000Z</time>
      </trkpt>
      <trkpt lat="47.54304" lon="16.04629">
        <ele>870.171454</ele>
        <time>2026-07-07T16:50:40.000Z</time>
      </trkpt>
      <trkpt lat="47.54304" lon="16.04627">
        <ele>870.236573</ele>
        <time>2026-07-07T16:50:41.000Z</time>
      </trkpt>
      <trkpt lat="47.54304" lon="16.04626">
        <ele>870.296946</ele>
        <time>2026-07-07T16:50:42.000Z</time>
      </trkpt>
      <trkpt lat="47.54304" lon="16.04625">
        <ele>870.359846</ele>
        <time>2026-07-07T16:50:43.000Z</time>
      </trkpt>
      <trkpt lat="47.54303" lon="16.04624">
        <ele>870.424965</ele>
        <time>2026-07-07T16:50:44.000Z</time>
      </trkpt>
      <trkpt lat="47.54303" lon="16.04623">
        <ele>870.484117</ele>
        <time>2026-07-07T16:50:45.000Z</time>
      </trkpt>
      <trkpt lat="47.54303" lon="16.04622">
        <ele>870.539804</ele>
        <time>2026-07-07T16:50:46.000Z</time>
      </trkpt>
      <trkpt lat="47.54302" lon="16.04621">
        <ele>870.600177</ele>
        <time>2026-07-07T16:50:47.000Z</time>
      </trkpt>
      <trkpt lat="47.54302" lon="16.0462">
        <ele>870.663505</ele>
        <time>2026-07-07T16:50:48.000Z</time>
      </trkpt>
      <trkpt lat="47.54301" lon="16.04618">
        <ele>870.740867</ele>
        <time>2026-07-07T16:50:49.000Z</time>
      </trkpt>
      <trkpt lat="47.54301" lon="16.04617">
        <ele>870.810781</ele>
        <time>2026-07-07T16:50:50.000Z</time>
      </trkpt>
      <trkpt lat="47.54301" lon="16.04616">
        <ele>870.873681</ele>
        <time>2026-07-07T16:50:51.000Z</time>
      </trkpt>
      <trkpt lat="47.543" lon="16.04615">
        <ele>870.937008</ele>
        <time>2026-07-07T16:50:52.000Z</time>
      </trkpt>
      <trkpt lat="47.543" lon="16.04614">
        <ele>871.004493</ele>
        <time>2026-07-07T16:50:53.000Z</time>
      </trkpt>
      <trkpt lat="47.543" lon="16.04613">
        <ele>871.069612</ele>
        <time>2026-07-07T16:50:54.000Z</time>
      </trkpt>
      <trkpt lat="47.54299" lon="16.04612">
        <ele>871.1253</ele>
        <time>2026-07-07T16:50:55.000Z</time>
      </trkpt>
      <trkpt lat="47.54299" lon="16.0461">
        <ele>871.193405</ele>
        <time>2026-07-07T16:50:56.000Z</time>
      </trkpt>
      <trkpt lat="47.54299" lon="16.04609">
        <ele>871.253778</ele>
        <time>2026-07-07T16:50:57.000Z</time>
      </trkpt>
      <trkpt lat="47.54298" lon="16.04608">
        <ele>871.334379</ele>
        <time>2026-07-07T16:50:58.000Z</time>
      </trkpt>
      <trkpt lat="47.54298" lon="16.04607">
        <ele>871.404292</ele>
        <time>2026-07-07T16:50:59.000Z</time>
      </trkpt>
      <trkpt lat="47.54298" lon="16.04605">
        <ele>871.467192</ele>
        <time>2026-07-07T16:51:00.000Z</time>
      </trkpt>
      <trkpt lat="47.54297" lon="16.04604">
        <ele>871.535043</ele>
        <time>2026-07-07T16:51:01.000Z</time>
      </trkpt>
      <trkpt lat="47.54297" lon="16.04603">
        <ele>871.614656</ele>
        <time>2026-07-07T16:51:02.000Z</time>
      </trkpt>
      <trkpt lat="47.54297" lon="16.04601">
        <ele>871.690795</ele>
        <time>2026-07-07T16:51:03.000Z</time>
      </trkpt>
      <trkpt lat="47.54296" lon="16.046">
        <ele>871.771503</ele>
        <time>2026-07-07T16:51:04.000Z</time>
      </trkpt>
      <trkpt lat="47.54295" lon="16.04599">
        <ele>871.850413</ele>
        <time>2026-07-07T16:51:05.000Z</time>
      </trkpt>
      <trkpt lat="47.54295" lon="16.04599">
        <ele>871.884455</ele>
        <time>2026-07-07T16:51:06.000Z</time>
      </trkpt>
      <trkpt lat="47.54295" lon="16.04599">
        <ele>871.897121</ele>
        <time>2026-07-07T16:51:07.000Z</time>
      </trkpt>
      <trkpt lat="47.54289" lon="16.04593">
        <ele>872.436308</ele>
        <time>2026-07-07T16:51:29.000Z</time>
      </trkpt>
      <trkpt lat="47.54288" lon="16.04591">
        <ele>872.55494</ele>
        <time>2026-07-07T16:51:30.000Z</time>
      </trkpt>
      <trkpt lat="47.54287" lon="16.04589">
        <ele>872.681595</ele>
        <time>2026-07-07T16:51:31.000Z</time>
      </trkpt>
      <trkpt lat="47.54286" lon="16.04587">
        <ele>872.816565</ele>
        <time>2026-07-07T16:51:32.000Z</time>
      </trkpt>
      <trkpt lat="47.54285" lon="16.04585">
        <ele>872.945305</ele>
        <time>2026-07-07T16:51:33.000Z</time>
      </trkpt>
      <trkpt lat="47.54284" lon="16.04583">
        <ele>873.072683</ele>
        <time>2026-07-07T16:51:34.000Z</time>
      </trkpt>
      <trkpt lat="47.54283" lon="16.04581">
        <ele>873.191314</ele>
        <time>2026-07-07T16:51:35.000Z</time>
      </trkpt>
      <trkpt lat="47.54281" lon="16.04579">
        <ele>873.32778</ele>
        <time>2026-07-07T16:51:36.000Z</time>
      </trkpt>
      <trkpt lat="47.5428" lon="16.04578">
        <ele>873.44602</ele>
        <time>2026-07-07T16:51:37.000Z</time>
      </trkpt>
      <trkpt lat="47.54279" lon="16.04576">
        <ele>873.588396</ele>
        <time>2026-07-07T16:51:38.000Z</time>
      </trkpt>
      <trkpt lat="47.54277" lon="16.04575">
        <ele>873.706637</ele>
        <time>2026-07-07T16:51:39.000Z</time>
      </trkpt>
      <trkpt lat="47.54276" lon="16.04574">
        <ele>873.803653</ele>
        <time>2026-07-07T16:51:40.000Z</time>
      </trkpt>
      <trkpt lat="47.54275" lon="16.04573">
        <ele>873.891612</ele>
        <time>2026-07-07T16:51:41.000Z</time>
      </trkpt>
      <trkpt lat="47.54274" lon="16.04571">
        <ele>874.00432</ele>
        <time>2026-07-07T16:51:42.000Z</time>
      </trkpt>
      <trkpt lat="47.54273" lon="16.0457">
        <ele>874.140752</ele>
        <time>2026-07-07T16:51:43.000Z</time>
      </trkpt>
      <trkpt lat="47.54271" lon="16.04568">
        <ele>874.289918</ele>
        <time>2026-07-07T16:51:44.000Z</time>
      </trkpt>
      <trkpt lat="47.54269" lon="16.04567">
        <ele>874.444541</ele>
        <time>2026-07-07T16:51:45.000Z</time>
      </trkpt>
      <trkpt lat="47.54268" lon="16.04565">
        <ele>874.587283</ele>
        <time>2026-07-07T16:51:46.000Z</time>
      </trkpt>
      <trkpt lat="47.54266" lon="16.04563">
        <ele>874.741905</ele>
        <time>2026-07-07T16:51:47.000Z</time>
      </trkpt>
      <trkpt lat="47.54264" lon="16.04562">
        <ele>874.899431</ele>
        <time>2026-07-07T16:51:48.000Z</time>
      </trkpt>
      <trkpt lat="47.54263" lon="16.0456">
        <ele>875.050888</ele>
        <time>2026-07-07T16:51:49.000Z</time>
      </trkpt>
      <trkpt lat="47.54261" lon="16.04558">
        <ele>875.213192</ele>
        <time>2026-07-07T16:51:50.000Z</time>
      </trkpt>
      <trkpt lat="47.54259" lon="16.04557">
        <ele>875.379949</ele>
        <time>2026-07-07T16:51:51.000Z</time>
      </trkpt>
      <trkpt lat="47.54257" lon="16.04555">
        <ele>875.538197</ele>
        <time>2026-07-07T16:51:52.000Z</time>
      </trkpt>
      <trkpt lat="47.54255" lon="16.04554">
        <ele>875.699123</ele>
        <time>2026-07-07T16:51:53.000Z</time>
      </trkpt>
      <trkpt lat="47.54253" lon="16.04552">
        <ele>875.863771</ele>
        <time>2026-07-07T16:51:54.000Z</time>
      </trkpt>
      <trkpt lat="47.54251" lon="16.04551">
        <ele>876.030528</ele>
        <time>2026-07-07T16:51:55.000Z</time>
      </trkpt>
      <trkpt lat="47.54249" lon="16.04549">
        <ele>876.199522</ele>
        <time>2026-07-07T16:51:56.000Z</time>
      </trkpt>
      <trkpt lat="47.54247" lon="16.04548">
        <ele>876.374563</ele>
        <time>2026-07-07T16:51:57.000Z</time>
      </trkpt>
      <trkpt lat="47.54245" lon="16.04547">
        <ele>876.551297</ele>
        <time>2026-07-07T16:51:58.000Z</time>
      </trkpt>
      <trkpt lat="47.54243" lon="16.04546">
        <ele>876.72705</ele>
        <time>2026-07-07T16:51:59.000Z</time>
      </trkpt>
      <trkpt lat="47.5424" lon="16.04544">
        <ele>876.918004</ele>
        <time>2026-07-07T16:52:00.000Z</time>
      </trkpt>
      <trkpt lat="47.54238" lon="16.04543">
        <ele>877.098706</ele>
        <time>2026-07-07T16:52:01.000Z</time>
      </trkpt>
      <trkpt lat="47.54236" lon="16.04542">
        <ele>877.29392</ele>
        <time>2026-07-07T16:52:02.000Z</time>
      </trkpt>
      <trkpt lat="47.54233" lon="16.04542">
        <ele>877.486732</ele>
        <time>2026-07-07T16:52:03.000Z</time>
      </trkpt>
      <trkpt lat="47.54231" lon="16.04541">
        <ele>877.678534</ele>
        <time>2026-07-07T16:52:04.000Z</time>
      </trkpt>
      <trkpt lat="47.54228" lon="16.04541">
        <ele>877.852593</ele>
        <time>2026-07-07T16:52:05.000Z</time>
      </trkpt>
      <trkpt lat="47.54226" lon="16.0454">
        <ele>878.041675</ele>
        <time>2026-07-07T16:52:06.000Z</time>
      </trkpt>
      <trkpt lat="47.54223" lon="16.0454">
        <ele>878.245471</ele>
        <time>2026-07-07T16:52:07.000Z</time>
      </trkpt>
      <trkpt lat="47.54221" lon="16.0454">
        <ele>878.434211</ele>
        <time>2026-07-07T16:52:08.000Z</time>
      </trkpt>
      <trkpt lat="47.54218" lon="16.04541">
        <ele>878.623293</ele>
        <time>2026-07-07T16:52:09.000Z</time>
      </trkpt>
      <trkpt lat="47.54216" lon="16.04541">
        <ele>878.815095</ele>
        <time>2026-07-07T16:52:10.000Z</time>
      </trkpt>
      <trkpt lat="47.54213" lon="16.04542">
        <ele>878.993198</ele>
        <time>2026-07-07T16:52:11.000Z</time>
      </trkpt>
      <trkpt lat="47.54211" lon="16.04543">
        <ele>879.181145</ele>
        <time>2026-07-07T16:52:12.000Z</time>
      </trkpt>
      <trkpt lat="47.54209" lon="16.04544">
        <ele>879.364973</ele>
        <time>2026-07-07T16:52:13.000Z</time>
      </trkpt>
      <trkpt lat="47.54206" lon="16.04546">
        <ele>879.547545</ele>
        <time>2026-07-07T16:52:14.000Z</time>
      </trkpt>
      <trkpt lat="47.54204" lon="16.04547">
        <ele>879.723298</ele>
        <time>2026-07-07T16:52:15.000Z</time>
      </trkpt>
      <trkpt lat="47.54202" lon="16.04549">
        <ele>879.893029</ele>
        <time>2026-07-07T16:52:16.000Z</time>
      </trkpt>
      <trkpt lat="47.542" lon="16.04551">
        <ele>880.041504</ele>
        <time>2026-07-07T16:52:17.000Z</time>
      </trkpt>
      <trkpt lat="47.54198" lon="16.04552">
        <ele>880.182137</ele>
        <time>2026-07-07T16:52:18.000Z</time>
      </trkpt>
      <trkpt lat="47.54196" lon="16.04553">
        <ele>880.324572</ele>
        <time>2026-07-07T16:52:19.000Z</time>
      </trkpt>
      <trkpt lat="47.54194" lon="16.04555">
        <ele>880.465301</ele>
        <time>2026-07-07T16:52:20.000Z</time>
      </trkpt>
      <trkpt lat="47.54193" lon="16.04556">
        <ele>880.587224</ele>
        <time>2026-07-07T16:52:21.000Z</time>
      </trkpt>
      <trkpt lat="47.54191" lon="16.04558">
        <ele>880.714635</ele>
        <time>2026-07-07T16:52:22.000Z</time>
      </trkpt>
      <trkpt lat="47.54189" lon="16.04559">
        <ele>880.847618</ele>
        <time>2026-07-07T16:52:23.000Z</time>
      </trkpt>
      <trkpt lat="47.54187" lon="16.04561">
        <ele>880.986562</ele>
        <time>2026-07-07T16:52:24.000Z</time>
      </trkpt>
      <trkpt lat="47.54185" lon="16.04562">
        <ele>881.121324</ele>
        <time>2026-07-07T16:52:25.000Z</time>
      </trkpt>
      <trkpt lat="47.54184" lon="16.04563">
        <ele>881.254307</ele>
        <time>2026-07-07T16:52:26.000Z</time>
      </trkpt>
      <trkpt lat="47.54182" lon="16.04565">
        <ele>881.381407</ele>
        <time>2026-07-07T16:52:27.000Z</time>
      </trkpt>
      <trkpt lat="47.5418" lon="16.04566">
        <ele>881.514404</ele>
        <time>2026-07-07T16:52:28.000Z</time>
      </trkpt>
      <trkpt lat="47.54178" lon="16.04567">
        <ele>881.627984</ele>
        <time>2026-07-07T16:52:29.000Z</time>
      </trkpt>
      <trkpt lat="47.54177" lon="16.04568">
        <ele>881.755395</ele>
        <time>2026-07-07T16:52:30.000Z</time>
      </trkpt>
      <trkpt lat="47.54175" lon="16.0457">
        <ele>881.880637</ele>
        <time>2026-07-07T16:52:31.000Z</time>
      </trkpt>
      <trkpt lat="47.54173" lon="16.04571">
        <ele>881.994217</ele>
        <time>2026-07-07T16:52:32.000Z</time>
      </trkpt>
      <trkpt lat="47.54171" lon="16.04572">
        <ele>882.127214</ele>
        <time>2026-07-07T16:52:33.000Z</time>
      </trkpt>
      <trkpt lat="47.5417" lon="16.04573">
        <ele>882.254314</ele>
        <time>2026-07-07T16:52:34.000Z</time>
      </trkpt>
      <trkpt lat="47.54168" lon="16.04574">
        <ele>882.372092</ele>
        <time>2026-07-07T16:52:35.000Z</time>
      </trkpt>
      <trkpt lat="47.54166" lon="16.04576">
        <ele>882.501037</ele>
        <time>2026-07-07T16:52:36.000Z</time>
      </trkpt>
      <trkpt lat="47.54164" lon="16.04577">
        <ele>882.63402</ele>
        <time>2026-07-07T16:52:37.000Z</time>
      </trkpt>
      <trkpt lat="47.54162" lon="16.04578">
        <ele>882.767018</ele>
        <time>2026-07-07T16:52:38.000Z</time>
      </trkpt>
      <trkpt lat="47.5416" lon="16.04579">
        <ele>882.904389</ele>
        <time>2026-07-07T16:52:39.000Z</time>
      </trkpt>
      <trkpt lat="47.54158" lon="16.0458">
        <ele>883.036716</ele>
        <time>2026-07-07T16:52:40.000Z</time>
      </trkpt>
      <trkpt lat="47.54156" lon="16.04581">
        <ele>883.169043</ele>
        <time>2026-07-07T16:52:41.000Z</time>
      </trkpt>
      <trkpt lat="47.54154" lon="16.04581">
        <ele>883.304891</ele>
        <time>2026-07-07T16:52:42.000Z</time>
      </trkpt>
      <trkpt lat="47.54152" lon="16.04581">
        <ele>883.433672</ele>
        <time>2026-07-07T16:52:43.000Z</time>
      </trkpt>
      <trkpt lat="47.5415" lon="16.04581">
        <ele>883.562454</ele>
        <time>2026-07-07T16:52:44.000Z</time>
      </trkpt>
      <trkpt lat="47.54148" lon="16.04581">
        <ele>883.704712</ele>
        <time>2026-07-07T16:52:45.000Z</time>
      </trkpt>
      <trkpt lat="47.54146" lon="16.04582">
        <ele>883.835314</ele>
        <time>2026-07-07T16:52:46.000Z</time>
      </trkpt>
      <trkpt lat="47.54144" lon="16.04582">
        <ele>883.953238</ele>
        <time>2026-07-07T16:52:47.000Z</time>
      </trkpt>
      <trkpt lat="47.54142" lon="16.04583">
        <ele>884.083188</ele>
        <time>2026-07-07T16:52:48.000Z</time>
      </trkpt>
      <trkpt lat="47.5414" lon="16.04583">
        <ele>884.212627</ele>
        <time>2026-07-07T16:52:49.000Z</time>
      </trkpt>
      <trkpt lat="47.54138" lon="16.04583">
        <ele>884.342067</ele>
        <time>2026-07-07T16:52:50.000Z</time>
      </trkpt>
      <trkpt lat="47.54136" lon="16.04584">
        <ele>884.464718</ele>
        <time>2026-07-07T16:52:51.000Z</time>
      </trkpt>
      <trkpt lat="47.54135" lon="16.04584">
        <ele>884.580947</ele>
        <time>2026-07-07T16:52:52.000Z</time>
      </trkpt>
      <trkpt lat="47.54133" lon="16.04584">
        <ele>884.696932</ele>
        <time>2026-07-07T16:52:53.000Z</time>
      </trkpt>
      <trkpt lat="47.54131" lon="16.04584">
        <ele>884.821189</ele>
        <time>2026-07-07T16:52:54.000Z</time>
      </trkpt>
      <trkpt lat="47.54129" lon="16.04584">
        <ele>884.937093</ele>
        <time>2026-07-07T16:52:55.000Z</time>
      </trkpt>
      <trkpt lat="47.54127" lon="16.04584">
        <ele>885.053727</ele>
        <time>2026-07-07T16:52:56.000Z</time>
      </trkpt>
      <trkpt lat="47.54125" lon="16.04584">
        <ele>885.176069</ele>
        <time>2026-07-07T16:52:57.000Z</time>
      </trkpt>
      <trkpt lat="47.54123" lon="16.04584">
        <ele>885.304851</ele>
        <time>2026-07-07T16:52:58.000Z</time>
      </trkpt>
      <trkpt lat="47.54122" lon="16.04584">
        <ele>885.42108</ele>
        <time>2026-07-07T16:52:59.000Z</time>
      </trkpt>
      <trkpt lat="47.5412" lon="16.04585">
        <ele>885.539003</ele>
        <time>2026-07-07T16:53:00.000Z</time>
      </trkpt>
      <trkpt lat="47.54118" lon="16.04585">
        <ele>885.651531</ele>
        <time>2026-07-07T16:53:01.000Z</time>
      </trkpt>
      <trkpt lat="47.54116" lon="16.04586">
        <ele>885.762368</ele>
        <time>2026-07-07T16:53:02.000Z</time>
      </trkpt>
      <trkpt lat="47.54115" lon="16.04586">
        <ele>885.86766</ele>
        <time>2026-07-07T16:53:03.000Z</time>
      </trkpt>
      <trkpt lat="47.54113" lon="16.04587">
        <ele>885.977898</ele>
        <time>2026-07-07T16:53:04.000Z</time>
      </trkpt>
      <trkpt lat="47.54111" lon="16.04587">
        <ele>886.087707</ele>
        <time>2026-07-07T16:53:05.000Z</time>
      </trkpt>
      <trkpt lat="47.5411" lon="16.04587">
        <ele>886.190732</ele>
        <time>2026-07-07T16:53:06.000Z</time>
      </trkpt>
      <trkpt lat="47.54108" lon="16.04586">
        <ele>886.301569</ele>
        <time>2026-07-07T16:53:07.000Z</time>
      </trkpt>
      <trkpt lat="47.54106" lon="16.04586">
        <ele>886.417472</ele>
        <time>2026-07-07T16:53:08.000Z</time>
      </trkpt>
      <trkpt lat="47.54105" lon="16.04586">
        <ele>886.526936</ele>
        <time>2026-07-07T16:53:09.000Z</time>
      </trkpt>
      <trkpt lat="47.54103" lon="16.04586">
        <ele>886.636486</ele>
        <time>2026-07-07T16:53:10.000Z</time>
      </trkpt>
      <trkpt lat="47.54101" lon="16.04586">
        <ele>886.739603</ele>
        <time>2026-07-07T16:53:11.000Z</time>
      </trkpt>
      <trkpt lat="47.54099" lon="16.04587">
        <ele>886.863175</ele>
        <time>2026-07-07T16:53:12.000Z</time>
      </trkpt>
      <trkpt lat="47.54098" lon="16.04587">
        <ele>886.9662</ele>
        <time>2026-07-07T16:53:13.000Z</time>
      </trkpt>
      <trkpt lat="47.54096" lon="16.04587">
        <ele>887.075664</ele>
        <time>2026-07-07T16:53:14.000Z</time>
      </trkpt>
      <trkpt lat="47.54094" lon="16.04587">
        <ele>887.187265</ele>
        <time>2026-07-07T16:53:15.000Z</time>
      </trkpt>
      <trkpt lat="47.54093" lon="16.04588">
        <ele>887.291112</ele>
        <time>2026-07-07T16:53:16.000Z</time>
      </trkpt>
      <trkpt lat="47.54091" lon="16.04588">
        <ele>887.413454</ele>
        <time>2026-07-07T16:53:17.000Z</time>
      </trkpt>
      <trkpt lat="47.54089" lon="16.04588">
        <ele>887.516846</ele>
        <time>2026-07-07T16:53:18.000Z</time>
      </trkpt>
      <trkpt lat="47.54088" lon="16.04588">
        <ele>887.626396</ele>
        <time>2026-07-07T16:53:19.000Z</time>
      </trkpt>
      <trkpt lat="47.54086" lon="16.04588">
        <ele>887.736205</ele>
        <time>2026-07-07T16:53:20.000Z</time>
      </trkpt>
      <trkpt lat="47.54084" lon="16.04588">
        <ele>887.839596</ele>
        <time>2026-07-07T16:53:21.000Z</time>
      </trkpt>
      <trkpt lat="47.54083" lon="16.04588">
        <ele>887.94906</ele>
        <time>2026-07-07T16:53:22.000Z</time>
      </trkpt>
      <trkpt lat="47.54081" lon="16.04588">
        <ele>888.059897</ele>
        <time>2026-07-07T16:53:23.000Z</time>
      </trkpt>
      <trkpt lat="47.54079" lon="16.04588">
        <ele>888.162922</ele>
        <time>2026-07-07T16:53:24.000Z</time>
      </trkpt>
      <trkpt lat="47.54077" lon="16.04588">
        <ele>888.286493</ele>
        <time>2026-07-07T16:53:25.000Z</time>
      </trkpt>
      <trkpt lat="47.54076" lon="16.04589">
        <ele>888.403128</ele>
        <time>2026-07-07T16:53:26.000Z</time>
      </trkpt>
      <trkpt lat="47.54074" lon="16.04589">
        <ele>888.513366</ele>
        <time>2026-07-07T16:53:27.000Z</time>
      </trkpt>
      <trkpt lat="47.54072" lon="16.04589">
        <ele>888.629595</ele>
        <time>2026-07-07T16:53:28.000Z</time>
      </trkpt>
      <trkpt lat="47.5407" lon="16.04589">
        <ele>888.739833</ele>
        <time>2026-07-07T16:53:29.000Z</time>
      </trkpt>
      <trkpt lat="47.54069" lon="16.0459">
        <ele>888.843224</ele>
        <time>2026-07-07T16:53:30.000Z</time>
      </trkpt>
      <trkpt lat="47.54067" lon="16.0459">
        <ele>888.952688</ele>
        <time>2026-07-07T16:53:31.000Z</time>
      </trkpt>
      <trkpt lat="47.54065" lon="16.0459">
        <ele>889.068917</ele>
        <time>2026-07-07T16:53:32.000Z</time>
      </trkpt>
      <trkpt lat="47.54063" lon="16.0459">
        <ele>889.191953</ele>
        <time>2026-07-07T16:53:33.000Z</time>
      </trkpt>
      <trkpt lat="47.54062" lon="16.0459">
        <ele>889.308181</ele>
        <time>2026-07-07T16:53:34.000Z</time>
      </trkpt>
      <trkpt lat="47.5406" lon="16.0459">
        <ele>889.417732</ele>
        <time>2026-07-07T16:53:35.000Z</time>
      </trkpt>
      <trkpt lat="47.54058" lon="16.0459">
        <ele>889.533961</ele>
        <time>2026-07-07T16:53:36.000Z</time>
      </trkpt>
      <trkpt lat="47.54056" lon="16.04589">
        <ele>889.650595</ele>
        <time>2026-07-07T16:53:37.000Z</time>
      </trkpt>
      <trkpt lat="47.54055" lon="16.04589">
        <ele>889.761432</ele>
        <time>2026-07-07T16:53:38.000Z</time>
      </trkpt>
      <trkpt lat="47.54053" lon="16.04589">
        <ele>889.878632</ele>
        <time>2026-07-07T16:53:39.000Z</time>
      </trkpt>
      <trkpt lat="47.54051" lon="16.0459">
        <ele>890.001667</ele>
        <time>2026-07-07T16:53:40.000Z</time>
      </trkpt>
      <trkpt lat="47.54049" lon="16.0459">
        <ele>890.117896</ele>
        <time>2026-07-07T16:53:41.000Z</time>
      </trkpt>
      <trkpt lat="47.54047" lon="16.0459">
        <ele>890.233799</ele>
        <time>2026-07-07T16:53:42.000Z</time>
      </trkpt>
      <trkpt lat="47.54045" lon="16.0459">
        <ele>890.362654</ele>
        <time>2026-07-07T16:53:43.000Z</time>
      </trkpt>
      <trkpt lat="47.54043" lon="16.0459">
        <ele>890.484996</ele>
        <time>2026-07-07T16:53:44.000Z</time>
      </trkpt>
      <trkpt lat="47.54042" lon="16.0459">
        <ele>890.600981</ele>
        <time>2026-07-07T16:53:45.000Z</time>
      </trkpt>
      <trkpt lat="47.5404" lon="16.0459">
        <ele>890.710445</ele>
        <time>2026-07-07T16:53:46.000Z</time>
      </trkpt>
      <trkpt lat="47.54038" lon="16.0459">
        <ele>890.81347</ele>
        <time>2026-07-07T16:53:47.000Z</time>
      </trkpt>
      <trkpt lat="47.54037" lon="16.0459">
        <ele>890.922934</ele>
        <time>2026-07-07T16:53:48.000Z</time>
      </trkpt>
      <trkpt lat="47.54035" lon="16.0459">
        <ele>891.032743</ele>
        <time>2026-07-07T16:53:49.000Z</time>
      </trkpt>
      <trkpt lat="47.54033" lon="16.04589">
        <ele>891.136134</ele>
        <time>2026-07-07T16:53:50.000Z</time>
      </trkpt>
      <trkpt lat="47.54031" lon="16.04589">
        <ele>891.258554</ele>
        <time>2026-07-07T16:53:51.000Z</time>
      </trkpt>
      <trkpt lat="47.5403" lon="16.04589">
        <ele>891.374783</ele>
        <time>2026-07-07T16:53:52.000Z</time>
      </trkpt>
      <trkpt lat="47.54028" lon="16.04589">
        <ele>891.485785</ele>
        <time>2026-07-07T16:53:53.000Z</time>
      </trkpt>
      <trkpt lat="47.54026" lon="16.0459">
        <ele>891.599542</ele>
        <time>2026-07-07T16:53:54.000Z</time>
      </trkpt>
      <trkpt lat="47.54024" lon="16.0459">
        <ele>891.733788</ele>
        <time>2026-07-07T16:53:55.000Z</time>
      </trkpt>
      <trkpt lat="47.54023" lon="16.0459">
        <ele>891.85936</ele>
        <time>2026-07-07T16:53:56.000Z</time>
      </trkpt>
      <trkpt lat="47.54021" lon="16.0459">
        <ele>891.977717</ele>
        <time>2026-07-07T16:53:57.000Z</time>
      </trkpt>
      <trkpt lat="47.54019" lon="16.04591">
        <ele>892.103289</ele>
        <time>2026-07-07T16:53:58.000Z</time>
      </trkpt>
      <trkpt lat="47.54017" lon="16.04591">
        <ele>892.222389</ele>
        <time>2026-07-07T16:53:59.000Z</time>
      </trkpt>
      <trkpt lat="47.54016" lon="16.04591">
        <ele>892.34761</ele>
        <time>2026-07-07T16:54:00.000Z</time>
      </trkpt>
      <trkpt lat="47.54014" lon="16.04591">
        <ele>892.486743</ele>
        <time>2026-07-07T16:54:01.000Z</time>
      </trkpt>
      <trkpt lat="47.54012" lon="16.04591">
        <ele>892.6051</ele>
        <time>2026-07-07T16:54:02.000Z</time>
      </trkpt>
      <trkpt lat="47.5401" lon="16.04591">
        <ele>892.716803</ele>
        <time>2026-07-07T16:54:03.000Z</time>
      </trkpt>
      <trkpt lat="47.54009" lon="16.0459">
        <ele>892.835903</ele>
        <time>2026-07-07T16:54:04.000Z</time>
      </trkpt>
      <trkpt lat="47.54007" lon="16.0459">
        <ele>892.954166</ele>
        <time>2026-07-07T16:54:05.000Z</time>
      </trkpt>
      <trkpt lat="47.54005" lon="16.0459">
        <ele>893.065473</ele>
        <time>2026-07-07T16:54:06.000Z</time>
      </trkpt>
      <trkpt lat="47.54004" lon="16.0459">
        <ele>893.188221</ele>
        <time>2026-07-07T16:54:07.000Z</time>
      </trkpt>
      <trkpt lat="47.54002" lon="16.04589">
        <ele>893.308793</ele>
        <time>2026-07-07T16:54:08.000Z</time>
      </trkpt>
      <trkpt lat="47.54" lon="16.04589">
        <ele>893.420496</ele>
        <time>2026-07-07T16:54:09.000Z</time>
      </trkpt>
      <trkpt lat="47.53999" lon="16.04589">
        <ele>893.539596</ele>
        <time>2026-07-07T16:54:10.000Z</time>
      </trkpt>
      <trkpt lat="47.53997" lon="16.04589">
        <ele>893.643946</ele>
        <time>2026-07-07T16:54:11.000Z</time>
      </trkpt>
      <trkpt lat="47.53995" lon="16.04588">
        <ele>893.769518</ele>
        <time>2026-07-07T16:54:12.000Z</time>
      </trkpt>
      <trkpt lat="47.53994" lon="16.04588">
        <ele>893.873974</ele>
        <time>2026-07-07T16:54:13.000Z</time>
      </trkpt>
      <trkpt lat="47.53992" lon="16.04588">
        <ele>893.99261</ele>
        <time>2026-07-07T16:54:14.000Z</time>
      </trkpt>
      <trkpt lat="47.5399" lon="16.04588">
        <ele>894.11171</ele>
        <time>2026-07-07T16:54:15.000Z</time>
      </trkpt>
      <trkpt lat="47.53989" lon="16.04588">
        <ele>894.21606</ele>
        <time>2026-07-07T16:54:16.000Z</time>
      </trkpt>
      <trkpt lat="47.53987" lon="16.04588">
        <ele>894.327367</ele>
        <time>2026-07-07T16:54:17.000Z</time>
      </trkpt>
      <trkpt lat="47.53986" lon="16.04588">
        <ele>894.445631</ele>
        <time>2026-07-07T16:54:18.000Z</time>
      </trkpt>
      <trkpt lat="47.53984" lon="16.04588">
        <ele>894.550403</ele>
        <time>2026-07-07T16:54:19.000Z</time>
      </trkpt>
      <trkpt lat="47.53982" lon="16.04587">
        <ele>894.669039</ele>
        <time>2026-07-07T16:54:20.000Z</time>
      </trkpt>
      <trkpt lat="47.53981" lon="16.04587">
        <ele>894.77339</ele>
        <time>2026-07-07T16:54:21.000Z</time>
      </trkpt>
      <trkpt lat="47.53979" lon="16.04587">
        <ele>894.884796</ele>
        <time>2026-07-07T16:54:22.000Z</time>
      </trkpt>
      <trkpt lat="47.53978" lon="16.04587">
        <ele>895.004542</ele>
        <time>2026-07-07T16:54:23.000Z</time>
      </trkpt>
      <trkpt lat="47.53976" lon="16.04587">
        <ele>895.108998</ele>
        <time>2026-07-07T16:54:24.000Z</time>
      </trkpt>
      <trkpt lat="47.53974" lon="16.04586">
        <ele>895.228744</ele>
        <time>2026-07-07T16:54:25.000Z</time>
      </trkpt>
      <trkpt lat="47.53973" lon="16.04586">
        <ele>895.3332</ele>
        <time>2026-07-07T16:54:26.000Z</time>
      </trkpt>
      <trkpt lat="47.53971" lon="16.04586">
        <ele>895.446081</ele>
        <time>2026-07-07T16:54:27.000Z</time>
      </trkpt>
      <trkpt lat="47.5397" lon="16.04586">
        <ele>895.564438</ele>
        <time>2026-07-07T16:54:28.000Z</time>
      </trkpt>
      <trkpt lat="47.53968" lon="16.04586">
        <ele>895.682702</ele>
        <time>2026-07-07T16:54:29.000Z</time>
      </trkpt>
      <trkpt lat="47.53966" lon="16.04586">
        <ele>895.794009</ele>
        <time>2026-07-07T16:54:30.000Z</time>
      </trkpt>
      <trkpt lat="47.53964" lon="16.04586">
        <ele>895.926519</ele>
        <time>2026-07-07T16:54:31.000Z</time>
      </trkpt>
      <trkpt lat="47.53963" lon="16.04585">
        <ele>896.052091</ele>
        <time>2026-07-07T16:54:32.000Z</time>
      </trkpt>
      <trkpt lat="47.53961" lon="16.04585">
        <ele>896.159051</ele>
        <time>2026-07-07T16:54:33.000Z</time>
      </trkpt>
      <trkpt lat="47.53959" lon="16.04584">
        <ele>896.280625</ele>
        <time>2026-07-07T16:54:34.000Z</time>
      </trkpt>
      <trkpt lat="47.53958" lon="16.04584">
        <ele>896.406197</ele>
        <time>2026-07-07T16:54:35.000Z</time>
      </trkpt>
      <trkpt lat="47.53956" lon="16.04584">
        <ele>896.531769</ele>
        <time>2026-07-07T16:54:36.000Z</time>
      </trkpt>
      <trkpt lat="47.53954" lon="16.04584">
        <ele>896.650126</ele>
        <time>2026-07-07T16:54:37.000Z</time>
      </trkpt>
      <trkpt lat="47.53952" lon="16.04583">
        <ele>896.776748</ele>
        <time>2026-07-07T16:54:38.000Z</time>
      </trkpt>
      <trkpt lat="47.5395" lon="16.04583">
        <ele>896.909674</ele>
        <time>2026-07-07T16:54:39.000Z</time>
      </trkpt>
      <trkpt lat="47.53949" lon="16.04583">
        <ele>897.021376</ele>
        <time>2026-07-07T16:54:40.000Z</time>
      </trkpt>
      <trkpt lat="47.53947" lon="16.04582">
        <ele>897.141949</ele>
        <time>2026-07-07T16:54:41.000Z</time>
      </trkpt>
      <trkpt lat="47.53945" lon="16.04582">
        <ele>897.267959</ele>
        <time>2026-07-07T16:54:42.000Z</time>
      </trkpt>
      <trkpt lat="47.53944" lon="16.04582">
        <ele>897.387059</ele>
        <time>2026-07-07T16:54:43.000Z</time>
      </trkpt>
      <trkpt lat="47.53942" lon="16.04581">
        <ele>897.516523</ele>
        <time>2026-07-07T16:54:44.000Z</time>
      </trkpt>
      <trkpt lat="47.5394" lon="16.04581">
        <ele>897.649033</ele>
        <time>2026-07-07T16:54:45.000Z</time>
      </trkpt>
      <trkpt lat="47.53938" lon="16.04581">
        <ele>897.775044</ele>
        <time>2026-07-07T16:54:46.000Z</time>
      </trkpt>
      <trkpt lat="47.53936" lon="16.0458">
        <ele>897.900616</ele>
        <time>2026-07-07T16:54:47.000Z</time>
      </trkpt>
      <trkpt lat="47.53934" lon="16.0458">
        <ele>898.033542</ele>
        <time>2026-07-07T16:54:48.000Z</time>
      </trkpt>
      <trkpt lat="47.53933" lon="16.0458">
        <ele>898.147298</ele>
        <time>2026-07-07T16:54:49.000Z</time>
      </trkpt>
      <trkpt lat="47.53931" lon="16.04579">
        <ele>898.280224</ele>
        <time>2026-07-07T16:54:50.000Z</time>
      </trkpt>
      <trkpt lat="47.53929" lon="16.04579">
        <ele>898.396284</ele>
        <time>2026-07-07T16:54:51.000Z</time>
      </trkpt>
      <trkpt lat="47.53927" lon="16.04578">
        <ele>898.536557</ele>
        <time>2026-07-07T16:54:52.000Z</time>
      </trkpt>
      <trkpt lat="47.53926" lon="16.04577">
        <ele>898.652617</ele>
        <time>2026-07-07T16:54:53.000Z</time>
      </trkpt>
      <trkpt lat="47.53924" lon="16.04577">
        <ele>898.770974</ele>
        <time>2026-07-07T16:54:54.000Z</time>
      </trkpt>
      <trkpt lat="47.53922" lon="16.04576">
        <ele>898.898377</ele>
        <time>2026-07-07T16:54:55.000Z</time>
      </trkpt>
      <trkpt lat="47.53921" lon="16.04575">
        <ele>899.023967</ele>
        <time>2026-07-07T16:54:56.000Z</time>
      </trkpt>
      <trkpt lat="47.53919" lon="16.04575">
        <ele>899.144539</ele>
        <time>2026-07-07T16:54:57.000Z</time>
      </trkpt>
      <trkpt lat="47.53917" lon="16.04575">
        <ele>899.27055</ele>
        <time>2026-07-07T16:54:58.000Z</time>
      </trkpt>
      <trkpt lat="47.53915" lon="16.04574">
        <ele>899.393298</ele>
        <time>2026-07-07T16:54:59.000Z</time>
      </trkpt>
      <trkpt lat="47.53914" lon="16.04573">
        <ele>899.524033</ele>
        <time>2026-07-07T16:55:00.000Z</time>
      </trkpt>
      <trkpt lat="47.53912" lon="16.04573">
        <ele>899.644605</ele>
        <time>2026-07-07T16:55:01.000Z</time>
      </trkpt>
      <trkpt lat="47.5391" lon="16.04572">
        <ele>899.770616</ele>
        <time>2026-07-07T16:55:02.000Z</time>
      </trkpt>
      <trkpt lat="47.53908" lon="16.04572">
        <ele>899.897237</ele>
        <time>2026-07-07T16:55:03.000Z</time>
      </trkpt>
      <trkpt lat="47.53906" lon="16.04572">
        <ele>900.030163</ele>
        <time>2026-07-07T16:55:04.000Z</time>
      </trkpt>
      <trkpt lat="47.53905" lon="16.04571">
        <ele>900.14392</ele>
        <time>2026-07-07T16:55:05.000Z</time>
      </trkpt>
      <trkpt lat="47.53903" lon="16.04571">
        <ele>900.276846</ele>
        <time>2026-07-07T16:55:06.000Z</time>
      </trkpt>
      <trkpt lat="47.53901" lon="16.04571">
        <ele>900.402066</ele>
        <time>2026-07-07T16:55:07.000Z</time>
      </trkpt>
      <trkpt lat="47.53899" lon="16.0457">
        <ele>900.529469</ele>
        <time>2026-07-07T16:55:08.000Z</time>
      </trkpt>
      <trkpt lat="47.53897" lon="16.0457">
        <ele>900.663716</ele>
        <time>2026-07-07T16:55:09.000Z</time>
      </trkpt>
      <trkpt lat="47.53896" lon="16.04569">
        <ele>900.790338</ele>
        <time>2026-07-07T16:55:10.000Z</time>
      </trkpt>
      <trkpt lat="47.53894" lon="16.04569">
        <ele>900.909438</ele>
        <time>2026-07-07T16:55:11.000Z</time>
      </trkpt>
      <trkpt lat="47.53892" lon="16.04568">
        <ele>901.025498</ele>
        <time>2026-07-07T16:55:12.000Z</time>
      </trkpt>
      <trkpt lat="47.5389" lon="16.04568">
        <ele>901.158424</ele>
        <time>2026-07-07T16:55:13.000Z</time>
      </trkpt>
      <trkpt lat="47.53889" lon="16.04567">
        <ele>901.287887</ele>
        <time>2026-07-07T16:55:14.000Z</time>
      </trkpt>
      <trkpt lat="47.53887" lon="16.04567">
        <ele>901.40846</ele>
        <time>2026-07-07T16:55:15.000Z</time>
      </trkpt>
      <trkpt lat="47.53885" lon="16.04566">
        <ele>901.522217</ele>
        <time>2026-07-07T16:55:16.000Z</time>
      </trkpt>
      <trkpt lat="47.53883" lon="16.04566">
        <ele>901.655143</ele>
        <time>2026-07-07T16:55:17.000Z</time>
      </trkpt>
      <trkpt lat="47.53882" lon="16.04566">
        <ele>901.767338</ele>
        <time>2026-07-07T16:55:18.000Z</time>
      </trkpt>
      <trkpt lat="47.5388" lon="16.04565">
        <ele>901.890086</ele>
        <time>2026-07-07T16:55:19.000Z</time>
      </trkpt>
      <trkpt lat="47.53878" lon="16.04564">
        <ele>902.012834</ele>
        <time>2026-07-07T16:55:20.000Z</time>
      </trkpt>
      <trkpt lat="47.53877" lon="16.04564">
        <ele>902.127652</ele>
        <time>2026-07-07T16:55:21.000Z</time>
      </trkpt>
      <trkpt lat="47.53875" lon="16.04563">
        <ele>902.2504</ele>
        <time>2026-07-07T16:55:22.000Z</time>
      </trkpt>
      <trkpt lat="47.53873" lon="16.04562">
        <ele>902.374488</ele>
        <time>2026-07-07T16:55:23.000Z</time>
      </trkpt>
      <trkpt lat="47.53872" lon="16.04562">
        <ele>902.483894</ele>
        <time>2026-07-07T16:55:24.000Z</time>
      </trkpt>
      <trkpt lat="47.5387" lon="16.04561">
        <ele>902.599955</ele>
        <time>2026-07-07T16:55:25.000Z</time>
      </trkpt>
      <trkpt lat="47.53869" lon="16.0456">
        <ele>902.721529</ele>
        <time>2026-07-07T16:55:26.000Z</time>
      </trkpt>
      <trkpt lat="47.53867" lon="16.04559">
        <ele>902.833341</ele>
        <time>2026-07-07T16:55:27.000Z</time>
      </trkpt>
      <trkpt lat="47.53866" lon="16.04558">
        <ele>902.947773</ele>
        <time>2026-07-07T16:55:28.000Z</time>
      </trkpt>
      <trkpt lat="47.53864" lon="16.04557">
        <ele>903.076827</ele>
        <time>2026-07-07T16:55:29.000Z</time>
      </trkpt>
      <trkpt lat="47.53862" lon="16.04556">
        <ele>903.207832</ele>
        <time>2026-07-07T16:55:30.000Z</time>
      </trkpt>
      <trkpt lat="47.5386" lon="16.04555">
        <ele>903.350797</ele>
        <time>2026-07-07T16:55:31.000Z</time>
      </trkpt>
      <trkpt lat="47.53858" lon="16.04554">
        <ele>903.497644</ele>
        <time>2026-07-07T16:55:32.000Z</time>
      </trkpt>
      <trkpt lat="47.53857" lon="16.04553">
        <ele>903.636955</ele>
        <time>2026-07-07T16:55:33.000Z</time>
      </trkpt>
      <trkpt lat="47.53855" lon="16.04552">
        <ele>903.770693</ele>
        <time>2026-07-07T16:55:34.000Z</time>
      </trkpt>
      <trkpt lat="47.53853" lon="16.0455">
        <ele>903.903786</ele>
        <time>2026-07-07T16:55:35.000Z</time>
      </trkpt>
      <trkpt lat="47.53851" lon="16.04549">
        <ele>904.013774</ele>
        <time>2026-07-07T16:55:36.000Z</time>
      </trkpt>
      <trkpt lat="47.53849" lon="16.04548">
        <ele>904.10656</ele>
        <time>2026-07-07T16:55:37.000Z</time>
      </trkpt>
      <trkpt lat="47.53847" lon="16.04547">
        <ele>904.198171</ele>
        <time>2026-07-07T16:55:38.000Z</time>
      </trkpt>
      <trkpt lat="47.53845" lon="16.04546">
        <ele>904.286711</ele>
        <time>2026-07-07T16:55:39.000Z</time>
      </trkpt>
      <trkpt lat="47.53843" lon="16.04544">
        <ele>904.380741</ele>
        <time>2026-07-07T16:55:40.000Z</time>
      </trkpt>
      <trkpt lat="47.53841" lon="16.04543">
        <ele>904.468528</ele>
        <time>2026-07-07T16:55:41.000Z</time>
      </trkpt>
      <trkpt lat="47.5384" lon="16.04542">
        <ele>904.551323</ele>
        <time>2026-07-07T16:55:42.000Z</time>
      </trkpt>
      <trkpt lat="47.53838" lon="16.0454">
        <ele>904.642934</ele>
        <time>2026-07-07T16:55:43.000Z</time>
      </trkpt>
      <trkpt lat="47.53836" lon="16.04539">
        <ele>904.72821</ele>
        <time>2026-07-07T16:55:44.000Z</time>
      </trkpt>
      <trkpt lat="47.53834" lon="16.04538">
        <ele>904.815996</ele>
        <time>2026-07-07T16:55:45.000Z</time>
      </trkpt>
      <trkpt lat="47.53832" lon="16.04536">
        <ele>904.906507</ele>
        <time>2026-07-07T16:55:46.000Z</time>
      </trkpt>
      <trkpt lat="47.5383" lon="16.04536">
        <ele>904.993402</ele>
        <time>2026-07-07T16:55:47.000Z</time>
      </trkpt>
      <trkpt lat="47.53828" lon="16.04534">
        <ele>905.083912</ele>
        <time>2026-07-07T16:55:48.000Z</time>
      </trkpt>
      <trkpt lat="47.53826" lon="16.04533">
        <ele>905.165586</ele>
        <time>2026-07-07T16:55:49.000Z</time>
      </trkpt>
      <trkpt lat="47.53824" lon="16.04532">
        <ele>905.254126</ele>
        <time>2026-07-07T16:55:50.000Z</time>
      </trkpt>
      <trkpt lat="47.53822" lon="16.04531">
        <ele>905.344637</ele>
        <time>2026-07-07T16:55:51.000Z</time>
      </trkpt>
      <trkpt lat="47.5382" lon="16.0453">
        <ele>905.436248</ele>
        <time>2026-07-07T16:55:52.000Z</time>
      </trkpt>
      <trkpt lat="47.53818" lon="16.04529">
        <ele>905.524788</ele>
        <time>2026-07-07T16:55:53.000Z</time>
      </trkpt>
      <trkpt lat="47.53816" lon="16.04528">
        <ele>905.619172</ele>
        <time>2026-07-07T16:55:54.000Z</time>
      </trkpt>
      <trkpt lat="47.53814" lon="16.04527">
        <ele>905.711696</ele>
        <time>2026-07-07T16:55:55.000Z</time>
      </trkpt>
      <trkpt lat="47.53812" lon="16.04526">
        <ele>905.806715</ele>
        <time>2026-07-07T16:55:56.000Z</time>
      </trkpt>
      <trkpt lat="47.5381" lon="16.04525">
        <ele>905.897226</ele>
        <time>2026-07-07T16:55:57.000Z</time>
      </trkpt>
      <trkpt lat="47.53808" lon="16.04524">
        <ele>905.987736</ele>
        <time>2026-07-07T16:55:58.000Z</time>
      </trkpt>
      <trkpt lat="47.53806" lon="16.04523">
        <ele>906.066562</ele>
        <time>2026-07-07T16:55:59.000Z</time>
      </trkpt>
      <trkpt lat="47.53804" lon="16.04522">
        <ele>906.151139</ele>
        <time>2026-07-07T16:56:00.000Z</time>
      </trkpt>
      <trkpt lat="47.53802" lon="16.04521">
        <ele>906.239679</ele>
        <time>2026-07-07T16:56:01.000Z</time>
      </trkpt>
      <trkpt lat="47.538" lon="16.0452">
        <ele>906.326574</ele>
        <time>2026-07-07T16:56:02.000Z</time>
      </trkpt>
      <trkpt lat="47.53798" lon="16.04519">
        <ele>906.419098</ele>
        <time>2026-07-07T16:56:03.000Z</time>
      </trkpt>
      <trkpt lat="47.53796" lon="16.04518">
        <ele>906.507638</ele>
        <time>2026-07-07T16:56:04.000Z</time>
      </trkpt>
      <trkpt lat="47.53794" lon="16.04517">
        <ele>906.592215</ele>
        <time>2026-07-07T16:56:05.000Z</time>
      </trkpt>
      <trkpt lat="47.53792" lon="16.04516">
        <ele>906.677491</ele>
        <time>2026-07-07T16:56:06.000Z</time>
      </trkpt>
      <trkpt lat="47.5379" lon="16.04515">
        <ele>906.766977</ele>
        <time>2026-07-07T16:56:07.000Z</time>
      </trkpt>
      <trkpt lat="47.53788" lon="16.04514">
        <ele>906.849772</ele>
        <time>2026-07-07T16:56:08.000Z</time>
      </trkpt>
      <trkpt lat="47.53786" lon="16.04512">
        <ele>906.94008</ele>
        <time>2026-07-07T16:56:09.000Z</time>
      </trkpt>
      <trkpt lat="47.53785" lon="16.04511">
        <ele>907.019504</ele>
        <time>2026-07-07T16:56:10.000Z</time>
      </trkpt>
      <trkpt lat="47.53783" lon="16.04509">
        <ele>907.107155</ele>
        <time>2026-07-07T16:56:11.000Z</time>
      </trkpt>
      <trkpt lat="47.53782" lon="16.04507">
        <ele>907.18994</ele>
        <time>2026-07-07T16:56:12.000Z</time>
      </trkpt>
      <trkpt lat="47.5378" lon="16.04505">
        <ele>907.281035</ele>
        <time>2026-07-07T16:56:13.000Z</time>
      </trkpt>
      <trkpt lat="47.53778" lon="16.04503">
        <ele>907.365688</ele>
        <time>2026-07-07T16:56:14.000Z</time>
      </trkpt>
      <trkpt lat="47.53777" lon="16.04501">
        <ele>907.456244</ele>
        <time>2026-07-07T16:56:15.000Z</time>
      </trkpt>
      <trkpt lat="47.53776" lon="16.04498">
        <ele>907.540815</ele>
        <time>2026-07-07T16:56:16.000Z</time>
      </trkpt>
      <trkpt lat="47.53774" lon="16.04496">
        <ele>907.630174</ele>
        <time>2026-07-07T16:56:17.000Z</time>
      </trkpt>
      <trkpt lat="47.53773" lon="16.04493">
        <ele>907.71936</ele>
        <time>2026-07-07T16:56:18.000Z</time>
      </trkpt>
      <trkpt lat="47.53772" lon="16.0449">
        <ele>907.815678</ele>
        <time>2026-07-07T16:56:19.000Z</time>
      </trkpt>
      <trkpt lat="47.53771" lon="16.04488">
        <ele>907.905377</ele>
        <time>2026-07-07T16:56:20.000Z</time>
      </trkpt>
      <trkpt lat="47.5377" lon="16.04485">
        <ele>908.00012</ele>
        <time>2026-07-07T16:56:21.000Z</time>
      </trkpt>
      <trkpt lat="47.53769" lon="16.04481">
        <ele>908.102549</ele>
        <time>2026-07-07T16:56:22.000Z</time>
      </trkpt>
      <trkpt lat="47.53768" lon="16.04478">
        <ele>908.202401</ele>
        <time>2026-07-07T16:56:23.000Z</time>
      </trkpt>
      <trkpt lat="47.53767" lon="16.04475">
        <ele>908.30483</ele>
        <time>2026-07-07T16:56:24.000Z</time>
      </trkpt>
      <trkpt lat="47.53766" lon="16.04471">
        <ele>908.409467</ele>
        <time>2026-07-07T16:56:25.000Z</time>
      </trkpt>
      <trkpt lat="47.53765" lon="16.04468">
        <ele>908.509319</ele>
        <time>2026-07-07T16:56:26.000Z</time>
      </trkpt>
      <trkpt lat="47.53764" lon="16.04465">
        <ele>908.604573</ele>
        <time>2026-07-07T16:56:27.000Z</time>
      </trkpt>
      <trkpt lat="47.53764" lon="16.04462">
        <ele>908.694827</ele>
        <time>2026-07-07T16:56:28.000Z</time>
      </trkpt>
      <trkpt lat="47.53764" lon="16.04458">
        <ele>908.794733</ele>
        <time>2026-07-07T16:56:29.000Z</time>
      </trkpt>
      <trkpt lat="47.53764" lon="16.04455">
        <ele>908.891011</ele>
        <time>2026-07-07T16:56:30.000Z</time>
      </trkpt>
      <trkpt lat="47.53763" lon="16.04451">
        <ele>908.990476</ele>
        <time>2026-07-07T16:56:31.000Z</time>
      </trkpt>
      <trkpt lat="47.53763" lon="16.04448">
        <ele>909.089587</ele>
        <time>2026-07-07T16:56:32.000Z</time>
      </trkpt>
      <trkpt lat="47.53763" lon="16.04444">
        <ele>909.191615</ele>
        <time>2026-07-07T16:56:33.000Z</time>
      </trkpt>
      <trkpt lat="47.53763" lon="16.04441">
        <ele>909.29108</ele>
        <time>2026-07-07T16:56:34.000Z</time>
      </trkpt>
      <trkpt lat="47.53763" lon="16.04437">
        <ele>909.39019</ele>
        <time>2026-07-07T16:56:35.000Z</time>
      </trkpt>
      <trkpt lat="47.53763" lon="16.04434">
        <ele>909.489301</ele>
        <time>2026-07-07T16:56:36.000Z</time>
      </trkpt>
      <trkpt lat="47.53763" lon="16.0443">
        <ele>909.588765</ele>
        <time>2026-07-07T16:56:37.000Z</time>
      </trkpt>
      <trkpt lat="47.53763" lon="16.04427">
        <ele>909.687876</ele>
        <time>2026-07-07T16:56:38.000Z</time>
      </trkpt>
      <trkpt lat="47.53763" lon="16.04423">
        <ele>909.787075</ele>
        <time>2026-07-07T16:56:39.000Z</time>
      </trkpt>
      <trkpt lat="47.53763" lon="16.0442">
        <ele>909.883354</ele>
        <time>2026-07-07T16:56:40.000Z</time>
      </trkpt>
      <trkpt lat="47.53763" lon="16.04417">
        <ele>909.976895</ele>
        <time>2026-07-07T16:56:41.000Z</time>
      </trkpt>
      <trkpt lat="47.53763" lon="16.04413">
        <ele>910.07636</ele>
        <time>2026-07-07T16:56:42.000Z</time>
      </trkpt>
      <trkpt lat="47.53763" lon="16.04409">
        <ele>910.181133</ele>
        <time>2026-07-07T16:56:43.000Z</time>
      </trkpt>
      <trkpt lat="47.53763" lon="16.04406">
        <ele>910.28342</ele>
        <time>2026-07-07T16:56:44.000Z</time>
      </trkpt>
      <trkpt lat="47.53763" lon="16.04402">
        <ele>910.388278</ele>
        <time>2026-07-07T16:56:45.000Z</time>
      </trkpt>
      <trkpt lat="47.53762" lon="16.04398">
        <ele>910.49513</ele>
        <time>2026-07-07T16:56:46.000Z</time>
      </trkpt>
      <trkpt lat="47.53762" lon="16.04395">
        <ele>910.597417</ele>
        <time>2026-07-07T16:56:47.000Z</time>
      </trkpt>
      <trkpt lat="47.53762" lon="16.04391">
        <ele>910.708172</ele>
        <time>2026-07-07T16:56:48.000Z</time>
      </trkpt>
      <trkpt lat="47.53762" lon="16.04387">
        <ele>910.810201</ele>
        <time>2026-07-07T16:56:49.000Z</time>
      </trkpt>
      <trkpt lat="47.53762" lon="16.04384">
        <ele>910.91531</ele>
        <time>2026-07-07T16:56:50.000Z</time>
      </trkpt>
      <trkpt lat="47.53761" lon="16.0438">
        <ele>911.020419</ele>
        <time>2026-07-07T16:56:51.000Z</time>
      </trkpt>
      <trkpt lat="47.53761" lon="16.04376">
        <ele>911.122448</ele>
        <time>2026-07-07T16:56:52.000Z</time>
      </trkpt>
      <trkpt lat="47.53761" lon="16.04373">
        <ele>911.221913</ele>
        <time>2026-07-07T16:56:53.000Z</time>
      </trkpt>
      <trkpt lat="47.53761" lon="16.04369">
        <ele>911.321819</ele>
        <time>2026-07-07T16:56:54.000Z</time>
      </trkpt>
      <trkpt lat="47.5376" lon="16.04366">
        <ele>911.422339</ele>
        <time>2026-07-07T16:56:55.000Z</time>
      </trkpt>
      <trkpt lat="47.5376" lon="16.04362">
        <ele>911.521538</ele>
        <time>2026-07-07T16:56:56.000Z</time>
      </trkpt>
      <trkpt lat="47.5376" lon="16.04359">
        <ele>911.568277</ele>
        <time>2026-07-07T16:56:57.000Z</time>
      </trkpt>
      <trkpt lat="47.5376" lon="16.04355">
        <ele>911.617543</ele>
        <time>2026-07-07T16:56:58.000Z</time>
      </trkpt>
      <trkpt lat="47.53759" lon="16.04352">
        <ele>911.664472</ele>
        <time>2026-07-07T16:56:59.000Z</time>
      </trkpt>
      <trkpt lat="47.53759" lon="16.04348">
        <ele>911.714747</ele>
        <time>2026-07-07T16:57:00.000Z</time>
      </trkpt>
      <trkpt lat="47.53759" lon="16.04344">
        <ele>911.766454</ele>
        <time>2026-07-07T16:57:01.000Z</time>
      </trkpt>
      <trkpt lat="47.53759" lon="16.0434">
        <ele>911.814208</ele>
        <time>2026-07-07T16:57:02.000Z</time>
      </trkpt>
      <trkpt lat="47.53759" lon="16.04336">
        <ele>911.8661</ele>
        <time>2026-07-07T16:57:03.000Z</time>
      </trkpt>
      <trkpt lat="47.53758" lon="16.04333">
        <ele>911.916489</ele>
        <time>2026-07-07T16:57:04.000Z</time>
      </trkpt>
      <trkpt lat="47.53758" lon="16.04329">
        <ele>911.967068</ele>
        <time>2026-07-07T16:57:05.000Z</time>
      </trkpt>
      <trkpt lat="47.53758" lon="16.04325">
        <ele>912.018961</ele>
        <time>2026-07-07T16:57:06.000Z</time>
      </trkpt>
      <trkpt lat="47.53757" lon="16.04321">
        <ele>912.072419</ele>
        <time>2026-07-07T16:57:07.000Z</time>
      </trkpt>
      <trkpt lat="47.53757" lon="16.04317">
        <ele>912.120373</ele>
        <time>2026-07-07T16:57:08.000Z</time>
      </trkpt>
      <trkpt lat="47.53757" lon="16.04313">
        <ele>912.17208</ele>
        <time>2026-07-07T16:57:09.000Z</time>
      </trkpt>
      <trkpt lat="47.53757" lon="16.0431">
        <ele>912.218351</ele>
        <time>2026-07-07T16:57:10.000Z</time>
      </trkpt>
      <trkpt lat="47.53757" lon="16.04306">
        <ele>912.266305</ele>
        <time>2026-07-07T16:57:11.000Z</time>
      </trkpt>
      <trkpt lat="47.53756" lon="16.04303">
        <ele>912.315376</ele>
        <time>2026-07-07T16:57:12.000Z</time>
      </trkpt>
      <trkpt lat="47.53756" lon="16.04299">
        <ele>912.366558</ele>
        <time>2026-07-07T16:57:13.000Z</time>
      </trkpt>
      <trkpt lat="47.53756" lon="16.04295">
        <ele>912.418154</ele>
        <time>2026-07-07T16:57:14.000Z</time>
      </trkpt>
      <trkpt lat="47.53756" lon="16.04291">
        <ele>912.468543</ele>
        <time>2026-07-07T16:57:15.000Z</time>
      </trkpt>
      <trkpt lat="47.53755" lon="16.04287">
        <ele>912.518932</ele>
        <time>2026-07-07T16:57:16.000Z</time>
      </trkpt>
      <trkpt lat="47.53755" lon="16.04283">
        <ele>912.570528</ele>
        <time>2026-07-07T16:57:17.000Z</time>
      </trkpt>
      <trkpt lat="47.53755" lon="16.04279">
        <ele>912.624308</ele>
        <time>2026-07-07T16:57:18.000Z</time>
      </trkpt>
      <trkpt lat="47.53754" lon="16.04276">
        <ele>912.677547</ele>
        <time>2026-07-07T16:57:19.000Z</time>
      </trkpt>
      <trkpt lat="47.53753" lon="16.04272">
        <ele>912.729139</ele>
        <time>2026-07-07T16:57:20.000Z</time>
      </trkpt>
      <trkpt lat="47.53752" lon="16.04268">
        <ele>912.781828</ele>
        <time>2026-07-07T16:57:21.000Z</time>
      </trkpt>
      <trkpt lat="47.53751" lon="16.04264">
        <ele>912.836095</ele>
        <time>2026-07-07T16:57:22.000Z</time>
      </trkpt>
      <trkpt lat="47.5375" lon="16.04261">
        <ele>912.889172</ele>
        <time>2026-07-07T16:57:23.000Z</time>
      </trkpt>
      <trkpt lat="47.53749" lon="16.04257">
        <ele>912.939416</ele>
        <time>2026-07-07T16:57:24.000Z</time>
      </trkpt>
      <trkpt lat="47.53748" lon="16.04254">
        <ele>912.992864</ele>
        <time>2026-07-07T16:57:25.000Z</time>
      </trkpt>
      <trkpt lat="47.53746" lon="16.0425">
        <ele>913.046647</ele>
        <time>2026-07-07T16:57:26.000Z</time>
      </trkpt>
      <trkpt lat="47.53745" lon="16.04247">
        <ele>913.101454</ele>
        <time>2026-07-07T16:57:27.000Z</time>
      </trkpt>
      <trkpt lat="47.53744" lon="16.04243">
        <ele>913.151965</ele>
        <time>2026-07-07T16:57:28.000Z</time>
      </trkpt>
      <trkpt lat="47.53742" lon="16.0424">
        <ele>913.209086</ele>
        <time>2026-07-07T16:57:29.000Z</time>
      </trkpt>
      <trkpt lat="47.5374" lon="16.04237">
        <ele>913.264439</ele>
        <time>2026-07-07T16:57:30.000Z</time>
      </trkpt>
      <trkpt lat="47.53738" lon="16.04233">
        <ele>913.32156</ele>
        <time>2026-07-07T16:57:31.000Z</time>
      </trkpt>
      <trkpt lat="47.53736" lon="16.0423">
        <ele>913.378247</ele>
        <time>2026-07-07T16:57:32.000Z</time>
      </trkpt>
      <trkpt lat="47.53734" lon="16.04227">
        <ele>913.440508</ele>
        <time>2026-07-07T16:57:33.000Z</time>
      </trkpt>
      <trkpt lat="47.53732" lon="16.04224">
        <ele>913.499136</ele>
        <time>2026-07-07T16:57:34.000Z</time>
      </trkpt>
      <trkpt lat="47.5373" lon="16.0422">
        <ele>913.56104</ele>
        <time>2026-07-07T16:57:35.000Z</time>
      </trkpt>
      <trkpt lat="47.53728" lon="16.04217">
        <ele>913.624262</ele>
        <time>2026-07-07T16:57:36.000Z</time>
      </trkpt>
      <trkpt lat="47.53726" lon="16.04213">
        <ele>913.684882</ele>
        <time>2026-07-07T16:57:37.000Z</time>
      </trkpt>
      <trkpt lat="47.53724" lon="16.04209">
        <ele>913.748582</ele>
        <time>2026-07-07T16:57:38.000Z</time>
      </trkpt>
      <trkpt lat="47.53722" lon="16.04205">
        <ele>913.814387</ele>
        <time>2026-07-07T16:57:39.000Z</time>
      </trkpt>
      <trkpt lat="47.53719" lon="16.04202">
        <ele>913.879569</ele>
        <time>2026-07-07T16:57:40.000Z</time>
      </trkpt>
      <trkpt lat="47.53717" lon="16.04198">
        <ele>913.944491</ele>
        <time>2026-07-07T16:57:41.000Z</time>
      </trkpt>
      <trkpt lat="47.53715" lon="16.04194">
        <ele>914.01168</ele>
        <time>2026-07-07T16:57:42.000Z</time>
      </trkpt>
      <trkpt lat="47.53713" lon="16.0419">
        <ele>914.077206</ele>
        <time>2026-07-07T16:57:43.000Z</time>
      </trkpt>
      <trkpt lat="47.5371" lon="16.04186">
        <ele>914.148305</ele>
        <time>2026-07-07T16:57:44.000Z</time>
      </trkpt>
      <trkpt lat="47.53708" lon="16.04183">
        <ele>914.216582</ele>
        <time>2026-07-07T16:57:45.000Z</time>
      </trkpt>
      <trkpt lat="47.53705" lon="16.04179">
        <ele>914.290432</ele>
        <time>2026-07-07T16:57:46.000Z</time>
      </trkpt>
      <trkpt lat="47.53702" lon="16.04175">
        <ele>914.36157</ele>
        <time>2026-07-07T16:57:47.000Z</time>
      </trkpt>
      <trkpt lat="47.537" lon="16.04171">
        <ele>914.432669</ele>
        <time>2026-07-07T16:57:48.000Z</time>
      </trkpt>
      <trkpt lat="47.53697" lon="16.04168">
        <ele>914.501468</ele>
        <time>2026-07-07T16:57:49.000Z</time>
      </trkpt>
      <trkpt lat="47.53694" lon="16.04165">
        <ele>914.571501</ele>
        <time>2026-07-07T16:57:50.000Z</time>
      </trkpt>
      <trkpt lat="47.53692" lon="16.04161">
        <ele>914.639418</ele>
        <time>2026-07-07T16:57:51.000Z</time>
      </trkpt>
      <trkpt lat="47.53689" lon="16.04158">
        <ele>914.705512</ele>
        <time>2026-07-07T16:57:52.000Z</time>
      </trkpt>
      <trkpt lat="47.53687" lon="16.04155">
        <ele>914.769358</ele>
        <time>2026-07-07T16:57:53.000Z</time>
      </trkpt>
      <trkpt lat="47.53684" lon="16.04152">
        <ele>914.83582</ele>
        <time>2026-07-07T16:57:54.000Z</time>
      </trkpt>
      <trkpt lat="47.53682" lon="16.04149">
        <ele>914.899666</ele>
        <time>2026-07-07T16:57:55.000Z</time>
      </trkpt>
      <trkpt lat="47.53679" lon="16.04146">
        <ele>914.962671</ele>
        <time>2026-07-07T16:57:56.000Z</time>
      </trkpt>
      <trkpt lat="47.53677" lon="16.04143">
        <ele>915.025677</ele>
        <time>2026-07-07T16:57:57.000Z</time>
      </trkpt>
      <trkpt lat="47.53674" lon="16.0414">
        <ele>915.103664</ele>
        <time>2026-07-07T16:57:58.000Z</time>
      </trkpt>
      <trkpt lat="47.53671" lon="16.04137">
        <ele>915.194225</ele>
        <time>2026-07-07T16:57:59.000Z</time>
      </trkpt>
      <trkpt lat="47.53669" lon="16.04133">
        <ele>915.280758</ele>
        <time>2026-07-07T16:58:00.000Z</time>
      </trkpt>
      <trkpt lat="47.53666" lon="16.0413">
        <ele>915.368457</ele>
        <time>2026-07-07T16:58:01.000Z</time>
      </trkpt>
      <trkpt lat="47.53664" lon="16.04127">
        <ele>915.458547</ele>
        <time>2026-07-07T16:58:02.000Z</time>
      </trkpt>
      <trkpt lat="47.53661" lon="16.04123">
        <ele>915.548638</ele>
        <time>2026-07-07T16:58:03.000Z</time>
      </trkpt>
      <trkpt lat="47.53659" lon="16.0412">
        <ele>915.638728</ele>
        <time>2026-07-07T16:58:04.000Z</time>
      </trkpt>
      <trkpt lat="47.53656" lon="16.04116">
        <ele>915.7284</ele>
        <time>2026-07-07T16:58:05.000Z</time>
      </trkpt>
      <trkpt lat="47.53654" lon="16.04113">
        <ele>915.821211</ele>
        <time>2026-07-07T16:58:06.000Z</time>
      </trkpt>
      <trkpt lat="47.53651" lon="16.04109">
        <ele>915.915177</ele>
        <time>2026-07-07T16:58:07.000Z</time>
      </trkpt>
      <trkpt lat="47.53648" lon="16.04106">
        <ele>916.006728</ele>
        <time>2026-07-07T16:58:08.000Z</time>
      </trkpt>
      <trkpt lat="47.53645" lon="16.04103">
        <ele>916.097232</ele>
        <time>2026-07-07T16:58:09.000Z</time>
      </trkpt>
      <trkpt lat="47.53642" lon="16.041">
        <ele>916.191939</ele>
        <time>2026-07-07T16:58:10.000Z</time>
      </trkpt>
      <trkpt lat="47.53639" lon="16.04097">
        <ele>916.288759</ele>
        <time>2026-07-07T16:58:11.000Z</time>
      </trkpt>
      <trkpt lat="47.53636" lon="16.04094">
        <ele>916.384557</ele>
        <time>2026-07-07T16:58:12.000Z</time>
      </trkpt>
      <trkpt lat="47.53634" lon="16.0409">
        <ele>916.48051</ele>
        <time>2026-07-07T16:58:13.000Z</time>
      </trkpt>
      <trkpt lat="47.53631" lon="16.04087">
        <ele>916.576842</ele>
        <time>2026-07-07T16:58:14.000Z</time>
      </trkpt>
      <trkpt lat="47.53628" lon="16.04083">
        <ele>916.672794</ele>
        <time>2026-07-07T16:58:15.000Z</time>
      </trkpt>
      <trkpt lat="47.53625" lon="16.04079">
        <ele>916.770336</ele>
        <time>2026-07-07T16:58:16.000Z</time>
      </trkpt>
      <trkpt lat="47.53623" lon="16.04076">
        <ele>916.864762</ele>
        <time>2026-07-07T16:58:17.000Z</time>
      </trkpt>
      <trkpt lat="47.5362" lon="16.04072">
        <ele>916.958576</ele>
        <time>2026-07-07T16:58:18.000Z</time>
      </trkpt>
      <trkpt lat="47.53618" lon="16.04068">
        <ele>917.054908</ele>
        <time>2026-07-07T16:58:19.000Z</time>
      </trkpt>
      <trkpt lat="47.53615" lon="16.04064">
        <ele>917.15124</ele>
        <time>2026-07-07T16:58:20.000Z</time>
      </trkpt>
      <trkpt lat="47.53612" lon="16.04061">
        <ele>917.2469</ele>
        <time>2026-07-07T16:58:21.000Z</time>
      </trkpt>
      <trkpt lat="47.5361" lon="16.04057">
        <ele>917.340866</ele>
        <time>2026-07-07T16:58:22.000Z</time>
      </trkpt>
      <trkpt lat="47.53607" lon="16.04053">
        <ele>917.440323</ele>
        <time>2026-07-07T16:58:23.000Z</time>
      </trkpt>
      <trkpt lat="47.53604" lon="16.0405">
        <ele>917.540563</ele>
        <time>2026-07-07T16:58:24.000Z</time>
      </trkpt>
      <trkpt lat="47.53601" lon="16.04046">
        <ele>917.638427</ele>
        <time>2026-07-07T16:58:25.000Z</time>
      </trkpt>
      <trkpt lat="47.53598" lon="16.04043">
        <ele>917.728931</ele>
        <time>2026-07-07T16:58:26.000Z</time>
      </trkpt>
      <trkpt lat="47.53595" lon="16.04041">
        <ele>917.81908</ele>
        <time>2026-07-07T16:58:27.000Z</time>
      </trkpt>
      <trkpt lat="47.53592" lon="16.04038">
        <ele>917.903803</ele>
        <time>2026-07-07T16:58:28.000Z</time>
      </trkpt>
      <trkpt lat="47.53589" lon="16.04036">
        <ele>917.988343</ele>
        <time>2026-07-07T16:58:29.000Z</time>
      </trkpt>
      <trkpt lat="47.53587" lon="16.04034">
        <ele>918.071352</ele>
        <time>2026-07-07T16:58:30.000Z</time>
      </trkpt>
      <trkpt lat="47.53584" lon="16.04032">
        <ele>918.147508</ele>
        <time>2026-07-07T16:58:31.000Z</time>
      </trkpt>
      <trkpt lat="47.53581" lon="16.0403">
        <ele>918.223669</ele>
        <time>2026-07-07T16:58:32.000Z</time>
      </trkpt>
      <trkpt lat="47.53579" lon="16.04029">
        <ele>918.29431</ele>
        <time>2026-07-07T16:58:33.000Z</time>
      </trkpt>
      <trkpt lat="47.53576" lon="16.04027">
        <ele>918.366762</ele>
        <time>2026-07-07T16:58:34.000Z</time>
      </trkpt>
      <trkpt lat="47.53574" lon="16.04026">
        <ele>918.441116</ele>
        <time>2026-07-07T16:58:35.000Z</time>
      </trkpt>
      <trkpt lat="47.53571" lon="16.04025">
        <ele>918.519095</ele>
        <time>2026-07-07T16:58:36.000Z</time>
      </trkpt>
      <trkpt lat="47.53568" lon="16.04023">
        <ele>918.599541</ele>
        <time>2026-07-07T16:58:37.000Z</time>
      </trkpt>
      <trkpt lat="47.53565" lon="16.04022">
        <ele>918.674973</ele>
        <time>2026-07-07T16:58:38.000Z</time>
      </trkpt>
      <trkpt lat="47.53562" lon="16.04021">
        <ele>918.755506</ele>
        <time>2026-07-07T16:58:39.000Z</time>
      </trkpt>
      <trkpt lat="47.53559" lon="16.0402">
        <ele>918.836889</ele>
        <time>2026-07-07T16:58:40.000Z</time>
      </trkpt>
      <trkpt lat="47.53556" lon="16.04019">
        <ele>918.91875</ele>
        <time>2026-07-07T16:58:41.000Z</time>
      </trkpt>
      <trkpt lat="47.53553" lon="16.04017">
        <ele>919.000612</ele>
        <time>2026-07-07T16:58:42.000Z</time>
      </trkpt>
      <trkpt lat="47.5355" lon="16.04016">
        <ele>919.083536</ele>
        <time>2026-07-07T16:58:43.000Z</time>
      </trkpt>
      <trkpt lat="47.53547" lon="16.04014">
        <ele>919.162787</ele>
        <time>2026-07-07T16:58:44.000Z</time>
      </trkpt>
      <trkpt lat="47.53544" lon="16.04012">
        <ele>919.244468</ele>
        <time>2026-07-07T16:58:45.000Z</time>
      </trkpt>
      <trkpt lat="47.53542" lon="16.0401">
        <ele>919.321196</ele>
        <time>2026-07-07T16:58:46.000Z</time>
      </trkpt>
      <trkpt lat="47.53539" lon="16.04008">
        <ele>919.404974</ele>
        <time>2026-07-07T16:58:47.000Z</time>
      </trkpt>
      <trkpt lat="47.53536" lon="16.04006">
        <ele>919.479387</ele>
        <time>2026-07-07T16:58:48.000Z</time>
      </trkpt>
      <trkpt lat="47.53534" lon="16.04004">
        <ele>919.550147</ele>
        <time>2026-07-07T16:58:49.000Z</time>
      </trkpt>
      <trkpt lat="47.53532" lon="16.04002">
        <ele>919.626304</ele>
        <time>2026-07-07T16:58:50.000Z</time>
      </trkpt>
      <trkpt lat="47.53529" lon="16.04">
        <ele>919.698924</ele>
        <time>2026-07-07T16:58:51.000Z</time>
      </trkpt>
      <trkpt lat="47.53527" lon="16.03997">
        <ele>919.761624</ele>
        <time>2026-07-07T16:58:52.000Z</time>
      </trkpt>
      <trkpt lat="47.53525" lon="16.03995">
        <ele>919.794669</ele>
        <time>2026-07-07T16:58:53.000Z</time>
      </trkpt>
      <trkpt lat="47.53523" lon="16.03992">
        <ele>919.830587</ele>
        <time>2026-07-07T16:58:54.000Z</time>
      </trkpt>
      <trkpt lat="47.5352" lon="16.03989">
        <ele>919.867429</ele>
        <time>2026-07-07T16:58:55.000Z</time>
      </trkpt>
      <trkpt lat="47.53517" lon="16.03987">
        <ele>919.905344</ele>
        <time>2026-07-07T16:58:56.000Z</time>
      </trkpt>
      <trkpt lat="47.53515" lon="16.03984">
        <ele>919.944695</ele>
        <time>2026-07-07T16:58:57.000Z</time>
      </trkpt>
      <trkpt lat="47.53512" lon="16.03981">
        <ele>919.984408</ele>
        <time>2026-07-07T16:58:58.000Z</time>
      </trkpt>
      <trkpt lat="47.53509" lon="16.03979">
        <ele>920.026631</ele>
        <time>2026-07-07T16:58:59.000Z</time>
      </trkpt>
      <trkpt lat="47.53506" lon="16.03976">
        <ele>920.06778</ele>
        <time>2026-07-07T16:59:00.000Z</time>
      </trkpt>
      <trkpt lat="47.53503" lon="16.03972">
        <ele>920.108956</ele>
        <time>2026-07-07T16:59:01.000Z</time>
      </trkpt>
      <trkpt lat="47.53501" lon="16.03969">
        <ele>920.150582</ele>
        <time>2026-07-07T16:59:02.000Z</time>
      </trkpt>
      <trkpt lat="47.53498" lon="16.03966">
        <ele>920.191731</ele>
        <time>2026-07-07T16:59:03.000Z</time>
      </trkpt>
      <trkpt lat="47.53495" lon="16.03963">
        <ele>920.234833</ele>
        <time>2026-07-07T16:59:04.000Z</time>
      </trkpt>
      <trkpt lat="47.53492" lon="16.03961">
        <ele>920.278685</ele>
        <time>2026-07-07T16:59:05.000Z</time>
      </trkpt>
      <trkpt lat="47.53488" lon="16.03958">
        <ele>920.32378</ele>
        <time>2026-07-07T16:59:06.000Z</time>
      </trkpt>
      <trkpt lat="47.53485" lon="16.03954">
        <ele>920.368773</ele>
        <time>2026-07-07T16:59:07.000Z</time>
      </trkpt>
      <trkpt lat="47.53482" lon="16.03951">
        <ele>920.415898</ele>
        <time>2026-07-07T16:59:08.000Z</time>
      </trkpt>
      <trkpt lat="47.53479" lon="16.03949">
        <ele>920.461183</ele>
        <time>2026-07-07T16:59:09.000Z</time>
      </trkpt>
      <trkpt lat="47.53475" lon="16.03946">
        <ele>920.506074</ele>
        <time>2026-07-07T16:59:10.000Z</time>
      </trkpt>
      <trkpt lat="47.53472" lon="16.03943">
        <ele>920.555549</ele>
        <time>2026-07-07T16:59:11.000Z</time>
      </trkpt>
      <trkpt lat="47.53468" lon="16.0394">
        <ele>920.602916</ele>
        <time>2026-07-07T16:59:12.000Z</time>
      </trkpt>
      <trkpt lat="47.53465" lon="16.03937">
        <ele>920.65067</ele>
        <time>2026-07-07T16:59:13.000Z</time>
      </trkpt>
      <trkpt lat="47.53461" lon="16.03934">
        <ele>920.698036</ele>
        <time>2026-07-07T16:59:14.000Z</time>
      </trkpt>
      <trkpt lat="47.53458" lon="16.0393">
        <ele>920.744451</ele>
        <time>2026-07-07T16:59:15.000Z</time>
      </trkpt>
      <trkpt lat="47.53455" lon="16.03927">
        <ele>920.789924</ele>
        <time>2026-07-07T16:59:16.000Z</time>
      </trkpt>
      <trkpt lat="47.53452" lon="16.03923">
        <ele>920.837291</ele>
        <time>2026-07-07T16:59:17.000Z</time>
      </trkpt>
      <trkpt lat="47.53449" lon="16.0392">
        <ele>920.882764</ele>
        <time>2026-07-07T16:59:18.000Z</time>
      </trkpt>
      <trkpt lat="47.53446" lon="16.03916">
        <ele>920.926022</ele>
        <time>2026-07-07T16:59:19.000Z</time>
      </trkpt>
      <trkpt lat="47.53443" lon="16.03913">
        <ele>920.972507</ele>
        <time>2026-07-07T16:59:20.000Z</time>
      </trkpt>
      <trkpt lat="47.53441" lon="16.03909">
        <ele>921.015162</ele>
        <time>2026-07-07T16:59:21.000Z</time>
      </trkpt>
      <trkpt lat="47.53438" lon="16.03904">
        <ele>921.062777</ele>
        <time>2026-07-07T16:59:22.000Z</time>
      </trkpt>
      <trkpt lat="47.53436" lon="16.039">
        <ele>921.110578</ele>
        <time>2026-07-07T16:59:23.000Z</time>
      </trkpt>
      <trkpt lat="47.53433" lon="16.03896">
        <ele>921.153432</ele>
        <time>2026-07-07T16:59:24.000Z</time>
      </trkpt>
      <trkpt lat="47.53431" lon="16.03892">
        <ele>921.198446</ele>
        <time>2026-07-07T16:59:25.000Z</time>
      </trkpt>
      <trkpt lat="47.53428" lon="16.03887">
        <ele>921.242681</ele>
        <time>2026-07-07T16:59:26.000Z</time>
      </trkpt>
      <trkpt lat="47.53426" lon="16.03883">
        <ele>921.286784</ele>
        <time>2026-07-07T16:59:27.000Z</time>
      </trkpt>
      <trkpt lat="47.53424" lon="16.03879">
        <ele>921.328762</ele>
        <time>2026-07-07T16:59:28.000Z</time>
      </trkpt>
      <trkpt lat="47.53422" lon="16.03874">
        <ele>921.373428</ele>
        <time>2026-07-07T16:59:29.000Z</time>
      </trkpt>
      <trkpt lat="47.5342" lon="16.0387">
        <ele>921.415478</ele>
        <time>2026-07-07T16:59:30.000Z</time>
      </trkpt>
      <trkpt lat="47.53418" lon="16.03865">
        <ele>921.458918</ele>
        <time>2026-07-07T16:59:31.000Z</time>
      </trkpt>
      <trkpt lat="47.53417" lon="16.03861">
        <ele>921.499264</ele>
        <time>2026-07-07T16:59:32.000Z</time>
      </trkpt>
      <trkpt lat="47.53416" lon="16.03856">
        <ele>921.53667</ele>
        <time>2026-07-07T16:59:33.000Z</time>
      </trkpt>
      <trkpt lat="47.53415" lon="16.03852">
        <ele>921.575363</ele>
        <time>2026-07-07T16:59:34.000Z</time>
      </trkpt>
      <trkpt lat="47.53414" lon="16.03847">
        <ele>921.615354</ele>
        <time>2026-07-07T16:59:35.000Z</time>
      </trkpt>
      <trkpt lat="47.53413" lon="16.03842">
        <ele>921.65264</ele>
        <time>2026-07-07T16:59:36.000Z</time>
      </trkpt>
      <trkpt lat="47.53413" lon="16.03837">
        <ele>921.692051</ele>
        <time>2026-07-07T16:59:37.000Z</time>
      </trkpt>
      <trkpt lat="47.53412" lon="16.03831">
        <ele>921.743488</ele>
        <time>2026-07-07T16:59:38.000Z</time>
      </trkpt>
      <trkpt lat="47.53409" lon="16.03825">
        <ele>921.803047</ele>
        <time>2026-07-07T16:59:39.000Z</time>
      </trkpt>
      <trkpt lat="47.53407" lon="16.03819">
        <ele>921.857564</ele>
        <time>2026-07-07T16:59:40.000Z</time>
      </trkpt>
      <trkpt lat="47.53404" lon="16.03813">
        <ele>921.885252</ele>
        <time>2026-07-07T16:59:41.000Z</time>
      </trkpt>
      <trkpt lat="47.534" lon="16.03809">
        <ele>921.849294</ele>
        <time>2026-07-07T16:59:42.000Z</time>
      </trkpt>
      <trkpt lat="47.53396" lon="16.03806">
        <ele>921.815642</ele>
        <time>2026-07-07T16:59:43.000Z</time>
      </trkpt>
      <trkpt lat="47.53392" lon="16.03803">
        <ele>921.780957</ele>
        <time>2026-07-07T16:59:44.000Z</time>
      </trkpt>
      <trkpt lat="47.53387" lon="16.03801">
        <ele>921.748966</ele>
        <time>2026-07-07T16:59:45.000Z</time>
      </trkpt>
      <trkpt lat="47.53384" lon="16.03799">
        <ele>921.720474</ele>
        <time>2026-07-07T16:59:46.000Z</time>
      </trkpt>
      <trkpt lat="47.5338" lon="16.03795">
        <ele>921.68731</ele>
        <time>2026-07-07T16:59:47.000Z</time>
      </trkpt>
      <trkpt lat="47.53376" lon="16.03791">
        <ele>921.653092</ele>
        <time>2026-07-07T16:59:48.000Z</time>
      </trkpt>
      <trkpt lat="47.53373" lon="16.03787">
        <ele>921.621691</ele>
        <time>2026-07-07T16:59:49.000Z</time>
      </trkpt>
      <trkpt lat="47.53369" lon="16.03782">
        <ele>921.583917</ele>
        <time>2026-07-07T16:59:50.000Z</time>
      </trkpt>
      <trkpt lat="47.53365" lon="16.03777">
        <ele>921.549339</ele>
        <time>2026-07-07T16:59:51.000Z</time>
      </trkpt>
      <trkpt lat="47.53363" lon="16.03772">
        <ele>921.518201</ele>
        <time>2026-07-07T16:59:52.000Z</time>
      </trkpt>
      <trkpt lat="47.5336" lon="16.03767">
        <ele>921.486238</ele>
        <time>2026-07-07T16:59:53.000Z</time>
      </trkpt>
      <trkpt lat="47.53358" lon="16.03761">
        <ele>921.455088</ele>
        <time>2026-07-07T16:59:54.000Z</time>
      </trkpt>
      <trkpt lat="47.53356" lon="16.03756">
        <ele>921.423565</ele>
        <time>2026-07-07T16:59:55.000Z</time>
      </trkpt>
      <trkpt lat="47.53354" lon="16.0375">
        <ele>921.391574</ele>
        <time>2026-07-07T16:59:56.000Z</time>
      </trkpt>
      <trkpt lat="47.53352" lon="16.03743">
        <ele>921.355327</ele>
        <time>2026-07-07T16:59:57.000Z</time>
      </trkpt>
      <trkpt lat="47.5335" lon="16.03735">
        <ele>921.315482</ele>
        <time>2026-07-07T16:59:58.000Z</time>
      </trkpt>
      <trkpt lat="47.53347" lon="16.03728">
        <ele>921.276033</ele>
        <time>2026-07-07T16:59:59.000Z</time>
      </trkpt>
      <trkpt lat="47.53345" lon="16.03721">
        <ele>921.237223</ele>
        <time>2026-07-07T17:00:00.000Z</time>
      </trkpt>
      <trkpt lat="47.53341" lon="16.03716">
        <ele>921.199554</ele>
        <time>2026-07-07T17:00:01.000Z</time>
      </trkpt>
      <trkpt lat="47.53337" lon="16.03713">
        <ele>921.165468</ele>
        <time>2026-07-07T17:00:02.000Z</time>
      </trkpt>
      <trkpt lat="47.53332" lon="16.03711">
        <ele>921.131048</ele>
        <time>2026-07-07T17:00:03.000Z</time>
      </trkpt>
      <trkpt lat="47.53328" lon="16.03711">
        <ele>921.102144</ele>
        <time>2026-07-07T17:00:04.000Z</time>
      </trkpt>
      <trkpt lat="47.53324" lon="16.03711">
        <ele>921.076122</ele>
        <time>2026-07-07T17:00:05.000Z</time>
      </trkpt>
      <trkpt lat="47.53321" lon="16.03712">
        <ele>921.050745</ele>
        <time>2026-07-07T17:00:06.000Z</time>
      </trkpt>
      <trkpt lat="47.53317" lon="16.03713">
        <ele>921.024818</ele>
        <time>2026-07-07T17:00:07.000Z</time>
      </trkpt>
      <trkpt lat="47.53313" lon="16.03715">
        <ele>920.993639</ele>
        <time>2026-07-07T17:00:08.000Z</time>
      </trkpt>
      <trkpt lat="47.53309" lon="16.03716">
        <ele>920.964084</ele>
        <time>2026-07-07T17:00:09.000Z</time>
      </trkpt>
      <trkpt lat="47.53305" lon="16.03717">
        <ele>920.933384</ele>
        <time>2026-07-07T17:00:10.000Z</time>
      </trkpt>
      <trkpt lat="47.53301" lon="16.03718">
        <ele>920.903019</ele>
        <time>2026-07-07T17:00:11.000Z</time>
      </trkpt>
      <trkpt lat="47.53297" lon="16.0372">
        <ele>920.872053</ele>
        <time>2026-07-07T17:00:12.000Z</time>
      </trkpt>
      <trkpt lat="47.53292" lon="16.03721">
        <ele>920.838965</ele>
        <time>2026-07-07T17:00:13.000Z</time>
      </trkpt>
      <trkpt lat="47.53288" lon="16.03722">
        <ele>920.808265</ele>
        <time>2026-07-07T17:00:14.000Z</time>
      </trkpt>
      <trkpt lat="47.53284" lon="16.03724">
        <ele>920.775738</ele>
        <time>2026-07-07T17:00:15.000Z</time>
      </trkpt>
      <trkpt lat="47.53279" lon="16.03726">
        <ele>920.740447</ele>
        <time>2026-07-07T17:00:16.000Z</time>
      </trkpt>
      <trkpt lat="47.53275" lon="16.03728">
        <ele>920.707284</ele>
        <time>2026-07-07T17:00:17.000Z</time>
      </trkpt>
      <trkpt lat="47.5327" lon="16.03731">
        <ele>920.671243</ele>
        <time>2026-07-07T17:00:18.000Z</time>
      </trkpt>
      <trkpt lat="47.53265" lon="16.03733">
        <ele>920.634834</ele>
        <time>2026-07-07T17:00:19.000Z</time>
      </trkpt>
      <trkpt lat="47.5326" lon="16.03735">
        <ele>920.566812</ele>
        <time>2026-07-07T17:00:20.000Z</time>
      </trkpt>
      <trkpt lat="47.53254" lon="16.03738">
        <ele>920.142478</ele>
        <time>2026-07-07T17:00:21.000Z</time>
      </trkpt>
      <trkpt lat="47.53247" lon="16.03741">
        <ele>919.703065</ele>
        <time>2026-07-07T17:00:22.000Z</time>
      </trkpt>
      <trkpt lat="47.5324" lon="16.03744">
        <ele>919.241239</ele>
        <time>2026-07-07T17:00:23.000Z</time>
      </trkpt>
      <trkpt lat="47.53234" lon="16.03746">
        <ele>918.790308</ele>
        <time>2026-07-07T17:00:24.000Z</time>
      </trkpt>
      <trkpt lat="47.53227" lon="16.03749">
        <ele>918.369766</ele>
        <time>2026-07-07T17:00:25.000Z</time>
      </trkpt>
      <trkpt lat="47.53222" lon="16.03752">
        <ele>917.980803</ele>
        <time>2026-07-07T17:00:26.000Z</time>
      </trkpt>
      <trkpt lat="47.53217" lon="16.03757">
        <ele>917.581644</ele>
        <time>2026-07-07T17:00:27.000Z</time>
      </trkpt>
      <trkpt lat="47.53212" lon="16.03764">
        <ele>917.143407</ele>
        <time>2026-07-07T17:00:28.000Z</time>
      </trkpt>
      <trkpt lat="47.53207" lon="16.03773">
        <ele>916.653006</ele>
        <time>2026-07-07T17:00:29.000Z</time>
      </trkpt>
      <trkpt lat="47.53203" lon="16.03784">
        <ele>916.086885</ele>
        <time>2026-07-07T17:00:30.000Z</time>
      </trkpt>
      <trkpt lat="47.53199" lon="16.03795">
        <ele>915.535504</ele>
        <time>2026-07-07T17:00:31.000Z</time>
      </trkpt>
      <trkpt lat="47.53195" lon="16.03807">
        <ele>914.965468</ele>
        <time>2026-07-07T17:00:32.000Z</time>
      </trkpt>
      <trkpt lat="47.53193" lon="16.03817">
        <ele>914.507958</ele>
        <time>2026-07-07T17:00:33.000Z</time>
      </trkpt>
      <trkpt lat="47.5319" lon="16.03825">
        <ele>914.103045</ele>
        <time>2026-07-07T17:00:34.000Z</time>
      </trkpt>
      <trkpt lat="47.53187" lon="16.03833">
        <ele>913.713781</ele>
        <time>2026-07-07T17:00:35.000Z</time>
      </trkpt>
      <trkpt lat="47.53183" lon="16.03838">
        <ele>913.330905</ele>
        <time>2026-07-07T17:00:36.000Z</time>
      </trkpt>
      <trkpt lat="47.53177" lon="16.03841">
        <ele>912.938463</ele>
        <time>2026-07-07T17:00:37.000Z</time>
      </trkpt>
      <trkpt lat="47.53171" lon="16.03844">
        <ele>912.538945</ele>
        <time>2026-07-07T17:00:38.000Z</time>
      </trkpt>
      <trkpt lat="47.53164" lon="16.03846">
        <ele>912.084995</ele>
        <time>2026-07-07T17:00:39.000Z</time>
      </trkpt>
      <trkpt lat="47.53158" lon="16.03846">
        <ele>911.653691</ele>
        <time>2026-07-07T17:00:40.000Z</time>
      </trkpt>
      <trkpt lat="47.5315" lon="16.03846">
        <ele>911.164033</ele>
        <time>2026-07-07T17:00:41.000Z</time>
      </trkpt>
      <trkpt lat="47.53142" lon="16.03845">
        <ele>910.646569</ele>
        <time>2026-07-07T17:00:42.000Z</time>
      </trkpt>
      <trkpt lat="47.53135" lon="16.03843">
        <ele>910.133787</ele>
        <time>2026-07-07T17:00:43.000Z</time>
      </trkpt>
      <trkpt lat="47.53126" lon="16.03842">
        <ele>909.595566</ele>
        <time>2026-07-07T17:00:44.000Z</time>
      </trkpt>
      <trkpt lat="47.53118" lon="16.0384">
        <ele>909.048721</ele>
        <time>2026-07-07T17:00:45.000Z</time>
      </trkpt>
      <trkpt lat="47.5311" lon="16.03839">
        <ele>908.591103</ele>
        <time>2026-07-07T17:00:46.000Z</time>
      </trkpt>
      <trkpt lat="47.53102" lon="16.03837">
        <ele>908.184518</ele>
        <time>2026-07-07T17:00:47.000Z</time>
      </trkpt>
      <trkpt lat="47.53094" lon="16.03836">
        <ele>907.788614</ele>
        <time>2026-07-07T17:00:48.000Z</time>
      </trkpt>
      <trkpt lat="47.53086" lon="16.03834">
        <ele>907.396851</ele>
        <time>2026-07-07T17:00:49.000Z</time>
      </trkpt>
      <trkpt lat="47.53078" lon="16.03833">
        <ele>907.009093</ele>
        <time>2026-07-07T17:00:50.000Z</time>
      </trkpt>
      <trkpt lat="47.53071" lon="16.03831">
        <ele>906.630661</ele>
        <time>2026-07-07T17:00:51.000Z</time>
      </trkpt>
      <trkpt lat="47.53064" lon="16.03829">
        <ele>906.269368</ele>
        <time>2026-07-07T17:00:52.000Z</time>
      </trkpt>
      <trkpt lat="47.53056" lon="16.03826">
        <ele>905.891322</ele>
        <time>2026-07-07T17:00:53.000Z</time>
      </trkpt>
      <trkpt lat="47.53049" lon="16.03824">
        <ele>905.518131</ele>
        <time>2026-07-07T17:00:54.000Z</time>
      </trkpt>
      <trkpt lat="47.53042" lon="16.03821">
        <ele>905.144939</ele>
        <time>2026-07-07T17:00:55.000Z</time>
      </trkpt>
      <trkpt lat="47.53034" lon="16.03819">
        <ele>904.764123</ele>
        <time>2026-07-07T17:00:56.000Z</time>
      </trkpt>
      <trkpt lat="47.53027" lon="16.03817">
        <ele>904.375855</ele>
        <time>2026-07-07T17:00:57.000Z</time>
      </trkpt>
      <trkpt lat="47.53019" lon="16.03815">
        <ele>903.997946</ele>
        <time>2026-07-07T17:00:58.000Z</time>
      </trkpt>
      <trkpt lat="47.53012" lon="16.03814">
        <ele>903.635315</ele>
        <time>2026-07-07T17:00:59.000Z</time>
      </trkpt>
      <trkpt lat="47.53005" lon="16.03812">
        <ele>903.307657</ele>
        <time>2026-07-07T17:01:00.000Z</time>
      </trkpt>
      <trkpt lat="47.52999" lon="16.0381">
        <ele>902.986739</ele>
        <time>2026-07-07T17:01:01.000Z</time>
      </trkpt>
      <trkpt lat="47.52993" lon="16.03808">
        <ele>902.652249</ele>
        <time>2026-07-07T17:01:02.000Z</time>
      </trkpt>
      <trkpt lat="47.52986" lon="16.03805">
        <ele>902.325586</ele>
        <time>2026-07-07T17:01:03.000Z</time>
      </trkpt>
      <trkpt lat="47.5298" lon="16.03802">
        <ele>901.985777</ele>
        <time>2026-07-07T17:01:04.000Z</time>
      </trkpt>
      <trkpt lat="47.52974" lon="16.03797">
        <ele>901.634425</ele>
        <time>2026-07-07T17:01:05.000Z</time>
      </trkpt>
      <trkpt lat="47.52967" lon="16.03791">
        <ele>901.264951</ele>
        <time>2026-07-07T17:01:06.000Z</time>
      </trkpt>
      <trkpt lat="47.52962" lon="16.03785">
        <ele>900.910701</ele>
        <time>2026-07-07T17:01:07.000Z</time>
      </trkpt>
      <trkpt lat="47.52956" lon="16.03778">
        <ele>900.541889</ele>
        <time>2026-07-07T17:01:08.000Z</time>
      </trkpt>
      <trkpt lat="47.5295" lon="16.0377">
        <ele>900.157922</ele>
        <time>2026-07-07T17:01:09.000Z</time>
      </trkpt>
      <trkpt lat="47.52945" lon="16.0376">
        <ele>899.922403</ele>
        <time>2026-07-07T17:01:10.000Z</time>
      </trkpt>
      <trkpt lat="47.5294" lon="16.0375">
        <ele>899.984207</ele>
        <time>2026-07-07T17:01:11.000Z</time>
      </trkpt>
      <trkpt lat="47.52935" lon="16.0374">
        <ele>900.045196</ele>
        <time>2026-07-07T17:01:12.000Z</time>
      </trkpt>
      <trkpt lat="47.52929" lon="16.03731">
        <ele>900.103213</ele>
        <time>2026-07-07T17:01:13.000Z</time>
      </trkpt>
      <trkpt lat="47.52924" lon="16.03724">
        <ele>900.153099</ele>
        <time>2026-07-07T17:01:14.000Z</time>
      </trkpt>
      <trkpt lat="47.52919" lon="16.03719">
        <ele>900.197679</ele>
        <time>2026-07-07T17:01:15.000Z</time>
      </trkpt>
      <trkpt lat="47.52914" lon="16.03716">
        <ele>900.237329</ele>
        <time>2026-07-07T17:01:16.000Z</time>
      </trkpt>
      <trkpt lat="47.52909" lon="16.03714">
        <ele>900.272395</ele>
        <time>2026-07-07T17:01:17.000Z</time>
      </trkpt>
      <trkpt lat="47.52905" lon="16.03714">
        <ele>900.304372</ele>
        <time>2026-07-07T17:01:18.000Z</time>
      </trkpt>
      <trkpt lat="47.52901" lon="16.03716">
        <ele>900.332192</ele>
        <time>2026-07-07T17:01:19.000Z</time>
      </trkpt>
      <trkpt lat="47.52896" lon="16.03727">
        <ele>900.391435</ele>
        <time>2026-07-07T17:01:21.000Z</time>
      </trkpt>
      <trkpt lat="47.52892" lon="16.03737">
        <ele>900.453464</ele>
        <time>2026-07-07T17:01:22.000Z</time>
      </trkpt>
      <trkpt lat="47.5289" lon="16.03743">
        <ele>900.483012</ele>
        <time>2026-07-07T17:01:23.000Z</time>
      </trkpt>
      <trkpt lat="47.52888" lon="16.03748">
        <ele>900.50926</ele>
        <time>2026-07-07T17:01:25.000Z</time>
      </trkpt>
      <trkpt lat="47.52885" lon="16.03757">
        <ele>900.560339</ele>
        <time>2026-07-07T17:01:26.000Z</time>
      </trkpt>
      <trkpt lat="47.52883" lon="16.03762">
        <ele>900.586043</ele>
        <time>2026-07-07T17:01:27.000Z</time>
      </trkpt>
      <trkpt lat="47.52882" lon="16.03767">
        <ele>900.611418</ele>
        <time>2026-07-07T17:01:28.000Z</time>
      </trkpt>
      <trkpt lat="47.5288" lon="16.03772">
        <ele>900.636358</ele>
        <time>2026-07-07T17:01:29.000Z</time>
      </trkpt>
      <trkpt lat="47.52878" lon="16.03776">
        <ele>900.663051</ele>
        <time>2026-07-07T17:01:30.000Z</time>
      </trkpt>
      <trkpt lat="47.52877" lon="16.03781">
        <ele>900.688303</ele>
        <time>2026-07-07T17:01:31.000Z</time>
      </trkpt>
      <trkpt lat="47.52875" lon="16.03786">
        <ele>900.71516</ele>
        <time>2026-07-07T17:01:32.000Z</time>
      </trkpt>
      <trkpt lat="47.52873" lon="16.03791">
        <ele>900.741501</ele>
        <time>2026-07-07T17:01:33.000Z</time>
      </trkpt>
      <trkpt lat="47.52872" lon="16.03796">
        <ele>900.765607</ele>
        <time>2026-07-07T17:01:34.000Z</time>
      </trkpt>
      <trkpt lat="47.52871" lon="16.038">
        <ele>900.786973</ele>
        <time>2026-07-07T17:01:35.000Z</time>
      </trkpt>
      <trkpt lat="47.5287" lon="16.03804">
        <ele>900.807886</ele>
        <time>2026-07-07T17:01:36.000Z</time>
      </trkpt>
      <trkpt lat="47.52868" lon="16.03808">
        <ele>900.832567</ele>
        <time>2026-07-07T17:01:37.000Z</time>
      </trkpt>
      <trkpt lat="47.52867" lon="16.03813">
        <ele>900.856225</ele>
        <time>2026-07-07T17:01:38.000Z</time>
      </trkpt>
      <trkpt lat="47.52866" lon="16.03817">
        <ele>900.879437</ele>
        <time>2026-07-07T17:01:39.000Z</time>
      </trkpt>
      <trkpt lat="47.52865" lon="16.03822">
        <ele>900.902384</ele>
        <time>2026-07-07T17:01:40.000Z</time>
      </trkpt>
      <trkpt lat="47.52864" lon="16.03826">
        <ele>900.922272</ele>
        <time>2026-07-07T17:01:41.000Z</time>
      </trkpt>
      <trkpt lat="47.52862" lon="16.03829">
        <ele>900.94304</ele>
        <time>2026-07-07T17:01:42.000Z</time>
      </trkpt>
      <trkpt lat="47.52862" lon="16.03833">
        <ele>900.960767</ele>
        <time>2026-07-07T17:01:43.000Z</time>
      </trkpt>
      <trkpt lat="47.52861" lon="16.03836">
        <ele>900.978559</ele>
        <time>2026-07-07T17:01:44.000Z</time>
      </trkpt>
      <trkpt lat="47.5286" lon="16.03839">
        <ele>900.992914</ele>
        <time>2026-07-07T17:01:45.000Z</time>
      </trkpt>
      <trkpt lat="47.52859" lon="16.03841">
        <ele>901.003564</ele>
        <time>2026-07-07T17:01:46.000Z</time>
      </trkpt>
      <trkpt lat="47.52859" lon="16.03843">
        <ele>901.012901</ele>
        <time>2026-07-07T17:01:47.000Z</time>
      </trkpt>
      <trkpt lat="47.52858" lon="16.03845">
        <ele>901.025742</ele>
        <time>2026-07-07T17:01:48.000Z</time>
      </trkpt>
      <trkpt lat="47.52857" lon="16.03848">
        <ele>901.039682</ele>
        <time>2026-07-07T17:01:49.000Z</time>
      </trkpt>
      <trkpt lat="47.52856" lon="16.0385">
        <ele>901.054037</ele>
        <time>2026-07-07T17:01:50.000Z</time>
      </trkpt>
      <trkpt lat="47.52855" lon="16.03853">
        <ele>901.069545</ele>
        <time>2026-07-07T17:01:51.000Z</time>
      </trkpt>
      <trkpt lat="47.52853" lon="16.03856">
        <ele>901.089035</ele>
        <time>2026-07-07T17:01:52.000Z</time>
      </trkpt>
      <trkpt lat="47.52852" lon="16.0386">
        <ele>901.10972</ele>
        <time>2026-07-07T17:01:53.000Z</time>
      </trkpt>
      <trkpt lat="47.5285" lon="16.03864">
        <ele>901.13199</ele>
        <time>2026-07-07T17:01:54.000Z</time>
      </trkpt>
      <trkpt lat="47.52848" lon="16.03867">
        <ele>901.149588</ele>
        <time>2026-07-07T17:01:55.000Z</time>
      </trkpt>
      <trkpt lat="47.52846" lon="16.0387">
        <ele>901.171889</ele>
        <time>2026-07-07T17:01:56.000Z</time>
      </trkpt>
      <trkpt lat="47.52845" lon="16.03874">
        <ele>901.20633</ele>
        <time>2026-07-07T17:01:57.000Z</time>
      </trkpt>
      <trkpt lat="47.52843" lon="16.03878">
        <ele>901.249625</ele>
        <time>2026-07-07T17:01:58.000Z</time>
      </trkpt>
      <trkpt lat="47.52841" lon="16.03882">
        <ele>901.290621</ele>
        <time>2026-07-07T17:01:59.000Z</time>
      </trkpt>
      <trkpt lat="47.5284" lon="16.03886">
        <ele>901.335418</ele>
        <time>2026-07-07T17:02:00.000Z</time>
      </trkpt>
      <trkpt lat="47.52838" lon="16.0389">
        <ele>901.378692</ele>
        <time>2026-07-07T17:02:01.000Z</time>
      </trkpt>
      <trkpt lat="47.52836" lon="16.03894">
        <ele>901.422826</ele>
        <time>2026-07-07T17:02:02.000Z</time>
      </trkpt>
      <trkpt lat="47.52834" lon="16.03897">
        <ele>901.463964</ele>
        <time>2026-07-07T17:02:03.000Z</time>
      </trkpt>
      <trkpt lat="47.52832" lon="16.03901">
        <ele>901.50824</ele>
        <time>2026-07-07T17:02:04.000Z</time>
      </trkpt>
      <trkpt lat="47.5283" lon="16.03904">
        <ele>901.552717</ele>
        <time>2026-07-07T17:02:05.000Z</time>
      </trkpt>
      <trkpt lat="47.52827" lon="16.03908">
        <ele>901.600844</ele>
        <time>2026-07-07T17:02:06.000Z</time>
      </trkpt>
      <trkpt lat="47.52825" lon="16.03912">
        <ele>901.648102</ele>
        <time>2026-07-07T17:02:07.000Z</time>
      </trkpt>
      <trkpt lat="47.52823" lon="16.03917">
        <ele>901.69939</ele>
        <time>2026-07-07T17:02:08.000Z</time>
      </trkpt>
      <trkpt lat="47.5282" lon="16.03921">
        <ele>901.753179</ele>
        <time>2026-07-07T17:02:09.000Z</time>
      </trkpt>
      <trkpt lat="47.52817" lon="16.03925">
        <ele>901.805855</ele>
        <time>2026-07-07T17:02:10.000Z</time>
      </trkpt>
      <trkpt lat="47.52815" lon="16.03929">
        <ele>901.855783</ele>
        <time>2026-07-07T17:02:11.000Z</time>
      </trkpt>
      <trkpt lat="47.52812" lon="16.03933">
        <ele>901.907306</ele>
        <time>2026-07-07T17:02:12.000Z</time>
      </trkpt>
      <trkpt lat="47.52809" lon="16.03936">
        <ele>901.955287</ele>
        <time>2026-07-07T17:02:13.000Z</time>
      </trkpt>
      <trkpt lat="47.52806" lon="16.03939">
        <ele>902.004913</ele>
        <time>2026-07-07T17:02:14.000Z</time>
      </trkpt>
      <trkpt lat="47.52804" lon="16.03943">
        <ele>902.052993</ele>
        <time>2026-07-07T17:02:15.000Z</time>
      </trkpt>
      <trkpt lat="47.52801" lon="16.03946">
        <ele>902.105375</ele>
        <time>2026-07-07T17:02:16.000Z</time>
      </trkpt>
      <trkpt lat="47.52797" lon="16.0395">
        <ele>902.161597</ele>
        <time>2026-07-07T17:02:17.000Z</time>
      </trkpt>
      <trkpt lat="47.52794" lon="16.03954">
        <ele>902.213407</ele>
        <time>2026-07-07T17:02:18.000Z</time>
      </trkpt>
      <trkpt lat="47.52791" lon="16.03957">
        <ele>902.2652</ele>
        <time>2026-07-07T17:02:19.000Z</time>
      </trkpt>
      <trkpt lat="47.52788" lon="16.0396">
        <ele>902.320348</ele>
        <time>2026-07-07T17:02:20.000Z</time>
      </trkpt>
      <trkpt lat="47.52784" lon="16.03963">
        <ele>902.375944</ele>
        <time>2026-07-07T17:02:21.000Z</time>
      </trkpt>
      <trkpt lat="47.52781" lon="16.03966">
        <ele>902.428721</ele>
        <time>2026-07-07T17:02:22.000Z</time>
      </trkpt>
      <trkpt lat="47.52777" lon="16.03969">
        <ele>902.482662</ele>
        <time>2026-07-07T17:02:23.000Z</time>
      </trkpt>
      <trkpt lat="47.52774" lon="16.03971">
        <ele>902.535378</ele>
        <time>2026-07-07T17:02:24.000Z</time>
      </trkpt>
      <trkpt lat="47.5277" lon="16.03974">
        <ele>902.586876</ele>
        <time>2026-07-07T17:02:25.000Z</time>
      </trkpt>
      <trkpt lat="47.52767" lon="16.03976">
        <ele>902.636355</ele>
        <time>2026-07-07T17:02:26.000Z</time>
      </trkpt>
      <trkpt lat="47.52764" lon="16.03978">
        <ele>902.689071</ele>
        <time>2026-07-07T17:02:27.000Z</time>
      </trkpt>
      <trkpt lat="47.5276" lon="16.0398">
        <ele>902.737104</ele>
        <time>2026-07-07T17:02:28.000Z</time>
      </trkpt>
      <trkpt lat="47.52757" lon="16.03982">
        <ele>902.786534</ele>
        <time>2026-07-07T17:02:29.000Z</time>
      </trkpt>
      <trkpt lat="47.52753" lon="16.03983">
        <ele>902.835486</ele>
        <time>2026-07-07T17:02:30.000Z</time>
      </trkpt>
      <trkpt lat="47.5275" lon="16.03984">
        <ele>902.884439</ele>
        <time>2026-07-07T17:02:31.000Z</time>
      </trkpt>
      <trkpt lat="47.52746" lon="16.03986">
        <ele>902.938477</ele>
        <time>2026-07-07T17:02:32.000Z</time>
      </trkpt>
      <trkpt lat="47.52742" lon="16.03986">
        <ele>902.993119</ele>
        <time>2026-07-07T17:02:33.000Z</time>
      </trkpt>
      <trkpt lat="47.52738" lon="16.03987">
        <ele>903.048929</ele>
        <time>2026-07-07T17:02:34.000Z</time>
      </trkpt>
      <trkpt lat="47.52734" lon="16.03987">
        <ele>903.105915</ele>
        <time>2026-07-07T17:02:35.000Z</time>
      </trkpt>
      <trkpt lat="47.52729" lon="16.03987">
        <ele>903.16425</ele>
        <time>2026-07-07T17:02:36.000Z</time>
      </trkpt>
      <trkpt lat="47.52725" lon="16.03987">
        <ele>903.225325</ele>
        <time>2026-07-07T17:02:37.000Z</time>
      </trkpt>
      <trkpt lat="47.5272" lon="16.03987">
        <ele>903.289087</ele>
        <time>2026-07-07T17:02:38.000Z</time>
      </trkpt>
      <trkpt lat="47.52715" lon="16.03987">
        <ele>903.352848</ele>
        <time>2026-07-07T17:02:39.000Z</time>
      </trkpt>
      <trkpt lat="47.52711" lon="16.03987">
        <ele>903.417992</ele>
        <time>2026-07-07T17:02:40.000Z</time>
      </trkpt>
      <trkpt lat="47.52706" lon="16.03987">
        <ele>903.485823</ele>
        <time>2026-07-07T17:02:41.000Z</time>
      </trkpt>
      <trkpt lat="47.52701" lon="16.03987">
        <ele>903.553753</ele>
        <time>2026-07-07T17:02:42.000Z</time>
      </trkpt>
      <trkpt lat="47.52695" lon="16.03988">
        <ele>903.593964</ele>
        <time>2026-07-07T17:02:43.000Z</time>
      </trkpt>
      <trkpt lat="47.5269" lon="16.03988">
        <ele>903.246641</ele>
        <time>2026-07-07T17:02:44.000Z</time>
      </trkpt>
      <trkpt lat="47.52685" lon="16.03989">
        <ele>902.905844</ele>
        <time>2026-07-07T17:02:45.000Z</time>
      </trkpt>
      <trkpt lat="47.5268" lon="16.0399">
        <ele>902.557427</ele>
        <time>2026-07-07T17:02:46.000Z</time>
      </trkpt>
      <trkpt lat="47.52674" lon="16.03991">
        <ele>902.195025</ele>
        <time>2026-07-07T17:02:47.000Z</time>
      </trkpt>
      <trkpt lat="47.52669" lon="16.03991">
        <ele>901.846608</ele>
        <time>2026-07-07T17:02:48.000Z</time>
      </trkpt>
      <trkpt lat="47.52663" lon="16.03992">
        <ele>901.471714</ele>
        <time>2026-07-07T17:02:49.000Z</time>
      </trkpt>
      <trkpt lat="47.52657" lon="16.03993">
        <ele>901.097262</ele>
        <time>2026-07-07T17:02:50.000Z</time>
      </trkpt>
      <trkpt lat="47.52651" lon="16.03994">
        <ele>900.702384</ele>
        <time>2026-07-07T17:02:51.000Z</time>
      </trkpt>
      <trkpt lat="47.52645" lon="16.03995">
        <ele>900.299938</ele>
        <time>2026-07-07T17:02:52.000Z</time>
      </trkpt>
      <trkpt lat="47.52639" lon="16.03996">
        <ele>899.891558</ele>
        <time>2026-07-07T17:02:53.000Z</time>
      </trkpt>
      <trkpt lat="47.52632" lon="16.03997">
        <ele>899.45282</ele>
        <time>2026-07-07T17:02:54.000Z</time>
      </trkpt>
      <trkpt lat="47.52626" lon="16.03997">
        <ele>899.027719</ele>
        <time>2026-07-07T17:02:55.000Z</time>
      </trkpt>
      <trkpt lat="47.52619" lon="16.03997">
        <ele>898.602617</ele>
        <time>2026-07-07T17:02:56.000Z</time>
      </trkpt>
      <trkpt lat="47.52613" lon="16.03997">
        <ele>898.157874</ele>
        <time>2026-07-07T17:02:57.000Z</time>
      </trkpt>
      <trkpt lat="47.52606" lon="16.03996">
        <ele>897.712605</ele>
        <time>2026-07-07T17:02:58.000Z</time>
      </trkpt>
      <trkpt lat="47.52599" lon="16.03995">
        <ele>897.272204</ele>
        <time>2026-07-07T17:02:59.000Z</time>
      </trkpt>
      <trkpt lat="47.52592" lon="16.03994">
        <ele>896.823205</ele>
        <time>2026-07-07T17:03:00.000Z</time>
      </trkpt>
      <trkpt lat="47.52586" lon="16.03992">
        <ele>896.394493</ele>
        <time>2026-07-07T17:03:01.000Z</time>
      </trkpt>
      <trkpt lat="47.52579" lon="16.03989">
        <ele>895.956378</ele>
        <time>2026-07-07T17:03:02.000Z</time>
      </trkpt>
      <trkpt lat="47.52574" lon="16.03987">
        <ele>895.563692</ele>
        <time>2026-07-07T17:03:03.000Z</time>
      </trkpt>
      <trkpt lat="47.52567" lon="16.03984">
        <ele>895.134765</ele>
        <time>2026-07-07T17:03:04.000Z</time>
      </trkpt>
      <trkpt lat="47.52561" lon="16.0398">
        <ele>894.672709</ele>
        <time>2026-07-07T17:03:05.000Z</time>
      </trkpt>
      <trkpt lat="47.52554" lon="16.03975">
        <ele>894.17032</ele>
        <time>2026-07-07T17:03:06.000Z</time>
      </trkpt>
      <trkpt lat="47.52547" lon="16.03969">
        <ele>893.63787</ele>
        <time>2026-07-07T17:03:07.000Z</time>
      </trkpt>
      <trkpt lat="47.5254" lon="16.03963">
        <ele>893.095819</ele>
        <time>2026-07-07T17:03:08.000Z</time>
      </trkpt>
      <trkpt lat="47.52533" lon="16.03955">
        <ele>892.541308</ele>
        <time>2026-07-07T17:03:09.000Z</time>
      </trkpt>
      <trkpt lat="47.52526" lon="16.03948">
        <ele>891.999696</ele>
        <time>2026-07-07T17:03:10.000Z</time>
      </trkpt>
      <trkpt lat="47.5252" lon="16.03942">
        <ele>891.604585</ele>
        <time>2026-07-07T17:03:11.000Z</time>
      </trkpt>
      <trkpt lat="47.52514" lon="16.03938">
        <ele>891.294289</ele>
        <time>2026-07-07T17:03:12.000Z</time>
      </trkpt>
      <trkpt lat="47.52508" lon="16.03935">
        <ele>890.998359</ele>
        <time>2026-07-07T17:03:13.000Z</time>
      </trkpt>
      <trkpt lat="47.52502" lon="16.03934">
        <ele>890.715682</ele>
        <time>2026-07-07T17:03:14.000Z</time>
      </trkpt>
      <trkpt lat="47.52497" lon="16.03934">
        <ele>890.481882</ele>
        <time>2026-07-07T17:03:15.000Z</time>
      </trkpt>
      <trkpt lat="47.52493" lon="16.03937">
        <ele>890.304106</ele>
        <time>2026-07-07T17:03:16.000Z</time>
      </trkpt>
      <trkpt lat="47.52491" lon="16.0394">
        <ele>890.139831</ele>
        <time>2026-07-07T17:03:17.000Z</time>
      </trkpt>
      <trkpt lat="47.52491" lon="16.03946">
        <ele>889.965616</ele>
        <time>2026-07-07T17:03:18.000Z</time>
      </trkpt>
      <trkpt lat="47.52494" lon="16.03955">
        <ele>889.638877</ele>
        <time>2026-07-07T17:03:19.000Z</time>
      </trkpt>
      <trkpt lat="47.52496" lon="16.03963">
        <ele>889.36424</ele>
        <time>2026-07-07T17:03:20.000Z</time>
      </trkpt>
      <trkpt lat="47.52498" lon="16.0397">
        <ele>889.112583</ele>
        <time>2026-07-07T17:03:21.000Z</time>
      </trkpt>
      <trkpt lat="47.525" lon="16.03977">
        <ele>888.869695</ele>
        <time>2026-07-07T17:03:22.000Z</time>
      </trkpt>
      <trkpt lat="47.52502" lon="16.03985">
        <ele>888.615105</ele>
        <time>2026-07-07T17:03:23.000Z</time>
      </trkpt>
      <trkpt lat="47.52504" lon="16.03993">
        <ele>888.350333</ele>
        <time>2026-07-07T17:03:24.000Z</time>
      </trkpt>
      <trkpt lat="47.52506" lon="16.04001">
        <ele>888.08691</ele>
        <time>2026-07-07T17:03:25.000Z</time>
      </trkpt>
      <trkpt lat="47.52508" lon="16.04009">
        <ele>887.823483</ele>
        <time>2026-07-07T17:03:26.000Z</time>
      </trkpt>
      <trkpt lat="47.5251" lon="16.04017">
        <ele>887.530173</ele>
        <time>2026-07-07T17:03:27.000Z</time>
      </trkpt>
      <trkpt lat="47.52512" lon="16.04026">
        <ele>887.24598</ele>
        <time>2026-07-07T17:03:28.000Z</time>
      </trkpt>
      <trkpt lat="47.52513" lon="16.04035">
        <ele>886.942418</ele>
        <time>2026-07-07T17:03:29.000Z</time>
      </trkpt>
      <trkpt lat="47.52516" lon="16.04045">
        <ele>886.599456</ele>
        <time>2026-07-07T17:03:30.000Z</time>
      </trkpt>
      <trkpt lat="47.52517" lon="16.0406">
        <ele>886.123114</ele>
        <time>2026-07-07T17:03:31.000Z</time>
      </trkpt>
      <trkpt lat="47.52521" lon="16.04069">
        <ele>885.788193</ele>
        <time>2026-07-07T17:03:32.000Z</time>
      </trkpt>
      <trkpt lat="47.52526" lon="16.04079">
        <ele>885.419256</ele>
        <time>2026-07-07T17:03:33.000Z</time>
      </trkpt>
      <trkpt lat="47.5253" lon="16.04089">
        <ele>885.045086</ele>
        <time>2026-07-07T17:03:34.000Z</time>
      </trkpt>
      <trkpt lat="47.52535" lon="16.04098">
        <ele>884.668267</ele>
        <time>2026-07-07T17:03:35.000Z</time>
      </trkpt>
      <trkpt lat="47.5254" lon="16.04109">
        <ele>884.270535</ele>
        <time>2026-07-07T17:03:36.000Z</time>
      </trkpt>
      <trkpt lat="47.52544" lon="16.0412">
        <ele>883.866056</ele>
        <time>2026-07-07T17:03:37.000Z</time>
      </trkpt>
      <trkpt lat="47.52548" lon="16.04131">
        <ele>883.459286</ele>
        <time>2026-07-07T17:03:38.000Z</time>
      </trkpt>
      <trkpt lat="47.52553" lon="16.04142">
        <ele>883.074349</ele>
        <time>2026-07-07T17:03:39.000Z</time>
      </trkpt>
      <trkpt lat="47.52557" lon="16.04154">
        <ele>882.677532</ele>
        <time>2026-07-07T17:03:40.000Z</time>
      </trkpt>
      <trkpt lat="47.52562" lon="16.04166">
        <ele>882.274006</ele>
        <time>2026-07-07T17:03:41.000Z</time>
      </trkpt>
      <trkpt lat="47.52568" lon="16.04177">
        <ele>881.860965</ele>
        <time>2026-07-07T17:03:42.000Z</time>
      </trkpt>
      <trkpt lat="47.52573" lon="16.04189">
        <ele>881.445528</ele>
        <time>2026-07-07T17:03:43.000Z</time>
      </trkpt>
      <trkpt lat="47.52579" lon="16.042">
        <ele>881.026499</ele>
        <time>2026-07-07T17:03:44.000Z</time>
      </trkpt>
      <trkpt lat="47.52586" lon="16.04211">
        <ele>880.61481</ele>
        <time>2026-07-07T17:03:45.000Z</time>
      </trkpt>
      <trkpt lat="47.52592" lon="16.0422">
        <ele>880.212189</ele>
        <time>2026-07-07T17:03:46.000Z</time>
      </trkpt>
      <trkpt lat="47.526" lon="16.04228">
        <ele>879.80231</ele>
        <time>2026-07-07T17:03:47.000Z</time>
      </trkpt>
      <trkpt lat="47.52608" lon="16.04237">
        <ele>879.383568</ele>
        <time>2026-07-07T17:03:48.000Z</time>
      </trkpt>
      <trkpt lat="47.52616" lon="16.04244">
        <ele>878.968921</ele>
        <time>2026-07-07T17:03:49.000Z</time>
      </trkpt>
      <trkpt lat="47.52625" lon="16.0425">
        <ele>878.538077</ele>
        <time>2026-07-07T17:03:50.000Z</time>
      </trkpt>
      <trkpt lat="47.52634" lon="16.04255">
        <ele>878.104547</ele>
        <time>2026-07-07T17:03:51.000Z</time>
      </trkpt>
      <trkpt lat="47.52643" lon="16.04259">
        <ele>877.692528</ele>
        <time>2026-07-07T17:03:52.000Z</time>
      </trkpt>
      <trkpt lat="47.52653" lon="16.04263">
        <ele>877.26053</ele>
        <time>2026-07-07T17:03:53.000Z</time>
      </trkpt>
      <trkpt lat="47.52663" lon="16.04266">
        <ele>876.812416</ele>
        <time>2026-07-07T17:03:54.000Z</time>
      </trkpt>
      <trkpt lat="47.52672" lon="16.04271">
        <ele>876.387047</ele>
        <time>2026-07-07T17:03:55.000Z</time>
      </trkpt>
      <trkpt lat="47.52681" lon="16.04278">
        <ele>875.948516</ele>
        <time>2026-07-07T17:03:56.000Z</time>
      </trkpt>
      <trkpt lat="47.5269" lon="16.04286">
        <ele>875.336313</ele>
        <time>2026-07-07T17:03:57.000Z</time>
      </trkpt>
      <trkpt lat="47.52699" lon="16.04293">
        <ele>874.397207</ele>
        <time>2026-07-07T17:03:58.000Z</time>
      </trkpt>
      <trkpt lat="47.52707" lon="16.043">
        <ele>873.552135</ele>
        <time>2026-07-07T17:03:59.000Z</time>
      </trkpt>
      <trkpt lat="47.52714" lon="16.04307">
        <ele>872.745201</ele>
        <time>2026-07-07T17:04:00.000Z</time>
      </trkpt>
      <trkpt lat="47.52721" lon="16.04315">
        <ele>871.954034</ele>
        <time>2026-07-07T17:04:01.000Z</time>
      </trkpt>
      <trkpt lat="47.52727" lon="16.04326">
        <ele>871.114927</ele>
        <time>2026-07-07T17:04:02.000Z</time>
      </trkpt>
      <trkpt lat="47.52732" lon="16.04338">
        <ele>870.217793</ele>
        <time>2026-07-07T17:04:03.000Z</time>
      </trkpt>
      <trkpt lat="47.52737" lon="16.04351">
        <ele>869.225292</ele>
        <time>2026-07-07T17:04:04.000Z</time>
      </trkpt>
      <trkpt lat="47.52742" lon="16.04366">
        <ele>868.214933</ele>
        <time>2026-07-07T17:04:05.000Z</time>
      </trkpt>
      <trkpt lat="47.52747" lon="16.0438">
        <ele>867.239183</ele>
        <time>2026-07-07T17:04:06.000Z</time>
      </trkpt>
      <trkpt lat="47.52751" lon="16.04393">
        <ele>866.351055</ele>
        <time>2026-07-07T17:04:07.000Z</time>
      </trkpt>
      <trkpt lat="47.52755" lon="16.04405">
        <ele>865.505403</ele>
        <time>2026-07-07T17:04:08.000Z</time>
      </trkpt>
      <trkpt lat="47.52759" lon="16.04416">
        <ele>864.726768</ele>
        <time>2026-07-07T17:04:09.000Z</time>
      </trkpt>
      <trkpt lat="47.52762" lon="16.04427">
        <ele>863.965967</ele>
        <time>2026-07-07T17:04:10.000Z</time>
      </trkpt>
      <trkpt lat="47.52765" lon="16.04438">
        <ele>863.233687</ele>
        <time>2026-07-07T17:04:11.000Z</time>
      </trkpt>
      <trkpt lat="47.52766" lon="16.04449">
        <ele>862.49907</ele>
        <time>2026-07-07T17:04:12.000Z</time>
      </trkpt>
      <trkpt lat="47.52766" lon="16.04462">
        <ele>861.735772</ele>
        <time>2026-07-07T17:04:13.000Z</time>
      </trkpt>
      <trkpt lat="47.52765" lon="16.04475">
        <ele>860.904726</ele>
        <time>2026-07-07T17:04:14.000Z</time>
      </trkpt>
      <trkpt lat="47.52763" lon="16.04489">
        <ele>860.003258</ele>
        <time>2026-07-07T17:04:15.000Z</time>
      </trkpt>
      <trkpt lat="47.5276" lon="16.04503">
        <ele>859.074252</ele>
        <time>2026-07-07T17:04:16.000Z</time>
      </trkpt>
      <trkpt lat="47.52757" lon="16.04517">
        <ele>858.593438</ele>
        <time>2026-07-07T17:04:17.000Z</time>
      </trkpt>
      <trkpt lat="47.52753" lon="16.0453">
        <ele>858.182003</ele>
        <time>2026-07-07T17:04:18.000Z</time>
      </trkpt>
      <trkpt lat="47.52747" lon="16.0454">
        <ele>857.823429</ele>
        <time>2026-07-07T17:04:19.000Z</time>
      </trkpt>
      <trkpt lat="47.5274" lon="16.04549">
        <ele>857.42199</ele>
        <time>2026-07-07T17:04:20.000Z</time>
      </trkpt>
      <trkpt lat="47.52733" lon="16.04557">
        <ele>857.053318</ele>
        <time>2026-07-07T17:04:21.000Z</time>
      </trkpt>
      <trkpt lat="47.52726" lon="16.04563">
        <ele>856.702464</ele>
        <time>2026-07-07T17:04:22.000Z</time>
      </trkpt>
      <trkpt lat="47.5272" lon="16.04569">
        <ele>856.372098</ele>
        <time>2026-07-07T17:04:23.000Z</time>
      </trkpt>
      <trkpt lat="47.52713" lon="16.04574">
        <ele>856.057414</ele>
        <time>2026-07-07T17:04:24.000Z</time>
      </trkpt>
      <trkpt lat="47.52706" lon="16.04578">
        <ele>855.73918</ele>
        <time>2026-07-07T17:04:25.000Z</time>
      </trkpt>
      <trkpt lat="47.52699" lon="16.04581">
        <ele>855.436847</ele>
        <time>2026-07-07T17:04:26.000Z</time>
      </trkpt>
      <trkpt lat="47.52692" lon="16.04585">
        <ele>855.111537</ele>
        <time>2026-07-07T17:04:27.000Z</time>
      </trkpt>
      <trkpt lat="47.52685" lon="16.04588">
        <ele>854.80749</ele>
        <time>2026-07-07T17:04:28.000Z</time>
      </trkpt>
      <trkpt lat="47.52678" lon="16.04591">
        <ele>854.505817</ele>
        <time>2026-07-07T17:04:29.000Z</time>
      </trkpt>
      <trkpt lat="47.52671" lon="16.04594">
        <ele>854.209873</ele>
        <time>2026-07-07T17:04:30.000Z</time>
      </trkpt>
      <trkpt lat="47.52665" lon="16.04597">
        <ele>853.920263</ele>
        <time>2026-07-07T17:04:31.000Z</time>
      </trkpt>
      <trkpt lat="47.52658" lon="16.046">
        <ele>853.632403</ele>
        <time>2026-07-07T17:04:32.000Z</time>
      </trkpt>
      <trkpt lat="47.52652" lon="16.04603">
        <ele>853.33241</ele>
        <time>2026-07-07T17:04:33.000Z</time>
      </trkpt>
      <trkpt lat="47.52645" lon="16.04606">
        <ele>853.036466</ele>
        <time>2026-07-07T17:04:34.000Z</time>
      </trkpt>
      <trkpt lat="47.52638" lon="16.04609">
        <ele>852.748606</ele>
        <time>2026-07-07T17:04:35.000Z</time>
      </trkpt>
      <trkpt lat="47.52632" lon="16.04613">
        <ele>852.466069</ele>
        <time>2026-07-07T17:04:36.000Z</time>
      </trkpt>
      <trkpt lat="47.52626" lon="16.04616">
        <ele>852.195456</ele>
        <time>2026-07-07T17:04:37.000Z</time>
      </trkpt>
      <trkpt lat="47.5262" lon="16.04619">
        <ele>851.927705</ele>
        <time>2026-07-07T17:04:38.000Z</time>
      </trkpt>
      <trkpt lat="47.52615" lon="16.04622">
        <ele>851.675716</ele>
        <time>2026-07-07T17:04:39.000Z</time>
      </trkpt>
      <trkpt lat="47.52609" lon="16.04625">
        <ele>851.434785</ele>
        <time>2026-07-07T17:04:40.000Z</time>
      </trkpt>
      <trkpt lat="47.52604" lon="16.04628">
        <ele>851.642134</ele>
        <time>2026-07-07T17:04:41.000Z</time>
      </trkpt>
      <trkpt lat="47.52599" lon="16.04631">
        <ele>851.994595</ele>
        <time>2026-07-07T17:04:42.000Z</time>
      </trkpt>
      <trkpt lat="47.52594" lon="16.04634">
        <ele>852.34848</ele>
        <time>2026-07-07T17:04:43.000Z</time>
      </trkpt>
      <trkpt lat="47.5259" lon="16.04636">
        <ele>852.662556</ele>
        <time>2026-07-07T17:04:44.000Z</time>
      </trkpt>
      <trkpt lat="47.52585" lon="16.04639">
        <ele>853.000568</ele>
        <time>2026-07-07T17:04:45.000Z</time>
      </trkpt>
      <trkpt lat="47.52581" lon="16.04641">
        <ele>853.32898</ele>
        <time>2026-07-07T17:04:46.000Z</time>
      </trkpt>
      <trkpt lat="47.52577" lon="16.04644">
        <ele>853.646526</ele>
        <time>2026-07-07T17:04:47.000Z</time>
      </trkpt>
      <trkpt lat="47.52572" lon="16.04647">
        <ele>853.976635</ele>
        <time>2026-07-07T17:04:48.000Z</time>
      </trkpt>
      <trkpt lat="47.52567" lon="16.04649">
        <ele>854.31775</ele>
        <time>2026-07-07T17:04:49.000Z</time>
      </trkpt>
      <trkpt lat="47.52563" lon="16.04652">
        <ele>854.647859</ele>
        <time>2026-07-07T17:04:50.000Z</time>
      </trkpt>
      <trkpt lat="47.52558" lon="16.04655">
        <ele>854.977967</ele>
        <time>2026-07-07T17:04:51.000Z</time>
      </trkpt>
      <trkpt lat="47.52554" lon="16.04657">
        <ele>855.306379</ele>
        <time>2026-07-07T17:04:52.000Z</time>
      </trkpt>
      <trkpt lat="47.52549" lon="16.0466">
        <ele>855.63315</ele>
        <time>2026-07-07T17:04:53.000Z</time>
      </trkpt>
      <trkpt lat="47.52545" lon="16.04662">
        <ele>855.938239</ele>
        <time>2026-07-07T17:04:54.000Z</time>
      </trkpt>
      <trkpt lat="47.52541" lon="16.04663">
        <ele>856.216668</ele>
        <time>2026-07-07T17:04:55.000Z</time>
      </trkpt>
      <trkpt lat="47.52537" lon="16.04664">
        <ele>856.477018</ele>
        <time>2026-07-07T17:04:56.000Z</time>
      </trkpt>
      <trkpt lat="47.52534" lon="16.04664">
        <ele>856.716084</ele>
        <time>2026-07-07T17:04:57.000Z</time>
      </trkpt>
      <trkpt lat="47.5253" lon="16.04665">
        <ele>856.948384</ele>
        <time>2026-07-07T17:04:58.000Z</time>
      </trkpt>
      <trkpt lat="47.52527" lon="16.04665">
        <ele>857.160397</ele>
        <time>2026-07-07T17:04:59.000Z</time>
      </trkpt>
      <trkpt lat="47.52524" lon="16.04666">
        <ele>857.364828</ele>
        <time>2026-07-07T17:05:00.000Z</time>
      </trkpt>
      <trkpt lat="47.52521" lon="16.04666">
        <ele>857.582587</ele>
        <time>2026-07-07T17:05:01.000Z</time>
      </trkpt>
      <trkpt lat="47.52518" lon="16.04666">
        <ele>857.786761</ele>
        <time>2026-07-07T17:05:02.000Z</time>
      </trkpt>
      <trkpt lat="47.52515" lon="16.04665">
        <ele>857.990935</ele>
        <time>2026-07-07T17:05:03.000Z</time>
      </trkpt>
      <trkpt lat="47.52513" lon="16.04666">
        <ele>858.161155</ele>
        <time>2026-07-07T17:05:04.000Z</time>
      </trkpt>
      <trkpt lat="47.5251" lon="16.04666">
        <ele>858.331376</ele>
        <time>2026-07-07T17:05:05.000Z</time>
      </trkpt>
      <trkpt lat="47.52508" lon="16.04666">
        <ele>858.48802</ele>
        <time>2026-07-07T17:05:06.000Z</time>
      </trkpt>
      <trkpt lat="47.52506" lon="16.04665">
        <ele>858.637878</ele>
        <time>2026-07-07T17:05:07.000Z</time>
      </trkpt>
      <trkpt lat="47.52503" lon="16.04665">
        <ele>858.789205</ele>
        <time>2026-07-07T17:05:08.000Z</time>
      </trkpt>
      <trkpt lat="47.52501" lon="16.04664">
        <ele>858.927107</ele>
        <time>2026-07-07T17:05:09.000Z</time>
      </trkpt>
      <trkpt lat="47.525" lon="16.04664">
        <ele>859.05026</ele>
        <time>2026-07-07T17:05:10.000Z</time>
      </trkpt>
      <trkpt lat="47.52498" lon="16.04664">
        <ele>859.174775</ele>
        <time>2026-07-07T17:05:11.000Z</time>
      </trkpt>
      <trkpt lat="47.52496" lon="16.04663">
        <ele>859.290721</ele>
        <time>2026-07-07T17:05:12.000Z</time>
      </trkpt>
      <trkpt lat="47.52494" lon="16.04663">
        <ele>859.415235</ele>
        <time>2026-07-07T17:05:13.000Z</time>
      </trkpt>
      <trkpt lat="47.52493" lon="16.04662">
        <ele>859.533074</ele>
        <time>2026-07-07T17:05:14.000Z</time>
      </trkpt>
      <trkpt lat="47.52491" lon="16.04662">
        <ele>859.66913</ele>
        <time>2026-07-07T17:05:15.000Z</time>
      </trkpt>
      <trkpt lat="47.52489" lon="16.04662">
        <ele>859.79151</ele>
        <time>2026-07-07T17:05:16.000Z</time>
      </trkpt>
      <trkpt lat="47.52487" lon="16.04662">
        <ele>859.92069</ele>
        <time>2026-07-07T17:05:17.000Z</time>
      </trkpt>
      <trkpt lat="47.52485" lon="16.04662">
        <ele>860.04307</ele>
        <time>2026-07-07T17:05:18.000Z</time>
      </trkpt>
      <trkpt lat="47.52483" lon="16.04662">
        <ele>860.159016</ele>
        <time>2026-07-07T17:05:19.000Z</time>
      </trkpt>
      <trkpt lat="47.52482" lon="16.04662">
        <ele>860.261925</ele>
        <time>2026-07-07T17:05:20.000Z</time>
      </trkpt>
      <trkpt lat="47.5248" lon="16.04661">
        <ele>860.36646</ele>
        <time>2026-07-07T17:05:21.000Z</time>
      </trkpt>
      <trkpt lat="47.52479" lon="16.04661">
        <ele>860.470084</ele>
        <time>2026-07-07T17:05:22.000Z</time>
      </trkpt>
      <trkpt lat="47.52477" lon="16.0466">
        <ele>860.57462</ele>
        <time>2026-07-07T17:05:23.000Z</time>
      </trkpt>
      <trkpt lat="47.52476" lon="16.0466">
        <ele>860.664072</ele>
        <time>2026-07-07T17:05:24.000Z</time>
      </trkpt>
      <trkpt lat="47.52475" lon="16.0466">
        <ele>860.766468</ele>
        <time>2026-07-07T17:05:25.000Z</time>
      </trkpt>
      <trkpt lat="47.52473" lon="16.04659">
        <ele>860.859047</ele>
        <time>2026-07-07T17:05:26.000Z</time>
      </trkpt>
      <trkpt lat="47.52472" lon="16.04658">
        <ele>860.970889</ele>
        <time>2026-07-07T17:05:27.000Z</time>
      </trkpt>
      <trkpt lat="47.5247" lon="16.04658">
        <ele>861.075424</ele>
        <time>2026-07-07T17:05:28.000Z</time>
      </trkpt>
      <trkpt lat="47.52469" lon="16.04657">
        <ele>861.179959</ele>
        <time>2026-07-07T17:05:29.000Z</time>
      </trkpt>
      <trkpt lat="47.52467" lon="16.04657">
        <ele>861.277873</ele>
        <time>2026-07-07T17:05:30.000Z</time>
      </trkpt>
      <trkpt lat="47.52466" lon="16.04656">
        <ele>861.37192</ele>
        <time>2026-07-07T17:05:31.000Z</time>
      </trkpt>
      <trkpt lat="47.52465" lon="16.04655">
        <ele>861.480316</ele>
        <time>2026-07-07T17:05:32.000Z</time>
      </trkpt>
      <trkpt lat="47.52463" lon="16.04654">
        <ele>861.577884</ele>
        <time>2026-07-07T17:05:33.000Z</time>
      </trkpt>
      <trkpt lat="47.52462" lon="16.04654">
        <ele>861.667357</ele>
        <time>2026-07-07T17:05:34.000Z</time>
      </trkpt>
      <trkpt lat="47.52461" lon="16.04652">
        <ele>861.768444</ele>
        <time>2026-07-07T17:05:35.000Z</time>
      </trkpt>
      <trkpt lat="47.5246" lon="16.04651">
        <ele>861.8562</ele>
        <time>2026-07-07T17:05:36.000Z</time>
      </trkpt>
      <trkpt lat="47.52458" lon="16.0465">
        <ele>861.959966</ele>
        <time>2026-07-07T17:05:37.000Z</time>
      </trkpt>
      <trkpt lat="47.52457" lon="16.0465">
        <ele>862.052546</ele>
        <time>2026-07-07T17:05:38.000Z</time>
      </trkpt>
      <trkpt lat="47.52456" lon="16.04649">
        <ele>862.150113</ele>
        <time>2026-07-07T17:05:39.000Z</time>
      </trkpt>
      <trkpt lat="47.52455" lon="16.04648">
        <ele>862.246066</ele>
        <time>2026-07-07T17:05:40.000Z</time>
      </trkpt>
      <trkpt lat="47.52454" lon="16.04646">
        <ele>862.348865</ele>
        <time>2026-07-07T17:05:41.000Z</time>
      </trkpt>
      <trkpt lat="47.52453" lon="16.04644">
        <ele>862.438224</ele>
        <time>2026-07-07T17:05:42.000Z</time>
      </trkpt>
      <trkpt lat="47.52452" lon="16.04642">
        <ele>862.541053</ele>
        <time>2026-07-07T17:05:43.000Z</time>
      </trkpt>
      <trkpt lat="47.52452" lon="16.04641">
        <ele>862.617181</ele>
        <time>2026-07-07T17:05:44.000Z</time>
      </trkpt>
      <trkpt lat="47.52451" lon="16.0464">
        <ele>862.707651</ele>
        <time>2026-07-07T17:05:45.000Z</time>
      </trkpt>
      <trkpt lat="47.5245" lon="16.04638">
        <ele>862.81116</ele>
        <time>2026-07-07T17:05:46.000Z</time>
      </trkpt>
      <trkpt lat="47.52449" lon="16.04636">
        <ele>862.911253</ele>
        <time>2026-07-07T17:05:47.000Z</time>
      </trkpt>
      <trkpt lat="47.52448" lon="16.04635">
        <ele>863.010429</ele>
        <time>2026-07-07T17:05:48.000Z</time>
      </trkpt>
      <trkpt lat="47.52447" lon="16.04633">
        <ele>863.09556</ele>
        <time>2026-07-07T17:05:49.000Z</time>
      </trkpt>
      <trkpt lat="47.52447" lon="16.04631">
        <ele>863.18492</ele>
        <time>2026-07-07T17:05:50.000Z</time>
      </trkpt>
      <trkpt lat="47.52446" lon="16.04629">
        <ele>863.282833</ele>
        <time>2026-07-07T17:05:51.000Z</time>
      </trkpt>
      <trkpt lat="47.52446" lon="16.04627">
        <ele>863.393766</ele>
        <time>2026-07-07T17:05:52.000Z</time>
      </trkpt>
      <trkpt lat="47.52446" lon="16.04625">
        <ele>863.49681</ele>
        <time>2026-07-07T17:05:53.000Z</time>
      </trkpt>
      <trkpt lat="47.52445" lon="16.04622">
        <ele>863.605417</ele>
        <time>2026-07-07T17:05:54.000Z</time>
      </trkpt>
      <trkpt lat="47.52445" lon="16.04619">
        <ele>863.788872</ele>
        <time>2026-07-07T17:05:55.000Z</time>
      </trkpt>
      <trkpt lat="47.52446" lon="16.04617">
        <ele>863.954412</ele>
        <time>2026-07-07T17:05:56.000Z</time>
      </trkpt>
      <trkpt lat="47.52446" lon="16.04614">
        <ele>864.145116</ele>
        <time>2026-07-07T17:05:57.000Z</time>
      </trkpt>
      <trkpt lat="47.52446" lon="16.04611">
        <ele>864.336967</ele>
        <time>2026-07-07T17:05:58.000Z</time>
      </trkpt>
      <trkpt lat="47.52447" lon="16.04608">
        <ele>864.537758</ele>
        <time>2026-07-07T17:05:59.000Z</time>
      </trkpt>
      <trkpt lat="47.52448" lon="16.04605">
        <ele>864.743748</ele>
        <time>2026-07-07T17:06:00.000Z</time>
      </trkpt>
      <trkpt lat="47.52449" lon="16.04602">
        <ele>864.944125</ele>
        <time>2026-07-07T17:06:01.000Z</time>
      </trkpt>
      <trkpt lat="47.5245" lon="16.04599">
        <ele>865.143606</ele>
        <time>2026-07-07T17:06:02.000Z</time>
      </trkpt>
      <trkpt lat="47.52451" lon="16.04597">
        <ele>865.364005</ele>
        <time>2026-07-07T17:06:03.000Z</time>
      </trkpt>
      <trkpt lat="47.52453" lon="16.04594">
        <ele>865.585183</ele>
        <time>2026-07-07T17:06:04.000Z</time>
      </trkpt>
      <trkpt lat="47.52454" lon="16.04591">
        <ele>865.801513</ele>
        <time>2026-07-07T17:06:05.000Z</time>
      </trkpt>
      <trkpt lat="47.52456" lon="16.04589">
        <ele>866.013074</ele>
        <time>2026-07-07T17:06:06.000Z</time>
      </trkpt>
      <trkpt lat="47.52457" lon="16.04587">
        <ele>866.217612</ele>
        <time>2026-07-07T17:06:07.000Z</time>
      </trkpt>
      <trkpt lat="47.52459" lon="16.04584">
        <ele>866.429111</ele>
        <time>2026-07-07T17:06:08.000Z</time>
      </trkpt>
      <trkpt lat="47.52461" lon="16.04582">
        <ele>866.639924</ele>
        <time>2026-07-07T17:06:09.000Z</time>
      </trkpt>
      <trkpt lat="47.52463" lon="16.04581">
        <ele>866.851224</ele>
        <time>2026-07-07T17:06:10.000Z</time>
      </trkpt>
      <trkpt lat="47.52465" lon="16.04579">
        <ele>867.044715</ele>
        <time>2026-07-07T17:06:11.000Z</time>
      </trkpt>
      <trkpt lat="47.52466" lon="16.04577">
        <ele>867.240492</ele>
        <time>2026-07-07T17:06:12.000Z</time>
      </trkpt>
      <trkpt lat="47.52468" lon="16.04576">
        <ele>867.417893</ele>
        <time>2026-07-07T17:06:13.000Z</time>
      </trkpt>
      <trkpt lat="47.52469" lon="16.04575">
        <ele>867.56951</ele>
        <time>2026-07-07T17:06:14.000Z</time>
      </trkpt>
      <trkpt lat="47.5247" lon="16.04574">
        <ele>867.62603</ele>
        <time>2026-07-07T17:06:15.000Z</time>
      </trkpt>
      <trkpt lat="47.5247" lon="16.04574">
        <ele>867.62603</ele>
        <time>2026-07-07T17:06:16.000Z</time>
      </trkpt>
      <trkpt lat="47.52479" lon="16.04566">
        <ele>868.595539</ele>
        <time>2026-07-07T17:06:27.000Z</time>
      </trkpt>
      <trkpt lat="47.52479" lon="16.04565">
        <ele>868.702213</ele>
        <time>2026-07-07T17:06:28.000Z</time>
      </trkpt>
      <trkpt lat="47.5248" lon="16.04564">
        <ele>868.807619</ele>
        <time>2026-07-07T17:06:29.000Z</time>
      </trkpt>
      <trkpt lat="47.52481" lon="16.04563">
        <ele>868.892243</ele>
        <time>2026-07-07T17:06:30.000Z</time>
      </trkpt>
      <trkpt lat="47.52482" lon="16.04562">
        <ele>868.98786</ele>
        <time>2026-07-07T17:06:31.000Z</time>
      </trkpt>
      <trkpt lat="47.52482" lon="16.0456">
        <ele>869.093681</ele>
        <time>2026-07-07T17:06:32.000Z</time>
      </trkpt>
      <trkpt lat="47.52482" lon="16.04558">
        <ele>869.215326</ele>
        <time>2026-07-07T17:06:33.000Z</time>
      </trkpt>
      <trkpt lat="47.52482" lon="16.04557">
        <ele>869.316542</ele>
        <time>2026-07-07T17:06:34.000Z</time>
      </trkpt>
      <trkpt lat="47.52482" lon="16.04555">
        <ele>869.411893</ele>
        <time>2026-07-07T17:06:35.000Z</time>
      </trkpt>
      <trkpt lat="47.52482" lon="16.04554">
        <ele>869.507245</ele>
        <time>2026-07-07T17:06:36.000Z</time>
      </trkpt>
      <trkpt lat="47.52482" lon="16.04553">
        <ele>869.607559</ele>
        <time>2026-07-07T17:06:37.000Z</time>
      </trkpt>
      <trkpt lat="47.52481" lon="16.04552">
        <ele>869.720598</ele>
        <time>2026-07-07T17:06:38.000Z</time>
      </trkpt>
      <trkpt lat="47.5248" lon="16.04551">
        <ele>869.827075</ele>
        <time>2026-07-07T17:06:39.000Z</time>
      </trkpt>
      <trkpt lat="47.52479" lon="16.0455">
        <ele>869.925149</ele>
        <time>2026-07-07T17:06:40.000Z</time>
      </trkpt>
      <trkpt lat="47.52478" lon="16.04549">
        <ele>870.041931</ele>
        <time>2026-07-07T17:06:41.000Z</time>
      </trkpt>
      <trkpt lat="47.52476" lon="16.04549">
        <ele>870.157161</ele>
        <time>2026-07-07T17:06:42.000Z</time>
      </trkpt>
      <trkpt lat="47.52475" lon="16.04549">
        <ele>870.260403</ele>
        <time>2026-07-07T17:06:43.000Z</time>
      </trkpt>
      <trkpt lat="47.52474" lon="16.04549">
        <ele>870.354084</ele>
        <time>2026-07-07T17:06:44.000Z</time>
      </trkpt>
      <trkpt lat="47.52473" lon="16.04549">
        <ele>870.468092</ele>
        <time>2026-07-07T17:06:45.000Z</time>
      </trkpt>
      <trkpt lat="47.52472" lon="16.04549">
        <ele>870.591347</ele>
        <time>2026-07-07T17:06:46.000Z</time>
      </trkpt>
      <trkpt lat="47.52471" lon="16.0455">
        <ele>870.706577</ele>
        <time>2026-07-07T17:06:47.000Z</time>
      </trkpt>
      <trkpt lat="47.52469" lon="16.0455">
        <ele>870.828526</ele>
        <time>2026-07-07T17:06:48.000Z</time>
      </trkpt>
      <trkpt lat="47.52468" lon="16.0455">
        <ele>870.941653</ele>
        <time>2026-07-07T17:06:49.000Z</time>
      </trkpt>
      <trkpt lat="47.52467" lon="16.0455">
        <ele>871.05566</ele>
        <time>2026-07-07T17:06:50.000Z</time>
      </trkpt>
      <trkpt lat="47.52466" lon="16.04551">
        <ele>871.181486</ele>
        <time>2026-07-07T17:06:51.000Z</time>
      </trkpt>
      <trkpt lat="47.52464" lon="16.04551">
        <ele>871.305872</ele>
        <time>2026-07-07T17:06:52.000Z</time>
      </trkpt>
      <trkpt lat="47.52463" lon="16.04551">
        <ele>871.418467</ele>
        <time>2026-07-07T17:06:53.000Z</time>
      </trkpt>
      <trkpt lat="47.52462" lon="16.04551">
        <ele>871.540252</ele>
        <time>2026-07-07T17:06:54.000Z</time>
      </trkpt>
      <trkpt lat="47.52461" lon="16.04551">
        <ele>871.654259</ele>
        <time>2026-07-07T17:06:55.000Z</time>
      </trkpt>
      <trkpt lat="47.52459" lon="16.04551">
        <ele>871.767386</ele>
        <time>2026-07-07T17:06:56.000Z</time>
      </trkpt>
      <trkpt lat="47.52458" lon="16.04551">
        <ele>871.871209</ele>
        <time>2026-07-07T17:06:57.000Z</time>
      </trkpt>
      <trkpt lat="47.52457" lon="16.04551">
        <ele>871.984336</ele>
        <time>2026-07-07T17:06:58.000Z</time>
      </trkpt>
      <trkpt lat="47.52456" lon="16.04551">
        <ele>872.106285</ele>
        <time>2026-07-07T17:06:59.000Z</time>
      </trkpt>
      <trkpt lat="47.52455" lon="16.04552">
        <ele>872.221515</ele>
        <time>2026-07-07T17:07:00.000Z</time>
      </trkpt>
      <trkpt lat="47.52453" lon="16.04552">
        <ele>872.338297</ele>
        <time>2026-07-07T17:07:01.000Z</time>
      </trkpt>
      <trkpt lat="47.52452" lon="16.04553">
        <ele>872.461551</ele>
        <time>2026-07-07T17:07:02.000Z</time>
      </trkpt>
      <trkpt lat="47.52451" lon="16.04553">
        <ele>872.584806</ele>
        <time>2026-07-07T17:07:03.000Z</time>
      </trkpt>
      <trkpt lat="47.5245" lon="16.04553">
        <ele>872.697933</ele>
        <time>2026-07-07T17:07:04.000Z</time>
      </trkpt>
      <trkpt lat="47.52448" lon="16.04553">
        <ele>872.811941</ele>
        <time>2026-07-07T17:07:05.000Z</time>
      </trkpt>
      <trkpt lat="47.52447" lon="16.04554">
        <ele>872.915764</ele>
        <time>2026-07-07T17:07:06.000Z</time>
      </trkpt>
      <trkpt lat="47.52446" lon="16.04554">
        <ele>873.048283</ele>
        <time>2026-07-07T17:07:07.000Z</time>
      </trkpt>
      <trkpt lat="47.52445" lon="16.04554">
        <ele>873.154393</ele>
        <time>2026-07-07T17:07:08.000Z</time>
      </trkpt>
      <trkpt lat="47.52443" lon="16.04555">
        <ele>873.286912</ele>
        <time>2026-07-07T17:07:09.000Z</time>
      </trkpt>
      <trkpt lat="47.52442" lon="16.04555">
        <ele>873.391694</ele>
        <time>2026-07-07T17:07:10.000Z</time>
      </trkpt>
      <trkpt lat="47.52441" lon="16.04555">
        <ele>873.523456</ele>
        <time>2026-07-07T17:07:11.000Z</time>
      </trkpt>
      <trkpt lat="47.5244" lon="16.04555">
        <ele>873.628238</ele>
        <time>2026-07-07T17:07:12.000Z</time>
      </trkpt>
      <trkpt lat="47.52438" lon="16.04555">
        <ele>873.759391</ele>
        <time>2026-07-07T17:07:13.000Z</time>
      </trkpt>
      <trkpt lat="47.52437" lon="16.04556">
        <ele>873.881832</ele>
        <time>2026-07-07T17:07:14.000Z</time>
      </trkpt>
      <trkpt lat="47.52436" lon="16.04556">
        <ele>873.994958</ele>
        <time>2026-07-07T17:07:15.000Z</time>
      </trkpt>
      <trkpt lat="47.52435" lon="16.04556">
        <ele>874.09974</ele>
        <time>2026-07-07T17:07:16.000Z</time>
      </trkpt>
      <trkpt lat="47.52433" lon="16.04556">
        <ele>874.231502</ele>
        <time>2026-07-07T17:07:17.000Z</time>
      </trkpt>
      <trkpt lat="47.52432" lon="16.04556">
        <ele>874.334745</ele>
        <time>2026-07-07T17:07:18.000Z</time>
      </trkpt>
      <trkpt lat="47.52431" lon="16.04556">
        <ele>874.465898</ele>
        <time>2026-07-07T17:07:19.000Z</time>
      </trkpt>
      <trkpt lat="47.5243" lon="16.04557">
        <ele>874.569721</ele>
        <time>2026-07-07T17:07:20.000Z</time>
      </trkpt>
      <trkpt lat="47.52428" lon="16.04557">
        <ele>874.700874</ele>
        <time>2026-07-07T17:07:21.000Z</time>
      </trkpt>
      <trkpt lat="47.52427" lon="16.04557">
        <ele>874.805656</ele>
        <time>2026-07-07T17:07:22.000Z</time>
      </trkpt>
      <trkpt lat="47.52426" lon="16.04557">
        <ele>874.920886</ele>
        <time>2026-07-07T17:07:23.000Z</time>
      </trkpt>
      <trkpt lat="47.52425" lon="16.04558">
        <ele>875.034893</ele>
        <time>2026-07-07T17:07:24.000Z</time>
      </trkpt>
      <trkpt lat="47.52424" lon="16.04558">
        <ele>875.158148</ele>
        <time>2026-07-07T17:07:25.000Z</time>
      </trkpt>
      <trkpt lat="47.52422" lon="16.04558">
        <ele>875.271275</ele>
        <time>2026-07-07T17:07:26.000Z</time>
      </trkpt>
      <trkpt lat="47.52421" lon="16.04558">
        <ele>875.39453</ele>
        <time>2026-07-07T17:07:27.000Z</time>
      </trkpt>
      <trkpt lat="47.5242" lon="16.04559">
        <ele>875.507657</ele>
        <time>2026-07-07T17:07:28.000Z</time>
      </trkpt>
      <trkpt lat="47.52419" lon="16.04559">
        <ele>875.61148</ele>
        <time>2026-07-07T17:07:29.000Z</time>
      </trkpt>
      <trkpt lat="47.52418" lon="16.04559">
        <ele>875.724074</ele>
        <time>2026-07-07T17:07:30.000Z</time>
      </trkpt>
      <trkpt lat="47.52416" lon="16.04559">
        <ele>875.837201</ele>
        <time>2026-07-07T17:07:32.000Z</time>
      </trkpt>
      <trkpt lat="47.52415" lon="16.04559">
        <ele>875.941983</ele>
        <time>2026-07-07T17:07:33.000Z</time>
      </trkpt>
      <trkpt lat="47.52414" lon="16.0456">
        <ele>876.05511</ele>
        <time>2026-07-07T17:07:34.000Z</time>
      </trkpt>
      <trkpt lat="47.52413" lon="16.0456">
        <ele>876.180935</ele>
        <time>2026-07-07T17:07:35.000Z</time>
      </trkpt>
      <trkpt lat="47.52412" lon="16.0456">
        <ele>876.294943</ele>
        <time>2026-07-07T17:07:36.000Z</time>
      </trkpt>
      <trkpt lat="47.5241" lon="16.04561">
        <ele>876.410173</ele>
        <time>2026-07-07T17:07:37.000Z</time>
      </trkpt>
      <trkpt lat="47.52409" lon="16.04561">
        <ele>876.531958</ele>
        <time>2026-07-07T17:07:38.000Z</time>
      </trkpt>
      <trkpt lat="47.52408" lon="16.04561">
        <ele>876.645966</ele>
        <time>2026-07-07T17:07:39.000Z</time>
      </trkpt>
      <trkpt lat="47.52407" lon="16.04561">
        <ele>876.750748</ele>
        <time>2026-07-07T17:07:40.000Z</time>
      </trkpt>
      <trkpt lat="47.52405" lon="16.04562">
        <ele>876.884319</ele>
        <time>2026-07-07T17:07:41.000Z</time>
      </trkpt>
      <trkpt lat="47.52404" lon="16.04562">
        <ele>876.987562</ele>
        <time>2026-07-07T17:07:42.000Z</time>
      </trkpt>
      <trkpt lat="47.52403" lon="16.04562">
        <ele>877.099979</ele>
        <time>2026-07-07T17:07:43.000Z</time>
      </trkpt>
      <trkpt lat="47.52402" lon="16.04562">
        <ele>877.213106</ele>
        <time>2026-07-07T17:07:44.000Z</time>
      </trkpt>
      <trkpt lat="47.52401" lon="16.04562">
        <ele>877.316929</ele>
        <time>2026-07-07T17:07:45.000Z</time>
      </trkpt>
      <trkpt lat="47.524" lon="16.04562">
        <ele>877.429524</ele>
        <time>2026-07-07T17:07:46.000Z</time>
      </trkpt>
      <trkpt lat="47.52398" lon="16.04563">
        <ele>877.544753</ele>
        <time>2026-07-07T17:07:47.000Z</time>
      </trkpt>
      <trkpt lat="47.52397" lon="16.04563">
        <ele>877.649535</ele>
        <time>2026-07-07T17:07:48.000Z</time>
      </trkpt>
      <trkpt lat="47.52396" lon="16.04563">
        <ele>877.763543</ele>
        <time>2026-07-07T17:07:49.000Z</time>
      </trkpt>
      <trkpt lat="47.52395" lon="16.04564">
        <ele>877.87667</ele>
        <time>2026-07-07T17:07:50.000Z</time>
      </trkpt>
      <trkpt lat="47.52394" lon="16.04564">
        <ele>877.99911</ele>
        <time>2026-07-07T17:07:51.000Z</time>
      </trkpt>
      <trkpt lat="47.52392" lon="16.04564">
        <ele>878.111705</ele>
        <time>2026-07-07T17:07:52.000Z</time>
      </trkpt>
      <trkpt lat="47.52391" lon="16.04564">
        <ele>878.215528</ele>
        <time>2026-07-07T17:07:53.000Z</time>
      </trkpt>
      <trkpt lat="47.5239" lon="16.04564">
        <ele>878.328655</ele>
        <time>2026-07-07T17:07:54.000Z</time>
      </trkpt>
      <trkpt lat="47.52389" lon="16.04564">
        <ele>878.450604</ele>
        <time>2026-07-07T17:07:55.000Z</time>
      </trkpt>
      <trkpt lat="47.52387" lon="16.04564">
        <ele>878.58191</ele>
        <time>2026-07-07T17:07:56.000Z</time>
      </trkpt>
      <trkpt lat="47.52386" lon="16.04564">
        <ele>878.703695</ele>
        <time>2026-07-07T17:07:57.000Z</time>
      </trkpt>
      <trkpt lat="47.52385" lon="16.04564">
        <ele>878.82548</ele>
        <time>2026-07-07T17:07:58.000Z</time>
      </trkpt>
      <trkpt lat="47.52383" lon="16.04565">
        <ele>878.957999</ele>
        <time>2026-07-07T17:07:59.000Z</time>
      </trkpt>
      <trkpt lat="47.52382" lon="16.04565">
        <ele>879.061822</ele>
        <time>2026-07-07T17:08:00.000Z</time>
      </trkpt>
      <trkpt lat="47.52381" lon="16.04565">
        <ele>879.196735</ele>
        <time>2026-07-07T17:08:01.000Z</time>
      </trkpt>
      <trkpt lat="47.5238" lon="16.04565">
        <ele>879.318684</ele>
        <time>2026-07-07T17:08:02.000Z</time>
      </trkpt>
      <trkpt lat="47.52378" lon="16.04566">
        <ele>879.431811</ele>
        <time>2026-07-07T17:08:03.000Z</time>
      </trkpt>
      <trkpt lat="47.52377" lon="16.04566">
        <ele>879.553596</ele>
        <time>2026-07-07T17:08:04.000Z</time>
      </trkpt>
      <trkpt lat="47.52376" lon="16.04566">
        <ele>879.666723</ele>
        <time>2026-07-07T17:08:05.000Z</time>
      </trkpt>
      <trkpt lat="47.52375" lon="16.04566">
        <ele>879.769772</ele>
        <time>2026-07-07T17:08:06.000Z</time>
      </trkpt>
      <trkpt lat="47.52373" lon="16.04566">
        <ele>879.901078</ele>
        <time>2026-07-07T17:08:07.000Z</time>
      </trkpt>
      <trkpt lat="47.52372" lon="16.04566">
        <ele>880.023518</ele>
        <time>2026-07-07T17:08:08.000Z</time>
      </trkpt>
      <trkpt lat="47.52371" lon="16.04566">
        <ele>880.135935</ele>
        <time>2026-07-07T17:08:09.000Z</time>
      </trkpt>
      <trkpt lat="47.5237" lon="16.04566">
        <ele>880.238984</ele>
        <time>2026-07-07T17:08:10.000Z</time>
      </trkpt>
      <trkpt lat="47.52368" lon="16.04566">
        <ele>880.370746</ele>
        <time>2026-07-07T17:08:11.000Z</time>
      </trkpt>
      <trkpt lat="47.52367" lon="16.04566">
        <ele>880.468857</ele>
        <time>2026-07-07T17:08:12.000Z</time>
      </trkpt>
      <trkpt lat="47.52366" lon="16.04567">
        <ele>880.575134</ele>
        <time>2026-07-07T17:08:13.000Z</time>
      </trkpt>
      <trkpt lat="47.52365" lon="16.04567">
        <ele>880.658875</ele>
        <time>2026-07-07T17:08:14.000Z</time>
      </trkpt>
      <trkpt lat="47.52363" lon="16.04567">
        <ele>880.764783</ele>
        <time>2026-07-07T17:08:15.000Z</time>
      </trkpt>
      <trkpt lat="47.52362" lon="16.04567">
        <ele>880.8479</ele>
        <time>2026-07-07T17:08:16.000Z</time>
      </trkpt>
      <trkpt lat="47.52361" lon="16.04567">
        <ele>880.938573</ele>
        <time>2026-07-07T17:08:17.000Z</time>
      </trkpt>
      <trkpt lat="47.5236" lon="16.04567">
        <ele>881.037331</ele>
        <time>2026-07-07T17:08:18.000Z</time>
      </trkpt>
      <trkpt lat="47.52359" lon="16.04567">
        <ele>881.128576</ele>
        <time>2026-07-07T17:08:19.000Z</time>
      </trkpt>
      <trkpt lat="47.52357" lon="16.04568">
        <ele>881.227991</ele>
        <time>2026-07-07T17:08:20.000Z</time>
      </trkpt>
      <trkpt lat="47.52356" lon="16.04568">
        <ele>881.319236</ele>
        <time>2026-07-07T17:08:21.000Z</time>
      </trkpt>
      <trkpt lat="47.52355" lon="16.04568">
        <ele>881.418651</ele>
        <time>2026-07-07T17:08:22.000Z</time>
      </trkpt>
      <trkpt lat="47.52354" lon="16.04568">
        <ele>881.509896</ele>
        <time>2026-07-07T17:08:23.000Z</time>
      </trkpt>
      <trkpt lat="47.52352" lon="16.04569">
        <ele>881.609311</ele>
        <time>2026-07-07T17:08:24.000Z</time>
      </trkpt>
      <trkpt lat="47.52351" lon="16.04569">
        <ele>881.700557</ele>
        <time>2026-07-07T17:08:25.000Z</time>
      </trkpt>
      <trkpt lat="47.5235" lon="16.04569">
        <ele>881.799971</ele>
        <time>2026-07-07T17:08:26.000Z</time>
      </trkpt>
      <trkpt lat="47.52348" lon="16.04569">
        <ele>881.906248</ele>
        <time>2026-07-07T17:08:27.000Z</time>
      </trkpt>
      <trkpt lat="47.52347" lon="16.0457">
        <ele>882.005662</ele>
        <time>2026-07-07T17:08:28.000Z</time>
      </trkpt>
      <trkpt lat="47.52346" lon="16.0457">
        <ele>882.10442</ele>
        <time>2026-07-07T17:08:29.000Z</time>
      </trkpt>
      <trkpt lat="47.52345" lon="16.0457">
        <ele>882.196376</ele>
        <time>2026-07-07T17:08:30.000Z</time>
      </trkpt>
      <trkpt lat="47.52343" lon="16.0457">
        <ele>882.287622</ele>
        <time>2026-07-07T17:08:31.000Z</time>
      </trkpt>
      <trkpt lat="47.52342" lon="16.04571">
        <ele>882.387036</ele>
        <time>2026-07-07T17:08:32.000Z</time>
      </trkpt>
      <trkpt lat="47.52341" lon="16.04571">
        <ele>882.488524</ele>
        <time>2026-07-07T17:08:33.000Z</time>
      </trkpt>
      <trkpt lat="47.5234" lon="16.04572">
        <ele>882.585979</ele>
        <time>2026-07-07T17:08:34.000Z</time>
      </trkpt>
      <trkpt lat="47.52338" lon="16.04572">
        <ele>882.677935</ele>
        <time>2026-07-07T17:08:35.000Z</time>
      </trkpt>
      <trkpt lat="47.52337" lon="16.04573">
        <ele>882.764879</ele>
        <time>2026-07-07T17:08:36.000Z</time>
      </trkpt>
      <trkpt lat="47.52336" lon="16.04573">
        <ele>882.859073</ele>
        <time>2026-07-07T17:08:37.000Z</time>
      </trkpt>
      <trkpt lat="47.52335" lon="16.04573">
        <ele>882.958488</ele>
        <time>2026-07-07T17:08:38.000Z</time>
      </trkpt>
      <trkpt lat="47.52334" lon="16.04574">
        <ele>883.05143</ele>
        <time>2026-07-07T17:08:39.000Z</time>
      </trkpt>
      <trkpt lat="47.52332" lon="16.04574">
        <ele>883.150844</ele>
        <time>2026-07-07T17:08:40.000Z</time>
      </trkpt>
      <trkpt lat="47.52331" lon="16.04574">
        <ele>883.22794</ele>
        <time>2026-07-07T17:08:41.000Z</time>
      </trkpt>
      <trkpt lat="47.5233" lon="16.04575">
        <ele>883.311518</ele>
        <time>2026-07-07T17:08:42.000Z</time>
      </trkpt>
      <trkpt lat="47.52329" lon="16.04576">
        <ele>883.395095</ele>
        <time>2026-07-07T17:08:43.000Z</time>
      </trkpt>
      <trkpt lat="47.52328" lon="16.04576">
        <ele>883.472191</ele>
        <time>2026-07-07T17:08:44.000Z</time>
      </trkpt>
      <trkpt lat="47.52327" lon="16.04577">
        <ele>883.566385</ele>
        <time>2026-07-07T17:08:45.000Z</time>
      </trkpt>
      <trkpt lat="47.52326" lon="16.04577">
        <ele>883.658341</ele>
        <time>2026-07-07T17:08:46.000Z</time>
      </trkpt>
      <trkpt lat="47.52325" lon="16.04577">
        <ele>883.75657</ele>
        <time>2026-07-07T17:08:47.000Z</time>
      </trkpt>
      <trkpt lat="47.52323" lon="16.04577">
        <ele>883.854799</ele>
        <time>2026-07-07T17:08:48.000Z</time>
      </trkpt>
      <trkpt lat="47.52322" lon="16.04577">
        <ele>883.948993</ele>
        <time>2026-07-07T17:08:49.000Z</time>
      </trkpt>
      <trkpt lat="47.52321" lon="16.04578">
        <ele>884.050481</ele>
        <time>2026-07-07T17:08:50.000Z</time>
      </trkpt>
      <trkpt lat="47.5232" lon="16.04578">
        <ele>884.144675</ele>
        <time>2026-07-07T17:08:51.000Z</time>
      </trkpt>
      <trkpt lat="47.52318" lon="16.04579">
        <ele>884.245003</ele>
        <time>2026-07-07T17:08:52.000Z</time>
      </trkpt>
      <trkpt lat="47.52317" lon="16.04579">
        <ele>884.35189</ele>
        <time>2026-07-07T17:08:53.000Z</time>
      </trkpt>
      <trkpt lat="47.52316" lon="16.04579">
        <ele>884.436404</ele>
        <time>2026-07-07T17:08:54.000Z</time>
      </trkpt>
      <trkpt lat="47.52315" lon="16.0458">
        <ele>884.529346</ele>
        <time>2026-07-07T17:08:55.000Z</time>
      </trkpt>
      <trkpt lat="47.52313" lon="16.0458">
        <ele>884.628761</ele>
        <time>2026-07-07T17:08:56.000Z</time>
      </trkpt>
      <trkpt lat="47.52312" lon="16.0458">
        <ele>884.720717</ele>
        <time>2026-07-07T17:08:57.000Z</time>
      </trkpt>
      <trkpt lat="47.52311" lon="16.04581">
        <ele>884.819475</ele>
        <time>2026-07-07T17:08:58.000Z</time>
      </trkpt>
      <trkpt lat="47.52309" lon="16.04581">
        <ele>884.925751</ele>
        <time>2026-07-07T17:08:59.000Z</time>
      </trkpt>
      <trkpt lat="47.52308" lon="16.04581">
        <ele>885.008868</ele>
        <time>2026-07-07T17:09:00.000Z</time>
      </trkpt>
      <trkpt lat="47.52307" lon="16.04581">
        <ele>885.099541</ele>
        <time>2026-07-07T17:09:01.000Z</time>
      </trkpt>
      <trkpt lat="47.52306" lon="16.04581">
        <ele>885.190786</ele>
        <time>2026-07-07T17:09:02.000Z</time>
      </trkpt>
      <trkpt lat="47.52305" lon="16.0458">
        <ele>885.274528</ele>
        <time>2026-07-07T17:09:03.000Z</time>
      </trkpt>
      <trkpt lat="47.52304" lon="16.0458">
        <ele>885.365344</ele>
        <time>2026-07-07T17:09:04.000Z</time>
      </trkpt>
      <trkpt lat="47.52302" lon="16.0458">
        <ele>885.458286</ele>
        <time>2026-07-07T17:09:05.000Z</time>
      </trkpt>
      <trkpt lat="47.52301" lon="16.04579">
        <ele>885.538038</ele>
        <time>2026-07-07T17:09:06.000Z</time>
      </trkpt>
      <trkpt lat="47.523" lon="16.04579">
        <ele>885.613771</ele>
        <time>2026-07-07T17:09:07.000Z</time>
      </trkpt>
      <trkpt lat="47.523" lon="16.04579">
        <ele>885.677572</ele>
        <time>2026-07-07T17:09:08.000Z</time>
      </trkpt>
      <trkpt lat="47.52299" lon="16.04579">
        <ele>885.715695</ele>
        <time>2026-07-07T17:09:09.000Z</time>
      </trkpt>
      <trkpt lat="47.52299" lon="16.04579">
        <ele>885.720798</ele>
        <time>2026-07-07T17:09:10.000Z</time>
      </trkpt>
      <trkpt lat="47.52293" lon="16.04574">
        <ele>886.221388</ele>
        <time>2026-07-07T17:09:19.000Z</time>
      </trkpt>
      <trkpt lat="47.52292" lon="16.04572">
        <ele>886.355868</ele>
        <time>2026-07-07T17:09:20.000Z</time>
      </trkpt>
      <trkpt lat="47.5229" lon="16.04571">
        <ele>886.505395</ele>
        <time>2026-07-07T17:09:21.000Z</time>
      </trkpt>
      <trkpt lat="47.52289" lon="16.04569">
        <ele>886.629923</ele>
        <time>2026-07-07T17:09:22.000Z</time>
      </trkpt>
      <trkpt lat="47.52288" lon="16.04568">
        <ele>886.766687</ele>
        <time>2026-07-07T17:09:23.000Z</time>
      </trkpt>
      <trkpt lat="47.52286" lon="16.04566">
        <ele>886.882438</ele>
        <time>2026-07-07T17:09:24.000Z</time>
      </trkpt>
      <trkpt lat="47.52285" lon="16.04565">
        <ele>887.013009</ele>
        <time>2026-07-07T17:09:25.000Z</time>
      </trkpt>
      <trkpt lat="47.52283" lon="16.04563">
        <ele>887.152692</ele>
        <time>2026-07-07T17:09:26.000Z</time>
      </trkpt>
      <trkpt lat="47.52282" lon="16.04562">
        <ele>887.281516</ele>
        <time>2026-07-07T17:09:27.000Z</time>
      </trkpt>
      <trkpt lat="47.5228" lon="16.04561">
        <ele>887.412842</ele>
        <time>2026-07-07T17:09:28.000Z</time>
      </trkpt>
      <trkpt lat="47.52279" lon="16.04559">
        <ele>887.5343</ele>
        <time>2026-07-07T17:09:29.000Z</time>
      </trkpt>
      <trkpt lat="47.52278" lon="16.04558">
        <ele>887.660778</ele>
        <time>2026-07-07T17:09:30.000Z</time>
      </trkpt>
      <trkpt lat="47.52276" lon="16.04557">
        <ele>887.803079</ele>
        <time>2026-07-07T17:09:31.000Z</time>
      </trkpt>
      <trkpt lat="47.52275" lon="16.04556">
        <ele>887.927607</ele>
        <time>2026-07-07T17:09:32.000Z</time>
      </trkpt>
      <trkpt lat="47.52273" lon="16.04554">
        <ele>888.069253</ele>
        <time>2026-07-07T17:09:33.000Z</time>
      </trkpt>
      <trkpt lat="47.52272" lon="16.04552">
        <ele>888.206017</ele>
        <time>2026-07-07T17:09:34.000Z</time>
      </trkpt>
      <trkpt lat="47.5227" lon="16.04551">
        <ele>888.355545</ele>
        <time>2026-07-07T17:09:35.000Z</time>
      </trkpt>
      <trkpt lat="47.52269" lon="16.04549">
        <ele>888.48687</ele>
        <time>2026-07-07T17:09:36.000Z</time>
      </trkpt>
      <trkpt lat="47.52267" lon="16.04548">
        <ele>888.620846</ele>
        <time>2026-07-07T17:09:37.000Z</time>
      </trkpt>
      <trkpt lat="47.52266" lon="16.04546">
        <ele>888.745374</ele>
        <time>2026-07-07T17:09:38.000Z</time>
      </trkpt>
      <trkpt lat="47.52264" lon="16.04545">
        <ele>888.885058</ele>
        <time>2026-07-07T17:09:39.000Z</time>
      </trkpt>
      <trkpt lat="47.52263" lon="16.04543">
        <ele>889.021861</ele>
        <time>2026-07-07T17:09:40.000Z</time>
      </trkpt>
      <trkpt lat="47.52262" lon="16.04541">
        <ele>889.153478</ele>
        <time>2026-07-07T17:09:41.000Z</time>
      </trkpt>
      <trkpt lat="47.5226" lon="16.04539">
        <ele>889.290281</ele>
        <time>2026-07-07T17:09:42.000Z</time>
      </trkpt>
      <trkpt lat="47.52259" lon="16.04538">
        <ele>889.436165</ele>
        <time>2026-07-07T17:09:43.000Z</time>
      </trkpt>
      <trkpt lat="47.52258" lon="16.04536">
        <ele>889.570645</ele>
        <time>2026-07-07T17:09:44.000Z</time>
      </trkpt>
      <trkpt lat="47.52256" lon="16.04534">
        <ele>889.701693</ele>
        <time>2026-07-07T17:09:45.000Z</time>
      </trkpt>
      <trkpt lat="47.52255" lon="16.04533">
        <ele>889.838458</ele>
        <time>2026-07-07T17:09:46.000Z</time>
      </trkpt>
      <trkpt lat="47.52253" lon="16.04531">
        <ele>889.975222</ele>
        <time>2026-07-07T17:09:47.000Z</time>
      </trkpt>
      <trkpt lat="47.52252" lon="16.0453">
        <ele>890.111987</ele>
        <time>2026-07-07T17:09:48.000Z</time>
      </trkpt>
      <trkpt lat="47.5225" lon="16.04528">
        <ele>890.257871</ele>
        <time>2026-07-07T17:09:49.000Z</time>
      </trkpt>
      <trkpt lat="47.52249" lon="16.04526">
        <ele>890.394674</ele>
        <time>2026-07-07T17:09:50.000Z</time>
      </trkpt>
      <trkpt lat="47.52248" lon="16.04524">
        <ele>890.53632</ele>
        <time>2026-07-07T17:09:51.000Z</time>
      </trkpt>
      <trkpt lat="47.52246" lon="16.04522">
        <ele>890.677967</ele>
        <time>2026-07-07T17:09:52.000Z</time>
      </trkpt>
      <trkpt lat="47.52245" lon="16.0452">
        <ele>890.81477</ele>
        <time>2026-07-07T17:09:53.000Z</time>
      </trkpt>
      <trkpt lat="47.52243" lon="16.04519">
        <ele>890.954454</ele>
        <time>2026-07-07T17:09:54.000Z</time>
      </trkpt>
      <trkpt lat="47.52242" lon="16.04517">
        <ele>891.097181</ele>
        <time>2026-07-07T17:09:55.000Z</time>
      </trkpt>
      <trkpt lat="47.52241" lon="16.04515">
        <ele>891.228229</ele>
        <time>2026-07-07T17:09:56.000Z</time>
      </trkpt>
      <trkpt lat="47.52239" lon="16.04514">
        <ele>891.364994</ele>
        <time>2026-07-07T17:09:57.000Z</time>
      </trkpt>
      <trkpt lat="47.52238" lon="16.04512">
        <ele>891.501758</ele>
        <time>2026-07-07T17:09:58.000Z</time>
      </trkpt>
      <trkpt lat="47.52236" lon="16.04511">
        <ele>891.633084</ele>
        <time>2026-07-07T17:09:59.000Z</time>
      </trkpt>
      <trkpt lat="47.52234" lon="16.0451">
        <ele>891.777654</ele>
        <time>2026-07-07T17:10:00.000Z</time>
      </trkpt>
      <trkpt lat="47.52233" lon="16.04509">
        <ele>891.913174</ele>
        <time>2026-07-07T17:10:01.000Z</time>
      </trkpt>
      <trkpt lat="47.52231" lon="16.04507">
        <ele>892.057744</ele>
        <time>2026-07-07T17:10:02.000Z</time>
      </trkpt>
      <trkpt lat="47.52229" lon="16.04506">
        <ele>892.206901</ele>
        <time>2026-07-07T17:10:03.000Z</time>
      </trkpt>
      <trkpt lat="47.52228" lon="16.04505">
        <ele>892.351472</ele>
        <time>2026-07-07T17:10:04.000Z</time>
      </trkpt>
      <trkpt lat="47.52226" lon="16.04504">
        <ele>892.489689</ele>
        <time>2026-07-07T17:10:05.000Z</time>
      </trkpt>
      <trkpt lat="47.52224" lon="16.04503">
        <ele>892.633242</ele>
        <time>2026-07-07T17:10:06.000Z</time>
      </trkpt>
      <trkpt lat="47.52222" lon="16.04502">
        <ele>892.778509</ele>
        <time>2026-07-07T17:10:07.000Z</time>
      </trkpt>
      <trkpt lat="47.5222" lon="16.04501">
        <ele>892.927765</ele>
        <time>2026-07-07T17:10:08.000Z</time>
      </trkpt>
      <trkpt lat="47.52219" lon="16.045">
        <ele>893.068386</ele>
        <time>2026-07-07T17:10:09.000Z</time>
      </trkpt>
      <trkpt lat="47.52217" lon="16.045">
        <ele>893.21039</ele>
        <time>2026-07-07T17:10:10.000Z</time>
      </trkpt>
      <trkpt lat="47.52215" lon="16.04499">
        <ele>893.359646</ele>
        <time>2026-07-07T17:10:11.000Z</time>
      </trkpt>
      <trkpt lat="47.52213" lon="16.04498">
        <ele>893.5032</ele>
        <time>2026-07-07T17:10:12.000Z</time>
      </trkpt>
      <trkpt lat="47.52211" lon="16.04497">
        <ele>893.659738</ele>
        <time>2026-07-07T17:10:13.000Z</time>
      </trkpt>
      <trkpt lat="47.52209" lon="16.04496">
        <ele>893.801741</ele>
        <time>2026-07-07T17:10:14.000Z</time>
      </trkpt>
      <trkpt lat="47.52207" lon="16.04495">
        <ele>893.964797</ele>
        <time>2026-07-07T17:10:15.000Z</time>
      </trkpt>
      <trkpt lat="47.52205" lon="16.04494">
        <ele>894.099414</ele>
        <time>2026-07-07T17:10:16.000Z</time>
      </trkpt>
      <trkpt lat="47.52203" lon="16.04494">
        <ele>894.226057</ele>
        <time>2026-07-07T17:10:17.000Z</time>
      </trkpt>
      <trkpt lat="47.52202" lon="16.04493">
        <ele>894.341555</ele>
        <time>2026-07-07T17:10:18.000Z</time>
      </trkpt>
      <trkpt lat="47.522" lon="16.04492">
        <ele>894.457052</ele>
        <time>2026-07-07T17:10:19.000Z</time>
      </trkpt>
      <trkpt lat="47.52198" lon="16.04492">
        <ele>894.576815</ele>
        <time>2026-07-07T17:10:20.000Z</time>
      </trkpt>
      <trkpt lat="47.52196" lon="16.04491">
        <ele>894.703458</ele>
        <time>2026-07-07T17:10:21.000Z</time>
      </trkpt>
      <trkpt lat="47.52194" lon="16.0449">
        <ele>894.821364</ele>
        <time>2026-07-07T17:10:22.000Z</time>
      </trkpt>
      <trkpt lat="47.52192" lon="16.0449">
        <ele>894.935868</ele>
        <time>2026-07-07T17:10:23.000Z</time>
      </trkpt>
      <trkpt lat="47.5219" lon="16.04489">
        <ele>895.05967</ele>
        <time>2026-07-07T17:10:24.000Z</time>
      </trkpt>
      <trkpt lat="47.52189" lon="16.04488">
        <ele>895.176302</ele>
        <time>2026-07-07T17:10:25.000Z</time>
      </trkpt>
      <trkpt lat="47.52187" lon="16.04487">
        <ele>895.295615</ele>
        <time>2026-07-07T17:10:26.000Z</time>
      </trkpt>
      <trkpt lat="47.52185" lon="16.04486">
        <ele>895.423156</ele>
        <time>2026-07-07T17:10:27.000Z</time>
      </trkpt>
      <trkpt lat="47.52183" lon="16.04486">
        <ele>895.549799</ele>
        <time>2026-07-07T17:10:28.000Z</time>
      </trkpt>
      <trkpt lat="47.52181" lon="16.04485">
        <ele>895.673601</ele>
        <time>2026-07-07T17:10:29.000Z</time>
      </trkpt>
      <trkpt lat="47.52179" lon="16.04484">
        <ele>895.790233</ele>
        <time>2026-07-07T17:10:30.000Z</time>
      </trkpt>
      <trkpt lat="47.52177" lon="16.04484">
        <ele>895.903891</ele>
        <time>2026-07-07T17:10:31.000Z</time>
      </trkpt>
      <trkpt lat="47.52176" lon="16.04483">
        <ele>895.997828</ele>
        <time>2026-07-07T17:10:32.000Z</time>
      </trkpt>
      <trkpt lat="47.52175" lon="16.04483">
        <ele>896.077871</ele>
        <time>2026-07-07T17:10:33.000Z</time>
      </trkpt>
      <trkpt lat="47.52173" lon="16.04482">
        <ele>896.176816</ele>
        <time>2026-07-07T17:10:34.000Z</time>
      </trkpt>
      <trkpt lat="47.52171" lon="16.04481">
        <ele>896.288859</ele>
        <time>2026-07-07T17:10:35.000Z</time>
      </trkpt>
      <trkpt lat="47.5217" lon="16.0448">
        <ele>896.403364</ele>
        <time>2026-07-07T17:10:36.000Z</time>
      </trkpt>
      <trkpt lat="47.52168" lon="16.04479">
        <ele>896.53309</ele>
        <time>2026-07-07T17:10:37.000Z</time>
      </trkpt>
      <trkpt lat="47.52166" lon="16.04479">
        <ele>896.66166</ele>
        <time>2026-07-07T17:10:38.000Z</time>
      </trkpt>
      <trkpt lat="47.52164" lon="16.04478">
        <ele>896.79023</ele>
        <time>2026-07-07T17:10:39.000Z</time>
      </trkpt>
      <trkpt lat="47.52162" lon="16.04477">
        <ele>896.919957</ele>
        <time>2026-07-07T17:10:40.000Z</time>
      </trkpt>
      <trkpt lat="47.5216" lon="16.04476">
        <ele>897.036589</ele>
        <time>2026-07-07T17:10:41.000Z</time>
      </trkpt>
      <trkpt lat="47.52158" lon="16.04475">
        <ele>897.164131</ele>
        <time>2026-07-07T17:10:42.000Z</time>
      </trkpt>
      <trkpt lat="47.52156" lon="16.04475">
        <ele>897.290009</ele>
        <time>2026-07-07T17:10:43.000Z</time>
      </trkpt>
      <trkpt lat="47.52154" lon="16.04474">
        <ele>897.416652</ele>
        <time>2026-07-07T17:10:44.000Z</time>
      </trkpt>
      <trkpt lat="47.52152" lon="16.04473">
        <ele>897.540453</ele>
        <time>2026-07-07T17:10:45.000Z</time>
      </trkpt>
      <trkpt lat="47.5215" lon="16.04473">
        <ele>897.669024</ele>
        <time>2026-07-07T17:10:46.000Z</time>
      </trkpt>
      <trkpt lat="47.52148" lon="16.04472">
        <ele>897.785656</ele>
        <time>2026-07-07T17:10:47.000Z</time>
      </trkpt>
      <trkpt lat="47.52146" lon="16.04471">
        <ele>897.899314</ele>
        <time>2026-07-07T17:10:48.000Z</time>
      </trkpt>
      <trkpt lat="47.52145" lon="16.04471">
        <ele>898.006878</ele>
        <time>2026-07-07T17:10:49.000Z</time>
      </trkpt>
      <trkpt lat="47.52143" lon="16.0447">
        <ele>898.119839</ele>
        <time>2026-07-07T17:10:50.000Z</time>
      </trkpt>
      <trkpt lat="47.52141" lon="16.0447">
        <ele>898.228297</ele>
        <time>2026-07-07T17:10:51.000Z</time>
      </trkpt>
      <trkpt lat="47.52139" lon="16.04469">
        <ele>898.34182</ele>
        <time>2026-07-07T17:10:52.000Z</time>
      </trkpt>
      <trkpt lat="47.52138" lon="16.04468">
        <ele>898.442263</ele>
        <time>2026-07-07T17:10:53.000Z</time>
      </trkpt>
      <trkpt lat="47.52136" lon="16.04467">
        <ele>898.538691</ele>
        <time>2026-07-07T17:10:54.000Z</time>
      </trkpt>
      <trkpt lat="47.52135" lon="16.04467">
        <ele>898.622047</ele>
        <time>2026-07-07T17:10:55.000Z</time>
      </trkpt>
      <trkpt lat="47.52134" lon="16.04466">
        <ele>898.716635</ele>
        <time>2026-07-07T17:10:56.000Z</time>
      </trkpt>
      <trkpt lat="47.52132" lon="16.04466">
        <ele>898.812056</ele>
        <time>2026-07-07T17:10:57.000Z</time>
      </trkpt>
      <trkpt lat="47.52131" lon="16.04465">
        <ele>898.907476</ele>
        <time>2026-07-07T17:10:58.000Z</time>
      </trkpt>
      <trkpt lat="47.52129" lon="16.04465">
        <ele>899.015041</ele>
        <time>2026-07-07T17:10:59.000Z</time>
      </trkpt>
      <trkpt lat="47.52127" lon="16.04464">
        <ele>899.116525</ele>
        <time>2026-07-07T17:11:00.000Z</time>
      </trkpt>
      <trkpt lat="47.52126" lon="16.04464">
        <ele>899.21547</ele>
        <time>2026-07-07T17:11:01.000Z</time>
      </trkpt>
      <trkpt lat="47.52124" lon="16.04463">
        <ele>899.313075</ele>
        <time>2026-07-07T17:11:02.000Z</time>
      </trkpt>
      <trkpt lat="47.52123" lon="16.04462">
        <ele>899.421533</ele>
        <time>2026-07-07T17:11:03.000Z</time>
      </trkpt>
      <trkpt lat="47.52121" lon="16.04461">
        <ele>899.533577</ele>
        <time>2026-07-07T17:11:04.000Z</time>
      </trkpt>
      <trkpt lat="47.52119" lon="16.0446">
        <ele>899.641356</ele>
        <time>2026-07-07T17:11:05.000Z</time>
      </trkpt>
      <trkpt lat="47.52118" lon="16.0446">
        <ele>899.752059</ele>
        <time>2026-07-07T17:11:06.000Z</time>
      </trkpt>
      <trkpt lat="47.52116" lon="16.04459">
        <ele>899.85415</ele>
        <time>2026-07-07T17:11:07.000Z</time>
      </trkpt>
      <trkpt lat="47.52115" lon="16.04458">
        <ele>899.953095</ele>
        <time>2026-07-07T17:11:08.000Z</time>
      </trkpt>
      <trkpt lat="47.52113" lon="16.04457">
        <ele>900.065138</ele>
        <time>2026-07-07T17:11:09.000Z</time>
      </trkpt>
      <trkpt lat="47.52111" lon="16.04456">
        <ele>900.179643</ele>
        <time>2026-07-07T17:11:10.000Z</time>
      </trkpt>
      <trkpt lat="47.52109" lon="16.04455">
        <ele>900.291687</ele>
        <time>2026-07-07T17:11:11.000Z</time>
      </trkpt>
      <trkpt lat="47.52108" lon="16.04455">
        <ele>900.406191</ele>
        <time>2026-07-07T17:11:12.000Z</time>
      </trkpt>
      <trkpt lat="47.52106" lon="16.04454">
        <ele>900.519714</ele>
        <time>2026-07-07T17:11:13.000Z</time>
      </trkpt>
      <trkpt lat="47.52104" lon="16.04453">
        <ele>900.627494</ele>
        <time>2026-07-07T17:11:14.000Z</time>
      </trkpt>
      <trkpt lat="47.52102" lon="16.04452">
        <ele>900.751296</ele>
        <time>2026-07-07T17:11:15.000Z</time>
      </trkpt>
      <trkpt lat="47.52101" lon="16.04451">
        <ele>900.867928</ele>
        <time>2026-07-07T17:11:16.000Z</time>
      </trkpt>
      <trkpt lat="47.52099" lon="16.0445">
        <ele>900.984561</ele>
        <time>2026-07-07T17:11:17.000Z</time>
      </trkpt>
      <trkpt lat="47.52097" lon="16.0445">
        <ele>901.112102</ele>
        <time>2026-07-07T17:11:18.000Z</time>
      </trkpt>
      <trkpt lat="47.52095" lon="16.04449">
        <ele>901.225625</ele>
        <time>2026-07-07T17:11:19.000Z</time>
      </trkpt>
      <trkpt lat="47.52093" lon="16.04448">
        <ele>901.354196</ele>
        <time>2026-07-07T17:11:20.000Z</time>
      </trkpt>
      <trkpt lat="47.52091" lon="16.04447">
        <ele>901.481737</ele>
        <time>2026-07-07T17:11:21.000Z</time>
      </trkpt>
      <trkpt lat="47.52089" lon="16.04447">
        <ele>901.61987</ele>
        <time>2026-07-07T17:11:22.000Z</time>
      </trkpt>
      <trkpt lat="47.52087" lon="16.04446">
        <ele>901.763162</ele>
        <time>2026-07-07T17:11:23.000Z</time>
      </trkpt>
      <trkpt lat="47.52084" lon="16.04446">
        <ele>901.899953</ele>
        <time>2026-07-07T17:11:24.000Z</time>
      </trkpt>
      <trkpt lat="47.52082" lon="16.04446">
        <ele>902.030281</ele>
        <time>2026-07-07T17:11:25.000Z</time>
      </trkpt>
      <trkpt lat="47.5208" lon="16.04446">
        <ele>902.179462</ele>
        <time>2026-07-07T17:11:26.000Z</time>
      </trkpt>
      <trkpt lat="47.52078" lon="16.04446">
        <ele>902.322202</ele>
        <time>2026-07-07T17:11:27.000Z</time>
      </trkpt>
      <trkpt lat="47.52075" lon="16.04447">
        <ele>902.459314</ele>
        <time>2026-07-07T17:11:28.000Z</time>
      </trkpt>
      <trkpt lat="47.52073" lon="16.04447">
        <ele>902.602053</ele>
        <time>2026-07-07T17:11:29.000Z</time>
      </trkpt>
      <trkpt lat="47.52071" lon="16.04447">
        <ele>902.738587</ele>
        <time>2026-07-07T17:11:30.000Z</time>
      </trkpt>
      <trkpt lat="47.52069" lon="16.04446">
        <ele>902.881573</ele>
        <time>2026-07-07T17:11:31.000Z</time>
      </trkpt>
      <trkpt lat="47.52066" lon="16.04446">
        <ele>903.036781</ele>
        <time>2026-07-07T17:11:32.000Z</time>
      </trkpt>
      <trkpt lat="47.52064" lon="16.04446">
        <ele>903.192836</ele>
        <time>2026-07-07T17:11:33.000Z</time>
      </trkpt>
      <trkpt lat="47.52061" lon="16.04446">
        <ele>903.348497</ele>
        <time>2026-07-07T17:11:34.000Z</time>
      </trkpt>
      <trkpt lat="47.52058" lon="16.04445">
        <ele>903.516271</ele>
        <time>2026-07-07T17:11:35.000Z</time>
      </trkpt>
      <trkpt lat="47.52056" lon="16.04445">
        <ele>903.671931</ele>
        <time>2026-07-07T17:11:36.000Z</time>
      </trkpt>
      <trkpt lat="47.52053" lon="16.04445">
        <ele>903.827309</ele>
        <time>2026-07-07T17:11:37.000Z</time>
      </trkpt>
      <trkpt lat="47.52051" lon="16.04445">
        <ele>903.982518</ele>
        <time>2026-07-07T17:11:38.000Z</time>
      </trkpt>
      <trkpt lat="47.52048" lon="16.04445">
        <ele>904.14393</ele>
        <time>2026-07-07T17:11:39.000Z</time>
      </trkpt>
      <trkpt lat="47.52046" lon="16.04445">
        <ele>904.299985</ele>
        <time>2026-07-07T17:11:40.000Z</time>
      </trkpt>
      <trkpt lat="47.52043" lon="16.04446">
        <ele>904.456546</ele>
        <time>2026-07-07T17:11:41.000Z</time>
      </trkpt>
      <trkpt lat="47.52041" lon="16.04447">
        <ele>904.609219</ele>
        <time>2026-07-07T17:11:42.000Z</time>
      </trkpt>
      <trkpt lat="47.52039" lon="16.04448">
        <ele>904.76056</ele>
        <time>2026-07-07T17:11:43.000Z</time>
      </trkpt>
      <trkpt lat="47.52036" lon="16.04449">
        <ele>904.910872</ele>
        <time>2026-07-07T17:11:44.000Z</time>
      </trkpt>
      <trkpt lat="47.52034" lon="16.04451">
        <ele>905.068579</ele>
        <time>2026-07-07T17:11:45.000Z</time>
      </trkpt>
      <trkpt lat="47.52032" lon="16.04453">
        <ele>905.224834</ele>
        <time>2026-07-07T17:11:46.000Z</time>
      </trkpt>
      <trkpt lat="47.5203" lon="16.04454">
        <ele>905.384993</ele>
        <time>2026-07-07T17:11:47.000Z</time>
      </trkpt>
      <trkpt lat="47.52028" lon="16.04456">
        <ele>905.5534</ele>
        <time>2026-07-07T17:11:48.000Z</time>
      </trkpt>
      <trkpt lat="47.52026" lon="16.04458">
        <ele>905.707752</ele>
        <time>2026-07-07T17:11:49.000Z</time>
      </trkpt>
      <trkpt lat="47.52024" lon="16.0446">
        <ele>905.867911</ele>
        <time>2026-07-07T17:11:50.000Z</time>
      </trkpt>
      <trkpt lat="47.52022" lon="16.04462">
        <ele>906.021908</ele>
        <time>2026-07-07T17:11:51.000Z</time>
      </trkpt>
      <trkpt lat="47.5202" lon="16.04464">
        <ele>906.181623</ele>
        <time>2026-07-07T17:11:52.000Z</time>
      </trkpt>
      <trkpt lat="47.52019" lon="16.04467">
        <ele>906.336169</ele>
        <time>2026-07-07T17:11:53.000Z</time>
      </trkpt>
      <trkpt lat="47.52017" lon="16.04469">
        <ele>906.493748</ele>
        <time>2026-07-07T17:11:54.000Z</time>
      </trkpt>
      <trkpt lat="47.52016" lon="16.04471">
        <ele>906.64487</ele>
        <time>2026-07-07T17:11:55.000Z</time>
      </trkpt>
      <trkpt lat="47.52014" lon="16.04473">
        <ele>906.786131</ele>
        <time>2026-07-07T17:11:56.000Z</time>
      </trkpt>
      <trkpt lat="47.52013" lon="16.04476">
        <ele>906.937253</ele>
        <time>2026-07-07T17:11:57.000Z</time>
      </trkpt>
      <trkpt lat="47.52011" lon="16.04478">
        <ele>907.078997</ele>
        <time>2026-07-07T17:11:58.000Z</time>
      </trkpt>
      <trkpt lat="47.5201" lon="16.04481">
        <ele>907.226761</ele>
        <time>2026-07-07T17:11:59.000Z</time>
      </trkpt>
      <trkpt lat="47.52009" lon="16.04483">
        <ele>907.355045</ele>
        <time>2026-07-07T17:12:00.000Z</time>
      </trkpt>
      <trkpt lat="47.52007" lon="16.04485">
        <ele>907.49952</ele>
        <time>2026-07-07T17:12:01.000Z</time>
      </trkpt>
      <trkpt lat="47.52006" lon="16.04487">
        <ele>907.647284</ele>
        <time>2026-07-07T17:12:02.000Z</time>
      </trkpt>
      <trkpt lat="47.52004" lon="16.04489">
        <ele>907.795864</ele>
        <time>2026-07-07T17:12:03.000Z</time>
      </trkpt>
      <trkpt lat="47.52002" lon="16.04491">
        <ele>907.948461</ele>
        <time>2026-07-07T17:12:04.000Z</time>
      </trkpt>
      <trkpt lat="47.52001" lon="16.04494">
        <ele>908.109194</ele>
        <time>2026-07-07T17:12:05.000Z</time>
      </trkpt>
      <trkpt lat="47.51999" lon="16.04496">
        <ele>908.269353</ele>
        <time>2026-07-07T17:12:06.000Z</time>
      </trkpt>
      <trkpt lat="47.51997" lon="16.04498">
        <ele>908.42335</ele>
        <time>2026-07-07T17:12:07.000Z</time>
      </trkpt>
      <trkpt lat="47.51995" lon="16.045">
        <ele>908.588498</ele>
        <time>2026-07-07T17:12:08.000Z</time>
      </trkpt>
      <trkpt lat="47.51993" lon="16.04502">
        <ele>908.748022</ele>
        <time>2026-07-07T17:12:09.000Z</time>
      </trkpt>
      <trkpt lat="47.51991" lon="16.04503">
        <ele>908.914067</ele>
        <time>2026-07-07T17:12:10.000Z</time>
      </trkpt>
      <trkpt lat="47.51989" lon="16.04505">
        <ele>909.083881</ele>
        <time>2026-07-07T17:12:11.000Z</time>
      </trkpt>
      <trkpt lat="47.51986" lon="16.04507">
        <ele>909.249622</ele>
        <time>2026-07-07T17:12:12.000Z</time>
      </trkpt>
      <trkpt lat="47.51984" lon="16.04508">
        <ele>909.41809</ele>
        <time>2026-07-07T17:12:13.000Z</time>
      </trkpt>
      <trkpt lat="47.51982" lon="16.04509">
        <ele>909.582126</ele>
        <time>2026-07-07T17:12:14.000Z</time>
      </trkpt>
      <trkpt lat="47.51979" lon="16.0451">
        <ele>909.758187</ele>
        <time>2026-07-07T17:12:15.000Z</time>
      </trkpt>
      <trkpt lat="47.51977" lon="16.0451">
        <ele>909.924039</ele>
        <time>2026-07-07T17:12:16.000Z</time>
      </trkpt>
      <trkpt lat="47.51974" lon="16.04511">
        <ele>910.095677</ele>
        <time>2026-07-07T17:12:17.000Z</time>
      </trkpt>
      <trkpt lat="47.51972" lon="16.04511">
        <ele>910.253068</ele>
        <time>2026-07-07T17:12:18.000Z</time>
      </trkpt>
      <trkpt lat="47.5197" lon="16.0451">
        <ele>910.410731</ele>
        <time>2026-07-07T17:12:19.000Z</time>
      </trkpt>
      <trkpt lat="47.51967" lon="16.0451">
        <ele>910.581871</ele>
        <time>2026-07-07T17:12:20.000Z</time>
      </trkpt>
      <trkpt lat="47.51965" lon="16.0451">
        <ele>910.753198</ele>
        <time>2026-07-07T17:12:21.000Z</time>
      </trkpt>
      <trkpt lat="47.51963" lon="16.0451">
        <ele>910.905509</ele>
        <time>2026-07-07T17:12:22.000Z</time>
      </trkpt>
      <trkpt lat="47.5196" lon="16.04509">
        <ele>911.064587</ele>
        <time>2026-07-07T17:12:23.000Z</time>
      </trkpt>
      <trkpt lat="47.51958" lon="16.04508">
        <ele>911.218572</ele>
        <time>2026-07-07T17:12:24.000Z</time>
      </trkpt>
      <trkpt lat="47.51956" lon="16.04507">
        <ele>911.36457</ele>
        <time>2026-07-07T17:12:25.000Z</time>
      </trkpt>
      <trkpt lat="47.51954" lon="16.04506">
        <ele>911.528606</ele>
        <time>2026-07-07T17:12:26.000Z</time>
      </trkpt>
      <trkpt lat="47.51952" lon="16.04505">
        <ele>911.671649</ele>
        <time>2026-07-07T17:12:27.000Z</time>
      </trkpt>
      <trkpt lat="47.5195" lon="16.04504">
        <ele>911.82913</ele>
        <time>2026-07-07T17:12:28.000Z</time>
      </trkpt>
      <trkpt lat="47.51948" lon="16.04503">
        <ele>911.973584</ele>
        <time>2026-07-07T17:12:29.000Z</time>
      </trkpt>
      <trkpt lat="47.51946" lon="16.04502">
        <ele>912.119583</ele>
        <time>2026-07-07T17:12:30.000Z</time>
      </trkpt>
      <trkpt lat="47.51944" lon="16.04502">
        <ele>912.260216</ele>
        <time>2026-07-07T17:12:31.000Z</time>
      </trkpt>
      <trkpt lat="47.51941" lon="16.04501">
        <ele>912.414201</ele>
        <time>2026-07-07T17:12:32.000Z</time>
      </trkpt>
      <trkpt lat="47.5194" lon="16.045">
        <ele>912.551247</ele>
        <time>2026-07-07T17:12:33.000Z</time>
      </trkpt>
      <trkpt lat="47.51938" lon="16.04498">
        <ele>912.697345</ele>
        <time>2026-07-07T17:12:34.000Z</time>
      </trkpt>
      <trkpt lat="47.51936" lon="16.04496">
        <ele>912.846919</ele>
        <time>2026-07-07T17:12:35.000Z</time>
      </trkpt>
      <trkpt lat="47.51934" lon="16.04495">
        <ele>912.982004</ele>
        <time>2026-07-07T17:12:36.000Z</time>
      </trkpt>
      <trkpt lat="47.51932" lon="16.04494">
        <ele>913.112934</ele>
        <time>2026-07-07T17:12:37.000Z</time>
      </trkpt>
      <trkpt lat="47.51931" lon="16.04492">
        <ele>913.252068</ele>
        <time>2026-07-07T17:12:38.000Z</time>
      </trkpt>
      <trkpt lat="47.51929" lon="16.04492">
        <ele>913.380673</ele>
        <time>2026-07-07T17:12:39.000Z</time>
      </trkpt>
      <trkpt lat="47.51927" lon="16.0449">
        <ele>913.522025</ele>
        <time>2026-07-07T17:12:40.000Z</time>
      </trkpt>
      <trkpt lat="47.51925" lon="16.04489">
        <ele>913.642741</ele>
        <time>2026-07-07T17:12:41.000Z</time>
      </trkpt>
      <trkpt lat="47.51924" lon="16.04488">
        <ele>913.767917</ele>
        <time>2026-07-07T17:12:42.000Z</time>
      </trkpt>
      <trkpt lat="47.51922" lon="16.04487">
        <ele>913.872747</ele>
        <time>2026-07-07T17:12:43.000Z</time>
      </trkpt>
      <trkpt lat="47.51921" lon="16.04486">
        <ele>913.942314</ele>
        <time>2026-07-07T17:12:44.000Z</time>
      </trkpt>
      <trkpt lat="47.51921" lon="16.04486">
        <ele>913.949158</ele>
        <time>2026-07-07T17:12:45.000Z</time>
      </trkpt>
      <trkpt lat="47.51921" lon="16.04486">
        <ele>913.957415</ele>
        <time>2026-07-07T17:12:46.000Z</time>
      </trkpt>
      <trkpt lat="47.5192" lon="16.04485">
        <ele>914.050912</ele>
        <time>2026-07-07T17:12:49.000Z</time>
      </trkpt>
      <trkpt lat="47.5192" lon="16.04485">
        <ele>914.086734</ele>
        <time>2026-07-07T17:12:50.000Z</time>
      </trkpt>
      <trkpt lat="47.5192" lon="16.04484">
        <ele>914.111506</ele>
        <time>2026-07-07T17:12:51.000Z</time>
      </trkpt>
      <trkpt lat="47.51919" lon="16.04484">
        <ele>914.128021</ele>
        <time>2026-07-07T17:12:52.000Z</time>
      </trkpt>
      <trkpt lat="47.51917" lon="16.04482">
        <ele>914.324428</ele>
        <time>2026-07-07T17:13:14.000Z</time>
      </trkpt>
      <trkpt lat="47.51916" lon="16.04482">
        <ele>914.393995</ele>
        <time>2026-07-07T17:13:15.000Z</time>
      </trkpt>
      <trkpt lat="47.51915" lon="16.04481">
        <ele>914.466222</ele>
        <time>2026-07-07T17:13:16.000Z</time>
      </trkpt>
      <trkpt lat="47.51914" lon="16.04481">
        <ele>914.522695</ele>
        <time>2026-07-07T17:13:17.000Z</time>
      </trkpt>
      <trkpt lat="47.51913" lon="16.0448">
        <ele>914.586284</ele>
        <time>2026-07-07T17:13:18.000Z</time>
      </trkpt>
      <trkpt lat="47.51913" lon="16.04479">
        <ele>914.646794</ele>
        <time>2026-07-07T17:13:19.000Z</time>
      </trkpt>
      <trkpt lat="47.51912" lon="16.04479">
        <ele>914.704596</ele>
        <time>2026-07-07T17:13:20.000Z</time>
      </trkpt>
      <trkpt lat="47.51911" lon="16.04478">
        <ele>914.751711</ele>
        <time>2026-07-07T17:13:21.000Z</time>
      </trkpt>
      <trkpt lat="47.5191" lon="16.04478">
        <ele>914.817491</ele>
        <time>2026-07-07T17:13:22.000Z</time>
      </trkpt>
      <trkpt lat="47.5191" lon="16.04477">
        <ele>914.860827</ele>
        <time>2026-07-07T17:13:23.000Z</time>
      </trkpt>
      <trkpt lat="47.51909" lon="16.04477">
        <ele>914.925129</ele>
        <time>2026-07-07T17:13:24.000Z</time>
      </trkpt>
      <trkpt lat="47.51908" lon="16.04476">
        <ele>914.972244</ele>
        <time>2026-07-07T17:13:25.000Z</time>
      </trkpt>
      <trkpt lat="47.51908" lon="16.04476">
        <ele>915.027592</ele>
        <time>2026-07-07T17:13:26.000Z</time>
      </trkpt>
      <trkpt lat="47.51907" lon="16.04475">
        <ele>915.085394</ele>
        <time>2026-07-07T17:13:27.000Z</time>
      </trkpt>
      <trkpt lat="47.51907" lon="16.04475">
        <ele>915.107908</ele>
        <time>2026-07-07T17:13:28.000Z</time>
      </trkpt>
      <trkpt lat="47.51906" lon="16.04475">
        <ele>915.121595</ele>
        <time>2026-07-07T17:13:29.000Z</time>
      </trkpt>
      <trkpt lat="47.51904" lon="16.04473">
        <ele>915.281146</ele>
        <time>2026-07-07T17:13:33.000Z</time>
      </trkpt>
      <trkpt lat="47.51903" lon="16.04473">
        <ele>915.348688</ele>
        <time>2026-07-07T17:13:34.000Z</time>
      </trkpt>
      <trkpt lat="47.51903" lon="16.04472">
        <ele>915.412277</ele>
        <time>2026-07-07T17:13:35.000Z</time>
      </trkpt>
      <trkpt lat="47.51902" lon="16.04471">
        <ele>915.475866</ele>
        <time>2026-07-07T17:13:36.000Z</time>
      </trkpt>
      <trkpt lat="47.51901" lon="16.04471">
        <ele>915.547699</ele>
        <time>2026-07-07T17:13:37.000Z</time>
      </trkpt>
      <trkpt lat="47.519" lon="16.0447">
        <ele>915.613759</ele>
        <time>2026-07-07T17:13:38.000Z</time>
      </trkpt>
      <trkpt lat="47.51899" lon="16.04469">
        <ele>915.677347</ele>
        <time>2026-07-07T17:13:39.000Z</time>
      </trkpt>
      <trkpt lat="47.51898" lon="16.04469">
        <ele>915.743127</ele>
        <time>2026-07-07T17:13:40.000Z</time>
      </trkpt>
      <trkpt lat="47.51898" lon="16.04468">
        <ele>915.806716</ele>
        <time>2026-07-07T17:13:41.000Z</time>
      </trkpt>
      <trkpt lat="47.51897" lon="16.04467">
        <ele>915.880552</ele>
        <time>2026-07-07T17:13:42.000Z</time>
      </trkpt>
      <trkpt lat="47.51896" lon="16.04467">
        <ele>915.956244</ele>
        <time>2026-07-07T17:13:43.000Z</time>
      </trkpt>
      <trkpt lat="47.51895" lon="16.04466">
        <ele>916.019833</ele>
        <time>2026-07-07T17:13:44.000Z</time>
      </trkpt>
      <trkpt lat="47.51894" lon="16.04465">
        <ele>916.087375</ele>
        <time>2026-07-07T17:13:45.000Z</time>
      </trkpt>
      <trkpt lat="47.51893" lon="16.04465">
        <ele>916.163068</ele>
        <time>2026-07-07T17:13:46.000Z</time>
      </trkpt>
      <trkpt lat="47.51892" lon="16.04464">
        <ele>916.226656</ele>
        <time>2026-07-07T17:13:47.000Z</time>
      </trkpt>
      <trkpt lat="47.51891" lon="16.04463">
        <ele>916.300492</ele>
        <time>2026-07-07T17:13:48.000Z</time>
      </trkpt>
      <trkpt lat="47.5189" lon="16.04462">
        <ele>916.380572</ele>
        <time>2026-07-07T17:13:49.000Z</time>
      </trkpt>
      <trkpt lat="47.51889" lon="16.04462">
        <ele>916.446632</ele>
        <time>2026-07-07T17:13:50.000Z</time>
      </trkpt>
      <trkpt lat="47.51888" lon="16.04461">
        <ele>916.522324</ele>
        <time>2026-07-07T17:13:51.000Z</time>
      </trkpt>
      <trkpt lat="47.51887" lon="16.0446">
        <ele>916.589866</ele>
        <time>2026-07-07T17:13:52.000Z</time>
      </trkpt>
      <trkpt lat="47.51886" lon="16.04459">
        <ele>916.669946</ele>
        <time>2026-07-07T17:13:53.000Z</time>
      </trkpt>
      <trkpt lat="47.51886" lon="16.04459">
        <ele>916.736006</ele>
        <time>2026-07-07T17:13:54.000Z</time>
      </trkpt>
      <trkpt lat="47.51885" lon="16.04458">
        <ele>916.799595</ele>
        <time>2026-07-07T17:13:55.000Z</time>
      </trkpt>
      <trkpt lat="47.51884" lon="16.04457">
        <ele>916.867137</ele>
        <time>2026-07-07T17:13:56.000Z</time>
      </trkpt>
      <trkpt lat="47.51883" lon="16.04457">
        <ele>916.930726</ele>
        <time>2026-07-07T17:13:57.000Z</time>
      </trkpt>
      <trkpt lat="47.51882" lon="16.04456">
        <ele>917.008506</ele>
        <time>2026-07-07T17:13:58.000Z</time>
      </trkpt>
      <trkpt lat="47.51881" lon="16.04455">
        <ele>917.072095</ele>
        <time>2026-07-07T17:13:59.000Z</time>
      </trkpt>
      <trkpt lat="47.5188" lon="16.04454">
        <ele>917.15467</ele>
        <time>2026-07-07T17:14:00.000Z</time>
      </trkpt>
      <trkpt lat="47.51879" lon="16.04453">
        <ele>917.224237</ele>
        <time>2026-07-07T17:14:01.000Z</time>
      </trkpt>
      <trkpt lat="47.51879" lon="16.04453">
        <ele>917.285604</ele>
        <time>2026-07-07T17:14:02.000Z</time>
      </trkpt>
      <trkpt lat="47.51878" lon="16.04452">
        <ele>917.349193</ele>
        <time>2026-07-07T17:14:03.000Z</time>
      </trkpt>
      <trkpt lat="47.51877" lon="16.04451">
        <ele>917.421026</ele>
        <time>2026-07-07T17:14:04.000Z</time>
      </trkpt>
      <trkpt lat="47.51876" lon="16.0445">
        <ele>917.489779</ele>
        <time>2026-07-07T17:14:05.000Z</time>
      </trkpt>
      <trkpt lat="47.51875" lon="16.0445">
        <ele>917.580157</ele>
        <time>2026-07-07T17:14:06.000Z</time>
      </trkpt>
      <trkpt lat="47.51874" lon="16.04449">
        <ele>917.685823</ele>
        <time>2026-07-07T17:14:07.000Z</time>
      </trkpt>
      <trkpt lat="47.51874" lon="16.04448">
        <ele>917.779034</ele>
        <time>2026-07-07T17:14:08.000Z</time>
      </trkpt>
      <trkpt lat="47.51873" lon="16.04447">
        <ele>917.883464</ele>
        <time>2026-07-07T17:14:09.000Z</time>
      </trkpt>
      <trkpt lat="47.51872" lon="16.04447">
        <ele>917.995614</ele>
        <time>2026-07-07T17:14:10.000Z</time>
      </trkpt>
      <trkpt lat="47.51871" lon="16.04446">
        <ele>918.101281</ele>
        <time>2026-07-07T17:14:11.000Z</time>
      </trkpt>
      <trkpt lat="47.5187" lon="16.04445">
        <ele>918.197867</ele>
        <time>2026-07-07T17:14:12.000Z</time>
      </trkpt>
      <trkpt lat="47.51869" lon="16.04445">
        <ele>918.288123</ele>
        <time>2026-07-07T17:14:13.000Z</time>
      </trkpt>
      <trkpt lat="47.51868" lon="16.04444">
        <ele>918.397231</ele>
        <time>2026-07-07T17:14:14.000Z</time>
      </trkpt>
      <trkpt lat="47.51868" lon="16.04443">
        <ele>918.49757</ele>
        <time>2026-07-07T17:14:15.000Z</time>
      </trkpt>
      <trkpt lat="47.51867" lon="16.04443">
        <ele>918.594156</ele>
        <time>2026-07-07T17:14:16.000Z</time>
      </trkpt>
      <trkpt lat="47.51866" lon="16.04442">
        <ele>918.699823</ele>
        <time>2026-07-07T17:14:17.000Z</time>
      </trkpt>
      <trkpt lat="47.51865" lon="16.04441">
        <ele>918.817964</ele>
        <time>2026-07-07T17:14:18.000Z</time>
      </trkpt>
      <trkpt lat="47.51864" lon="16.0444">
        <ele>918.91455</ele>
        <time>2026-07-07T17:14:19.000Z</time>
      </trkpt>
      <trkpt lat="47.51863" lon="16.0444">
        <ele>918.99862</ele>
        <time>2026-07-07T17:14:20.000Z</time>
      </trkpt>
      <trkpt lat="47.51863" lon="16.04439">
        <ele>919.10305</ele>
        <time>2026-07-07T17:14:21.000Z</time>
      </trkpt>
      <trkpt lat="47.51862" lon="16.04438">
        <ele>919.193306</ele>
        <time>2026-07-07T17:14:22.000Z</time>
      </trkpt>
      <trkpt lat="47.51861" lon="16.04438">
        <ele>919.293221</ele>
        <time>2026-07-07T17:14:23.000Z</time>
      </trkpt>
      <trkpt lat="47.5186" lon="16.04437">
        <ele>919.368475</ele>
        <time>2026-07-07T17:14:24.000Z</time>
      </trkpt>
      <trkpt lat="47.5186" lon="16.04436">
        <ele>919.464834</ele>
        <time>2026-07-07T17:14:25.000Z</time>
      </trkpt>
      <trkpt lat="47.51859" lon="16.04436">
        <ele>919.545616</ele>
        <time>2026-07-07T17:14:26.000Z</time>
      </trkpt>
      <trkpt lat="47.51858" lon="16.04435">
        <ele>919.638827</ele>
        <time>2026-07-07T17:14:27.000Z</time>
      </trkpt>
      <trkpt lat="47.51857" lon="16.04435">
        <ele>919.729083</ele>
        <time>2026-07-07T17:14:28.000Z</time>
      </trkpt>
      <trkpt lat="47.51857" lon="16.04434">
        <ele>919.81688</ele>
        <time>2026-07-07T17:14:29.000Z</time>
      </trkpt>
      <trkpt lat="47.51856" lon="16.04433">
        <ele>919.913466</ele>
        <time>2026-07-07T17:14:30.000Z</time>
      </trkpt>
      <trkpt lat="47.51855" lon="16.04433">
        <ele>920.016057</ele>
        <time>2026-07-07T17:14:31.000Z</time>
      </trkpt>
      <trkpt lat="47.51854" lon="16.04432">
        <ele>920.08762</ele>
        <time>2026-07-07T17:14:32.000Z</time>
      </trkpt>
      <trkpt lat="47.51853" lon="16.04432">
        <ele>920.193286</ele>
        <time>2026-07-07T17:14:33.000Z</time>
      </trkpt>
      <trkpt lat="47.51853" lon="16.04431">
        <ele>920.272683</ele>
        <time>2026-07-07T17:14:34.000Z</time>
      </trkpt>
      <trkpt lat="47.51852" lon="16.0443">
        <ele>920.356753</ele>
        <time>2026-07-07T17:14:35.000Z</time>
      </trkpt>
      <trkpt lat="47.51851" lon="16.0443">
        <ele>920.453339</ele>
        <time>2026-07-07T17:14:36.000Z</time>
      </trkpt>
      <trkpt lat="47.51851" lon="16.04429">
        <ele>920.534121</ele>
        <time>2026-07-07T17:14:37.000Z</time>
      </trkpt>
      <trkpt lat="47.5185" lon="16.04428">
        <ele>920.630706</ele>
        <time>2026-07-07T17:14:38.000Z</time>
      </trkpt>
      <trkpt lat="47.51849" lon="16.04428">
        <ele>920.714776</ele>
        <time>2026-07-07T17:14:39.000Z</time>
      </trkpt>
      <trkpt lat="47.51848" lon="16.04427">
        <ele>920.795558</ele>
        <time>2026-07-07T17:14:40.000Z</time>
      </trkpt>
      <trkpt lat="47.51848" lon="16.04427">
        <ele>920.867121</ele>
        <time>2026-07-07T17:14:41.000Z</time>
      </trkpt>
      <trkpt lat="47.51847" lon="16.04426">
        <ele>920.947902</ele>
        <time>2026-07-07T17:14:42.000Z</time>
      </trkpt>
      <trkpt lat="47.51846" lon="16.04426">
        <ele>921.035699</ele>
        <time>2026-07-07T17:14:43.000Z</time>
      </trkpt>
      <trkpt lat="47.51846" lon="16.04425">
        <ele>921.125956</ele>
        <time>2026-07-07T17:14:44.000Z</time>
      </trkpt>
      <trkpt lat="47.51845" lon="16.04424">
        <ele>921.217866</ele>
        <time>2026-07-07T17:14:45.000Z</time>
      </trkpt>
      <trkpt lat="47.51844" lon="16.04424">
        <ele>921.289428</ele>
        <time>2026-07-07T17:14:46.000Z</time>
      </trkpt>
      <trkpt lat="47.51843" lon="16.04423">
        <ele>921.389343</ele>
        <time>2026-07-07T17:14:47.000Z</time>
      </trkpt>
      <trkpt lat="47.51843" lon="16.04423">
        <ele>921.460905</ele>
        <time>2026-07-07T17:14:48.000Z</time>
      </trkpt>
      <trkpt lat="47.51842" lon="16.04422">
        <ele>921.541687</ele>
        <time>2026-07-07T17:14:49.000Z</time>
      </trkpt>
      <trkpt lat="47.51841" lon="16.04422">
        <ele>921.629484</ele>
        <time>2026-07-07T17:14:50.000Z</time>
      </trkpt>
      <trkpt lat="47.51841" lon="16.04421">
        <ele>921.708881</ele>
        <time>2026-07-07T17:14:51.000Z</time>
      </trkpt>
      <trkpt lat="47.5184" lon="16.0442">
        <ele>921.792951</ele>
        <time>2026-07-07T17:14:52.000Z</time>
      </trkpt>
      <trkpt lat="47.51839" lon="16.0442">
        <ele>921.880716</ele>
        <time>2026-07-07T17:14:53.000Z</time>
      </trkpt>
      <trkpt lat="47.51839" lon="16.04419">
        <ele>921.964786</ele>
        <time>2026-07-07T17:14:54.000Z</time>
      </trkpt>
      <trkpt lat="47.51838" lon="16.04419">
        <ele>922.052583</ele>
        <time>2026-07-07T17:14:55.000Z</time>
      </trkpt>
      <trkpt lat="47.51837" lon="16.04418">
        <ele>922.131979</ele>
        <time>2026-07-07T17:14:56.000Z</time>
      </trkpt>
      <trkpt lat="47.51836" lon="16.04417">
        <ele>922.231894</ele>
        <time>2026-07-07T17:14:57.000Z</time>
      </trkpt>
      <trkpt lat="47.51836" lon="16.04417">
        <ele>922.325105</ele>
        <time>2026-07-07T17:14:58.000Z</time>
      </trkpt>
      <trkpt lat="47.51835" lon="16.04416">
        <ele>922.421691</ele>
        <time>2026-07-07T17:14:59.000Z</time>
      </trkpt>
      <trkpt lat="47.51834" lon="16.04415">
        <ele>922.527358</ele>
        <time>2026-07-07T17:15:00.000Z</time>
      </trkpt>
      <trkpt lat="47.51833" lon="16.04415">
        <ele>922.620569</ele>
        <time>2026-07-07T17:15:01.000Z</time>
      </trkpt>
      <trkpt lat="47.51832" lon="16.04414">
        <ele>922.710825</ele>
        <time>2026-07-07T17:15:02.000Z</time>
      </trkpt>
      <trkpt lat="47.51832" lon="16.04414">
        <ele>922.791607</ele>
        <time>2026-07-07T17:15:03.000Z</time>
      </trkpt>
      <trkpt lat="47.51831" lon="16.04413">
        <ele>922.888193</ele>
        <time>2026-07-07T17:15:04.000Z</time>
      </trkpt>
      <trkpt lat="47.5183" lon="16.04412">
        <ele>922.980103</ele>
        <time>2026-07-07T17:15:05.000Z</time>
      </trkpt>
      <trkpt lat="47.51829" lon="16.04412">
        <ele>923.060885</ele>
        <time>2026-07-07T17:15:06.000Z</time>
      </trkpt>
      <trkpt lat="47.51829" lon="16.04411">
        <ele>923.132447</ele>
        <time>2026-07-07T17:15:07.000Z</time>
      </trkpt>
      <trkpt lat="47.51828" lon="16.04411">
        <ele>923.220245</ele>
        <time>2026-07-07T17:15:08.000Z</time>
      </trkpt>
      <trkpt lat="47.51827" lon="16.0441">
        <ele>923.312155</ele>
        <time>2026-07-07T17:15:09.000Z</time>
      </trkpt>
      <trkpt lat="47.51827" lon="16.04409">
        <ele>923.408741</ele>
        <time>2026-07-07T17:15:10.000Z</time>
      </trkpt>
      <trkpt lat="47.51826" lon="16.04409">
        <ele>923.471453</ele>
        <time>2026-07-07T17:15:11.000Z</time>
      </trkpt>
      <trkpt lat="47.51825" lon="16.04408">
        <ele>923.55925</ele>
        <time>2026-07-07T17:15:12.000Z</time>
      </trkpt>
      <trkpt lat="47.51825" lon="16.04407">
        <ele>923.643172</ele>
        <time>2026-07-07T17:15:13.000Z</time>
      </trkpt>
      <trkpt lat="47.51824" lon="16.04406">
        <ele>923.73097</ele>
        <time>2026-07-07T17:15:14.000Z</time>
      </trkpt>
      <trkpt lat="47.51823" lon="16.04406">
        <ele>923.811751</ele>
        <time>2026-07-07T17:15:15.000Z</time>
      </trkpt>
      <trkpt lat="47.51823" lon="16.04405">
        <ele>923.887006</ele>
        <time>2026-07-07T17:15:16.000Z</time>
      </trkpt>
      <trkpt lat="47.51822" lon="16.04405">
        <ele>923.992673</ele>
        <time>2026-07-07T17:15:17.000Z</time>
      </trkpt>
      <trkpt lat="47.51821" lon="16.04404">
        <ele>924.093012</ele>
        <time>2026-07-07T17:15:18.000Z</time>
      </trkpt>
      <trkpt lat="47.5182" lon="16.04403">
        <ele>924.207983</ele>
        <time>2026-07-07T17:15:19.000Z</time>
      </trkpt>
      <trkpt lat="47.51819" lon="16.04402">
        <ele>924.29578</ele>
        <time>2026-07-07T17:15:20.000Z</time>
      </trkpt>
      <trkpt lat="47.51819" lon="16.04402">
        <ele>924.371035</ele>
        <time>2026-07-07T17:15:21.000Z</time>
      </trkpt>
      <trkpt lat="47.51818" lon="16.04401">
        <ele>924.442557</ele>
        <time>2026-07-07T17:15:22.000Z</time>
      </trkpt>
      <trkpt lat="47.51818" lon="16.044">
        <ele>924.534467</ele>
        <time>2026-07-07T17:15:23.000Z</time>
      </trkpt>
      <trkpt lat="47.51817" lon="16.04399">
        <ele>924.630827</ele>
        <time>2026-07-07T17:15:24.000Z</time>
      </trkpt>
      <trkpt lat="47.51816" lon="16.04399">
        <ele>924.714749</ele>
        <time>2026-07-07T17:15:25.000Z</time>
      </trkpt>
      <trkpt lat="47.51816" lon="16.04398">
        <ele>924.802546</ele>
        <time>2026-07-07T17:15:26.000Z</time>
      </trkpt>
      <trkpt lat="47.51815" lon="16.04397">
        <ele>924.879062</ele>
        <time>2026-07-07T17:15:27.000Z</time>
      </trkpt>
      <trkpt lat="47.51814" lon="16.04396">
        <ele>924.979401</ele>
        <time>2026-07-07T17:15:28.000Z</time>
      </trkpt>
      <trkpt lat="47.51814" lon="16.04395">
        <ele>925.061208</ele>
        <time>2026-07-07T17:15:29.000Z</time>
      </trkpt>
      <trkpt lat="47.51813" lon="16.04394">
        <ele>925.162309</ele>
        <time>2026-07-07T17:15:30.000Z</time>
      </trkpt>
      <trkpt lat="47.51813" lon="16.04394">
        <ele>925.238824</ele>
        <time>2026-07-07T17:15:31.000Z</time>
      </trkpt>
      <trkpt lat="47.51812" lon="16.04393">
        <ele>925.326166</ele>
        <time>2026-07-07T17:15:32.000Z</time>
      </trkpt>
      <trkpt lat="47.51811" lon="16.04392">
        <ele>925.427267</ele>
        <time>2026-07-07T17:15:33.000Z</time>
      </trkpt>
      <trkpt lat="47.51811" lon="16.04391">
        <ele>925.514608</ele>
        <time>2026-07-07T17:15:34.000Z</time>
      </trkpt>
      <trkpt lat="47.5181" lon="16.0439">
        <ele>925.598531</ele>
        <time>2026-07-07T17:15:35.000Z</time>
      </trkpt>
      <trkpt lat="47.5181" lon="16.04389">
        <ele>925.685873</ele>
        <time>2026-07-07T17:15:36.000Z</time>
      </trkpt>
      <trkpt lat="47.51809" lon="16.04388">
        <ele>925.797181</ele>
        <time>2026-07-07T17:15:37.000Z</time>
      </trkpt>
      <trkpt lat="47.51809" lon="16.04386">
        <ele>925.896159</ele>
        <time>2026-07-07T17:15:38.000Z</time>
      </trkpt>
      <trkpt lat="47.51808" lon="16.04385">
        <ele>926.009635</ele>
        <time>2026-07-07T17:15:39.000Z</time>
      </trkpt>
      <trkpt lat="47.51807" lon="16.04384">
        <ele>926.120944</ele>
        <time>2026-07-07T17:15:40.000Z</time>
      </trkpt>
      <trkpt lat="47.51807" lon="16.04383">
        <ele>926.219922</ele>
        <time>2026-07-07T17:15:41.000Z</time>
      </trkpt>
      <trkpt lat="47.51806" lon="16.04382">
        <ele>926.326018</ele>
        <time>2026-07-07T17:15:42.000Z</time>
      </trkpt>
      <trkpt lat="47.51805" lon="16.04381">
        <ele>926.419917</ele>
        <time>2026-07-07T17:15:43.000Z</time>
      </trkpt>
      <trkpt lat="47.51804" lon="16.0438">
        <ele>926.536872</ele>
        <time>2026-07-07T17:15:44.000Z</time>
      </trkpt>
      <trkpt lat="47.51804" lon="16.04379">
        <ele>926.630771</ele>
        <time>2026-07-07T17:15:45.000Z</time>
      </trkpt>
      <trkpt lat="47.51803" lon="16.04378">
        <ele>926.727131</ele>
        <time>2026-07-07T17:15:46.000Z</time>
      </trkpt>
      <trkpt lat="47.51803" lon="16.04377">
        <ele>926.814472</ele>
        <time>2026-07-07T17:15:47.000Z</time>
      </trkpt>
      <trkpt lat="47.51802" lon="16.04376">
        <ele>926.890988</ele>
        <time>2026-07-07T17:15:48.000Z</time>
      </trkpt>
      <trkpt lat="47.51801" lon="16.04375">
        <ele>927.002296</ele>
        <time>2026-07-07T17:15:49.000Z</time>
      </trkpt>
      <trkpt lat="47.51801" lon="16.04374">
        <ele>927.089638</ele>
        <time>2026-07-07T17:15:50.000Z</time>
      </trkpt>
      <trkpt lat="47.518" lon="16.04373">
        <ele>927.17698</ele>
        <time>2026-07-07T17:15:51.000Z</time>
      </trkpt>
      <trkpt lat="47.518" lon="16.04372">
        <ele>927.270878</ele>
        <time>2026-07-07T17:15:52.000Z</time>
      </trkpt>
      <trkpt lat="47.51799" lon="16.04371">
        <ele>927.35822</ele>
        <time>2026-07-07T17:15:53.000Z</time>
      </trkpt>
      <trkpt lat="47.51799" lon="16.0437">
        <ele>927.445562</ele>
        <time>2026-07-07T17:15:54.000Z</time>
      </trkpt>
      <trkpt lat="47.51798" lon="16.04369">
        <ele>927.522077</ele>
        <time>2026-07-07T17:15:55.000Z</time>
      </trkpt>
      <trkpt lat="47.51798" lon="16.04368">
        <ele>927.609419</ele>
        <time>2026-07-07T17:15:56.000Z</time>
      </trkpt>
      <trkpt lat="47.51797" lon="16.04367">
        <ele>927.680941</ele>
        <time>2026-07-07T17:15:57.000Z</time>
      </trkpt>
      <trkpt lat="47.51796" lon="16.04366">
        <ele>927.810426</ele>
        <time>2026-07-07T17:15:58.000Z</time>
      </trkpt>
      <trkpt lat="47.51796" lon="16.04365">
        <ele>927.921597</ele>
        <time>2026-07-07T17:15:59.000Z</time>
      </trkpt>
      <trkpt lat="47.51795" lon="16.04364">
        <ele>928.008939</ele>
        <time>2026-07-07T17:16:00.000Z</time>
      </trkpt>
      <trkpt lat="47.51795" lon="16.04363">
        <ele>928.096281</ele>
        <time>2026-07-07T17:16:01.000Z</time>
      </trkpt>
      <trkpt lat="47.51794" lon="16.04362">
        <ele>928.183622</ele>
        <time>2026-07-07T17:16:02.000Z</time>
      </trkpt>
      <trkpt lat="47.51794" lon="16.04361">
        <ele>928.284724</ele>
        <time>2026-07-07T17:16:03.000Z</time>
      </trkpt>
      <trkpt lat="47.51793" lon="16.0436">
        <ele>928.361239</ele>
        <time>2026-07-07T17:16:04.000Z</time>
      </trkpt>
      <trkpt lat="47.51793" lon="16.04359">
        <ele>928.448581</ele>
        <time>2026-07-07T17:16:05.000Z</time>
      </trkpt>
      <trkpt lat="47.51792" lon="16.04358">
        <ele>928.525392</ele>
        <time>2026-07-07T17:16:06.000Z</time>
      </trkpt>
      <trkpt lat="47.51791" lon="16.04357">
        <ele>928.642348</ele>
        <time>2026-07-07T17:16:07.000Z</time>
      </trkpt>
      <trkpt lat="47.51791" lon="16.04356">
        <ele>928.718864</ele>
        <time>2026-07-07T17:16:08.000Z</time>
      </trkpt>
      <trkpt lat="47.5179" lon="16.04355">
        <ele>928.812762</ele>
        <time>2026-07-07T17:16:09.000Z</time>
      </trkpt>
      <trkpt lat="47.5179" lon="16.04355">
        <ele>928.90056</ele>
        <time>2026-07-07T17:16:10.000Z</time>
      </trkpt>
      <trkpt lat="47.51789" lon="16.04354">
        <ele>928.99247</ele>
        <time>2026-07-07T17:16:11.000Z</time>
      </trkpt>
      <trkpt lat="47.51788" lon="16.04353">
        <ele>929.086369</ele>
        <time>2026-07-07T17:16:12.000Z</time>
      </trkpt>
      <trkpt lat="47.51788" lon="16.04352">
        <ele>929.173711</ele>
        <time>2026-07-07T17:16:13.000Z</time>
      </trkpt>
      <trkpt lat="47.51788" lon="16.04351">
        <ele>929.260475</ele>
        <time>2026-07-07T17:16:14.000Z</time>
      </trkpt>
      <trkpt lat="47.51787" lon="16.0435">
        <ele>929.352385</ele>
        <time>2026-07-07T17:16:15.000Z</time>
      </trkpt>
      <trkpt lat="47.51786" lon="16.04349">
        <ele>929.431782</ele>
        <time>2026-07-07T17:16:16.000Z</time>
      </trkpt>
      <trkpt lat="47.51785" lon="16.04348">
        <ele>929.540891</ele>
        <time>2026-07-07T17:16:17.000Z</time>
      </trkpt>
      <trkpt lat="47.51785" lon="16.04348">
        <ele>929.620288</ele>
        <time>2026-07-07T17:16:18.000Z</time>
      </trkpt>
      <trkpt lat="47.51784" lon="16.04347">
        <ele>929.720202</ele>
        <time>2026-07-07T17:16:19.000Z</time>
      </trkpt>
      <trkpt lat="47.51783" lon="16.04346">
        <ele>929.804125</ele>
        <time>2026-07-07T17:16:20.000Z</time>
      </trkpt>
      <trkpt lat="47.51783" lon="16.04346">
        <ele>929.891922</ele>
        <time>2026-07-07T17:16:21.000Z</time>
      </trkpt>
      <trkpt lat="47.51782" lon="16.04345">
        <ele>929.97972</ele>
        <time>2026-07-07T17:16:22.000Z</time>
      </trkpt>
      <trkpt lat="47.51781" lon="16.04344">
        <ele>930.051282</ele>
        <time>2026-07-07T17:16:23.000Z</time>
      </trkpt>
      <trkpt lat="47.51781" lon="16.04344">
        <ele>930.135352</ele>
        <time>2026-07-07T17:16:24.000Z</time>
      </trkpt>
      <trkpt lat="47.5178" lon="16.04343">
        <ele>930.231939</ele>
        <time>2026-07-07T17:16:25.000Z</time>
      </trkpt>
      <trkpt lat="47.51779" lon="16.04342">
        <ele>930.323849</ele>
        <time>2026-07-07T17:16:26.000Z</time>
      </trkpt>
      <trkpt lat="47.51778" lon="16.04342">
        <ele>930.404631</ele>
        <time>2026-07-07T17:16:27.000Z</time>
      </trkpt>
      <trkpt lat="47.51778" lon="16.04341">
        <ele>930.492397</ele>
        <time>2026-07-07T17:16:28.000Z</time>
      </trkpt>
      <trkpt lat="47.51777" lon="16.04341">
        <ele>930.585608</ele>
        <time>2026-07-07T17:16:29.000Z</time>
      </trkpt>
      <trkpt lat="47.51776" lon="16.0434">
        <ele>930.667414</ele>
        <time>2026-07-07T17:16:30.000Z</time>
      </trkpt>
      <trkpt lat="47.51776" lon="16.04339">
        <ele>930.748196</ele>
        <time>2026-07-07T17:16:31.000Z</time>
      </trkpt>
      <trkpt lat="47.51775" lon="16.04339">
        <ele>930.841408</ele>
        <time>2026-07-07T17:16:32.000Z</time>
      </trkpt>
      <trkpt lat="47.51774" lon="16.04338">
        <ele>930.941322</ele>
        <time>2026-07-07T17:16:33.000Z</time>
      </trkpt>
      <trkpt lat="47.51773" lon="16.04338">
        <ele>931.037908</ele>
        <time>2026-07-07T17:16:34.000Z</time>
      </trkpt>
      <trkpt lat="47.51772" lon="16.04337">
        <ele>931.128165</ele>
        <time>2026-07-07T17:16:35.000Z</time>
      </trkpt>
      <trkpt lat="47.51771" lon="16.04337">
        <ele>931.22808</ele>
        <time>2026-07-07T17:16:36.000Z</time>
      </trkpt>
      <trkpt lat="47.51771" lon="16.04336">
        <ele>931.313857</ele>
        <time>2026-07-07T17:16:37.000Z</time>
      </trkpt>
      <trkpt lat="47.5177" lon="16.04336">
        <ele>931.404114</ele>
        <time>2026-07-07T17:16:38.000Z</time>
      </trkpt>
      <trkpt lat="47.51769" lon="16.04335">
        <ele>931.504029</ele>
        <time>2026-07-07T17:16:39.000Z</time>
      </trkpt>
      <trkpt lat="47.51768" lon="16.04335">
        <ele>931.600615</ele>
        <time>2026-07-07T17:16:40.000Z</time>
      </trkpt>
      <trkpt lat="47.51767" lon="16.04334">
        <ele>931.690872</ele>
        <time>2026-07-07T17:16:41.000Z</time>
      </trkpt>
      <trkpt lat="47.51766" lon="16.04333">
        <ele>931.79998</ele>
        <time>2026-07-07T17:16:42.000Z</time>
      </trkpt>
      <trkpt lat="47.51766" lon="16.04333">
        <ele>931.896567</ele>
        <time>2026-07-07T17:16:43.000Z</time>
      </trkpt>
      <trkpt lat="47.51765" lon="16.04332">
        <ele>931.986824</ele>
        <time>2026-07-07T17:16:44.000Z</time>
      </trkpt>
      <trkpt lat="47.51764" lon="16.04332">
        <ele>932.086738</ele>
        <time>2026-07-07T17:16:45.000Z</time>
      </trkpt>
      <trkpt lat="47.51763" lon="16.04331">
        <ele>932.176995</ele>
        <time>2026-07-07T17:16:46.000Z</time>
      </trkpt>
      <trkpt lat="47.51762" lon="16.04331">
        <ele>932.267251</ele>
        <time>2026-07-07T17:16:47.000Z</time>
      </trkpt>
      <trkpt lat="47.51761" lon="16.0433">
        <ele>932.372919</ele>
        <time>2026-07-07T17:16:48.000Z</time>
      </trkpt>
      <trkpt lat="47.51761" lon="16.04329">
        <ele>932.46613</ele>
        <time>2026-07-07T17:16:49.000Z</time>
      </trkpt>
      <trkpt lat="47.5176" lon="16.04329">
        <ele>932.581101</ele>
        <time>2026-07-07T17:16:50.000Z</time>
      </trkpt>
      <trkpt lat="47.51759" lon="16.04328">
        <ele>932.656845</ele>
        <time>2026-07-07T17:16:51.000Z</time>
      </trkpt>
      <trkpt lat="47.51758" lon="16.04327">
        <ele>932.778481</ele>
        <time>2026-07-07T17:16:52.000Z</time>
      </trkpt>
      <trkpt lat="47.51757" lon="16.04327">
        <ele>932.878821</ele>
        <time>2026-07-07T17:16:53.000Z</time>
      </trkpt>
      <trkpt lat="47.51756" lon="16.04326">
        <ele>932.979161</ele>
        <time>2026-07-07T17:16:54.000Z</time>
      </trkpt>
      <trkpt lat="47.51755" lon="16.04325">
        <ele>933.094131</ele>
        <time>2026-07-07T17:16:55.000Z</time>
      </trkpt>
      <trkpt lat="47.51754" lon="16.04324">
        <ele>933.209102</ele>
        <time>2026-07-07T17:16:56.000Z</time>
      </trkpt>
      <trkpt lat="47.51753" lon="16.04324">
        <ele>933.321252</ele>
        <time>2026-07-07T17:16:57.000Z</time>
      </trkpt>
      <trkpt lat="47.51752" lon="16.04323">
        <ele>933.430959</ele>
        <time>2026-07-07T17:16:58.000Z</time>
      </trkpt>
      <trkpt lat="47.51751" lon="16.04323">
        <ele>933.540666</ele>
        <time>2026-07-07T17:16:59.000Z</time>
      </trkpt>
      <trkpt lat="47.5175" lon="16.04322">
        <ele>933.650373</ele>
        <time>2026-07-07T17:17:00.000Z</time>
      </trkpt>
      <trkpt lat="47.51749" lon="16.04322">
        <ele>933.748043</ele>
        <time>2026-07-07T17:17:01.000Z</time>
      </trkpt>
      <trkpt lat="47.51749" lon="16.04321">
        <ele>933.841254</ele>
        <time>2026-07-07T17:17:02.000Z</time>
      </trkpt>
      <trkpt lat="47.51748" lon="16.0432">
        <ele>933.945685</ele>
        <time>2026-07-07T17:17:03.000Z</time>
      </trkpt>
      <trkpt lat="47.51747" lon="16.0432">
        <ele>934.037596</ele>
        <time>2026-07-07T17:17:04.000Z</time>
      </trkpt>
      <trkpt lat="47.51746" lon="16.04319">
        <ele>934.134182</ele>
        <time>2026-07-07T17:17:05.000Z</time>
      </trkpt>
      <trkpt lat="47.51745" lon="16.04318">
        <ele>934.243889</ele>
        <time>2026-07-07T17:17:06.000Z</time>
      </trkpt>
      <trkpt lat="47.51744" lon="16.04318">
        <ele>934.373462</ele>
        <time>2026-07-07T17:17:07.000Z</time>
      </trkpt>
      <trkpt lat="47.51743" lon="16.04317">
        <ele>934.485612</ele>
        <time>2026-07-07T17:17:08.000Z</time>
      </trkpt>
      <trkpt lat="47.51742" lon="16.04317">
        <ele>934.600583</ele>
        <time>2026-07-07T17:17:09.000Z</time>
      </trkpt>
      <trkpt lat="47.51741" lon="16.04316">
        <ele>934.688381</ele>
        <time>2026-07-07T17:17:10.000Z</time>
      </trkpt>
      <trkpt lat="47.5174" lon="16.04315">
        <ele>934.815763</ele>
        <time>2026-07-07T17:17:11.000Z</time>
      </trkpt>
      <trkpt lat="47.51739" lon="16.04314">
        <ele>934.930733</ele>
        <time>2026-07-07T17:17:12.000Z</time>
      </trkpt>
      <trkpt lat="47.51738" lon="16.04313">
        <ele>935.04769</ele>
        <time>2026-07-07T17:17:13.000Z</time>
      </trkpt>
      <trkpt lat="47.51737" lon="16.04313">
        <ele>935.165831</ele>
        <time>2026-07-07T17:17:14.000Z</time>
      </trkpt>
      <trkpt lat="47.51737" lon="16.04312">
        <ele>935.266171</ele>
        <time>2026-07-07T17:17:15.000Z</time>
      </trkpt>
      <trkpt lat="47.51736" lon="16.04311">
        <ele>935.353969</ele>
        <time>2026-07-07T17:17:16.000Z</time>
      </trkpt>
      <trkpt lat="47.51735" lon="16.04311">
        <ele>935.425532</ele>
        <time>2026-07-07T17:17:17.000Z</time>
      </trkpt>
      <trkpt lat="47.51734" lon="16.0431">
        <ele>935.534641</ele>
        <time>2026-07-07T17:17:18.000Z</time>
      </trkpt>
      <trkpt lat="47.51733" lon="16.04309">
        <ele>935.649611</ele>
        <time>2026-07-07T17:17:19.000Z</time>
      </trkpt>
      <trkpt lat="47.51733" lon="16.04309">
        <ele>935.721174</ele>
        <time>2026-07-07T17:17:20.000Z</time>
      </trkpt>
      <trkpt lat="47.51732" lon="16.04308">
        <ele>935.821089</ele>
        <time>2026-07-07T17:17:21.000Z</time>
      </trkpt>
      <trkpt lat="47.51731" lon="16.04307">
        <ele>935.917676</ele>
        <time>2026-07-07T17:17:22.000Z</time>
      </trkpt>
      <trkpt lat="47.5173" lon="16.04307">
        <ele>936.047249</ele>
        <time>2026-07-07T17:17:23.000Z</time>
      </trkpt>
      <trkpt lat="47.51729" lon="16.04306">
        <ele>936.156956</ele>
        <time>2026-07-07T17:17:24.000Z</time>
      </trkpt>
      <trkpt lat="47.51728" lon="16.04306">
        <ele>936.223699</ele>
        <time>2026-07-07T17:17:25.000Z</time>
      </trkpt>
      <trkpt lat="47.51727" lon="16.04306">
        <ele>936.250476</ele>
        <time>2026-07-07T17:17:26.000Z</time>
      </trkpt>
      <trkpt lat="47.51726" lon="16.04305">
        <ele>936.287357</ele>
        <time>2026-07-07T17:17:27.000Z</time>
      </trkpt>
      <trkpt lat="47.51725" lon="16.04304">
        <ele>936.314765</ele>
        <time>2026-07-07T17:17:28.000Z</time>
      </trkpt>
      <trkpt lat="47.51725" lon="16.04303">
        <ele>936.344917</ele>
        <time>2026-07-07T17:17:29.000Z</time>
      </trkpt>
      <trkpt lat="47.51723" lon="16.04303">
        <ele>936.385367</ele>
        <time>2026-07-07T17:17:30.000Z</time>
      </trkpt>
      <trkpt lat="47.51723" lon="16.04302">
        <ele>936.414465</ele>
        <time>2026-07-07T17:17:31.000Z</time>
      </trkpt>
      <trkpt lat="47.51722" lon="16.04302">
        <ele>936.448713</ele>
        <time>2026-07-07T17:17:32.000Z</time>
      </trkpt>
      <trkpt lat="47.51721" lon="16.04301">
        <ele>936.476889</ele>
        <time>2026-07-07T17:17:33.000Z</time>
      </trkpt>
      <trkpt lat="47.5172" lon="16.04301">
        <ele>936.500021</ele>
        <time>2026-07-07T17:17:34.000Z</time>
      </trkpt>
      <trkpt lat="47.51719" lon="16.04301">
        <ele>936.528197</ele>
        <time>2026-07-07T17:17:35.000Z</time>
      </trkpt>
      <trkpt lat="47.51719" lon="16.043">
        <ele>936.553416</ele>
        <time>2026-07-07T17:17:36.000Z</time>
      </trkpt>
      <trkpt lat="47.51718" lon="16.043">
        <ele>936.586158</ele>
        <time>2026-07-07T17:17:37.000Z</time>
      </trkpt>
      <trkpt lat="47.51717" lon="16.04299">
        <ele>936.614334</ele>
        <time>2026-07-07T17:17:38.000Z</time>
      </trkpt>
      <trkpt lat="47.51716" lon="16.04299">
        <ele>936.649344</ele>
        <time>2026-07-07T17:17:39.000Z</time>
      </trkpt>
      <trkpt lat="47.51715" lon="16.04298">
        <ele>936.676753</ele>
        <time>2026-07-07T17:17:40.000Z</time>
      </trkpt>
      <trkpt lat="47.51714" lon="16.04298">
        <ele>936.704929</ele>
        <time>2026-07-07T17:17:41.000Z</time>
      </trkpt>
      <trkpt lat="47.51713" lon="16.04297">
        <ele>936.734863</ele>
        <time>2026-07-07T17:17:42.000Z</time>
      </trkpt>
      <trkpt lat="47.51713" lon="16.04297">
        <ele>936.765014</ele>
        <time>2026-07-07T17:17:43.000Z</time>
      </trkpt>
      <trkpt lat="47.51712" lon="16.04296">
        <ele>936.795166</ele>
        <time>2026-07-07T17:17:44.000Z</time>
      </trkpt>
      <trkpt lat="47.51711" lon="16.04296">
        <ele>936.817985</ele>
        <time>2026-07-07T17:17:45.000Z</time>
      </trkpt>
      <trkpt lat="47.5171" lon="16.04295">
        <ele>936.843204</ele>
        <time>2026-07-07T17:17:46.000Z</time>
      </trkpt>
      <trkpt lat="47.51709" lon="16.04295">
        <ele>936.877451</ele>
        <time>2026-07-07T17:17:47.000Z</time>
      </trkpt>
      <trkpt lat="47.51709" lon="16.04294">
        <ele>936.907603</ele>
        <time>2026-07-07T17:17:48.000Z</time>
      </trkpt>
      <trkpt lat="47.51708" lon="16.04294">
        <ele>936.932822</ele>
        <time>2026-07-07T17:17:49.000Z</time>
      </trkpt>
      <trkpt lat="47.51707" lon="16.04293">
        <ele>936.965929</ele>
        <time>2026-07-07T17:17:50.000Z</time>
      </trkpt>
      <trkpt lat="47.51706" lon="16.04293">
        <ele>936.993327</ele>
        <time>2026-07-07T17:17:51.000Z</time>
      </trkpt>
      <trkpt lat="47.51705" lon="16.04292">
        <ele>937.028337</ele>
        <time>2026-07-07T17:17:52.000Z</time>
      </trkpt>
      <trkpt lat="47.51704" lon="16.04292">
        <ele>937.055736</ele>
        <time>2026-07-07T17:17:53.000Z</time>
      </trkpt>
      <trkpt lat="47.51703" lon="16.04291">
        <ele>937.089983</ele>
        <time>2026-07-07T17:17:54.000Z</time>
      </trkpt>
      <trkpt lat="47.51703" lon="16.04291">
        <ele>937.115202</ele>
        <time>2026-07-07T17:17:55.000Z</time>
      </trkpt>
      <trkpt lat="47.51702" lon="16.0429">
        <ele>937.146525</ele>
        <time>2026-07-07T17:17:56.000Z</time>
      </trkpt>
      <trkpt lat="47.51701" lon="16.04289">
        <ele>937.173934</ele>
        <time>2026-07-07T17:17:57.000Z</time>
      </trkpt>
      <trkpt lat="47.517" lon="16.04289">
        <ele>937.203032</ele>
        <time>2026-07-07T17:17:58.000Z</time>
      </trkpt>
      <trkpt lat="47.517" lon="16.04288">
        <ele>937.22825</ele>
        <time>2026-07-07T17:17:59.000Z</time>
      </trkpt>
      <trkpt lat="47.51699" lon="16.04288">
        <ele>937.255658</ele>
        <time>2026-07-07T17:18:00.000Z</time>
      </trkpt>
      <trkpt lat="47.51698" lon="16.04287">
        <ele>937.281857</ele>
        <time>2026-07-07T17:18:01.000Z</time>
      </trkpt>
      <trkpt lat="47.51697" lon="16.04286">
        <ele>937.313048</ele>
        <time>2026-07-07T17:18:02.000Z</time>
      </trkpt>
      <trkpt lat="47.51696" lon="16.04285">
        <ele>937.370582</ele>
        <time>2026-07-07T17:18:04.000Z</time>
      </trkpt>
      <trkpt lat="47.51695" lon="16.04284">
        <ele>937.399681</ele>
        <time>2026-07-07T17:18:05.000Z</time>
      </trkpt>
      <trkpt lat="47.51694" lon="16.04284">
        <ele>937.429833</ele>
        <time>2026-07-07T17:18:06.000Z</time>
      </trkpt>
      <trkpt lat="47.51693" lon="16.04283">
        <ele>937.463894</ele>
        <time>2026-07-07T17:18:07.000Z</time>
      </trkpt>
      <trkpt lat="47.51692" lon="16.04281">
        <ele>937.530915</ele>
        <time>2026-07-07T17:18:08.000Z</time>
      </trkpt>
      <trkpt lat="47.51691" lon="16.0428">
        <ele>937.562476</ele>
        <time>2026-07-07T17:18:10.000Z</time>
      </trkpt>
      <trkpt lat="47.51689" lon="16.04279">
        <ele>937.617798</ele>
        <time>2026-07-07T17:18:11.000Z</time>
      </trkpt>
      <trkpt lat="47.51689" lon="16.04279">
        <ele>937.621042</ele>
        <time>2026-07-07T17:18:13.000Z</time>
      </trkpt>
      <trkpt lat="47.51689" lon="16.04279">
        <ele>937.643756</ele>
        <time>2026-07-07T17:18:14.000Z</time>
      </trkpt>
      <trkpt lat="47.51686" lon="16.04279">
        <ele>937.718514</ele>
        <time>2026-07-07T17:18:22.000Z</time>
      </trkpt>
      <trkpt lat="47.51685" lon="16.04278">
        <ele>937.759311</ele>
        <time>2026-07-07T17:18:23.000Z</time>
      </trkpt>
      <trkpt lat="47.51684" lon="16.04276">
        <ele>937.801077</ele>
        <time>2026-07-07T17:18:24.000Z</time>
      </trkpt>
      <trkpt lat="47.51683" lon="16.04276">
        <ele>937.837958</ele>
        <time>2026-07-07T17:18:25.000Z</time>
      </trkpt>
      <trkpt lat="47.51683" lon="16.04275">
        <ele>937.869282</ele>
        <time>2026-07-07T17:18:26.000Z</time>
      </trkpt>
      <trkpt lat="47.51682" lon="16.04273">
        <ele>937.914688</ele>
        <time>2026-07-07T17:18:27.000Z</time>
      </trkpt>
      <trkpt lat="47.5168" lon="16.04272">
        <ele>937.978901</ele>
        <time>2026-07-07T17:18:28.000Z</time>
      </trkpt>
      <trkpt lat="47.51678" lon="16.0427">
        <ele>938.040985</ele>
        <time>2026-07-07T17:18:29.000Z</time>
      </trkpt>
      <trkpt lat="47.51677" lon="16.04268">
        <ele>938.105036</ele>
        <time>2026-07-07T17:18:30.000Z</time>
      </trkpt>
      <trkpt lat="47.51675" lon="16.04267">
        <ele>938.167685</ele>
        <time>2026-07-07T17:18:31.000Z</time>
      </trkpt>
      <trkpt lat="47.51673" lon="16.04265">
        <ele>938.238558</ele>
        <time>2026-07-07T17:18:32.000Z</time>
      </trkpt>
      <trkpt lat="47.51671" lon="16.04264">
        <ele>938.316339</ele>
        <time>2026-07-07T17:18:33.000Z</time>
      </trkpt>
      <trkpt lat="47.51669" lon="16.04263">
        <ele>938.399751</ele>
        <time>2026-07-07T17:18:34.000Z</time>
      </trkpt>
      <trkpt lat="47.51666" lon="16.04261">
        <ele>938.497711</ele>
        <time>2026-07-07T17:18:35.000Z</time>
      </trkpt>
      <trkpt lat="47.51663" lon="16.04259">
        <ele>938.604466</ele>
        <time>2026-07-07T17:18:36.000Z</time>
      </trkpt>
      <trkpt lat="47.5166" lon="16.04257">
        <ele>938.711221</ele>
        <time>2026-07-07T17:18:37.000Z</time>
      </trkpt>
      <trkpt lat="47.51657" lon="16.04254">
        <ele>938.826641</ele>
        <time>2026-07-07T17:18:38.000Z</time>
      </trkpt>
      <trkpt lat="47.51653" lon="16.04252">
        <ele>938.950018</ele>
        <time>2026-07-07T17:18:39.000Z</time>
      </trkpt>
      <trkpt lat="47.5165" lon="16.0425">
        <ele>939.074782</ele>
        <time>2026-07-07T17:18:40.000Z</time>
      </trkpt>
      <trkpt lat="47.51646" lon="16.04248">
        <ele>939.202588</ele>
        <time>2026-07-07T17:18:41.000Z</time>
      </trkpt>
      <trkpt lat="47.51642" lon="16.04246">
        <ele>939.333448</ele>
        <time>2026-07-07T17:18:42.000Z</time>
      </trkpt>
      <trkpt lat="47.51639" lon="16.04244">
        <ele>939.461255</ele>
        <time>2026-07-07T17:18:43.000Z</time>
      </trkpt>
      <trkpt lat="47.51635" lon="16.04242">
        <ele>939.589061</ele>
        <time>2026-07-07T17:18:44.000Z</time>
      </trkpt>
      <trkpt lat="47.51631" lon="16.0424">
        <ele>939.709284</ele>
        <time>2026-07-07T17:18:45.000Z</time>
      </trkpt>
      <trkpt lat="47.51628" lon="16.04239">
        <ele>939.828805</ele>
        <time>2026-07-07T17:18:46.000Z</time>
      </trkpt>
      <trkpt lat="47.51624" lon="16.04237">
        <ele>939.950537</ele>
        <time>2026-07-07T17:18:47.000Z</time>
      </trkpt>
      <trkpt lat="47.51621" lon="16.04234">
        <ele>940.073914</ele>
        <time>2026-07-07T17:18:48.000Z</time>
      </trkpt>
      <trkpt lat="47.51617" lon="16.04232">
        <ele>940.204773</ele>
        <time>2026-07-07T17:18:49.000Z</time>
      </trkpt>
      <trkpt lat="47.51614" lon="16.0423">
        <ele>940.329023</ele>
        <time>2026-07-07T17:18:50.000Z</time>
      </trkpt>
      <trkpt lat="47.5161" lon="16.04228">
        <ele>940.458398</ele>
        <time>2026-07-07T17:18:51.000Z</time>
      </trkpt>
      <trkpt lat="47.51606" lon="16.04226">
        <ele>940.581691</ele>
        <time>2026-07-07T17:18:52.000Z</time>
      </trkpt>
      <trkpt lat="47.51603" lon="16.04225">
        <ele>940.696806</ele>
        <time>2026-07-07T17:18:53.000Z</time>
      </trkpt>
      <trkpt lat="47.51599" lon="16.04223">
        <ele>940.815035</ele>
        <time>2026-07-07T17:18:54.000Z</time>
      </trkpt>
      <trkpt lat="47.51596" lon="16.04221">
        <ele>940.928408</ele>
        <time>2026-07-07T17:18:55.000Z</time>
      </trkpt>
      <trkpt lat="47.51593" lon="16.0422">
        <ele>941.040418</ele>
        <time>2026-07-07T17:18:56.000Z</time>
      </trkpt>
      <trkpt lat="47.5159" lon="16.04218">
        <ele>941.14933</ele>
        <time>2026-07-07T17:18:57.000Z</time>
      </trkpt>
      <trkpt lat="47.51587" lon="16.04216">
        <ele>941.256085</ele>
        <time>2026-07-07T17:18:58.000Z</time>
      </trkpt>
      <trkpt lat="47.51583" lon="16.04215">
        <ele>941.365678</ele>
        <time>2026-07-07T17:18:59.000Z</time>
      </trkpt>
      <trkpt lat="47.5158" lon="16.04213">
        <ele>941.49582</ele>
        <time>2026-07-07T17:19:00.000Z</time>
      </trkpt>
      <trkpt lat="47.51576" lon="16.04211">
        <ele>941.605414</ele>
        <time>2026-07-07T17:19:01.000Z</time>
      </trkpt>
      <trkpt lat="47.51573" lon="16.0421">
        <ele>941.717423</ele>
        <time>2026-07-07T17:19:02.000Z</time>
      </trkpt>
      <trkpt lat="47.5157" lon="16.04208">
        <ele>941.830797</ele>
        <time>2026-07-07T17:19:03.000Z</time>
      </trkpt>
      <trkpt lat="47.51566" lon="16.04206">
        <ele>941.961005</ele>
        <time>2026-07-07T17:19:04.000Z</time>
      </trkpt>
      <trkpt lat="47.51563" lon="16.04203">
        <ele>942.067611</ele>
        <time>2026-07-07T17:19:05.000Z</time>
      </trkpt>
      <trkpt lat="47.51559" lon="16.04201">
        <ele>942.137999</ele>
        <time>2026-07-07T17:19:06.000Z</time>
      </trkpt>
      <trkpt lat="47.51556" lon="16.04199">
        <ele>942.206088</ele>
        <time>2026-07-07T17:19:07.000Z</time>
      </trkpt>
      <trkpt lat="47.51553" lon="16.04197">
        <ele>942.271285</ele>
        <time>2026-07-07T17:19:08.000Z</time>
      </trkpt>
      <trkpt lat="47.5155" lon="16.04194">
        <ele>942.337721</ele>
        <time>2026-07-07T17:19:09.000Z</time>
      </trkpt>
      <trkpt lat="47.51547" lon="16.04192">
        <ele>942.399177</ele>
        <time>2026-07-07T17:19:10.000Z</time>
      </trkpt>
      <trkpt lat="47.51544" lon="16.04189">
        <ele>942.465613</ele>
        <time>2026-07-07T17:19:11.000Z</time>
      </trkpt>
      <trkpt lat="47.51541" lon="16.04186">
        <ele>942.535022</ele>
        <time>2026-07-07T17:19:12.000Z</time>
      </trkpt>
      <trkpt lat="47.51538" lon="16.04184">
        <ele>942.600449</ele>
        <time>2026-07-07T17:19:13.000Z</time>
      </trkpt>
      <trkpt lat="47.51536" lon="16.04181">
        <ele>942.66174</ele>
        <time>2026-07-07T17:19:14.000Z</time>
      </trkpt>
      <trkpt lat="47.51533" lon="16.04178">
        <ele>942.722235</ele>
        <time>2026-07-07T17:19:15.000Z</time>
      </trkpt>
      <trkpt lat="47.51531" lon="16.04175">
        <ele>942.78273</ele>
        <time>2026-07-07T17:19:16.000Z</time>
      </trkpt>
      <trkpt lat="47.51529" lon="16.04172">
        <ele>942.840886</ele>
        <time>2026-07-07T17:19:17.000Z</time>
      </trkpt>
      <trkpt lat="47.51526" lon="16.04169">
        <ele>942.907286</ele>
        <time>2026-07-07T17:19:18.000Z</time>
      </trkpt>
      <trkpt lat="47.51524" lon="16.04165">
        <ele>942.971922</ele>
        <time>2026-07-07T17:19:19.000Z</time>
      </trkpt>
      <trkpt lat="47.51521" lon="16.04162">
        <ele>943.035698</ele>
        <time>2026-07-07T17:19:20.000Z</time>
      </trkpt>
      <trkpt lat="47.51518" lon="16.04159">
        <ele>943.107823</ele>
        <time>2026-07-07T17:19:21.000Z</time>
      </trkpt>
      <trkpt lat="47.51515" lon="16.04155">
        <ele>943.183835</ele>
        <time>2026-07-07T17:19:22.000Z</time>
      </trkpt>
      <trkpt lat="47.51512" lon="16.04152">
        <ele>943.2529</ele>
        <time>2026-07-07T17:19:23.000Z</time>
      </trkpt>
      <trkpt lat="47.51509" lon="16.04149">
        <ele>943.321173</ele>
        <time>2026-07-07T17:19:24.000Z</time>
      </trkpt>
      <trkpt lat="47.51506" lon="16.04146">
        <ele>943.391037</ele>
        <time>2026-07-07T17:19:25.000Z</time>
      </trkpt>
      <trkpt lat="47.51503" lon="16.04144">
        <ele>943.461426</ele>
        <time>2026-07-07T17:19:26.000Z</time>
      </trkpt>
      <trkpt lat="47.51499" lon="16.04142">
        <ele>943.537004</ele>
        <time>2026-07-07T17:19:27.000Z</time>
      </trkpt>
      <trkpt lat="47.51495" lon="16.04141">
        <ele>943.616812</ele>
        <time>2026-07-07T17:19:28.000Z</time>
      </trkpt>
      <trkpt lat="47.51491" lon="16.04141">
        <ele>943.694106</ele>
        <time>2026-07-07T17:19:29.000Z</time>
      </trkpt>
      <trkpt lat="47.51487" lon="16.04141">
        <ele>943.77938</ele>
        <time>2026-07-07T17:19:30.000Z</time>
      </trkpt>
      <trkpt lat="47.51483" lon="16.04143">
        <ele>943.854951</ele>
        <time>2026-07-07T17:19:31.000Z</time>
      </trkpt>
      <trkpt lat="47.51479" lon="16.04145">
        <ele>943.930966</ele>
        <time>2026-07-07T17:19:32.000Z</time>
      </trkpt>
      <trkpt lat="47.51476" lon="16.04147">
        <ele>944.003846</ele>
        <time>2026-07-07T17:19:33.000Z</time>
      </trkpt>
      <trkpt lat="47.51472" lon="16.04149">
        <ele>944.078841</ele>
        <time>2026-07-07T17:19:34.000Z</time>
      </trkpt>
      <trkpt lat="47.51469" lon="16.04152">
        <ele>944.14825</ele>
        <time>2026-07-07T17:19:35.000Z</time>
      </trkpt>
      <trkpt lat="47.51466" lon="16.04155">
        <ele>944.226001</ele>
        <time>2026-07-07T17:19:36.000Z</time>
      </trkpt>
      <trkpt lat="47.51463" lon="16.04158">
        <ele>944.299402</ele>
        <time>2026-07-07T17:19:37.000Z</time>
      </trkpt>
      <trkpt lat="47.51459" lon="16.04161">
        <ele>944.37745</ele>
        <time>2026-07-07T17:19:38.000Z</time>
      </trkpt>
      <trkpt lat="47.51456" lon="16.04164">
        <ele>944.450852</ele>
        <time>2026-07-07T17:19:39.000Z</time>
      </trkpt>
      <trkpt lat="47.51452" lon="16.04167">
        <ele>944.525309</ele>
        <time>2026-07-07T17:19:40.000Z</time>
      </trkpt>
      <trkpt lat="47.51449" lon="16.04169">
        <ele>944.598072</ele>
        <time>2026-07-07T17:19:41.000Z</time>
      </trkpt>
      <trkpt lat="47.51446" lon="16.04172">
        <ele>944.673067</ele>
        <time>2026-07-07T17:19:42.000Z</time>
      </trkpt>
      <trkpt lat="47.51442" lon="16.04175">
        <ele>944.749841</ele>
        <time>2026-07-07T17:19:43.000Z</time>
      </trkpt>
      <trkpt lat="47.51438" lon="16.04178">
        <ele>944.832536</ele>
        <time>2026-07-07T17:19:44.000Z</time>
      </trkpt>
      <trkpt lat="47.51435" lon="16.04181">
        <ele>944.916266</ele>
        <time>2026-07-07T17:19:45.000Z</time>
      </trkpt>
      <trkpt lat="47.51431" lon="16.04184">
        <ele>945.005934</ele>
        <time>2026-07-07T17:19:46.000Z</time>
      </trkpt>
      <trkpt lat="47.51427" lon="16.04188">
        <ele>945.090668</ele>
        <time>2026-07-07T17:19:47.000Z</time>
      </trkpt>
      <trkpt lat="47.51423" lon="16.04192">
        <ele>945.176755</ele>
        <time>2026-07-07T17:19:48.000Z</time>
      </trkpt>
      <trkpt lat="47.5142" lon="16.04196">
        <ele>945.260514</ele>
        <time>2026-07-07T17:19:49.000Z</time>
      </trkpt>
      <trkpt lat="47.51416" lon="16.04199">
        <ele>945.344274</ele>
        <time>2026-07-07T17:19:50.000Z</time>
      </trkpt>
      <trkpt lat="47.51413" lon="16.04203">
        <ele>945.428811</ele>
        <time>2026-07-07T17:19:51.000Z</time>
      </trkpt>
      <trkpt lat="47.51409" lon="16.04207">
        <ele>945.516357</ele>
        <time>2026-07-07T17:19:52.000Z</time>
      </trkpt>
      <trkpt lat="47.51406" lon="16.04211">
        <ele>945.616668</ele>
        <time>2026-07-07T17:19:53.000Z</time>
      </trkpt>
      <trkpt lat="47.51402" lon="16.04216">
        <ele>945.71988</ele>
        <time>2026-07-07T17:19:54.000Z</time>
      </trkpt>
      <trkpt lat="47.51398" lon="16.0422">
        <ele>945.824611</ele>
        <time>2026-07-07T17:19:55.000Z</time>
      </trkpt>
      <trkpt lat="47.51395" lon="16.04224">
        <ele>945.930196</ele>
        <time>2026-07-07T17:19:56.000Z</time>
      </trkpt>
      <trkpt lat="47.51391" lon="16.04228">
        <ele>946.032296</ele>
        <time>2026-07-07T17:19:57.000Z</time>
      </trkpt>
      <trkpt lat="47.51387" lon="16.04231">
        <ele>946.138164</ele>
        <time>2026-07-07T17:19:58.000Z</time>
      </trkpt>
      <trkpt lat="47.51383" lon="16.04235">
        <ele>946.24086</ele>
        <time>2026-07-07T17:19:59.000Z</time>
      </trkpt>
      <trkpt lat="47.51378" lon="16.04238">
        <ele>946.345453</ele>
        <time>2026-07-07T17:20:00.000Z</time>
      </trkpt>
      <trkpt lat="47.51374" lon="16.0424">
        <ele>946.447403</ele>
        <time>2026-07-07T17:20:01.000Z</time>
      </trkpt>
      <trkpt lat="47.5137" lon="16.04243">
        <ele>946.549962</ele>
        <time>2026-07-07T17:20:02.000Z</time>
      </trkpt>
      <trkpt lat="47.51366" lon="16.04246">
        <ele>946.649873</ele>
        <time>2026-07-07T17:20:03.000Z</time>
      </trkpt>
      <trkpt lat="47.51362" lon="16.04248">
        <ele>946.745417</ele>
        <time>2026-07-07T17:20:04.000Z</time>
      </trkpt>
      <trkpt lat="47.51358" lon="16.0425">
        <ele>946.840426</ele>
        <time>2026-07-07T17:20:05.000Z</time>
      </trkpt>
      <trkpt lat="47.51354" lon="16.04252">
        <ele>946.93443</ele>
        <time>2026-07-07T17:20:06.000Z</time>
      </trkpt>
      <trkpt lat="47.5135" lon="16.04254">
        <ele>947.02683</ele>
        <time>2026-07-07T17:20:07.000Z</time>
      </trkpt>
      <trkpt lat="47.51346" lon="16.04256">
        <ele>947.116627</ele>
        <time>2026-07-07T17:20:08.000Z</time>
      </trkpt>
      <trkpt lat="47.51342" lon="16.04258">
        <ele>947.206423</ele>
        <time>2026-07-07T17:20:09.000Z</time>
      </trkpt>
      <trkpt lat="47.51338" lon="16.0426">
        <ele>947.299957</ele>
        <time>2026-07-07T17:20:10.000Z</time>
      </trkpt>
      <trkpt lat="47.51334" lon="16.04262">
        <ele>947.395495</ele>
        <time>2026-07-07T17:20:11.000Z</time>
      </trkpt>
      <trkpt lat="47.5133" lon="16.04263">
        <ele>947.491032</ele>
        <time>2026-07-07T17:20:12.000Z</time>
      </trkpt>
      <trkpt lat="47.51326" lon="16.04264">
        <ele>947.584088</ele>
        <time>2026-07-07T17:20:13.000Z</time>
      </trkpt>
      <trkpt lat="47.51321" lon="16.04265">
        <ele>947.683204</ele>
        <time>2026-07-07T17:20:14.000Z</time>
      </trkpt>
      <trkpt lat="47.51317" lon="16.04266">
        <ele>947.784119</ele>
        <time>2026-07-07T17:20:15.000Z</time>
      </trkpt>
      <trkpt lat="47.51312" lon="16.04267">
        <ele>947.885437</ele>
        <time>2026-07-07T17:20:16.000Z</time>
      </trkpt>
      <trkpt lat="47.51308" lon="16.04268">
        <ele>947.986755</ele>
        <time>2026-07-07T17:20:17.000Z</time>
      </trkpt>
      <trkpt lat="47.51303" lon="16.04269">
        <ele>948.094483</ele>
        <time>2026-07-07T17:20:18.000Z</time>
      </trkpt>
      <trkpt lat="47.51298" lon="16.04269">
        <ele>948.201623</ele>
        <time>2026-07-07T17:20:19.000Z</time>
      </trkpt>
      <trkpt lat="47.51294" lon="16.0427">
        <ele>948.306541</ele>
        <time>2026-07-07T17:20:20.000Z</time>
      </trkpt>
      <trkpt lat="47.51289" lon="16.0427">
        <ele>948.406838</ele>
        <time>2026-07-07T17:20:21.000Z</time>
      </trkpt>
      <trkpt lat="47.51285" lon="16.0427">
        <ele>948.507135</ele>
        <time>2026-07-07T17:20:22.000Z</time>
      </trkpt>
      <trkpt lat="47.5128" lon="16.04271">
        <ele>948.60751</ele>
        <time>2026-07-07T17:20:23.000Z</time>
      </trkpt>
      <trkpt lat="47.51276" lon="16.04271">
        <ele>948.701135</ele>
        <time>2026-07-07T17:20:24.000Z</time>
      </trkpt>
      <trkpt lat="47.51272" lon="16.04272">
        <ele>948.792733</ele>
        <time>2026-07-07T17:20:25.000Z</time>
      </trkpt>
      <trkpt lat="47.51268" lon="16.04272">
        <ele>948.886297</ele>
        <time>2026-07-07T17:20:26.000Z</time>
      </trkpt>
      <trkpt lat="47.51264" lon="16.04272">
        <ele>948.971027</ele>
        <time>2026-07-07T17:20:27.000Z</time>
      </trkpt>
      <trkpt lat="47.5126" lon="16.04272">
        <ele>949.053533</ele>
        <time>2026-07-07T17:20:28.000Z</time>
      </trkpt>
      <trkpt lat="47.51257" lon="16.04273">
        <ele>949.131825</ele>
        <time>2026-07-07T17:20:29.000Z</time>
      </trkpt>
      <trkpt lat="47.51253" lon="16.04273">
        <ele>949.205363</ele>
        <time>2026-07-07T17:20:30.000Z</time>
      </trkpt>
      <trkpt lat="47.5125" lon="16.04273">
        <ele>949.276756</ele>
        <time>2026-07-07T17:20:31.000Z</time>
      </trkpt>
      <trkpt lat="47.51247" lon="16.04274">
        <ele>949.348259</ele>
        <time>2026-07-07T17:20:32.000Z</time>
      </trkpt>
      <trkpt lat="47.51244" lon="16.04274">
        <ele>949.415056</ele>
        <time>2026-07-07T17:20:33.000Z</time>
      </trkpt>
      <trkpt lat="47.51241" lon="16.04274">
        <ele>949.477472</ele>
        <time>2026-07-07T17:20:34.000Z</time>
      </trkpt>
      <trkpt lat="47.51238" lon="16.04274">
        <ele>949.581646</ele>
        <time>2026-07-07T17:20:35.000Z</time>
      </trkpt>
      <trkpt lat="47.51236" lon="16.04273">
        <ele>949.749005</ele>
        <time>2026-07-07T17:20:36.000Z</time>
      </trkpt>
      <trkpt lat="47.51233" lon="16.04273">
        <ele>949.918028</ele>
        <time>2026-07-07T17:20:37.000Z</time>
      </trkpt>
      <trkpt lat="47.5123" lon="16.04272">
        <ele>950.074202</ele>
        <time>2026-07-07T17:20:38.000Z</time>
      </trkpt>
      <trkpt lat="47.51228" lon="16.04272">
        <ele>950.236513</ele>
        <time>2026-07-07T17:20:39.000Z</time>
      </trkpt>
      <trkpt lat="47.51225" lon="16.04271">
        <ele>950.392687</ele>
        <time>2026-07-07T17:20:40.000Z</time>
      </trkpt>
      <trkpt lat="47.51223" lon="16.04271">
        <ele>950.548862</ele>
        <time>2026-07-07T17:20:41.000Z</time>
      </trkpt>
      <trkpt lat="47.5122" lon="16.0427">
        <ele>950.698903</ele>
        <time>2026-07-07T17:20:42.000Z</time>
      </trkpt>
      <trkpt lat="47.51218" lon="16.0427">
        <ele>950.832163</ele>
        <time>2026-07-07T17:20:43.000Z</time>
      </trkpt>
      <trkpt lat="47.51216" lon="16.04269">
        <ele>950.951631</ele>
        <time>2026-07-07T17:20:44.000Z</time>
      </trkpt>
      <trkpt lat="47.51215" lon="16.04268">
        <ele>951.059147</ele>
        <time>2026-07-07T17:20:45.000Z</time>
      </trkpt>
      <trkpt lat="47.51213" lon="16.04266">
        <ele>951.179586</ele>
        <time>2026-07-07T17:20:46.000Z</time>
      </trkpt>
      <trkpt lat="47.51213" lon="16.04263">
        <ele>951.300689</ele>
        <time>2026-07-07T17:20:47.000Z</time>
      </trkpt>
      <trkpt lat="47.51213" lon="16.0426">
        <ele>951.426741</ele>
        <time>2026-07-07T17:20:48.000Z</time>
      </trkpt>
      <trkpt lat="47.51214" lon="16.04257">
        <ele>951.551891</ele>
        <time>2026-07-07T17:20:49.000Z</time>
      </trkpt>
      <trkpt lat="47.51214" lon="16.04255">
        <ele>951.667566</ele>
        <time>2026-07-07T17:20:50.000Z</time>
      </trkpt>
      <trkpt lat="47.51215" lon="16.04252">
        <ele>951.780728</ele>
        <time>2026-07-07T17:20:51.000Z</time>
      </trkpt>
      <trkpt lat="47.51216" lon="16.0425">
        <ele>951.895104</ele>
        <time>2026-07-07T17:20:52.000Z</time>
      </trkpt>
      <trkpt lat="47.51217" lon="16.04248">
        <ele>952.010778</ele>
        <time>2026-07-07T17:20:53.000Z</time>
      </trkpt>
      <trkpt lat="47.51218" lon="16.04245">
        <ele>952.131708</ele>
        <time>2026-07-07T17:20:54.000Z</time>
      </trkpt>
      <trkpt lat="47.51218" lon="16.04242">
        <ele>952.251174</ele>
        <time>2026-07-07T17:20:55.000Z</time>
      </trkpt>
      <trkpt lat="47.5122" lon="16.0424">
        <ele>952.376034</ele>
        <time>2026-07-07T17:20:56.000Z</time>
      </trkpt>
      <trkpt lat="47.51221" lon="16.04238">
        <ele>952.483473</ele>
        <time>2026-07-07T17:20:57.000Z</time>
      </trkpt>
      <trkpt lat="47.51221" lon="16.04235">
        <ele>952.595383</ele>
        <time>2026-07-07T17:20:58.000Z</time>
      </trkpt>
      <trkpt lat="47.51222" lon="16.04233">
        <ele>952.71384</ele>
        <time>2026-07-07T17:20:59.000Z</time>
      </trkpt>
      <trkpt lat="47.51223" lon="16.04231">
        <ele>952.809183</ele>
        <time>2026-07-07T17:21:00.000Z</time>
      </trkpt>
      <trkpt lat="47.51224" lon="16.04228">
        <ele>952.922345</ele>
        <time>2026-07-07T17:21:01.000Z</time>
      </trkpt>
      <trkpt lat="47.51224" lon="16.04226">
        <ele>953.03941</ele>
        <time>2026-07-07T17:21:02.000Z</time>
      </trkpt>
      <trkpt lat="47.51224" lon="16.04223">
        <ele>953.153826</ele>
        <time>2026-07-07T17:21:03.000Z</time>
      </trkpt>
      <trkpt lat="47.51225" lon="16.0422">
        <ele>953.265327</ele>
        <time>2026-07-07T17:21:04.000Z</time>
      </trkpt>
      <trkpt lat="47.51225" lon="16.04218">
        <ele>953.378396</ele>
        <time>2026-07-07T17:21:05.000Z</time>
      </trkpt>
      <trkpt lat="47.51225" lon="16.04215">
        <ele>953.495461</ele>
        <time>2026-07-07T17:21:06.000Z</time>
      </trkpt>
      <trkpt lat="47.51226" lon="16.04212">
        <ele>953.613918</ele>
        <time>2026-07-07T17:21:07.000Z</time>
      </trkpt>
      <trkpt lat="47.51227" lon="16.0421">
        <ele>953.724856</ele>
        <time>2026-07-07T17:21:08.000Z</time>
      </trkpt>
      <trkpt lat="47.51228" lon="16.04208">
        <ele>953.830342</ele>
        <time>2026-07-07T17:21:09.000Z</time>
      </trkpt>
      <trkpt lat="47.51228" lon="16.04205">
        <ele>953.947407</ele>
        <time>2026-07-07T17:21:10.000Z</time>
      </trkpt>
      <trkpt lat="47.51228" lon="16.04202">
        <ele>954.053579</ele>
        <time>2026-07-07T17:21:11.000Z</time>
      </trkpt>
      <trkpt lat="47.51229" lon="16.042">
        <ele>954.165081</ele>
        <time>2026-07-07T17:21:12.000Z</time>
      </trkpt>
      <trkpt lat="47.51229" lon="16.04197">
        <ele>954.274103</ele>
        <time>2026-07-07T17:21:13.000Z</time>
      </trkpt>
      <trkpt lat="47.5123" lon="16.04195">
        <ele>954.383125</ele>
        <time>2026-07-07T17:21:14.000Z</time>
      </trkpt>
      <trkpt lat="47.5123" lon="16.04192">
        <ele>954.489298</ele>
        <time>2026-07-07T17:21:15.000Z</time>
      </trkpt>
      <trkpt lat="47.51231" lon="16.0419">
        <ele>954.59832</ele>
        <time>2026-07-07T17:21:16.000Z</time>
      </trkpt>
      <trkpt lat="47.51231" lon="16.04187">
        <ele>954.711895</ele>
        <time>2026-07-07T17:21:17.000Z</time>
      </trkpt>
      <trkpt lat="47.51231" lon="16.04185">
        <ele>954.816614</ele>
        <time>2026-07-07T17:21:18.000Z</time>
      </trkpt>
      <trkpt lat="47.51231" lon="16.04182">
        <ele>954.921149</ele>
        <time>2026-07-07T17:21:19.000Z</time>
      </trkpt>
      <trkpt lat="47.51231" lon="16.04179">
        <ele>955.038229</ele>
        <time>2026-07-07T17:21:20.000Z</time>
      </trkpt>
      <trkpt lat="47.51231" lon="16.04176">
        <ele>955.160121</ele>
        <time>2026-07-07T17:21:21.000Z</time>
      </trkpt>
      <trkpt lat="47.51231" lon="16.04174">
        <ele>955.25807</ele>
        <time>2026-07-07T17:21:22.000Z</time>
      </trkpt>
      <trkpt lat="47.51232" lon="16.04172">
        <ele>955.365499</ele>
        <time>2026-07-07T17:21:23.000Z</time>
      </trkpt>
      <trkpt lat="47.51232" lon="16.04169">
        <ele>955.470218</ele>
        <time>2026-07-07T17:21:24.000Z</time>
      </trkpt>
      <trkpt lat="47.51232" lon="16.04167">
        <ele>955.575484</ele>
        <time>2026-07-07T17:21:25.000Z</time>
      </trkpt>
      <trkpt lat="47.51232" lon="16.04164">
        <ele>955.673434</ele>
        <time>2026-07-07T17:21:26.000Z</time>
      </trkpt>
      <trkpt lat="47.51233" lon="16.04162">
        <ele>955.780862</ele>
        <time>2026-07-07T17:21:27.000Z</time>
      </trkpt>
      <trkpt lat="47.51233" lon="16.04159">
        <ele>955.885581</ele>
        <time>2026-07-07T17:21:28.000Z</time>
      </trkpt>
      <trkpt lat="47.51233" lon="16.04157">
        <ele>956.001163</ele>
        <time>2026-07-07T17:21:29.000Z</time>
      </trkpt>
      <trkpt lat="47.51234" lon="16.04154">
        <ele>956.115579</ele>
        <time>2026-07-07T17:21:30.000Z</time>
      </trkpt>
      <trkpt lat="47.51234" lon="16.04151">
        <ele>956.221751</ele>
        <time>2026-07-07T17:21:31.000Z</time>
      </trkpt>
      <trkpt lat="47.51234" lon="16.04149">
        <ele>956.321061</ele>
        <time>2026-07-07T17:21:32.000Z</time>
      </trkpt>
      <trkpt lat="47.51235" lon="16.04147">
        <ele>956.427233</ele>
        <time>2026-07-07T17:21:33.000Z</time>
      </trkpt>
      <trkpt lat="47.51235" lon="16.04144">
        <ele>956.528265</ele>
        <time>2026-07-07T17:21:34.000Z</time>
      </trkpt>
      <trkpt lat="47.51235" lon="16.04142">
        <ele>956.633531</ele>
        <time>2026-07-07T17:21:35.000Z</time>
      </trkpt>
      <trkpt lat="47.51235" lon="16.04139">
        <ele>956.75495</ele>
        <time>2026-07-07T17:21:36.000Z</time>
      </trkpt>
      <trkpt lat="47.51236" lon="16.04136">
        <ele>956.866451</ele>
        <time>2026-07-07T17:21:37.000Z</time>
      </trkpt>
      <trkpt lat="47.51236" lon="16.04134">
        <ele>956.979519</ele>
        <time>2026-07-07T17:21:38.000Z</time>
      </trkpt>
      <trkpt lat="47.51236" lon="16.04131">
        <ele>957.093094</ele>
        <time>2026-07-07T17:21:39.000Z</time>
      </trkpt>
      <trkpt lat="47.51236" lon="16.04128">
        <ele>957.201811</ele>
        <time>2026-07-07T17:21:40.000Z</time>
      </trkpt>
      <trkpt lat="47.51236" lon="16.04126">
        <ele>957.316227</ele>
        <time>2026-07-07T17:21:41.000Z</time>
      </trkpt>
      <trkpt lat="47.51237" lon="16.04123">
        <ele>957.431809</ele>
        <time>2026-07-07T17:21:42.000Z</time>
      </trkpt>
      <trkpt lat="47.51237" lon="16.0412">
        <ele>957.549052</ele>
        <time>2026-07-07T17:21:43.000Z</time>
      </trkpt>
      <trkpt lat="47.51237" lon="16.04117">
        <ele>957.666117</ele>
        <time>2026-07-07T17:21:44.000Z</time>
      </trkpt>
      <trkpt lat="47.51238" lon="16.04115">
        <ele>957.78385</ele>
        <time>2026-07-07T17:21:45.000Z</time>
      </trkpt>
      <trkpt lat="47.51238" lon="16.04112">
        <ele>957.909902</ele>
        <time>2026-07-07T17:21:46.000Z</time>
      </trkpt>
      <trkpt lat="47.51238" lon="16.04108">
        <ele>958.04499</ele>
        <time>2026-07-07T17:21:47.000Z</time>
      </trkpt>
      <trkpt lat="47.51238" lon="16.04105">
        <ele>958.171042</ele>
        <time>2026-07-07T17:21:48.000Z</time>
      </trkpt>
      <trkpt lat="47.51239" lon="16.04102">
        <ele>958.297852</ele>
        <time>2026-07-07T17:21:49.000Z</time>
      </trkpt>
      <trkpt lat="47.51239" lon="16.04099">
        <ele>958.424662</ele>
        <time>2026-07-07T17:21:50.000Z</time>
      </trkpt>
      <trkpt lat="47.51239" lon="16.04096">
        <ele>958.550714</ele>
        <time>2026-07-07T17:21:51.000Z</time>
      </trkpt>
      <trkpt lat="47.51239" lon="16.04093">
        <ele>958.676766</ele>
        <time>2026-07-07T17:21:52.000Z</time>
      </trkpt>
      <trkpt lat="47.51239" lon="16.0409">
        <ele>958.802361</ele>
        <time>2026-07-07T17:21:53.000Z</time>
      </trkpt>
      <trkpt lat="47.51239" lon="16.04087">
        <ele>958.931985</ele>
        <time>2026-07-07T17:21:54.000Z</time>
      </trkpt>
      <trkpt lat="47.5124" lon="16.04084">
        <ele>959.058037</ele>
        <time>2026-07-07T17:21:55.000Z</time>
      </trkpt>
      <trkpt lat="47.5124" lon="16.04081">
        <ele>959.184089</ele>
        <time>2026-07-07T17:21:56.000Z</time>
      </trkpt>
      <trkpt lat="47.5124" lon="16.04078">
        <ele>959.318037</ele>
        <time>2026-07-07T17:21:57.000Z</time>
      </trkpt>
      <trkpt lat="47.5124" lon="16.04075">
        <ele>959.454115</ele>
        <time>2026-07-07T17:21:58.000Z</time>
      </trkpt>
      <trkpt lat="47.51241" lon="16.04072">
        <ele>959.585063</ele>
        <time>2026-07-07T17:21:59.000Z</time>
      </trkpt>
      <trkpt lat="47.51241" lon="16.04069">
        <ele>959.720151</ele>
        <time>2026-07-07T17:22:00.000Z</time>
      </trkpt>
      <trkpt lat="47.51241" lon="16.04065">
        <ele>959.854527</ele>
        <time>2026-07-07T17:22:01.000Z</time>
      </trkpt>
      <trkpt lat="47.51241" lon="16.04062">
        <ele>959.993758</ele>
        <time>2026-07-07T17:22:02.000Z</time>
      </trkpt>
      <trkpt lat="47.51242" lon="16.04059">
        <ele>960.135174</ele>
        <time>2026-07-07T17:22:03.000Z</time>
      </trkpt>
      <trkpt lat="47.51242" lon="16.04055">
        <ele>960.279483</ele>
        <time>2026-07-07T17:22:04.000Z</time>
      </trkpt>
      <trkpt lat="47.51243" lon="16.04052">
        <ele>960.42907</ele>
        <time>2026-07-07T17:22:05.000Z</time>
      </trkpt>
      <trkpt lat="47.51243" lon="16.04048">
        <ele>960.576593</ele>
        <time>2026-07-07T17:22:06.000Z</time>
      </trkpt>
      <trkpt lat="47.51243" lon="16.04045">
        <ele>960.681474</ele>
        <time>2026-07-07T17:22:07.000Z</time>
      </trkpt>
      <trkpt lat="47.51244" lon="16.04041">
        <ele>960.742955</ele>
        <time>2026-07-07T17:22:08.000Z</time>
      </trkpt>
      <trkpt lat="47.51244" lon="16.04037">
        <ele>960.805388</ele>
        <time>2026-07-07T17:22:09.000Z</time>
      </trkpt>
      <trkpt lat="47.51245" lon="16.04034">
        <ele>960.865692</ele>
        <time>2026-07-07T17:22:10.000Z</time>
      </trkpt>
      <trkpt lat="47.51245" lon="16.0403">
        <ele>960.930824</ele>
        <time>2026-07-07T17:22:11.000Z</time>
      </trkpt>
      <trkpt lat="47.51246" lon="16.04026">
        <ele>960.99717</ele>
        <time>2026-07-07T17:22:12.000Z</time>
      </trkpt>
      <trkpt lat="47.51246" lon="16.04022">
        <ele>961.062846</ele>
        <time>2026-07-07T17:22:13.000Z</time>
      </trkpt>
      <trkpt lat="47.51246" lon="16.04018">
        <ele>961.126367</ele>
        <time>2026-07-07T17:22:14.000Z</time>
      </trkpt>
      <trkpt lat="47.51247" lon="16.04014">
        <ele>961.194165</ele>
        <time>2026-07-07T17:22:15.000Z</time>
      </trkpt>
      <trkpt lat="47.51248" lon="16.0401">
        <ele>961.261962</ele>
        <time>2026-07-07T17:22:16.000Z</time>
      </trkpt>
      <trkpt lat="47.51248" lon="16.04006">
        <ele>961.328707</ele>
        <time>2026-07-07T17:22:17.000Z</time>
      </trkpt>
      <trkpt lat="47.51249" lon="16.04002">
        <ele>961.398682</ele>
        <time>2026-07-07T17:22:18.000Z</time>
      </trkpt>
      <trkpt lat="47.51249" lon="16.03998">
        <ele>961.467514</ele>
        <time>2026-07-07T17:22:19.000Z</time>
      </trkpt>
      <trkpt lat="47.5125" lon="16.03994">
        <ele>961.534259</ele>
        <time>2026-07-07T17:22:20.000Z</time>
      </trkpt>
      <trkpt lat="47.51251" lon="16.0399">
        <ele>961.605238</ele>
        <time>2026-07-07T17:22:21.000Z</time>
      </trkpt>
      <trkpt lat="47.51251" lon="16.03985">
        <ele>961.676838</ele>
        <time>2026-07-07T17:22:22.000Z</time>
      </trkpt>
      <trkpt lat="47.51252" lon="16.03981">
        <ele>961.744636</ele>
        <time>2026-07-07T17:22:23.000Z</time>
      </trkpt>
      <trkpt lat="47.51253" lon="16.03977">
        <ele>961.814023</ele>
        <time>2026-07-07T17:22:24.000Z</time>
      </trkpt>
      <trkpt lat="47.51253" lon="16.03973">
        <ele>961.883997</ele>
        <time>2026-07-07T17:22:25.000Z</time>
      </trkpt>
      <trkpt lat="47.51254" lon="16.03969">
        <ele>961.955588</ele>
        <time>2026-07-07T17:22:26.000Z</time>
      </trkpt>
      <trkpt lat="47.51254" lon="16.03964">
        <ele>962.028796</ele>
        <time>2026-07-07T17:22:27.000Z</time>
      </trkpt>
      <trkpt lat="47.51255" lon="16.0396">
        <ele>962.096461</ele>
        <time>2026-07-07T17:22:28.000Z</time>
      </trkpt>
      <trkpt lat="47.51255" lon="16.03956">
        <ele>962.171288</ele>
        <time>2026-07-07T17:22:29.000Z</time>
      </trkpt>
      <trkpt lat="47.51256" lon="16.03951">
        <ele>962.247055</ele>
        <time>2026-07-07T17:22:30.000Z</time>
      </trkpt>
      <trkpt lat="47.51256" lon="16.03947">
        <ele>962.320263</ele>
        <time>2026-07-07T17:22:31.000Z</time>
      </trkpt>
      <trkpt lat="47.51257" lon="16.03943">
        <ele>962.392306</ele>
        <time>2026-07-07T17:22:32.000Z</time>
      </trkpt>
      <trkpt lat="47.51258" lon="16.03938">
        <ele>962.468073</ele>
        <time>2026-07-07T17:22:33.000Z</time>
      </trkpt>
      <trkpt lat="47.51258" lon="16.03934">
        <ele>962.540646</ele>
        <time>2026-07-07T17:22:34.000Z</time>
      </trkpt>
      <trkpt lat="47.51259" lon="16.03929">
        <ele>962.614296</ele>
        <time>2026-07-07T17:22:35.000Z</time>
      </trkpt>
      <trkpt lat="47.51259" lon="16.03925">
        <ele>962.689123</ele>
        <time>2026-07-07T17:22:36.000Z</time>
      </trkpt>
      <trkpt lat="47.5126" lon="16.0392">
        <ele>962.76395</ele>
        <time>2026-07-07T17:22:37.000Z</time>
      </trkpt>
      <trkpt lat="47.5126" lon="16.03916">
        <ele>962.840396</ele>
        <time>2026-07-07T17:22:38.000Z</time>
      </trkpt>
      <trkpt lat="47.51261" lon="16.03911">
        <ele>962.919364</ele>
        <time>2026-07-07T17:22:39.000Z</time>
      </trkpt>
      <trkpt lat="47.51262" lon="16.03906">
        <ele>962.998333</ele>
        <time>2026-07-07T17:22:40.000Z</time>
      </trkpt>
      <trkpt lat="47.51262" lon="16.03902">
        <ele>963.075202</ele>
        <time>2026-07-07T17:22:41.000Z</time>
      </trkpt>
      <trkpt lat="47.51263" lon="16.03897">
        <ele>963.149371</ele>
        <time>2026-07-07T17:22:42.000Z</time>
      </trkpt>
      <trkpt lat="47.51264" lon="16.03893">
        <ele>963.225138</ele>
        <time>2026-07-07T17:22:43.000Z</time>
      </trkpt>
      <trkpt lat="47.51264" lon="16.03888">
        <ele>963.299331</ele>
        <time>2026-07-07T17:22:44.000Z</time>
      </trkpt>
      <trkpt lat="47.51264" lon="16.03884">
        <ele>963.375157</ele>
        <time>2026-07-07T17:22:45.000Z</time>
      </trkpt>
      <trkpt lat="47.51265" lon="16.03879">
        <ele>963.45614</ele>
        <time>2026-07-07T17:22:46.000Z</time>
      </trkpt>
      <trkpt lat="47.51265" lon="16.03874">
        <ele>963.532586</ele>
        <time>2026-07-07T17:22:47.000Z</time>
      </trkpt>
      <trkpt lat="47.51266" lon="16.03869">
        <ele>963.613313</ele>
        <time>2026-07-07T17:22:48.000Z</time>
      </trkpt>
      <trkpt lat="47.51266" lon="16.03865">
        <ele>963.689759</ele>
        <time>2026-07-07T17:22:49.000Z</time>
      </trkpt>
      <trkpt lat="47.51267" lon="16.0386">
        <ele>963.767825</ele>
        <time>2026-07-07T17:22:50.000Z</time>
      </trkpt>
      <trkpt lat="47.51267" lon="16.03855">
        <ele>963.845891</ele>
        <time>2026-07-07T17:22:51.000Z</time>
      </trkpt>
      <trkpt lat="47.51267" lon="16.03851">
        <ele>963.920084</ele>
        <time>2026-07-07T17:22:52.000Z</time>
      </trkpt>
      <trkpt lat="47.51268" lon="16.03846">
        <ele>963.99653</ele>
        <time>2026-07-07T17:22:53.000Z</time>
      </trkpt>
      <trkpt lat="47.51268" lon="16.03842">
        <ele>964.074256</ele>
        <time>2026-07-07T17:22:54.000Z</time>
      </trkpt>
      <trkpt lat="47.51269" lon="16.03837">
        <ele>964.151715</ele>
        <time>2026-07-07T17:22:55.000Z</time>
      </trkpt>
      <trkpt lat="47.51269" lon="16.03832">
        <ele>964.227541</ele>
        <time>2026-07-07T17:22:56.000Z</time>
      </trkpt>
      <trkpt lat="47.51269" lon="16.03828">
        <ele>964.302012</ele>
        <time>2026-07-07T17:22:57.000Z</time>
      </trkpt>
      <trkpt lat="47.5127" lon="16.03823">
        <ele>964.379471</ele>
        <time>2026-07-07T17:22:58.000Z</time>
      </trkpt>
      <trkpt lat="47.5127" lon="16.03819">
        <ele>964.450191</ele>
        <time>2026-07-07T17:22:59.000Z</time>
      </trkpt>
      <trkpt lat="47.51269" lon="16.03814">
        <ele>964.523035</ele>
        <time>2026-07-07T17:23:00.000Z</time>
      </trkpt>
      <trkpt lat="47.51269" lon="16.0381">
        <ele>964.591482</ele>
        <time>2026-07-07T17:23:01.000Z</time>
      </trkpt>
      <trkpt lat="47.51268" lon="16.03806">
        <ele>964.661464</ele>
        <time>2026-07-07T17:23:02.000Z</time>
      </trkpt>
      <trkpt lat="47.51266" lon="16.03803">
        <ele>964.726729</ele>
        <time>2026-07-07T17:23:03.000Z</time>
      </trkpt>
      <trkpt lat="47.51264" lon="16.038">
        <ele>964.799476</ele>
        <time>2026-07-07T17:23:04.000Z</time>
      </trkpt>
      <trkpt lat="47.51262" lon="16.03797">
        <ele>964.872132</ele>
        <time>2026-07-07T17:23:05.000Z</time>
      </trkpt>
      <trkpt lat="47.5126" lon="16.03794">
        <ele>964.937882</ele>
        <time>2026-07-07T17:23:06.000Z</time>
      </trkpt>
      <trkpt lat="47.51257" lon="16.03792">
        <ele>965.009382</ele>
        <time>2026-07-07T17:23:07.000Z</time>
      </trkpt>
      <trkpt lat="47.51255" lon="16.0379">
        <ele>965.124331</ele>
        <time>2026-07-07T17:23:08.000Z</time>
      </trkpt>
      <trkpt lat="47.51253" lon="16.03787">
        <ele>965.245251</ele>
        <time>2026-07-07T17:23:09.000Z</time>
      </trkpt>
      <trkpt lat="47.51251" lon="16.03785">
        <ele>965.358982</ele>
        <time>2026-07-07T17:23:10.000Z</time>
      </trkpt>
      <trkpt lat="47.51248" lon="16.03783">
        <ele>965.484423</ele>
        <time>2026-07-07T17:23:11.000Z</time>
      </trkpt>
      <trkpt lat="47.51246" lon="16.03782">
        <ele>965.602918</ele>
        <time>2026-07-07T17:23:12.000Z</time>
      </trkpt>
      <trkpt lat="47.51244" lon="16.0378">
        <ele>965.720506</ele>
        <time>2026-07-07T17:23:13.000Z</time>
      </trkpt>
      <trkpt lat="47.51241" lon="16.03778">
        <ele>965.841194</ele>
        <time>2026-07-07T17:23:14.000Z</time>
      </trkpt>
      <trkpt lat="47.51239" lon="16.03776">
        <ele>965.961158</ele>
        <time>2026-07-07T17:23:15.000Z</time>
      </trkpt>
      <trkpt lat="47.51237" lon="16.03774">
        <ele>966.080384</ele>
        <time>2026-07-07T17:23:16.000Z</time>
      </trkpt>
      <trkpt lat="47.51234" lon="16.03772">
        <ele>966.212849</ele>
        <time>2026-07-07T17:23:17.000Z</time>
      </trkpt>
      <trkpt lat="47.51232" lon="16.0377">
        <ele>966.334341</ele>
        <time>2026-07-07T17:23:18.000Z</time>
      </trkpt>
      <trkpt lat="47.5123" lon="16.03768">
        <ele>966.452837</ele>
        <time>2026-07-07T17:23:19.000Z</time>
      </trkpt>
      <trkpt lat="47.51227" lon="16.03767">
        <ele>966.571492</ele>
        <time>2026-07-07T17:23:20.000Z</time>
      </trkpt>
      <trkpt lat="47.51225" lon="16.03765">
        <ele>966.696798</ele>
        <time>2026-07-07T17:23:21.000Z</time>
      </trkpt>
      <trkpt lat="47.51223" lon="16.03763">
        <ele>966.810529</ele>
        <time>2026-07-07T17:23:22.000Z</time>
      </trkpt>
      <trkpt lat="47.5122" lon="16.03761">
        <ele>966.933069</ele>
        <time>2026-07-07T17:23:23.000Z</time>
      </trkpt>
      <trkpt lat="47.51218" lon="16.03759">
        <ele>967.053033</ele>
        <time>2026-07-07T17:23:24.000Z</time>
      </trkpt>
      <trkpt lat="47.51216" lon="16.03757">
        <ele>967.170621</ele>
        <time>2026-07-07T17:23:25.000Z</time>
      </trkpt>
      <trkpt lat="47.51214" lon="16.03756">
        <ele>967.277227</ele>
        <time>2026-07-07T17:23:26.000Z</time>
      </trkpt>
      <trkpt lat="47.51212" lon="16.03754">
        <ele>967.382268</ele>
        <time>2026-07-07T17:23:27.000Z</time>
      </trkpt>
      <trkpt lat="47.5121" lon="16.03752">
        <ele>967.488874</ele>
        <time>2026-07-07T17:23:28.000Z</time>
      </trkpt>
      <trkpt lat="47.51208" lon="16.0375">
        <ele>967.58781</ele>
        <time>2026-07-07T17:23:29.000Z</time>
      </trkpt>
      <trkpt lat="47.51207" lon="16.03748">
        <ele>967.68398</ele>
        <time>2026-07-07T17:23:30.000Z</time>
      </trkpt>
      <trkpt lat="47.51205" lon="16.03746">
        <ele>967.782881</ele>
        <time>2026-07-07T17:23:31.000Z</time>
      </trkpt>
      <trkpt lat="47.51203" lon="16.03744">
        <ele>967.881816</ele>
        <time>2026-07-07T17:23:32.000Z</time>
      </trkpt>
      <trkpt lat="47.51201" lon="16.03742">
        <ele>967.982506</ele>
        <time>2026-07-07T17:23:33.000Z</time>
      </trkpt>
      <trkpt lat="47.51199" lon="16.03741">
        <ele>968.085247</ele>
        <time>2026-07-07T17:23:34.000Z</time>
      </trkpt>
      <trkpt lat="47.51197" lon="16.03739">
        <ele>968.187365</ele>
        <time>2026-07-07T17:23:35.000Z</time>
      </trkpt>
      <trkpt lat="47.51195" lon="16.03737">
        <ele>968.293971</ele>
        <time>2026-07-07T17:23:36.000Z</time>
      </trkpt>
      <trkpt lat="47.51193" lon="16.03735">
        <ele>968.403899</ele>
        <time>2026-07-07T17:23:37.000Z</time>
      </trkpt>
      <trkpt lat="47.51191" lon="16.03733">
        <ele>968.515996</ele>
        <time>2026-07-07T17:23:38.000Z</time>
      </trkpt>
      <trkpt lat="47.51189" lon="16.03731">
        <ele>968.625924</ele>
        <time>2026-07-07T17:23:39.000Z</time>
      </trkpt>
      <trkpt lat="47.51187" lon="16.0373">
        <ele>968.732531</ele>
        <time>2026-07-07T17:23:40.000Z</time>
      </trkpt>
      <trkpt lat="47.51185" lon="16.03728">
        <ele>968.855071</ele>
        <time>2026-07-07T17:23:41.000Z</time>
      </trkpt>
      <trkpt lat="47.51183" lon="16.03726">
        <ele>968.968803</ele>
        <time>2026-07-07T17:23:42.000Z</time>
      </trkpt>
      <trkpt lat="47.5118" lon="16.03724">
        <ele>969.092764</ele>
        <time>2026-07-07T17:23:43.000Z</time>
      </trkpt>
      <trkpt lat="47.51178" lon="16.03722">
        <ele>969.207238</ele>
        <time>2026-07-07T17:23:44.000Z</time>
      </trkpt>
      <trkpt lat="47.51176" lon="16.03721">
        <ele>969.321726</ele>
        <time>2026-07-07T17:23:45.000Z</time>
      </trkpt>
      <trkpt lat="47.51174" lon="16.03719">
        <ele>969.43386</ele>
        <time>2026-07-07T17:23:46.000Z</time>
      </trkpt>
      <trkpt lat="47.51171" lon="16.03718">
        <ele>969.544181</ele>
        <time>2026-07-07T17:23:47.000Z</time>
      </trkpt>
      <trkpt lat="47.51169" lon="16.03716">
        <ele>969.657449</ele>
        <time>2026-07-07T17:23:48.000Z</time>
      </trkpt>
      <trkpt lat="47.51167" lon="16.03715">
        <ele>969.76777</ele>
        <time>2026-07-07T17:23:49.000Z</time>
      </trkpt>
      <trkpt lat="47.51165" lon="16.03713">
        <ele>969.875343</ele>
        <time>2026-07-07T17:23:50.000Z</time>
      </trkpt>
      <trkpt lat="47.51163" lon="16.03712">
        <ele>969.985663</ele>
        <time>2026-07-07T17:23:51.000Z</time>
      </trkpt>
      <trkpt lat="47.51161" lon="16.0371">
        <ele>970.090704</ele>
        <time>2026-07-07T17:23:52.000Z</time>
      </trkpt>
      <trkpt lat="47.51159" lon="16.03708">
        <ele>970.187951</ele>
        <time>2026-07-07T17:23:53.000Z</time>
      </trkpt>
      <trkpt lat="47.51157" lon="16.03707">
        <ele>970.264195</ele>
        <time>2026-07-07T17:23:54.000Z</time>
      </trkpt>
      <trkpt lat="47.51156" lon="16.03706">
        <ele>970.346428</ele>
        <time>2026-07-07T17:23:55.000Z</time>
      </trkpt>
      <trkpt lat="47.51154" lon="16.03705">
        <ele>970.433996</ele>
        <time>2026-07-07T17:23:56.000Z</time>
      </trkpt>
      <trkpt lat="47.51152" lon="16.03704">
        <ele>970.531174</ele>
        <time>2026-07-07T17:23:57.000Z</time>
      </trkpt>
      <trkpt lat="47.5115" lon="16.03702">
        <ele>970.635606</ele>
        <time>2026-07-07T17:23:58.000Z</time>
      </trkpt>
      <trkpt lat="47.51148" lon="16.037">
        <ele>970.747286</ele>
        <time>2026-07-07T17:23:59.000Z</time>
      </trkpt>
      <trkpt lat="47.51147" lon="16.03698">
        <ele>970.839078</ele>
        <time>2026-07-07T17:24:00.000Z</time>
      </trkpt>
      <trkpt lat="47.51146" lon="16.03695">
        <ele>970.939197</ele>
        <time>2026-07-07T17:24:01.000Z</time>
      </trkpt>
      <trkpt lat="47.51147" lon="16.03691">
        <ele>971.041129</ele>
        <time>2026-07-07T17:24:02.000Z</time>
      </trkpt>
      <trkpt lat="47.51147" lon="16.03688">
        <ele>971.14052</ele>
        <time>2026-07-07T17:24:03.000Z</time>
      </trkpt>
      <trkpt lat="47.51147" lon="16.03685">
        <ele>971.226651</ele>
        <time>2026-07-07T17:24:04.000Z</time>
      </trkpt>
      <trkpt lat="47.51148" lon="16.03683">
        <ele>971.31276</ele>
        <time>2026-07-07T17:24:05.000Z</time>
      </trkpt>
      <trkpt lat="47.51148" lon="16.0368">
        <ele>971.396941</ele>
        <time>2026-07-07T17:24:06.000Z</time>
      </trkpt>
      <trkpt lat="47.51149" lon="16.03678">
        <ele>971.477154</ele>
        <time>2026-07-07T17:24:07.000Z</time>
      </trkpt>
      <trkpt lat="47.51149" lon="16.03675">
        <ele>971.556195</ele>
        <time>2026-07-07T17:24:08.000Z</time>
      </trkpt>
      <trkpt lat="47.5115" lon="16.03673">
        <ele>971.636408</ele>
        <time>2026-07-07T17:24:09.000Z</time>
      </trkpt>
      <trkpt lat="47.5115" lon="16.0367">
        <ele>971.705456</ele>
        <time>2026-07-07T17:24:10.000Z</time>
      </trkpt>
      <trkpt lat="47.5115" lon="16.03668">
        <ele>971.767657</ele>
        <time>2026-07-07T17:24:11.000Z</time>
      </trkpt>
      <trkpt lat="47.5115" lon="16.03666">
        <ele>971.832263</ele>
        <time>2026-07-07T17:24:12.000Z</time>
      </trkpt>
      <trkpt lat="47.51151" lon="16.03664">
        <ele>971.910379</ele>
        <time>2026-07-07T17:24:13.000Z</time>
      </trkpt>
      <trkpt lat="47.51151" lon="16.03661">
        <ele>971.993445</ele>
        <time>2026-07-07T17:24:14.000Z</time>
      </trkpt>
      <trkpt lat="47.51151" lon="16.03658">
        <ele>972.07651</ele>
        <time>2026-07-07T17:24:15.000Z</time>
      </trkpt>
      <trkpt lat="47.51151" lon="16.03656">
        <ele>972.156723</ele>
        <time>2026-07-07T17:24:16.000Z</time>
      </trkpt>
      <trkpt lat="47.51152" lon="16.03654">
        <ele>972.236313</ele>
        <time>2026-07-07T17:24:17.000Z</time>
      </trkpt>
      <trkpt lat="47.51153" lon="16.03651">
        <ele>972.317894</ele>
        <time>2026-07-07T17:24:18.000Z</time>
      </trkpt>
      <trkpt lat="47.51154" lon="16.0365">
        <ele>972.395702</ele>
        <time>2026-07-07T17:24:19.000Z</time>
      </trkpt>
      <trkpt lat="47.51156" lon="16.03649">
        <ele>972.476072</ele>
        <time>2026-07-07T17:24:20.000Z</time>
      </trkpt>
      <trkpt lat="47.51158" lon="16.03649">
        <ele>972.558058</ele>
        <time>2026-07-07T17:24:21.000Z</time>
      </trkpt>
      <trkpt lat="47.51159" lon="16.03649">
        <ele>972.635733</ele>
        <time>2026-07-07T17:24:22.000Z</time>
      </trkpt>
      <trkpt lat="47.51161" lon="16.0365">
        <ele>972.710215</ele>
        <time>2026-07-07T17:24:23.000Z</time>
      </trkpt>
      <trkpt lat="47.51162" lon="16.0365">
        <ele>972.779157</ele>
        <time>2026-07-07T17:24:24.000Z</time>
      </trkpt>
      <trkpt lat="47.51164" lon="16.0365">
        <ele>972.844753</ele>
        <time>2026-07-07T17:24:25.000Z</time>
      </trkpt>
      <trkpt lat="47.51165" lon="16.03651">
        <ele>972.914174</ele>
        <time>2026-07-07T17:24:26.000Z</time>
      </trkpt>
      <trkpt lat="47.51167" lon="16.03651">
        <ele>972.984206</ele>
        <time>2026-07-07T17:24:27.000Z</time>
      </trkpt>
      <trkpt lat="47.51168" lon="16.03652">
        <ele>973.053148</ele>
        <time>2026-07-07T17:24:28.000Z</time>
      </trkpt>
      <trkpt lat="47.5117" lon="16.03652">
        <ele>973.112679</ele>
        <time>2026-07-07T17:24:29.000Z</time>
      </trkpt>
      <trkpt lat="47.51171" lon="16.03652">
        <ele>973.190171</ele>
        <time>2026-07-07T17:24:30.000Z</time>
      </trkpt>
      <trkpt lat="47.51173" lon="16.03652">
        <ele>973.324966</ele>
        <time>2026-07-07T17:24:31.000Z</time>
      </trkpt>
      <trkpt lat="47.51175" lon="16.03653">
        <ele>973.470258</ele>
        <time>2026-07-07T17:24:33.000Z</time>
      </trkpt>
      <trkpt lat="47.51177" lon="16.03653">
        <ele>973.628198</ele>
        <time>2026-07-07T17:24:34.000Z</time>
      </trkpt>
      <trkpt lat="47.51178" lon="16.03653">
        <ele>973.756011</ele>
        <time>2026-07-07T17:24:35.000Z</time>
      </trkpt>
      <trkpt lat="47.5118" lon="16.03653">
        <ele>973.901303</ele>
        <time>2026-07-07T17:24:36.000Z</time>
      </trkpt>
      <trkpt lat="47.51182" lon="16.03653">
        <ele>974.05449</ele>
        <time>2026-07-07T17:24:37.000Z</time>
      </trkpt>
      <trkpt lat="47.51183" lon="16.03653">
        <ele>974.198761</ele>
        <time>2026-07-07T17:24:38.000Z</time>
      </trkpt>
      <trkpt lat="47.51185" lon="16.03653">
        <ele>974.326575</ele>
        <time>2026-07-07T17:24:39.000Z</time>
      </trkpt>
      <trkpt lat="47.51186" lon="16.03653">
        <ele>974.462359</ele>
        <time>2026-07-07T17:24:40.000Z</time>
      </trkpt>
      <trkpt lat="47.51188" lon="16.03653">
        <ele>974.60663</ele>
        <time>2026-07-07T17:24:41.000Z</time>
      </trkpt>
      <trkpt lat="47.51189" lon="16.03653">
        <ele>974.717104</ele>
        <time>2026-07-07T17:24:42.000Z</time>
      </trkpt>
      <trkpt lat="47.51191" lon="16.03654">
        <ele>974.866851</ele>
        <time>2026-07-07T17:24:43.000Z</time>
      </trkpt>
      <trkpt lat="47.51193" lon="16.03654">
        <ele>975.03745</ele>
        <time>2026-07-07T17:24:44.000Z</time>
      </trkpt>
      <trkpt lat="47.51195" lon="16.03654">
        <ele>975.207568</ele>
        <time>2026-07-07T17:24:45.000Z</time>
      </trkpt>
      <trkpt lat="47.51197" lon="16.03654">
        <ele>975.402758</ele>
        <time>2026-07-07T17:24:46.000Z</time>
      </trkpt>
      <trkpt lat="47.512" lon="16.03654">
        <ele>975.589813</ele>
        <time>2026-07-07T17:24:47.000Z</time>
      </trkpt>
      <trkpt lat="47.51202" lon="16.03654">
        <ele>975.777307</ele>
        <time>2026-07-07T17:24:48.000Z</time>
      </trkpt>
      <trkpt lat="47.51204" lon="16.03653">
        <ele>975.930494</ele>
        <time>2026-07-07T17:24:49.000Z</time>
      </trkpt>
      <trkpt lat="47.51205" lon="16.03654">
        <ele>976.07522</ele>
        <time>2026-07-07T17:24:50.000Z</time>
      </trkpt>
      <trkpt lat="47.51207" lon="16.03653">
        <ele>976.228407</ele>
        <time>2026-07-07T17:24:51.000Z</time>
      </trkpt>
      <trkpt lat="47.51209" lon="16.03653">
        <ele>976.372792</ele>
        <time>2026-07-07T17:24:52.000Z</time>
      </trkpt>
      <trkpt lat="47.51211" lon="16.03653">
        <ele>976.525979</ele>
        <time>2026-07-07T17:24:53.000Z</time>
      </trkpt>
      <trkpt lat="47.51212" lon="16.03653">
        <ele>976.681402</ele>
        <time>2026-07-07T17:24:54.000Z</time>
      </trkpt>
      <trkpt lat="47.51214" lon="16.03652">
        <ele>976.831149</ele>
        <time>2026-07-07T17:24:55.000Z</time>
      </trkpt>
      <trkpt lat="47.51216" lon="16.03651">
        <ele>976.987731</ele>
        <time>2026-07-07T17:24:56.000Z</time>
      </trkpt>
      <trkpt lat="47.51217" lon="16.0365">
        <ele>977.131105</ele>
        <time>2026-07-07T17:24:57.000Z</time>
      </trkpt>
      <trkpt lat="47.51219" lon="16.03649">
        <ele>977.273163</ele>
        <time>2026-07-07T17:24:58.000Z</time>
      </trkpt>
      <trkpt lat="47.5122" lon="16.03648">
        <ele>977.410517</ele>
        <time>2026-07-07T17:24:59.000Z</time>
      </trkpt>
      <trkpt lat="47.51221" lon="16.03646">
        <ele>977.541383</ele>
        <time>2026-07-07T17:25:00.000Z</time>
      </trkpt>
      <trkpt lat="47.51222" lon="16.03644">
        <ele>977.683079</ele>
        <time>2026-07-07T17:25:01.000Z</time>
      </trkpt>
      <trkpt lat="47.51222" lon="16.03642">
        <ele>977.814917</ele>
        <time>2026-07-07T17:25:02.000Z</time>
      </trkpt>
      <trkpt lat="47.51222" lon="16.03639">
        <ele>977.94216</ele>
        <time>2026-07-07T17:25:03.000Z</time>
      </trkpt>
      <trkpt lat="47.51221" lon="16.03637">
        <ele>978.063725</ele>
        <time>2026-07-07T17:25:04.000Z</time>
      </trkpt>
      <trkpt lat="47.51222" lon="16.03635">
        <ele>978.179616</ele>
        <time>2026-07-07T17:25:05.000Z</time>
      </trkpt>
      <trkpt lat="47.51222" lon="16.03633">
        <ele>978.288525</ele>
        <time>2026-07-07T17:25:06.000Z</time>
      </trkpt>
      <trkpt lat="47.51221" lon="16.03632">
        <ele>978.39309</ele>
        <time>2026-07-07T17:25:07.000Z</time>
      </trkpt>
      <trkpt lat="47.51221" lon="16.0363">
        <ele>978.462396</ele>
        <time>2026-07-07T17:25:08.000Z</time>
      </trkpt>
      <trkpt lat="47.51221" lon="16.0363">
        <ele>978.470883</ele>
        <time>2026-07-07T17:25:09.000Z</time>
      </trkpt>
      <trkpt lat="47.51219" lon="16.03622">
        <ele>978.98736</ele>
        <time>2026-07-07T17:25:19.000Z</time>
      </trkpt>
      <trkpt lat="47.51218" lon="16.03621">
        <ele>979.096632</ele>
        <time>2026-07-07T17:25:20.000Z</time>
      </trkpt>
      <trkpt lat="47.51217" lon="16.03619">
        <ele>979.192513</ele>
        <time>2026-07-07T17:25:21.000Z</time>
      </trkpt>
      <trkpt lat="47.51217" lon="16.03618">
        <ele>979.276704</ele>
        <time>2026-07-07T17:25:22.000Z</time>
      </trkpt>
      <trkpt lat="47.51217" lon="16.03617">
        <ele>979.362456</ele>
        <time>2026-07-07T17:25:23.000Z</time>
      </trkpt>
      <trkpt lat="47.51216" lon="16.03615">
        <ele>979.466964</ele>
        <time>2026-07-07T17:25:24.000Z</time>
      </trkpt>
      <trkpt lat="47.51215" lon="16.03614">
        <ele>979.552715</ele>
        <time>2026-07-07T17:25:25.000Z</time>
      </trkpt>
      <trkpt lat="47.51215" lon="16.03612">
        <ele>979.643492</ele>
        <time>2026-07-07T17:25:26.000Z</time>
      </trkpt>
      <trkpt lat="47.51214" lon="16.03611">
        <ele>979.724538</ele>
        <time>2026-07-07T17:25:27.000Z</time>
      </trkpt>
      <trkpt lat="47.51214" lon="16.0361">
        <ele>979.815315</ele>
        <time>2026-07-07T17:25:28.000Z</time>
      </trkpt>
      <trkpt lat="47.51213" lon="16.03609">
        <ele>979.891317</ele>
        <time>2026-07-07T17:25:29.000Z</time>
      </trkpt>
      <trkpt lat="47.51213" lon="16.03608">
        <ele>979.982204</ele>
        <time>2026-07-07T17:25:30.000Z</time>
      </trkpt>
      <trkpt lat="47.51212" lon="16.03606">
        <ele>980.073091</ele>
        <time>2026-07-07T17:25:31.000Z</time>
      </trkpt>
      <trkpt lat="47.51211" lon="16.03605">
        <ele>980.163344</ele>
        <time>2026-07-07T17:25:32.000Z</time>
      </trkpt>
      <trkpt lat="47.51211" lon="16.03604">
        <ele>980.258642</ele>
        <time>2026-07-07T17:25:33.000Z</time>
      </trkpt>
      <trkpt lat="47.5121" lon="16.03602">
        <ele>980.349419</ele>
        <time>2026-07-07T17:25:34.000Z</time>
      </trkpt>
      <trkpt lat="47.5121" lon="16.03601">
        <ele>980.428166</ele>
        <time>2026-07-07T17:25:35.000Z</time>
      </trkpt>
      <trkpt lat="47.51209" lon="16.036">
        <ele>980.513918</ele>
        <time>2026-07-07T17:25:36.000Z</time>
      </trkpt>
      <trkpt lat="47.51209" lon="16.03599">
        <ele>980.604805</ele>
        <time>2026-07-07T17:25:37.000Z</time>
      </trkpt>
      <trkpt lat="47.51208" lon="16.03597">
        <ele>980.695692</ele>
        <time>2026-07-07T17:25:38.000Z</time>
      </trkpt>
      <trkpt lat="47.51207" lon="16.03596">
        <ele>980.771693</ele>
        <time>2026-07-07T17:25:39.000Z</time>
      </trkpt>
      <trkpt lat="47.51207" lon="16.03595">
        <ele>980.86247</ele>
        <time>2026-07-07T17:25:40.000Z</time>
      </trkpt>
      <trkpt lat="47.51206" lon="16.03594">
        <ele>980.938472</ele>
        <time>2026-07-07T17:25:41.000Z</time>
      </trkpt>
      <trkpt lat="47.51206" lon="16.03592">
        <ele>981.029249</ele>
        <time>2026-07-07T17:25:42.000Z</time>
      </trkpt>
      <trkpt lat="47.51206" lon="16.03591">
        <ele>981.097248</ele>
        <time>2026-07-07T17:25:43.000Z</time>
      </trkpt>
      <trkpt lat="47.51205" lon="16.0359">
        <ele>981.181439</ele>
        <time>2026-07-07T17:25:44.000Z</time>
      </trkpt>
      <trkpt lat="47.51205" lon="16.03589">
        <ele>981.246737</ele>
        <time>2026-07-07T17:25:45.000Z</time>
      </trkpt>
      <trkpt lat="47.51205" lon="16.03588">
        <ele>981.320083</ele>
        <time>2026-07-07T17:25:46.000Z</time>
      </trkpt>
      <trkpt lat="47.51204" lon="16.03587">
        <ele>981.3914</ele>
        <time>2026-07-07T17:25:47.000Z</time>
      </trkpt>
      <trkpt lat="47.51204" lon="16.03585">
        <ele>981.468106</ele>
        <time>2026-07-07T17:25:48.000Z</time>
      </trkpt>
      <trkpt lat="47.51203" lon="16.03584">
        <ele>981.553858</ele>
        <time>2026-07-07T17:25:49.000Z</time>
      </trkpt>
      <trkpt lat="47.51203" lon="16.03583">
        <ele>981.623165</ele>
        <time>2026-07-07T17:25:50.000Z</time>
      </trkpt>
      <trkpt lat="47.51203" lon="16.03582">
        <ele>981.70505</ele>
        <time>2026-07-07T17:25:51.000Z</time>
      </trkpt>
      <trkpt lat="47.51203" lon="16.0358">
        <ele>981.780049</ele>
        <time>2026-07-07T17:25:52.000Z</time>
      </trkpt>
      <trkpt lat="47.51203" lon="16.03579">
        <ele>981.850897</ele>
        <time>2026-07-07T17:25:53.000Z</time>
      </trkpt>
      <trkpt lat="47.51202" lon="16.03578">
        <ele>981.927323</ele>
        <time>2026-07-07T17:25:54.000Z</time>
      </trkpt>
      <trkpt lat="47.51202" lon="16.03577">
        <ele>981.99663</ele>
        <time>2026-07-07T17:25:55.000Z</time>
      </trkpt>
      <trkpt lat="47.51202" lon="16.03575">
        <ele>982.065415</ele>
        <time>2026-07-07T17:25:56.000Z</time>
      </trkpt>
      <trkpt lat="47.51202" lon="16.03574">
        <ele>982.137026</ele>
        <time>2026-07-07T17:25:57.000Z</time>
      </trkpt>
      <trkpt lat="47.51202" lon="16.03573">
        <ele>982.217723</ele>
        <time>2026-07-07T17:25:58.000Z</time>
      </trkpt>
      <trkpt lat="47.51202" lon="16.03572">
        <ele>982.280776</ele>
        <time>2026-07-07T17:25:59.000Z</time>
      </trkpt>
      <trkpt lat="47.51202" lon="16.03571">
        <ele>982.349561</ele>
        <time>2026-07-07T17:26:00.000Z</time>
      </trkpt>
      <trkpt lat="47.51202" lon="16.03569">
        <ele>982.420409</ele>
        <time>2026-07-07T17:26:01.000Z</time>
      </trkpt>
      <trkpt lat="47.51202" lon="16.03568">
        <ele>982.494927</ele>
        <time>2026-07-07T17:26:02.000Z</time>
      </trkpt>
      <trkpt lat="47.51202" lon="16.03567">
        <ele>982.563712</ele>
        <time>2026-07-07T17:26:03.000Z</time>
      </trkpt>
      <trkpt lat="47.51202" lon="16.03566">
        <ele>982.626433</ele>
        <time>2026-07-07T17:26:04.000Z</time>
      </trkpt>
      <trkpt lat="47.51202" lon="16.03565">
        <ele>982.69173</ele>
        <time>2026-07-07T17:26:05.000Z</time>
      </trkpt>
      <trkpt lat="47.51202" lon="16.03564">
        <ele>982.762579</ele>
        <time>2026-07-07T17:26:06.000Z</time>
      </trkpt>
      <trkpt lat="47.51202" lon="16.03562">
        <ele>982.837578</ele>
        <time>2026-07-07T17:26:07.000Z</time>
      </trkpt>
      <trkpt lat="47.51203" lon="16.03561">
        <ele>982.908426</ele>
        <time>2026-07-07T17:26:08.000Z</time>
      </trkpt>
      <trkpt lat="47.51203" lon="16.0356">
        <ele>982.965747</ele>
        <time>2026-07-07T17:26:09.000Z</time>
      </trkpt>
      <trkpt lat="47.51202" lon="16.03559">
        <ele>983.039093</ele>
        <time>2026-07-07T17:26:10.000Z</time>
      </trkpt>
      <trkpt lat="47.51202" lon="16.03558">
        <ele>983.115519</ele>
        <time>2026-07-07T17:26:11.000Z</time>
      </trkpt>
      <trkpt lat="47.51202" lon="16.03556">
        <ele>983.186368</ele>
        <time>2026-07-07T17:26:12.000Z</time>
      </trkpt>
      <trkpt lat="47.51202" lon="16.03556">
        <ele>983.238818</ele>
        <time>2026-07-07T17:26:13.000Z</time>
      </trkpt>
      <trkpt lat="47.51201" lon="16.03555">
        <ele>983.284603</ele>
        <time>2026-07-07T17:26:14.000Z</time>
      </trkpt>
      <trkpt lat="47.51201" lon="16.03555">
        <ele>983.317912</ele>
        <time>2026-07-07T17:26:15.000Z</time>
      </trkpt>
      <trkpt lat="47.512" lon="16.03548">
        <ele>983.713146</ele>
        <time>2026-07-07T17:28:06.000Z</time>
      </trkpt>
      <trkpt lat="47.512" lon="16.03548">
        <ele>983.72461</ele>
        <time>2026-07-07T17:28:07.000Z</time>
      </trkpt>
      <trkpt lat="47.51197" lon="16.03541">
        <ele>984.218656</ele>
        <time>2026-07-07T17:33:30.000Z</time>
      </trkpt>
      <trkpt lat="47.51196" lon="16.0354">
        <ele>984.314538</ele>
        <time>2026-07-07T17:33:31.000Z</time>
      </trkpt>
      <trkpt lat="47.51196" lon="16.03538">
        <ele>984.420821</ele>
        <time>2026-07-07T17:33:32.000Z</time>
      </trkpt>
      <trkpt lat="47.51195" lon="16.03536">
        <ele>984.516704</ele>
        <time>2026-07-07T17:33:33.000Z</time>
      </trkpt>
      <trkpt lat="47.51195" lon="16.03535">
        <ele>984.617758</ele>
        <time>2026-07-07T17:33:34.000Z</time>
      </trkpt>
      <trkpt lat="47.51194" lon="16.03533">
        <ele>984.71364</ele>
        <time>2026-07-07T17:33:35.000Z</time>
      </trkpt>
      <trkpt lat="47.51193" lon="16.03532">
        <ele>984.827766</ele>
        <time>2026-07-07T17:33:36.000Z</time>
      </trkpt>
      <trkpt lat="47.51193" lon="16.0353">
        <ele>984.93405</ele>
        <time>2026-07-07T17:33:37.000Z</time>
      </trkpt>
      <trkpt lat="47.51192" lon="16.03528">
        <ele>985.038951</ele>
        <time>2026-07-07T17:33:38.000Z</time>
      </trkpt>
      <trkpt lat="47.51192" lon="16.03527">
        <ele>985.134833</ele>
        <time>2026-07-07T17:33:39.000Z</time>
      </trkpt>
      <trkpt lat="47.51191" lon="16.03525">
        <ele>985.230715</ele>
        <time>2026-07-07T17:33:40.000Z</time>
      </trkpt>
      <trkpt lat="47.51191" lon="16.03524">
        <ele>985.335223</ele>
        <time>2026-07-07T17:33:41.000Z</time>
      </trkpt>
      <trkpt lat="47.5119" lon="16.03522">
        <ele>985.439731</ele>
        <time>2026-07-07T17:33:42.000Z</time>
      </trkpt>
      <trkpt lat="47.51189" lon="16.03521">
        <ele>985.539659</ele>
        <time>2026-07-07T17:33:43.000Z</time>
      </trkpt>
      <trkpt lat="47.51189" lon="16.03519">
        <ele>985.639504</ele>
        <time>2026-07-07T17:33:44.000Z</time>
      </trkpt>
      <trkpt lat="47.51188" lon="16.03518">
        <ele>985.744012</ele>
        <time>2026-07-07T17:33:45.000Z</time>
      </trkpt>
      <trkpt lat="47.51187" lon="16.03517">
        <ele>985.84482</ele>
        <time>2026-07-07T17:33:46.000Z</time>
      </trkpt>
      <trkpt lat="47.51186" lon="16.03515">
        <ele>985.954375</ele>
        <time>2026-07-07T17:33:47.000Z</time>
      </trkpt>
      <trkpt lat="47.51185" lon="16.03514">
        <ele>986.075184</ele>
        <time>2026-07-07T17:33:48.000Z</time>
      </trkpt>
      <trkpt lat="47.51184" lon="16.03512">
        <ele>986.181892</ele>
        <time>2026-07-07T17:33:49.000Z</time>
      </trkpt>
      <trkpt lat="47.51184" lon="16.03511">
        <ele>986.287008</ele>
        <time>2026-07-07T17:33:50.000Z</time>
      </trkpt>
      <trkpt lat="47.51183" lon="16.0351">
        <ele>986.399946</ele>
        <time>2026-07-07T17:33:51.000Z</time>
      </trkpt>
      <trkpt lat="47.51182" lon="16.03508">
        <ele>986.496594</ele>
        <time>2026-07-07T17:33:52.000Z</time>
      </trkpt>
      <trkpt lat="47.51181" lon="16.03507">
        <ele>986.60232</ele>
        <time>2026-07-07T17:33:53.000Z</time>
      </trkpt>
      <trkpt lat="47.5118" lon="16.03506">
        <ele>986.70473</ele>
        <time>2026-07-07T17:33:54.000Z</time>
      </trkpt>
      <trkpt lat="47.51179" lon="16.03505">
        <ele>986.813971</ele>
        <time>2026-07-07T17:33:55.000Z</time>
      </trkpt>
      <trkpt lat="47.51178" lon="16.03504">
        <ele>986.926909</ele>
        <time>2026-07-07T17:33:56.000Z</time>
      </trkpt>
      <trkpt lat="47.51177" lon="16.03503">
        <ele>987.029696</ele>
        <time>2026-07-07T17:33:57.000Z</time>
      </trkpt>
      <trkpt lat="47.51176" lon="16.03501">
        <ele>987.138937</ele>
        <time>2026-07-07T17:33:58.000Z</time>
      </trkpt>
      <trkpt lat="47.51175" lon="16.035">
        <ele>987.241347</ele>
        <time>2026-07-07T17:33:59.000Z</time>
      </trkpt>
      <trkpt lat="47.51174" lon="16.035">
        <ele>987.323275</ele>
        <time>2026-07-07T17:34:00.000Z</time>
      </trkpt>
      <trkpt lat="47.51173" lon="16.03499">
        <ele>987.425686</ele>
        <time>2026-07-07T17:34:01.000Z</time>
      </trkpt>
      <trkpt lat="47.51172" lon="16.03498">
        <ele>987.51454</ele>
        <time>2026-07-07T17:34:02.000Z</time>
      </trkpt>
      <trkpt lat="47.51171" lon="16.03497">
        <ele>987.610036</ele>
        <time>2026-07-07T17:34:03.000Z</time>
      </trkpt>
      <trkpt lat="47.51171" lon="16.03496">
        <ele>987.686707</ele>
        <time>2026-07-07T17:34:04.000Z</time>
      </trkpt>
      <trkpt lat="47.5117" lon="16.03495">
        <ele>987.769259</ele>
        <time>2026-07-07T17:34:05.000Z</time>
      </trkpt>
      <trkpt lat="47.51169" lon="16.03494">
        <ele>987.851187</ele>
        <time>2026-07-07T17:34:06.000Z</time>
      </trkpt>
      <trkpt lat="47.51169" lon="16.03493">
        <ele>987.929867</ele>
        <time>2026-07-07T17:34:07.000Z</time>
      </trkpt>
      <trkpt lat="47.51168" lon="16.03492">
        <ele>988.005974</ele>
        <time>2026-07-07T17:34:08.000Z</time>
      </trkpt>
      <trkpt lat="47.51167" lon="16.03491">
        <ele>988.098143</ele>
        <time>2026-07-07T17:34:09.000Z</time>
      </trkpt>
      <trkpt lat="47.51166" lon="16.03491">
        <ele>988.180071</ele>
        <time>2026-07-07T17:34:10.000Z</time>
      </trkpt>
      <trkpt lat="47.51165" lon="16.0349">
        <ele>988.261999</ele>
        <time>2026-07-07T17:34:11.000Z</time>
      </trkpt>
      <trkpt lat="47.51164" lon="16.03489">
        <ele>988.354169</ele>
        <time>2026-07-07T17:34:12.000Z</time>
      </trkpt>
      <trkpt lat="47.51164" lon="16.03488">
        <ele>988.443023</ele>
        <time>2026-07-07T17:34:13.000Z</time>
      </trkpt>
      <trkpt lat="47.51163" lon="16.03487">
        <ele>988.512446</ele>
        <time>2026-07-07T17:34:14.000Z</time>
      </trkpt>
      <trkpt lat="47.51162" lon="16.03486">
        <ele>988.605914</ele>
        <time>2026-07-07T17:34:15.000Z</time>
      </trkpt>
      <trkpt lat="47.51162" lon="16.03485">
        <ele>988.712116</ele>
        <time>2026-07-07T17:34:16.000Z</time>
      </trkpt>
      <trkpt lat="47.51161" lon="16.03484">
        <ele>988.814932</ele>
        <time>2026-07-07T17:34:17.000Z</time>
      </trkpt>
      <trkpt lat="47.5116" lon="16.03483">
        <ele>988.909591</ele>
        <time>2026-07-07T17:34:18.000Z</time>
      </trkpt>
      <trkpt lat="47.5116" lon="16.03482">
        <ele>989.010252</ele>
        <time>2026-07-07T17:34:19.000Z</time>
      </trkpt>
      <trkpt lat="47.51159" lon="16.03481">
        <ele>989.105745</ele>
        <time>2026-07-07T17:34:20.000Z</time>
      </trkpt>
      <trkpt lat="47.51159" lon="16.0348">
        <ele>989.206406</ele>
        <time>2026-07-07T17:34:21.000Z</time>
      </trkpt>
      <trkpt lat="47.51158" lon="16.03479">
        <ele>989.295232</ele>
        <time>2026-07-07T17:34:22.000Z</time>
      </trkpt>
      <trkpt lat="47.51158" lon="16.03478">
        <ele>989.398049</ele>
        <time>2026-07-07T17:34:23.000Z</time>
      </trkpt>
      <trkpt lat="47.51157" lon="16.03477">
        <ele>989.486874</ele>
        <time>2026-07-07T17:34:24.000Z</time>
      </trkpt>
      <trkpt lat="47.51157" lon="16.03476">
        <ele>989.5757</ele>
        <time>2026-07-07T17:34:25.000Z</time>
      </trkpt>
      <trkpt lat="47.51156" lon="16.03475">
        <ele>989.683596</ele>
        <time>2026-07-07T17:34:26.000Z</time>
      </trkpt>
      <trkpt lat="47.51155" lon="16.03474">
        <ele>989.784257</ele>
        <time>2026-07-07T17:34:27.000Z</time>
      </trkpt>
      <trkpt lat="47.51155" lon="16.03472">
        <ele>989.891061</ele>
        <time>2026-07-07T17:34:28.000Z</time>
      </trkpt>
      <trkpt lat="47.51154" lon="16.03471">
        <ele>990.004123</ele>
        <time>2026-07-07T17:34:29.000Z</time>
      </trkpt>
      <trkpt lat="47.51154" lon="16.0347">
        <ele>990.102201</ele>
        <time>2026-07-07T17:34:30.000Z</time>
      </trkpt>
      <trkpt lat="47.51154" lon="16.03468">
        <ele>990.209004</ele>
        <time>2026-07-07T17:34:31.000Z</time>
      </trkpt>
      <trkpt lat="47.51153" lon="16.03467">
        <ele>990.322066</ele>
        <time>2026-07-07T17:34:32.000Z</time>
      </trkpt>
      <trkpt lat="47.51153" lon="16.03466">
        <ele>990.406759</ele>
        <time>2026-07-07T17:34:33.000Z</time>
      </trkpt>
      <trkpt lat="47.51152" lon="16.03464">
        <ele>990.526179</ele>
        <time>2026-07-07T17:34:34.000Z</time>
      </trkpt>
      <trkpt lat="47.51152" lon="16.03463">
        <ele>990.634704</ele>
        <time>2026-07-07T17:34:35.000Z</time>
      </trkpt>
      <trkpt lat="47.51151" lon="16.03462">
        <ele>990.741507</ele>
        <time>2026-07-07T17:34:36.000Z</time>
      </trkpt>
      <trkpt lat="47.51151" lon="16.0346">
        <ele>990.84831</ele>
        <time>2026-07-07T17:34:37.000Z</time>
      </trkpt>
      <trkpt lat="47.51151" lon="16.03459">
        <ele>990.95317</ele>
        <time>2026-07-07T17:34:38.000Z</time>
      </trkpt>
      <trkpt lat="47.5115" lon="16.03458">
        <ele>991.059973</ele>
        <time>2026-07-07T17:34:39.000Z</time>
      </trkpt>
      <trkpt lat="47.5115" lon="16.03456">
        <ele>991.158051</ele>
        <time>2026-07-07T17:34:40.000Z</time>
      </trkpt>
      <trkpt lat="47.51149" lon="16.03455">
        <ele>991.253587</ele>
        <time>2026-07-07T17:34:41.000Z</time>
      </trkpt>
      <trkpt lat="47.51149" lon="16.03454">
        <ele>991.365273</ele>
        <time>2026-07-07T17:34:42.000Z</time>
      </trkpt>
      <trkpt lat="47.51149" lon="16.03452">
        <ele>991.472076</ele>
        <time>2026-07-07T17:34:43.000Z</time>
      </trkpt>
      <trkpt lat="47.51148" lon="16.03451">
        <ele>991.576936</ele>
        <time>2026-07-07T17:34:44.000Z</time>
      </trkpt>
      <trkpt lat="47.51148" lon="16.0345">
        <ele>991.666126</ele>
        <time>2026-07-07T17:34:45.000Z</time>
      </trkpt>
      <trkpt lat="47.51148" lon="16.03448">
        <ele>991.770986</ele>
        <time>2026-07-07T17:34:46.000Z</time>
      </trkpt>
      <trkpt lat="47.51147" lon="16.03447">
        <ele>991.869064</ele>
        <time>2026-07-07T17:34:47.000Z</time>
      </trkpt>
      <trkpt lat="47.51146" lon="16.03444">
        <ele>992.095189</ele>
        <time>2026-07-07T17:34:49.000Z</time>
      </trkpt>
      <trkpt lat="47.51145" lon="16.03441">
        <ele>992.323037</ele>
        <time>2026-07-07T17:34:50.000Z</time>
      </trkpt>
      <trkpt lat="47.51145" lon="16.0344">
        <ele>992.421116</ele>
        <time>2026-07-07T17:34:51.000Z</time>
      </trkpt>
      <trkpt lat="47.51145" lon="16.03439">
        <ele>992.519194</ele>
        <time>2026-07-07T17:34:52.000Z</time>
      </trkpt>
      <trkpt lat="47.51144" lon="16.03438">
        <ele>992.614731</ele>
        <time>2026-07-07T17:34:53.000Z</time>
      </trkpt>
      <trkpt lat="47.51144" lon="16.03436">
        <ele>992.706082</ele>
        <time>2026-07-07T17:34:54.000Z</time>
      </trkpt>
      <trkpt lat="47.51144" lon="16.03435">
        <ele>992.780539</ele>
        <time>2026-07-07T17:34:55.000Z</time>
      </trkpt>
      <trkpt lat="47.51144" lon="16.03434">
        <ele>992.865232</ele>
        <time>2026-07-07T17:34:56.000Z</time>
      </trkpt>
      <trkpt lat="47.51143" lon="16.03433">
        <ele>992.956584</ele>
        <time>2026-07-07T17:34:57.000Z</time>
      </trkpt>
      <trkpt lat="47.51143" lon="16.03432">
        <ele>993.039557</ele>
        <time>2026-07-07T17:34:58.000Z</time>
      </trkpt>
      <trkpt lat="47.51143" lon="16.03431">
        <ele>993.117675</ele>
        <time>2026-07-07T17:34:59.000Z</time>
      </trkpt>
      <trkpt lat="47.51142" lon="16.0343">
        <ele>993.218336</ele>
        <time>2026-07-07T17:35:00.000Z</time>
      </trkpt>
      <trkpt lat="47.51142" lon="16.03429">
        <ele>993.303029</ele>
        <time>2026-07-07T17:35:01.000Z</time>
      </trkpt>
      <trkpt lat="47.51141" lon="16.03427">
        <ele>993.411554</ele>
        <time>2026-07-07T17:35:02.000Z</time>
      </trkpt>
      <trkpt lat="47.51141" lon="16.03426">
        <ele>993.490794</ele>
        <time>2026-07-07T17:35:03.000Z</time>
      </trkpt>
      <trkpt lat="47.51141" lon="16.03425">
        <ele>993.586331</ele>
        <time>2026-07-07T17:35:04.000Z</time>
      </trkpt>
      <trkpt lat="47.51141" lon="16.03424">
        <ele>993.684409</ele>
        <time>2026-07-07T17:35:05.000Z</time>
      </trkpt>
      <trkpt lat="47.5114" lon="16.03423">
        <ele>993.775761</ele>
        <time>2026-07-07T17:35:06.000Z</time>
      </trkpt>
      <trkpt lat="47.5114" lon="16.03421">
        <ele>993.877749</ele>
        <time>2026-07-07T17:35:07.000Z</time>
      </trkpt>
      <trkpt lat="47.5114" lon="16.0342">
        <ele>993.978256</ele>
        <time>2026-07-07T17:35:08.000Z</time>
      </trkpt>
      <trkpt lat="47.51139" lon="16.03419">
        <ele>994.080244</ele>
        <time>2026-07-07T17:35:09.000Z</time>
      </trkpt>
      <trkpt lat="47.51139" lon="16.03417">
        <ele>994.173655</ele>
        <time>2026-07-07T17:35:10.000Z</time>
      </trkpt>
      <trkpt lat="47.51139" lon="16.03416">
        <ele>994.288789</ele>
        <time>2026-07-07T17:35:11.000Z</time>
      </trkpt>
      <trkpt lat="47.51139" lon="16.03414">
        <ele>994.395878</ele>
        <time>2026-07-07T17:35:12.000Z</time>
      </trkpt>
      <trkpt lat="47.51139" lon="16.03413">
        <ele>994.48155</ele>
        <time>2026-07-07T17:35:13.000Z</time>
      </trkpt>
      <trkpt lat="47.51139" lon="16.03412">
        <ele>994.574961</ele>
        <time>2026-07-07T17:35:14.000Z</time>
      </trkpt>
      <trkpt lat="47.51139" lon="16.0341">
        <ele>994.677123</ele>
        <time>2026-07-07T17:35:15.000Z</time>
      </trkpt>
      <trkpt lat="47.51138" lon="16.03409">
        <ele>994.758451</ele>
        <time>2026-07-07T17:35:16.000Z</time>
      </trkpt>
      <trkpt lat="47.51138" lon="16.03408">
        <ele>994.858401</ele>
        <time>2026-07-07T17:35:17.000Z</time>
      </trkpt>
      <trkpt lat="47.51138" lon="16.03407">
        <ele>994.937642</ele>
        <time>2026-07-07T17:35:18.000Z</time>
      </trkpt>
      <trkpt lat="47.51138" lon="16.03405">
        <ele>995.037593</ele>
        <time>2026-07-07T17:35:19.000Z</time>
      </trkpt>
      <trkpt lat="47.51138" lon="16.03404">
        <ele>995.116125</ele>
        <time>2026-07-07T17:35:20.000Z</time>
      </trkpt>
      <trkpt lat="47.51138" lon="16.03403">
        <ele>995.216076</ele>
        <time>2026-07-07T17:35:21.000Z</time>
      </trkpt>
      <trkpt lat="47.51138" lon="16.03402">
        <ele>995.308887</ele>
        <time>2026-07-07T17:35:22.000Z</time>
      </trkpt>
      <trkpt lat="47.51138" lon="16.034">
        <ele>995.401698</ele>
        <time>2026-07-07T17:35:23.000Z</time>
      </trkpt>
      <trkpt lat="47.51138" lon="16.03399">
        <ele>995.488019</ele>
        <time>2026-07-07T17:35:24.000Z</time>
      </trkpt>
      <trkpt lat="47.51138" lon="16.03398">
        <ele>995.580831</ele>
        <time>2026-07-07T17:35:25.000Z</time>
      </trkpt>
      <trkpt lat="47.51139" lon="16.03396">
        <ele>995.682992</ele>
        <time>2026-07-07T17:35:26.000Z</time>
      </trkpt>
      <trkpt lat="47.51139" lon="16.03395">
        <ele>995.76432</ele>
        <time>2026-07-07T17:35:27.000Z</time>
      </trkpt>
      <trkpt lat="47.51139" lon="16.03394">
        <ele>995.864271</ele>
        <time>2026-07-07T17:35:28.000Z</time>
      </trkpt>
      <trkpt lat="47.51139" lon="16.03393">
        <ele>995.957082</ele>
        <time>2026-07-07T17:35:29.000Z</time>
      </trkpt>
      <trkpt lat="47.51139" lon="16.03391">
        <ele>996.043403</ele>
        <time>2026-07-07T17:35:30.000Z</time>
      </trkpt>
      <trkpt lat="47.51139" lon="16.0339">
        <ele>996.138591</ele>
        <time>2026-07-07T17:35:31.000Z</time>
      </trkpt>
      <trkpt lat="47.51139" lon="16.03389">
        <ele>996.247748</ele>
        <time>2026-07-07T17:35:32.000Z</time>
      </trkpt>
      <trkpt lat="47.51139" lon="16.03387">
        <ele>996.341159</ele>
        <time>2026-07-07T17:35:33.000Z</time>
      </trkpt>
      <trkpt lat="47.5114" lon="16.03386">
        <ele>996.44332</ele>
        <time>2026-07-07T17:35:34.000Z</time>
      </trkpt>
      <trkpt lat="47.5114" lon="16.03385">
        <ele>996.541399</ele>
        <time>2026-07-07T17:35:35.000Z</time>
      </trkpt>
      <trkpt lat="47.5114" lon="16.03383">
        <ele>996.62964</ele>
        <time>2026-07-07T17:35:36.000Z</time>
      </trkpt>
      <trkpt lat="47.5114" lon="16.03382">
        <ele>996.727719</ele>
        <time>2026-07-07T17:35:37.000Z</time>
      </trkpt>
      <trkpt lat="47.51141" lon="16.03381">
        <ele>996.822907</ele>
        <time>2026-07-07T17:35:38.000Z</time>
      </trkpt>
      <trkpt lat="47.51141" lon="16.03379">
        <ele>996.927767</ele>
        <time>2026-07-07T17:35:39.000Z</time>
      </trkpt>
      <trkpt lat="47.51141" lon="16.03378">
        <ele>997.029754</ele>
        <time>2026-07-07T17:35:40.000Z</time>
      </trkpt>
      <trkpt lat="47.51141" lon="16.03377">
        <ele>997.123165</ele>
        <time>2026-07-07T17:35:41.000Z</time>
      </trkpt>
      <trkpt lat="47.51142" lon="16.03375">
        <ele>997.225327</ele>
        <time>2026-07-07T17:35:42.000Z</time>
      </trkpt>
      <trkpt lat="47.51142" lon="16.03374">
        <ele>997.31002</ele>
        <time>2026-07-07T17:35:43.000Z</time>
      </trkpt>
      <trkpt lat="47.51142" lon="16.03373">
        <ele>997.418544</ele>
        <time>2026-07-07T17:35:44.000Z</time>
      </trkpt>
      <trkpt lat="47.51143" lon="16.03372">
        <ele>997.503237</ele>
        <time>2026-07-07T17:35:45.000Z</time>
      </trkpt>
      <trkpt lat="47.51143" lon="16.0337">
        <ele>997.608097</ele>
        <time>2026-07-07T17:35:46.000Z</time>
      </trkpt>
      <trkpt lat="47.51143" lon="16.03369">
        <ele>997.703285</ele>
        <time>2026-07-07T17:35:47.000Z</time>
      </trkpt>
      <trkpt lat="47.51143" lon="16.03368">
        <ele>997.794637</ele>
        <time>2026-07-07T17:35:48.000Z</time>
      </trkpt>
      <trkpt lat="47.51144" lon="16.03367">
        <ele>997.896624</ele>
        <time>2026-07-07T17:35:49.000Z</time>
      </trkpt>
      <trkpt lat="47.51144" lon="16.03365">
        <ele>997.987976</ele>
        <time>2026-07-07T17:35:50.000Z</time>
      </trkpt>
      <trkpt lat="47.51145" lon="16.03364">
        <ele>998.082635</ele>
        <time>2026-07-07T17:35:51.000Z</time>
      </trkpt>
      <trkpt lat="47.51145" lon="16.03363">
        <ele>998.160753</ele>
        <time>2026-07-07T17:35:52.000Z</time>
      </trkpt>
      <trkpt lat="47.51145" lon="16.03362">
        <ele>998.25629</ele>
        <time>2026-07-07T17:35:53.000Z</time>
      </trkpt>
      <trkpt lat="47.51146" lon="16.03361">
        <ele>998.347642</ele>
        <time>2026-07-07T17:35:54.000Z</time>
      </trkpt>
      <trkpt lat="47.51146" lon="16.0336">
        <ele>998.442301</ele>
        <time>2026-07-07T17:35:55.000Z</time>
      </trkpt>
      <trkpt lat="47.51146" lon="16.03359">
        <ele>998.530542</ele>
        <time>2026-07-07T17:35:56.000Z</time>
      </trkpt>
      <trkpt lat="47.51147" lon="16.03357">
        <ele>998.628621</ele>
        <time>2026-07-07T17:35:57.000Z</time>
      </trkpt>
      <trkpt lat="47.51147" lon="16.03356">
        <ele>998.73348</ele>
        <time>2026-07-07T17:35:58.000Z</time>
      </trkpt>
      <trkpt lat="47.51147" lon="16.03355">
        <ele>998.82267</ele>
        <time>2026-07-07T17:35:59.000Z</time>
      </trkpt>
      <trkpt lat="47.51148" lon="16.03354">
        <ele>998.914022</ele>
        <time>2026-07-07T17:36:00.000Z</time>
      </trkpt>
      <trkpt lat="47.51148" lon="16.03352">
        <ele>999.005374</ele>
        <time>2026-07-07T17:36:01.000Z</time>
      </trkpt>
      <trkpt lat="47.51148" lon="16.03351">
        <ele>999.094564</ele>
        <time>2026-07-07T17:36:02.000Z</time>
      </trkpt>
      <trkpt lat="47.51149" lon="16.0335">
        <ele>999.195225</ele>
        <time>2026-07-07T17:36:03.000Z</time>
      </trkpt>
      <trkpt lat="47.51149" lon="16.03349">
        <ele>999.295886</ele>
        <time>2026-07-07T17:36:04.000Z</time>
      </trkpt>
      <trkpt lat="47.5115" lon="16.03348">
        <ele>999.390545</ele>
        <time>2026-07-07T17:36:05.000Z</time>
      </trkpt>
      <trkpt lat="47.5115" lon="16.03347">
        <ele>999.491206</ele>
        <time>2026-07-07T17:36:06.000Z</time>
      </trkpt>
      <trkpt lat="47.51151" lon="16.03345">
        <ele>999.582558</ele>
        <time>2026-07-07T17:36:07.000Z</time>
      </trkpt>
      <trkpt lat="47.51151" lon="16.03344">
        <ele>999.667251</ele>
        <time>2026-07-07T17:36:08.000Z</time>
      </trkpt>
      <trkpt lat="47.51151" lon="16.03343">
        <ele>999.767912</ele>
        <time>2026-07-07T17:36:09.000Z</time>
      </trkpt>
      <trkpt lat="47.51152" lon="16.03342">
        <ele>999.863448</ele>
        <time>2026-07-07T17:36:10.000Z</time>
      </trkpt>
      <trkpt lat="47.51152" lon="16.03341">
        <ele>999.956859</ele>
        <time>2026-07-07T17:36:11.000Z</time>
      </trkpt>
      <trkpt lat="47.51152" lon="16.03339">
        <ele>1000.052395</ele>
        <time>2026-07-07T17:36:12.000Z</time>
      </trkpt>
      <trkpt lat="47.51153" lon="16.03338">
        <ele>1000.141221</ele>
        <time>2026-07-07T17:36:13.000Z</time>
      </trkpt>
      <trkpt lat="47.51153" lon="16.03337">
        <ele>1000.225913</ele>
        <time>2026-07-07T17:36:14.000Z</time>
      </trkpt>
      <trkpt lat="47.51154" lon="16.03336">
        <ele>1000.314739</ele>
        <time>2026-07-07T17:36:15.000Z</time>
      </trkpt>
      <trkpt lat="47.51154" lon="16.03335">
        <ele>1000.392857</ele>
        <time>2026-07-07T17:36:16.000Z</time>
      </trkpt>
      <trkpt lat="47.51154" lon="16.03334">
        <ele>1000.493518</ele>
        <time>2026-07-07T17:36:17.000Z</time>
      </trkpt>
      <trkpt lat="47.51155" lon="16.03333">
        <ele>1000.576491</ele>
        <time>2026-07-07T17:36:18.000Z</time>
      </trkpt>
      <trkpt lat="47.51155" lon="16.03332">
        <ele>1000.654609</ele>
        <time>2026-07-07T17:36:19.000Z</time>
      </trkpt>
      <trkpt lat="47.51155" lon="16.03331">
        <ele>1000.732727</ele>
        <time>2026-07-07T17:36:20.000Z</time>
      </trkpt>
      <trkpt lat="47.51156" lon="16.0333">
        <ele>1000.834715</ele>
        <time>2026-07-07T17:36:21.000Z</time>
      </trkpt>
      <trkpt lat="47.51156" lon="16.03329">
        <ele>1000.912833</ele>
        <time>2026-07-07T17:36:22.000Z</time>
      </trkpt>
      <trkpt lat="47.51156" lon="16.03328">
        <ele>1001.004184</ele>
        <time>2026-07-07T17:36:23.000Z</time>
      </trkpt>
      <trkpt lat="47.51157" lon="16.03326">
        <ele>1001.09972</ele>
        <time>2026-07-07T17:36:24.000Z</time>
      </trkpt>
      <trkpt lat="47.51157" lon="16.03325">
        <ele>1001.194379</ele>
        <time>2026-07-07T17:36:25.000Z</time>
      </trkpt>
      <trkpt lat="47.51158" lon="16.03324">
        <ele>1001.299239</ele>
        <time>2026-07-07T17:36:26.000Z</time>
      </trkpt>
      <trkpt lat="47.51158" lon="16.03323">
        <ele>1001.383931</ele>
        <time>2026-07-07T17:36:27.000Z</time>
      </trkpt>
      <trkpt lat="47.51158" lon="16.03322">
        <ele>1001.484592</ele>
        <time>2026-07-07T17:36:28.000Z</time>
      </trkpt>
      <trkpt lat="47.51159" lon="16.0332">
        <ele>1001.585253</ele>
        <time>2026-07-07T17:36:29.000Z</time>
      </trkpt>
      <trkpt lat="47.51159" lon="16.03319">
        <ele>1001.679913</ele>
        <time>2026-07-07T17:36:30.000Z</time>
      </trkpt>
      <trkpt lat="47.5116" lon="16.03318">
        <ele>1001.792975</ele>
        <time>2026-07-07T17:36:31.000Z</time>
      </trkpt>
      <trkpt lat="47.5116" lon="16.03317">
        <ele>1001.899778</ele>
        <time>2026-07-07T17:36:32.000Z</time>
      </trkpt>
      <trkpt lat="47.51161" lon="16.03315">
        <ele>1001.995314</ele>
        <time>2026-07-07T17:36:33.000Z</time>
      </trkpt>
      <trkpt lat="47.51161" lon="16.03314">
        <ele>1002.089973</ele>
        <time>2026-07-07T17:36:34.000Z</time>
      </trkpt>
      <trkpt lat="47.51162" lon="16.03313">
        <ele>1002.190634</ele>
        <time>2026-07-07T17:36:35.000Z</time>
      </trkpt>
      <trkpt lat="47.51162" lon="16.03312">
        <ele>1002.297437</ele>
        <time>2026-07-07T17:36:36.000Z</time>
      </trkpt>
      <trkpt lat="47.51163" lon="16.03311">
        <ele>1002.398098</ele>
        <time>2026-07-07T17:36:37.000Z</time>
      </trkpt>
      <trkpt lat="47.51163" lon="16.03309">
        <ele>1002.504688</ele>
        <time>2026-07-07T17:36:38.000Z</time>
      </trkpt>
      <trkpt lat="47.51164" lon="16.03308">
        <ele>1002.607505</ele>
        <time>2026-07-07T17:36:39.000Z</time>
      </trkpt>
      <trkpt lat="47.51165" lon="16.03307">
        <ele>1002.69633</ele>
        <time>2026-07-07T17:36:40.000Z</time>
      </trkpt>
      <trkpt lat="47.51165" lon="16.03306">
        <ele>1002.790989</ele>
        <time>2026-07-07T17:36:41.000Z</time>
      </trkpt>
      <trkpt lat="47.51166" lon="16.03305">
        <ele>1002.879815</ele>
        <time>2026-07-07T17:36:42.000Z</time>
      </trkpt>
      <trkpt lat="47.51166" lon="16.03304">
        <ele>1002.963011</ele>
        <time>2026-07-07T17:36:43.000Z</time>
      </trkpt>
      <trkpt lat="47.51167" lon="16.03303">
        <ele>1003.051836</ele>
        <time>2026-07-07T17:36:44.000Z</time>
      </trkpt>
      <trkpt lat="47.51167" lon="16.03302">
        <ele>1003.154653</ele>
        <time>2026-07-07T17:36:45.000Z</time>
      </trkpt>
      <trkpt lat="47.51168" lon="16.03302">
        <ele>1003.239999</ele>
        <time>2026-07-07T17:36:46.000Z</time>
      </trkpt>
      <trkpt lat="47.51168" lon="16.03301">
        <ele>1003.317814</ele>
        <time>2026-07-07T17:36:47.000Z</time>
      </trkpt>
      <trkpt lat="47.51169" lon="16.033">
        <ele>1003.415808</ele>
        <time>2026-07-07T17:36:48.000Z</time>
      </trkpt>
      <trkpt lat="47.5117" lon="16.03299">
        <ele>1003.523704</ele>
        <time>2026-07-07T17:36:49.000Z</time>
      </trkpt>
      <trkpt lat="47.5117" lon="16.03298">
        <ele>1003.624365</ele>
        <time>2026-07-07T17:36:50.000Z</time>
      </trkpt>
      <trkpt lat="47.51171" lon="16.03297">
        <ele>1003.709711</ele>
        <time>2026-07-07T17:36:51.000Z</time>
      </trkpt>
      <trkpt lat="47.51171" lon="16.03296">
        <ele>1003.798537</ele>
        <time>2026-07-07T17:36:52.000Z</time>
      </trkpt>
      <trkpt lat="47.51172" lon="16.03295">
        <ele>1003.887362</ele>
        <time>2026-07-07T17:36:53.000Z</time>
      </trkpt>
      <trkpt lat="47.51172" lon="16.03294">
        <ele>1003.988023</ele>
        <time>2026-07-07T17:36:54.000Z</time>
      </trkpt>
      <trkpt lat="47.51173" lon="16.03293">
        <ele>1004.076848</ele>
        <time>2026-07-07T17:36:55.000Z</time>
      </trkpt>
      <trkpt lat="47.51174" lon="16.03292">
        <ele>1004.179665</ele>
        <time>2026-07-07T17:36:56.000Z</time>
      </trkpt>
      <trkpt lat="47.51174" lon="16.03291">
        <ele>1004.257479</ele>
        <time>2026-07-07T17:36:57.000Z</time>
      </trkpt>
      <trkpt lat="47.51175" lon="16.0329">
        <ele>1004.360296</ele>
        <time>2026-07-07T17:36:58.000Z</time>
      </trkpt>
      <trkpt lat="47.51175" lon="16.03289">
        <ele>1004.455789</ele>
        <time>2026-07-07T17:36:59.000Z</time>
      </trkpt>
      <trkpt lat="47.51176" lon="16.03288">
        <ele>1004.558605</ele>
        <time>2026-07-07T17:37:00.000Z</time>
      </trkpt>
      <trkpt lat="47.51177" lon="16.03287">
        <ele>1004.647431</ele>
        <time>2026-07-07T17:37:01.000Z</time>
      </trkpt>
      <trkpt lat="47.51177" lon="16.03286">
        <ele>1004.745425</ele>
        <time>2026-07-07T17:37:02.000Z</time>
      </trkpt>
      <trkpt lat="47.51178" lon="16.03285">
        <ele>1004.840918</ele>
        <time>2026-07-07T17:37:03.000Z</time>
      </trkpt>
      <trkpt lat="47.51179" lon="16.03284">
        <ele>1004.943734</ele>
        <time>2026-07-07T17:37:04.000Z</time>
      </trkpt>
      <trkpt lat="47.51179" lon="16.03283">
        <ele>1005.045774</ele>
        <time>2026-07-07T17:37:05.000Z</time>
      </trkpt>
      <trkpt lat="47.5118" lon="16.03282">
        <ele>1005.139243</ele>
        <time>2026-07-07T17:37:06.000Z</time>
      </trkpt>
      <trkpt lat="47.51181" lon="16.03281">
        <ele>1005.222439</ele>
        <time>2026-07-07T17:37:07.000Z</time>
      </trkpt>
      <trkpt lat="47.51181" lon="16.03281">
        <ele>1005.307933</ele>
        <time>2026-07-07T17:37:08.000Z</time>
      </trkpt>
      <trkpt lat="47.51182" lon="16.0328">
        <ele>1005.388676</ele>
        <time>2026-07-07T17:37:09.000Z</time>
      </trkpt>
      <trkpt lat="47.51182" lon="16.03279">
        <ele>1005.461412</ele>
        <time>2026-07-07T17:37:10.000Z</time>
      </trkpt>
      <trkpt lat="47.51183" lon="16.03279">
        <ele>1005.546906</ele>
        <time>2026-07-07T17:37:11.000Z</time>
      </trkpt>
      <trkpt lat="47.51184" lon="16.03278">
        <ele>1005.6449</ele>
        <time>2026-07-07T17:37:12.000Z</time>
      </trkpt>
      <trkpt lat="47.51184" lon="16.03277">
        <ele>1005.72143</ele>
        <time>2026-07-07T17:37:13.000Z</time>
      </trkpt>
      <trkpt lat="47.51185" lon="16.03276">
        <ele>1005.819424</ele>
        <time>2026-07-07T17:37:14.000Z</time>
      </trkpt>
      <trkpt lat="47.51186" lon="16.03276">
        <ele>1005.887452</ele>
        <time>2026-07-07T17:37:15.000Z</time>
      </trkpt>
      <trkpt lat="47.51186" lon="16.03275">
        <ele>1005.976737</ele>
        <time>2026-07-07T17:37:16.000Z</time>
      </trkpt>
      <trkpt lat="47.51187" lon="16.03274">
        <ele>1006.057481</ele>
        <time>2026-07-07T17:37:17.000Z</time>
      </trkpt>
      <trkpt lat="47.51188" lon="16.03274">
        <ele>1006.15499</ele>
        <time>2026-07-07T17:37:18.000Z</time>
      </trkpt>
      <trkpt lat="47.51189" lon="16.03274">
        <ele>1006.242219</ele>
        <time>2026-07-07T17:37:19.000Z</time>
      </trkpt>
      <trkpt lat="47.51189" lon="16.03273">
        <ele>1006.324369</ele>
        <time>2026-07-07T17:37:20.000Z</time>
      </trkpt>
      <trkpt lat="47.5119" lon="16.03273">
        <ele>1006.410124</ele>
        <time>2026-07-07T17:37:21.000Z</time>
      </trkpt>
      <trkpt lat="47.51191" lon="16.03273">
        <ele>1006.517971</ele>
        <time>2026-07-07T17:37:22.000Z</time>
      </trkpt>
      <trkpt lat="47.51192" lon="16.03272">
        <ele>1006.607221</ele>
        <time>2026-07-07T17:37:23.000Z</time>
      </trkpt>
      <trkpt lat="47.51193" lon="16.03272">
        <ele>1006.71292</ele>
        <time>2026-07-07T17:37:24.000Z</time>
      </trkpt>
      <trkpt lat="47.51194" lon="16.03272">
        <ele>1006.818618</ele>
        <time>2026-07-07T17:37:25.000Z</time>
      </trkpt>
      <trkpt lat="47.51195" lon="16.03272">
        <ele>1006.924316</ele>
        <time>2026-07-07T17:37:26.000Z</time>
      </trkpt>
      <trkpt lat="47.51196" lon="16.03273">
        <ele>1007.030974</ele>
        <time>2026-07-07T17:37:27.000Z</time>
      </trkpt>
      <trkpt lat="47.51197" lon="16.03273">
        <ele>1007.136673</ele>
        <time>2026-07-07T17:37:28.000Z</time>
      </trkpt>
      <trkpt lat="47.51198" lon="16.03273">
        <ele>1007.231801</ele>
        <time>2026-07-07T17:37:29.000Z</time>
      </trkpt>
      <trkpt lat="47.51199" lon="16.03273">
        <ele>1007.337499</ele>
        <time>2026-07-07T17:37:30.000Z</time>
      </trkpt>
      <trkpt lat="47.512" lon="16.03273">
        <ele>1007.443197</ele>
        <time>2026-07-07T17:37:31.000Z</time>
      </trkpt>
      <trkpt lat="47.51201" lon="16.03273">
        <ele>1007.551561</ele>
        <time>2026-07-07T17:37:32.000Z</time>
      </trkpt>
      <trkpt lat="47.51202" lon="16.03273">
        <ele>1007.6602</ele>
        <time>2026-07-07T17:37:33.000Z</time>
      </trkpt>
      <trkpt lat="47.51203" lon="16.03273">
        <ele>1007.769086</ele>
        <time>2026-07-07T17:37:34.000Z</time>
      </trkpt>
      <trkpt lat="47.51204" lon="16.03273">
        <ele>1007.88162</ele>
        <time>2026-07-07T17:37:35.000Z</time>
      </trkpt>
      <trkpt lat="47.51205" lon="16.03274">
        <ele>1007.971276</ele>
        <time>2026-07-07T17:37:36.000Z</time>
      </trkpt>
      <trkpt lat="47.51206" lon="16.03274">
        <ele>1008.080901</ele>
        <time>2026-07-07T17:37:37.000Z</time>
      </trkpt>
      <trkpt lat="47.51207" lon="16.03274">
        <ele>1008.191748</ele>
        <time>2026-07-07T17:37:38.000Z</time>
      </trkpt>
      <trkpt lat="47.51208" lon="16.03274">
        <ele>1008.301373</ele>
        <time>2026-07-07T17:37:39.000Z</time>
      </trkpt>
      <trkpt lat="47.51209" lon="16.03275">
        <ele>1008.41222</ele>
        <time>2026-07-07T17:37:40.000Z</time>
      </trkpt>
      <trkpt lat="47.51209" lon="16.03275">
        <ele>1008.501876</ele>
        <time>2026-07-07T17:37:41.000Z</time>
      </trkpt>
      <trkpt lat="47.5121" lon="16.03275">
        <ele>1008.603961</ele>
        <time>2026-07-07T17:37:42.000Z</time>
      </trkpt>
      <trkpt lat="47.51211" lon="16.03276">
        <ele>1008.698299</ele>
        <time>2026-07-07T17:37:43.000Z</time>
      </trkpt>
      <trkpt lat="47.51212" lon="16.03276">
        <ele>1008.792636</ele>
        <time>2026-07-07T17:37:44.000Z</time>
      </trkpt>
      <trkpt lat="47.51213" lon="16.03277">
        <ele>1008.897068</ele>
        <time>2026-07-07T17:37:45.000Z</time>
      </trkpt>
      <trkpt lat="47.51214" lon="16.03277">
        <ele>1008.986724</ele>
        <time>2026-07-07T17:37:46.000Z</time>
      </trkpt>
      <trkpt lat="47.51214" lon="16.03277">
        <ele>1009.076379</ele>
        <time>2026-07-07T17:37:47.000Z</time>
      </trkpt>
      <trkpt lat="47.51215" lon="16.03278">
        <ele>1009.178465</ele>
        <time>2026-07-07T17:37:48.000Z</time>
      </trkpt>
      <trkpt lat="47.51216" lon="16.03278">
        <ele>1009.26812</ele>
        <time>2026-07-07T17:37:49.000Z</time>
      </trkpt>
      <trkpt lat="47.51217" lon="16.03279">
        <ele>1009.382787</ele>
        <time>2026-07-07T17:37:50.000Z</time>
      </trkpt>
      <trkpt lat="47.51218" lon="16.03279">
        <ele>1009.467222</ele>
        <time>2026-07-07T17:37:51.000Z</time>
      </trkpt>
      <trkpt lat="47.51219" lon="16.03279">
        <ele>1009.556878</ele>
        <time>2026-07-07T17:37:52.000Z</time>
      </trkpt>
      <trkpt lat="47.5122" lon="16.0328">
        <ele>1009.677047</ele>
        <time>2026-07-07T17:37:53.000Z</time>
      </trkpt>
      <trkpt lat="47.5122" lon="16.0328">
        <ele>1009.766703</ele>
        <time>2026-07-07T17:37:54.000Z</time>
      </trkpt>
      <trkpt lat="47.51221" lon="16.03281">
        <ele>1009.871134</ele>
        <time>2026-07-07T17:37:55.000Z</time>
      </trkpt>
      <trkpt lat="47.51222" lon="16.03281">
        <ele>1009.983668</ele>
        <time>2026-07-07T17:37:56.000Z</time>
      </trkpt>
      <trkpt lat="47.51223" lon="16.03282">
        <ele>1010.078006</ele>
        <time>2026-07-07T17:37:57.000Z</time>
      </trkpt>
      <trkpt lat="47.51224" lon="16.03282">
        <ele>1010.192673</ele>
        <time>2026-07-07T17:37:58.000Z</time>
      </trkpt>
      <trkpt lat="47.51225" lon="16.03283">
        <ele>1010.287011</ele>
        <time>2026-07-07T17:37:59.000Z</time>
      </trkpt>
      <trkpt lat="47.51226" lon="16.03283">
        <ele>1010.401677</ele>
        <time>2026-07-07T17:38:00.000Z</time>
      </trkpt>
      <trkpt lat="47.51227" lon="16.03284">
        <ele>1010.5019</ele>
        <time>2026-07-07T17:38:01.000Z</time>
      </trkpt>
      <trkpt lat="47.51228" lon="16.03284">
        <ele>1010.616566</ele>
        <time>2026-07-07T17:38:02.000Z</time>
      </trkpt>
      <trkpt lat="47.51229" lon="16.03284">
        <ele>1010.727413</ele>
        <time>2026-07-07T17:38:03.000Z</time>
      </trkpt>
      <trkpt lat="47.5123" lon="16.03285">
        <ele>1010.839947</ele>
        <time>2026-07-07T17:38:04.000Z</time>
      </trkpt>
      <trkpt lat="47.51231" lon="16.03285">
        <ele>1010.934285</ele>
        <time>2026-07-07T17:38:05.000Z</time>
      </trkpt>
      <trkpt lat="47.51231" lon="16.03286">
        <ele>1011.02394</ele>
        <time>2026-07-07T17:38:06.000Z</time>
      </trkpt>
      <trkpt lat="47.51232" lon="16.03286">
        <ele>1011.138607</ele>
        <time>2026-07-07T17:38:07.000Z</time>
      </trkpt>
      <trkpt lat="47.51233" lon="16.03286">
        <ele>1011.238829</ele>
        <time>2026-07-07T17:38:08.000Z</time>
      </trkpt>
      <trkpt lat="47.51234" lon="16.03287">
        <ele>1011.348455</ele>
        <time>2026-07-07T17:38:09.000Z</time>
      </trkpt>
      <trkpt lat="47.51235" lon="16.03287">
        <ele>1011.436596</ele>
        <time>2026-07-07T17:38:10.000Z</time>
      </trkpt>
      <trkpt lat="47.51236" lon="16.03287">
        <ele>1011.523507</ele>
        <time>2026-07-07T17:38:11.000Z</time>
      </trkpt>
      <trkpt lat="47.51237" lon="16.03287">
        <ele>1011.622377</ele>
        <time>2026-07-07T17:38:12.000Z</time>
      </trkpt>
      <trkpt lat="47.51237" lon="16.03286">
        <ele>1011.687926</ele>
        <time>2026-07-07T17:38:13.000Z</time>
      </trkpt>
      <trkpt lat="47.51238" lon="16.03286">
        <ele>1011.737</ele>
        <time>2026-07-07T17:38:14.000Z</time>
      </trkpt>
      <trkpt lat="47.51238" lon="16.03285">
        <ele>1011.786075</ele>
        <time>2026-07-07T17:38:15.000Z</time>
      </trkpt>
      <trkpt lat="47.51238" lon="16.03285">
        <ele>1011.817005</ele>
        <time>2026-07-07T17:38:16.000Z</time>
      </trkpt>
      <trkpt lat="47.51239" lon="16.03283">
        <ele>1011.975815</ele>
        <time>2026-07-07T17:38:22.000Z</time>
      </trkpt>
      <trkpt lat="47.51239" lon="16.03282">
        <ele>1012.056105</ele>
        <time>2026-07-07T17:38:23.000Z</time>
      </trkpt>
      <trkpt lat="47.5124" lon="16.03281">
        <ele>1012.147401</ele>
        <time>2026-07-07T17:38:24.000Z</time>
      </trkpt>
      <trkpt lat="47.5124" lon="16.0328">
        <ele>1012.217322</ele>
        <time>2026-07-07T17:38:25.000Z</time>
      </trkpt>
      <trkpt lat="47.51241" lon="16.03279">
        <ele>1012.308618</ele>
        <time>2026-07-07T17:38:26.000Z</time>
      </trkpt>
      <trkpt lat="47.51241" lon="16.03278">
        <ele>1012.41362</ele>
        <time>2026-07-07T17:38:27.000Z</time>
      </trkpt>
      <trkpt lat="47.51241" lon="16.03277">
        <ele>1012.500667</ele>
        <time>2026-07-07T17:38:28.000Z</time>
      </trkpt>
      <trkpt lat="47.51242" lon="16.03276">
        <ele>1012.617014</ele>
        <time>2026-07-07T17:38:29.000Z</time>
      </trkpt>
      <trkpt lat="47.51242" lon="16.03275">
        <ele>1012.697304</ele>
        <time>2026-07-07T17:38:30.000Z</time>
      </trkpt>
      <trkpt lat="47.51242" lon="16.03273">
        <ele>1012.791196</ele>
        <time>2026-07-07T17:38:31.000Z</time>
      </trkpt>
      <trkpt lat="47.51243" lon="16.03272">
        <ele>1012.882866</ele>
        <time>2026-07-07T17:38:32.000Z</time>
      </trkpt>
      <trkpt lat="47.51243" lon="16.03271">
        <ele>1012.985595</ele>
        <time>2026-07-07T17:38:33.000Z</time>
      </trkpt>
      <trkpt lat="47.51243" lon="16.0327">
        <ele>1013.059773</ele>
        <time>2026-07-07T17:38:34.000Z</time>
      </trkpt>
      <trkpt lat="47.51243" lon="16.03269">
        <ele>1013.108869</ele>
        <time>2026-07-07T17:38:35.000Z</time>
      </trkpt>
      <trkpt lat="47.51243" lon="16.03269">
        <ele>1013.13822</ele>
        <time>2026-07-07T17:38:36.000Z</time>
      </trkpt>
      <trkpt lat="47.51243" lon="16.03269">
        <ele>1013.159948</ele>
        <time>2026-07-07T17:38:37.000Z</time>
      </trkpt>
      <trkpt lat="47.51244" lon="16.03266">
        <ele>1013.354629</ele>
        <time>2026-07-07T17:38:40.000Z</time>
      </trkpt>
      <trkpt lat="47.51244" lon="16.03266">
        <ele>1013.427666</ele>
        <time>2026-07-07T17:38:41.000Z</time>
      </trkpt>
      <trkpt lat="47.51244" lon="16.03265">
        <ele>1013.501843</ele>
        <time>2026-07-07T17:38:42.000Z</time>
      </trkpt>
      <trkpt lat="47.51245" lon="16.03264">
        <ele>1013.587124</ele>
        <time>2026-07-07T17:38:43.000Z</time>
      </trkpt>
      <trkpt lat="47.51245" lon="16.03262">
        <ele>1013.683131</ele>
        <time>2026-07-07T17:38:44.000Z</time>
      </trkpt>
      <trkpt lat="47.51245" lon="16.03261">
        <ele>1013.781324</ele>
        <time>2026-07-07T17:38:45.000Z</time>
      </trkpt>
      <trkpt lat="47.51245" lon="16.0326">
        <ele>1013.870045</ele>
        <time>2026-07-07T17:38:46.000Z</time>
      </trkpt>
      <trkpt lat="47.51246" lon="16.03259">
        <ele>1013.961715</ele>
        <time>2026-07-07T17:38:47.000Z</time>
      </trkpt>
      <trkpt lat="47.51246" lon="16.03258">
        <ele>1014.042005</ele>
        <time>2026-07-07T17:38:48.000Z</time>
      </trkpt>
      <trkpt lat="47.51246" lon="16.03257">
        <ele>1014.130059</ele>
        <time>2026-07-07T17:38:49.000Z</time>
      </trkpt>
      <trkpt lat="47.51246" lon="16.03256">
        <ele>1014.206586</ele>
        <time>2026-07-07T17:38:50.000Z</time>
      </trkpt>
      <trkpt lat="47.51247" lon="16.03254">
        <ele>1014.300477</ele>
        <time>2026-07-07T17:38:51.000Z</time>
      </trkpt>
      <trkpt lat="47.51247" lon="16.03253">
        <ele>1014.384066</ele>
        <time>2026-07-07T17:38:52.000Z</time>
      </trkpt>
      <trkpt lat="47.51247" lon="16.03252">
        <ele>1014.472787</ele>
        <time>2026-07-07T17:38:53.000Z</time>
      </trkpt>
      <trkpt lat="47.51247" lon="16.03251">
        <ele>1014.568179</ele>
        <time>2026-07-07T17:38:54.000Z</time>
      </trkpt>
      <trkpt lat="47.51247" lon="16.0325">
        <ele>1014.666371</ele>
        <time>2026-07-07T17:38:55.000Z</time>
      </trkpt>
      <trkpt lat="47.51247" lon="16.03248">
        <ele>1014.755092</ele>
        <time>2026-07-07T17:38:56.000Z</time>
      </trkpt>
      <trkpt lat="47.51248" lon="16.03247">
        <ele>1014.831619</ele>
        <time>2026-07-07T17:38:57.000Z</time>
      </trkpt>
      <trkpt lat="47.51248" lon="16.03246">
        <ele>1014.929454</ele>
        <time>2026-07-07T17:38:58.000Z</time>
      </trkpt>
      <trkpt lat="47.51248" lon="16.03245">
        <ele>1015.025462</ele>
        <time>2026-07-07T17:38:59.000Z</time>
      </trkpt>
      <trkpt lat="47.51248" lon="16.03244">
        <ele>1015.116156</ele>
        <time>2026-07-07T17:39:00.000Z</time>
      </trkpt>
      <trkpt lat="47.51248" lon="16.03242">
        <ele>1015.21399</ele>
        <time>2026-07-07T17:39:01.000Z</time>
      </trkpt>
      <trkpt lat="47.51248" lon="16.03241">
        <ele>1015.302711</ele>
        <time>2026-07-07T17:39:02.000Z</time>
      </trkpt>
      <trkpt lat="47.51249" lon="16.0324">
        <ele>1015.387992</ele>
        <time>2026-07-07T17:39:03.000Z</time>
      </trkpt>
      <trkpt lat="47.51249" lon="16.03239">
        <ele>1015.483999</ele>
        <time>2026-07-07T17:39:04.000Z</time>
      </trkpt>
      <trkpt lat="47.51249" lon="16.03238">
        <ele>1015.574694</ele>
        <time>2026-07-07T17:39:05.000Z</time>
      </trkpt>
      <trkpt lat="47.51249" lon="16.03237">
        <ele>1015.654984</ele>
        <time>2026-07-07T17:39:06.000Z</time>
      </trkpt>
      <trkpt lat="47.5125" lon="16.03235">
        <ele>1015.745678</ele>
        <time>2026-07-07T17:39:07.000Z</time>
      </trkpt>
      <trkpt lat="47.5125" lon="16.03234">
        <ele>1015.829267</ele>
        <time>2026-07-07T17:39:08.000Z</time>
      </trkpt>
      <trkpt lat="47.5125" lon="16.03233">
        <ele>1015.917988</ele>
        <time>2026-07-07T17:39:09.000Z</time>
      </trkpt>
      <trkpt lat="47.5125" lon="16.03232">
        <ele>1016.008683</ele>
        <time>2026-07-07T17:39:10.000Z</time>
      </trkpt>
      <trkpt lat="47.5125" lon="16.03231">
        <ele>1016.09573</ele>
        <time>2026-07-07T17:39:11.000Z</time>
      </trkpt>
      <trkpt lat="47.51251" lon="16.0323">
        <ele>1016.193923</ele>
        <time>2026-07-07T17:39:12.000Z</time>
      </trkpt>
      <trkpt lat="47.51251" lon="16.03229">
        <ele>1016.274213</ele>
        <time>2026-07-07T17:39:13.000Z</time>
      </trkpt>
      <trkpt lat="47.51251" lon="16.03227">
        <ele>1016.368104</ele>
        <time>2026-07-07T17:39:14.000Z</time>
      </trkpt>
      <trkpt lat="47.51252" lon="16.03226">
        <ele>1016.451693</ele>
        <time>2026-07-07T17:39:15.000Z</time>
      </trkpt>
      <trkpt lat="47.51252" lon="16.03225">
        <ele>1016.531983</ele>
        <time>2026-07-07T17:39:16.000Z</time>
      </trkpt>
      <trkpt lat="47.51252" lon="16.03224">
        <ele>1016.630176</ele>
        <time>2026-07-07T17:39:17.000Z</time>
      </trkpt>
      <trkpt lat="47.51253" lon="16.03223">
        <ele>1016.710466</ele>
        <time>2026-07-07T17:39:18.000Z</time>
      </trkpt>
      <trkpt lat="47.51253" lon="16.03222">
        <ele>1016.80116</ele>
        <time>2026-07-07T17:39:19.000Z</time>
      </trkpt>
      <trkpt lat="47.51253" lon="16.03221">
        <ele>1016.888207</ele>
        <time>2026-07-07T17:39:20.000Z</time>
      </trkpt>
      <trkpt lat="47.51253" lon="16.0322">
        <ele>1016.968498</ele>
        <time>2026-07-07T17:39:21.000Z</time>
      </trkpt>
      <trkpt lat="47.51254" lon="16.03219">
        <ele>1017.053778</ele>
        <time>2026-07-07T17:39:22.000Z</time>
      </trkpt>
      <trkpt lat="47.51254" lon="16.03218">
        <ele>1017.134068</ele>
        <time>2026-07-07T17:39:23.000Z</time>
      </trkpt>
      <trkpt lat="47.51254" lon="16.03217">
        <ele>1017.214358</ele>
        <time>2026-07-07T17:39:24.000Z</time>
      </trkpt>
      <trkpt lat="47.51255" lon="16.03216">
        <ele>1017.290885</ele>
        <time>2026-07-07T17:39:25.000Z</time>
      </trkpt>
      <trkpt lat="47.51255" lon="16.03215">
        <ele>1017.381579</ele>
        <time>2026-07-07T17:39:26.000Z</time>
      </trkpt>
      <trkpt lat="47.51255" lon="16.03213">
        <ele>1017.475471</ele>
        <time>2026-07-07T17:39:27.000Z</time>
      </trkpt>
      <trkpt lat="47.51255" lon="16.03212">
        <ele>1017.562518</ele>
        <time>2026-07-07T17:39:28.000Z</time>
      </trkpt>
      <trkpt lat="47.51256" lon="16.03211">
        <ele>1017.647798</ele>
        <time>2026-07-07T17:39:29.000Z</time>
      </trkpt>
      <trkpt lat="47.51256" lon="16.0321">
        <ele>1017.741689</ele>
        <time>2026-07-07T17:39:30.000Z</time>
      </trkpt>
      <trkpt lat="47.51256" lon="16.03209">
        <ele>1017.821979</ele>
        <time>2026-07-07T17:39:31.000Z</time>
      </trkpt>
      <trkpt lat="47.51257" lon="16.03208">
        <ele>1017.907259</ele>
        <time>2026-07-07T17:39:32.000Z</time>
      </trkpt>
      <trkpt lat="47.51257" lon="16.03207">
        <ele>1018.001151</ele>
        <time>2026-07-07T17:39:33.000Z</time>
      </trkpt>
      <trkpt lat="47.51257" lon="16.03206">
        <ele>1018.101956</ele>
        <time>2026-07-07T17:39:34.000Z</time>
      </trkpt>
      <trkpt lat="47.51258" lon="16.03204">
        <ele>1018.19265</ele>
        <time>2026-07-07T17:39:35.000Z</time>
      </trkpt>
      <trkpt lat="47.51258" lon="16.03203">
        <ele>1018.279697</ele>
        <time>2026-07-07T17:39:36.000Z</time>
      </trkpt>
      <trkpt lat="47.51258" lon="16.03202">
        <ele>1018.377889</ele>
        <time>2026-07-07T17:39:37.000Z</time>
      </trkpt>
      <trkpt lat="47.51259" lon="16.03201">
        <ele>1018.471781</ele>
        <time>2026-07-07T17:39:38.000Z</time>
      </trkpt>
      <trkpt lat="47.51259" lon="16.032">
        <ele>1018.55537</ele>
        <time>2026-07-07T17:39:39.000Z</time>
      </trkpt>
      <trkpt lat="47.51259" lon="16.03199">
        <ele>1018.649261</ele>
        <time>2026-07-07T17:39:40.000Z</time>
      </trkpt>
      <trkpt lat="47.51259" lon="16.03197">
        <ele>1018.739955</ele>
        <time>2026-07-07T17:39:41.000Z</time>
      </trkpt>
      <trkpt lat="47.5126" lon="16.03196">
        <ele>1018.820245</ele>
        <time>2026-07-07T17:39:42.000Z</time>
      </trkpt>
      <trkpt lat="47.5126" lon="16.03195">
        <ele>1018.896772</ele>
        <time>2026-07-07T17:39:43.000Z</time>
      </trkpt>
      <trkpt lat="47.5126" lon="16.03195">
        <ele>1018.963915</ele>
        <time>2026-07-07T17:39:44.000Z</time>
      </trkpt>
      <trkpt lat="47.5126" lon="16.03194">
        <ele>1019.044205</ele>
        <time>2026-07-07T17:39:45.000Z</time>
      </trkpt>
      <trkpt lat="47.51261" lon="16.03193">
        <ele>1019.129485</ele>
        <time>2026-07-07T17:39:46.000Z</time>
      </trkpt>
      <trkpt lat="47.51261" lon="16.03192">
        <ele>1019.209775</ele>
        <time>2026-07-07T17:39:47.000Z</time>
      </trkpt>
      <trkpt lat="47.51261" lon="16.0319">
        <ele>1019.303666</ele>
        <time>2026-07-07T17:39:48.000Z</time>
      </trkpt>
      <trkpt lat="47.51262" lon="16.03189">
        <ele>1019.395336</ele>
        <time>2026-07-07T17:39:49.000Z</time>
      </trkpt>
      <trkpt lat="47.51262" lon="16.03188">
        <ele>1019.489227</ele>
        <time>2026-07-07T17:39:50.000Z</time>
      </trkpt>
      <trkpt lat="47.51262" lon="16.03187">
        <ele>1019.569517</ele>
        <time>2026-07-07T17:39:51.000Z</time>
      </trkpt>
      <trkpt lat="47.51263" lon="16.03186">
        <ele>1019.66771</ele>
        <time>2026-07-07T17:39:52.000Z</time>
      </trkpt>
      <trkpt lat="47.51263" lon="16.03185">
        <ele>1019.748</ele>
        <time>2026-07-07T17:39:53.000Z</time>
      </trkpt>
      <trkpt lat="47.51263" lon="16.03184">
        <ele>1019.831588</ele>
        <time>2026-07-07T17:39:54.000Z</time>
      </trkpt>
      <trkpt lat="47.51264" lon="16.03183">
        <ele>1019.92548</ele>
        <time>2026-07-07T17:39:55.000Z</time>
      </trkpt>
      <trkpt lat="47.51264" lon="16.03181">
        <ele>1020.016174</ele>
        <time>2026-07-07T17:39:56.000Z</time>
      </trkpt>
      <trkpt lat="47.51264" lon="16.0318">
        <ele>1020.103221</ele>
        <time>2026-07-07T17:39:57.000Z</time>
      </trkpt>
      <trkpt lat="47.51264" lon="16.03179">
        <ele>1020.210996</ele>
        <time>2026-07-07T17:39:58.000Z</time>
      </trkpt>
      <trkpt lat="47.51265" lon="16.03178">
        <ele>1020.315818</ele>
        <time>2026-07-07T17:39:59.000Z</time>
      </trkpt>
      <trkpt lat="47.51265" lon="16.03176">
        <ele>1020.40971</ele>
        <time>2026-07-07T17:40:00.000Z</time>
      </trkpt>
      <trkpt lat="47.51265" lon="16.03175">
        <ele>1020.510515</ele>
        <time>2026-07-07T17:40:01.000Z</time>
      </trkpt>
      <trkpt lat="47.51266" lon="16.03174">
        <ele>1020.608349</ele>
        <time>2026-07-07T17:40:02.000Z</time>
      </trkpt>
      <trkpt lat="47.51266" lon="16.03172">
        <ele>1020.716123</ele>
        <time>2026-07-07T17:40:03.000Z</time>
      </trkpt>
      <trkpt lat="47.51266" lon="16.03171">
        <ele>1020.820946</ele>
        <time>2026-07-07T17:40:04.000Z</time>
      </trkpt>
      <trkpt lat="47.51266" lon="16.0317">
        <ele>1020.895123</ele>
        <time>2026-07-07T17:40:05.000Z</time>
      </trkpt>
      <trkpt lat="47.51267" lon="16.03169">
        <ele>1020.993316</ele>
        <time>2026-07-07T17:40:06.000Z</time>
      </trkpt>
      <trkpt lat="47.51267" lon="16.03168">
        <ele>1021.073606</ele>
        <time>2026-07-07T17:40:07.000Z</time>
      </trkpt>
      <trkpt lat="47.51267" lon="16.03167">
        <ele>1021.160653</ele>
        <time>2026-07-07T17:40:08.000Z</time>
      </trkpt>
      <trkpt lat="47.51268" lon="16.03166">
        <ele>1021.237179</ele>
        <time>2026-07-07T17:40:09.000Z</time>
      </trkpt>
      <trkpt lat="47.51268" lon="16.03165">
        <ele>1021.317469</ele>
        <time>2026-07-07T17:40:10.000Z</time>
      </trkpt>
      <trkpt lat="47.51268" lon="16.03164">
        <ele>1021.396524</ele>
        <time>2026-07-07T17:40:11.000Z</time>
      </trkpt>
      <trkpt lat="47.51268" lon="16.03163">
        <ele>1021.470701</ele>
        <time>2026-07-07T17:40:12.000Z</time>
      </trkpt>
      <trkpt lat="47.51269" lon="16.03162">
        <ele>1021.555981</ele>
        <time>2026-07-07T17:40:13.000Z</time>
      </trkpt>
      <trkpt lat="47.51269" lon="16.03161">
        <ele>1021.643028</ele>
        <time>2026-07-07T17:40:14.000Z</time>
      </trkpt>
      <trkpt lat="47.51269" lon="16.0316">
        <ele>1021.736919</ele>
        <time>2026-07-07T17:40:15.000Z</time>
      </trkpt>
      <trkpt lat="47.5127" lon="16.03159">
        <ele>1021.822199</ele>
        <time>2026-07-07T17:40:16.000Z</time>
      </trkpt>
      <trkpt lat="47.5127" lon="16.03158">
        <ele>1021.902489</ele>
        <time>2026-07-07T17:40:17.000Z</time>
      </trkpt>
      <trkpt lat="47.5127" lon="16.03156">
        <ele>1021.990542</ele>
        <time>2026-07-07T17:40:18.000Z</time>
      </trkpt>
      <trkpt lat="47.5127" lon="16.03155">
        <ele>1022.077589</ele>
        <time>2026-07-07T17:40:19.000Z</time>
      </trkpt>
      <trkpt lat="47.51271" lon="16.03154">
        <ele>1022.168283</ele>
        <time>2026-07-07T17:40:20.000Z</time>
      </trkpt>
      <trkpt lat="47.51271" lon="16.03153">
        <ele>1022.258977</ele>
        <time>2026-07-07T17:40:21.000Z</time>
      </trkpt>
      <trkpt lat="47.51271" lon="16.03152">
        <ele>1022.359782</ele>
        <time>2026-07-07T17:40:22.000Z</time>
      </trkpt>
      <trkpt lat="47.51271" lon="16.0315">
        <ele>1022.457616</ele>
        <time>2026-07-07T17:40:23.000Z</time>
      </trkpt>
      <trkpt lat="47.51272" lon="16.03149">
        <ele>1022.565391</ele>
        <time>2026-07-07T17:40:24.000Z</time>
      </trkpt>
      <trkpt lat="47.51272" lon="16.03148">
        <ele>1022.666195</ele>
        <time>2026-07-07T17:40:25.000Z</time>
      </trkpt>
      <trkpt lat="47.51272" lon="16.03146">
        <ele>1022.78453</ele>
        <time>2026-07-07T17:40:26.000Z</time>
      </trkpt>
      <trkpt lat="47.51272" lon="16.03145">
        <ele>1022.895131</ele>
        <time>2026-07-07T17:40:27.000Z</time>
      </trkpt>
      <trkpt lat="47.51273" lon="16.03143">
        <ele>1022.999953</ele>
        <time>2026-07-07T17:40:28.000Z</time>
      </trkpt>
      <trkpt lat="47.51273" lon="16.03142">
        <ele>1023.110554</ele>
        <time>2026-07-07T17:40:29.000Z</time>
      </trkpt>
      <trkpt lat="47.51273" lon="16.0314">
        <ele>1023.222096</ele>
        <time>2026-07-07T17:40:30.000Z</time>
      </trkpt>
      <trkpt lat="47.51273" lon="16.03139">
        <ele>1023.332697</ele>
        <time>2026-07-07T17:40:31.000Z</time>
      </trkpt>
      <trkpt lat="47.51274" lon="16.03137">
        <ele>1023.444887</ele>
        <time>2026-07-07T17:40:32.000Z</time>
      </trkpt>
      <trkpt lat="47.51274" lon="16.03136">
        <ele>1023.545692</ele>
        <time>2026-07-07T17:40:33.000Z</time>
      </trkpt>
      <trkpt lat="47.51274" lon="16.03135">
        <ele>1023.641083</ele>
        <time>2026-07-07T17:40:34.000Z</time>
      </trkpt>
      <trkpt lat="47.51274" lon="16.03133">
        <ele>1023.752624</ele>
        <time>2026-07-07T17:40:35.000Z</time>
      </trkpt>
      <trkpt lat="47.51274" lon="16.03132">
        <ele>1023.848631</ele>
        <time>2026-07-07T17:40:36.000Z</time>
      </trkpt>
      <trkpt lat="47.51275" lon="16.03131">
        <ele>1023.960822</ele>
        <time>2026-07-07T17:40:37.000Z</time>
      </trkpt>
      <trkpt lat="47.51275" lon="16.03129">
        <ele>1024.075612</ele>
        <time>2026-07-07T17:40:38.000Z</time>
      </trkpt>
      <trkpt lat="47.51275" lon="16.03128">
        <ele>1024.193946</ele>
        <time>2026-07-07T17:40:39.000Z</time>
      </trkpt>
      <trkpt lat="47.51275" lon="16.03126">
        <ele>1024.289337</ele>
        <time>2026-07-07T17:40:40.000Z</time>
      </trkpt>
      <trkpt lat="47.51275" lon="16.03125">
        <ele>1024.392638</ele>
        <time>2026-07-07T17:40:41.000Z</time>
      </trkpt>
      <trkpt lat="47.51275" lon="16.03123">
        <ele>1024.502704</ele>
        <time>2026-07-07T17:40:42.000Z</time>
      </trkpt>
      <trkpt lat="47.51276" lon="16.03122">
        <ele>1024.607527</ele>
        <time>2026-07-07T17:40:43.000Z</time>
      </trkpt>
      <trkpt lat="47.51276" lon="16.03121">
        <ele>1024.703534</ele>
        <time>2026-07-07T17:40:44.000Z</time>
      </trkpt>
      <trkpt lat="47.51276" lon="16.03119">
        <ele>1024.808535</ele>
        <time>2026-07-07T17:40:45.000Z</time>
      </trkpt>
      <trkpt lat="47.51276" lon="16.03118">
        <ele>1024.906369</ele>
        <time>2026-07-07T17:40:46.000Z</time>
      </trkpt>
      <trkpt lat="47.51277" lon="16.03117">
        <ele>1025.021159</ele>
        <time>2026-07-07T17:40:47.000Z</time>
      </trkpt>
      <trkpt lat="47.51277" lon="16.03115">
        <ele>1025.133349</ele>
        <time>2026-07-07T17:40:48.000Z</time>
      </trkpt>
      <trkpt lat="47.51277" lon="16.03114">
        <ele>1025.229356</ele>
        <time>2026-07-07T17:40:49.000Z</time>
      </trkpt>
      <trkpt lat="47.51277" lon="16.03112">
        <ele>1025.341547</ele>
        <time>2026-07-07T17:40:50.000Z</time>
      </trkpt>
      <trkpt lat="47.51277" lon="16.03111">
        <ele>1025.446548</ele>
        <time>2026-07-07T17:40:51.000Z</time>
      </trkpt>
      <trkpt lat="47.51278" lon="16.0311">
        <ele>1025.547352</ele>
        <time>2026-07-07T17:40:52.000Z</time>
      </trkpt>
      <trkpt lat="47.51278" lon="16.03108">
        <ele>1025.648157</ele>
        <time>2026-07-07T17:40:53.000Z</time>
      </trkpt>
      <trkpt lat="47.51278" lon="16.03107">
        <ele>1025.753158</ele>
        <time>2026-07-07T17:40:54.000Z</time>
      </trkpt>
      <trkpt lat="47.51278" lon="16.03106">
        <ele>1025.836746</ele>
        <time>2026-07-07T17:40:55.000Z</time>
      </trkpt>
      <trkpt lat="47.51279" lon="16.03104">
        <ele>1025.951537</ele>
        <time>2026-07-07T17:40:56.000Z</time>
      </trkpt>
      <trkpt lat="47.51279" lon="16.03103">
        <ele>1026.063727</ele>
        <time>2026-07-07T17:40:57.000Z</time>
      </trkpt>
      <trkpt lat="47.51279" lon="16.03102">
        <ele>1026.157618</ele>
        <time>2026-07-07T17:40:58.000Z</time>
      </trkpt>
      <trkpt lat="47.51279" lon="16.031">
        <ele>1026.258422</ele>
        <time>2026-07-07T17:40:59.000Z</time>
      </trkpt>
      <trkpt lat="47.51279" lon="16.03099">
        <ele>1026.368488</ele>
        <time>2026-07-07T17:41:00.000Z</time>
      </trkpt>
      <trkpt lat="47.5128" lon="16.03097">
        <ele>1026.486822</ele>
        <time>2026-07-07T17:41:01.000Z</time>
      </trkpt>
      <trkpt lat="47.5128" lon="16.03096">
        <ele>1026.594597</ele>
        <time>2026-07-07T17:41:02.000Z</time>
      </trkpt>
      <trkpt lat="47.5128" lon="16.03095">
        <ele>1026.692431</ele>
        <time>2026-07-07T17:41:03.000Z</time>
      </trkpt>
      <trkpt lat="47.5128" lon="16.03093">
        <ele>1026.781151</ele>
        <time>2026-07-07T17:41:04.000Z</time>
      </trkpt>
      <trkpt lat="47.51281" lon="16.03092">
        <ele>1026.885974</ele>
        <time>2026-07-07T17:41:05.000Z</time>
      </trkpt>
      <trkpt lat="47.51281" lon="16.03091">
        <ele>1026.986778</ele>
        <time>2026-07-07T17:41:06.000Z</time>
      </trkpt>
      <trkpt lat="47.51281" lon="16.03089">
        <ele>1027.066718</ele>
        <time>2026-07-07T17:41:07.000Z</time>
      </trkpt>
      <trkpt lat="47.51282" lon="16.03088">
        <ele>1027.121443</ele>
        <time>2026-07-07T17:41:08.000Z</time>
      </trkpt>
      <trkpt lat="47.51282" lon="16.03086">
        <ele>1027.18127</ele>
        <time>2026-07-07T17:41:09.000Z</time>
      </trkpt>
      <trkpt lat="47.51282" lon="16.03085">
        <ele>1027.235902</ele>
        <time>2026-07-07T17:41:10.000Z</time>
      </trkpt>
      <trkpt lat="47.51282" lon="16.03084">
        <ele>1027.28594</ele>
        <time>2026-07-07T17:41:11.000Z</time>
      </trkpt>
      <trkpt lat="47.51283" lon="16.03082">
        <ele>1027.344074</ele>
        <time>2026-07-07T17:41:12.000Z</time>
      </trkpt>
      <trkpt lat="47.51283" lon="16.03081">
        <ele>1027.394112</ele>
        <time>2026-07-07T17:41:13.000Z</time>
      </trkpt>
      <trkpt lat="47.51283" lon="16.0308">
        <ele>1027.445102</ele>
        <time>2026-07-07T17:41:14.000Z</time>
      </trkpt>
      <trkpt lat="47.51283" lon="16.03078">
        <ele>1027.501272</ele>
        <time>2026-07-07T17:41:15.000Z</time>
      </trkpt>
      <trkpt lat="47.51284" lon="16.03077">
        <ele>1027.555904</ele>
        <time>2026-07-07T17:41:16.000Z</time>
      </trkpt>
      <trkpt lat="47.51284" lon="16.03076">
        <ele>1027.608443</ele>
        <time>2026-07-07T17:41:17.000Z</time>
      </trkpt>
      <trkpt lat="47.51284" lon="16.03075">
        <ele>1027.657377</ele>
        <time>2026-07-07T17:41:18.000Z</time>
      </trkpt>
      <trkpt lat="47.51285" lon="16.03073">
        <ele>1027.71201</ele>
        <time>2026-07-07T17:41:19.000Z</time>
      </trkpt>
      <trkpt lat="47.51285" lon="16.03072">
        <ele>1027.760944</ele>
        <time>2026-07-07T17:41:20.000Z</time>
      </trkpt>
      <trkpt lat="47.51285" lon="16.03071">
        <ele>1027.813483</ele>
        <time>2026-07-07T17:41:21.000Z</time>
      </trkpt>
      <trkpt lat="47.51286" lon="16.03069">
        <ele>1027.871617</ele>
        <time>2026-07-07T17:41:22.000Z</time>
      </trkpt>
      <trkpt lat="47.51286" lon="16.03068">
        <ele>1027.928828</ele>
        <time>2026-07-07T17:41:23.000Z</time>
      </trkpt>
      <trkpt lat="47.51287" lon="16.03067">
        <ele>1027.977763</ele>
        <time>2026-07-07T17:41:24.000Z</time>
      </trkpt>
      <trkpt lat="47.51287" lon="16.03066">
        <ele>1028.02847</ele>
        <time>2026-07-07T17:41:25.000Z</time>
      </trkpt>
      <trkpt lat="47.51287" lon="16.03065">
        <ele>1028.077405</ele>
        <time>2026-07-07T17:41:26.000Z</time>
      </trkpt>
      <trkpt lat="47.51288" lon="16.03063">
        <ele>1028.131327</ele>
        <time>2026-07-07T17:41:27.000Z</time>
      </trkpt>
      <trkpt lat="47.51288" lon="16.03062">
        <ele>1028.179104</ele>
        <time>2026-07-07T17:41:28.000Z</time>
      </trkpt>
      <trkpt lat="47.51289" lon="16.03061">
        <ele>1028.235274</ele>
        <time>2026-07-07T17:41:29.000Z</time>
      </trkpt>
      <trkpt lat="47.51289" lon="16.0306">
        <ele>1028.285981</ele>
        <time>2026-07-07T17:41:30.000Z</time>
      </trkpt>
      <trkpt lat="47.51289" lon="16.03059">
        <ele>1028.334916</ele>
        <time>2026-07-07T17:41:31.000Z</time>
      </trkpt>
      <trkpt lat="47.5129" lon="16.03057">
        <ele>1028.392128</ele>
        <time>2026-07-07T17:41:33.000Z</time>
      </trkpt>
      <trkpt lat="47.5129" lon="16.03056">
        <ele>1028.44605</ele>
        <time>2026-07-07T17:41:34.000Z</time>
      </trkpt>
      <trkpt lat="47.51291" lon="16.03055">
        <ele>1028.500682</ele>
        <time>2026-07-07T17:41:35.000Z</time>
      </trkpt>
      <trkpt lat="47.51291" lon="16.03053">
        <ele>1028.556853</ele>
        <time>2026-07-07T17:41:36.000Z</time>
      </trkpt>
      <trkpt lat="47.51292" lon="16.03052">
        <ele>1028.607559</ele>
        <time>2026-07-07T17:41:37.000Z</time>
      </trkpt>
      <trkpt lat="47.51292" lon="16.03051">
        <ele>1028.66373</ele>
        <time>2026-07-07T17:41:38.000Z</time>
      </trkpt>
      <trkpt lat="47.51292" lon="16.0305">
        <ele>1028.714437</ele>
        <time>2026-07-07T17:41:39.000Z</time>
      </trkpt>
      <trkpt lat="47.51293" lon="16.03049">
        <ele>1028.775075</ele>
        <time>2026-07-07T17:41:40.000Z</time>
      </trkpt>
      <trkpt lat="47.51294" lon="16.03047">
        <ele>1028.832287</ele>
        <time>2026-07-07T17:41:41.000Z</time>
      </trkpt>
      <trkpt lat="47.51294" lon="16.03046">
        <ele>1028.886209</ele>
        <time>2026-07-07T17:41:42.000Z</time>
      </trkpt>
      <trkpt lat="47.51295" lon="16.03045">
        <ele>1028.946847</ele>
        <time>2026-07-07T17:41:43.000Z</time>
      </trkpt>
      <trkpt lat="47.51295" lon="16.03044">
        <ele>1028.997554</ele>
        <time>2026-07-07T17:41:44.000Z</time>
      </trkpt>
      <trkpt lat="47.51296" lon="16.03042">
        <ele>1029.058118</ele>
        <time>2026-07-07T17:41:45.000Z</time>
      </trkpt>
      <trkpt lat="47.51296" lon="16.03041">
        <ele>1029.110656</ele>
        <time>2026-07-07T17:41:46.000Z</time>
      </trkpt>
      <trkpt lat="47.51297" lon="16.0304">
        <ele>1029.167868</ele>
        <time>2026-07-07T17:41:47.000Z</time>
      </trkpt>
      <trkpt lat="47.51297" lon="16.03039">
        <ele>1029.215137</ele>
        <time>2026-07-07T17:41:48.000Z</time>
      </trkpt>
      <trkpt lat="47.51297" lon="16.03038">
        <ele>1029.262719</ele>
        <time>2026-07-07T17:41:49.000Z</time>
      </trkpt>
      <trkpt lat="47.51297" lon="16.03037">
        <ele>1029.274192</ele>
        <time>2026-07-07T17:41:50.000Z</time>
      </trkpt>
      <trkpt lat="47.51298" lon="16.03035">
        <ele>1029.394778</ele>
        <time>2026-07-07T17:42:01.000Z</time>
      </trkpt>
      <trkpt lat="47.51299" lon="16.03033">
        <ele>1029.469211</ele>
        <time>2026-07-07T17:42:02.000Z</time>
      </trkpt>
      <trkpt lat="47.513" lon="16.0303">
        <ele>1029.572709</ele>
        <time>2026-07-07T17:42:03.000Z</time>
      </trkpt>
      <trkpt lat="47.513" lon="16.03028">
        <ele>1029.683311</ele>
        <time>2026-07-07T17:42:04.000Z</time>
      </trkpt>
      <trkpt lat="47.51301" lon="16.03025">
        <ele>1029.795652</ele>
        <time>2026-07-07T17:42:05.000Z</time>
      </trkpt>
      <trkpt lat="47.51301" lon="16.03022">
        <ele>1029.910114</ele>
        <time>2026-07-07T17:42:06.000Z</time>
      </trkpt>
      <trkpt lat="47.51302" lon="16.03019">
        <ele>1030.020874</ele>
        <time>2026-07-07T17:42:07.000Z</time>
      </trkpt>
      <trkpt lat="47.51302" lon="16.03016">
        <ele>1030.137818</ele>
        <time>2026-07-07T17:42:08.000Z</time>
      </trkpt>
      <trkpt lat="47.51303" lon="16.03013">
        <ele>1030.253799</ele>
        <time>2026-07-07T17:42:09.000Z</time>
      </trkpt>
      <trkpt lat="47.51303" lon="16.0301">
        <ele>1030.375182</ele>
        <time>2026-07-07T17:42:10.000Z</time>
      </trkpt>
      <trkpt lat="47.51304" lon="16.03007">
        <ele>1030.487522</ele>
        <time>2026-07-07T17:42:11.000Z</time>
      </trkpt>
      <trkpt lat="47.51305" lon="16.03004">
        <ele>1030.608905</ele>
        <time>2026-07-07T17:42:12.000Z</time>
      </trkpt>
      <trkpt lat="47.51305" lon="16.03001">
        <ele>1030.730288</ele>
        <time>2026-07-07T17:42:13.000Z</time>
      </trkpt>
      <trkpt lat="47.51306" lon="16.02998">
        <ele>1030.848459</ele>
        <time>2026-07-07T17:42:14.000Z</time>
      </trkpt>
      <trkpt lat="47.51306" lon="16.02995">
        <ele>1030.968113</ele>
        <time>2026-07-07T17:42:15.000Z</time>
      </trkpt>
      <trkpt lat="47.51307" lon="16.02992">
        <ele>1031.086284</ele>
        <time>2026-07-07T17:42:16.000Z</time>
      </trkpt>
      <trkpt lat="47.51308" lon="16.02989">
        <ele>1031.211822</ele>
        <time>2026-07-07T17:42:17.000Z</time>
      </trkpt>
      <trkpt lat="47.51309" lon="16.02986">
        <ele>1031.331621</ele>
        <time>2026-07-07T17:42:18.000Z</time>
      </trkpt>
      <trkpt lat="47.51309" lon="16.02983">
        <ele>1031.454969</ele>
        <time>2026-07-07T17:42:19.000Z</time>
      </trkpt>
      <trkpt lat="47.5131" lon="16.02981">
        <ele>1031.576098</ele>
        <time>2026-07-07T17:42:20.000Z</time>
      </trkpt>
      <trkpt lat="47.51312" lon="16.02978">
        <ele>1031.702916</ele>
        <time>2026-07-07T17:42:21.000Z</time>
      </trkpt>
      <trkpt lat="47.51313" lon="16.02975">
        <ele>1031.827439</ele>
        <time>2026-07-07T17:42:22.000Z</time>
      </trkpt>
      <trkpt lat="47.51314" lon="16.02972">
        <ele>1031.948568</ele>
        <time>2026-07-07T17:42:23.000Z</time>
      </trkpt>
      <trkpt lat="47.51315" lon="16.02969">
        <ele>1032.076509</ele>
        <time>2026-07-07T17:42:24.000Z</time>
      </trkpt>
      <trkpt lat="47.51315" lon="16.02966">
        <ele>1032.19069</ele>
        <time>2026-07-07T17:42:25.000Z</time>
      </trkpt>
      <trkpt lat="47.51316" lon="16.02963">
        <ele>1032.315212</ele>
        <time>2026-07-07T17:42:26.000Z</time>
      </trkpt>
      <trkpt lat="47.51317" lon="16.02961">
        <ele>1032.43148</ele>
        <time>2026-07-07T17:42:27.000Z</time>
      </trkpt>
      <trkpt lat="47.51318" lon="16.02958">
        <ele>1032.552609</ele>
        <time>2026-07-07T17:42:28.000Z</time>
      </trkpt>
      <trkpt lat="47.51319" lon="16.02955">
        <ele>1032.665364</ele>
        <time>2026-07-07T17:42:29.000Z</time>
      </trkpt>
      <trkpt lat="47.5132" lon="16.02952">
        <ele>1032.792182</ele>
        <time>2026-07-07T17:42:30.000Z</time>
      </trkpt>
      <trkpt lat="47.51321" lon="16.02949">
        <ele>1032.916705</ele>
        <time>2026-07-07T17:42:31.000Z</time>
      </trkpt>
      <trkpt lat="47.51322" lon="16.02947">
        <ele>1033.037135</ele>
        <time>2026-07-07T17:42:32.000Z</time>
      </trkpt>
      <trkpt lat="47.51323" lon="16.02944">
        <ele>1033.15124</ele>
        <time>2026-07-07T17:42:33.000Z</time>
      </trkpt>
      <trkpt lat="47.51325" lon="16.02942">
        <ele>1033.272516</ele>
        <time>2026-07-07T17:42:34.000Z</time>
      </trkpt>
      <trkpt lat="47.51326" lon="16.02939">
        <ele>1033.389844</ele>
        <time>2026-07-07T17:42:35.000Z</time>
      </trkpt>
      <trkpt lat="47.51327" lon="16.02936">
        <ele>1033.517785</ele>
        <time>2026-07-07T17:42:36.000Z</time>
      </trkpt>
      <trkpt lat="47.51328" lon="16.02933">
        <ele>1033.645725</ele>
        <time>2026-07-07T17:42:37.000Z</time>
      </trkpt>
      <trkpt lat="47.51329" lon="16.0293">
        <ele>1033.775789</ele>
        <time>2026-07-07T17:42:38.000Z</time>
      </trkpt>
      <trkpt lat="47.5133" lon="16.02927">
        <ele>1033.909128</ele>
        <time>2026-07-07T17:42:39.000Z</time>
      </trkpt>
      <trkpt lat="47.51331" lon="16.02924">
        <ele>1034.037068</ele>
        <time>2026-07-07T17:42:40.000Z</time>
      </trkpt>
      <trkpt lat="47.51332" lon="16.02921">
        <ele>1034.160416</ele>
        <time>2026-07-07T17:42:41.000Z</time>
      </trkpt>
      <trkpt lat="47.51333" lon="16.02918">
        <ele>1034.288356</ele>
        <time>2026-07-07T17:42:42.000Z</time>
      </trkpt>
      <trkpt lat="47.51334" lon="16.02915">
        <ele>1034.419736</ele>
        <time>2026-07-07T17:42:43.000Z</time>
      </trkpt>
      <trkpt lat="47.51335" lon="16.02912">
        <ele>1034.547677</ele>
        <time>2026-07-07T17:42:44.000Z</time>
      </trkpt>
      <trkpt lat="47.51336" lon="16.02909">
        <ele>1034.681016</ele>
        <time>2026-07-07T17:42:45.000Z</time>
      </trkpt>
      <trkpt lat="47.51337" lon="16.02906">
        <ele>1034.808213</ele>
        <time>2026-07-07T17:42:46.000Z</time>
      </trkpt>
      <trkpt lat="47.51339" lon="16.02903">
        <ele>1034.944856</ele>
        <time>2026-07-07T17:42:47.000Z</time>
      </trkpt>
      <trkpt lat="47.5134" lon="16.029">
        <ele>1035.072796</ele>
        <time>2026-07-07T17:42:48.000Z</time>
      </trkpt>
      <trkpt lat="47.51341" lon="16.02897">
        <ele>1035.207638</ele>
        <time>2026-07-07T17:42:49.000Z</time>
      </trkpt>
      <trkpt lat="47.51342" lon="16.02894">
        <ele>1035.340977</ele>
        <time>2026-07-07T17:42:50.000Z</time>
      </trkpt>
      <trkpt lat="47.51343" lon="16.02891">
        <ele>1035.464854</ele>
        <time>2026-07-07T17:42:51.000Z</time>
      </trkpt>
      <trkpt lat="47.51344" lon="16.02888">
        <ele>1035.594917</ele>
        <time>2026-07-07T17:42:52.000Z</time>
      </trkpt>
      <trkpt lat="47.51345" lon="16.02886">
        <ele>1035.721734</ele>
        <time>2026-07-07T17:42:53.000Z</time>
      </trkpt>
      <trkpt lat="47.51346" lon="16.02883">
        <ele>1035.845611</ele>
        <time>2026-07-07T17:42:54.000Z</time>
      </trkpt>
      <trkpt lat="47.51348" lon="16.0288">
        <ele>1035.975674</ele>
        <time>2026-07-07T17:42:55.000Z</time>
      </trkpt>
      <trkpt lat="47.51349" lon="16.02877">
        <ele>1036.103614</ele>
        <time>2026-07-07T17:42:56.000Z</time>
      </trkpt>
      <trkpt lat="47.5135" lon="16.02874">
        <ele>1036.224742</ele>
        <time>2026-07-07T17:42:57.000Z</time>
      </trkpt>
      <trkpt lat="47.51351" lon="16.02871">
        <ele>1036.345871</ele>
        <time>2026-07-07T17:42:58.000Z</time>
      </trkpt>
      <trkpt lat="47.51352" lon="16.02868">
        <ele>1036.475934</ele>
        <time>2026-07-07T17:42:59.000Z</time>
      </trkpt>
      <trkpt lat="47.51353" lon="16.02866">
        <ele>1036.574871</ele>
        <time>2026-07-07T17:43:00.000Z</time>
      </trkpt>
      <trkpt lat="47.51354" lon="16.02864">
        <ele>1036.685987</ele>
        <time>2026-07-07T17:43:01.000Z</time>
      </trkpt>
      <trkpt lat="47.51355" lon="16.02861">
        <ele>1036.807115</ele>
        <time>2026-07-07T17:43:02.000Z</time>
      </trkpt>
      <trkpt lat="47.51356" lon="16.02858">
        <ele>1036.935055</ele>
        <time>2026-07-07T17:43:03.000Z</time>
      </trkpt>
      <trkpt lat="47.51357" lon="16.02855">
        <ele>1037.062995</ele>
        <time>2026-07-07T17:43:04.000Z</time>
      </trkpt>
      <trkpt lat="47.51357" lon="16.02852">
        <ele>1037.170061</ele>
        <time>2026-07-07T17:43:05.000Z</time>
      </trkpt>
      <trkpt lat="47.51358" lon="16.0285">
        <ele>1037.275342</ele>
        <time>2026-07-07T17:43:06.000Z</time>
      </trkpt>
      <trkpt lat="47.51359" lon="16.02847">
        <ele>1037.384248</ele>
        <time>2026-07-07T17:43:07.000Z</time>
      </trkpt>
      <trkpt lat="47.5136" lon="16.02844">
        <ele>1037.511489</ele>
        <time>2026-07-07T17:43:08.000Z</time>
      </trkpt>
      <trkpt lat="47.51361" lon="16.02842">
        <ele>1037.64525</ele>
        <time>2026-07-07T17:43:09.000Z</time>
      </trkpt>
      <trkpt lat="47.51362" lon="16.02839">
        <ele>1037.776953</ele>
        <time>2026-07-07T17:43:10.000Z</time>
      </trkpt>
      <trkpt lat="47.51363" lon="16.02835">
        <ele>1037.91576</ele>
        <time>2026-07-07T17:43:11.000Z</time>
      </trkpt>
      <trkpt lat="47.51364" lon="16.02833">
        <ele>1038.039731</ele>
        <time>2026-07-07T17:43:12.000Z</time>
      </trkpt>
      <trkpt lat="47.51366" lon="16.0283">
        <ele>1038.176754</ele>
        <time>2026-07-07T17:43:13.000Z</time>
      </trkpt>
      <trkpt lat="47.51367" lon="16.02827">
        <ele>1038.301445</ele>
        <time>2026-07-07T17:43:14.000Z</time>
      </trkpt>
      <trkpt lat="47.51367" lon="16.02824">
        <ele>1038.421131</ele>
        <time>2026-07-07T17:43:15.000Z</time>
      </trkpt>
      <trkpt lat="47.51369" lon="16.02822">
        <ele>1038.548372</ele>
        <time>2026-07-07T17:43:16.000Z</time>
      </trkpt>
      <trkpt lat="47.5137" lon="16.02819">
        <ele>1038.675613</ele>
        <time>2026-07-07T17:43:17.000Z</time>
      </trkpt>
      <trkpt lat="47.51371" lon="16.02816">
        <ele>1038.803132</ele>
        <time>2026-07-07T17:43:18.000Z</time>
      </trkpt>
      <trkpt lat="47.51372" lon="16.02813">
        <ele>1038.924357</ele>
        <time>2026-07-07T17:43:19.000Z</time>
      </trkpt>
      <trkpt lat="47.51373" lon="16.02811">
        <ele>1039.046432</ele>
        <time>2026-07-07T17:43:20.000Z</time>
      </trkpt>
      <trkpt lat="47.51374" lon="16.02808">
        <ele>1039.157379</ele>
        <time>2026-07-07T17:43:21.000Z</time>
      </trkpt>
      <trkpt lat="47.51375" lon="16.02806">
        <ele>1039.27812</ele>
        <time>2026-07-07T17:43:22.000Z</time>
      </trkpt>
      <trkpt lat="47.51376" lon="16.02803">
        <ele>1039.389134</ele>
        <time>2026-07-07T17:43:23.000Z</time>
      </trkpt>
      <trkpt lat="47.51377" lon="16.02801">
        <ele>1039.503548</ele>
        <time>2026-07-07T17:43:24.000Z</time>
      </trkpt>
      <trkpt lat="47.51378" lon="16.02799">
        <ele>1039.611232</ele>
        <time>2026-07-07T17:43:25.000Z</time>
      </trkpt>
      <trkpt lat="47.51379" lon="16.02796">
        <ele>1039.727302</ele>
        <time>2026-07-07T17:43:26.000Z</time>
      </trkpt>
      <trkpt lat="47.5138" lon="16.02793">
        <ele>1039.846988</ele>
        <time>2026-07-07T17:43:27.000Z</time>
      </trkpt>
      <trkpt lat="47.51381" lon="16.02791">
        <ele>1039.961371</ele>
        <time>2026-07-07T17:43:28.000Z</time>
      </trkpt>
      <trkpt lat="47.51382" lon="16.02788">
        <ele>1040.095259</ele>
        <time>2026-07-07T17:43:29.000Z</time>
      </trkpt>
      <trkpt lat="47.51383" lon="16.02785">
        <ele>1040.21995</ele>
        <time>2026-07-07T17:43:30.000Z</time>
      </trkpt>
      <trkpt lat="47.51384" lon="16.02782">
        <ele>1040.351652</ele>
        <time>2026-07-07T17:43:31.000Z</time>
      </trkpt>
      <trkpt lat="47.51385" lon="16.02779">
        <ele>1040.478626</ele>
        <time>2026-07-07T17:43:32.000Z</time>
      </trkpt>
      <trkpt lat="47.51386" lon="16.02776">
        <ele>1040.603317</ele>
        <time>2026-07-07T17:43:33.000Z</time>
      </trkpt>
      <trkpt lat="47.51387" lon="16.02773">
        <ele>1040.728957</ele>
        <time>2026-07-07T17:43:34.000Z</time>
      </trkpt>
      <trkpt lat="47.51388" lon="16.02771">
        <ele>1040.841434</ele>
        <time>2026-07-07T17:43:35.000Z</time>
      </trkpt>
      <trkpt lat="47.51388" lon="16.02768">
        <ele>1040.957504</ele>
        <time>2026-07-07T17:43:36.000Z</time>
      </trkpt>
      <trkpt lat="47.51389" lon="16.02765">
        <ele>1041.079578</ele>
        <time>2026-07-07T17:43:37.000Z</time>
      </trkpt>
      <trkpt lat="47.5139" lon="16.02763">
        <ele>1041.195649</ele>
        <time>2026-07-07T17:43:38.000Z</time>
      </trkpt>
      <trkpt lat="47.51391" lon="16.0276">
        <ele>1041.315334</ele>
        <time>2026-07-07T17:43:39.000Z</time>
      </trkpt>
      <trkpt lat="47.51392" lon="16.02757">
        <ele>1041.429188</ele>
        <time>2026-07-07T17:43:40.000Z</time>
      </trkpt>
      <trkpt lat="47.51392" lon="16.02754">
        <ele>1041.546725</ele>
        <time>2026-07-07T17:43:41.000Z</time>
      </trkpt>
      <trkpt lat="47.51393" lon="16.02752">
        <ele>1041.661109</ele>
        <time>2026-07-07T17:43:42.000Z</time>
      </trkpt>
      <trkpt lat="47.51394" lon="16.02749">
        <ele>1041.777179</ele>
        <time>2026-07-07T17:43:43.000Z</time>
      </trkpt>
      <trkpt lat="47.51395" lon="16.02747">
        <ele>1041.886084</ele>
        <time>2026-07-07T17:43:44.000Z</time>
      </trkpt>
      <trkpt lat="47.51396" lon="16.02744">
        <ele>1042.003622</ele>
        <time>2026-07-07T17:43:45.000Z</time>
      </trkpt>
      <trkpt lat="47.51396" lon="16.02741">
        <ele>1042.111342</ele>
        <time>2026-07-07T17:43:46.000Z</time>
      </trkpt>
      <trkpt lat="47.51396" lon="16.02738">
        <ele>1042.220161</ele>
        <time>2026-07-07T17:43:47.000Z</time>
      </trkpt>
      <trkpt lat="47.51397" lon="16.02736">
        <ele>1042.328326</ele>
        <time>2026-07-07T17:43:48.000Z</time>
      </trkpt>
      <trkpt lat="47.51397" lon="16.02733">
        <ele>1042.438541</ele>
        <time>2026-07-07T17:43:49.000Z</time>
      </trkpt>
      <trkpt lat="47.51398" lon="16.0273">
        <ele>1042.548755</ele>
        <time>2026-07-07T17:43:50.000Z</time>
      </trkpt>
      <trkpt lat="47.51399" lon="16.02728">
        <ele>1042.666293</ele>
        <time>2026-07-07T17:43:51.000Z</time>
      </trkpt>
      <trkpt lat="47.51399" lon="16.02725">
        <ele>1042.7779</ele>
        <time>2026-07-07T17:43:52.000Z</time>
      </trkpt>
      <trkpt lat="47.51399" lon="16.02722">
        <ele>1042.888114</ele>
        <time>2026-07-07T17:43:53.000Z</time>
      </trkpt>
      <trkpt lat="47.514" lon="16.02719">
        <ele>1042.998329</ele>
        <time>2026-07-07T17:43:54.000Z</time>
      </trkpt>
      <trkpt lat="47.514" lon="16.02717">
        <ele>1043.103306</ele>
        <time>2026-07-07T17:43:55.000Z</time>
      </trkpt>
      <trkpt lat="47.51401" lon="16.02714">
        <ele>1043.21352</ele>
        <time>2026-07-07T17:43:56.000Z</time>
      </trkpt>
      <trkpt lat="47.51401" lon="16.02711">
        <ele>1043.323735</ele>
        <time>2026-07-07T17:43:57.000Z</time>
      </trkpt>
      <trkpt lat="47.51402" lon="16.02709">
        <ele>1043.430158</ele>
        <time>2026-07-07T17:43:58.000Z</time>
      </trkpt>
      <trkpt lat="47.51402" lon="16.02706">
        <ele>1043.537879</ele>
        <time>2026-07-07T17:43:59.000Z</time>
      </trkpt>
      <trkpt lat="47.51403" lon="16.02703">
        <ele>1043.648093</ele>
        <time>2026-07-07T17:44:00.000Z</time>
      </trkpt>
      <trkpt lat="47.51403" lon="16.02701">
        <ele>1043.762109</ele>
        <time>2026-07-07T17:44:01.000Z</time>
      </trkpt>
      <trkpt lat="47.51404" lon="16.02698">
        <ele>1043.872324</ele>
        <time>2026-07-07T17:44:02.000Z</time>
      </trkpt>
      <trkpt lat="47.51404" lon="16.02695">
        <ele>1043.974966</ele>
        <time>2026-07-07T17:44:03.000Z</time>
      </trkpt>
      <trkpt lat="47.51404" lon="16.02693">
        <ele>1044.074926</ele>
        <time>2026-07-07T17:44:04.000Z</time>
      </trkpt>
      <trkpt lat="47.51405" lon="16.02691">
        <ele>1044.170045</ele>
        <time>2026-07-07T17:44:05.000Z</time>
      </trkpt>
      <trkpt lat="47.51405" lon="16.02688">
        <ele>1044.265165</ele>
        <time>2026-07-07T17:44:06.000Z</time>
      </trkpt>
      <trkpt lat="47.51406" lon="16.02686">
        <ele>1044.371705</ele>
        <time>2026-07-07T17:44:07.000Z</time>
      </trkpt>
      <trkpt lat="47.51407" lon="16.02683">
        <ele>1044.489531</ele>
        <time>2026-07-07T17:44:08.000Z</time>
      </trkpt>
      <trkpt lat="47.51407" lon="16.0268">
        <ele>1044.596071</ele>
        <time>2026-07-07T17:44:09.000Z</time>
      </trkpt>
      <trkpt lat="47.51408" lon="16.02678">
        <ele>1044.708547</ele>
        <time>2026-07-07T17:44:10.000Z</time>
      </trkpt>
      <trkpt lat="47.51409" lon="16.02675">
        <ele>1044.826373</ele>
        <time>2026-07-07T17:44:11.000Z</time>
      </trkpt>
      <trkpt lat="47.51409" lon="16.02672">
        <ele>1044.932796</ele>
        <time>2026-07-07T17:44:12.000Z</time>
      </trkpt>
      <trkpt lat="47.5141" lon="16.0267">
        <ele>1045.043011</ele>
        <time>2026-07-07T17:44:13.000Z</time>
      </trkpt>
      <trkpt lat="47.5141" lon="16.02667">
        <ele>1045.157027</ele>
        <time>2026-07-07T17:44:14.000Z</time>
      </trkpt>
      <trkpt lat="47.5141" lon="16.02664">
        <ele>1045.271785</ele>
        <time>2026-07-07T17:44:15.000Z</time>
      </trkpt>
      <trkpt lat="47.51411" lon="16.02661">
        <ele>1045.383392</ele>
        <time>2026-07-07T17:44:16.000Z</time>
      </trkpt>
      <trkpt lat="47.51411" lon="16.02658">
        <ele>1045.494999</ele>
        <time>2026-07-07T17:44:17.000Z</time>
      </trkpt>
      <trkpt lat="47.51411" lon="16.02656">
        <ele>1045.597641</ele>
        <time>2026-07-07T17:44:18.000Z</time>
      </trkpt>
      <trkpt lat="47.51412" lon="16.02653">
        <ele>1045.705708</ele>
        <time>2026-07-07T17:44:19.000Z</time>
      </trkpt>
      <trkpt lat="47.51413" lon="16.02651">
        <ele>1045.795472</ele>
        <time>2026-07-07T17:44:20.000Z</time>
      </trkpt>
      <trkpt lat="47.51413" lon="16.02649">
        <ele>1045.886852</ele>
        <time>2026-07-07T17:44:21.000Z</time>
      </trkpt>
      <trkpt lat="47.51414" lon="16.02647">
        <ele>1045.988108</ele>
        <time>2026-07-07T17:44:22.000Z</time>
      </trkpt>
      <trkpt lat="47.51415" lon="16.02645">
        <ele>1046.083023</ele>
        <time>2026-07-07T17:44:23.000Z</time>
      </trkpt>
      <trkpt lat="47.51416" lon="16.02643">
        <ele>1046.17876</ele>
        <time>2026-07-07T17:44:24.000Z</time>
      </trkpt>
      <trkpt lat="47.51417" lon="16.0264">
        <ele>1046.280606</ele>
        <time>2026-07-07T17:44:25.000Z</time>
      </trkpt>
      <trkpt lat="47.51418" lon="16.02638">
        <ele>1046.394989</ele>
        <time>2026-07-07T17:44:26.000Z</time>
      </trkpt>
      <trkpt lat="47.51418" lon="16.02635">
        <ele>1046.508842</ele>
        <time>2026-07-07T17:44:27.000Z</time>
      </trkpt>
      <trkpt lat="47.51419" lon="16.02632">
        <ele>1046.628527</ele>
        <time>2026-07-07T17:44:28.000Z</time>
      </trkpt>
      <trkpt lat="47.5142" lon="16.0263">
        <ele>1046.749751</ele>
        <time>2026-07-07T17:44:29.000Z</time>
      </trkpt>
      <trkpt lat="47.51421" lon="16.02627">
        <ele>1046.874441</ele>
        <time>2026-07-07T17:44:30.000Z</time>
      </trkpt>
      <trkpt lat="47.51422" lon="16.02624">
        <ele>1046.995664</ele>
        <time>2026-07-07T17:44:31.000Z</time>
      </trkpt>
      <trkpt lat="47.51423" lon="16.02621">
        <ele>1047.122904</ele>
        <time>2026-07-07T17:44:32.000Z</time>
      </trkpt>
      <trkpt lat="47.51424" lon="16.02619">
        <ele>1047.243682</ele>
        <time>2026-07-07T17:44:33.000Z</time>
      </trkpt>
      <trkpt lat="47.51426" lon="16.02616">
        <ele>1047.377684</ele>
        <time>2026-07-07T17:44:34.000Z</time>
      </trkpt>
      <trkpt lat="47.51427" lon="16.02614">
        <ele>1047.495751</ele>
        <time>2026-07-07T17:44:35.000Z</time>
      </trkpt>
      <trkpt lat="47.51428" lon="16.02611">
        <ele>1047.616863</ele>
        <time>2026-07-07T17:44:36.000Z</time>
      </trkpt>
      <trkpt lat="47.5143" lon="16.02609">
        <ele>1047.749021</ele>
        <time>2026-07-07T17:44:37.000Z</time>
      </trkpt>
      <trkpt lat="47.51431" lon="16.02607">
        <ele>1047.88699</ele>
        <time>2026-07-07T17:44:38.000Z</time>
      </trkpt>
      <trkpt lat="47.51432" lon="16.02605">
        <ele>1048.033303</ele>
        <time>2026-07-07T17:44:39.000Z</time>
      </trkpt>
      <trkpt lat="47.51434" lon="16.02603">
        <ele>1048.179617</ele>
        <time>2026-07-07T17:44:40.000Z</time>
      </trkpt>
      <trkpt lat="47.51435" lon="16.02601">
        <ele>1048.332655</ele>
        <time>2026-07-07T17:44:41.000Z</time>
      </trkpt>
      <trkpt lat="47.51437" lon="16.02598">
        <ele>1048.480632</ele>
        <time>2026-07-07T17:44:42.000Z</time>
      </trkpt>
      <trkpt lat="47.51438" lon="16.02596">
        <ele>1048.6186</ele>
        <time>2026-07-07T17:44:43.000Z</time>
      </trkpt>
      <trkpt lat="47.51439" lon="16.02594">
        <ele>1048.757039</ele>
        <time>2026-07-07T17:44:44.000Z</time>
      </trkpt>
      <trkpt lat="47.5144" lon="16.02592">
        <ele>1048.899319</ele>
        <time>2026-07-07T17:44:45.000Z</time>
      </trkpt>
      <trkpt lat="47.51441" lon="16.02589">
        <ele>1049.033322</ele>
        <time>2026-07-07T17:44:46.000Z</time>
      </trkpt>
      <trkpt lat="47.51443" lon="16.02588">
        <ele>1049.167719</ele>
        <time>2026-07-07T17:44:47.000Z</time>
      </trkpt>
      <trkpt lat="47.51444" lon="16.02586">
        <ele>1049.303606</ele>
        <time>2026-07-07T17:44:48.000Z</time>
      </trkpt>
      <trkpt lat="47.51445" lon="16.02583">
        <ele>1049.44671</ele>
        <time>2026-07-07T17:44:49.000Z</time>
      </trkpt>
      <trkpt lat="47.51447" lon="16.02581">
        <ele>1049.577675</ele>
        <time>2026-07-07T17:44:50.000Z</time>
      </trkpt>
      <trkpt lat="47.51447" lon="16.02579">
        <ele>1049.695707</ele>
        <time>2026-07-07T17:44:51.000Z</time>
      </trkpt>
      <trkpt lat="47.51448" lon="16.02577">
        <ele>1049.823688</ele>
        <time>2026-07-07T17:44:52.000Z</time>
      </trkpt>
      <trkpt lat="47.51449" lon="16.02574">
        <ele>1049.960712</ele>
        <time>2026-07-07T17:44:53.000Z</time>
      </trkpt>
      <trkpt lat="47.51449" lon="16.02572">
        <ele>1050.099862</ele>
        <time>2026-07-07T17:44:54.000Z</time>
      </trkpt>
      <trkpt lat="47.5145" lon="16.02569">
        <ele>1050.23855</ele>
        <time>2026-07-07T17:44:55.000Z</time>
      </trkpt>
      <trkpt lat="47.51451" lon="16.02567">
        <ele>1050.380792</ele>
        <time>2026-07-07T17:44:56.000Z</time>
      </trkpt>
      <trkpt lat="47.51452" lon="16.02564">
        <ele>1050.510677</ele>
        <time>2026-07-07T17:44:57.000Z</time>
      </trkpt>
      <trkpt lat="47.51453" lon="16.02561">
        <ele>1050.658078</ele>
        <time>2026-07-07T17:44:58.000Z</time>
      </trkpt>
      <trkpt lat="47.51454" lon="16.02559">
        <ele>1050.791988</ele>
        <time>2026-07-07T17:44:59.000Z</time>
      </trkpt>
      <trkpt lat="47.51455" lon="16.02557">
        <ele>1050.918639</ele>
        <time>2026-07-07T17:45:00.000Z</time>
      </trkpt>
      <trkpt lat="47.51456" lon="16.02554">
        <ele>1051.060881</ele>
        <time>2026-07-07T17:45:01.000Z</time>
      </trkpt>
      <trkpt lat="47.51457" lon="16.02552">
        <ele>1051.190702</ele>
        <time>2026-07-07T17:45:02.000Z</time>
      </trkpt>
      <trkpt lat="47.51457" lon="16.0255">
        <ele>1051.300978</ele>
        <time>2026-07-07T17:45:03.000Z</time>
      </trkpt>
      <trkpt lat="47.51458" lon="16.02549">
        <ele>1051.363619</ele>
        <time>2026-07-07T17:45:04.000Z</time>
      </trkpt>
      <trkpt lat="47.51458" lon="16.02549">
        <ele>1051.37341</ele>
        <time>2026-07-07T17:45:05.000Z</time>
      </trkpt>
      <trkpt lat="47.51459" lon="16.02546">
        <ele>1051.55689</ele>
        <time>2026-07-07T17:45:11.000Z</time>
      </trkpt>
      <trkpt lat="47.51459" lon="16.02544">
        <ele>1051.638779</ele>
        <time>2026-07-07T17:45:12.000Z</time>
      </trkpt>
      <trkpt lat="47.5146" lon="16.02543">
        <ele>1051.732681</ele>
        <time>2026-07-07T17:45:13.000Z</time>
      </trkpt>
      <trkpt lat="47.51461" lon="16.02541">
        <ele>1051.821937</ele>
        <time>2026-07-07T17:45:14.000Z</time>
      </trkpt>
      <trkpt lat="47.51461" lon="16.0254">
        <ele>1051.903329</ele>
        <time>2026-07-07T17:45:15.000Z</time>
      </trkpt>
      <trkpt lat="47.51462" lon="16.02538">
        <ele>1051.980859</ele>
        <time>2026-07-07T17:45:16.000Z</time>
      </trkpt>
      <trkpt lat="47.51462" lon="16.02537">
        <ele>1052.062748</ele>
        <time>2026-07-07T17:45:17.000Z</time>
      </trkpt>
      <trkpt lat="47.51463" lon="16.02535">
        <ele>1052.148093</ele>
        <time>2026-07-07T17:45:18.000Z</time>
      </trkpt>
      <trkpt lat="47.51463" lon="16.02534">
        <ele>1052.227042</ele>
        <time>2026-07-07T17:45:19.000Z</time>
      </trkpt>
      <trkpt lat="47.51464" lon="16.02532">
        <ele>1052.313348</ele>
        <time>2026-07-07T17:45:20.000Z</time>
      </trkpt>
      <trkpt lat="47.51464" lon="16.02531">
        <ele>1052.395237</ele>
        <time>2026-07-07T17:45:21.000Z</time>
      </trkpt>
      <trkpt lat="47.51465" lon="16.02529">
        <ele>1052.48601</ele>
        <time>2026-07-07T17:45:22.000Z</time>
      </trkpt>
      <trkpt lat="47.51465" lon="16.02528">
        <ele>1052.563092</ele>
        <time>2026-07-07T17:45:23.000Z</time>
      </trkpt>
      <trkpt lat="47.51466" lon="16.02526">
        <ele>1052.640621</ele>
        <time>2026-07-07T17:45:24.000Z</time>
      </trkpt>
      <trkpt lat="47.51467" lon="16.02525">
        <ele>1052.729878</ele>
        <time>2026-07-07T17:45:25.000Z</time>
      </trkpt>
      <trkpt lat="47.51467" lon="16.02523">
        <ele>1052.811767</ele>
        <time>2026-07-07T17:45:26.000Z</time>
      </trkpt>
      <trkpt lat="47.51468" lon="16.02522">
        <ele>1052.893656</ele>
        <time>2026-07-07T17:45:27.000Z</time>
      </trkpt>
      <trkpt lat="47.51468" lon="16.0252">
        <ele>1052.979962</ele>
        <time>2026-07-07T17:45:28.000Z</time>
      </trkpt>
      <trkpt lat="47.51469" lon="16.02519">
        <ele>1053.070735</ele>
        <time>2026-07-07T17:45:29.000Z</time>
      </trkpt>
      <trkpt lat="47.51469" lon="16.02517">
        <ele>1053.161507</ele>
        <time>2026-07-07T17:45:30.000Z</time>
      </trkpt>
      <trkpt lat="47.5147" lon="16.02515">
        <ele>1053.250764</ele>
        <time>2026-07-07T17:45:31.000Z</time>
      </trkpt>
      <trkpt lat="47.5147" lon="16.02514">
        <ele>1053.340355</ele>
        <time>2026-07-07T17:45:32.000Z</time>
      </trkpt>
      <trkpt lat="47.51471" lon="16.02512">
        <ele>1053.422244</ele>
        <time>2026-07-07T17:45:33.000Z</time>
      </trkpt>
      <trkpt lat="47.51471" lon="16.02511">
        <ele>1053.504133</ele>
        <time>2026-07-07T17:45:34.000Z</time>
      </trkpt>
      <trkpt lat="47.51472" lon="16.02509">
        <ele>1053.59339</ele>
        <time>2026-07-07T17:45:35.000Z</time>
      </trkpt>
      <trkpt lat="47.51473" lon="16.02508">
        <ele>1053.675279</ele>
        <time>2026-07-07T17:45:36.000Z</time>
      </trkpt>
      <trkpt lat="47.51473" lon="16.02506">
        <ele>1053.757168</ele>
        <time>2026-07-07T17:45:37.000Z</time>
      </trkpt>
      <trkpt lat="47.51474" lon="16.02505">
        <ele>1053.839057</ele>
        <time>2026-07-07T17:45:38.000Z</time>
      </trkpt>
      <trkpt lat="47.51474" lon="16.02503">
        <ele>1053.920946</ele>
        <time>2026-07-07T17:45:39.000Z</time>
      </trkpt>
      <trkpt lat="47.51475" lon="16.02501">
        <ele>1054.020772</ele>
        <time>2026-07-07T17:45:40.000Z</time>
      </trkpt>
      <trkpt lat="47.51475" lon="16.025">
        <ele>1054.102661</ele>
        <time>2026-07-07T17:45:41.000Z</time>
      </trkpt>
      <trkpt lat="47.51476" lon="16.02499">
        <ele>1054.176649</ele>
        <time>2026-07-07T17:45:42.000Z</time>
      </trkpt>
      <trkpt lat="47.51476" lon="16.02497">
        <ele>1054.254178</ele>
        <time>2026-07-07T17:45:43.000Z</time>
      </trkpt>
      <trkpt lat="47.51477" lon="16.02496">
        <ele>1054.327415</ele>
        <time>2026-07-07T17:45:44.000Z</time>
      </trkpt>
      <trkpt lat="47.51477" lon="16.02495">
        <ele>1054.400653</ele>
        <time>2026-07-07T17:45:45.000Z</time>
      </trkpt>
      <trkpt lat="47.51478" lon="16.02493">
        <ele>1054.478182</ele>
        <time>2026-07-07T17:45:46.000Z</time>
      </trkpt>
      <trkpt lat="47.51478" lon="16.02492">
        <ele>1054.551419</ele>
        <time>2026-07-07T17:45:47.000Z</time>
      </trkpt>
      <trkpt lat="47.51479" lon="16.02491">
        <ele>1054.624656</ele>
        <time>2026-07-07T17:45:48.000Z</time>
      </trkpt>
      <trkpt lat="47.51479" lon="16.0249">
        <ele>1054.687298</ele>
        <time>2026-07-07T17:45:49.000Z</time>
      </trkpt>
      <trkpt lat="47.51479" lon="16.02488">
        <ele>1054.754552</ele>
        <time>2026-07-07T17:45:50.000Z</time>
      </trkpt>
      <trkpt lat="47.5148" lon="16.02487">
        <ele>1054.833501</ele>
        <time>2026-07-07T17:45:51.000Z</time>
      </trkpt>
      <trkpt lat="47.5148" lon="16.02485">
        <ele>1054.905405</ele>
        <time>2026-07-07T17:45:52.000Z</time>
      </trkpt>
      <trkpt lat="47.5148" lon="16.02484">
        <ele>1054.972659</ele>
        <time>2026-07-07T17:45:53.000Z</time>
      </trkpt>
      <trkpt lat="47.51481" lon="16.02483">
        <ele>1055.042593</ele>
        <time>2026-07-07T17:45:54.000Z</time>
      </trkpt>
      <trkpt lat="47.51481" lon="16.02481">
        <ele>1055.114497</ele>
        <time>2026-07-07T17:45:55.000Z</time>
      </trkpt>
      <trkpt lat="47.51482" lon="16.0248">
        <ele>1055.187734</ele>
        <time>2026-07-07T17:45:56.000Z</time>
      </trkpt>
      <trkpt lat="47.51482" lon="16.02479">
        <ele>1055.260972</ele>
        <time>2026-07-07T17:45:57.000Z</time>
      </trkpt>
      <trkpt lat="47.51482" lon="16.02477">
        <ele>1055.332875</ele>
        <time>2026-07-07T17:45:58.000Z</time>
      </trkpt>
      <trkpt lat="47.51483" lon="16.02476">
        <ele>1055.394035</ele>
        <time>2026-07-07T17:45:59.000Z</time>
      </trkpt>
      <trkpt lat="47.51483" lon="16.02475">
        <ele>1055.471564</ele>
        <time>2026-07-07T17:46:00.000Z</time>
      </trkpt>
      <trkpt lat="47.51483" lon="16.02474">
        <ele>1055.535617</ele>
        <time>2026-07-07T17:46:01.000Z</time>
      </trkpt>
      <trkpt lat="47.51484" lon="16.02472">
        <ele>1055.610467</ele>
        <time>2026-07-07T17:46:02.000Z</time>
      </trkpt>
      <trkpt lat="47.51484" lon="16.02471">
        <ele>1055.687051</ele>
        <time>2026-07-07T17:46:03.000Z</time>
      </trkpt>
      <trkpt lat="47.51484" lon="16.02469">
        <ele>1055.761901</ele>
        <time>2026-07-07T17:46:04.000Z</time>
      </trkpt>
      <trkpt lat="47.51484" lon="16.02468">
        <ele>1055.838485</ele>
        <time>2026-07-07T17:46:05.000Z</time>
      </trkpt>
      <trkpt lat="47.51485" lon="16.02466">
        <ele>1055.917434</ele>
        <time>2026-07-07T17:46:06.000Z</time>
      </trkpt>
      <trkpt lat="47.51485" lon="16.02465">
        <ele>1055.991224</ele>
        <time>2026-07-07T17:46:07.000Z</time>
      </trkpt>
      <trkpt lat="47.51485" lon="16.02463">
        <ele>1056.066074</ele>
        <time>2026-07-07T17:46:08.000Z</time>
      </trkpt>
      <trkpt lat="47.51485" lon="16.02462">
        <ele>1056.140923</ele>
        <time>2026-07-07T17:46:09.000Z</time>
      </trkpt>
      <trkpt lat="47.51486" lon="16.0246">
        <ele>1056.217508</ele>
        <time>2026-07-07T17:46:10.000Z</time>
      </trkpt>
      <trkpt lat="47.51486" lon="16.02459">
        <ele>1056.290745</ele>
        <time>2026-07-07T17:46:11.000Z</time>
      </trkpt>
      <trkpt lat="47.51486" lon="16.02457">
        <ele>1056.362649</ele>
        <time>2026-07-07T17:46:12.000Z</time>
      </trkpt>
      <trkpt lat="47.51487" lon="16.02456">
        <ele>1056.42792</ele>
        <time>2026-07-07T17:46:13.000Z</time>
      </trkpt>
      <trkpt lat="47.51487" lon="16.02455">
        <ele>1056.493192</ele>
        <time>2026-07-07T17:46:14.000Z</time>
      </trkpt>
      <trkpt lat="47.51487" lon="16.02453">
        <ele>1056.562111</ele>
        <time>2026-07-07T17:46:15.000Z</time>
      </trkpt>
      <trkpt lat="47.51487" lon="16.02452">
        <ele>1056.632046</ele>
        <time>2026-07-07T17:46:16.000Z</time>
      </trkpt>
      <trkpt lat="47.51487" lon="16.02451">
        <ele>1056.691237</ele>
        <time>2026-07-07T17:46:17.000Z</time>
      </trkpt>
      <trkpt lat="47.51488" lon="16.0245">
        <ele>1056.752397</ele>
        <time>2026-07-07T17:46:18.000Z</time>
      </trkpt>
      <trkpt lat="47.51488" lon="16.02449">
        <ele>1056.811588</ele>
        <time>2026-07-07T17:46:19.000Z</time>
      </trkpt>
      <trkpt lat="47.51488" lon="16.02447">
        <ele>1056.87686</ele>
        <time>2026-07-07T17:46:20.000Z</time>
      </trkpt>
      <trkpt lat="47.51488" lon="16.02446">
        <ele>1056.953444</ele>
        <time>2026-07-07T17:46:21.000Z</time>
      </trkpt>
      <trkpt lat="47.51489" lon="16.02444">
        <ele>1057.027861</ele>
        <time>2026-07-07T17:46:22.000Z</time>
      </trkpt>
      <trkpt lat="47.51489" lon="16.02443">
        <ele>1057.091914</ele>
        <time>2026-07-07T17:46:23.000Z</time>
      </trkpt>
      <trkpt lat="47.51489" lon="16.02442">
        <ele>1057.155556</ele>
        <time>2026-07-07T17:46:24.000Z</time>
      </trkpt>
      <trkpt lat="47.51489" lon="16.0244">
        <ele>1057.225609</ele>
        <time>2026-07-07T17:46:25.000Z</time>
      </trkpt>
      <trkpt lat="47.51489" lon="16.02439">
        <ele>1057.290881</ele>
        <time>2026-07-07T17:46:26.000Z</time>
      </trkpt>
      <trkpt lat="47.51489" lon="16.02438">
        <ele>1057.36467</ele>
        <time>2026-07-07T17:46:27.000Z</time>
      </trkpt>
      <trkpt lat="47.51489" lon="16.02436">
        <ele>1057.428311</ele>
        <time>2026-07-07T17:46:28.000Z</time>
      </trkpt>
      <trkpt lat="47.5149" lon="16.02435">
        <ele>1057.498365</ele>
        <time>2026-07-07T17:46:29.000Z</time>
      </trkpt>
      <trkpt lat="47.5149" lon="16.02433">
        <ele>1057.571797</ele>
        <time>2026-07-07T17:46:30.000Z</time>
      </trkpt>
      <trkpt lat="47.5149" lon="16.02432">
        <ele>1057.646647</ele>
        <time>2026-07-07T17:46:31.000Z</time>
      </trkpt>
      <trkpt lat="47.5149" lon="16.02431">
        <ele>1057.711919</ele>
        <time>2026-07-07T17:46:32.000Z</time>
      </trkpt>
      <trkpt lat="47.5149" lon="16.02429">
        <ele>1057.77719</ele>
        <time>2026-07-07T17:46:33.000Z</time>
      </trkpt>
      <trkpt lat="47.5149" lon="16.02428">
        <ele>1057.850623</ele>
        <time>2026-07-07T17:46:34.000Z</time>
      </trkpt>
      <trkpt lat="47.5149" lon="16.02426">
        <ele>1057.933846</ele>
        <time>2026-07-07T17:46:35.000Z</time>
      </trkpt>
      <trkpt lat="47.5149" lon="16.02425">
        <ele>1058.007635</ele>
        <time>2026-07-07T17:46:36.000Z</time>
      </trkpt>
      <trkpt lat="47.5149" lon="16.02423">
        <ele>1058.105813</ele>
        <time>2026-07-07T17:46:37.000Z</time>
      </trkpt>
      <trkpt lat="47.5149" lon="16.02421">
        <ele>1058.193932</ele>
        <time>2026-07-07T17:46:38.000Z</time>
      </trkpt>
      <trkpt lat="47.5149" lon="16.02419">
        <ele>1058.277155</ele>
        <time>2026-07-07T17:46:39.000Z</time>
      </trkpt>
      <trkpt lat="47.5149" lon="16.02417">
        <ele>1058.360379</ele>
        <time>2026-07-07T17:46:40.000Z</time>
      </trkpt>
      <trkpt lat="47.5149" lon="16.02416">
        <ele>1058.438707</ele>
        <time>2026-07-07T17:46:41.000Z</time>
      </trkpt>
      <trkpt lat="47.5149" lon="16.02414">
        <ele>1058.512139</ele>
        <time>2026-07-07T17:46:42.000Z</time>
      </trkpt>
      <trkpt lat="47.5149" lon="16.02413">
        <ele>1058.585929</ele>
        <time>2026-07-07T17:46:43.000Z</time>
      </trkpt>
      <trkpt lat="47.5149" lon="16.02411">
        <ele>1058.659361</ele>
        <time>2026-07-07T17:46:44.000Z</time>
      </trkpt>
      <trkpt lat="47.5149" lon="16.0241">
        <ele>1058.742584</ele>
        <time>2026-07-07T17:46:45.000Z</time>
      </trkpt>
      <trkpt lat="47.5149" lon="16.02408">
        <ele>1058.816017</ele>
        <time>2026-07-07T17:46:46.000Z</time>
      </trkpt>
      <trkpt lat="47.5149" lon="16.02407">
        <ele>1058.885951</ele>
        <time>2026-07-07T17:46:47.000Z</time>
      </trkpt>
      <trkpt lat="47.5149" lon="16.02405">
        <ele>1058.954488</ele>
        <time>2026-07-07T17:46:48.000Z</time>
      </trkpt>
      <trkpt lat="47.5149" lon="16.02404">
        <ele>1059.01813</ele>
        <time>2026-07-07T17:46:49.000Z</time>
      </trkpt>
      <trkpt lat="47.5149" lon="16.02403">
        <ele>1059.081771</ele>
        <time>2026-07-07T17:46:50.000Z</time>
      </trkpt>
      <trkpt lat="47.5149" lon="16.02401">
        <ele>1059.156621</ele>
        <time>2026-07-07T17:46:51.000Z</time>
      </trkpt>
      <trkpt lat="47.5149" lon="16.024">
        <ele>1059.231471</ele>
        <time>2026-07-07T17:46:52.000Z</time>
      </trkpt>
      <trkpt lat="47.5149" lon="16.02398">
        <ele>1059.300007</ele>
        <time>2026-07-07T17:46:53.000Z</time>
      </trkpt>
      <trkpt lat="47.5149" lon="16.02397">
        <ele>1059.36406</ele>
        <time>2026-07-07T17:46:54.000Z</time>
      </trkpt>
      <trkpt lat="47.5149" lon="16.02396">
        <ele>1059.437493</ele>
        <time>2026-07-07T17:46:55.000Z</time>
      </trkpt>
      <trkpt lat="47.5149" lon="16.02394">
        <ele>1059.510925</ele>
        <time>2026-07-07T17:46:56.000Z</time>
      </trkpt>
      <trkpt lat="47.5149" lon="16.02393">
        <ele>1059.574567</ele>
        <time>2026-07-07T17:46:57.000Z</time>
      </trkpt>
      <trkpt lat="47.5149" lon="16.02391">
        <ele>1059.643486</ele>
        <time>2026-07-07T17:46:58.000Z</time>
      </trkpt>
      <trkpt lat="47.5149" lon="16.0239">
        <ele>1059.708757</ele>
        <time>2026-07-07T17:46:59.000Z</time>
      </trkpt>
      <trkpt lat="47.5149" lon="16.02389">
        <ele>1059.78219</ele>
        <time>2026-07-07T17:47:00.000Z</time>
      </trkpt>
      <trkpt lat="47.5149" lon="16.02387">
        <ele>1059.847461</ele>
        <time>2026-07-07T17:47:01.000Z</time>
      </trkpt>
      <trkpt lat="47.5149" lon="16.02386">
        <ele>1059.920894</ele>
        <time>2026-07-07T17:47:02.000Z</time>
      </trkpt>
      <trkpt lat="47.5149" lon="16.02384">
        <ele>1059.989431</ele>
        <time>2026-07-07T17:47:03.000Z</time>
      </trkpt>
      <trkpt lat="47.5149" lon="16.02383">
        <ele>1060.054702</ele>
        <time>2026-07-07T17:47:04.000Z</time>
      </trkpt>
      <trkpt lat="47.5149" lon="16.02382">
        <ele>1060.119974</ele>
        <time>2026-07-07T17:47:05.000Z</time>
      </trkpt>
      <trkpt lat="47.5149" lon="16.0238">
        <ele>1060.188511</ele>
        <time>2026-07-07T17:47:06.000Z</time>
      </trkpt>
      <trkpt lat="47.5149" lon="16.02379">
        <ele>1060.252564</ele>
        <time>2026-07-07T17:47:07.000Z</time>
      </trkpt>
      <trkpt lat="47.51491" lon="16.02378">
        <ele>1060.317836</ele>
        <time>2026-07-07T17:47:08.000Z</time>
      </trkpt>
      <trkpt lat="47.51491" lon="16.02376">
        <ele>1060.386372</ele>
        <time>2026-07-07T17:47:09.000Z</time>
      </trkpt>
      <trkpt lat="47.51491" lon="16.02375">
        <ele>1060.44214</ele>
        <time>2026-07-07T17:47:10.000Z</time>
      </trkpt>
      <trkpt lat="47.51491" lon="16.02374">
        <ele>1060.510677</ele>
        <time>2026-07-07T17:47:11.000Z</time>
      </trkpt>
      <trkpt lat="47.51491" lon="16.02373">
        <ele>1060.57473</ele>
        <time>2026-07-07T17:47:12.000Z</time>
      </trkpt>
      <trkpt lat="47.51491" lon="16.02371">
        <ele>1060.640001</ele>
        <time>2026-07-07T17:47:13.000Z</time>
      </trkpt>
      <trkpt lat="47.51491" lon="16.0237">
        <ele>1060.714851</ele>
        <time>2026-07-07T17:47:14.000Z</time>
      </trkpt>
      <trkpt lat="47.51491" lon="16.02368">
        <ele>1060.796232</ele>
        <time>2026-07-07T17:47:15.000Z</time>
      </trkpt>
      <trkpt lat="47.51492" lon="16.02367">
        <ele>1060.889715</ele>
        <time>2026-07-07T17:47:16.000Z</time>
      </trkpt>
      <trkpt lat="47.51492" lon="16.02365">
        <ele>1060.983197</ele>
        <time>2026-07-07T17:47:17.000Z</time>
      </trkpt>
      <trkpt lat="47.51492" lon="16.02364">
        <ele>1061.075355</ele>
        <time>2026-07-07T17:47:18.000Z</time>
      </trkpt>
      <trkpt lat="47.51492" lon="16.02363">
        <ele>1061.156875</ele>
        <time>2026-07-07T17:47:19.000Z</time>
      </trkpt>
      <trkpt lat="47.51492" lon="16.02361">
        <ele>1061.240871</ele>
        <time>2026-07-07T17:47:20.000Z</time>
      </trkpt>
      <trkpt lat="47.51493" lon="16.0236">
        <ele>1061.328363</ele>
        <time>2026-07-07T17:47:21.000Z</time>
      </trkpt>
      <trkpt lat="47.51493" lon="16.02359">
        <ele>1061.412358</ele>
        <time>2026-07-07T17:47:22.000Z</time>
      </trkpt>
      <trkpt lat="47.51493" lon="16.02357">
        <ele>1061.487929</ele>
        <time>2026-07-07T17:47:23.000Z</time>
      </trkpt>
      <trkpt lat="47.51493" lon="16.02356">
        <ele>1061.571925</ele>
        <time>2026-07-07T17:47:24.000Z</time>
      </trkpt>
      <trkpt lat="47.51494" lon="16.02355">
        <ele>1061.653445</ele>
        <time>2026-07-07T17:47:25.000Z</time>
      </trkpt>
      <trkpt lat="47.51494" lon="16.02353">
        <ele>1061.743248</ele>
        <time>2026-07-07T17:47:26.000Z</time>
      </trkpt>
      <trkpt lat="47.51494" lon="16.02352">
        <ele>1061.84185</ele>
        <time>2026-07-07T17:47:27.000Z</time>
      </trkpt>
      <trkpt lat="47.51495" lon="16.02351">
        <ele>1061.925845</ele>
        <time>2026-07-07T17:47:28.000Z</time>
      </trkpt>
      <trkpt lat="47.51495" lon="16.02349">
        <ele>1062.009841</ele>
        <time>2026-07-07T17:47:29.000Z</time>
      </trkpt>
      <trkpt lat="47.51495" lon="16.02348">
        <ele>1062.09166</ele>
        <time>2026-07-07T17:47:30.000Z</time>
      </trkpt>
      <trkpt lat="47.51496" lon="16.02347">
        <ele>1062.169895</ele>
        <time>2026-07-07T17:47:31.000Z</time>
      </trkpt>
      <trkpt lat="47.51496" lon="16.02346">
        <ele>1062.239545</ele>
        <time>2026-07-07T17:47:32.000Z</time>
      </trkpt>
      <trkpt lat="47.51496" lon="16.02345">
        <ele>1062.31778</ele>
        <time>2026-07-07T17:47:33.000Z</time>
      </trkpt>
      <trkpt lat="47.51496" lon="16.02344">
        <ele>1062.381546</ele>
        <time>2026-07-07T17:47:34.000Z</time>
      </trkpt>
      <trkpt lat="47.51496" lon="16.02343">
        <ele>1062.443354</ele>
        <time>2026-07-07T17:47:35.000Z</time>
      </trkpt>
      <trkpt lat="47.51497" lon="16.02341">
        <ele>1062.525173</ele>
        <time>2026-07-07T17:47:36.000Z</time>
      </trkpt>
      <trkpt lat="47.51497" lon="16.0234">
        <ele>1062.597704</ele>
        <time>2026-07-07T17:47:37.000Z</time>
      </trkpt>
      <trkpt lat="47.51498" lon="16.02339">
        <ele>1062.694533</ele>
        <time>2026-07-07T17:47:38.000Z</time>
      </trkpt>
      <trkpt lat="47.51498" lon="16.02338">
        <ele>1062.778529</ele>
        <time>2026-07-07T17:47:39.000Z</time>
      </trkpt>
      <trkpt lat="47.51498" lon="16.02337">
        <ele>1062.854601</ele>
        <time>2026-07-07T17:47:40.000Z</time>
      </trkpt>
      <trkpt lat="47.51499" lon="16.02335">
        <ele>1062.93642</ele>
        <time>2026-07-07T17:47:41.000Z</time>
      </trkpt>
      <trkpt lat="47.51499" lon="16.02334">
        <ele>1063.012493</ele>
        <time>2026-07-07T17:47:42.000Z</time>
      </trkpt>
      <trkpt lat="47.515" lon="16.02333">
        <ele>1063.085025</ele>
        <time>2026-07-07T17:47:43.000Z</time>
      </trkpt>
      <trkpt lat="47.515" lon="16.02332">
        <ele>1063.174828</ele>
        <time>2026-07-07T17:47:44.000Z</time>
      </trkpt>
      <trkpt lat="47.515" lon="16.02331">
        <ele>1063.251212</ele>
        <time>2026-07-07T17:47:45.000Z</time>
      </trkpt>
      <trkpt lat="47.51501" lon="16.0233">
        <ele>1063.329447</ele>
        <time>2026-07-07T17:47:46.000Z</time>
      </trkpt>
      <trkpt lat="47.51501" lon="16.02328">
        <ele>1063.420915</ele>
        <time>2026-07-07T17:47:47.000Z</time>
      </trkpt>
      <trkpt lat="47.51501" lon="16.02327">
        <ele>1063.510718</ele>
        <time>2026-07-07T17:47:48.000Z</time>
      </trkpt>
      <trkpt lat="47.51502" lon="16.02325">
        <ele>1063.60932</ele>
        <time>2026-07-07T17:47:49.000Z</time>
      </trkpt>
      <trkpt lat="47.51502" lon="16.02324">
        <ele>1063.700788</ele>
        <time>2026-07-07T17:47:50.000Z</time>
      </trkpt>
      <trkpt lat="47.51503" lon="16.02323">
        <ele>1063.784784</ele>
        <time>2026-07-07T17:47:51.000Z</time>
      </trkpt>
      <trkpt lat="47.51503" lon="16.02322">
        <ele>1063.863019</ele>
        <time>2026-07-07T17:47:52.000Z</time>
      </trkpt>
      <trkpt lat="47.51503" lon="16.0232">
        <ele>1063.938589</ele>
        <time>2026-07-07T17:47:53.000Z</time>
      </trkpt>
      <trkpt lat="47.51503" lon="16.0232">
        <ele>1063.974119</ele>
        <time>2026-07-07T17:47:54.000Z</time>
      </trkpt>
      <trkpt lat="47.51503" lon="16.0232">
        <ele>1063.985043</ele>
        <time>2026-07-07T17:47:55.000Z</time>
      </trkpt>
      <trkpt lat="47.51505" lon="16.02317">
        <ele>1064.208831</ele>
        <time>2026-07-07T17:48:06.000Z</time>
      </trkpt>
      <trkpt lat="47.51505" lon="16.02315">
        <ele>1064.284401</ele>
        <time>2026-07-07T17:48:07.000Z</time>
      </trkpt>
      <trkpt lat="47.51505" lon="16.02314">
        <ele>1064.351303</ele>
        <time>2026-07-07T17:48:08.000Z</time>
      </trkpt>
      <trkpt lat="47.51505" lon="16.02313">
        <ele>1064.418204</ele>
        <time>2026-07-07T17:48:09.000Z</time>
      </trkpt>
      <trkpt lat="47.51506" lon="16.02312">
        <ele>1064.489264</ele>
        <time>2026-07-07T17:48:10.000Z</time>
      </trkpt>
      <trkpt lat="47.51506" lon="16.02311">
        <ele>1064.570332</ele>
        <time>2026-07-07T17:48:11.000Z</time>
      </trkpt>
      <trkpt lat="47.51507" lon="16.0231">
        <ele>1064.667161</ele>
        <time>2026-07-07T17:48:12.000Z</time>
      </trkpt>
      <trkpt lat="47.51507" lon="16.02309">
        <ele>1064.748229</ele>
        <time>2026-07-07T17:48:13.000Z</time>
      </trkpt>
      <trkpt lat="47.51508" lon="16.02308">
        <ele>1064.834438</ele>
        <time>2026-07-07T17:48:14.000Z</time>
      </trkpt>
      <trkpt lat="47.51508" lon="16.02306">
        <ele>1064.918433</ele>
        <time>2026-07-07T17:48:15.000Z</time>
      </trkpt>
      <trkpt lat="47.51509" lon="16.02305">
        <ele>1065.024935</ele>
        <time>2026-07-07T17:48:16.000Z</time>
      </trkpt>
      <trkpt lat="47.51509" lon="16.02304">
        <ele>1065.106003</ele>
        <time>2026-07-07T17:48:17.000Z</time>
      </trkpt>
      <trkpt lat="47.5151" lon="16.02303">
        <ele>1065.182076</ele>
        <time>2026-07-07T17:48:18.000Z</time>
      </trkpt>
      <trkpt lat="47.5151" lon="16.02302">
        <ele>1065.268284</ele>
        <time>2026-07-07T17:48:19.000Z</time>
      </trkpt>
      <trkpt lat="47.51511" lon="16.023">
        <ele>1065.354492</ele>
        <time>2026-07-07T17:48:20.000Z</time>
      </trkpt>
      <trkpt lat="47.51511" lon="16.02299">
        <ele>1065.436275</ele>
        <time>2026-07-07T17:48:21.000Z</time>
      </trkpt>
      <trkpt lat="47.51512" lon="16.02298">
        <ele>1065.517344</ele>
        <time>2026-07-07T17:48:22.000Z</time>
      </trkpt>
      <trkpt lat="47.51512" lon="16.02297">
        <ele>1065.599162</ele>
        <time>2026-07-07T17:48:23.000Z</time>
      </trkpt>
      <trkpt lat="47.51513" lon="16.02296">
        <ele>1065.690631</ele>
        <time>2026-07-07T17:48:24.000Z</time>
      </trkpt>
      <trkpt lat="47.51513" lon="16.02295">
        <ele>1065.776839</ele>
        <time>2026-07-07T17:48:25.000Z</time>
      </trkpt>
      <trkpt lat="47.51514" lon="16.02293">
        <ele>1065.863047</ele>
        <time>2026-07-07T17:48:26.000Z</time>
      </trkpt>
      <trkpt lat="47.51514" lon="16.02292">
        <ele>1065.944115</ele>
        <time>2026-07-07T17:48:27.000Z</time>
      </trkpt>
      <trkpt lat="47.51515" lon="16.02291">
        <ele>1066.02235</ele>
        <time>2026-07-07T17:48:28.000Z</time>
      </trkpt>
      <trkpt lat="47.51515" lon="16.0229">
        <ele>1066.100585</ele>
        <time>2026-07-07T17:48:29.000Z</time>
      </trkpt>
      <trkpt lat="47.51515" lon="16.02289">
        <ele>1066.171644</ele>
        <time>2026-07-07T17:48:30.000Z</time>
      </trkpt>
      <trkpt lat="47.51516" lon="16.02288">
        <ele>1066.244176</ele>
        <time>2026-07-07T17:48:31.000Z</time>
      </trkpt>
      <trkpt lat="47.51516" lon="16.02287">
        <ele>1066.32241</ele>
        <time>2026-07-07T17:48:32.000Z</time>
      </trkpt>
      <trkpt lat="47.51516" lon="16.02285">
        <ele>1066.404229</ele>
        <time>2026-07-07T17:48:33.000Z</time>
      </trkpt>
      <trkpt lat="47.51517" lon="16.02284">
        <ele>1066.485297</ele>
        <time>2026-07-07T17:48:34.000Z</time>
      </trkpt>
      <trkpt lat="47.51517" lon="16.02283">
        <ele>1066.5751</ele>
        <time>2026-07-07T17:48:35.000Z</time>
      </trkpt>
      <trkpt lat="47.51517" lon="16.02282">
        <ele>1066.65662</ele>
        <time>2026-07-07T17:48:36.000Z</time>
      </trkpt>
      <trkpt lat="47.51518" lon="16.0228">
        <ele>1066.748088</ele>
        <time>2026-07-07T17:48:37.000Z</time>
      </trkpt>
      <trkpt lat="47.51518" lon="16.02279">
        <ele>1066.826322</ele>
        <time>2026-07-07T17:48:38.000Z</time>
      </trkpt>
      <trkpt lat="47.51519" lon="16.02278">
        <ele>1066.912531</ele>
        <time>2026-07-07T17:48:39.000Z</time>
      </trkpt>
      <trkpt lat="47.51519" lon="16.02277">
        <ele>1066.985062</ele>
        <time>2026-07-07T17:48:40.000Z</time>
      </trkpt>
      <trkpt lat="47.51519" lon="16.02276">
        <ele>1067.048828</ele>
        <time>2026-07-07T17:48:41.000Z</time>
      </trkpt>
      <trkpt lat="47.51519" lon="16.02275">
        <ele>1067.124398</ele>
        <time>2026-07-07T17:48:42.000Z</time>
      </trkpt>
      <trkpt lat="47.5152" lon="16.02274">
        <ele>1067.1913</ele>
        <time>2026-07-07T17:48:43.000Z</time>
      </trkpt>
      <trkpt lat="47.5152" lon="16.02273">
        <ele>1067.258201</ele>
        <time>2026-07-07T17:48:44.000Z</time>
      </trkpt>
      <trkpt lat="47.5152" lon="16.02271">
        <ele>1067.349669</ele>
        <time>2026-07-07T17:48:45.000Z</time>
      </trkpt>
      <trkpt lat="47.51521" lon="16.0227">
        <ele>1067.442611</ele>
        <time>2026-07-07T17:48:46.000Z</time>
      </trkpt>
      <trkpt lat="47.51521" lon="16.02269">
        <ele>1067.523679</ele>
        <time>2026-07-07T17:48:47.000Z</time>
      </trkpt>
      <trkpt lat="47.51522" lon="16.02268">
        <ele>1067.609888</ele>
        <time>2026-07-07T17:48:48.000Z</time>
      </trkpt>
      <trkpt lat="47.51522" lon="16.02266">
        <ele>1067.696096</ele>
        <time>2026-07-07T17:48:49.000Z</time>
      </trkpt>
      <trkpt lat="47.51523" lon="16.02265">
        <ele>1067.777164</ele>
        <time>2026-07-07T17:48:50.000Z</time>
      </trkpt>
      <trkpt lat="47.51523" lon="16.02264">
        <ele>1067.855398</ele>
        <time>2026-07-07T17:48:51.000Z</time>
      </trkpt>
      <trkpt lat="47.51524" lon="16.02263">
        <ele>1067.931471</ele>
        <time>2026-07-07T17:48:52.000Z</time>
      </trkpt>
      <trkpt lat="47.51524" lon="16.02262">
        <ele>1068.017679</ele>
        <time>2026-07-07T17:48:53.000Z</time>
      </trkpt>
      <trkpt lat="47.51524" lon="16.02261">
        <ele>1068.08458</ele>
        <time>2026-07-07T17:48:54.000Z</time>
      </trkpt>
      <trkpt lat="47.51525" lon="16.0226">
        <ele>1068.165648</ele>
        <time>2026-07-07T17:48:55.000Z</time>
      </trkpt>
      <trkpt lat="47.51525" lon="16.02259">
        <ele>1068.241721</ele>
        <time>2026-07-07T17:48:56.000Z</time>
      </trkpt>
      <trkpt lat="47.51526" lon="16.02258">
        <ele>1068.327929</ele>
        <time>2026-07-07T17:48:57.000Z</time>
      </trkpt>
      <trkpt lat="47.51526" lon="16.02257">
        <ele>1068.404001</ele>
        <time>2026-07-07T17:48:58.000Z</time>
      </trkpt>
      <trkpt lat="47.51527" lon="16.02256">
        <ele>1068.480074</ele>
        <time>2026-07-07T17:48:59.000Z</time>
      </trkpt>
      <trkpt lat="47.51527" lon="16.02255">
        <ele>1068.556146</ele>
        <time>2026-07-07T17:49:00.000Z</time>
      </trkpt>
      <trkpt lat="47.51528" lon="16.02253">
        <ele>1068.637965</ele>
        <time>2026-07-07T17:49:01.000Z</time>
      </trkpt>
      <trkpt lat="47.51528" lon="16.02252">
        <ele>1068.714037</ele>
        <time>2026-07-07T17:49:02.000Z</time>
      </trkpt>
      <trkpt lat="47.51529" lon="16.02251">
        <ele>1068.79011</ele>
        <time>2026-07-07T17:49:03.000Z</time>
      </trkpt>
      <trkpt lat="47.51529" lon="16.0225">
        <ele>1068.866182</ele>
        <time>2026-07-07T17:49:04.000Z</time>
      </trkpt>
      <trkpt lat="47.5153" lon="16.02249">
        <ele>1068.933083</ele>
        <time>2026-07-07T17:49:05.000Z</time>
      </trkpt>
      <trkpt lat="47.5153" lon="16.02249">
        <ele>1068.999726</ele>
        <time>2026-07-07T17:49:06.000Z</time>
      </trkpt>
      <trkpt lat="47.5153" lon="16.02248">
        <ele>1069.066627</ele>
        <time>2026-07-07T17:49:07.000Z</time>
      </trkpt>
      <trkpt lat="47.51531" lon="16.02247">
        <ele>1069.13327</ele>
        <time>2026-07-07T17:49:08.000Z</time>
      </trkpt>
      <trkpt lat="47.51531" lon="16.02246">
        <ele>1069.204521</ele>
        <time>2026-07-07T17:49:09.000Z</time>
      </trkpt>
      <trkpt lat="47.51532" lon="16.02245">
        <ele>1069.280594</ele>
        <time>2026-07-07T17:49:10.000Z</time>
      </trkpt>
      <trkpt lat="47.51532" lon="16.02244">
        <ele>1069.347236</ele>
        <time>2026-07-07T17:49:11.000Z</time>
      </trkpt>
      <trkpt lat="47.51533" lon="16.02243">
        <ele>1069.435292</ele>
        <time>2026-07-07T17:49:12.000Z</time>
      </trkpt>
      <trkpt lat="47.51534" lon="16.02242">
        <ele>1069.501935</ele>
        <time>2026-07-07T17:49:13.000Z</time>
      </trkpt>
      <trkpt lat="47.51534" lon="16.02241">
        <ele>1069.578007</ele>
        <time>2026-07-07T17:49:14.000Z</time>
      </trkpt>
      <trkpt lat="47.51535" lon="16.0224">
        <ele>1069.661933</ele>
        <time>2026-07-07T17:49:15.000Z</time>
      </trkpt>
      <trkpt lat="47.51535" lon="16.0224">
        <ele>1069.702824</ele>
        <time>2026-07-07T17:49:16.000Z</time>
      </trkpt>
      <trkpt lat="47.51535" lon="16.0224">
        <ele>1069.708938</ele>
        <time>2026-07-07T17:49:17.000Z</time>
      </trkpt>
      <trkpt lat="47.51537" lon="16.02238">
        <ele>1069.909056</ele>
        <time>2026-07-07T17:49:25.000Z</time>
      </trkpt>
      <trkpt lat="47.51538" lon="16.02237">
        <ele>1069.997112</ele>
        <time>2026-07-07T17:49:26.000Z</time>
      </trkpt>
      <trkpt lat="47.51538" lon="16.02236">
        <ele>1070.073184</ele>
        <time>2026-07-07T17:49:27.000Z</time>
      </trkpt>
      <trkpt lat="47.51539" lon="16.02235">
        <ele>1070.154252</ele>
        <time>2026-07-07T17:49:28.000Z</time>
      </trkpt>
      <trkpt lat="47.51539" lon="16.02234">
        <ele>1070.230324</ele>
        <time>2026-07-07T17:49:29.000Z</time>
      </trkpt>
      <trkpt lat="47.5154" lon="16.02233">
        <ele>1070.301576</ele>
        <time>2026-07-07T17:49:30.000Z</time>
      </trkpt>
      <trkpt lat="47.5154" lon="16.02232">
        <ele>1070.368218</ele>
        <time>2026-07-07T17:49:31.000Z</time>
      </trkpt>
      <trkpt lat="47.51541" lon="16.02231">
        <ele>1070.456274</ele>
        <time>2026-07-07T17:49:32.000Z</time>
      </trkpt>
      <trkpt lat="47.51541" lon="16.0223">
        <ele>1070.522916</ele>
        <time>2026-07-07T17:49:33.000Z</time>
      </trkpt>
      <trkpt lat="47.51542" lon="16.02229">
        <ele>1070.594168</ele>
        <time>2026-07-07T17:49:34.000Z</time>
      </trkpt>
      <trkpt lat="47.51542" lon="16.02229">
        <ele>1070.66081</ele>
        <time>2026-07-07T17:49:35.000Z</time>
      </trkpt>
      <trkpt lat="47.51543" lon="16.02228">
        <ele>1070.727711</ele>
        <time>2026-07-07T17:49:36.000Z</time>
      </trkpt>
      <trkpt lat="47.51543" lon="16.02227">
        <ele>1070.794354</ele>
        <time>2026-07-07T17:49:37.000Z</time>
      </trkpt>
      <trkpt lat="47.51544" lon="16.02226">
        <ele>1070.865605</ele>
        <time>2026-07-07T17:49:38.000Z</time>
      </trkpt>
      <trkpt lat="47.51544" lon="16.02225">
        <ele>1070.932506</ele>
        <time>2026-07-07T17:49:39.000Z</time>
      </trkpt>
      <trkpt lat="47.51544" lon="16.02224">
        <ele>1071.003566</ele>
        <time>2026-07-07T17:49:40.000Z</time>
      </trkpt>
      <trkpt lat="47.51545" lon="16.02223">
        <ele>1071.059512</ele>
        <time>2026-07-07T17:49:41.000Z</time>
      </trkpt>
      <trkpt lat="47.51545" lon="16.02222">
        <ele>1071.115459</ele>
        <time>2026-07-07T17:49:42.000Z</time>
      </trkpt>
      <trkpt lat="47.51545" lon="16.02221">
        <ele>1071.191531</ele>
        <time>2026-07-07T17:49:43.000Z</time>
      </trkpt>
      <trkpt lat="47.51546" lon="16.02221">
        <ele>1071.253824</ele>
        <time>2026-07-07T17:49:44.000Z</time>
      </trkpt>
      <trkpt lat="47.51546" lon="16.0222">
        <ele>1071.314682</ele>
        <time>2026-07-07T17:49:45.000Z</time>
      </trkpt>
      <trkpt lat="47.51547" lon="16.02219">
        <ele>1071.36537</ele>
        <time>2026-07-07T17:49:46.000Z</time>
      </trkpt>
      <trkpt lat="47.51547" lon="16.02219">
        <ele>1071.387218</ele>
        <time>2026-07-07T17:49:47.000Z</time>
      </trkpt>
      <trkpt lat="47.51547" lon="16.02219">
        <ele>1071.393332</ele>
        <time>2026-07-07T17:49:48.000Z</time>
      </trkpt>
      <trkpt lat="47.51547" lon="16.02217">
        <ele>1071.521571</ele>
        <time>2026-07-07T17:49:55.000Z</time>
      </trkpt>
      <trkpt lat="47.51548" lon="16.02216">
        <ele>1071.582429</ele>
        <time>2026-07-07T17:49:56.000Z</time>
      </trkpt>
      <trkpt lat="47.51548" lon="16.02215">
        <ele>1071.638375</ele>
        <time>2026-07-07T17:49:57.000Z</time>
      </trkpt>
      <trkpt lat="47.51548" lon="16.02214">
        <ele>1071.696304</ele>
        <time>2026-07-07T17:49:58.000Z</time>
      </trkpt>
      <trkpt lat="47.51549" lon="16.02214">
        <ele>1071.752251</ele>
        <time>2026-07-07T17:49:59.000Z</time>
      </trkpt>
      <trkpt lat="47.51549" lon="16.02213">
        <ele>1071.819152</ele>
        <time>2026-07-07T17:50:00.000Z</time>
      </trkpt>
      <trkpt lat="47.51549" lon="16.02212">
        <ele>1071.890211</ele>
        <time>2026-07-07T17:50:01.000Z</time>
      </trkpt>
      <trkpt lat="47.5155" lon="16.02211">
        <ele>1071.956854</ele>
        <time>2026-07-07T17:50:02.000Z</time>
      </trkpt>
      <trkpt lat="47.5155" lon="16.0221">
        <ele>1072.018661</ele>
        <time>2026-07-07T17:50:03.000Z</time>
      </trkpt>
      <trkpt lat="47.5155" lon="16.02209">
        <ele>1072.08972</ele>
        <time>2026-07-07T17:50:04.000Z</time>
      </trkpt>
      <trkpt lat="47.51551" lon="16.02208">
        <ele>1072.175928</ele>
        <time>2026-07-07T17:50:05.000Z</time>
      </trkpt>
      <trkpt lat="47.51551" lon="16.02207">
        <ele>1072.242829</ele>
        <time>2026-07-07T17:50:06.000Z</time>
      </trkpt>
      <trkpt lat="47.51552" lon="16.02205">
        <ele>1072.329037</ele>
        <time>2026-07-07T17:50:07.000Z</time>
      </trkpt>
      <trkpt lat="47.51552" lon="16.02205">
        <ele>1072.384984</ele>
        <time>2026-07-07T17:50:08.000Z</time>
      </trkpt>
      <trkpt lat="47.51552" lon="16.02204">
        <ele>1072.456043</ele>
        <time>2026-07-07T17:50:09.000Z</time>
      </trkpt>
      <trkpt lat="47.51553" lon="16.02203">
        <ele>1072.522944</ele>
        <time>2026-07-07T17:50:10.000Z</time>
      </trkpt>
      <trkpt lat="47.51553" lon="16.02202">
        <ele>1072.5751</ele>
        <time>2026-07-07T17:50:11.000Z</time>
      </trkpt>
      <trkpt lat="47.51553" lon="16.02201">
        <ele>1072.661308</ele>
        <time>2026-07-07T17:50:12.000Z</time>
      </trkpt>
      <trkpt lat="47.51554" lon="16.022">
        <ele>1072.728209</ele>
        <time>2026-07-07T17:50:13.000Z</time>
      </trkpt>
      <trkpt lat="47.51554" lon="16.02199">
        <ele>1072.79511</ele>
        <time>2026-07-07T17:50:14.000Z</time>
      </trkpt>
      <trkpt lat="47.51554" lon="16.02198">
        <ele>1072.841581</ele>
        <time>2026-07-07T17:50:15.000Z</time>
      </trkpt>
      <trkpt lat="47.51554" lon="16.02198">
        <ele>1072.859923</ele>
        <time>2026-07-07T17:50:16.000Z</time>
      </trkpt>
      <trkpt lat="47.51555" lon="16.02195">
        <ele>1073.027166</ele>
        <time>2026-07-07T17:50:27.000Z</time>
      </trkpt>
      <trkpt lat="47.51555" lon="16.02194">
        <ele>1073.088529</ele>
        <time>2026-07-07T17:50:28.000Z</time>
      </trkpt>
      <trkpt lat="47.51556" lon="16.02193">
        <ele>1073.152295</ele>
        <time>2026-07-07T17:50:29.000Z</time>
      </trkpt>
      <trkpt lat="47.51556" lon="16.02192">
        <ele>1073.219196</ele>
        <time>2026-07-07T17:50:30.000Z</time>
      </trkpt>
      <trkpt lat="47.51556" lon="16.02191">
        <ele>1073.300264</ele>
        <time>2026-07-07T17:50:31.000Z</time>
      </trkpt>
      <trkpt lat="47.51557" lon="16.0219">
        <ele>1073.371323</ele>
        <time>2026-07-07T17:50:32.000Z</time>
      </trkpt>
      <trkpt lat="47.51557" lon="16.02189">
        <ele>1073.438224</ele>
        <time>2026-07-07T17:50:33.000Z</time>
      </trkpt>
      <trkpt lat="47.51557" lon="16.02188">
        <ele>1073.516458</ele>
        <time>2026-07-07T17:50:34.000Z</time>
      </trkpt>
      <trkpt lat="47.51558" lon="16.02187">
        <ele>1073.587517</ele>
        <time>2026-07-07T17:50:35.000Z</time>
      </trkpt>
      <trkpt lat="47.51558" lon="16.02186">
        <ele>1073.649324</ele>
        <time>2026-07-07T17:50:36.000Z</time>
      </trkpt>
      <trkpt lat="47.51558" lon="16.02185">
        <ele>1073.71309</ele>
        <time>2026-07-07T17:50:37.000Z</time>
      </trkpt>
      <trkpt lat="47.51558" lon="16.02184">
        <ele>1073.765246</ele>
        <time>2026-07-07T17:50:38.000Z</time>
      </trkpt>
      <trkpt lat="47.51559" lon="16.02183">
        <ele>1073.826609</ele>
        <time>2026-07-07T17:50:39.000Z</time>
      </trkpt>
      <trkpt lat="47.51559" lon="16.02183">
        <ele>1073.867518</ele>
        <time>2026-07-07T17:50:40.000Z</time>
      </trkpt>
      <trkpt lat="47.51559" lon="16.02182">
        <ele>1073.929812</ele>
        <time>2026-07-07T17:50:41.000Z</time>
      </trkpt>
      <trkpt lat="47.5156" lon="16.02181">
        <ele>1073.996454</ele>
        <time>2026-07-07T17:50:42.000Z</time>
      </trkpt>
      <trkpt lat="47.5156" lon="16.0218">
        <ele>1074.082662</ele>
        <time>2026-07-07T17:50:43.000Z</time>
      </trkpt>
      <trkpt lat="47.51561" lon="16.02179">
        <ele>1074.158734</ele>
        <time>2026-07-07T17:50:44.000Z</time>
      </trkpt>
      <trkpt lat="47.51561" lon="16.02178">
        <ele>1074.244942</ele>
        <time>2026-07-07T17:50:45.000Z</time>
      </trkpt>
      <trkpt lat="47.51562" lon="16.02177">
        <ele>1074.326009</ele>
        <time>2026-07-07T17:50:46.000Z</time>
      </trkpt>
      <trkpt lat="47.51562" lon="16.02176">
        <ele>1074.404243</ele>
        <time>2026-07-07T17:50:47.000Z</time>
      </trkpt>
      <trkpt lat="47.51563" lon="16.02174">
        <ele>1074.490451</ele>
        <time>2026-07-07T17:50:48.000Z</time>
      </trkpt>
      <trkpt lat="47.51563" lon="16.02173">
        <ele>1074.574446</ele>
        <time>2026-07-07T17:50:49.000Z</time>
      </trkpt>
      <trkpt lat="47.51563" lon="16.02172">
        <ele>1074.660653</ele>
        <time>2026-07-07T17:50:50.000Z</time>
      </trkpt>
      <trkpt lat="47.51564" lon="16.02171">
        <ele>1074.737037</ele>
        <time>2026-07-07T17:50:51.000Z</time>
      </trkpt>
      <trkpt lat="47.51564" lon="16.02169">
        <ele>1074.833865</ele>
        <time>2026-07-07T17:50:52.000Z</time>
      </trkpt>
      <trkpt lat="47.51565" lon="16.02168">
        <ele>1074.906396</ele>
        <time>2026-07-07T17:50:53.000Z</time>
      </trkpt>
      <trkpt lat="47.51565" lon="16.02167">
        <ele>1074.98463</ele>
        <time>2026-07-07T17:50:54.000Z</time>
      </trkpt>
      <trkpt lat="47.51565" lon="16.02166">
        <ele>1075.070837</ele>
        <time>2026-07-07T17:50:55.000Z</time>
      </trkpt>
      <trkpt lat="47.51566" lon="16.02165">
        <ele>1075.147221</ele>
        <time>2026-07-07T17:50:56.000Z</time>
      </trkpt>
      <trkpt lat="47.51566" lon="16.02164">
        <ele>1075.225454</ele>
        <time>2026-07-07T17:50:57.000Z</time>
      </trkpt>
      <trkpt lat="47.51566" lon="16.02162">
        <ele>1075.303688</ele>
        <time>2026-07-07T17:50:58.000Z</time>
      </trkpt>
      <trkpt lat="47.51567" lon="16.02161">
        <ele>1075.380072</ele>
        <time>2026-07-07T17:50:59.000Z</time>
      </trkpt>
      <trkpt lat="47.51567" lon="16.0216">
        <ele>1075.458306</ele>
        <time>2026-07-07T17:51:00.000Z</time>
      </trkpt>
      <trkpt lat="47.51567" lon="16.02159">
        <ele>1075.536539</ele>
        <time>2026-07-07T17:51:01.000Z</time>
      </trkpt>
      <trkpt lat="47.51568" lon="16.02158">
        <ele>1075.607599</ele>
        <time>2026-07-07T17:51:02.000Z</time>
      </trkpt>
      <trkpt lat="47.51568" lon="16.02157">
        <ele>1075.68013</ele>
        <time>2026-07-07T17:51:03.000Z</time>
      </trkpt>
      <trkpt lat="47.51568" lon="16.02156">
        <ele>1075.747031</ele>
        <time>2026-07-07T17:51:04.000Z</time>
      </trkpt>
      <trkpt lat="47.51569" lon="16.02155">
        <ele>1075.828849</ele>
        <time>2026-07-07T17:51:05.000Z</time>
      </trkpt>
      <trkpt lat="47.51569" lon="16.02154">
        <ele>1075.904921</ele>
        <time>2026-07-07T17:51:06.000Z</time>
      </trkpt>
      <trkpt lat="47.5157" lon="16.02152">
        <ele>1075.983155</ele>
        <time>2026-07-07T17:51:07.000Z</time>
      </trkpt>
      <trkpt lat="47.5157" lon="16.02151">
        <ele>1076.050055</ele>
        <time>2026-07-07T17:51:08.000Z</time>
      </trkpt>
      <trkpt lat="47.5157" lon="16.0215">
        <ele>1076.137398</ele>
        <time>2026-07-07T17:51:09.000Z</time>
      </trkpt>
      <trkpt lat="47.51571" lon="16.02149">
        <ele>1076.223606</ele>
        <time>2026-07-07T17:51:10.000Z</time>
      </trkpt>
      <trkpt lat="47.51571" lon="16.02148">
        <ele>1076.299678</ele>
        <time>2026-07-07T17:51:11.000Z</time>
      </trkpt>
      <trkpt lat="47.51572" lon="16.02147">
        <ele>1076.372209</ele>
        <time>2026-07-07T17:51:12.000Z</time>
      </trkpt>
      <trkpt lat="47.51572" lon="16.02146">
        <ele>1076.450443</ele>
        <time>2026-07-07T17:51:13.000Z</time>
      </trkpt>
      <trkpt lat="47.51572" lon="16.02145">
        <ele>1076.526515</ele>
        <time>2026-07-07T17:51:14.000Z</time>
      </trkpt>
      <trkpt lat="47.51573" lon="16.02144">
        <ele>1076.597574</ele>
        <time>2026-07-07T17:51:15.000Z</time>
      </trkpt>
      <trkpt lat="47.51573" lon="16.02142">
        <ele>1076.683781</ele>
        <time>2026-07-07T17:51:16.000Z</time>
      </trkpt>
      <trkpt lat="47.51574" lon="16.02141">
        <ele>1076.750682</ele>
        <time>2026-07-07T17:51:17.000Z</time>
      </trkpt>
      <trkpt lat="47.51574" lon="16.0214">
        <ele>1076.826754</ele>
        <time>2026-07-07T17:51:18.000Z</time>
      </trkpt>
      <trkpt lat="47.51574" lon="16.02139">
        <ele>1076.893655</ele>
        <time>2026-07-07T17:51:19.000Z</time>
      </trkpt>
      <trkpt lat="47.51575" lon="16.02138">
        <ele>1076.969727</ele>
        <time>2026-07-07T17:51:20.000Z</time>
      </trkpt>
      <trkpt lat="47.51575" lon="16.02137">
        <ele>1077.043161</ele>
        <time>2026-07-07T17:51:21.000Z</time>
      </trkpt>
      <trkpt lat="47.51576" lon="16.02136">
        <ele>1077.112448</ele>
        <time>2026-07-07T17:51:22.000Z</time>
      </trkpt>
      <trkpt lat="47.51576" lon="16.02135">
        <ele>1077.186286</ele>
        <time>2026-07-07T17:51:23.000Z</time>
      </trkpt>
      <trkpt lat="47.51577" lon="16.02134">
        <ele>1077.251182</ele>
        <time>2026-07-07T17:51:24.000Z</time>
      </trkpt>
      <trkpt lat="47.51577" lon="16.02133">
        <ele>1077.320469</ele>
        <time>2026-07-07T17:51:25.000Z</time>
      </trkpt>
      <trkpt lat="47.51578" lon="16.02133">
        <ele>1077.381167</ele>
        <time>2026-07-07T17:51:26.000Z</time>
      </trkpt>
      <trkpt lat="47.51578" lon="16.02131">
        <ele>1077.459686</ele>
        <time>2026-07-07T17:51:27.000Z</time>
      </trkpt>
      <trkpt lat="47.51579" lon="16.02131">
        <ele>1077.520384</ele>
        <time>2026-07-07T17:51:28.000Z</time>
      </trkpt>
      <trkpt lat="47.51579" lon="16.0213">
        <ele>1077.581083</ele>
        <time>2026-07-07T17:51:29.000Z</time>
      </trkpt>
      <trkpt lat="47.5158" lon="16.02128">
        <ele>1077.719657</ele>
        <time>2026-07-07T17:51:31.000Z</time>
      </trkpt>
      <trkpt lat="47.51582" lon="16.02126">
        <ele>1077.864517</ele>
        <time>2026-07-07T17:51:32.000Z</time>
      </trkpt>
      <trkpt lat="47.51582" lon="16.02125">
        <ele>1077.925216</ele>
        <time>2026-07-07T17:51:33.000Z</time>
      </trkpt>
      <trkpt lat="47.51583" lon="16.02124">
        <ele>1077.985914</ele>
        <time>2026-07-07T17:51:35.000Z</time>
      </trkpt>
      <trkpt lat="47.51584" lon="16.02123">
        <ele>1078.111455</ele>
        <time>2026-07-07T17:51:36.000Z</time>
      </trkpt>
      <trkpt lat="47.51584" lon="16.02122">
        <ele>1078.161203</ele>
        <time>2026-07-07T17:51:37.000Z</time>
      </trkpt>
      <trkpt lat="47.51585" lon="16.02121">
        <ele>1078.234114</ele>
        <time>2026-07-07T17:51:38.000Z</time>
      </trkpt>
      <trkpt lat="47.51585" lon="16.0212">
        <ele>1078.29901</ele>
        <time>2026-07-07T17:51:39.000Z</time>
      </trkpt>
      <trkpt lat="47.51586" lon="16.02119">
        <ele>1078.373498</ele>
        <time>2026-07-07T17:51:40.000Z</time>
      </trkpt>
      <trkpt lat="47.51586" lon="16.02119">
        <ele>1078.434196</ele>
        <time>2026-07-07T17:51:41.000Z</time>
      </trkpt>
      <trkpt lat="47.51587" lon="16.02118">
        <ele>1078.503844</ele>
        <time>2026-07-07T17:51:42.000Z</time>
      </trkpt>
      <trkpt lat="47.51588" lon="16.02117">
        <ele>1078.55691</ele>
        <time>2026-07-07T17:51:43.000Z</time>
      </trkpt>
      <trkpt lat="47.51588" lon="16.02116">
        <ele>1078.63335</ele>
        <time>2026-07-07T17:51:44.000Z</time>
      </trkpt>
      <trkpt lat="47.51589" lon="16.02116">
        <ele>1078.694048</ele>
        <time>2026-07-07T17:51:45.000Z</time>
      </trkpt>
      <trkpt lat="47.51589" lon="16.02115">
        <ele>1078.754747</ele>
        <time>2026-07-07T17:51:46.000Z</time>
      </trkpt>
      <trkpt lat="47.5159" lon="16.02114">
        <ele>1078.804495</ele>
        <time>2026-07-07T17:51:47.000Z</time>
      </trkpt>
      <trkpt lat="47.5159" lon="16.02113">
        <ele>1078.869391</ele>
        <time>2026-07-07T17:51:48.000Z</time>
      </trkpt>
      <trkpt lat="47.51591" lon="16.02113">
        <ele>1078.935965</ele>
        <time>2026-07-07T17:51:49.000Z</time>
      </trkpt>
      <trkpt lat="47.51591" lon="16.02112">
        <ele>1078.992702</ele>
        <time>2026-07-07T17:51:50.000Z</time>
      </trkpt>
      <trkpt lat="47.51592" lon="16.02111">
        <ele>1079.03965</ele>
        <time>2026-07-07T17:51:51.000Z</time>
      </trkpt>
      <trkpt lat="47.51592" lon="16.0211">
        <ele>1079.108937</ele>
        <time>2026-07-07T17:51:52.000Z</time>
      </trkpt>
      <trkpt lat="47.51593" lon="16.02109">
        <ele>1079.17936</ele>
        <time>2026-07-07T17:51:53.000Z</time>
      </trkpt>
      <trkpt lat="47.51594" lon="16.02109">
        <ele>1079.25227</ele>
        <time>2026-07-07T17:51:54.000Z</time>
      </trkpt>
      <trkpt lat="47.51594" lon="16.02108">
        <ele>1079.321557</ele>
        <time>2026-07-07T17:51:55.000Z</time>
      </trkpt>
      <trkpt lat="47.51595" lon="16.02107">
        <ele>1079.394467</ele>
        <time>2026-07-07T17:51:56.000Z</time>
      </trkpt>
      <trkpt lat="47.51595" lon="16.02106">
        <ele>1079.457451</ele>
        <time>2026-07-07T17:51:57.000Z</time>
      </trkpt>
      <trkpt lat="47.51596" lon="16.02105">
        <ele>1079.526738</ele>
        <time>2026-07-07T17:51:58.000Z</time>
      </trkpt>
      <trkpt lat="47.51596" lon="16.02104">
        <ele>1079.583475</ele>
        <time>2026-07-07T17:51:59.000Z</time>
      </trkpt>
      <trkpt lat="47.51597" lon="16.02104">
        <ele>1079.644173</ele>
        <time>2026-07-07T17:52:00.000Z</time>
      </trkpt>
      <trkpt lat="47.51597" lon="16.02103">
        <ele>1079.704872</ele>
        <time>2026-07-07T17:52:01.000Z</time>
      </trkpt>
      <trkpt lat="47.51598" lon="16.02102">
        <ele>1079.769768</ele>
        <time>2026-07-07T17:52:02.000Z</time>
      </trkpt>
      <trkpt lat="47.51598" lon="16.02101">
        <ele>1079.843604</ele>
        <time>2026-07-07T17:52:03.000Z</time>
      </trkpt>
      <trkpt lat="47.51599" lon="16.021">
        <ele>1079.912891</ele>
        <time>2026-07-07T17:52:04.000Z</time>
      </trkpt>
      <trkpt lat="47.51599" lon="16.02099">
        <ele>1079.99141</ele>
        <time>2026-07-07T17:52:05.000Z</time>
      </trkpt>
      <trkpt lat="47.516" lon="16.02098">
        <ele>1080.052108</ele>
        <time>2026-07-07T17:52:06.000Z</time>
      </trkpt>
      <trkpt lat="47.516" lon="16.02097">
        <ele>1080.121395</ele>
        <time>2026-07-07T17:52:07.000Z</time>
      </trkpt>
      <trkpt lat="47.51601" lon="16.02096">
        <ele>1080.190682</ele>
        <time>2026-07-07T17:52:08.000Z</time>
      </trkpt>
      <trkpt lat="47.51601" lon="16.02095">
        <ele>1080.250678</ele>
        <time>2026-07-07T17:52:09.000Z</time>
      </trkpt>
      <trkpt lat="47.51602" lon="16.02093">
        <ele>1080.34776</ele>
        <time>2026-07-07T17:52:10.000Z</time>
      </trkpt>
      <trkpt lat="47.51602" lon="16.02092">
        <ele>1080.417047</ele>
        <time>2026-07-07T17:52:11.000Z</time>
      </trkpt>
      <trkpt lat="47.51603" lon="16.02092">
        <ele>1080.489957</ele>
        <time>2026-07-07T17:52:12.000Z</time>
      </trkpt>
      <trkpt lat="47.51604" lon="16.02091">
        <ele>1080.559244</ele>
        <time>2026-07-07T17:52:13.000Z</time>
      </trkpt>
      <trkpt lat="47.51604" lon="16.0209">
        <ele>1080.628531</ele>
        <time>2026-07-07T17:52:14.000Z</time>
      </trkpt>
      <trkpt lat="47.51605" lon="16.02089">
        <ele>1080.689229</ele>
        <time>2026-07-07T17:52:15.000Z</time>
      </trkpt>
      <trkpt lat="47.51605" lon="16.02088">
        <ele>1080.754125</ele>
        <time>2026-07-07T17:52:16.000Z</time>
      </trkpt>
      <trkpt lat="47.51605" lon="16.02087">
        <ele>1080.805081</ele>
        <time>2026-07-07T17:52:17.000Z</time>
      </trkpt>
      <trkpt lat="47.51606" lon="16.02086">
        <ele>1080.89338</ele>
        <time>2026-07-07T17:52:18.000Z</time>
      </trkpt>
      <trkpt lat="47.51606" lon="16.02085">
        <ele>1080.954314</ele>
        <time>2026-07-07T17:52:19.000Z</time>
      </trkpt>
      <trkpt lat="47.51607" lon="16.02084">
        <ele>1081.023884</ele>
        <time>2026-07-07T17:52:20.000Z</time>
      </trkpt>
      <trkpt lat="47.51607" lon="16.02083">
        <ele>1081.093171</ele>
        <time>2026-07-07T17:52:21.000Z</time>
      </trkpt>
      <trkpt lat="47.51608" lon="16.02082">
        <ele>1081.154104</ele>
        <time>2026-07-07T17:52:22.000Z</time>
      </trkpt>
      <trkpt lat="47.51608" lon="16.0208">
        <ele>1081.235896</ele>
        <time>2026-07-07T17:52:23.000Z</time>
      </trkpt>
      <trkpt lat="47.51608" lon="16.02079">
        <ele>1081.319205</ele>
        <time>2026-07-07T17:52:24.000Z</time>
      </trkpt>
      <trkpt lat="47.51609" lon="16.02078">
        <ele>1081.398757</ele>
        <time>2026-07-07T17:52:25.000Z</time>
      </trkpt>
      <trkpt lat="47.51609" lon="16.02076">
        <ele>1081.486948</ele>
        <time>2026-07-07T17:52:26.000Z</time>
      </trkpt>
      <trkpt lat="47.5161" lon="16.02075">
        <ele>1081.563451</ele>
        <time>2026-07-07T17:52:27.000Z</time>
      </trkpt>
      <trkpt lat="47.5161" lon="16.02074">
        <ele>1081.650567</ele>
        <time>2026-07-07T17:52:28.000Z</time>
      </trkpt>
      <trkpt lat="47.5161" lon="16.02072">
        <ele>1081.725087</ele>
        <time>2026-07-07T17:52:29.000Z</time>
      </trkpt>
      <trkpt lat="47.51611" lon="16.02071">
        <ele>1081.80159</ele>
        <time>2026-07-07T17:52:30.000Z</time>
      </trkpt>
      <trkpt lat="47.51611" lon="16.0207">
        <ele>1081.859667</ele>
        <time>2026-07-07T17:52:31.000Z</time>
      </trkpt>
      <trkpt lat="47.51611" lon="16.02069">
        <ele>1081.920601</ele>
        <time>2026-07-07T17:52:32.000Z</time>
      </trkpt>
      <trkpt lat="47.51611" lon="16.02068">
        <ele>1081.981534</ele>
        <time>2026-07-07T17:52:33.000Z</time>
      </trkpt>
      <trkpt lat="47.51612" lon="16.02067">
        <ele>1082.050821</ele>
        <time>2026-07-07T17:52:34.000Z</time>
      </trkpt>
      <trkpt lat="47.51612" lon="16.02066">
        <ele>1082.125341</ele>
        <time>2026-07-07T17:52:35.000Z</time>
      </trkpt>
      <trkpt lat="47.51613" lon="16.02065">
        <ele>1082.194628</ele>
        <time>2026-07-07T17:52:36.000Z</time>
      </trkpt>
      <trkpt lat="47.51613" lon="16.02064">
        <ele>1082.268465</ele>
        <time>2026-07-07T17:52:37.000Z</time>
      </trkpt>
      <trkpt lat="47.51614" lon="16.02063">
        <ele>1082.329398</ele>
        <time>2026-07-07T17:52:38.000Z</time>
      </trkpt>
      <trkpt lat="47.51614" lon="16.02061">
        <ele>1082.417589</ele>
        <time>2026-07-07T17:52:39.000Z</time>
      </trkpt>
      <trkpt lat="47.51615" lon="16.0206">
        <ele>1082.491426</ele>
        <time>2026-07-07T17:52:40.000Z</time>
      </trkpt>
      <trkpt lat="47.51615" lon="16.02059">
        <ele>1082.55236</ele>
        <time>2026-07-07T17:52:41.000Z</time>
      </trkpt>
      <trkpt lat="47.51615" lon="16.02058">
        <ele>1082.610437</ele>
        <time>2026-07-07T17:52:42.000Z</time>
      </trkpt>
      <trkpt lat="47.51615" lon="16.02057">
        <ele>1082.671371</ele>
        <time>2026-07-07T17:52:43.000Z</time>
      </trkpt>
      <trkpt lat="47.51616" lon="16.02056">
        <ele>1082.724132</ele>
        <time>2026-07-07T17:52:44.000Z</time>
      </trkpt>
      <trkpt lat="47.51616" lon="16.02055">
        <ele>1082.785066</ele>
        <time>2026-07-07T17:52:45.000Z</time>
      </trkpt>
      <trkpt lat="47.51616" lon="16.02054">
        <ele>1082.849787</ele>
        <time>2026-07-07T17:52:46.000Z</time>
      </trkpt>
      <trkpt lat="47.51617" lon="16.02053">
        <ele>1082.91072</ele>
        <time>2026-07-07T17:52:47.000Z</time>
      </trkpt>
      <trkpt lat="47.51617" lon="16.02052">
        <ele>1082.976782</ele>
        <time>2026-07-07T17:52:48.000Z</time>
      </trkpt>
      <trkpt lat="47.51617" lon="16.02052">
        <ele>1083.027843</ele>
        <time>2026-07-07T17:52:49.000Z</time>
      </trkpt>
      <trkpt lat="47.51618" lon="16.02051">
        <ele>1083.088777</ele>
        <time>2026-07-07T17:52:50.000Z</time>
      </trkpt>
      <trkpt lat="47.51618" lon="16.0205">
        <ele>1083.14971</ele>
        <time>2026-07-07T17:52:51.000Z</time>
      </trkpt>
      <trkpt lat="47.51618" lon="16.02048">
        <ele>1083.22423</ele>
        <time>2026-07-07T17:52:52.000Z</time>
      </trkpt>
      <trkpt lat="47.51619" lon="16.02047">
        <ele>1083.300733</ele>
        <time>2026-07-07T17:52:53.000Z</time>
      </trkpt>
      <trkpt lat="47.51619" lon="16.02046">
        <ele>1083.369562</ele>
        <time>2026-07-07T17:52:54.000Z</time>
      </trkpt>
      <trkpt lat="47.51619" lon="16.02045">
        <ele>1083.430495</ele>
        <time>2026-07-07T17:52:55.000Z</time>
      </trkpt>
      <trkpt lat="47.51619" lon="16.02044">
        <ele>1083.493932</ele>
        <time>2026-07-07T17:52:56.000Z</time>
      </trkpt>
      <trkpt lat="47.5162" lon="16.02043">
        <ele>1083.565187</ele>
        <time>2026-07-07T17:52:57.000Z</time>
      </trkpt>
      <trkpt lat="47.5162" lon="16.02041">
        <ele>1083.639435</ele>
        <time>2026-07-07T17:52:58.000Z</time>
      </trkpt>
      <trkpt lat="47.5162" lon="16.0204">
        <ele>1083.71069</ele>
        <time>2026-07-07T17:52:59.000Z</time>
      </trkpt>
      <trkpt lat="47.5162" lon="16.02039">
        <ele>1083.781946</ele>
        <time>2026-07-07T17:53:00.000Z</time>
      </trkpt>
      <trkpt lat="47.51621" lon="16.02038">
        <ele>1083.851516</ele>
        <time>2026-07-07T17:53:01.000Z</time>
      </trkpt>
      <trkpt lat="47.51621" lon="16.02037">
        <ele>1083.922771</ele>
        <time>2026-07-07T17:53:02.000Z</time>
      </trkpt>
      <trkpt lat="47.51621" lon="16.02036">
        <ele>1083.983705</ele>
        <time>2026-07-07T17:53:03.000Z</time>
      </trkpt>
      <trkpt lat="47.51622" lon="16.02035">
        <ele>1084.048426</ele>
        <time>2026-07-07T17:53:04.000Z</time>
      </trkpt>
      <trkpt lat="47.51622" lon="16.02033">
        <ele>1084.119681</ele>
        <time>2026-07-07T17:53:05.000Z</time>
      </trkpt>
      <trkpt lat="47.51622" lon="16.02032">
        <ele>1084.183118</ele>
        <time>2026-07-07T17:53:06.000Z</time>
      </trkpt>
      <trkpt lat="47.51623" lon="16.02031">
        <ele>1084.254373</ele>
        <time>2026-07-07T17:53:07.000Z</time>
      </trkpt>
      <trkpt lat="47.51623" lon="16.0203">
        <ele>1084.323202</ele>
        <time>2026-07-07T17:53:08.000Z</time>
      </trkpt>
      <trkpt lat="47.51623" lon="16.02029">
        <ele>1084.38501</ele>
        <time>2026-07-07T17:53:09.000Z</time>
      </trkpt>
      <trkpt lat="47.51623" lon="16.02028">
        <ele>1084.45953</ele>
        <time>2026-07-07T17:53:10.000Z</time>
      </trkpt>
      <trkpt lat="47.51623" lon="16.02026">
        <ele>1084.526861</ele>
        <time>2026-07-07T17:53:11.000Z</time>
      </trkpt>
      <trkpt lat="47.51624" lon="16.02025">
        <ele>1084.591582</ele>
        <time>2026-07-07T17:53:12.000Z</time>
      </trkpt>
      <trkpt lat="47.51624" lon="16.02024">
        <ele>1084.657644</ele>
        <time>2026-07-07T17:53:13.000Z</time>
      </trkpt>
      <trkpt lat="47.51624" lon="16.02023">
        <ele>1084.726472</ele>
        <time>2026-07-07T17:53:14.000Z</time>
      </trkpt>
      <trkpt lat="47.51625" lon="16.02022">
        <ele>1084.797728</ele>
        <time>2026-07-07T17:53:15.000Z</time>
      </trkpt>
      <trkpt lat="47.51625" lon="16.02021">
        <ele>1084.871975</ele>
        <time>2026-07-07T17:53:16.000Z</time>
      </trkpt>
      <trkpt lat="47.51625" lon="16.02019">
        <ele>1084.939306</ele>
        <time>2026-07-07T17:53:17.000Z</time>
      </trkpt>
      <trkpt lat="47.51625" lon="16.02018">
        <ele>1085.013554</ele>
        <time>2026-07-07T17:53:18.000Z</time>
      </trkpt>
      <trkpt lat="47.51625" lon="16.02017">
        <ele>1085.082383</ele>
        <time>2026-07-07T17:53:19.000Z</time>
      </trkpt>
      <trkpt lat="47.51625" lon="16.02016">
        <ele>1085.143638</ele>
        <time>2026-07-07T17:53:20.000Z</time>
      </trkpt>
      <trkpt lat="47.51626" lon="16.02015">
        <ele>1085.214894</ele>
        <time>2026-07-07T17:53:21.000Z</time>
      </trkpt>
      <trkpt lat="47.51626" lon="16.02013">
        <ele>1085.283723</ele>
        <time>2026-07-07T17:53:22.000Z</time>
      </trkpt>
      <trkpt lat="47.51626" lon="16.02012">
        <ele>1085.345531</ele>
        <time>2026-07-07T17:53:23.000Z</time>
      </trkpt>
      <trkpt lat="47.51626" lon="16.02011">
        <ele>1085.410252</ele>
        <time>2026-07-07T17:53:24.000Z</time>
      </trkpt>
      <trkpt lat="47.51626" lon="16.0201">
        <ele>1085.477583</ele>
        <time>2026-07-07T17:53:25.000Z</time>
      </trkpt>
      <trkpt lat="47.51627" lon="16.02009">
        <ele>1085.552103</ele>
        <time>2026-07-07T17:53:26.000Z</time>
      </trkpt>
      <trkpt lat="47.51627" lon="16.02008">
        <ele>1085.613911</ele>
        <time>2026-07-07T17:53:27.000Z</time>
      </trkpt>
      <trkpt lat="47.51627" lon="16.02007">
        <ele>1085.671988</ele>
        <time>2026-07-07T17:53:28.000Z</time>
      </trkpt>
      <trkpt lat="47.51627" lon="16.02006">
        <ele>1085.740817</ele>
        <time>2026-07-07T17:53:29.000Z</time>
      </trkpt>
      <trkpt lat="47.51627" lon="16.02005">
        <ele>1085.797111</ele>
        <time>2026-07-07T17:53:30.000Z</time>
      </trkpt>
      <trkpt lat="47.51628" lon="16.02004">
        <ele>1085.855188</ele>
        <time>2026-07-07T17:53:31.000Z</time>
      </trkpt>
      <trkpt lat="47.51628" lon="16.02002">
        <ele>1085.924017</ele>
        <time>2026-07-07T17:53:32.000Z</time>
      </trkpt>
      <trkpt lat="47.51628" lon="16.02001">
        <ele>1085.980311</ele>
        <time>2026-07-07T17:53:33.000Z</time>
      </trkpt>
      <trkpt lat="47.51628" lon="16.02">
        <ele>1086.043747</ele>
        <time>2026-07-07T17:53:34.000Z</time>
      </trkpt>
      <trkpt lat="47.51628" lon="16.01999">
        <ele>1086.112576</ele>
        <time>2026-07-07T17:53:35.000Z</time>
      </trkpt>
      <trkpt lat="47.51628" lon="16.01998">
        <ele>1086.16887</ele>
        <time>2026-07-07T17:53:36.000Z</time>
      </trkpt>
      <trkpt lat="47.51629" lon="16.01997">
        <ele>1086.237699</ele>
        <time>2026-07-07T17:53:37.000Z</time>
      </trkpt>
      <trkpt lat="47.51629" lon="16.01996">
        <ele>1086.301135</ele>
        <time>2026-07-07T17:53:38.000Z</time>
      </trkpt>
      <trkpt lat="47.51629" lon="16.01995">
        <ele>1086.368466</ele>
        <time>2026-07-07T17:53:39.000Z</time>
      </trkpt>
      <trkpt lat="47.51629" lon="16.01994">
        <ele>1086.426544</ele>
        <time>2026-07-07T17:53:40.000Z</time>
      </trkpt>
      <trkpt lat="47.51629" lon="16.01992">
        <ele>1086.495373</ele>
        <time>2026-07-07T17:53:41.000Z</time>
      </trkpt>
      <trkpt lat="47.5163" lon="16.01991">
        <ele>1086.556306</ele>
        <time>2026-07-07T17:53:42.000Z</time>
      </trkpt>
      <trkpt lat="47.5163" lon="16.0199">
        <ele>1086.614383</ele>
        <time>2026-07-07T17:53:43.000Z</time>
      </trkpt>
      <trkpt lat="47.5163" lon="16.01989">
        <ele>1086.670677</ele>
        <time>2026-07-07T17:53:44.000Z</time>
      </trkpt>
      <trkpt lat="47.5163" lon="16.01988">
        <ele>1086.728754</ele>
        <time>2026-07-07T17:53:45.000Z</time>
      </trkpt>
      <trkpt lat="47.5163" lon="16.01987">
        <ele>1086.789688</ele>
        <time>2026-07-07T17:53:46.000Z</time>
      </trkpt>
      <trkpt lat="47.51631" lon="16.01986">
        <ele>1086.853124</ele>
        <time>2026-07-07T17:53:47.000Z</time>
      </trkpt>
      <trkpt lat="47.51631" lon="16.01985">
        <ele>1086.911201</ele>
        <time>2026-07-07T17:53:48.000Z</time>
      </trkpt>
      <trkpt lat="47.51631" lon="16.01984">
        <ele>1086.967495</ele>
        <time>2026-07-07T17:53:49.000Z</time>
      </trkpt>
      <trkpt lat="47.51631" lon="16.01983">
        <ele>1087.032216</ele>
        <time>2026-07-07T17:53:50.000Z</time>
      </trkpt>
      <trkpt lat="47.51631" lon="16.01982">
        <ele>1087.09904</ele>
        <time>2026-07-07T17:53:51.000Z</time>
      </trkpt>
      <trkpt lat="47.51632" lon="16.01981">
        <ele>1087.159974</ele>
        <time>2026-07-07T17:53:52.000Z</time>
      </trkpt>
      <trkpt lat="47.51632" lon="16.0198">
        <ele>1087.218051</ele>
        <time>2026-07-07T17:53:53.000Z</time>
      </trkpt>
      <trkpt lat="47.51632" lon="16.01979">
        <ele>1087.284875</ele>
        <time>2026-07-07T17:53:54.000Z</time>
      </trkpt>
      <trkpt lat="47.51632" lon="16.01978">
        <ele>1087.350936</ele>
        <time>2026-07-07T17:53:55.000Z</time>
      </trkpt>
      <trkpt lat="47.51632" lon="16.01977">
        <ele>1087.409014</ele>
        <time>2026-07-07T17:53:56.000Z</time>
      </trkpt>
      <trkpt lat="47.51633" lon="16.01976">
        <ele>1087.480269</ele>
        <time>2026-07-07T17:53:57.000Z</time>
      </trkpt>
      <trkpt lat="47.51633" lon="16.01974">
        <ele>1087.551524</ele>
        <time>2026-07-07T17:53:58.000Z</time>
      </trkpt>
      <trkpt lat="47.51633" lon="16.01973">
        <ele>1087.609602</ele>
        <time>2026-07-07T17:53:59.000Z</time>
      </trkpt>
      <trkpt lat="47.51633" lon="16.01972">
        <ele>1087.673038</ele>
        <time>2026-07-07T17:54:00.000Z</time>
      </trkpt>
      <trkpt lat="47.51633" lon="16.01971">
        <ele>1087.740369</ele>
        <time>2026-07-07T17:54:01.000Z</time>
      </trkpt>
      <trkpt lat="47.51634" lon="16.0197">
        <ele>1087.814889</ele>
        <time>2026-07-07T17:54:02.000Z</time>
      </trkpt>
      <trkpt lat="47.51634" lon="16.01969">
        <ele>1087.871183</ele>
        <time>2026-07-07T17:54:03.000Z</time>
      </trkpt>
      <trkpt lat="47.51634" lon="16.01968">
        <ele>1087.940753</ele>
        <time>2026-07-07T17:54:04.000Z</time>
      </trkpt>
      <trkpt lat="47.51634" lon="16.01967">
        <ele>1088.008084</ele>
        <time>2026-07-07T17:54:05.000Z</time>
      </trkpt>
      <trkpt lat="47.51635" lon="16.01965">
        <ele>1088.076912</ele>
        <time>2026-07-07T17:54:06.000Z</time>
      </trkpt>
      <trkpt lat="47.51635" lon="16.01964">
        <ele>1088.13499</ele>
        <time>2026-07-07T17:54:07.000Z</time>
      </trkpt>
      <trkpt lat="47.51635" lon="16.01963">
        <ele>1088.191283</ele>
        <time>2026-07-07T17:54:08.000Z</time>
      </trkpt>
      <trkpt lat="47.51635" lon="16.01962">
        <ele>1088.249361</ele>
        <time>2026-07-07T17:54:09.000Z</time>
      </trkpt>
      <trkpt lat="47.51635" lon="16.01961">
        <ele>1088.307438</ele>
        <time>2026-07-07T17:54:10.000Z</time>
      </trkpt>
      <trkpt lat="47.51635" lon="16.0196">
        <ele>1088.363732</ele>
        <time>2026-07-07T17:54:11.000Z</time>
      </trkpt>
      <trkpt lat="47.51636" lon="16.01959">
        <ele>1088.428452</ele>
        <time>2026-07-07T17:54:12.000Z</time>
      </trkpt>
      <trkpt lat="47.51636" lon="16.01958">
        <ele>1088.484746</ele>
        <time>2026-07-07T17:54:13.000Z</time>
      </trkpt>
      <trkpt lat="47.51636" lon="16.01957">
        <ele>1088.549467</ele>
        <time>2026-07-07T17:54:14.000Z</time>
      </trkpt>
      <trkpt lat="47.51637" lon="16.01956">
        <ele>1088.615528</ele>
        <time>2026-07-07T17:54:15.000Z</time>
      </trkpt>
      <trkpt lat="47.51637" lon="16.01955">
        <ele>1088.684357</ele>
        <time>2026-07-07T17:54:16.000Z</time>
      </trkpt>
      <trkpt lat="47.51637" lon="16.01954">
        <ele>1088.74529</ele>
        <time>2026-07-07T17:54:17.000Z</time>
      </trkpt>
      <trkpt lat="47.51638" lon="16.01953">
        <ele>1088.814577</ele>
        <time>2026-07-07T17:54:18.000Z</time>
      </trkpt>
      <trkpt lat="47.51638" lon="16.01952">
        <ele>1088.885832</ele>
        <time>2026-07-07T17:54:19.000Z</time>
      </trkpt>
      <trkpt lat="47.51638" lon="16.01951">
        <ele>1088.955402</ele>
        <time>2026-07-07T17:54:20.000Z</time>
      </trkpt>
      <trkpt lat="47.51639" lon="16.01949">
        <ele>1089.043593</ele>
        <time>2026-07-07T17:54:21.000Z</time>
      </trkpt>
      <trkpt lat="47.51639" lon="16.01948">
        <ele>1089.120095</ele>
        <time>2026-07-07T17:54:22.000Z</time>
      </trkpt>
      <trkpt lat="47.51639" lon="16.01947">
        <ele>1089.19135</ele>
        <time>2026-07-07T17:54:23.000Z</time>
      </trkpt>
      <trkpt lat="47.5164" lon="16.01946">
        <ele>1089.270902</ele>
        <time>2026-07-07T17:54:24.000Z</time>
      </trkpt>
      <trkpt lat="47.5164" lon="16.01944">
        <ele>1089.342157</ele>
        <time>2026-07-07T17:54:25.000Z</time>
      </trkpt>
      <trkpt lat="47.5164" lon="16.01943">
        <ele>1089.408218</ele>
        <time>2026-07-07T17:54:26.000Z</time>
      </trkpt>
      <trkpt lat="47.51641" lon="16.01942">
        <ele>1089.487905</ele>
        <time>2026-07-07T17:54:27.000Z</time>
      </trkpt>
      <trkpt lat="47.51641" lon="16.01941">
        <ele>1089.564407</ele>
        <time>2026-07-07T17:54:28.000Z</time>
      </trkpt>
      <trkpt lat="47.51641" lon="16.0194">
        <ele>1089.629127</ele>
        <time>2026-07-07T17:54:29.000Z</time>
      </trkpt>
      <trkpt lat="47.51642" lon="16.01939">
        <ele>1089.690061</ele>
        <time>2026-07-07T17:54:30.000Z</time>
      </trkpt>
      <trkpt lat="47.51642" lon="16.01937">
        <ele>1089.761316</ele>
        <time>2026-07-07T17:54:31.000Z</time>
      </trkpt>
      <trkpt lat="47.51642" lon="16.01936">
        <ele>1089.824752</ele>
        <time>2026-07-07T17:54:32.000Z</time>
      </trkpt>
      <trkpt lat="47.51642" lon="16.01935">
        <ele>1089.885686</ele>
        <time>2026-07-07T17:54:33.000Z</time>
      </trkpt>
      <trkpt lat="47.51643" lon="16.01934">
        <ele>1089.950406</ele>
        <time>2026-07-07T17:54:34.000Z</time>
      </trkpt>
      <trkpt lat="47.51643" lon="16.01933">
        <ele>1090.021662</ele>
        <time>2026-07-07T17:54:35.000Z</time>
      </trkpt>
      <trkpt lat="47.51643" lon="16.01932">
        <ele>1090.079739</ele>
        <time>2026-07-07T17:54:36.000Z</time>
      </trkpt>
      <trkpt lat="47.51643" lon="16.01931">
        <ele>1090.147069</ele>
        <time>2026-07-07T17:54:37.000Z</time>
      </trkpt>
      <trkpt lat="47.51644" lon="16.0193">
        <ele>1090.216639</ele>
        <time>2026-07-07T17:54:38.000Z</time>
      </trkpt>
      <trkpt lat="47.51644" lon="16.01929">
        <ele>1090.277573</ele>
        <time>2026-07-07T17:54:39.000Z</time>
      </trkpt>
      <trkpt lat="47.51644" lon="16.01928">
        <ele>1090.346401</ele>
        <time>2026-07-07T17:54:40.000Z</time>
      </trkpt>
      <trkpt lat="47.51645" lon="16.01926">
        <ele>1090.417657</ele>
        <time>2026-07-07T17:54:41.000Z</time>
      </trkpt>
      <trkpt lat="47.51645" lon="16.01925">
        <ele>1090.47859</ele>
        <time>2026-07-07T17:54:42.000Z</time>
      </trkpt>
      <trkpt lat="47.51645" lon="16.01924">
        <ele>1090.536667</ele>
        <time>2026-07-07T17:54:43.000Z</time>
      </trkpt>
      <trkpt lat="47.51645" lon="16.01923">
        <ele>1090.5976</ele>
        <time>2026-07-07T17:54:44.000Z</time>
      </trkpt>
      <trkpt lat="47.51646" lon="16.01922">
        <ele>1090.662321</ele>
        <time>2026-07-07T17:54:45.000Z</time>
      </trkpt>
      <trkpt lat="47.51646" lon="16.01921">
        <ele>1090.723254</ele>
        <time>2026-07-07T17:54:46.000Z</time>
      </trkpt>
      <trkpt lat="47.51646" lon="16.0192">
        <ele>1090.784187</ele>
        <time>2026-07-07T17:54:47.000Z</time>
      </trkpt>
      <trkpt lat="47.51647" lon="16.01919">
        <ele>1090.842264</ele>
        <time>2026-07-07T17:54:48.000Z</time>
      </trkpt>
      <trkpt lat="47.51647" lon="16.01918">
        <ele>1090.903198</ele>
        <time>2026-07-07T17:54:49.000Z</time>
      </trkpt>
      <trkpt lat="47.51647" lon="16.01917">
        <ele>1090.967918</ele>
        <time>2026-07-07T17:54:50.000Z</time>
      </trkpt>
      <trkpt lat="47.51648" lon="16.01916">
        <ele>1091.028851</ele>
        <time>2026-07-07T17:54:51.000Z</time>
      </trkpt>
      <trkpt lat="47.51648" lon="16.01915">
        <ele>1091.089785</ele>
        <time>2026-07-07T17:54:52.000Z</time>
      </trkpt>
      <trkpt lat="47.51648" lon="16.01914">
        <ele>1091.154505</ele>
        <time>2026-07-07T17:54:53.000Z</time>
      </trkpt>
      <trkpt lat="47.51649" lon="16.01914">
        <ele>1091.205461</ele>
        <time>2026-07-07T17:54:54.000Z</time>
      </trkpt>
      <trkpt lat="47.51649" lon="16.01913">
        <ele>1091.256417</ele>
        <time>2026-07-07T17:54:55.000Z</time>
      </trkpt>
      <trkpt lat="47.51649" lon="16.01912">
        <ele>1091.316413</ele>
        <time>2026-07-07T17:54:56.000Z</time>
      </trkpt>
      <trkpt lat="47.51649" lon="16.01911">
        <ele>1091.372707</ele>
        <time>2026-07-07T17:54:57.000Z</time>
      </trkpt>
      <trkpt lat="47.5165" lon="16.0191">
        <ele>1091.430784</ele>
        <time>2026-07-07T17:54:58.000Z</time>
      </trkpt>
      <trkpt lat="47.5165" lon="16.01909">
        <ele>1091.491717</ele>
        <time>2026-07-07T17:54:59.000Z</time>
      </trkpt>
      <trkpt lat="47.5165" lon="16.01908">
        <ele>1091.561004</ele>
        <time>2026-07-07T17:55:00.000Z</time>
      </trkpt>
      <trkpt lat="47.51651" lon="16.01907">
        <ele>1091.630574</ele>
        <time>2026-07-07T17:55:01.000Z</time>
      </trkpt>
      <trkpt lat="47.51651" lon="16.01906">
        <ele>1091.686463</ele>
        <time>2026-07-07T17:55:02.000Z</time>
      </trkpt>
      <trkpt lat="47.51651" lon="16.01905">
        <ele>1091.747397</ele>
        <time>2026-07-07T17:55:03.000Z</time>
      </trkpt>
      <trkpt lat="47.51652" lon="16.01904">
        <ele>1091.812117</ele>
        <time>2026-07-07T17:55:04.000Z</time>
      </trkpt>
      <trkpt lat="47.51652" lon="16.01903">
        <ele>1091.867668</ele>
        <time>2026-07-07T17:55:05.000Z</time>
      </trkpt>
      <trkpt lat="47.51652" lon="16.01902">
        <ele>1091.934603</ele>
        <time>2026-07-07T17:55:06.000Z</time>
      </trkpt>
      <trkpt lat="47.51653" lon="16.01901">
        <ele>1091.997127</ele>
        <time>2026-07-07T17:55:07.000Z</time>
      </trkpt>
      <trkpt lat="47.51653" lon="16.019">
        <ele>1092.060947</ele>
        <time>2026-07-07T17:55:08.000Z</time>
      </trkpt>
      <trkpt lat="47.51654" lon="16.01899">
        <ele>1092.127882</ele>
        <time>2026-07-07T17:55:09.000Z</time>
      </trkpt>
      <trkpt lat="47.51654" lon="16.01898">
        <ele>1092.186748</ele>
        <time>2026-07-07T17:55:10.000Z</time>
      </trkpt>
      <trkpt lat="47.51654" lon="16.01897">
        <ele>1092.249272</ele>
        <time>2026-07-07T17:55:11.000Z</time>
      </trkpt>
      <trkpt lat="47.51655" lon="16.01896">
        <ele>1092.308138</ele>
        <time>2026-07-07T17:55:12.000Z</time>
      </trkpt>
      <trkpt lat="47.51655" lon="16.01895">
        <ele>1092.367003</ele>
        <time>2026-07-07T17:55:13.000Z</time>
      </trkpt>
      <trkpt lat="47.51655" lon="16.01894">
        <ele>1092.429527</ele>
        <time>2026-07-07T17:55:14.000Z</time>
      </trkpt>
      <trkpt lat="47.51656" lon="16.01893">
        <ele>1092.496463</ele>
        <time>2026-07-07T17:55:15.000Z</time>
      </trkpt>
      <trkpt lat="47.51656" lon="16.01892">
        <ele>1092.563398</ele>
        <time>2026-07-07T17:55:16.000Z</time>
      </trkpt>
      <trkpt lat="47.51657" lon="16.01891">
        <ele>1092.622264</ele>
        <time>2026-07-07T17:55:17.000Z</time>
      </trkpt>
      <trkpt lat="47.51657" lon="16.0189">
        <ele>1092.676257</ele>
        <time>2026-07-07T17:55:18.000Z</time>
      </trkpt>
      <trkpt lat="47.51657" lon="16.01889">
        <ele>1092.747588</ele>
        <time>2026-07-07T17:55:19.000Z</time>
      </trkpt>
      <trkpt lat="47.51658" lon="16.01888">
        <ele>1092.810112</ele>
        <time>2026-07-07T17:55:20.000Z</time>
      </trkpt>
      <trkpt lat="47.51658" lon="16.01887">
        <ele>1092.877047</ele>
        <time>2026-07-07T17:55:21.000Z</time>
      </trkpt>
      <trkpt lat="47.51659" lon="16.01886">
        <ele>1092.939741</ele>
        <time>2026-07-07T17:55:22.000Z</time>
      </trkpt>
      <trkpt lat="47.51659" lon="16.01885">
        <ele>1092.998606</ele>
        <time>2026-07-07T17:55:23.000Z</time>
      </trkpt>
      <trkpt lat="47.5166" lon="16.01884">
        <ele>1093.065541</ele>
        <time>2026-07-07T17:55:24.000Z</time>
      </trkpt>
      <trkpt lat="47.5166" lon="16.01883">
        <ele>1093.129361</ele>
        <time>2026-07-07T17:55:25.000Z</time>
      </trkpt>
      <trkpt lat="47.5166" lon="16.01882">
        <ele>1093.191885</ele>
        <time>2026-07-07T17:55:26.000Z</time>
      </trkpt>
      <trkpt lat="47.51661" lon="16.01881">
        <ele>1093.260722</ele>
        <time>2026-07-07T17:55:27.000Z</time>
      </trkpt>
      <trkpt lat="47.51661" lon="16.0188">
        <ele>1093.319588</ele>
        <time>2026-07-07T17:55:28.000Z</time>
      </trkpt>
      <trkpt lat="47.51661" lon="16.01879">
        <ele>1093.382112</ele>
        <time>2026-07-07T17:55:29.000Z</time>
      </trkpt>
      <trkpt lat="47.51662" lon="16.01877">
        <ele>1093.457966</ele>
        <time>2026-07-07T17:55:30.000Z</time>
      </trkpt>
      <trkpt lat="47.51662" lon="16.01876">
        <ele>1093.516831</ele>
        <time>2026-07-07T17:55:31.000Z</time>
      </trkpt>
      <trkpt lat="47.51663" lon="16.01875">
        <ele>1093.583766</ele>
        <time>2026-07-07T17:55:32.000Z</time>
      </trkpt>
      <trkpt lat="47.51663" lon="16.01874">
        <ele>1093.655097</ele>
        <time>2026-07-07T17:55:33.000Z</time>
      </trkpt>
      <trkpt lat="47.51663" lon="16.01873">
        <ele>1093.713963</ele>
        <time>2026-07-07T17:55:34.000Z</time>
      </trkpt>
      <trkpt lat="47.51664" lon="16.01872">
        <ele>1093.780898</ele>
        <time>2026-07-07T17:55:35.000Z</time>
      </trkpt>
      <trkpt lat="47.51664" lon="16.01871">
        <ele>1093.847833</ele>
        <time>2026-07-07T17:55:36.000Z</time>
      </trkpt>
      <trkpt lat="47.51665" lon="16.0187">
        <ele>1093.910357</ele>
        <time>2026-07-07T17:55:37.000Z</time>
      </trkpt>
      <trkpt lat="47.51665" lon="16.01869">
        <ele>1093.977293</ele>
        <time>2026-07-07T17:55:38.000Z</time>
      </trkpt>
      <trkpt lat="47.51666" lon="16.01868">
        <ele>1094.036158</ele>
        <time>2026-07-07T17:55:39.000Z</time>
      </trkpt>
      <trkpt lat="47.51666" lon="16.01867">
        <ele>1094.095024</ele>
        <time>2026-07-07T17:55:40.000Z</time>
      </trkpt>
      <trkpt lat="47.51667" lon="16.01866">
        <ele>1094.180326</ele>
        <time>2026-07-07T17:55:41.000Z</time>
      </trkpt>
      <trkpt lat="47.51667" lon="16.01865">
        <ele>1094.247261</ele>
        <time>2026-07-07T17:55:42.000Z</time>
      </trkpt>
      <trkpt lat="47.51668" lon="16.01864">
        <ele>1094.314196</ele>
        <time>2026-07-07T17:55:43.000Z</time>
      </trkpt>
      <trkpt lat="47.51668" lon="16.01863">
        <ele>1094.39005</ele>
        <time>2026-07-07T17:55:44.000Z</time>
      </trkpt>
      <trkpt lat="47.51668" lon="16.01862">
        <ele>1094.453869</ele>
        <time>2026-07-07T17:55:45.000Z</time>
      </trkpt>
      <trkpt lat="47.51669" lon="16.01861">
        <ele>1094.520804</ele>
        <time>2026-07-07T17:55:46.000Z</time>
      </trkpt>
      <trkpt lat="47.51669" lon="16.0186">
        <ele>1094.587739</ele>
        <time>2026-07-07T17:55:47.000Z</time>
      </trkpt>
      <trkpt lat="47.5167" lon="16.01859">
        <ele>1094.654675</ele>
        <time>2026-07-07T17:55:48.000Z</time>
      </trkpt>
      <trkpt lat="47.5167" lon="16.01858">
        <ele>1094.717199</ele>
        <time>2026-07-07T17:55:49.000Z</time>
      </trkpt>
      <trkpt lat="47.51671" lon="16.01857">
        <ele>1094.784134</ele>
        <time>2026-07-07T17:55:50.000Z</time>
      </trkpt>
      <trkpt lat="47.51671" lon="16.01856">
        <ele>1094.842999</ele>
        <time>2026-07-07T17:55:51.000Z</time>
      </trkpt>
      <trkpt lat="47.51672" lon="16.01855">
        <ele>1094.909935</ele>
        <time>2026-07-07T17:55:52.000Z</time>
      </trkpt>
      <trkpt lat="47.51672" lon="16.01854">
        <ele>1094.985788</ele>
        <time>2026-07-07T17:55:53.000Z</time>
      </trkpt>
      <trkpt lat="47.51672" lon="16.01853">
        <ele>1095.044653</ele>
        <time>2026-07-07T17:55:54.000Z</time>
      </trkpt>
      <trkpt lat="47.51673" lon="16.01851">
        <ele>1095.120507</ele>
        <time>2026-07-07T17:55:55.000Z</time>
      </trkpt>
      <trkpt lat="47.51673" lon="16.0185">
        <ele>1095.187442</ele>
        <time>2026-07-07T17:55:56.000Z</time>
      </trkpt>
      <trkpt lat="47.51674" lon="16.01849">
        <ele>1095.254651</ele>
        <time>2026-07-07T17:55:57.000Z</time>
      </trkpt>
      <trkpt lat="47.51674" lon="16.01848">
        <ele>1095.330504</ele>
        <time>2026-07-07T17:55:58.000Z</time>
      </trkpt>
      <trkpt lat="47.51675" lon="16.01847">
        <ele>1095.399341</ele>
        <time>2026-07-07T17:55:59.000Z</time>
      </trkpt>
      <trkpt lat="47.51675" lon="16.01846">
        <ele>1095.458206</ele>
        <time>2026-07-07T17:56:00.000Z</time>
      </trkpt>
      <trkpt lat="47.51675" lon="16.01845">
        <ele>1095.529537</ele>
        <time>2026-07-07T17:56:01.000Z</time>
      </trkpt>
      <trkpt lat="47.51676" lon="16.01844">
        <ele>1095.592061</ele>
        <time>2026-07-07T17:56:02.000Z</time>
      </trkpt>
      <trkpt lat="47.51676" lon="16.01843">
        <ele>1095.660898</ele>
        <time>2026-07-07T17:56:03.000Z</time>
      </trkpt>
      <trkpt lat="47.51676" lon="16.01841">
        <ele>1095.734804</ele>
        <time>2026-07-07T17:56:04.000Z</time>
      </trkpt>
      <trkpt lat="47.51677" lon="16.0184">
        <ele>1095.806795</ele>
        <time>2026-07-07T17:56:05.000Z</time>
      </trkpt>
      <trkpt lat="47.51677" lon="16.01839">
        <ele>1095.887276</ele>
        <time>2026-07-07T17:56:06.000Z</time>
      </trkpt>
      <trkpt lat="47.51678" lon="16.01837">
        <ele>1095.966291</ele>
        <time>2026-07-07T17:56:07.000Z</time>
      </trkpt>
      <trkpt lat="47.51678" lon="16.01836">
        <ele>1096.040197</ele>
        <time>2026-07-07T17:56:08.000Z</time>
      </trkpt>
      <trkpt lat="47.51678" lon="16.01835">
        <ele>1096.112188</ele>
        <time>2026-07-07T17:56:09.000Z</time>
      </trkpt>
      <trkpt lat="47.51679" lon="16.01834">
        <ele>1096.171053</ele>
        <time>2026-07-07T17:56:10.000Z</time>
      </trkpt>
      <trkpt lat="47.51679" lon="16.01833">
        <ele>1096.234872</ele>
        <time>2026-07-07T17:56:11.000Z</time>
      </trkpt>
      <trkpt lat="47.51679" lon="16.01832">
        <ele>1096.297566</ele>
        <time>2026-07-07T17:56:12.000Z</time>
      </trkpt>
      <trkpt lat="47.5168" lon="16.01831">
        <ele>1096.36009</ele>
        <time>2026-07-07T17:56:13.000Z</time>
      </trkpt>
      <trkpt lat="47.5168" lon="16.0183">
        <ele>1096.43142</ele>
        <time>2026-07-07T17:56:14.000Z</time>
      </trkpt>
      <trkpt lat="47.51681" lon="16.01829">
        <ele>1096.500257</ele>
        <time>2026-07-07T17:56:15.000Z</time>
      </trkpt>
      <trkpt lat="47.51681" lon="16.01827">
        <ele>1096.569094</ele>
        <time>2026-07-07T17:56:16.000Z</time>
      </trkpt>
      <trkpt lat="47.51681" lon="16.01826">
        <ele>1096.640425</ele>
        <time>2026-07-07T17:56:17.000Z</time>
      </trkpt>
      <trkpt lat="47.51682" lon="16.01825">
        <ele>1096.702949</ele>
        <time>2026-07-07T17:56:18.000Z</time>
      </trkpt>
      <trkpt lat="47.51682" lon="16.01824">
        <ele>1096.769884</ele>
        <time>2026-07-07T17:56:19.000Z</time>
      </trkpt>
      <trkpt lat="47.51683" lon="16.01823">
        <ele>1096.838721</ele>
        <time>2026-07-07T17:56:20.000Z</time>
      </trkpt>
      <trkpt lat="47.51683" lon="16.01822">
        <ele>1096.897586</ele>
        <time>2026-07-07T17:56:21.000Z</time>
      </trkpt>
      <trkpt lat="47.51683" lon="16.01821">
        <ele>1096.964522</ele>
        <time>2026-07-07T17:56:22.000Z</time>
      </trkpt>
      <trkpt lat="47.51684" lon="16.0182">
        <ele>1097.027046</ele>
        <time>2026-07-07T17:56:23.000Z</time>
      </trkpt>
      <trkpt lat="47.51684" lon="16.01819">
        <ele>1097.085911</ele>
        <time>2026-07-07T17:56:24.000Z</time>
      </trkpt>
      <trkpt lat="47.51685" lon="16.01818">
        <ele>1097.144549</ele>
        <time>2026-07-07T17:56:25.000Z</time>
      </trkpt>
      <trkpt lat="47.51685" lon="16.01817">
        <ele>1097.203414</ele>
        <time>2026-07-07T17:56:26.000Z</time>
      </trkpt>
      <trkpt lat="47.51685" lon="16.01816">
        <ele>1097.270349</ele>
        <time>2026-07-07T17:56:27.000Z</time>
      </trkpt>
      <trkpt lat="47.51686" lon="16.01816">
        <ele>1097.325161</ele>
        <time>2026-07-07T17:56:28.000Z</time>
      </trkpt>
      <trkpt lat="47.51686" lon="16.01815">
        <ele>1097.392096</ele>
        <time>2026-07-07T17:56:29.000Z</time>
      </trkpt>
      <trkpt lat="47.51687" lon="16.01814">
        <ele>1097.437987</ele>
        <time>2026-07-07T17:56:30.000Z</time>
      </trkpt>
      <trkpt lat="47.51687" lon="16.01813">
        <ele>1097.49198</ele>
        <time>2026-07-07T17:56:31.000Z</time>
      </trkpt>
      <trkpt lat="47.51687" lon="16.01813">
        <ele>1097.527697</ele>
        <time>2026-07-07T17:56:32.000Z</time>
      </trkpt>
      <trkpt lat="47.51687" lon="16.01813">
        <ele>1097.538456</ele>
        <time>2026-07-07T17:56:33.000Z</time>
      </trkpt>
      <trkpt lat="47.51689" lon="16.01808">
        <ele>1097.836105</ele>
        <time>2026-07-07T17:56:54.000Z</time>
      </trkpt>
      <trkpt lat="47.51689" lon="16.01807">
        <ele>1097.911958</ele>
        <time>2026-07-07T17:56:55.000Z</time>
      </trkpt>
      <trkpt lat="47.5169" lon="16.01805">
        <ele>1097.987811</ele>
        <time>2026-07-07T17:56:56.000Z</time>
      </trkpt>
      <trkpt lat="47.5169" lon="16.01804">
        <ele>1098.054746</ele>
        <time>2026-07-07T17:56:57.000Z</time>
      </trkpt>
      <trkpt lat="47.51691" lon="16.01803">
        <ele>1098.121681</ele>
        <time>2026-07-07T17:56:58.000Z</time>
      </trkpt>
      <trkpt lat="47.51691" lon="16.01803">
        <ele>1098.180319</ele>
        <time>2026-07-07T17:56:59.000Z</time>
      </trkpt>
      <trkpt lat="47.51692" lon="16.01802">
        <ele>1098.247254</ele>
        <time>2026-07-07T17:57:00.000Z</time>
      </trkpt>
      <trkpt lat="47.51693" lon="16.01801">
        <ele>1098.324734</ele>
        <time>2026-07-07T17:57:01.000Z</time>
      </trkpt>
      <trkpt lat="47.51693" lon="16.018">
        <ele>1098.383599</ele>
        <time>2026-07-07T17:57:02.000Z</time>
      </trkpt>
      <trkpt lat="47.51693" lon="16.01798">
        <ele>1098.455589</ele>
        <time>2026-07-07T17:57:03.000Z</time>
      </trkpt>
      <trkpt lat="47.51694" lon="16.01797">
        <ele>1098.522524</ele>
        <time>2026-07-07T17:57:04.000Z</time>
      </trkpt>
      <trkpt lat="47.51694" lon="16.01796">
        <ele>1098.589459</ele>
        <time>2026-07-07T17:57:05.000Z</time>
      </trkpt>
      <trkpt lat="47.51695" lon="16.01795">
        <ele>1098.653278</ele>
        <time>2026-07-07T17:57:06.000Z</time>
      </trkpt>
      <trkpt lat="47.51695" lon="16.01794">
        <ele>1098.720213</ele>
        <time>2026-07-07T17:57:07.000Z</time>
      </trkpt>
      <trkpt lat="47.51696" lon="16.01793">
        <ele>1098.805516</ele>
        <time>2026-07-07T17:57:08.000Z</time>
      </trkpt>
      <trkpt lat="47.51696" lon="16.01792">
        <ele>1098.872451</ele>
        <time>2026-07-07T17:57:09.000Z</time>
      </trkpt>
      <trkpt lat="47.51697" lon="16.01791">
        <ele>1098.948304</ele>
        <time>2026-07-07T17:57:10.000Z</time>
      </trkpt>
      <trkpt lat="47.51697" lon="16.0179">
        <ele>1099.015238</ele>
        <time>2026-07-07T17:57:11.000Z</time>
      </trkpt>
      <trkpt lat="47.51698" lon="16.01789">
        <ele>1099.082173</ele>
        <time>2026-07-07T17:57:12.000Z</time>
      </trkpt>
      <trkpt lat="47.51698" lon="16.01788">
        <ele>1099.153504</ele>
        <time>2026-07-07T17:57:13.000Z</time>
      </trkpt>
      <trkpt lat="47.51699" lon="16.01787">
        <ele>1099.233826</ele>
        <time>2026-07-07T17:57:14.000Z</time>
      </trkpt>
      <trkpt lat="47.51699" lon="16.01785">
        <ele>1099.305816</ele>
        <time>2026-07-07T17:57:15.000Z</time>
      </trkpt>
      <trkpt lat="47.517" lon="16.01784">
        <ele>1099.377776</ele>
        <time>2026-07-07T17:57:16.000Z</time>
      </trkpt>
      <trkpt lat="47.517" lon="16.01783">
        <ele>1099.449107</ele>
        <time>2026-07-07T17:57:17.000Z</time>
      </trkpt>
      <trkpt lat="47.51701" lon="16.01782">
        <ele>1099.5118</ele>
        <time>2026-07-07T17:57:18.000Z</time>
      </trkpt>
      <trkpt lat="47.51701" lon="16.01781">
        <ele>1099.578735</ele>
        <time>2026-07-07T17:57:19.000Z</time>
      </trkpt>
      <trkpt lat="47.51702" lon="16.01781">
        <ele>1099.637373</ele>
        <time>2026-07-07T17:57:20.000Z</time>
      </trkpt>
      <trkpt lat="47.51702" lon="16.0178">
        <ele>1099.704308</ele>
        <time>2026-07-07T17:57:21.000Z</time>
      </trkpt>
      <trkpt lat="47.51703" lon="16.01779">
        <ele>1099.766832</ele>
        <time>2026-07-07T17:57:22.000Z</time>
      </trkpt>
      <trkpt lat="47.51703" lon="16.01778">
        <ele>1099.821215</ele>
        <time>2026-07-07T17:57:23.000Z</time>
      </trkpt>
      <trkpt lat="47.51703" lon="16.01777">
        <ele>1099.883739</ele>
        <time>2026-07-07T17:57:24.000Z</time>
      </trkpt>
      <trkpt lat="47.51704" lon="16.01776">
        <ele>1099.932965</ele>
        <time>2026-07-07T17:57:25.000Z</time>
      </trkpt>
      <trkpt lat="47.51704" lon="16.01775">
        <ele>1099.9999</ele>
        <time>2026-07-07T17:57:26.000Z</time>
      </trkpt>
      <trkpt lat="47.51704" lon="16.01774">
        <ele>1100.058765</ele>
        <time>2026-07-07T17:57:27.000Z</time>
      </trkpt>
      <trkpt lat="47.51705" lon="16.01773">
        <ele>1100.134618</ele>
        <time>2026-07-07T17:57:28.000Z</time>
      </trkpt>
      <trkpt lat="47.51705" lon="16.01772">
        <ele>1100.197142</ele>
        <time>2026-07-07T17:57:29.000Z</time>
      </trkpt>
      <trkpt lat="47.51706" lon="16.0177">
        <ele>1100.265979</ele>
        <time>2026-07-07T17:57:30.000Z</time>
      </trkpt>
      <trkpt lat="47.51706" lon="16.01769">
        <ele>1100.329797</ele>
        <time>2026-07-07T17:57:31.000Z</time>
      </trkpt>
      <trkpt lat="47.51706" lon="16.01768">
        <ele>1100.392321</ele>
        <time>2026-07-07T17:57:32.000Z</time>
      </trkpt>
      <trkpt lat="47.51707" lon="16.01767">
        <ele>1100.461158</ele>
        <time>2026-07-07T17:57:33.000Z</time>
      </trkpt>
      <trkpt lat="47.51707" lon="16.01766">
        <ele>1100.529995</ele>
        <time>2026-07-07T17:57:34.000Z</time>
      </trkpt>
      <trkpt lat="47.51707" lon="16.01765">
        <ele>1100.592519</ele>
        <time>2026-07-07T17:57:35.000Z</time>
      </trkpt>
      <trkpt lat="47.51708" lon="16.01764">
        <ele>1100.656337</ele>
        <time>2026-07-07T17:57:36.000Z</time>
      </trkpt>
      <trkpt lat="47.51708" lon="16.01763">
        <ele>1100.72283</ele>
        <time>2026-07-07T17:57:37.000Z</time>
      </trkpt>
      <trkpt lat="47.51708" lon="16.01761">
        <ele>1100.793217</ele>
        <time>2026-07-07T17:57:38.000Z</time>
      </trkpt>
      <trkpt lat="47.51708" lon="16.0176">
        <ele>1100.865208</ele>
        <time>2026-07-07T17:57:39.000Z</time>
      </trkpt>
      <trkpt lat="47.51708" lon="16.01759">
        <ele>1100.919591</ele>
        <time>2026-07-07T17:57:40.000Z</time>
      </trkpt>
      <trkpt lat="47.51709" lon="16.01758">
        <ele>1100.991581</ele>
        <time>2026-07-07T17:57:41.000Z</time>
      </trkpt>
      <trkpt lat="47.51709" lon="16.01757">
        <ele>1101.051291</ele>
        <time>2026-07-07T17:57:42.000Z</time>
      </trkpt>
      <trkpt lat="47.51709" lon="16.01756">
        <ele>1101.113815</ele>
        <time>2026-07-07T17:57:43.000Z</time>
      </trkpt>
      <trkpt lat="47.51709" lon="16.01754">
        <ele>1101.18955</ele>
        <time>2026-07-07T17:57:44.000Z</time>
      </trkpt>
      <trkpt lat="47.5171" lon="16.01753">
        <ele>1101.256758</ele>
        <time>2026-07-07T17:57:45.000Z</time>
      </trkpt>
      <trkpt lat="47.5171" lon="16.01752">
        <ele>1101.335774</ele>
        <time>2026-07-07T17:57:46.000Z</time>
      </trkpt>
      <trkpt lat="47.5171" lon="16.01751">
        <ele>1101.391879</ele>
        <time>2026-07-07T17:57:47.000Z</time>
      </trkpt>
      <trkpt lat="47.5171" lon="16.0175">
        <ele>1101.462267</ele>
        <time>2026-07-07T17:57:48.000Z</time>
      </trkpt>
      <trkpt lat="47.51711" lon="16.01748">
        <ele>1101.539118</ele>
        <time>2026-07-07T17:57:49.000Z</time>
      </trkpt>
      <trkpt lat="47.51711" lon="16.01747">
        <ele>1101.607955</ele>
        <time>2026-07-07T17:57:50.000Z</time>
      </trkpt>
      <trkpt lat="47.51711" lon="16.01746">
        <ele>1101.68186</ele>
        <time>2026-07-07T17:57:51.000Z</time>
      </trkpt>
      <trkpt lat="47.51712" lon="16.01745">
        <ele>1101.75385</ele>
        <time>2026-07-07T17:57:52.000Z</time>
      </trkpt>
      <trkpt lat="47.51712" lon="16.01743">
        <ele>1101.824238</ele>
        <time>2026-07-07T17:57:53.000Z</time>
      </trkpt>
      <trkpt lat="47.51712" lon="16.01742">
        <ele>1101.896228</ele>
        <time>2026-07-07T17:57:54.000Z</time>
      </trkpt>
      <trkpt lat="47.51713" lon="16.01741">
        <ele>1101.965065</ele>
        <time>2026-07-07T17:57:55.000Z</time>
      </trkpt>
      <trkpt lat="47.51713" lon="16.0174">
        <ele>1102.02393</ele>
        <time>2026-07-07T17:57:56.000Z</time>
      </trkpt>
      <trkpt lat="47.51713" lon="16.01739">
        <ele>1102.091138</ele>
        <time>2026-07-07T17:57:57.000Z</time>
      </trkpt>
      <trkpt lat="47.51714" lon="16.01738">
        <ele>1102.150003</ele>
        <time>2026-07-07T17:57:58.000Z</time>
      </trkpt>
      <trkpt lat="47.51714" lon="16.01737">
        <ele>1102.208868</ele>
        <time>2026-07-07T17:57:59.000Z</time>
      </trkpt>
      <trkpt lat="47.51714" lon="16.01736">
        <ele>1102.280859</ele>
        <time>2026-07-07T17:58:00.000Z</time>
      </trkpt>
      <trkpt lat="47.51714" lon="16.01734">
        <ele>1102.345904</ele>
        <time>2026-07-07T17:58:01.000Z</time>
      </trkpt>
      <trkpt lat="47.51715" lon="16.01733">
        <ele>1102.40201</ele>
        <time>2026-07-07T17:58:02.000Z</time>
      </trkpt>
      <trkpt lat="47.51715" lon="16.01732">
        <ele>1102.458115</ele>
        <time>2026-07-07T17:58:03.000Z</time>
      </trkpt>
      <trkpt lat="47.51715" lon="16.01731">
        <ele>1102.512498</ele>
        <time>2026-07-07T17:58:04.000Z</time>
      </trkpt>
      <trkpt lat="47.51715" lon="16.0173">
        <ele>1102.575022</ele>
        <time>2026-07-07T17:58:05.000Z</time>
      </trkpt>
      <trkpt lat="47.51716" lon="16.01729">
        <ele>1102.641957</ele>
        <time>2026-07-07T17:58:06.000Z</time>
      </trkpt>
      <trkpt lat="47.51716" lon="16.01728">
        <ele>1102.701667</ele>
        <time>2026-07-07T17:58:07.000Z</time>
      </trkpt>
      <trkpt lat="47.51716" lon="16.01727">
        <ele>1102.773657</ele>
        <time>2026-07-07T17:58:08.000Z</time>
      </trkpt>
      <trkpt lat="47.51717" lon="16.01726">
        <ele>1102.842493</ele>
        <time>2026-07-07T17:58:09.000Z</time>
      </trkpt>
      <trkpt lat="47.51717" lon="16.01725">
        <ele>1102.903776</ele>
        <time>2026-07-07T17:58:10.000Z</time>
      </trkpt>
      <trkpt lat="47.51717" lon="16.01724">
        <ele>1102.972613</ele>
        <time>2026-07-07T17:58:11.000Z</time>
      </trkpt>
      <trkpt lat="47.51717" lon="16.01722">
        <ele>1103.039105</ele>
        <time>2026-07-07T17:58:12.000Z</time>
      </trkpt>
      <trkpt lat="47.51718" lon="16.01721">
        <ele>1103.119586</ele>
        <time>2026-07-07T17:58:13.000Z</time>
      </trkpt>
      <trkpt lat="47.51718" lon="16.0172">
        <ele>1103.188423</ele>
        <time>2026-07-07T17:58:14.000Z</time>
      </trkpt>
      <trkpt lat="47.51718" lon="16.01719">
        <ele>1103.262328</ele>
        <time>2026-07-07T17:58:15.000Z</time>
      </trkpt>
      <trkpt lat="47.51719" lon="16.01717">
        <ele>1103.334318</ele>
        <time>2026-07-07T17:58:16.000Z</time>
      </trkpt>
      <trkpt lat="47.51719" lon="16.01716">
        <ele>1103.398137</ele>
        <time>2026-07-07T17:58:17.000Z</time>
      </trkpt>
      <trkpt lat="47.51719" lon="16.01715">
        <ele>1103.466973</ele>
        <time>2026-07-07T17:58:18.000Z</time>
      </trkpt>
      <trkpt lat="47.5172" lon="16.01714">
        <ele>1103.529497</ele>
        <time>2026-07-07T17:58:19.000Z</time>
      </trkpt>
      <trkpt lat="47.5172" lon="16.01713">
        <ele>1103.594542</ele>
        <time>2026-07-07T17:58:20.000Z</time>
      </trkpt>
      <trkpt lat="47.5172" lon="16.01712">
        <ele>1103.661751</ele>
        <time>2026-07-07T17:58:21.000Z</time>
      </trkpt>
      <trkpt lat="47.5172" lon="16.01711">
        <ele>1103.726796</ele>
        <time>2026-07-07T17:58:22.000Z</time>
      </trkpt>
      <trkpt lat="47.51721" lon="16.01709">
        <ele>1103.798786</ele>
        <time>2026-07-07T17:58:23.000Z</time>
      </trkpt>
      <trkpt lat="47.51721" lon="16.01708">
        <ele>1103.858496</ele>
        <time>2026-07-07T17:58:24.000Z</time>
      </trkpt>
      <trkpt lat="47.51721" lon="16.01707">
        <ele>1103.935477</ele>
        <time>2026-07-07T17:58:25.000Z</time>
      </trkpt>
      <trkpt lat="47.51721" lon="16.01706">
        <ele>1104.009382</ele>
        <time>2026-07-07T17:58:26.000Z</time>
      </trkpt>
      <trkpt lat="47.51722" lon="16.01704">
        <ele>1104.075874</ele>
        <time>2026-07-07T17:58:27.000Z</time>
      </trkpt>
      <trkpt lat="47.51722" lon="16.01703">
        <ele>1104.139693</ele>
        <time>2026-07-07T17:58:28.000Z</time>
      </trkpt>
      <trkpt lat="47.51722" lon="16.01702">
        <ele>1104.195799</ele>
        <time>2026-07-07T17:58:29.000Z</time>
      </trkpt>
      <trkpt lat="47.51722" lon="16.01701">
        <ele>1104.264635</ele>
        <time>2026-07-07T17:58:30.000Z</time>
      </trkpt>
      <trkpt lat="47.51723" lon="16.017">
        <ele>1104.320741</ele>
        <time>2026-07-07T17:58:31.000Z</time>
      </trkpt>
      <trkpt lat="47.51723" lon="16.01699">
        <ele>1104.379606</ele>
        <time>2026-07-07T17:58:32.000Z</time>
      </trkpt>
      <trkpt lat="47.51723" lon="16.01698">
        <ele>1104.446098</ele>
        <time>2026-07-07T17:58:33.000Z</time>
      </trkpt>
      <trkpt lat="47.51723" lon="16.01697">
        <ele>1104.509917</ele>
        <time>2026-07-07T17:58:35.000Z</time>
      </trkpt>
      <trkpt lat="47.51724" lon="16.01696">
        <ele>1104.576409</ele>
        <time>2026-07-07T17:58:36.000Z</time>
      </trkpt>
      <trkpt lat="47.51724" lon="16.01694">
        <ele>1104.645245</ele>
        <time>2026-07-07T17:58:37.000Z</time>
      </trkpt>
      <trkpt lat="47.51724" lon="16.01693">
        <ele>1104.712454</ele>
        <time>2026-07-07T17:58:38.000Z</time>
      </trkpt>
      <trkpt lat="47.51724" lon="16.01692">
        <ele>1104.777499</ele>
        <time>2026-07-07T17:58:39.000Z</time>
      </trkpt>
      <trkpt lat="47.51725" lon="16.01691">
        <ele>1104.849489</ele>
        <time>2026-07-07T17:58:40.000Z</time>
      </trkpt>
      <trkpt lat="47.51725" lon="16.0169">
        <ele>1104.913308</ele>
        <time>2026-07-07T17:58:41.000Z</time>
      </trkpt>
      <trkpt lat="47.51725" lon="16.01689">
        <ele>1104.982144</ele>
        <time>2026-07-07T17:58:42.000Z</time>
      </trkpt>
      <trkpt lat="47.51726" lon="16.01687">
        <ele>1105.054134</ele>
        <time>2026-07-07T17:58:43.000Z</time>
      </trkpt>
      <trkpt lat="47.51726" lon="16.01686">
        <ele>1105.117953</ele>
        <time>2026-07-07T17:58:44.000Z</time>
      </trkpt>
      <trkpt lat="47.51727" lon="16.01685">
        <ele>1105.193806</ele>
        <time>2026-07-07T17:58:45.000Z</time>
      </trkpt>
      <trkpt lat="47.51727" lon="16.01684">
        <ele>1105.262642</ele>
        <time>2026-07-07T17:58:46.000Z</time>
      </trkpt>
      <trkpt lat="47.51727" lon="16.01683">
        <ele>1105.323925</ele>
        <time>2026-07-07T17:58:47.000Z</time>
      </trkpt>
      <trkpt lat="47.51727" lon="16.01682">
        <ele>1105.390417</ele>
        <time>2026-07-07T17:58:48.000Z</time>
      </trkpt>
      <trkpt lat="47.51728" lon="16.0168">
        <ele>1105.459254</ele>
        <time>2026-07-07T17:58:49.000Z</time>
      </trkpt>
      <trkpt lat="47.51728" lon="16.01679">
        <ele>1105.533159</ele>
        <time>2026-07-07T17:58:50.000Z</time>
      </trkpt>
      <trkpt lat="47.51728" lon="16.01678">
        <ele>1105.605149</ele>
        <time>2026-07-07T17:58:51.000Z</time>
      </trkpt>
      <trkpt lat="47.51729" lon="16.01677">
        <ele>1105.664014</ele>
        <time>2026-07-07T17:58:52.000Z</time>
      </trkpt>
      <trkpt lat="47.51729" lon="16.01676">
        <ele>1105.727832</ele>
        <time>2026-07-07T17:58:53.000Z</time>
      </trkpt>
      <trkpt lat="47.51729" lon="16.01675">
        <ele>1105.790356</ele>
        <time>2026-07-07T17:58:54.000Z</time>
      </trkpt>
      <trkpt lat="47.51729" lon="16.01674">
        <ele>1105.855401</ele>
        <time>2026-07-07T17:58:55.000Z</time>
      </trkpt>
      <trkpt lat="47.5173" lon="16.01672">
        <ele>1105.927391</ele>
        <time>2026-07-07T17:58:56.000Z</time>
      </trkpt>
      <trkpt lat="47.5173" lon="16.01671">
        <ele>1105.99121</ele>
        <time>2026-07-07T17:58:57.000Z</time>
      </trkpt>
      <trkpt lat="47.5173" lon="16.0167">
        <ele>1106.047316</ele>
        <time>2026-07-07T17:58:58.000Z</time>
      </trkpt>
      <trkpt lat="47.51731" lon="16.01669">
        <ele>1106.10618</ele>
        <time>2026-07-07T17:58:59.000Z</time>
      </trkpt>
      <trkpt lat="47.51731" lon="16.01668">
        <ele>1106.165045</ele>
        <time>2026-07-07T17:59:00.000Z</time>
      </trkpt>
      <trkpt lat="47.51731" lon="16.01667">
        <ele>1106.245138</ele>
        <time>2026-07-07T17:59:01.000Z</time>
      </trkpt>
      <trkpt lat="47.51732" lon="16.01666">
        <ele>1106.321741</ele>
        <time>2026-07-07T17:59:02.000Z</time>
      </trkpt>
      <trkpt lat="47.51732" lon="16.01665">
        <ele>1106.401433</ele>
        <time>2026-07-07T17:59:03.000Z</time>
      </trkpt>
      <trkpt lat="47.51732" lon="16.01664">
        <ele>1106.478037</ele>
        <time>2026-07-07T17:59:04.000Z</time>
      </trkpt>
      <trkpt lat="47.51733" lon="16.01663">
        <ele>1106.562374</ele>
        <time>2026-07-07T17:59:05.000Z</time>
      </trkpt>
      <trkpt lat="47.51733" lon="16.01662">
        <ele>1106.631113</ele>
        <time>2026-07-07T17:59:06.000Z</time>
      </trkpt>
      <trkpt lat="47.51733" lon="16.01661">
        <ele>1106.703234</ele>
        <time>2026-07-07T17:59:07.000Z</time>
      </trkpt>
      <trkpt lat="47.51734" lon="16.0166">
        <ele>1106.785241</ele>
        <time>2026-07-07T17:59:08.000Z</time>
      </trkpt>
      <trkpt lat="47.51734" lon="16.01659">
        <ele>1106.857361</ele>
        <time>2026-07-07T17:59:09.000Z</time>
      </trkpt>
      <trkpt lat="47.51734" lon="16.01658">
        <ele>1106.932444</ele>
        <time>2026-07-07T17:59:10.000Z</time>
      </trkpt>
      <trkpt lat="47.51734" lon="16.01657">
        <ele>1107.016781</ele>
        <time>2026-07-07T17:59:11.000Z</time>
      </trkpt>
      <trkpt lat="47.51735" lon="16.01655">
        <ele>1107.126364</ele>
        <time>2026-07-07T17:59:12.000Z</time>
      </trkpt>
      <trkpt lat="47.51736" lon="16.01654">
        <ele>1107.230746</ele>
        <time>2026-07-07T17:59:13.000Z</time>
      </trkpt>
      <trkpt lat="47.51736" lon="16.01653">
        <ele>1107.32935</ele>
        <time>2026-07-07T17:59:14.000Z</time>
      </trkpt>
      <trkpt lat="47.51736" lon="16.01651">
        <ele>1107.419897</ele>
        <time>2026-07-07T17:59:15.000Z</time>
      </trkpt>
      <trkpt lat="47.51737" lon="16.0165">
        <ele>1107.512831</ele>
        <time>2026-07-07T17:59:16.000Z</time>
      </trkpt>
      <trkpt lat="47.51737" lon="16.01649">
        <ele>1107.601032</ele>
        <time>2026-07-07T17:59:17.000Z</time>
      </trkpt>
      <trkpt lat="47.51738" lon="16.01648">
        <ele>1107.679221</ele>
        <time>2026-07-07T17:59:18.000Z</time>
      </trkpt>
      <trkpt lat="47.51738" lon="16.01647">
        <ele>1107.751342</ele>
        <time>2026-07-07T17:59:19.000Z</time>
      </trkpt>
      <trkpt lat="47.51738" lon="16.01646">
        <ele>1107.839543</ele>
        <time>2026-07-07T17:59:20.000Z</time>
      </trkpt>
      <trkpt lat="47.51738" lon="16.01645">
        <ele>1107.906172</ele>
        <time>2026-07-07T17:59:21.000Z</time>
      </trkpt>
      <trkpt lat="47.51739" lon="16.01644">
        <ele>1107.982775</ele>
        <time>2026-07-07T17:59:22.000Z</time>
      </trkpt>
      <trkpt lat="47.51739" lon="16.01643">
        <ele>1108.054895</ele>
        <time>2026-07-07T17:59:23.000Z</time>
      </trkpt>
      <trkpt lat="47.51739" lon="16.01642">
        <ele>1108.127015</ele>
        <time>2026-07-07T17:59:24.000Z</time>
      </trkpt>
      <trkpt lat="47.5174" lon="16.01641">
        <ele>1108.203618</ele>
        <time>2026-07-07T17:59:25.000Z</time>
      </trkpt>
      <trkpt lat="47.5174" lon="16.0164">
        <ele>1108.263929</ele>
        <time>2026-07-07T17:59:26.000Z</time>
      </trkpt>
      <trkpt lat="47.51741" lon="16.01639">
        <ele>1108.345937</ele>
        <time>2026-07-07T17:59:27.000Z</time>
      </trkpt>
      <trkpt lat="47.51741" lon="16.01638">
        <ele>1108.430274</ele>
        <time>2026-07-07T17:59:28.000Z</time>
      </trkpt>
      <trkpt lat="47.51741" lon="16.01637">
        <ele>1108.486499</ele>
        <time>2026-07-07T17:59:29.000Z</time>
      </trkpt>
      <trkpt lat="47.51741" lon="16.01636">
        <ele>1108.555238</ele>
        <time>2026-07-07T17:59:30.000Z</time>
      </trkpt>
      <trkpt lat="47.51742" lon="16.01635">
        <ele>1108.639575</ele>
        <time>2026-07-07T17:59:31.000Z</time>
      </trkpt>
      <trkpt lat="47.51742" lon="16.01634">
        <ele>1108.6958</ele>
        <time>2026-07-07T17:59:32.000Z</time>
      </trkpt>
      <trkpt lat="47.51742" lon="16.01633">
        <ele>1108.76171</ele>
        <time>2026-07-07T17:59:33.000Z</time>
      </trkpt>
      <trkpt lat="47.51742" lon="16.01632">
        <ele>1108.821827</ele>
        <time>2026-07-07T17:59:34.000Z</time>
      </trkpt>
      <trkpt lat="47.51742" lon="16.01631">
        <ele>1108.890566</ele>
        <time>2026-07-07T17:59:35.000Z</time>
      </trkpt>
      <trkpt lat="47.51742" lon="16.0163">
        <ele>1108.956476</ele>
        <time>2026-07-07T17:59:36.000Z</time>
      </trkpt>
      <trkpt lat="47.51742" lon="16.01629">
        <ele>1109.025216</ele>
        <time>2026-07-07T17:59:37.000Z</time>
      </trkpt>
      <trkpt lat="47.51742" lon="16.01628">
        <ele>1109.098371</ele>
        <time>2026-07-07T17:59:38.000Z</time>
      </trkpt>
      <trkpt lat="47.51742" lon="16.01627">
        <ele>1109.164281</ele>
        <time>2026-07-07T17:59:39.000Z</time>
      </trkpt>
      <trkpt lat="47.51743" lon="16.01626">
        <ele>1109.245746</ele>
        <time>2026-07-07T17:59:40.000Z</time>
      </trkpt>
      <trkpt lat="47.51743" lon="16.01624">
        <ele>1109.324838</ele>
        <time>2026-07-07T17:59:41.000Z</time>
      </trkpt>
      <trkpt lat="47.51743" lon="16.01623">
        <ele>1109.390748</ele>
        <time>2026-07-07T17:59:42.000Z</time>
      </trkpt>
      <trkpt lat="47.51743" lon="16.01622">
        <ele>1109.46325</ele>
        <time>2026-07-07T17:59:43.000Z</time>
      </trkpt>
      <trkpt lat="47.51743" lon="16.01621">
        <ele>1109.542342</ele>
        <time>2026-07-07T17:59:44.000Z</time>
      </trkpt>
      <trkpt lat="47.51743" lon="16.0162">
        <ele>1109.608252</ele>
        <time>2026-07-07T17:59:45.000Z</time>
      </trkpt>
      <trkpt lat="47.51743" lon="16.01619">
        <ele>1109.693935</ele>
        <time>2026-07-07T17:59:46.000Z</time>
      </trkpt>
      <trkpt lat="47.51743" lon="16.01618">
        <ele>1109.773027</ele>
        <time>2026-07-07T17:59:47.000Z</time>
      </trkpt>
      <trkpt lat="47.51742" lon="16.01616">
        <ele>1109.854492</ele>
        <time>2026-07-07T17:59:48.000Z</time>
      </trkpt>
      <trkpt lat="47.51742" lon="16.01615">
        <ele>1109.926994</ele>
        <time>2026-07-07T17:59:49.000Z</time>
      </trkpt>
      <trkpt lat="47.51742" lon="16.01614">
        <ele>1110.019268</ele>
        <time>2026-07-07T17:59:50.000Z</time>
      </trkpt>
      <trkpt lat="47.51742" lon="16.01613">
        <ele>1110.092423</ele>
        <time>2026-07-07T17:59:51.000Z</time>
      </trkpt>
      <trkpt lat="47.51742" lon="16.01612">
        <ele>1110.158333</ele>
        <time>2026-07-07T17:59:52.000Z</time>
      </trkpt>
      <trkpt lat="47.51742" lon="16.01611">
        <ele>1110.239798</ele>
        <time>2026-07-07T17:59:53.000Z</time>
      </trkpt>
      <trkpt lat="47.51742" lon="16.01609">
        <ele>1110.325481</ele>
        <time>2026-07-07T17:59:54.000Z</time>
      </trkpt>
      <trkpt lat="47.51742" lon="16.01608">
        <ele>1110.419797</ele>
        <time>2026-07-07T17:59:55.000Z</time>
      </trkpt>
      <trkpt lat="47.51742" lon="16.01607">
        <ele>1110.50548</ele>
        <time>2026-07-07T17:59:56.000Z</time>
      </trkpt>
      <trkpt lat="47.51742" lon="16.01605">
        <ele>1110.584573</ele>
        <time>2026-07-07T17:59:57.000Z</time>
      </trkpt>
      <trkpt lat="47.51742" lon="16.01604">
        <ele>1110.67081</ele>
        <time>2026-07-07T17:59:58.000Z</time>
      </trkpt>
      <trkpt lat="47.51742" lon="16.01603">
        <ele>1110.756493</ele>
        <time>2026-07-07T17:59:59.000Z</time>
      </trkpt>
      <trkpt lat="47.51742" lon="16.01602">
        <ele>1110.836185</ele>
        <time>2026-07-07T18:00:00.000Z</time>
      </trkpt>
      <trkpt lat="47.51742" lon="16.016">
        <ele>1110.915277</ele>
        <time>2026-07-07T18:00:01.000Z</time>
      </trkpt>
      <trkpt lat="47.51742" lon="16.01599">
        <ele>1111.000961</ele>
        <time>2026-07-07T18:00:02.000Z</time>
      </trkpt>
      <trkpt lat="47.51742" lon="16.01598">
        <ele>1111.080053</ele>
        <time>2026-07-07T18:00:03.000Z</time>
      </trkpt>
      <trkpt lat="47.51742" lon="16.01597">
        <ele>1111.152554</ele>
        <time>2026-07-07T18:00:04.000Z</time>
      </trkpt>
      <trkpt lat="47.51742" lon="16.01596">
        <ele>1111.231646</ele>
        <time>2026-07-07T18:00:05.000Z</time>
      </trkpt>
      <trkpt lat="47.51742" lon="16.01594">
        <ele>1111.313111</ele>
        <time>2026-07-07T18:00:06.000Z</time>
      </trkpt>
      <trkpt lat="47.51742" lon="16.01593">
        <ele>1111.388194</ele>
        <time>2026-07-07T18:00:07.000Z</time>
      </trkpt>
      <trkpt lat="47.51742" lon="16.01592">
        <ele>1111.467886</ele>
        <time>2026-07-07T18:00:08.000Z</time>
      </trkpt>
      <trkpt lat="47.51743" lon="16.01591">
        <ele>1111.549351</ele>
        <time>2026-07-07T18:00:09.000Z</time>
      </trkpt>
      <trkpt lat="47.51743" lon="16.0159">
        <ele>1111.624433</ele>
        <time>2026-07-07T18:00:10.000Z</time>
      </trkpt>
      <trkpt lat="47.51743" lon="16.01589">
        <ele>1111.704125</ele>
        <time>2026-07-07T18:00:11.000Z</time>
      </trkpt>
      <trkpt lat="47.51743" lon="16.01587">
        <ele>1111.783217</ele>
        <time>2026-07-07T18:00:12.000Z</time>
      </trkpt>
      <trkpt lat="47.51743" lon="16.01586">
        <ele>1111.8583</ele>
        <time>2026-07-07T18:00:13.000Z</time>
      </trkpt>
      <trkpt lat="47.51743" lon="16.01585">
        <ele>1111.939765</ele>
        <time>2026-07-07T18:00:14.000Z</time>
      </trkpt>
      <trkpt lat="47.51743" lon="16.01584">
        <ele>1112.019457</ele>
        <time>2026-07-07T18:00:15.000Z</time>
      </trkpt>
      <trkpt lat="47.51743" lon="16.01583">
        <ele>1112.10514</ele>
        <time>2026-07-07T18:00:16.000Z</time>
      </trkpt>
      <trkpt lat="47.51744" lon="16.01581">
        <ele>1112.186605</ele>
        <time>2026-07-07T18:00:17.000Z</time>
      </trkpt>
      <trkpt lat="47.51744" lon="16.0158">
        <ele>1112.261688</ele>
        <time>2026-07-07T18:00:18.000Z</time>
      </trkpt>
      <trkpt lat="47.51744" lon="16.01579">
        <ele>1112.34138</ele>
        <time>2026-07-07T18:00:19.000Z</time>
      </trkpt>
      <trkpt lat="47.51744" lon="16.01578">
        <ele>1112.422845</ele>
        <time>2026-07-07T18:00:20.000Z</time>
      </trkpt>
      <trkpt lat="47.51744" lon="16.01577">
        <ele>1112.495346</ele>
        <time>2026-07-07T18:00:21.000Z</time>
      </trkpt>
      <trkpt lat="47.51744" lon="16.01575">
        <ele>1112.589662</ele>
        <time>2026-07-07T18:00:22.000Z</time>
      </trkpt>
      <trkpt lat="47.51744" lon="16.01574">
        <ele>1112.662163</ele>
        <time>2026-07-07T18:00:23.000Z</time>
      </trkpt>
      <trkpt lat="47.51744" lon="16.01573">
        <ele>1112.754952</ele>
        <time>2026-07-07T18:00:24.000Z</time>
      </trkpt>
      <trkpt lat="47.51745" lon="16.01571">
        <ele>1112.855725</ele>
        <time>2026-07-07T18:00:25.000Z</time>
      </trkpt>
      <trkpt lat="47.51745" lon="16.0157">
        <ele>1112.928226</ele>
        <time>2026-07-07T18:00:26.000Z</time>
      </trkpt>
      <trkpt lat="47.51745" lon="16.01569">
        <ele>1113.041961</ele>
        <time>2026-07-07T18:00:27.000Z</time>
      </trkpt>
      <trkpt lat="47.51745" lon="16.01567">
        <ele>1113.140826</ele>
        <time>2026-07-07T18:00:28.000Z</time>
      </trkpt>
      <trkpt lat="47.51745" lon="16.01566">
        <ele>1113.226509</ele>
        <time>2026-07-07T18:00:29.000Z</time>
      </trkpt>
      <trkpt lat="47.51745" lon="16.01565">
        <ele>1113.306201</ele>
        <time>2026-07-07T18:00:30.000Z</time>
      </trkpt>
      <trkpt lat="47.51745" lon="16.01563">
        <ele>1113.394079</ele>
        <time>2026-07-07T18:00:31.000Z</time>
      </trkpt>
      <trkpt lat="47.51745" lon="16.01562">
        <ele>1113.488395</ele>
        <time>2026-07-07T18:00:32.000Z</time>
      </trkpt>
      <trkpt lat="47.51745" lon="16.0156">
        <ele>1113.587741</ele>
        <time>2026-07-07T18:00:33.000Z</time>
      </trkpt>
      <trkpt lat="47.51746" lon="16.01559">
        <ele>1113.688515</ele>
        <time>2026-07-07T18:00:34.000Z</time>
      </trkpt>
      <trkpt lat="47.51746" lon="16.01557">
        <ele>1113.789288</ele>
        <time>2026-07-07T18:00:35.000Z</time>
      </trkpt>
      <trkpt lat="47.51746" lon="16.01556">
        <ele>1113.888153</ele>
        <time>2026-07-07T18:00:36.000Z</time>
      </trkpt>
      <trkpt lat="47.51746" lon="16.01555">
        <ele>1113.9787</ele>
        <time>2026-07-07T18:00:37.000Z</time>
      </trkpt>
      <trkpt lat="47.51746" lon="16.01553">
        <ele>1114.060165</ele>
        <time>2026-07-07T18:00:38.000Z</time>
      </trkpt>
      <trkpt lat="47.51746" lon="16.01552">
        <ele>1114.13332</ele>
        <time>2026-07-07T18:00:39.000Z</time>
      </trkpt>
      <trkpt lat="47.51747" lon="16.01551">
        <ele>1114.214785</ele>
        <time>2026-07-07T18:00:40.000Z</time>
      </trkpt>
      <trkpt lat="47.51747" lon="16.0155">
        <ele>1114.302663</ele>
        <time>2026-07-07T18:00:41.000Z</time>
      </trkpt>
      <trkpt lat="47.51747" lon="16.01549">
        <ele>1114.387</ele>
        <time>2026-07-07T18:00:42.000Z</time>
      </trkpt>
      <trkpt lat="47.51747" lon="16.01547">
        <ele>1114.468465</ele>
        <time>2026-07-07T18:00:43.000Z</time>
      </trkpt>
      <trkpt lat="47.51747" lon="16.01546">
        <ele>1114.554702</ele>
        <time>2026-07-07T18:00:44.000Z</time>
      </trkpt>
      <trkpt lat="47.51748" lon="16.01545">
        <ele>1114.642581</ele>
        <time>2026-07-07T18:00:45.000Z</time>
      </trkpt>
      <trkpt lat="47.51748" lon="16.01544">
        <ele>1114.726918</ele>
        <time>2026-07-07T18:00:46.000Z</time>
      </trkpt>
      <trkpt lat="47.51748" lon="16.01542">
        <ele>1114.814796</ele>
        <time>2026-07-07T18:00:47.000Z</time>
      </trkpt>
      <trkpt lat="47.51748" lon="16.01541">
        <ele>1114.909112</ele>
        <time>2026-07-07T18:00:48.000Z</time>
      </trkpt>
      <trkpt lat="47.51749" lon="16.0154">
        <ele>1114.999659</ele>
        <time>2026-07-07T18:00:49.000Z</time>
      </trkpt>
      <trkpt lat="47.51749" lon="16.01538">
        <ele>1115.083996</ele>
        <time>2026-07-07T18:00:50.000Z</time>
      </trkpt>
      <trkpt lat="47.51749" lon="16.01537">
        <ele>1115.171874</ele>
        <time>2026-07-07T18:00:51.000Z</time>
      </trkpt>
      <trkpt lat="47.51749" lon="16.01536">
        <ele>1115.262421</ele>
        <time>2026-07-07T18:00:52.000Z</time>
      </trkpt>
      <trkpt lat="47.5175" lon="16.01535">
        <ele>1115.350622</ele>
        <time>2026-07-07T18:00:53.000Z</time>
      </trkpt>
      <trkpt lat="47.5175" lon="16.01533">
        <ele>1115.436859</ele>
        <time>2026-07-07T18:00:54.000Z</time>
      </trkpt>
      <trkpt lat="47.5175" lon="16.01532">
        <ele>1115.531175</ele>
        <time>2026-07-07T18:00:55.000Z</time>
      </trkpt>
      <trkpt lat="47.5175" lon="16.01531">
        <ele>1115.616858</ele>
        <time>2026-07-07T18:00:56.000Z</time>
      </trkpt>
      <trkpt lat="47.5175" lon="16.01529">
        <ele>1115.704736</ele>
        <time>2026-07-07T18:00:57.000Z</time>
      </trkpt>
      <trkpt lat="47.5175" lon="16.01528">
        <ele>1115.79701</ele>
        <time>2026-07-07T18:00:58.000Z</time>
      </trkpt>
      <trkpt lat="47.5175" lon="16.01527">
        <ele>1115.883247</ele>
        <time>2026-07-07T18:00:59.000Z</time>
      </trkpt>
      <trkpt lat="47.5175" lon="16.01525">
        <ele>1115.96893</ele>
        <time>2026-07-07T18:01:00.000Z</time>
      </trkpt>
      <trkpt lat="47.5175" lon="16.01524">
        <ele>1116.061204</ele>
        <time>2026-07-07T18:01:01.000Z</time>
      </trkpt>
      <trkpt lat="47.5175" lon="16.01523">
        <ele>1116.147441</ele>
        <time>2026-07-07T18:01:02.000Z</time>
      </trkpt>
      <trkpt lat="47.5175" lon="16.01521">
        <ele>1116.233124</ele>
        <time>2026-07-07T18:01:03.000Z</time>
      </trkpt>
      <trkpt lat="47.5175" lon="16.0152">
        <ele>1116.325399</ele>
        <time>2026-07-07T18:01:04.000Z</time>
      </trkpt>
      <trkpt lat="47.5175" lon="16.01519">
        <ele>1116.413277</ele>
        <time>2026-07-07T18:01:05.000Z</time>
      </trkpt>
      <trkpt lat="47.5175" lon="16.01517">
        <ele>1116.503824</ele>
        <time>2026-07-07T18:01:06.000Z</time>
      </trkpt>
      <trkpt lat="47.5175" lon="16.01516">
        <ele>1116.604597</ele>
        <time>2026-07-07T18:01:07.000Z</time>
      </trkpt>
      <trkpt lat="47.51749" lon="16.01515">
        <ele>1116.688934</ele>
        <time>2026-07-07T18:01:08.000Z</time>
      </trkpt>
      <trkpt lat="47.51749" lon="16.01513">
        <ele>1116.776812</ele>
        <time>2026-07-07T18:01:09.000Z</time>
      </trkpt>
      <trkpt lat="47.51749" lon="16.01512">
        <ele>1116.881194</ele>
        <time>2026-07-07T18:01:10.000Z</time>
      </trkpt>
      <trkpt lat="47.51748" lon="16.01511">
        <ele>1116.971741</ele>
        <time>2026-07-07T18:01:11.000Z</time>
      </trkpt>
      <trkpt lat="47.51748" lon="16.01509">
        <ele>1117.065898</ele>
        <time>2026-07-07T18:01:12.000Z</time>
      </trkpt>
      <trkpt lat="47.51747" lon="16.01508">
        <ele>1117.170279</ele>
        <time>2026-07-07T18:01:13.000Z</time>
      </trkpt>
      <trkpt lat="47.51747" lon="16.01507">
        <ele>1117.260826</ele>
        <time>2026-07-07T18:01:14.000Z</time>
      </trkpt>
      <trkpt lat="47.51747" lon="16.01505">
        <ele>1117.35943</ele>
        <time>2026-07-07T18:01:15.000Z</time>
      </trkpt>
      <trkpt lat="47.51746" lon="16.01504">
        <ele>1117.428169</ele>
        <time>2026-07-07T18:01:16.000Z</time>
      </trkpt>
      <trkpt lat="47.51746" lon="16.01503">
        <ele>1117.50029</ele>
        <time>2026-07-07T18:01:17.000Z</time>
      </trkpt>
      <trkpt lat="47.51746" lon="16.01502">
        <ele>1117.57241</ele>
        <time>2026-07-07T18:01:18.000Z</time>
      </trkpt>
      <trkpt lat="47.51745" lon="16.01501">
        <ele>1117.649013</ele>
        <time>2026-07-07T18:01:19.000Z</time>
      </trkpt>
      <trkpt lat="47.51745" lon="16.015">
        <ele>1117.74582</ele>
        <time>2026-07-07T18:01:20.000Z</time>
      </trkpt>
      <trkpt lat="47.51745" lon="16.01499">
        <ele>1117.833698</ele>
        <time>2026-07-07T18:01:21.000Z</time>
      </trkpt>
      <trkpt lat="47.51745" lon="16.01497">
        <ele>1117.918035</ele>
        <time>2026-07-07T18:01:22.000Z</time>
      </trkpt>
      <trkpt lat="47.51744" lon="16.01496">
        <ele>1117.996225</ele>
        <time>2026-07-07T18:01:23.000Z</time>
      </trkpt>
      <trkpt lat="47.51744" lon="16.01495">
        <ele>1118.072828</ele>
        <time>2026-07-07T18:01:24.000Z</time>
      </trkpt>
      <trkpt lat="47.51744" lon="16.01494">
        <ele>1118.157165</ele>
        <time>2026-07-07T18:01:25.000Z</time>
      </trkpt>
      <trkpt lat="47.51743" lon="16.01493">
        <ele>1118.247712</ele>
        <time>2026-07-07T18:01:26.000Z</time>
      </trkpt>
      <trkpt lat="47.51743" lon="16.01492">
        <ele>1118.340645</ele>
        <time>2026-07-07T18:01:27.000Z</time>
      </trkpt>
      <trkpt lat="47.51742" lon="16.0149">
        <ele>1118.428847</ele>
        <time>2026-07-07T18:01:28.000Z</time>
      </trkpt>
      <trkpt lat="47.51742" lon="16.01489">
        <ele>1118.502002</ele>
        <time>2026-07-07T18:01:29.000Z</time>
      </trkpt>
      <trkpt lat="47.51742" lon="16.01488">
        <ele>1118.602194</ele>
        <time>2026-07-07T18:01:30.000Z</time>
      </trkpt>
      <trkpt lat="47.51742" lon="16.01487">
        <ele>1118.680383</ele>
        <time>2026-07-07T18:01:31.000Z</time>
      </trkpt>
      <trkpt lat="47.51741" lon="16.01486">
        <ele>1118.76472</ele>
        <time>2026-07-07T18:01:32.000Z</time>
      </trkpt>
      <trkpt lat="47.51741" lon="16.01484">
        <ele>1118.858877</ele>
        <time>2026-07-07T18:01:33.000Z</time>
      </trkpt>
      <trkpt lat="47.51741" lon="16.01483">
        <ele>1118.938569</ele>
        <time>2026-07-07T18:01:34.000Z</time>
      </trkpt>
      <trkpt lat="47.5174" lon="16.01482">
        <ele>1119.032726</ele>
        <time>2026-07-07T18:01:35.000Z</time>
      </trkpt>
      <trkpt lat="47.5174" lon="16.0148">
        <ele>1119.129533</ele>
        <time>2026-07-07T18:01:36.000Z</time>
      </trkpt>
      <trkpt lat="47.5174" lon="16.01479">
        <ele>1119.232642</ele>
        <time>2026-07-07T18:01:37.000Z</time>
      </trkpt>
      <trkpt lat="47.51739" lon="16.01478">
        <ele>1119.326799</ele>
        <time>2026-07-07T18:01:38.000Z</time>
      </trkpt>
      <trkpt lat="47.51739" lon="16.01476">
        <ele>1119.417346</ele>
        <time>2026-07-07T18:01:39.000Z</time>
      </trkpt>
      <trkpt lat="47.51739" lon="16.01475">
        <ele>1119.511662</ele>
        <time>2026-07-07T18:01:40.000Z</time>
      </trkpt>
      <trkpt lat="47.51739" lon="16.01474">
        <ele>1119.584818</ele>
        <time>2026-07-07T18:01:41.000Z</time>
      </trkpt>
      <trkpt lat="47.51738" lon="16.01473">
        <ele>1119.673019</ele>
        <time>2026-07-07T18:01:42.000Z</time>
      </trkpt>
      <trkpt lat="47.51738" lon="16.01471">
        <ele>1119.752711</ele>
        <time>2026-07-07T18:01:43.000Z</time>
      </trkpt>
      <trkpt lat="47.51738" lon="16.0147">
        <ele>1119.840589</ele>
        <time>2026-07-07T18:01:44.000Z</time>
      </trkpt>
      <trkpt lat="47.51738" lon="16.01469">
        <ele>1119.922054</ele>
        <time>2026-07-07T18:01:45.000Z</time>
      </trkpt>
      <trkpt lat="47.51738" lon="16.01468">
        <ele>1119.994555</ele>
        <time>2026-07-07T18:01:46.000Z</time>
      </trkpt>
      <trkpt lat="47.51738" lon="16.01467">
        <ele>1120.073648</ele>
        <time>2026-07-07T18:01:47.000Z</time>
      </trkpt>
      <trkpt lat="47.51738" lon="16.01465">
        <ele>1120.15334</ele>
        <time>2026-07-07T18:01:48.000Z</time>
      </trkpt>
      <trkpt lat="47.51738" lon="16.01464">
        <ele>1120.228422</ele>
        <time>2026-07-07T18:01:49.000Z</time>
      </trkpt>
      <trkpt lat="47.51737" lon="16.01463">
        <ele>1120.322738</ele>
        <time>2026-07-07T18:01:50.000Z</time>
      </trkpt>
      <trkpt lat="47.51737" lon="16.01462">
        <ele>1120.408976</ele>
        <time>2026-07-07T18:01:51.000Z</time>
      </trkpt>
      <trkpt lat="47.51737" lon="16.0146">
        <ele>1120.507841</ele>
        <time>2026-07-07T18:01:52.000Z</time>
      </trkpt>
      <trkpt lat="47.51737" lon="16.01459">
        <ele>1120.586933</ele>
        <time>2026-07-07T18:01:53.000Z</time>
      </trkpt>
      <trkpt lat="47.51737" lon="16.01458">
        <ele>1120.662016</ele>
        <time>2026-07-07T18:01:54.000Z</time>
      </trkpt>
      <trkpt lat="47.51737" lon="16.01457">
        <ele>1120.743481</ele>
        <time>2026-07-07T18:01:55.000Z</time>
      </trkpt>
      <trkpt lat="47.51737" lon="16.01455">
        <ele>1120.822573</ele>
        <time>2026-07-07T18:01:56.000Z</time>
      </trkpt>
      <trkpt lat="47.51737" lon="16.01454">
        <ele>1120.895728</ele>
        <time>2026-07-07T18:01:57.000Z</time>
      </trkpt>
      <trkpt lat="47.51736" lon="16.01453">
        <ele>1120.99592</ele>
        <time>2026-07-07T18:01:58.000Z</time>
      </trkpt>
      <trkpt lat="47.51736" lon="16.01452">
        <ele>1121.069075</ele>
        <time>2026-07-07T18:01:59.000Z</time>
      </trkpt>
      <trkpt lat="47.51736" lon="16.0145">
        <ele>1121.16135</ele>
        <time>2026-07-07T18:02:00.000Z</time>
      </trkpt>
      <trkpt lat="47.51736" lon="16.01449">
        <ele>1121.233851</ele>
        <time>2026-07-07T18:02:01.000Z</time>
      </trkpt>
      <trkpt lat="47.51736" lon="16.01448">
        <ele>1121.326125</ele>
        <time>2026-07-07T18:02:02.000Z</time>
      </trkpt>
      <trkpt lat="47.51736" lon="16.01447">
        <ele>1121.398627</ele>
        <time>2026-07-07T18:02:03.000Z</time>
      </trkpt>
      <trkpt lat="47.51736" lon="16.01446">
        <ele>1121.478319</ele>
        <time>2026-07-07T18:02:04.000Z</time>
      </trkpt>
      <trkpt lat="47.51736" lon="16.01444">
        <ele>1121.564002</ele>
        <time>2026-07-07T18:02:05.000Z</time>
      </trkpt>
      <trkpt lat="47.51737" lon="16.01443">
        <ele>1121.658318</ele>
        <time>2026-07-07T18:02:06.000Z</time>
      </trkpt>
      <trkpt lat="47.51737" lon="16.01442">
        <ele>1121.744001</ele>
        <time>2026-07-07T18:02:07.000Z</time>
      </trkpt>
      <trkpt lat="47.51737" lon="16.0144">
        <ele>1121.83188</ele>
        <time>2026-07-07T18:02:08.000Z</time>
      </trkpt>
      <trkpt lat="47.51737" lon="16.01439">
        <ele>1121.910972</ele>
        <time>2026-07-07T18:02:09.000Z</time>
      </trkpt>
      <trkpt lat="47.51737" lon="16.01438">
        <ele>1121.996655</ele>
        <time>2026-07-07T18:02:10.000Z</time>
      </trkpt>
      <trkpt lat="47.51737" lon="16.01436">
        <ele>1122.090971</ele>
        <time>2026-07-07T18:02:11.000Z</time>
      </trkpt>
      <trkpt lat="47.51737" lon="16.01435">
        <ele>1122.176655</ele>
        <time>2026-07-07T18:02:12.000Z</time>
      </trkpt>
      <trkpt lat="47.51737" lon="16.01434">
        <ele>1122.25812</ele>
        <time>2026-07-07T18:02:13.000Z</time>
      </trkpt>
      <trkpt lat="47.51737" lon="16.01433">
        <ele>1122.330621</ele>
        <time>2026-07-07T18:02:14.000Z</time>
      </trkpt>
      <trkpt lat="47.51737" lon="16.01432">
        <ele>1122.410313</ele>
        <time>2026-07-07T18:02:15.000Z</time>
      </trkpt>
      <trkpt lat="47.51737" lon="16.0143">
        <ele>1122.491778</ele>
        <time>2026-07-07T18:02:16.000Z</time>
      </trkpt>
      <trkpt lat="47.51737" lon="16.01429">
        <ele>1122.566861</ele>
        <time>2026-07-07T18:02:17.000Z</time>
      </trkpt>
      <trkpt lat="47.51737" lon="16.01428">
        <ele>1122.646553</ele>
        <time>2026-07-07T18:02:18.000Z</time>
      </trkpt>
      <trkpt lat="47.51738" lon="16.01427">
        <ele>1122.723156</ele>
        <time>2026-07-07T18:02:19.000Z</time>
      </trkpt>
      <trkpt lat="47.51738" lon="16.01426">
        <ele>1122.789785</ele>
        <time>2026-07-07T18:02:20.000Z</time>
      </trkpt>
      <trkpt lat="47.51738" lon="16.01425">
        <ele>1122.839881</ele>
        <time>2026-07-07T18:02:21.000Z</time>
      </trkpt>
      <trkpt lat="47.51738" lon="16.01425">
        <ele>1122.846472</ele>
        <time>2026-07-07T18:02:22.000Z</time>
      </trkpt>
      <trkpt lat="47.51739" lon="16.01423">
        <ele>1123.022874</ele>
        <time>2026-07-07T18:02:29.000Z</time>
      </trkpt>
      <trkpt lat="47.51739" lon="16.01422">
        <ele>1123.08848</ele>
        <time>2026-07-07T18:02:30.000Z</time>
      </trkpt>
      <trkpt lat="47.5174" lon="16.01421">
        <ele>1123.167277</ele>
        <time>2026-07-07T18:02:31.000Z</time>
      </trkpt>
      <trkpt lat="47.5174" lon="16.0142">
        <ele>1123.244087</ele>
        <time>2026-07-07T18:02:32.000Z</time>
      </trkpt>
      <trkpt lat="47.51741" lon="16.0142">
        <ele>1123.306896</ele>
        <time>2026-07-07T18:02:33.000Z</time>
      </trkpt>
      <trkpt lat="47.51742" lon="16.01419">
        <ele>1123.382743</ele>
        <time>2026-07-07T18:02:34.000Z</time>
      </trkpt>
      <trkpt lat="47.51742" lon="16.01419">
        <ele>1123.441625</ele>
        <time>2026-07-07T18:02:35.000Z</time>
      </trkpt>
      <trkpt lat="47.51743" lon="16.01419">
        <ele>1123.49217</ele>
        <time>2026-07-07T18:02:36.000Z</time>
      </trkpt>
      <trkpt lat="47.51743" lon="16.01418">
        <ele>1123.561745</ele>
        <time>2026-07-07T18:02:37.000Z</time>
      </trkpt>
      <trkpt lat="47.51744" lon="16.01419">
        <ele>1123.593853</ele>
        <time>2026-07-07T18:02:38.000Z</time>
      </trkpt>
      <trkpt lat="47.51744" lon="16.01419">
        <ele>1123.663428</ele>
        <time>2026-07-07T18:02:39.000Z</time>
      </trkpt>
      <trkpt lat="47.51745" lon="16.01419">
        <ele>1123.716077</ele>
        <time>2026-07-07T18:02:40.000Z</time>
      </trkpt>
      <trkpt lat="47.51745" lon="16.01419">
        <ele>1123.797978</ele>
        <time>2026-07-07T18:02:41.000Z</time>
      </trkpt>
      <trkpt lat="47.51746" lon="16.0142">
        <ele>1123.875273</ele>
        <time>2026-07-07T18:02:42.000Z</time>
      </trkpt>
      <trkpt lat="47.51747" lon="16.0142">
        <ele>1123.980977</ele>
        <time>2026-07-07T18:02:43.000Z</time>
      </trkpt>
      <trkpt lat="47.51747" lon="16.01421">
        <ele>1124.063037</ele>
        <time>2026-07-07T18:02:44.000Z</time>
      </trkpt>
      <trkpt lat="47.51748" lon="16.01421">
        <ele>1124.145098</ele>
        <time>2026-07-07T18:02:45.000Z</time>
      </trkpt>
      <trkpt lat="47.51748" lon="16.01422">
        <ele>1124.218473</ele>
        <time>2026-07-07T18:02:46.000Z</time>
      </trkpt>
      <trkpt lat="47.51749" lon="16.01422">
        <ele>1124.324177</ele>
        <time>2026-07-07T18:02:47.000Z</time>
      </trkpt>
      <trkpt lat="47.51749" lon="16.01423">
        <ele>1124.406237</ele>
        <time>2026-07-07T18:02:48.000Z</time>
      </trkpt>
      <trkpt lat="47.5175" lon="16.01423">
        <ele>1124.455473</ele>
        <time>2026-07-07T18:02:49.000Z</time>
      </trkpt>
      <trkpt lat="47.5175" lon="16.01423">
        <ele>1124.561177</ele>
        <time>2026-07-07T18:02:50.000Z</time>
      </trkpt>
      <trkpt lat="47.51751" lon="16.01424">
        <ele>1124.605925</ele>
        <time>2026-07-07T18:02:51.000Z</time>
      </trkpt>
      <trkpt lat="47.51751" lon="16.01424">
        <ele>1124.687985</ele>
        <time>2026-07-07T18:02:52.000Z</time>
      </trkpt>
      <trkpt lat="47.51752" lon="16.01424">
        <ele>1124.76136</ele>
        <time>2026-07-07T18:02:53.000Z</time>
      </trkpt>
      <trkpt lat="47.51752" lon="16.01425">
        <ele>1124.816267</ele>
        <time>2026-07-07T18:02:54.000Z</time>
      </trkpt>
      <trkpt lat="47.51752" lon="16.01425">
        <ele>1124.87144</ele>
        <time>2026-07-07T18:02:55.000Z</time>
      </trkpt>
      <trkpt lat="47.51753" lon="16.01425">
        <ele>1124.926347</ele>
        <time>2026-07-07T18:02:56.000Z</time>
      </trkpt>
      <trkpt lat="47.51753" lon="16.01426">
        <ele>1125.008407</ele>
        <time>2026-07-07T18:02:57.000Z</time>
      </trkpt>
      <trkpt lat="47.51754" lon="16.01426">
        <ele>1125.077029</ele>
        <time>2026-07-07T18:02:58.000Z</time>
      </trkpt>
      <trkpt lat="47.51754" lon="16.01426">
        <ele>1125.147471</ele>
        <time>2026-07-07T18:02:59.000Z</time>
      </trkpt>
      <trkpt lat="47.51755" lon="16.01426">
        <ele>1125.217912</ele>
        <time>2026-07-07T18:03:00.000Z</time>
      </trkpt>
      <trkpt lat="47.51755" lon="16.01426">
        <ele>1125.286534</ele>
        <time>2026-07-07T18:03:01.000Z</time>
      </trkpt>
      <trkpt lat="47.51756" lon="16.01426">
        <ele>1125.381739</ele>
        <time>2026-07-07T18:03:02.000Z</time>
      </trkpt>
      <trkpt lat="47.51756" lon="16.01427">
        <ele>1125.452181</ele>
        <time>2026-07-07T18:03:03.000Z</time>
      </trkpt>
      <trkpt lat="47.51757" lon="16.01427">
        <ele>1125.520185</ele>
        <time>2026-07-07T18:03:04.000Z</time>
      </trkpt>
      <trkpt lat="47.51757" lon="16.01427">
        <ele>1125.588188</ele>
        <time>2026-07-07T18:03:05.000Z</time>
      </trkpt>
      <trkpt lat="47.51758" lon="16.01427">
        <ele>1125.65863</ele>
        <time>2026-07-07T18:03:06.000Z</time>
      </trkpt>
      <trkpt lat="47.51758" lon="16.01427">
        <ele>1125.726634</ele>
        <time>2026-07-07T18:03:07.000Z</time>
      </trkpt>
      <trkpt lat="47.51759" lon="16.01427">
        <ele>1125.810281</ele>
        <time>2026-07-07T18:03:08.000Z</time>
      </trkpt>
      <trkpt lat="47.51759" lon="16.01426">
        <ele>1125.883656</ele>
        <time>2026-07-07T18:03:09.000Z</time>
      </trkpt>
      <trkpt lat="47.5176" lon="16.01426">
        <ele>1125.985705</ele>
        <time>2026-07-07T18:03:10.000Z</time>
      </trkpt>
      <trkpt lat="47.51761" lon="16.01426">
        <ele>1126.081353</ele>
        <time>2026-07-07T18:03:11.000Z</time>
      </trkpt>
      <trkpt lat="47.51761" lon="16.01426">
        <ele>1126.165</ele>
        <time>2026-07-07T18:03:12.000Z</time>
      </trkpt>
      <trkpt lat="47.51762" lon="16.01425">
        <ele>1126.261961</ele>
        <time>2026-07-07T18:03:13.000Z</time>
      </trkpt>
      <trkpt lat="47.51763" lon="16.01425">
        <ele>1126.357609</ele>
        <time>2026-07-07T18:03:14.000Z</time>
      </trkpt>
      <trkpt lat="47.51764" lon="16.01425">
        <ele>1126.466415</ele>
        <time>2026-07-07T18:03:15.000Z</time>
      </trkpt>
      <trkpt lat="47.51764" lon="16.01425">
        <ele>1126.562063</ele>
        <time>2026-07-07T18:03:16.000Z</time>
      </trkpt>
      <trkpt lat="47.51765" lon="16.01426">
        <ele>1126.64571</ele>
        <time>2026-07-07T18:03:17.000Z</time>
      </trkpt>
      <trkpt lat="47.51766" lon="16.01426">
        <ele>1126.742671</ele>
        <time>2026-07-07T18:03:18.000Z</time>
      </trkpt>
      <trkpt lat="47.51766" lon="16.01426">
        <ele>1126.841785</ele>
        <time>2026-07-07T18:03:19.000Z</time>
      </trkpt>
      <trkpt lat="47.51767" lon="16.01427">
        <ele>1126.935426</ele>
        <time>2026-07-07T18:03:20.000Z</time>
      </trkpt>
      <trkpt lat="47.51767" lon="16.01427">
        <ele>1127.029014</ele>
        <time>2026-07-07T18:03:21.000Z</time>
      </trkpt>
      <trkpt lat="47.51768" lon="16.01428">
        <ele>1127.100211</ele>
        <time>2026-07-07T18:03:22.000Z</time>
      </trkpt>
      <trkpt lat="47.51768" lon="16.01428">
        <ele>1127.187744</ele>
        <time>2026-07-07T18:03:23.000Z</time>
      </trkpt>
      <trkpt lat="47.51769" lon="16.01429">
        <ele>1127.263895</ele>
        <time>2026-07-07T18:03:24.000Z</time>
      </trkpt>
      <trkpt lat="47.51769" lon="16.0143">
        <ele>1127.364017</ele>
        <time>2026-07-07T18:03:25.000Z</time>
      </trkpt>
      <trkpt lat="47.5177" lon="16.01431">
        <ele>1127.478305</ele>
        <time>2026-07-07T18:03:26.000Z</time>
      </trkpt>
      <trkpt lat="47.5177" lon="16.01432">
        <ele>1127.578814</ele>
        <time>2026-07-07T18:03:27.000Z</time>
      </trkpt>
      <trkpt lat="47.5177" lon="16.01433">
        <ele>1127.685571</ele>
        <time>2026-07-07T18:03:28.000Z</time>
      </trkpt>
      <trkpt lat="47.51771" lon="16.01434">
        <ele>1127.799859</ele>
        <time>2026-07-07T18:03:29.000Z</time>
      </trkpt>
      <trkpt lat="47.51771" lon="16.01435">
        <ele>1127.900368</ele>
        <time>2026-07-07T18:03:30.000Z</time>
      </trkpt>
      <trkpt lat="47.51772" lon="16.01436">
        <ele>1128.014657</ele>
        <time>2026-07-07T18:03:31.000Z</time>
      </trkpt>
      <trkpt lat="47.51772" lon="16.01437">
        <ele>1128.129541</ele>
        <time>2026-07-07T18:03:32.000Z</time>
      </trkpt>
      <trkpt lat="47.51773" lon="16.01437">
        <ele>1128.233433</ele>
        <time>2026-07-07T18:03:33.000Z</time>
      </trkpt>
      <trkpt lat="47.51774" lon="16.01438">
        <ele>1128.376203</ele>
        <time>2026-07-07T18:03:34.000Z</time>
      </trkpt>
      <trkpt lat="47.51774" lon="16.01439">
        <ele>1128.469844</ele>
        <time>2026-07-07T18:03:35.000Z</time>
      </trkpt>
      <trkpt lat="47.51775" lon="16.01439">
        <ele>1128.575548</ele>
        <time>2026-07-07T18:03:36.000Z</time>
      </trkpt>
      <trkpt lat="47.51776" lon="16.0144">
        <ele>1128.681252</ele>
        <time>2026-07-07T18:03:37.000Z</time>
      </trkpt>
      <trkpt lat="47.51776" lon="16.0144">
        <ele>1128.764899</ele>
        <time>2026-07-07T18:03:38.000Z</time>
      </trkpt>
      <trkpt lat="47.51777" lon="16.0144">
        <ele>1128.832903</ele>
        <time>2026-07-07T18:03:39.000Z</time>
      </trkpt>
      <trkpt lat="47.51777" lon="16.0144">
        <ele>1128.887306</ele>
        <time>2026-07-07T18:03:40.000Z</time>
      </trkpt>
      <trkpt lat="47.51778" lon="16.0144">
        <ele>1128.95531</ele>
        <time>2026-07-07T18:03:41.000Z</time>
      </trkpt>
      <trkpt lat="47.51778" lon="16.01439">
        <ele>1129.044805</ele>
        <time>2026-07-07T18:03:42.000Z</time>
      </trkpt>
      <trkpt lat="47.51779" lon="16.01439">
        <ele>1129.113426</ele>
        <time>2026-07-07T18:03:43.000Z</time>
      </trkpt>
      <trkpt lat="47.5178" lon="16.01439">
        <ele>1129.210388</ele>
        <time>2026-07-07T18:03:44.000Z</time>
      </trkpt>
      <trkpt lat="47.5178" lon="16.01439">
        <ele>1129.283763</ele>
        <time>2026-07-07T18:03:45.000Z</time>
      </trkpt>
      <trkpt lat="47.51781" lon="16.01439">
        <ele>1129.354204</ele>
        <time>2026-07-07T18:03:46.000Z</time>
      </trkpt>
      <trkpt lat="47.51781" lon="16.01438">
        <ele>1129.436264</ele>
        <time>2026-07-07T18:03:47.000Z</time>
      </trkpt>
      <trkpt lat="47.51782" lon="16.01438">
        <ele>1129.518324</ele>
        <time>2026-07-07T18:03:48.000Z</time>
      </trkpt>
      <trkpt lat="47.51782" lon="16.01437">
        <ele>1129.594476</ele>
        <time>2026-07-07T18:03:49.000Z</time>
      </trkpt>
      <trkpt lat="47.51782" lon="16.01436">
        <ele>1129.682008</ele>
        <time>2026-07-07T18:03:50.000Z</time>
      </trkpt>
      <trkpt lat="47.51783" lon="16.01435">
        <ele>1129.808097</ele>
        <time>2026-07-07T18:03:51.000Z</time>
      </trkpt>
      <trkpt lat="47.51784" lon="16.01435">
        <ele>1129.908218</ele>
        <time>2026-07-07T18:03:52.000Z</time>
      </trkpt>
      <trkpt lat="47.51784" lon="16.01434">
        <ele>1130.00834</ele>
        <time>2026-07-07T18:03:53.000Z</time>
      </trkpt>
      <trkpt lat="47.51785" lon="16.01433">
        <ele>1130.122628</ele>
        <time>2026-07-07T18:03:54.000Z</time>
      </trkpt>
      <trkpt lat="47.51785" lon="16.01432">
        <ele>1130.216216</ele>
        <time>2026-07-07T18:03:55.000Z</time>
      </trkpt>
      <trkpt lat="47.51786" lon="16.01431">
        <ele>1130.316338</ele>
        <time>2026-07-07T18:03:56.000Z</time>
      </trkpt>
      <trkpt lat="47.51786" lon="16.01431">
        <ele>1130.409926</ele>
        <time>2026-07-07T18:03:57.000Z</time>
      </trkpt>
      <trkpt lat="47.51787" lon="16.0143">
        <ele>1130.530192</ele>
        <time>2026-07-07T18:03:58.000Z</time>
      </trkpt>
      <trkpt lat="47.51787" lon="16.01429">
        <ele>1130.62378</ele>
        <time>2026-07-07T18:03:59.000Z</time>
      </trkpt>
      <trkpt lat="47.51788" lon="16.01428">
        <ele>1130.717368</ele>
        <time>2026-07-07T18:04:00.000Z</time>
      </trkpt>
      <trkpt lat="47.51788" lon="16.01428">
        <ele>1130.81749</ele>
        <time>2026-07-07T18:04:01.000Z</time>
      </trkpt>
      <trkpt lat="47.51789" lon="16.01427">
        <ele>1130.911078</ele>
        <time>2026-07-07T18:04:02.000Z</time>
      </trkpt>
      <trkpt lat="47.51789" lon="16.01426">
        <ele>1131.025366</ele>
        <time>2026-07-07T18:04:03.000Z</time>
      </trkpt>
      <trkpt lat="47.5179" lon="16.01425">
        <ele>1131.125875</ele>
        <time>2026-07-07T18:04:04.000Z</time>
      </trkpt>
      <trkpt lat="47.5179" lon="16.01424">
        <ele>1131.225997</ele>
        <time>2026-07-07T18:04:05.000Z</time>
      </trkpt>
      <trkpt lat="47.51791" lon="16.01423">
        <ele>1131.340285</ele>
        <time>2026-07-07T18:04:06.000Z</time>
      </trkpt>
      <trkpt lat="47.51791" lon="16.01422">
        <ele>1131.440406</ele>
        <time>2026-07-07T18:04:07.000Z</time>
      </trkpt>
      <trkpt lat="47.51791" lon="16.01421">
        <ele>1131.540915</ele>
        <time>2026-07-07T18:04:08.000Z</time>
      </trkpt>
      <trkpt lat="47.51792" lon="16.0142">
        <ele>1131.639879</ele>
        <time>2026-07-07T18:04:09.000Z</time>
      </trkpt>
      <trkpt lat="47.51792" lon="16.01419">
        <ele>1131.748846</ele>
        <time>2026-07-07T18:04:10.000Z</time>
      </trkpt>
      <trkpt lat="47.51792" lon="16.01418">
        <ele>1131.849355</ele>
        <time>2026-07-07T18:04:11.000Z</time>
      </trkpt>
      <trkpt lat="47.51793" lon="16.01417">
        <ele>1131.994824</ele>
        <time>2026-07-07T18:04:12.000Z</time>
      </trkpt>
      <trkpt lat="47.51793" lon="16.01415">
        <ele>1132.148474</ele>
        <time>2026-07-07T18:04:13.000Z</time>
      </trkpt>
      <trkpt lat="47.51794" lon="16.01414">
        <ele>1132.285891</ele>
        <time>2026-07-07T18:04:14.000Z</time>
      </trkpt>
      <trkpt lat="47.51794" lon="16.01413">
        <ele>1132.41711</ele>
        <time>2026-07-07T18:04:15.000Z</time>
      </trkpt>
      <trkpt lat="47.51795" lon="16.01412">
        <ele>1132.546625</ele>
        <time>2026-07-07T18:04:16.000Z</time>
      </trkpt>
      <trkpt lat="47.51795" lon="16.0141">
        <ele>1132.684042</ele>
        <time>2026-07-07T18:04:17.000Z</time>
      </trkpt>
      <trkpt lat="47.51796" lon="16.01409">
        <ele>1132.818955</ele>
        <time>2026-07-07T18:04:18.000Z</time>
      </trkpt>
      <trkpt lat="47.51796" lon="16.01408">
        <ele>1132.945144</ele>
        <time>2026-07-07T18:04:19.000Z</time>
      </trkpt>
      <trkpt lat="47.51796" lon="16.01406">
        <ele>1133.068064</ele>
        <time>2026-07-07T18:04:20.000Z</time>
      </trkpt>
      <trkpt lat="47.51797" lon="16.01405">
        <ele>1133.177031</ele>
        <time>2026-07-07T18:04:21.000Z</time>
      </trkpt>
      <trkpt lat="47.51797" lon="16.01404">
        <ele>1133.306545</ele>
        <time>2026-07-07T18:04:22.000Z</time>
      </trkpt>
      <trkpt lat="47.51797" lon="16.01403">
        <ele>1133.42408</ele>
        <time>2026-07-07T18:04:23.000Z</time>
      </trkpt>
      <trkpt lat="47.51798" lon="16.01402">
        <ele>1133.538368</ele>
        <time>2026-07-07T18:04:24.000Z</time>
      </trkpt>
      <trkpt lat="47.51798" lon="16.01401">
        <ele>1133.645124</ele>
        <time>2026-07-07T18:04:25.000Z</time>
      </trkpt>
      <trkpt lat="47.51799" lon="16.014">
        <ele>1133.745633</ele>
        <time>2026-07-07T18:04:26.000Z</time>
      </trkpt>
      <trkpt lat="47.51799" lon="16.01399">
        <ele>1133.8546</ele>
        <time>2026-07-07T18:04:27.000Z</time>
      </trkpt>
      <trkpt lat="47.51799" lon="16.01398">
        <ele>1133.961356</ele>
        <time>2026-07-07T18:04:28.000Z</time>
      </trkpt>
      <trkpt lat="47.518" lon="16.01397">
        <ele>1134.061864</ele>
        <time>2026-07-07T18:04:29.000Z</time>
      </trkpt>
      <trkpt lat="47.518" lon="16.01396">
        <ele>1134.154054</ele>
        <time>2026-07-07T18:04:30.000Z</time>
      </trkpt>
      <trkpt lat="47.518" lon="16.01395">
        <ele>1134.26081</ele>
        <time>2026-07-07T18:04:31.000Z</time>
      </trkpt>
      <trkpt lat="47.51801" lon="16.01394">
        <ele>1134.344861</ele>
        <time>2026-07-07T18:04:32.000Z</time>
      </trkpt>
      <trkpt lat="47.51801" lon="16.01393">
        <ele>1134.428913</ele>
        <time>2026-07-07T18:04:33.000Z</time>
      </trkpt>
      <trkpt lat="47.51801" lon="16.01392">
        <ele>1134.515941</ele>
        <time>2026-07-07T18:04:34.000Z</time>
      </trkpt>
      <trkpt lat="47.51801" lon="16.01392">
        <ele>1134.594298</ele>
        <time>2026-07-07T18:04:35.000Z</time>
      </trkpt>
      <trkpt lat="47.51802" lon="16.01391">
        <ele>1134.678349</ele>
        <time>2026-07-07T18:04:36.000Z</time>
      </trkpt>
      <trkpt lat="47.51802" lon="16.0139">
        <ele>1134.771937</ele>
        <time>2026-07-07T18:04:37.000Z</time>
      </trkpt>
      <trkpt lat="47.51802" lon="16.01389">
        <ele>1134.855988</ele>
        <time>2026-07-07T18:04:38.000Z</time>
      </trkpt>
      <trkpt lat="47.51803" lon="16.01388">
        <ele>1134.943017</ele>
        <time>2026-07-07T18:04:39.000Z</time>
      </trkpt>
      <trkpt lat="47.51803" lon="16.01388">
        <ele>1135.025077</ele>
        <time>2026-07-07T18:04:40.000Z</time>
      </trkpt>
      <trkpt lat="47.51803" lon="16.01388">
        <ele>1135.063797</ele>
        <time>2026-07-07T18:04:41.000Z</time>
      </trkpt>
      <trkpt lat="47.51803" lon="16.01387">
        <ele>1135.086655</ele>
        <time>2026-07-07T18:04:42.000Z</time>
      </trkpt>
      <trkpt lat="47.5181" lon="16.01376">
        <ele>1136.427261</ele>
        <time>2026-07-07T18:05:25.000Z</time>
      </trkpt>
      <trkpt lat="47.5181" lon="16.01376">
        <ele>1136.488694</ele>
        <time>2026-07-07T18:05:26.000Z</time>
      </trkpt>
      <trkpt lat="47.5181" lon="16.01375">
        <ele>1136.543601</ele>
        <time>2026-07-07T18:05:27.000Z</time>
      </trkpt>
      <trkpt lat="47.51811" lon="16.01375">
        <ele>1136.582322</ele>
        <time>2026-07-07T18:05:28.000Z</time>
      </trkpt>
      <trkpt lat="47.51811" lon="16.01375">
        <ele>1136.643755</ele>
        <time>2026-07-07T18:05:29.000Z</time>
      </trkpt>
      <trkpt lat="47.51811" lon="16.01374">
        <ele>1136.758043</ele>
        <time>2026-07-07T18:05:30.000Z</time>
      </trkpt>
      <trkpt lat="47.51812" lon="16.01373">
        <ele>1136.840103</ele>
        <time>2026-07-07T18:05:31.000Z</time>
      </trkpt>
      <trkpt lat="47.51812" lon="16.01373">
        <ele>1136.922163</ele>
        <time>2026-07-07T18:05:32.000Z</time>
      </trkpt>
      <trkpt lat="47.51813" lon="16.01372">
        <ele>1136.993359</ele>
        <time>2026-07-07T18:05:33.000Z</time>
      </trkpt>
      <trkpt lat="47.51813" lon="16.01371">
        <ele>1137.069511</ele>
        <time>2026-07-07T18:05:34.000Z</time>
      </trkpt>
      <trkpt lat="47.51813" lon="16.01371">
        <ele>1137.122889</ele>
        <time>2026-07-07T18:05:35.000Z</time>
      </trkpt>
      <trkpt lat="47.51813" lon="16.0137">
        <ele>1137.215744</ele>
        <time>2026-07-07T18:05:36.000Z</time>
      </trkpt>
      <trkpt lat="47.51814" lon="16.01369">
        <ele>1137.286941</ele>
        <time>2026-07-07T18:05:37.000Z</time>
      </trkpt>
      <trkpt lat="47.51814" lon="16.01369">
        <ele>1137.300541</ele>
        <time>2026-07-07T18:05:38.000Z</time>
      </trkpt>
      <trkpt lat="47.51814" lon="16.01369">
        <ele>1137.300541</ele>
        <time>2026-07-07T18:05:39.000Z</time>
      </trkpt>
      <trkpt lat="47.51816" lon="16.01367">
        <ele>1137.595852</ele>
        <time>2026-07-07T18:06:03.000Z</time>
      </trkpt>
      <trkpt lat="47.51816" lon="16.01367">
        <ele>1137.657285</ele>
        <time>2026-07-07T18:06:04.000Z</time>
      </trkpt>
      <trkpt lat="47.51816" lon="16.01366">
        <ele>1137.710663</ele>
        <time>2026-07-07T18:06:05.000Z</time>
      </trkpt>
      <trkpt lat="47.51817" lon="16.01366">
        <ele>1137.792723</ele>
        <time>2026-07-07T18:06:06.000Z</time>
      </trkpt>
      <trkpt lat="47.51817" lon="16.01365">
        <ele>1137.854157</ele>
        <time>2026-07-07T18:06:07.000Z</time>
      </trkpt>
      <trkpt lat="47.51817" lon="16.01365">
        <ele>1137.941689</ele>
        <time>2026-07-07T18:06:08.000Z</time>
      </trkpt>
      <trkpt lat="47.51818" lon="16.01364">
        <ele>1138.025914</ele>
        <time>2026-07-07T18:06:09.000Z</time>
      </trkpt>
      <trkpt lat="47.51818" lon="16.01363">
        <ele>1138.119502</ele>
        <time>2026-07-07T18:06:10.000Z</time>
      </trkpt>
      <trkpt lat="47.51819" lon="16.01363">
        <ele>1138.207034</ele>
        <time>2026-07-07T18:06:11.000Z</time>
      </trkpt>
      <trkpt lat="47.51819" lon="16.01362">
        <ele>1138.283186</ele>
        <time>2026-07-07T18:06:12.000Z</time>
      </trkpt>
      <trkpt lat="47.5182" lon="16.01361">
        <ele>1138.376774</ele>
        <time>2026-07-07T18:06:13.000Z</time>
      </trkpt>
      <trkpt lat="47.5182" lon="16.01361">
        <ele>1138.445346</ele>
        <time>2026-07-07T18:06:14.000Z</time>
      </trkpt>
      <trkpt lat="47.5182" lon="16.0136">
        <ele>1138.491061</ele>
        <time>2026-07-07T18:06:15.000Z</time>
      </trkpt>
      <trkpt lat="47.5182" lon="16.0136">
        <ele>1138.518617</ele>
        <time>2026-07-07T18:06:16.000Z</time>
      </trkpt>
      <trkpt lat="47.51824" lon="16.01353">
        <ele>1139.296655</ele>
        <time>2026-07-07T18:06:33.000Z</time>
      </trkpt>
      <trkpt lat="47.51824" lon="16.01353">
        <ele>1139.358089</ele>
        <time>2026-07-07T18:06:34.000Z</time>
      </trkpt>
      <trkpt lat="47.51824" lon="16.01352">
        <ele>1139.440149</ele>
        <time>2026-07-07T18:06:35.000Z</time>
      </trkpt>
      <trkpt lat="47.51825" lon="16.01352">
        <ele>1139.517589</ele>
        <time>2026-07-07T18:06:36.000Z</time>
      </trkpt>
      <trkpt lat="47.51825" lon="16.01351">
        <ele>1139.579023</ele>
        <time>2026-07-07T18:06:37.000Z</time>
      </trkpt>
      <trkpt lat="47.51825" lon="16.0135">
        <ele>1139.671212</ele>
        <time>2026-07-07T18:06:38.000Z</time>
      </trkpt>
      <trkpt lat="47.51826" lon="16.0135">
        <ele>1139.732672</ele>
        <time>2026-07-07T18:06:39.000Z</time>
      </trkpt>
      <trkpt lat="47.51826" lon="16.01349">
        <ele>1139.824861</ele>
        <time>2026-07-07T18:06:40.000Z</time>
      </trkpt>
      <trkpt lat="47.51826" lon="16.01348">
        <ele>1139.916291</ele>
        <time>2026-07-07T18:06:41.000Z</time>
      </trkpt>
      <trkpt lat="47.51827" lon="16.01347">
        <ele>1140.000342</ele>
        <time>2026-07-07T18:06:42.000Z</time>
      </trkpt>
      <trkpt lat="47.51827" lon="16.01346">
        <ele>1140.110566</ele>
        <time>2026-07-07T18:06:43.000Z</time>
      </trkpt>
      <trkpt lat="47.51827" lon="16.01345">
        <ele>1140.206363</ele>
        <time>2026-07-07T18:06:44.000Z</time>
      </trkpt>
      <trkpt lat="47.51827" lon="16.01344">
        <ele>1140.317423</ele>
        <time>2026-07-07T18:06:45.000Z</time>
      </trkpt>
      <trkpt lat="47.51827" lon="16.01343">
        <ele>1140.422059</ele>
        <time>2026-07-07T18:06:46.000Z</time>
      </trkpt>
      <trkpt lat="47.51827" lon="16.01341">
        <ele>1140.5535</ele>
        <time>2026-07-07T18:06:47.000Z</time>
      </trkpt>
      <trkpt lat="47.51827" lon="16.0134">
        <ele>1140.69195</ele>
        <time>2026-07-07T18:06:48.000Z</time>
      </trkpt>
      <trkpt lat="47.51828" lon="16.01339">
        <ele>1140.814419</ele>
        <time>2026-07-07T18:06:49.000Z</time>
      </trkpt>
      <trkpt lat="47.51828" lon="16.01337">
        <ele>1140.952199</ele>
        <time>2026-07-07T18:06:50.000Z</time>
      </trkpt>
      <trkpt lat="47.51828" lon="16.01336">
        <ele>1141.089979</ele>
        <time>2026-07-07T18:06:51.000Z</time>
      </trkpt>
      <trkpt lat="47.51828" lon="16.01334">
        <ele>1141.212448</ele>
        <time>2026-07-07T18:06:52.000Z</time>
      </trkpt>
      <trkpt lat="47.51828" lon="16.01333">
        <ele>1141.350228</ele>
        <time>2026-07-07T18:06:53.000Z</time>
      </trkpt>
      <trkpt lat="47.51828" lon="16.01331">
        <ele>1141.488009</ele>
        <time>2026-07-07T18:06:54.000Z</time>
      </trkpt>
      <trkpt lat="47.51828" lon="16.0133">
        <ele>1141.617321</ele>
        <time>2026-07-07T18:06:55.000Z</time>
      </trkpt>
      <trkpt lat="47.51828" lon="16.01329">
        <ele>1141.748539</ele>
        <time>2026-07-07T18:06:56.000Z</time>
      </trkpt>
      <trkpt lat="47.51828" lon="16.01328">
        <ele>1141.841394</ele>
        <time>2026-07-07T18:06:57.000Z</time>
      </trkpt>
      <trkpt lat="47.51829" lon="16.01327">
        <ele>1141.937191</ele>
        <time>2026-07-07T18:06:58.000Z</time>
      </trkpt>
      <trkpt lat="47.51829" lon="16.01326">
        <ele>1142.029045</ele>
        <time>2026-07-07T18:06:59.000Z</time>
      </trkpt>
      <trkpt lat="47.51829" lon="16.01324">
        <ele>1142.146579</ele>
        <time>2026-07-07T18:07:00.000Z</time>
      </trkpt>
      <trkpt lat="47.51829" lon="16.01323">
        <ele>1142.265988</ele>
        <time>2026-07-07T18:07:01.000Z</time>
      </trkpt>
      <trkpt lat="47.51829" lon="16.01322">
        <ele>1142.376212</ele>
        <time>2026-07-07T18:07:02.000Z</time>
      </trkpt>
      <trkpt lat="47.51829" lon="16.01321">
        <ele>1142.490967</ele>
        <time>2026-07-07T18:07:03.000Z</time>
      </trkpt>
      <trkpt lat="47.51829" lon="16.0132">
        <ele>1142.583822</ele>
        <time>2026-07-07T18:07:04.000Z</time>
      </trkpt>
      <trkpt lat="47.5183" lon="16.01319">
        <ele>1142.679618</ele>
        <time>2026-07-07T18:07:05.000Z</time>
      </trkpt>
      <trkpt lat="47.5183" lon="16.01318">
        <ele>1142.793149</ele>
        <time>2026-07-07T18:07:06.000Z</time>
      </trkpt>
      <trkpt lat="47.5183" lon="16.01316">
        <ele>1142.904209</ele>
        <time>2026-07-07T18:07:07.000Z</time>
      </trkpt>
      <trkpt lat="47.5183" lon="16.01315">
        <ele>1143.035428</ele>
        <time>2026-07-07T18:07:08.000Z</time>
      </trkpt>
      <trkpt lat="47.5183" lon="16.01314">
        <ele>1143.110159</ele>
        <time>2026-07-07T18:07:09.000Z</time>
      </trkpt>
      <trkpt lat="47.51831" lon="16.01313">
        <ele>1143.216915</ele>
        <time>2026-07-07T18:07:10.000Z</time>
      </trkpt>
      <trkpt lat="47.51831" lon="16.01312">
        <ele>1143.334448</ele>
        <time>2026-07-07T18:07:11.000Z</time>
      </trkpt>
      <trkpt lat="47.51831" lon="16.01311">
        <ele>1143.412804</ele>
        <time>2026-07-07T18:07:12.000Z</time>
      </trkpt>
      <trkpt lat="47.51832" lon="16.0131">
        <ele>1143.504994</ele>
        <time>2026-07-07T18:07:13.000Z</time>
      </trkpt>
      <trkpt lat="47.51832" lon="16.01309">
        <ele>1143.605502</ele>
        <time>2026-07-07T18:07:14.000Z</time>
      </trkpt>
      <trkpt lat="47.51832" lon="16.01309">
        <ele>1143.696932</ele>
        <time>2026-07-07T18:07:15.000Z</time>
      </trkpt>
      <trkpt lat="47.51832" lon="16.01308">
        <ele>1143.771662</ele>
        <time>2026-07-07T18:07:16.000Z</time>
      </trkpt>
      <trkpt lat="47.51833" lon="16.01307">
        <ele>1143.870626</ele>
        <time>2026-07-07T18:07:17.000Z</time>
      </trkpt>
      <trkpt lat="47.51833" lon="16.01306">
        <ele>1143.939198</ele>
        <time>2026-07-07T18:07:18.000Z</time>
      </trkpt>
      <trkpt lat="47.51833" lon="16.01306">
        <ele>1144.000632</ele>
        <time>2026-07-07T18:07:19.000Z</time>
      </trkpt>
      <trkpt lat="47.51834" lon="16.01305">
        <ele>1144.084857</ele>
        <time>2026-07-07T18:07:20.000Z</time>
      </trkpt>
      <trkpt lat="47.51834" lon="16.01305">
        <ele>1144.14629</ele>
        <time>2026-07-07T18:07:21.000Z</time>
      </trkpt>
      <trkpt lat="47.51834" lon="16.01304">
        <ele>1144.192217</ele>
        <time>2026-07-07T18:07:22.000Z</time>
      </trkpt>
      <trkpt lat="47.51835" lon="16.01304">
        <ele>1144.274277</ele>
        <time>2026-07-07T18:07:23.000Z</time>
      </trkpt>
      <trkpt lat="47.51835" lon="16.01304">
        <ele>1144.274277</ele>
        <time>2026-07-07T18:07:24.000Z</time>
      </trkpt>
      <trkpt lat="47.51834" lon="16.01303">
        <ele>1144.312997</ele>
        <time>2026-07-07T18:07:25.000Z</time>
      </trkpt>
      <trkpt lat="47.51837" lon="16.01299">
        <ele>1144.786836</ele>
        <time>2026-07-07T18:07:33.000Z</time>
      </trkpt>
      <trkpt lat="47.51837" lon="16.01299">
        <ele>1144.81966</ele>
        <time>2026-07-07T18:07:34.000Z</time>
      </trkpt>
      <trkpt lat="47.51837" lon="16.01299">
        <ele>1144.881094</ele>
        <time>2026-07-07T18:07:35.000Z</time>
      </trkpt>
      <trkpt lat="47.51838" lon="16.01298">
        <ele>1144.963154</ele>
        <time>2026-07-07T18:07:36.000Z</time>
      </trkpt>
      <trkpt lat="47.51838" lon="16.01298">
        <ele>1145.024587</ele>
        <time>2026-07-07T18:07:37.000Z</time>
      </trkpt>
      <trkpt lat="47.51838" lon="16.01297">
        <ele>1145.077965</ele>
        <time>2026-07-07T18:07:38.000Z</time>
      </trkpt>
      <trkpt lat="47.51839" lon="16.01297">
        <ele>1145.177078</ele>
        <time>2026-07-07T18:07:39.000Z</time>
      </trkpt>
      <trkpt lat="47.51839" lon="16.01296">
        <ele>1145.224976</ele>
        <time>2026-07-07T18:07:40.000Z</time>
      </trkpt>
      <trkpt lat="47.51839" lon="16.01296">
        <ele>1145.2578</ele>
        <time>2026-07-07T18:07:42.000Z</time>
      </trkpt>
      <trkpt lat="47.51842" lon="16.01293">
        <ele>1145.716913</ele>
        <time>2026-07-07T18:08:01.000Z</time>
      </trkpt>
      <trkpt lat="47.51842" lon="16.01293">
        <ele>1145.798973</ele>
        <time>2026-07-07T18:08:02.000Z</time>
      </trkpt>
      <trkpt lat="47.51843" lon="16.01292">
        <ele>1145.885104</ele>
        <time>2026-07-07T18:08:03.000Z</time>
      </trkpt>
      <trkpt lat="47.51844" lon="16.01292">
        <ele>1145.982066</ele>
        <time>2026-07-07T18:08:04.000Z</time>
      </trkpt>
      <trkpt lat="47.51844" lon="16.01292">
        <ele>1146.077271</ele>
        <time>2026-07-07T18:08:05.000Z</time>
      </trkpt>
      <trkpt lat="47.51845" lon="16.01292">
        <ele>1146.189513</ele>
        <time>2026-07-07T18:08:06.000Z</time>
      </trkpt>
      <trkpt lat="47.51846" lon="16.01291">
        <ele>1146.295217</ele>
        <time>2026-07-07T18:08:07.000Z</time>
      </trkpt>
      <trkpt lat="47.51846" lon="16.01291">
        <ele>1146.388804</ele>
        <time>2026-07-07T18:08:08.000Z</time>
      </trkpt>
      <trkpt lat="47.51846" lon="16.0129">
        <ele>1146.407175</ele>
        <time>2026-07-07T18:08:09.000Z</time>
      </trkpt>
      <trkpt lat="47.51846" lon="16.01291">
        <ele>1146.439999</ele>
        <time>2026-07-07T18:08:10.000Z</time>
      </trkpt>
      <trkpt lat="47.51846" lon="16.01296">
        <ele>1146.96515</ele>
        <time>2026-07-07T18:08:21.000Z</time>
      </trkpt>
      <trkpt lat="47.51846" lon="16.01298">
        <ele>1147.112743</ele>
        <time>2026-07-07T18:08:22.000Z</time>
      </trkpt>
      <trkpt lat="47.51846" lon="16.01299">
        <ele>1147.222967</ele>
        <time>2026-07-07T18:08:23.000Z</time>
      </trkpt>
      <trkpt lat="47.51846" lon="16.013">
        <ele>1147.318763</ele>
        <time>2026-07-07T18:08:24.000Z</time>
      </trkpt>
      <trkpt lat="47.51846" lon="16.01301">
        <ele>1147.392246</ele>
        <time>2026-07-07T18:08:25.000Z</time>
      </trkpt>
      <trkpt lat="47.51846" lon="16.01302">
        <ele>1147.484099</ele>
        <time>2026-07-07T18:08:26.000Z</time>
      </trkpt>
      <trkpt lat="47.51846" lon="16.01303">
        <ele>1147.566767</ele>
        <time>2026-07-07T18:08:27.000Z</time>
      </trkpt>
      <trkpt lat="47.51846" lon="16.01304">
        <ele>1147.645123</ele>
        <time>2026-07-07T18:08:28.000Z</time>
      </trkpt>
      <trkpt lat="47.51846" lon="16.01304">
        <ele>1147.718605</ele>
        <time>2026-07-07T18:08:29.000Z</time>
      </trkpt>
      <trkpt lat="47.51846" lon="16.01305">
        <ele>1147.825361</ele>
        <time>2026-07-07T18:08:30.000Z</time>
      </trkpt>
      <trkpt lat="47.51846" lon="16.01307">
        <ele>1147.938891</ele>
        <time>2026-07-07T18:08:31.000Z</time>
      </trkpt>
      <trkpt lat="47.51846" lon="16.01308">
        <ele>1148.056425</ele>
        <time>2026-07-07T18:08:32.000Z</time>
      </trkpt>
      <trkpt lat="47.51847" lon="16.01309">
        <ele>1148.161061</ele>
        <time>2026-07-07T18:08:33.000Z</time>
      </trkpt>
      <trkpt lat="47.51847" lon="16.01311">
        <ele>1148.295199</ele>
        <time>2026-07-07T18:08:34.000Z</time>
      </trkpt>
      <trkpt lat="47.51847" lon="16.01312">
        <ele>1148.408879</ele>
        <time>2026-07-07T18:08:35.000Z</time>
      </trkpt>
      <trkpt lat="47.51847" lon="16.01313">
        <ele>1148.517615</ele>
        <time>2026-07-07T18:08:36.000Z</time>
      </trkpt>
      <trkpt lat="47.51847" lon="16.01315">
        <ele>1148.632149</ele>
        <time>2026-07-07T18:08:37.000Z</time>
      </trkpt>
      <trkpt lat="47.51848" lon="16.01316">
        <ele>1148.718711</ele>
        <time>2026-07-07T18:08:38.000Z</time>
      </trkpt>
      <trkpt lat="47.51848" lon="16.01317">
        <ele>1148.815943</ele>
        <time>2026-07-07T18:08:39.000Z</time>
      </trkpt>
      <trkpt lat="47.51848" lon="16.01319">
        <ele>1148.932123</ele>
        <time>2026-07-07T18:08:40.000Z</time>
      </trkpt>
      <trkpt lat="47.51848" lon="16.0132">
        <ele>1149.033437</ele>
        <time>2026-07-07T18:08:41.000Z</time>
      </trkpt>
      <trkpt lat="47.51849" lon="16.01321">
        <ele>1149.130669</ele>
        <time>2026-07-07T18:08:42.000Z</time>
      </trkpt>
      <trkpt lat="47.51849" lon="16.01322">
        <ele>1149.227901</ele>
        <time>2026-07-07T18:08:43.000Z</time>
      </trkpt>
      <trkpt lat="47.51849" lon="16.01323">
        <ele>1149.314462</ele>
        <time>2026-07-07T18:08:44.000Z</time>
      </trkpt>
      <trkpt lat="47.51849" lon="16.01325">
        <ele>1149.426071</ele>
        <time>2026-07-07T18:08:45.000Z</time>
      </trkpt>
      <trkpt lat="47.5185" lon="16.01326">
        <ele>1149.512633</ele>
        <time>2026-07-07T18:08:46.000Z</time>
      </trkpt>
      <trkpt lat="47.5185" lon="16.01327">
        <ele>1149.626614</ele>
        <time>2026-07-07T18:08:47.000Z</time>
      </trkpt>
      <trkpt lat="47.5185" lon="16.01329">
        <ele>1149.742794</ele>
        <time>2026-07-07T18:08:48.000Z</time>
      </trkpt>
      <trkpt lat="47.5185" lon="16.0133">
        <ele>1149.812102</ele>
        <time>2026-07-07T18:08:49.000Z</time>
      </trkpt>
      <trkpt lat="47.5185" lon="16.01331">
        <ele>1149.895688</ele>
        <time>2026-07-07T18:08:50.000Z</time>
      </trkpt>
      <trkpt lat="47.5185" lon="16.01332">
        <ele>1149.997374</ele>
        <time>2026-07-07T18:08:51.000Z</time>
      </trkpt>
      <trkpt lat="47.5185" lon="16.01333">
        <ele>1150.08925</ele>
        <time>2026-07-07T18:08:52.000Z</time>
      </trkpt>
      <trkpt lat="47.51851" lon="16.01335">
        <ele>1150.197803</ele>
        <time>2026-07-07T18:08:53.000Z</time>
      </trkpt>
      <trkpt lat="47.51851" lon="16.01336">
        <ele>1150.297225</ele>
        <time>2026-07-07T18:08:54.000Z</time>
      </trkpt>
      <trkpt lat="47.51851" lon="16.01337">
        <ele>1150.391145</ele>
        <time>2026-07-07T18:08:55.000Z</time>
      </trkpt>
      <trkpt lat="47.51851" lon="16.01338">
        <ele>1150.488376</ele>
        <time>2026-07-07T18:08:56.000Z</time>
      </trkpt>
      <trkpt lat="47.51852" lon="16.01339">
        <ele>1150.571203</ele>
        <time>2026-07-07T18:08:57.000Z</time>
      </trkpt>
      <trkpt lat="47.51852" lon="16.0134">
        <ele>1150.659518</ele>
        <time>2026-07-07T18:08:58.000Z</time>
      </trkpt>
      <trkpt lat="47.51852" lon="16.01341">
        <ele>1150.736334</ele>
        <time>2026-07-07T18:08:59.000Z</time>
      </trkpt>
      <trkpt lat="47.51853" lon="16.01342">
        <ele>1150.843476</ele>
        <time>2026-07-07T18:09:00.000Z</time>
      </trkpt>
      <trkpt lat="47.51853" lon="16.01343">
        <ele>1150.911361</ele>
        <time>2026-07-07T18:09:01.000Z</time>
      </trkpt>
      <trkpt lat="47.51854" lon="16.01343">
        <ele>1151.002366</ele>
        <time>2026-07-07T18:09:02.000Z</time>
      </trkpt>
      <trkpt lat="47.51855" lon="16.01344">
        <ele>1151.089811</ele>
        <time>2026-07-07T18:09:03.000Z</time>
      </trkpt>
      <trkpt lat="47.51856" lon="16.01344">
        <ele>1151.184817</ele>
        <time>2026-07-07T18:09:04.000Z</time>
      </trkpt>
      <trkpt lat="47.51856" lon="16.01345">
        <ele>1151.27767</ele>
        <time>2026-07-07T18:09:05.000Z</time>
      </trkpt>
      <trkpt lat="47.51857" lon="16.01344">
        <ele>1151.365116</ele>
        <time>2026-07-07T18:09:06.000Z</time>
      </trkpt>
      <trkpt lat="47.51857" lon="16.01343">
        <ele>1151.428113</ele>
        <time>2026-07-07T18:09:07.000Z</time>
      </trkpt>
      <trkpt lat="47.51858" lon="16.01343">
        <ele>1151.478956</ele>
        <time>2026-07-07T18:09:08.000Z</time>
      </trkpt>
      <trkpt lat="47.51858" lon="16.01343">
        <ele>1151.50611</ele>
        <time>2026-07-07T18:09:09.000Z</time>
      </trkpt>
      <trkpt lat="47.51858" lon="16.01343">
        <ele>1151.525019</ele>
        <time>2026-07-07T18:09:10.000Z</time>
      </trkpt>
      <trkpt lat="47.51858" lon="16.01339">
        <ele>1151.826661</ele>
        <time>2026-07-07T18:09:44.000Z</time>
      </trkpt>
      <trkpt lat="47.51859" lon="16.01338">
        <ele>1151.921593</ele>
        <time>2026-07-07T18:09:45.000Z</time>
      </trkpt>
      <trkpt lat="47.51859" lon="16.01337">
        <ele>1152.013469</ele>
        <time>2026-07-07T18:09:46.000Z</time>
      </trkpt>
      <trkpt lat="47.51859" lon="16.01336">
        <ele>1152.092718</ele>
        <time>2026-07-07T18:09:47.000Z</time>
      </trkpt>
      <trkpt lat="47.51859" lon="16.01334">
        <ele>1152.189949</ele>
        <time>2026-07-07T18:09:48.000Z</time>
      </trkpt>
      <trkpt lat="47.5186" lon="16.01333">
        <ele>1152.278264</ele>
        <time>2026-07-07T18:09:49.000Z</time>
      </trkpt>
      <trkpt lat="47.5186" lon="16.01332">
        <ele>1152.392798</ele>
        <time>2026-07-07T18:09:50.000Z</time>
      </trkpt>
      <trkpt lat="47.5186" lon="16.01331">
        <ele>1152.494112</ele>
        <time>2026-07-07T18:09:51.000Z</time>
      </trkpt>
      <trkpt lat="47.5186" lon="16.01329">
        <ele>1152.612986</ele>
        <time>2026-07-07T18:09:52.000Z</time>
      </trkpt>
      <trkpt lat="47.51861" lon="16.01328">
        <ele>1152.714672</ele>
        <time>2026-07-07T18:09:53.000Z</time>
      </trkpt>
      <trkpt lat="47.51861" lon="16.01327">
        <ele>1152.797819</ele>
        <time>2026-07-07T18:09:54.000Z</time>
      </trkpt>
      <trkpt lat="47.51861" lon="16.01326">
        <ele>1152.88438</ele>
        <time>2026-07-07T18:09:55.000Z</time>
      </trkpt>
      <trkpt lat="47.51862" lon="16.01325">
        <ele>1152.981612</ele>
        <time>2026-07-07T18:09:56.000Z</time>
      </trkpt>
      <trkpt lat="47.51862" lon="16.01323">
        <ele>1153.078843</ele>
        <time>2026-07-07T18:09:57.000Z</time>
      </trkpt>
      <trkpt lat="47.51862" lon="16.01322">
        <ele>1153.173775</ele>
        <time>2026-07-07T18:09:58.000Z</time>
      </trkpt>
      <trkpt lat="47.51863" lon="16.01321">
        <ele>1153.280917</ele>
        <time>2026-07-07T18:09:59.000Z</time>
      </trkpt>
      <trkpt lat="47.51863" lon="16.0132">
        <ele>1153.378149</ele>
        <time>2026-07-07T18:10:00.000Z</time>
      </trkpt>
      <trkpt lat="47.51863" lon="16.01319">
        <ele>1153.46471</ele>
        <time>2026-07-07T18:10:01.000Z</time>
      </trkpt>
      <trkpt lat="47.51864" lon="16.01317">
        <ele>1153.576319</ele>
        <time>2026-07-07T18:10:02.000Z</time>
      </trkpt>
      <trkpt lat="47.51864" lon="16.01316">
        <ele>1153.689998</ele>
        <time>2026-07-07T18:10:03.000Z</time>
      </trkpt>
      <trkpt lat="47.51864" lon="16.01315">
        <ele>1153.794389</ele>
        <time>2026-07-07T18:10:04.000Z</time>
      </trkpt>
      <trkpt lat="47.51865" lon="16.01313">
        <ele>1153.921496</ele>
        <time>2026-07-07T18:10:05.000Z</time>
      </trkpt>
      <trkpt lat="47.51865" lon="16.01312">
        <ele>1154.028639</ele>
        <time>2026-07-07T18:10:06.000Z</time>
      </trkpt>
      <trkpt lat="47.51866" lon="16.01311">
        <ele>1154.137191</ele>
        <time>2026-07-07T18:10:07.000Z</time>
      </trkpt>
      <trkpt lat="47.51866" lon="16.0131">
        <ele>1154.234422</ele>
        <time>2026-07-07T18:10:08.000Z</time>
      </trkpt>
      <trkpt lat="47.51866" lon="16.01308">
        <ele>1154.331653</ele>
        <time>2026-07-07T18:10:09.000Z</time>
      </trkpt>
      <trkpt lat="47.51867" lon="16.01307">
        <ele>1154.419968</ele>
        <time>2026-07-07T18:10:10.000Z</time>
      </trkpt>
      <trkpt lat="47.51867" lon="16.01306">
        <ele>1154.510112</ele>
        <time>2026-07-07T18:10:11.000Z</time>
      </trkpt>
      <trkpt lat="47.51867" lon="16.01305">
        <ele>1154.618848</ele>
        <time>2026-07-07T18:10:12.000Z</time>
      </trkpt>
      <trkpt lat="47.51868" lon="16.01304">
        <ele>1154.708991</ele>
        <time>2026-07-07T18:10:13.000Z</time>
      </trkpt>
      <trkpt lat="47.51868" lon="16.01302">
        <ele>1154.8206</ele>
        <time>2026-07-07T18:10:14.000Z</time>
      </trkpt>
      <trkpt lat="47.51868" lon="16.01301">
        <ele>1154.929152</ele>
        <time>2026-07-07T18:10:15.000Z</time>
      </trkpt>
      <trkpt lat="47.51869" lon="16.013">
        <ele>1155.015098</ele>
        <time>2026-07-07T18:10:16.000Z</time>
      </trkpt>
      <trkpt lat="47.51869" lon="16.013">
        <ele>1155.097924</ele>
        <time>2026-07-07T18:10:17.000Z</time>
      </trkpt>
      <trkpt lat="47.5187" lon="16.01299">
        <ele>1155.197416</ele>
        <time>2026-07-07T18:10:18.000Z</time>
      </trkpt>
      <trkpt lat="47.51871" lon="16.01298">
        <ele>1155.28597</ele>
        <time>2026-07-07T18:10:19.000Z</time>
      </trkpt>
      <trkpt lat="47.51871" lon="16.01297">
        <ele>1155.39541</ele>
        <time>2026-07-07T18:10:20.000Z</time>
      </trkpt>
      <trkpt lat="47.51872" lon="16.01296">
        <ele>1155.496164</ele>
        <time>2026-07-07T18:10:21.000Z</time>
      </trkpt>
      <trkpt lat="47.51872" lon="16.01295">
        <ele>1155.593396</ele>
        <time>2026-07-07T18:10:22.000Z</time>
      </trkpt>
      <trkpt lat="47.51873" lon="16.01293">
        <ele>1155.700538</ele>
        <time>2026-07-07T18:10:23.000Z</time>
      </trkpt>
      <trkpt lat="47.51873" lon="16.01292">
        <ele>1155.790681</ele>
        <time>2026-07-07T18:10:24.000Z</time>
      </trkpt>
      <trkpt lat="47.51873" lon="16.01291">
        <ele>1155.862677</ele>
        <time>2026-07-07T18:10:25.000Z</time>
      </trkpt>
      <trkpt lat="47.51873" lon="16.01291">
        <ele>1155.870275</ele>
        <time>2026-07-07T18:10:26.000Z</time>
      </trkpt>
      <trkpt lat="47.51873" lon="16.01291">
        <ele>1155.885473</ele>
        <time>2026-07-07T18:10:27.000Z</time>
      </trkpt>
      <trkpt lat="47.51875" lon="16.01284">
        <ele>1156.477048</ele>
        <time>2026-07-07T18:10:44.000Z</time>
      </trkpt>
      <trkpt lat="47.51875" lon="16.01283">
        <ele>1156.560195</ele>
        <time>2026-07-07T18:10:45.000Z</time>
      </trkpt>
      <trkpt lat="47.51876" lon="16.01282">
        <ele>1156.648509</ele>
        <time>2026-07-07T18:10:46.000Z</time>
      </trkpt>
      <trkpt lat="47.51876" lon="16.01281">
        <ele>1156.731336</ele>
        <time>2026-07-07T18:10:47.000Z</time>
      </trkpt>
      <trkpt lat="47.51876" lon="16.01281">
        <ele>1156.77096</ele>
        <time>2026-07-07T18:10:48.000Z</time>
      </trkpt>
      <trkpt lat="47.51877" lon="16.0128">
        <ele>1156.853787</ele>
        <time>2026-07-07T18:10:49.000Z</time>
      </trkpt>
      <trkpt lat="47.51877" lon="16.01279">
        <ele>1156.955473</ele>
        <time>2026-07-07T18:10:50.000Z</time>
      </trkpt>
      <trkpt lat="47.51877" lon="16.01278">
        <ele>1157.017295</ele>
        <time>2026-07-07T18:10:51.000Z</time>
      </trkpt>
      <trkpt lat="47.51878" lon="16.01277">
        <ele>1157.118981</ele>
        <time>2026-07-07T18:10:52.000Z</time>
      </trkpt>
      <trkpt lat="47.51878" lon="16.01276">
        <ele>1157.195796</ele>
        <time>2026-07-07T18:10:53.000Z</time>
      </trkpt>
      <trkpt lat="47.51878" lon="16.01275">
        <ele>1157.284111</ele>
        <time>2026-07-07T18:10:54.000Z</time>
      </trkpt>
      <trkpt lat="47.51879" lon="16.01274">
        <ele>1157.367257</ele>
        <time>2026-07-07T18:10:55.000Z</time>
      </trkpt>
      <trkpt lat="47.51879" lon="16.01272">
        <ele>1157.474399</ele>
        <time>2026-07-07T18:10:56.000Z</time>
      </trkpt>
      <trkpt lat="47.51879" lon="16.01271">
        <ele>1157.553648</ele>
        <time>2026-07-07T18:10:57.000Z</time>
      </trkpt>
      <trkpt lat="47.5188" lon="16.0127">
        <ele>1157.648194</ele>
        <time>2026-07-07T18:10:58.000Z</time>
      </trkpt>
      <trkpt lat="47.5188" lon="16.01269">
        <ele>1157.738337</ele>
        <time>2026-07-07T18:10:59.000Z</time>
      </trkpt>
      <trkpt lat="47.51881" lon="16.01268">
        <ele>1157.858827</ele>
        <time>2026-07-07T18:11:00.000Z</time>
      </trkpt>
      <trkpt lat="47.51881" lon="16.01267">
        <ele>1157.985934</ele>
        <time>2026-07-07T18:11:01.000Z</time>
      </trkpt>
      <trkpt lat="47.51881" lon="16.01265">
        <ele>1158.07781</ele>
        <time>2026-07-07T18:11:02.000Z</time>
      </trkpt>
      <trkpt lat="47.51882" lon="16.01264">
        <ele>1158.191489</ele>
        <time>2026-07-07T18:11:03.000Z</time>
      </trkpt>
      <trkpt lat="47.51882" lon="16.01263">
        <ele>1158.293175</ele>
        <time>2026-07-07T18:11:04.000Z</time>
      </trkpt>
      <trkpt lat="47.51883" lon="16.01262">
        <ele>1158.393929</ele>
        <time>2026-07-07T18:11:05.000Z</time>
      </trkpt>
      <trkpt lat="47.51883" lon="16.01261">
        <ele>1158.488474</ele>
        <time>2026-07-07T18:11:06.000Z</time>
      </trkpt>
      <trkpt lat="47.51883" lon="16.0126">
        <ele>1158.58035</ele>
        <time>2026-07-07T18:11:07.000Z</time>
      </trkpt>
      <trkpt lat="47.51884" lon="16.01258">
        <ele>1158.682036</ele>
        <time>2026-07-07T18:11:08.000Z</time>
      </trkpt>
      <trkpt lat="47.51884" lon="16.01257">
        <ele>1158.776581</ele>
        <time>2026-07-07T18:11:09.000Z</time>
      </trkpt>
      <trkpt lat="47.51885" lon="16.01256">
        <ele>1158.859728</ele>
        <time>2026-07-07T18:11:10.000Z</time>
      </trkpt>
      <trkpt lat="47.51885" lon="16.01255">
        <ele>1158.942874</ele>
        <time>2026-07-07T18:11:11.000Z</time>
      </trkpt>
      <trkpt lat="47.51885" lon="16.01254">
        <ele>1159.056553</ele>
        <time>2026-07-07T18:11:12.000Z</time>
      </trkpt>
      <trkpt lat="47.51886" lon="16.01253">
        <ele>1159.163695</ele>
        <time>2026-07-07T18:11:13.000Z</time>
      </trkpt>
      <trkpt lat="47.51886" lon="16.01252">
        <ele>1159.252009</ele>
        <time>2026-07-07T18:11:14.000Z</time>
      </trkpt>
      <trkpt lat="47.51887" lon="16.01251">
        <ele>1159.365688</ele>
        <time>2026-07-07T18:11:15.000Z</time>
      </trkpt>
      <trkpt lat="47.51887" lon="16.01249">
        <ele>1159.462919</ele>
        <time>2026-07-07T18:11:16.000Z</time>
      </trkpt>
      <trkpt lat="47.51888" lon="16.01248">
        <ele>1159.563673</ele>
        <time>2026-07-07T18:11:17.000Z</time>
      </trkpt>
      <trkpt lat="47.51888" lon="16.01247">
        <ele>1159.660904</ele>
        <time>2026-07-07T18:11:18.000Z</time>
      </trkpt>
      <trkpt lat="47.51888" lon="16.01246">
        <ele>1159.75545</ele>
        <time>2026-07-07T18:11:19.000Z</time>
      </trkpt>
      <trkpt lat="47.51889" lon="16.01245">
        <ele>1159.857135</ele>
        <time>2026-07-07T18:11:20.000Z</time>
      </trkpt>
      <trkpt lat="47.51889" lon="16.01244">
        <ele>1159.947279</ele>
        <time>2026-07-07T18:11:21.000Z</time>
      </trkpt>
      <trkpt lat="47.51889" lon="16.01243">
        <ele>1160.04451</ele>
        <time>2026-07-07T18:11:22.000Z</time>
      </trkpt>
      <trkpt lat="47.5189" lon="16.01241">
        <ele>1160.158189</ele>
        <time>2026-07-07T18:11:23.000Z</time>
      </trkpt>
      <trkpt lat="47.5189" lon="16.0124">
        <ele>1160.273698</ele>
        <time>2026-07-07T18:11:24.000Z</time>
      </trkpt>
      <trkpt lat="47.51891" lon="16.01238">
        <ele>1160.412762</ele>
        <time>2026-07-07T18:11:25.000Z</time>
      </trkpt>
      <trkpt lat="47.51891" lon="16.01237">
        <ele>1160.535305</ele>
        <time>2026-07-07T18:11:26.000Z</time>
      </trkpt>
      <trkpt lat="47.51892" lon="16.01235">
        <ele>1160.66882</ele>
        <time>2026-07-07T18:11:27.000Z</time>
      </trkpt>
      <trkpt lat="47.51892" lon="16.01233">
        <ele>1160.802334</ele>
        <time>2026-07-07T18:11:28.000Z</time>
      </trkpt>
      <trkpt lat="47.51892" lon="16.01232">
        <ele>1160.903088</ele>
        <time>2026-07-07T18:11:29.000Z</time>
      </trkpt>
      <trkpt lat="47.51893" lon="16.01231">
        <ele>1160.997007</ele>
        <time>2026-07-07T18:11:30.000Z</time>
      </trkpt>
      <trkpt lat="47.51893" lon="16.0123">
        <ele>1161.091553</ele>
        <time>2026-07-07T18:11:31.000Z</time>
      </trkpt>
      <trkpt lat="47.51894" lon="16.01229">
        <ele>1161.205232</ele>
        <time>2026-07-07T18:11:32.000Z</time>
      </trkpt>
      <trkpt lat="47.51894" lon="16.01228">
        <ele>1161.281218</ele>
        <time>2026-07-07T18:11:33.000Z</time>
      </trkpt>
      <trkpt lat="47.51894" lon="16.01226">
        <ele>1161.401558</ele>
        <time>2026-07-07T18:11:34.000Z</time>
      </trkpt>
      <trkpt lat="47.51895" lon="16.01225">
        <ele>1161.515237</ele>
        <time>2026-07-07T18:11:35.000Z</time>
      </trkpt>
      <trkpt lat="47.51895" lon="16.01224">
        <ele>1161.619627</ele>
        <time>2026-07-07T18:11:36.000Z</time>
      </trkpt>
      <trkpt lat="47.51896" lon="16.01222">
        <ele>1161.758172</ele>
        <time>2026-07-07T18:11:37.000Z</time>
      </trkpt>
      <trkpt lat="47.51896" lon="16.01221">
        <ele>1161.869779</ele>
        <time>2026-07-07T18:11:38.000Z</time>
      </trkpt>
      <trkpt lat="47.51896" lon="16.0122">
        <ele>1161.964325</ele>
        <time>2026-07-07T18:11:39.000Z</time>
      </trkpt>
      <trkpt lat="47.51897" lon="16.01219">
        <ele>1162.059256</ele>
        <time>2026-07-07T18:11:40.000Z</time>
      </trkpt>
      <trkpt lat="47.51897" lon="16.01218">
        <ele>1162.153802</ele>
        <time>2026-07-07T18:11:41.000Z</time>
      </trkpt>
      <trkpt lat="47.51898" lon="16.01216">
        <ele>1162.274142</ele>
        <time>2026-07-07T18:11:42.000Z</time>
      </trkpt>
      <trkpt lat="47.51898" lon="16.01215">
        <ele>1162.357288</ele>
        <time>2026-07-07T18:11:43.000Z</time>
      </trkpt>
      <trkpt lat="47.51899" lon="16.01214">
        <ele>1162.458042</ele>
        <time>2026-07-07T18:11:44.000Z</time>
      </trkpt>
      <trkpt lat="47.51899" lon="16.01213">
        <ele>1162.56965</ele>
        <time>2026-07-07T18:11:45.000Z</time>
      </trkpt>
      <trkpt lat="47.51899" lon="16.01212">
        <ele>1162.683328</ele>
        <time>2026-07-07T18:11:46.000Z</time>
      </trkpt>
      <trkpt lat="47.519" lon="16.0121">
        <ele>1162.809666</ele>
        <time>2026-07-07T18:11:47.000Z</time>
      </trkpt>
      <trkpt lat="47.51901" lon="16.01209">
        <ele>1162.930006</ele>
        <time>2026-07-07T18:11:48.000Z</time>
      </trkpt>
      <trkpt lat="47.51901" lon="16.01208">
        <ele>1163.043685</ele>
        <time>2026-07-07T18:11:49.000Z</time>
      </trkpt>
      <trkpt lat="47.51902" lon="16.01206">
        <ele>1163.150826</ele>
        <time>2026-07-07T18:11:50.000Z</time>
      </trkpt>
      <trkpt lat="47.51902" lon="16.01205">
        <ele>1163.264505</ele>
        <time>2026-07-07T18:11:51.000Z</time>
      </trkpt>
      <trkpt lat="47.51903" lon="16.01204">
        <ele>1163.371646</ele>
        <time>2026-07-07T18:11:52.000Z</time>
      </trkpt>
      <trkpt lat="47.51903" lon="16.01203">
        <ele>1163.481086</ele>
        <time>2026-07-07T18:11:53.000Z</time>
      </trkpt>
      <trkpt lat="47.51904" lon="16.01202">
        <ele>1163.564233</ele>
        <time>2026-07-07T18:11:54.000Z</time>
      </trkpt>
      <trkpt lat="47.51904" lon="16.01201">
        <ele>1163.673673</ele>
        <time>2026-07-07T18:11:55.000Z</time>
      </trkpt>
      <trkpt lat="47.51905" lon="16.012">
        <ele>1163.768218</ele>
        <time>2026-07-07T18:11:56.000Z</time>
      </trkpt>
      <trkpt lat="47.51905" lon="16.01199">
        <ele>1163.851044</ele>
        <time>2026-07-07T18:11:57.000Z</time>
      </trkpt>
      <trkpt lat="47.51906" lon="16.01198">
        <ele>1163.948275</ele>
        <time>2026-07-07T18:11:58.000Z</time>
      </trkpt>
      <trkpt lat="47.51906" lon="16.01197">
        <ele>1164.04282</ele>
        <time>2026-07-07T18:11:59.000Z</time>
      </trkpt>
      <trkpt lat="47.51907" lon="16.01196">
        <ele>1164.15226</ele>
        <time>2026-07-07T18:12:00.000Z</time>
      </trkpt>
      <trkpt lat="47.51907" lon="16.01195">
        <ele>1164.235406</ele>
        <time>2026-07-07T18:12:01.000Z</time>
      </trkpt>
      <trkpt lat="47.51908" lon="16.01194">
        <ele>1164.350252</ele>
        <time>2026-07-07T18:12:02.000Z</time>
      </trkpt>
      <trkpt lat="47.51908" lon="16.01192">
        <ele>1164.476245</ele>
        <time>2026-07-07T18:12:03.000Z</time>
      </trkpt>
      <trkpt lat="47.51909" lon="16.01191">
        <ele>1164.570791</ele>
        <time>2026-07-07T18:12:04.000Z</time>
      </trkpt>
      <trkpt lat="47.5191" lon="16.0119">
        <ele>1164.68023</ele>
        <time>2026-07-07T18:12:05.000Z</time>
      </trkpt>
      <trkpt lat="47.5191" lon="16.01189">
        <ele>1164.770374</ele>
        <time>2026-07-07T18:12:06.000Z</time>
      </trkpt>
      <trkpt lat="47.5191" lon="16.01188">
        <ele>1164.877515</ele>
        <time>2026-07-07T18:12:07.000Z</time>
      </trkpt>
      <trkpt lat="47.51911" lon="16.01187">
        <ele>1164.953151</ele>
        <time>2026-07-07T18:12:08.000Z</time>
      </trkpt>
      <trkpt lat="47.51911" lon="16.01186">
        <ele>1165.047697</ele>
        <time>2026-07-07T18:12:09.000Z</time>
      </trkpt>
      <trkpt lat="47.51912" lon="16.01185">
        <ele>1165.14934</ele>
        <time>2026-07-07T18:12:10.000Z</time>
      </trkpt>
      <trkpt lat="47.51913" lon="16.01184">
        <ele>1165.25878</ele>
        <time>2026-07-07T18:12:11.000Z</time>
      </trkpt>
      <trkpt lat="47.51913" lon="16.01183">
        <ele>1165.379269</ele>
        <time>2026-07-07T18:12:12.000Z</time>
      </trkpt>
      <trkpt lat="47.51914" lon="16.01182">
        <ele>1165.473814</ele>
        <time>2026-07-07T18:12:13.000Z</time>
      </trkpt>
      <trkpt lat="47.51914" lon="16.01181">
        <ele>1165.580955</ele>
        <time>2026-07-07T18:12:14.000Z</time>
      </trkpt>
      <trkpt lat="47.51915" lon="16.0118">
        <ele>1165.663782</ele>
        <time>2026-07-07T18:12:15.000Z</time>
      </trkpt>
      <trkpt lat="47.51915" lon="16.01179">
        <ele>1165.765425</ele>
        <time>2026-07-07T18:12:16.000Z</time>
      </trkpt>
      <trkpt lat="47.51916" lon="16.01178">
        <ele>1165.848251</ele>
        <time>2026-07-07T18:12:17.000Z</time>
      </trkpt>
      <trkpt lat="47.51916" lon="16.01177">
        <ele>1165.942796</ele>
        <time>2026-07-07T18:12:18.000Z</time>
      </trkpt>
      <trkpt lat="47.51917" lon="16.01176">
        <ele>1166.047103</ele>
        <time>2026-07-07T18:12:19.000Z</time>
      </trkpt>
      <trkpt lat="47.51918" lon="16.01175">
        <ele>1166.141649</ele>
        <time>2026-07-07T18:12:20.000Z</time>
      </trkpt>
      <trkpt lat="47.51918" lon="16.01174">
        <ele>1166.236194</ele>
        <time>2026-07-07T18:12:21.000Z</time>
      </trkpt>
      <trkpt lat="47.51919" lon="16.01173">
        <ele>1166.330739</ele>
        <time>2026-07-07T18:12:22.000Z</time>
      </trkpt>
      <trkpt lat="47.51919" lon="16.01172">
        <ele>1166.440179</ele>
        <time>2026-07-07T18:12:23.000Z</time>
      </trkpt>
      <trkpt lat="47.5192" lon="16.01171">
        <ele>1166.534724</ele>
        <time>2026-07-07T18:12:24.000Z</time>
      </trkpt>
      <trkpt lat="47.5192" lon="16.0117">
        <ele>1166.636367</ele>
        <time>2026-07-07T18:12:25.000Z</time>
      </trkpt>
      <trkpt lat="47.51921" lon="16.0117">
        <ele>1166.719193</ele>
        <time>2026-07-07T18:12:26.000Z</time>
      </trkpt>
      <trkpt lat="47.51922" lon="16.01169">
        <ele>1166.828633</ele>
        <time>2026-07-07T18:12:27.000Z</time>
      </trkpt>
      <trkpt lat="47.51922" lon="16.01168">
        <ele>1166.923178</ele>
        <time>2026-07-07T18:12:28.000Z</time>
      </trkpt>
      <trkpt lat="47.51923" lon="16.01166">
        <ele>1167.043667</ele>
        <time>2026-07-07T18:12:29.000Z</time>
      </trkpt>
      <trkpt lat="47.51923" lon="16.01165">
        <ele>1167.151109</ele>
        <time>2026-07-07T18:12:30.000Z</time>
      </trkpt>
      <trkpt lat="47.51924" lon="16.01164">
        <ele>1167.271598</ele>
        <time>2026-07-07T18:12:31.000Z</time>
      </trkpt>
      <trkpt lat="47.51925" lon="16.01163">
        <ele>1167.405239</ele>
        <time>2026-07-07T18:12:32.000Z</time>
      </trkpt>
      <trkpt lat="47.51926" lon="16.01161">
        <ele>1167.537602</ele>
        <time>2026-07-07T18:12:33.000Z</time>
      </trkpt>
      <trkpt lat="47.51926" lon="16.0116">
        <ele>1167.647042</ele>
        <time>2026-07-07T18:12:34.000Z</time>
      </trkpt>
      <trkpt lat="47.51927" lon="16.01159">
        <ele>1167.764838</ele>
        <time>2026-07-07T18:12:35.000Z</time>
      </trkpt>
      <trkpt lat="47.51928" lon="16.01158">
        <ele>1167.874278</ele>
        <time>2026-07-07T18:12:36.000Z</time>
      </trkpt>
      <trkpt lat="47.51928" lon="16.01158">
        <ele>1167.965122</ele>
        <time>2026-07-07T18:12:37.000Z</time>
      </trkpt>
      <trkpt lat="47.51929" lon="16.01157">
        <ele>1168.064613</ele>
        <time>2026-07-07T18:12:38.000Z</time>
      </trkpt>
      <trkpt lat="47.5193" lon="16.01156">
        <ele>1168.185102</ele>
        <time>2026-07-07T18:12:39.000Z</time>
      </trkpt>
      <trkpt lat="47.51931" lon="16.01154">
        <ele>1168.313229</ele>
        <time>2026-07-07T18:12:40.000Z</time>
      </trkpt>
      <trkpt lat="47.51931" lon="16.01153">
        <ele>1168.429032</ele>
        <time>2026-07-07T18:12:41.000Z</time>
      </trkpt>
      <trkpt lat="47.51932" lon="16.01152">
        <ele>1168.481962</ele>
        <time>2026-07-07T18:12:42.000Z</time>
      </trkpt>
      <trkpt lat="47.51933" lon="16.01151">
        <ele>1168.538933</ele>
        <time>2026-07-07T18:12:43.000Z</time>
      </trkpt>
      <trkpt lat="47.51934" lon="16.0115">
        <ele>1168.594477</ele>
        <time>2026-07-07T18:12:44.000Z</time>
      </trkpt>
      <trkpt lat="47.51935" lon="16.01149">
        <ele>1168.66452</ele>
        <time>2026-07-07T18:12:45.000Z</time>
      </trkpt>
      <trkpt lat="47.51935" lon="16.01148">
        <ele>1168.717449</ele>
        <time>2026-07-07T18:12:46.000Z</time>
      </trkpt>
      <trkpt lat="47.51936" lon="16.01147">
        <ele>1168.779417</ele>
        <time>2026-07-07T18:12:47.000Z</time>
      </trkpt>
      <trkpt lat="47.51937" lon="16.01146">
        <ele>1168.834961</ele>
        <time>2026-07-07T18:12:48.000Z</time>
      </trkpt>
      <trkpt lat="47.51937" lon="16.01145">
        <ele>1168.88412</ele>
        <time>2026-07-07T18:12:49.000Z</time>
      </trkpt>
      <trkpt lat="47.51938" lon="16.01144">
        <ele>1168.935938</ele>
        <time>2026-07-07T18:12:50.000Z</time>
      </trkpt>
      <trkpt lat="47.51939" lon="16.01143">
        <ele>1168.988867</ele>
        <time>2026-07-07T18:12:51.000Z</time>
      </trkpt>
      <trkpt lat="47.51939" lon="16.01142">
        <ele>1169.034593</ele>
        <time>2026-07-07T18:12:52.000Z</time>
      </trkpt>
      <trkpt lat="47.5194" lon="16.01141">
        <ele>1169.080319</ele>
        <time>2026-07-07T18:12:53.000Z</time>
      </trkpt>
      <trkpt lat="47.5194" lon="16.0114">
        <ele>1169.120531</ele>
        <time>2026-07-07T18:12:54.000Z</time>
      </trkpt>
      <trkpt lat="47.5194" lon="16.01139">
        <ele>1169.154229</ele>
        <time>2026-07-07T18:12:55.000Z</time>
      </trkpt>
      <trkpt lat="47.51941" lon="16.01138">
        <ele>1169.199955</ele>
        <time>2026-07-07T18:12:56.000Z</time>
      </trkpt>
      <trkpt lat="47.51941" lon="16.01137">
        <ele>1169.243552</ele>
        <time>2026-07-07T18:12:57.000Z</time>
      </trkpt>
      <trkpt lat="47.51942" lon="16.01136">
        <ele>1169.28638</ele>
        <time>2026-07-07T18:12:58.000Z</time>
      </trkpt>
      <trkpt lat="47.51942" lon="16.01135">
        <ele>1169.341359</ele>
        <time>2026-07-07T18:12:59.000Z</time>
      </trkpt>
      <trkpt lat="47.51943" lon="16.01133">
        <ele>1169.399633</ele>
        <time>2026-07-07T18:13:00.000Z</time>
      </trkpt>
      <trkpt lat="47.51943" lon="16.01132">
        <ele>1169.463701</ele>
        <time>2026-07-07T18:13:01.000Z</time>
      </trkpt>
      <trkpt lat="47.51944" lon="16.01131">
        <ele>1169.519245</ele>
        <time>2026-07-07T18:13:02.000Z</time>
      </trkpt>
      <trkpt lat="47.51945" lon="16.0113">
        <ele>1169.571063</ele>
        <time>2026-07-07T18:13:03.000Z</time>
      </trkpt>
      <trkpt lat="47.51945" lon="16.01128">
        <ele>1169.626042</ele>
        <time>2026-07-07T18:13:04.000Z</time>
      </trkpt>
      <trkpt lat="47.51946" lon="16.01127">
        <ele>1169.684316</ele>
        <time>2026-07-07T18:13:05.000Z</time>
      </trkpt>
      <trkpt lat="47.51946" lon="16.01126">
        <ele>1169.742182</ele>
        <time>2026-07-07T18:13:06.000Z</time>
      </trkpt>
      <trkpt lat="47.51947" lon="16.01124">
        <ele>1169.798046</ele>
        <time>2026-07-07T18:13:07.000Z</time>
      </trkpt>
      <trkpt lat="47.51947" lon="16.01123">
        <ele>1169.853026</ele>
        <time>2026-07-07T18:13:08.000Z</time>
      </trkpt>
      <trkpt lat="47.51948" lon="16.01122">
        <ele>1169.908005</ele>
        <time>2026-07-07T18:13:09.000Z</time>
      </trkpt>
      <trkpt lat="47.51948" lon="16.0112">
        <ele>1169.961983</ele>
        <time>2026-07-07T18:13:10.000Z</time>
      </trkpt>
      <trkpt lat="47.51948" lon="16.01119">
        <ele>1170.005579</ele>
        <time>2026-07-07T18:13:11.000Z</time>
      </trkpt>
      <trkpt lat="47.51949" lon="16.01118">
        <ele>1170.06378</ele>
        <time>2026-07-07T18:13:12.000Z</time>
      </trkpt>
      <trkpt lat="47.51949" lon="16.01117">
        <ele>1170.106493</ele>
        <time>2026-07-07T18:13:13.000Z</time>
      </trkpt>
      <trkpt lat="47.51949" lon="16.01116">
        <ele>1170.147282</ele>
        <time>2026-07-07T18:13:14.000Z</time>
      </trkpt>
      <trkpt lat="47.5195" lon="16.01115">
        <ele>1170.196461</ele>
        <time>2026-07-07T18:13:15.000Z</time>
      </trkpt>
      <trkpt lat="47.5195" lon="16.01113">
        <ele>1170.243485</ele>
        <time>2026-07-07T18:13:16.000Z</time>
      </trkpt>
      <trkpt lat="47.5195" lon="16.01112">
        <ele>1170.28535</ele>
        <time>2026-07-07T18:13:17.000Z</time>
      </trkpt>
      <trkpt lat="47.5195" lon="16.01111">
        <ele>1170.340742</ele>
        <time>2026-07-07T18:13:18.000Z</time>
      </trkpt>
      <trkpt lat="47.51951" lon="16.01109">
        <ele>1170.396931</ele>
        <time>2026-07-07T18:13:19.000Z</time>
      </trkpt>
      <trkpt lat="47.51951" lon="16.01108">
        <ele>1170.448381</ele>
        <time>2026-07-07T18:13:20.000Z</time>
      </trkpt>
      <trkpt lat="47.51951" lon="16.01107">
        <ele>1170.497379</ele>
        <time>2026-07-07T18:13:21.000Z</time>
      </trkpt>
      <trkpt lat="47.51951" lon="16.01105">
        <ele>1170.553568</ele>
        <time>2026-07-07T18:13:22.000Z</time>
      </trkpt>
      <trkpt lat="47.51951" lon="16.01104">
        <ele>1170.609757</ele>
        <time>2026-07-07T18:13:23.000Z</time>
      </trkpt>
      <trkpt lat="47.51951" lon="16.01102">
        <ele>1170.667248</ele>
        <time>2026-07-07T18:13:24.000Z</time>
      </trkpt>
      <trkpt lat="47.51951" lon="16.01101">
        <ele>1170.723437</ele>
        <time>2026-07-07T18:13:25.000Z</time>
      </trkpt>
      <trkpt lat="47.51952" lon="16.01099">
        <ele>1170.773924</ele>
        <time>2026-07-07T18:13:26.000Z</time>
      </trkpt>
      <trkpt lat="47.51952" lon="16.01098">
        <ele>1170.831415</ele>
        <time>2026-07-07T18:13:27.000Z</time>
      </trkpt>
      <trkpt lat="47.51952" lon="16.01097">
        <ele>1170.875515</ele>
        <time>2026-07-07T18:13:28.000Z</time>
      </trkpt>
      <trkpt lat="47.51952" lon="16.01096">
        <ele>1170.89389</ele>
        <time>2026-07-07T18:13:29.000Z</time>
      </trkpt>
      <trkpt lat="47.51952" lon="16.0109">
        <ele>1171.107108</ele>
        <time>2026-07-07T18:13:49.000Z</time>
      </trkpt>
      <trkpt lat="47.51952" lon="16.01087">
        <ele>1171.213682</ele>
        <time>2026-07-07T18:13:50.000Z</time>
      </trkpt>
      <trkpt lat="47.51952" lon="16.01085">
        <ele>1171.306199</ele>
        <time>2026-07-07T18:13:51.000Z</time>
      </trkpt>
      <trkpt lat="47.51952" lon="16.01082">
        <ele>1171.402366</ele>
        <time>2026-07-07T18:13:52.000Z</time>
      </trkpt>
      <trkpt lat="47.51952" lon="16.0108">
        <ele>1171.501591</ele>
        <time>2026-07-07T18:13:53.000Z</time>
      </trkpt>
      <trkpt lat="47.51952" lon="16.01077">
        <ele>1171.61184</ele>
        <time>2026-07-07T18:13:54.000Z</time>
      </trkpt>
      <trkpt lat="47.51952" lon="16.01074">
        <ele>1171.722089</ele>
        <time>2026-07-07T18:13:55.000Z</time>
      </trkpt>
      <trkpt lat="47.51952" lon="16.01071">
        <ele>1171.821314</ele>
        <time>2026-07-07T18:13:56.000Z</time>
      </trkpt>
      <trkpt lat="47.51951" lon="16.01068">
        <ele>1171.919311</ele>
        <time>2026-07-07T18:13:57.000Z</time>
      </trkpt>
      <trkpt lat="47.51951" lon="16.01065">
        <ele>1172.029561</ele>
        <time>2026-07-07T18:13:58.000Z</time>
      </trkpt>
      <trkpt lat="47.51951" lon="16.01062">
        <ele>1172.148288</ele>
        <time>2026-07-07T18:13:59.000Z</time>
      </trkpt>
      <trkpt lat="47.51951" lon="16.0106">
        <ele>1172.244106</ele>
        <time>2026-07-07T18:14:00.000Z</time>
      </trkpt>
      <trkpt lat="47.5195" lon="16.01058">
        <ele>1172.32248</ele>
        <time>2026-07-07T18:14:01.000Z</time>
      </trkpt>
      <trkpt lat="47.5195" lon="16.01055">
        <ele>1172.407703</ele>
        <time>2026-07-07T18:14:02.000Z</time>
      </trkpt>
      <trkpt lat="47.5195" lon="16.01052">
        <ele>1172.514416</ele>
        <time>2026-07-07T18:14:03.000Z</time>
      </trkpt>
      <trkpt lat="47.51949" lon="16.01049">
        <ele>1172.644869</ele>
        <time>2026-07-07T18:14:04.000Z</time>
      </trkpt>
      <trkpt lat="47.51949" lon="16.01046">
        <ele>1172.770461</ele>
        <time>2026-07-07T18:14:05.000Z</time>
      </trkpt>
      <trkpt lat="47.51948" lon="16.01042">
        <ele>1172.908199</ele>
        <time>2026-07-07T18:14:06.000Z</time>
      </trkpt>
      <trkpt lat="47.51946" lon="16.01039">
        <ele>1173.049183</ele>
        <time>2026-07-07T18:14:07.000Z</time>
      </trkpt>
      <trkpt lat="47.51945" lon="16.01036">
        <ele>1173.184425</ele>
        <time>2026-07-07T18:14:08.000Z</time>
      </trkpt>
      <trkpt lat="47.51944" lon="16.01033">
        <ele>1173.303777</ele>
        <time>2026-07-07T18:14:09.000Z</time>
      </trkpt>
      <trkpt lat="47.51943" lon="16.01031">
        <ele>1173.40735</ele>
        <time>2026-07-07T18:14:10.000Z</time>
      </trkpt>
      <trkpt lat="47.51942" lon="16.01028">
        <ele>1173.520517</ele>
        <time>2026-07-07T18:14:11.000Z</time>
      </trkpt>
      <trkpt lat="47.5194" lon="16.01025">
        <ele>1173.660637</ele>
        <time>2026-07-07T18:14:12.000Z</time>
      </trkpt>
      <trkpt lat="47.51939" lon="16.01022">
        <ele>1173.78933</ele>
        <time>2026-07-07T18:14:13.000Z</time>
      </trkpt>
      <trkpt lat="47.51938" lon="16.01019">
        <ele>1173.932481</ele>
        <time>2026-07-07T18:14:14.000Z</time>
      </trkpt>
      <trkpt lat="47.51937" lon="16.01015">
        <ele>1174.066994</ele>
        <time>2026-07-07T18:14:15.000Z</time>
      </trkpt>
      <trkpt lat="47.51935" lon="16.01012">
        <ele>1174.197988</ele>
        <time>2026-07-07T18:14:16.000Z</time>
      </trkpt>
      <trkpt lat="47.51934" lon="16.0101">
        <ele>1174.319859</ele>
        <time>2026-07-07T18:14:17.000Z</time>
      </trkpt>
      <trkpt lat="47.51933" lon="16.01007">
        <ele>1174.436262</ele>
        <time>2026-07-07T18:14:18.000Z</time>
      </trkpt>
      <trkpt lat="47.51932" lon="16.01004">
        <ele>1174.56166</ele>
        <time>2026-07-07T18:14:19.000Z</time>
      </trkpt>
      <trkpt lat="47.51931" lon="16.01001">
        <ele>1174.675621</ele>
        <time>2026-07-07T18:14:20.000Z</time>
      </trkpt>
      <trkpt lat="47.5193" lon="16.00998">
        <ele>1174.807578</ele>
        <time>2026-07-07T18:14:21.000Z</time>
      </trkpt>
      <trkpt lat="47.51929" lon="16.00994">
        <ele>1174.940502</ele>
        <time>2026-07-07T18:14:22.000Z</time>
      </trkpt>
      <trkpt lat="47.51928" lon="16.00991">
        <ele>1175.074707</ele>
        <time>2026-07-07T18:14:23.000Z</time>
      </trkpt>
      <trkpt lat="47.51928" lon="16.00987">
        <ele>1175.210976</ele>
        <time>2026-07-07T18:14:24.000Z</time>
      </trkpt>
      <trkpt lat="47.51927" lon="16.00983">
        <ele>1175.359276</ele>
        <time>2026-07-07T18:14:25.000Z</time>
      </trkpt>
      <trkpt lat="47.51926" lon="16.00979">
        <ele>1175.514692</ele>
        <time>2026-07-07T18:14:26.000Z</time>
      </trkpt>
      <trkpt lat="47.51926" lon="16.00975">
        <ele>1175.675063</ele>
        <time>2026-07-07T18:14:27.000Z</time>
      </trkpt>
      <trkpt lat="47.51925" lon="16.00971">
        <ele>1175.837614</ele>
        <time>2026-07-07T18:14:28.000Z</time>
      </trkpt>
      <trkpt lat="47.51924" lon="16.00966">
        <ele>1176.006181</ele>
        <time>2026-07-07T18:14:29.000Z</time>
      </trkpt>
      <trkpt lat="47.51923" lon="16.00962">
        <ele>1176.185715</ele>
        <time>2026-07-07T18:14:30.000Z</time>
      </trkpt>
      <trkpt lat="47.51923" lon="16.00957">
        <ele>1176.346087</ele>
        <time>2026-07-07T18:14:31.000Z</time>
      </trkpt>
      <trkpt lat="47.51921" lon="16.00953">
        <ele>1176.506938</ele>
        <time>2026-07-07T18:14:32.000Z</time>
      </trkpt>
      <trkpt lat="47.5192" lon="16.00949">
        <ele>1176.663687</ele>
        <time>2026-07-07T18:14:33.000Z</time>
      </trkpt>
      <trkpt lat="47.51919" lon="16.00946">
        <ele>1176.806741</ele>
        <time>2026-07-07T18:14:34.000Z</time>
      </trkpt>
      <trkpt lat="47.51919" lon="16.00942">
        <ele>1176.956532</ele>
        <time>2026-07-07T18:14:35.000Z</time>
      </trkpt>
      <trkpt lat="47.51918" lon="16.00938">
        <ele>1177.109842</ele>
        <time>2026-07-07T18:14:36.000Z</time>
      </trkpt>
      <trkpt lat="47.51917" lon="16.00934">
        <ele>1177.270193</ele>
        <time>2026-07-07T18:14:37.000Z</time>
      </trkpt>
      <trkpt lat="47.51916" lon="16.00929">
        <ele>1177.433854</ele>
        <time>2026-07-07T18:14:38.000Z</time>
      </trkpt>
      <trkpt lat="47.51915" lon="16.00925">
        <ele>1177.600986</ele>
        <time>2026-07-07T18:14:39.000Z</time>
      </trkpt>
      <trkpt lat="47.51914" lon="16.00921">
        <ele>1177.771972</ele>
        <time>2026-07-07T18:14:40.000Z</time>
      </trkpt>
      <trkpt lat="47.51913" lon="16.00916">
        <ele>1177.94636</ele>
        <time>2026-07-07T18:14:41.000Z</time>
      </trkpt>
      <trkpt lat="47.51912" lon="16.00912">
        <ele>1178.108489</ele>
        <time>2026-07-07T18:14:42.000Z</time>
      </trkpt>
      <trkpt lat="47.51911" lon="16.00908">
        <ele>1178.214804</ele>
        <time>2026-07-07T18:14:43.000Z</time>
      </trkpt>
      <trkpt lat="47.5191" lon="16.00904">
        <ele>1178.214804</ele>
        <time>2026-07-07T18:14:44.000Z</time>
      </trkpt>
      <trkpt lat="47.51909" lon="16.009">
        <ele>1178.214804</ele>
        <time>2026-07-07T18:14:45.000Z</time>
      </trkpt>
      <trkpt lat="47.51908" lon="16.00895">
        <ele>1178.214804</ele>
        <time>2026-07-07T18:14:46.000Z</time>
      </trkpt>
      <trkpt lat="47.51907" lon="16.00891">
        <ele>1178.214804</ele>
        <time>2026-07-07T18:14:47.000Z</time>
      </trkpt>
      <trkpt lat="47.51906" lon="16.00887">
        <ele>1178.214804</ele>
        <time>2026-07-07T18:14:48.000Z</time>
      </trkpt>
      <trkpt lat="47.51905" lon="16.00882">
        <ele>1178.214804</ele>
        <time>2026-07-07T18:14:49.000Z</time>
      </trkpt>
      <trkpt lat="47.51904" lon="16.00878">
        <ele>1178.214804</ele>
        <time>2026-07-07T18:14:50.000Z</time>
      </trkpt>
      <trkpt lat="47.51904" lon="16.00874">
        <ele>1178.214804</ele>
        <time>2026-07-07T18:14:51.000Z</time>
      </trkpt>
      <trkpt lat="47.51903" lon="16.0087">
        <ele>1178.214804</ele>
        <time>2026-07-07T18:14:52.000Z</time>
      </trkpt>
      <trkpt lat="47.51902" lon="16.00866">
        <ele>1178.214804</ele>
        <time>2026-07-07T18:14:53.000Z</time>
      </trkpt>
      <trkpt lat="47.51901" lon="16.00862">
        <ele>1178.214804</ele>
        <time>2026-07-07T18:14:54.000Z</time>
      </trkpt>
      <trkpt lat="47.51901" lon="16.00858">
        <ele>1178.214804</ele>
        <time>2026-07-07T18:14:55.000Z</time>
      </trkpt>
      <trkpt lat="47.519" lon="16.00855">
        <ele>1178.214804</ele>
        <time>2026-07-07T18:14:56.000Z</time>
      </trkpt>
      <trkpt lat="47.51899" lon="16.00851">
        <ele>1178.214804</ele>
        <time>2026-07-07T18:14:57.000Z</time>
      </trkpt>
      <trkpt lat="47.51898" lon="16.00847">
        <ele>1178.214804</ele>
        <time>2026-07-07T18:14:58.000Z</time>
      </trkpt>
      <trkpt lat="47.51898" lon="16.00843">
        <ele>1178.214804</ele>
        <time>2026-07-07T18:14:59.000Z</time>
      </trkpt>
      <trkpt lat="47.51897" lon="16.0084">
        <ele>1178.214804</ele>
        <time>2026-07-07T18:15:00.000Z</time>
      </trkpt>
      <trkpt lat="47.51896" lon="16.00836">
        <ele>1178.214804</ele>
        <time>2026-07-07T18:15:01.000Z</time>
      </trkpt>
      <trkpt lat="47.51896" lon="16.00833">
        <ele>1178.214804</ele>
        <time>2026-07-07T18:15:02.000Z</time>
      </trkpt>
      <trkpt lat="47.51895" lon="16.00829">
        <ele>1178.214804</ele>
        <time>2026-07-07T18:15:03.000Z</time>
      </trkpt>
      <trkpt lat="47.51894" lon="16.00826">
        <ele>1178.214804</ele>
        <time>2026-07-07T18:15:04.000Z</time>
      </trkpt>
      <trkpt lat="47.51894" lon="16.00822">
        <ele>1178.214804</ele>
        <time>2026-07-07T18:15:05.000Z</time>
      </trkpt>
      <trkpt lat="47.51893" lon="16.00818">
        <ele>1178.214804</ele>
        <time>2026-07-07T18:15:06.000Z</time>
      </trkpt>
      <trkpt lat="47.51893" lon="16.00815">
        <ele>1178.214804</ele>
        <time>2026-07-07T18:15:07.000Z</time>
      </trkpt>
      <trkpt lat="47.51893" lon="16.00811">
        <ele>1178.214804</ele>
        <time>2026-07-07T18:15:08.000Z</time>
      </trkpt>
      <trkpt lat="47.51892" lon="16.00808">
        <ele>1178.214804</ele>
        <time>2026-07-07T18:15:09.000Z</time>
      </trkpt>
      <trkpt lat="47.51892" lon="16.00804">
        <ele>1178.214804</ele>
        <time>2026-07-07T18:15:10.000Z</time>
      </trkpt>
      <trkpt lat="47.51892" lon="16.00801">
        <ele>1178.214804</ele>
        <time>2026-07-07T18:15:11.000Z</time>
      </trkpt>
      <trkpt lat="47.51891" lon="16.00797">
        <ele>1178.214804</ele>
        <time>2026-07-07T18:15:12.000Z</time>
      </trkpt>
      <trkpt lat="47.51891" lon="16.00794">
        <ele>1178.214804</ele>
        <time>2026-07-07T18:15:13.000Z</time>
      </trkpt>
      <trkpt lat="47.51891" lon="16.00791">
        <ele>1178.214804</ele>
        <time>2026-07-07T18:15:14.000Z</time>
      </trkpt>
      <trkpt lat="47.51891" lon="16.00787">
        <ele>1178.214804</ele>
        <time>2026-07-07T18:15:15.000Z</time>
      </trkpt>
      <trkpt lat="47.5189" lon="16.00784">
        <ele>1178.214804</ele>
        <time>2026-07-07T18:15:16.000Z</time>
      </trkpt>
      <trkpt lat="47.5189" lon="16.0078">
        <ele>1178.214804</ele>
        <time>2026-07-07T18:15:17.000Z</time>
      </trkpt>
      <trkpt lat="47.5189" lon="16.00777">
        <ele>1178.214804</ele>
        <time>2026-07-07T18:15:18.000Z</time>
      </trkpt>
      <trkpt lat="47.51889" lon="16.00774">
        <ele>1178.214804</ele>
        <time>2026-07-07T18:15:19.000Z</time>
      </trkpt>
      <trkpt lat="47.51888" lon="16.00771">
        <ele>1178.214804</ele>
        <time>2026-07-07T18:15:20.000Z</time>
      </trkpt>
      <trkpt lat="47.51887" lon="16.00768">
        <ele>1178.214804</ele>
        <time>2026-07-07T18:15:21.000Z</time>
      </trkpt>
      <trkpt lat="47.51887" lon="16.00765">
        <ele>1178.214804</ele>
        <time>2026-07-07T18:15:22.000Z</time>
      </trkpt>
      <trkpt lat="47.51886" lon="16.00763">
        <ele>1178.214804</ele>
        <time>2026-07-07T18:15:23.000Z</time>
      </trkpt>
      <trkpt lat="47.51886" lon="16.0076">
        <ele>1178.214804</ele>
        <time>2026-07-07T18:15:24.000Z</time>
      </trkpt>
      <trkpt lat="47.51884" lon="16.00757">
        <ele>1178.214804</ele>
        <time>2026-07-07T18:15:25.000Z</time>
      </trkpt>
      <trkpt lat="47.51884" lon="16.00754">
        <ele>1178.214804</ele>
        <time>2026-07-07T18:15:26.000Z</time>
      </trkpt>
      <trkpt lat="47.51883" lon="16.00752">
        <ele>1178.214804</ele>
        <time>2026-07-07T18:15:27.000Z</time>
      </trkpt>
      <trkpt lat="47.51882" lon="16.00749">
        <ele>1178.214804</ele>
        <time>2026-07-07T18:15:28.000Z</time>
      </trkpt>
      <trkpt lat="47.51881" lon="16.00746">
        <ele>1178.214804</ele>
        <time>2026-07-07T18:15:29.000Z</time>
      </trkpt>
      <trkpt lat="47.5188" lon="16.00743">
        <ele>1178.214804</ele>
        <time>2026-07-07T18:15:30.000Z</time>
      </trkpt>
      <trkpt lat="47.5188" lon="16.0074">
        <ele>1178.214804</ele>
        <time>2026-07-07T18:15:31.000Z</time>
      </trkpt>
      <trkpt lat="47.51879" lon="16.00738">
        <ele>1178.214804</ele>
        <time>2026-07-07T18:15:32.000Z</time>
      </trkpt>
      <trkpt lat="47.51878" lon="16.00736">
        <ele>1178.214804</ele>
        <time>2026-07-07T18:15:33.000Z</time>
      </trkpt>
      <trkpt lat="47.51877" lon="16.00733">
        <ele>1178.214804</ele>
        <time>2026-07-07T18:15:35.000Z</time>
      </trkpt>
      <trkpt lat="47.51876" lon="16.00731">
        <ele>1178.214804</ele>
        <time>2026-07-07T18:15:36.000Z</time>
      </trkpt>
      <trkpt lat="47.51875" lon="16.00729">
        <ele>1178.214804</ele>
        <time>2026-07-07T18:15:37.000Z</time>
      </trkpt>
      <trkpt lat="47.51874" lon="16.00726">
        <ele>1178.214804</ele>
        <time>2026-07-07T18:15:38.000Z</time>
      </trkpt>
      <trkpt lat="47.51874" lon="16.00724">
        <ele>1178.214804</ele>
        <time>2026-07-07T18:15:39.000Z</time>
      </trkpt>
      <trkpt lat="47.51874" lon="16.00721">
        <ele>1178.214804</ele>
        <time>2026-07-07T18:15:40.000Z</time>
      </trkpt>
      <trkpt lat="47.51873" lon="16.00719">
        <ele>1178.214804</ele>
        <time>2026-07-07T18:15:41.000Z</time>
      </trkpt>
      <trkpt lat="47.51872" lon="16.00716">
        <ele>1178.214804</ele>
        <time>2026-07-07T18:15:42.000Z</time>
      </trkpt>
      <trkpt lat="47.51872" lon="16.00713">
        <ele>1178.214804</ele>
        <time>2026-07-07T18:15:43.000Z</time>
      </trkpt>
      <trkpt lat="47.51871" lon="16.00711">
        <ele>1178.214804</ele>
        <time>2026-07-07T18:15:44.000Z</time>
      </trkpt>
      <trkpt lat="47.5187" lon="16.00709">
        <ele>1178.214804</ele>
        <time>2026-07-07T18:15:45.000Z</time>
      </trkpt>
      <trkpt lat="47.51869" lon="16.00707">
        <ele>1178.214804</ele>
        <time>2026-07-07T18:15:46.000Z</time>
      </trkpt>
      <trkpt lat="47.51868" lon="16.00705">
        <ele>1178.214804</ele>
        <time>2026-07-07T18:15:47.000Z</time>
      </trkpt>
      <trkpt lat="47.51867" lon="16.00704">
        <ele>1178.214804</ele>
        <time>2026-07-07T18:15:48.000Z</time>
      </trkpt>
      <trkpt lat="47.51866" lon="16.00702">
        <ele>1178.214804</ele>
        <time>2026-07-07T18:15:49.000Z</time>
      </trkpt>
      <trkpt lat="47.51865" lon="16.007">
        <ele>1178.214804</ele>
        <time>2026-07-07T18:15:50.000Z</time>
      </trkpt>
      <trkpt lat="47.51864" lon="16.00698">
        <ele>1178.214804</ele>
        <time>2026-07-07T18:15:51.000Z</time>
      </trkpt>
      <trkpt lat="47.51863" lon="16.00697">
        <ele>1178.214804</ele>
        <time>2026-07-07T18:15:52.000Z</time>
      </trkpt>
      <trkpt lat="47.51862" lon="16.00695">
        <ele>1178.214804</ele>
        <time>2026-07-07T18:15:53.000Z</time>
      </trkpt>
      <trkpt lat="47.51861" lon="16.00695">
        <ele>1178.214804</ele>
        <time>2026-07-07T18:15:54.000Z</time>
      </trkpt>
      <trkpt lat="47.5186" lon="16.00695">
        <ele>1178.214804</ele>
        <time>2026-07-07T18:15:55.000Z</time>
      </trkpt>
    </trkseg>
  </trk>
</gpx>